<?xml version="1.0" encoding="UTF-8"?>
<gpx version="1.1" creator="https://www.youtrack.es" xsi:schemaLocation="http://www.topografix.com/GPX/1/1 http://www.topografix.com/GPX/1/1/gpx.xsd http://www.garmin.com/xmlschemas/GpxExtensions/v3 http://www.garmin.com/xmlschemas/GpxExtensionsv3.xsd http://www.garmin.com/xmlschemas/TrackPointExtension/v1 http://www.garmin.com/xmlschemas/TrackPointExtensionv1.xsd" xmlns:gpxtpx="http://www.garmin.com/xmlschemas/TrackPointExtension/v1" xmlns:gpxx="http://www.garmin.com/xmlschemas/GpxExtensions/v3" xmlns:xsi="http://www.w3.org/2001/XMLSchema-instance">
  <metadata>
    <link href="https://www.youtrack.es">
      <text>YouTrack.es</text>
    </link>
    <time>2026-05-08T04:51:10Z</time>
  </metadata>
  <trk>
    <src>https://www.youtrack.es</src>
    <link href="https://www.youtrack.es/ruta/7146-peak-of-the-balkans">
      <text>YouTrack.es</text>
    </link>
    <trkseg>
      <trkpt lat="42.5964349508" lon="19.9464142229">
        <ele>862.92</ele>
        <time>2019-07-04T08:10:24Z</time>
      </trkpt>
      <trkpt lat="42.5964103919" lon="19.9463877361">
        <ele>862.92</ele>
        <time>2019-07-04T08:10:25Z</time>
      </trkpt>
      <trkpt lat="42.5963286683" lon="19.9463034142">
        <ele>868.69</ele>
        <time>2019-07-04T08:10:29Z</time>
      </trkpt>
      <trkpt lat="42.5962965656" lon="19.9462507758">
        <ele>874.46</ele>
        <time>2019-07-04T08:10:31Z</time>
      </trkpt>
      <trkpt lat="42.5962802209" lon="19.9462234508">
        <ele>879.26</ele>
        <time>2019-07-04T08:10:33Z</time>
      </trkpt>
      <trkpt lat="42.5962764490" lon="19.9462197628">
        <ele>884.55</ele>
        <time>2019-07-04T08:10:35Z</time>
      </trkpt>
      <trkpt lat="42.5962704979" lon="19.9462119676">
        <ele>889.36</ele>
        <time>2019-07-04T08:10:37Z</time>
      </trkpt>
      <trkpt lat="42.5962657202" lon="19.9462075252">
        <ele>896.09</ele>
        <time>2019-07-04T08:10:39Z</time>
      </trkpt>
      <trkpt lat="42.5962656364" lon="19.9462057650">
        <ele>896.09</ele>
        <time>2019-07-04T08:10:40Z</time>
      </trkpt>
      <trkpt lat="42.5962632895" lon="19.9462004006">
        <ele>900.41</ele>
        <time>2019-07-04T08:10:41Z</time>
      </trkpt>
      <trkpt lat="42.5962613616" lon="19.9461962096">
        <ele>900.41</ele>
        <time>2019-07-04T08:10:42Z</time>
      </trkpt>
      <trkpt lat="42.5962606911" lon="19.9461968802">
        <ele>904.74</ele>
        <time>2019-07-04T08:10:44Z</time>
      </trkpt>
      <trkpt lat="42.5962632895" lon="19.9462068547">
        <ele>908.10</ele>
        <time>2019-07-04T08:10:46Z</time>
      </trkpt>
      <trkpt lat="42.5962647144" lon="19.9462177511">
        <ele>911.95</ele>
        <time>2019-07-04T08:10:48Z</time>
      </trkpt>
      <trkpt lat="42.5962659717" lon="19.9462292343">
        <ele>915.31</ele>
        <time>2019-07-04T08:10:50Z</time>
      </trkpt>
      <trkpt lat="42.5962669775" lon="19.9462384544">
        <ele>918.20</ele>
        <time>2019-07-04T08:10:52Z</time>
      </trkpt>
      <trkpt lat="42.5962659717" lon="19.9462452438">
        <ele>922.52</ele>
        <time>2019-07-04T08:10:54Z</time>
      </trkpt>
      <trkpt lat="42.5962647144" lon="19.9462568946">
        <ele>922.52</ele>
        <time>2019-07-04T08:10:55Z</time>
      </trkpt>
      <trkpt lat="42.5962637085" lon="19.9462805316">
        <ele>926.85</ele>
        <time>2019-07-04T08:10:58Z</time>
      </trkpt>
      <trkpt lat="42.5962552428" lon="19.9462822080">
        <ele>930.69</ele>
        <time>2019-07-04T08:11:00Z</time>
      </trkpt>
      <trkpt lat="42.5962485373" lon="19.9462820403">
        <ele>930.69</ele>
        <time>2019-07-04T08:11:01Z</time>
      </trkpt>
      <trkpt lat="42.5962399039" lon="19.9462813698">
        <ele>933.10</ele>
        <time>2019-07-04T08:11:03Z</time>
      </trkpt>
      <trkpt lat="42.5962370541" lon="19.9462878238">
        <ele>935.50</ele>
        <time>2019-07-04T08:11:05Z</time>
      </trkpt>
      <trkpt lat="42.5962352939" lon="19.9462931044">
        <ele>937.42</ele>
        <time>2019-07-04T08:11:07Z</time>
      </trkpt>
      <trkpt lat="42.5962884352" lon="19.9463594891">
        <ele>960.01</ele>
        <time>2019-07-04T08:11:41Z</time>
      </trkpt>
      <trkpt lat="42.5962859206" lon="19.9463570584">
        <ele>960.01</ele>
        <time>2019-07-04T08:11:42Z</time>
      </trkpt>
      <trkpt lat="42.5962795503" lon="19.9463334214">
        <ele>962.90</ele>
        <time>2019-07-04T08:11:55Z</time>
      </trkpt>
      <trkpt lat="42.5962792151" lon="19.9463322479">
        <ele>962.90</ele>
        <time>2019-07-04T08:11:56Z</time>
      </trkpt>
      <trkpt lat="42.5961538218" lon="19.9462384544">
        <ele>966.26</ele>
        <time>2019-07-04T08:12:24Z</time>
      </trkpt>
      <trkpt lat="42.5961933844" lon="19.9462670367">
        <ele>966.26</ele>
        <time>2019-07-04T08:12:49Z</time>
      </trkpt>
      <trkpt lat="42.5961871818" lon="19.9462436512">
        <ele>966.26</ele>
        <time>2019-07-04T08:13:16Z</time>
      </trkpt>
      <trkpt lat="42.5964369625" lon="19.9463428091">
        <ele>966.26</ele>
        <time>2019-07-04T08:13:32Z</time>
      </trkpt>
      <trkpt lat="42.5964328554" lon="19.9463489279">
        <ele>966.26</ele>
        <time>2019-07-04T08:13:47Z</time>
      </trkpt>
      <trkpt lat="42.5964228809" lon="19.9463822041">
        <ele>966.26</ele>
        <time>2019-07-04T08:13:53Z</time>
      </trkpt>
      <trkpt lat="42.5964002497" lon="19.9464170728">
        <ele>966.26</ele>
        <time>2019-07-04T08:13:57Z</time>
      </trkpt>
      <trkpt lat="42.5963455159" lon="19.9465226009">
        <ele>967.70</ele>
        <time>2019-07-04T08:14:10Z</time>
      </trkpt>
      <trkpt lat="42.5962418318" lon="19.9464775901">
        <ele>968.67</ele>
        <time>2019-07-04T08:14:20Z</time>
      </trkpt>
      <trkpt lat="42.5962127466" lon="19.9464568030">
        <ele>969.15</ele>
        <time>2019-07-04T08:14:23Z</time>
      </trkpt>
      <trkpt lat="42.5961230602" lon="19.9464130495">
        <ele>969.63</ele>
        <time>2019-07-04T08:14:32Z</time>
      </trkpt>
      <trkpt lat="42.5960609503" lon="19.9463572260">
        <ele>970.59</ele>
        <time>2019-07-04T08:14:39Z</time>
      </trkpt>
      <trkpt lat="42.5960121676" lon="19.9461585749">
        <ele>971.55</ele>
        <time>2019-07-04T08:14:54Z</time>
      </trkpt>
      <trkpt lat="42.5959947333" lon="19.9460705649">
        <ele>971.55</ele>
        <time>2019-07-04T08:15:00Z</time>
      </trkpt>
      <trkpt lat="42.5960090663" lon="19.9457951356">
        <ele>973.47</ele>
        <time>2019-07-04T08:15:18Z</time>
      </trkpt>
      <trkpt lat="42.5960134249" lon="19.9453658145">
        <ele>975.39</ele>
        <time>2019-07-04T08:15:55Z</time>
      </trkpt>
      <trkpt lat="42.5960143469" lon="19.9453488830">
        <ele>974.91</ele>
        <time>2019-07-04T08:16:13Z</time>
      </trkpt>
      <trkpt lat="42.5960036181" lon="19.9453345500">
        <ele>974.91</ele>
        <time>2019-07-04T08:16:28Z</time>
      </trkpt>
      <trkpt lat="42.5959956553" lon="19.9453357235">
        <ele>974.91</ele>
        <time>2019-07-04T08:16:47Z</time>
      </trkpt>
      <trkpt lat="42.5960040372" lon="19.9453111645">
        <ele>974.43</ele>
        <time>2019-07-04T08:17:15Z</time>
      </trkpt>
      <trkpt lat="42.5959869381" lon="19.9452864379">
        <ele>974.91</ele>
        <time>2019-07-04T08:17:31Z</time>
      </trkpt>
      <trkpt lat="42.5959593616" lon="19.9453182053">
        <ele>974.91</ele>
        <time>2019-07-04T08:17:39Z</time>
      </trkpt>
      <trkpt lat="42.5959033705" lon="19.9452801514">
        <ele>974.91</ele>
        <time>2019-07-04T08:17:44Z</time>
      </trkpt>
      <trkpt lat="42.5957751274" lon="19.9452193826">
        <ele>974.91</ele>
        <time>2019-07-04T08:17:56Z</time>
      </trkpt>
      <trkpt lat="42.5956058130" lon="19.9452422652">
        <ele>974.91</ele>
        <time>2019-07-04T08:18:10Z</time>
      </trkpt>
      <trkpt lat="42.5955473073" lon="19.9452527426">
        <ele>974.91</ele>
        <time>2019-07-04T08:18:15Z</time>
      </trkpt>
      <trkpt lat="42.5953567028" lon="19.9452068098">
        <ele>974.91</ele>
        <time>2019-07-04T08:18:28Z</time>
      </trkpt>
      <trkpt lat="42.5951792579" lon="19.9451529142">
        <ele>974.91</ele>
        <time>2019-07-04T08:18:42Z</time>
      </trkpt>
      <trkpt lat="42.5949727278" lon="19.9450718611">
        <ele>975.88</ele>
        <time>2019-07-04T08:18:58Z</time>
      </trkpt>
      <trkpt lat="42.5948320795" lon="19.9450048059">
        <ele>975.88</ele>
        <time>2019-07-04T08:19:11Z</time>
      </trkpt>
      <trkpt lat="42.5946721528" lon="19.9448564462">
        <ele>976.84</ele>
        <time>2019-07-04T08:19:25Z</time>
      </trkpt>
      <trkpt lat="42.5945403893" lon="19.9447212461">
        <ele>978.28</ele>
        <time>2019-07-04T08:19:39Z</time>
      </trkpt>
      <trkpt lat="42.5944324303" lon="19.9446256086">
        <ele>979.24</ele>
        <time>2019-07-04T08:19:51Z</time>
      </trkpt>
      <trkpt lat="42.5943581667" lon="19.9445710424">
        <ele>979.72</ele>
        <time>2019-07-04T08:19:57Z</time>
      </trkpt>
      <trkpt lat="42.5943392236" lon="19.9445694499">
        <ele>979.72</ele>
        <time>2019-07-04T08:19:59Z</time>
      </trkpt>
      <trkpt lat="42.5942867529" lon="19.9445797596">
        <ele>980.20</ele>
        <time>2019-07-04T08:20:15Z</time>
      </trkpt>
      <trkpt lat="42.5942816399" lon="19.9445829447">
        <ele>979.72</ele>
        <time>2019-07-04T08:20:31Z</time>
      </trkpt>
      <trkpt lat="42.5942603499" lon="19.9445942603">
        <ele>979.72</ele>
        <time>2019-07-04T08:20:39Z</time>
      </trkpt>
      <trkpt lat="42.5942490343" lon="19.9446373433">
        <ele>979.72</ele>
        <time>2019-07-04T08:20:42Z</time>
      </trkpt>
      <trkpt lat="42.5941187795" lon="19.9447915703">
        <ele>980.20</ele>
        <time>2019-07-04T08:20:56Z</time>
      </trkpt>
      <trkpt lat="42.5941082183" lon="19.9448046461">
        <ele>980.20</ele>
        <time>2019-07-04T08:20:57Z</time>
      </trkpt>
      <trkpt lat="42.5940675661" lon="19.9448530935">
        <ele>980.68</ele>
        <time>2019-07-04T08:21:01Z</time>
      </trkpt>
      <trkpt lat="42.5939045381" lon="19.9450330529">
        <ele>980.20</ele>
        <time>2019-07-04T08:21:16Z</time>
      </trkpt>
      <trkpt lat="42.5937818270" lon="19.9452276807">
        <ele>980.68</ele>
        <time>2019-07-04T08:21:31Z</time>
      </trkpt>
      <trkpt lat="42.5936645642" lon="19.9454450235">
        <ele>980.68</ele>
        <time>2019-07-04T08:21:45Z</time>
      </trkpt>
      <trkpt lat="42.5935652386" lon="19.9455940537">
        <ele>980.68</ele>
        <time>2019-07-04T08:21:56Z</time>
      </trkpt>
      <trkpt lat="42.5935046375" lon="19.9458559044">
        <ele>981.64</ele>
        <time>2019-07-04T08:22:13Z</time>
      </trkpt>
      <trkpt lat="42.5934932381" lon="19.9459067825">
        <ele>982.12</ele>
        <time>2019-07-04T08:22:17Z</time>
      </trkpt>
      <trkpt lat="42.5934526697" lon="19.9461279809">
        <ele>982.12</ele>
        <time>2019-07-04T08:22:30Z</time>
      </trkpt>
      <trkpt lat="42.5934472214" lon="19.9463403784">
        <ele>982.60</ele>
        <time>2019-07-04T08:22:43Z</time>
      </trkpt>
      <trkpt lat="42.5934506580" lon="19.9464024045">
        <ele>982.60</ele>
        <time>2019-07-04T08:22:47Z</time>
      </trkpt>
      <trkpt lat="42.5934682600" lon="19.9466477428">
        <ele>983.57</ele>
        <time>2019-07-04T08:23:00Z</time>
      </trkpt>
      <trkpt lat="42.5934719481" lon="19.9467603955">
        <ele>983.57</ele>
        <time>2019-07-04T08:23:06Z</time>
      </trkpt>
      <trkpt lat="42.5934438687" lon="19.9469664227">
        <ele>984.53</ele>
        <time>2019-07-04T08:23:19Z</time>
      </trkpt>
      <trkpt lat="42.5934054796" lon="19.9470130261">
        <ele>984.53</ele>
        <time>2019-07-04T08:23:24Z</time>
      </trkpt>
      <trkpt lat="42.5933833513" lon="19.9470464699">
        <ele>984.53</ele>
        <time>2019-07-04T08:23:27Z</time>
      </trkpt>
      <trkpt lat="42.5932454690" lon="19.9471413530">
        <ele>985.97</ele>
        <time>2019-07-04T08:23:40Z</time>
      </trkpt>
      <trkpt lat="42.5931479875" lon="19.9472050555">
        <ele>986.45</ele>
        <time>2019-07-04T08:23:52Z</time>
      </trkpt>
      <trkpt lat="42.5931478199" lon="19.9472006969">
        <ele>986.45</ele>
        <time>2019-07-04T08:23:58Z</time>
      </trkpt>
      <trkpt lat="42.5930981152" lon="19.9472229928">
        <ele>985.01</ele>
        <time>2019-07-04T08:24:05Z</time>
      </trkpt>
      <trkpt lat="42.5931268651" lon="19.9472519942">
        <ele>985.01</ele>
        <time>2019-07-04T08:24:15Z</time>
      </trkpt>
      <trkpt lat="42.5931950938" lon="19.9472242501">
        <ele>985.01</ele>
        <time>2019-07-04T08:24:24Z</time>
      </trkpt>
      <trkpt lat="42.5932056550" lon="19.9471887946">
        <ele>985.01</ele>
        <time>2019-07-04T08:24:27Z</time>
      </trkpt>
      <trkpt lat="42.5930848718" lon="19.9471298698">
        <ele>987.41</ele>
        <time>2019-07-04T08:24:40Z</time>
      </trkpt>
      <trkpt lat="42.5930305570" lon="19.9471126031">
        <ele>987.41</ele>
        <time>2019-07-04T08:24:45Z</time>
      </trkpt>
      <trkpt lat="42.5928470772" lon="19.9470063206">
        <ele>988.37</ele>
        <time>2019-07-04T08:25:02Z</time>
      </trkpt>
      <trkpt lat="42.5926596578" lon="19.9468492437">
        <ele>986.93</ele>
        <time>2019-07-04T08:25:19Z</time>
      </trkpt>
      <trkpt lat="42.5926094502" lon="19.9468203261">
        <ele>986.93</ele>
        <time>2019-07-04T08:25:24Z</time>
      </trkpt>
      <trkpt lat="42.5924895052" lon="19.9468213320">
        <ele>986.93</ele>
        <time>2019-07-04T08:25:34Z</time>
      </trkpt>
      <trkpt lat="42.5923528802" lon="19.9468166381">
        <ele>987.89</ele>
        <time>2019-07-04T08:25:47Z</time>
      </trkpt>
      <trkpt lat="42.5922354497" lon="19.9468588829">
        <ele>989.33</ele>
        <time>2019-07-04T08:25:59Z</time>
      </trkpt>
      <trkpt lat="42.5921863317" lon="19.9469314702">
        <ele>989.81</ele>
        <time>2019-07-04T08:26:06Z</time>
      </trkpt>
      <trkpt lat="42.5920326076" lon="19.9471183028">
        <ele>991.26</ele>
        <time>2019-07-04T08:26:22Z</time>
      </trkpt>
      <trkpt lat="42.5918082241" lon="19.9472539220">
        <ele>992.22</ele>
        <time>2019-07-04T08:26:41Z</time>
      </trkpt>
      <trkpt lat="42.5916487165" lon="19.9473033752">
        <ele>992.70</ele>
        <time>2019-07-04T08:26:55Z</time>
      </trkpt>
      <trkpt lat="42.5915694237" lon="19.9473312870">
        <ele>993.18</ele>
        <time>2019-07-04T08:27:01Z</time>
      </trkpt>
      <trkpt lat="42.5915245805" lon="19.9473334663">
        <ele>993.66</ele>
        <time>2019-07-04T08:27:05Z</time>
      </trkpt>
      <trkpt lat="42.5913317129" lon="19.9473841768">
        <ele>995.10</ele>
        <time>2019-07-04T08:27:22Z</time>
      </trkpt>
      <trkpt lat="42.5911749713" lon="19.9473691732">
        <ele>996.06</ele>
        <time>2019-07-04T08:27:35Z</time>
      </trkpt>
      <trkpt lat="42.5909974426" lon="19.9473244138">
        <ele>997.99</ele>
        <time>2019-07-04T08:27:50Z</time>
      </trkpt>
      <trkpt lat="42.5908948481" lon="19.9472597055">
        <ele>998.95</ele>
        <time>2019-07-04T08:28:00Z</time>
      </trkpt>
      <trkpt lat="42.5907277130" lon="19.9471270200">
        <ele>999.91</ele>
        <time>2019-07-04T08:28:16Z</time>
      </trkpt>
      <trkpt lat="42.5905770902" lon="19.9469977710">
        <ele>1001.83</ele>
        <time>2019-07-04T08:28:32Z</time>
      </trkpt>
      <trkpt lat="42.5905387849" lon="19.9469683506">
        <ele>1002.79</ele>
        <time>2019-07-04T08:28:36Z</time>
      </trkpt>
      <trkpt lat="42.5904199295" lon="19.9469222501">
        <ele>1004.23</ele>
        <time>2019-07-04T08:28:47Z</time>
      </trkpt>
      <trkpt lat="42.5903876591" lon="19.9469017144">
        <ele>1004.72</ele>
        <time>2019-07-04T08:28:50Z</time>
      </trkpt>
      <trkpt lat="42.5902472623" lon="19.9468546920">
        <ele>1005.68</ele>
        <time>2019-07-04T08:29:03Z</time>
      </trkpt>
      <trkpt lat="42.5900895987" lon="19.9467886426">
        <ele>1007.12</ele>
        <time>2019-07-04T08:29:17Z</time>
      </trkpt>
      <trkpt lat="42.5899967272" lon="19.9467470683">
        <ele>1008.08</ele>
        <time>2019-07-04T08:29:25Z</time>
      </trkpt>
      <trkpt lat="42.5899049453" lon="19.9467002973">
        <ele>1008.08</ele>
        <time>2019-07-04T08:29:33Z</time>
      </trkpt>
      <trkpt lat="42.5897635426" lon="19.9465308990">
        <ele>1009.04</ele>
        <time>2019-07-04T08:29:48Z</time>
      </trkpt>
      <trkpt lat="42.5897321943" lon="19.9464610778">
        <ele>1009.52</ele>
        <time>2019-07-04T08:29:53Z</time>
      </trkpt>
      <trkpt lat="42.5896940567" lon="19.9463303201">
        <ele>1010.00</ele>
        <time>2019-07-04T08:30:01Z</time>
      </trkpt>
      <trkpt lat="42.5896221399" lon="19.9460693914">
        <ele>1010.00</ele>
        <time>2019-07-04T08:30:18Z</time>
      </trkpt>
      <trkpt lat="42.5895001832" lon="19.9458001647">
        <ele>1010.96</ele>
        <time>2019-07-04T08:30:36Z</time>
      </trkpt>
      <trkpt lat="42.5893329643" lon="19.9456083868">
        <ele>1010.48</ele>
        <time>2019-07-04T08:30:52Z</time>
      </trkpt>
      <trkpt lat="42.5891469698" lon="19.9454641342">
        <ele>1010.48</ele>
        <time>2019-07-04T08:31:09Z</time>
      </trkpt>
      <trkpt lat="42.5891354028" lon="19.9454565905">
        <ele>1010.48</ele>
        <time>2019-07-04T08:31:10Z</time>
      </trkpt>
      <trkpt lat="42.5890913978" lon="19.9454189558">
        <ele>1010.48</ele>
        <time>2019-07-04T08:31:14Z</time>
      </trkpt>
      <trkpt lat="42.5890311319" lon="19.9453756213">
        <ele>1010.48</ele>
        <time>2019-07-04T08:31:19Z</time>
      </trkpt>
      <trkpt lat="42.5888553634" lon="19.9452942330">
        <ele>1010.48</ele>
        <time>2019-07-04T08:31:34Z</time>
      </trkpt>
      <trkpt lat="42.5887514278" lon="19.9452401698">
        <ele>1010.96</ele>
        <time>2019-07-04T08:31:50Z</time>
      </trkpt>
      <trkpt lat="42.5885681994" lon="19.9451336358">
        <ele>1011.93</ele>
        <time>2019-07-04T08:32:06Z</time>
      </trkpt>
      <trkpt lat="42.5883900840" lon="19.9450672511">
        <ele>1012.89</ele>
        <time>2019-07-04T08:32:20Z</time>
      </trkpt>
      <trkpt lat="42.5882213563" lon="19.9450473860">
        <ele>1013.85</ele>
        <time>2019-07-04T08:32:34Z</time>
      </trkpt>
      <trkpt lat="42.5880728289" lon="19.9450436141">
        <ele>1014.81</ele>
        <time>2019-07-04T08:32:47Z</time>
      </trkpt>
      <trkpt lat="42.5878812186" lon="19.9449718650">
        <ele>1016.73</ele>
        <time>2019-07-04T08:33:02Z</time>
      </trkpt>
      <trkpt lat="42.5877058692" lon="19.9448696896">
        <ele>1017.69</ele>
        <time>2019-07-04T08:33:16Z</time>
      </trkpt>
      <trkpt lat="42.5875016861" lon="19.9447403569">
        <ele>1018.17</ele>
        <time>2019-07-04T08:33:32Z</time>
      </trkpt>
      <trkpt lat="42.5872799847" lon="19.9445811845">
        <ele>1018.65</ele>
        <time>2019-07-04T08:33:50Z</time>
      </trkpt>
      <trkpt lat="42.5870922301" lon="19.9444681127">
        <ele>1018.65</ele>
        <time>2019-07-04T08:34:06Z</time>
      </trkpt>
      <trkpt lat="42.5870333053" lon="19.9444316514">
        <ele>1018.65</ele>
        <time>2019-07-04T08:34:14Z</time>
      </trkpt>
      <trkpt lat="42.5868469756" lon="19.9442968704">
        <ele>1018.65</ele>
        <time>2019-07-04T08:34:30Z</time>
      </trkpt>
      <trkpt lat="42.5866754819" lon="19.9442050885">
        <ele>1017.21</ele>
        <time>2019-07-04T08:34:44Z</time>
      </trkpt>
      <trkpt lat="42.5866250228" lon="19.9441808648">
        <ele>1017.21</ele>
        <time>2019-07-04T08:34:48Z</time>
      </trkpt>
      <trkpt lat="42.5864783395" lon="19.9441029131">
        <ele>1017.21</ele>
        <time>2019-07-04T08:35:00Z</time>
      </trkpt>
      <trkpt lat="42.5862518605" lon="19.9439947866">
        <ele>1017.21</ele>
        <time>2019-07-04T08:35:18Z</time>
      </trkpt>
      <trkpt lat="42.5860906765" lon="19.9438753445">
        <ele>1015.29</ele>
        <time>2019-07-04T08:35:31Z</time>
      </trkpt>
      <trkpt lat="42.5859424844" lon="19.9437243864">
        <ele>1014.81</ele>
        <time>2019-07-04T08:35:46Z</time>
      </trkpt>
      <trkpt lat="42.5858298317" lon="19.9436747655">
        <ele>1014.81</ele>
        <time>2019-07-04T08:35:57Z</time>
      </trkpt>
      <trkpt lat="42.5856674742" lon="19.9435900245">
        <ele>1014.81</ele>
        <time>2019-07-04T08:36:10Z</time>
      </trkpt>
      <trkpt lat="42.5855125766" lon="19.9435357936">
        <ele>1015.77</ele>
        <time>2019-07-04T08:36:24Z</time>
      </trkpt>
      <trkpt lat="42.5854704157" lon="19.9435269088">
        <ele>1016.25</ele>
        <time>2019-07-04T08:36:28Z</time>
      </trkpt>
      <trkpt lat="42.5852707587" lon="19.9433808122">
        <ele>1017.21</ele>
        <time>2019-07-04T08:36:44Z</time>
      </trkpt>
      <trkpt lat="42.5851818267" lon="19.9433114100">
        <ele>1017.69</ele>
        <time>2019-07-04T08:36:51Z</time>
      </trkpt>
      <trkpt lat="42.5851126760" lon="19.9432700872">
        <ele>1018.17</ele>
        <time>2019-07-04T08:36:57Z</time>
      </trkpt>
      <trkpt lat="42.5849063136" lon="19.9430971686">
        <ele>1019.62</ele>
        <time>2019-07-04T08:37:14Z</time>
      </trkpt>
      <trkpt lat="42.5848180521" lon="19.9427644908">
        <ele>1019.13</ele>
        <time>2019-07-04T08:37:33Z</time>
      </trkpt>
      <trkpt lat="42.5848747138" lon="19.9424753152">
        <ele>1018.17</ele>
        <time>2019-07-04T08:37:50Z</time>
      </trkpt>
      <trkpt lat="42.5849094987" lon="19.9422144704">
        <ele>1018.17</ele>
        <time>2019-07-04T08:38:05Z</time>
      </trkpt>
      <trkpt lat="42.5849560183" lon="19.9419178348">
        <ele>1017.69</ele>
        <time>2019-07-04T08:38:23Z</time>
      </trkpt>
      <trkpt lat="42.5849214848" lon="19.9417779408">
        <ele>1019.13</ele>
        <time>2019-07-04T08:38:31Z</time>
      </trkpt>
      <trkpt lat="42.5848367438" lon="19.9416471832">
        <ele>1019.62</ele>
        <time>2019-07-04T08:38:41Z</time>
      </trkpt>
      <trkpt lat="42.5847800821" lon="19.9415859114">
        <ele>1020.10</ele>
        <time>2019-07-04T08:38:47Z</time>
      </trkpt>
      <trkpt lat="42.5846649148" lon="19.9414996617">
        <ele>1020.10</ele>
        <time>2019-07-04T08:38:58Z</time>
      </trkpt>
      <trkpt lat="42.5846436247" lon="19.9414797965">
        <ele>1020.58</ele>
        <time>2019-07-04T08:39:00Z</time>
      </trkpt>
      <trkpt lat="42.5844842009" lon="19.9413585942">
        <ele>1021.06</ele>
        <time>2019-07-04T08:39:15Z</time>
      </trkpt>
      <trkpt lat="42.5844619051" lon="19.9413426686">
        <ele>1021.06</ele>
        <time>2019-07-04T08:39:17Z</time>
      </trkpt>
      <trkpt lat="42.5842960272" lon="19.9412508868">
        <ele>1021.54</ele>
        <time>2019-07-04T08:39:31Z</time>
      </trkpt>
      <trkpt lat="42.5841127150" lon="19.9412563350">
        <ele>1023.46</ele>
        <time>2019-07-04T08:39:46Z</time>
      </trkpt>
      <trkpt lat="42.5839485973" lon="19.9414060358">
        <ele>1024.90</ele>
        <time>2019-07-04T08:40:02Z</time>
      </trkpt>
      <trkpt lat="42.5837641116" lon="19.9414527230">
        <ele>1025.86</ele>
        <time>2019-07-04T08:40:17Z</time>
      </trkpt>
      <trkpt lat="42.5835476909" lon="19.9413585104">
        <ele>1028.27</ele>
        <time>2019-07-04T08:40:36Z</time>
      </trkpt>
      <trkpt lat="42.5833844114" lon="19.9412034452">
        <ele>1030.19</ele>
        <time>2019-07-04T08:40:52Z</time>
      </trkpt>
      <trkpt lat="42.5832873490" lon="19.9411293492">
        <ele>1030.67</ele>
        <time>2019-07-04T08:41:02Z</time>
      </trkpt>
      <trkpt lat="42.5831137598" lon="19.9410146009">
        <ele>1032.11</ele>
        <time>2019-07-04T08:41:17Z</time>
      </trkpt>
      <trkpt lat="42.5829969998" lon="19.9409669079">
        <ele>1032.59</ele>
        <time>2019-07-04T08:41:27Z</time>
      </trkpt>
      <trkpt lat="42.5829403382" lon="19.9409167003">
        <ele>1033.07</ele>
        <time>2019-07-04T08:41:32Z</time>
      </trkpt>
      <trkpt lat="42.5827517454" lon="19.9407219049">
        <ele>1034.52</ele>
        <time>2019-07-04T08:41:50Z</time>
      </trkpt>
      <trkpt lat="42.5826068223" lon="19.9405551888">
        <ele>1035.96</ele>
        <time>2019-07-04T08:42:05Z</time>
      </trkpt>
      <trkpt lat="42.5824247673" lon="19.9403598905">
        <ele>1037.40</ele>
        <time>2019-07-04T08:42:23Z</time>
      </trkpt>
      <trkpt lat="42.5822943449" lon="19.9401631672">
        <ele>1037.88</ele>
        <time>2019-07-04T08:42:38Z</time>
      </trkpt>
      <trkpt lat="42.5821585581" lon="19.9399469141">
        <ele>1038.36</ele>
        <time>2019-07-04T08:42:54Z</time>
      </trkpt>
      <trkpt lat="42.5821137149" lon="19.9398294836">
        <ele>1038.36</ele>
        <time>2019-07-04T08:43:01Z</time>
      </trkpt>
      <trkpt lat="42.5820934307" lon="19.9397668708">
        <ele>1038.36</ele>
        <time>2019-07-04T08:43:05Z</time>
      </trkpt>
      <trkpt lat="42.5820650999" lon="19.9395026732">
        <ele>1039.80</ele>
        <time>2019-07-04T08:43:21Z</time>
      </trkpt>
      <trkpt lat="42.5820698775" lon="19.9392410740">
        <ele>1040.76</ele>
        <time>2019-07-04T08:43:36Z</time>
      </trkpt>
      <trkpt lat="42.5820444804" lon="19.9389891978">
        <ele>1040.28</ele>
        <time>2019-07-04T08:43:50Z</time>
      </trkpt>
      <trkpt lat="42.5819381978" lon="19.9388239905">
        <ele>1040.28</ele>
        <time>2019-07-04T08:44:02Z</time>
      </trkpt>
      <trkpt lat="42.5817392115" lon="19.9388093222">
        <ele>1038.84</ele>
        <time>2019-07-04T08:44:17Z</time>
      </trkpt>
      <trkpt lat="42.5816961285" lon="19.9388111662">
        <ele>1038.84</ele>
        <time>2019-07-04T08:44:20Z</time>
      </trkpt>
      <trkpt lat="42.5814720802" lon="19.9388467893">
        <ele>1039.80</ele>
        <time>2019-07-04T08:44:37Z</time>
      </trkpt>
      <trkpt lat="42.5813697372" lon="19.9388264213">
        <ele>1039.80</ele>
        <time>2019-07-04T08:44:45Z</time>
      </trkpt>
      <trkpt lat="42.5811755285" lon="19.9386398401">
        <ele>1040.28</ele>
        <time>2019-07-04T08:45:02Z</time>
      </trkpt>
      <trkpt lat="42.5810336228" lon="19.9384029675">
        <ele>1038.84</ele>
        <time>2019-07-04T08:45:18Z</time>
      </trkpt>
      <trkpt lat="42.5809103251" lon="19.9381741416">
        <ele>1037.40</ele>
        <time>2019-07-04T08:45:35Z</time>
      </trkpt>
      <trkpt lat="42.5807556789" lon="19.9380159751">
        <ele>1037.40</ele>
        <time>2019-07-04T08:45:49Z</time>
      </trkpt>
      <trkpt lat="42.5807339698" lon="19.9379977863">
        <ele>1037.40</ele>
        <time>2019-07-04T08:45:51Z</time>
      </trkpt>
      <trkpt lat="42.5805776473" lon="19.9379173201">
        <ele>1038.84</ele>
        <time>2019-07-04T08:46:05Z</time>
      </trkpt>
      <trkpt lat="42.5805354025" lon="19.9378884863">
        <ele>1039.32</ele>
        <time>2019-07-04T08:46:09Z</time>
      </trkpt>
      <trkpt lat="42.5803581253" lon="19.9377159029">
        <ele>1040.28</ele>
        <time>2019-07-04T08:46:25Z</time>
      </trkpt>
      <trkpt lat="42.5802892260" lon="19.9376480933">
        <ele>1040.28</ele>
        <time>2019-07-04T08:46:31Z</time>
      </trkpt>
      <trkpt lat="42.5800783373" lon="19.9375132285">
        <ele>1039.80</ele>
        <time>2019-07-04T08:46:49Z</time>
      </trkpt>
      <trkpt lat="42.5799006410" lon="19.9373421539">
        <ele>1040.76</ele>
        <time>2019-07-04T08:47:06Z</time>
      </trkpt>
      <trkpt lat="42.5798713882" lon="19.9372996576">
        <ele>1041.25</ele>
        <time>2019-07-04T08:47:09Z</time>
      </trkpt>
      <trkpt lat="42.5798088592" lon="19.9372454267">
        <ele>1041.25</ele>
        <time>2019-07-04T08:47:15Z</time>
      </trkpt>
      <trkpt lat="42.5796413887" lon="19.9370836560">
        <ele>1041.73</ele>
        <time>2019-07-04T08:47:31Z</time>
      </trkpt>
      <trkpt lat="42.5795007404" lon="19.9369244836">
        <ele>1042.21</ele>
        <time>2019-07-04T08:47:45Z</time>
      </trkpt>
      <trkpt lat="42.5794394687" lon="19.9368400779">
        <ele>1042.69</ele>
        <time>2019-07-04T08:47:51Z</time>
      </trkpt>
      <trkpt lat="42.5793179311" lon="19.9366988428">
        <ele>1042.69</ele>
        <time>2019-07-04T08:48:03Z</time>
      </trkpt>
      <trkpt lat="42.5792105589" lon="19.9366206396">
        <ele>1042.69</ele>
        <time>2019-07-04T08:48:13Z</time>
      </trkpt>
      <trkpt lat="42.5790130813" lon="19.9365208950">
        <ele>1042.69</ele>
        <time>2019-07-04T08:48:28Z</time>
      </trkpt>
      <trkpt lat="42.5788376480" lon="19.9364139419">
        <ele>1044.61</ele>
        <time>2019-07-04T08:48:44Z</time>
      </trkpt>
      <trkpt lat="42.5786901265" lon="19.9363019597">
        <ele>1046.05</ele>
        <time>2019-07-04T08:48:58Z</time>
      </trkpt>
      <trkpt lat="42.5786187965" lon="19.9360023905">
        <ele>1045.57</ele>
        <time>2019-07-04T08:49:16Z</time>
      </trkpt>
      <trkpt lat="42.5786240771" lon="19.9359274562">
        <ele>1044.13</ele>
        <time>2019-07-04T08:49:20Z</time>
      </trkpt>
      <trkpt lat="42.5786338840" lon="19.9358706269">
        <ele>1044.13</ele>
        <time>2019-07-04T08:49:23Z</time>
      </trkpt>
      <trkpt lat="42.5786894560" lon="19.9356118776">
        <ele>1043.65</ele>
        <time>2019-07-04T08:49:38Z</time>
      </trkpt>
      <trkpt lat="42.5786725245" lon="19.9353921879">
        <ele>1043.65</ele>
        <time>2019-07-04T08:49:50Z</time>
      </trkpt>
      <trkpt lat="42.5785687566" lon="19.9351508729">
        <ele>1043.17</ele>
        <time>2019-07-04T08:50:06Z</time>
      </trkpt>
      <trkpt lat="42.5785426050" lon="19.9351033475">
        <ele>1043.17</ele>
        <time>2019-07-04T08:50:09Z</time>
      </trkpt>
      <trkpt lat="42.5783634838" lon="19.9349581730">
        <ele>1042.69</ele>
        <time>2019-07-04T08:50:24Z</time>
      </trkpt>
      <trkpt lat="42.5781556126" lon="19.9349953048">
        <ele>1042.69</ele>
        <time>2019-07-04T08:50:40Z</time>
      </trkpt>
      <trkpt lat="42.5779273733" lon="19.9350555707">
        <ele>1042.21</ele>
        <time>2019-07-04T08:50:57Z</time>
      </trkpt>
      <trkpt lat="42.5776764192" lon="19.9350255635">
        <ele>1042.21</ele>
        <time>2019-07-04T08:51:15Z</time>
      </trkpt>
      <trkpt lat="42.5774878263" lon="19.9349516351">
        <ele>1042.21</ele>
        <time>2019-07-04T08:51:31Z</time>
      </trkpt>
      <trkpt lat="42.5774099585" lon="19.9349309318">
        <ele>1043.65</ele>
        <time>2019-07-04T08:51:37Z</time>
      </trkpt>
      <trkpt lat="42.5773248821" lon="19.9349167664">
        <ele>1043.65</ele>
        <time>2019-07-04T08:51:44Z</time>
      </trkpt>
      <trkpt lat="42.5772801228" lon="19.9349160120">
        <ele>1044.13</ele>
        <time>2019-07-04T08:51:48Z</time>
      </trkpt>
      <trkpt lat="42.5772508699" lon="19.9349043611">
        <ele>1044.13</ele>
        <time>2019-07-04T08:51:51Z</time>
      </trkpt>
      <trkpt lat="42.5771891791" lon="19.9349011760">
        <ele>1044.13</ele>
        <time>2019-07-04T08:51:57Z</time>
      </trkpt>
      <trkpt lat="42.5770056155" lon="19.9348097295">
        <ele>1044.61</ele>
        <time>2019-07-04T08:52:11Z</time>
      </trkpt>
      <trkpt lat="42.5768249854" lon="19.9346882757">
        <ele>1044.61</ele>
        <time>2019-07-04T08:52:25Z</time>
      </trkpt>
      <trkpt lat="42.5767500512" lon="19.9346386548">
        <ele>1044.61</ele>
        <time>2019-07-04T08:52:31Z</time>
      </trkpt>
      <trkpt lat="42.5766335428" lon="19.9345442746">
        <ele>1044.61</ele>
        <time>2019-07-04T08:52:41Z</time>
      </trkpt>
      <trkpt lat="42.5764775556" lon="19.9343326315">
        <ele>1044.61</ele>
        <time>2019-07-04T08:52:58Z</time>
      </trkpt>
      <trkpt lat="42.5763835106" lon="19.9340529274">
        <ele>1044.61</ele>
        <time>2019-07-04T08:53:16Z</time>
      </trkpt>
      <trkpt lat="42.5763376616" lon="19.9338362552">
        <ele>1044.13</ele>
        <time>2019-07-04T08:53:29Z</time>
      </trkpt>
      <trkpt lat="42.5763015356" lon="19.9335768353">
        <ele>1045.09</ele>
        <time>2019-07-04T08:53:44Z</time>
      </trkpt>
      <trkpt lat="42.5762421079" lon="19.9333257973">
        <ele>1045.57</ele>
        <time>2019-07-04T08:53:59Z</time>
      </trkpt>
      <trkpt lat="42.5762122683" lon="19.9331503641">
        <ele>1046.53</ele>
        <time>2019-07-04T08:54:11Z</time>
      </trkpt>
      <trkpt lat="42.5761957560" lon="19.9328644574">
        <ele>1048.45</ele>
        <time>2019-07-04T08:54:28Z</time>
      </trkpt>
      <trkpt lat="42.5762380008" lon="19.9328005034">
        <ele>1048.45</ele>
        <time>2019-07-04T08:54:34Z</time>
      </trkpt>
      <trkpt lat="42.5763294473" lon="19.9326770380">
        <ele>1050.38</ele>
        <time>2019-07-04T08:54:48Z</time>
      </trkpt>
      <trkpt lat="42.5763344765" lon="19.9326675665">
        <ele>1050.38</ele>
        <time>2019-07-04T08:54:49Z</time>
      </trkpt>
      <trkpt lat="42.5763996877" lon="19.9326101504">
        <ele>1051.82</ele>
        <time>2019-07-04T08:54:57Z</time>
      </trkpt>
      <trkpt lat="42.5764266774" lon="19.9325130880">
        <ele>1053.26</ele>
        <time>2019-07-04T08:55:06Z</time>
      </trkpt>
      <trkpt lat="42.5764357299" lon="19.9324775487">
        <ele>1053.26</ele>
        <time>2019-07-04T08:55:09Z</time>
      </trkpt>
      <trkpt lat="42.5764518231" lon="19.9324363936">
        <ele>1054.22</ele>
        <time>2019-07-04T08:55:13Z</time>
      </trkpt>
      <trkpt lat="42.5766100734" lon="19.9323503952">
        <ele>1056.15</ele>
        <time>2019-07-04T08:55:27Z</time>
      </trkpt>
      <trkpt lat="42.5767229777" lon="19.9322698452">
        <ele>1057.59</ele>
        <time>2019-07-04T08:55:38Z</time>
      </trkpt>
      <trkpt lat="42.5767835788" lon="19.9322014488">
        <ele>1059.51</ele>
        <time>2019-07-04T08:55:46Z</time>
      </trkpt>
      <trkpt lat="42.5768090598" lon="19.9321897142">
        <ele>1059.51</ele>
        <time>2019-07-04T08:55:48Z</time>
      </trkpt>
      <trkpt lat="42.5768793002" lon="19.9321133550">
        <ele>1060.47</ele>
        <time>2019-07-04T08:55:56Z</time>
      </trkpt>
      <trkpt lat="42.5769049488" lon="19.9320421927">
        <ele>1060.95</ele>
        <time>2019-07-04T08:56:02Z</time>
      </trkpt>
      <trkpt lat="42.5769001711" lon="19.9319344852">
        <ele>1062.39</ele>
        <time>2019-07-04T08:56:11Z</time>
      </trkpt>
      <trkpt lat="42.5769224670" lon="19.9318606406">
        <ele>1062.87</ele>
        <time>2019-07-04T08:56:19Z</time>
      </trkpt>
      <trkpt lat="42.5769656338" lon="19.9317577947">
        <ele>1064.32</ele>
        <time>2019-07-04T08:56:30Z</time>
      </trkpt>
      <trkpt lat="42.5770264864" lon="19.9316143803">
        <ele>1066.24</ele>
        <time>2019-07-04T08:56:43Z</time>
      </trkpt>
      <trkpt lat="42.5770832319" lon="19.9315328244">
        <ele>1067.20</ele>
        <time>2019-07-04T08:56:51Z</time>
      </trkpt>
      <trkpt lat="42.5771750137" lon="19.9315384403">
        <ele>1067.68</ele>
        <time>2019-07-04T08:56:53Z</time>
      </trkpt>
      <trkpt lat="42.5773539674" lon="19.9314528611">
        <ele>1068.64</ele>
        <time>2019-07-04T08:57:03Z</time>
      </trkpt>
      <trkpt lat="42.5773577392" lon="19.9314386956">
        <ele>1068.64</ele>
        <time>2019-07-04T08:57:04Z</time>
      </trkpt>
      <trkpt lat="42.5774082821" lon="19.9313062616">
        <ele>1070.08</ele>
        <time>2019-07-04T08:57:15Z</time>
      </trkpt>
      <trkpt lat="42.5774622615" lon="19.9311441556">
        <ele>1072.01</ele>
        <time>2019-07-04T08:57:28Z</time>
      </trkpt>
      <trkpt lat="42.5768314395" lon="19.9307435844">
        <ele>1072.97</ele>
        <time>2019-07-04T08:57:37Z</time>
      </trkpt>
      <trkpt lat="42.5768534839" lon="19.9306945503">
        <ele>1073.93</ele>
        <time>2019-07-04T08:57:42Z</time>
      </trkpt>
      <trkpt lat="42.5768609438" lon="19.9306351226">
        <ele>1074.89</ele>
        <time>2019-07-04T08:57:48Z</time>
      </trkpt>
      <trkpt lat="42.5768593512" lon="19.9305570871">
        <ele>1076.33</ele>
        <time>2019-07-04T08:57:55Z</time>
      </trkpt>
      <trkpt lat="42.5769276638" lon="19.9304896127">
        <ele>1076.81</ele>
        <time>2019-07-04T08:58:02Z</time>
      </trkpt>
      <trkpt lat="42.5769392308" lon="19.9304458592">
        <ele>1077.78</ele>
        <time>2019-07-04T08:58:06Z</time>
      </trkpt>
      <trkpt lat="42.5768866763" lon="19.9303302728">
        <ele>1078.74</ele>
        <time>2019-07-04T08:58:14Z</time>
      </trkpt>
      <trkpt lat="42.5768963154" lon="19.9303130060">
        <ele>1079.22</ele>
        <time>2019-07-04T08:58:16Z</time>
      </trkpt>
      <trkpt lat="42.5769363809" lon="19.9302016106">
        <ele>1080.18</ele>
        <time>2019-07-04T08:58:25Z</time>
      </trkpt>
      <trkpt lat="42.5770688150" lon="19.9301506486">
        <ele>1081.14</ele>
        <time>2019-07-04T08:58:32Z</time>
      </trkpt>
      <trkpt lat="42.5771489460" lon="19.9299487285">
        <ele>1082.10</ele>
        <time>2019-07-04T08:58:48Z</time>
      </trkpt>
      <trkpt lat="42.5771581661" lon="19.9299159553">
        <ele>1082.58</ele>
        <time>2019-07-04T08:58:50Z</time>
      </trkpt>
      <trkpt lat="42.5771625247" lon="19.9298706092">
        <ele>1083.06</ele>
        <time>2019-07-04T08:58:53Z</time>
      </trkpt>
      <trkpt lat="42.5771701522" lon="19.9298443738">
        <ele>1083.06</ele>
        <time>2019-07-04T08:58:55Z</time>
      </trkpt>
      <trkpt lat="42.5771783665" lon="19.9297864549">
        <ele>1082.58</ele>
        <time>2019-07-04T08:58:59Z</time>
      </trkpt>
      <trkpt lat="42.5771979801" lon="19.9295735545">
        <ele>1082.58</ele>
        <time>2019-07-04T08:59:12Z</time>
      </trkpt>
      <trkpt lat="42.5771963876" lon="19.9293356761">
        <ele>1083.54</ele>
        <time>2019-07-04T08:59:28Z</time>
      </trkpt>
      <trkpt lat="42.5771957170" lon="19.9293230195">
        <ele>1083.54</ele>
        <time>2019-07-04T08:59:29Z</time>
      </trkpt>
      <trkpt lat="42.5771527179" lon="19.9290540442">
        <ele>1083.06</ele>
        <time>2019-07-04T08:59:47Z</time>
      </trkpt>
      <trkpt lat="42.5771603454" lon="19.9289843906">
        <ele>1083.06</ele>
        <time>2019-07-04T08:59:52Z</time>
      </trkpt>
      <trkpt lat="42.5771683082" lon="19.9289646093">
        <ele>1083.54</ele>
        <time>2019-07-04T09:00:02Z</time>
      </trkpt>
      <trkpt lat="42.5771575794" lon="19.9289584905">
        <ele>1083.54</ele>
        <time>2019-07-04T09:00:12Z</time>
      </trkpt>
      <trkpt lat="42.5771102216" lon="19.9289480131">
        <ele>1083.54</ele>
        <time>2019-07-04T09:00:40Z</time>
      </trkpt>
      <trkpt lat="42.5771182682" lon="19.9289229512">
        <ele>1082.10</ele>
        <time>2019-07-04T09:00:44Z</time>
      </trkpt>
      <trkpt lat="42.5770976488" lon="19.9286750983">
        <ele>1082.10</ele>
        <time>2019-07-04T09:01:00Z</time>
      </trkpt>
      <trkpt lat="42.5770963077" lon="19.9284321070">
        <ele>1084.02</ele>
        <time>2019-07-04T09:01:15Z</time>
      </trkpt>
      <trkpt lat="42.5770953018" lon="19.9283836596">
        <ele>1084.99</ele>
        <time>2019-07-04T09:01:26Z</time>
      </trkpt>
      <trkpt lat="42.5771555677" lon="19.9283560831">
        <ele>1084.99</ele>
        <time>2019-07-04T09:01:32Z</time>
      </trkpt>
      <trkpt lat="42.5772009138" lon="19.9282898661">
        <ele>1083.54</ele>
        <time>2019-07-04T09:01:46Z</time>
      </trkpt>
      <trkpt lat="42.5772070326" lon="19.9282756168">
        <ele>1083.54</ele>
        <time>2019-07-04T09:02:02Z</time>
      </trkpt>
      <trkpt lat="42.5771867484" lon="19.9283041153">
        <ele>1083.54</ele>
        <time>2019-07-04T09:02:17Z</time>
      </trkpt>
      <trkpt lat="42.5771931186" lon="19.9283095635">
        <ele>1083.54</ele>
        <time>2019-07-04T09:02:35Z</time>
      </trkpt>
      <trkpt lat="42.5772066135" lon="19.9283095635">
        <ele>1083.54</ele>
        <time>2019-07-04T09:02:54Z</time>
      </trkpt>
      <trkpt lat="42.5772039313" lon="19.9283130839">
        <ele>1083.54</ele>
        <time>2019-07-04T09:03:06Z</time>
      </trkpt>
      <trkpt lat="42.5771557353" lon="19.9283620343">
        <ele>1083.54</ele>
        <time>2019-07-04T09:03:18Z</time>
      </trkpt>
      <trkpt lat="42.5771117304" lon="19.9283858389">
        <ele>1084.99</ele>
        <time>2019-07-04T09:03:23Z</time>
      </trkpt>
      <trkpt lat="42.5770397298" lon="19.9283306859">
        <ele>1084.99</ele>
        <time>2019-07-04T09:03:31Z</time>
      </trkpt>
      <trkpt lat="42.5769171864" lon="19.9281581864">
        <ele>1086.43</ele>
        <time>2019-07-04T09:03:46Z</time>
      </trkpt>
      <trkpt lat="42.5768938847" lon="19.9280892033">
        <ele>1086.43</ele>
        <time>2019-07-04T09:03:52Z</time>
      </trkpt>
      <trkpt lat="42.5767633785" lon="19.9279465433">
        <ele>1088.35</ele>
        <time>2019-07-04T09:04:07Z</time>
      </trkpt>
      <trkpt lat="42.5766351353" lon="19.9278151151">
        <ele>1089.31</ele>
        <time>2019-07-04T09:04:20Z</time>
      </trkpt>
      <trkpt lat="42.5765170343" lon="19.9276931584">
        <ele>1090.75</ele>
        <time>2019-07-04T09:04:33Z</time>
      </trkpt>
      <trkpt lat="42.5764006935" lon="19.9275866244">
        <ele>1091.71</ele>
        <time>2019-07-04T09:04:46Z</time>
      </trkpt>
      <trkpt lat="42.5762713607" lon="19.9274762347">
        <ele>1094.12</ele>
        <time>2019-07-04T09:05:00Z</time>
      </trkpt>
      <trkpt lat="42.5761551037" lon="19.9273911584">
        <ele>1095.56</ele>
        <time>2019-07-04T09:05:12Z</time>
      </trkpt>
      <trkpt lat="42.5760914013" lon="19.9273650069">
        <ele>1097.00</ele>
        <time>2019-07-04T09:05:18Z</time>
      </trkpt>
      <trkpt lat="42.5760604721" lon="19.9273443036">
        <ele>1097.48</ele>
        <time>2019-07-04T09:05:21Z</time>
      </trkpt>
      <trkpt lat="42.5759256911" lon="19.9273422919">
        <ele>1099.40</ele>
        <time>2019-07-04T09:05:36Z</time>
      </trkpt>
      <trkpt lat="42.5758358371" lon="19.9273430463">
        <ele>1100.85</ele>
        <time>2019-07-04T09:05:45Z</time>
      </trkpt>
      <trkpt lat="42.5757311471" lon="19.9273035675">
        <ele>1102.77</ele>
        <time>2019-07-04T09:05:56Z</time>
      </trkpt>
      <trkpt lat="42.5756192487" lon="19.9272530247">
        <ele>1105.17</ele>
        <time>2019-07-04T09:06:09Z</time>
      </trkpt>
      <trkpt lat="42.5754882395" lon="19.9271297269">
        <ele>1107.58</ele>
        <time>2019-07-04T09:06:24Z</time>
      </trkpt>
      <trkpt lat="42.5753792748" lon="19.9270096142">
        <ele>1109.98</ele>
        <time>2019-07-04T09:06:38Z</time>
      </trkpt>
      <trkpt lat="42.5753175840" lon="19.9268763419">
        <ele>1111.42</ele>
        <time>2019-07-04T09:06:51Z</time>
      </trkpt>
      <trkpt lat="42.5752491876" lon="19.9267179240">
        <ele>1113.82</ele>
        <time>2019-07-04T09:07:05Z</time>
      </trkpt>
      <trkpt lat="42.5751489401" lon="19.9265455920">
        <ele>1115.27</ele>
        <time>2019-07-04T09:07:18Z</time>
      </trkpt>
      <trkpt lat="42.5750792865" lon="19.9264018424">
        <ele>1116.71</ele>
        <time>2019-07-04T09:07:32Z</time>
      </trkpt>
      <trkpt lat="42.5749820564" lon="19.9262746889">
        <ele>1118.63</ele>
        <time>2019-07-04T09:07:46Z</time>
      </trkpt>
      <trkpt lat="42.5748972315" lon="19.9261789676">
        <ele>1119.59</ele>
        <time>2019-07-04T09:07:56Z</time>
      </trkpt>
      <trkpt lat="42.5747869257" lon="19.9260783847">
        <ele>1121.52</ele>
        <time>2019-07-04T09:08:09Z</time>
      </trkpt>
      <trkpt lat="42.5747798849" lon="19.9260757025">
        <ele>1121.52</ele>
        <time>2019-07-04T09:08:10Z</time>
      </trkpt>
      <trkpt lat="42.5746680703" lon="19.9260286801">
        <ele>1123.44</ele>
        <time>2019-07-04T09:08:22Z</time>
      </trkpt>
      <trkpt lat="42.5746392366" lon="19.9260350503">
        <ele>1123.92</ele>
        <time>2019-07-04T09:08:26Z</time>
      </trkpt>
      <trkpt lat="42.5745435152" lon="19.9260936398">
        <ele>1125.84</ele>
        <time>2019-07-04T09:08:38Z</time>
      </trkpt>
      <trkpt lat="42.5744041242" lon="19.9261866789">
        <ele>1127.76</ele>
        <time>2019-07-04T09:08:51Z</time>
      </trkpt>
      <trkpt lat="42.5743600354" lon="19.9262220506">
        <ele>1129.21</ele>
        <time>2019-07-04T09:09:03Z</time>
      </trkpt>
      <trkpt lat="42.5743496418" lon="19.9262127466">
        <ele>1129.69</ele>
        <time>2019-07-04T09:09:05Z</time>
      </trkpt>
      <trkpt lat="42.5742654875" lon="19.9261905346">
        <ele>1131.61</ele>
        <time>2019-07-04T09:09:17Z</time>
      </trkpt>
      <trkpt lat="42.5741372444" lon="19.9262542371">
        <ele>1133.53</ele>
        <time>2019-07-04T09:09:32Z</time>
      </trkpt>
      <trkpt lat="42.5740716979" lon="19.9263091385">
        <ele>1135.94</ele>
        <time>2019-07-04T09:09:47Z</time>
      </trkpt>
      <trkpt lat="42.5739910640" lon="19.9263670575">
        <ele>1138.34</ele>
        <time>2019-07-04T09:09:58Z</time>
      </trkpt>
      <trkpt lat="42.5739732943" lon="19.9264026806">
        <ele>1138.82</ele>
        <time>2019-07-04T09:10:01Z</time>
      </trkpt>
      <trkpt lat="42.5738658383" lon="19.9265163392">
        <ele>1140.26</ele>
        <time>2019-07-04T09:10:15Z</time>
      </trkpt>
      <trkpt lat="42.5738514215" lon="19.9265124835">
        <ele>1140.74</ele>
        <time>2019-07-04T09:10:17Z</time>
      </trkpt>
      <trkpt lat="42.5738370884" lon="19.9264950491">
        <ele>1140.74</ele>
        <time>2019-07-04T09:10:19Z</time>
      </trkpt>
      <trkpt lat="42.5737847853" lon="19.9264149182">
        <ele>1141.22</ele>
        <time>2019-07-04T09:10:31Z</time>
      </trkpt>
      <trkpt lat="42.5737798400" lon="19.9264253117">
        <ele>1141.22</ele>
        <time>2019-07-04T09:10:32Z</time>
      </trkpt>
      <trkpt lat="42.5737931672" lon="19.9265095498">
        <ele>1141.22</ele>
        <time>2019-07-04T09:10:36Z</time>
      </trkpt>
      <trkpt lat="42.5737929996" lon="19.9265548959">
        <ele>1141.22</ele>
        <time>2019-07-04T09:10:39Z</time>
      </trkpt>
      <trkpt lat="42.5737832766" lon="19.9265855737">
        <ele>1141.22</ele>
        <time>2019-07-04T09:10:41Z</time>
      </trkpt>
      <trkpt lat="42.5737681892" lon="19.9266162515">
        <ele>1141.22</ele>
        <time>2019-07-04T09:10:43Z</time>
      </trkpt>
      <trkpt lat="42.5737070013" lon="19.9267148226">
        <ele>1141.70</ele>
        <time>2019-07-04T09:10:51Z</time>
      </trkpt>
      <trkpt lat="42.5736529380" lon="19.9267596658">
        <ele>1142.18</ele>
        <time>2019-07-04T09:10:55Z</time>
      </trkpt>
      <trkpt lat="42.5735823624" lon="19.9267889187">
        <ele>1142.18</ele>
        <time>2019-07-04T09:11:00Z</time>
      </trkpt>
      <trkpt lat="42.5735031534" lon="19.9269112945">
        <ele>1142.66</ele>
        <time>2019-07-04T09:11:09Z</time>
      </trkpt>
      <trkpt lat="42.5734296441" lon="19.9270907510">
        <ele>1143.63</ele>
        <time>2019-07-04T09:11:23Z</time>
      </trkpt>
      <trkpt lat="42.5734195858" lon="19.9271159805">
        <ele>1143.63</ele>
        <time>2019-07-04T09:11:25Z</time>
      </trkpt>
      <trkpt lat="42.5734003913" lon="19.9272155575">
        <ele>1144.11</ele>
        <time>2019-07-04T09:11:32Z</time>
      </trkpt>
      <trkpt lat="42.5733304024" lon="19.9272517674">
        <ele>1144.11</ele>
        <time>2019-07-04T09:11:38Z</time>
      </trkpt>
      <trkpt lat="42.5732446555" lon="19.9273883924">
        <ele>1145.07</ele>
        <time>2019-07-04T09:11:48Z</time>
      </trkpt>
      <trkpt lat="42.5731924362" lon="19.9275447149">
        <ele>1145.55</ele>
        <time>2019-07-04T09:11:57Z</time>
      </trkpt>
      <trkpt lat="42.5731111318" lon="19.9276796635">
        <ele>1146.51</ele>
        <time>2019-07-04T09:12:09Z</time>
      </trkpt>
      <trkpt lat="42.5730335154" lon="19.9277956691">
        <ele>1147.47</ele>
        <time>2019-07-04T09:12:21Z</time>
      </trkpt>
      <trkpt lat="42.5730019156" lon="19.9278588686">
        <ele>1147.95</ele>
        <time>2019-07-04T09:12:26Z</time>
      </trkpt>
      <trkpt lat="42.5729407277" lon="19.9279408436">
        <ele>1148.43</ele>
        <time>2019-07-04T09:12:33Z</time>
      </trkpt>
      <trkpt lat="42.5728639495" lon="19.9279834237">
        <ele>1149.87</ele>
        <time>2019-07-04T09:12:42Z</time>
      </trkpt>
      <trkpt lat="42.5727119856" lon="19.9279803224">
        <ele>1151.32</ele>
        <time>2019-07-04T09:12:57Z</time>
      </trkpt>
      <trkpt lat="42.5726962276" lon="19.9279685877">
        <ele>1151.80</ele>
        <time>2019-07-04T09:12:59Z</time>
      </trkpt>
      <trkpt lat="42.5726253167" lon="19.9279178772">
        <ele>1152.28</ele>
        <time>2019-07-04T09:13:04Z</time>
      </trkpt>
      <trkpt lat="42.5725997519" lon="19.9278804939">
        <ele>1152.76</ele>
        <time>2019-07-04T09:13:08Z</time>
      </trkpt>
      <trkpt lat="42.5726041943" lon="19.9278238323">
        <ele>1153.24</ele>
        <time>2019-07-04T09:13:12Z</time>
      </trkpt>
      <trkpt lat="42.5725888554" lon="19.9277551845">
        <ele>1153.72</ele>
        <time>2019-07-04T09:13:17Z</time>
      </trkpt>
      <trkpt lat="42.5725489575" lon="19.9276381731">
        <ele>1154.68</ele>
        <time>2019-07-04T09:13:28Z</time>
      </trkpt>
      <trkpt lat="42.5724901166" lon="19.9275515880">
        <ele>1155.16</ele>
        <time>2019-07-04T09:13:37Z</time>
      </trkpt>
      <trkpt lat="42.5724780466" lon="19.9274921604">
        <ele>1155.16</ele>
        <time>2019-07-04T09:13:41Z</time>
      </trkpt>
      <trkpt lat="42.5723286811" lon="19.9273022264">
        <ele>1155.64</ele>
        <time>2019-07-04T09:13:55Z</time>
      </trkpt>
      <trkpt lat="42.5722296070" lon="19.9272367638">
        <ele>1155.16</ele>
        <time>2019-07-04T09:14:05Z</time>
      </trkpt>
      <trkpt lat="42.5722078141" lon="19.9272549525">
        <ele>1155.16</ele>
        <time>2019-07-04T09:14:08Z</time>
      </trkpt>
      <trkpt lat="42.5721790642" lon="19.9272910785">
        <ele>1155.64</ele>
        <time>2019-07-04T09:14:23Z</time>
      </trkpt>
      <trkpt lat="42.5721700117" lon="19.9272795953">
        <ele>1155.64</ele>
        <time>2019-07-04T09:14:36Z</time>
      </trkpt>
      <trkpt lat="42.5721499790" lon="19.9272752367">
        <ele>1155.64</ele>
        <time>2019-07-04T09:15:03Z</time>
      </trkpt>
      <trkpt lat="42.5720887911" lon="19.9272222631">
        <ele>1156.12</ele>
        <time>2019-07-04T09:15:31Z</time>
      </trkpt>
      <trkpt lat="42.5720334705" lon="19.9272084329">
        <ele>1154.68</ele>
        <time>2019-07-04T09:16:00Z</time>
      </trkpt>
      <trkpt lat="42.5720411818" lon="19.9272160605">
        <ele>1156.12</ele>
        <time>2019-07-04T09:16:05Z</time>
      </trkpt>
      <trkpt lat="42.5720310397" lon="19.9272297230">
        <ele>1156.12</ele>
        <time>2019-07-04T09:16:23Z</time>
      </trkpt>
      <trkpt lat="42.5720139407" lon="19.9272241909">
        <ele>1156.60</ele>
        <time>2019-07-04T09:16:38Z</time>
      </trkpt>
      <trkpt lat="42.5720069837" lon="19.9272336625">
        <ele>1156.60</ele>
        <time>2019-07-04T09:16:55Z</time>
      </trkpt>
      <trkpt lat="42.5719967578" lon="19.9272396974">
        <ele>1156.60</ele>
        <time>2019-07-04T09:17:12Z</time>
      </trkpt>
      <trkpt lat="42.5719809998" lon="19.9272842892">
        <ele>1156.60</ele>
        <time>2019-07-04T09:17:27Z</time>
      </trkpt>
      <trkpt lat="42.5719752163" lon="19.9273438007">
        <ele>1157.08</ele>
        <time>2019-07-04T09:17:31Z</time>
      </trkpt>
      <trkpt lat="42.5719413534" lon="19.9275400210">
        <ele>1158.05</ele>
        <time>2019-07-04T09:17:46Z</time>
      </trkpt>
      <trkpt lat="42.5719291158" lon="19.9275934976">
        <ele>1158.53</ele>
        <time>2019-07-04T09:17:50Z</time>
      </trkpt>
      <trkpt lat="42.5719064847" lon="19.9276390113">
        <ele>1159.49</ele>
        <time>2019-07-04T09:17:54Z</time>
      </trkpt>
      <trkpt lat="42.5718943309" lon="19.9277067371">
        <ele>1159.97</ele>
        <time>2019-07-04T09:17:59Z</time>
      </trkpt>
      <trkpt lat="42.5718961749" lon="19.9277912267">
        <ele>1160.45</ele>
        <time>2019-07-04T09:18:04Z</time>
      </trkpt>
      <trkpt lat="42.5718877930" lon="19.9278974254">
        <ele>1160.93</ele>
        <time>2019-07-04T09:18:11Z</time>
      </trkpt>
      <trkpt lat="42.5718265213" lon="19.9280903768">
        <ele>1162.37</ele>
        <time>2019-07-04T09:18:27Z</time>
      </trkpt>
      <trkpt lat="42.5717598014" lon="19.9281729385">
        <ele>1163.33</ele>
        <time>2019-07-04T09:18:34Z</time>
      </trkpt>
      <trkpt lat="42.5716536026" lon="19.9283477012">
        <ele>1165.26</ele>
        <time>2019-07-04T09:18:48Z</time>
      </trkpt>
      <trkpt lat="42.5716268644" lon="19.9284333643">
        <ele>1165.74</ele>
        <time>2019-07-04T09:18:53Z</time>
      </trkpt>
      <trkpt lat="42.5715994556" lon="19.9286181852">
        <ele>1168.14</ele>
        <time>2019-07-04T09:19:06Z</time>
      </trkpt>
      <trkpt lat="42.5715738069" lon="19.9287940376">
        <ele>1170.06</ele>
        <time>2019-07-04T09:19:20Z</time>
      </trkpt>
      <trkpt lat="42.5715751480" lon="19.9288799521">
        <ele>1171.02</ele>
        <time>2019-07-04T09:19:26Z</time>
      </trkpt>
      <trkpt lat="42.5715227611" lon="19.9290133081">
        <ele>1172.47</ele>
        <time>2019-07-04T09:19:36Z</time>
      </trkpt>
      <trkpt lat="42.5715083443" lon="19.9290532898">
        <ele>1172.95</ele>
        <time>2019-07-04T09:19:39Z</time>
      </trkpt>
      <trkpt lat="42.5714652613" lon="19.9291837122">
        <ele>1173.91</ele>
        <time>2019-07-04T09:19:49Z</time>
      </trkpt>
      <trkpt lat="42.5713797659" lon="19.9292744044">
        <ele>1175.35</ele>
        <time>2019-07-04T09:20:02Z</time>
      </trkpt>
      <trkpt lat="42.5713047478" lon="19.9292628374">
        <ele>1176.31</ele>
        <time>2019-07-04T09:20:09Z</time>
      </trkpt>
      <trkpt lat="42.5711132213" lon="19.9291838799">
        <ele>1177.75</ele>
        <time>2019-07-04T09:20:26Z</time>
      </trkpt>
      <trkpt lat="42.5709736627" lon="19.9291238654">
        <ele>1179.67</ele>
        <time>2019-07-04T09:20:39Z</time>
      </trkpt>
      <trkpt lat="42.5708590820" lon="19.9291178305">
        <ele>1180.64</ele>
        <time>2019-07-04T09:20:51Z</time>
      </trkpt>
      <trkpt lat="42.5708493590" lon="19.9291186687">
        <ele>1180.64</ele>
        <time>2019-07-04T09:20:52Z</time>
      </trkpt>
      <trkpt lat="42.5706626102" lon="19.9291259609">
        <ele>1183.04</ele>
        <time>2019-07-04T09:21:07Z</time>
      </trkpt>
      <trkpt lat="42.5705026835" lon="19.9291463289">
        <ele>1184.48</ele>
        <time>2019-07-04T09:21:24Z</time>
      </trkpt>
      <trkpt lat="42.5703425054" lon="19.9291962013">
        <ele>1185.44</ele>
        <time>2019-07-04T09:21:38Z</time>
      </trkpt>
      <trkpt lat="42.5702138431" lon="19.9292737339">
        <ele>1186.88</ele>
        <time>2019-07-04T09:21:49Z</time>
      </trkpt>
      <trkpt lat="42.5701237377" lon="19.9293363467">
        <ele>1187.85</ele>
        <time>2019-07-04T09:21:59Z</time>
      </trkpt>
      <trkpt lat="42.5700238254" lon="19.9293545354">
        <ele>1188.81</ele>
        <time>2019-07-04T09:22:10Z</time>
      </trkpt>
      <trkpt lat="42.5699203927" lon="19.9293555412">
        <ele>1190.73</ele>
        <time>2019-07-04T09:22:24Z</time>
      </trkpt>
      <trkpt lat="42.5697699375" lon="19.9293572176">
        <ele>1192.17</ele>
        <time>2019-07-04T09:22:39Z</time>
      </trkpt>
      <trkpt lat="42.5696597155" lon="19.9293391127">
        <ele>1193.61</ele>
        <time>2019-07-04T09:22:53Z</time>
      </trkpt>
      <trkpt lat="42.5694913231" lon="19.9293684494">
        <ele>1195.54</ele>
        <time>2019-07-04T09:23:07Z</time>
      </trkpt>
      <trkpt lat="42.5694008823" lon="19.9294397794">
        <ele>1196.50</ele>
        <time>2019-07-04T09:23:19Z</time>
      </trkpt>
      <trkpt lat="42.5693392754" lon="19.9294487480">
        <ele>1196.50</ele>
        <time>2019-07-04T09:23:24Z</time>
      </trkpt>
      <trkpt lat="42.5692018121" lon="19.9294366781">
        <ele>1197.94</ele>
        <time>2019-07-04T09:23:38Z</time>
      </trkpt>
      <trkpt lat="42.5691626687" lon="19.9294347502">
        <ele>1197.94</ele>
        <time>2019-07-04T09:23:42Z</time>
      </trkpt>
      <trkpt lat="42.5691315718" lon="19.9294352531">
        <ele>1198.42</ele>
        <time>2019-07-04T09:23:45Z</time>
      </trkpt>
      <trkpt lat="42.5690005627" lon="19.9294702057">
        <ele>1199.38</ele>
        <time>2019-07-04T09:23:58Z</time>
      </trkpt>
      <trkpt lat="42.5689804461" lon="19.9294676911">
        <ele>1199.38</ele>
        <time>2019-07-04T09:23:59Z</time>
      </trkpt>
      <trkpt lat="42.5688475929" lon="19.9295324832">
        <ele>1201.30</ele>
        <time>2019-07-04T09:24:12Z</time>
      </trkpt>
      <trkpt lat="42.5688338466" lon="19.9295406975">
        <ele>1201.30</ele>
        <time>2019-07-04T09:24:13Z</time>
      </trkpt>
      <trkpt lat="42.5687266421" lon="19.9295995384">
        <ele>1202.75</ele>
        <time>2019-07-04T09:24:23Z</time>
      </trkpt>
      <trkpt lat="42.5686996523" lon="19.9296159670">
        <ele>1203.23</ele>
        <time>2019-07-04T09:24:26Z</time>
      </trkpt>
      <trkpt lat="42.5685599260" lon="19.9297204893">
        <ele>1205.15</ele>
        <time>2019-07-04T09:24:42Z</time>
      </trkpt>
      <trkpt lat="42.5684231333" lon="19.9297592975">
        <ele>1205.63</ele>
        <time>2019-07-04T09:24:55Z</time>
      </trkpt>
      <trkpt lat="42.5683729257" lon="19.9297505803">
        <ele>1206.11</ele>
        <time>2019-07-04T09:24:59Z</time>
      </trkpt>
      <trkpt lat="42.5682584289" lon="19.9296915717">
        <ele>1206.59</ele>
        <time>2019-07-04T09:25:10Z</time>
      </trkpt>
      <trkpt lat="42.5681087282" lon="19.9295833614">
        <ele>1207.55</ele>
        <time>2019-07-04T09:25:24Z</time>
      </trkpt>
      <trkpt lat="42.5680929702" lon="19.9295622390">
        <ele>1207.55</ele>
        <time>2019-07-04T09:25:26Z</time>
      </trkpt>
      <trkpt lat="42.5680756196" lon="19.9295433797">
        <ele>1208.03</ele>
        <time>2019-07-04T09:25:28Z</time>
      </trkpt>
      <trkpt lat="42.5679125916" lon="19.9294671882">
        <ele>1209.48</ele>
        <time>2019-07-04T09:25:44Z</time>
      </trkpt>
      <trkpt lat="42.5678435247" lon="19.9294229317">
        <ele>1209.96</ele>
        <time>2019-07-04T09:25:52Z</time>
      </trkpt>
      <trkpt lat="42.5676974282" lon="19.9293164816">
        <ele>1210.92</ele>
        <time>2019-07-04T09:26:05Z</time>
      </trkpt>
      <trkpt lat="42.5676263496" lon="19.9292681180">
        <ele>1210.92</ele>
        <time>2019-07-04T09:26:11Z</time>
      </trkpt>
      <trkpt lat="42.5675748847" lon="19.9292425532">
        <ele>1210.92</ele>
        <time>2019-07-04T09:26:15Z</time>
      </trkpt>
      <trkpt lat="42.5675478950" lon="19.9292143900">
        <ele>1210.92</ele>
        <time>2019-07-04T09:26:18Z</time>
      </trkpt>
      <trkpt lat="42.5674599689" lon="19.9291656073">
        <ele>1210.92</ele>
        <time>2019-07-04T09:26:25Z</time>
      </trkpt>
      <trkpt lat="42.5673151296" lon="19.9291133881">
        <ele>1209.96</ele>
        <time>2019-07-04T09:26:38Z</time>
      </trkpt>
      <trkpt lat="42.5672031473" lon="19.9291209318">
        <ele>1209.96</ele>
        <time>2019-07-04T09:26:47Z</time>
      </trkpt>
      <trkpt lat="42.5670301449" lon="19.9291513581">
        <ele>1210.92</ele>
        <time>2019-07-04T09:27:01Z</time>
      </trkpt>
      <trkpt lat="42.5669229403" lon="19.9291127175">
        <ele>1212.36</ele>
        <time>2019-07-04T09:27:14Z</time>
      </trkpt>
      <trkpt lat="42.5669110380" lon="19.9291103706">
        <ele>1212.84</ele>
        <time>2019-07-04T09:27:15Z</time>
      </trkpt>
      <trkpt lat="42.5668478385" lon="19.9290828779">
        <ele>1213.32</ele>
        <time>2019-07-04T09:27:20Z</time>
      </trkpt>
      <trkpt lat="42.5667594932" lon="19.9290596601">
        <ele>1213.80</ele>
        <time>2019-07-04T09:27:28Z</time>
      </trkpt>
      <trkpt lat="42.5666992273" lon="19.9290281441">
        <ele>1214.28</ele>
        <time>2019-07-04T09:27:34Z</time>
      </trkpt>
      <trkpt lat="42.5666264724" lon="19.9289955385">
        <ele>1215.72</ele>
        <time>2019-07-04T09:27:41Z</time>
      </trkpt>
      <trkpt lat="42.5665465090" lon="19.9289893359">
        <ele>1216.69</ele>
        <time>2019-07-04T09:27:49Z</time>
      </trkpt>
      <trkpt lat="42.5664745923" lon="19.9289724883">
        <ele>1218.13</ele>
        <time>2019-07-04T09:27:56Z</time>
      </trkpt>
      <trkpt lat="42.5663806312" lon="19.9289173353">
        <ele>1219.09</ele>
        <time>2019-07-04T09:28:04Z</time>
      </trkpt>
      <trkpt lat="42.5662807189" lon="19.9288333487">
        <ele>1219.57</ele>
        <time>2019-07-04T09:28:14Z</time>
      </trkpt>
      <trkpt lat="42.5662256498" lon="19.9288531300">
        <ele>1219.57</ele>
        <time>2019-07-04T09:28:20Z</time>
      </trkpt>
      <trkpt lat="42.5661699101" lon="19.9288814608">
        <ele>1221.01</ele>
        <time>2019-07-04T09:28:26Z</time>
      </trkpt>
      <trkpt lat="42.5661483686" lon="19.9288886692">
        <ele>1221.49</ele>
        <time>2019-07-04T09:28:28Z</time>
      </trkpt>
      <trkpt lat="42.5659748632" lon="19.9288724083">
        <ele>1222.93</ele>
        <time>2019-07-04T09:28:41Z</time>
      </trkpt>
      <trkpt lat="42.5658293534" lon="19.9288725760">
        <ele>1222.45</ele>
        <time>2019-07-04T09:28:53Z</time>
      </trkpt>
      <trkpt lat="42.5657401700" lon="19.9288724922">
        <ele>1221.49</ele>
        <time>2019-07-04T09:28:59Z</time>
      </trkpt>
      <trkpt lat="42.5656657387" lon="19.9289219454">
        <ele>1221.49</ele>
        <time>2019-07-04T09:29:07Z</time>
      </trkpt>
      <trkpt lat="42.5655504037" lon="19.9289285671">
        <ele>1222.93</ele>
        <time>2019-07-04T09:29:16Z</time>
      </trkpt>
      <trkpt lat="42.5654297043" lon="19.9289166648">
        <ele>1224.38</ele>
        <time>2019-07-04T09:29:28Z</time>
      </trkpt>
      <trkpt lat="42.5653340667" lon="19.9288750906">
        <ele>1225.82</ele>
        <time>2019-07-04T09:29:37Z</time>
      </trkpt>
      <trkpt lat="42.5652171392" lon="19.9288400542">
        <ele>1227.74</ele>
        <time>2019-07-04T09:29:50Z</time>
      </trkpt>
      <trkpt lat="42.5651857909" lon="19.9288174231">
        <ele>1228.70</ele>
        <time>2019-07-04T09:29:54Z</time>
      </trkpt>
      <trkpt lat="42.5651273690" lon="19.9286908563">
        <ele>1232.55</ele>
        <time>2019-07-04T09:30:06Z</time>
      </trkpt>
      <trkpt lat="42.5651261117" lon="19.9286707398">
        <ele>1231.11</ele>
        <time>2019-07-04T09:30:08Z</time>
      </trkpt>
      <trkpt lat="42.5651472341" lon="19.9286444206">
        <ele>1231.11</ele>
        <time>2019-07-04T09:30:10Z</time>
      </trkpt>
      <trkpt lat="42.5652349088" lon="19.9285810534">
        <ele>1232.55</ele>
        <time>2019-07-04T09:30:22Z</time>
      </trkpt>
      <trkpt lat="42.5653359946" lon="19.9284419976">
        <ele>1233.51</ele>
        <time>2019-07-04T09:30:33Z</time>
      </trkpt>
      <trkpt lat="42.5654178858" lon="19.9282819871">
        <ele>1234.95</ele>
        <time>2019-07-04T09:30:46Z</time>
      </trkpt>
      <trkpt lat="42.5654991902" lon="19.9282716773">
        <ele>1235.43</ele>
        <time>2019-07-04T09:30:55Z</time>
      </trkpt>
      <trkpt lat="42.5655264314" lon="19.9282757845">
        <ele>1235.91</ele>
        <time>2019-07-04T09:30:57Z</time>
      </trkpt>
      <trkpt lat="42.5656917226" lon="19.9283078033">
        <ele>1237.35</ele>
        <time>2019-07-04T09:31:11Z</time>
      </trkpt>
      <trkpt lat="42.5657125097" lon="19.9283119105">
        <ele>1237.35</ele>
        <time>2019-07-04T09:31:13Z</time>
      </trkpt>
      <trkpt lat="42.5658314489" lon="19.9282996729">
        <ele>1239.28</ele>
        <time>2019-07-04T09:31:26Z</time>
      </trkpt>
      <trkpt lat="42.5658995099" lon="19.9282836635">
        <ele>1239.28</ele>
        <time>2019-07-04T09:31:32Z</time>
      </trkpt>
      <trkpt lat="42.5659948122" lon="19.9281502236">
        <ele>1240.24</ele>
        <time>2019-07-04T09:31:43Z</time>
      </trkpt>
      <trkpt lat="42.5660524797" lon="19.9280964956">
        <ele>1240.72</ele>
        <time>2019-07-04T09:31:48Z</time>
      </trkpt>
      <trkpt lat="42.5660867617" lon="19.9280296918">
        <ele>1240.72</ele>
        <time>2019-07-04T09:31:53Z</time>
      </trkpt>
      <trkpt lat="42.5661126617" lon="19.9279884528">
        <ele>1240.72</ele>
        <time>2019-07-04T09:31:56Z</time>
      </trkpt>
      <trkpt lat="42.5661292579" lon="19.9279566016">
        <ele>1240.72</ele>
        <time>2019-07-04T09:31:59Z</time>
      </trkpt>
      <trkpt lat="42.5662532263" lon="19.9279720243">
        <ele>1242.64</ele>
        <time>2019-07-04T09:32:13Z</time>
      </trkpt>
      <trkpt lat="42.5663190242" lon="19.9280339666">
        <ele>1244.08</ele>
        <time>2019-07-04T09:32:21Z</time>
      </trkpt>
      <trkpt lat="42.5663917791" lon="19.9280484673">
        <ele>1245.04</ele>
        <time>2019-07-04T09:32:28Z</time>
      </trkpt>
      <trkpt lat="42.5664103869" lon="19.9280572683">
        <ele>1245.53</ele>
        <time>2019-07-04T09:32:30Z</time>
      </trkpt>
      <trkpt lat="42.5665339362" lon="19.9280269258">
        <ele>1246.49</ele>
        <time>2019-07-04T09:32:42Z</time>
      </trkpt>
      <trkpt lat="42.5666097086" lon="19.9280252494">
        <ele>1246.97</ele>
        <time>2019-07-04T09:32:50Z</time>
      </trkpt>
      <trkpt lat="42.5667768437" lon="19.9280224834">
        <ele>1249.37</ele>
        <time>2019-07-04T09:33:04Z</time>
      </trkpt>
      <trkpt lat="42.5668298174" lon="19.9280126765">
        <ele>1250.33</ele>
        <time>2019-07-04T09:33:09Z</time>
      </trkpt>
      <trkpt lat="42.5668928493" lon="19.9279705994">
        <ele>1250.81</ele>
        <time>2019-07-04T09:33:15Z</time>
      </trkpt>
      <trkpt lat="42.5669635087" lon="19.9278827570">
        <ele>1251.29</ele>
        <time>2019-07-04T09:33:23Z</time>
      </trkpt>
      <trkpt lat="42.5670671929" lon="19.9277762230">
        <ele>1252.25</ele>
        <time>2019-07-04T09:33:33Z</time>
      </trkpt>
      <trkpt lat="42.5672111101" lon="19.9277942441">
        <ele>1252.74</ele>
        <time>2019-07-04T09:33:44Z</time>
      </trkpt>
      <trkpt lat="42.5673180632" lon="19.9278943241">
        <ele>1253.70</ele>
        <time>2019-07-04T09:33:57Z</time>
      </trkpt>
      <trkpt lat="42.5673712045" lon="19.9279387482">
        <ele>1254.18</ele>
        <time>2019-07-04T09:34:03Z</time>
      </trkpt>
      <trkpt lat="42.5674740504" lon="19.9279394187">
        <ele>1256.10</ele>
        <time>2019-07-04T09:34:16Z</time>
      </trkpt>
      <trkpt lat="42.5674575381" lon="19.9278189708">
        <ele>1257.54</ele>
        <time>2019-07-04T09:34:26Z</time>
      </trkpt>
      <trkpt lat="42.5673382636" lon="19.9277071562">
        <ele>1258.02</ele>
        <time>2019-07-04T09:34:38Z</time>
      </trkpt>
      <trkpt lat="42.5672762375" lon="19.9276345689">
        <ele>1258.98</ele>
        <time>2019-07-04T09:34:45Z</time>
      </trkpt>
      <trkpt lat="42.5672499184" lon="19.9276023824">
        <ele>1258.98</ele>
        <time>2019-07-04T09:34:48Z</time>
      </trkpt>
      <trkpt lat="42.5671481621" lon="19.9274363369">
        <ele>1260.43</ele>
        <time>2019-07-04T09:35:02Z</time>
      </trkpt>
      <trkpt lat="42.5671180710" lon="19.9274235126">
        <ele>1260.91</ele>
        <time>2019-07-04T09:35:05Z</time>
      </trkpt>
      <trkpt lat="42.5669690408" lon="19.9273725506">
        <ele>1261.87</ele>
        <time>2019-07-04T09:35:21Z</time>
      </trkpt>
      <trkpt lat="42.5669089425" lon="19.9273817707">
        <ele>1262.35</ele>
        <time>2019-07-04T09:35:26Z</time>
      </trkpt>
      <trkpt lat="42.5668599084" lon="19.9273749813">
        <ele>1262.83</ele>
        <time>2019-07-04T09:35:30Z</time>
      </trkpt>
      <trkpt lat="42.5667242054" lon="19.9273645878">
        <ele>1263.31</ele>
        <time>2019-07-04T09:35:41Z</time>
      </trkpt>
      <trkpt lat="42.5667118002" lon="19.9273603968">
        <ele>1263.31</ele>
        <time>2019-07-04T09:35:42Z</time>
      </trkpt>
      <trkpt lat="42.5666767638" lon="19.9273422919">
        <ele>1263.79</ele>
        <time>2019-07-04T09:35:45Z</time>
      </trkpt>
      <trkpt lat="42.5666056015" lon="19.9273153860">
        <ele>1264.27</ele>
        <time>2019-07-04T09:35:53Z</time>
      </trkpt>
      <trkpt lat="42.5665460061" lon="19.9272836186">
        <ele>1265.71</ele>
        <time>2019-07-04T09:36:00Z</time>
      </trkpt>
      <trkpt lat="42.5664028432" lon="19.9272024818">
        <ele>1267.64</ele>
        <time>2019-07-04T09:36:15Z</time>
      </trkpt>
      <trkpt lat="42.5663802959" lon="19.9271851312">
        <ele>1267.64</ele>
        <time>2019-07-04T09:36:18Z</time>
      </trkpt>
      <trkpt lat="42.5663387217" lon="19.9271474127">
        <ele>1268.12</ele>
        <time>2019-07-04T09:36:23Z</time>
      </trkpt>
      <trkpt lat="42.5663122348" lon="19.9271262065">
        <ele>1268.12</ele>
        <time>2019-07-04T09:36:26Z</time>
      </trkpt>
      <trkpt lat="42.5662331935" lon="19.9271235242">
        <ele>1268.60</ele>
        <time>2019-07-04T09:36:33Z</time>
      </trkpt>
      <trkpt lat="42.5661936309" lon="19.9271066766">
        <ele>1268.60</ele>
        <time>2019-07-04T09:36:38Z</time>
      </trkpt>
      <trkpt lat="42.5661509670" lon="19.9271024857">
        <ele>1268.60</ele>
        <time>2019-07-04T09:36:42Z</time>
      </trkpt>
      <trkpt lat="42.5659926329" lon="19.9271305650">
        <ele>1270.52</ele>
        <time>2019-07-04T09:36:56Z</time>
      </trkpt>
      <trkpt lat="42.5658122543" lon="19.9271650985">
        <ele>1271.96</ele>
        <time>2019-07-04T09:37:10Z</time>
      </trkpt>
      <trkpt lat="42.5656339712" lon="19.9271663558">
        <ele>1273.40</ele>
        <time>2019-07-04T09:37:27Z</time>
      </trkpt>
      <trkpt lat="42.5656036288" lon="19.9271471612">
        <ele>1273.40</ele>
        <time>2019-07-04T09:37:31Z</time>
      </trkpt>
      <trkpt lat="42.5654939096" lon="19.9271417130">
        <ele>1274.36</ele>
        <time>2019-07-04T09:37:43Z</time>
      </trkpt>
      <trkpt lat="42.5654789899" lon="19.9271390308">
        <ele>1274.36</ele>
        <time>2019-07-04T09:37:45Z</time>
      </trkpt>
      <trkpt lat="42.5653989427" lon="19.9271379411">
        <ele>1275.33</ele>
        <time>2019-07-04T09:37:55Z</time>
      </trkpt>
      <trkpt lat="42.5652375910" lon="19.9271654338">
        <ele>1277.25</ele>
        <time>2019-07-04T09:38:08Z</time>
      </trkpt>
      <trkpt lat="42.5650991220" lon="19.9272576347">
        <ele>1278.21</ele>
        <time>2019-07-04T09:38:20Z</time>
      </trkpt>
      <trkpt lat="42.5649472419" lon="19.9273391068">
        <ele>1280.13</ele>
        <time>2019-07-04T09:38:34Z</time>
      </trkpt>
      <trkpt lat="42.5647672825" lon="19.9274180643">
        <ele>1282.06</ele>
        <time>2019-07-04T09:38:49Z</time>
      </trkpt>
      <trkpt lat="42.5646547135" lon="19.9274806771">
        <ele>1283.02</ele>
        <time>2019-07-04T09:39:00Z</time>
      </trkpt>
      <trkpt lat="42.5644658692" lon="19.9274539389">
        <ele>1283.98</ele>
        <time>2019-07-04T09:39:18Z</time>
      </trkpt>
      <trkpt lat="42.5643263943" lon="19.9274463952">
        <ele>1284.94</ele>
        <time>2019-07-04T09:39:31Z</time>
      </trkpt>
      <trkpt lat="42.5642006658" lon="19.9275124446">
        <ele>1286.86</ele>
        <time>2019-07-04T09:39:44Z</time>
      </trkpt>
      <trkpt lat="42.5641877577" lon="19.9275183957">
        <ele>1286.86</ele>
        <time>2019-07-04T09:39:45Z</time>
      </trkpt>
      <trkpt lat="42.5640417449" lon="19.9276598822">
        <ele>1289.27</ele>
        <time>2019-07-04T09:40:00Z</time>
      </trkpt>
      <trkpt lat="42.5639223028" lon="19.9277251773">
        <ele>1290.23</ele>
        <time>2019-07-04T09:40:12Z</time>
      </trkpt>
      <trkpt lat="42.5639095623" lon="19.9277251773">
        <ele>1290.23</ele>
        <time>2019-07-04T09:40:13Z</time>
      </trkpt>
      <trkpt lat="42.5637837499" lon="19.9276914820">
        <ele>1291.67</ele>
        <time>2019-07-04T09:40:25Z</time>
      </trkpt>
      <trkpt lat="42.5637508929" lon="19.9276776519">
        <ele>1292.15</ele>
        <time>2019-07-04T09:40:28Z</time>
      </trkpt>
      <trkpt lat="42.5635830034" lon="19.9276231695">
        <ele>1293.59</ele>
        <time>2019-07-04T09:40:43Z</time>
      </trkpt>
      <trkpt lat="42.5635624677" lon="19.9276239239">
        <ele>1294.07</ele>
        <time>2019-07-04T09:40:45Z</time>
      </trkpt>
      <trkpt lat="42.5633759703" lon="19.9277194776">
        <ele>1295.99</ele>
        <time>2019-07-04T09:41:01Z</time>
      </trkpt>
      <trkpt lat="42.5632175524" lon="19.9277733732">
        <ele>1295.99</ele>
        <time>2019-07-04T09:41:15Z</time>
      </trkpt>
      <trkpt lat="42.5631525088" lon="19.9277282786">
        <ele>1295.99</ele>
        <time>2019-07-04T09:41:22Z</time>
      </trkpt>
      <trkpt lat="42.5631371699" lon="19.9277054798">
        <ele>1296.48</ele>
        <time>2019-07-04T09:41:24Z</time>
      </trkpt>
      <trkpt lat="42.5631314702" lon="19.9275563657">
        <ele>1297.92</ele>
        <time>2019-07-04T09:41:37Z</time>
      </trkpt>
      <trkpt lat="42.5631377567" lon="19.9275447149">
        <ele>1297.92</ele>
        <time>2019-07-04T09:41:38Z</time>
      </trkpt>
      <trkpt lat="42.5631965138" lon="19.9274748098">
        <ele>1298.88</ele>
        <time>2019-07-04T09:41:45Z</time>
      </trkpt>
      <trkpt lat="42.5633315463" lon="19.9273972772">
        <ele>1300.80</ele>
        <time>2019-07-04T09:41:58Z</time>
      </trkpt>
      <trkpt lat="42.5634579454" lon="19.9272818584">
        <ele>1302.24</ele>
        <time>2019-07-04T09:42:12Z</time>
      </trkpt>
      <trkpt lat="42.5636354741" lon="19.9272251967">
        <ele>1302.72</ele>
        <time>2019-07-04T09:42:25Z</time>
      </trkpt>
      <trkpt lat="42.5637274235" lon="19.9272231013">
        <ele>1303.69</ele>
        <time>2019-07-04T09:42:35Z</time>
      </trkpt>
      <trkpt lat="42.5637467019" lon="19.9272225983">
        <ele>1304.17</ele>
        <time>2019-07-04T09:42:37Z</time>
      </trkpt>
      <trkpt lat="42.5638165232" lon="19.9272258673">
        <ele>1304.17</ele>
        <time>2019-07-04T09:42:43Z</time>
      </trkpt>
      <trkpt lat="42.5638957322" lon="19.9271823652">
        <ele>1304.65</ele>
        <time>2019-07-04T09:42:50Z</time>
      </trkpt>
      <trkpt lat="42.5639173575" lon="19.9271633383">
        <ele>1305.13</ele>
        <time>2019-07-04T09:42:53Z</time>
      </trkpt>
      <trkpt lat="42.5640597660" lon="19.9270731490">
        <ele>1305.61</ele>
        <time>2019-07-04T09:43:06Z</time>
      </trkpt>
      <trkpt lat="42.5641771965" lon="19.9269418884">
        <ele>1307.53</ele>
        <time>2019-07-04T09:43:20Z</time>
      </trkpt>
      <trkpt lat="42.5642932858" lon="19.9267836381">
        <ele>1309.45</ele>
        <time>2019-07-04T09:43:33Z</time>
      </trkpt>
      <trkpt lat="42.5643832237" lon="19.9266110547">
        <ele>1310.90</ele>
        <time>2019-07-04T09:43:47Z</time>
      </trkpt>
      <trkpt lat="42.5643909350" lon="19.9265991524">
        <ele>1310.90</ele>
        <time>2019-07-04T09:43:48Z</time>
      </trkpt>
      <trkpt lat="42.5644565653" lon="19.9265075382">
        <ele>1311.86</ele>
        <time>2019-07-04T09:43:57Z</time>
      </trkpt>
      <trkpt lat="42.5645484310" lon="19.9263696559">
        <ele>1313.30</ele>
        <time>2019-07-04T09:44:12Z</time>
      </trkpt>
      <trkpt lat="42.5645566452" lon="19.9263658002">
        <ele>1313.30</ele>
        <time>2019-07-04T09:44:14Z</time>
      </trkpt>
      <trkpt lat="42.5646285620" lon="19.9262861721">
        <ele>1313.78</ele>
        <time>2019-07-04T09:44:21Z</time>
      </trkpt>
      <trkpt lat="42.5646492653" lon="19.9262579251">
        <ele>1314.26</ele>
        <time>2019-07-04T09:44:25Z</time>
      </trkpt>
      <trkpt lat="42.5647582300" lon="19.9261634611">
        <ele>1315.70</ele>
        <time>2019-07-04T09:44:38Z</time>
      </trkpt>
      <trkpt lat="42.5648252852" lon="19.9261416681">
        <ele>1316.18</ele>
        <time>2019-07-04T09:44:43Z</time>
      </trkpt>
      <trkpt lat="42.5648801029" lon="19.9261109065">
        <ele>1316.66</ele>
        <time>2019-07-04T09:44:48Z</time>
      </trkpt>
      <trkpt lat="42.5649369322" lon="19.9260705058">
        <ele>1317.14</ele>
        <time>2019-07-04T09:44:54Z</time>
      </trkpt>
      <trkpt lat="42.5649683643" lon="19.9260430131">
        <ele>1318.10</ele>
        <time>2019-07-04T09:44:57Z</time>
      </trkpt>
      <trkpt lat="42.5651096832" lon="19.9258862715">
        <ele>1319.07</ele>
        <time>2019-07-04T09:45:10Z</time>
      </trkpt>
      <trkpt lat="42.5651978608" lon="19.9257125985">
        <ele>1320.99</ele>
        <time>2019-07-04T09:45:24Z</time>
      </trkpt>
      <trkpt lat="42.5652706996" lon="19.9255835172">
        <ele>1322.91</ele>
        <time>2019-07-04T09:45:38Z</time>
      </trkpt>
      <trkpt lat="42.5652912352" lon="19.9255488999">
        <ele>1323.39</ele>
        <time>2019-07-04T09:45:43Z</time>
      </trkpt>
      <trkpt lat="42.5653648283" lon="19.9254794978">
        <ele>1323.39</ele>
        <time>2019-07-04T09:45:50Z</time>
      </trkpt>
      <trkpt lat="42.5654390920" lon="19.9254566152">
        <ele>1323.39</ele>
        <time>2019-07-04T09:45:56Z</time>
      </trkpt>
      <trkpt lat="42.5655632280" lon="19.9254713673">
        <ele>1324.35</ele>
        <time>2019-07-04T09:46:09Z</time>
      </trkpt>
      <trkpt lat="42.5656678341" lon="19.9255234189">
        <ele>1324.83</ele>
        <time>2019-07-04T09:46:17Z</time>
      </trkpt>
      <trkpt lat="42.5657585263" lon="19.9255039729">
        <ele>1326.28</ele>
        <time>2019-07-04T09:46:26Z</time>
      </trkpt>
      <trkpt lat="42.5657115877" lon="19.9253855366">
        <ele>1327.72</ele>
        <time>2019-07-04T09:46:35Z</time>
      </trkpt>
      <trkpt lat="42.5656828377" lon="19.9253642466">
        <ele>1327.72</ele>
        <time>2019-07-04T09:46:38Z</time>
      </trkpt>
      <trkpt lat="42.5655475538" lon="19.9252304714">
        <ele>1328.68</ele>
        <time>2019-07-04T09:46:53Z</time>
      </trkpt>
      <trkpt lat="42.5655239169" lon="19.9251764081">
        <ele>1329.16</ele>
        <time>2019-07-04T09:47:08Z</time>
      </trkpt>
      <trkpt lat="42.5655465480" lon="19.9251417909">
        <ele>1329.16</ele>
        <time>2019-07-04T09:47:25Z</time>
      </trkpt>
      <trkpt lat="42.5655502360" lon="19.9252503365">
        <ele>1329.16</ele>
        <time>2019-07-04T09:48:04Z</time>
      </trkpt>
      <trkpt lat="42.5655413512" lon="19.9252399430">
        <ele>1329.16</ele>
        <time>2019-07-04T09:48:25Z</time>
      </trkpt>
      <trkpt lat="42.5655134395" lon="19.9252308067">
        <ele>1330.12</ele>
        <time>2019-07-04T09:48:44Z</time>
      </trkpt>
      <trkpt lat="42.5654886290" lon="19.9252531026">
        <ele>1330.12</ele>
        <time>2019-07-04T09:49:10Z</time>
      </trkpt>
      <trkpt lat="42.5654897187" lon="19.9252459779">
        <ele>1330.60</ele>
        <time>2019-07-04T09:49:40Z</time>
      </trkpt>
      <trkpt lat="42.5654922333" lon="19.9252752308">
        <ele>1331.08</ele>
        <time>2019-07-04T09:50:18Z</time>
      </trkpt>
      <trkpt lat="42.5654875394" lon="19.9252466485">
        <ele>1331.08</ele>
        <time>2019-07-04T09:50:34Z</time>
      </trkpt>
      <trkpt lat="42.5654879585" lon="19.9252393562">
        <ele>1329.64</ele>
        <time>2019-07-04T09:50:39Z</time>
      </trkpt>
      <trkpt lat="42.5655087456" lon="19.9251987040">
        <ele>1330.12</ele>
        <time>2019-07-04T09:51:14Z</time>
      </trkpt>
      <trkpt lat="42.5654359907" lon="19.9252748117">
        <ele>1330.60</ele>
        <time>2019-07-04T09:51:54Z</time>
      </trkpt>
      <trkpt lat="42.5654267706" lon="19.9252903182">
        <ele>1330.60</ele>
        <time>2019-07-04T09:52:33Z</time>
      </trkpt>
      <trkpt lat="42.5654114317" lon="19.9252277892">
        <ele>1331.08</ele>
        <time>2019-07-04T09:53:12Z</time>
      </trkpt>
      <trkpt lat="42.5654367451" lon="19.9252663460">
        <ele>1331.08</ele>
        <time>2019-07-04T09:53:44Z</time>
      </trkpt>
      <trkpt lat="42.5655220728" lon="19.9252532702">
        <ele>1332.52</ele>
        <time>2019-07-04T09:54:00Z</time>
      </trkpt>
      <trkpt lat="42.5655083265" lon="19.9251505919">
        <ele>1332.52</ele>
        <time>2019-07-04T09:54:25Z</time>
      </trkpt>
      <trkpt lat="42.5654335599" lon="19.9251198303">
        <ele>1333.01</ele>
        <time>2019-07-04T09:54:43Z</time>
      </trkpt>
      <trkpt lat="42.5653437059" lon="19.9250528589">
        <ele>1333.49</ele>
        <time>2019-07-04T09:54:55Z</time>
      </trkpt>
      <trkpt lat="42.5653359946" lon="19.9250525236">
        <ele>1333.49</ele>
        <time>2019-07-04T09:54:56Z</time>
      </trkpt>
      <trkpt lat="42.5651860423" lon="19.9251462333">
        <ele>1334.45</ele>
        <time>2019-07-04T09:55:11Z</time>
      </trkpt>
      <trkpt lat="42.5650329050" lon="19.9251826946">
        <ele>1336.37</ele>
        <time>2019-07-04T09:55:24Z</time>
      </trkpt>
      <trkpt lat="42.5648871437" lon="19.9251861311">
        <ele>1337.33</ele>
        <time>2019-07-04T09:55:38Z</time>
      </trkpt>
      <trkpt lat="42.5647600740" lon="19.9252315611">
        <ele>1339.25</ele>
        <time>2019-07-04T09:55:52Z</time>
      </trkpt>
      <trkpt lat="42.5645901728" lon="19.9252420384">
        <ele>1340.70</ele>
        <time>2019-07-04T09:56:07Z</time>
      </trkpt>
      <trkpt lat="42.5644785259" lon="19.9252715427">
        <ele>1341.66</ele>
        <time>2019-07-04T09:56:18Z</time>
      </trkpt>
      <trkpt lat="42.5644023344" lon="19.9253173918">
        <ele>1342.62</ele>
        <time>2019-07-04T09:56:23Z</time>
      </trkpt>
      <trkpt lat="42.5642421562" lon="19.9253736343">
        <ele>1343.58</ele>
        <time>2019-07-04T09:56:37Z</time>
      </trkpt>
      <trkpt lat="42.5640719198" lon="19.9253773224">
        <ele>1345.50</ele>
        <time>2019-07-04T09:56:52Z</time>
      </trkpt>
      <trkpt lat="42.5639152620" lon="19.9253438786">
        <ele>1346.94</ele>
        <time>2019-07-04T09:57:06Z</time>
      </trkpt>
      <trkpt lat="42.5637750328" lon="19.9253270309">
        <ele>1348.39</ele>
        <time>2019-07-04T09:57:19Z</time>
      </trkpt>
      <trkpt lat="42.5636390783" lon="19.9253376760">
        <ele>1350.31</ele>
        <time>2019-07-04T09:57:32Z</time>
      </trkpt>
      <trkpt lat="42.5634287763" lon="19.9253028072">
        <ele>1351.27</ele>
        <time>2019-07-04T09:57:47Z</time>
      </trkpt>
      <trkpt lat="42.5632977672" lon="19.9253029749">
        <ele>1353.19</ele>
        <time>2019-07-04T09:58:00Z</time>
      </trkpt>
      <trkpt lat="42.5631634053" lon="19.9252958503">
        <ele>1354.63</ele>
        <time>2019-07-04T09:58:13Z</time>
      </trkpt>
      <trkpt lat="42.5629794225" lon="19.9253670126">
        <ele>1356.08</ele>
        <time>2019-07-04T09:58:28Z</time>
      </trkpt>
      <trkpt lat="42.5629583839" lon="19.9253738858">
        <ele>1356.56</ele>
        <time>2019-07-04T09:58:30Z</time>
      </trkpt>
      <trkpt lat="42.5628083479" lon="19.9253996182">
        <ele>1357.04</ele>
        <time>2019-07-04T09:58:42Z</time>
      </trkpt>
      <trkpt lat="42.5626477506" lon="19.9254190642">
        <ele>1358.48</ele>
        <time>2019-07-04T09:58:56Z</time>
      </trkpt>
      <trkpt lat="42.5625142269" lon="19.9253421184">
        <ele>1359.92</ele>
        <time>2019-07-04T09:59:10Z</time>
      </trkpt>
      <trkpt lat="42.5624742452" lon="19.9253080040">
        <ele>1360.40</ele>
        <time>2019-07-04T09:59:15Z</time>
      </trkpt>
      <trkpt lat="42.5624593254" lon="19.9252906535">
        <ele>1360.40</ele>
        <time>2019-07-04T09:59:17Z</time>
      </trkpt>
      <trkpt lat="42.5623678789" lon="19.9252160545">
        <ele>1361.84</ele>
        <time>2019-07-04T09:59:28Z</time>
      </trkpt>
      <trkpt lat="42.5621596724" lon="19.9251476582">
        <ele>1363.77</ele>
        <time>2019-07-04T09:59:45Z</time>
      </trkpt>
      <trkpt lat="42.5620399788" lon="19.9250536133">
        <ele>1364.73</ele>
        <time>2019-07-04T09:59:58Z</time>
      </trkpt>
      <trkpt lat="42.5620310102" lon="19.9250453990">
        <ele>1365.21</ele>
        <time>2019-07-04T09:59:59Z</time>
      </trkpt>
      <trkpt lat="42.5619699899" lon="19.9249764998">
        <ele>1365.69</ele>
        <time>2019-07-04T10:00:07Z</time>
      </trkpt>
      <trkpt lat="42.5619484484" lon="19.9249615800">
        <ele>1366.17</ele>
        <time>2019-07-04T10:00:09Z</time>
      </trkpt>
      <trkpt lat="42.5619032700" lon="19.9248486757">
        <ele>1367.61</ele>
        <time>2019-07-04T10:00:19Z</time>
      </trkpt>
      <trkpt lat="42.5618124101" lon="19.9246837199">
        <ele>1369.05</ele>
        <time>2019-07-04T10:00:32Z</time>
      </trkpt>
      <trkpt lat="42.5616881903" lon="19.9245438259">
        <ele>1369.05</ele>
        <time>2019-07-04T10:00:46Z</time>
      </trkpt>
      <trkpt lat="42.5615627971" lon="19.9243842345">
        <ele>1370.02</ele>
        <time>2019-07-04T10:01:01Z</time>
      </trkpt>
      <trkpt lat="42.5615149364" lon="19.9242875073">
        <ele>1370.50</ele>
        <time>2019-07-04T10:01:09Z</time>
      </trkpt>
      <trkpt lat="42.5614661537" lon="19.9242140818">
        <ele>1370.98</ele>
        <time>2019-07-04T10:01:16Z</time>
      </trkpt>
      <trkpt lat="42.5613633916" lon="19.9241033569">
        <ele>1373.38</ele>
        <time>2019-07-04T10:01:31Z</time>
      </trkpt>
      <trkpt lat="42.5612213183" lon="19.9240889400">
        <ele>1374.34</ele>
        <time>2019-07-04T10:01:43Z</time>
      </trkpt>
      <trkpt lat="42.5611841865" lon="19.9240768701">
        <ele>1374.82</ele>
        <time>2019-07-04T10:01:46Z</time>
      </trkpt>
      <trkpt lat="42.5610153750" lon="19.9240664765">
        <ele>1376.26</ele>
        <time>2019-07-04T10:01:59Z</time>
      </trkpt>
      <trkpt lat="42.5609548576" lon="19.9240295961">
        <ele>1377.23</ele>
        <time>2019-07-04T10:02:06Z</time>
      </trkpt>
      <trkpt lat="42.5609098468" lon="19.9240197893">
        <ele>1377.23</ele>
        <time>2019-07-04T10:02:09Z</time>
      </trkpt>
      <trkpt lat="42.5608510897" lon="19.9239615351">
        <ele>1378.19</ele>
        <time>2019-07-04T10:02:16Z</time>
      </trkpt>
      <trkpt lat="42.5607600622" lon="19.9238215573">
        <ele>1380.11</ele>
        <time>2019-07-04T10:02:29Z</time>
      </trkpt>
      <trkpt lat="42.5607375987" lon="19.9237524904">
        <ele>1380.59</ele>
        <time>2019-07-04T10:02:34Z</time>
      </trkpt>
      <trkpt lat="42.5607192423" lon="19.9236685038">
        <ele>1381.55</ele>
        <time>2019-07-04T10:02:39Z</time>
      </trkpt>
      <trkpt lat="42.5606661849" lon="19.9234688468">
        <ele>1382.03</ele>
        <time>2019-07-04T10:02:50Z</time>
      </trkpt>
      <trkpt lat="42.5606173184" lon="19.9232762307">
        <ele>1382.51</ele>
        <time>2019-07-04T10:03:03Z</time>
      </trkpt>
      <trkpt lat="42.5605991296" lon="19.9232365843">
        <ele>1382.51</ele>
        <time>2019-07-04T10:03:06Z</time>
      </trkpt>
      <trkpt lat="42.5604898296" lon="19.9230599776">
        <ele>1383.96</ele>
        <time>2019-07-04T10:03:21Z</time>
      </trkpt>
      <trkpt lat="42.5604290608" lon="19.9230566248">
        <ele>1384.44</ele>
        <time>2019-07-04T10:03:26Z</time>
      </trkpt>
      <trkpt lat="42.5601664558" lon="19.9230672698">
        <ele>1385.88</ele>
        <time>2019-07-04T10:03:42Z</time>
      </trkpt>
      <trkpt lat="42.5600779429" lon="19.9230085965">
        <ele>1386.84</ele>
        <time>2019-07-04T10:03:50Z</time>
      </trkpt>
      <trkpt lat="42.5599515438" lon="19.9228631705">
        <ele>1387.80</ele>
        <time>2019-07-04T10:04:05Z</time>
      </trkpt>
      <trkpt lat="42.5599293318" lon="19.9228311516">
        <ele>1388.28</ele>
        <time>2019-07-04T10:04:08Z</time>
      </trkpt>
      <trkpt lat="42.5598847400" lon="19.9228095263">
        <ele>1389.24</ele>
        <time>2019-07-04T10:04:13Z</time>
      </trkpt>
      <trkpt lat="42.5597507972" lon="19.9226651900">
        <ele>1390.68</ele>
        <time>2019-07-04T10:04:28Z</time>
      </trkpt>
      <trkpt lat="42.5596293435" lon="19.9226657767">
        <ele>1392.13</ele>
        <time>2019-07-04T10:04:39Z</time>
      </trkpt>
      <trkpt lat="42.5594890304" lon="19.9227084406">
        <ele>1392.13</ele>
        <time>2019-07-04T10:04:49Z</time>
      </trkpt>
      <trkpt lat="42.5593480468" lon="19.9226753321">
        <ele>1392.61</ele>
        <time>2019-07-04T10:05:00Z</time>
      </trkpt>
      <trkpt lat="42.5591980107" lon="19.9225824606">
        <ele>1393.09</ele>
        <time>2019-07-04T10:05:13Z</time>
      </trkpt>
      <trkpt lat="42.5590692647" lon="19.9225335103">
        <ele>1394.53</ele>
        <time>2019-07-04T10:05:27Z</time>
      </trkpt>
      <trkpt lat="42.5589110143" lon="19.9225423951">
        <ele>1396.93</ele>
        <time>2019-07-04T10:05:40Z</time>
      </trkpt>
      <trkpt lat="42.5587769039" lon="19.9225338455">
        <ele>1398.37</ele>
        <time>2019-07-04T10:05:53Z</time>
      </trkpt>
      <trkpt lat="42.5586630777" lon="19.9225373659">
        <ele>1399.34</ele>
        <time>2019-07-04T10:06:00Z</time>
      </trkpt>
      <trkpt lat="42.5584990438" lon="19.9225314986">
        <ele>1400.30</ele>
        <time>2019-07-04T10:06:15Z</time>
      </trkpt>
      <trkpt lat="42.5583235268" lon="19.9225189257">
        <ele>1401.74</ele>
        <time>2019-07-04T10:06:29Z</time>
      </trkpt>
      <trkpt lat="42.5581504405" lon="19.9225214403">
        <ele>1402.22</ele>
        <time>2019-07-04T10:06:42Z</time>
      </trkpt>
      <trkpt lat="42.5580210239" lon="19.9225836340">
        <ele>1404.14</ele>
        <time>2019-07-04T10:06:57Z</time>
      </trkpt>
      <trkpt lat="42.5578771066" lon="19.9226729013">
        <ele>1405.58</ele>
        <time>2019-07-04T10:07:11Z</time>
      </trkpt>
      <trkpt lat="42.5577543117" lon="19.9226898327">
        <ele>1407.51</ele>
        <time>2019-07-04T10:07:22Z</time>
      </trkpt>
      <trkpt lat="42.5576474424" lon="19.9226563890">
        <ele>1408.47</ele>
        <time>2019-07-04T10:07:33Z</time>
      </trkpt>
      <trkpt lat="42.5574642140" lon="19.9226279743">
        <ele>1410.87</ele>
        <time>2019-07-04T10:07:49Z</time>
      </trkpt>
      <trkpt lat="42.5573888607" lon="19.9226558860">
        <ele>1411.35</ele>
        <time>2019-07-04T10:07:56Z</time>
      </trkpt>
      <trkpt lat="42.5573393237" lon="19.9226351827">
        <ele>1411.83</ele>
        <time>2019-07-04T10:08:00Z</time>
      </trkpt>
      <trkpt lat="42.5572874397" lon="19.9225890823">
        <ele>1412.31</ele>
        <time>2019-07-04T10:08:05Z</time>
      </trkpt>
      <trkpt lat="42.5571900420" lon="19.9224390462">
        <ele>1412.31</ele>
        <time>2019-07-04T10:08:17Z</time>
      </trkpt>
      <trkpt lat="42.5570180453" lon="19.9224006571">
        <ele>1412.31</ele>
        <time>2019-07-04T10:08:30Z</time>
      </trkpt>
      <trkpt lat="42.5568981841" lon="19.9224120565">
        <ele>1413.76</ele>
        <time>2019-07-04T10:08:42Z</time>
      </trkpt>
      <trkpt lat="42.5568784866" lon="19.9224288203">
        <ele>1413.76</ele>
        <time>2019-07-04T10:08:44Z</time>
      </trkpt>
      <trkpt lat="42.5568547659" lon="19.9224426504">
        <ele>1414.24</ele>
        <time>2019-07-04T10:08:46Z</time>
      </trkpt>
      <trkpt lat="42.5567135308" lon="19.9225026648">
        <ele>1416.16</ele>
        <time>2019-07-04T10:09:00Z</time>
      </trkpt>
      <trkpt lat="42.5566874631" lon="19.9224989768">
        <ele>1416.16</ele>
        <time>2019-07-04T10:09:02Z</time>
      </trkpt>
      <trkpt lat="42.5566372555" lon="19.9224891700">
        <ele>1417.12</ele>
        <time>2019-07-04T10:09:05Z</time>
      </trkpt>
      <trkpt lat="42.5566001236" lon="19.9224371184">
        <ele>1417.60</ele>
        <time>2019-07-04T10:09:11Z</time>
      </trkpt>
      <trkpt lat="42.5566673465" lon="19.9223303329">
        <ele>1419.04</ele>
        <time>2019-07-04T10:09:24Z</time>
      </trkpt>
      <trkpt lat="42.5567028020" lon="19.9223031756">
        <ele>1420.00</ele>
        <time>2019-07-04T10:09:29Z</time>
      </trkpt>
      <trkpt lat="42.5567353237" lon="19.9222620204">
        <ele>1420.97</ele>
        <time>2019-07-04T10:09:34Z</time>
      </trkpt>
      <trkpt lat="42.5567971822" lon="19.9221738428">
        <ele>1421.45</ele>
        <time>2019-07-04T10:09:42Z</time>
      </trkpt>
      <trkpt lat="42.5569700170" lon="19.9220712483">
        <ele>1422.89</ele>
        <time>2019-07-04T10:09:57Z</time>
      </trkpt>
      <trkpt lat="42.5570575241" lon="19.9220237229">
        <ele>1423.37</ele>
        <time>2019-07-04T10:10:06Z</time>
      </trkpt>
      <trkpt lat="42.5572116673" lon="19.9219363835">
        <ele>1424.33</ele>
        <time>2019-07-04T10:10:19Z</time>
      </trkpt>
      <trkpt lat="42.5573682413" lon="19.9218725134">
        <ele>1426.25</ele>
        <time>2019-07-04T10:10:34Z</time>
      </trkpt>
      <trkpt lat="42.5574977417" lon="19.9217716791">
        <ele>1427.21</ele>
        <time>2019-07-04T10:10:47Z</time>
      </trkpt>
      <trkpt lat="42.5576678943" lon="19.9217007682">
        <ele>1428.18</ele>
        <time>2019-07-04T10:11:00Z</time>
      </trkpt>
      <trkpt lat="42.5577218737" lon="19.9217066355">
        <ele>1429.14</ele>
        <time>2019-07-04T10:11:05Z</time>
      </trkpt>
      <trkpt lat="42.5577420741" lon="19.9217068870">
        <ele>1429.14</ele>
        <time>2019-07-04T10:11:07Z</time>
      </trkpt>
      <trkpt lat="42.5577807985" lon="19.9217124190">
        <ele>1429.62</ele>
        <time>2019-07-04T10:11:11Z</time>
      </trkpt>
      <trkpt lat="42.5578061957" lon="19.9217187054">
        <ele>1429.62</ele>
        <time>2019-07-04T10:11:13Z</time>
      </trkpt>
      <trkpt lat="42.5578587502" lon="19.9217119999">
        <ele>1430.58</ele>
        <time>2019-07-04T10:11:18Z</time>
      </trkpt>
      <trkpt lat="42.5578984804" lon="19.9216949847">
        <ele>1430.58</ele>
        <time>2019-07-04T10:11:21Z</time>
      </trkpt>
      <trkpt lat="42.5580325071" lon="19.9215856846">
        <ele>1432.02</ele>
        <time>2019-07-04T10:11:34Z</time>
      </trkpt>
      <trkpt lat="42.5580491032" lon="19.9215761293">
        <ele>1432.02</ele>
        <time>2019-07-04T10:11:36Z</time>
      </trkpt>
      <trkpt lat="42.5580750871" lon="19.9215616286">
        <ele>1432.02</ele>
        <time>2019-07-04T10:11:38Z</time>
      </trkpt>
      <trkpt lat="42.5582200103" lon="19.9214530829">
        <ele>1432.98</ele>
        <time>2019-07-04T10:11:52Z</time>
      </trkpt>
      <trkpt lat="42.5583656877" lon="19.9214757141">
        <ele>1433.94</ele>
        <time>2019-07-04T10:12:06Z</time>
      </trkpt>
      <trkpt lat="42.5585096888" lon="19.9214991834">
        <ele>1435.87</ele>
        <time>2019-07-04T10:12:21Z</time>
      </trkpt>
      <trkpt lat="42.5586511753" lon="19.9215181265">
        <ele>1437.31</ele>
        <time>2019-07-04T10:12:33Z</time>
      </trkpt>
      <trkpt lat="42.5587603077" lon="19.9215294421">
        <ele>1439.71</ele>
        <time>2019-07-04T10:12:47Z</time>
      </trkpt>
      <trkpt lat="42.5588972680" lon="19.9214970041">
        <ele>1441.15</ele>
        <time>2019-07-04T10:12:59Z</time>
      </trkpt>
      <trkpt lat="42.5590665825" lon="19.9214019533">
        <ele>1442.60</ele>
        <time>2019-07-04T10:13:12Z</time>
      </trkpt>
      <trkpt lat="42.5591675844" lon="19.9213687610">
        <ele>1442.60</ele>
        <time>2019-07-04T10:13:20Z</time>
      </trkpt>
      <trkpt lat="42.5592426024" lon="19.9213464651">
        <ele>1443.56</ele>
        <time>2019-07-04T10:13:29Z</time>
      </trkpt>
      <trkpt lat="42.5593950693" lon="19.9213450402">
        <ele>1445.00</ele>
        <time>2019-07-04T10:13:42Z</time>
      </trkpt>
      <trkpt lat="42.5594038703" lon="19.9213498179">
        <ele>1445.00</ele>
        <time>2019-07-04T10:13:43Z</time>
      </trkpt>
      <trkpt lat="42.5594254117" lon="19.9213561043">
        <ele>1445.48</ele>
        <time>2019-07-04T10:13:45Z</time>
      </trkpt>
      <trkpt lat="42.5595853385" lon="19.9214026239">
        <ele>1446.92</ele>
        <time>2019-07-04T10:13:57Z</time>
      </trkpt>
      <trkpt lat="42.5597406551" lon="19.9213452917">
        <ele>1448.36</ele>
        <time>2019-07-04T10:14:11Z</time>
      </trkpt>
      <trkpt lat="42.5598559063" lon="19.9212807510">
        <ele>1449.32</ele>
        <time>2019-07-04T10:14:20Z</time>
      </trkpt>
      <trkpt lat="42.5600265618" lon="19.9212516658">
        <ele>1451.25</ele>
        <time>2019-07-04T10:14:34Z</time>
      </trkpt>
      <trkpt lat="42.5601557270" lon="19.9212492350">
        <ele>1453.17</ele>
        <time>2019-07-04T10:14:48Z</time>
      </trkpt>
      <trkpt lat="42.5603236165" lon="19.9212429486">
        <ele>1454.13</ele>
        <time>2019-07-04T10:15:00Z</time>
      </trkpt>
      <trkpt lat="42.5604386162" lon="19.9212232511">
        <ele>1454.61</ele>
        <time>2019-07-04T10:15:10Z</time>
      </trkpt>
      <trkpt lat="42.5605723076" lon="19.9210931640">
        <ele>1455.09</ele>
        <time>2019-07-04T10:15:21Z</time>
      </trkpt>
      <trkpt lat="42.5607068371" lon="19.9210318923">
        <ele>1456.05</ele>
        <time>2019-07-04T10:15:34Z</time>
      </trkpt>
      <trkpt lat="42.5608244352" lon="19.9209957663">
        <ele>1457.98</ele>
        <time>2019-07-04T10:15:45Z</time>
      </trkpt>
      <trkpt lat="42.5609755609" lon="19.9209153838">
        <ele>1458.94</ele>
        <time>2019-07-04T10:15:58Z</time>
      </trkpt>
      <trkpt lat="42.5610344019" lon="19.9208670203">
        <ele>1459.42</ele>
        <time>2019-07-04T10:16:02Z</time>
      </trkpt>
      <trkpt lat="42.5612022076" lon="19.9207789265">
        <ele>1460.86</ele>
        <time>2019-07-04T10:16:17Z</time>
      </trkpt>
      <trkpt lat="42.5613849331" lon="19.9206334166">
        <ele>1462.30</ele>
        <time>2019-07-04T10:16:32Z</time>
      </trkpt>
      <trkpt lat="42.5613501482" lon="19.9205445684">
        <ele>1463.74</ele>
        <time>2019-07-04T10:16:40Z</time>
      </trkpt>
      <trkpt lat="42.5611942448" lon="19.9204394594">
        <ele>1465.67</ele>
        <time>2019-07-04T10:16:56Z</time>
      </trkpt>
      <trkpt lat="42.5610919017" lon="19.9203720689">
        <ele>1467.59</ele>
        <time>2019-07-04T10:17:07Z</time>
      </trkpt>
      <trkpt lat="42.5609297119" lon="19.9203378707">
        <ele>1468.55</ele>
        <time>2019-07-04T10:17:22Z</time>
      </trkpt>
      <trkpt lat="42.5607983675" lon="19.9202942010">
        <ele>1470.47</ele>
        <time>2019-07-04T10:17:35Z</time>
      </trkpt>
      <trkpt lat="42.5606909953" lon="19.9202756770">
        <ele>1471.92</ele>
        <time>2019-07-04T10:17:47Z</time>
      </trkpt>
      <trkpt lat="42.5606786739" lon="19.9202779401">
        <ele>1472.40</ele>
        <time>2019-07-04T10:17:48Z</time>
      </trkpt>
      <trkpt lat="42.5605168194" lon="19.9202781077">
        <ele>1473.36</ele>
        <time>2019-07-04T10:18:02Z</time>
      </trkpt>
      <trkpt lat="42.5604891591" lon="19.9202754255">
        <ele>1473.84</ele>
        <time>2019-07-04T10:18:05Z</time>
      </trkpt>
      <trkpt lat="42.5603968743" lon="19.9202423170">
        <ele>1474.80</ele>
        <time>2019-07-04T10:18:13Z</time>
      </trkpt>
      <trkpt lat="42.5603673700" lon="19.9202268105">
        <ele>1475.28</ele>
        <time>2019-07-04T10:18:17Z</time>
      </trkpt>
      <trkpt lat="42.5602434855" lon="19.9202050176">
        <ele>1476.72</ele>
        <time>2019-07-04T10:18:29Z</time>
      </trkpt>
      <trkpt lat="42.5602206029" lon="19.9201936182">
        <ele>1476.72</ele>
        <time>2019-07-04T10:18:31Z</time>
      </trkpt>
      <trkpt lat="42.5600717403" lon="19.9201719929">
        <ele>1478.65</ele>
        <time>2019-07-04T10:18:44Z</time>
      </trkpt>
      <trkpt lat="42.5599034317" lon="19.9201772735">
        <ele>1481.05</ele>
        <time>2019-07-04T10:19:00Z</time>
      </trkpt>
      <trkpt lat="42.5598795433" lon="19.9201769382">
        <ele>1481.53</ele>
        <time>2019-07-04T10:19:03Z</time>
      </trkpt>
      <trkpt lat="42.5598590914" lon="19.9201793689">
        <ele>1482.49</ele>
        <time>2019-07-04T10:19:05Z</time>
      </trkpt>
      <trkpt lat="42.5598201994" lon="19.9201881699">
        <ele>1482.49</ele>
        <time>2019-07-04T10:19:08Z</time>
      </trkpt>
      <trkpt lat="42.5597938802" lon="19.9201994017">
        <ele>1482.49</ele>
        <time>2019-07-04T10:19:10Z</time>
      </trkpt>
      <trkpt lat="42.5597298425" lon="19.9202250503">
        <ele>1482.97</ele>
        <time>2019-07-04T10:19:16Z</time>
      </trkpt>
      <trkpt lat="42.5596500468" lon="19.9202440772">
        <ele>1483.45</ele>
        <time>2019-07-04T10:19:24Z</time>
      </trkpt>
      <trkpt lat="42.5596078858" lon="19.9202432390">
        <ele>1484.41</ele>
        <time>2019-07-04T10:19:28Z</time>
      </trkpt>
      <trkpt lat="42.5595124159" lon="19.9202511180">
        <ele>1484.41</ele>
        <time>2019-07-04T10:19:35Z</time>
      </trkpt>
      <trkpt lat="42.5593734439" lon="19.9202517048">
        <ele>1484.89</ele>
        <time>2019-07-04T10:19:49Z</time>
      </trkpt>
      <trkpt lat="42.5592787284" lon="19.9202336837">
        <ele>1485.37</ele>
        <time>2019-07-04T10:19:56Z</time>
      </trkpt>
      <trkpt lat="42.5592368189" lon="19.9201523792">
        <ele>1485.37</ele>
        <time>2019-07-04T10:20:02Z</time>
      </trkpt>
      <trkpt lat="42.5591870304" lon="19.9201237969">
        <ele>1485.37</ele>
        <time>2019-07-04T10:20:06Z</time>
      </trkpt>
      <trkpt lat="42.5590372458" lon="19.9200582504">
        <ele>1485.37</ele>
        <time>2019-07-04T10:20:20Z</time>
      </trkpt>
      <trkpt lat="42.5588923227" lon="19.9199989904">
        <ele>1486.34</ele>
        <time>2019-07-04T10:20:33Z</time>
      </trkpt>
      <trkpt lat="42.5587337371" lon="19.9199481960">
        <ele>1488.26</ele>
        <time>2019-07-04T10:20:47Z</time>
      </trkpt>
      <trkpt lat="42.5586802606" lon="19.9199275766">
        <ele>1488.26</ele>
        <time>2019-07-04T10:20:51Z</time>
      </trkpt>
      <trkpt lat="42.5586323999" lon="19.9199015088">
        <ele>1486.82</ele>
        <time>2019-07-04T10:20:55Z</time>
      </trkpt>
      <trkpt lat="42.5584621634" lon="19.9198314361">
        <ele>1484.89</ele>
        <time>2019-07-04T10:21:08Z</time>
      </trkpt>
      <trkpt lat="42.5583578087" lon="19.9197629560">
        <ele>1484.41</ele>
        <time>2019-07-04T10:21:18Z</time>
      </trkpt>
      <trkpt lat="42.5582006481" lon="19.9196134228">
        <ele>1484.41</ele>
        <time>2019-07-04T10:21:31Z</time>
      </trkpt>
      <trkpt lat="42.5581588224" lon="19.9195441883">
        <ele>1485.85</ele>
        <time>2019-07-04T10:21:37Z</time>
      </trkpt>
      <trkpt lat="42.5580850616" lon="19.9194087368">
        <ele>1487.30</ele>
        <time>2019-07-04T10:21:49Z</time>
      </trkpt>
      <trkpt lat="42.5580594968" lon="19.9193753768">
        <ele>1488.26</ele>
        <time>2019-07-04T10:21:53Z</time>
      </trkpt>
      <trkpt lat="42.5580185931" lon="19.9193304498">
        <ele>1488.74</ele>
        <time>2019-07-04T10:21:59Z</time>
      </trkpt>
      <trkpt lat="42.5579715706" lon="19.9192723632">
        <ele>1489.70</ele>
        <time>2019-07-04T10:22:05Z</time>
      </trkpt>
      <trkpt lat="42.5578761846" lon="19.9191323016">
        <ele>1491.14</ele>
        <time>2019-07-04T10:22:17Z</time>
      </trkpt>
      <trkpt lat="42.5578102190" lon="19.9190567806">
        <ele>1492.10</ele>
        <time>2019-07-04T10:22:25Z</time>
      </trkpt>
      <trkpt lat="42.5577612687" lon="19.9190018792">
        <ele>1492.58</ele>
        <time>2019-07-04T10:22:31Z</time>
      </trkpt>
      <trkpt lat="42.5577233825" lon="19.9189928267">
        <ele>1493.06</ele>
        <time>2019-07-04T10:22:35Z</time>
      </trkpt>
      <trkpt lat="42.5575927086" lon="19.9188593030">
        <ele>1493.06</ele>
        <time>2019-07-04T10:22:47Z</time>
      </trkpt>
      <trkpt lat="42.5574813131" lon="19.9187432136">
        <ele>1494.51</ele>
        <time>2019-07-04T10:23:00Z</time>
      </trkpt>
      <trkpt lat="42.5573930517" lon="19.9186512642">
        <ele>1495.95</ele>
        <time>2019-07-04T10:23:11Z</time>
      </trkpt>
      <trkpt lat="42.5572804827" lon="19.9185021501">
        <ele>1496.91</ele>
        <time>2019-07-04T10:23:25Z</time>
      </trkpt>
      <trkpt lat="42.5572089013" lon="19.9183741584">
        <ele>1497.87</ele>
        <time>2019-07-04T10:23:36Z</time>
      </trkpt>
      <trkpt lat="42.5571917184" lon="19.9183268007">
        <ele>1498.35</ele>
        <time>2019-07-04T10:23:40Z</time>
      </trkpt>
      <trkpt lat="42.5571799837" lon="19.9183060136">
        <ele>1498.83</ele>
        <time>2019-07-04T10:23:42Z</time>
      </trkpt>
      <trkpt lat="42.5571722724" lon="19.9182713125">
        <ele>1499.31</ele>
        <time>2019-07-04T10:23:45Z</time>
      </trkpt>
      <trkpt lat="42.5571203046" lon="19.9181744177">
        <ele>1500.27</ele>
        <time>2019-07-04T10:23:53Z</time>
      </trkpt>
      <trkpt lat="42.5570407603" lon="19.9180535506">
        <ele>1501.72</ele>
        <time>2019-07-04T10:24:05Z</time>
      </trkpt>
      <trkpt lat="42.5569592882" lon="19.9178747647">
        <ele>1504.12</ele>
        <time>2019-07-04T10:24:20Z</time>
      </trkpt>
      <trkpt lat="42.5568917301" lon="19.9177386425">
        <ele>1505.08</ele>
        <time>2019-07-04T10:24:34Z</time>
      </trkpt>
      <trkpt lat="42.5568649080" lon="19.9176316056">
        <ele>1506.04</ele>
        <time>2019-07-04T10:24:43Z</time>
      </trkpt>
      <trkpt lat="42.5568048935" lon="19.9174240697">
        <ele>1507.00</ele>
        <time>2019-07-04T10:24:57Z</time>
      </trkpt>
      <trkpt lat="42.5567685999" lon="19.9173767120">
        <ele>1507.48</ele>
        <time>2019-07-04T10:25:02Z</time>
      </trkpt>
      <trkpt lat="42.5567261875" lon="19.9173240736">
        <ele>1507.97</ele>
        <time>2019-07-04T10:25:07Z</time>
      </trkpt>
      <trkpt lat="42.5567157101" lon="19.9172996823">
        <ele>1508.45</ele>
        <time>2019-07-04T10:25:09Z</time>
      </trkpt>
      <trkpt lat="42.5566589646" lon="19.9171144422">
        <ele>1510.37</ele>
        <time>2019-07-04T10:25:24Z</time>
      </trkpt>
      <trkpt lat="42.5566049851" lon="19.9169740453">
        <ele>1512.29</ele>
        <time>2019-07-04T10:25:36Z</time>
      </trkpt>
      <trkpt lat="42.5565443002" lon="19.9168145377">
        <ele>1512.77</ele>
        <time>2019-07-04T10:25:48Z</time>
      </trkpt>
      <trkpt lat="42.5565388519" lon="19.9168008752">
        <ele>1513.25</ele>
        <time>2019-07-04T10:25:49Z</time>
      </trkpt>
      <trkpt lat="42.5564842857" lon="19.9166085105">
        <ele>1514.21</ele>
        <time>2019-07-04T10:26:02Z</time>
      </trkpt>
      <trkpt lat="42.5564199127" lon="19.9164231028">
        <ele>1515.18</ele>
        <time>2019-07-04T10:26:16Z</time>
      </trkpt>
      <trkpt lat="42.5564100221" lon="19.9163968675">
        <ele>1515.66</ele>
        <time>2019-07-04T10:26:18Z</time>
      </trkpt>
      <trkpt lat="42.5563409552" lon="19.9161946960">
        <ele>1516.62</ele>
        <time>2019-07-04T10:26:33Z</time>
      </trkpt>
      <trkpt lat="42.5562743191" lon="19.9160255492">
        <ele>1518.06</ele>
        <time>2019-07-04T10:26:46Z</time>
      </trkpt>
      <trkpt lat="42.5562697090" lon="19.9160140660">
        <ele>1518.54</ele>
        <time>2019-07-04T10:26:47Z</time>
      </trkpt>
      <trkpt lat="42.5562363490" lon="19.9159507826">
        <ele>1519.02</ele>
        <time>2019-07-04T10:26:52Z</time>
      </trkpt>
      <trkpt lat="42.5562267099" lon="19.9159247149">
        <ele>1519.02</ele>
        <time>2019-07-04T10:26:54Z</time>
      </trkpt>
      <trkpt lat="42.5562112872" lon="19.9158584978">
        <ele>1519.50</ele>
        <time>2019-07-04T10:26:58Z</time>
      </trkpt>
      <trkpt lat="42.5561427232" lon="19.9156205356">
        <ele>1519.50</ele>
        <time>2019-07-04T10:27:12Z</time>
      </trkpt>
      <trkpt lat="42.5561336707" lon="19.9156095553">
        <ele>1519.50</ele>
        <time>2019-07-04T10:27:14Z</time>
      </trkpt>
      <trkpt lat="42.5560498517" lon="19.9154415820">
        <ele>1519.50</ele>
        <time>2019-07-04T10:27:26Z</time>
      </trkpt>
      <trkpt lat="42.5560612511" lon="19.9152964074">
        <ele>1518.54</ele>
        <time>2019-07-04T10:27:33Z</time>
      </trkpt>
      <trkpt lat="42.5560855586" lon="19.9151512329">
        <ele>1517.58</ele>
        <time>2019-07-04T10:27:43Z</time>
      </trkpt>
      <trkpt lat="42.5560852233" lon="19.9151350558">
        <ele>1517.58</ele>
        <time>2019-07-04T10:27:44Z</time>
      </trkpt>
      <trkpt lat="42.5560958683" lon="19.9150467105">
        <ele>1517.10</ele>
        <time>2019-07-04T10:27:50Z</time>
      </trkpt>
      <trkpt lat="42.5560532883" lon="19.9146770686">
        <ele>1515.18</ele>
        <time>2019-07-04T10:28:06Z</time>
      </trkpt>
      <trkpt lat="42.5560457446" lon="19.9146360811">
        <ele>1514.69</ele>
        <time>2019-07-04T10:28:08Z</time>
      </trkpt>
      <trkpt lat="42.5559558906" lon="19.9144028127">
        <ele>1514.21</ele>
        <time>2019-07-04T10:28:22Z</time>
      </trkpt>
      <trkpt lat="42.5558594149" lon="19.9142870586">
        <ele>1513.73</ele>
        <time>2019-07-04T10:28:35Z</time>
      </trkpt>
      <trkpt lat="42.5558474287" lon="19.9142709654">
        <ele>1513.73</ele>
        <time>2019-07-04T10:28:37Z</time>
      </trkpt>
      <trkpt lat="42.5558003224" lon="19.9142620806">
        <ele>1515.18</ele>
        <time>2019-07-04T10:28:42Z</time>
      </trkpt>
      <trkpt lat="42.5557729136" lon="19.9142284691">
        <ele>1515.66</ele>
        <time>2019-07-04T10:28:46Z</time>
      </trkpt>
      <trkpt lat="42.5557214487" lon="19.9142184108">
        <ele>1516.14</ele>
        <time>2019-07-04T10:28:51Z</time>
      </trkpt>
      <trkpt lat="42.5555998273" lon="19.9141517747">
        <ele>1517.58</ele>
        <time>2019-07-04T10:29:03Z</time>
      </trkpt>
      <trkpt lat="42.5555406511" lon="19.9141070992">
        <ele>1518.06</ele>
        <time>2019-07-04T10:29:09Z</time>
      </trkpt>
      <trkpt lat="42.5555065367" lon="19.9140743259">
        <ele>1518.54</ele>
        <time>2019-07-04T10:29:13Z</time>
      </trkpt>
      <trkpt lat="42.5554278307" lon="19.9140299857">
        <ele>1520.46</ele>
        <time>2019-07-04T10:29:24Z</time>
      </trkpt>
      <trkpt lat="42.5553626195" lon="19.9140245374">
        <ele>1522.39</ele>
        <time>2019-07-04T10:29:33Z</time>
      </trkpt>
      <trkpt lat="42.5552800577" lon="19.9137735832">
        <ele>1523.35</ele>
        <time>2019-07-04T10:29:45Z</time>
      </trkpt>
      <trkpt lat="42.5551672373" lon="19.9136773590">
        <ele>1525.75</ele>
        <time>2019-07-04T10:29:58Z</time>
      </trkpt>
      <trkpt lat="42.5551159400" lon="19.9136687256">
        <ele>1525.75</ele>
        <time>2019-07-04T10:30:02Z</time>
      </trkpt>
      <trkpt lat="42.5549971685" lon="19.9135730881">
        <ele>1528.63</ele>
        <time>2019-07-04T10:30:15Z</time>
      </trkpt>
      <trkpt lat="42.5548848510" lon="19.9135101400">
        <ele>1530.08</ele>
        <time>2019-07-04T10:30:27Z</time>
      </trkpt>
      <trkpt lat="42.5548410974" lon="19.9134518020">
        <ele>1530.56</ele>
        <time>2019-07-04T10:30:33Z</time>
      </trkpt>
      <trkpt lat="42.5547977630" lon="19.9134170171">
        <ele>1530.56</ele>
        <time>2019-07-04T10:30:37Z</time>
      </trkpt>
      <trkpt lat="42.5547611341" lon="19.9134176876">
        <ele>1531.04</ele>
        <time>2019-07-04T10:30:40Z</time>
      </trkpt>
      <trkpt lat="42.5546665024" lon="19.9133730121">
        <ele>1531.52</ele>
        <time>2019-07-04T10:30:49Z</time>
      </trkpt>
      <trkpt lat="42.5545623153" lon="19.9133212119">
        <ele>1532.48</ele>
        <time>2019-07-04T10:30:59Z</time>
      </trkpt>
      <trkpt lat="42.5544817653" lon="19.9132915400">
        <ele>1532.96</ele>
        <time>2019-07-04T10:31:09Z</time>
      </trkpt>
      <trkpt lat="42.5543971080" lon="19.9133093096">
        <ele>1533.44</ele>
        <time>2019-07-04T10:31:19Z</time>
      </trkpt>
      <trkpt lat="42.5543076731" lon="19.9133026041">
        <ele>1533.92</ele>
        <time>2019-07-04T10:31:27Z</time>
      </trkpt>
      <trkpt lat="42.5541612413" lon="19.9133461900">
        <ele>1535.36</ele>
        <time>2019-07-04T10:31:39Z</time>
      </trkpt>
      <trkpt lat="42.5540838763" lon="19.9133489560">
        <ele>1536.80</ele>
        <time>2019-07-04T10:31:49Z</time>
      </trkpt>
      <trkpt lat="42.5540541206" lon="19.9133562483">
        <ele>1537.29</ele>
        <time>2019-07-04T10:31:52Z</time>
      </trkpt>
      <trkpt lat="42.5539683737" lon="19.9133356288">
        <ele>1538.25</ele>
        <time>2019-07-04T10:32:00Z</time>
      </trkpt>
      <trkpt lat="42.5538509432" lon="19.9133264087">
        <ele>1538.73</ele>
        <time>2019-07-04T10:32:12Z</time>
      </trkpt>
      <trkpt lat="42.5537565630" lon="19.9132945575">
        <ele>1539.69</ele>
        <time>2019-07-04T10:32:22Z</time>
      </trkpt>
      <trkpt lat="42.5536673795" lon="19.9132528156">
        <ele>1541.13</ele>
        <time>2019-07-04T10:32:31Z</time>
      </trkpt>
      <trkpt lat="42.5536296610" lon="19.9132404104">
        <ele>1541.13</ele>
        <time>2019-07-04T10:32:35Z</time>
      </trkpt>
      <trkpt lat="42.5534992386" lon="19.9132223893">
        <ele>1542.57</ele>
        <time>2019-07-04T10:32:47Z</time>
      </trkpt>
      <trkpt lat="42.5534579996" lon="19.9132212996">
        <ele>1542.57</ele>
        <time>2019-07-04T10:32:50Z</time>
      </trkpt>
      <trkpt lat="42.5533028506" lon="19.9132289272">
        <ele>1544.98</ele>
        <time>2019-07-04T10:33:04Z</time>
      </trkpt>
      <trkpt lat="42.5532683171" lon="19.9132500496">
        <ele>1545.46</ele>
        <time>2019-07-04T10:33:10Z</time>
      </trkpt>
      <trkpt lat="42.5532498769" lon="19.9132570904">
        <ele>1545.94</ele>
        <time>2019-07-04T10:33:12Z</time>
      </trkpt>
      <trkpt lat="42.5531384815" lon="19.9132853374">
        <ele>1548.34</ele>
        <time>2019-07-04T10:33:25Z</time>
      </trkpt>
      <trkpt lat="42.5530244876" lon="19.9133033585">
        <ele>1549.78</ele>
        <time>2019-07-04T10:33:36Z</time>
      </trkpt>
      <trkpt lat="42.5529936422" lon="19.9133080523">
        <ele>1550.26</ele>
        <time>2019-07-04T10:33:38Z</time>
      </trkpt>
      <trkpt lat="42.5529335439" lon="19.9133177754">
        <ele>1550.74</ele>
        <time>2019-07-04T10:33:43Z</time>
      </trkpt>
      <trkpt lat="42.5528951548" lon="19.9133159313">
        <ele>1550.74</ele>
        <time>2019-07-04T10:33:46Z</time>
      </trkpt>
      <trkpt lat="42.5527544226" lon="19.9133420829">
        <ele>1552.19</ele>
        <time>2019-07-04T10:33:58Z</time>
      </trkpt>
      <trkpt lat="42.5527351443" lon="19.9133385625">
        <ele>1553.15</ele>
        <time>2019-07-04T10:34:00Z</time>
      </trkpt>
      <trkpt lat="42.5526125170" lon="19.9133237265">
        <ele>1554.59</ele>
        <time>2019-07-04T10:34:13Z</time>
      </trkpt>
      <trkpt lat="42.5525617227" lon="19.9133213796">
        <ele>1554.59</ele>
        <time>2019-07-04T10:34:17Z</time>
      </trkpt>
      <trkpt lat="42.5523939170" lon="19.9133143388">
        <ele>1556.99</ele>
        <time>2019-07-04T10:34:32Z</time>
      </trkpt>
      <trkpt lat="42.5522710383" lon="19.9133819807">
        <ele>1558.43</ele>
        <time>2019-07-04T10:34:46Z</time>
      </trkpt>
      <trkpt lat="42.5521816872" lon="19.9133931287">
        <ele>1560.84</ele>
        <time>2019-07-04T10:34:59Z</time>
      </trkpt>
      <trkpt lat="42.5520981196" lon="19.9134263210">
        <ele>1563.72</ele>
        <time>2019-07-04T10:35:12Z</time>
      </trkpt>
      <trkpt lat="42.5520753209" lon="19.9134318531">
        <ele>1563.72</ele>
        <time>2019-07-04T10:35:15Z</time>
      </trkpt>
      <trkpt lat="42.5519718044" lon="19.9134994950">
        <ele>1566.12</ele>
        <time>2019-07-04T10:35:27Z</time>
      </trkpt>
      <trkpt lat="42.5518881530" lon="19.9135424104">
        <ele>1568.05</ele>
        <time>2019-07-04T10:35:40Z</time>
      </trkpt>
      <trkpt lat="42.5517936889" lon="19.9135789555">
        <ele>1570.45</ele>
        <time>2019-07-04T10:35:54Z</time>
      </trkpt>
      <trkpt lat="42.5517696328" lon="19.9135833140">
        <ele>1571.89</ele>
        <time>2019-07-04T10:35:58Z</time>
      </trkpt>
      <trkpt lat="42.5517202634" lon="19.9135750998">
        <ele>1572.85</ele>
        <time>2019-07-04T10:36:05Z</time>
      </trkpt>
      <trkpt lat="42.5516361929" lon="19.9135891814">
        <ele>1576.22</ele>
        <time>2019-07-04T10:36:20Z</time>
      </trkpt>
      <trkpt lat="42.5515292399" lon="19.9136115611">
        <ele>1578.62</ele>
        <time>2019-07-04T10:36:34Z</time>
      </trkpt>
      <trkpt lat="42.5515092071" lon="19.9136236310">
        <ele>1579.58</ele>
        <time>2019-07-04T10:36:37Z</time>
      </trkpt>
      <trkpt lat="42.5514083728" lon="19.9136937037">
        <ele>1581.51</ele>
        <time>2019-07-04T10:36:51Z</time>
      </trkpt>
      <trkpt lat="42.5512730051" lon="19.9136494473">
        <ele>1582.95</ele>
        <time>2019-07-04T10:37:04Z</time>
      </trkpt>
      <trkpt lat="42.5512104761" lon="19.9135659635">
        <ele>1584.39</ele>
        <time>2019-07-04T10:37:17Z</time>
      </trkpt>
      <trkpt lat="42.5511414092" lon="19.9135302566">
        <ele>1586.31</ele>
        <time>2019-07-04T10:37:28Z</time>
      </trkpt>
      <trkpt lat="42.5510694925" lon="19.9134925380">
        <ele>1588.72</ele>
        <time>2019-07-04T10:37:40Z</time>
      </trkpt>
      <trkpt lat="42.5509755313" lon="19.9134480301">
        <ele>1591.60</ele>
        <time>2019-07-04T10:37:53Z</time>
      </trkpt>
      <trkpt lat="42.5508721825" lon="19.9134641234">
        <ele>1594.96</ele>
        <time>2019-07-04T10:38:11Z</time>
      </trkpt>
      <trkpt lat="42.5507368986" lon="19.9134146702">
        <ele>1597.37</ele>
        <time>2019-07-04T10:38:27Z</time>
      </trkpt>
      <trkpt lat="42.5506359804" lon="19.9133625347">
        <ele>1600.25</ele>
        <time>2019-07-04T10:38:42Z</time>
      </trkpt>
      <trkpt lat="42.5505060609" lon="19.9133414961">
        <ele>1601.69</ele>
        <time>2019-07-04T10:38:57Z</time>
      </trkpt>
      <trkpt lat="42.5504012033" lon="19.9133466091">
        <ele>1604.10</ele>
        <time>2019-07-04T10:39:09Z</time>
      </trkpt>
      <trkpt lat="42.5502660871" lon="19.9133604392">
        <ele>1606.98</ele>
        <time>2019-07-04T10:39:26Z</time>
      </trkpt>
      <trkpt lat="42.5501540210" lon="19.9134580884">
        <ele>1609.38</ele>
        <time>2019-07-04T10:39:41Z</time>
      </trkpt>
      <trkpt lat="42.5500511751" lon="19.9134694878">
        <ele>1612.75</ele>
        <time>2019-07-04T10:39:58Z</time>
      </trkpt>
      <trkpt lat="42.5499535259" lon="19.9135044403">
        <ele>1615.63</ele>
        <time>2019-07-04T10:40:13Z</time>
      </trkpt>
      <trkpt lat="42.5498564634" lon="19.9134751875">
        <ele>1618.04</ele>
        <time>2019-07-04T10:40:26Z</time>
      </trkpt>
      <trkpt lat="42.5497868098" lon="19.9134580884">
        <ele>1620.44</ele>
        <time>2019-07-04T10:40:38Z</time>
      </trkpt>
      <trkpt lat="42.5497004762" lon="19.9134500418">
        <ele>1622.84</ele>
        <time>2019-07-04T10:40:52Z</time>
      </trkpt>
      <trkpt lat="42.5496515259" lon="19.9134104792">
        <ele>1624.28</ele>
        <time>2019-07-04T10:41:04Z</time>
      </trkpt>
      <trkpt lat="42.5495600794" lon="19.9133570027">
        <ele>1626.21</ele>
        <time>2019-07-04T10:41:17Z</time>
      </trkpt>
      <trkpt lat="42.5494166650" lon="19.9133217987">
        <ele>1629.09</ele>
        <time>2019-07-04T10:41:36Z</time>
      </trkpt>
      <trkpt lat="42.5492911879" lon="19.9133725930">
        <ele>1631.49</ele>
        <time>2019-07-04T10:41:51Z</time>
      </trkpt>
      <trkpt lat="42.5491333567" lon="19.9134093057">
        <ele>1634.38</ele>
        <time>2019-07-04T10:42:08Z</time>
      </trkpt>
      <trkpt lat="42.5490416586" lon="19.9134434201">
        <ele>1637.26</ele>
        <time>2019-07-04T10:42:24Z</time>
      </trkpt>
      <trkpt lat="42.5489874277" lon="19.9134770315">
        <ele>1639.67</ele>
        <time>2019-07-04T10:42:36Z</time>
      </trkpt>
      <trkpt lat="42.5488637108" lon="19.9134971481">
        <ele>1642.07</ele>
        <time>2019-07-04T10:42:50Z</time>
      </trkpt>
      <trkpt lat="42.5488004275" lon="19.9134617765">
        <ele>1643.51</ele>
        <time>2019-07-04T10:43:00Z</time>
      </trkpt>
      <trkpt lat="42.5488551613" lon="19.9133825675">
        <ele>1645.43</ele>
        <time>2019-07-04T10:43:16Z</time>
      </trkpt>
      <trkpt lat="42.5488015171" lon="19.9132964853">
        <ele>1647.36</ele>
        <time>2019-07-04T10:43:31Z</time>
      </trkpt>
      <trkpt lat="42.5487857591" lon="19.9132485408">
        <ele>1648.80</ele>
        <time>2019-07-04T10:43:45Z</time>
      </trkpt>
      <trkpt lat="42.5487167761" lon="19.9132492952">
        <ele>1651.68</ele>
        <time>2019-07-04T10:44:00Z</time>
      </trkpt>
      <trkpt lat="42.5486043748" lon="19.9132050388">
        <ele>1654.09</ele>
        <time>2019-07-04T10:44:15Z</time>
      </trkpt>
      <trkpt lat="42.5484945718" lon="19.9131633807">
        <ele>1656.49</ele>
        <time>2019-07-04T10:44:29Z</time>
      </trkpt>
      <trkpt lat="42.5483713578" lon="19.9131482933">
        <ele>1656.01</ele>
        <time>2019-07-04T10:44:43Z</time>
      </trkpt>
      <trkpt lat="42.5484238286" lon="19.9130949005">
        <ele>1657.45</ele>
        <time>2019-07-04T10:44:53Z</time>
      </trkpt>
      <trkpt lat="42.5484726951" lon="19.9130017776">
        <ele>1659.37</ele>
        <time>2019-07-04T10:45:06Z</time>
      </trkpt>
      <trkpt lat="42.5484529138" lon="19.9128277693">
        <ele>1660.33</ele>
        <time>2019-07-04T10:45:22Z</time>
      </trkpt>
      <trkpt lat="42.5484517403" lon="19.9128159508">
        <ele>1660.81</ele>
        <time>2019-07-04T10:45:23Z</time>
      </trkpt>
      <trkpt lat="42.5484239124" lon="19.9127084948">
        <ele>1661.78</ele>
        <time>2019-07-04T10:45:35Z</time>
      </trkpt>
      <trkpt lat="42.5482996088" lon="19.9126517493">
        <ele>1663.22</ele>
        <time>2019-07-04T10:45:48Z</time>
      </trkpt>
      <trkpt lat="42.5481787417" lon="19.9125678465">
        <ele>1665.14</ele>
        <time>2019-07-04T10:46:01Z</time>
      </trkpt>
      <trkpt lat="42.5481251813" lon="19.9124644138">
        <ele>1667.54</ele>
        <time>2019-07-04T10:46:17Z</time>
      </trkpt>
      <trkpt lat="42.5480519235" lon="19.9123427086">
        <ele>1669.95</ele>
        <time>2019-07-04T10:46:32Z</time>
      </trkpt>
      <trkpt lat="42.5479261111" lon="19.9122754857">
        <ele>1671.87</ele>
        <time>2019-07-04T10:46:46Z</time>
      </trkpt>
      <trkpt lat="42.5478334073" lon="19.9122773297">
        <ele>1673.79</ele>
        <time>2019-07-04T10:47:01Z</time>
      </trkpt>
      <trkpt lat="42.5477661844" lon="19.9122501723">
        <ele>1675.23</ele>
        <time>2019-07-04T10:47:12Z</time>
      </trkpt>
      <trkpt lat="42.5476607401" lon="19.9122197460">
        <ele>1676.20</ele>
        <time>2019-07-04T10:47:23Z</time>
      </trkpt>
      <trkpt lat="42.5475768372" lon="19.9120896589">
        <ele>1679.08</ele>
        <time>2019-07-04T10:47:38Z</time>
      </trkpt>
      <trkpt lat="42.5475110393" lon="19.9120763317">
        <ele>1680.52</ele>
        <time>2019-07-04T10:47:49Z</time>
      </trkpt>
      <trkpt lat="42.5474095345" lon="19.9120269623">
        <ele>1681.96</ele>
        <time>2019-07-04T10:48:02Z</time>
      </trkpt>
      <trkpt lat="42.5472910143" lon="19.9119936023">
        <ele>1684.85</ele>
        <time>2019-07-04T10:48:16Z</time>
      </trkpt>
      <trkpt lat="42.5471635256" lon="19.9120509345">
        <ele>1686.77</ele>
        <time>2019-07-04T10:48:30Z</time>
      </trkpt>
      <trkpt lat="42.5470877532" lon="19.9120987952">
        <ele>1689.17</ele>
        <time>2019-07-04T10:48:42Z</time>
      </trkpt>
      <trkpt lat="42.5469941273" lon="19.9121159781">
        <ele>1691.58</ele>
        <time>2019-07-04T10:48:56Z</time>
      </trkpt>
      <trkpt lat="42.5468790438" lon="19.9121380225">
        <ele>1693.50</ele>
        <time>2019-07-04T10:49:09Z</time>
      </trkpt>
      <trkpt lat="42.5467952248" lon="19.9120853841">
        <ele>1695.90</ele>
        <time>2019-07-04T10:49:22Z</time>
      </trkpt>
      <trkpt lat="42.5467161834" lon="19.9120287225">
        <ele>1698.31</ele>
        <time>2019-07-04T10:49:38Z</time>
      </trkpt>
      <trkpt lat="42.5465796422" lon="19.9119912554">
        <ele>1700.23</ele>
        <time>2019-07-04T10:49:51Z</time>
      </trkpt>
      <trkpt lat="42.5464275945" lon="19.9119545426">
        <ele>1702.15</ele>
        <time>2019-07-04T10:50:05Z</time>
      </trkpt>
      <trkpt lat="42.5463037100" lon="19.9118634313">
        <ele>1701.19</ele>
        <time>2019-07-04T10:50:19Z</time>
      </trkpt>
      <trkpt lat="42.5462116767" lon="19.9118068535">
        <ele>1699.27</ele>
        <time>2019-07-04T10:50:32Z</time>
      </trkpt>
      <trkpt lat="42.5460804161" lon="19.9117048457">
        <ele>1697.83</ele>
        <time>2019-07-04T10:50:44Z</time>
      </trkpt>
      <trkpt lat="42.5458523445" lon="19.9115848169">
        <ele>1696.38</ele>
        <time>2019-07-04T10:50:59Z</time>
      </trkpt>
      <trkpt lat="42.5457460620" lon="19.9115209468">
        <ele>1697.34</ele>
        <time>2019-07-04T10:51:13Z</time>
      </trkpt>
      <trkpt lat="42.5456044916" lon="19.9114885926">
        <ele>1697.83</ele>
        <time>2019-07-04T10:51:25Z</time>
      </trkpt>
      <trkpt lat="42.5454843789" lon="19.9114779476">
        <ele>1698.31</ele>
        <time>2019-07-04T10:51:39Z</time>
      </trkpt>
      <trkpt lat="42.5452966243" lon="19.9114735890">
        <ele>1699.27</ele>
        <time>2019-07-04T10:51:49Z</time>
      </trkpt>
      <trkpt lat="42.5451468397" lon="19.9115589168">
        <ele>1699.27</ele>
        <time>2019-07-04T10:52:03Z</time>
      </trkpt>
      <trkpt lat="42.5449704006" lon="19.9115741719">
        <ele>1699.27</ele>
        <time>2019-07-04T10:52:18Z</time>
      </trkpt>
      <trkpt lat="42.5447582547" lon="19.9115481880">
        <ele>1700.71</ele>
        <time>2019-07-04T10:52:34Z</time>
      </trkpt>
      <trkpt lat="42.5447172672" lon="19.9115344416">
        <ele>1700.71</ele>
        <time>2019-07-04T10:52:40Z</time>
      </trkpt>
      <trkpt lat="42.5445869286" lon="19.9114647042">
        <ele>1700.71</ele>
        <time>2019-07-04T10:52:52Z</time>
      </trkpt>
      <trkpt lat="42.5444591045" lon="19.9113777839">
        <ele>1699.27</ele>
        <time>2019-07-04T10:53:08Z</time>
      </trkpt>
      <trkpt lat="42.5442643091" lon="19.9113124050">
        <ele>1698.79</ele>
        <time>2019-07-04T10:53:21Z</time>
      </trkpt>
      <trkpt lat="42.5439867843" lon="19.9111424200">
        <ele>1701.19</ele>
        <time>2019-07-04T10:53:37Z</time>
      </trkpt>
      <trkpt lat="42.5438981876" lon="19.9110738561">
        <ele>1701.19</ele>
        <time>2019-07-04T10:53:51Z</time>
      </trkpt>
      <trkpt lat="42.5438411068" lon="19.9110826571">
        <ele>1703.59</ele>
        <time>2019-07-04T10:54:04Z</time>
      </trkpt>
      <trkpt lat="42.5437590480" lon="19.9111059587">
        <ele>1706.00</ele>
        <time>2019-07-04T10:54:17Z</time>
      </trkpt>
      <trkpt lat="42.5436717924" lon="19.9111124128">
        <ele>1707.44</ele>
        <time>2019-07-04T10:54:29Z</time>
      </trkpt>
      <trkpt lat="42.5435769092" lon="19.9110963196">
        <ele>1709.36</ele>
        <time>2019-07-04T10:54:42Z</time>
      </trkpt>
      <trkpt lat="42.5434484985" lon="19.9111700803">
        <ele>1712.25</ele>
        <time>2019-07-04T10:54:57Z</time>
      </trkpt>
      <trkpt lat="42.5433616620" lon="19.9112173542">
        <ele>1714.65</ele>
        <time>2019-07-04T10:55:11Z</time>
      </trkpt>
      <trkpt lat="42.5433107000" lon="19.9112141691">
        <ele>1717.05</ele>
        <time>2019-07-04T10:55:24Z</time>
      </trkpt>
      <trkpt lat="42.5431351829" lon="19.9112438411">
        <ele>1718.97</ele>
        <time>2019-07-04T10:55:40Z</time>
      </trkpt>
      <trkpt lat="42.5430625957" lon="19.9112527259">
        <ele>1718.97</ele>
        <time>2019-07-04T10:55:53Z</time>
      </trkpt>
      <trkpt lat="42.5429780222" lon="19.9112336989">
        <ele>1720.90</ele>
        <time>2019-07-04T10:56:03Z</time>
      </trkpt>
      <trkpt lat="42.5429419801" lon="19.9112414941">
        <ele>1720.90</ele>
        <time>2019-07-04T10:56:06Z</time>
      </trkpt>
      <trkpt lat="42.5428452529" lon="19.9112849124">
        <ele>1722.82</ele>
        <time>2019-07-04T10:56:17Z</time>
      </trkpt>
      <trkpt lat="42.5427814666" lon="19.9113306776">
        <ele>1724.74</ele>
        <time>2019-07-04T10:56:28Z</time>
      </trkpt>
      <trkpt lat="42.5426663831" lon="19.9114016723">
        <ele>1727.63</ele>
        <time>2019-07-04T10:56:42Z</time>
      </trkpt>
      <trkpt lat="42.5425297581" lon="19.9114213698">
        <ele>1730.51</ele>
        <time>2019-07-04T10:56:58Z</time>
      </trkpt>
      <trkpt lat="42.5424746890" lon="19.9113737606">
        <ele>1733.39</ele>
        <time>2019-07-04T10:57:14Z</time>
      </trkpt>
      <trkpt lat="42.5424212124" lon="19.9113133270">
        <ele>1735.32</ele>
        <time>2019-07-04T10:57:27Z</time>
      </trkpt>
      <trkpt lat="42.5423948094" lon="19.9112541508">
        <ele>1737.24</ele>
        <time>2019-07-04T10:57:39Z</time>
      </trkpt>
      <trkpt lat="42.5423455238" lon="19.9111612793">
        <ele>1740.12</ele>
        <time>2019-07-04T10:57:54Z</time>
      </trkpt>
      <trkpt lat="42.5422528200" lon="19.9111116584">
        <ele>1741.08</ele>
        <time>2019-07-04T10:58:07Z</time>
      </trkpt>
      <trkpt lat="42.5421903748" lon="19.9110782146">
        <ele>1743.01</ele>
        <time>2019-07-04T10:58:19Z</time>
      </trkpt>
      <trkpt lat="42.5421590265" lon="19.9110558350">
        <ele>1743.01</ele>
        <time>2019-07-04T10:58:41Z</time>
      </trkpt>
      <trkpt lat="42.5421668217" lon="19.9110854231">
        <ele>1743.49</ele>
        <time>2019-07-04T10:59:04Z</time>
      </trkpt>
      <trkpt lat="42.5421025325" lon="19.9110718444">
        <ele>1743.97</ele>
        <time>2019-07-04T10:59:22Z</time>
      </trkpt>
      <trkpt lat="42.5419250038" lon="19.9109830800">
        <ele>1741.08</ele>
        <time>2019-07-04T10:59:37Z</time>
      </trkpt>
      <trkpt lat="42.5418903027" lon="19.9109490495">
        <ele>1741.08</ele>
        <time>2019-07-04T10:59:42Z</time>
      </trkpt>
      <trkpt lat="42.5418081600" lon="19.9107993487">
        <ele>1741.57</ele>
        <time>2019-07-04T10:59:55Z</time>
      </trkpt>
      <trkpt lat="42.5417074934" lon="19.9107053038">
        <ele>1741.57</ele>
        <time>2019-07-04T11:00:06Z</time>
      </trkpt>
      <trkpt lat="42.5416041445" lon="19.9106540903">
        <ele>1743.01</ele>
        <time>2019-07-04T11:00:12Z</time>
      </trkpt>
      <trkpt lat="42.5414126180" lon="19.9107627198">
        <ele>1744.93</ele>
        <time>2019-07-04T11:00:26Z</time>
      </trkpt>
      <trkpt lat="42.5413194951" lon="19.9107762147">
        <ele>1747.33</ele>
        <time>2019-07-04T11:00:39Z</time>
      </trkpt>
      <trkpt lat="42.5412653480" lon="19.9107488059">
        <ele>1749.26</ele>
        <time>2019-07-04T11:00:52Z</time>
      </trkpt>
      <trkpt lat="42.5411910843" lon="19.9106620532">
        <ele>1751.66</ele>
        <time>2019-07-04T11:01:06Z</time>
      </trkpt>
      <trkpt lat="42.5410817005" lon="19.9105616380">
        <ele>1753.58</ele>
        <time>2019-07-04T11:01:21Z</time>
      </trkpt>
      <trkpt lat="42.5409522001" lon="19.9104805849">
        <ele>1754.54</ele>
        <time>2019-07-04T11:01:35Z</time>
      </trkpt>
      <trkpt lat="42.5408860669" lon="19.9104209896">
        <ele>1755.50</ele>
        <time>2019-07-04T11:01:52Z</time>
      </trkpt>
      <trkpt lat="42.5407063589" lon="19.9103589635">
        <ele>1755.99</ele>
        <time>2019-07-04T11:02:06Z</time>
      </trkpt>
      <trkpt lat="42.5406046864" lon="19.9103409424">
        <ele>1757.91</ele>
        <time>2019-07-04T11:02:18Z</time>
      </trkpt>
      <trkpt lat="42.5404361263" lon="19.9103390984">
        <ele>1759.35</ele>
        <time>2019-07-04T11:02:32Z</time>
      </trkpt>
      <trkpt lat="42.5403383095" lon="19.9103589635">
        <ele>1760.79</ele>
        <time>2019-07-04T11:02:44Z</time>
      </trkpt>
      <trkpt lat="42.5402292609" lon="19.9103655852">
        <ele>1762.71</ele>
        <time>2019-07-04T11:02:55Z</time>
      </trkpt>
      <trkpt lat="42.5401196256" lon="19.9102756474">
        <ele>1764.16</ele>
        <time>2019-07-04T11:03:09Z</time>
      </trkpt>
      <trkpt lat="42.5400011055" lon="19.9101972766">
        <ele>1766.08</ele>
        <time>2019-07-04T11:03:24Z</time>
      </trkpt>
      <trkpt lat="42.5398810767" lon="19.9100913294">
        <ele>1768.00</ele>
        <time>2019-07-04T11:03:39Z</time>
      </trkpt>
      <trkpt lat="42.5398172066" lon="19.9099994637">
        <ele>1769.44</ele>
        <time>2019-07-04T11:03:53Z</time>
      </trkpt>
      <trkpt lat="42.5396898016" lon="19.9098816980">
        <ele>1771.37</ele>
        <time>2019-07-04T11:04:08Z</time>
      </trkpt>
      <trkpt lat="42.5395971816" lon="19.9097855575">
        <ele>1774.25</ele>
        <time>2019-07-04T11:04:24Z</time>
      </trkpt>
      <trkpt lat="42.5394987781" lon="19.9097230285">
        <ele>1776.17</ele>
        <time>2019-07-04T11:04:37Z</time>
      </trkpt>
      <trkpt lat="42.5394007936" lon="19.9096209370">
        <ele>1778.10</ele>
        <time>2019-07-04T11:04:55Z</time>
      </trkpt>
      <trkpt lat="42.5392308086" lon="19.9096025806">
        <ele>1780.02</ele>
        <time>2019-07-04T11:05:12Z</time>
      </trkpt>
      <trkpt lat="42.5391174853" lon="19.9095664546">
        <ele>1782.42</ele>
        <time>2019-07-04T11:05:27Z</time>
      </trkpt>
      <trkpt lat="42.5390144717" lon="19.9094774388">
        <ele>1785.31</ele>
        <time>2019-07-04T11:05:43Z</time>
      </trkpt>
      <trkpt lat="42.5389651861" lon="19.9094484374">
        <ele>1786.75</ele>
        <time>2019-07-04T11:05:54Z</time>
      </trkpt>
      <trkpt lat="42.5388893299" lon="19.9093752634">
        <ele>1788.19</ele>
        <time>2019-07-04T11:06:09Z</time>
      </trkpt>
      <trkpt lat="42.5387163274" lon="19.9092152528">
        <ele>1789.15</ele>
        <time>2019-07-04T11:06:24Z</time>
      </trkpt>
      <trkpt lat="42.5386692211" lon="19.9090629537">
        <ele>1789.15</ele>
        <time>2019-07-04T11:06:37Z</time>
      </trkpt>
      <trkpt lat="42.5386462547" lon="19.9090211280">
        <ele>1789.15</ele>
        <time>2019-07-04T11:06:41Z</time>
      </trkpt>
      <trkpt lat="42.5386030879" lon="19.9088080600">
        <ele>1789.15</ele>
        <time>2019-07-04T11:06:55Z</time>
      </trkpt>
      <trkpt lat="42.5385907665" lon="19.9087263364">
        <ele>1789.63</ele>
        <time>2019-07-04T11:07:00Z</time>
      </trkpt>
      <trkpt lat="42.5384125672" lon="19.9086881988">
        <ele>1791.55</ele>
        <time>2019-07-04T11:07:14Z</time>
      </trkpt>
      <trkpt lat="42.5382932927" lon="19.9087039568">
        <ele>1793.00</ele>
        <time>2019-07-04T11:07:28Z</time>
      </trkpt>
      <trkpt lat="42.5382214598" lon="19.9086560123">
        <ele>1793.96</ele>
        <time>2019-07-04T11:07:41Z</time>
      </trkpt>
      <trkpt lat="42.5382067915" lon="19.9086222332">
        <ele>1794.44</ele>
        <time>2019-07-04T11:07:45Z</time>
      </trkpt>
      <trkpt lat="42.5381763652" lon="19.9085049704">
        <ele>1794.92</ele>
        <time>2019-07-04T11:07:56Z</time>
      </trkpt>
      <trkpt lat="42.5381333660" lon="19.9083473068">
        <ele>1796.84</ele>
        <time>2019-07-04T11:08:11Z</time>
      </trkpt>
      <trkpt lat="42.5381017663" lon="19.9081913196">
        <ele>1797.80</ele>
        <time>2019-07-04T11:08:25Z</time>
      </trkpt>
      <trkpt lat="42.5380640477" lon="19.9081315566">
        <ele>1798.76</ele>
        <time>2019-07-04T11:08:33Z</time>
      </trkpt>
      <trkpt lat="42.5379710924" lon="19.9080259446">
        <ele>1800.21</ele>
        <time>2019-07-04T11:08:49Z</time>
      </trkpt>
      <trkpt lat="42.5378882792" lon="19.9080386851">
        <ele>1802.13</ele>
        <time>2019-07-04T11:09:02Z</time>
      </trkpt>
      <trkpt lat="42.5378726888" lon="19.9080030620">
        <ele>1803.09</ele>
        <time>2019-07-04T11:09:13Z</time>
      </trkpt>
      <trkpt lat="42.5378608704" lon="19.9079823587">
        <ele>1802.13</ele>
        <time>2019-07-04T11:09:30Z</time>
      </trkpt>
      <trkpt lat="42.5378619600" lon="19.9079755694">
        <ele>1802.13</ele>
        <time>2019-07-04T11:09:48Z</time>
      </trkpt>
      <trkpt lat="42.5378700066" lon="19.9079923332">
        <ele>1802.61</ele>
        <time>2019-07-04T11:10:25Z</time>
      </trkpt>
      <trkpt lat="42.5378721021" lon="19.9080049060">
        <ele>1802.61</ele>
        <time>2019-07-04T11:11:01Z</time>
      </trkpt>
      <trkpt lat="42.5378506444" lon="19.9079974461">
        <ele>1802.61</ele>
        <time>2019-07-04T11:11:33Z</time>
      </trkpt>
      <trkpt lat="42.5378548354" lon="19.9079968594">
        <ele>1803.09</ele>
        <time>2019-07-04T11:11:58Z</time>
      </trkpt>
      <trkpt lat="42.5378596969" lon="19.9080231786">
        <ele>1803.09</ele>
        <time>2019-07-04T11:12:19Z</time>
      </trkpt>
      <trkpt lat="42.5378698390" lon="19.9080157187">
        <ele>1804.53</ele>
        <time>2019-07-04T11:12:24Z</time>
      </trkpt>
      <trkpt lat="42.5378817413" lon="19.9079987034">
        <ele>1804.53</ele>
        <time>2019-07-04T11:12:40Z</time>
      </trkpt>
      <trkpt lat="42.5378749520" lon="19.9079861306">
        <ele>1804.53</ele>
        <time>2019-07-04T11:12:59Z</time>
      </trkpt>
      <trkpt lat="42.5378622953" lon="19.9079965241">
        <ele>1805.01</ele>
        <time>2019-07-04T11:13:17Z</time>
      </trkpt>
      <trkpt lat="42.5378104113" lon="19.9079660140">
        <ele>1805.01</ele>
        <time>2019-07-04T11:13:31Z</time>
      </trkpt>
      <trkpt lat="42.5377648138" lon="19.9078795966">
        <ele>1805.01</ele>
        <time>2019-07-04T11:13:40Z</time>
      </trkpt>
      <trkpt lat="42.5376653206" lon="19.9077618308">
        <ele>1805.01</ele>
        <time>2019-07-04T11:13:54Z</time>
      </trkpt>
      <trkpt lat="42.5376021210" lon="19.9077153951">
        <ele>1805.01</ele>
        <time>2019-07-04T11:14:02Z</time>
      </trkpt>
      <trkpt lat="42.5375302881" lon="19.9075967073">
        <ele>1805.01</ele>
        <time>2019-07-04T11:14:15Z</time>
      </trkpt>
      <trkpt lat="42.5375302881" lon="19.9075551331">
        <ele>1805.01</ele>
        <time>2019-07-04T11:14:18Z</time>
      </trkpt>
      <trkpt lat="42.5375116803" lon="19.9075459130">
        <ele>1805.01</ele>
        <time>2019-07-04T11:14:20Z</time>
      </trkpt>
      <trkpt lat="42.5374056492" lon="19.9075372797">
        <ele>1806.45</ele>
        <time>2019-07-04T11:14:33Z</time>
      </trkpt>
      <trkpt lat="42.5373626500" lon="19.9074548855">
        <ele>1808.38</ele>
        <time>2019-07-04T11:14:45Z</time>
      </trkpt>
      <trkpt lat="42.5372868776" lon="19.9074012414">
        <ele>1809.82</ele>
        <time>2019-07-04T11:15:01Z</time>
      </trkpt>
      <trkpt lat="42.5372178108" lon="19.9073843937">
        <ele>1810.78</ele>
        <time>2019-07-04T11:15:18Z</time>
      </trkpt>
      <trkpt lat="42.5372180622" lon="19.9073641095">
        <ele>1811.26</ele>
        <time>2019-07-04T11:15:37Z</time>
      </trkpt>
      <trkpt lat="42.5371790025" lon="19.9072647002">
        <ele>1812.70</ele>
        <time>2019-07-04T11:15:50Z</time>
      </trkpt>
      <trkpt lat="42.5371715426" lon="19.9072269816">
        <ele>1812.70</ele>
        <time>2019-07-04T11:16:04Z</time>
      </trkpt>
      <trkpt lat="42.5371690281" lon="19.9072315078">
        <ele>1812.70</ele>
        <time>2019-07-04T11:16:24Z</time>
      </trkpt>
      <trkpt lat="42.5371557847" lon="19.9071994051">
        <ele>1812.70</ele>
        <time>2019-07-04T11:16:41Z</time>
      </trkpt>
      <trkpt lat="42.5370992906" lon="19.9071423244">
        <ele>1812.70</ele>
        <time>2019-07-04T11:16:54Z</time>
      </trkpt>
      <trkpt lat="42.5370321516" lon="19.9071141612">
        <ele>1812.70</ele>
        <time>2019-07-04T11:17:08Z</time>
      </trkpt>
      <trkpt lat="42.5369505957" lon="19.9070837349">
        <ele>1813.18</ele>
        <time>2019-07-04T11:17:24Z</time>
      </trkpt>
      <trkpt lat="42.5369250309" lon="19.9070644565">
        <ele>1813.18</ele>
        <time>2019-07-04T11:17:30Z</time>
      </trkpt>
      <trkpt lat="42.5368733983" lon="19.9070420768">
        <ele>1813.18</ele>
        <time>2019-07-04T11:17:43Z</time>
      </trkpt>
      <trkpt lat="42.5368583109" lon="19.9070042744">
        <ele>1813.66</ele>
        <time>2019-07-04T11:18:02Z</time>
      </trkpt>
      <trkpt lat="42.5367951952" lon="19.9069995806">
        <ele>1814.15</ele>
        <time>2019-07-04T11:18:17Z</time>
      </trkpt>
      <trkpt lat="42.5367684569" lon="19.9070190266">
        <ele>1815.59</ele>
        <time>2019-07-04T11:18:24Z</time>
      </trkpt>
      <trkpt lat="42.5367792696" lon="19.9070144165">
        <ele>1814.15</ele>
        <time>2019-07-04T11:18:27Z</time>
      </trkpt>
      <trkpt lat="42.5368511025" lon="19.9070046935">
        <ele>1814.15</ele>
        <time>2019-07-04T11:18:49Z</time>
      </trkpt>
      <trkpt lat="42.5368542038" lon="19.9070099741">
        <ele>1814.15</ele>
        <time>2019-07-04T11:18:51Z</time>
      </trkpt>
      <trkpt lat="42.5368724763" lon="19.9069457687">
        <ele>1814.15</ele>
        <time>2019-07-04T11:18:59Z</time>
      </trkpt>
      <trkpt lat="42.5368584786" lon="19.9069037754">
        <ele>1815.59</ele>
        <time>2019-07-04T11:19:03Z</time>
      </trkpt>
      <trkpt lat="42.5368553773" lon="19.9068463594">
        <ele>1817.03</ele>
        <time>2019-07-04T11:19:17Z</time>
      </trkpt>
      <trkpt lat="42.5368973706" lon="19.9067865964">
        <ele>1818.95</ele>
        <time>2019-07-04T11:19:28Z</time>
      </trkpt>
      <trkpt lat="42.5369037408" lon="19.9067767896">
        <ele>1819.91</ele>
        <time>2019-07-04T11:19:30Z</time>
      </trkpt>
      <trkpt lat="42.5369037408" lon="19.9066819064">
        <ele>1820.87</ele>
        <time>2019-07-04T11:19:43Z</time>
      </trkpt>
      <trkpt lat="42.5368925929" lon="19.9065744504">
        <ele>1821.84</ele>
        <time>2019-07-04T11:19:54Z</time>
      </trkpt>
      <trkpt lat="42.5368890725" lon="19.9064620491">
        <ele>1823.76</ele>
        <time>2019-07-04T11:20:07Z</time>
      </trkpt>
      <trkpt lat="42.5368942693" lon="19.9063796550">
        <ele>1826.16</ele>
        <time>2019-07-04T11:20:19Z</time>
      </trkpt>
      <trkpt lat="42.5369020645" lon="19.9063085765">
        <ele>1827.60</ele>
        <time>2019-07-04T11:20:33Z</time>
      </trkpt>
      <trkpt lat="42.5369076803" lon="19.9062269367">
        <ele>1829.05</ele>
        <time>2019-07-04T11:20:43Z</time>
      </trkpt>
      <trkpt lat="42.5368828699" lon="19.9061176367">
        <ele>1830.49</ele>
        <time>2019-07-04T11:20:56Z</time>
      </trkpt>
      <trkpt lat="42.5368668605" lon="19.9060468934">
        <ele>1832.41</ele>
        <time>2019-07-04T11:21:06Z</time>
      </trkpt>
      <trkpt lat="42.5368466601" lon="19.9059385154">
        <ele>1834.33</ele>
        <time>2019-07-04T11:21:18Z</time>
      </trkpt>
      <trkpt lat="42.5368061755" lon="19.9058719631">
        <ele>1834.81</ele>
        <time>2019-07-04T11:21:29Z</time>
      </trkpt>
      <trkpt lat="42.5367817003" lon="19.9057400320">
        <ele>1837.22</ele>
        <time>2019-07-04T11:21:43Z</time>
      </trkpt>
      <trkpt lat="42.5367856398" lon="19.9056040775">
        <ele>1838.66</ele>
        <time>2019-07-04T11:21:57Z</time>
      </trkpt>
      <trkpt lat="42.5367974583" lon="19.9054863118">
        <ele>1840.10</ele>
        <time>2019-07-04T11:22:07Z</time>
      </trkpt>
      <trkpt lat="42.5368485879" lon="19.9053655285">
        <ele>1842.02</ele>
        <time>2019-07-04T11:22:21Z</time>
      </trkpt>
      <trkpt lat="42.5369006395" lon="19.9052864034">
        <ele>1842.98</ele>
        <time>2019-07-04T11:22:33Z</time>
      </trkpt>
      <trkpt lat="42.5369593967" lon="19.9051444978">
        <ele>1844.43</ele>
        <time>2019-07-04T11:22:48Z</time>
      </trkpt>
      <trkpt lat="42.5369740650" lon="19.9051168375">
        <ele>1844.43</ele>
        <time>2019-07-04T11:22:51Z</time>
      </trkpt>
      <trkpt lat="42.5370344985" lon="19.9050162546">
        <ele>1844.91</ele>
        <time>2019-07-04T11:23:03Z</time>
      </trkpt>
      <trkpt lat="42.5370557886" lon="19.9049880076">
        <ele>1844.91</ele>
        <time>2019-07-04T11:23:07Z</time>
      </trkpt>
      <trkpt lat="42.5370934233" lon="19.9049284961">
        <ele>1844.91</ele>
        <time>2019-07-04T11:23:13Z</time>
      </trkpt>
      <trkpt lat="42.5371515937" lon="19.9048738461">
        <ele>1844.91</ele>
        <time>2019-07-04T11:23:25Z</time>
      </trkpt>
      <trkpt lat="42.5372322276" lon="19.9048051983">
        <ele>1846.35</ele>
        <time>2019-07-04T11:23:38Z</time>
      </trkpt>
      <trkpt lat="42.5372645818" lon="19.9048003368">
        <ele>1846.35</ele>
        <time>2019-07-04T11:23:43Z</time>
      </trkpt>
      <trkpt lat="42.5373836886" lon="19.9048689008">
        <ele>1846.35</ele>
        <time>2019-07-04T11:23:53Z</time>
      </trkpt>
      <trkpt lat="42.5375035498" lon="19.9049440864">
        <ele>1848.27</ele>
        <time>2019-07-04T11:24:08Z</time>
      </trkpt>
      <trkpt lat="42.5375830103" lon="19.9049336091">
        <ele>1849.71</ele>
        <time>2019-07-04T11:24:21Z</time>
      </trkpt>
      <trkpt lat="42.5376455393" lon="19.9049246404">
        <ele>1851.16</ele>
        <time>2019-07-04T11:24:33Z</time>
      </trkpt>
      <trkpt lat="42.5377570186" lon="19.9049068708">
        <ele>1852.12</ele>
        <time>2019-07-04T11:24:46Z</time>
      </trkpt>
      <trkpt lat="42.5378236547" lon="19.9049082119">
        <ele>1852.60</ele>
        <time>2019-07-04T11:24:56Z</time>
      </trkpt>
      <trkpt lat="42.5379202981" lon="19.9049332738">
        <ele>1853.08</ele>
        <time>2019-07-04T11:25:08Z</time>
      </trkpt>
      <trkpt lat="42.5380275026" lon="19.9049498700">
        <ele>1855.00</ele>
        <time>2019-07-04T11:25:22Z</time>
      </trkpt>
      <trkpt lat="42.5381255709" lon="19.9049440026">
        <ele>1855.48</ele>
        <time>2019-07-04T11:25:36Z</time>
      </trkpt>
      <trkpt lat="42.5381782930" lon="19.9049972277">
        <ele>1856.44</ele>
        <time>2019-07-04T11:25:45Z</time>
      </trkpt>
      <trkpt lat="42.5382638723" lon="19.9050306715">
        <ele>1857.40</ele>
        <time>2019-07-04T11:25:57Z</time>
      </trkpt>
      <trkpt lat="42.5383563247" lon="19.9051009957">
        <ele>1858.85</ele>
        <time>2019-07-04T11:26:10Z</time>
      </trkpt>
      <trkpt lat="42.5384535547" lon="19.9051206931">
        <ele>1860.77</ele>
        <time>2019-07-04T11:26:25Z</time>
      </trkpt>
      <trkpt lat="42.5385242142" lon="19.9050838966">
        <ele>1862.69</ele>
        <time>2019-07-04T11:26:39Z</time>
      </trkpt>
      <trkpt lat="42.5385695603" lon="19.9050424062">
        <ele>1864.61</ele>
        <time>2019-07-04T11:26:50Z</time>
      </trkpt>
      <trkpt lat="42.5385956280" lon="19.9049880076">
        <ele>1866.06</ele>
        <time>2019-07-04T11:27:00Z</time>
      </trkpt>
      <trkpt lat="42.5386092905" lon="19.9049657956">
        <ele>1867.02</ele>
        <time>2019-07-04T11:27:04Z</time>
      </trkpt>
      <trkpt lat="42.5386423990" lon="19.9048863351">
        <ele>1868.94</ele>
        <time>2019-07-04T11:27:16Z</time>
      </trkpt>
      <trkpt lat="42.5386896729" lon="19.9048443418">
        <ele>1870.38</ele>
        <time>2019-07-04T11:27:27Z</time>
      </trkpt>
      <trkpt lat="42.5387211051" lon="19.9048312660">
        <ele>1871.82</ele>
        <time>2019-07-04T11:27:40Z</time>
      </trkpt>
      <trkpt lat="42.5387871545" lon="19.9047806393">
        <ele>1873.75</ele>
        <time>2019-07-04T11:27:54Z</time>
      </trkpt>
      <trkpt lat="42.5389098655" lon="19.9047299288">
        <ele>1875.67</ele>
        <time>2019-07-04T11:28:11Z</time>
      </trkpt>
      <trkpt lat="42.5389428064" lon="19.9047252350">
        <ele>1876.15</ele>
        <time>2019-07-04T11:28:15Z</time>
      </trkpt>
      <trkpt lat="42.5389932655" lon="19.9046973232">
        <ele>1876.63</ele>
        <time>2019-07-04T11:28:21Z</time>
      </trkpt>
      <trkpt lat="42.5390763301" lon="19.9046235625">
        <ele>1878.55</ele>
        <time>2019-07-04T11:28:34Z</time>
      </trkpt>
      <trkpt lat="42.5391464029" lon="19.9045596924">
        <ele>1880.96</ele>
        <time>2019-07-04T11:28:47Z</time>
      </trkpt>
      <trkpt lat="42.5391931739" lon="19.9044969119">
        <ele>1882.88</ele>
        <time>2019-07-04T11:28:58Z</time>
      </trkpt>
      <trkpt lat="42.5392337423" lon="19.9044798128">
        <ele>1883.84</ele>
        <time>2019-07-04T11:29:08Z</time>
      </trkpt>
      <trkpt lat="42.5393545255" lon="19.9045008514">
        <ele>1883.84</ele>
        <time>2019-07-04T11:29:22Z</time>
      </trkpt>
      <trkpt lat="42.5394524261" lon="19.9045410845">
        <ele>1884.32</ele>
        <time>2019-07-04T11:29:37Z</time>
      </trkpt>
      <trkpt lat="42.5395050645" lon="19.9045448564">
        <ele>1886.24</ele>
        <time>2019-07-04T11:29:49Z</time>
      </trkpt>
      <trkpt lat="42.5395494048" lon="19.9045560043">
        <ele>1888.17</ele>
        <time>2019-07-04T11:30:00Z</time>
      </trkpt>
      <trkpt lat="42.5395456329" lon="19.9045202974">
        <ele>1889.61</ele>
        <time>2019-07-04T11:30:11Z</time>
      </trkpt>
      <trkpt lat="42.5395834353" lon="19.9045021925">
        <ele>1892.49</ele>
        <time>2019-07-04T11:30:25Z</time>
      </trkpt>
      <trkpt lat="42.5396307930" lon="19.9045069702">
        <ele>1894.42</ele>
        <time>2019-07-04T11:30:38Z</time>
      </trkpt>
      <trkpt lat="42.5396674220" lon="19.9044272583">
        <ele>1897.30</ele>
        <time>2019-07-04T11:30:53Z</time>
      </trkpt>
      <trkpt lat="42.5397238322" lon="19.9044175353">
        <ele>1899.22</ele>
        <time>2019-07-04T11:31:07Z</time>
      </trkpt>
      <trkpt lat="42.5397829246" lon="19.9043530785">
        <ele>1902.11</ele>
        <time>2019-07-04T11:31:22Z</time>
      </trkpt>
      <trkpt lat="42.5398703478" lon="19.9044125900">
        <ele>1904.51</ele>
        <time>2019-07-04T11:31:35Z</time>
      </trkpt>
      <trkpt lat="42.5398748741" lon="19.9043569341">
        <ele>1904.51</ele>
        <time>2019-07-04T11:31:53Z</time>
      </trkpt>
      <trkpt lat="42.5398691744" lon="19.9043177068">
        <ele>1903.07</ele>
        <time>2019-07-04T11:32:04Z</time>
      </trkpt>
      <trkpt lat="42.5399161968" lon="19.9044030346">
        <ele>1902.59</ele>
        <time>2019-07-04T11:32:32Z</time>
      </trkpt>
      <trkpt lat="42.5399261713" lon="19.9043983407">
        <ele>1903.07</ele>
        <time>2019-07-04T11:33:09Z</time>
      </trkpt>
      <trkpt lat="42.5399070606" lon="19.9044752028">
        <ele>1903.55</ele>
        <time>2019-07-04T11:33:47Z</time>
      </trkpt>
      <trkpt lat="42.5398905482" lon="19.9044670723">
        <ele>1904.03</ele>
        <time>2019-07-04T11:34:17Z</time>
      </trkpt>
      <trkpt lat="42.5398565177" lon="19.9044560082">
        <ele>1904.51</ele>
        <time>2019-07-04T11:34:50Z</time>
      </trkpt>
      <trkpt lat="42.5398561824" lon="19.9044568464">
        <ele>1904.99</ele>
        <time>2019-07-04T11:35:26Z</time>
      </trkpt>
      <trkpt lat="42.5398695096" lon="19.9044597801">
        <ele>1905.95</ele>
        <time>2019-07-04T11:36:11Z</time>
      </trkpt>
      <trkpt lat="42.5398902129" lon="19.9044513144">
        <ele>1906.43</ele>
        <time>2019-07-04T11:36:42Z</time>
      </trkpt>
      <trkpt lat="42.5398863573" lon="19.9044468720">
        <ele>1906.91</ele>
        <time>2019-07-04T11:37:17Z</time>
      </trkpt>
      <trkpt lat="42.5398685876" lon="19.9044644739">
        <ele>1906.91</ele>
        <time>2019-07-04T11:37:42Z</time>
      </trkpt>
      <trkpt lat="42.5398538355" lon="19.9044383224">
        <ele>1908.83</ele>
        <time>2019-07-04T11:38:14Z</time>
      </trkpt>
      <trkpt lat="42.5398457889" lon="19.9044605345">
        <ele>1909.32</ele>
        <time>2019-07-04T11:38:42Z</time>
      </trkpt>
      <trkpt lat="42.5398971699" lon="19.9045355525">
        <ele>1909.80</ele>
        <time>2019-07-04T11:39:13Z</time>
      </trkpt>
      <trkpt lat="42.5398763828" lon="19.9045347981">
        <ele>1910.28</ele>
        <time>2019-07-04T11:39:45Z</time>
      </trkpt>
      <trkpt lat="42.5398479681" lon="19.9044614565">
        <ele>1910.76</ele>
        <time>2019-07-04T11:40:17Z</time>
      </trkpt>
      <trkpt lat="42.5398404244" lon="19.9044528231">
        <ele>1911.72</ele>
        <time>2019-07-04T11:40:43Z</time>
      </trkpt>
      <trkpt lat="42.5398789812" lon="19.9044810701">
        <ele>1911.72</ele>
        <time>2019-07-04T11:41:04Z</time>
      </trkpt>
      <trkpt lat="42.5398720242" lon="19.9044928886">
        <ele>1912.68</ele>
        <time>2019-07-04T11:41:34Z</time>
      </trkpt>
      <trkpt lat="42.5398607925" lon="19.9044174515">
        <ele>1913.16</ele>
        <time>2019-07-04T11:42:06Z</time>
      </trkpt>
      <trkpt lat="42.5398684200" lon="19.9044326227">
        <ele>1913.64</ele>
        <time>2019-07-04T11:42:33Z</time>
      </trkpt>
      <trkpt lat="42.5398547575" lon="19.9044751190">
        <ele>1914.12</ele>
        <time>2019-07-04T11:42:56Z</time>
      </trkpt>
      <trkpt lat="42.5398829207" lon="19.9044757057">
        <ele>1914.60</ele>
        <time>2019-07-04T11:43:24Z</time>
      </trkpt>
      <trkpt lat="42.5398483872" lon="19.9044474587">
        <ele>1915.08</ele>
        <time>2019-07-04T11:43:50Z</time>
      </trkpt>
      <trkpt lat="42.5398495607" lon="19.9044795614">
        <ele>1915.08</ele>
        <time>2019-07-04T11:44:15Z</time>
      </trkpt>
      <trkpt lat="42.5398510695" lon="19.9044648092">
        <ele>1915.56</ele>
        <time>2019-07-04T11:44:36Z</time>
      </trkpt>
      <trkpt lat="42.5398591161" lon="19.9044887815">
        <ele>1916.04</ele>
        <time>2019-07-04T11:45:03Z</time>
      </trkpt>
      <trkpt lat="42.5398628879" lon="19.9044993427">
        <ele>1916.53</ele>
        <time>2019-07-04T11:45:34Z</time>
      </trkpt>
      <trkpt lat="42.5398270972" lon="19.9044892006">
        <ele>1917.01</ele>
        <time>2019-07-04T11:46:02Z</time>
      </trkpt>
      <trkpt lat="42.5398199726" lon="19.9044228159">
        <ele>1917.49</ele>
        <time>2019-07-04T11:46:29Z</time>
      </trkpt>
      <trkpt lat="42.5398232415" lon="19.9044015259">
        <ele>1917.97</ele>
        <time>2019-07-04T11:46:55Z</time>
      </trkpt>
      <trkpt lat="42.5398353953" lon="19.9043888692">
        <ele>1918.45</ele>
        <time>2019-07-04T11:47:19Z</time>
      </trkpt>
      <trkpt lat="42.5398344733" lon="19.9044028670">
        <ele>1918.45</ele>
        <time>2019-07-04T11:47:42Z</time>
      </trkpt>
      <trkpt lat="42.5398558471" lon="19.9044819083">
        <ele>1918.93</ele>
        <time>2019-07-04T11:48:09Z</time>
      </trkpt>
      <trkpt lat="42.5398679171" lon="19.9044753704">
        <ele>1918.93</ele>
        <time>2019-07-04T11:48:41Z</time>
      </trkpt>
      <trkpt lat="42.5398747902" lon="19.9044276774">
        <ele>1919.41</ele>
        <time>2019-07-04T11:49:10Z</time>
      </trkpt>
      <trkpt lat="42.5398496445" lon="19.9044305272">
        <ele>1919.89</ele>
        <time>2019-07-04T11:49:39Z</time>
      </trkpt>
      <trkpt lat="42.5398536678" lon="19.9044445250">
        <ele>1919.89</ele>
        <time>2019-07-04T11:50:11Z</time>
      </trkpt>
      <trkpt lat="42.5398602895" lon="19.9044787232">
        <ele>1920.37</ele>
        <time>2019-07-04T11:50:41Z</time>
      </trkpt>
      <trkpt lat="42.5398596190" lon="19.9044797290">
        <ele>1920.85</ele>
        <time>2019-07-04T11:51:01Z</time>
      </trkpt>
      <trkpt lat="42.5398526620" lon="19.9044726882">
        <ele>1920.85</ele>
        <time>2019-07-04T11:51:27Z</time>
      </trkpt>
      <trkpt lat="42.5398645643" lon="19.9044346344">
        <ele>1921.33</ele>
        <time>2019-07-04T11:51:51Z</time>
      </trkpt>
      <trkpt lat="42.5398581941" lon="19.9044063035">
        <ele>1921.81</ele>
        <time>2019-07-04T11:52:16Z</time>
      </trkpt>
      <trkpt lat="42.5398509018" lon="19.9044058006">
        <ele>1921.81</ele>
        <time>2019-07-04T11:52:43Z</time>
      </trkpt>
      <trkpt lat="42.5398554280" lon="19.9044471234">
        <ele>1922.29</ele>
        <time>2019-07-04T11:53:19Z</time>
      </trkpt>
      <trkpt lat="42.5398741197" lon="19.9044242408">
        <ele>1922.29</ele>
        <time>2019-07-04T11:53:45Z</time>
      </trkpt>
      <trkpt lat="42.5398673303" lon="19.9044216424">
        <ele>1922.77</ele>
        <time>2019-07-04T11:54:11Z</time>
      </trkpt>
      <trkpt lat="42.5398666598" lon="19.9044334609">
        <ele>1922.77</ele>
        <time>2019-07-04T11:54:44Z</time>
      </trkpt>
      <trkpt lat="42.5398703478" lon="19.9043983407">
        <ele>1922.77</ele>
        <time>2019-07-04T11:55:14Z</time>
      </trkpt>
      <trkpt lat="42.5398656540" lon="19.9043918867">
        <ele>1923.25</ele>
        <time>2019-07-04T11:55:42Z</time>
      </trkpt>
      <trkpt lat="42.5398694258" lon="19.9043947365">
        <ele>1923.25</ele>
        <time>2019-07-04T11:56:09Z</time>
      </trkpt>
      <trkpt lat="42.5398522429" lon="19.9044508114">
        <ele>1923.25</ele>
        <time>2019-07-04T11:56:36Z</time>
      </trkpt>
      <trkpt lat="42.5398281869" lon="19.9044161104">
        <ele>1923.74</ele>
        <time>2019-07-04T11:57:04Z</time>
      </trkpt>
      <trkpt lat="42.5398341380" lon="19.9043969158">
        <ele>1924.22</ele>
        <time>2019-07-04T11:57:25Z</time>
      </trkpt>
      <trkpt lat="42.5398559310" lon="19.9043822475">
        <ele>1924.22</ele>
        <time>2019-07-04T11:57:56Z</time>
      </trkpt>
      <trkpt lat="42.5398466270" lon="19.9043530785">
        <ele>1924.70</ele>
        <time>2019-07-04T11:58:28Z</time>
      </trkpt>
      <trkpt lat="42.5398798194" lon="19.9043813255">
        <ele>1924.70</ele>
        <time>2019-07-04T11:58:56Z</time>
      </trkpt>
      <trkpt lat="42.5398887042" lon="19.9044007715">
        <ele>1924.70</ele>
        <time>2019-07-04T11:59:15Z</time>
      </trkpt>
      <trkpt lat="42.5398782268" lon="19.9043814931">
        <ele>1924.70</ele>
        <time>2019-07-04T11:59:41Z</time>
      </trkpt>
      <trkpt lat="42.5398991816" lon="19.9043369852">
        <ele>1925.18</ele>
        <time>2019-07-04T12:00:15Z</time>
      </trkpt>
      <trkpt lat="42.5398963317" lon="19.9043976702">
        <ele>1925.18</ele>
        <time>2019-07-04T12:00:55Z</time>
      </trkpt>
      <trkpt lat="42.5398602895" lon="19.9043607060">
        <ele>1925.18</ele>
        <time>2019-07-04T12:01:18Z</time>
      </trkpt>
      <trkpt lat="42.5398938172" lon="19.9043757096">
        <ele>1925.18</ele>
        <time>2019-07-04T12:01:52Z</time>
      </trkpt>
      <trkpt lat="42.5398798194" lon="19.9043371528">
        <ele>1925.66</ele>
        <time>2019-07-04T12:02:24Z</time>
      </trkpt>
      <trkpt lat="42.5398630556" lon="19.9043752067">
        <ele>1925.66</ele>
        <time>2019-07-04T12:02:49Z</time>
      </trkpt>
      <trkpt lat="42.5398847647" lon="19.9043721054">
        <ele>1925.66</ele>
        <time>2019-07-04T12:03:07Z</time>
      </trkpt>
      <trkpt lat="42.5398647320" lon="19.9043839239">
        <ele>1926.14</ele>
        <time>2019-07-04T12:03:22Z</time>
      </trkpt>
      <trkpt lat="42.5398543384" lon="19.9043877795">
        <ele>1926.14</ele>
        <time>2019-07-04T12:03:30Z</time>
      </trkpt>
      <trkpt lat="42.5398406759" lon="19.9043767154">
        <ele>1926.14</ele>
        <time>2019-07-04T12:03:43Z</time>
      </trkpt>
      <trkpt lat="42.5398408435" lon="19.9042831734">
        <ele>1927.58</ele>
        <time>2019-07-04T12:03:54Z</time>
      </trkpt>
      <trkpt lat="42.5398746226" lon="19.9042373244">
        <ele>1929.50</ele>
        <time>2019-07-04T12:04:06Z</time>
      </trkpt>
      <trkpt lat="42.5398309529" lon="19.9041519966">
        <ele>1931.91</ele>
        <time>2019-07-04T12:04:21Z</time>
      </trkpt>
      <trkpt lat="42.5397985987" lon="19.9040382542">
        <ele>1933.83</ele>
        <time>2019-07-04T12:04:36Z</time>
      </trkpt>
      <trkpt lat="42.5398039632" lon="19.9039792456">
        <ele>1936.23</ele>
        <time>2019-07-04T12:04:47Z</time>
      </trkpt>
      <trkpt lat="42.5397979282" lon="19.9038677663">
        <ele>1938.16</ele>
        <time>2019-07-04T12:05:01Z</time>
      </trkpt>
      <trkpt lat="42.5397472177" lon="19.9037819356">
        <ele>1939.60</ele>
        <time>2019-07-04T12:05:14Z</time>
      </trkpt>
      <trkpt lat="42.5397385005" lon="19.9036996253">
        <ele>1942.00</ele>
        <time>2019-07-04T12:05:32Z</time>
      </trkpt>
      <trkpt lat="42.5397925638" lon="19.9036178179">
        <ele>1944.88</ele>
        <time>2019-07-04T12:05:48Z</time>
      </trkpt>
      <trkpt lat="42.5397064816" lon="19.9035678618">
        <ele>1946.81</ele>
        <time>2019-07-04T12:06:01Z</time>
      </trkpt>
      <trkpt lat="42.5396644883" lon="19.9034838751">
        <ele>1949.21</ele>
        <time>2019-07-04T12:06:15Z</time>
      </trkpt>
      <trkpt lat="42.5396960042" lon="19.9034496769">
        <ele>1951.13</ele>
        <time>2019-07-04T12:06:29Z</time>
      </trkpt>
      <trkpt lat="42.5396887120" lon="19.9033626728">
        <ele>1953.06</ele>
        <time>2019-07-04T12:06:46Z</time>
      </trkpt>
      <trkpt lat="42.5396671705" lon="19.9032705557">
        <ele>1954.98</ele>
        <time>2019-07-04T12:06:58Z</time>
      </trkpt>
      <trkpt lat="42.5396274403" lon="19.9032025784">
        <ele>1956.90</ele>
        <time>2019-07-04T12:07:10Z</time>
      </trkpt>
      <trkpt lat="42.5396287814" lon="19.9031687155">
        <ele>1959.78</ele>
        <time>2019-07-04T12:07:24Z</time>
      </trkpt>
      <trkpt lat="42.5396083295" lon="19.9031222798">
        <ele>1962.19</ele>
        <time>2019-07-04T12:07:38Z</time>
      </trkpt>
      <trkpt lat="42.5395608880" lon="19.9030483514">
        <ele>1965.07</ele>
        <time>2019-07-04T12:07:54Z</time>
      </trkpt>
      <trkpt lat="42.5395406038" lon="19.9030180089">
        <ele>1967.96</ele>
        <time>2019-07-04T12:08:09Z</time>
      </trkpt>
      <trkpt lat="42.5395087525" lon="19.9029529653">
        <ele>1970.36</ele>
        <time>2019-07-04T12:08:24Z</time>
      </trkpt>
      <trkpt lat="42.5395318866" lon="19.9029128999">
        <ele>1972.76</ele>
        <time>2019-07-04T12:08:40Z</time>
      </trkpt>
      <trkpt lat="42.5395286176" lon="19.9028388876">
        <ele>1975.17</ele>
        <time>2019-07-04T12:08:55Z</time>
      </trkpt>
      <trkpt lat="42.5395042263" lon="19.9027827289">
        <ele>1978.05</ele>
        <time>2019-07-04T12:09:11Z</time>
      </trkpt>
      <trkpt lat="42.5394725427" lon="19.9027326051">
        <ele>1980.45</ele>
        <time>2019-07-04T12:09:27Z</time>
      </trkpt>
      <trkpt lat="42.5394467264" lon="19.9026907794">
        <ele>1982.38</ele>
        <time>2019-07-04T12:09:39Z</time>
      </trkpt>
      <trkpt lat="42.5393923279" lon="19.9026632030">
        <ele>1985.74</ele>
        <time>2019-07-04T12:09:54Z</time>
      </trkpt>
      <trkpt lat="42.5393661764" lon="19.9026448466">
        <ele>1987.66</ele>
        <time>2019-07-04T12:10:08Z</time>
      </trkpt>
      <trkpt lat="42.5393328164" lon="19.9026197847">
        <ele>1989.59</ele>
        <time>2019-07-04T12:10:20Z</time>
      </trkpt>
      <trkpt lat="42.5393618178" lon="19.9026025180">
        <ele>1991.99</ele>
        <time>2019-07-04T12:10:35Z</time>
      </trkpt>
      <trkpt lat="42.5393728819" lon="19.9025759473">
        <ele>1994.39</ele>
        <time>2019-07-04T12:10:50Z</time>
      </trkpt>
      <trkpt lat="42.5393654220" lon="19.9025233090">
        <ele>1996.32</ele>
        <time>2019-07-04T12:11:05Z</time>
      </trkpt>
      <trkpt lat="42.5393754803" lon="19.9025052041">
        <ele>1998.24</ele>
        <time>2019-07-04T12:11:19Z</time>
      </trkpt>
      <trkpt lat="42.5393851195" lon="19.9024873506">
        <ele>2001.12</ele>
        <time>2019-07-04T12:11:34Z</time>
      </trkpt>
      <trkpt lat="42.5393417850" lon="19.9024430104">
        <ele>2003.04</ele>
        <time>2019-07-04T12:11:48Z</time>
      </trkpt>
      <trkpt lat="42.5393235963" lon="19.9023695849">
        <ele>2004.49</ele>
        <time>2019-07-04T12:12:04Z</time>
      </trkpt>
      <trkpt lat="42.5393746421" lon="19.9023379013">
        <ele>2006.89</ele>
        <time>2019-07-04T12:12:18Z</time>
      </trkpt>
      <trkpt lat="42.5393351633" lon="19.9022991769">
        <ele>2010.25</ele>
        <time>2019-07-04T12:12:33Z</time>
      </trkpt>
      <trkpt lat="42.5392748974" lon="19.9022700917">
        <ele>2011.70</ele>
        <time>2019-07-04T12:12:46Z</time>
      </trkpt>
      <trkpt lat="42.5392118655" lon="19.9022536632">
        <ele>2013.14</ele>
        <time>2019-07-04T12:12:59Z</time>
      </trkpt>
      <trkpt lat="42.5392664317" lon="19.9022423476">
        <ele>2016.02</ele>
        <time>2019-07-04T12:13:12Z</time>
      </trkpt>
      <trkpt lat="42.5392682757" lon="19.9021781422">
        <ele>2018.43</ele>
        <time>2019-07-04T12:13:28Z</time>
      </trkpt>
      <trkpt lat="42.5392140448" lon="19.9021421000">
        <ele>2021.31</ele>
        <time>2019-07-04T12:13:42Z</time>
      </trkpt>
      <trkpt lat="42.5391777512" lon="19.9020990171">
        <ele>2022.75</ele>
        <time>2019-07-04T12:13:55Z</time>
      </trkpt>
      <trkpt lat="42.5391888991" lon="19.9020777270">
        <ele>2024.67</ele>
        <time>2019-07-04T12:14:09Z</time>
      </trkpt>
      <trkpt lat="42.5392360054" lon="19.9020781461">
        <ele>2027.08</ele>
        <time>2019-07-04T12:14:23Z</time>
      </trkpt>
      <trkpt lat="42.5392837822" lon="19.9020602927">
        <ele>2029.96</ele>
        <time>2019-07-04T12:14:37Z</time>
      </trkpt>
      <trkpt lat="42.5393000431" lon="19.9020068161">
        <ele>2031.88</ele>
        <time>2019-07-04T12:14:49Z</time>
      </trkpt>
      <trkpt lat="42.5392649230" lon="19.9019566923">
        <ele>2034.77</ele>
        <time>2019-07-04T12:15:06Z</time>
      </trkpt>
      <trkpt lat="42.5392447226" lon="19.9019086640">
        <ele>2037.17</ele>
        <time>2019-07-04T12:15:20Z</time>
      </trkpt>
      <trkpt lat="42.5392488297" lon="19.9018778186">
        <ele>2039.57</ele>
        <time>2019-07-04T12:15:35Z</time>
      </trkpt>
      <trkpt lat="42.5392376818" lon="19.9018400162">
        <ele>2041.50</ele>
        <time>2019-07-04T12:15:48Z</time>
      </trkpt>
      <trkpt lat="42.5392143801" lon="19.9018079136">
        <ele>2042.94</ele>
        <time>2019-07-04T12:16:00Z</time>
      </trkpt>
      <trkpt lat="42.5391837861" lon="19.9017623998">
        <ele>2045.34</ele>
        <time>2019-07-04T12:16:13Z</time>
      </trkpt>
      <trkpt lat="42.5391846243" lon="19.9017296266">
        <ele>2046.78</ele>
        <time>2019-07-04T12:16:29Z</time>
      </trkpt>
      <trkpt lat="42.5391849596" lon="19.9016966019">
        <ele>2049.19</ele>
        <time>2019-07-04T12:16:43Z</time>
      </trkpt>
      <trkpt lat="42.5391574670" lon="19.9016973563">
        <ele>2050.63</ele>
        <time>2019-07-04T12:16:55Z</time>
      </trkpt>
      <trkpt lat="42.5391355064" lon="19.9016614817">
        <ele>2053.03</ele>
        <time>2019-07-04T12:17:10Z</time>
      </trkpt>
      <trkpt lat="42.5391199999" lon="19.9016350787">
        <ele>2055.92</ele>
        <time>2019-07-04T12:17:24Z</time>
      </trkpt>
      <trkpt lat="42.5390837062" lon="19.9015771598">
        <ele>2059.28</ele>
        <time>2019-07-04T12:17:40Z</time>
      </trkpt>
      <trkpt lat="42.5390827004" lon="19.9015087634">
        <ele>2060.24</ele>
        <time>2019-07-04T12:17:52Z</time>
      </trkpt>
      <trkpt lat="42.5390822813" lon="19.9015386868">
        <ele>2060.72</ele>
        <time>2019-07-04T12:18:24Z</time>
      </trkpt>
      <trkpt lat="42.5390869752" lon="19.9015617371">
        <ele>2060.72</ele>
        <time>2019-07-04T12:18:39Z</time>
      </trkpt>
      <trkpt lat="42.5390814431" lon="19.9015434645">
        <ele>2060.72</ele>
        <time>2019-07-04T12:19:06Z</time>
      </trkpt>
      <trkpt lat="42.5391001347" lon="19.9015440512">
        <ele>2060.72</ele>
        <time>2019-07-04T12:19:28Z</time>
      </trkpt>
      <trkpt lat="42.5390902441" lon="19.9015323166">
        <ele>2060.72</ele>
        <time>2019-07-04T12:19:44Z</time>
      </trkpt>
      <trkpt lat="42.5390810240" lon="19.9015116133">
        <ele>2060.72</ele>
        <time>2019-07-04T12:20:15Z</time>
      </trkpt>
      <trkpt lat="42.5390562974" lon="19.9014963582">
        <ele>2060.72</ele>
        <time>2019-07-04T12:20:33Z</time>
      </trkpt>
      <trkpt lat="42.5390088558" lon="19.9014840368">
        <ele>2062.17</ele>
        <time>2019-07-04T12:20:47Z</time>
      </trkpt>
      <trkpt lat="42.5389227737" lon="19.9014864676">
        <ele>2063.61</ele>
        <time>2019-07-04T12:21:00Z</time>
      </trkpt>
      <trkpt lat="42.5388597418" lon="19.9015596416">
        <ele>2063.61</ele>
        <time>2019-07-04T12:21:11Z</time>
      </trkpt>
      <trkpt lat="42.5387553032" lon="19.9015555345">
        <ele>2064.09</ele>
        <time>2019-07-04T12:21:25Z</time>
      </trkpt>
      <trkpt lat="42.5386257190" lon="19.9015264492">
        <ele>2065.53</ele>
        <time>2019-07-04T12:21:39Z</time>
      </trkpt>
      <trkpt lat="42.5385223702" lon="19.9015320651">
        <ele>2067.45</ele>
        <time>2019-07-04T12:21:54Z</time>
      </trkpt>
      <trkpt lat="42.5384575780" lon="19.9014971964">
        <ele>2069.86</ele>
        <time>2019-07-04T12:22:06Z</time>
      </trkpt>
      <trkpt lat="42.5384029280" lon="19.9014705420">
        <ele>2072.74</ele>
        <time>2019-07-04T12:22:18Z</time>
      </trkpt>
      <trkpt lat="42.5383512955" lon="19.9014355894">
        <ele>2073.70</ele>
        <time>2019-07-04T12:22:25Z</time>
      </trkpt>
      <trkpt lat="42.5382352900" lon="19.9013863038">
        <ele>2074.18</ele>
        <time>2019-07-04T12:22:40Z</time>
      </trkpt>
      <trkpt lat="42.5381814782" lon="19.9014030676">
        <ele>2074.66</ele>
        <time>2019-07-04T12:22:51Z</time>
      </trkpt>
      <trkpt lat="42.5381806400" lon="19.9014020618">
        <ele>2074.66</ele>
        <time>2019-07-04T12:23:08Z</time>
      </trkpt>
      <trkpt lat="42.5381846633" lon="19.9014120363">
        <ele>2074.66</ele>
        <time>2019-07-04T12:23:27Z</time>
      </trkpt>
      <trkpt lat="42.5381884351" lon="19.9014062528">
        <ele>2075.14</ele>
        <time>2019-07-04T12:23:48Z</time>
      </trkpt>
      <trkpt lat="42.5381350424" lon="19.9013852142">
        <ele>2075.14</ele>
        <time>2019-07-04T12:24:05Z</time>
      </trkpt>
      <trkpt lat="42.5380943902" lon="19.9013127945">
        <ele>2075.14</ele>
        <time>2019-07-04T12:24:16Z</time>
      </trkpt>
      <trkpt lat="42.5380819011" lon="19.9012967851">
        <ele>2073.70</ele>
        <time>2019-07-04T12:24:18Z</time>
      </trkpt>
      <trkpt lat="42.5380817335" lon="19.9012926780">
        <ele>2073.22</ele>
        <time>2019-07-04T12:24:19Z</time>
      </trkpt>
      <trkpt lat="42.5380855054" lon="19.9012705497">
        <ele>2073.22</ele>
        <time>2019-07-04T12:24:21Z</time>
      </trkpt>
      <trkpt lat="42.5379768759" lon="19.9011930171">
        <ele>2071.78</ele>
        <time>2019-07-04T12:24:32Z</time>
      </trkpt>
      <trkpt lat="42.5377772190" lon="19.9011454917">
        <ele>2068.89</ele>
        <time>2019-07-04T12:24:48Z</time>
      </trkpt>
      <trkpt lat="42.5376635604" lon="19.9011093657">
        <ele>2067.93</ele>
        <time>2019-07-04T12:24:58Z</time>
      </trkpt>
      <trkpt lat="42.5375281088" lon="19.9010601640">
        <ele>2064.57</ele>
        <time>2019-07-04T12:25:10Z</time>
      </trkpt>
      <trkpt lat="42.5374055654" lon="19.9010296538">
        <ele>2061.68</ele>
        <time>2019-07-04T12:25:19Z</time>
      </trkpt>
      <trkpt lat="42.5373121072" lon="19.9010202661">
        <ele>2059.76</ele>
        <time>2019-07-04T12:25:27Z</time>
      </trkpt>
      <trkpt lat="42.5371880550" lon="19.9009673763">
        <ele>2056.40</ele>
        <time>2019-07-04T12:25:41Z</time>
      </trkpt>
      <trkpt lat="42.5371798407" lon="19.9009628501">
        <ele>2056.40</ele>
        <time>2019-07-04T12:25:54Z</time>
      </trkpt>
      <trkpt lat="42.5370152202" lon="19.9009443261">
        <ele>2054.96</ele>
        <time>2019-07-04T12:26:08Z</time>
      </trkpt>
      <trkpt lat="42.5368702132" lon="19.9009682145">
        <ele>2053.99</ele>
        <time>2019-07-04T12:26:21Z</time>
      </trkpt>
      <trkpt lat="42.5367007311" lon="19.9009776860">
        <ele>2052.55</ele>
        <time>2019-07-04T12:26:37Z</time>
      </trkpt>
      <trkpt lat="42.5365235377" lon="19.9009617604">
        <ele>2051.11</ele>
        <time>2019-07-04T12:26:53Z</time>
      </trkpt>
      <trkpt lat="42.5364814606" lon="19.9009456672">
        <ele>2050.63</ele>
        <time>2019-07-04T12:26:57Z</time>
      </trkpt>
      <trkpt lat="42.5364214461" lon="19.9009704776">
        <ele>2049.67</ele>
        <time>2019-07-04T12:27:03Z</time>
      </trkpt>
      <trkpt lat="42.5363120623" lon="19.9010146502">
        <ele>2046.78</ele>
        <time>2019-07-04T12:27:17Z</time>
      </trkpt>
      <trkpt lat="42.5362769421" lon="19.9010246247">
        <ele>2046.30</ele>
        <time>2019-07-04T12:27:21Z</time>
      </trkpt>
      <trkpt lat="42.5361169316" lon="19.9010812864">
        <ele>2044.38</ele>
        <time>2019-07-04T12:27:36Z</time>
      </trkpt>
      <trkpt lat="42.5360508822" lon="19.9011010677">
        <ele>2043.90</ele>
        <time>2019-07-04T12:27:41Z</time>
      </trkpt>
      <trkpt lat="42.5360045303" lon="19.9010780174">
        <ele>2042.94</ele>
        <time>2019-07-04T12:27:46Z</time>
      </trkpt>
      <trkpt lat="42.5358550809" lon="19.9010620080">
        <ele>2040.05</ele>
        <time>2019-07-04T12:27:58Z</time>
      </trkpt>
      <trkpt lat="42.5358280912" lon="19.9010570627">
        <ele>2039.09</ele>
        <time>2019-07-04T12:28:00Z</time>
      </trkpt>
      <trkpt lat="42.5356415100" lon="19.9010307435">
        <ele>2036.69</ele>
        <time>2019-07-04T12:28:14Z</time>
      </trkpt>
      <trkpt lat="42.5355258398" lon="19.9010087829">
        <ele>2036.21</ele>
        <time>2019-07-04T12:28:23Z</time>
      </trkpt>
      <trkpt lat="42.5354046375" lon="19.9010408018">
        <ele>2034.29</ele>
        <time>2019-07-04T12:28:34Z</time>
      </trkpt>
      <trkpt lat="42.5353007857" lon="19.9012190010">
        <ele>2031.88</ele>
        <time>2019-07-04T12:28:48Z</time>
      </trkpt>
      <trkpt lat="42.5352505781" lon="19.9012043327">
        <ele>2031.88</ele>
        <time>2019-07-04T12:28:55Z</time>
      </trkpt>
      <trkpt lat="42.5352172181" lon="19.9011848029">
        <ele>2032.84</ele>
        <time>2019-07-04T12:28:59Z</time>
      </trkpt>
      <trkpt lat="42.5351508334" lon="19.9012036622">
        <ele>2033.33</ele>
        <time>2019-07-04T12:29:06Z</time>
      </trkpt>
      <trkpt lat="42.5350916572" lon="19.9012350105">
        <ele>2034.29</ele>
        <time>2019-07-04T12:29:14Z</time>
      </trkpt>
      <trkpt lat="42.5349780824" lon="19.9013570510">
        <ele>2034.77</ele>
        <time>2019-07-04T12:29:29Z</time>
      </trkpt>
      <trkpt lat="42.5348588917" lon="19.9014285486">
        <ele>2033.33</ele>
        <time>2019-07-04T12:29:43Z</time>
      </trkpt>
      <trkpt lat="42.5347151421" lon="19.9014453962">
        <ele>2034.77</ele>
        <time>2019-07-04T12:29:57Z</time>
      </trkpt>
      <trkpt lat="42.5346648507" lon="19.9014556222">
        <ele>2034.77</ele>
        <time>2019-07-04T12:30:01Z</time>
      </trkpt>
      <trkpt lat="42.5345749129" lon="19.9014393613">
        <ele>2033.33</ele>
        <time>2019-07-04T12:30:09Z</time>
      </trkpt>
      <trkpt lat="42.5345649384" lon="19.9014350865">
        <ele>2033.33</ele>
        <time>2019-07-04T12:30:10Z</time>
      </trkpt>
      <trkpt lat="42.5343862362" lon="19.9013235234">
        <ele>2031.88</ele>
        <time>2019-07-04T12:30:26Z</time>
      </trkpt>
      <trkpt lat="42.5343045127" lon="19.9013148062">
        <ele>2031.88</ele>
        <time>2019-07-04T12:30:33Z</time>
      </trkpt>
      <trkpt lat="42.5342823006" lon="19.9013049994">
        <ele>2031.88</ele>
        <time>2019-07-04T12:30:35Z</time>
      </trkpt>
      <trkpt lat="42.5341530517" lon="19.9011946097">
        <ele>2029.48</ele>
        <time>2019-07-04T12:30:50Z</time>
      </trkpt>
      <trkpt lat="42.5341331866" lon="19.9011332542">
        <ele>2029.48</ele>
        <time>2019-07-04T12:30:57Z</time>
      </trkpt>
      <trkpt lat="42.5341294147" lon="19.9011081923">
        <ele>2029.48</ele>
        <time>2019-07-04T12:30:59Z</time>
      </trkpt>
      <trkpt lat="42.5340833981" lon="19.9010364432">
        <ele>2029.00</ele>
        <time>2019-07-04T12:31:09Z</time>
      </trkpt>
      <trkpt lat="42.5339703262" lon="19.9008474313">
        <ele>2026.12</ele>
        <time>2019-07-04T12:31:24Z</time>
      </trkpt>
      <trkpt lat="42.5339596812" lon="19.9008365348">
        <ele>2026.12</ele>
        <time>2019-07-04T12:31:25Z</time>
      </trkpt>
      <trkpt lat="42.5338733476" lon="19.9007701501">
        <ele>2026.12</ele>
        <time>2019-07-04T12:31:35Z</time>
      </trkpt>
      <trkpt lat="42.5338336173" lon="19.9007632770">
        <ele>2027.56</ele>
        <time>2019-07-04T12:31:39Z</time>
      </trkpt>
      <trkpt lat="42.5337846670" lon="19.9007512908">
        <ele>2028.52</ele>
        <time>2019-07-04T12:31:46Z</time>
      </trkpt>
      <trkpt lat="42.5336845033" lon="19.9007279053">
        <ele>2029.00</ele>
        <time>2019-07-04T12:31:57Z</time>
      </trkpt>
      <trkpt lat="42.5336217228" lon="19.9007669650">
        <ele>2030.44</ele>
        <time>2019-07-04T12:32:07Z</time>
      </trkpt>
      <trkpt lat="42.5335289352" lon="19.9007201102">
        <ele>2031.88</ele>
        <time>2019-07-04T12:32:20Z</time>
      </trkpt>
      <trkpt lat="42.5335244928" lon="19.9006836489">
        <ele>2033.81</ele>
        <time>2019-07-04T12:32:25Z</time>
      </trkpt>
      <trkpt lat="42.5335063878" lon="19.9006316811">
        <ele>2034.77</ele>
        <time>2019-07-04T12:32:31Z</time>
      </trkpt>
      <trkpt lat="42.5334308669" lon="19.9005095568">
        <ele>2035.73</ele>
        <time>2019-07-04T12:32:45Z</time>
      </trkpt>
      <trkpt lat="42.5334171206" lon="19.9004975706">
        <ele>2036.21</ele>
        <time>2019-07-04T12:32:47Z</time>
      </trkpt>
      <trkpt lat="42.5333222374" lon="19.9004698265">
        <ele>2038.13</ele>
        <time>2019-07-04T12:33:00Z</time>
      </trkpt>
      <trkpt lat="42.5332759693" lon="19.9004834052">
        <ele>2039.57</ele>
        <time>2019-07-04T12:33:07Z</time>
      </trkpt>
      <trkpt lat="42.5332575291" lon="19.9003930483">
        <ele>2041.02</ele>
        <time>2019-07-04T12:33:18Z</time>
      </trkpt>
      <trkpt lat="42.5331988558" lon="19.9003487919">
        <ele>2043.42</ele>
        <time>2019-07-04T12:33:30Z</time>
      </trkpt>
      <trkpt lat="42.5331750512" lon="19.9003389850">
        <ele>2044.38</ele>
        <time>2019-07-04T12:33:35Z</time>
      </trkpt>
      <trkpt lat="42.5331107620" lon="19.9003415834">
        <ele>2047.26</ele>
        <time>2019-07-04T12:33:48Z</time>
      </trkpt>
      <trkpt lat="42.5330773182" lon="19.9002674036">
        <ele>2049.67</ele>
        <time>2019-07-04T12:34:01Z</time>
      </trkpt>
      <trkpt lat="42.5330525916" lon="19.9002290983">
        <ele>2050.15</ele>
        <time>2019-07-04T12:34:05Z</time>
      </trkpt>
      <trkpt lat="42.5329460576" lon="19.9001386575">
        <ele>2051.59</ele>
        <time>2019-07-04T12:34:17Z</time>
      </trkpt>
      <trkpt lat="42.5328454748" lon="19.9000481330">
        <ele>2053.03</ele>
        <time>2019-07-04T12:34:31Z</time>
      </trkpt>
      <trkpt lat="42.5327406172" lon="19.9000006076">
        <ele>2053.99</ele>
        <time>2019-07-04T12:34:45Z</time>
      </trkpt>
      <trkpt lat="42.5326413754" lon="19.8999670800">
        <ele>2054.96</ele>
        <time>2019-07-04T12:34:59Z</time>
      </trkpt>
      <trkpt lat="42.5326210074" lon="19.8999418505">
        <ele>2055.44</ele>
        <time>2019-07-04T12:35:02Z</time>
      </trkpt>
      <trkpt lat="42.5325739011" lon="19.8999215662">
        <ele>2055.92</ele>
        <time>2019-07-04T12:35:07Z</time>
      </trkpt>
      <trkpt lat="42.5325191673" lon="19.8998476379">
        <ele>2056.88</ele>
        <time>2019-07-04T12:35:16Z</time>
      </trkpt>
      <trkpt lat="42.5324632600" lon="19.8997402657">
        <ele>2058.80</ele>
        <time>2019-07-04T12:35:29Z</time>
      </trkpt>
      <trkpt lat="42.5324053410" lon="19.8996837717">
        <ele>2060.72</ele>
        <time>2019-07-04T12:35:39Z</time>
      </trkpt>
      <trkpt lat="42.5323493499" lon="19.8994682729">
        <ele>2060.72</ele>
        <time>2019-07-04T12:35:55Z</time>
      </trkpt>
      <trkpt lat="42.5322975498" lon="19.8992800154">
        <ele>2061.20</ele>
        <time>2019-07-04T12:36:09Z</time>
      </trkpt>
      <trkpt lat="42.5322553888" lon="19.8992057517">
        <ele>2059.76</ele>
        <time>2019-07-04T12:36:15Z</time>
      </trkpt>
      <trkpt lat="42.5322452467" lon="19.8991704639">
        <ele>2059.76</ele>
        <time>2019-07-04T12:36:17Z</time>
      </trkpt>
      <trkpt lat="42.5322472584" lon="19.8991065938">
        <ele>2059.76</ele>
        <time>2019-07-04T12:36:21Z</time>
      </trkpt>
      <trkpt lat="42.5322473422" lon="19.8990780953">
        <ele>2059.76</ele>
        <time>2019-07-04T12:36:23Z</time>
      </trkpt>
      <trkpt lat="42.5322406366" lon="19.8989794403">
        <ele>2061.20</ele>
        <time>2019-07-04T12:36:31Z</time>
      </trkpt>
      <trkpt lat="42.5322230347" lon="19.8988350201">
        <ele>2063.61</ele>
        <time>2019-07-04T12:36:44Z</time>
      </trkpt>
      <trkpt lat="42.5322157424" lon="19.8986586649">
        <ele>2066.49</ele>
        <time>2019-07-04T12:37:00Z</time>
      </trkpt>
      <trkpt lat="42.5321928598" lon="19.8985371273">
        <ele>2068.41</ele>
        <time>2019-07-04T12:37:12Z</time>
      </trkpt>
      <trkpt lat="42.5321457535" lon="19.8983967304">
        <ele>2070.82</ele>
        <time>2019-07-04T12:37:27Z</time>
      </trkpt>
      <trkpt lat="42.5321135670" lon="19.8982313555">
        <ele>2073.22</ele>
        <time>2019-07-04T12:37:41Z</time>
      </trkpt>
      <trkpt lat="42.5320965517" lon="19.8982017674">
        <ele>2073.70</ele>
        <time>2019-07-04T12:37:44Z</time>
      </trkpt>
      <trkpt lat="42.5320452545" lon="19.8981093150">
        <ele>2074.18</ele>
        <time>2019-07-04T12:37:53Z</time>
      </trkpt>
      <trkpt lat="42.5320263114" lon="19.8980254959">
        <ele>2075.14</ele>
        <time>2019-07-04T12:38:01Z</time>
      </trkpt>
      <trkpt lat="42.5319268182" lon="19.8979085684">
        <ele>2078.03</ele>
        <time>2019-07-04T12:38:16Z</time>
      </trkpt>
      <trkpt lat="42.5318334438" lon="19.8978313711">
        <ele>2079.47</ele>
        <time>2019-07-04T12:38:31Z</time>
      </trkpt>
      <trkpt lat="42.5317967311" lon="19.8978003580">
        <ele>2081.39</ele>
        <time>2019-07-04T12:38:37Z</time>
      </trkpt>
      <trkpt lat="42.5317311846" lon="19.8977895454">
        <ele>2082.83</ele>
        <time>2019-07-04T12:38:46Z</time>
      </trkpt>
      <trkpt lat="42.5316143408" lon="19.8978224862">
        <ele>2084.76</ele>
        <time>2019-07-04T12:39:00Z</time>
      </trkpt>
      <trkpt lat="42.5315156020" lon="19.8978055548">
        <ele>2087.64</ele>
        <time>2019-07-04T12:39:13Z</time>
      </trkpt>
      <trkpt lat="42.5314746983" lon="19.8977820016">
        <ele>2087.64</ele>
        <time>2019-07-04T12:39:18Z</time>
      </trkpt>
      <trkpt lat="42.5313830003" lon="19.8976993561">
        <ele>2090.04</ele>
        <time>2019-07-04T12:39:31Z</time>
      </trkpt>
      <trkpt lat="42.5312672462" lon="19.8975541815">
        <ele>2092.93</ele>
        <time>2019-07-04T12:39:48Z</time>
      </trkpt>
      <trkpt lat="42.5312364008" lon="19.8975074943">
        <ele>2093.89</ele>
        <time>2019-07-04T12:39:53Z</time>
      </trkpt>
      <trkpt lat="42.5312223192" lon="19.8974957597">
        <ele>2093.89</ele>
        <time>2019-07-04T12:39:55Z</time>
      </trkpt>
      <trkpt lat="42.5310936570" lon="19.8973748926">
        <ele>2096.29</ele>
        <time>2019-07-04T12:40:12Z</time>
      </trkpt>
      <trkpt lat="42.5309613906" lon="19.8972473200">
        <ele>2098.70</ele>
        <time>2019-07-04T12:40:29Z</time>
      </trkpt>
      <trkpt lat="42.5308387633" lon="19.8971125390">
        <ele>2099.66</ele>
        <time>2019-07-04T12:40:44Z</time>
      </trkpt>
      <trkpt lat="42.5307447184" lon="19.8969919235">
        <ele>2100.14</ele>
        <time>2019-07-04T12:40:56Z</time>
      </trkpt>
      <trkpt lat="42.5306037348" lon="19.8968309071">
        <ele>2100.14</ele>
        <time>2019-07-04T12:41:10Z</time>
      </trkpt>
      <trkpt lat="42.5304869749" lon="19.8966968805">
        <ele>2101.10</ele>
        <time>2019-07-04T12:41:25Z</time>
      </trkpt>
      <trkpt lat="42.5303838775" lon="19.8965874128">
        <ele>2101.10</ele>
        <time>2019-07-04T12:41:36Z</time>
      </trkpt>
      <trkpt lat="42.5303184148" lon="19.8965216987">
        <ele>2101.10</ele>
        <time>2019-07-04T12:41:51Z</time>
      </trkpt>
      <trkpt lat="42.5302936044" lon="19.8964878358">
        <ele>2101.10</ele>
        <time>2019-07-04T12:42:10Z</time>
      </trkpt>
      <trkpt lat="42.5302672852" lon="19.8964730836">
        <ele>2101.10</ele>
        <time>2019-07-04T12:42:24Z</time>
      </trkpt>
      <trkpt lat="42.5302615855" lon="19.8964543920">
        <ele>2101.10</ele>
        <time>2019-07-04T12:42:27Z</time>
      </trkpt>
      <trkpt lat="42.5300703943" lon="19.8963089660">
        <ele>2101.10</ele>
        <time>2019-07-04T12:42:45Z</time>
      </trkpt>
      <trkpt lat="42.5298618525" lon="19.8961741850">
        <ele>2100.14</ele>
        <time>2019-07-04T12:43:02Z</time>
      </trkpt>
      <trkpt lat="42.5296445936" lon="19.8960534018">
        <ele>2097.73</ele>
        <time>2019-07-04T12:43:19Z</time>
      </trkpt>
      <trkpt lat="42.5294084754" lon="19.8959698342">
        <ele>2096.29</ele>
        <time>2019-07-04T12:43:36Z</time>
      </trkpt>
      <trkpt lat="42.5293051265" lon="19.8959231470">
        <ele>2094.37</ele>
        <time>2019-07-04T12:43:46Z</time>
      </trkpt>
      <trkpt lat="42.5292791426" lon="19.8959030304">
        <ele>2094.37</ele>
        <time>2019-07-04T12:43:49Z</time>
      </trkpt>
      <trkpt lat="42.5290438626" lon="19.8958646413">
        <ele>2091.49</ele>
        <time>2019-07-04T12:44:07Z</time>
      </trkpt>
      <trkpt lat="42.5288341474" lon="19.8958413396">
        <ele>2089.08</ele>
        <time>2019-07-04T12:44:23Z</time>
      </trkpt>
      <trkpt lat="42.5286547747" lon="19.8957757093">
        <ele>2085.72</ele>
        <time>2019-07-04T12:44:36Z</time>
      </trkpt>
      <trkpt lat="42.5284244400" lon="19.8956452031">
        <ele>2082.83</ele>
        <time>2019-07-04T12:44:53Z</time>
      </trkpt>
      <trkpt lat="42.5282480009" lon="19.8955746274">
        <ele>2079.95</ele>
        <time>2019-07-04T12:45:05Z</time>
      </trkpt>
      <trkpt lat="42.5279802829" lon="19.8955167923">
        <ele>2077.07</ele>
        <time>2019-07-04T12:45:23Z</time>
      </trkpt>
      <trkpt lat="42.5277426559" lon="19.8954900540">
        <ele>2076.59</ele>
        <time>2019-07-04T12:45:41Z</time>
      </trkpt>
      <trkpt lat="42.5275406521" lon="19.8954586219">
        <ele>2077.55</ele>
        <time>2019-07-04T12:45:57Z</time>
      </trkpt>
      <trkpt lat="42.5273474492" lon="19.8953493219">
        <ele>2078.03</ele>
        <time>2019-07-04T12:46:14Z</time>
      </trkpt>
      <trkpt lat="42.5271935575" lon="19.8952203244">
        <ele>2078.99</ele>
        <time>2019-07-04T12:46:29Z</time>
      </trkpt>
      <trkpt lat="42.5270704273" lon="19.8950737249">
        <ele>2079.95</ele>
        <time>2019-07-04T12:46:43Z</time>
      </trkpt>
      <trkpt lat="42.5270512328" lon="19.8950547818">
        <ele>2080.43</ele>
        <time>2019-07-04T12:46:45Z</time>
      </trkpt>
      <trkpt lat="42.5269379094" lon="19.8948583100">
        <ele>2081.39</ele>
        <time>2019-07-04T12:47:00Z</time>
      </trkpt>
      <trkpt lat="42.5268518273" lon="19.8946790211">
        <ele>2082.35</ele>
        <time>2019-07-04T12:47:13Z</time>
      </trkpt>
      <trkpt lat="42.5267730374" lon="19.8945059348">
        <ele>2083.79</ele>
        <time>2019-07-04T12:47:26Z</time>
      </trkpt>
      <trkpt lat="42.5266833510" lon="19.8942946270">
        <ele>2084.28</ele>
        <time>2019-07-04T12:47:42Z</time>
      </trkpt>
      <trkpt lat="42.5265731290" lon="19.8941249773">
        <ele>2085.24</ele>
        <time>2019-07-04T12:47:56Z</time>
      </trkpt>
      <trkpt lat="42.5264567044" lon="19.8939976562">
        <ele>2085.72</ele>
        <time>2019-07-04T12:48:09Z</time>
      </trkpt>
      <trkpt lat="42.5263189059" lon="19.8937666509">
        <ele>2085.72</ele>
        <time>2019-07-04T12:48:27Z</time>
      </trkpt>
      <trkpt lat="42.5261792634" lon="19.8935788125">
        <ele>2086.68</ele>
        <time>2019-07-04T12:48:43Z</time>
      </trkpt>
      <trkpt lat="42.5260472484" lon="19.8933971766">
        <ele>2088.60</ele>
        <time>2019-07-04T12:49:00Z</time>
      </trkpt>
      <trkpt lat="42.5260360166" lon="19.8933711927">
        <ele>2088.60</ele>
        <time>2019-07-04T12:49:02Z</time>
      </trkpt>
      <trkpt lat="42.5259345956" lon="19.8932013754">
        <ele>2090.52</ele>
        <time>2019-07-04T12:49:16Z</time>
      </trkpt>
      <trkpt lat="42.5258113816" lon="19.8930305522">
        <ele>2091.97</ele>
        <time>2019-07-04T12:49:32Z</time>
      </trkpt>
      <trkpt lat="42.5256900955" lon="19.8928571306">
        <ele>2093.41</ele>
        <time>2019-07-04T12:49:47Z</time>
      </trkpt>
      <trkpt lat="42.5255740061" lon="19.8927311506">
        <ele>2096.29</ele>
        <time>2019-07-04T12:50:03Z</time>
      </trkpt>
      <trkpt lat="42.5254638679" lon="19.8926195037">
        <ele>2099.18</ele>
        <time>2019-07-04T12:50:18Z</time>
      </trkpt>
      <trkpt lat="42.5253716670" lon="19.8925135564">
        <ele>2101.10</ele>
        <time>2019-07-04T12:50:31Z</time>
      </trkpt>
      <trkpt lat="42.5252479501" lon="19.8924102075">
        <ele>2102.54</ele>
        <time>2019-07-04T12:50:45Z</time>
      </trkpt>
      <trkpt lat="42.5250470359" lon="19.8924133927">
        <ele>2103.02</ele>
        <time>2019-07-04T12:51:02Z</time>
      </trkpt>
      <trkpt lat="42.5248566829" lon="19.8923910130">
        <ele>2103.50</ele>
        <time>2019-07-04T12:51:18Z</time>
      </trkpt>
      <trkpt lat="42.5248042960" lon="19.8923492711">
        <ele>2103.50</ele>
        <time>2019-07-04T12:51:23Z</time>
      </trkpt>
      <trkpt lat="42.5246377476" lon="19.8923604190">
        <ele>2102.54</ele>
        <time>2019-07-04T12:51:39Z</time>
      </trkpt>
      <trkpt lat="42.5245052297" lon="19.8924505245">
        <ele>2101.10</ele>
        <time>2019-07-04T12:51:52Z</time>
      </trkpt>
      <trkpt lat="42.5245163776" lon="19.8924427293">
        <ele>2101.10</ele>
        <time>2019-07-04T12:52:10Z</time>
      </trkpt>
      <trkpt lat="42.5245130248" lon="19.8924395442">
        <ele>2101.10</ele>
        <time>2019-07-04T12:52:39Z</time>
      </trkpt>
      <trkpt lat="42.5245090853" lon="19.8924375325">
        <ele>2101.10</ele>
        <time>2019-07-04T12:53:00Z</time>
      </trkpt>
      <trkpt lat="42.5245067384" lon="19.8924461659">
        <ele>2101.10</ele>
        <time>2019-07-04T12:53:18Z</time>
      </trkpt>
      <trkpt lat="42.5245014578" lon="19.8924553860">
        <ele>2101.58</ele>
        <time>2019-07-04T12:53:27Z</time>
      </trkpt>
      <trkpt lat="42.5244518369" lon="19.8925950285">
        <ele>2101.10</ele>
        <time>2019-07-04T12:53:39Z</time>
      </trkpt>
      <trkpt lat="42.5243458059" lon="19.8926247004">
        <ele>2099.66</ele>
        <time>2019-07-04T12:53:47Z</time>
      </trkpt>
      <trkpt lat="42.5242356677" lon="19.8926844634">
        <ele>2098.21</ele>
        <time>2019-07-04T12:53:55Z</time>
      </trkpt>
      <trkpt lat="42.5241387729" lon="19.8927042447">
        <ele>2096.29</ele>
        <time>2019-07-04T12:54:03Z</time>
      </trkpt>
      <trkpt lat="42.5240788423" lon="19.8927867226">
        <ele>2093.41</ele>
        <time>2019-07-04T12:54:11Z</time>
      </trkpt>
      <trkpt lat="42.5239806902" lon="19.8928374331">
        <ele>2091.49</ele>
        <time>2019-07-04T12:54:18Z</time>
      </trkpt>
      <trkpt lat="42.5239421334" lon="19.8928895686">
        <ele>2091.00</ele>
        <time>2019-07-04T12:54:22Z</time>
      </trkpt>
      <trkpt lat="42.5238265470" lon="19.8929945938">
        <ele>2088.12</ele>
        <time>2019-07-04T12:54:33Z</time>
      </trkpt>
      <trkpt lat="42.5237259641" lon="19.8930382635">
        <ele>2086.20</ele>
        <time>2019-07-04T12:54:42Z</time>
      </trkpt>
      <trkpt lat="42.5236012414" lon="19.8931481503">
        <ele>2082.83</ele>
        <time>2019-07-04T12:54:53Z</time>
      </trkpt>
      <trkpt lat="42.5234305859" lon="19.8932372499">
        <ele>2079.47</ele>
        <time>2019-07-04T12:55:06Z</time>
      </trkpt>
      <trkpt lat="42.5232920330" lon="19.8933036346">
        <ele>2076.59</ele>
        <time>2019-07-04T12:55:18Z</time>
      </trkpt>
      <trkpt lat="42.5231391471" lon="19.8934050556">
        <ele>2073.70</ele>
        <time>2019-07-04T12:55:30Z</time>
      </trkpt>
      <trkpt lat="42.5230285060" lon="19.8934759665">
        <ele>2072.26</ele>
        <time>2019-07-04T12:55:39Z</time>
      </trkpt>
      <trkpt lat="42.5227971654" lon="19.8936552554">
        <ele>2071.30</ele>
        <time>2019-07-04T12:55:59Z</time>
      </trkpt>
      <trkpt lat="42.5226637255" lon="19.8937617894">
        <ele>2067.93</ele>
        <time>2019-07-04T12:56:11Z</time>
      </trkpt>
      <trkpt lat="42.5224827603" lon="19.8939392343">
        <ele>2066.01</ele>
        <time>2019-07-04T12:56:27Z</time>
      </trkpt>
      <trkpt lat="42.5222851988" lon="19.8940858338">
        <ele>2063.13</ele>
        <time>2019-07-04T12:56:43Z</time>
      </trkpt>
      <trkpt lat="42.5220914092" lon="19.8942497838">
        <ele>2061.68</ele>
        <time>2019-07-04T12:56:59Z</time>
      </trkpt>
      <trkpt lat="42.5219218433" lon="19.8943986464">
        <ele>2060.24</ele>
        <time>2019-07-04T12:57:14Z</time>
      </trkpt>
      <trkpt lat="42.5217829552" lon="19.8944581579">
        <ele>2059.76</ele>
        <time>2019-07-04T12:57:29Z</time>
      </trkpt>
      <trkpt lat="42.5215829629" lon="19.8945318349">
        <ele>2056.88</ele>
        <time>2019-07-04T12:57:45Z</time>
      </trkpt>
      <trkpt lat="42.5215547159" lon="19.8945242912">
        <ele>2056.40</ele>
        <time>2019-07-04T12:57:47Z</time>
      </trkpt>
      <trkpt lat="42.5215115491" lon="19.8944900930">
        <ele>2055.44</ele>
        <time>2019-07-04T12:57:52Z</time>
      </trkpt>
      <trkpt lat="42.5214890856" lon="19.8945718165">
        <ele>2053.51</ele>
        <time>2019-07-04T12:57:58Z</time>
      </trkpt>
      <trkpt lat="42.5215015747" lon="19.8946268857">
        <ele>2052.07</ele>
        <time>2019-07-04T12:58:02Z</time>
      </trkpt>
      <trkpt lat="42.5215042569" lon="19.8946626764">
        <ele>2051.11</ele>
        <time>2019-07-04T12:58:05Z</time>
      </trkpt>
      <trkpt lat="42.5214278977" lon="19.8947226908">
        <ele>2048.23</ele>
        <time>2019-07-04T12:58:13Z</time>
      </trkpt>
      <trkpt lat="42.5214185100" lon="19.8947513569">
        <ele>2047.75</ele>
        <time>2019-07-04T12:58:15Z</time>
      </trkpt>
      <trkpt lat="42.5213928614" lon="19.8947827891">
        <ele>2047.26</ele>
        <time>2019-07-04T12:58:18Z</time>
      </trkpt>
      <trkpt lat="42.5213493593" lon="19.8948443122">
        <ele>2044.38</ele>
        <time>2019-07-04T12:58:23Z</time>
      </trkpt>
      <trkpt lat="42.5212580804" lon="19.8949122056">
        <ele>2041.98</ele>
        <time>2019-07-04T12:58:31Z</time>
      </trkpt>
      <trkpt lat="42.5212336052" lon="19.8950080108">
        <ele>2039.57</ele>
        <time>2019-07-04T12:58:37Z</time>
      </trkpt>
      <trkpt lat="42.5211511273" lon="19.8951902334">
        <ele>2036.21</ele>
        <time>2019-07-04T12:58:49Z</time>
      </trkpt>
      <trkpt lat="42.5210231356" lon="19.8952929955">
        <ele>2033.33</ele>
        <time>2019-07-04T12:59:00Z</time>
      </trkpt>
      <trkpt lat="42.5209556613" lon="19.8953638226">
        <ele>2032.36</ele>
        <time>2019-07-04T12:59:07Z</time>
      </trkpt>
      <trkpt lat="42.5208896119" lon="19.8954470549">
        <ele>2030.92</ele>
        <time>2019-07-04T12:59:14Z</time>
      </trkpt>
      <trkpt lat="42.5208395720" lon="19.8955321312">
        <ele>2029.96</ele>
        <time>2019-07-04T12:59:20Z</time>
      </trkpt>
      <trkpt lat="42.5206528232" lon="19.8956464604">
        <ele>2026.60</ele>
        <time>2019-07-04T12:59:34Z</time>
      </trkpt>
      <trkpt lat="42.5205937307" lon="19.8956538364">
        <ele>2025.64</ele>
        <time>2019-07-04T12:59:38Z</time>
      </trkpt>
      <trkpt lat="42.5205405895" lon="19.8956458736">
        <ele>2025.64</ele>
        <time>2019-07-04T12:59:42Z</time>
      </trkpt>
      <trkpt lat="42.5204792339" lon="19.8956472985">
        <ele>2025.64</ele>
        <time>2019-07-04T12:59:46Z</time>
      </trkpt>
      <trkpt lat="42.5204329658" lon="19.8956591170">
        <ele>2025.64</ele>
        <time>2019-07-04T12:59:50Z</time>
      </trkpt>
      <trkpt lat="42.5203808304" lon="19.8956932314">
        <ele>2025.15</ele>
        <time>2019-07-04T13:00:05Z</time>
      </trkpt>
      <trkpt lat="42.5202476420" lon="19.8957435228">
        <ele>2025.15</ele>
        <time>2019-07-04T13:00:19Z</time>
      </trkpt>
      <trkpt lat="42.5202332251" lon="19.8957493901">
        <ele>2025.15</ele>
        <time>2019-07-04T13:00:21Z</time>
      </trkpt>
      <trkpt lat="42.5202005357" lon="19.8957310338">
        <ele>2025.15</ele>
        <time>2019-07-04T13:00:24Z</time>
      </trkpt>
      <trkpt lat="42.5201417785" lon="19.8957675789">
        <ele>2024.19</ele>
        <time>2019-07-04T13:00:29Z</time>
      </trkpt>
      <trkpt lat="42.5199965201" lon="19.8958959058">
        <ele>2021.79</ele>
        <time>2019-07-04T13:00:42Z</time>
      </trkpt>
      <trkpt lat="42.5199151319" lon="19.8959461134">
        <ele>2020.83</ele>
        <time>2019-07-04T13:00:50Z</time>
      </trkpt>
      <trkpt lat="42.5197251141" lon="19.8961112369">
        <ele>2017.94</ele>
        <time>2019-07-04T13:01:05Z</time>
      </trkpt>
      <trkpt lat="42.5196968671" lon="19.8961595166">
        <ele>2016.98</ele>
        <time>2019-07-04T13:01:09Z</time>
      </trkpt>
      <trkpt lat="42.5195599906" lon="19.8963448405">
        <ele>2014.58</ele>
        <time>2019-07-04T13:01:23Z</time>
      </trkpt>
      <trkpt lat="42.5194457453" lon="19.8964768555">
        <ele>2015.54</ele>
        <time>2019-07-04T13:01:38Z</time>
      </trkpt>
      <trkpt lat="42.5193452463" lon="19.8966101278">
        <ele>2015.54</ele>
        <time>2019-07-04T13:01:51Z</time>
      </trkpt>
      <trkpt lat="42.5193112995" lon="19.8966435716">
        <ele>2015.06</ele>
        <time>2019-07-04T13:01:55Z</time>
      </trkpt>
      <trkpt lat="42.5192647800" lon="19.8967101239">
        <ele>2015.06</ele>
        <time>2019-07-04T13:02:00Z</time>
      </trkpt>
      <trkpt lat="42.5191793684" lon="19.8968081083">
        <ele>2015.06</ele>
        <time>2019-07-04T13:02:10Z</time>
      </trkpt>
      <trkpt lat="42.5191629399" lon="19.8968446534">
        <ele>2015.06</ele>
        <time>2019-07-04T13:02:13Z</time>
      </trkpt>
      <trkpt lat="42.5189981516" lon="19.8969902471">
        <ele>2015.06</ele>
        <time>2019-07-04T13:02:29Z</time>
      </trkpt>
      <trkpt lat="42.5189131591" lon="19.8970365152">
        <ele>2015.06</ele>
        <time>2019-07-04T13:02:37Z</time>
      </trkpt>
      <trkpt lat="42.5188449305" lon="19.8970536981">
        <ele>2015.06</ele>
        <time>2019-07-04T13:02:42Z</time>
      </trkpt>
      <trkpt lat="42.5187063776" lon="19.8971685302">
        <ele>2015.06</ele>
        <time>2019-07-04T13:02:55Z</time>
      </trkpt>
      <trkpt lat="42.5186960679" lon="19.8971657641">
        <ele>2015.06</ele>
        <time>2019-07-04T13:02:56Z</time>
      </trkpt>
      <trkpt lat="42.5186318625" lon="19.8971379362">
        <ele>2013.62</ele>
        <time>2019-07-04T13:03:01Z</time>
      </trkpt>
      <trkpt lat="42.5185640529" lon="19.8971382715">
        <ele>2013.62</ele>
        <time>2019-07-04T13:03:07Z</time>
      </trkpt>
      <trkpt lat="42.5184458680" lon="19.8971905746">
        <ele>2013.62</ele>
        <time>2019-07-04T13:03:18Z</time>
      </trkpt>
      <trkpt lat="42.5183881167" lon="19.8972261976">
        <ele>2012.18</ele>
        <time>2019-07-04T13:03:23Z</time>
      </trkpt>
      <trkpt lat="42.5182428584" lon="19.8972934205">
        <ele>2010.73</ele>
        <time>2019-07-04T13:03:35Z</time>
      </trkpt>
      <trkpt lat="42.5180641562" lon="19.8972204141">
        <ele>2006.89</ele>
        <time>2019-07-04T13:03:48Z</time>
      </trkpt>
      <trkpt lat="42.5180077460" lon="19.8971862160">
        <ele>2005.93</ele>
        <time>2019-07-04T13:03:52Z</time>
      </trkpt>
      <trkpt lat="42.5179202389" lon="19.8971194122">
        <ele>2007.37</ele>
        <time>2019-07-04T13:04:02Z</time>
      </trkpt>
      <trkpt lat="42.5179009605" lon="19.8971051630">
        <ele>2007.85</ele>
        <time>2019-07-04T13:04:04Z</time>
      </trkpt>
      <trkpt lat="42.5178707857" lon="19.8971006367">
        <ele>2007.85</ele>
        <time>2019-07-04T13:04:07Z</time>
      </trkpt>
      <trkpt lat="42.5176854618" lon="19.8971609026">
        <ele>2007.85</ele>
        <time>2019-07-04T13:04:23Z</time>
      </trkpt>
      <trkpt lat="42.5175956078" lon="19.8972842842">
        <ele>2009.29</ele>
        <time>2019-07-04T13:04:35Z</time>
      </trkpt>
      <trkpt lat="42.5174605753" lon="19.8974245973">
        <ele>2010.73</ele>
        <time>2019-07-04T13:04:50Z</time>
      </trkpt>
      <trkpt lat="42.5173123833" lon="19.8975559417">
        <ele>2010.25</ele>
        <time>2019-07-04T13:05:04Z</time>
      </trkpt>
      <trkpt lat="42.5172490161" lon="19.8976210691">
        <ele>2009.29</ele>
        <time>2019-07-04T13:05:10Z</time>
      </trkpt>
      <trkpt lat="42.5171376206" lon="19.8977176286">
        <ele>2008.33</ele>
        <time>2019-07-04T13:05:20Z</time>
      </trkpt>
      <trkpt lat="42.5170314219" lon="19.8978127632">
        <ele>2009.77</ele>
        <time>2019-07-04T13:05:31Z</time>
      </trkpt>
      <trkpt lat="42.5169886742" lon="19.8978680838">
        <ele>2010.25</ele>
        <time>2019-07-04T13:05:37Z</time>
      </trkpt>
      <trkpt lat="42.5168041885" lon="19.8980208859">
        <ele>2008.81</ele>
        <time>2019-07-04T13:05:54Z</time>
      </trkpt>
      <trkpt lat="42.5166818127" lon="19.8981492966">
        <ele>2007.85</ele>
        <time>2019-07-04T13:06:06Z</time>
      </trkpt>
      <trkpt lat="42.5166213792" lon="19.8983709142">
        <ele>2004.49</ele>
        <time>2019-07-04T13:06:20Z</time>
      </trkpt>
      <trkpt lat="42.5166083872" lon="19.8984481115">
        <ele>2003.04</ele>
        <time>2019-07-04T13:06:25Z</time>
      </trkpt>
      <trkpt lat="42.5165968202" lon="19.8984828126">
        <ele>2002.08</ele>
        <time>2019-07-04T13:06:27Z</time>
      </trkpt>
      <trkpt lat="42.5165657233" lon="19.8985590041">
        <ele>2000.16</ele>
        <time>2019-07-04T13:06:32Z</time>
      </trkpt>
      <trkpt lat="42.5165608618" lon="19.8986326810">
        <ele>1999.68</ele>
        <time>2019-07-04T13:06:36Z</time>
      </trkpt>
      <trkpt lat="42.5164391566" lon="19.8988437373">
        <ele>1998.24</ele>
        <time>2019-07-04T13:06:52Z</time>
      </trkpt>
      <trkpt lat="42.5163365621" lon="19.8989663646">
        <ele>1997.76</ele>
        <time>2019-07-04T13:07:06Z</time>
      </trkpt>
      <trkpt lat="42.5163242407" lon="19.8989731539">
        <ele>1997.76</ele>
        <time>2019-07-04T13:07:12Z</time>
      </trkpt>
      <trkpt lat="42.5162836723" lon="19.8989762552">
        <ele>1997.28</ele>
        <time>2019-07-04T13:07:27Z</time>
      </trkpt>
      <trkpt lat="42.5162095763" lon="19.8989723995">
        <ele>1996.32</ele>
        <time>2019-07-04T13:07:40Z</time>
      </trkpt>
      <trkpt lat="42.5161594525" lon="19.8989788536">
        <ele>1996.32</ele>
        <time>2019-07-04T13:07:44Z</time>
      </trkpt>
      <trkpt lat="42.5160782319" lon="19.8989376146">
        <ele>1996.32</ele>
        <time>2019-07-04T13:07:52Z</time>
      </trkpt>
      <trkpt lat="42.5160153676" lon="19.8989647720">
        <ele>1996.32</ele>
        <time>2019-07-04T13:07:59Z</time>
      </trkpt>
      <trkpt lat="42.5158846937" lon="19.8989903368">
        <ele>1993.43</ele>
        <time>2019-07-04T13:08:12Z</time>
      </trkpt>
      <trkpt lat="42.5158697739" lon="19.8989961203">
        <ele>1992.47</ele>
        <time>2019-07-04T13:08:14Z</time>
      </trkpt>
      <trkpt lat="42.5157810934" lon="19.8990306538">
        <ele>1989.10</ele>
        <time>2019-07-04T13:08:22Z</time>
      </trkpt>
      <trkpt lat="42.5156961009" lon="19.8990914226">
        <ele>1986.22</ele>
        <time>2019-07-04T13:08:30Z</time>
      </trkpt>
      <trkpt lat="42.5156421214" lon="19.8990777601">
        <ele>1985.26</ele>
        <time>2019-07-04T13:08:34Z</time>
      </trkpt>
      <trkpt lat="42.5156032294" lon="19.8990273010">
        <ele>1983.82</ele>
        <time>2019-07-04T13:08:38Z</time>
      </trkpt>
      <trkpt lat="42.5154860504" lon="19.8989758361">
        <ele>1980.45</ele>
        <time>2019-07-04T13:08:50Z</time>
      </trkpt>
      <trkpt lat="42.5154401176" lon="19.8989553005">
        <ele>1979.49</ele>
        <time>2019-07-04T13:08:54Z</time>
      </trkpt>
      <trkpt lat="42.5153029058" lon="19.8989563901">
        <ele>1977.09</ele>
        <time>2019-07-04T13:09:04Z</time>
      </trkpt>
      <trkpt lat="42.5150946155" lon="19.8990043346">
        <ele>1973.24</ele>
        <time>2019-07-04T13:09:21Z</time>
      </trkpt>
      <trkpt lat="42.5149251334" lon="19.8990067653">
        <ele>1971.32</ele>
        <time>2019-07-04T13:09:35Z</time>
      </trkpt>
      <trkpt lat="42.5147717446" lon="19.8990299832">
        <ele>1969.88</ele>
        <time>2019-07-04T13:09:48Z</time>
      </trkpt>
      <trkpt lat="42.5145847443" lon="19.8990172427">
        <ele>1968.44</ele>
        <time>2019-07-04T13:10:02Z</time>
      </trkpt>
      <trkpt lat="42.5144567527" lon="19.8989287298">
        <ele>1968.44</ele>
        <time>2019-07-04T13:10:14Z</time>
      </trkpt>
      <trkpt lat="42.5142541621" lon="19.8987937812">
        <ele>1967.96</ele>
        <time>2019-07-04T13:10:31Z</time>
      </trkpt>
      <trkpt lat="42.5141861849" lon="19.8987607565">
        <ele>1967.96</ele>
        <time>2019-07-04T13:10:38Z</time>
      </trkpt>
      <trkpt lat="42.5141467899" lon="19.8987588286">
        <ele>1966.99</ele>
        <time>2019-07-04T13:10:42Z</time>
      </trkpt>
      <trkpt lat="42.5140882004" lon="19.8987378739">
        <ele>1965.55</ele>
        <time>2019-07-04T13:10:47Z</time>
      </trkpt>
      <trkpt lat="42.5140403397" lon="19.8987585772">
        <ele>1964.59</ele>
        <time>2019-07-04T13:10:51Z</time>
      </trkpt>
      <trkpt lat="42.5139498990" lon="19.8987258039">
        <ele>1963.15</ele>
        <time>2019-07-04T13:10:58Z</time>
      </trkpt>
      <trkpt lat="42.5137623958" lon="19.8985771090">
        <ele>1961.23</ele>
        <time>2019-07-04T13:11:15Z</time>
      </trkpt>
      <trkpt lat="42.5137535110" lon="19.8985673022">
        <ele>1960.75</ele>
        <time>2019-07-04T13:11:16Z</time>
      </trkpt>
      <trkpt lat="42.5136183109" lon="19.8985451739">
        <ele>1958.34</ele>
        <time>2019-07-04T13:11:30Z</time>
      </trkpt>
      <trkpt lat="42.5135269482" lon="19.8984938767">
        <ele>1955.94</ele>
        <time>2019-07-04T13:11:38Z</time>
      </trkpt>
      <trkpt lat="42.5134415366" lon="19.8983797990">
        <ele>1952.09</ele>
        <time>2019-07-04T13:11:48Z</time>
      </trkpt>
      <trkpt lat="42.5133496709" lon="19.8982514720">
        <ele>1948.73</ele>
        <time>2019-07-04T13:11:58Z</time>
      </trkpt>
      <trkpt lat="42.5132303964" lon="19.8980979156">
        <ele>1945.36</ele>
        <time>2019-07-04T13:12:10Z</time>
      </trkpt>
      <trkpt lat="42.5131966174" lon="19.8980681598">
        <ele>1944.88</ele>
        <time>2019-07-04T13:12:16Z</time>
      </trkpt>
      <trkpt lat="42.5131770037" lon="19.8980705906">
        <ele>1944.40</ele>
        <time>2019-07-04T13:12:18Z</time>
      </trkpt>
      <trkpt lat="42.5130081084" lon="19.8980694171">
        <ele>1940.56</ele>
        <time>2019-07-04T13:12:33Z</time>
      </trkpt>
      <trkpt lat="42.5128518697" lon="19.8979928065">
        <ele>1938.64</ele>
        <time>2019-07-04T13:12:46Z</time>
      </trkpt>
      <trkpt lat="42.5127842277" lon="19.8980120011">
        <ele>1938.16</ele>
        <time>2019-07-04T13:12:59Z</time>
      </trkpt>
      <trkpt lat="42.5127864908" lon="19.8980381526">
        <ele>1937.67</ele>
        <time>2019-07-04T13:13:22Z</time>
      </trkpt>
      <trkpt lat="42.5127740018" lon="19.8980182037">
        <ele>1938.64</ele>
        <time>2019-07-04T13:13:52Z</time>
      </trkpt>
      <trkpt lat="42.5127729122" lon="19.8980165273">
        <ele>1938.64</ele>
        <time>2019-07-04T13:13:53Z</time>
      </trkpt>
      <trkpt lat="42.5127506163" lon="19.8980160244">
        <ele>1938.64</ele>
        <time>2019-07-04T13:14:12Z</time>
      </trkpt>
      <trkpt lat="42.5127178431" lon="19.8979633860">
        <ele>1938.64</ele>
        <time>2019-07-04T13:14:39Z</time>
      </trkpt>
      <trkpt lat="42.5127402227" lon="19.8979719356">
        <ele>1938.64</ele>
        <time>2019-07-04T13:15:03Z</time>
      </trkpt>
      <trkpt lat="42.5127409771" lon="19.8979809880">
        <ele>1938.64</ele>
        <time>2019-07-04T13:15:21Z</time>
      </trkpt>
      <trkpt lat="42.5127364509" lon="19.8979706783">
        <ele>1938.64</ele>
        <time>2019-07-04T13:15:24Z</time>
      </trkpt>
      <trkpt lat="42.5126294978" lon="19.8979467060">
        <ele>1935.75</ele>
        <time>2019-07-04T13:15:36Z</time>
      </trkpt>
      <trkpt lat="42.5125004165" lon="19.8979090713">
        <ele>1933.35</ele>
        <time>2019-07-04T13:15:47Z</time>
      </trkpt>
      <trkpt lat="42.5124395639" lon="19.8979058024">
        <ele>1931.91</ele>
        <time>2019-07-04T13:15:53Z</time>
      </trkpt>
      <trkpt lat="42.5123882666" lon="19.8979161121">
        <ele>1931.43</ele>
        <time>2019-07-04T13:15:57Z</time>
      </trkpt>
      <trkpt lat="42.5123119075" lon="19.8979659844">
        <ele>1929.50</ele>
        <time>2019-07-04T13:16:05Z</time>
      </trkpt>
      <trkpt lat="42.5122161862" lon="19.8980208021">
        <ele>1926.14</ele>
        <time>2019-07-04T13:16:15Z</time>
      </trkpt>
      <trkpt lat="42.5121223927" lon="19.8981024418">
        <ele>1924.70</ele>
        <time>2019-07-04T13:16:23Z</time>
      </trkpt>
      <trkpt lat="42.5119183771" lon="19.8981804773">
        <ele>1921.81</ele>
        <time>2019-07-04T13:16:37Z</time>
      </trkpt>
      <trkpt lat="42.5118685886" lon="19.8981919605">
        <ele>1921.81</ele>
        <time>2019-07-04T13:16:41Z</time>
      </trkpt>
      <trkpt lat="42.5117492303" lon="19.8981870152">
        <ele>1919.89</ele>
        <time>2019-07-04T13:16:51Z</time>
      </trkpt>
      <trkpt lat="42.5116930716" lon="19.8981706705">
        <ele>1919.89</ele>
        <time>2019-07-04T13:16:55Z</time>
      </trkpt>
      <trkpt lat="42.5115801673" lon="19.8981997557">
        <ele>1918.45</ele>
        <time>2019-07-04T13:17:04Z</time>
      </trkpt>
      <trkpt lat="42.5115168840" lon="19.8982230574">
        <ele>1917.49</ele>
        <time>2019-07-04T13:17:09Z</time>
      </trkpt>
      <trkpt lat="42.5113967713" lon="19.8982900288">
        <ele>1915.56</ele>
        <time>2019-07-04T13:17:21Z</time>
      </trkpt>
      <trkpt lat="42.5113592204" lon="19.8983093072">
        <ele>1915.08</ele>
        <time>2019-07-04T13:17:25Z</time>
      </trkpt>
      <trkpt lat="42.5113075040" lon="19.8983298428">
        <ele>1914.60</ele>
        <time>2019-07-04T13:17:29Z</time>
      </trkpt>
      <trkpt lat="42.5112875551" lon="19.8983445950">
        <ele>1914.60</ele>
        <time>2019-07-04T13:17:31Z</time>
      </trkpt>
      <trkpt lat="42.5112172309" lon="19.8983751051">
        <ele>1913.16</ele>
        <time>2019-07-04T13:17:37Z</time>
      </trkpt>
      <trkpt lat="42.5110694580" lon="19.8983904440">
        <ele>1912.68</ele>
        <time>2019-07-04T13:17:48Z</time>
      </trkpt>
      <trkpt lat="42.5108942762" lon="19.8984906077">
        <ele>1910.76</ele>
        <time>2019-07-04T13:18:02Z</time>
      </trkpt>
      <trkpt lat="42.5108195934" lon="19.8985385522">
        <ele>1910.76</ele>
        <time>2019-07-04T13:18:09Z</time>
      </trkpt>
      <trkpt lat="42.5107034203" lon="19.8986679688">
        <ele>1910.76</ele>
        <time>2019-07-04T13:18:23Z</time>
      </trkpt>
      <trkpt lat="42.5106758438" lon="19.8986997362">
        <ele>1910.76</ele>
        <time>2019-07-04T13:18:26Z</time>
      </trkpt>
      <trkpt lat="42.5106229540" lon="19.8987449147">
        <ele>1910.76</ele>
        <time>2019-07-04T13:18:31Z</time>
      </trkpt>
      <trkpt lat="42.5105879176" lon="19.8988056835">
        <ele>1910.76</ele>
        <time>2019-07-04T13:18:37Z</time>
      </trkpt>
      <trkpt lat="42.5104696490" lon="19.8989138100">
        <ele>1912.20</ele>
        <time>2019-07-04T13:18:49Z</time>
      </trkpt>
      <trkpt lat="42.5103316829" lon="19.8990013171">
        <ele>1912.68</ele>
        <time>2019-07-04T13:19:01Z</time>
      </trkpt>
      <trkpt lat="42.5102456845" lon="19.8990531173">
        <ele>1910.76</ele>
        <time>2019-07-04T13:19:08Z</time>
      </trkpt>
      <trkpt lat="42.5101180281" lon="19.8991619982">
        <ele>1909.32</ele>
        <time>2019-07-04T13:19:20Z</time>
      </trkpt>
      <trkpt lat="42.5101025216" lon="19.8991899937">
        <ele>1909.32</ele>
        <time>2019-07-04T13:19:23Z</time>
      </trkpt>
      <trkpt lat="42.5100164395" lon="19.8992938455">
        <ele>1909.32</ele>
        <time>2019-07-04T13:19:33Z</time>
      </trkpt>
      <trkpt lat="42.5099653099" lon="19.8993587214">
        <ele>1910.76</ele>
        <time>2019-07-04T13:19:39Z</time>
      </trkpt>
      <trkpt lat="42.5098901242" lon="19.8995202407">
        <ele>1911.72</ele>
        <time>2019-07-04T13:19:52Z</time>
      </trkpt>
      <trkpt lat="42.5098693371" lon="19.8995468114">
        <ele>1912.20</ele>
        <time>2019-07-04T13:19:55Z</time>
      </trkpt>
      <trkpt lat="42.5097112544" lon="19.8994951788">
        <ele>1910.28</ele>
        <time>2019-07-04T13:20:07Z</time>
      </trkpt>
      <trkpt lat="42.5096579455" lon="19.8994857073">
        <ele>1909.32</ele>
        <time>2019-07-04T13:20:11Z</time>
      </trkpt>
      <trkpt lat="42.5096208137" lon="19.8995054886">
        <ele>1907.87</ele>
        <time>2019-07-04T13:20:15Z</time>
      </trkpt>
      <trkpt lat="42.5094838534" lon="19.8994686082">
        <ele>1904.03</ele>
        <time>2019-07-04T13:20:27Z</time>
      </trkpt>
      <trkpt lat="42.5094100926" lon="19.8994872998">
        <ele>1901.63</ele>
        <time>2019-07-04T13:20:33Z</time>
      </trkpt>
      <trkpt lat="42.5093627349" lon="19.8995312210">
        <ele>1901.63</ele>
        <time>2019-07-04T13:20:40Z</time>
      </trkpt>
      <trkpt lat="42.5093133654" lon="19.8994764034">
        <ele>1901.63</ele>
        <time>2019-07-04T13:20:45Z</time>
      </trkpt>
      <trkpt lat="42.5092010479" lon="19.8994109407">
        <ele>1901.63</ele>
        <time>2019-07-04T13:20:56Z</time>
      </trkpt>
      <trkpt lat="42.5091780815" lon="19.8994080070">
        <ele>1903.07</ele>
        <time>2019-07-04T13:20:58Z</time>
      </trkpt>
      <trkpt lat="42.5091474876" lon="19.8993888125">
        <ele>1903.07</ele>
        <time>2019-07-04T13:21:02Z</time>
      </trkpt>
      <trkpt lat="42.5090600643" lon="19.8993473221">
        <ele>1904.03</ele>
        <time>2019-07-04T13:21:11Z</time>
      </trkpt>
      <trkpt lat="42.5089418795" lon="19.8992707115">
        <ele>1905.47</ele>
        <time>2019-07-04T13:21:24Z</time>
      </trkpt>
      <trkpt lat="42.5089275464" lon="19.8992661014">
        <ele>1905.47</ele>
        <time>2019-07-04T13:21:25Z</time>
      </trkpt>
      <trkpt lat="42.5089031551" lon="19.8992746510">
        <ele>1904.03</ele>
        <time>2019-07-04T13:21:27Z</time>
      </trkpt>
      <trkpt lat="42.5088846311" lon="19.8992830329">
        <ele>1903.55</ele>
        <time>2019-07-04T13:21:29Z</time>
      </trkpt>
      <trkpt lat="42.5088006444" lon="19.8993402813">
        <ele>1902.59</ele>
        <time>2019-07-04T13:21:36Z</time>
      </trkpt>
      <trkpt lat="42.5087413844" lon="19.8993314803">
        <ele>1902.11</ele>
        <time>2019-07-04T13:21:42Z</time>
      </trkpt>
      <trkpt lat="42.5086273905" lon="19.8992987070">
        <ele>1902.11</ele>
        <time>2019-07-04T13:21:51Z</time>
      </trkpt>
      <trkpt lat="42.5085436553" lon="19.8992239404">
        <ele>1903.55</ele>
        <time>2019-07-04T13:22:03Z</time>
      </trkpt>
      <trkpt lat="42.5083657913" lon="19.8992087692">
        <ele>1904.03</ele>
        <time>2019-07-04T13:22:17Z</time>
      </trkpt>
      <trkpt lat="42.5081929564" lon="19.8992104456">
        <ele>1904.03</ele>
        <time>2019-07-04T13:22:32Z</time>
      </trkpt>
      <trkpt lat="42.5081799645" lon="19.8992189951">
        <ele>1902.59</ele>
        <time>2019-07-04T13:22:34Z</time>
      </trkpt>
      <trkpt lat="42.5081065390" lon="19.8992369324">
        <ele>1899.70</ele>
        <time>2019-07-04T13:22:45Z</time>
      </trkpt>
      <trkpt lat="42.5080618635" lon="19.8992296401">
        <ele>1898.74</ele>
        <time>2019-07-04T13:22:50Z</time>
      </trkpt>
      <trkpt lat="42.5080025196" lon="19.8992000520">
        <ele>1898.26</ele>
        <time>2019-07-04T13:22:55Z</time>
      </trkpt>
      <trkpt lat="42.5079569221" lon="19.8991941847">
        <ele>1897.78</ele>
        <time>2019-07-04T13:23:07Z</time>
      </trkpt>
      <trkpt lat="42.5079748593" lon="19.8991793487">
        <ele>1897.78</ele>
        <time>2019-07-04T13:23:21Z</time>
      </trkpt>
      <trkpt lat="42.5079562515" lon="19.8991891555">
        <ele>1897.30</ele>
        <time>2019-07-04T13:23:39Z</time>
      </trkpt>
      <trkpt lat="42.5079415832" lon="19.8991881497">
        <ele>1897.30</ele>
        <time>2019-07-04T13:24:16Z</time>
      </trkpt>
      <trkpt lat="42.5079480372" lon="19.8991891555">
        <ele>1897.30</ele>
        <time>2019-07-04T13:24:36Z</time>
      </trkpt>
      <trkpt lat="42.5079540722" lon="19.8991812766">
        <ele>1897.30</ele>
        <time>2019-07-04T13:24:58Z</time>
      </trkpt>
      <trkpt lat="42.5079559162" lon="19.8991791811">
        <ele>1896.82</ele>
        <time>2019-07-04T13:25:29Z</time>
      </trkpt>
      <trkpt lat="42.5079485402" lon="19.8991671111">
        <ele>1896.82</ele>
        <time>2019-07-04T13:26:08Z</time>
      </trkpt>
      <trkpt lat="42.5079531502" lon="19.8991697934">
        <ele>1898.74</ele>
        <time>2019-07-04T13:26:21Z</time>
      </trkpt>
      <trkpt lat="42.5079441816" lon="19.8991709668">
        <ele>1899.22</ele>
        <time>2019-07-04T13:26:52Z</time>
      </trkpt>
      <trkpt lat="42.5079492945" lon="19.8991677817">
        <ele>1899.22</ele>
        <time>2019-07-04T13:27:06Z</time>
      </trkpt>
      <trkpt lat="42.5079505518" lon="19.8991650157">
        <ele>1897.30</ele>
        <time>2019-07-04T13:27:13Z</time>
      </trkpt>
      <trkpt lat="42.5079515576" lon="19.8991650157">
        <ele>1899.70</ele>
        <time>2019-07-04T13:27:15Z</time>
      </trkpt>
      <trkpt lat="42.5079538208" lon="19.8991614953">
        <ele>1898.26</ele>
        <time>2019-07-04T13:27:21Z</time>
      </trkpt>
      <trkpt lat="42.5079063792" lon="19.8991904128">
        <ele>1898.74</ele>
        <time>2019-07-04T13:27:32Z</time>
      </trkpt>
      <trkpt lat="42.5078584347" lon="19.8992361780">
        <ele>1896.82</ele>
        <time>2019-07-04T13:27:38Z</time>
      </trkpt>
      <trkpt lat="42.5078087300" lon="19.8992988747">
        <ele>1893.45</ele>
        <time>2019-07-04T13:27:44Z</time>
      </trkpt>
      <trkpt lat="42.5076468755" lon="19.8993655946">
        <ele>1892.49</ele>
        <time>2019-07-04T13:27:57Z</time>
      </trkpt>
      <trkpt lat="42.5075677503" lon="19.8994202446">
        <ele>1893.45</ele>
        <time>2019-07-04T13:28:05Z</time>
      </trkpt>
      <trkpt lat="42.5075564347" lon="19.8994246870">
        <ele>1893.45</ele>
        <time>2019-07-04T13:28:06Z</time>
      </trkpt>
      <trkpt lat="42.5074867811" lon="19.8994630761">
        <ele>1891.53</ele>
        <time>2019-07-04T13:28:12Z</time>
      </trkpt>
      <trkpt lat="42.5074753817" lon="19.8994972743">
        <ele>1890.57</ele>
        <time>2019-07-04T13:28:15Z</time>
      </trkpt>
      <trkpt lat="42.5074341428" lon="19.8995349091">
        <ele>1889.61</ele>
        <time>2019-07-04T13:28:19Z</time>
      </trkpt>
      <trkpt lat="42.5073447917" lon="19.8996535130">
        <ele>1887.69</ele>
        <time>2019-07-04T13:28:29Z</time>
      </trkpt>
      <trkpt lat="42.5073084142" lon="19.8996695224">
        <ele>1886.72</ele>
        <time>2019-07-04T13:28:40Z</time>
      </trkpt>
      <trkpt lat="42.5073076598" lon="19.8996563628">
        <ele>1886.24</ele>
        <time>2019-07-04T13:29:01Z</time>
      </trkpt>
      <trkpt lat="42.5072882138" lon="19.8996359948">
        <ele>1885.28</ele>
        <time>2019-07-04T13:29:24Z</time>
      </trkpt>
      <trkpt lat="42.5072805863" lon="19.8996307980">
        <ele>1885.28</ele>
        <time>2019-07-04T13:29:25Z</time>
      </trkpt>
      <trkpt lat="42.5072505791" lon="19.8996465560">
        <ele>1884.32</ele>
        <time>2019-07-04T13:29:29Z</time>
      </trkpt>
      <trkpt lat="42.5072172191" lon="19.8997354042">
        <ele>1884.32</ele>
        <time>2019-07-04T13:29:35Z</time>
      </trkpt>
      <trkpt lat="42.5071537681" lon="19.8997497372">
        <ele>1884.32</ele>
        <time>2019-07-04T13:29:40Z</time>
      </trkpt>
      <trkpt lat="42.5070784148" lon="19.8997973464">
        <ele>1884.32</ele>
        <time>2019-07-04T13:29:46Z</time>
      </trkpt>
      <trkpt lat="42.5069339108" lon="19.8997793254">
        <ele>1883.36</ele>
        <time>2019-07-04T13:29:58Z</time>
      </trkpt>
      <trkpt lat="42.5068474934" lon="19.8997454625">
        <ele>1882.88</ele>
        <time>2019-07-04T13:30:05Z</time>
      </trkpt>
      <trkpt lat="42.5067231059" lon="19.8997522518">
        <ele>1881.92</ele>
        <time>2019-07-04T13:30:14Z</time>
      </trkpt>
      <trkpt lat="42.5065779313" lon="19.8997614719">
        <ele>1880.96</ele>
        <time>2019-07-04T13:30:25Z</time>
      </trkpt>
      <trkpt lat="42.5063925236" lon="19.8997631483">
        <ele>1878.55</ele>
        <time>2019-07-04T13:30:38Z</time>
      </trkpt>
      <trkpt lat="42.5062997360" lon="19.8997814208">
        <ele>1878.55</ele>
        <time>2019-07-04T13:30:45Z</time>
      </trkpt>
      <trkpt lat="42.5062741712" lon="19.8997946642">
        <ele>1877.59</ele>
        <time>2019-07-04T13:30:48Z</time>
      </trkpt>
      <trkpt lat="42.5062561501" lon="19.8998270184">
        <ele>1876.63</ele>
        <time>2019-07-04T13:30:51Z</time>
      </trkpt>
      <trkpt lat="42.5062147435" lon="19.8998413514">
        <ele>1876.15</ele>
        <time>2019-07-04T13:30:57Z</time>
      </trkpt>
      <trkpt lat="42.5061811320" lon="19.8997706920">
        <ele>1874.23</ele>
        <time>2019-07-04T13:31:02Z</time>
      </trkpt>
      <trkpt lat="42.5061377976" lon="19.8997075763">
        <ele>1873.75</ele>
        <time>2019-07-04T13:31:14Z</time>
      </trkpt>
      <trkpt lat="42.5061242189" lon="19.8996012099">
        <ele>1870.86</ele>
        <time>2019-07-04T13:31:26Z</time>
      </trkpt>
      <trkpt lat="42.5060933735" lon="19.8995749746">
        <ele>1870.86</ele>
        <time>2019-07-04T13:31:44Z</time>
      </trkpt>
      <trkpt lat="42.5060568284" lon="19.8995578755">
        <ele>1870.38</ele>
        <time>2019-07-04T13:31:52Z</time>
      </trkpt>
      <trkpt lat="42.5059009250" lon="19.8996769823">
        <ele>1868.94</ele>
        <time>2019-07-04T13:32:06Z</time>
      </trkpt>
      <trkpt lat="42.5057658926" lon="19.8997802474">
        <ele>1867.02</ele>
        <time>2019-07-04T13:32:18Z</time>
      </trkpt>
      <trkpt lat="42.5056504738" lon="19.8998564389">
        <ele>1867.02</ele>
        <time>2019-07-04T13:32:31Z</time>
      </trkpt>
      <trkpt lat="42.5054887030" lon="19.8999523278">
        <ele>1867.02</ele>
        <time>2019-07-04T13:32:46Z</time>
      </trkpt>
      <trkpt lat="42.5054334663" lon="19.8999565188">
        <ele>1867.02</ele>
        <time>2019-07-04T13:32:52Z</time>
      </trkpt>
      <trkpt lat="42.5053773075" lon="19.8999721091">
        <ele>1866.54</ele>
        <time>2019-07-04T13:32:57Z</time>
      </trkpt>
      <trkpt lat="42.5053578615" lon="19.8999684211">
        <ele>1865.58</ele>
        <time>2019-07-04T13:32:59Z</time>
      </trkpt>
      <trkpt lat="42.5053465459" lon="19.8998554330">
        <ele>1861.73</ele>
        <time>2019-07-04T13:33:06Z</time>
      </trkpt>
      <trkpt lat="42.5053254236" lon="19.8997647408">
        <ele>1860.29</ele>
        <time>2019-07-04T13:33:12Z</time>
      </trkpt>
      <trkpt lat="42.5053516589" lon="19.8995254375">
        <ele>1856.92</ele>
        <time>2019-07-04T13:33:25Z</time>
      </trkpt>
      <trkpt lat="42.5053786486" lon="19.8992546182">
        <ele>1853.56</ele>
        <time>2019-07-04T13:33:39Z</time>
      </trkpt>
      <trkpt lat="42.5053820014" lon="19.8992358427">
        <ele>1853.56</ele>
        <time>2019-07-04T13:33:40Z</time>
      </trkpt>
      <trkpt lat="42.5054062251" lon="19.8991209269">
        <ele>1852.12</ele>
        <time>2019-07-04T13:33:47Z</time>
      </trkpt>
      <trkpt lat="42.5054194685" lon="19.8988637701">
        <ele>1848.27</ele>
        <time>2019-07-04T13:34:02Z</time>
      </trkpt>
      <trkpt lat="42.5054213125" lon="19.8987671267">
        <ele>1846.35</ele>
        <time>2019-07-04T13:34:07Z</time>
      </trkpt>
      <trkpt lat="42.5053934846" lon="19.8986022547">
        <ele>1843.95</ele>
        <time>2019-07-04T13:34:16Z</time>
      </trkpt>
      <trkpt lat="42.5053913891" lon="19.8984543141">
        <ele>1842.02</ele>
        <time>2019-07-04T13:34:23Z</time>
      </trkpt>
      <trkpt lat="42.5053710211" lon="19.8982318584">
        <ele>1839.62</ele>
        <time>2019-07-04T13:34:35Z</time>
      </trkpt>
      <trkpt lat="42.5053396728" lon="19.8981259950">
        <ele>1838.18</ele>
        <time>2019-07-04T13:34:41Z</time>
      </trkpt>
      <trkpt lat="42.5052060653" lon="19.8979197163">
        <ele>1834.33</ele>
        <time>2019-07-04T13:34:55Z</time>
      </trkpt>
      <trkpt lat="42.5051281974" lon="19.8977700993">
        <ele>1830.97</ele>
        <time>2019-07-04T13:35:06Z</time>
      </trkpt>
      <trkpt lat="42.5050595496" lon="19.8975080810">
        <ele>1829.53</ele>
        <time>2019-07-04T13:35:21Z</time>
      </trkpt>
      <trkpt lat="42.5050564483" lon="19.8974911496">
        <ele>1829.53</ele>
        <time>2019-07-04T13:35:22Z</time>
      </trkpt>
      <trkpt lat="42.5049549434" lon="19.8972136248">
        <ele>1827.12</ele>
        <time>2019-07-04T13:35:38Z</time>
      </trkpt>
      <trkpt lat="42.5048564561" lon="19.8970127106">
        <ele>1825.68</ele>
        <time>2019-07-04T13:35:51Z</time>
      </trkpt>
      <trkpt lat="42.5047094375" lon="19.8969866429">
        <ele>1823.76</ele>
        <time>2019-07-04T13:36:02Z</time>
      </trkpt>
      <trkpt lat="42.5046604872" lon="19.8969721422">
        <ele>1823.28</ele>
        <time>2019-07-04T13:36:06Z</time>
      </trkpt>
      <trkpt lat="42.5045973714" lon="19.8969927616">
        <ele>1821.84</ele>
        <time>2019-07-04T13:36:14Z</time>
      </trkpt>
      <trkpt lat="42.5044455752" lon="19.8970133811">
        <ele>1819.43</ele>
        <time>2019-07-04T13:36:27Z</time>
      </trkpt>
      <trkpt lat="42.5042682979" lon="19.8971802648">
        <ele>1817.03</ele>
        <time>2019-07-04T13:36:42Z</time>
      </trkpt>
      <trkpt lat="42.5041646138" lon="19.8971839529">
        <ele>1817.03</ele>
        <time>2019-07-04T13:36:54Z</time>
      </trkpt>
      <trkpt lat="42.5041367020" lon="19.8971709609">
        <ele>1816.07</ele>
        <time>2019-07-04T13:36:59Z</time>
      </trkpt>
      <trkpt lat="42.5041317567" lon="19.8971741460">
        <ele>1815.59</ele>
        <time>2019-07-04T13:37:00Z</time>
      </trkpt>
      <trkpt lat="42.5040976424" lon="19.8971939273">
        <ele>1814.63</ele>
        <time>2019-07-04T13:37:04Z</time>
      </trkpt>
      <trkpt lat="42.5039947126" lon="19.8972346634">
        <ele>1810.78</ele>
        <time>2019-07-04T13:37:16Z</time>
      </trkpt>
      <trkpt lat="42.5038904417" lon="19.8972596414">
        <ele>1807.90</ele>
        <time>2019-07-04T13:37:29Z</time>
      </trkpt>
      <trkpt lat="42.5038463529" lon="19.8972763214">
        <ele>1806.45</ele>
        <time>2019-07-04T13:37:34Z</time>
      </trkpt>
      <trkpt lat="42.5038085505" lon="19.8972876370">
        <ele>1805.49</ele>
        <time>2019-07-04T13:37:38Z</time>
      </trkpt>
      <trkpt lat="42.5037702452" lon="19.8973250203">
        <ele>1804.05</ele>
        <time>2019-07-04T13:37:43Z</time>
      </trkpt>
      <trkpt lat="42.5036807265" lon="19.8973455559">
        <ele>1800.69</ele>
        <time>2019-07-04T13:37:55Z</time>
      </trkpt>
      <trkpt lat="42.5036756974" lon="19.8973373417">
        <ele>1800.69</ele>
        <time>2019-07-04T13:37:56Z</time>
      </trkpt>
      <trkpt lat="42.5036088098" lon="19.8973012157">
        <ele>1798.76</ele>
        <time>2019-07-04T13:38:07Z</time>
      </trkpt>
      <trkpt lat="42.5035270862" lon="19.8973457236">
        <ele>1795.88</ele>
        <time>2019-07-04T13:38:18Z</time>
      </trkpt>
      <trkpt lat="42.5035215542" lon="19.8973493278">
        <ele>1795.88</ele>
        <time>2019-07-04T13:38:19Z</time>
      </trkpt>
      <trkpt lat="42.5034231506" lon="19.8974035587">
        <ele>1794.92</ele>
        <time>2019-07-04T13:38:28Z</time>
      </trkpt>
      <trkpt lat="42.5033141859" lon="19.8973654211">
        <ele>1793.48</ele>
        <time>2019-07-04T13:38:38Z</time>
      </trkpt>
      <trkpt lat="42.5031670835" lon="19.8972901516">
        <ele>1792.03</ele>
        <time>2019-07-04T13:38:53Z</time>
      </trkpt>
      <trkpt lat="42.5031454582" lon="19.8972792551">
        <ele>1792.03</ele>
        <time>2019-07-04T13:38:55Z</time>
      </trkpt>
      <trkpt lat="42.5030614715" lon="19.8971964419">
        <ele>1791.07</ele>
        <time>2019-07-04T13:39:07Z</time>
      </trkpt>
      <trkpt lat="42.5030459650" lon="19.8971736431">
        <ele>1790.59</ele>
        <time>2019-07-04T13:39:09Z</time>
      </trkpt>
      <trkpt lat="42.5030204840" lon="19.8969744053">
        <ele>1790.11</ele>
        <time>2019-07-04T13:39:25Z</time>
      </trkpt>
      <trkpt lat="42.5030212384" lon="19.8969417159">
        <ele>1790.11</ele>
        <time>2019-07-04T13:39:27Z</time>
      </trkpt>
      <trkpt lat="42.5029541831" lon="19.8965965491">
        <ele>1789.15</ele>
        <time>2019-07-04T13:39:46Z</time>
      </trkpt>
      <trkpt lat="42.5029526744" lon="19.8965742532">
        <ele>1789.15</ele>
        <time>2019-07-04T13:39:48Z</time>
      </trkpt>
      <trkpt lat="42.5030319672" lon="19.8963253107">
        <ele>1788.19</ele>
        <time>2019-07-04T13:40:04Z</time>
      </trkpt>
      <trkpt lat="42.5030559395" lon="19.8962727562">
        <ele>1787.71</ele>
        <time>2019-07-04T13:40:09Z</time>
      </trkpt>
      <trkpt lat="42.5031649042" lon="19.8960690759">
        <ele>1786.27</ele>
        <time>2019-07-04T13:40:24Z</time>
      </trkpt>
      <trkpt lat="42.5032023713" lon="19.8960824031">
        <ele>1786.27</ele>
        <time>2019-07-04T13:40:38Z</time>
      </trkpt>
      <trkpt lat="42.5031775609" lon="19.8960837442">
        <ele>1785.79</ele>
        <time>2019-07-04T13:41:03Z</time>
      </trkpt>
      <trkpt lat="42.5032160338" lon="19.8960627057">
        <ele>1785.31</ele>
        <time>2019-07-04T13:41:14Z</time>
      </trkpt>
      <trkpt lat="42.5032515731" lon="19.8960098159">
        <ele>1785.31</ele>
        <time>2019-07-04T13:41:23Z</time>
      </trkpt>
      <trkpt lat="42.5033309497" lon="19.8960160185">
        <ele>1784.82</ele>
        <time>2019-07-04T13:41:29Z</time>
      </trkpt>
      <trkpt lat="42.5035011861" lon="19.8959521484">
        <ele>1784.34</ele>
        <time>2019-07-04T13:41:44Z</time>
      </trkpt>
      <trkpt lat="42.5036221370" lon="19.8958838359">
        <ele>1784.34</ele>
        <time>2019-07-04T13:41:56Z</time>
      </trkpt>
      <trkpt lat="42.5036439300" lon="19.8958726041">
        <ele>1784.34</ele>
        <time>2019-07-04T13:41:58Z</time>
      </trkpt>
      <trkpt lat="42.5038301758" lon="19.8957628850">
        <ele>1783.86</ele>
        <time>2019-07-04T13:42:14Z</time>
      </trkpt>
      <trkpt lat="42.5039390568" lon="19.8956755456">
        <ele>1783.38</ele>
        <time>2019-07-04T13:42:27Z</time>
      </trkpt>
      <trkpt lat="42.5040441658" lon="19.8955682572">
        <ele>1782.90</ele>
        <time>2019-07-04T13:42:41Z</time>
      </trkpt>
      <trkpt lat="42.5040964689" lon="19.8954924848">
        <ele>1780.98</ele>
        <time>2019-07-04T13:42:51Z</time>
      </trkpt>
      <trkpt lat="42.5041612610" lon="19.8954997770">
        <ele>1780.98</ele>
        <time>2019-07-04T13:43:05Z</time>
      </trkpt>
      <trkpt lat="42.5042449124" lon="19.8954852764">
        <ele>1782.90</ele>
        <time>2019-07-04T13:43:21Z</time>
      </trkpt>
      <trkpt lat="42.5043250434" lon="19.8954181373">
        <ele>1779.54</ele>
        <time>2019-07-04T13:43:32Z</time>
      </trkpt>
      <trkpt lat="42.5043683778" lon="19.8953921534">
        <ele>1779.06</ele>
        <time>2019-07-04T13:43:48Z</time>
      </trkpt>
      <trkpt lat="42.5044021569" lon="19.8954087496">
        <ele>1776.65</ele>
        <time>2019-07-04T13:43:59Z</time>
      </trkpt>
      <trkpt lat="42.5044762529" lon="19.8953945003">
        <ele>1775.21</ele>
        <time>2019-07-04T13:44:11Z</time>
      </trkpt>
      <trkpt lat="42.5045195874" lon="19.8953888845">
        <ele>1775.21</ele>
        <time>2019-07-04T13:44:21Z</time>
      </trkpt>
      <trkpt lat="42.5045631733" lon="19.8953665886">
        <ele>1773.77</ele>
        <time>2019-07-04T13:44:32Z</time>
      </trkpt>
      <trkpt lat="42.5046302285" lon="19.8952965159">
        <ele>1772.33</ele>
        <time>2019-07-04T13:44:43Z</time>
      </trkpt>
      <trkpt lat="42.5046386942" lon="19.8952706996">
        <ele>1771.85</ele>
        <time>2019-07-04T13:44:45Z</time>
      </trkpt>
      <trkpt lat="42.5046734791" lon="19.8952179775">
        <ele>1770.41</ele>
        <time>2019-07-04T13:44:49Z</time>
      </trkpt>
      <trkpt lat="42.5047529396" lon="19.8950532731">
        <ele>1767.52</ele>
        <time>2019-07-04T13:45:03Z</time>
      </trkpt>
      <trkpt lat="42.5048308074" lon="19.8949786741">
        <ele>1766.08</ele>
        <time>2019-07-04T13:45:15Z</time>
      </trkpt>
      <trkpt lat="42.5048718788" lon="19.8949541152">
        <ele>1767.52</ele>
        <time>2019-07-04T13:45:26Z</time>
      </trkpt>
      <trkpt lat="42.5049356651" lon="19.8949088529">
        <ele>1769.44</ele>
        <time>2019-07-04T13:45:41Z</time>
      </trkpt>
      <trkpt lat="42.5049525127" lon="19.8948912509">
        <ele>1769.44</ele>
        <time>2019-07-04T13:45:44Z</time>
      </trkpt>
      <trkpt lat="42.5050165504" lon="19.8948858026">
        <ele>1771.85</ele>
        <time>2019-07-04T13:45:57Z</time>
      </trkpt>
      <trkpt lat="42.5051062368" lon="19.8948636744">
        <ele>1772.81</ele>
        <time>2019-07-04T13:46:10Z</time>
      </trkpt>
      <trkpt lat="42.5051475596" lon="19.8948557116">
        <ele>1775.21</ele>
        <time>2019-07-04T13:46:19Z</time>
      </trkpt>
      <trkpt lat="42.5051571149" lon="19.8948423844">
        <ele>1775.21</ele>
        <time>2019-07-04T13:46:21Z</time>
      </trkpt>
      <trkpt lat="42.5052103400" lon="19.8948156461">
        <ele>1774.25</ele>
        <time>2019-07-04T13:46:35Z</time>
      </trkpt>
      <trkpt lat="42.5052876212" lon="19.8947915062">
        <ele>1771.37</ele>
        <time>2019-07-04T13:46:47Z</time>
      </trkpt>
      <trkpt lat="42.5053711887" lon="19.8947629239">
        <ele>1769.92</ele>
        <time>2019-07-04T13:47:00Z</time>
      </trkpt>
      <trkpt lat="42.5054638926" lon="19.8947186675">
        <ele>1771.37</ele>
        <time>2019-07-04T13:47:12Z</time>
      </trkpt>
      <trkpt lat="42.5055097416" lon="19.8947299831">
        <ele>1769.92</ele>
        <time>2019-07-04T13:47:19Z</time>
      </trkpt>
      <trkpt lat="42.5055344682" lon="19.8947531171">
        <ele>1768.96</ele>
        <time>2019-07-04T13:47:28Z</time>
      </trkpt>
      <trkpt lat="42.5055834185" lon="19.8947582301">
        <ele>1767.04</ele>
        <time>2019-07-04T13:47:34Z</time>
      </trkpt>
      <trkpt lat="42.5056642201" lon="19.8947368562">
        <ele>1764.64</ele>
        <time>2019-07-04T13:47:45Z</time>
      </trkpt>
      <trkpt lat="42.5057164393" lon="19.8947646003">
        <ele>1763.20</ele>
        <time>2019-07-04T13:48:02Z</time>
      </trkpt>
      <trkpt lat="42.5057928823" lon="19.8947213497">
        <ele>1759.83</ele>
        <time>2019-07-04T13:48:13Z</time>
      </trkpt>
      <trkpt lat="42.5058368873" lon="19.8947043344">
        <ele>1759.35</ele>
        <time>2019-07-04T13:48:18Z</time>
      </trkpt>
      <trkpt lat="42.5058800541" lon="19.8946407996">
        <ele>1758.39</ele>
        <time>2019-07-04T13:48:28Z</time>
      </trkpt>
      <trkpt lat="42.5059533119" lon="19.8945946991">
        <ele>1756.47</ele>
        <time>2019-07-04T13:48:41Z</time>
      </trkpt>
      <trkpt lat="42.5059974845" lon="19.8946025781">
        <ele>1753.10</ele>
        <time>2019-07-04T13:48:52Z</time>
      </trkpt>
      <trkpt lat="42.5060245581" lon="19.8945499398">
        <ele>1751.66</ele>
        <time>2019-07-04T13:49:02Z</time>
      </trkpt>
      <trkpt lat="42.5060443394" lon="19.8945209384">
        <ele>1750.70</ele>
        <time>2019-07-04T13:49:05Z</time>
      </trkpt>
      <trkpt lat="42.5060707424" lon="19.8945074435">
        <ele>1749.26</ele>
        <time>2019-07-04T13:49:08Z</time>
      </trkpt>
      <trkpt lat="42.5061181840" lon="19.8944819625">
        <ele>1747.33</ele>
        <time>2019-07-04T13:49:14Z</time>
      </trkpt>
      <trkpt lat="42.5061540585" lon="19.8944549728">
        <ele>1747.33</ele>
        <time>2019-07-04T13:49:18Z</time>
      </trkpt>
      <trkpt lat="42.5063203555" lon="19.8944174219">
        <ele>1747.33</ele>
        <time>2019-07-04T13:49:32Z</time>
      </trkpt>
      <trkpt lat="42.5063711498" lon="19.8943957128">
        <ele>1748.78</ele>
        <time>2019-07-04T13:49:37Z</time>
      </trkpt>
      <trkpt lat="42.5063940324" lon="19.8943993170">
        <ele>1749.26</ele>
        <time>2019-07-04T13:49:40Z</time>
      </trkpt>
      <trkpt lat="42.5064296555" lon="19.8943858221">
        <ele>1749.26</ele>
        <time>2019-07-04T13:49:44Z</time>
      </trkpt>
      <trkpt lat="42.5064812042" lon="19.8943683878">
        <ele>1749.26</ele>
        <time>2019-07-04T13:49:49Z</time>
      </trkpt>
      <trkpt lat="42.5066387001" lon="19.8942842335">
        <ele>1749.74</ele>
        <time>2019-07-04T13:50:03Z</time>
      </trkpt>
      <trkpt lat="42.5067724753" lon="19.8942737561">
        <ele>1750.22</ele>
        <time>2019-07-04T13:50:16Z</time>
      </trkpt>
      <trkpt lat="42.5068833679" lon="19.8942714930">
        <ele>1751.18</ele>
        <time>2019-07-04T13:50:26Z</time>
      </trkpt>
      <trkpt lat="42.5070125330" lon="19.8942875862">
        <ele>1751.18</ele>
        <time>2019-07-04T13:50:37Z</time>
      </trkpt>
      <trkpt lat="42.5070619863" lon="19.8942520469">
        <ele>1751.18</ele>
        <time>2019-07-04T13:50:41Z</time>
      </trkpt>
      <trkpt lat="42.5071120262" lon="19.8941878416">
        <ele>1751.18</ele>
        <time>2019-07-04T13:50:46Z</time>
      </trkpt>
      <trkpt lat="42.5072443765" lon="19.8941172659">
        <ele>1751.18</ele>
        <time>2019-07-04T13:50:58Z</time>
      </trkpt>
      <trkpt lat="42.5074022077" lon="19.8940133303">
        <ele>1749.26</ele>
        <time>2019-07-04T13:51:12Z</time>
      </trkpt>
      <trkpt lat="42.5074579474" lon="19.8939778749">
        <ele>1748.29</ele>
        <time>2019-07-04T13:51:18Z</time>
      </trkpt>
      <trkpt lat="42.5075473823" lon="19.8939879332">
        <ele>1746.37</ele>
        <time>2019-07-04T13:51:29Z</time>
      </trkpt>
      <trkpt lat="42.5075634755" lon="19.8939734325">
        <ele>1745.41</ele>
        <time>2019-07-04T13:51:33Z</time>
      </trkpt>
      <trkpt lat="42.5076771341" lon="19.8939897772">
        <ele>1742.05</ele>
        <time>2019-07-04T13:51:46Z</time>
      </trkpt>
      <trkpt lat="42.5076961610" lon="19.8939927109">
        <ele>1741.57</ele>
        <time>2019-07-04T13:51:48Z</time>
      </trkpt>
      <trkpt lat="42.5078444369" lon="19.8939498793">
        <ele>1739.16</ele>
        <time>2019-07-04T13:52:00Z</time>
      </trkpt>
      <trkpt lat="42.5079980772" lon="19.8939293437">
        <ele>1736.76</ele>
        <time>2019-07-04T13:52:13Z</time>
      </trkpt>
      <trkpt lat="42.5080989115" lon="19.8939394020">
        <ele>1734.84</ele>
        <time>2019-07-04T13:52:22Z</time>
      </trkpt>
      <trkpt lat="42.5082704052" lon="19.8939230572">
        <ele>1732.91</ele>
        <time>2019-07-04T13:52:34Z</time>
      </trkpt>
      <trkpt lat="42.5084164180" lon="19.8939057067">
        <ele>1731.95</ele>
        <time>2019-07-04T13:52:46Z</time>
      </trkpt>
      <trkpt lat="42.5084864907" lon="19.8939306848">
        <ele>1731.47</ele>
        <time>2019-07-04T13:52:54Z</time>
      </trkpt>
      <trkpt lat="42.5085392129" lon="19.8939000908">
        <ele>1730.99</ele>
        <time>2019-07-04T13:52:59Z</time>
      </trkpt>
      <trkpt lat="42.5085897557" lon="19.8938789684">
        <ele>1730.51</ele>
        <time>2019-07-04T13:53:05Z</time>
      </trkpt>
      <trkpt lat="42.5086205173" lon="19.8938480392">
        <ele>1729.07</ele>
        <time>2019-07-04T13:53:09Z</time>
      </trkpt>
      <trkpt lat="42.5086630136" lon="19.8938152660">
        <ele>1728.59</ele>
        <time>2019-07-04T13:53:14Z</time>
      </trkpt>
      <trkpt lat="42.5087708887" lon="19.8937836662">
        <ele>1725.22</ele>
        <time>2019-07-04T13:53:28Z</time>
      </trkpt>
      <trkpt lat="42.5087846350" lon="19.8937532399">
        <ele>1724.26</ele>
        <time>2019-07-04T13:53:32Z</time>
      </trkpt>
      <trkpt lat="42.5087975431" lon="19.8937362246">
        <ele>1723.30</ele>
        <time>2019-07-04T13:53:35Z</time>
      </trkpt>
      <trkpt lat="42.5088380277" lon="19.8937184550">
        <ele>1722.34</ele>
        <time>2019-07-04T13:53:39Z</time>
      </trkpt>
      <trkpt lat="42.5090250280" lon="19.8935359810">
        <ele>1719.46</ele>
        <time>2019-07-04T13:53:55Z</time>
      </trkpt>
      <trkpt lat="42.5091132894" lon="19.8933798261">
        <ele>1717.53</ele>
        <time>2019-07-04T13:54:06Z</time>
      </trkpt>
      <trkpt lat="42.5092340726" lon="19.8932578694">
        <ele>1714.17</ele>
        <time>2019-07-04T13:54:20Z</time>
      </trkpt>
      <trkpt lat="42.5092592184" lon="19.8932212405">
        <ele>1714.17</ele>
        <time>2019-07-04T13:54:23Z</time>
      </trkpt>
      <trkpt lat="42.5093109347" lon="19.8930508364">
        <ele>1712.25</ele>
        <time>2019-07-04T13:54:37Z</time>
      </trkpt>
      <trkpt lat="42.5093183108" lon="19.8930357490">
        <ele>1712.25</ele>
        <time>2019-07-04T13:54:39Z</time>
      </trkpt>
      <trkpt lat="42.5093633216" lon="19.8930101842">
        <ele>1711.28</ele>
        <time>2019-07-04T13:54:44Z</time>
      </trkpt>
      <trkpt lat="42.5094986893" lon="19.8929650057">
        <ele>1710.80</ele>
        <time>2019-07-04T13:54:57Z</time>
      </trkpt>
      <trkpt lat="42.5095743779" lon="19.8929269519">
        <ele>1708.88</ele>
        <time>2019-07-04T13:55:08Z</time>
      </trkpt>
      <trkpt lat="42.5096319616" lon="19.8928825278">
        <ele>1706.00</ele>
        <time>2019-07-04T13:55:17Z</time>
      </trkpt>
      <trkpt lat="42.5096783135" lon="19.8928373493">
        <ele>1703.11</ele>
        <time>2019-07-04T13:55:25Z</time>
      </trkpt>
      <trkpt lat="42.5097231567" lon="19.8928412050">
        <ele>1702.15</ele>
        <time>2019-07-04T13:55:30Z</time>
      </trkpt>
      <trkpt lat="42.5098436046" lon="19.8929154687">
        <ele>1701.19</ele>
        <time>2019-07-04T13:55:40Z</time>
      </trkpt>
      <trkpt lat="42.5099826604" lon="19.8929396924">
        <ele>1702.63</ele>
        <time>2019-07-04T13:55:51Z</time>
      </trkpt>
      <trkpt lat="42.5100216363" lon="19.8929525167">
        <ele>1703.11</ele>
        <time>2019-07-04T13:55:54Z</time>
      </trkpt>
      <trkpt lat="42.5100885238" lon="19.8929169774">
        <ele>1703.11</ele>
        <time>2019-07-04T13:56:00Z</time>
      </trkpt>
      <trkpt lat="42.5101946387" lon="19.8929303885">
        <ele>1702.63</ele>
        <time>2019-07-04T13:56:08Z</time>
      </trkpt>
      <trkpt lat="42.5102851633" lon="19.8928561248">
        <ele>1701.19</ele>
        <time>2019-07-04T13:56:18Z</time>
      </trkpt>
      <trkpt lat="42.5103384722" lon="19.8928146344">
        <ele>1699.27</ele>
        <time>2019-07-04T13:56:24Z</time>
      </trkpt>
      <trkpt lat="42.5104485266" lon="19.8927931767">
        <ele>1697.34</ele>
        <time>2019-07-04T13:56:37Z</time>
      </trkpt>
      <trkpt lat="42.5105070323" lon="19.8926837090">
        <ele>1696.38</ele>
        <time>2019-07-04T13:56:48Z</time>
      </trkpt>
      <trkpt lat="42.5105398055" lon="19.8926388659">
        <ele>1696.38</ele>
        <time>2019-07-04T13:56:53Z</time>
      </trkpt>
      <trkpt lat="42.5105821341" lon="19.8926460743">
        <ele>1696.38</ele>
        <time>2019-07-04T13:56:57Z</time>
      </trkpt>
      <trkpt lat="42.5106066093" lon="19.8926244490">
        <ele>1696.38</ele>
        <time>2019-07-04T13:57:00Z</time>
      </trkpt>
      <trkpt lat="42.5107047614" lon="19.8925530352">
        <ele>1695.90</ele>
        <time>2019-07-04T13:57:10Z</time>
      </trkpt>
      <trkpt lat="42.5107636862" lon="19.8925220221">
        <ele>1694.94</ele>
        <time>2019-07-04T13:57:15Z</time>
      </trkpt>
      <trkpt lat="42.5109003112" lon="19.8924450763">
        <ele>1691.58</ele>
        <time>2019-07-04T13:57:26Z</time>
      </trkpt>
      <trkpt lat="42.5110899936" lon="19.8923404701">
        <ele>1688.69</ele>
        <time>2019-07-04T13:57:39Z</time>
      </trkpt>
      <trkpt lat="42.5111761596" lon="19.8921468481">
        <ele>1687.25</ele>
        <time>2019-07-04T13:57:50Z</time>
      </trkpt>
      <trkpt lat="42.5112840347" lon="19.8919599317">
        <ele>1683.89</ele>
        <time>2019-07-04T13:58:03Z</time>
      </trkpt>
      <trkpt lat="42.5113117788" lon="19.8919237219">
        <ele>1683.41</ele>
        <time>2019-07-04T13:58:05Z</time>
      </trkpt>
      <trkpt lat="42.5114359986" lon="19.8918632884">
        <ele>1680.04</ele>
        <time>2019-07-04T13:58:16Z</time>
      </trkpt>
      <trkpt lat="42.5114573725" lon="19.8918243963">
        <ele>1679.56</ele>
        <time>2019-07-04T13:58:19Z</time>
      </trkpt>
      <trkpt lat="42.5114853680" lon="19.8917504679">
        <ele>1678.60</ele>
        <time>2019-07-04T13:58:23Z</time>
      </trkpt>
      <trkpt lat="42.5114841107" lon="19.8915830813">
        <ele>1674.75</ele>
        <time>2019-07-04T13:58:34Z</time>
      </trkpt>
      <trkpt lat="42.5114978570" lon="19.8915645573">
        <ele>1673.79</ele>
        <time>2019-07-04T13:58:36Z</time>
      </trkpt>
      <trkpt lat="42.5115474779" lon="19.8915268388">
        <ele>1671.39</ele>
        <time>2019-07-04T13:58:41Z</time>
      </trkpt>
      <trkpt lat="42.5116412714" lon="19.8914523236">
        <ele>1668.99</ele>
        <time>2019-07-04T13:58:48Z</time>
      </trkpt>
      <trkpt lat="42.5116709433" lon="19.8913876992">
        <ele>1668.02</ele>
        <time>2019-07-04T13:58:51Z</time>
      </trkpt>
      <trkpt lat="42.5116728712" lon="19.8913684208">
        <ele>1667.06</ele>
        <time>2019-07-04T13:58:52Z</time>
      </trkpt>
      <trkpt lat="42.5117265154" lon="19.8913338035">
        <ele>1665.62</ele>
        <time>2019-07-04T13:58:56Z</time>
      </trkpt>
      <trkpt lat="42.5117623899" lon="19.8913164530">
        <ele>1665.14</ele>
        <time>2019-07-04T13:58:59Z</time>
      </trkpt>
      <trkpt lat="42.5118597038" lon="19.8912520800">
        <ele>1662.26</ele>
        <time>2019-07-04T13:59:08Z</time>
      </trkpt>
      <trkpt lat="42.5118923094" lon="19.8912156187">
        <ele>1662.26</ele>
        <time>2019-07-04T13:59:11Z</time>
      </trkpt>
      <trkpt lat="42.5119110011" lon="19.8911932390">
        <ele>1661.78</ele>
        <time>2019-07-04T13:59:13Z</time>
      </trkpt>
      <trkpt lat="42.5120271742" lon="19.8911513295">
        <ele>1657.93</ele>
        <time>2019-07-04T13:59:23Z</time>
      </trkpt>
      <trkpt lat="42.5121406652" lon="19.8910933267">
        <ele>1654.57</ele>
        <time>2019-07-04T13:59:31Z</time>
      </trkpt>
      <trkpt lat="42.5122860074" lon="19.8909863736">
        <ele>1650.72</ele>
        <time>2019-07-04T13:59:42Z</time>
      </trkpt>
      <trkpt lat="42.5122917071" lon="19.8909794167">
        <ele>1650.72</ele>
        <time>2019-07-04T13:59:43Z</time>
      </trkpt>
      <trkpt lat="42.5123363826" lon="19.8909192346">
        <ele>1648.32</ele>
        <time>2019-07-04T13:59:49Z</time>
      </trkpt>
      <trkpt lat="42.5123528112" lon="19.8908675183">
        <ele>1647.84</ele>
        <time>2019-07-04T13:59:54Z</time>
      </trkpt>
      <trkpt lat="42.5123898592" lon="19.8908235133">
        <ele>1647.36</ele>
        <time>2019-07-04T13:59:57Z</time>
      </trkpt>
      <trkpt lat="42.5124523044" lon="19.8907655105">
        <ele>1645.91</ele>
        <time>2019-07-04T14:00:02Z</time>
      </trkpt>
      <trkpt lat="42.5124916155" lon="19.8906915821">
        <ele>1644.95</ele>
        <time>2019-07-04T14:00:06Z</time>
      </trkpt>
      <trkpt lat="42.5124201179" lon="19.8906170670">
        <ele>1643.03</ele>
        <time>2019-07-04T14:00:13Z</time>
      </trkpt>
      <trkpt lat="42.5124251470" lon="19.8904974572">
        <ele>1640.15</ele>
        <time>2019-07-04T14:00:21Z</time>
      </trkpt>
      <trkpt lat="42.5123773701" lon="19.8903989699">
        <ele>1638.22</ele>
        <time>2019-07-04T14:00:27Z</time>
      </trkpt>
      <trkpt lat="42.5123607740" lon="19.8902905080">
        <ele>1635.34</ele>
        <time>2019-07-04T14:00:34Z</time>
      </trkpt>
      <trkpt lat="42.5123321917" lon="19.8902165797">
        <ele>1632.46</ele>
        <time>2019-07-04T14:00:41Z</time>
      </trkpt>
      <trkpt lat="42.5123296771" lon="19.8902029172">
        <ele>1632.46</ele>
        <time>2019-07-04T14:00:43Z</time>
      </trkpt>
      <trkpt lat="42.5123078004" lon="19.8900939524">
        <ele>1629.09</ele>
        <time>2019-07-04T14:00:52Z</time>
      </trkpt>
      <trkpt lat="42.5123087224" lon="19.8899554834">
        <ele>1625.25</ele>
        <time>2019-07-04T14:01:02Z</time>
      </trkpt>
      <trkpt lat="42.5123126619" lon="19.8899438325">
        <ele>1625.25</ele>
        <time>2019-07-04T14:01:03Z</time>
      </trkpt>
      <trkpt lat="42.5123209599" lon="19.8899315950">
        <ele>1624.28</ele>
        <time>2019-07-04T14:01:04Z</time>
      </trkpt>
      <trkpt lat="42.5123231392" lon="19.8898339458">
        <ele>1622.36</ele>
        <time>2019-07-04T14:01:10Z</time>
      </trkpt>
      <trkpt lat="42.5123099796" lon="19.8896710854">
        <ele>1619.00</ele>
        <time>2019-07-04T14:01:19Z</time>
      </trkpt>
      <trkpt lat="42.5123153441" lon="19.8896590155">
        <ele>1619.00</ele>
        <time>2019-07-04T14:01:20Z</time>
      </trkpt>
      <trkpt lat="42.5123145897" lon="19.8896423355">
        <ele>1618.04</ele>
        <time>2019-07-04T14:01:21Z</time>
      </trkpt>
      <trkpt lat="42.5123177748" lon="19.8896012641">
        <ele>1617.07</ele>
        <time>2019-07-04T14:01:24Z</time>
      </trkpt>
      <trkpt lat="42.5123247318" lon="19.8895941395">
        <ele>1617.07</ele>
        <time>2019-07-04T14:01:25Z</time>
      </trkpt>
      <trkpt lat="42.5123368856" lon="19.8895940557">
        <ele>1616.59</ele>
        <time>2019-07-04T14:01:26Z</time>
      </trkpt>
      <trkpt lat="42.5123480335" lon="19.8895896133">
        <ele>1616.59</ele>
        <time>2019-07-04T14:01:27Z</time>
      </trkpt>
      <trkpt lat="42.5123550743" lon="19.8895808123">
        <ele>1616.59</ele>
        <time>2019-07-04T14:01:28Z</time>
      </trkpt>
      <trkpt lat="42.5123838242" lon="19.8894176167">
        <ele>1613.71</ele>
        <time>2019-07-04T14:01:39Z</time>
      </trkpt>
      <trkpt lat="42.5123911165" lon="19.8893824127">
        <ele>1613.23</ele>
        <time>2019-07-04T14:01:42Z</time>
      </trkpt>
      <trkpt lat="42.5124482810" lon="19.8893385753">
        <ele>1611.79</ele>
        <time>2019-07-04T14:01:48Z</time>
      </trkpt>
      <trkpt lat="42.5124685653" lon="19.8892924748">
        <ele>1611.31</ele>
        <time>2019-07-04T14:01:53Z</time>
      </trkpt>
      <trkpt lat="42.5124482810" lon="19.8891549278">
        <ele>1609.86</ele>
        <time>2019-07-04T14:02:02Z</time>
      </trkpt>
      <trkpt lat="42.5124828983" lon="19.8890266847">
        <ele>1608.90</ele>
        <time>2019-07-04T14:02:09Z</time>
      </trkpt>
      <trkpt lat="42.5125081278" lon="19.8889167979">
        <ele>1606.98</ele>
        <time>2019-07-04T14:02:15Z</time>
      </trkpt>
      <trkpt lat="42.5125331059" lon="19.8888178915">
        <ele>1606.02</ele>
        <time>2019-07-04T14:02:21Z</time>
      </trkpt>
      <trkpt lat="42.5125462655" lon="19.8887458071">
        <ele>1604.10</ele>
        <time>2019-07-04T14:02:25Z</time>
      </trkpt>
      <trkpt lat="42.5125662144" lon="19.8886975273">
        <ele>1603.62</ele>
        <time>2019-07-04T14:02:28Z</time>
      </trkpt>
      <trkpt lat="42.5125865825" lon="19.8885457311">
        <ele>1600.73</ele>
        <time>2019-07-04T14:02:37Z</time>
      </trkpt>
      <trkpt lat="42.5125766080" lon="19.8883803561">
        <ele>1597.37</ele>
        <time>2019-07-04T14:02:46Z</time>
      </trkpt>
      <trkpt lat="42.5125861634" lon="19.8881874885">
        <ele>1594.00</ele>
        <time>2019-07-04T14:02:56Z</time>
      </trkpt>
      <trkpt lat="42.5125937909" lon="19.8881433997">
        <ele>1593.04</ele>
        <time>2019-07-04T14:02:59Z</time>
      </trkpt>
      <trkpt lat="42.5125567429" lon="19.8880367819">
        <ele>1590.16</ele>
        <time>2019-07-04T14:03:10Z</time>
      </trkpt>
      <trkpt lat="42.5126130693" lon="19.8878680542">
        <ele>1586.79</ele>
        <time>2019-07-04T14:03:19Z</time>
      </trkpt>
      <trkpt lat="42.5126404781" lon="19.8878306709">
        <ele>1586.31</ele>
        <time>2019-07-04T14:03:22Z</time>
      </trkpt>
      <trkpt lat="42.5126771908" lon="19.8877759371">
        <ele>1585.35</ele>
        <time>2019-07-04T14:03:25Z</time>
      </trkpt>
      <trkpt lat="42.5128048472" lon="19.8875764478">
        <ele>1581.51</ele>
        <time>2019-07-04T14:03:38Z</time>
      </trkpt>
      <trkpt lat="42.5129542965" lon="19.8874437623">
        <ele>1579.58</ele>
        <time>2019-07-04T14:03:52Z</time>
      </trkpt>
      <trkpt lat="42.5130671170" lon="19.8873606138">
        <ele>1578.62</ele>
        <time>2019-07-04T14:04:05Z</time>
      </trkpt>
      <trkpt lat="42.5131096132" lon="19.8872903734">
        <ele>1577.66</ele>
        <time>2019-07-04T14:04:10Z</time>
      </trkpt>
      <trkpt lat="42.5132386945" lon="19.8871062230">
        <ele>1576.70</ele>
        <time>2019-07-04T14:04:24Z</time>
      </trkpt>
      <trkpt lat="42.5132630859" lon="19.8870683368">
        <ele>1576.22</ele>
        <time>2019-07-04T14:04:27Z</time>
      </trkpt>
      <trkpt lat="42.5132898241" lon="19.8870297801">
        <ele>1575.74</ele>
        <time>2019-07-04T14:04:31Z</time>
      </trkpt>
      <trkpt lat="42.5132977869" lon="19.8870053887">
        <ele>1575.74</ele>
        <time>2019-07-04T14:04:33Z</time>
      </trkpt>
      <trkpt lat="42.5132803526" lon="19.8869059794">
        <ele>1572.37</ele>
        <time>2019-07-04T14:04:43Z</time>
      </trkpt>
      <trkpt lat="42.5132492557" lon="19.8868189752">
        <ele>1570.93</ele>
        <time>2019-07-04T14:04:49Z</time>
      </trkpt>
      <trkpt lat="42.5131945219" lon="19.8866723757">
        <ele>1567.57</ele>
        <time>2019-07-04T14:05:00Z</time>
      </trkpt>
      <trkpt lat="42.5131913368" lon="19.8866305500">
        <ele>1567.09</ele>
        <time>2019-07-04T14:05:02Z</time>
      </trkpt>
      <trkpt lat="42.5131641794" lon="19.8864857946">
        <ele>1563.72</ele>
        <time>2019-07-04T14:05:13Z</time>
      </trkpt>
      <trkpt lat="42.5131454878" lon="19.8864740599">
        <ele>1563.24</ele>
        <time>2019-07-04T14:05:15Z</time>
      </trkpt>
      <trkpt lat="42.5131304003" lon="19.8863845412">
        <ele>1562.76</ele>
        <time>2019-07-04T14:05:20Z</time>
      </trkpt>
      <trkpt lat="42.5131392851" lon="19.8863248620">
        <ele>1562.28</ele>
        <time>2019-07-04T14:05:23Z</time>
      </trkpt>
      <trkpt lat="42.5131971203" lon="19.8861248698">
        <ele>1559.88</ele>
        <time>2019-07-04T14:05:35Z</time>
      </trkpt>
      <trkpt lat="42.5132360123" lon="19.8860470857">
        <ele>1558.43</ele>
        <time>2019-07-04T14:05:40Z</time>
      </trkpt>
      <trkpt lat="42.5133828633" lon="19.8858677968">
        <ele>1555.07</ele>
        <time>2019-07-04T14:05:54Z</time>
      </trkpt>
      <trkpt lat="42.5134836975" lon="19.8857049365">
        <ele>1551.71</ele>
        <time>2019-07-04T14:06:05Z</time>
      </trkpt>
      <trkpt lat="42.5135300495" lon="19.8856072035">
        <ele>1550.26</ele>
        <time>2019-07-04T14:06:11Z</time>
      </trkpt>
      <trkpt lat="42.5135891419" lon="19.8855284136">
        <ele>1548.82</ele>
        <time>2019-07-04T14:06:17Z</time>
      </trkpt>
      <trkpt lat="42.5137429498" lon="19.8852814827">
        <ele>1546.42</ele>
        <time>2019-07-04T14:06:33Z</time>
      </trkpt>
      <trkpt lat="42.5138597097" lon="19.8850462865">
        <ele>1544.50</ele>
        <time>2019-07-04T14:06:48Z</time>
      </trkpt>
      <trkpt lat="42.5138951652" lon="19.8849266768">
        <ele>1543.53</ele>
        <time>2019-07-04T14:06:55Z</time>
      </trkpt>
      <trkpt lat="42.5139825046" lon="19.8846899718">
        <ele>1541.13</ele>
        <time>2019-07-04T14:07:09Z</time>
      </trkpt>
      <trkpt lat="42.5140353944" lon="19.8845080845">
        <ele>1538.73</ele>
        <time>2019-07-04T14:07:20Z</time>
      </trkpt>
      <trkpt lat="42.5141558424" lon="19.8842367623">
        <ele>1535.84</ele>
        <time>2019-07-04T14:07:36Z</time>
      </trkpt>
      <trkpt lat="42.5142747816" lon="19.8840335011">
        <ele>1532.96</ele>
        <time>2019-07-04T14:07:49Z</time>
      </trkpt>
      <trkpt lat="42.5143855903" lon="19.8838888295">
        <ele>1530.08</ele>
        <time>2019-07-04T14:08:02Z</time>
      </trkpt>
      <trkpt lat="42.5144640449" lon="19.8837097920">
        <ele>1526.71</ele>
        <time>2019-07-04T14:08:12Z</time>
      </trkpt>
      <trkpt lat="42.5145582575" lon="19.8835599236">
        <ele>1523.35</ele>
        <time>2019-07-04T14:08:23Z</time>
      </trkpt>
      <trkpt lat="42.5145654660" lon="19.8835549783">
        <ele>1523.35</ele>
        <time>2019-07-04T14:08:24Z</time>
      </trkpt>
      <trkpt lat="42.5146800466" lon="19.8834742606">
        <ele>1521.42</ele>
        <time>2019-07-04T14:08:34Z</time>
      </trkpt>
      <trkpt lat="42.5146991573" lon="19.8834281601">
        <ele>1521.42</ele>
        <time>2019-07-04T14:08:37Z</time>
      </trkpt>
      <trkpt lat="42.5148118101" lon="19.8831758648">
        <ele>1519.50</ele>
        <time>2019-07-04T14:08:52Z</time>
      </trkpt>
      <trkpt lat="42.5148180127" lon="19.8831613641">
        <ele>1519.50</ele>
        <time>2019-07-04T14:08:53Z</time>
      </trkpt>
      <trkpt lat="42.5148414820" lon="19.8830922972">
        <ele>1518.54</ele>
        <time>2019-07-04T14:08:57Z</time>
      </trkpt>
      <trkpt lat="42.5149883330" lon="19.8828053009">
        <ele>1517.58</ele>
        <time>2019-07-04T14:09:15Z</time>
      </trkpt>
      <trkpt lat="42.5151271373" lon="19.8826379143">
        <ele>1515.66</ele>
        <time>2019-07-04T14:09:28Z</time>
      </trkpt>
      <trkpt lat="42.5152688753" lon="19.8824476451">
        <ele>1513.73</ele>
        <time>2019-07-04T14:09:41Z</time>
      </trkpt>
      <trkpt lat="42.5153868087" lon="19.8823637422">
        <ele>1511.81</ele>
        <time>2019-07-04T14:09:51Z</time>
      </trkpt>
      <trkpt lat="42.5154310651" lon="19.8822923284">
        <ele>1511.33</ele>
        <time>2019-07-04T14:09:57Z</time>
      </trkpt>
      <trkpt lat="42.5154376868" lon="19.8822546098">
        <ele>1510.37</ele>
        <time>2019-07-04T14:10:00Z</time>
      </trkpt>
      <trkpt lat="42.5154910795" lon="19.8821515962">
        <ele>1509.41</ele>
        <time>2019-07-04T14:10:09Z</time>
      </trkpt>
      <trkpt lat="42.5155013055" lon="19.8820924200">
        <ele>1508.45</ele>
        <time>2019-07-04T14:10:13Z</time>
      </trkpt>
      <trkpt lat="42.5155252777" lon="19.8818847165">
        <ele>1507.00</ele>
        <time>2019-07-04T14:10:25Z</time>
      </trkpt>
      <trkpt lat="42.5155882258" lon="19.8817687947">
        <ele>1506.04</ele>
        <time>2019-07-04T14:10:31Z</time>
      </trkpt>
      <trkpt lat="42.5156515092" lon="19.8816703074">
        <ele>1504.60</ele>
        <time>2019-07-04T14:10:38Z</time>
      </trkpt>
      <trkpt lat="42.5157163013" lon="19.8816026654">
        <ele>1503.64</ele>
        <time>2019-07-04T14:10:44Z</time>
      </trkpt>
      <trkpt lat="42.5157735497" lon="19.8814144917">
        <ele>1501.24</ele>
        <time>2019-07-04T14:10:54Z</time>
      </trkpt>
      <trkpt lat="42.5158038922" lon="19.8813571595">
        <ele>1500.76</ele>
        <time>2019-07-04T14:10:58Z</time>
      </trkpt>
      <trkpt lat="42.5158109330" lon="19.8813405633">
        <ele>1500.76</ele>
        <time>2019-07-04T14:10:59Z</time>
      </trkpt>
      <trkpt lat="42.5158172194" lon="19.8812975641">
        <ele>1500.27</ele>
        <time>2019-07-04T14:11:01Z</time>
      </trkpt>
      <trkpt lat="42.5158639904" lon="19.8810904473">
        <ele>1497.87</ele>
        <time>2019-07-04T14:11:11Z</time>
      </trkpt>
      <trkpt lat="42.5158618111" lon="19.8810364679">
        <ele>1496.91</ele>
        <time>2019-07-04T14:11:15Z</time>
      </trkpt>
      <trkpt lat="42.5158940814" lon="19.8809544090">
        <ele>1496.43</ele>
        <time>2019-07-04T14:11:20Z</time>
      </trkpt>
      <trkpt lat="42.5159147009" lon="19.8808961548">
        <ele>1495.47</ele>
        <time>2019-07-04T14:11:23Z</time>
      </trkpt>
      <trkpt lat="42.5159836840" lon="19.8807337135">
        <ele>1494.99</ele>
        <time>2019-07-04T14:11:35Z</time>
      </trkpt>
      <trkpt lat="42.5160057284" lon="19.8807054665">
        <ele>1494.03</ele>
        <time>2019-07-04T14:11:38Z</time>
      </trkpt>
      <trkpt lat="42.5160234142" lon="19.8806554265">
        <ele>1493.55</ele>
        <time>2019-07-04T14:11:41Z</time>
      </trkpt>
      <trkpt lat="42.5160469674" lon="19.8805158678">
        <ele>1492.10</ele>
        <time>2019-07-04T14:11:48Z</time>
      </trkpt>
      <trkpt lat="42.5160789862" lon="19.8804472201">
        <ele>1492.10</ele>
        <time>2019-07-04T14:11:52Z</time>
      </trkpt>
      <trkpt lat="42.5161367375" lon="19.8802760616">
        <ele>1491.14</ele>
        <time>2019-07-04T14:12:02Z</time>
      </trkpt>
      <trkpt lat="42.5161680020" lon="19.8801603075">
        <ele>1490.66</ele>
        <time>2019-07-04T14:12:08Z</time>
      </trkpt>
      <trkpt lat="42.5162488874" lon="19.8800175637">
        <ele>1489.22</ele>
        <time>2019-07-04T14:12:19Z</time>
      </trkpt>
      <trkpt lat="42.5162841752" lon="19.8798127100">
        <ele>1486.34</ele>
        <time>2019-07-04T14:12:30Z</time>
      </trkpt>
      <trkpt lat="42.5163040403" lon="19.8797185812">
        <ele>1484.89</ele>
        <time>2019-07-04T14:12:35Z</time>
      </trkpt>
      <trkpt lat="42.5163043756" lon="19.8795291502">
        <ele>1482.97</ele>
        <time>2019-07-04T14:12:45Z</time>
      </trkpt>
      <trkpt lat="42.5163624622" lon="19.8793931119">
        <ele>1480.57</ele>
        <time>2019-07-04T14:12:54Z</time>
      </trkpt>
      <trkpt lat="42.5163125060" lon="19.8792174272">
        <ele>1477.20</ele>
        <time>2019-07-04T14:13:04Z</time>
      </trkpt>
      <trkpt lat="42.5163078960" lon="19.8791992385">
        <ele>1477.20</ele>
        <time>2019-07-04T14:13:05Z</time>
      </trkpt>
      <trkpt lat="42.5163263362" lon="19.8790765274">
        <ele>1473.84</ele>
        <time>2019-07-04T14:13:14Z</time>
      </trkpt>
      <trkpt lat="42.5163135119" lon="19.8790491186">
        <ele>1473.36</ele>
        <time>2019-07-04T14:13:16Z</time>
      </trkpt>
      <trkpt lat="42.5162780564" lon="19.8790046945">
        <ele>1471.92</ele>
        <time>2019-07-04T14:13:20Z</time>
      </trkpt>
      <trkpt lat="42.5163008552" lon="19.8788155988">
        <ele>1469.99</ele>
        <time>2019-07-04T14:13:31Z</time>
      </trkpt>
      <trkpt lat="42.5163373165" lon="19.8786853440">
        <ele>1469.03</ele>
        <time>2019-07-04T14:13:39Z</time>
      </trkpt>
      <trkpt lat="42.5163856801" lon="19.8786138464">
        <ele>1468.55</ele>
        <time>2019-07-04T14:13:44Z</time>
      </trkpt>
      <trkpt lat="42.5164480414" lon="19.8785173707">
        <ele>1468.55</ele>
        <time>2019-07-04T14:13:54Z</time>
      </trkpt>
      <trkpt lat="42.5165337045" lon="19.8783978447">
        <ele>1466.15</ele>
        <time>2019-07-04T14:14:05Z</time>
      </trkpt>
      <trkpt lat="42.5165513903" lon="19.8783387523">
        <ele>1464.71</ele>
        <time>2019-07-04T14:14:10Z</time>
      </trkpt>
      <trkpt lat="42.5165674835" lon="19.8782792408">
        <ele>1463.26</ele>
        <time>2019-07-04T14:14:13Z</time>
      </trkpt>
      <trkpt lat="42.5165703334" lon="19.8782646563">
        <ele>1463.26</ele>
        <time>2019-07-04T14:14:14Z</time>
      </trkpt>
      <trkpt lat="42.5165788829" lon="19.8782532569">
        <ele>1462.78</ele>
        <time>2019-07-04T14:14:15Z</time>
      </trkpt>
      <trkpt lat="42.5165855885" lon="19.8782271054">
        <ele>1462.30</ele>
        <time>2019-07-04T14:14:17Z</time>
      </trkpt>
      <trkpt lat="42.5165869296" lon="19.8781803343">
        <ele>1461.34</ele>
        <time>2019-07-04T14:14:21Z</time>
      </trkpt>
      <trkpt lat="42.5166418310" lon="19.8780662566">
        <ele>1459.42</ele>
        <time>2019-07-04T14:14:34Z</time>
      </trkpt>
      <trkpt lat="42.5166650489" lon="19.8780007102">
        <ele>1458.94</ele>
        <time>2019-07-04T14:14:49Z</time>
      </trkpt>
      <trkpt lat="42.5166658033" lon="19.8779614829">
        <ele>1458.46</ele>
        <time>2019-07-04T14:14:52Z</time>
      </trkpt>
      <trkpt lat="42.5165789668" lon="19.8778237682">
        <ele>1457.50</ele>
        <time>2019-07-04T14:15:05Z</time>
      </trkpt>
      <trkpt lat="42.5165262446" lon="19.8777701240">
        <ele>1457.02</ele>
        <time>2019-07-04T14:15:12Z</time>
      </trkpt>
      <trkpt lat="42.5164945610" lon="19.8775770050">
        <ele>1454.61</ele>
        <time>2019-07-04T14:15:26Z</time>
      </trkpt>
      <trkpt lat="42.5164764561" lon="19.8775191698">
        <ele>1454.61</ele>
        <time>2019-07-04T14:15:30Z</time>
      </trkpt>
      <trkpt lat="42.5164363068" lon="19.8772589117">
        <ele>1453.17</ele>
        <time>2019-07-04T14:15:43Z</time>
      </trkpt>
      <trkpt lat="42.5164439343" lon="19.8770910222">
        <ele>1451.25</ele>
        <time>2019-07-04T14:15:51Z</time>
      </trkpt>
      <trkpt lat="42.5164573453" lon="19.8769893497">
        <ele>1450.29</ele>
        <time>2019-07-04T14:16:01Z</time>
      </trkpt>
      <trkpt lat="42.5164802279" lon="19.8769362923">
        <ele>1448.84</ele>
        <time>2019-07-04T14:16:05Z</time>
      </trkpt>
      <trkpt lat="42.5165054575" lon="19.8768987413">
        <ele>1447.40</ele>
        <time>2019-07-04T14:16:09Z</time>
      </trkpt>
      <trkpt lat="42.5166394841" lon="19.8768609390">
        <ele>1445.00</ele>
        <time>2019-07-04T14:16:22Z</time>
      </trkpt>
      <trkpt lat="42.5166468602" lon="19.8768384755">
        <ele>1445.00</ele>
        <time>2019-07-04T14:16:24Z</time>
      </trkpt>
      <trkpt lat="42.5166380592" lon="19.8767585121">
        <ele>1445.00</ele>
        <time>2019-07-04T14:16:28Z</time>
      </trkpt>
      <trkpt lat="42.5166144222" lon="19.8766081408">
        <ele>1444.04</ele>
        <time>2019-07-04T14:16:36Z</time>
      </trkpt>
      <trkpt lat="42.5165833253" lon="19.8765520658">
        <ele>1443.56</ele>
        <time>2019-07-04T14:16:40Z</time>
      </trkpt>
      <trkpt lat="42.5165405776" lon="19.8763829190">
        <ele>1442.60</ele>
        <time>2019-07-04T14:16:48Z</time>
      </trkpt>
      <trkpt lat="42.5165570900" lon="19.8762700148">
        <ele>1442.11</ele>
        <time>2019-07-04T14:16:53Z</time>
      </trkpt>
      <trkpt lat="42.5166601874" lon="19.8759823479">
        <ele>1439.23</ele>
        <time>2019-07-04T14:17:08Z</time>
      </trkpt>
      <trkpt lat="42.5167967286" lon="19.8758708686">
        <ele>1436.35</ele>
        <time>2019-07-04T14:17:18Z</time>
      </trkpt>
      <trkpt lat="42.5168339442" lon="19.8757701181">
        <ele>1435.39</ele>
        <time>2019-07-04T14:17:24Z</time>
      </trkpt>
      <trkpt lat="42.5168581679" lon="19.8755953554">
        <ele>1433.94</ele>
        <time>2019-07-04T14:17:34Z</time>
      </trkpt>
      <trkpt lat="42.5168760214" lon="19.8755205050">
        <ele>1432.98</ele>
        <time>2019-07-04T14:17:38Z</time>
      </trkpt>
      <trkpt lat="42.5168668851" lon="19.8754225206">
        <ele>1432.50</ele>
        <time>2019-07-04T14:17:44Z</time>
      </trkpt>
      <trkpt lat="42.5169330183" lon="19.8751581553">
        <ele>1429.62</ele>
        <time>2019-07-04T14:18:00Z</time>
      </trkpt>
      <trkpt lat="42.5169838965" lon="19.8749625217">
        <ele>1427.70</ele>
        <time>2019-07-04T14:18:13Z</time>
      </trkpt>
      <trkpt lat="42.5170056056" lon="19.8748757690">
        <ele>1425.77</ele>
        <time>2019-07-04T14:18:19Z</time>
      </trkpt>
      <trkpt lat="42.5170318410" lon="19.8748205323">
        <ele>1424.81</ele>
        <time>2019-07-04T14:18:22Z</time>
      </trkpt>
      <trkpt lat="42.5170881674" lon="19.8746764474">
        <ele>1423.85</ele>
        <time>2019-07-04T14:18:30Z</time>
      </trkpt>
      <trkpt lat="42.5170916039" lon="19.8744888604">
        <ele>1421.93</ele>
        <time>2019-07-04T14:18:42Z</time>
      </trkpt>
      <trkpt lat="42.5170423184" lon="19.8743798118">
        <ele>1421.93</ele>
        <time>2019-07-04T14:18:49Z</time>
      </trkpt>
      <trkpt lat="42.5170139875" lon="19.8743073083">
        <ele>1421.93</ele>
        <time>2019-07-04T14:18:54Z</time>
      </trkpt>
      <trkpt lat="42.5170004088" lon="19.8742006905">
        <ele>1421.93</ele>
        <time>2019-07-04T14:19:10Z</time>
      </trkpt>
      <trkpt lat="42.5170123111" lon="19.8742233217">
        <ele>1421.45</ele>
        <time>2019-07-04T14:19:36Z</time>
      </trkpt>
      <trkpt lat="42.5169891771" lon="19.8742653150">
        <ele>1420.49</ele>
        <time>2019-07-04T14:20:09Z</time>
      </trkpt>
      <trkpt lat="42.5169960503" lon="19.8742743675">
        <ele>1420.00</ele>
        <time>2019-07-04T14:20:38Z</time>
      </trkpt>
      <trkpt lat="42.5170007441" lon="19.8742533289">
        <ele>1420.00</ele>
        <time>2019-07-04T14:21:14Z</time>
      </trkpt>
      <trkpt lat="42.5170025881" lon="19.8742330447">
        <ele>1420.00</ele>
        <time>2019-07-04T14:21:47Z</time>
      </trkpt>
      <trkpt lat="42.5170085393" lon="19.8742693383">
        <ele>1419.52</ele>
        <time>2019-07-04T14:22:19Z</time>
      </trkpt>
      <trkpt lat="42.5170160830" lon="19.8742715176">
        <ele>1419.52</ele>
        <time>2019-07-04T14:22:54Z</time>
      </trkpt>
      <trkpt lat="42.5170271471" lon="19.8742614593">
        <ele>1420.00</ele>
        <time>2019-07-04T14:23:22Z</time>
      </trkpt>
      <trkpt lat="42.5170147419" lon="19.8742626328">
        <ele>1420.97</ele>
        <time>2019-07-04T14:23:48Z</time>
      </trkpt>
      <trkpt lat="42.5170217827" lon="19.8743315320">
        <ele>1421.45</ele>
        <time>2019-07-04T14:24:16Z</time>
      </trkpt>
      <trkpt lat="42.5170046836" lon="19.8742343858">
        <ele>1422.41</ele>
        <time>2019-07-04T14:24:38Z</time>
      </trkpt>
      <trkpt lat="42.5170126464" lon="19.8741934821">
        <ele>1422.41</ele>
        <time>2019-07-04T14:24:58Z</time>
      </trkpt>
      <trkpt lat="42.5169906020" lon="19.8740592040">
        <ele>1422.89</ele>
        <time>2019-07-04T14:25:06Z</time>
      </trkpt>
      <trkpt lat="42.5169677194" lon="19.8739889637">
        <ele>1421.45</ele>
        <time>2019-07-04T14:25:11Z</time>
      </trkpt>
      <trkpt lat="42.5170029234" lon="19.8739433661">
        <ele>1419.52</ele>
        <time>2019-07-04T14:25:15Z</time>
      </trkpt>
      <trkpt lat="42.5170698948" lon="19.8738731258">
        <ele>1417.60</ele>
        <time>2019-07-04T14:25:22Z</time>
      </trkpt>
      <trkpt lat="42.5172297377" lon="19.8736616503">
        <ele>1414.24</ele>
        <time>2019-07-04T14:25:36Z</time>
      </trkpt>
      <trkpt lat="42.5173683744" lon="19.8735085968">
        <ele>1411.35</ele>
        <time>2019-07-04T14:25:48Z</time>
      </trkpt>
      <trkpt lat="42.5174522772" lon="19.8734526057">
        <ele>1409.91</ele>
        <time>2019-07-04T14:25:57Z</time>
      </trkpt>
      <trkpt lat="42.5174899120" lon="19.8734184913">
        <ele>1408.47</ele>
        <time>2019-07-04T14:26:01Z</time>
      </trkpt>
      <trkpt lat="42.5174964499" lon="19.8733582254">
        <ele>1407.03</ele>
        <time>2019-07-04T14:26:05Z</time>
      </trkpt>
      <trkpt lat="42.5175232720" lon="19.8733080178">
        <ele>1405.58</ele>
        <time>2019-07-04T14:26:10Z</time>
      </trkpt>
      <trkpt lat="42.5175482500" lon="19.8732879851">
        <ele>1404.62</ele>
        <time>2019-07-04T14:26:13Z</time>
      </trkpt>
      <trkpt lat="42.5175554585" lon="19.8730965424">
        <ele>1402.22</ele>
        <time>2019-07-04T14:26:26Z</time>
      </trkpt>
      <trkpt lat="42.5175712164" lon="19.8730664514">
        <ele>1401.74</ele>
        <time>2019-07-04T14:26:28Z</time>
      </trkpt>
      <trkpt lat="42.5175894052" lon="19.8729278147">
        <ele>1398.37</ele>
        <time>2019-07-04T14:26:35Z</time>
      </trkpt>
      <trkpt lat="42.5176084321" lon="19.8728880007">
        <ele>1397.89</ele>
        <time>2019-07-04T14:26:37Z</time>
      </trkpt>
      <trkpt lat="42.5176316500" lon="19.8728575744">
        <ele>1397.41</ele>
        <time>2019-07-04T14:26:40Z</time>
      </trkpt>
      <trkpt lat="42.5176488329" lon="19.8728372902">
        <ele>1396.93</ele>
        <time>2019-07-04T14:26:42Z</time>
      </trkpt>
      <trkpt lat="42.5177112781" lon="19.8727140762">
        <ele>1394.53</ele>
        <time>2019-07-04T14:26:50Z</time>
      </trkpt>
      <trkpt lat="42.5177124515" lon="19.8726393934">
        <ele>1393.09</ele>
        <time>2019-07-04T14:26:54Z</time>
      </trkpt>
      <trkpt lat="42.5176450610" lon="19.8725456838">
        <ele>1390.68</ele>
        <time>2019-07-04T14:27:04Z</time>
      </trkpt>
      <trkpt lat="42.5175782572" lon="19.8724458553">
        <ele>1388.28</ele>
        <time>2019-07-04T14:27:12Z</time>
      </trkpt>
      <trkpt lat="42.5175897405" lon="19.8723052908">
        <ele>1384.92</ele>
        <time>2019-07-04T14:27:19Z</time>
      </trkpt>
      <trkpt lat="42.5175986253" lon="19.8722460307">
        <ele>1384.44</ele>
        <time>2019-07-04T14:27:22Z</time>
      </trkpt>
      <trkpt lat="42.5176217593" lon="19.8721223138">
        <ele>1382.51</ele>
        <time>2019-07-04T14:27:29Z</time>
      </trkpt>
      <trkpt lat="42.5176375173" lon="19.8720410094">
        <ele>1381.07</ele>
        <time>2019-07-04T14:27:35Z</time>
      </trkpt>
      <trkpt lat="42.5176160596" lon="19.8719593696">
        <ele>1379.15</ele>
        <time>2019-07-04T14:27:41Z</time>
      </trkpt>
      <trkpt lat="42.5176426303" lon="19.8718936555">
        <ele>1377.71</ele>
        <time>2019-07-04T14:27:45Z</time>
      </trkpt>
      <trkpt lat="42.5177108590" lon="19.8717090860">
        <ele>1375.30</ele>
        <time>2019-07-04T14:27:55Z</time>
      </trkpt>
      <trkpt lat="42.5177466497" lon="19.8715636600">
        <ele>1371.94</ele>
        <time>2019-07-04T14:28:04Z</time>
      </trkpt>
      <trkpt lat="42.5178101007" lon="19.8714571260">
        <ele>1369.54</ele>
        <time>2019-07-04T14:28:13Z</time>
      </trkpt>
      <trkpt lat="42.5178367551" lon="19.8714049906">
        <ele>1368.09</ele>
        <time>2019-07-04T14:28:16Z</time>
      </trkpt>
      <trkpt lat="42.5178347435" lon="19.8713386897">
        <ele>1367.13</ele>
        <time>2019-07-04T14:28:20Z</time>
      </trkpt>
      <trkpt lat="42.5178432092" lon="19.8713079281">
        <ele>1366.65</ele>
        <time>2019-07-04T14:28:22Z</time>
      </trkpt>
      <trkpt lat="42.5178497471" lon="19.8711755779">
        <ele>1364.25</ele>
        <time>2019-07-04T14:28:30Z</time>
      </trkpt>
      <trkpt lat="42.5178641640" lon="19.8710806109">
        <ele>1362.33</ele>
        <time>2019-07-04T14:28:36Z</time>
      </trkpt>
      <trkpt lat="42.5178741384" lon="19.8710558005">
        <ele>1361.36</ele>
        <time>2019-07-04T14:28:39Z</time>
      </trkpt>
      <trkpt lat="42.5179211609" lon="19.8710278049">
        <ele>1360.40</ele>
        <time>2019-07-04T14:28:43Z</time>
      </trkpt>
      <trkpt lat="42.5179280341" lon="19.8709291499">
        <ele>1359.44</ele>
        <time>2019-07-04T14:28:49Z</time>
      </trkpt>
      <trkpt lat="42.5178957637" lon="19.8708700575">
        <ele>1358.00</ele>
        <time>2019-07-04T14:28:53Z</time>
      </trkpt>
      <trkpt lat="42.5179615617" lon="19.8707746714">
        <ele>1355.12</ele>
        <time>2019-07-04T14:29:03Z</time>
      </trkpt>
      <trkpt lat="42.5179875456" lon="19.8707096279">
        <ele>1352.71</ele>
        <time>2019-07-04T14:29:08Z</time>
      </trkpt>
      <trkpt lat="42.5180259347" lon="19.8706072010">
        <ele>1351.75</ele>
        <time>2019-07-04T14:29:13Z</time>
      </trkpt>
      <trkpt lat="42.5180776510" lon="19.8705848213">
        <ele>1350.79</ele>
        <time>2019-07-04T14:29:20Z</time>
      </trkpt>
      <trkpt lat="42.5181232486" lon="19.8705724161">
        <ele>1349.83</ele>
        <time>2019-07-04T14:29:24Z</time>
      </trkpt>
      <trkpt lat="42.5181275234" lon="19.8704948835">
        <ele>1348.87</ele>
        <time>2019-07-04T14:29:29Z</time>
      </trkpt>
      <trkpt lat="42.5180804171" lon="19.8703971505">
        <ele>1346.94</ele>
        <time>2019-07-04T14:29:36Z</time>
      </trkpt>
      <trkpt lat="42.5180665869" lon="19.8703310173">
        <ele>1345.98</ele>
        <time>2019-07-04T14:29:40Z</time>
      </trkpt>
      <trkpt lat="42.5180183072" lon="19.8702415824">
        <ele>1343.58</ele>
        <time>2019-07-04T14:29:47Z</time>
      </trkpt>
      <trkpt lat="42.5180091709" lon="19.8701528180">
        <ele>1342.14</ele>
        <time>2019-07-04T14:29:52Z</time>
      </trkpt>
      <trkpt lat="42.5180349033" lon="19.8701025266">
        <ele>1341.18</ele>
        <time>2019-07-04T14:29:56Z</time>
      </trkpt>
      <trkpt lat="42.5181121007" lon="19.8699297756">
        <ele>1337.33</ele>
        <time>2019-07-04T14:30:07Z</time>
      </trkpt>
      <trkpt lat="42.5181713607" lon="19.8698271811">
        <ele>1334.45</ele>
        <time>2019-07-04T14:30:14Z</time>
      </trkpt>
      <trkpt lat="42.5182187185" lon="19.8696623091">
        <ele>1331.56</ele>
        <time>2019-07-04T14:30:25Z</time>
      </trkpt>
      <trkpt lat="42.5182101689" lon="19.8694593832">
        <ele>1328.20</ele>
        <time>2019-07-04T14:30:36Z</time>
      </trkpt>
      <trkpt lat="42.5182442833" lon="19.8693048209">
        <ele>1325.80</ele>
        <time>2019-07-04T14:30:45Z</time>
      </trkpt>
      <trkpt lat="42.5182181317" lon="19.8691863008">
        <ele>1324.35</ele>
        <time>2019-07-04T14:30:52Z</time>
      </trkpt>
      <trkpt lat="42.5182198081" lon="19.8691417091">
        <ele>1323.39</ele>
        <time>2019-07-04T14:30:54Z</time>
      </trkpt>
      <trkpt lat="42.5182412658" lon="19.8689967021">
        <ele>1320.51</ele>
        <time>2019-07-04T14:31:03Z</time>
      </trkpt>
      <trkpt lat="42.5183306169" lon="19.8689240310">
        <ele>1317.62</ele>
        <time>2019-07-04T14:31:12Z</time>
      </trkpt>
      <trkpt lat="42.5183513202" lon="19.8689027410">
        <ele>1317.14</ele>
        <time>2019-07-04T14:31:15Z</time>
      </trkpt>
      <trkpt lat="42.5183853507" lon="19.8688990530">
        <ele>1316.18</ele>
        <time>2019-07-04T14:31:18Z</time>
      </trkpt>
      <trkpt lat="42.5184018631" lon="19.8687767610">
        <ele>1313.78</ele>
        <time>2019-07-04T14:31:25Z</time>
      </trkpt>
      <trkpt lat="42.5184398331" lon="19.8687422276">
        <ele>1313.30</ele>
        <time>2019-07-04T14:31:28Z</time>
      </trkpt>
      <trkpt lat="42.5185146835" lon="19.8686351907">
        <ele>1310.90</ele>
        <time>2019-07-04T14:31:36Z</time>
      </trkpt>
      <trkpt lat="42.5185354706" lon="19.8685869109">
        <ele>1310.41</ele>
        <time>2019-07-04T14:31:39Z</time>
      </trkpt>
      <trkpt lat="42.5185243227" lon="19.8684854060">
        <ele>1308.49</ele>
        <time>2019-07-04T14:31:45Z</time>
      </trkpt>
      <trkpt lat="42.5185127556" lon="19.8682910297">
        <ele>1306.09</ele>
        <time>2019-07-04T14:31:57Z</time>
      </trkpt>
      <trkpt lat="42.5185288489" lon="19.8682539817">
        <ele>1305.13</ele>
        <time>2019-07-04T14:32:00Z</time>
      </trkpt>
      <trkpt lat="42.5185897015" lon="19.8681767844">
        <ele>1303.69</ele>
        <time>2019-07-04T14:32:06Z</time>
      </trkpt>
      <trkpt lat="42.5185819063" lon="19.8681046162">
        <ele>1302.72</ele>
        <time>2019-07-04T14:32:10Z</time>
      </trkpt>
      <trkpt lat="42.5186295994" lon="19.8679733556">
        <ele>1300.80</ele>
        <time>2019-07-04T14:32:20Z</time>
      </trkpt>
      <trkpt lat="42.5186420046" lon="19.8679571785">
        <ele>1299.84</ele>
        <time>2019-07-04T14:32:22Z</time>
      </trkpt>
      <trkpt lat="42.5186743587" lon="19.8677992634">
        <ele>1296.48</ele>
        <time>2019-07-04T14:32:31Z</time>
      </trkpt>
      <trkpt lat="42.5186432619" lon="19.8677240778">
        <ele>1295.03</ele>
        <time>2019-07-04T14:32:39Z</time>
      </trkpt>
      <trkpt lat="42.5186539907" lon="19.8675988521">
        <ele>1291.19</ele>
        <time>2019-07-04T14:32:47Z</time>
      </trkpt>
      <trkpt lat="42.5186775438" lon="19.8674851097">
        <ele>1289.27</ele>
        <time>2019-07-04T14:32:54Z</time>
      </trkpt>
      <trkpt lat="42.5187539868" lon="19.8672799207">
        <ele>1286.86</ele>
        <time>2019-07-04T14:33:08Z</time>
      </trkpt>
      <trkpt lat="42.5187768694" lon="19.8670888133">
        <ele>1283.98</ele>
        <time>2019-07-04T14:33:18Z</time>
      </trkpt>
      <trkpt lat="42.5187856704" lon="19.8669694550">
        <ele>1282.06</ele>
        <time>2019-07-04T14:33:26Z</time>
      </trkpt>
      <trkpt lat="42.5188043620" lon="19.8668031581">
        <ele>1279.17</ele>
        <time>2019-07-04T14:33:37Z</time>
      </trkpt>
      <trkpt lat="42.5188256521" lon="19.8667078558">
        <ele>1277.25</ele>
        <time>2019-07-04T14:33:44Z</time>
      </trkpt>
      <trkpt lat="42.5188461877" lon="19.8666188400">
        <ele>1276.29</ele>
        <time>2019-07-04T14:33:49Z</time>
      </trkpt>
      <trkpt lat="42.5188684836" lon="19.8665330932">
        <ele>1275.81</ele>
        <time>2019-07-04T14:33:53Z</time>
      </trkpt>
      <trkpt lat="42.5188849121" lon="19.8664006591">
        <ele>1273.40</ele>
        <time>2019-07-04T14:34:00Z</time>
      </trkpt>
      <trkpt lat="42.5189117342" lon="19.8663041834">
        <ele>1271.96</ele>
        <time>2019-07-04T14:34:06Z</time>
      </trkpt>
      <trkpt lat="42.5189383049" lon="19.8662319314">
        <ele>1271.96</ele>
        <time>2019-07-04T14:34:11Z</time>
      </trkpt>
      <trkpt lat="42.5189479440" lon="19.8661672231">
        <ele>1271.00</ele>
        <time>2019-07-04T14:34:14Z</time>
      </trkpt>
      <trkpt lat="42.5189451780" lon="19.8661195301">
        <ele>1270.04</ele>
        <time>2019-07-04T14:34:17Z</time>
      </trkpt>
      <trkpt lat="42.5190001633" lon="19.8659363016">
        <ele>1266.67</ele>
        <time>2019-07-04T14:34:28Z</time>
      </trkpt>
      <trkpt lat="42.5190097187" lon="19.8659186997">
        <ele>1266.67</ele>
        <time>2019-07-04T14:34:29Z</time>
      </trkpt>
      <trkpt lat="42.5190568250" lon="19.8657893669">
        <ele>1263.79</ele>
        <time>2019-07-04T14:34:40Z</time>
      </trkpt>
      <trkpt lat="42.5190993212" lon="19.8656729423">
        <ele>1259.94</ele>
        <time>2019-07-04T14:34:52Z</time>
      </trkpt>
      <trkpt lat="42.5191484392" lon="19.8655936494">
        <ele>1258.98</ele>
        <time>2019-07-04T14:34:59Z</time>
      </trkpt>
      <trkpt lat="42.5192216132" lon="19.8655627202">
        <ele>1258.02</ele>
        <time>2019-07-04T14:35:05Z</time>
      </trkpt>
      <trkpt lat="42.5192736648" lon="19.8655466270">
        <ele>1257.06</ele>
        <time>2019-07-04T14:35:10Z</time>
      </trkpt>
      <trkpt lat="42.5192959607" lon="19.8654846009">
        <ele>1256.58</ele>
        <time>2019-07-04T14:35:14Z</time>
      </trkpt>
      <trkpt lat="42.5192926079" lon="19.8654009495">
        <ele>1256.58</ele>
        <time>2019-07-04T14:35:19Z</time>
      </trkpt>
      <trkpt lat="42.5193314161" lon="19.8652751371">
        <ele>1256.58</ele>
        <time>2019-07-04T14:35:26Z</time>
      </trkpt>
      <trkpt lat="42.5193651114" lon="19.8651905637">
        <ele>1256.58</ele>
        <time>2019-07-04T14:35:31Z</time>
      </trkpt>
      <trkpt lat="42.5193865690" lon="19.8651300464">
        <ele>1256.58</ele>
        <time>2019-07-04T14:35:36Z</time>
      </trkpt>
      <trkpt lat="42.5194005668" lon="19.8650909867">
        <ele>1256.58</ele>
        <time>2019-07-04T14:35:39Z</time>
      </trkpt>
      <trkpt lat="42.5194147322" lon="19.8650251888">
        <ele>1257.54</ele>
        <time>2019-07-04T14:35:43Z</time>
      </trkpt>
      <trkpt lat="42.5194345135" lon="19.8648982868">
        <ele>1257.54</ele>
        <time>2019-07-04T14:35:50Z</time>
      </trkpt>
      <trkpt lat="42.5194864813" lon="19.8647680320">
        <ele>1257.54</ele>
        <time>2019-07-04T14:35:58Z</time>
      </trkpt>
      <trkpt lat="42.5195946079" lon="19.8645128869">
        <ele>1257.54</ele>
        <time>2019-07-04T14:36:14Z</time>
      </trkpt>
      <trkpt lat="42.5196881499" lon="19.8642904311">
        <ele>1257.06</ele>
        <time>2019-07-04T14:36:28Z</time>
      </trkpt>
      <trkpt lat="42.5197216775" lon="19.8642239626">
        <ele>1257.06</ele>
        <time>2019-07-04T14:36:32Z</time>
      </trkpt>
      <trkpt lat="42.5197323225" lon="19.8641920276">
        <ele>1257.06</ele>
        <time>2019-07-04T14:36:34Z</time>
      </trkpt>
      <trkpt lat="42.5197704602" lon="19.8641092982">
        <ele>1257.06</ele>
        <time>2019-07-04T14:36:40Z</time>
      </trkpt>
      <trkpt lat="42.5198417064" lon="19.8638995830">
        <ele>1257.06</ele>
        <time>2019-07-04T14:36:53Z</time>
      </trkpt>
      <trkpt lat="42.5199073367" lon="19.8637024406">
        <ele>1255.62</ele>
        <time>2019-07-04T14:37:05Z</time>
      </trkpt>
      <trkpt lat="42.5199239329" lon="19.8636089824">
        <ele>1255.62</ele>
        <time>2019-07-04T14:37:10Z</time>
      </trkpt>
      <trkpt lat="42.5199632440" lon="19.8634731118">
        <ele>1255.14</ele>
        <time>2019-07-04T14:37:18Z</time>
      </trkpt>
      <trkpt lat="42.5200064108" lon="19.8633147776">
        <ele>1254.66</ele>
        <time>2019-07-04T14:37:28Z</time>
      </trkpt>
      <trkpt lat="42.5200554449" lon="19.8631608021">
        <ele>1254.18</ele>
        <time>2019-07-04T14:37:38Z</time>
      </trkpt>
      <trkpt lat="42.5201530941" lon="19.8629495781">
        <ele>1254.18</ele>
        <time>2019-07-04T14:37:52Z</time>
      </trkpt>
      <trkpt lat="42.5202273577" lon="19.8627627455">
        <ele>1255.14</ele>
        <time>2019-07-04T14:38:06Z</time>
      </trkpt>
      <trkpt lat="42.5202714466" lon="19.8626750708">
        <ele>1255.62</ele>
        <time>2019-07-04T14:38:13Z</time>
      </trkpt>
      <trkpt lat="42.5203820039" lon="19.8624646012">
        <ele>1257.54</ele>
        <time>2019-07-04T14:38:29Z</time>
      </trkpt>
      <trkpt lat="42.5203851890" lon="19.8624558002">
        <ele>1257.54</ele>
        <time>2019-07-04T14:38:30Z</time>
      </trkpt>
      <trkpt lat="42.5204078201" lon="19.8624029942">
        <ele>1258.02</ele>
        <time>2019-07-04T14:38:34Z</time>
      </trkpt>
      <trkpt lat="42.5204177108" lon="19.8623548821">
        <ele>1258.02</ele>
        <time>2019-07-04T14:38:49Z</time>
      </trkpt>
      <trkpt lat="42.5204472989" lon="19.8623188399">
        <ele>1258.02</ele>
        <time>2019-07-04T14:39:12Z</time>
      </trkpt>
      <trkpt lat="42.5204568543" lon="19.8622985557">
        <ele>1258.02</ele>
        <time>2019-07-04T14:39:26Z</time>
      </trkpt>
      <trkpt lat="42.5204848498" lon="19.8622216936">
        <ele>1256.58</ele>
        <time>2019-07-04T14:39:31Z</time>
      </trkpt>
      <trkpt lat="42.5205168687" lon="19.8621215299">
        <ele>1255.14</ele>
        <time>2019-07-04T14:39:37Z</time>
      </trkpt>
      <trkpt lat="42.5205376558" lon="19.8620783631">
        <ele>1254.66</ele>
        <time>2019-07-04T14:39:40Z</time>
      </trkpt>
      <trkpt lat="42.5206316169" lon="19.8618595116">
        <ele>1253.70</ele>
        <time>2019-07-04T14:39:54Z</time>
      </trkpt>
      <trkpt lat="42.5206831656" lon="19.8617579229">
        <ele>1252.74</ele>
        <time>2019-07-04T14:40:00Z</time>
      </trkpt>
      <trkpt lat="42.5207058806" lon="19.8616811447">
        <ele>1252.25</ele>
        <time>2019-07-04T14:40:05Z</time>
      </trkpt>
      <trkpt lat="42.5207990874" lon="19.8614938091">
        <ele>1251.77</ele>
        <time>2019-07-04T14:40:18Z</time>
      </trkpt>
      <trkpt lat="42.5208579283" lon="19.8613611236">
        <ele>1251.77</ele>
        <time>2019-07-04T14:40:26Z</time>
      </trkpt>
      <trkpt lat="42.5209533144" lon="19.8611288611">
        <ele>1251.29</ele>
        <time>2019-07-04T14:40:40Z</time>
      </trkpt>
      <trkpt lat="42.5209605228" lon="19.8610770609">
        <ele>1251.29</ele>
        <time>2019-07-04T14:40:43Z</time>
      </trkpt>
      <trkpt lat="42.5210533105" lon="19.8608354945">
        <ele>1251.29</ele>
        <time>2019-07-04T14:40:58Z</time>
      </trkpt>
      <trkpt lat="42.5210611057" lon="19.8608068284">
        <ele>1251.29</ele>
        <time>2019-07-04T14:41:00Z</time>
      </trkpt>
      <trkpt lat="42.5210883468" lon="19.8607401084">
        <ele>1252.74</ele>
        <time>2019-07-04T14:41:04Z</time>
      </trkpt>
      <trkpt lat="42.5211067032" lon="19.8606924992">
        <ele>1252.74</ele>
        <time>2019-07-04T14:41:07Z</time>
      </trkpt>
      <trkpt lat="42.5211392250" lon="19.8606371786">
        <ele>1252.74</ele>
        <time>2019-07-04T14:41:11Z</time>
      </trkpt>
      <trkpt lat="42.5211588386" lon="19.8605899047">
        <ele>1252.74</ele>
        <time>2019-07-04T14:41:14Z</time>
      </trkpt>
      <trkpt lat="42.5212288275" lon="19.8604146391">
        <ele>1252.25</ele>
        <time>2019-07-04T14:41:25Z</time>
      </trkpt>
      <trkpt lat="42.5213045161" lon="19.8602574784">
        <ele>1252.74</ele>
        <time>2019-07-04T14:41:35Z</time>
      </trkpt>
      <trkpt lat="42.5213431567" lon="19.8601762578">
        <ele>1252.74</ele>
        <time>2019-07-04T14:41:40Z</time>
      </trkpt>
      <trkpt lat="42.5213932805" lon="19.8600442428">
        <ele>1251.29</ele>
        <time>2019-07-04T14:41:48Z</time>
      </trkpt>
      <trkpt lat="42.5213996507" lon="19.8600294068">
        <ele>1251.29</ele>
        <time>2019-07-04T14:41:49Z</time>
      </trkpt>
      <trkpt lat="42.5214953721" lon="19.8598362040">
        <ele>1248.41</ele>
        <time>2019-07-04T14:42:02Z</time>
      </trkpt>
      <trkpt lat="42.5216386188" lon="19.8596358765">
        <ele>1245.53</ele>
        <time>2019-07-04T14:42:16Z</time>
      </trkpt>
      <trkpt lat="42.5216821209" lon="19.8595713358">
        <ele>1245.04</ele>
        <time>2019-07-04T14:42:20Z</time>
      </trkpt>
      <trkpt lat="42.5218168180" lon="19.8593950644">
        <ele>1241.68</ele>
        <time>2019-07-04T14:42:33Z</time>
      </trkpt>
      <trkpt lat="42.5218426343" lon="19.8593114968">
        <ele>1241.20</ele>
        <time>2019-07-04T14:42:38Z</time>
      </trkpt>
      <trkpt lat="42.5218412932" lon="19.8592586070">
        <ele>1240.24</ele>
        <time>2019-07-04T14:42:41Z</time>
      </trkpt>
      <trkpt lat="42.5218075980" lon="19.8589687608">
        <ele>1236.87</ele>
        <time>2019-07-04T14:42:55Z</time>
      </trkpt>
      <trkpt lat="42.5218157284" lon="19.8586864583">
        <ele>1233.03</ele>
        <time>2019-07-04T14:43:10Z</time>
      </trkpt>
      <trkpt lat="42.5218916684" lon="19.8584142141">
        <ele>1229.66</ele>
        <time>2019-07-04T14:43:25Z</time>
      </trkpt>
      <trkpt lat="42.5219707936" lon="19.8582159821">
        <ele>1228.70</ele>
        <time>2019-07-04T14:43:38Z</time>
      </trkpt>
      <trkpt lat="42.5219951011" lon="19.8581765033">
        <ele>1228.22</ele>
        <time>2019-07-04T14:43:41Z</time>
      </trkpt>
      <trkpt lat="42.5220078416" lon="19.8581190873">
        <ele>1227.26</ele>
        <time>2019-07-04T14:43:44Z</time>
      </trkpt>
      <trkpt lat="42.5220067520" lon="19.8579827975">
        <ele>1224.86</ele>
        <time>2019-07-04T14:43:52Z</time>
      </trkpt>
      <trkpt lat="42.5220123678" lon="19.8579181731">
        <ele>1224.86</ele>
        <time>2019-07-04T14:43:55Z</time>
      </trkpt>
      <trkpt lat="42.5220413692" lon="19.8578314204">
        <ele>1223.42</ele>
        <time>2019-07-04T14:44:00Z</time>
      </trkpt>
      <trkpt lat="42.5221838616" lon="19.8575473577">
        <ele>1220.53</ele>
        <time>2019-07-04T14:44:18Z</time>
      </trkpt>
      <trkpt lat="42.5222121924" lon="19.8575133272">
        <ele>1219.57</ele>
        <time>2019-07-04T14:44:21Z</time>
      </trkpt>
      <trkpt lat="42.5222499110" lon="19.8574635386">
        <ele>1218.61</ele>
        <time>2019-07-04T14:44:25Z</time>
      </trkpt>
      <trkpt lat="42.5222637411" lon="19.8574089725">
        <ele>1218.13</ele>
        <time>2019-07-04T14:44:28Z</time>
      </trkpt>
      <trkpt lat="42.5223173853" lon="19.8572369758">
        <ele>1215.72</ele>
        <time>2019-07-04T14:44:38Z</time>
      </trkpt>
      <trkpt lat="42.5223812554" lon="19.8570445273">
        <ele>1214.76</ele>
        <time>2019-07-04T14:44:51Z</time>
      </trkpt>
      <trkpt lat="42.5223691855" lon="19.8569255881">
        <ele>1212.84</ele>
        <time>2019-07-04T14:44:58Z</time>
      </trkpt>
      <trkpt lat="42.5223640725" lon="19.8567726184">
        <ele>1211.40</ele>
        <time>2019-07-04T14:45:05Z</time>
      </trkpt>
      <trkpt lat="42.5224069878" lon="19.8566996958">
        <ele>1210.44</ele>
        <time>2019-07-04T14:45:10Z</time>
      </trkpt>
      <trkpt lat="42.5225592870" lon="19.8565344885">
        <ele>1208.03</ele>
        <time>2019-07-04T14:45:26Z</time>
      </trkpt>
      <trkpt lat="42.5225815829" lon="19.8565051518">
        <ele>1207.07</ele>
        <time>2019-07-04T14:45:29Z</time>
      </trkpt>
      <trkpt lat="42.5226870272" lon="19.8564013001">
        <ele>1205.15</ele>
        <time>2019-07-04T14:45:39Z</time>
      </trkpt>
      <trkpt lat="42.5227241591" lon="19.8562856298">
        <ele>1203.23</ele>
        <time>2019-07-04T14:45:47Z</time>
      </trkpt>
      <trkpt lat="42.5227131788" lon="19.8560827877">
        <ele>1200.82</ele>
        <time>2019-07-04T14:45:59Z</time>
      </trkpt>
      <trkpt lat="42.5226486381" lon="19.8559627589">
        <ele>1198.90</ele>
        <time>2019-07-04T14:46:09Z</time>
      </trkpt>
      <trkpt lat="42.5226042978" lon="19.8558890820">
        <ele>1198.42</ele>
        <time>2019-07-04T14:46:14Z</time>
      </trkpt>
      <trkpt lat="42.5225115102" lon="19.8556885030">
        <ele>1197.46</ele>
        <time>2019-07-04T14:46:27Z</time>
      </trkpt>
      <trkpt lat="42.5223846082" lon="19.8553940468">
        <ele>1194.58</ele>
        <time>2019-07-04T14:46:44Z</time>
      </trkpt>
      <trkpt lat="42.5223509129" lon="19.8553152569">
        <ele>1193.13</ele>
        <time>2019-07-04T14:46:49Z</time>
      </trkpt>
      <trkpt lat="42.5223360769" lon="19.8551858403">
        <ele>1191.69</ele>
        <time>2019-07-04T14:46:56Z</time>
      </trkpt>
      <trkpt lat="42.5223199837" lon="19.8549653124">
        <ele>1188.81</ele>
        <time>2019-07-04T14:47:10Z</time>
      </trkpt>
      <trkpt lat="42.5223473925" lon="19.8547021206">
        <ele>1185.44</ele>
        <time>2019-07-04T14:47:24Z</time>
      </trkpt>
      <trkpt lat="42.5223748852" lon="19.8544667568">
        <ele>1182.08</ele>
        <time>2019-07-04T14:47:37Z</time>
      </trkpt>
      <trkpt lat="42.5223872066" lon="19.8542442173">
        <ele>1178.71</ele>
        <time>2019-07-04T14:47:49Z</time>
      </trkpt>
      <trkpt lat="42.5223668385" lon="19.8540672753">
        <ele>1176.79</ele>
        <time>2019-07-04T14:47:58Z</time>
      </trkpt>
      <trkpt lat="42.5223525055" lon="19.8538430594">
        <ele>1174.87</ele>
        <time>2019-07-04T14:48:11Z</time>
      </trkpt>
      <trkpt lat="42.5223648269" lon="19.8535967991">
        <ele>1171.98</ele>
        <time>2019-07-04T14:48:23Z</time>
      </trkpt>
      <trkpt lat="42.5223659165" lon="19.8535756767">
        <ele>1171.50</ele>
        <time>2019-07-04T14:48:24Z</time>
      </trkpt>
      <trkpt lat="42.5223820098" lon="19.8535081185">
        <ele>1170.54</ele>
        <time>2019-07-04T14:48:27Z</time>
      </trkpt>
      <trkpt lat="42.5224100053" lon="19.8532664683">
        <ele>1167.18</ele>
        <time>2019-07-04T14:48:39Z</time>
      </trkpt>
      <trkpt lat="42.5223605521" lon="19.8530328646">
        <ele>1163.81</ele>
        <time>2019-07-04T14:48:50Z</time>
      </trkpt>
      <trkpt lat="42.5223787408" lon="19.8528131749">
        <ele>1161.89</ele>
        <time>2019-07-04T14:49:01Z</time>
      </trkpt>
      <trkpt lat="42.5223897211" lon="19.8527978361">
        <ele>1161.41</ele>
        <time>2019-07-04T14:49:02Z</time>
      </trkpt>
      <trkpt lat="42.5224186387" lon="19.8526891228">
        <ele>1160.93</ele>
        <time>2019-07-04T14:49:08Z</time>
      </trkpt>
      <trkpt lat="42.5224299543" lon="19.8526403401">
        <ele>1160.45</ele>
        <time>2019-07-04T14:49:11Z</time>
      </trkpt>
      <trkpt lat="42.5224893820" lon="19.8525801580">
        <ele>1160.45</ele>
        <time>2019-07-04T14:49:18Z</time>
      </trkpt>
      <trkpt lat="42.5225953292" lon="19.8523775674">
        <ele>1159.01</ele>
        <time>2019-07-04T14:49:32Z</time>
      </trkpt>
      <trkpt lat="42.5226502307" lon="19.8522769008">
        <ele>1156.60</ele>
        <time>2019-07-04T14:49:40Z</time>
      </trkpt>
      <trkpt lat="42.5226706825" lon="19.8521891423">
        <ele>1155.64</ele>
        <time>2019-07-04T14:49:44Z</time>
      </trkpt>
      <trkpt lat="42.5227229018" lon="19.8521518428">
        <ele>1154.68</ele>
        <time>2019-07-04T14:49:47Z</time>
      </trkpt>
      <trkpt lat="42.5227560941" lon="19.8520955164">
        <ele>1153.72</ele>
        <time>2019-07-04T14:49:50Z</time>
      </trkpt>
      <trkpt lat="42.5228022784" lon="19.8519873060">
        <ele>1151.32</ele>
        <time>2019-07-04T14:49:58Z</time>
      </trkpt>
      <trkpt lat="42.5229259953" lon="19.8518350907">
        <ele>1148.91</ele>
        <time>2019-07-04T14:50:11Z</time>
      </trkpt>
      <trkpt lat="42.5230799709" lon="19.8517449852">
        <ele>1146.03</ele>
        <time>2019-07-04T14:50:24Z</time>
      </trkpt>
      <trkpt lat="42.5232181046" lon="19.8516739067">
        <ele>1144.59</ele>
        <time>2019-07-04T14:50:34Z</time>
      </trkpt>
      <trkpt lat="42.5232771132" lon="19.8516175803">
        <ele>1144.11</ele>
        <time>2019-07-04T14:50:39Z</time>
      </trkpt>
      <trkpt lat="42.5233579986" lon="19.8515524529">
        <ele>1142.66</ele>
        <time>2019-07-04T14:50:45Z</time>
      </trkpt>
      <trkpt lat="42.5235002395" lon="19.8514364474">
        <ele>1141.22</ele>
        <time>2019-07-04T14:50:56Z</time>
      </trkpt>
      <trkpt lat="42.5236528739" lon="19.8512719944">
        <ele>1137.38</ele>
        <time>2019-07-04T14:51:10Z</time>
      </trkpt>
      <trkpt lat="42.5238030776" lon="19.8511221260">
        <ele>1134.49</ele>
        <time>2019-07-04T14:51:24Z</time>
      </trkpt>
      <trkpt lat="42.5238395389" lon="19.8510927055">
        <ele>1134.01</ele>
        <time>2019-07-04T14:51:27Z</time>
      </trkpt>
      <trkpt lat="42.5238557160" lon="19.8510527238">
        <ele>1133.53</ele>
        <time>2019-07-04T14:51:30Z</time>
      </trkpt>
      <trkpt lat="42.5240155589" lon="19.8509212118">
        <ele>1130.17</ele>
        <time>2019-07-04T14:51:42Z</time>
      </trkpt>
      <trkpt lat="42.5241975300" lon="19.8507642187">
        <ele>1126.80</ele>
        <time>2019-07-04T14:51:57Z</time>
      </trkpt>
      <trkpt lat="42.5243980251" lon="19.8505768832">
        <ele>1124.88</ele>
        <time>2019-07-04T14:52:15Z</time>
      </trkpt>
      <trkpt lat="42.5244809221" lon="19.8504369892">
        <ele>1124.88</ele>
        <time>2019-07-04T14:52:25Z</time>
      </trkpt>
      <trkpt lat="42.5244998652" lon="19.8504129332">
        <ele>1124.40</ele>
        <time>2019-07-04T14:52:27Z</time>
      </trkpt>
      <trkpt lat="42.5245369133" lon="19.8503421061">
        <ele>1123.92</ele>
        <time>2019-07-04T14:52:32Z</time>
      </trkpt>
      <trkpt lat="42.5245720334" lon="19.8502628971">
        <ele>1123.44</ele>
        <time>2019-07-04T14:52:37Z</time>
      </trkpt>
      <trkpt lat="42.5246641506" lon="19.8500805069">
        <ele>1120.07</ele>
        <time>2019-07-04T14:52:51Z</time>
      </trkpt>
      <trkpt lat="42.5246740412" lon="19.8500651680">
        <ele>1120.07</ele>
        <time>2019-07-04T14:52:52Z</time>
      </trkpt>
      <trkpt lat="42.5247153640" lon="19.8499796726">
        <ele>1118.63</ele>
        <time>2019-07-04T14:52:58Z</time>
      </trkpt>
      <trkpt lat="42.5247676671" lon="19.8498935904">
        <ele>1116.71</ele>
        <time>2019-07-04T14:53:05Z</time>
      </trkpt>
      <trkpt lat="42.5248546712" lon="19.8497981206">
        <ele>1114.31</ele>
        <time>2019-07-04T14:53:19Z</time>
      </trkpt>
      <trkpt lat="42.5248586945" lon="19.8498148844">
        <ele>1114.31</ele>
        <time>2019-07-04T14:53:37Z</time>
      </trkpt>
      <trkpt lat="42.5248830859" lon="19.8498127889">
        <ele>1113.34</ele>
        <time>2019-07-04T14:54:09Z</time>
      </trkpt>
      <trkpt lat="42.5248727761" lon="19.8497680295">
        <ele>1112.86</ele>
        <time>2019-07-04T14:54:26Z</time>
      </trkpt>
      <trkpt lat="42.5249441899" lon="19.8497125413">
        <ele>1111.90</ele>
        <time>2019-07-04T14:54:40Z</time>
      </trkpt>
      <trkpt lat="42.5249638874" lon="19.8497164808">
        <ele>1111.42</ele>
        <time>2019-07-04T14:54:44Z</time>
      </trkpt>
      <trkpt lat="42.5250026118" lon="19.8496489227">
        <ele>1110.94</ele>
        <time>2019-07-04T14:54:50Z</time>
      </trkpt>
      <trkpt lat="42.5249770470" lon="19.8494092003">
        <ele>1108.06</ele>
        <time>2019-07-04T14:55:02Z</time>
      </trkpt>
      <trkpt lat="42.5250031147" lon="19.8492030054">
        <ele>1104.69</ele>
        <time>2019-07-04T14:55:17Z</time>
      </trkpt>
      <trkpt lat="42.5249714311" lon="19.8492004909">
        <ele>1103.73</ele>
        <time>2019-07-04T14:55:31Z</time>
      </trkpt>
      <trkpt lat="42.5249411725" lon="19.8492455017">
        <ele>1102.77</ele>
        <time>2019-07-04T14:55:51Z</time>
      </trkpt>
      <trkpt lat="42.5248614606" lon="19.8492382932">
        <ele>1102.29</ele>
        <time>2019-07-04T14:56:05Z</time>
      </trkpt>
      <trkpt lat="42.5248195510" lon="19.8492401373">
        <ele>1099.40</ele>
        <time>2019-07-04T14:56:10Z</time>
      </trkpt>
      <trkpt lat="42.5247888733" lon="19.8491997365">
        <ele>1098.44</ele>
        <time>2019-07-04T14:56:14Z</time>
      </trkpt>
      <trkpt lat="42.5247720256" lon="19.8491657898">
        <ele>1097.00</ele>
        <time>2019-07-04T14:56:19Z</time>
      </trkpt>
      <trkpt lat="42.5247810781" lon="19.8491201922">
        <ele>1096.04</ele>
        <time>2019-07-04T14:56:22Z</time>
      </trkpt>
      <trkpt lat="42.5247330498" lon="19.8490672186">
        <ele>1094.12</ele>
        <time>2019-07-04T14:56:30Z</time>
      </trkpt>
      <trkpt lat="42.5246654917" lon="19.8490273207">
        <ele>1092.20</ele>
        <time>2019-07-04T14:56:37Z</time>
      </trkpt>
      <trkpt lat="42.5245392602" lon="19.8489502072">
        <ele>1089.31</ele>
        <time>2019-07-04T14:56:50Z</time>
      </trkpt>
      <trkpt lat="42.5244924892" lon="19.8488918692">
        <ele>1087.39</ele>
        <time>2019-07-04T14:57:01Z</time>
      </trkpt>
      <trkpt lat="42.5244732946" lon="19.8488226347">
        <ele>1085.95</ele>
        <time>2019-07-04T14:57:07Z</time>
      </trkpt>
      <trkpt lat="42.5244604703" lon="19.8487875983">
        <ele>1085.95</ele>
        <time>2019-07-04T14:57:09Z</time>
      </trkpt>
      <trkpt lat="42.5243547745" lon="19.8486927152">
        <ele>1082.58</ele>
        <time>2019-07-04T14:57:22Z</time>
      </trkpt>
      <trkpt lat="42.5243405253" lon="19.8486655578">
        <ele>1081.62</ele>
        <time>2019-07-04T14:57:26Z</time>
      </trkpt>
      <trkpt lat="42.5242686085" lon="19.8485340457">
        <ele>1078.74</ele>
        <time>2019-07-04T14:57:38Z</time>
      </trkpt>
      <trkpt lat="42.5241980329" lon="19.8484499753">
        <ele>1075.37</ele>
        <time>2019-07-04T14:57:49Z</time>
      </trkpt>
      <trkpt lat="42.5241536926" lon="19.8484194651">
        <ele>1074.41</ele>
        <time>2019-07-04T14:57:53Z</time>
      </trkpt>
      <trkpt lat="42.5241053291" lon="19.8482851870">
        <ele>1071.53</ele>
        <time>2019-07-04T14:58:04Z</time>
      </trkpt>
      <trkpt lat="42.5240895711" lon="19.8482643999">
        <ele>1071.53</ele>
        <time>2019-07-04T14:58:06Z</time>
      </trkpt>
      <trkpt lat="42.5240528584" lon="19.8481685948">
        <ele>1070.08</ele>
        <time>2019-07-04T14:58:20Z</time>
      </trkpt>
      <trkpt lat="42.5240391959" lon="19.8481605481">
        <ele>1070.08</ele>
        <time>2019-07-04T14:58:28Z</time>
      </trkpt>
      <trkpt lat="42.5239583105" lon="19.8481949139">
        <ele>1069.60</ele>
        <time>2019-07-04T14:58:40Z</time>
      </trkpt>
      <trkpt lat="42.5239133835" lon="19.8482418526">
        <ele>1069.60</ele>
        <time>2019-07-04T14:58:54Z</time>
      </trkpt>
      <trkpt lat="42.5239007268" lon="19.8482491449">
        <ele>1069.12</ele>
        <time>2019-07-04T14:58:57Z</time>
      </trkpt>
      <trkpt lat="42.5238379464" lon="19.8482506536">
        <ele>1069.12</ele>
        <time>2019-07-04T14:59:06Z</time>
      </trkpt>
      <trkpt lat="42.5237619225" lon="19.8482833430">
        <ele>1068.64</ele>
        <time>2019-07-04T14:59:15Z</time>
      </trkpt>
      <trkpt lat="42.5236915983" lon="19.8482028767">
        <ele>1066.24</ele>
        <time>2019-07-04T14:59:29Z</time>
      </trkpt>
      <trkpt lat="42.5236945320" lon="19.8481957521">
        <ele>1066.24</ele>
        <time>2019-07-04T14:59:46Z</time>
      </trkpt>
      <trkpt lat="42.5237034168" lon="19.8481566086">
        <ele>1065.76</ele>
        <time>2019-07-04T15:00:21Z</time>
      </trkpt>
      <trkpt lat="42.5236916821" lon="19.8481398448">
        <ele>1065.76</ele>
        <time>2019-07-04T15:00:53Z</time>
      </trkpt>
      <trkpt lat="42.5237117149" lon="19.8481133580">
        <ele>1065.76</ele>
        <time>2019-07-04T15:01:10Z</time>
      </trkpt>
      <trkpt lat="42.5237336755" lon="19.8480877932">
        <ele>1066.72</ele>
        <time>2019-07-04T15:01:29Z</time>
      </trkpt>
      <trkpt lat="42.5237452425" lon="19.8480751365">
        <ele>1066.72</ele>
        <time>2019-07-04T15:01:46Z</time>
      </trkpt>
      <trkpt lat="42.5237238687" lon="19.8480368312">
        <ele>1066.72</ele>
        <time>2019-07-04T15:02:11Z</time>
      </trkpt>
      <trkpt lat="42.5237604138" lon="19.8480779026">
        <ele>1067.20</ele>
        <time>2019-07-04T15:02:35Z</time>
      </trkpt>
      <trkpt lat="42.5237990543" lon="19.8481747136">
        <ele>1069.60</ele>
        <time>2019-07-04T15:02:56Z</time>
      </trkpt>
      <trkpt lat="42.5238284748" lon="19.8482104205">
        <ele>1069.12</ele>
        <time>2019-07-04T15:03:22Z</time>
      </trkpt>
      <trkpt lat="42.5238094479" lon="19.8481872026">
        <ele>1068.64</ele>
        <time>2019-07-04T15:03:58Z</time>
      </trkpt>
      <trkpt lat="42.5237787701" lon="19.8481594585">
        <ele>1068.16</ele>
        <time>2019-07-04T15:04:35Z</time>
      </trkpt>
      <trkpt lat="42.5237134751" lon="19.8481033836">
        <ele>1067.68</ele>
        <time>2019-07-04T15:05:02Z</time>
      </trkpt>
      <trkpt lat="42.5236847252" lon="19.8481328879">
        <ele>1067.68</ele>
        <time>2019-07-04T15:05:28Z</time>
      </trkpt>
      <trkpt lat="42.5238816161" lon="19.8482051399">
        <ele>1067.20</ele>
        <time>2019-07-04T15:05:52Z</time>
      </trkpt>
      <trkpt lat="42.5238541234" lon="19.8482112586">
        <ele>1065.76</ele>
        <time>2019-07-04T15:06:10Z</time>
      </trkpt>
      <trkpt lat="42.5238439813" lon="19.8481898010">
        <ele>1065.28</ele>
        <time>2019-07-04T15:06:41Z</time>
      </trkpt>
      <trkpt lat="42.5238210149" lon="19.8481548484">
        <ele>1064.80</ele>
        <time>2019-07-04T15:07:11Z</time>
      </trkpt>
      <trkpt lat="42.5239236932" lon="19.8481333070">
        <ele>1064.32</ele>
        <time>2019-07-04T15:07:47Z</time>
      </trkpt>
      <trkpt lat="42.5238972064" lon="19.8482619692">
        <ele>1063.84</ele>
        <time>2019-07-04T15:08:24Z</time>
      </trkpt>
      <trkpt lat="42.5238130521" lon="19.8482122645">
        <ele>1063.36</ele>
        <time>2019-07-04T15:08:59Z</time>
      </trkpt>
      <trkpt lat="42.5238209311" lon="19.8482224066">
        <ele>1063.84</ele>
        <time>2019-07-04T15:09:13Z</time>
      </trkpt>
      <trkpt lat="42.5238106214" lon="19.8482690100">
        <ele>1062.39</ele>
        <time>2019-07-04T15:09:34Z</time>
      </trkpt>
      <trkpt lat="42.5237545464" lon="19.8484368995">
        <ele>1062.39</ele>
        <time>2019-07-04T15:09:59Z</time>
      </trkpt>
      <trkpt lat="42.5237840507" lon="19.8484381568">
        <ele>1061.91</ele>
        <time>2019-07-04T15:10:20Z</time>
      </trkpt>
      <trkpt lat="42.5238006469" lon="19.8483031243">
        <ele>1061.91</ele>
        <time>2019-07-04T15:10:46Z</time>
      </trkpt>
      <trkpt lat="42.5238018204" lon="19.8483086564">
        <ele>1060.95</ele>
        <time>2019-07-04T15:11:10Z</time>
      </trkpt>
      <trkpt lat="42.5238475017" lon="19.8483170383">
        <ele>1060.47</ele>
        <time>2019-07-04T15:11:41Z</time>
      </trkpt>
      <trkpt lat="42.5238130521" lon="19.8483343050">
        <ele>1059.99</ele>
        <time>2019-07-04T15:12:13Z</time>
      </trkpt>
      <trkpt lat="42.5237708911" lon="19.8483022023">
        <ele>1059.99</ele>
        <time>2019-07-04T15:12:34Z</time>
      </trkpt>
      <trkpt lat="42.5237963721" lon="19.8482830077">
        <ele>1059.51</ele>
        <time>2019-07-04T15:12:56Z</time>
      </trkpt>
      <trkpt lat="42.5237791054" lon="19.8482874501">
        <ele>1059.51</ele>
        <time>2019-07-04T15:13:14Z</time>
      </trkpt>
      <trkpt lat="42.5237708073" lon="19.8482493125">
        <ele>1058.07</ele>
        <time>2019-07-04T15:13:38Z</time>
      </trkpt>
      <trkpt lat="42.5237519480" lon="19.8482513241">
        <ele>1058.07</ele>
        <time>2019-07-04T15:14:13Z</time>
      </trkpt>
      <trkpt lat="42.5237497687" lon="19.8482899647">
        <ele>1057.59</ele>
        <time>2019-07-04T15:14:47Z</time>
      </trkpt>
      <trkpt lat="42.5237457454" lon="19.8482730333">
        <ele>1057.11</ele>
        <time>2019-07-04T15:15:26Z</time>
      </trkpt>
      <trkpt lat="42.5237734057" lon="19.8482807446">
        <ele>1056.63</ele>
        <time>2019-07-04T15:16:00Z</time>
      </trkpt>
      <trkpt lat="42.5237993058" lon="19.8483537510">
        <ele>1056.63</ele>
        <time>2019-07-04T15:16:32Z</time>
      </trkpt>
      <trkpt lat="42.5237988029" lon="19.8483667430">
        <ele>1056.15</ele>
        <time>2019-07-04T15:17:00Z</time>
      </trkpt>
      <trkpt lat="42.5238064304" lon="19.8482346442">
        <ele>1055.67</ele>
        <time>2019-07-04T15:17:30Z</time>
      </trkpt>
      <trkpt lat="42.5238163210" lon="19.8483582772">
        <ele>1055.67</ele>
        <time>2019-07-04T15:18:04Z</time>
      </trkpt>
      <trkpt lat="42.5237938575" lon="19.8483750410">
        <ele>1055.18</ele>
        <time>2019-07-04T15:18:40Z</time>
      </trkpt>
      <trkpt lat="42.5237831287" lon="19.8483256716">
        <ele>1054.70</ele>
        <time>2019-07-04T15:19:18Z</time>
      </trkpt>
      <trkpt lat="42.5238127168" lon="19.8483589478">
        <ele>1054.22</ele>
        <time>2019-07-04T15:19:50Z</time>
      </trkpt>
      <trkpt lat="42.5238210987" lon="19.8483947385">
        <ele>1054.22</ele>
        <time>2019-07-04T15:20:24Z</time>
      </trkpt>
      <trkpt lat="42.5238251220" lon="19.8483664915">
        <ele>1054.70</ele>
        <time>2019-07-04T15:20:56Z</time>
      </trkpt>
      <trkpt lat="42.5237791892" lon="19.8483322095">
        <ele>1054.70</ele>
        <time>2019-07-04T15:21:26Z</time>
      </trkpt>
      <trkpt lat="42.5237647723" lon="19.8482646514">
        <ele>1054.70</ele>
        <time>2019-07-04T15:21:39Z</time>
      </trkpt>
      <trkpt lat="42.5236862339" lon="19.8481942434">
        <ele>1025.86</ele>
        <time>2019-07-05T05:39:17Z</time>
      </trkpt>
      <trkpt lat="42.5237469189" lon="19.8481556866">
        <ele>1028.27</ele>
        <time>2019-07-05T05:39:37Z</time>
      </trkpt>
      <trkpt lat="42.5237490144" lon="19.8481477238">
        <ele>1031.15</ele>
        <time>2019-07-05T05:39:43Z</time>
      </trkpt>
      <trkpt lat="42.5237513613" lon="19.8481361568">
        <ele>1034.52</ele>
        <time>2019-07-05T05:39:48Z</time>
      </trkpt>
      <trkpt lat="42.5237475894" lon="19.8481051438">
        <ele>1037.88</ele>
        <time>2019-07-05T05:39:55Z</time>
      </trkpt>
      <trkpt lat="42.5237485114" lon="19.8480976839">
        <ele>1041.25</ele>
        <time>2019-07-05T05:40:02Z</time>
      </trkpt>
      <trkpt lat="42.5237463322" lon="19.8480762262">
        <ele>1044.13</ele>
        <time>2019-07-05T05:40:12Z</time>
      </trkpt>
      <trkpt lat="42.5237614196" lon="19.8481124360">
        <ele>1047.01</ele>
        <time>2019-07-05T05:40:33Z</time>
      </trkpt>
      <trkpt lat="42.5237639342" lon="19.8481592070">
        <ele>1049.90</ele>
        <time>2019-07-05T05:41:06Z</time>
      </trkpt>
      <trkpt lat="42.5237682927" lon="19.8480998632">
        <ele>1050.38</ele>
        <time>2019-07-05T05:41:33Z</time>
      </trkpt>
      <trkpt lat="42.5237843022" lon="19.8480444588">
        <ele>1050.38</ele>
        <time>2019-07-05T05:42:08Z</time>
      </trkpt>
      <trkpt lat="42.5237762555" lon="19.8480455484">
        <ele>1050.38</ele>
        <time>2019-07-05T05:42:39Z</time>
      </trkpt>
      <trkpt lat="42.5237516966" lon="19.8480492365">
        <ele>1050.38</ele>
        <time>2019-07-05T05:43:13Z</time>
      </trkpt>
      <trkpt lat="42.5237186719" lon="19.8480371665">
        <ele>1050.38</ele>
        <time>2019-07-05T05:43:46Z</time>
      </trkpt>
      <trkpt lat="42.5237345137" lon="19.8480648268">
        <ele>1050.38</ele>
        <time>2019-07-05T05:44:23Z</time>
      </trkpt>
      <trkpt lat="42.5237508584" lon="19.8480844405">
        <ele>1050.38</ele>
        <time>2019-07-05T05:45:03Z</time>
      </trkpt>
      <trkpt lat="42.5237338431" lon="19.8480792437">
        <ele>1050.38</ele>
        <time>2019-07-05T05:45:47Z</time>
      </trkpt>
      <trkpt lat="42.5237346813" lon="19.8480654974">
        <ele>1050.38</ele>
        <time>2019-07-05T05:46:19Z</time>
      </trkpt>
      <trkpt lat="42.5237294845" lon="19.8480707780">
        <ele>1050.86</ele>
        <time>2019-07-05T05:46:50Z</time>
      </trkpt>
      <trkpt lat="42.5237140618" lon="19.8480670061">
        <ele>1051.34</ele>
        <time>2019-07-05T05:47:09Z</time>
      </trkpt>
      <trkpt lat="42.5237396266" lon="19.8480958398">
        <ele>1049.90</ele>
        <time>2019-07-05T05:47:24Z</time>
      </trkpt>
      <trkpt lat="42.5237388723" lon="19.8480933253">
        <ele>1050.38</ele>
        <time>2019-07-05T05:47:49Z</time>
      </trkpt>
      <trkpt lat="42.5237167440" lon="19.8480635695">
        <ele>1051.82</ele>
        <time>2019-07-05T05:48:13Z</time>
      </trkpt>
      <trkpt lat="42.5237066019" lon="19.8480702750">
        <ele>1051.82</ele>
        <time>2019-07-05T05:48:36Z</time>
      </trkpt>
      <trkpt lat="42.5236593280" lon="19.8480360769">
        <ele>1051.82</ele>
        <time>2019-07-05T05:48:58Z</time>
      </trkpt>
      <trkpt lat="42.5236670393" lon="19.8480604682">
        <ele>1051.82</ele>
        <time>2019-07-05T05:49:15Z</time>
      </trkpt>
      <trkpt lat="42.5236744154" lon="19.8481097538">
        <ele>1051.82</ele>
        <time>2019-07-05T05:49:20Z</time>
      </trkpt>
      <trkpt lat="42.5235842261" lon="19.8481421079">
        <ele>1050.38</ele>
        <time>2019-07-05T05:49:35Z</time>
      </trkpt>
      <trkpt lat="42.5236125570" lon="19.8480085004">
        <ele>1048.94</ele>
        <time>2019-07-05T05:49:49Z</time>
      </trkpt>
      <trkpt lat="42.5236382056" lon="19.8479405232">
        <ele>1047.97</ele>
        <time>2019-07-05T05:49:55Z</time>
      </trkpt>
      <trkpt lat="42.5236643571" lon="19.8478902318">
        <ele>1047.01</ele>
        <time>2019-07-05T05:49:59Z</time>
      </trkpt>
      <trkpt lat="42.5236276444" lon="19.8477304727">
        <ele>1044.13</ele>
        <time>2019-07-05T05:50:14Z</time>
      </trkpt>
      <trkpt lat="42.5235146564" lon="19.8476547841">
        <ele>1041.73</ele>
        <time>2019-07-05T05:50:28Z</time>
      </trkpt>
      <trkpt lat="42.5234797876" lon="19.8476087674">
        <ele>1040.28</ele>
        <time>2019-07-05T05:50:42Z</time>
      </trkpt>
      <trkpt lat="42.5234683882" lon="19.8474748246">
        <ele>1038.36</ele>
        <time>2019-07-05T05:50:54Z</time>
      </trkpt>
      <trkpt lat="42.5233901013" lon="19.8474252038">
        <ele>1036.44</ele>
        <time>2019-07-05T05:51:08Z</time>
      </trkpt>
      <trkpt lat="42.5233615190" lon="19.8474170733">
        <ele>1035.00</ele>
        <time>2019-07-05T05:51:11Z</time>
      </trkpt>
      <trkpt lat="42.5232548174" lon="19.8472908419">
        <ele>1033.07</ele>
        <time>2019-07-05T05:51:28Z</time>
      </trkpt>
      <trkpt lat="42.5231720041" lon="19.8470733315">
        <ele>1030.19</ele>
        <time>2019-07-05T05:51:45Z</time>
      </trkpt>
      <trkpt lat="42.5230974052" lon="19.8468645383">
        <ele>1028.27</ele>
        <time>2019-07-05T05:52:00Z</time>
      </trkpt>
      <trkpt lat="42.5230882689" lon="19.8468124028">
        <ele>1027.31</ele>
        <time>2019-07-05T05:52:03Z</time>
      </trkpt>
      <trkpt lat="42.5229911227" lon="19.8466264084">
        <ele>1025.38</ele>
        <time>2019-07-05T05:52:17Z</time>
      </trkpt>
      <trkpt lat="42.5229363050" lon="19.8465514742">
        <ele>1023.94</ele>
        <time>2019-07-05T05:52:29Z</time>
      </trkpt>
      <trkpt lat="42.5229149312" lon="19.8465219699">
        <ele>1022.98</ele>
        <time>2019-07-05T05:52:33Z</time>
      </trkpt>
      <trkpt lat="42.5228921324" lon="19.8464753665">
        <ele>1022.50</ele>
        <time>2019-07-05T05:52:37Z</time>
      </trkpt>
      <trkpt lat="42.5227944832" lon="19.8463275097">
        <ele>1019.62</ele>
        <time>2019-07-05T05:52:50Z</time>
      </trkpt>
      <trkpt lat="42.5227011926" lon="19.8461842630">
        <ele>1016.73</ele>
        <time>2019-07-05T05:53:03Z</time>
      </trkpt>
      <trkpt lat="42.5226003584" lon="19.8460723646">
        <ele>1013.37</ele>
        <time>2019-07-05T05:53:18Z</time>
      </trkpt>
      <trkpt lat="42.5225611310" lon="19.8460751306">
        <ele>1012.41</ele>
        <time>2019-07-05T05:53:23Z</time>
      </trkpt>
      <trkpt lat="42.5225186348" lon="19.8460509069">
        <ele>1011.44</ele>
        <time>2019-07-05T05:53:27Z</time>
      </trkpt>
      <trkpt lat="42.5224283617" lon="19.8460062314">
        <ele>1010.48</ele>
        <time>2019-07-05T05:53:36Z</time>
      </trkpt>
      <trkpt lat="42.5223852787" lon="19.8459782358">
        <ele>1009.52</ele>
        <time>2019-07-05T05:53:39Z</time>
      </trkpt>
      <trkpt lat="42.5223473925" lon="19.8458592128">
        <ele>1007.12</ele>
        <time>2019-07-05T05:53:49Z</time>
      </trkpt>
      <trkpt lat="42.5222945865" lon="19.8457342386">
        <ele>1004.23</ele>
        <time>2019-07-05T05:53:58Z</time>
      </trkpt>
      <trkpt lat="42.5222375058" lon="19.8455588892">
        <ele>1001.35</ele>
        <time>2019-07-05T05:54:12Z</time>
      </trkpt>
      <trkpt lat="42.5221846998" lon="19.8454505112">
        <ele>998.95</ele>
        <time>2019-07-05T05:54:25Z</time>
      </trkpt>
      <trkpt lat="42.5221522618" lon="19.8453636747">
        <ele>997.02</ele>
        <time>2019-07-05T05:54:38Z</time>
      </trkpt>
      <trkpt lat="42.5221435446" lon="19.8453860544">
        <ele>997.02</ele>
        <time>2019-07-05T05:54:42Z</time>
      </trkpt>
      <trkpt lat="42.5221020542" lon="19.8453839589">
        <ele>996.06</ele>
        <time>2019-07-05T05:54:55Z</time>
      </trkpt>
      <trkpt lat="42.5221149623" lon="19.8453055043">
        <ele>995.58</ele>
        <time>2019-07-05T05:55:06Z</time>
      </trkpt>
      <trkpt lat="42.5221573748" lon="19.8451972101">
        <ele>995.58</ele>
        <time>2019-07-05T05:55:17Z</time>
      </trkpt>
      <trkpt lat="42.5221458077" lon="19.8450882453">
        <ele>997.02</ele>
        <time>2019-07-05T05:55:29Z</time>
      </trkpt>
      <trkpt lat="42.5221495796" lon="19.8450791929">
        <ele>997.02</ele>
        <time>2019-07-05T05:55:30Z</time>
      </trkpt>
      <trkpt lat="42.5221275352" lon="19.8449262232">
        <ele>998.47</ele>
        <time>2019-07-05T05:55:45Z</time>
      </trkpt>
      <trkpt lat="42.5221160520" lon="19.8448767699">
        <ele>998.47</ele>
        <time>2019-07-05T05:55:49Z</time>
      </trkpt>
      <trkpt lat="42.5221174769" lon="19.8447959684">
        <ele>998.47</ele>
        <time>2019-07-05T05:55:54Z</time>
      </trkpt>
      <trkpt lat="42.5221357495" lon="19.8446559906">
        <ele>997.99</ele>
        <time>2019-07-05T05:56:03Z</time>
      </trkpt>
      <trkpt lat="42.5221505854" lon="19.8445233051">
        <ele>997.02</ele>
        <time>2019-07-05T05:56:12Z</time>
      </trkpt>
      <trkpt lat="42.5221750606" lon="19.8442852590">
        <ele>996.54</ele>
        <time>2019-07-05T05:56:28Z</time>
      </trkpt>
      <trkpt lat="42.5222776551" lon="19.8440457880">
        <ele>994.62</ele>
        <time>2019-07-05T05:56:44Z</time>
      </trkpt>
      <trkpt lat="42.5223729573" lon="19.8438339774">
        <ele>993.66</ele>
        <time>2019-07-05T05:57:00Z</time>
      </trkpt>
      <trkpt lat="42.5224367436" lon="19.8436432052">
        <ele>993.18</ele>
        <time>2019-07-05T05:57:13Z</time>
      </trkpt>
      <trkpt lat="42.5224566087" lon="19.8434289638">
        <ele>992.70</ele>
        <time>2019-07-05T05:57:26Z</time>
      </trkpt>
      <trkpt lat="42.5224731211" lon="19.8433670215">
        <ele>992.70</ele>
        <time>2019-07-05T05:57:30Z</time>
      </trkpt>
      <trkpt lat="42.5224755518" lon="19.8431968689">
        <ele>992.70</ele>
        <time>2019-07-05T05:57:40Z</time>
      </trkpt>
      <trkpt lat="42.5224917289" lon="19.8431225214">
        <ele>992.70</ele>
        <time>2019-07-05T05:57:45Z</time>
      </trkpt>
      <trkpt lat="42.5224718638" lon="19.8428538814">
        <ele>991.74</ele>
        <time>2019-07-05T05:58:02Z</time>
      </trkpt>
      <trkpt lat="42.5224670861" lon="19.8428027518">
        <ele>991.74</ele>
        <time>2019-07-05T05:58:05Z</time>
      </trkpt>
      <trkpt lat="42.5224450417" lon="19.8426657915">
        <ele>991.74</ele>
        <time>2019-07-05T05:58:14Z</time>
      </trkpt>
      <trkpt lat="42.5224021263" lon="19.8424677271">
        <ele>991.74</ele>
        <time>2019-07-05T05:58:27Z</time>
      </trkpt>
      <trkpt lat="42.5222727936" lon="19.8422487918">
        <ele>990.30</ele>
        <time>2019-07-05T05:58:44Z</time>
      </trkpt>
      <trkpt lat="42.5221364200" lon="19.8420758732">
        <ele>989.33</ele>
        <time>2019-07-05T05:58:59Z</time>
      </trkpt>
      <trkpt lat="42.5220225099" lon="19.8420125060">
        <ele>988.85</ele>
        <time>2019-07-05T05:59:11Z</time>
      </trkpt>
      <trkpt lat="42.5220061652" lon="19.8420027830">
        <ele>988.37</ele>
        <time>2019-07-05T05:59:15Z</time>
      </trkpt>
      <trkpt lat="42.5219381880" lon="19.8419850133">
        <ele>988.37</ele>
        <time>2019-07-05T05:59:31Z</time>
      </trkpt>
      <trkpt lat="42.5218899082" lon="19.8419845942">
        <ele>988.37</ele>
        <time>2019-07-05T05:59:42Z</time>
      </trkpt>
      <trkpt lat="42.5218738988" lon="19.8420063872">
        <ele>988.37</ele>
        <time>2019-07-05T05:59:57Z</time>
      </trkpt>
      <trkpt lat="42.5218503457" lon="19.8420177866">
        <ele>987.89</ele>
        <time>2019-07-05T06:00:01Z</time>
      </trkpt>
      <trkpt lat="42.5218309835" lon="19.8420311976">
        <ele>989.33</ele>
        <time>2019-07-05T06:00:03Z</time>
      </trkpt>
      <trkpt lat="42.5217372738" lon="19.8420143500">
        <ele>989.33</ele>
        <time>2019-07-05T06:00:18Z</time>
      </trkpt>
      <trkpt lat="42.5216468330" lon="19.8419994302">
        <ele>989.81</ele>
        <time>2019-07-05T06:00:30Z</time>
      </trkpt>
      <trkpt lat="42.5216017384" lon="19.8419985920">
        <ele>990.30</ele>
        <time>2019-07-05T06:00:35Z</time>
      </trkpt>
      <trkpt lat="42.5214274786" lon="19.8419579398">
        <ele>990.30</ele>
        <time>2019-07-05T06:00:50Z</time>
      </trkpt>
      <trkpt lat="42.5212774426" lon="19.8419175390">
        <ele>990.78</ele>
        <time>2019-07-05T06:01:02Z</time>
      </trkpt>
      <trkpt lat="42.5211118162" lon="19.8418913875">
        <ele>990.78</ele>
        <time>2019-07-05T06:01:17Z</time>
      </trkpt>
      <trkpt lat="42.5209548231" lon="19.8418265954">
        <ele>990.78</ele>
        <time>2019-07-05T06:01:30Z</time>
      </trkpt>
      <trkpt lat="42.5208109897" lon="19.8417214863">
        <ele>991.74</ele>
        <time>2019-07-05T06:01:44Z</time>
      </trkpt>
      <trkpt lat="42.5206668209" lon="19.8416058999">
        <ele>991.74</ele>
        <time>2019-07-05T06:01:57Z</time>
      </trkpt>
      <trkpt lat="42.5205728598" lon="19.8415431194">
        <ele>991.74</ele>
        <time>2019-07-05T06:02:05Z</time>
      </trkpt>
      <trkpt lat="42.5203913078" lon="19.8414644971">
        <ele>992.70</ele>
        <time>2019-07-05T06:02:22Z</time>
      </trkpt>
      <trkpt lat="42.5203581154" lon="19.8414478172">
        <ele>992.70</ele>
        <time>2019-07-05T06:02:25Z</time>
      </trkpt>
      <trkpt lat="42.5202276930" lon="19.8413992859">
        <ele>994.62</ele>
        <time>2019-07-05T06:02:37Z</time>
      </trkpt>
      <trkpt lat="42.5200804230" lon="19.8412644211">
        <ele>995.58</ele>
        <time>2019-07-05T06:02:52Z</time>
      </trkpt>
      <trkpt lat="42.5199551135" lon="19.8411733098">
        <ele>995.58</ele>
        <time>2019-07-05T06:03:04Z</time>
      </trkpt>
      <trkpt lat="42.5198134594" lon="19.8410531972">
        <ele>996.54</ele>
        <time>2019-07-05T06:03:19Z</time>
      </trkpt>
      <trkpt lat="42.5197281316" lon="19.8409455735">
        <ele>997.99</ele>
        <time>2019-07-05T06:03:31Z</time>
      </trkpt>
      <trkpt lat="42.5196607411" lon="19.8408806138">
        <ele>998.47</ele>
        <time>2019-07-05T06:03:42Z</time>
      </trkpt>
      <trkpt lat="42.5196259562" lon="19.8408765905">
        <ele>999.43</ele>
        <time>2019-07-05T06:03:46Z</time>
      </trkpt>
      <trkpt lat="42.5195285585" lon="19.8407187592">
        <ele>1000.87</ele>
        <time>2019-07-05T06:04:01Z</time>
      </trkpt>
      <trkpt lat="42.5195076875" lon="19.8406958766">
        <ele>1000.87</ele>
        <time>2019-07-05T06:04:04Z</time>
      </trkpt>
      <trkpt lat="42.5193932746" lon="19.8405862413">
        <ele>1002.79</ele>
        <time>2019-07-05T06:04:19Z</time>
      </trkpt>
      <trkpt lat="42.5192373712" lon="19.8404979799">
        <ele>1004.23</ele>
        <time>2019-07-05T06:04:33Z</time>
      </trkpt>
      <trkpt lat="42.5190710742" lon="19.8404083773">
        <ele>1004.72</ele>
        <time>2019-07-05T06:04:47Z</time>
      </trkpt>
      <trkpt lat="42.5188873429" lon="19.8402960598">
        <ele>1005.20</ele>
        <time>2019-07-05T06:05:03Z</time>
      </trkpt>
      <trkpt lat="42.5188556593" lon="19.8402810562">
        <ele>1005.20</ele>
        <time>2019-07-05T06:05:06Z</time>
      </trkpt>
      <trkpt lat="42.5188144203" lon="19.8402487021">
        <ele>1005.68</ele>
        <time>2019-07-05T06:05:10Z</time>
      </trkpt>
      <trkpt lat="42.5187696610" lon="19.8402215447">
        <ele>1005.20</ele>
        <time>2019-07-05T06:05:14Z</time>
      </trkpt>
      <trkpt lat="42.5185821578" lon="19.8401021864">
        <ele>1005.68</ele>
        <time>2019-07-05T06:05:30Z</time>
      </trkpt>
      <trkpt lat="42.5184146035" lon="19.8399700038">
        <ele>1006.16</ele>
        <time>2019-07-05T06:05:46Z</time>
      </trkpt>
      <trkpt lat="42.5182196405" lon="19.8398103286">
        <ele>1006.16</ele>
        <time>2019-07-05T06:06:04Z</time>
      </trkpt>
      <trkpt lat="42.5180227496" lon="19.8396595381">
        <ele>1007.12</ele>
        <time>2019-07-05T06:06:22Z</time>
      </trkpt>
      <trkpt lat="42.5178284571" lon="19.8395870347">
        <ele>1008.08</ele>
        <time>2019-07-05T06:06:40Z</time>
      </trkpt>
      <trkpt lat="42.5176852942" lon="19.8395185545">
        <ele>1009.04</ele>
        <time>2019-07-05T06:06:53Z</time>
      </trkpt>
      <trkpt lat="42.5176627468" lon="19.8395063169">
        <ele>1009.04</ele>
        <time>2019-07-05T06:06:55Z</time>
      </trkpt>
      <trkpt lat="42.5174664427" lon="19.8394398484">
        <ele>1009.52</ele>
        <time>2019-07-05T06:07:12Z</time>
      </trkpt>
      <trkpt lat="42.5173495989" lon="19.8393903114">
        <ele>1009.52</ele>
        <time>2019-07-05T06:07:22Z</time>
      </trkpt>
      <trkpt lat="42.5172019936" lon="19.8392605595">
        <ele>1009.52</ele>
        <time>2019-07-05T06:07:36Z</time>
      </trkpt>
      <trkpt lat="42.5170046836" lon="19.8391111940">
        <ele>1009.52</ele>
        <time>2019-07-05T06:07:54Z</time>
      </trkpt>
      <trkpt lat="42.5169147458" lon="19.8389671091">
        <ele>1010.00</ele>
        <time>2019-07-05T06:08:05Z</time>
      </trkpt>
      <trkpt lat="42.5168054458" lon="19.8387945257">
        <ele>1010.48</ele>
        <time>2019-07-05T06:08:20Z</time>
      </trkpt>
      <trkpt lat="42.5167150889" lon="19.8385144025">
        <ele>1011.44</ele>
        <time>2019-07-05T06:08:37Z</time>
      </trkpt>
      <trkpt lat="42.5166291744" lon="19.8383095488">
        <ele>1011.93</ele>
        <time>2019-07-05T06:08:50Z</time>
      </trkpt>
      <trkpt lat="42.5164982490" lon="19.8381455988">
        <ele>1012.89</ele>
        <time>2019-07-05T06:09:06Z</time>
      </trkpt>
      <trkpt lat="42.5163386576" lon="19.8381059524">
        <ele>1013.37</ele>
        <time>2019-07-05T06:09:20Z</time>
      </trkpt>
      <trkpt lat="42.5162622984" lon="19.8380826507">
        <ele>1013.37</ele>
        <time>2019-07-05T06:09:26Z</time>
      </trkpt>
      <trkpt lat="42.5162152760" lon="19.8380621988">
        <ele>1014.33</ele>
        <time>2019-07-05T06:09:30Z</time>
      </trkpt>
      <trkpt lat="42.5160497334" lon="19.8380355444">
        <ele>1014.33</ele>
        <time>2019-07-05T06:09:44Z</time>
      </trkpt>
      <trkpt lat="42.5159115996" lon="19.8380177747">
        <ele>1014.33</ele>
        <time>2019-07-05T06:09:54Z</time>
      </trkpt>
      <trkpt lat="42.5158328936" lon="19.8380115721">
        <ele>1014.33</ele>
        <time>2019-07-05T06:10:00Z</time>
      </trkpt>
      <trkpt lat="42.5156573765" lon="19.8378522322">
        <ele>1014.33</ele>
        <time>2019-07-05T06:10:16Z</time>
      </trkpt>
      <trkpt lat="42.5154904928" lon="19.8377330415">
        <ele>1014.33</ele>
        <time>2019-07-05T06:10:31Z</time>
      </trkpt>
      <trkpt lat="42.5153246149" lon="19.8376715183">
        <ele>1014.81</ele>
        <time>2019-07-05T06:10:45Z</time>
      </trkpt>
      <trkpt lat="42.5152437296" lon="19.8376506474">
        <ele>1014.81</ele>
        <time>2019-07-05T06:10:52Z</time>
      </trkpt>
      <trkpt lat="42.5151572283" lon="19.8376482166">
        <ele>1014.81</ele>
        <time>2019-07-05T06:10:59Z</time>
      </trkpt>
      <trkpt lat="42.5149229541" lon="19.8376965802">
        <ele>1015.29</ele>
        <time>2019-07-05T06:11:18Z</time>
      </trkpt>
      <trkpt lat="42.5147670507" lon="19.8377047945">
        <ele>1015.77</ele>
        <time>2019-07-05T06:11:31Z</time>
      </trkpt>
      <trkpt lat="42.5146281626" lon="19.8377280124">
        <ele>1016.73</ele>
        <time>2019-07-05T06:11:42Z</time>
      </trkpt>
      <trkpt lat="42.5144466944" lon="19.8377529066">
        <ele>1016.73</ele>
        <time>2019-07-05T06:11:56Z</time>
      </trkpt>
      <trkpt lat="42.5142451096" lon="19.8377821594">
        <ele>1017.69</ele>
        <time>2019-07-05T06:12:13Z</time>
      </trkpt>
      <trkpt lat="42.5141705107" lon="19.8377937265">
        <ele>1018.17</ele>
        <time>2019-07-05T06:12:20Z</time>
      </trkpt>
      <trkpt lat="42.5141104124" lon="19.8377778847">
        <ele>1018.17</ele>
        <time>2019-07-05T06:12:25Z</time>
      </trkpt>
      <trkpt lat="42.5139852706" lon="19.8376605380">
        <ele>1018.65</ele>
        <time>2019-07-05T06:12:36Z</time>
      </trkpt>
      <trkpt lat="42.5138988532" lon="19.8375625536">
        <ele>1018.65</ele>
        <time>2019-07-05T06:12:45Z</time>
      </trkpt>
      <trkpt lat="42.5137534272" lon="19.8373516649">
        <ele>1018.65</ele>
        <time>2019-07-05T06:13:00Z</time>
      </trkpt>
      <trkpt lat="42.5135979429" lon="19.8371579591">
        <ele>1018.65</ele>
        <time>2019-07-05T06:13:16Z</time>
      </trkpt>
      <trkpt lat="42.5134202465" lon="19.8370519280">
        <ele>1020.10</ele>
        <time>2019-07-05T06:13:32Z</time>
      </trkpt>
      <trkpt lat="42.5133908261" lon="19.8370342422">
        <ele>1020.10</ele>
        <time>2019-07-05T06:13:35Z</time>
      </trkpt>
      <trkpt lat="42.5132308155" lon="19.8369779158">
        <ele>1020.58</ele>
        <time>2019-07-05T06:13:48Z</time>
      </trkpt>
      <trkpt lat="42.5130526163" lon="19.8368143849">
        <ele>1021.06</ele>
        <time>2019-07-05T06:14:04Z</time>
      </trkpt>
      <trkpt lat="42.5129047595" lon="19.8366868962">
        <ele>1021.54</ele>
        <time>2019-07-05T06:14:17Z</time>
      </trkpt>
      <trkpt lat="42.5128622632" lon="19.8366486747">
        <ele>1021.54</ele>
        <time>2019-07-05T06:14:21Z</time>
      </trkpt>
      <trkpt lat="42.5127749238" lon="19.8365845531">
        <ele>1021.54</ele>
        <time>2019-07-05T06:14:29Z</time>
      </trkpt>
      <trkpt lat="42.5126135722" lon="19.8365611676">
        <ele>1022.98</ele>
        <time>2019-07-05T06:14:43Z</time>
      </trkpt>
      <trkpt lat="42.5125936233" lon="19.8365668673">
        <ele>1022.98</ele>
        <time>2019-07-05T06:14:45Z</time>
      </trkpt>
      <trkpt lat="42.5124509633" lon="19.8365484271">
        <ele>1024.90</ele>
        <time>2019-07-05T06:14:59Z</time>
      </trkpt>
      <trkpt lat="42.5123491231" lon="19.8365028296">
        <ele>1026.83</ele>
        <time>2019-07-05T06:15:07Z</time>
      </trkpt>
      <trkpt lat="42.5122594368" lon="19.8363551404">
        <ele>1027.79</ele>
        <time>2019-07-05T06:15:19Z</time>
      </trkpt>
      <trkpt lat="42.5121861789" lon="19.8362142406">
        <ele>1029.71</ele>
        <time>2019-07-05T06:15:33Z</time>
      </trkpt>
      <trkpt lat="42.5120466202" lon="19.8360814713">
        <ele>1030.67</ele>
        <time>2019-07-05T06:15:49Z</time>
      </trkpt>
      <trkpt lat="42.5119272619" lon="19.8359333631">
        <ele>1032.11</ele>
        <time>2019-07-05T06:16:03Z</time>
      </trkpt>
      <trkpt lat="42.5118063111" lon="19.8357979953">
        <ele>1033.55</ele>
        <time>2019-07-05T06:16:18Z</time>
      </trkpt>
      <trkpt lat="42.5116949156" lon="19.8357250728">
        <ele>1035.00</ele>
        <time>2019-07-05T06:16:31Z</time>
      </trkpt>
      <trkpt lat="42.5116391759" lon="19.8356374819">
        <ele>1035.96</ele>
        <time>2019-07-05T06:16:45Z</time>
      </trkpt>
      <trkpt lat="42.5116507430" lon="19.8355394974">
        <ele>1035.96</ele>
        <time>2019-07-05T06:17:01Z</time>
      </trkpt>
      <trkpt lat="42.5116614718" lon="19.8354404233">
        <ele>1032.59</ele>
        <time>2019-07-05T06:17:12Z</time>
      </trkpt>
      <trkpt lat="42.5116789062" lon="19.8353581131">
        <ele>1031.15</ele>
        <time>2019-07-05T06:17:23Z</time>
      </trkpt>
      <trkpt lat="42.5116559397" lon="19.8353332188">
        <ele>1031.15</ele>
        <time>2019-07-05T06:17:37Z</time>
      </trkpt>
      <trkpt lat="42.5116417743" lon="19.8352804966">
        <ele>1029.71</ele>
        <time>2019-07-05T06:17:49Z</time>
      </trkpt>
      <trkpt lat="42.5116409361" lon="19.8351867869">
        <ele>1027.79</ele>
        <time>2019-07-05T06:18:01Z</time>
      </trkpt>
      <trkpt lat="42.5116280280" lon="19.8350843601">
        <ele>1025.38</ele>
        <time>2019-07-05T06:18:11Z</time>
      </trkpt>
      <trkpt lat="42.5116810855" lon="19.8349722940">
        <ele>1023.94</ele>
        <time>2019-07-05T06:18:24Z</time>
      </trkpt>
      <trkpt lat="42.5117071532" lon="19.8349527642">
        <ele>1023.94</ele>
        <time>2019-07-05T06:18:31Z</time>
      </trkpt>
      <trkpt lat="42.5116341468" lon="19.8349595536">
        <ele>1023.94</ele>
        <time>2019-07-05T06:18:41Z</time>
      </trkpt>
      <trkpt lat="42.5115863699" lon="19.8349460587">
        <ele>1025.38</ele>
        <time>2019-07-05T06:18:56Z</time>
      </trkpt>
      <trkpt lat="42.5115204882" lon="19.8349208292">
        <ele>1025.86</ele>
        <time>2019-07-05T06:19:14Z</time>
      </trkpt>
      <trkpt lat="42.5115085859" lon="19.8348994553">
        <ele>1025.86</ele>
        <time>2019-07-05T06:19:33Z</time>
      </trkpt>
      <trkpt lat="42.5115561113" lon="19.8349178955">
        <ele>1025.86</ele>
        <time>2019-07-05T06:19:41Z</time>
      </trkpt>
      <trkpt lat="42.5116131082" lon="19.8348873015">
        <ele>1024.90</ele>
        <time>2019-07-05T06:19:51Z</time>
      </trkpt>
      <trkpt lat="42.5116152875" lon="19.8348974437">
        <ele>1024.90</ele>
        <time>2019-07-05T06:19:53Z</time>
      </trkpt>
      <trkpt lat="42.5116929878" lon="19.8348772433">
        <ele>1024.42</ele>
        <time>2019-07-05T06:20:06Z</time>
      </trkpt>
      <trkpt lat="42.5117216539" lon="19.8349006288">
        <ele>1023.94</ele>
        <time>2019-07-05T06:20:18Z</time>
      </trkpt>
      <trkpt lat="42.5117821712" lon="19.8349863756">
        <ele>1024.42</ele>
        <time>2019-07-05T06:20:50Z</time>
      </trkpt>
      <trkpt lat="42.5117491465" lon="19.8350335658">
        <ele>1024.42</ele>
        <time>2019-07-05T06:21:20Z</time>
      </trkpt>
      <trkpt lat="42.5117121823" lon="19.8350484017">
        <ele>1025.38</ele>
        <time>2019-07-05T06:22:04Z</time>
      </trkpt>
      <trkpt lat="42.5117404293" lon="19.8350897245">
        <ele>1025.86</ele>
        <time>2019-07-05T06:22:35Z</time>
      </trkpt>
      <trkpt lat="42.5117458776" lon="19.8350828514">
        <ele>1026.34</ele>
        <time>2019-07-05T06:23:01Z</time>
      </trkpt>
      <trkpt lat="42.5117701013" lon="19.8350627348">
        <ele>1027.79</ele>
        <time>2019-07-05T06:23:23Z</time>
      </trkpt>
      <trkpt lat="42.5117648207" lon="19.8351235874">
        <ele>1027.79</ele>
        <time>2019-07-05T06:23:33Z</time>
      </trkpt>
      <trkpt lat="42.5116995256" lon="19.8350824323">
        <ele>1028.27</ele>
        <time>2019-07-05T06:23:47Z</time>
      </trkpt>
      <trkpt lat="42.5116986036" lon="19.8351514153">
        <ele>1030.19</ele>
        <time>2019-07-05T06:24:00Z</time>
      </trkpt>
      <trkpt lat="42.5116509944" lon="19.8352495674">
        <ele>1033.07</ele>
        <time>2019-07-05T06:24:15Z</time>
      </trkpt>
      <trkpt lat="42.5116509944" lon="19.8353296146">
        <ele>1034.52</ele>
        <time>2019-07-05T06:24:31Z</time>
      </trkpt>
      <trkpt lat="42.5116371643" lon="19.8353284411">
        <ele>1035.48</ele>
        <time>2019-07-05T06:24:51Z</time>
      </trkpt>
      <trkpt lat="42.5116013736" lon="19.8353644833">
        <ele>1035.48</ele>
        <time>2019-07-05T06:25:12Z</time>
      </trkpt>
      <trkpt lat="42.5116229150" lon="19.8354742862">
        <ele>1036.92</ele>
        <time>2019-07-05T06:25:25Z</time>
      </trkpt>
      <trkpt lat="42.5115766469" lon="19.8355660681">
        <ele>1039.32</ele>
        <time>2019-07-05T06:25:40Z</time>
      </trkpt>
      <trkpt lat="42.5115534291" lon="19.8355355579">
        <ele>1040.28</ele>
        <time>2019-07-05T06:25:44Z</time>
      </trkpt>
      <trkpt lat="42.5114732143" lon="19.8353284411">
        <ele>1041.25</ele>
        <time>2019-07-05T06:26:02Z</time>
      </trkpt>
      <trkpt lat="42.5114293769" lon="19.8351976834">
        <ele>1042.69</ele>
        <time>2019-07-05T06:26:14Z</time>
      </trkpt>
      <trkpt lat="42.5113577954" lon="19.8350735474">
        <ele>1044.13</ele>
        <time>2019-07-05T06:26:28Z</time>
      </trkpt>
      <trkpt lat="42.5113406125" lon="19.8350499105">
        <ele>1044.13</ele>
        <time>2019-07-05T06:26:30Z</time>
      </trkpt>
      <trkpt lat="42.5111911632" lon="19.8348802608">
        <ele>1046.05</ele>
        <time>2019-07-05T06:26:48Z</time>
      </trkpt>
      <trkpt lat="42.5111313164" lon="19.8348297179">
        <ele>1047.01</ele>
        <time>2019-07-05T06:26:56Z</time>
      </trkpt>
      <trkpt lat="42.5110345893" lon="19.8347618245">
        <ele>1048.45</ele>
        <time>2019-07-05T06:27:08Z</time>
      </trkpt>
      <trkpt lat="42.5109095313" lon="19.8346924223">
        <ele>1049.42</ele>
        <time>2019-07-05T06:27:22Z</time>
      </trkpt>
      <trkpt lat="42.5107945316" lon="19.8346099444">
        <ele>1050.86</ele>
        <time>2019-07-05T06:27:35Z</time>
      </trkpt>
      <trkpt lat="42.5107755046" lon="19.8345892411">
        <ele>1051.34</ele>
        <time>2019-07-05T06:27:37Z</time>
      </trkpt>
      <trkpt lat="42.5106620137" lon="19.8344832100">
        <ele>1052.30</ele>
        <time>2019-07-05T06:27:51Z</time>
      </trkpt>
      <trkpt lat="42.5105180126" lon="19.8344109580">
        <ele>1053.26</ele>
        <time>2019-07-05T06:28:07Z</time>
      </trkpt>
      <trkpt lat="42.5104386359" lon="19.8343558051">
        <ele>1053.74</ele>
        <time>2019-07-05T06:28:15Z</time>
      </trkpt>
      <trkpt lat="42.5103826448" lon="19.8343312461">
        <ele>1054.22</ele>
        <time>2019-07-05T06:28:21Z</time>
      </trkpt>
      <trkpt lat="42.5102611911" lon="19.8342535459">
        <ele>1054.70</ele>
        <time>2019-07-05T06:28:36Z</time>
      </trkpt>
      <trkpt lat="42.5101119094" lon="19.8341309186">
        <ele>1055.18</ele>
        <time>2019-07-05T06:28:51Z</time>
      </trkpt>
      <trkpt lat="42.5099254958" lon="19.8340415675">
        <ele>1055.18</ele>
        <time>2019-07-05T06:29:07Z</time>
      </trkpt>
      <trkpt lat="42.5098052993" lon="19.8339981493">
        <ele>1055.67</ele>
        <time>2019-07-05T06:29:17Z</time>
      </trkpt>
      <trkpt lat="42.5095903873" lon="19.8338611890">
        <ele>1055.67</ele>
        <time>2019-07-05T06:29:35Z</time>
      </trkpt>
      <trkpt lat="42.5094333105" lon="19.8337311856">
        <ele>1054.22</ele>
        <time>2019-07-05T06:29:50Z</time>
      </trkpt>
      <trkpt lat="42.5094195642" lon="19.8337111529">
        <ele>1054.22</ele>
        <time>2019-07-05T06:29:52Z</time>
      </trkpt>
      <trkpt lat="42.5093280338" lon="19.8335326184">
        <ele>1054.22</ele>
        <time>2019-07-05T06:30:06Z</time>
      </trkpt>
      <trkpt lat="42.5092421193" lon="19.8333090730">
        <ele>1054.22</ele>
        <time>2019-07-05T06:30:23Z</time>
      </trkpt>
      <trkpt lat="42.5091310591" lon="19.8331457097">
        <ele>1055.67</ele>
        <time>2019-07-05T06:30:36Z</time>
      </trkpt>
      <trkpt lat="42.5090184901" lon="19.8330048937">
        <ele>1056.63</ele>
        <time>2019-07-05T06:30:50Z</time>
      </trkpt>
      <trkpt lat="42.5088783447" lon="19.8328615632">
        <ele>1057.59</ele>
        <time>2019-07-05T06:31:06Z</time>
      </trkpt>
      <trkpt lat="42.5088272989" lon="19.8328137863">
        <ele>1057.59</ele>
        <time>2019-07-05T06:31:11Z</time>
      </trkpt>
      <trkpt lat="42.5087807793" lon="19.8327567894">
        <ele>1057.59</ele>
        <time>2019-07-05T06:31:16Z</time>
      </trkpt>
      <trkpt lat="42.5086612534" lon="19.8325141333">
        <ele>1058.55</ele>
        <time>2019-07-05T06:31:33Z</time>
      </trkpt>
      <trkpt lat="42.5085755903" lon="19.8322875705">
        <ele>1059.51</ele>
        <time>2019-07-05T06:31:49Z</time>
      </trkpt>
      <trkpt lat="42.5084637757" lon="19.8321664520">
        <ele>1060.95</ele>
        <time>2019-07-05T06:32:03Z</time>
      </trkpt>
      <trkpt lat="42.5084513705" lon="19.8321682960">
        <ele>1060.95</ele>
        <time>2019-07-05T06:32:23Z</time>
      </trkpt>
      <trkpt lat="42.5084488560" lon="19.8321532924">
        <ele>1060.95</ele>
        <time>2019-07-05T06:32:44Z</time>
      </trkpt>
      <trkpt lat="42.5084255543" lon="19.8321848921">
        <ele>1060.95</ele>
        <time>2019-07-05T06:32:52Z</time>
      </trkpt>
      <trkpt lat="42.5084069464" lon="19.8321633507">
        <ele>1060.95</ele>
        <time>2019-07-05T06:32:55Z</time>
      </trkpt>
      <trkpt lat="42.5083115604" lon="19.8320873268">
        <ele>1061.43</ele>
        <time>2019-07-05T06:33:05Z</time>
      </trkpt>
      <trkpt lat="42.5082559884" lon="19.8320629355">
        <ele>1061.43</ele>
        <time>2019-07-05T06:33:10Z</time>
      </trkpt>
      <trkpt lat="42.5080724247" lon="19.8319937009">
        <ele>1061.43</ele>
        <time>2019-07-05T06:33:25Z</time>
      </trkpt>
      <trkpt lat="42.5079141743" lon="19.8319237959">
        <ele>1061.91</ele>
        <time>2019-07-05T06:33:40Z</time>
      </trkpt>
      <trkpt lat="42.5077954028" lon="19.8318741750">
        <ele>1062.87</ele>
        <time>2019-07-05T06:33:52Z</time>
      </trkpt>
      <trkpt lat="42.5076222327" lon="19.8318772763">
        <ele>1064.32</ele>
        <time>2019-07-05T06:34:08Z</time>
      </trkpt>
      <trkpt lat="42.5075011980" lon="19.8318626918">
        <ele>1065.28</ele>
        <time>2019-07-05T06:34:21Z</time>
      </trkpt>
      <trkpt lat="42.5073611364" lon="19.8318083771">
        <ele>1066.24</ele>
        <time>2019-07-05T06:34:32Z</time>
      </trkpt>
      <trkpt lat="42.5072857831" lon="19.8317491170">
        <ele>1066.72</ele>
        <time>2019-07-05T06:34:38Z</time>
      </trkpt>
      <trkpt lat="42.5071066618" lon="19.8316050321">
        <ele>1067.68</ele>
        <time>2019-07-05T06:34:56Z</time>
      </trkpt>
      <trkpt lat="42.5070656743" lon="19.8315490410">
        <ele>1068.64</ele>
        <time>2019-07-05T06:35:02Z</time>
      </trkpt>
      <trkpt lat="42.5070181489" lon="19.8314898647">
        <ele>1069.60</ele>
        <time>2019-07-05T06:35:08Z</time>
      </trkpt>
      <trkpt lat="42.5069935899" lon="19.8314250726">
        <ele>1070.08</ele>
        <time>2019-07-05T06:35:13Z</time>
      </trkpt>
      <trkpt lat="42.5069423765" lon="19.8313301895">
        <ele>1070.08</ele>
        <time>2019-07-05T06:35:21Z</time>
      </trkpt>
      <trkpt lat="42.5068543665" lon="19.8311752081">
        <ele>1071.53</ele>
        <time>2019-07-05T06:35:34Z</time>
      </trkpt>
      <trkpt lat="42.5067743193" lon="19.8310043849">
        <ele>1072.97</ele>
        <time>2019-07-05T06:35:48Z</time>
      </trkpt>
      <trkpt lat="42.5067130476" lon="19.8308622278">
        <ele>1074.41</ele>
        <time>2019-07-05T06:36:00Z</time>
      </trkpt>
      <trkpt lat="42.5066719763" lon="19.8307738826">
        <ele>1075.37</ele>
        <time>2019-07-05T06:36:06Z</time>
      </trkpt>
      <trkpt lat="42.5066012330" lon="19.8306423705">
        <ele>1076.81</ele>
        <time>2019-07-05T06:36:17Z</time>
      </trkpt>
      <trkpt lat="42.5065772608" lon="19.8306194041">
        <ele>1077.29</ele>
        <time>2019-07-05T06:36:20Z</time>
      </trkpt>
      <trkpt lat="42.5065283943" lon="19.8305680230">
        <ele>1077.78</ele>
        <time>2019-07-05T06:36:25Z</time>
      </trkpt>
      <trkpt lat="42.5063522905" lon="19.8303801008">
        <ele>1078.26</ele>
        <time>2019-07-05T06:36:43Z</time>
      </trkpt>
      <trkpt lat="42.5062414818" lon="19.8302668612">
        <ele>1078.26</ele>
        <time>2019-07-05T06:36:53Z</time>
      </trkpt>
      <trkpt lat="42.5060747657" lon="19.8300485127">
        <ele>1078.26</ele>
        <time>2019-07-05T06:37:11Z</time>
      </trkpt>
      <trkpt lat="42.5059403200" lon="19.8298734147">
        <ele>1078.26</ele>
        <time>2019-07-05T06:37:26Z</time>
      </trkpt>
      <trkpt lat="42.5058611948" lon="19.8298015818">
        <ele>1078.26</ele>
        <time>2019-07-05T06:37:33Z</time>
      </trkpt>
      <trkpt lat="42.5056829955" lon="19.8296175152">
        <ele>1077.78</ele>
        <time>2019-07-05T06:37:50Z</time>
      </trkpt>
      <trkpt lat="42.5056638010" lon="19.8295979854">
        <ele>1077.78</ele>
        <time>2019-07-05T06:37:52Z</time>
      </trkpt>
      <trkpt lat="42.5055061374" lon="19.8294560798">
        <ele>1077.78</ele>
        <time>2019-07-05T06:38:08Z</time>
      </trkpt>
      <trkpt lat="42.5053820014" lon="19.8293265793">
        <ele>1078.26</ele>
        <time>2019-07-05T06:38:23Z</time>
      </trkpt>
      <trkpt lat="42.5052774791" lon="19.8292114958">
        <ele>1079.22</ele>
        <time>2019-07-05T06:38:36Z</time>
      </trkpt>
      <trkpt lat="42.5051338971" lon="19.8291263357">
        <ele>1081.14</ele>
        <time>2019-07-05T06:38:50Z</time>
      </trkpt>
      <trkpt lat="42.5049724616" lon="19.8290469591">
        <ele>1082.58</ele>
        <time>2019-07-05T06:39:04Z</time>
      </trkpt>
      <trkpt lat="42.5049483217" lon="19.8290378228">
        <ele>1082.58</ele>
        <time>2019-07-05T06:39:06Z</time>
      </trkpt>
      <trkpt lat="42.5048059970" lon="19.8288982641">
        <ele>1084.02</ele>
        <time>2019-07-05T06:39:22Z</time>
      </trkpt>
      <trkpt lat="42.5046360120" lon="19.8287892155">
        <ele>1085.47</ele>
        <time>2019-07-05T06:39:38Z</time>
      </trkpt>
      <trkpt lat="42.5045358483" lon="19.8287354875">
        <ele>1086.43</ele>
        <time>2019-07-05T06:39:50Z</time>
      </trkpt>
      <trkpt lat="42.5044208486" lon="19.8287242558">
        <ele>1088.83</ele>
        <time>2019-07-05T06:40:04Z</time>
      </trkpt>
      <trkpt lat="42.5043209363" lon="19.8287419416">
        <ele>1090.27</ele>
        <time>2019-07-05T06:40:15Z</time>
      </trkpt>
      <trkpt lat="42.5041864067" lon="19.8287460487">
        <ele>1091.71</ele>
        <time>2019-07-05T06:40:29Z</time>
      </trkpt>
      <trkpt lat="42.5040235464" lon="19.8286382575">
        <ele>1092.20</ele>
        <time>2019-07-05T06:40:42Z</time>
      </trkpt>
      <trkpt lat="42.5039549824" lon="19.8285882175">
        <ele>1093.16</ele>
        <time>2019-07-05T06:40:47Z</time>
      </trkpt>
      <trkpt lat="42.5038531423" lon="19.8284872994">
        <ele>1094.12</ele>
        <time>2019-07-05T06:40:57Z</time>
      </trkpt>
      <trkpt lat="42.5037123263" lon="19.8283850402">
        <ele>1095.08</ele>
        <time>2019-07-05T06:41:11Z</time>
      </trkpt>
      <trkpt lat="42.5036277529" lon="19.8282774165">
        <ele>1095.56</ele>
        <time>2019-07-05T06:41:22Z</time>
      </trkpt>
      <trkpt lat="42.5035907049" lon="19.8282176536">
        <ele>1096.52</ele>
        <time>2019-07-05T06:41:28Z</time>
      </trkpt>
      <trkpt lat="42.5035031978" lon="19.8281069286">
        <ele>1097.96</ele>
        <time>2019-07-05T06:41:38Z</time>
      </trkpt>
      <trkpt lat="42.5034089014" lon="19.8279764224">
        <ele>1098.92</ele>
        <time>2019-07-05T06:41:52Z</time>
      </trkpt>
      <trkpt lat="42.5033989269" lon="19.8279517796">
        <ele>1099.40</ele>
        <time>2019-07-05T06:41:54Z</time>
      </trkpt>
      <trkpt lat="42.5033912994" lon="19.8279226106">
        <ele>1099.40</ele>
        <time>2019-07-05T06:41:56Z</time>
      </trkpt>
      <trkpt lat="42.5033714343" lon="19.8278530408">
        <ele>1100.37</ele>
        <time>2019-07-05T06:42:01Z</time>
      </trkpt>
      <trkpt lat="42.5033168681" lon="19.8276766017">
        <ele>1102.29</ele>
        <time>2019-07-05T06:42:15Z</time>
      </trkpt>
      <trkpt lat="42.5032668281" lon="19.8274926189">
        <ele>1104.69</ele>
        <time>2019-07-05T06:42:30Z</time>
      </trkpt>
      <trkpt lat="42.5031797402" lon="19.8273579217">
        <ele>1106.13</ele>
        <time>2019-07-05T06:42:42Z</time>
      </trkpt>
      <trkpt lat="42.5031187199" lon="19.8271110747">
        <ele>1106.13</ele>
        <time>2019-07-05T06:42:57Z</time>
      </trkpt>
      <trkpt lat="42.5031104218" lon="19.8270466179">
        <ele>1106.13</ele>
        <time>2019-07-05T06:43:01Z</time>
      </trkpt>
      <trkpt lat="42.5030377507" lon="19.8268702626">
        <ele>1106.13</ele>
        <time>2019-07-05T06:43:16Z</time>
      </trkpt>
      <trkpt lat="42.5029686838" lon="19.8267038818">
        <ele>1108.54</ele>
        <time>2019-07-05T06:43:29Z</time>
      </trkpt>
      <trkpt lat="42.5029002037" lon="19.8264980223">
        <ele>1109.98</ele>
        <time>2019-07-05T06:43:45Z</time>
      </trkpt>
      <trkpt lat="42.5028655026" lon="19.8263830226">
        <ele>1111.90</ele>
        <time>2019-07-05T06:43:56Z</time>
      </trkpt>
      <trkpt lat="42.5028212462" lon="19.8262657598">
        <ele>1113.82</ele>
        <time>2019-07-05T06:44:08Z</time>
      </trkpt>
      <trkpt lat="42.5027850363" lon="19.8261604831">
        <ele>1115.27</ele>
        <time>2019-07-05T06:44:18Z</time>
      </trkpt>
      <trkpt lat="42.5027562864" lon="19.8260112014">
        <ele>1118.15</ele>
        <time>2019-07-05T06:44:32Z</time>
      </trkpt>
      <trkpt lat="42.5027562864" lon="19.8259997182">
        <ele>1118.15</ele>
        <time>2019-07-05T06:44:33Z</time>
      </trkpt>
      <trkpt lat="42.5027209986" lon="19.8258370254">
        <ele>1119.59</ele>
        <time>2019-07-05T06:44:45Z</time>
      </trkpt>
      <trkpt lat="42.5026013050" lon="19.8257178348">
        <ele>1119.59</ele>
        <time>2019-07-05T06:44:58Z</time>
      </trkpt>
      <trkpt lat="42.5024866406" lon="19.8255745042">
        <ele>1122.48</ele>
        <time>2019-07-05T06:45:14Z</time>
      </trkpt>
      <trkpt lat="42.5024104491" lon="19.8254491948">
        <ele>1124.40</ele>
        <time>2019-07-05T06:45:27Z</time>
      </trkpt>
      <trkpt lat="42.5023685396" lon="19.8254108056">
        <ele>1125.36</ele>
        <time>2019-07-05T06:45:33Z</time>
      </trkpt>
      <trkpt lat="42.5023453217" lon="19.8253823910">
        <ele>1125.36</ele>
        <time>2019-07-05T06:45:37Z</time>
      </trkpt>
      <trkpt lat="42.5023336709" lon="19.8253704887">
        <ele>1125.36</ele>
        <time>2019-07-05T06:45:38Z</time>
      </trkpt>
      <trkpt lat="42.5022453256" lon="19.8252585903">
        <ele>1125.84</ele>
        <time>2019-07-05T06:45:50Z</time>
      </trkpt>
      <trkpt lat="42.5022223592" lon="19.8252067063">
        <ele>1125.84</ele>
        <time>2019-07-05T06:45:53Z</time>
      </trkpt>
      <trkpt lat="42.5021659490" lon="19.8251331132">
        <ele>1125.84</ele>
        <time>2019-07-05T06:45:59Z</time>
      </trkpt>
      <trkpt lat="42.5020883325" lon="19.8250736855">
        <ele>1125.84</ele>
        <time>2019-07-05T06:46:06Z</time>
      </trkpt>
      <trkpt lat="42.5020007417" lon="19.8250523955">
        <ele>1125.84</ele>
        <time>2019-07-05T06:46:15Z</time>
      </trkpt>
      <trkpt lat="42.5019288249" lon="19.8250047024">
        <ele>1127.28</ele>
        <time>2019-07-05T06:46:24Z</time>
      </trkpt>
      <trkpt lat="42.5018217042" lon="19.8249382339">
        <ele>1128.73</ele>
        <time>2019-07-05T06:46:36Z</time>
      </trkpt>
      <trkpt lat="42.5018062815" lon="19.8249171115">
        <ele>1128.73</ele>
        <time>2019-07-05T06:46:38Z</time>
      </trkpt>
      <trkpt lat="42.5017393939" lon="19.8247204721">
        <ele>1130.65</ele>
        <time>2019-07-05T06:46:53Z</time>
      </trkpt>
      <trkpt lat="42.5017944630" lon="19.8246211465">
        <ele>1132.57</ele>
        <time>2019-07-05T06:47:08Z</time>
      </trkpt>
      <trkpt lat="42.5018977281" lon="19.8245013691">
        <ele>1134.97</ele>
        <time>2019-07-05T06:47:24Z</time>
      </trkpt>
      <trkpt lat="42.5019458402" lon="19.8244645726">
        <ele>1135.45</ele>
        <time>2019-07-05T06:47:29Z</time>
      </trkpt>
      <trkpt lat="42.5020006578" lon="19.8244033009">
        <ele>1135.94</ele>
        <time>2019-07-05T06:47:34Z</time>
      </trkpt>
      <trkpt lat="42.5020052679" lon="19.8243404366">
        <ele>1136.42</ele>
        <time>2019-07-05T06:47:39Z</time>
      </trkpt>
      <trkpt lat="42.5019521266" lon="19.8242602218">
        <ele>1136.90</ele>
        <time>2019-07-05T06:47:46Z</time>
      </trkpt>
      <trkpt lat="42.5018663798" lon="19.8241920769">
        <ele>1136.90</ele>
        <time>2019-07-05T06:48:00Z</time>
      </trkpt>
      <trkpt lat="42.5018658768" lon="19.8241890594">
        <ele>1135.45</ele>
        <time>2019-07-05T06:48:04Z</time>
      </trkpt>
      <trkpt lat="42.5018564891" lon="19.8241936695">
        <ele>1135.45</ele>
        <time>2019-07-05T06:48:23Z</time>
      </trkpt>
      <trkpt lat="42.5018517114" lon="19.8241810128">
        <ele>1135.45</ele>
        <time>2019-07-05T06:48:51Z</time>
      </trkpt>
      <trkpt lat="42.5018455926" lon="19.8241764866">
        <ele>1135.45</ele>
        <time>2019-07-05T06:49:22Z</time>
      </trkpt>
      <trkpt lat="42.5018809643" lon="19.8241878022">
        <ele>1135.45</ele>
        <time>2019-07-05T06:49:38Z</time>
      </trkpt>
      <trkpt lat="42.5018471852" lon="19.8242014647">
        <ele>1135.45</ele>
        <time>2019-07-05T06:50:02Z</time>
      </trkpt>
      <trkpt lat="42.5018274877" lon="19.8242098466">
        <ele>1135.45</ele>
        <time>2019-07-05T06:50:22Z</time>
      </trkpt>
      <trkpt lat="42.5018235482" lon="19.8242019676">
        <ele>1135.45</ele>
        <time>2019-07-05T06:50:44Z</time>
      </trkpt>
      <trkpt lat="42.5018460117" lon="19.8241738882">
        <ele>1135.45</ele>
        <time>2019-07-05T06:51:01Z</time>
      </trkpt>
      <trkpt lat="42.5018295832" lon="19.8241974413">
        <ele>1135.45</ele>
        <time>2019-07-05T06:51:15Z</time>
      </trkpt>
      <trkpt lat="42.5018471852" lon="19.8241772410">
        <ele>1136.90</ele>
        <time>2019-07-05T06:51:34Z</time>
      </trkpt>
      <trkpt lat="42.5017684791" lon="19.8240913264">
        <ele>1135.45</ele>
        <time>2019-07-05T06:51:44Z</time>
      </trkpt>
      <trkpt lat="42.5016171020" lon="19.8239596467">
        <ele>1134.01</ele>
        <time>2019-07-05T06:51:59Z</time>
      </trkpt>
      <trkpt lat="42.5014846679" lon="19.8237916734">
        <ele>1132.57</ele>
        <time>2019-07-05T06:52:13Z</time>
      </trkpt>
      <trkpt lat="42.5013361406" lon="19.8235770967">
        <ele>1130.65</ele>
        <time>2019-07-05T06:52:29Z</time>
      </trkpt>
      <trkpt lat="42.5011944864" lon="19.8233657889">
        <ele>1128.73</ele>
        <time>2019-07-05T06:52:46Z</time>
      </trkpt>
      <trkpt lat="42.5010604598" lon="19.8231472727">
        <ele>1128.73</ele>
        <time>2019-07-05T06:53:03Z</time>
      </trkpt>
      <trkpt lat="42.5009135250" lon="19.8229156807">
        <ele>1130.17</ele>
        <time>2019-07-05T06:53:21Z</time>
      </trkpt>
      <trkpt lat="42.5008076616" lon="19.8227054626">
        <ele>1130.65</ele>
        <time>2019-07-05T06:53:35Z</time>
      </trkpt>
      <trkpt lat="42.5007212441" lon="19.8224288598">
        <ele>1130.65</ele>
        <time>2019-07-05T06:53:51Z</time>
      </trkpt>
      <trkpt lat="42.5006532669" lon="19.8221668415">
        <ele>1130.65</ele>
        <time>2019-07-05T06:54:07Z</time>
      </trkpt>
      <trkpt lat="42.5005313102" lon="19.8219137080">
        <ele>1131.13</ele>
        <time>2019-07-05T06:54:24Z</time>
      </trkpt>
      <trkpt lat="42.5005225092" lon="19.8219003808">
        <ele>1131.13</ele>
        <time>2019-07-05T06:54:25Z</time>
      </trkpt>
      <trkpt lat="42.5004532747" lon="19.8218213394">
        <ele>1131.13</ele>
        <time>2019-07-05T06:54:32Z</time>
      </trkpt>
      <trkpt lat="42.5004140474" lon="19.8217688687">
        <ele>1131.13</ele>
        <time>2019-07-05T06:54:36Z</time>
      </trkpt>
      <trkpt lat="42.5003417954" lon="19.8217046633">
        <ele>1131.61</ele>
        <time>2019-07-05T06:54:43Z</time>
      </trkpt>
      <trkpt lat="42.5001565553" lon="19.8215450719">
        <ele>1132.57</ele>
        <time>2019-07-05T06:55:01Z</time>
      </trkpt>
      <trkpt lat="42.5000058487" lon="19.8214600794">
        <ele>1132.09</ele>
        <time>2019-07-05T06:55:14Z</time>
      </trkpt>
      <trkpt lat="42.4998641107" lon="19.8213607538">
        <ele>1133.53</ele>
        <time>2019-07-05T06:55:27Z</time>
      </trkpt>
      <trkpt lat="42.4998242967" lon="19.8213394638">
        <ele>1134.01</ele>
        <time>2019-07-05T06:55:31Z</time>
      </trkpt>
      <trkpt lat="42.4997509550" lon="19.8212651163">
        <ele>1134.49</ele>
        <time>2019-07-05T06:55:38Z</time>
      </trkpt>
      <trkpt lat="42.4995920341" lon="19.8211092129">
        <ele>1134.97</ele>
        <time>2019-07-05T06:55:54Z</time>
      </trkpt>
      <trkpt lat="42.4995520525" lon="19.8210767750">
        <ele>1135.45</ele>
        <time>2019-07-05T06:55:58Z</time>
      </trkpt>
      <trkpt lat="42.4994340353" lon="19.8209599312">
        <ele>1136.42</ele>
        <time>2019-07-05T06:56:11Z</time>
      </trkpt>
      <trkpt lat="42.4992790539" lon="19.8208142538">
        <ele>1136.42</ele>
        <time>2019-07-05T06:56:26Z</time>
      </trkpt>
      <trkpt lat="42.4991301075" lon="19.8206549138">
        <ele>1137.38</ele>
        <time>2019-07-05T06:56:41Z</time>
      </trkpt>
      <trkpt lat="42.4990971666" lon="19.8206218053">
        <ele>1137.38</ele>
        <time>2019-07-05T06:56:44Z</time>
      </trkpt>
      <trkpt lat="42.4989042990" lon="19.8204447795">
        <ele>1137.38</ele>
        <time>2019-07-05T06:57:02Z</time>
      </trkpt>
      <trkpt lat="42.4988240842" lon="19.8203220684">
        <ele>1137.38</ele>
        <time>2019-07-05T06:57:11Z</time>
      </trkpt>
      <trkpt lat="42.4987736251" lon="19.8202614672">
        <ele>1137.38</ele>
        <time>2019-07-05T06:57:16Z</time>
      </trkpt>
      <trkpt lat="42.4987058993" lon="19.8201751336">
        <ele>1137.38</ele>
        <time>2019-07-05T06:57:23Z</time>
      </trkpt>
      <trkpt lat="42.4985719565" lon="19.8200105969">
        <ele>1137.38</ele>
        <time>2019-07-05T06:57:38Z</time>
      </trkpt>
      <trkpt lat="42.4984869640" lon="19.8198922444">
        <ele>1137.38</ele>
        <time>2019-07-05T06:57:47Z</time>
      </trkpt>
      <trkpt lat="42.4983686954" lon="19.8196968623">
        <ele>1138.34</ele>
        <time>2019-07-05T06:58:02Z</time>
      </trkpt>
      <trkpt lat="42.4983409513" lon="19.8196605686">
        <ele>1138.34</ele>
        <time>2019-07-05T06:58:04Z</time>
      </trkpt>
      <trkpt lat="42.4982246105" lon="19.8194786813">
        <ele>1138.34</ele>
        <time>2019-07-05T06:58:18Z</time>
      </trkpt>
      <trkpt lat="42.4981790967" lon="19.8194065131">
        <ele>1138.34</ele>
        <time>2019-07-05T06:58:24Z</time>
      </trkpt>
      <trkpt lat="42.4981371872" lon="19.8193466663">
        <ele>1138.82</ele>
        <time>2019-07-05T06:58:30Z</time>
      </trkpt>
      <trkpt lat="42.4980823696" lon="19.8192449100">
        <ele>1139.30</ele>
        <time>2019-07-05T06:58:38Z</time>
      </trkpt>
      <trkpt lat="42.4980322458" lon="19.8190372065">
        <ele>1139.78</ele>
        <time>2019-07-05T06:58:52Z</time>
      </trkpt>
      <trkpt lat="42.4979687110" lon="19.8188413214">
        <ele>1140.26</ele>
        <time>2019-07-05T06:59:06Z</time>
      </trkpt>
      <trkpt lat="42.4979295675" lon="19.8187781218">
        <ele>1140.26</ele>
        <time>2019-07-05T06:59:12Z</time>
      </trkpt>
      <trkpt lat="42.4978126399" lon="19.8186342884">
        <ele>1140.74</ele>
        <time>2019-07-05T06:59:26Z</time>
      </trkpt>
      <trkpt lat="42.4977154937" lon="19.8184939753">
        <ele>1141.22</ele>
        <time>2019-07-05T06:59:38Z</time>
      </trkpt>
      <trkpt lat="42.4976424873" lon="19.8183985054">
        <ele>1141.70</ele>
        <time>2019-07-05T06:59:47Z</time>
      </trkpt>
      <trkpt lat="42.4976074509" lon="19.8183737788">
        <ele>1142.18</ele>
        <time>2019-07-05T06:59:50Z</time>
      </trkpt>
      <trkpt lat="42.4975518789" lon="19.8183119204">
        <ele>1142.66</ele>
        <time>2019-07-05T06:59:57Z</time>
      </trkpt>
      <trkpt lat="42.4975176807" lon="19.8182171211">
        <ele>1142.66</ele>
        <time>2019-07-05T07:00:04Z</time>
      </trkpt>
      <trkpt lat="42.4974497873" lon="19.8179626465">
        <ele>1143.14</ele>
        <time>2019-07-05T07:00:18Z</time>
      </trkpt>
      <trkpt lat="42.4974424113" lon="19.8178884666">
        <ele>1143.63</ele>
        <time>2019-07-05T07:00:22Z</time>
      </trkpt>
      <trkpt lat="42.4974261504" lon="19.8176392727">
        <ele>1144.59</ele>
        <time>2019-07-05T07:00:37Z</time>
      </trkpt>
      <trkpt lat="42.4974026810" lon="19.8174022324">
        <ele>1145.55</ele>
        <time>2019-07-05T07:00:51Z</time>
      </trkpt>
      <trkpt lat="42.4974107277" lon="19.8172527831">
        <ele>1145.55</ele>
        <time>2019-07-05T07:01:00Z</time>
      </trkpt>
      <trkpt lat="42.4974081293" lon="19.8170858994">
        <ele>1146.03</ele>
        <time>2019-07-05T07:01:10Z</time>
      </trkpt>
      <trkpt lat="42.4974041898" lon="19.8170556407">
        <ele>1146.51</ele>
        <time>2019-07-05T07:01:12Z</time>
      </trkpt>
      <trkpt lat="42.4974022619" lon="19.8169863224">
        <ele>1146.51</ele>
        <time>2019-07-05T07:01:16Z</time>
      </trkpt>
      <trkpt lat="42.4973873422" lon="19.8168090452">
        <ele>1146.51</ele>
        <time>2019-07-05T07:01:27Z</time>
      </trkpt>
      <trkpt lat="42.4972523097" lon="19.8166594282">
        <ele>1147.47</ele>
        <time>2019-07-05T07:01:42Z</time>
      </trkpt>
      <trkpt lat="42.4970896170" lon="19.8165517207">
        <ele>1148.43</ele>
        <time>2019-07-05T07:01:57Z</time>
      </trkpt>
      <trkpt lat="42.4969753716" lon="19.8164686561">
        <ele>1149.39</ele>
        <time>2019-07-05T07:02:08Z</time>
      </trkpt>
      <trkpt lat="42.4968737829" lon="19.8163143452">
        <ele>1149.87</ele>
        <time>2019-07-05T07:02:22Z</time>
      </trkpt>
      <trkpt lat="42.4968478829" lon="19.8162665684">
        <ele>1150.35</ele>
        <time>2019-07-05T07:02:26Z</time>
      </trkpt>
      <trkpt lat="42.4967545085" lon="19.8160608765">
        <ele>1150.84</ele>
        <time>2019-07-05T07:02:40Z</time>
      </trkpt>
      <trkpt lat="42.4967105873" lon="19.8159705196">
        <ele>1151.32</ele>
        <time>2019-07-05T07:02:46Z</time>
      </trkpt>
      <trkpt lat="42.4966688454" lon="19.8159219883">
        <ele>1151.80</ele>
        <time>2019-07-05T07:02:51Z</time>
      </trkpt>
      <trkpt lat="42.4966532551" lon="19.8159032129">
        <ele>1151.80</ele>
        <time>2019-07-05T07:02:53Z</time>
      </trkpt>
      <trkpt lat="42.4966341443" lon="19.8158396780">
        <ele>1152.28</ele>
        <time>2019-07-05T07:02:58Z</time>
      </trkpt>
      <trkpt lat="42.4966268521" lon="19.8157986067">
        <ele>1152.28</ele>
        <time>2019-07-05T07:03:01Z</time>
      </trkpt>
      <trkpt lat="42.4966137763" lon="19.8156898934">
        <ele>1152.76</ele>
        <time>2019-07-05T07:03:08Z</time>
      </trkpt>
      <trkpt lat="42.4966029637" lon="19.8156402726">
        <ele>1152.76</ele>
        <time>2019-07-05T07:03:11Z</time>
      </trkpt>
      <trkpt lat="42.4965861160" lon="19.8153653461">
        <ele>1153.24</ele>
        <time>2019-07-05T07:03:26Z</time>
      </trkpt>
      <trkpt lat="42.4965700228" lon="19.8152407911">
        <ele>1153.72</ele>
        <time>2019-07-05T07:03:34Z</time>
      </trkpt>
      <trkpt lat="42.4964958429" lon="19.8150563892">
        <ele>1153.72</ele>
        <time>2019-07-05T07:03:48Z</time>
      </trkpt>
      <trkpt lat="42.4963779096" lon="19.8149213567">
        <ele>1155.16</ele>
        <time>2019-07-05T07:04:01Z</time>
      </trkpt>
      <trkpt lat="42.4963614810" lon="19.8148957919">
        <ele>1155.16</ele>
        <time>2019-07-05T07:04:03Z</time>
      </trkpt>
      <trkpt lat="42.4963179789" lon="19.8148539662">
        <ele>1155.16</ele>
        <time>2019-07-05T07:04:07Z</time>
      </trkpt>
      <trkpt lat="42.4961925857" lon="19.8147384636">
        <ele>1155.64</ele>
        <time>2019-07-05T07:04:20Z</time>
      </trkpt>
      <trkpt lat="42.4961793423" lon="19.8147305008">
        <ele>1155.64</ele>
        <time>2019-07-05T07:04:21Z</time>
      </trkpt>
      <trkpt lat="42.4960384425" lon="19.8146625236">
        <ele>1156.60</ele>
        <time>2019-07-05T07:04:34Z</time>
      </trkpt>
      <trkpt lat="42.4960166495" lon="19.8146546446">
        <ele>1156.60</ele>
        <time>2019-07-05T07:04:36Z</time>
      </trkpt>
      <trkpt lat="42.4958463293" lon="19.8145951331">
        <ele>1158.05</ele>
        <time>2019-07-05T07:04:52Z</time>
      </trkpt>
      <trkpt lat="42.4958129693" lon="19.8145851586">
        <ele>1158.05</ele>
        <time>2019-07-05T07:04:55Z</time>
      </trkpt>
      <trkpt lat="42.4957343470" lon="19.8145264015">
        <ele>1158.53</ele>
        <time>2019-07-05T07:05:04Z</time>
      </trkpt>
      <trkpt lat="42.4957100395" lon="19.8145061173">
        <ele>1158.53</ele>
        <time>2019-07-05T07:05:07Z</time>
      </trkpt>
      <trkpt lat="42.4956620950" lon="19.8144348711">
        <ele>1159.01</ele>
        <time>2019-07-05T07:05:13Z</time>
      </trkpt>
      <trkpt lat="42.4955616798" lon="19.8142739385">
        <ele>1159.49</ele>
        <time>2019-07-05T07:05:27Z</time>
      </trkpt>
      <trkpt lat="42.4955035094" lon="19.8140710127">
        <ele>1159.97</ele>
        <time>2019-07-05T07:05:39Z</time>
      </trkpt>
      <trkpt lat="42.4954505358" lon="19.8139148578">
        <ele>1161.41</ele>
        <time>2019-07-05T07:05:52Z</time>
      </trkpt>
      <trkpt lat="42.4954078719" lon="19.8137997743">
        <ele>1162.37</ele>
        <time>2019-07-05T07:06:00Z</time>
      </trkpt>
      <trkpt lat="42.4953600951" lon="19.8136447929">
        <ele>1163.81</ele>
        <time>2019-07-05T07:06:12Z</time>
      </trkpt>
      <trkpt lat="42.4952630326" lon="19.8134335689">
        <ele>1163.33</ele>
        <time>2019-07-05T07:06:26Z</time>
      </trkpt>
      <trkpt lat="42.4952434190" lon="19.8134059925">
        <ele>1163.81</ele>
        <time>2019-07-05T07:06:28Z</time>
      </trkpt>
      <trkpt lat="42.4952337798" lon="19.8134002928">
        <ele>1163.81</ele>
        <time>2019-07-05T07:06:29Z</time>
      </trkpt>
      <trkpt lat="42.4951570854" lon="19.8133340757">
        <ele>1164.29</ele>
        <time>2019-07-05T07:06:37Z</time>
      </trkpt>
      <trkpt lat="42.4951530620" lon="19.8133177310">
        <ele>1164.29</ele>
        <time>2019-07-05T07:06:38Z</time>
      </trkpt>
      <trkpt lat="42.4949859269" lon="19.8132526875">
        <ele>1165.26</ele>
        <time>2019-07-05T07:06:51Z</time>
      </trkpt>
      <trkpt lat="42.4948632997" lon="19.8132062517">
        <ele>1167.18</ele>
        <time>2019-07-05T07:07:03Z</time>
      </trkpt>
      <trkpt lat="42.4948394950" lon="19.8131962772">
        <ele>1167.18</ele>
        <time>2019-07-05T07:07:05Z</time>
      </trkpt>
      <trkpt lat="42.4946587812" lon="19.8130988795">
        <ele>1168.14</ele>
        <time>2019-07-05T07:07:20Z</time>
      </trkpt>
      <trkpt lat="42.4945688434" lon="19.8130475823">
        <ele>1169.10</ele>
        <time>2019-07-05T07:07:29Z</time>
      </trkpt>
      <trkpt lat="42.4944316316" lon="19.8129521962">
        <ele>1169.10</ele>
        <time>2019-07-05T07:07:41Z</time>
      </trkpt>
      <trkpt lat="42.4942955095" lon="19.8128438182">
        <ele>1170.06</ele>
        <time>2019-07-05T07:07:54Z</time>
      </trkpt>
      <trkpt lat="42.4942048173" lon="19.8127728235">
        <ele>1170.54</ele>
        <time>2019-07-05T07:08:02Z</time>
      </trkpt>
      <trkpt lat="42.4940899853" lon="19.8126471788">
        <ele>1171.98</ele>
        <time>2019-07-05T07:08:16Z</time>
      </trkpt>
      <trkpt lat="42.4939535279" lon="19.8125289939">
        <ele>1172.47</ele>
        <time>2019-07-05T07:08:30Z</time>
      </trkpt>
      <trkpt lat="42.4939132109" lon="19.8125110567">
        <ele>1172.95</ele>
        <time>2019-07-05T07:08:34Z</time>
      </trkpt>
      <trkpt lat="42.4938153103" lon="19.8123447597">
        <ele>1174.39</ele>
        <time>2019-07-05T07:08:48Z</time>
      </trkpt>
      <trkpt lat="42.4938126281" lon="19.8123391438">
        <ele>1174.39</ele>
        <time>2019-07-05T07:08:49Z</time>
      </trkpt>
      <trkpt lat="42.4937811121" lon="19.8122958094">
        <ele>1174.39</ele>
        <time>2019-07-05T07:08:53Z</time>
      </trkpt>
      <trkpt lat="42.4937316589" lon="19.8122597672">
        <ele>1174.87</ele>
        <time>2019-07-05T07:08:58Z</time>
      </trkpt>
      <trkpt lat="42.4937164877" lon="19.8122300114">
        <ele>1174.87</ele>
        <time>2019-07-05T07:09:00Z</time>
      </trkpt>
      <trkpt lat="42.4936018232" lon="19.8120860104">
        <ele>1175.83</ele>
        <time>2019-07-05T07:09:14Z</time>
      </trkpt>
      <trkpt lat="42.4935985543" lon="19.8120813165">
        <ele>1176.31</ele>
        <time>2019-07-05T07:09:15Z</time>
      </trkpt>
      <trkpt lat="42.4934715685" lon="19.8119788896">
        <ele>1176.79</ele>
        <time>2019-07-05T07:09:28Z</time>
      </trkpt>
      <trkpt lat="42.4933620170" lon="19.8119156063">
        <ele>1177.27</ele>
        <time>2019-07-05T07:09:39Z</time>
      </trkpt>
      <trkpt lat="42.4932139087" lon="19.8118203878">
        <ele>1179.19</ele>
        <time>2019-07-05T07:09:53Z</time>
      </trkpt>
      <trkpt lat="42.4931015912" lon="19.8117539193">
        <ele>1179.67</ele>
        <time>2019-07-05T07:10:05Z</time>
      </trkpt>
      <trkpt lat="42.4929795507" lon="19.8116820026">
        <ele>1181.12</ele>
        <time>2019-07-05T07:10:18Z</time>
      </trkpt>
      <trkpt lat="42.4927612022" lon="19.8116325494">
        <ele>1182.56</ele>
        <time>2019-07-05T07:10:32Z</time>
      </trkpt>
      <trkpt lat="42.4927018583" lon="19.8115650751">
        <ele>1182.56</ele>
        <time>2019-07-05T07:10:40Z</time>
      </trkpt>
      <trkpt lat="42.4926349707" lon="19.8114677612">
        <ele>1182.56</ele>
        <time>2019-07-05T07:10:49Z</time>
      </trkpt>
      <trkpt lat="42.4926179554" lon="19.8113139533">
        <ele>1183.04</ele>
        <time>2019-07-05T07:10:59Z</time>
      </trkpt>
      <trkpt lat="42.4925744534" lon="19.8111127038">
        <ele>1184.00</ele>
        <time>2019-07-05T07:11:13Z</time>
      </trkpt>
      <trkpt lat="42.4925423507" lon="19.8109065089">
        <ele>1184.00</ele>
        <time>2019-07-05T07:11:27Z</time>
      </trkpt>
      <trkpt lat="42.4925386626" lon="19.8107321654">
        <ele>1185.92</ele>
        <time>2019-07-05T07:11:42Z</time>
      </trkpt>
      <trkpt lat="42.4925396685" lon="19.8106320016">
        <ele>1187.37</ele>
        <time>2019-07-05T07:11:50Z</time>
      </trkpt>
      <trkpt lat="42.4925546721" lon="19.8105904274">
        <ele>1187.37</ele>
        <time>2019-07-05T07:11:53Z</time>
      </trkpt>
      <trkpt lat="42.4925356451" lon="19.8104011640">
        <ele>1187.85</ele>
        <time>2019-07-05T07:12:06Z</time>
      </trkpt>
      <trkpt lat="42.4925368186" lon="19.8102586716">
        <ele>1187.85</ele>
        <time>2019-07-05T07:12:15Z</time>
      </trkpt>
      <trkpt lat="42.4925150257" lon="19.8101041932">
        <ele>1188.33</ele>
        <time>2019-07-05T07:12:25Z</time>
      </trkpt>
      <trkpt lat="42.4925243296" lon="19.8099547438">
        <ele>1188.33</ele>
        <time>2019-07-05T07:12:34Z</time>
      </trkpt>
      <trkpt lat="42.4924032111" lon="19.8097713478">
        <ele>1188.81</ele>
        <time>2019-07-05T07:12:50Z</time>
      </trkpt>
      <trkpt lat="42.4923676718" lon="19.8097437713">
        <ele>1189.29</ele>
        <time>2019-07-05T07:12:54Z</time>
      </trkpt>
      <trkpt lat="42.4923489802" lon="19.8097363114">
        <ele>1189.29</ele>
        <time>2019-07-05T07:12:56Z</time>
      </trkpt>
      <trkpt lat="42.4923271872" lon="19.8097244091">
        <ele>1189.77</ele>
        <time>2019-07-05T07:12:58Z</time>
      </trkpt>
      <trkpt lat="42.4923087470" lon="19.8096970841">
        <ele>1189.77</ele>
        <time>2019-07-05T07:13:01Z</time>
      </trkpt>
      <trkpt lat="42.4922794104" lon="19.8096349742">
        <ele>1190.25</ele>
        <time>2019-07-05T07:13:06Z</time>
      </trkpt>
      <trkpt lat="42.4921872932" lon="19.8095832579">
        <ele>1190.73</ele>
        <time>2019-07-05T07:13:16Z</time>
      </trkpt>
      <trkpt lat="42.4921769835" lon="19.8095704336">
        <ele>1190.73</ele>
        <time>2019-07-05T07:13:17Z</time>
      </trkpt>
      <trkpt lat="42.4921239261" lon="19.8094260134">
        <ele>1190.73</ele>
        <time>2019-07-05T07:13:26Z</time>
      </trkpt>
      <trkpt lat="42.4920813460" lon="19.8092952557">
        <ele>1191.21</ele>
        <time>2019-07-05T07:13:35Z</time>
      </trkpt>
      <trkpt lat="42.4920266122" lon="19.8091190681">
        <ele>1191.69</ele>
        <time>2019-07-05T07:13:47Z</time>
      </trkpt>
      <trkpt lat="42.4920153804" lon="19.8090847023">
        <ele>1191.69</ele>
        <time>2019-07-05T07:13:49Z</time>
      </trkpt>
      <trkpt lat="42.4919935875" lon="19.8090568744">
        <ele>1192.17</ele>
        <time>2019-07-05T07:13:52Z</time>
      </trkpt>
      <trkpt lat="42.4919130374" lon="19.8088791780">
        <ele>1193.13</ele>
        <time>2019-07-05T07:14:05Z</time>
      </trkpt>
      <trkpt lat="42.4918947648" lon="19.8088448960">
        <ele>1193.61</ele>
        <time>2019-07-05T07:14:08Z</time>
      </trkpt>
      <trkpt lat="42.4917965289" lon="19.8086806107">
        <ele>1194.09</ele>
        <time>2019-07-05T07:14:21Z</time>
      </trkpt>
      <trkpt lat="42.4917566311" lon="19.8086148966">
        <ele>1194.58</ele>
        <time>2019-07-05T07:14:27Z</time>
      </trkpt>
      <trkpt lat="42.4915942736" lon="19.8084822111">
        <ele>1195.54</ele>
        <time>2019-07-05T07:14:43Z</time>
      </trkpt>
      <trkpt lat="42.4915086105" lon="19.8083206080">
        <ele>1196.02</ele>
        <time>2019-07-05T07:14:55Z</time>
      </trkpt>
      <trkpt lat="42.4914518651" lon="19.8082578275">
        <ele>1196.50</ele>
        <time>2019-07-05T07:15:01Z</time>
      </trkpt>
      <trkpt lat="42.4913430680" lon="19.8082244676">
        <ele>1196.98</ele>
        <time>2019-07-05T07:15:11Z</time>
      </trkpt>
      <trkpt lat="42.4913014937" lon="19.8082299996">
        <ele>1196.98</ele>
        <time>2019-07-05T07:15:29Z</time>
      </trkpt>
      <trkpt lat="42.4913239572" lon="19.8081994895">
        <ele>1196.98</ele>
        <time>2019-07-05T07:15:50Z</time>
      </trkpt>
      <trkpt lat="42.4913460016" lon="19.8082129844">
        <ele>1196.98</ele>
        <time>2019-07-05T07:16:11Z</time>
      </trkpt>
      <trkpt lat="42.4913228676" lon="19.8082055245">
        <ele>1197.46</ele>
        <time>2019-07-05T07:16:31Z</time>
      </trkpt>
      <trkpt lat="42.4912926927" lon="19.8082351964">
        <ele>1197.46</ele>
        <time>2019-07-05T07:16:48Z</time>
      </trkpt>
      <trkpt lat="42.4912893400" lon="19.8082662933">
        <ele>1197.46</ele>
        <time>2019-07-05T07:17:20Z</time>
      </trkpt>
      <trkpt lat="42.4912755936" lon="19.8081851564">
        <ele>1197.46</ele>
        <time>2019-07-05T07:17:51Z</time>
      </trkpt>
      <trkpt lat="42.4913078640" lon="19.8081626091">
        <ele>1197.94</ele>
        <time>2019-07-05T07:18:08Z</time>
      </trkpt>
      <trkpt lat="42.4912952073" lon="19.8081758525">
        <ele>1197.94</ele>
        <time>2019-07-05T07:18:27Z</time>
      </trkpt>
      <trkpt lat="42.4912672117" lon="19.8082165048">
        <ele>1198.42</ele>
        <time>2019-07-05T07:18:56Z</time>
      </trkpt>
      <trkpt lat="42.4912893400" lon="19.8082371242">
        <ele>1198.42</ele>
        <time>2019-07-05T07:19:24Z</time>
      </trkpt>
      <trkpt lat="42.4912917707" lon="19.8081969749">
        <ele>1198.42</ele>
        <time>2019-07-05T07:19:54Z</time>
      </trkpt>
      <trkpt lat="42.4912252184" lon="19.8082599230">
        <ele>1198.90</ele>
        <time>2019-07-05T07:20:05Z</time>
      </trkpt>
      <trkpt lat="42.4911222886" lon="19.8083302472">
        <ele>1199.86</ele>
        <time>2019-07-05T07:20:18Z</time>
      </trkpt>
      <trkpt lat="42.4910349492" lon="19.8083700612">
        <ele>1200.82</ele>
        <time>2019-07-05T07:20:28Z</time>
      </trkpt>
      <trkpt lat="42.4909268226" lon="19.8083686363">
        <ele>1201.79</ele>
        <time>2019-07-05T07:20:38Z</time>
      </trkpt>
      <trkpt lat="42.4908197019" lon="19.8082987312">
        <ele>1203.71</ele>
        <time>2019-07-05T07:20:52Z</time>
      </trkpt>
      <trkpt lat="42.4907806423" lon="19.8082665447">
        <ele>1204.67</ele>
        <time>2019-07-05T07:20:57Z</time>
      </trkpt>
      <trkpt lat="42.4907316919" lon="19.8082175944">
        <ele>1205.63</ele>
        <time>2019-07-05T07:21:03Z</time>
      </trkpt>
      <trkpt lat="42.4906904530" lon="19.8081253096">
        <ele>1206.59</ele>
        <time>2019-07-05T07:21:11Z</time>
      </trkpt>
      <trkpt lat="42.4906702526" lon="19.8080805503">
        <ele>1207.07</ele>
        <time>2019-07-05T07:21:15Z</time>
      </trkpt>
      <trkpt lat="42.4905829970" lon="19.8079674784">
        <ele>1208.03</ele>
        <time>2019-07-05T07:21:27Z</time>
      </trkpt>
      <trkpt lat="42.4905772135" lon="19.8079551570">
        <ele>1208.51</ele>
        <time>2019-07-05T07:21:28Z</time>
      </trkpt>
      <trkpt lat="42.4905532412" lon="19.8079082184">
        <ele>1208.51</ele>
        <time>2019-07-05T07:21:32Z</time>
      </trkpt>
      <trkpt lat="42.4904814921" lon="19.8077530693">
        <ele>1210.44</ele>
        <time>2019-07-05T07:21:46Z</time>
      </trkpt>
      <trkpt lat="42.4904229026" lon="19.8076438531">
        <ele>1212.84</ele>
        <time>2019-07-05T07:21:58Z</time>
      </trkpt>
      <trkpt lat="42.4903722759" lon="19.8075293563">
        <ele>1214.28</ele>
        <time>2019-07-05T07:22:09Z</time>
      </trkpt>
      <trkpt lat="42.4903510697" lon="19.8074907996">
        <ele>1214.76</ele>
        <time>2019-07-05T07:22:12Z</time>
      </trkpt>
      <trkpt lat="42.4902493972" lon="19.8073288612">
        <ele>1215.24</ele>
        <time>2019-07-05T07:22:25Z</time>
      </trkpt>
      <trkpt lat="42.4901659973" lon="19.8071829323">
        <ele>1216.21</ele>
        <time>2019-07-05T07:22:38Z</time>
      </trkpt>
      <trkpt lat="42.4901629798" lon="19.8071708623">
        <ele>1217.17</ele>
        <time>2019-07-05T07:22:39Z</time>
      </trkpt>
      <trkpt lat="42.4901597109" lon="19.8071577027">
        <ele>1217.17</ele>
        <time>2019-07-05T07:22:40Z</time>
      </trkpt>
      <trkpt lat="42.4901270214" lon="19.8070921563">
        <ele>1217.65</ele>
        <time>2019-07-05T07:22:45Z</time>
      </trkpt>
      <trkpt lat="42.4899711180" lon="19.8070985265">
        <ele>1218.13</ele>
        <time>2019-07-05T07:22:58Z</time>
      </trkpt>
      <trkpt lat="42.4899479002" lon="19.8071884643">
        <ele>1218.61</ele>
        <time>2019-07-05T07:23:07Z</time>
      </trkpt>
      <trkpt lat="42.4899561983" lon="19.8072943278">
        <ele>1219.57</ele>
        <time>2019-07-05T07:23:15Z</time>
      </trkpt>
      <trkpt lat="42.4899312202" lon="19.8074369878">
        <ele>1221.01</ele>
        <time>2019-07-05T07:23:27Z</time>
      </trkpt>
      <trkpt lat="42.4899479840" lon="19.8075648118">
        <ele>1222.93</ele>
        <time>2019-07-05T07:23:38Z</time>
      </trkpt>
      <trkpt lat="42.4899458047" lon="19.8077029455">
        <ele>1225.34</ele>
        <time>2019-07-05T07:23:49Z</time>
      </trkpt>
      <trkpt lat="42.4899501633" lon="19.8077322822">
        <ele>1225.34</ele>
        <time>2019-07-05T07:23:51Z</time>
      </trkpt>
      <trkpt lat="42.4899815116" lon="19.8078770377">
        <ele>1227.26</ele>
        <time>2019-07-05T07:24:04Z</time>
      </trkpt>
      <trkpt lat="42.4899933301" lon="19.8079984076">
        <ele>1229.18</ele>
        <time>2019-07-05T07:24:14Z</time>
      </trkpt>
      <trkpt lat="42.4899954256" lon="19.8080300912">
        <ele>1229.18</ele>
        <time>2019-07-05T07:24:17Z</time>
      </trkpt>
      <trkpt lat="42.4899945036" lon="19.8081876710">
        <ele>1231.59</ele>
        <time>2019-07-05T07:24:30Z</time>
      </trkpt>
      <trkpt lat="42.4899869598" lon="19.8083786108">
        <ele>1233.51</ele>
        <time>2019-07-05T07:24:45Z</time>
      </trkpt>
      <trkpt lat="42.4899886362" lon="19.8084059358">
        <ele>1233.99</ele>
        <time>2019-07-05T07:24:47Z</time>
      </trkpt>
      <trkpt lat="42.4900187273" lon="19.8085606657">
        <ele>1235.43</ele>
        <time>2019-07-05T07:24:59Z</time>
      </trkpt>
      <trkpt lat="42.4900693540" lon="19.8087003082">
        <ele>1236.87</ele>
        <time>2019-07-05T07:25:10Z</time>
      </trkpt>
      <trkpt lat="42.4901284464" lon="19.8088570498">
        <ele>1238.32</ele>
        <time>2019-07-05T07:25:25Z</time>
      </trkpt>
      <trkpt lat="42.4902162887" lon="19.8089738097">
        <ele>1240.24</ele>
        <time>2019-07-05T07:25:39Z</time>
      </trkpt>
      <trkpt lat="42.4902700167" lon="19.8091185652">
        <ele>1242.16</ele>
        <time>2019-07-05T07:25:52Z</time>
      </trkpt>
      <trkpt lat="42.4903334677" lon="19.8092427850">
        <ele>1244.08</ele>
        <time>2019-07-05T07:26:05Z</time>
      </trkpt>
      <trkpt lat="42.4903521594" lon="19.8093424458">
        <ele>1245.04</ele>
        <time>2019-07-05T07:26:15Z</time>
      </trkpt>
      <trkpt lat="42.4903643969" lon="19.8094452918">
        <ele>1246.97</ele>
        <time>2019-07-05T07:26:25Z</time>
      </trkpt>
      <trkpt lat="42.4903958291" lon="19.8095410969">
        <ele>1248.41</ele>
        <time>2019-07-05T07:26:35Z</time>
      </trkpt>
      <trkpt lat="42.4904116709" lon="19.8096326273">
        <ele>1250.33</ele>
        <time>2019-07-05T07:26:46Z</time>
      </trkpt>
      <trkpt lat="42.4904529937" lon="19.8097348027">
        <ele>1252.74</ele>
        <time>2019-07-05T07:26:58Z</time>
      </trkpt>
      <trkpt lat="42.4904771335" lon="19.8098267522">
        <ele>1254.18</ele>
        <time>2019-07-05T07:27:09Z</time>
      </trkpt>
      <trkpt lat="42.4904914666" lon="19.8098555021">
        <ele>1255.14</ele>
        <time>2019-07-05T07:27:12Z</time>
      </trkpt>
      <trkpt lat="42.4905450270" lon="19.8099445179">
        <ele>1256.58</ele>
        <time>2019-07-05T07:27:23Z</time>
      </trkpt>
      <trkpt lat="42.4905866850" lon="19.8100807238">
        <ele>1258.50</ele>
        <time>2019-07-05T07:27:36Z</time>
      </trkpt>
      <trkpt lat="42.4906056281" lon="19.8101826478">
        <ele>1260.43</ele>
        <time>2019-07-05T07:27:47Z</time>
      </trkpt>
      <trkpt lat="42.4906280078" lon="19.8102880921">
        <ele>1261.87</ele>
        <time>2019-07-05T07:27:58Z</time>
      </trkpt>
      <trkpt lat="42.4906829093" lon="19.8103915248">
        <ele>1263.31</ele>
        <time>2019-07-05T07:28:09Z</time>
      </trkpt>
      <trkpt lat="42.4907486234" lon="19.8105054349">
        <ele>1265.23</ele>
        <time>2019-07-05T07:28:21Z</time>
      </trkpt>
      <trkpt lat="42.4908235576" lon="19.8106083646">
        <ele>1267.16</ele>
        <time>2019-07-05T07:28:32Z</time>
      </trkpt>
      <trkpt lat="42.4908676464" lon="19.8107138928">
        <ele>1268.12</ele>
        <time>2019-07-05T07:28:42Z</time>
      </trkpt>
      <trkpt lat="42.4909134954" lon="19.8108824529">
        <ele>1270.04</ele>
        <time>2019-07-05T07:28:56Z</time>
      </trkpt>
      <trkpt lat="42.4909341149" lon="19.8109520227">
        <ele>1270.52</ele>
        <time>2019-07-05T07:29:02Z</time>
      </trkpt>
      <trkpt lat="42.4909671396" lon="19.8110695370">
        <ele>1271.96</ele>
        <time>2019-07-05T07:29:14Z</time>
      </trkpt>
      <trkpt lat="42.4909732584" lon="19.8112163879">
        <ele>1273.88</ele>
        <time>2019-07-05T07:29:26Z</time>
      </trkpt>
      <trkpt lat="42.4909695704" lon="19.8113225028">
        <ele>1274.85</ele>
        <time>2019-07-05T07:29:34Z</time>
      </trkpt>
      <trkpt lat="42.4909436703" lon="19.8113654181">
        <ele>1275.33</ele>
        <time>2019-07-05T07:29:36Z</time>
      </trkpt>
      <trkpt lat="42.4909357913" lon="19.8114316352">
        <ele>1275.81</ele>
        <time>2019-07-05T07:29:42Z</time>
      </trkpt>
      <trkpt lat="42.4909242243" lon="19.8115806654">
        <ele>1277.25</ele>
        <time>2019-07-05T07:29:56Z</time>
      </trkpt>
      <trkpt lat="42.4909072090" lon="19.8116995208">
        <ele>1279.17</ele>
        <time>2019-07-05T07:30:07Z</time>
      </trkpt>
      <trkpt lat="42.4909100588" lon="19.8118071444">
        <ele>1280.13</ele>
        <time>2019-07-05T07:30:18Z</time>
      </trkpt>
      <trkpt lat="42.4909079634" lon="19.8118507303">
        <ele>1281.09</ele>
        <time>2019-07-05T07:30:21Z</time>
      </trkpt>
      <trkpt lat="42.4909320194" lon="19.8118790612">
        <ele>1281.09</ele>
        <time>2019-07-05T07:30:23Z</time>
      </trkpt>
      <trkpt lat="42.4909996614" lon="19.8120126687">
        <ele>1283.02</ele>
        <time>2019-07-05T07:30:34Z</time>
      </trkpt>
      <trkpt lat="42.4910108093" lon="19.8121337872">
        <ele>1284.46</ele>
        <time>2019-07-05T07:30:47Z</time>
      </trkpt>
      <trkpt lat="42.4910247233" lon="19.8122459371">
        <ele>1286.38</ele>
        <time>2019-07-05T07:30:56Z</time>
      </trkpt>
      <trkpt lat="42.4910150841" lon="19.8123332765">
        <ele>1287.34</ele>
        <time>2019-07-05T07:31:03Z</time>
      </trkpt>
      <trkpt lat="42.4910144974" lon="19.8123675585">
        <ele>1287.34</ele>
        <time>2019-07-05T07:31:06Z</time>
      </trkpt>
      <trkpt lat="42.4909973983" lon="19.8124246392">
        <ele>1288.30</ele>
        <time>2019-07-05T07:31:10Z</time>
      </trkpt>
      <trkpt lat="42.4910187721" lon="19.8125624377">
        <ele>1289.75</ele>
        <time>2019-07-05T07:31:23Z</time>
      </trkpt>
      <trkpt lat="42.4910197780" lon="19.8125887569">
        <ele>1290.23</ele>
        <time>2019-07-05T07:31:26Z</time>
      </trkpt>
      <trkpt lat="42.4910080433" lon="19.8126791976">
        <ele>1291.67</ele>
        <time>2019-07-05T07:31:34Z</time>
      </trkpt>
      <trkpt lat="42.4910232984" lon="19.8128128052">
        <ele>1294.07</ele>
        <time>2019-07-05T07:31:48Z</time>
      </trkpt>
      <trkpt lat="42.4910247233" lon="19.8128456622">
        <ele>1295.03</ele>
        <time>2019-07-05T07:31:52Z</time>
      </trkpt>
      <trkpt lat="42.4909995776" lon="19.8129652720">
        <ele>1297.44</ele>
        <time>2019-07-05T07:32:07Z</time>
      </trkpt>
      <trkpt lat="42.4909923691" lon="19.8129839636">
        <ele>1297.44</ele>
        <time>2019-07-05T07:32:08Z</time>
      </trkpt>
      <trkpt lat="42.4909701571" lon="19.8131129611">
        <ele>1298.88</ele>
        <time>2019-07-05T07:32:18Z</time>
      </trkpt>
      <trkpt lat="42.4909606017" lon="19.8132244404">
        <ele>1299.84</ele>
        <time>2019-07-05T07:32:28Z</time>
      </trkpt>
      <trkpt lat="42.4909193628" lon="19.8133561201">
        <ele>1301.76</ele>
        <time>2019-07-05T07:32:42Z</time>
      </trkpt>
      <trkpt lat="42.4909274932" lon="19.8135040607">
        <ele>1303.69</ele>
        <time>2019-07-05T07:32:53Z</time>
      </trkpt>
      <trkpt lat="42.4909859151" lon="19.8136482295">
        <ele>1305.13</ele>
        <time>2019-07-05T07:33:06Z</time>
      </trkpt>
      <trkpt lat="42.4910165928" lon="19.8137750477">
        <ele>1306.57</ele>
        <time>2019-07-05T07:33:18Z</time>
      </trkpt>
      <trkpt lat="42.4910238013" lon="19.8137855250">
        <ele>1307.05</ele>
        <time>2019-07-05T07:33:19Z</time>
      </trkpt>
      <trkpt lat="42.4910844024" lon="19.8139191326">
        <ele>1308.49</ele>
        <time>2019-07-05T07:33:33Z</time>
      </trkpt>
      <trkpt lat="42.4911279883" lon="19.8140039574">
        <ele>1309.93</ele>
        <time>2019-07-05T07:33:44Z</time>
      </trkpt>
      <trkpt lat="42.4911910202" lon="19.8140985891">
        <ele>1311.38</ele>
        <time>2019-07-05T07:33:53Z</time>
      </trkpt>
      <trkpt lat="42.4912626855" lon="19.8141546641">
        <ele>1313.30</ele>
        <time>2019-07-05T07:34:04Z</time>
      </trkpt>
      <trkpt lat="42.4913669564" lon="19.8142026924">
        <ele>1314.74</ele>
        <time>2019-07-05T07:34:17Z</time>
      </trkpt>
      <trkpt lat="42.4913790263" lon="19.8142199591">
        <ele>1315.22</ele>
        <time>2019-07-05T07:34:19Z</time>
      </trkpt>
      <trkpt lat="42.4914361071" lon="19.8143532313">
        <ele>1316.66</ele>
        <time>2019-07-05T07:34:32Z</time>
      </trkpt>
      <trkpt lat="42.4914390408" lon="19.8143874295">
        <ele>1317.14</ele>
        <time>2019-07-05T07:34:36Z</time>
      </trkpt>
      <trkpt lat="42.4913853966" lon="19.8144015949">
        <ele>1318.59</ele>
        <time>2019-07-05T07:34:44Z</time>
      </trkpt>
      <trkpt lat="42.4913438223" lon="19.8143616971">
        <ele>1319.55</ele>
        <time>2019-07-05T07:34:50Z</time>
      </trkpt>
      <trkpt lat="42.4912842270" lon="19.8143167701">
        <ele>1320.51</ele>
        <time>2019-07-05T07:34:59Z</time>
      </trkpt>
      <trkpt lat="42.4912240449" lon="19.8142926302">
        <ele>1321.95</ele>
        <time>2019-07-05T07:35:07Z</time>
      </trkpt>
      <trkpt lat="42.4911454227" lon="19.8142445181">
        <ele>1322.91</ele>
        <time>2019-07-05T07:35:18Z</time>
      </trkpt>
      <trkpt lat="42.4911052734" lon="19.8142427579">
        <ele>1324.35</ele>
        <time>2019-07-05T07:35:24Z</time>
      </trkpt>
      <trkpt lat="42.4910230469" lon="19.8142160196">
        <ele>1325.80</ele>
        <time>2019-07-05T07:35:35Z</time>
      </trkpt>
      <trkpt lat="42.4909707438" lon="19.8141851742">
        <ele>1326.76</ele>
        <time>2019-07-05T07:35:43Z</time>
      </trkpt>
      <trkpt lat="42.4909135792" lon="19.8141897842">
        <ele>1328.68</ele>
        <time>2019-07-05T07:35:51Z</time>
      </trkpt>
      <trkpt lat="42.4908958096" lon="19.8143078852">
        <ele>1330.60</ele>
        <time>2019-07-05T07:36:03Z</time>
      </trkpt>
      <trkpt lat="42.4909181055" lon="19.8143844120">
        <ele>1331.56</ele>
        <time>2019-07-05T07:36:12Z</time>
      </trkpt>
      <trkpt lat="42.4909866694" lon="19.8144372180">
        <ele>1333.01</ele>
        <time>2019-07-05T07:36:22Z</time>
      </trkpt>
      <trkpt lat="42.4910398945" lon="19.8145088833">
        <ele>1334.45</ele>
        <time>2019-07-05T07:36:32Z</time>
      </trkpt>
      <trkpt lat="42.4910729192" lon="19.8146092985">
        <ele>1336.85</ele>
        <time>2019-07-05T07:36:45Z</time>
      </trkpt>
      <trkpt lat="42.4911209475" lon="19.8147118930">
        <ele>1338.77</ele>
        <time>2019-07-05T07:36:57Z</time>
      </trkpt>
      <trkpt lat="42.4911303353" lon="19.8147942871">
        <ele>1340.22</ele>
        <time>2019-07-05T07:37:07Z</time>
      </trkpt>
      <trkpt lat="42.4911535531" lon="19.8148840573">
        <ele>1342.14</ele>
        <time>2019-07-05T07:37:18Z</time>
      </trkpt>
      <trkpt lat="42.4911849014" lon="19.8149774317">
        <ele>1344.06</ele>
        <time>2019-07-05T07:37:29Z</time>
      </trkpt>
      <trkpt lat="42.4912267271" lon="19.8151097819">
        <ele>1345.98</ele>
        <time>2019-07-05T07:37:42Z</time>
      </trkpt>
      <trkpt lat="42.4912304990" lon="19.8151305690">
        <ele>1345.98</ele>
        <time>2019-07-05T07:37:44Z</time>
      </trkpt>
      <trkpt lat="42.4912255537" lon="19.8151946068">
        <ele>1346.46</ele>
        <time>2019-07-05T07:37:48Z</time>
      </trkpt>
      <trkpt lat="42.4912204407" lon="19.8152726423">
        <ele>1347.91</ele>
        <time>2019-07-05T07:37:56Z</time>
      </trkpt>
      <trkpt lat="42.4912256375" lon="19.8153259512">
        <ele>1347.91</ele>
        <time>2019-07-05T07:38:00Z</time>
      </trkpt>
      <trkpt lat="42.4912038445" lon="19.8154699523">
        <ele>1347.91</ele>
        <time>2019-07-05T07:38:09Z</time>
      </trkpt>
      <trkpt lat="42.4911672156" lon="19.8155554477">
        <ele>1346.46</ele>
        <time>2019-07-05T07:38:14Z</time>
      </trkpt>
      <trkpt lat="42.4911329336" lon="19.8156175576">
        <ele>1345.98</ele>
        <time>2019-07-05T07:38:18Z</time>
      </trkpt>
      <trkpt lat="42.4910500366" lon="19.8157571163">
        <ele>1343.58</ele>
        <time>2019-07-05T07:38:27Z</time>
      </trkpt>
      <trkpt lat="42.4910085462" lon="19.8157880455">
        <ele>1343.10</ele>
        <time>2019-07-05T07:38:31Z</time>
      </trkpt>
      <trkpt lat="42.4909528904" lon="19.8158053122">
        <ele>1341.66</ele>
        <time>2019-07-05T07:38:37Z</time>
      </trkpt>
      <trkpt lat="42.4909080472" lon="19.8157769814">
        <ele>1340.70</ele>
        <time>2019-07-05T07:38:41Z</time>
      </trkpt>
      <trkpt lat="42.4908134155" lon="19.8156930786">
        <ele>1337.81</ele>
        <time>2019-07-05T07:38:52Z</time>
      </trkpt>
      <trkpt lat="42.4907218851" lon="19.8156151269">
        <ele>1336.85</ele>
        <time>2019-07-05T07:38:59Z</time>
      </trkpt>
      <trkpt lat="42.4906774610" lon="19.8155593872">
        <ele>1335.89</ele>
        <time>2019-07-05T07:39:04Z</time>
      </trkpt>
      <trkpt lat="42.4906615354" lon="19.8155331519">
        <ele>1334.93</ele>
        <time>2019-07-05T07:39:06Z</time>
      </trkpt>
      <trkpt lat="42.4905267544" lon="19.8153828643">
        <ele>1331.56</ele>
        <time>2019-07-05T07:39:19Z</time>
      </trkpt>
      <trkpt lat="42.4904407561" lon="19.8152951058">
        <ele>1329.64</ele>
        <time>2019-07-05T07:39:28Z</time>
      </trkpt>
      <trkpt lat="42.4903794844" lon="19.8151771724">
        <ele>1328.20</ele>
        <time>2019-07-05T07:39:35Z</time>
      </trkpt>
      <trkpt lat="42.4903502315" lon="19.8151342571">
        <ele>1328.20</ele>
        <time>2019-07-05T07:39:38Z</time>
      </trkpt>
      <trkpt lat="42.4902750459" lon="19.8150828760">
        <ele>1326.76</ele>
        <time>2019-07-05T07:39:45Z</time>
      </trkpt>
      <trkpt lat="42.4902387522" lon="19.8150625918">
        <ele>1326.76</ele>
        <time>2019-07-05T07:39:58Z</time>
      </trkpt>
      <trkpt lat="42.4902452063" lon="19.8150820378">
        <ele>1326.76</ele>
        <time>2019-07-05T07:40:26Z</time>
      </trkpt>
      <trkpt lat="42.4902457092" lon="19.8150842171">
        <ele>1326.76</ele>
        <time>2019-07-05T07:40:29Z</time>
      </trkpt>
      <trkpt lat="42.4902286101" lon="19.8150786851">
        <ele>1327.24</ele>
        <time>2019-07-05T07:40:31Z</time>
      </trkpt>
      <trkpt lat="42.4901948310" lon="19.8150680400">
        <ele>1326.28</ele>
        <time>2019-07-05T07:40:35Z</time>
      </trkpt>
      <trkpt lat="42.4901502393" lon="19.8150344286">
        <ele>1325.31</ele>
        <time>2019-07-05T07:40:39Z</time>
      </trkpt>
      <trkpt lat="42.4899537675" lon="19.8150079418">
        <ele>1322.91</ele>
        <time>2019-07-05T07:40:53Z</time>
      </trkpt>
      <trkpt lat="42.4899271969" lon="19.8150176648">
        <ele>1322.91</ele>
        <time>2019-07-05T07:40:55Z</time>
      </trkpt>
      <trkpt lat="42.4897819385" lon="19.8151567206">
        <ele>1323.39</ele>
        <time>2019-07-05T07:41:12Z</time>
      </trkpt>
      <trkpt lat="42.4897515960" lon="19.8151762504">
        <ele>1324.83</ele>
        <time>2019-07-05T07:41:15Z</time>
      </trkpt>
      <trkpt lat="42.4896211736" lon="19.8152808566">
        <ele>1325.80</ele>
        <time>2019-07-05T07:41:30Z</time>
      </trkpt>
      <trkpt lat="42.4895942677" lon="19.8153243586">
        <ele>1326.76</ele>
        <time>2019-07-05T07:41:36Z</time>
      </trkpt>
      <trkpt lat="42.4895863887" lon="19.8153534438">
        <ele>1327.24</ele>
        <time>2019-07-05T07:41:39Z</time>
      </trkpt>
      <trkpt lat="42.4895320740" lon="19.8154214211">
        <ele>1328.68</ele>
        <time>2019-07-05T07:41:53Z</time>
      </trkpt>
      <trkpt lat="42.4894484226" lon="19.8154717963">
        <ele>1329.64</ele>
        <time>2019-07-05T07:42:10Z</time>
      </trkpt>
      <trkpt lat="42.4894588161" lon="19.8154574633">
        <ele>1330.12</ele>
        <time>2019-07-05T07:42:38Z</time>
      </trkpt>
      <trkpt lat="42.4894169066" lon="19.8155076709">
        <ele>1330.12</ele>
        <time>2019-07-05T07:43:14Z</time>
      </trkpt>
      <trkpt lat="42.4894601572" lon="19.8154450580">
        <ele>1330.12</ele>
        <time>2019-07-05T07:43:51Z</time>
      </trkpt>
      <trkpt lat="42.4894835427" lon="19.8155118618">
        <ele>1330.60</ele>
        <time>2019-07-05T07:44:21Z</time>
      </trkpt>
      <trkpt lat="42.4894526135" lon="19.8154888954">
        <ele>1330.60</ele>
        <time>2019-07-05T07:44:50Z</time>
      </trkpt>
      <trkpt lat="42.4894677848" lon="19.8154370952">
        <ele>1330.60</ele>
        <time>2019-07-05T07:45:07Z</time>
      </trkpt>
      <trkpt lat="42.4894521944" lon="19.8153939284">
        <ele>1331.08</ele>
        <time>2019-07-05T07:45:13Z</time>
      </trkpt>
      <trkpt lat="42.4894121289" lon="19.8153764941">
        <ele>1331.08</ele>
        <time>2019-07-05T07:45:17Z</time>
      </trkpt>
      <trkpt lat="42.4893048406" lon="19.8154404480">
        <ele>1332.52</ele>
        <time>2019-07-05T07:45:27Z</time>
      </trkpt>
      <trkpt lat="42.4892693013" lon="19.8154626600">
        <ele>1332.52</ele>
        <time>2019-07-05T07:45:31Z</time>
      </trkpt>
      <trkpt lat="42.4891863205" lon="19.8155256081">
        <ele>1333.01</ele>
        <time>2019-07-05T07:45:39Z</time>
      </trkpt>
      <trkpt lat="42.4890833069" lon="19.8156641610">
        <ele>1333.97</ele>
        <time>2019-07-05T07:45:52Z</time>
      </trkpt>
      <trkpt lat="42.4889443349" lon="19.8157847766">
        <ele>1335.41</ele>
        <time>2019-07-05T07:46:07Z</time>
      </trkpt>
      <trkpt lat="42.4889321811" lon="19.8158028815">
        <ele>1335.41</ele>
        <time>2019-07-05T07:46:09Z</time>
      </trkpt>
      <trkpt lat="42.4888549838" lon="19.8159827571">
        <ele>1335.89</ele>
        <time>2019-07-05T07:46:23Z</time>
      </trkpt>
      <trkpt lat="42.4887572508" lon="19.8160633910">
        <ele>1337.81</ele>
        <time>2019-07-05T07:46:36Z</time>
      </trkpt>
      <trkpt lat="42.4887355417" lon="19.8160610441">
        <ele>1337.81</ele>
        <time>2019-07-05T07:46:38Z</time>
      </trkpt>
      <trkpt lat="42.4886334501" lon="19.8160743713">
        <ele>1339.25</ele>
        <time>2019-07-05T07:46:49Z</time>
      </trkpt>
      <trkpt lat="42.4885157682" lon="19.8161095753">
        <ele>1341.18</ele>
        <time>2019-07-05T07:47:03Z</time>
      </trkpt>
      <trkpt lat="42.4884075578" lon="19.8161671590">
        <ele>1342.62</ele>
        <time>2019-07-05T07:47:17Z</time>
      </trkpt>
      <trkpt lat="42.4883841723" lon="19.8161830008">
        <ele>1342.62</ele>
        <time>2019-07-05T07:47:20Z</time>
      </trkpt>
      <trkpt lat="42.4883667380" lon="19.8162036203">
        <ele>1343.10</ele>
        <time>2019-07-05T07:47:23Z</time>
      </trkpt>
      <trkpt lat="42.4882720225" lon="19.8162463680">
        <ele>1345.02</ele>
        <time>2019-07-05T07:47:35Z</time>
      </trkpt>
      <trkpt lat="42.4881592020" lon="19.8163509741">
        <ele>1346.46</ele>
        <time>2019-07-05T07:47:50Z</time>
      </trkpt>
      <trkpt lat="42.4880634807" lon="19.8163605295">
        <ele>1347.91</ele>
        <time>2019-07-05T07:48:02Z</time>
      </trkpt>
      <trkpt lat="42.4880550150" lon="19.8163531534">
        <ele>1347.91</ele>
        <time>2019-07-05T07:48:03Z</time>
      </trkpt>
      <trkpt lat="42.4879297893" lon="19.8162648082">
        <ele>1349.35</ele>
        <time>2019-07-05T07:48:17Z</time>
      </trkpt>
      <trkpt lat="42.4878236745" lon="19.8162109125">
        <ele>1350.79</ele>
        <time>2019-07-05T07:48:30Z</time>
      </trkpt>
      <trkpt lat="42.4876932520" lon="19.8161579389">
        <ele>1352.23</ele>
        <time>2019-07-05T07:48:43Z</time>
      </trkpt>
      <trkpt lat="42.4875781685" lon="19.8161918018">
        <ele>1353.67</ele>
        <time>2019-07-05T07:48:56Z</time>
      </trkpt>
      <trkpt lat="42.4875505920" lon="19.8161895387">
        <ele>1353.67</ele>
        <time>2019-07-05T07:48:59Z</time>
      </trkpt>
      <trkpt lat="42.4875041563" lon="19.8163544107">
        <ele>1354.63</ele>
        <time>2019-07-05T07:49:12Z</time>
      </trkpt>
      <trkpt lat="42.4874257017" lon="19.8164838273">
        <ele>1356.08</ele>
        <time>2019-07-05T07:49:25Z</time>
      </trkpt>
      <trkpt lat="42.4873267952" lon="19.8165094759">
        <ele>1358.00</ele>
        <time>2019-07-05T07:49:38Z</time>
      </trkpt>
      <trkpt lat="42.4872387853" lon="19.8165901098">
        <ele>1358.96</ele>
        <time>2019-07-05T07:49:50Z</time>
      </trkpt>
      <trkpt lat="42.4871943612" lon="19.8166735936">
        <ele>1359.92</ele>
        <time>2019-07-05T07:50:01Z</time>
      </trkpt>
      <trkpt lat="42.4871865660" lon="19.8167276569">
        <ele>1360.88</ele>
        <time>2019-07-05T07:50:16Z</time>
      </trkpt>
      <trkpt lat="42.4871799443" lon="19.8167442530">
        <ele>1361.36</ele>
        <time>2019-07-05T07:50:19Z</time>
      </trkpt>
      <trkpt lat="42.4871675391" lon="19.8168496136">
        <ele>1361.84</ele>
        <time>2019-07-05T07:50:28Z</time>
      </trkpt>
      <trkpt lat="42.4870895036" lon="19.8169461731">
        <ele>1364.25</ele>
        <time>2019-07-05T07:50:41Z</time>
      </trkpt>
      <trkpt lat="42.4870345183" lon="19.8170324229">
        <ele>1365.21</ele>
        <time>2019-07-05T07:50:52Z</time>
      </trkpt>
      <trkpt lat="42.4869920220" lon="19.8171019927">
        <ele>1366.65</ele>
        <time>2019-07-05T07:51:04Z</time>
      </trkpt>
      <trkpt lat="42.4869807065" lon="19.8171192594">
        <ele>1367.13</ele>
        <time>2019-07-05T07:51:07Z</time>
      </trkpt>
      <trkpt lat="42.4869037606" lon="19.8171210196">
        <ele>1369.05</ele>
        <time>2019-07-05T07:51:21Z</time>
      </trkpt>
      <trkpt lat="42.4868801236" lon="19.8170948680">
        <ele>1369.54</ele>
        <time>2019-07-05T07:51:26Z</time>
      </trkpt>
      <trkpt lat="42.4868239649" lon="19.8170655314">
        <ele>1370.98</ele>
        <time>2019-07-05T07:51:36Z</time>
      </trkpt>
      <trkpt lat="42.4867827259" lon="19.8170440737">
        <ele>1371.94</ele>
        <time>2019-07-05T07:51:44Z</time>
      </trkpt>
      <trkpt lat="42.4866678100" lon="19.8170232028">
        <ele>1373.38</ele>
        <time>2019-07-05T07:51:58Z</time>
      </trkpt>
      <trkpt lat="42.4866024312" lon="19.8170516174">
        <ele>1374.34</ele>
        <time>2019-07-05T07:52:10Z</time>
      </trkpt>
      <trkpt lat="42.4865569174" lon="19.8171375319">
        <ele>1375.30</ele>
        <time>2019-07-05T07:52:22Z</time>
      </trkpt>
      <trkpt lat="42.4864855036" lon="19.8171298206">
        <ele>1377.23</ele>
        <time>2019-07-05T07:52:33Z</time>
      </trkpt>
      <trkpt lat="42.4863871001" lon="19.8171564750">
        <ele>1378.67</ele>
        <time>2019-07-05T07:52:46Z</time>
      </trkpt>
      <trkpt lat="42.4863223080" lon="19.8172195069">
        <ele>1380.11</ele>
        <time>2019-07-05T07:52:58Z</time>
      </trkpt>
      <trkpt lat="42.4862577673" lon="19.8172784317">
        <ele>1381.55</ele>
        <time>2019-07-05T07:53:09Z</time>
      </trkpt>
      <trkpt lat="42.4862235691" lon="19.8173531145">
        <ele>1383.47</ele>
        <time>2019-07-05T07:53:21Z</time>
      </trkpt>
      <trkpt lat="42.4861798156" lon="19.8173998017">
        <ele>1384.92</ele>
        <time>2019-07-05T07:53:34Z</time>
      </trkpt>
      <trkpt lat="42.4861212261" lon="19.8173979577">
        <ele>1386.36</ele>
        <time>2019-07-05T07:53:53Z</time>
      </trkpt>
      <trkpt lat="42.4860946555" lon="19.8174303956">
        <ele>1386.84</ele>
        <time>2019-07-05T07:54:08Z</time>
      </trkpt>
      <trkpt lat="42.4860450346" lon="19.8173844628">
        <ele>1388.28</ele>
        <time>2019-07-05T07:54:21Z</time>
      </trkpt>
      <trkpt lat="42.4860432744" lon="19.8173423856">
        <ele>1388.76</ele>
        <time>2019-07-05T07:54:49Z</time>
      </trkpt>
      <trkpt lat="42.4860088248" lon="19.8173254542">
        <ele>1390.68</ele>
        <time>2019-07-05T07:55:00Z</time>
      </trkpt>
      <trkpt lat="42.4860188831" lon="19.8172937706">
        <ele>1392.13</ele>
        <time>2019-07-05T07:55:11Z</time>
      </trkpt>
      <trkpt lat="42.4859680887" lon="19.8172798567">
        <ele>1394.53</ele>
        <time>2019-07-05T07:55:24Z</time>
      </trkpt>
      <trkpt lat="42.4859685078" lon="19.8172782641">
        <ele>1395.01</ele>
        <time>2019-07-05T07:55:25Z</time>
      </trkpt>
      <trkpt lat="42.4859233294" lon="19.8172583990">
        <ele>1396.93</ele>
        <time>2019-07-05T07:55:36Z</time>
      </trkpt>
      <trkpt lat="42.4858650751" lon="19.8172537051">
        <ele>1398.86</ele>
        <time>2019-07-05T07:55:48Z</time>
      </trkpt>
      <trkpt lat="42.4857695214" lon="19.8172268830">
        <ele>1400.30</ele>
        <time>2019-07-05T07:56:03Z</time>
      </trkpt>
      <trkpt lat="42.4857611395" lon="19.8172236141">
        <ele>1400.78</ele>
        <time>2019-07-05T07:56:06Z</time>
      </trkpt>
      <trkpt lat="42.4857320543" lon="19.8171977978">
        <ele>1403.66</ele>
        <time>2019-07-05T07:56:19Z</time>
      </trkpt>
      <trkpt lat="42.4857038911" lon="19.8171715625">
        <ele>1405.10</ele>
        <time>2019-07-05T07:56:30Z</time>
      </trkpt>
      <trkpt lat="42.4857185595" lon="19.8171070218">
        <ele>1407.99</ele>
        <time>2019-07-05T07:56:45Z</time>
      </trkpt>
      <trkpt lat="42.4856693577" lon="19.8170817923">
        <ele>1409.91</ele>
        <time>2019-07-05T07:57:00Z</time>
      </trkpt>
      <trkpt lat="42.4855991174" lon="19.8170502763">
        <ele>1411.35</ele>
        <time>2019-07-05T07:57:12Z</time>
      </trkpt>
      <trkpt lat="42.4855662603" lon="19.8170102946">
        <ele>1412.79</ele>
        <time>2019-07-05T07:57:21Z</time>
      </trkpt>
      <trkpt lat="42.4855075870" lon="19.8169703968">
        <ele>1414.72</ele>
        <time>2019-07-05T07:57:34Z</time>
      </trkpt>
      <trkpt lat="42.4854567088" lon="19.8169808742">
        <ele>1416.64</ele>
        <time>2019-07-05T07:57:46Z</time>
      </trkpt>
      <trkpt lat="42.4853793439" lon="19.8169282358">
        <ele>1419.04</ele>
        <time>2019-07-05T07:58:00Z</time>
      </trkpt>
      <trkpt lat="42.4853840377" lon="19.8168652039">
        <ele>1420.97</ele>
        <time>2019-07-05T07:58:12Z</time>
      </trkpt>
      <trkpt lat="42.4853586406" lon="19.8167725839">
        <ele>1421.93</ele>
        <time>2019-07-05T07:58:23Z</time>
      </trkpt>
      <trkpt lat="42.4853055831" lon="19.8167545628">
        <ele>1423.85</ele>
        <time>2019-07-05T07:58:36Z</time>
      </trkpt>
      <trkpt lat="42.4852630030" lon="19.8167116474">
        <ele>1425.77</ele>
        <time>2019-07-05T07:58:48Z</time>
      </trkpt>
      <trkpt lat="42.4852223508" lon="19.8167495336">
        <ele>1427.70</ele>
        <time>2019-07-05T07:59:00Z</time>
      </trkpt>
      <trkpt lat="42.4851902481" lon="19.8167369608">
        <ele>1429.62</ele>
        <time>2019-07-05T07:59:13Z</time>
      </trkpt>
      <trkpt lat="42.4851863924" lon="19.8167962208">
        <ele>1431.06</ele>
        <time>2019-07-05T07:59:21Z</time>
      </trkpt>
      <trkpt lat="42.4851382803" lon="19.8168667126">
        <ele>1432.50</ele>
        <time>2019-07-05T07:59:31Z</time>
      </trkpt>
      <trkpt lat="42.4851003941" lon="19.8169470113">
        <ele>1434.42</ele>
        <time>2019-07-05T07:59:42Z</time>
      </trkpt>
      <trkpt lat="42.4850456603" lon="19.8170071095">
        <ele>1435.87</ele>
        <time>2019-07-05T07:59:55Z</time>
      </trkpt>
      <trkpt lat="42.4850048404" lon="19.8170083668">
        <ele>1438.27</ele>
        <time>2019-07-05T08:00:10Z</time>
      </trkpt>
      <trkpt lat="42.4849780183" lon="19.8169896752">
        <ele>1440.67</ele>
        <time>2019-07-05T08:00:24Z</time>
      </trkpt>
      <trkpt lat="42.4849444069" lon="19.8169175908">
        <ele>1442.60</ele>
        <time>2019-07-05T08:00:38Z</time>
      </trkpt>
      <trkpt lat="42.4849242065" lon="19.8168538045">
        <ele>1444.52</ele>
        <time>2019-07-05T08:00:51Z</time>
      </trkpt>
      <trkpt lat="42.4848710652" lon="19.8168108054">
        <ele>1446.44</ele>
        <time>2019-07-05T08:01:06Z</time>
      </trkpt>
      <trkpt lat="42.4848346878" lon="19.8168687243">
        <ele>1448.36</ele>
        <time>2019-07-05T08:01:19Z</time>
      </trkpt>
      <trkpt lat="42.4848063570" lon="19.8168819677">
        <ele>1450.29</ele>
        <time>2019-07-05T08:01:30Z</time>
      </trkpt>
      <trkpt lat="42.4847990647" lon="19.8168771062">
        <ele>1451.25</ele>
        <time>2019-07-05T08:01:34Z</time>
      </trkpt>
      <trkpt lat="42.4847531319" lon="19.8168392200">
        <ele>1453.17</ele>
        <time>2019-07-05T08:01:47Z</time>
      </trkpt>
      <trkpt lat="42.4846901000" lon="19.8167969752">
        <ele>1454.61</ele>
        <time>2019-07-05T08:02:00Z</time>
      </trkpt>
      <trkpt lat="42.4846581649" lon="19.8168049380">
        <ele>1456.53</ele>
        <time>2019-07-05T08:02:14Z</time>
      </trkpt>
      <trkpt lat="42.4846223742" lon="19.8168922774">
        <ele>1458.94</ele>
        <time>2019-07-05T08:02:27Z</time>
      </trkpt>
      <trkpt lat="42.4846142437" lon="19.8169589136">
        <ele>1460.38</ele>
        <time>2019-07-05T08:02:40Z</time>
      </trkpt>
      <trkpt lat="42.4845621083" lon="19.8169696424">
        <ele>1462.30</ele>
        <time>2019-07-05T08:02:53Z</time>
      </trkpt>
      <trkpt lat="42.4845392257" lon="19.8169334326">
        <ele>1464.71</ele>
        <time>2019-07-05T08:03:05Z</time>
      </trkpt>
      <trkpt lat="42.4844790436" lon="19.8168871645">
        <ele>1466.15</ele>
        <time>2019-07-05T08:03:18Z</time>
      </trkpt>
      <trkpt lat="42.4844698235" lon="19.8168329336">
        <ele>1468.55</ele>
        <time>2019-07-05T08:03:33Z</time>
      </trkpt>
      <trkpt lat="42.4844111502" lon="19.8168046027">
        <ele>1469.99</ele>
        <time>2019-07-05T08:03:45Z</time>
      </trkpt>
      <trkpt lat="42.4844244774" lon="19.8168310057">
        <ele>1471.92</ele>
        <time>2019-07-05T08:03:59Z</time>
      </trkpt>
      <trkpt lat="42.4844106473" lon="19.8169004917">
        <ele>1473.84</ele>
        <time>2019-07-05T08:04:14Z</time>
      </trkpt>
      <trkpt lat="42.4843611103" lon="19.8168785311">
        <ele>1474.80</ele>
        <time>2019-07-05T08:04:24Z</time>
      </trkpt>
      <trkpt lat="42.4843024369" lon="19.8168509547">
        <ele>1476.72</ele>
        <time>2019-07-05T08:04:35Z</time>
      </trkpt>
      <trkpt lat="42.4842653889" lon="19.8168191034">
        <ele>1478.16</ele>
        <time>2019-07-05T08:04:45Z</time>
      </trkpt>
      <trkpt lat="42.4842667300" lon="19.8168157507">
        <ele>1478.65</ele>
        <time>2019-07-05T08:04:50Z</time>
      </trkpt>
      <trkpt lat="42.4842332024" lon="19.8167455103">
        <ele>1480.57</ele>
        <time>2019-07-05T08:05:01Z</time>
      </trkpt>
      <trkpt lat="42.4841803126" lon="19.8167039361">
        <ele>1482.01</ele>
        <time>2019-07-05T08:05:13Z</time>
      </trkpt>
      <trkpt lat="42.4841593578" lon="19.8167010862">
        <ele>1483.93</ele>
        <time>2019-07-05T08:05:22Z</time>
      </trkpt>
      <trkpt lat="42.4841379002" lon="19.8167004995">
        <ele>1483.93</ele>
        <time>2019-07-05T08:05:25Z</time>
      </trkpt>
      <trkpt lat="42.4841231480" lon="19.8167075403">
        <ele>1484.41</ele>
        <time>2019-07-05T08:05:28Z</time>
      </trkpt>
      <trkpt lat="42.4841202982" lon="19.8167666327">
        <ele>1485.85</ele>
        <time>2019-07-05T08:05:38Z</time>
      </trkpt>
      <trkpt lat="42.4840726051" lon="19.8168522120">
        <ele>1487.78</ele>
        <time>2019-07-05T08:05:51Z</time>
      </trkpt>
      <trkpt lat="42.4840438552" lon="19.8168378789">
        <ele>1489.70</ele>
        <time>2019-07-05T08:06:01Z</time>
      </trkpt>
      <trkpt lat="42.4839774705" lon="19.8168003280">
        <ele>1491.14</ele>
        <time>2019-07-05T08:06:12Z</time>
      </trkpt>
      <trkpt lat="42.4839205574" lon="19.8167621903">
        <ele>1493.06</ele>
        <time>2019-07-05T08:06:24Z</time>
      </trkpt>
      <trkpt lat="42.4839044642" lon="19.8167715780">
        <ele>1494.51</ele>
        <time>2019-07-05T08:06:35Z</time>
      </trkpt>
      <trkpt lat="42.4838570226" lon="19.8167419061">
        <ele>1496.91</ele>
        <time>2019-07-05T08:06:48Z</time>
      </trkpt>
      <trkpt lat="42.4838301167" lon="19.8167548981">
        <ele>1498.83</ele>
        <time>2019-07-05T08:07:01Z</time>
      </trkpt>
      <trkpt lat="42.4838151131" lon="19.8168329336">
        <ele>1500.27</ele>
        <time>2019-07-05T08:07:17Z</time>
      </trkpt>
      <trkpt lat="42.4837525003" lon="19.8168109730">
        <ele>1502.68</ele>
        <time>2019-07-05T08:07:30Z</time>
      </trkpt>
      <trkpt lat="42.4837001134" lon="19.8168014176">
        <ele>1504.60</ele>
        <time>2019-07-05T08:07:42Z</time>
      </trkpt>
      <trkpt lat="42.4836727884" lon="19.8168044351">
        <ele>1506.52</ele>
        <time>2019-07-05T08:07:54Z</time>
      </trkpt>
      <trkpt lat="42.4836572818" lon="19.8168322630">
        <ele>1508.45</ele>
        <time>2019-07-05T08:08:05Z</time>
      </trkpt>
      <trkpt lat="42.4836393446" lon="19.8168372083">
        <ele>1509.89</ele>
        <time>2019-07-05T08:08:17Z</time>
      </trkpt>
      <trkpt lat="42.4835899752" lon="19.8168134876">
        <ele>1511.33</ele>
        <time>2019-07-05T08:08:25Z</time>
      </trkpt>
      <trkpt lat="42.4834810942" lon="19.8168041836">
        <ele>1513.25</ele>
        <time>2019-07-05T08:08:39Z</time>
      </trkpt>
      <trkpt lat="42.4834523443" lon="19.8167964723">
        <ele>1514.69</ele>
        <time>2019-07-05T08:08:51Z</time>
      </trkpt>
      <trkpt lat="42.4834333174" lon="19.8168546427">
        <ele>1516.62</ele>
        <time>2019-07-05T08:09:02Z</time>
      </trkpt>
      <trkpt lat="42.4834686890" lon="19.8169106338">
        <ele>1518.54</ele>
        <time>2019-07-05T08:09:12Z</time>
      </trkpt>
      <trkpt lat="42.4834664259" lon="19.8169209436">
        <ele>1519.02</ele>
        <time>2019-07-05T08:09:15Z</time>
      </trkpt>
      <trkpt lat="42.4834236782" lon="19.8169333488">
        <ele>1520.46</ele>
        <time>2019-07-05T08:09:25Z</time>
      </trkpt>
      <trkpt lat="42.4833904859" lon="19.8168972228">
        <ele>1521.90</ele>
        <time>2019-07-05T08:09:36Z</time>
      </trkpt>
      <trkpt lat="42.4833822716" lon="19.8168921098">
        <ele>1521.90</ele>
        <time>2019-07-05T08:09:37Z</time>
      </trkpt>
      <trkpt lat="42.4832948484" lon="19.8168707360">
        <ele>1524.31</ele>
        <time>2019-07-05T08:09:51Z</time>
      </trkpt>
      <trkpt lat="42.4832577165" lon="19.8168908525">
        <ele>1525.75</ele>
        <time>2019-07-05T08:10:01Z</time>
      </trkpt>
      <trkpt lat="42.4832267873" lon="19.8169087898">
        <ele>1527.19</ele>
        <time>2019-07-05T08:10:11Z</time>
      </trkpt>
      <trkpt lat="42.4831666891" lon="19.8168972228">
        <ele>1529.11</ele>
        <time>2019-07-05T08:10:22Z</time>
      </trkpt>
      <trkpt lat="42.4831170682" lon="19.8169021681">
        <ele>1530.56</ele>
        <time>2019-07-05T08:10:33Z</time>
      </trkpt>
      <trkpt lat="42.4830945209" lon="19.8168994859">
        <ele>1532.96</ele>
        <time>2019-07-05T08:10:45Z</time>
      </trkpt>
      <trkpt lat="42.4830164853" lon="19.8168619350">
        <ele>1534.40</ele>
        <time>2019-07-05T08:10:56Z</time>
      </trkpt>
      <trkpt lat="42.4829799403" lon="19.8168520443">
        <ele>1535.84</ele>
        <time>2019-07-05T08:11:06Z</time>
      </trkpt>
      <trkpt lat="42.4829065986" lon="19.8168713227">
        <ele>1537.77</ele>
        <time>2019-07-05T08:11:19Z</time>
      </trkpt>
      <trkpt lat="42.4828435667" lon="19.8168414831">
        <ele>1539.69</ele>
        <time>2019-07-05T08:11:32Z</time>
      </trkpt>
      <trkpt lat="42.4828278087" lon="19.8168455902">
        <ele>1540.17</ele>
        <time>2019-07-05T08:11:34Z</time>
      </trkpt>
      <trkpt lat="42.4827522039" lon="19.8168269824">
        <ele>1541.61</ele>
        <time>2019-07-05T08:11:45Z</time>
      </trkpt>
      <trkpt lat="42.4826943688" lon="19.8168066144">
        <ele>1543.05</ele>
        <time>2019-07-05T08:11:56Z</time>
      </trkpt>
      <trkpt lat="42.4826453347" lon="19.8168020882">
        <ele>1544.50</ele>
        <time>2019-07-05T08:12:07Z</time>
      </trkpt>
      <trkpt lat="42.4825898465" lon="19.8168197740">
        <ele>1546.90</ele>
        <time>2019-07-05T08:12:23Z</time>
      </trkpt>
      <trkpt lat="42.4825717416" lon="19.8168760166">
        <ele>1547.86</ele>
        <time>2019-07-05T08:12:32Z</time>
      </trkpt>
      <trkpt lat="42.4825521279" lon="19.8168794531">
        <ele>1550.26</ele>
        <time>2019-07-05T08:12:45Z</time>
      </trkpt>
      <trkpt lat="42.4824968074" lon="19.8168949597">
        <ele>1550.26</ele>
        <time>2019-07-05T08:13:01Z</time>
      </trkpt>
      <trkpt lat="42.4824894313" lon="19.8169085383">
        <ele>1550.26</ele>
        <time>2019-07-05T08:13:26Z</time>
      </trkpt>
      <trkpt lat="42.4824473541" lon="19.8168950435">
        <ele>1550.74</ele>
        <time>2019-07-05T08:13:58Z</time>
      </trkpt>
      <trkpt lat="42.4823766947" lon="19.8168263957">
        <ele>1550.74</ele>
        <time>2019-07-05T08:14:27Z</time>
      </trkpt>
      <trkpt lat="42.4823859148" lon="19.8167875037">
        <ele>1550.74</ele>
        <time>2019-07-05T08:14:41Z</time>
      </trkpt>
      <trkpt lat="42.4823388923" lon="19.8168079555">
        <ele>1551.22</ele>
        <time>2019-07-05T08:15:08Z</time>
      </trkpt>
      <trkpt lat="42.4824219570" lon="19.8168512899">
        <ele>1551.71</ele>
        <time>2019-07-05T08:15:28Z</time>
      </trkpt>
      <trkpt lat="42.4825145770" lon="19.8168354481">
        <ele>1552.67</ele>
        <time>2019-07-05T08:15:54Z</time>
      </trkpt>
      <trkpt lat="42.4825015850" lon="19.8169022519">
        <ele>1552.67</ele>
        <time>2019-07-05T08:16:11Z</time>
      </trkpt>
      <trkpt lat="42.4824993219" lon="19.8168996535">
        <ele>1551.71</ele>
        <time>2019-07-05T08:16:20Z</time>
      </trkpt>
      <trkpt lat="42.4825289100" lon="19.8169018328">
        <ele>1552.19</ele>
        <time>2019-07-05T08:16:47Z</time>
      </trkpt>
      <trkpt lat="42.4826779403" lon="19.8167566583">
        <ele>1552.67</ele>
        <time>2019-07-05T08:17:14Z</time>
      </trkpt>
      <trkpt lat="42.4826773535" lon="19.8166672233">
        <ele>1553.15</ele>
        <time>2019-07-05T08:17:44Z</time>
      </trkpt>
      <trkpt lat="42.4827223644" lon="19.8168059438">
        <ele>1553.63</ele>
        <time>2019-07-05T08:18:14Z</time>
      </trkpt>
      <trkpt lat="42.4826452509" lon="19.8169356957">
        <ele>1554.11</ele>
        <time>2019-07-05T08:18:41Z</time>
      </trkpt>
      <trkpt lat="42.4826600868" lon="19.8169026710">
        <ele>1554.59</ele>
        <time>2019-07-05T08:19:06Z</time>
      </trkpt>
      <trkpt lat="42.4825689755" lon="19.8167576641">
        <ele>1555.55</ele>
        <time>2019-07-05T08:19:33Z</time>
      </trkpt>
      <trkpt lat="42.4826146569" lon="19.8168357834">
        <ele>1556.03</ele>
        <time>2019-07-05T08:20:04Z</time>
      </trkpt>
      <trkpt lat="42.4826606736" lon="19.8169196863">
        <ele>1556.51</ele>
        <time>2019-07-05T08:20:37Z</time>
      </trkpt>
      <trkpt lat="42.4826754257" lon="19.8168728314">
        <ele>1556.99</ele>
        <time>2019-07-05T08:21:07Z</time>
      </trkpt>
      <trkpt lat="42.4825000763" lon="19.8168738373">
        <ele>1557.47</ele>
        <time>2019-07-05T08:21:35Z</time>
      </trkpt>
      <trkpt lat="42.4824146647" lon="19.8168049380">
        <ele>1557.47</ele>
        <time>2019-07-05T08:21:59Z</time>
      </trkpt>
      <trkpt lat="42.4824477732" lon="19.8169445805">
        <ele>1557.95</ele>
        <time>2019-07-05T08:22:17Z</time>
      </trkpt>
      <trkpt lat="42.4824497011" lon="19.8169224523">
        <ele>1557.95</ele>
        <time>2019-07-05T08:22:31Z</time>
      </trkpt>
      <trkpt lat="42.4824498687" lon="19.8168425728">
        <ele>1558.43</ele>
        <time>2019-07-05T08:22:50Z</time>
      </trkpt>
      <trkpt lat="42.4824440852" lon="19.8168521281">
        <ele>1559.40</ele>
        <time>2019-07-05T08:23:02Z</time>
      </trkpt>
      <trkpt lat="42.4824358709" lon="19.8168510385">
        <ele>1559.40</ele>
        <time>2019-07-05T08:23:03Z</time>
      </trkpt>
      <trkpt lat="42.4823902734" lon="19.8168123141">
        <ele>1559.88</ele>
        <time>2019-07-05T08:23:14Z</time>
      </trkpt>
      <trkpt lat="42.4823371321" lon="19.8167968914">
        <ele>1560.84</ele>
        <time>2019-07-05T08:23:24Z</time>
      </trkpt>
      <trkpt lat="42.4822715856" lon="19.8167556524">
        <ele>1562.28</ele>
        <time>2019-07-05T08:23:36Z</time>
      </trkpt>
      <trkpt lat="42.4821832404" lon="19.8167165089">
        <ele>1564.20</ele>
        <time>2019-07-05T08:23:48Z</time>
      </trkpt>
      <trkpt lat="42.4821410794" lon="19.8167402297">
        <ele>1565.64</ele>
        <time>2019-07-05T08:24:00Z</time>
      </trkpt>
      <trkpt lat="42.4820966553" lon="19.8167551495">
        <ele>1568.05</ele>
        <time>2019-07-05T08:24:11Z</time>
      </trkpt>
      <trkpt lat="42.4820058793" lon="19.8168139067">
        <ele>1569.97</ele>
        <time>2019-07-05T08:24:25Z</time>
      </trkpt>
      <trkpt lat="42.4819675740" lon="19.8168165050">
        <ele>1570.93</ele>
        <time>2019-07-05T08:24:36Z</time>
      </trkpt>
      <trkpt lat="42.4818886165" lon="19.8168051895">
        <ele>1572.85</ele>
        <time>2019-07-05T08:24:49Z</time>
      </trkpt>
      <trkpt lat="42.4818221480" lon="19.8168642819">
        <ele>1574.30</ele>
        <time>2019-07-05T08:24:59Z</time>
      </trkpt>
      <trkpt lat="42.4817337189" lon="19.8168468475">
        <ele>1575.26</ele>
        <time>2019-07-05T08:25:10Z</time>
      </trkpt>
      <trkpt lat="42.4816794042" lon="19.8168553971">
        <ele>1576.70</ele>
        <time>2019-07-05T08:25:20Z</time>
      </trkpt>
      <trkpt lat="42.4816389196" lon="19.8168356158">
        <ele>1577.18</ele>
        <time>2019-07-05T08:25:31Z</time>
      </trkpt>
      <trkpt lat="42.4815662485" lon="19.8168143257">
        <ele>1577.66</ele>
        <time>2019-07-05T08:25:43Z</time>
      </trkpt>
      <trkpt lat="42.4814872909" lon="19.8167820554">
        <ele>1577.66</ele>
        <time>2019-07-05T08:25:55Z</time>
      </trkpt>
      <trkpt lat="42.4814184755" lon="19.8167793732">
        <ele>1579.10</ele>
        <time>2019-07-05T08:26:06Z</time>
      </trkpt>
      <trkpt lat="42.4813504983" lon="19.8167703208">
        <ele>1580.54</ele>
        <time>2019-07-05T08:26:16Z</time>
      </trkpt>
      <trkpt lat="42.4813028891" lon="19.8167188559">
        <ele>1581.99</ele>
        <time>2019-07-05T08:26:29Z</time>
      </trkpt>
      <trkpt lat="42.4812487420" lon="19.8167269025">
        <ele>1583.43</ele>
        <time>2019-07-05T08:26:41Z</time>
      </trkpt>
      <trkpt lat="42.4812023062" lon="19.8167073727">
        <ele>1585.35</ele>
        <time>2019-07-05T08:26:50Z</time>
      </trkpt>
      <trkpt lat="42.4811526854" lon="19.8167037684">
        <ele>1585.35</ele>
        <time>2019-07-05T08:26:55Z</time>
      </trkpt>
      <trkpt lat="42.4811252765" lon="19.8167250585">
        <ele>1585.83</ele>
        <time>2019-07-05T08:26:59Z</time>
      </trkpt>
      <trkpt lat="42.4810566287" lon="19.8167415708">
        <ele>1587.75</ele>
        <time>2019-07-05T08:27:09Z</time>
      </trkpt>
      <trkpt lat="42.4809746537" lon="19.8167530540">
        <ele>1588.72</ele>
        <time>2019-07-05T08:27:23Z</time>
      </trkpt>
      <trkpt lat="42.4809147231" lon="19.8167709075">
        <ele>1590.64</ele>
        <time>2019-07-05T08:27:36Z</time>
      </trkpt>
      <trkpt lat="42.4808832910" lon="19.8167954665">
        <ele>1592.08</ele>
        <time>2019-07-05T08:27:47Z</time>
      </trkpt>
      <trkpt lat="42.4808392860" lon="19.8168425728">
        <ele>1594.00</ele>
        <time>2019-07-05T08:27:59Z</time>
      </trkpt>
      <trkpt lat="42.4807848036" lon="19.8168618511">
        <ele>1594.96</ele>
        <time>2019-07-05T08:28:09Z</time>
      </trkpt>
      <trkpt lat="42.4806917645" lon="19.8168430757">
        <ele>1596.41</ele>
        <time>2019-07-05T08:28:21Z</time>
      </trkpt>
      <trkpt lat="42.4806219433" lon="19.8168525472">
        <ele>1598.81</ele>
        <time>2019-07-05T08:28:33Z</time>
      </trkpt>
      <trkpt lat="42.4806108791" lon="19.8169237096">
        <ele>1599.77</ele>
        <time>2019-07-05T08:28:45Z</time>
      </trkpt>
      <trkpt lat="42.4806296546" lon="19.8169926088">
        <ele>1601.69</ele>
        <time>2019-07-05T08:28:57Z</time>
      </trkpt>
      <trkpt lat="42.4805620126" lon="19.8170358595">
        <ele>1603.62</ele>
        <time>2019-07-05T08:29:09Z</time>
      </trkpt>
      <trkpt lat="42.4805114698" lon="19.8170599155">
        <ele>1604.58</ele>
        <time>2019-07-05T08:29:16Z</time>
      </trkpt>
      <trkpt lat="42.4804598372" lon="19.8170848936">
        <ele>1605.54</ele>
        <time>2019-07-05T08:29:24Z</time>
      </trkpt>
      <trkpt lat="42.4804105517" lon="19.8171030823">
        <ele>1606.98</ele>
        <time>2019-07-05T08:29:36Z</time>
      </trkpt>
      <trkpt lat="42.4803958833" lon="19.8171097040">
        <ele>1607.46</ele>
        <time>2019-07-05T08:29:38Z</time>
      </trkpt>
      <trkpt lat="42.4803556502" lon="19.8171721492">
        <ele>1608.42</ele>
        <time>2019-07-05T08:29:47Z</time>
      </trkpt>
      <trkpt lat="42.4803538900" lon="19.8172405455">
        <ele>1608.42</ele>
        <time>2019-07-05T08:29:58Z</time>
      </trkpt>
      <trkpt lat="42.4803067837" lon="19.8172949441">
        <ele>1609.38</ele>
        <time>2019-07-05T08:30:10Z</time>
      </trkpt>
      <trkpt lat="42.4801880959" lon="19.8173626699">
        <ele>1610.83</ele>
        <time>2019-07-05T08:30:24Z</time>
      </trkpt>
      <trkpt lat="42.4801127426" lon="19.8173970357">
        <ele>1611.31</ele>
        <time>2019-07-05T08:30:35Z</time>
      </trkpt>
      <trkpt lat="42.4799899478" lon="19.8174233548">
        <ele>1612.75</ele>
        <time>2019-07-05T08:30:48Z</time>
      </trkpt>
      <trkpt lat="42.4799951445" lon="19.8174413759">
        <ele>1613.23</ele>
        <time>2019-07-05T08:30:50Z</time>
      </trkpt>
      <trkpt lat="42.4800000899" lon="19.8175227642">
        <ele>1615.15</ele>
        <time>2019-07-05T08:31:00Z</time>
      </trkpt>
      <trkpt lat="42.4799123313" lon="19.8175313137">
        <ele>1615.63</ele>
        <time>2019-07-05T08:31:11Z</time>
      </trkpt>
      <trkpt lat="42.4798426777" lon="19.8174982052">
        <ele>1616.59</ele>
        <time>2019-07-05T08:31:23Z</time>
      </trkpt>
      <trkpt lat="42.4797954038" lon="19.8174554575">
        <ele>1617.07</ele>
        <time>2019-07-05T08:31:34Z</time>
      </trkpt>
      <trkpt lat="42.4796955753" lon="19.8173782602">
        <ele>1619.00</ele>
        <time>2019-07-05T08:31:48Z</time>
      </trkpt>
      <trkpt lat="42.4797094055" lon="19.8173541203">
        <ele>1620.44</ele>
        <time>2019-07-05T08:31:58Z</time>
      </trkpt>
      <trkpt lat="42.4797103275" lon="19.8173480015">
        <ele>1620.44</ele>
        <time>2019-07-05T08:31:59Z</time>
      </trkpt>
      <trkpt lat="42.4796903785" lon="19.8173277173">
        <ele>1620.92</ele>
        <time>2019-07-05T08:32:02Z</time>
      </trkpt>
      <trkpt lat="42.4796279334" lon="19.8172549624">
        <ele>1622.36</ele>
        <time>2019-07-05T08:32:13Z</time>
      </trkpt>
      <trkpt lat="42.4795973394" lon="19.8172194231">
        <ele>1622.84</ele>
        <time>2019-07-05T08:32:20Z</time>
      </trkpt>
      <trkpt lat="42.4795157835" lon="19.8172346782">
        <ele>1624.28</ele>
        <time>2019-07-05T08:32:32Z</time>
      </trkpt>
      <trkpt lat="42.4794622231" lon="19.8172329180">
        <ele>1626.21</ele>
        <time>2019-07-05T08:32:42Z</time>
      </trkpt>
      <trkpt lat="42.4794469681" lon="19.8171901703">
        <ele>1628.13</ele>
        <time>2019-07-05T08:32:52Z</time>
      </trkpt>
      <trkpt lat="42.4793861993" lon="19.8171161581">
        <ele>1630.05</ele>
        <time>2019-07-05T08:33:06Z</time>
      </trkpt>
      <trkpt lat="42.4793330580" lon="19.8170351051">
        <ele>1632.46</ele>
        <time>2019-07-05T08:33:18Z</time>
      </trkpt>
      <trkpt lat="42.4793693516" lon="19.8169321753">
        <ele>1633.90</ele>
        <time>2019-07-05T08:33:32Z</time>
      </trkpt>
      <trkpt lat="42.4793371651" lon="19.8168596718">
        <ele>1636.30</ele>
        <time>2019-07-05T08:33:46Z</time>
      </trkpt>
      <trkpt lat="42.4792964291" lon="19.8167901020">
        <ele>1637.74</ele>
        <time>2019-07-05T08:33:58Z</time>
      </trkpt>
      <trkpt lat="42.4792817608" lon="19.8168505356">
        <ele>1639.67</ele>
        <time>2019-07-05T08:34:10Z</time>
      </trkpt>
      <trkpt lat="42.4792433716" lon="19.8168861587">
        <ele>1641.11</ele>
        <time>2019-07-05T08:34:17Z</time>
      </trkpt>
      <trkpt lat="42.4791777413" lon="19.8168764357">
        <ele>1642.55</ele>
        <time>2019-07-05T08:34:29Z</time>
      </trkpt>
      <trkpt lat="42.4791753106" lon="19.8168709874">
        <ele>1642.55</ele>
        <time>2019-07-05T08:34:30Z</time>
      </trkpt>
      <trkpt lat="42.4791733827" lon="19.8168498650">
        <ele>1643.51</ele>
        <time>2019-07-05T08:34:35Z</time>
      </trkpt>
      <trkpt lat="42.4791488238" lon="19.8168007471">
        <ele>1644.95</ele>
        <time>2019-07-05T08:34:47Z</time>
      </trkpt>
      <trkpt lat="42.4790931679" lon="19.8167458456">
        <ele>1646.88</ele>
        <time>2019-07-05T08:34:57Z</time>
      </trkpt>
      <trkpt lat="42.4790385179" lon="19.8167171795">
        <ele>1648.32</ele>
        <time>2019-07-05T08:35:07Z</time>
      </trkpt>
      <trkpt lat="42.4790014699" lon="19.8166603502">
        <ele>1650.24</ele>
        <time>2019-07-05T08:35:19Z</time>
      </trkpt>
      <trkpt lat="42.4789884780" lon="19.8165648803">
        <ele>1652.16</ele>
        <time>2019-07-05T08:35:34Z</time>
      </trkpt>
      <trkpt lat="42.4790080916" lon="19.8164883535">
        <ele>1653.60</ele>
        <time>2019-07-05T08:35:48Z</time>
      </trkpt>
      <trkpt lat="42.4790056609" lon="19.8164717574">
        <ele>1654.57</ele>
        <time>2019-07-05T08:35:56Z</time>
      </trkpt>
      <trkpt lat="42.4789888971" lon="19.8164680693">
        <ele>1655.05</ele>
        <time>2019-07-05T08:35:58Z</time>
      </trkpt>
      <trkpt lat="42.4789987039" lon="19.8165127449">
        <ele>1656.01</ele>
        <time>2019-07-05T08:36:07Z</time>
      </trkpt>
      <trkpt lat="42.4789799284" lon="19.8165119905">
        <ele>1657.45</ele>
        <time>2019-07-05T08:36:17Z</time>
      </trkpt>
      <trkpt lat="42.4789301399" lon="19.8165101465">
        <ele>1658.89</ele>
        <time>2019-07-05T08:36:27Z</time>
      </trkpt>
      <trkpt lat="42.4788400345" lon="19.8164854199">
        <ele>1660.33</ele>
        <time>2019-07-05T08:36:39Z</time>
      </trkpt>
      <trkpt lat="42.4787609931" lon="19.8164320271">
        <ele>1662.74</ele>
        <time>2019-07-05T08:36:53Z</time>
      </trkpt>
      <trkpt lat="42.4786847178" lon="19.8163881060">
        <ele>1663.22</ele>
        <time>2019-07-05T08:37:04Z</time>
      </trkpt>
      <trkpt lat="42.4786442332" lon="19.8163860943">
        <ele>1665.14</ele>
        <time>2019-07-05T08:37:15Z</time>
      </trkpt>
      <trkpt lat="42.4785714783" lon="19.8163620383">
        <ele>1666.58</ele>
        <time>2019-07-05T08:37:25Z</time>
      </trkpt>
      <trkpt lat="42.4785348494" lon="19.8163383175">
        <ele>1668.02</ele>
        <time>2019-07-05T08:37:35Z</time>
      </trkpt>
      <trkpt lat="42.4785233662" lon="19.8163941409">
        <ele>1670.43</ele>
        <time>2019-07-05T08:37:50Z</time>
      </trkpt>
      <trkpt lat="42.4785270542" lon="19.8164158501">
        <ele>1671.87</ele>
        <time>2019-07-05T08:38:01Z</time>
      </trkpt>
      <trkpt lat="42.4784899224" lon="19.8164033610">
        <ele>1673.31</ele>
        <time>2019-07-05T08:38:13Z</time>
      </trkpt>
      <trkpt lat="42.4784426484" lon="19.8163816519">
        <ele>1675.23</ele>
        <time>2019-07-05T08:38:25Z</time>
      </trkpt>
      <trkpt lat="42.4783791974" lon="19.8163913749">
        <ele>1677.16</ele>
        <time>2019-07-05T08:38:37Z</time>
      </trkpt>
      <trkpt lat="42.4783114716" lon="19.8163750302">
        <ele>1677.64</ele>
        <time>2019-07-05T08:38:48Z</time>
      </trkpt>
      <trkpt lat="42.4782672990" lon="19.8163790535">
        <ele>1679.56</ele>
        <time>2019-07-05T08:38:58Z</time>
      </trkpt>
      <trkpt lat="42.4782446679" lon="19.8163648881">
        <ele>1681.48</ele>
        <time>2019-07-05T08:39:08Z</time>
      </trkpt>
      <trkpt lat="42.4781890120" lon="19.8163268343">
        <ele>1682.93</ele>
        <time>2019-07-05T08:39:20Z</time>
      </trkpt>
      <trkpt lat="42.4781652912" lon="19.8163591884">
        <ele>1684.37</ele>
        <time>2019-07-05T08:39:31Z</time>
      </trkpt>
      <trkpt lat="42.4781708233" lon="19.8163952306">
        <ele>1685.81</ele>
        <time>2019-07-05T08:39:41Z</time>
      </trkpt>
      <trkpt lat="42.4781325180" lon="19.8163944762">
        <ele>1687.73</ele>
        <time>2019-07-05T08:39:51Z</time>
      </trkpt>
      <trkpt lat="42.4780267384" lon="19.8163306899">
        <ele>1689.17</ele>
        <time>2019-07-05T08:40:04Z</time>
      </trkpt>
      <trkpt lat="42.4780184403" lon="19.8163100705">
        <ele>1691.10</ele>
        <time>2019-07-05T08:40:15Z</time>
      </trkpt>
      <trkpt lat="42.4780145008" lon="19.8163105734">
        <ele>1691.58</ele>
        <time>2019-07-05T08:40:17Z</time>
      </trkpt>
      <trkpt lat="42.4780005030" lon="19.8163554166">
        <ele>1693.02</ele>
        <time>2019-07-05T08:40:29Z</time>
      </trkpt>
      <trkpt lat="42.4779792130" lon="19.8163748626">
        <ele>1694.94</ele>
        <time>2019-07-05T08:40:42Z</time>
      </trkpt>
      <trkpt lat="42.4779747706" lon="19.8163791373">
        <ele>1694.94</ele>
        <time>2019-07-05T08:40:43Z</time>
      </trkpt>
      <trkpt lat="42.4779046141" lon="19.8163762875">
        <ele>1697.83</ele>
        <time>2019-07-05T08:40:57Z</time>
      </trkpt>
      <trkpt lat="42.4778936338" lon="19.8163785506">
        <ele>1699.75</ele>
        <time>2019-07-05T08:41:09Z</time>
      </trkpt>
      <trkpt lat="42.4778459407" lon="19.8163408320">
        <ele>1701.19</ele>
        <time>2019-07-05T08:41:20Z</time>
      </trkpt>
      <trkpt lat="42.4778336193" lon="19.8163361382">
        <ele>1701.67</ele>
        <time>2019-07-05T08:41:22Z</time>
      </trkpt>
      <trkpt lat="42.4778002594" lon="19.8163264152">
        <ele>1702.63</ele>
        <time>2019-07-05T08:41:25Z</time>
      </trkpt>
      <trkpt lat="42.4777497165" lon="19.8163187038">
        <ele>1703.11</ele>
        <time>2019-07-05T08:41:30Z</time>
      </trkpt>
      <trkpt lat="42.4776622094" lon="19.8162781354">
        <ele>1704.55</ele>
        <time>2019-07-05T08:41:42Z</time>
      </trkpt>
      <trkpt lat="42.4776526541" lon="19.8162714299">
        <ele>1706.00</ele>
        <time>2019-07-05T08:41:50Z</time>
      </trkpt>
      <trkpt lat="42.4776373990" lon="19.8162212223">
        <ele>1707.92</ele>
        <time>2019-07-05T08:42:02Z</time>
      </trkpt>
      <trkpt lat="42.4775831681" lon="19.8161737807">
        <ele>1709.36</ele>
        <time>2019-07-05T08:42:15Z</time>
      </trkpt>
      <trkpt lat="42.4775056355" lon="19.8160984274">
        <ele>1710.80</ele>
        <time>2019-07-05T08:42:26Z</time>
      </trkpt>
      <trkpt lat="42.4774213135" lon="19.8160725273">
        <ele>1713.69</ele>
        <time>2019-07-05T08:42:41Z</time>
      </trkpt>
      <trkpt lat="42.4773265142" lon="19.8160069808">
        <ele>1716.09</ele>
        <time>2019-07-05T08:42:55Z</time>
      </trkpt>
      <trkpt lat="42.4772816710" lon="19.8159719445">
        <ele>1717.53</ele>
        <time>2019-07-05T08:43:08Z</time>
      </trkpt>
      <trkpt lat="42.4772162922" lon="19.8159791529">
        <ele>1718.97</ele>
        <time>2019-07-05T08:43:21Z</time>
      </trkpt>
      <trkpt lat="42.4772215728" lon="19.8159680050">
        <ele>1721.38</ele>
        <time>2019-07-05T08:43:33Z</time>
      </trkpt>
      <trkpt lat="42.4771561939" lon="19.8159500677">
        <ele>1723.30</ele>
        <time>2019-07-05T08:43:46Z</time>
      </trkpt>
      <trkpt lat="42.4770862889" lon="19.8159113433">
        <ele>1725.70</ele>
        <time>2019-07-05T08:44:02Z</time>
      </trkpt>
      <trkpt lat="42.4770149589" lon="19.8158901371">
        <ele>1728.11</ele>
        <time>2019-07-05T08:44:17Z</time>
      </trkpt>
      <trkpt lat="42.4769519269" lon="19.8158468865">
        <ele>1730.51</ele>
        <time>2019-07-05T08:44:31Z</time>
      </trkpt>
      <trkpt lat="42.4768648390" lon="19.8158039711">
        <ele>1732.43</ele>
        <time>2019-07-05T08:44:44Z</time>
      </trkpt>
      <trkpt lat="42.4767869711" lon="19.8157675099">
        <ele>1733.88</ele>
        <time>2019-07-05T08:44:57Z</time>
      </trkpt>
      <trkpt lat="42.4767723028" lon="19.8157592956">
        <ele>1734.36</ele>
        <time>2019-07-05T08:45:01Z</time>
      </trkpt>
      <trkpt lat="42.4767031521" lon="19.8157465551">
        <ele>1735.80</ele>
        <time>2019-07-05T08:45:12Z</time>
      </trkpt>
      <trkpt lat="42.4766222667" lon="19.8157192301">
        <ele>1738.20</ele>
        <time>2019-07-05T08:45:25Z</time>
      </trkpt>
      <trkpt lat="42.4765599892" lon="19.8157225829">
        <ele>1739.64</ele>
        <time>2019-07-05T08:45:36Z</time>
      </trkpt>
      <trkpt lat="42.4765296467" lon="19.8157250136">
        <ele>1741.08</ele>
        <time>2019-07-05T08:45:48Z</time>
      </trkpt>
      <trkpt lat="42.4764573947" lon="19.8157120217">
        <ele>1741.57</ele>
        <time>2019-07-05T08:45:58Z</time>
      </trkpt>
      <trkpt lat="42.4763947818" lon="19.8157058191">
        <ele>1743.01</ele>
        <time>2019-07-05T08:46:09Z</time>
      </trkpt>
      <trkpt lat="42.4763510283" lon="19.8156779911">
        <ele>1743.01</ele>
        <time>2019-07-05T08:46:27Z</time>
      </trkpt>
      <trkpt lat="42.4763048440" lon="19.8156751413">
        <ele>1743.97</ele>
        <time>2019-07-05T08:46:37Z</time>
      </trkpt>
      <trkpt lat="42.4762016628" lon="19.8156864569">
        <ele>1745.41</ele>
        <time>2019-07-05T08:46:50Z</time>
      </trkpt>
      <trkpt lat="42.4761528801" lon="19.8157031368">
        <ele>1746.37</ele>
        <time>2019-07-05T08:46:57Z</time>
      </trkpt>
      <trkpt lat="42.4761056062" lon="19.8157049809">
        <ele>1746.85</ele>
        <time>2019-07-05T08:47:04Z</time>
      </trkpt>
      <trkpt lat="42.4759947136" lon="19.8156882171">
        <ele>1747.81</ele>
        <time>2019-07-05T08:47:16Z</time>
      </trkpt>
      <trkpt lat="42.4758917000" lon="19.8156667594">
        <ele>1747.81</ele>
        <time>2019-07-05T08:47:28Z</time>
      </trkpt>
      <trkpt lat="42.4758072942" lon="19.8156738840">
        <ele>1749.26</ele>
        <time>2019-07-05T08:47:39Z</time>
      </trkpt>
      <trkpt lat="42.4757655524" lon="19.8156568687">
        <ele>1749.26</ele>
        <time>2019-07-05T08:47:45Z</time>
      </trkpt>
      <trkpt lat="42.4756643828" lon="19.8156322259">
        <ele>1747.81</ele>
        <time>2019-07-05T08:47:56Z</time>
      </trkpt>
      <trkpt lat="42.4755997583" lon="19.8156071641">
        <ele>1749.26</ele>
        <time>2019-07-05T08:48:03Z</time>
      </trkpt>
      <trkpt lat="42.4754859321" lon="19.8155734688">
        <ele>1750.22</ele>
        <time>2019-07-05T08:48:15Z</time>
      </trkpt>
      <trkpt lat="42.4753604550" lon="19.8155049887">
        <ele>1750.70</ele>
        <time>2019-07-05T08:48:30Z</time>
      </trkpt>
      <trkpt lat="42.4752702657" lon="19.8154585529">
        <ele>1750.70</ele>
        <time>2019-07-05T08:48:42Z</time>
      </trkpt>
      <trkpt lat="42.4751583673" lon="19.8154038191">
        <ele>1751.18</ele>
        <time>2019-07-05T08:48:54Z</time>
      </trkpt>
      <trkpt lat="42.4750901386" lon="19.8153478280">
        <ele>1751.66</ele>
        <time>2019-07-05T08:49:05Z</time>
      </trkpt>
      <trkpt lat="42.4750342313" lon="19.8153099418">
        <ele>1751.66</ele>
        <time>2019-07-05T08:49:11Z</time>
      </trkpt>
      <trkpt lat="42.4749629851" lon="19.8152745701">
        <ele>1752.14</ele>
        <time>2019-07-05T08:49:25Z</time>
      </trkpt>
      <trkpt lat="42.4748795852" lon="19.8152099457">
        <ele>1752.62</ele>
        <time>2019-07-05T08:49:37Z</time>
      </trkpt>
      <trkpt lat="42.4748047348" lon="19.8151021544">
        <ele>1754.06</ele>
        <time>2019-07-05T08:49:50Z</time>
      </trkpt>
      <trkpt lat="42.4747308064" lon="19.8149707261">
        <ele>1754.06</ele>
        <time>2019-07-05T08:50:03Z</time>
      </trkpt>
      <trkpt lat="42.4746385217" lon="19.8148288205">
        <ele>1754.06</ele>
        <time>2019-07-05T08:50:16Z</time>
      </trkpt>
      <trkpt lat="42.4745229352" lon="19.8147330992">
        <ele>1754.54</ele>
        <time>2019-07-05T08:50:28Z</time>
      </trkpt>
      <trkpt lat="42.4744199216" lon="19.8146652896">
        <ele>1755.02</ele>
        <time>2019-07-05T08:50:41Z</time>
      </trkpt>
      <trkpt lat="42.4743461609" lon="19.8145951331">
        <ele>1755.50</ele>
        <time>2019-07-05T08:50:54Z</time>
      </trkpt>
      <trkpt lat="42.4742452428" lon="19.8145111464">
        <ele>1755.99</ele>
        <time>2019-07-05T08:51:09Z</time>
      </trkpt>
      <trkpt lat="42.4742198456" lon="19.8144703265">
        <ele>1755.99</ele>
        <time>2019-07-05T08:51:12Z</time>
      </trkpt>
      <trkpt lat="42.4741138145" lon="19.8143527284">
        <ele>1757.43</ele>
        <time>2019-07-05T08:51:25Z</time>
      </trkpt>
      <trkpt lat="42.4739333522" lon="19.8141146824">
        <ele>1758.39</ele>
        <time>2019-07-05T08:51:39Z</time>
      </trkpt>
      <trkpt lat="42.4739346933" lon="19.8141275067">
        <ele>1758.87</ele>
        <time>2019-07-05T08:51:47Z</time>
      </trkpt>
      <trkpt lat="42.4738574121" lon="19.8140520696">
        <ele>1759.83</ele>
        <time>2019-07-05T08:52:02Z</time>
      </trkpt>
      <trkpt lat="42.4737800471" lon="19.8139448650">
        <ele>1761.27</ele>
        <time>2019-07-05T08:52:15Z</time>
      </trkpt>
      <trkpt lat="42.4736709986" lon="19.8138482217">
        <ele>1762.23</ele>
        <time>2019-07-05T08:52:29Z</time>
      </trkpt>
      <trkpt lat="42.4735645484" lon="19.8138369899">
        <ele>1764.16</ele>
        <time>2019-07-05T08:52:42Z</time>
      </trkpt>
      <trkpt lat="42.4734938890" lon="19.8137516622">
        <ele>1765.12</ele>
        <time>2019-07-05T08:52:55Z</time>
      </trkpt>
      <trkpt lat="42.4733901210" lon="19.8136428650">
        <ele>1765.12</ele>
        <time>2019-07-05T08:53:07Z</time>
      </trkpt>
      <trkpt lat="42.4732990935" lon="19.8135324754">
        <ele>1765.12</ele>
        <time>2019-07-05T08:53:17Z</time>
      </trkpt>
      <trkpt lat="42.4731371552" lon="19.8133695312">
        <ele>1766.08</ele>
        <time>2019-07-05T08:53:30Z</time>
      </trkpt>
      <trkpt lat="42.4730139412" lon="19.8133040685">
        <ele>1768.00</ele>
        <time>2019-07-05T08:53:44Z</time>
      </trkpt>
      <trkpt lat="42.4729067367" lon="19.8132607341">
        <ele>1769.44</ele>
        <time>2019-07-05T08:53:56Z</time>
      </trkpt>
      <trkpt lat="42.4728656653" lon="19.8132404499">
        <ele>1769.44</ele>
        <time>2019-07-05T08:54:01Z</time>
      </trkpt>
      <trkpt lat="42.4727881327" lon="19.8131982051">
        <ele>1770.41</ele>
        <time>2019-07-05T08:54:16Z</time>
      </trkpt>
      <trkpt lat="42.4726968538" lon="19.8132762406">
        <ele>1770.89</ele>
        <time>2019-07-05T08:54:28Z</time>
      </trkpt>
      <trkpt lat="42.4725987855" lon="19.8132473230">
        <ele>1771.37</ele>
        <time>2019-07-05T08:54:39Z</time>
      </trkpt>
      <trkpt lat="42.4725500029" lon="19.8132069223">
        <ele>1771.37</ele>
        <time>2019-07-05T08:54:46Z</time>
      </trkpt>
      <trkpt lat="42.4725415371" lon="19.8131956905">
        <ele>1771.37</ele>
        <time>2019-07-05T08:54:47Z</time>
      </trkpt>
      <trkpt lat="42.4724563770" lon="19.8131956905">
        <ele>1771.37</ele>
        <time>2019-07-05T08:54:57Z</time>
      </trkpt>
      <trkpt lat="42.4724341650" lon="19.8131774180">
        <ele>1771.85</ele>
        <time>2019-07-05T08:55:00Z</time>
      </trkpt>
      <trkpt lat="42.4724120367" lon="19.8131751548">
        <ele>1770.41</ele>
        <time>2019-07-05T08:55:02Z</time>
      </trkpt>
      <trkpt lat="42.4723248649" lon="19.8131634202">
        <ele>1769.92</ele>
        <time>2019-07-05T08:55:15Z</time>
      </trkpt>
      <trkpt lat="42.4723066762" lon="19.8131661024">
        <ele>1769.92</ele>
        <time>2019-07-05T08:55:17Z</time>
      </trkpt>
      <trkpt lat="42.4721798580" lon="19.8131634202">
        <ele>1769.44</ele>
        <time>2019-07-05T08:55:31Z</time>
      </trkpt>
      <trkpt lat="42.4720390420" lon="19.8131416272">
        <ele>1769.92</ele>
        <time>2019-07-05T08:55:45Z</time>
      </trkpt>
      <trkpt lat="42.4720220268" lon="19.8131385259">
        <ele>1769.92</ele>
        <time>2019-07-05T08:55:47Z</time>
      </trkpt>
      <trkpt lat="42.4719693884" lon="19.8131180741">
        <ele>1770.89</ele>
        <time>2019-07-05T08:55:53Z</time>
      </trkpt>
      <trkpt lat="42.4719158281" lon="19.8131226841">
        <ele>1771.37</ele>
        <time>2019-07-05T08:55:59Z</time>
      </trkpt>
      <trkpt lat="42.4717538059" lon="19.8130743206">
        <ele>1769.92</ele>
        <time>2019-07-05T08:56:14Z</time>
      </trkpt>
      <trkpt lat="42.4717110582" lon="19.8130683694">
        <ele>1769.92</ele>
        <time>2019-07-05T08:56:19Z</time>
      </trkpt>
      <trkpt lat="42.4717023410" lon="19.8130345903">
        <ele>1769.92</ele>
        <time>2019-07-05T08:56:21Z</time>
      </trkpt>
      <trkpt lat="42.4715434201" lon="19.8129282240">
        <ele>1769.44</ele>
        <time>2019-07-05T08:56:37Z</time>
      </trkpt>
      <trkpt lat="42.4715320207" lon="19.8129075207">
        <ele>1769.44</ele>
        <time>2019-07-05T08:56:39Z</time>
      </trkpt>
      <trkpt lat="42.4714026041" lon="19.8128117155">
        <ele>1768.96</ele>
        <time>2019-07-05T08:56:54Z</time>
      </trkpt>
      <trkpt lat="42.4713280890" lon="19.8128751665">
        <ele>1768.96</ele>
        <time>2019-07-05T08:57:05Z</time>
      </trkpt>
      <trkpt lat="42.4712309428" lon="19.8128841352">
        <ele>1767.52</ele>
        <time>2019-07-05T08:57:18Z</time>
      </trkpt>
      <trkpt lat="42.4711965770" lon="19.8128636833">
        <ele>1767.04</ele>
        <time>2019-07-05T08:57:22Z</time>
      </trkpt>
      <trkpt lat="42.4710516538" lon="19.8128660303">
        <ele>1765.12</ele>
        <time>2019-07-05T08:57:36Z</time>
      </trkpt>
      <trkpt lat="42.4709893763" lon="19.8128832132">
        <ele>1765.12</ele>
        <time>2019-07-05T08:57:48Z</time>
      </trkpt>
      <trkpt lat="42.4709410965" lon="19.8128485121">
        <ele>1764.64</ele>
        <time>2019-07-05T08:57:57Z</time>
      </trkpt>
      <trkpt lat="42.4708987679" lon="19.8127993941">
        <ele>1763.68</ele>
        <time>2019-07-05T08:58:10Z</time>
      </trkpt>
      <trkpt lat="42.4708995223" lon="19.8127717339">
        <ele>1763.20</ele>
        <time>2019-07-05T08:58:16Z</time>
      </trkpt>
      <trkpt lat="42.4708564393" lon="19.8127829656">
        <ele>1763.20</ele>
        <time>2019-07-05T08:58:20Z</time>
      </trkpt>
      <trkpt lat="42.4707679264" lon="19.8128820397">
        <ele>1762.23</ele>
        <time>2019-07-05T08:58:30Z</time>
      </trkpt>
      <trkpt lat="42.4707493186" lon="19.8128788546">
        <ele>1761.75</ele>
        <time>2019-07-05T08:58:32Z</time>
      </trkpt>
      <trkpt lat="42.4706877954" lon="19.8129273020">
        <ele>1761.27</ele>
        <time>2019-07-05T08:58:39Z</time>
      </trkpt>
      <trkpt lat="42.4706676789" lon="19.8129306547">
        <ele>1760.79</ele>
        <time>2019-07-05T08:58:41Z</time>
      </trkpt>
      <trkpt lat="42.4706240930" lon="19.8129398748">
        <ele>1759.83</ele>
        <time>2019-07-05T08:58:45Z</time>
      </trkpt>
      <trkpt lat="42.4705500808" lon="19.8129918426">
        <ele>1759.83</ele>
        <time>2019-07-05T08:58:52Z</time>
      </trkpt>
      <trkpt lat="42.4705145415" lon="19.8130321596">
        <ele>1759.83</ele>
        <time>2019-07-05T08:58:57Z</time>
      </trkpt>
      <trkpt lat="42.4704732187" lon="19.8130474985">
        <ele>1758.87</ele>
        <time>2019-07-05T08:59:00Z</time>
      </trkpt>
      <trkpt lat="42.4704443011" lon="19.8130856361">
        <ele>1758.87</ele>
        <time>2019-07-05T08:59:04Z</time>
      </trkpt>
      <trkpt lat="42.4703432154" lon="19.8131290544">
        <ele>1757.91</ele>
        <time>2019-07-05T08:59:15Z</time>
      </trkpt>
      <trkpt lat="42.4703360070" lon="19.8131376877">
        <ele>1757.91</ele>
        <time>2019-07-05T08:59:16Z</time>
      </trkpt>
      <trkpt lat="42.4701954424" lon="19.8132060003">
        <ele>1755.50</ele>
        <time>2019-07-05T08:59:28Z</time>
      </trkpt>
      <trkpt lat="42.4700787663" lon="19.8132775817">
        <ele>1754.54</ele>
        <time>2019-07-05T08:59:41Z</time>
      </trkpt>
      <trkpt lat="42.4700123817" lon="19.8133881390">
        <ele>1754.06</ele>
        <time>2019-07-05T08:59:53Z</time>
      </trkpt>
      <trkpt lat="42.4699069373" lon="19.8134323955">
        <ele>1753.58</ele>
        <time>2019-07-05T09:00:06Z</time>
      </trkpt>
      <trkpt lat="42.4698070250" lon="19.8134774901">
        <ele>1753.58</ele>
        <time>2019-07-05T09:00:18Z</time>
      </trkpt>
      <trkpt lat="42.4697434902" lon="19.8134421185">
        <ele>1753.58</ele>
        <time>2019-07-05T09:00:27Z</time>
      </trkpt>
      <trkpt lat="42.4696795363" lon="19.8134650011">
        <ele>1755.02</ele>
        <time>2019-07-05T09:00:35Z</time>
      </trkpt>
      <trkpt lat="42.4695935380" lon="19.8134863749">
        <ele>1755.50</ele>
        <time>2019-07-05T09:00:46Z</time>
      </trkpt>
      <trkpt lat="42.4695074558" lon="19.8135261051">
        <ele>1755.50</ele>
        <time>2019-07-05T09:01:01Z</time>
      </trkpt>
      <trkpt lat="42.4695015885" lon="19.8135258537">
        <ele>1755.50</ele>
        <time>2019-07-05T09:01:03Z</time>
      </trkpt>
      <trkpt lat="42.4694923684" lon="19.8135253508">
        <ele>1755.50</ele>
        <time>2019-07-05T09:01:04Z</time>
      </trkpt>
      <trkpt lat="42.4694125727" lon="19.8135437910">
        <ele>1756.95</ele>
        <time>2019-07-05T09:01:15Z</time>
      </trkpt>
      <trkpt lat="42.4693453498" lon="19.8135748040">
        <ele>1756.95</ele>
        <time>2019-07-05T09:01:23Z</time>
      </trkpt>
      <trkpt lat="42.4692390673" lon="19.8136631493">
        <ele>1758.39</ele>
        <time>2019-07-05T09:01:37Z</time>
      </trkpt>
      <trkpt lat="42.4691372272" lon="19.8137380835">
        <ele>1759.83</ele>
        <time>2019-07-05T09:01:50Z</time>
      </trkpt>
      <trkpt lat="42.4689913820" lon="19.8138110060">
        <ele>1760.31</ele>
        <time>2019-07-05T09:02:04Z</time>
      </trkpt>
      <trkpt lat="42.4689733610" lon="19.8138208967">
        <ele>1760.31</ele>
        <time>2019-07-05T09:02:06Z</time>
      </trkpt>
      <trkpt lat="42.4689306132" lon="19.8138224892">
        <ele>1760.31</ele>
        <time>2019-07-05T09:02:11Z</time>
      </trkpt>
      <trkpt lat="42.4688854348" lon="19.8138632253">
        <ele>1760.31</ele>
        <time>2019-07-05T09:02:18Z</time>
      </trkpt>
      <trkpt lat="42.4688007776" lon="19.8139209766">
        <ele>1760.79</ele>
        <time>2019-07-05T09:02:30Z</time>
      </trkpt>
      <trkpt lat="42.4687921442" lon="19.8139366508">
        <ele>1760.79</ele>
        <time>2019-07-05T09:02:32Z</time>
      </trkpt>
      <trkpt lat="42.4687447865" lon="19.8139638919">
        <ele>1761.75</ele>
        <time>2019-07-05T09:02:37Z</time>
      </trkpt>
      <trkpt lat="42.4687026255" lon="19.8140166141">
        <ele>1762.71</ele>
        <time>2019-07-05T09:02:48Z</time>
      </trkpt>
      <trkpt lat="42.4686774798" lon="19.8140384071">
        <ele>1762.71</ele>
        <time>2019-07-05T09:02:52Z</time>
      </trkpt>
      <trkpt lat="42.4686545972" lon="19.8140673246">
        <ele>1763.68</ele>
        <time>2019-07-05T09:03:04Z</time>
      </trkpt>
      <trkpt lat="42.4686412700" lon="19.8140666541">
        <ele>1763.68</ele>
        <time>2019-07-05T09:03:07Z</time>
      </trkpt>
      <trkpt lat="42.4685252644" lon="19.8141048755">
        <ele>1763.68</ele>
        <time>2019-07-05T09:03:19Z</time>
      </trkpt>
      <trkpt lat="42.4685183074" lon="19.8141084798">
        <ele>1763.68</ele>
        <time>2019-07-05T09:03:20Z</time>
      </trkpt>
      <trkpt lat="42.4684349913" lon="19.8141673207">
        <ele>1764.64</ele>
        <time>2019-07-05T09:03:35Z</time>
      </trkpt>
      <trkpt lat="42.4684178922" lon="19.8141756188">
        <ele>1764.64</ele>
        <time>2019-07-05T09:03:37Z</time>
      </trkpt>
      <trkpt lat="42.4683265295" lon="19.8141889460">
        <ele>1764.64</ele>
        <time>2019-07-05T09:03:46Z</time>
      </trkpt>
      <trkpt lat="42.4682785012" lon="19.8142018542">
        <ele>1763.68</ele>
        <time>2019-07-05T09:03:52Z</time>
      </trkpt>
      <trkpt lat="42.4681912456" lon="19.8142013513">
        <ele>1763.68</ele>
        <time>2019-07-05T09:04:03Z</time>
      </trkpt>
      <trkpt lat="42.4681223463" lon="19.8142531514">
        <ele>1765.12</ele>
        <time>2019-07-05T09:04:13Z</time>
      </trkpt>
      <trkpt lat="42.4679987133" lon="19.8143475316">
        <ele>1765.60</ele>
        <time>2019-07-05T09:04:29Z</time>
      </trkpt>
      <trkpt lat="42.4679472484" lon="19.8143540695">
        <ele>1766.56</ele>
        <time>2019-07-05T09:04:44Z</time>
      </trkpt>
      <trkpt lat="42.4678841326" lon="19.8143243976">
        <ele>1765.60</ele>
        <time>2019-07-05T09:05:09Z</time>
      </trkpt>
      <trkpt lat="42.4677196797" lon="19.8144200351">
        <ele>1765.60</ele>
        <time>2019-07-05T09:05:25Z</time>
      </trkpt>
      <trkpt lat="42.4676991440" lon="19.8144252319">
        <ele>1765.60</ele>
        <time>2019-07-05T09:05:27Z</time>
      </trkpt>
      <trkpt lat="42.4676770996" lon="19.8144355416">
        <ele>1765.60</ele>
        <time>2019-07-05T09:05:29Z</time>
      </trkpt>
      <trkpt lat="42.4676091224" lon="19.8145022616">
        <ele>1766.08</ele>
        <time>2019-07-05T09:05:37Z</time>
      </trkpt>
      <trkpt lat="42.4675916880" lon="19.8145140801">
        <ele>1767.04</ele>
        <time>2019-07-05T09:05:39Z</time>
      </trkpt>
      <trkpt lat="42.4674947932" lon="19.8145716637">
        <ele>1767.52</ele>
        <time>2019-07-05T09:05:51Z</time>
      </trkpt>
      <trkpt lat="42.4673989043" lon="19.8145394772">
        <ele>1769.44</ele>
        <time>2019-07-05T09:06:04Z</time>
      </trkpt>
      <trkpt lat="42.4673805479" lon="19.8144948855">
        <ele>1770.41</ele>
        <time>2019-07-05T09:06:11Z</time>
      </trkpt>
      <trkpt lat="42.4673062004" lon="19.8144126590">
        <ele>1771.85</ele>
        <time>2019-07-05T09:06:24Z</time>
      </trkpt>
      <trkpt lat="42.4672353733" lon="19.8143756110">
        <ele>1772.33</ele>
        <time>2019-07-05T09:06:36Z</time>
      </trkpt>
      <trkpt lat="42.4671835732" lon="19.8142495472">
        <ele>1773.77</ele>
        <time>2019-07-05T09:06:50Z</time>
      </trkpt>
      <trkpt lat="42.4671557453" lon="19.8141768761">
        <ele>1774.25</ele>
        <time>2019-07-05T09:06:58Z</time>
      </trkpt>
      <trkpt lat="42.4671253189" lon="19.8141258303">
        <ele>1774.73</ele>
        <time>2019-07-05T09:07:04Z</time>
      </trkpt>
      <trkpt lat="42.4670922942" lon="19.8140802328">
        <ele>1774.73</ele>
        <time>2019-07-05T09:07:09Z</time>
      </trkpt>
      <trkpt lat="42.4669851735" lon="19.8140648101">
        <ele>1773.77</ele>
        <time>2019-07-05T09:07:19Z</time>
      </trkpt>
      <trkpt lat="42.4669641349" lon="19.8139700107">
        <ele>1774.73</ele>
        <time>2019-07-05T09:07:29Z</time>
      </trkpt>
      <trkpt lat="42.4668947328" lon="19.8138467968">
        <ele>1775.69</ele>
        <time>2019-07-05T09:07:42Z</time>
      </trkpt>
      <trkpt lat="42.4668669887" lon="19.8138351459">
        <ele>1774.25</ele>
        <time>2019-07-05T09:07:45Z</time>
      </trkpt>
      <trkpt lat="42.4668565951" lon="19.8138393369">
        <ele>1774.25</ele>
        <time>2019-07-05T09:07:46Z</time>
      </trkpt>
      <trkpt lat="42.4667979218" lon="19.8138592858">
        <ele>1775.69</ele>
        <time>2019-07-05T09:07:53Z</time>
      </trkpt>
      <trkpt lat="42.4667508993" lon="19.8138719425">
        <ele>1774.25</ele>
        <time>2019-07-05T09:07:59Z</time>
      </trkpt>
      <trkpt lat="42.4666162021" lon="19.8139007762">
        <ele>1771.85</ele>
        <time>2019-07-05T09:08:11Z</time>
      </trkpt>
      <trkpt lat="42.4665660784" lon="19.8138383310">
        <ele>1773.29</ele>
        <time>2019-07-05T09:08:21Z</time>
      </trkpt>
      <trkpt lat="42.4665357359" lon="19.8138326313">
        <ele>1773.77</ele>
        <time>2019-07-05T09:08:25Z</time>
      </trkpt>
      <trkpt lat="42.4664569460" lon="19.8137074895">
        <ele>1774.73</ele>
        <time>2019-07-05T09:08:38Z</time>
      </trkpt>
      <trkpt lat="42.4664115999" lon="19.8136439547">
        <ele>1774.73</ele>
        <time>2019-07-05T09:08:45Z</time>
      </trkpt>
      <trkpt lat="42.4662911519" lon="19.8135136999">
        <ele>1774.73</ele>
        <time>2019-07-05T09:09:00Z</time>
      </trkpt>
      <trkpt lat="42.4662354961" lon="19.8134177271">
        <ele>1776.17</ele>
        <time>2019-07-05T09:09:13Z</time>
      </trkpt>
      <trkpt lat="42.4662121106" lon="19.8133628257">
        <ele>1776.17</ele>
        <time>2019-07-05T09:09:18Z</time>
      </trkpt>
      <trkpt lat="42.4661748949" lon="19.8132686969">
        <ele>1776.17</ele>
        <time>2019-07-05T09:09:27Z</time>
      </trkpt>
      <trkpt lat="42.4661407806" lon="19.8132437188">
        <ele>1774.73</ele>
        <time>2019-07-05T09:09:31Z</time>
      </trkpt>
      <trkpt lat="42.4660223443" lon="19.8131645937">
        <ele>1774.73</ele>
        <time>2019-07-05T09:09:45Z</time>
      </trkpt>
      <trkpt lat="42.4659348372" lon="19.8130744044">
        <ele>1772.81</ele>
        <time>2019-07-05T09:09:58Z</time>
      </trkpt>
      <trkpt lat="42.4659004714" lon="19.8130148929">
        <ele>1772.81</ele>
        <time>2019-07-05T09:10:08Z</time>
      </trkpt>
      <trkpt lat="42.4658946041" lon="19.8129758332">
        <ele>1774.25</ele>
        <time>2019-07-05T09:10:12Z</time>
      </trkpt>
      <trkpt lat="42.4658885691" lon="19.8128962889">
        <ele>1776.17</ele>
        <time>2019-07-05T09:10:24Z</time>
      </trkpt>
      <trkpt lat="42.4658624176" lon="19.8127985559">
        <ele>1777.61</ele>
        <time>2019-07-05T09:10:36Z</time>
      </trkpt>
      <trkpt lat="42.4658267107" lon="19.8127181735">
        <ele>1779.54</ele>
        <time>2019-07-05T09:10:48Z</time>
      </trkpt>
      <trkpt lat="42.4657764193" lon="19.8126073647">
        <ele>1780.50</ele>
        <time>2019-07-05T09:11:01Z</time>
      </trkpt>
      <trkpt lat="42.4657378625" lon="19.8125615995">
        <ele>1781.94</ele>
        <time>2019-07-05T09:11:13Z</time>
      </trkpt>
      <trkpt lat="42.4657233618" lon="19.8124425765">
        <ele>1784.34</ele>
        <time>2019-07-05T09:11:26Z</time>
      </trkpt>
      <trkpt lat="42.4656946119" lon="19.8123890162">
        <ele>1785.79</ele>
        <time>2019-07-05T09:11:38Z</time>
      </trkpt>
      <trkpt lat="42.4656775966" lon="19.8123035207">
        <ele>1787.23</ele>
        <time>2019-07-05T09:11:49Z</time>
      </trkpt>
      <trkpt lat="42.4656726513" lon="19.8122109845">
        <ele>1789.15</ele>
        <time>2019-07-05T09:12:01Z</time>
      </trkpt>
      <trkpt lat="42.4656851403" lon="19.8121229745">
        <ele>1790.11</ele>
        <time>2019-07-05T09:12:12Z</time>
      </trkpt>
      <trkpt lat="42.4656573124" lon="19.8120005149">
        <ele>1792.03</ele>
        <time>2019-07-05T09:12:26Z</time>
      </trkpt>
      <trkpt lat="42.4656502716" lon="19.8119016923">
        <ele>1793.00</ele>
        <time>2019-07-05T09:12:38Z</time>
      </trkpt>
      <trkpt lat="42.4656446557" lon="19.8118348885">
        <ele>1793.96</ele>
        <time>2019-07-05T09:12:47Z</time>
      </trkpt>
      <trkpt lat="42.4656509422" lon="19.8117381614">
        <ele>1794.92</ele>
        <time>2019-07-05T09:12:57Z</time>
      </trkpt>
      <trkpt lat="42.4656589050" lon="19.8116554320">
        <ele>1795.88</ele>
        <time>2019-07-05T09:13:05Z</time>
      </trkpt>
      <trkpt lat="42.4656854756" lon="19.8115493171">
        <ele>1797.80</ele>
        <time>2019-07-05T09:13:14Z</time>
      </trkpt>
      <trkpt lat="42.4656829610" lon="19.8114088364">
        <ele>1799.73</ele>
        <time>2019-07-05T09:13:29Z</time>
      </trkpt>
      <trkpt lat="42.4657080229" lon="19.8112999555">
        <ele>1801.17</ele>
        <time>2019-07-05T09:13:40Z</time>
      </trkpt>
      <trkpt lat="42.4657215178" lon="19.8112636618">
        <ele>1802.13</ele>
        <time>2019-07-05T09:13:46Z</time>
      </trkpt>
      <trkpt lat="42.4657470826" lon="19.8111096025">
        <ele>1803.09</ele>
        <time>2019-07-05T09:14:00Z</time>
      </trkpt>
      <trkpt lat="42.4657769222" lon="19.8109967820">
        <ele>1804.53</ele>
        <time>2019-07-05T09:14:11Z</time>
      </trkpt>
      <trkpt lat="42.4657979608" lon="19.8108713888">
        <ele>1806.45</ele>
        <time>2019-07-05T09:14:22Z</time>
      </trkpt>
      <trkpt lat="42.4658100307" lon="19.8108340893">
        <ele>1806.45</ele>
        <time>2019-07-05T09:14:26Z</time>
      </trkpt>
      <trkpt lat="42.4658658542" lon="19.8107351828">
        <ele>1807.90</ele>
        <time>2019-07-05T09:14:36Z</time>
      </trkpt>
      <trkpt lat="42.4658707157" lon="19.8106154893">
        <ele>1809.82</ele>
        <time>2019-07-05T09:14:50Z</time>
      </trkpt>
      <trkpt lat="42.4658583943" lon="19.8105631024">
        <ele>1810.78</ele>
        <time>2019-07-05T09:14:57Z</time>
      </trkpt>
      <trkpt lat="42.4658329971" lon="19.8105491046">
        <ele>1811.74</ele>
        <time>2019-07-05T09:15:03Z</time>
      </trkpt>
      <trkpt lat="42.4658614956" lon="19.8105011601">
        <ele>1810.30</ele>
        <time>2019-07-05T09:15:10Z</time>
      </trkpt>
      <trkpt lat="42.4658769183" lon="19.8105280660">
        <ele>1810.78</ele>
        <time>2019-07-05T09:15:24Z</time>
      </trkpt>
      <trkpt lat="42.4658557959" lon="19.8105312511">
        <ele>1810.30</ele>
        <time>2019-07-05T09:15:42Z</time>
      </trkpt>
      <trkpt lat="42.4658483360" lon="19.8105092067">
        <ele>1810.30</ele>
        <time>2019-07-05T09:15:45Z</time>
      </trkpt>
      <trkpt lat="42.4658332486" lon="19.8104857374">
        <ele>1811.74</ele>
        <time>2019-07-05T09:15:48Z</time>
      </trkpt>
      <trkpt lat="42.4658249505" lon="19.8104661237">
        <ele>1812.22</ele>
        <time>2019-07-05T09:15:50Z</time>
      </trkpt>
      <trkpt lat="42.4657972064" lon="19.8103900161">
        <ele>1812.22</ele>
        <time>2019-07-05T09:15:57Z</time>
      </trkpt>
      <trkpt lat="42.4657367729" lon="19.8103116453">
        <ele>1813.18</ele>
        <time>2019-07-05T09:16:10Z</time>
      </trkpt>
      <trkpt lat="42.4656987190" lon="19.8102434166">
        <ele>1814.15</ele>
        <time>2019-07-05T09:16:23Z</time>
      </trkpt>
      <trkpt lat="42.4656836316" lon="19.8102097213">
        <ele>1814.15</ele>
        <time>2019-07-05T09:16:33Z</time>
      </trkpt>
      <trkpt lat="42.4656578992" lon="19.8101978190">
        <ele>1814.15</ele>
        <time>2019-07-05T09:16:36Z</time>
      </trkpt>
      <trkpt lat="42.4655470066" lon="19.8100966495">
        <ele>1812.22</ele>
        <time>2019-07-05T09:16:47Z</time>
      </trkpt>
      <trkpt lat="42.4653761834" lon="19.8099731840">
        <ele>1809.82</ele>
        <time>2019-07-05T09:17:03Z</time>
      </trkpt>
      <trkpt lat="42.4652258120" lon="19.8098534904">
        <ele>1807.42</ele>
        <time>2019-07-05T09:17:17Z</time>
      </trkpt>
      <trkpt lat="42.4650639575" lon="19.8097469565">
        <ele>1806.94</ele>
        <time>2019-07-05T09:17:32Z</time>
      </trkpt>
      <trkpt lat="42.4649258237" lon="19.8096562643">
        <ele>1806.94</ele>
        <time>2019-07-05T09:17:46Z</time>
      </trkpt>
      <trkpt lat="42.4647867680" lon="19.8095394205">
        <ele>1807.42</ele>
        <time>2019-07-05T09:18:00Z</time>
      </trkpt>
      <trkpt lat="42.4647314474" lon="19.8094784841">
        <ele>1807.42</ele>
        <time>2019-07-05T09:18:06Z</time>
      </trkpt>
      <trkpt lat="42.4645978399" lon="19.8094084952">
        <ele>1806.94</ele>
        <time>2019-07-05T09:18:19Z</time>
      </trkpt>
      <trkpt lat="42.4645622168" lon="19.8093761411">
        <ele>1806.94</ele>
        <time>2019-07-05T09:18:24Z</time>
      </trkpt>
      <trkpt lat="42.4645214807" lon="19.8092877120">
        <ele>1806.94</ele>
        <time>2019-07-05T09:18:31Z</time>
      </trkpt>
      <trkpt lat="42.4643971771" lon="19.8091595527">
        <ele>1806.94</ele>
        <time>2019-07-05T09:18:44Z</time>
      </trkpt>
      <trkpt lat="42.4643788207" lon="19.8091392685">
        <ele>1806.94</ele>
        <time>2019-07-05T09:18:46Z</time>
      </trkpt>
      <trkpt lat="42.4643587880" lon="19.8091357481">
        <ele>1806.94</ele>
        <time>2019-07-05T09:18:48Z</time>
      </trkpt>
      <trkpt lat="42.4643166270" lon="19.8090610653">
        <ele>1806.94</ele>
        <time>2019-07-05T09:19:00Z</time>
      </trkpt>
      <trkpt lat="42.4643082451" lon="19.8090481572">
        <ele>1808.38</ele>
        <time>2019-07-05T09:19:02Z</time>
      </trkpt>
      <trkpt lat="42.4642800819" lon="19.8090039007">
        <ele>1808.38</ele>
        <time>2019-07-05T09:19:07Z</time>
      </trkpt>
      <trkpt lat="42.4642217439" lon="19.8088889010">
        <ele>1807.90</ele>
        <time>2019-07-05T09:19:16Z</time>
      </trkpt>
      <trkpt lat="42.4641980231" lon="19.8088018131">
        <ele>1806.94</ele>
        <time>2019-07-05T09:19:23Z</time>
      </trkpt>
      <trkpt lat="42.4641893059" lon="19.8087614123">
        <ele>1805.97</ele>
        <time>2019-07-05T09:19:26Z</time>
      </trkpt>
      <trkpt lat="42.4641343206" lon="19.8086533695">
        <ele>1805.49</ele>
        <time>2019-07-05T09:19:39Z</time>
      </trkpt>
      <trkpt lat="42.4641170539" lon="19.8085536249">
        <ele>1808.86</ele>
        <time>2019-07-05T09:19:52Z</time>
      </trkpt>
      <trkpt lat="42.4641316384" lon="19.8084785230">
        <ele>1810.30</ele>
        <time>2019-07-05T09:20:04Z</time>
      </trkpt>
      <trkpt lat="42.4640993681" lon="19.8084355239">
        <ele>1811.74</ele>
        <time>2019-07-05T09:20:17Z</time>
      </trkpt>
      <trkpt lat="42.4640438799" lon="19.8083965480">
        <ele>1813.66</ele>
        <time>2019-07-05T09:20:28Z</time>
      </trkpt>
      <trkpt lat="42.4640313070" lon="19.8083914351">
        <ele>1813.66</ele>
        <time>2019-07-05T09:20:30Z</time>
      </trkpt>
      <trkpt lat="42.4640126154" lon="19.8083690554">
        <ele>1813.66</ele>
        <time>2019-07-05T09:20:33Z</time>
      </trkpt>
      <trkpt lat="42.4638785049" lon="19.8082424048">
        <ele>1813.66</ele>
        <time>2019-07-05T09:20:49Z</time>
      </trkpt>
      <trkpt lat="42.4638397805" lon="19.8081663810">
        <ele>1814.15</ele>
        <time>2019-07-05T09:20:56Z</time>
      </trkpt>
      <trkpt lat="42.4637622479" lon="19.8080405686">
        <ele>1816.07</ele>
        <time>2019-07-05T09:21:10Z</time>
      </trkpt>
      <trkpt lat="42.4636506010" lon="19.8079836555">
        <ele>1816.07</ele>
        <time>2019-07-05T09:21:25Z</time>
      </trkpt>
      <trkpt lat="42.4636039976" lon="19.8079384770">
        <ele>1816.55</ele>
        <time>2019-07-05T09:21:31Z</time>
      </trkpt>
      <trkpt lat="42.4636035785" lon="19.8078898620">
        <ele>1815.11</ele>
        <time>2019-07-05T09:21:44Z</time>
      </trkpt>
      <trkpt lat="42.4635331705" lon="19.8078751937">
        <ele>1816.07</ele>
        <time>2019-07-05T09:22:04Z</time>
      </trkpt>
      <trkpt lat="42.4634046759" lon="19.8078441806">
        <ele>1816.07</ele>
        <time>2019-07-05T09:22:18Z</time>
      </trkpt>
      <trkpt lat="42.4633120559" lon="19.8077883571">
        <ele>1814.63</ele>
        <time>2019-07-05T09:22:28Z</time>
      </trkpt>
      <trkpt lat="42.4633027520" lon="19.8077816516">
        <ele>1813.66</ele>
        <time>2019-07-05T09:22:29Z</time>
      </trkpt>
      <trkpt lat="42.4631795380" lon="19.8078088090">
        <ele>1811.74</ele>
        <time>2019-07-05T09:22:40Z</time>
      </trkpt>
      <trkpt lat="42.4631447531" lon="19.8077816516">
        <ele>1810.78</ele>
        <time>2019-07-05T09:22:43Z</time>
      </trkpt>
      <trkpt lat="42.4629988242" lon="19.8077270016">
        <ele>1809.82</ele>
        <time>2019-07-05T09:22:57Z</time>
      </trkpt>
      <trkpt lat="42.4629299250" lon="19.8077539913">
        <ele>1807.42</ele>
        <time>2019-07-05T09:23:04Z</time>
      </trkpt>
      <trkpt lat="42.4628974032" lon="19.8077673186">
        <ele>1807.42</ele>
        <time>2019-07-05T09:23:06Z</time>
      </trkpt>
      <trkpt lat="42.4628304318" lon="19.8077008501">
        <ele>1806.94</ele>
        <time>2019-07-05T09:23:14Z</time>
      </trkpt>
      <trkpt lat="42.4627618678" lon="19.8075656500">
        <ele>1805.49</ele>
        <time>2019-07-05T09:23:24Z</time>
      </trkpt>
      <trkpt lat="42.4626768753" lon="19.8074905481">
        <ele>1804.53</ele>
        <time>2019-07-05T09:23:34Z</time>
      </trkpt>
      <trkpt lat="42.4626555853" lon="19.8074525781">
        <ele>1803.57</ele>
        <time>2019-07-05T09:23:37Z</time>
      </trkpt>
      <trkpt lat="42.4626118317" lon="19.8074102495">
        <ele>1802.61</ele>
        <time>2019-07-05T09:23:41Z</time>
      </trkpt>
      <trkpt lat="42.4624931440" lon="19.8073174618">
        <ele>1800.69</ele>
        <time>2019-07-05T09:23:56Z</time>
      </trkpt>
      <trkpt lat="42.4624624662" lon="19.8072675057">
        <ele>1799.24</ele>
        <time>2019-07-05T09:24:03Z</time>
      </trkpt>
      <trkpt lat="42.4624512345" lon="19.8072422761">
        <ele>1799.24</ele>
        <time>2019-07-05T09:24:05Z</time>
      </trkpt>
      <trkpt lat="42.4624395836" lon="19.8072217405">
        <ele>1798.76</ele>
        <time>2019-07-05T09:24:07Z</time>
      </trkpt>
      <trkpt lat="42.4624260049" lon="19.8070872109">
        <ele>1798.76</ele>
        <time>2019-07-05T09:24:16Z</time>
      </trkpt>
      <trkpt lat="42.4624233227" lon="19.8070011288">
        <ele>1798.28</ele>
        <time>2019-07-05T09:24:30Z</time>
      </trkpt>
      <trkpt lat="42.4624275975" lon="19.8069272842">
        <ele>1798.28</ele>
        <time>2019-07-05T09:24:41Z</time>
      </trkpt>
      <trkpt lat="42.4624415115" lon="19.8068463150">
        <ele>1798.28</ele>
        <time>2019-07-05T09:24:57Z</time>
      </trkpt>
      <trkpt lat="42.4624092411" lon="19.8067998793">
        <ele>1798.28</ele>
        <time>2019-07-05T09:25:09Z</time>
      </trkpt>
      <trkpt lat="42.4623621348" lon="19.8068368435">
        <ele>1797.32</ele>
        <time>2019-07-05T09:25:20Z</time>
      </trkpt>
      <trkpt lat="42.4623761326" lon="19.8068316467">
        <ele>1797.32</ele>
        <time>2019-07-05T09:25:47Z</time>
      </trkpt>
      <trkpt lat="42.4623861909" lon="19.8068232648">
        <ele>1797.80</ele>
        <time>2019-07-05T09:26:13Z</time>
      </trkpt>
      <trkpt lat="42.4623922259" lon="19.8068108596">
        <ele>1797.80</ele>
        <time>2019-07-05T09:26:45Z</time>
      </trkpt>
      <trkpt lat="42.4623871967" lon="19.8068095185">
        <ele>1797.32</ele>
        <time>2019-07-05T09:27:14Z</time>
      </trkpt>
      <trkpt lat="42.4623699300" lon="19.8068132065">
        <ele>1798.76</ele>
        <time>2019-07-05T09:27:25Z</time>
      </trkpt>
      <trkpt lat="42.4623498134" lon="19.8068604805">
        <ele>1799.24</ele>
        <time>2019-07-05T09:27:55Z</time>
      </trkpt>
      <trkpt lat="42.4623412639" lon="19.8068448901">
        <ele>1799.24</ele>
        <time>2019-07-05T09:28:17Z</time>
      </trkpt>
      <trkpt lat="42.4623587821" lon="19.8068113625">
        <ele>1799.24</ele>
        <time>2019-07-05T09:28:40Z</time>
      </trkpt>
      <trkpt lat="42.4623572733" lon="19.8068039864">
        <ele>1798.28</ele>
        <time>2019-07-05T09:29:14Z</time>
      </trkpt>
      <trkpt lat="42.4623566866" lon="19.8068086803">
        <ele>1798.76</ele>
        <time>2019-07-05T09:29:46Z</time>
      </trkpt>
      <trkpt lat="42.4623670802" lon="19.8068397772">
        <ele>1798.28</ele>
        <time>2019-07-05T09:30:20Z</time>
      </trkpt>
      <trkpt lat="42.4623651523" lon="19.8067895696">
        <ele>1798.28</ele>
        <time>2019-07-05T09:30:49Z</time>
      </trkpt>
      <trkpt lat="42.4623923097" lon="19.8068231810">
        <ele>1798.28</ele>
        <time>2019-07-05T09:31:22Z</time>
      </trkpt>
      <trkpt lat="42.4623978417" lon="19.8068360891">
        <ele>1799.73</ele>
        <time>2019-07-05T09:31:55Z</time>
      </trkpt>
      <trkpt lat="42.4623956624" lon="19.8068240192">
        <ele>1800.21</ele>
        <time>2019-07-05T09:32:24Z</time>
      </trkpt>
      <trkpt lat="42.4623538367" lon="19.8068419565">
        <ele>1797.80</ele>
        <time>2019-07-05T09:32:58Z</time>
      </trkpt>
      <trkpt lat="42.4624018651" lon="19.8068287969">
        <ele>1799.24</ele>
        <time>2019-07-05T09:33:33Z</time>
      </trkpt>
      <trkpt lat="42.4623581115" lon="19.8068502545">
        <ele>1799.73</ele>
        <time>2019-07-05T09:34:04Z</time>
      </trkpt>
      <trkpt lat="42.4623660743" lon="19.8068417050">
        <ele>1800.21</ele>
        <time>2019-07-05T09:34:38Z</time>
      </trkpt>
      <trkpt lat="42.4623752106" lon="19.8068438843">
        <ele>1800.21</ele>
        <time>2019-07-05T09:35:02Z</time>
      </trkpt>
      <trkpt lat="42.4623707682" lon="19.8068401963">
        <ele>1800.21</ele>
        <time>2019-07-05T09:35:34Z</time>
      </trkpt>
      <trkpt lat="42.4623657390" lon="19.8068731371">
        <ele>1800.69</ele>
        <time>2019-07-05T09:36:09Z</time>
      </trkpt>
      <trkpt lat="42.4624187127" lon="19.8068255279">
        <ele>1800.69</ele>
        <time>2019-07-05T09:36:40Z</time>
      </trkpt>
      <trkpt lat="42.4623956624" lon="19.8068490811">
        <ele>1800.69</ele>
        <time>2019-07-05T09:37:08Z</time>
      </trkpt>
      <trkpt lat="42.4624005239" lon="19.8068167269">
        <ele>1802.13</ele>
        <time>2019-07-05T09:37:32Z</time>
      </trkpt>
      <trkpt lat="42.4624054693" lon="19.8068105243">
        <ele>1802.13</ele>
        <time>2019-07-05T09:37:58Z</time>
      </trkpt>
      <trkpt lat="42.4623768032" lon="19.8068608996">
        <ele>1802.13</ele>
        <time>2019-07-05T09:38:30Z</time>
      </trkpt>
      <trkpt lat="42.4623652361" lon="19.8068605643">
        <ele>1800.69</ele>
        <time>2019-07-05T09:38:44Z</time>
      </trkpt>
      <trkpt lat="42.4623421859" lon="19.8068601452">
        <ele>1800.69</ele>
        <time>2019-07-05T09:39:13Z</time>
      </trkpt>
      <trkpt lat="42.4623501487" lon="19.8069023062">
        <ele>1801.17</ele>
        <time>2019-07-05T09:39:40Z</time>
      </trkpt>
      <trkpt lat="42.4623760488" lon="19.8068761546">
        <ele>1802.61</ele>
        <time>2019-07-05T09:39:54Z</time>
      </trkpt>
      <trkpt lat="42.4623568542" lon="19.8069002945">
        <ele>1800.21</ele>
        <time>2019-07-05T09:40:26Z</time>
      </trkpt>
      <trkpt lat="42.4623549264" lon="19.8069011327">
        <ele>1800.69</ele>
        <time>2019-07-05T09:40:29Z</time>
      </trkpt>
      <trkpt lat="42.4623540882" lon="19.8068538588">
        <ele>1800.69</ele>
        <time>2019-07-05T09:40:56Z</time>
      </trkpt>
      <trkpt lat="42.4623814970" lon="19.8068950977">
        <ele>1800.69</ele>
        <time>2019-07-05T09:41:27Z</time>
      </trkpt>
      <trkpt lat="42.4623723608" lon="19.8068586364">
        <ele>1799.73</ele>
        <time>2019-07-05T09:41:56Z</time>
      </trkpt>
      <trkpt lat="42.4623856880" lon="19.8068709578">
        <ele>1800.69</ele>
        <time>2019-07-05T09:42:21Z</time>
      </trkpt>
      <trkpt lat="42.4623882025" lon="19.8068246897">
        <ele>1801.65</ele>
        <time>2019-07-05T09:42:44Z</time>
      </trkpt>
      <trkpt lat="42.4623831734" lon="19.8068121169">
        <ele>1800.69</ele>
        <time>2019-07-05T09:43:15Z</time>
      </trkpt>
      <trkpt lat="42.4624007754" lon="19.8068370111">
        <ele>1800.69</ele>
        <time>2019-07-05T09:43:37Z</time>
      </trkpt>
      <trkpt lat="42.4624225684" lon="19.8068460636">
        <ele>1800.69</ele>
        <time>2019-07-05T09:44:12Z</time>
      </trkpt>
      <trkpt lat="42.4624035414" lon="19.8068374302">
        <ele>1802.13</ele>
        <time>2019-07-05T09:44:53Z</time>
      </trkpt>
      <trkpt lat="42.4624351412" lon="19.8068106081">
        <ele>1800.69</ele>
        <time>2019-07-05T09:45:30Z</time>
      </trkpt>
      <trkpt lat="42.4624759611" lon="19.8068273719">
        <ele>1800.69</ele>
        <time>2019-07-05T09:46:04Z</time>
      </trkpt>
      <trkpt lat="42.4624734465" lon="19.8068109434">
        <ele>1800.69</ele>
        <time>2019-07-05T09:46:42Z</time>
      </trkpt>
      <trkpt lat="42.4625016097" lon="19.8068152182">
        <ele>1802.13</ele>
        <time>2019-07-05T09:47:18Z</time>
      </trkpt>
      <trkpt lat="42.4624621309" lon="19.8068386037">
        <ele>1803.09</ele>
        <time>2019-07-05T09:47:56Z</time>
      </trkpt>
      <trkpt lat="42.4624529947" lon="19.8068453092">
        <ele>1803.09</ele>
        <time>2019-07-05T09:48:31Z</time>
      </trkpt>
      <trkpt lat="42.4624213111" lon="19.8068268690">
        <ele>1803.57</ele>
        <time>2019-07-05T09:49:11Z</time>
      </trkpt>
      <trkpt lat="42.4624106660" lon="19.8068375140">
        <ele>1804.05</ele>
        <time>2019-07-05T09:49:43Z</time>
      </trkpt>
      <trkpt lat="42.4623877835" lon="19.8068463989">
        <ele>1806.45</ele>
        <time>2019-07-05T09:49:56Z</time>
      </trkpt>
      <trkpt lat="42.4623896275" lon="19.8068399448">
        <ele>1806.45</ele>
        <time>2019-07-05T09:49:59Z</time>
      </trkpt>
      <trkpt lat="42.4623757973" lon="19.8068049084">
        <ele>1806.45</ele>
        <time>2019-07-05T09:50:03Z</time>
      </trkpt>
      <trkpt lat="42.4623203930" lon="19.8067086004">
        <ele>1804.53</ele>
        <time>2019-07-05T09:50:14Z</time>
      </trkpt>
      <trkpt lat="42.4623018689" lon="19.8066882323">
        <ele>1804.05</ele>
        <time>2019-07-05T09:50:16Z</time>
      </trkpt>
      <trkpt lat="42.4622445367" lon="19.8065638449">
        <ele>1803.57</ele>
        <time>2019-07-05T09:50:26Z</time>
      </trkpt>
      <trkpt lat="42.4621942453" lon="19.8064687103">
        <ele>1803.57</ele>
        <time>2019-07-05T09:50:34Z</time>
      </trkpt>
      <trkpt lat="42.4621117674" lon="19.8063055985">
        <ele>1802.61</ele>
        <time>2019-07-05T09:50:44Z</time>
      </trkpt>
      <trkpt lat="42.4619795009" lon="19.8061156645">
        <ele>1804.05</ele>
        <time>2019-07-05T09:50:58Z</time>
      </trkpt>
      <trkpt lat="42.4619386811" lon="19.8060623556">
        <ele>1803.57</ele>
        <time>2019-07-05T09:51:02Z</time>
      </trkpt>
      <trkpt lat="42.4619046506" lon="19.8060090467">
        <ele>1803.57</ele>
        <time>2019-07-05T09:51:07Z</time>
      </trkpt>
      <trkpt lat="42.4618877191" lon="19.8059745133">
        <ele>1804.53</ele>
        <time>2019-07-05T09:51:10Z</time>
      </trkpt>
      <trkpt lat="42.4618111085" lon="19.8058928736">
        <ele>1806.45</ele>
        <time>2019-07-05T09:51:21Z</time>
      </trkpt>
      <trkpt lat="42.4617484957" lon="19.8058742657">
        <ele>1807.42</ele>
        <time>2019-07-05T09:51:27Z</time>
      </trkpt>
      <trkpt lat="42.4617272057" lon="19.8058670573">
        <ele>1807.90</ele>
        <time>2019-07-05T09:51:29Z</time>
      </trkpt>
      <trkpt lat="42.4616825301" lon="19.8058171850">
        <ele>1807.42</ele>
        <time>2019-07-05T09:51:34Z</time>
      </trkpt>
      <trkpt lat="42.4615460727" lon="19.8056605272">
        <ele>1807.42</ele>
        <time>2019-07-05T09:51:48Z</time>
      </trkpt>
      <trkpt lat="42.4614619184" lon="19.8056082241">
        <ele>1809.82</ele>
        <time>2019-07-05T09:51:59Z</time>
      </trkpt>
      <trkpt lat="42.4614443164" lon="19.8055631295">
        <ele>1810.78</ele>
        <time>2019-07-05T09:52:04Z</time>
      </trkpt>
      <trkpt lat="42.4612966273" lon="19.8054890335">
        <ele>1812.22</ele>
        <time>2019-07-05T09:52:17Z</time>
      </trkpt>
      <trkpt lat="42.4612711463" lon="19.8054702580">
        <ele>1812.22</ele>
        <time>2019-07-05T09:52:21Z</time>
      </trkpt>
      <trkpt lat="42.4612258002" lon="19.8054449446">
        <ele>1810.78</ele>
        <time>2019-07-05T09:52:26Z</time>
      </trkpt>
      <trkpt lat="42.4612165801" lon="19.8054393288">
        <ele>1810.78</ele>
        <time>2019-07-05T09:52:27Z</time>
      </trkpt>
      <trkpt lat="42.4611897580" lon="19.8054063879">
        <ele>1809.34</ele>
        <time>2019-07-05T09:52:30Z</time>
      </trkpt>
      <trkpt lat="42.4610420689" lon="19.8052865267">
        <ele>1807.90</ele>
        <time>2019-07-05T09:52:45Z</time>
      </trkpt>
      <trkpt lat="42.4610311724" lon="19.8052662425">
        <ele>1807.90</ele>
        <time>2019-07-05T09:52:47Z</time>
      </trkpt>
      <trkpt lat="42.4609275721" lon="19.8052060604">
        <ele>1806.94</ele>
        <time>2019-07-05T09:52:59Z</time>
      </trkpt>
      <trkpt lat="42.4608389754" lon="19.8051157873">
        <ele>1806.94</ele>
        <time>2019-07-05T09:53:09Z</time>
      </trkpt>
      <trkpt lat="42.4608072080" lon="19.8050935753">
        <ele>1805.97</ele>
        <time>2019-07-05T09:53:13Z</time>
      </trkpt>
      <trkpt lat="42.4607746024" lon="19.8050705250">
        <ele>1805.97</ele>
        <time>2019-07-05T09:53:16Z</time>
      </trkpt>
      <trkpt lat="42.4606953096" lon="19.8050058167">
        <ele>1805.97</ele>
        <time>2019-07-05T09:53:25Z</time>
      </trkpt>
      <trkpt lat="42.4606966507" lon="19.8049766477">
        <ele>1807.42</ele>
        <time>2019-07-05T09:53:27Z</time>
      </trkpt>
      <trkpt lat="42.4606796354" lon="19.8048473150">
        <ele>1810.78</ele>
        <time>2019-07-05T09:53:39Z</time>
      </trkpt>
      <trkpt lat="42.4606423359" lon="19.8048143741">
        <ele>1812.70</ele>
        <time>2019-07-05T09:53:50Z</time>
      </trkpt>
      <trkpt lat="42.4606561661" lon="19.8047678545">
        <ele>1814.15</ele>
        <time>2019-07-05T09:53:54Z</time>
      </trkpt>
      <trkpt lat="42.4606398214" lon="19.8046939261">
        <ele>1815.11</ele>
        <time>2019-07-05T09:54:01Z</time>
      </trkpt>
      <trkpt lat="42.4606391508" lon="19.8045350891">
        <ele>1816.55</ele>
        <time>2019-07-05T09:54:13Z</time>
      </trkpt>
      <trkpt lat="42.4606147595" lon="19.8044891562">
        <ele>1817.99</ele>
        <time>2019-07-05T09:54:20Z</time>
      </trkpt>
      <trkpt lat="42.4605689105" lon="19.8043955304">
        <ele>1821.35</ele>
        <time>2019-07-05T09:54:34Z</time>
      </trkpt>
      <trkpt lat="42.4605201278" lon="19.8042582348">
        <ele>1823.28</ele>
        <time>2019-07-05T09:54:48Z</time>
      </trkpt>
      <trkpt lat="42.4605173618" lon="19.8041703925">
        <ele>1824.72</ele>
        <time>2019-07-05T09:54:56Z</time>
      </trkpt>
      <trkpt lat="42.4604731053" lon="19.8040759284">
        <ele>1825.68</ele>
        <time>2019-07-05T09:55:05Z</time>
      </trkpt>
      <trkpt lat="42.4604703393" lon="19.8040116392">
        <ele>1827.12</ele>
        <time>2019-07-05T09:55:10Z</time>
      </trkpt>
      <trkpt lat="42.4604372308" lon="19.8039593361">
        <ele>1826.64</ele>
        <time>2019-07-05T09:55:15Z</time>
      </trkpt>
      <trkpt lat="42.4603811558" lon="19.8038460966">
        <ele>1829.53</ele>
        <time>2019-07-05T09:55:28Z</time>
      </trkpt>
      <trkpt lat="42.4603576027" lon="19.8036888521">
        <ele>1830.49</ele>
        <time>2019-07-05T09:55:42Z</time>
      </trkpt>
      <trkpt lat="42.4603286013" lon="19.8035872635">
        <ele>1832.89</ele>
        <time>2019-07-05T09:55:54Z</time>
      </trkpt>
      <trkpt lat="42.4603136815" lon="19.8034678213">
        <ele>1832.41</ele>
        <time>2019-07-05T09:56:06Z</time>
      </trkpt>
      <trkpt lat="42.4603622966" lon="19.8033770453">
        <ele>1831.93</ele>
        <time>2019-07-05T09:56:30Z</time>
      </trkpt>
      <trkpt lat="42.4603928905" lon="19.8033321183">
        <ele>1831.93</ele>
        <time>2019-07-05T09:56:59Z</time>
      </trkpt>
      <trkpt lat="42.4604441877" lon="19.8032622132">
        <ele>1831.93</ele>
        <time>2019-07-05T09:57:27Z</time>
      </trkpt>
      <trkpt lat="42.4605013523" lon="19.8032417614">
        <ele>1832.89</ele>
        <time>2019-07-05T09:57:46Z</time>
      </trkpt>
      <trkpt lat="42.4604207184" lon="19.8033032008">
        <ele>1833.85</ele>
        <time>2019-07-05T09:58:02Z</time>
      </trkpt>
      <trkpt lat="42.4603474606" lon="19.8033243231">
        <ele>1834.33</ele>
        <time>2019-07-05T09:58:14Z</time>
      </trkpt>
      <trkpt lat="42.4603432696" lon="19.8033174500">
        <ele>1834.33</ele>
        <time>2019-07-05T09:58:15Z</time>
      </trkpt>
      <trkpt lat="42.4602634739" lon="19.8032257520">
        <ele>1836.74</ele>
        <time>2019-07-05T09:58:28Z</time>
      </trkpt>
      <trkpt lat="42.4602236599" lon="19.8031699285">
        <ele>1838.18</ele>
        <time>2019-07-05T09:58:36Z</time>
      </trkpt>
      <trkpt lat="42.4601739552" lon="19.8030105047">
        <ele>1840.10</ele>
        <time>2019-07-05T09:58:48Z</time>
      </trkpt>
      <trkpt lat="42.4600827601" lon="19.8028310481">
        <ele>1841.54</ele>
        <time>2019-07-05T09:59:02Z</time>
      </trkpt>
      <trkpt lat="42.4599979352" lon="19.8027113546">
        <ele>1843.95</ele>
        <time>2019-07-05T09:59:14Z</time>
      </trkpt>
      <trkpt lat="42.4599385913" lon="19.8026432935">
        <ele>1844.91</ele>
        <time>2019-07-05T09:59:22Z</time>
      </trkpt>
      <trkpt lat="42.4598551076" lon="19.8025770765">
        <ele>1848.75</ele>
        <time>2019-07-05T09:59:35Z</time>
      </trkpt>
      <trkpt lat="42.4598427024" lon="19.8024778347">
        <ele>1852.12</ele>
        <time>2019-07-05T09:59:46Z</time>
      </trkpt>
      <trkpt lat="42.4598246813" lon="19.8023852147">
        <ele>1855.00</ele>
        <time>2019-07-05T09:59:59Z</time>
      </trkpt>
      <trkpt lat="42.4598136172" lon="19.8022640124">
        <ele>1856.92</ele>
        <time>2019-07-05T10:00:11Z</time>
      </trkpt>
      <trkpt lat="42.4597267807" lon="19.8021982145">
        <ele>1860.29</ele>
        <time>2019-07-05T10:00:23Z</time>
      </trkpt>
      <trkpt lat="42.4596762378" lon="19.8020951170">
        <ele>1862.21</ele>
        <time>2019-07-05T10:00:33Z</time>
      </trkpt>
      <trkpt lat="42.4596124515" lon="19.8019765969">
        <ele>1865.58</ele>
        <time>2019-07-05T10:00:47Z</time>
      </trkpt>
      <trkpt lat="42.4595661834" lon="19.8019029200">
        <ele>1868.46</ele>
        <time>2019-07-05T10:00:57Z</time>
      </trkpt>
      <trkpt lat="42.4594775029" lon="19.8018308356">
        <ele>1870.86</ele>
        <time>2019-07-05T10:01:09Z</time>
      </trkpt>
      <trkpt lat="42.4593848828" lon="19.8017692287">
        <ele>1874.23</ele>
        <time>2019-07-05T10:01:20Z</time>
      </trkpt>
      <trkpt lat="42.4593371060" lon="19.8017307557">
        <ele>1876.63</ele>
        <time>2019-07-05T10:01:29Z</time>
      </trkpt>
      <trkpt lat="42.4593190011" lon="19.8016692325">
        <ele>1879.03</ele>
        <time>2019-07-05T10:01:36Z</time>
      </trkpt>
      <trkpt lat="42.4592780974" lon="19.8016307596">
        <ele>1878.07</ele>
        <time>2019-07-05T10:01:43Z</time>
      </trkpt>
      <trkpt lat="42.4592643511" lon="19.8016164266">
        <ele>1881.44</ele>
        <time>2019-07-05T10:01:46Z</time>
      </trkpt>
      <trkpt lat="42.4592640996" lon="19.8016089667">
        <ele>1881.44</ele>
        <time>2019-07-05T10:01:47Z</time>
      </trkpt>
      <trkpt lat="42.4592482578" lon="19.8015771154">
        <ele>1880.00</ele>
        <time>2019-07-05T10:01:51Z</time>
      </trkpt>
      <trkpt lat="42.4591722339" lon="19.8014637921">
        <ele>1879.51</ele>
        <time>2019-07-05T10:02:06Z</time>
      </trkpt>
      <trkpt lat="42.4591536261" lon="19.8014390655">
        <ele>1880.96</ele>
        <time>2019-07-05T10:02:10Z</time>
      </trkpt>
      <trkpt lat="42.4590565637" lon="19.8012946453">
        <ele>1882.88</ele>
        <time>2019-07-05T10:02:24Z</time>
      </trkpt>
      <trkpt lat="42.4589422345" lon="19.8011889495">
        <ele>1885.28</ele>
        <time>2019-07-05T10:02:38Z</time>
      </trkpt>
      <trkpt lat="42.4588691443" lon="19.8011253309">
        <ele>1887.21</ele>
        <time>2019-07-05T10:02:48Z</time>
      </trkpt>
      <trkpt lat="42.4588189367" lon="19.8010933120">
        <ele>1887.21</ele>
        <time>2019-07-05T10:02:53Z</time>
      </trkpt>
      <trkpt lat="42.4587072060" lon="19.8010216467">
        <ele>1889.13</ele>
        <time>2019-07-05T10:03:07Z</time>
      </trkpt>
      <trkpt lat="42.4586707447" lon="19.8009809107">
        <ele>1891.05</ele>
        <time>2019-07-05T10:03:12Z</time>
      </trkpt>
      <trkpt lat="42.4585987441" lon="19.8009050544">
        <ele>1892.97</ele>
        <time>2019-07-05T10:03:23Z</time>
      </trkpt>
      <trkpt lat="42.4585257377" lon="19.8008077405">
        <ele>1895.38</ele>
        <time>2019-07-05T10:03:34Z</time>
      </trkpt>
      <trkpt lat="42.4584363028" lon="19.8007079121">
        <ele>1897.78</ele>
        <time>2019-07-05T10:03:46Z</time>
      </trkpt>
      <trkpt lat="42.4584144261" lon="19.8006625660">
        <ele>1898.26</ele>
        <time>2019-07-05T10:03:51Z</time>
      </trkpt>
      <trkpt lat="42.4583865982" lon="19.8006263562">
        <ele>1898.74</ele>
        <time>2019-07-05T10:03:55Z</time>
      </trkpt>
      <trkpt lat="42.4583700858" lon="19.8006065749">
        <ele>1899.22</ele>
        <time>2019-07-05T10:03:57Z</time>
      </trkpt>
      <trkpt lat="42.4583165254" lon="19.8005499132">
        <ele>1901.63</ele>
        <time>2019-07-05T10:04:03Z</time>
      </trkpt>
      <trkpt lat="42.4582179543" lon="19.8004709557">
        <ele>1903.55</ele>
        <time>2019-07-05T10:04:15Z</time>
      </trkpt>
      <trkpt lat="42.4581579398" lon="19.8004199937">
        <ele>1906.91</ele>
        <time>2019-07-05T10:04:23Z</time>
      </trkpt>
      <trkpt lat="42.4581506476" lon="19.8004121985">
        <ele>1907.39</ele>
        <time>2019-07-05T10:04:24Z</time>
      </trkpt>
      <trkpt lat="42.4581150245" lon="19.8003835324">
        <ele>1907.87</ele>
        <time>2019-07-05T10:04:29Z</time>
      </trkpt>
      <trkpt lat="42.4580496456" lon="19.8003644217">
        <ele>1909.80</ele>
        <time>2019-07-05T10:04:36Z</time>
      </trkpt>
      <trkpt lat="42.4580193870" lon="19.8003776651">
        <ele>1909.80</ele>
        <time>2019-07-05T10:04:37Z</time>
      </trkpt>
      <trkpt lat="42.4578550179" lon="19.8003520165">
        <ele>1913.16</ele>
        <time>2019-07-05T10:04:54Z</time>
      </trkpt>
      <trkpt lat="42.4578019604" lon="19.8002986237">
        <ele>1914.60</ele>
        <time>2019-07-05T10:05:00Z</time>
      </trkpt>
      <trkpt lat="42.4577753060" lon="19.8003018927">
        <ele>1915.08</ele>
        <time>2019-07-05T10:05:02Z</time>
      </trkpt>
      <trkpt lat="42.4577600509" lon="19.8003115319">
        <ele>1915.08</ele>
        <time>2019-07-05T10:05:03Z</time>
      </trkpt>
      <trkpt lat="42.4576959293" lon="19.8003220093">
        <ele>1915.56</ele>
        <time>2019-07-05T10:05:09Z</time>
      </trkpt>
      <trkpt lat="42.4576453865" lon="19.8003440537">
        <ele>1916.04</ele>
        <time>2019-07-05T10:05:13Z</time>
      </trkpt>
      <trkpt lat="42.4575159699" lon="19.8003602307">
        <ele>1918.45</ele>
        <time>2019-07-05T10:05:28Z</time>
      </trkpt>
      <trkpt lat="42.4575052410" lon="19.8003634159">
        <ele>1918.93</ele>
        <time>2019-07-05T10:05:29Z</time>
      </trkpt>
      <trkpt lat="42.4574132077" lon="19.8004695307">
        <ele>1920.37</ele>
        <time>2019-07-05T10:05:33Z</time>
      </trkpt>
      <trkpt lat="42.4573559593" lon="19.8005002085">
        <ele>1921.33</ele>
        <time>2019-07-05T10:05:39Z</time>
      </trkpt>
      <trkpt lat="42.4572578073" lon="19.8005030584">
        <ele>1923.25</ele>
        <time>2019-07-05T10:05:53Z</time>
      </trkpt>
      <trkpt lat="42.4572055880" lon="19.8005050700">
        <ele>1923.74</ele>
        <time>2019-07-05T10:05:59Z</time>
      </trkpt>
      <trkpt lat="42.4571693782" lon="19.8005135357">
        <ele>1923.74</ele>
        <time>2019-07-05T10:06:03Z</time>
      </trkpt>
      <trkpt lat="42.4571347609" lon="19.8005021363">
        <ele>1923.74</ele>
        <time>2019-07-05T10:06:07Z</time>
      </trkpt>
      <trkpt lat="42.4570702203" lon="19.8004933354">
        <ele>1925.18</ele>
        <time>2019-07-05T10:06:14Z</time>
      </trkpt>
      <trkpt lat="42.4569576513" lon="19.8004532699">
        <ele>1927.10</ele>
        <time>2019-07-05T10:06:27Z</time>
      </trkpt>
      <trkpt lat="42.4568525422" lon="19.8004495818">
        <ele>1928.54</ele>
        <time>2019-07-05T10:06:40Z</time>
      </trkpt>
      <trkpt lat="42.4568035919" lon="19.8004858755">
        <ele>1929.98</ele>
        <time>2019-07-05T10:06:55Z</time>
      </trkpt>
      <trkpt lat="42.4567586649" lon="19.8005794175">
        <ele>1930.46</ele>
        <time>2019-07-05T10:07:22Z</time>
      </trkpt>
      <trkpt lat="42.4567322619" lon="19.8005179781">
        <ele>1930.95</ele>
        <time>2019-07-05T10:07:49Z</time>
      </trkpt>
      <trkpt lat="42.4567040149" lon="19.8004481569">
        <ele>1932.87</ele>
        <time>2019-07-05T10:08:04Z</time>
      </trkpt>
      <trkpt lat="42.4566451740" lon="19.8003967758">
        <ele>1934.79</ele>
        <time>2019-07-05T10:08:15Z</time>
      </trkpt>
      <trkpt lat="42.4565429147" lon="19.8003278766">
        <ele>1935.75</ele>
        <time>2019-07-05T10:08:28Z</time>
      </trkpt>
      <trkpt lat="42.4564961437" lon="19.8002858832">
        <ele>1937.67</ele>
        <time>2019-07-05T10:08:39Z</time>
      </trkpt>
      <trkpt lat="42.4564086366" lon="19.8001941014">
        <ele>1939.60</ele>
        <time>2019-07-05T10:08:50Z</time>
      </trkpt>
      <trkpt lat="42.4563031923" lon="19.8001157306">
        <ele>1940.56</ele>
        <time>2019-07-05T10:09:02Z</time>
      </trkpt>
      <trkpt lat="42.4562833272" lon="19.8001027387">
        <ele>1940.56</ele>
        <time>2019-07-05T10:09:04Z</time>
      </trkpt>
      <trkpt lat="42.4562528171" lon="19.8000946920">
        <ele>1940.56</ele>
        <time>2019-07-05T10:09:06Z</time>
      </trkpt>
      <trkpt lat="42.4560947344" lon="19.8000458255">
        <ele>1939.12</ele>
        <time>2019-07-05T10:09:21Z</time>
      </trkpt>
      <trkpt lat="42.4560132623" lon="19.8000099510">
        <ele>1939.12</ele>
        <time>2019-07-05T10:09:33Z</time>
      </trkpt>
      <trkpt lat="42.4559543375" lon="19.7999339271">
        <ele>1940.56</ele>
        <time>2019-07-05T10:09:46Z</time>
      </trkpt>
      <trkpt lat="42.4559553433" lon="19.7999267187">
        <ele>1940.56</ele>
        <time>2019-07-05T10:09:47Z</time>
      </trkpt>
      <trkpt lat="42.4559041299" lon="19.7998572327">
        <ele>1942.00</ele>
        <time>2019-07-05T10:09:56Z</time>
      </trkpt>
      <trkpt lat="42.4557982665" lon="19.7998105455">
        <ele>1945.36</ele>
        <time>2019-07-05T10:10:09Z</time>
      </trkpt>
      <trkpt lat="42.4557620566" lon="19.7997745872">
        <ele>1945.85</ele>
        <time>2019-07-05T10:10:15Z</time>
      </trkpt>
      <trkpt lat="42.4557203148" lon="19.7997270618">
        <ele>1947.77</ele>
        <time>2019-07-05T10:10:26Z</time>
      </trkpt>
      <trkpt lat="42.4556593783" lon="19.7996791173">
        <ele>1949.69</ele>
        <time>2019-07-05T10:10:37Z</time>
      </trkpt>
      <trkpt lat="42.4555755593" lon="19.7996558156">
        <ele>1950.65</ele>
        <time>2019-07-05T10:10:49Z</time>
      </trkpt>
      <trkpt lat="42.4554515909" lon="19.7996478528">
        <ele>1953.06</ele>
        <time>2019-07-05T10:11:01Z</time>
      </trkpt>
      <trkpt lat="42.4553794228" lon="19.7995962203">
        <ele>1954.50</ele>
        <time>2019-07-05T10:11:08Z</time>
      </trkpt>
      <trkpt lat="42.4551508483" lon="19.7995397262">
        <ele>1956.90</ele>
        <time>2019-07-05T10:11:20Z</time>
      </trkpt>
      <trkpt lat="42.4551257025" lon="19.7995315120">
        <ele>1959.78</ele>
        <time>2019-07-05T10:11:32Z</time>
      </trkpt>
      <trkpt lat="42.4550217669" lon="19.7995809652">
        <ele>1963.15</ele>
        <time>2019-07-05T10:11:47Z</time>
      </trkpt>
      <trkpt lat="42.4549672846" lon="19.7996179294">
        <ele>1965.07</ele>
        <time>2019-07-05T10:12:03Z</time>
      </trkpt>
      <trkpt lat="42.4549260456" lon="19.7995884251">
        <ele>1967.96</ele>
        <time>2019-07-05T10:12:14Z</time>
      </trkpt>
      <trkpt lat="42.4548801966" lon="19.7995609324">
        <ele>1970.36</ele>
        <time>2019-07-05T10:12:29Z</time>
      </trkpt>
      <trkpt lat="42.4548302405" lon="19.7995291650">
        <ele>1971.80</ele>
        <time>2019-07-05T10:12:44Z</time>
      </trkpt>
      <trkpt lat="42.4547921028" lon="19.7995497007">
        <ele>1971.80</ele>
        <time>2019-07-05T10:13:07Z</time>
      </trkpt>
      <trkpt lat="42.4547237065" lon="19.7994956374">
        <ele>1971.80</ele>
        <time>2019-07-05T10:13:18Z</time>
      </trkpt>
      <trkpt lat="42.4546150770" lon="19.7994349524">
        <ele>1972.28</ele>
        <time>2019-07-05T10:13:33Z</time>
      </trkpt>
      <trkpt lat="42.4546107184" lon="19.7994283307">
        <ele>1972.28</ele>
        <time>2019-07-05T10:13:34Z</time>
      </trkpt>
      <trkpt lat="42.4545250554" lon="19.7992870118">
        <ele>1972.76</ele>
        <time>2019-07-05T10:13:49Z</time>
      </trkpt>
      <trkpt lat="42.4544290826" lon="19.7991872672">
        <ele>1973.24</ele>
        <time>2019-07-05T10:14:03Z</time>
      </trkpt>
      <trkpt lat="42.4543813057" lon="19.7991404962">
        <ele>1973.72</ele>
        <time>2019-07-05T10:14:08Z</time>
      </trkpt>
      <trkpt lat="42.4543318525" lon="19.7990573477">
        <ele>1976.13</ele>
        <time>2019-07-05T10:14:22Z</time>
      </trkpt>
      <trkpt lat="42.4542941339" lon="19.7989886161">
        <ele>1978.05</ele>
        <time>2019-07-05T10:14:35Z</time>
      </trkpt>
      <trkpt lat="42.4542173557" lon="19.7989411745">
        <ele>1979.97</ele>
        <time>2019-07-05T10:14:47Z</time>
      </trkpt>
      <trkpt lat="42.4541863427" lon="19.7988592833">
        <ele>1981.90</ele>
        <time>2019-07-05T10:15:02Z</time>
      </trkpt>
      <trkpt lat="42.4541218858" lon="19.7988053877">
        <ele>1983.82</ele>
        <time>2019-07-05T10:15:14Z</time>
      </trkpt>
      <trkpt lat="42.4540570937" lon="19.7987189703">
        <ele>1985.26</ele>
        <time>2019-07-05T10:15:28Z</time>
      </trkpt>
      <trkpt lat="42.4539912958" lon="19.7986242548">
        <ele>1987.18</ele>
        <time>2019-07-05T10:15:42Z</time>
      </trkpt>
      <trkpt lat="42.4539729394" lon="19.7985998634">
        <ele>1987.66</ele>
        <time>2019-07-05T10:15:45Z</time>
      </trkpt>
      <trkpt lat="42.4538327940" lon="19.7985250130">
        <ele>1990.55</ele>
        <time>2019-07-05T10:16:00Z</time>
      </trkpt>
      <trkpt lat="42.4536975939" lon="19.7984489892">
        <ele>1993.43</ele>
        <time>2019-07-05T10:16:15Z</time>
      </trkpt>
      <trkpt lat="42.4536697660" lon="19.7984330636">
        <ele>1994.39</ele>
        <time>2019-07-05T10:16:18Z</time>
      </trkpt>
      <trkpt lat="42.4535519164" lon="19.7983932495">
        <ele>1997.28</ele>
        <time>2019-07-05T10:16:31Z</time>
      </trkpt>
      <trkpt lat="42.4534789938" lon="19.7983588837">
        <ele>1999.20</ele>
        <time>2019-07-05T10:16:45Z</time>
      </trkpt>
      <trkpt lat="42.4533686042" lon="19.7983606439">
        <ele>2001.12</ele>
        <time>2019-07-05T10:16:58Z</time>
      </trkpt>
      <trkpt lat="42.4532704521" lon="19.7983111907">
        <ele>2003.04</ele>
        <time>2019-07-05T10:17:12Z</time>
      </trkpt>
      <trkpt lat="42.4531282112" lon="19.7982717119">
        <ele>2005.93</ele>
        <time>2019-07-05T10:17:27Z</time>
      </trkpt>
      <trkpt lat="42.4530118704" lon="19.7982192412">
        <ele>2009.29</ele>
        <time>2019-07-05T10:17:42Z</time>
      </trkpt>
      <trkpt lat="42.4529280514" lon="19.7982541099">
        <ele>2011.22</ele>
        <time>2019-07-05T10:17:53Z</time>
      </trkpt>
      <trkpt lat="42.4528196733" lon="19.7982678562">
        <ele>2014.58</ele>
        <time>2019-07-05T10:18:08Z</time>
      </trkpt>
      <trkpt lat="42.4527227785" lon="19.7982753161">
        <ele>2017.94</ele>
        <time>2019-07-05T10:18:23Z</time>
      </trkpt>
      <trkpt lat="42.4526668712" lon="19.7983318940">
        <ele>2020.83</ele>
        <time>2019-07-05T10:18:38Z</time>
      </trkpt>
      <trkpt lat="42.4526318349" lon="19.7984407749">
        <ele>2023.23</ele>
        <time>2019-07-05T10:18:53Z</time>
      </trkpt>
      <trkpt lat="42.4525760952" lon="19.7985113505">
        <ele>2025.64</ele>
        <time>2019-07-05T10:19:08Z</time>
      </trkpt>
      <trkpt lat="42.4525242113" lon="19.7985308804">
        <ele>2028.04</ele>
        <time>2019-07-05T10:19:21Z</time>
      </trkpt>
      <trkpt lat="42.4525594991" lon="19.7986931540">
        <ele>2029.00</ele>
        <time>2019-07-05T10:19:38Z</time>
      </trkpt>
      <trkpt lat="42.4524585810" lon="19.7987128515">
        <ele>2032.36</ele>
        <time>2019-07-05T10:19:53Z</time>
      </trkpt>
      <trkpt lat="42.4523306731" lon="19.7987146955">
        <ele>2034.77</ele>
        <time>2019-07-05T10:20:08Z</time>
      </trkpt>
      <trkpt lat="42.4522583373" lon="19.7987461276">
        <ele>2035.25</ele>
        <time>2019-07-05T10:20:17Z</time>
      </trkpt>
      <trkpt lat="42.4522056151" lon="19.7987685073">
        <ele>2036.21</ele>
        <time>2019-07-05T10:20:23Z</time>
      </trkpt>
      <trkpt lat="42.4520868436" lon="19.7988383286">
        <ele>2038.61</ele>
        <time>2019-07-05T10:20:39Z</time>
      </trkpt>
      <trkpt lat="42.4519799743" lon="19.7988934815">
        <ele>2040.54</ele>
        <time>2019-07-05T10:20:53Z</time>
      </trkpt>
      <trkpt lat="42.4519361369" lon="19.7989130951">
        <ele>2041.50</ele>
        <time>2019-07-05T10:21:01Z</time>
      </trkpt>
      <trkpt lat="42.4519032799" lon="19.7990065534">
        <ele>2043.42</ele>
        <time>2019-07-05T10:21:15Z</time>
      </trkpt>
      <trkpt lat="42.4518888630" lon="19.7990791406">
        <ele>2045.34</ele>
        <time>2019-07-05T10:21:27Z</time>
      </trkpt>
      <trkpt lat="42.4518289324" lon="19.7991332877">
        <ele>2047.75</ele>
        <time>2019-07-05T10:21:42Z</time>
      </trkpt>
      <trkpt lat="42.4517747853" lon="19.7992112394">
        <ele>2050.15</ele>
        <time>2019-07-05T10:21:55Z</time>
      </trkpt>
      <trkpt lat="42.4517138489" lon="19.7992528137">
        <ele>2053.03</ele>
        <time>2019-07-05T10:22:08Z</time>
      </trkpt>
      <trkpt lat="42.4516438600" lon="19.7993054520">
        <ele>2054.96</ele>
        <time>2019-07-05T10:22:23Z</time>
      </trkpt>
      <trkpt lat="42.4515677523" lon="19.7993589286">
        <ele>2057.84</ele>
        <time>2019-07-05T10:22:39Z</time>
      </trkpt>
      <trkpt lat="42.4515208974" lon="19.7994186915">
        <ele>2060.72</ele>
        <time>2019-07-05T10:22:54Z</time>
      </trkpt>
      <trkpt lat="42.4514674209" lon="19.7994814720">
        <ele>2063.13</ele>
        <time>2019-07-05T10:23:08Z</time>
      </trkpt>
      <trkpt lat="42.4514217395" lon="19.7996167559">
        <ele>2065.53</ele>
        <time>2019-07-05T10:23:25Z</time>
      </trkpt>
      <trkpt lat="42.4513405189" lon="19.7996622697">
        <ele>2066.49</ele>
        <time>2019-07-05T10:23:38Z</time>
      </trkpt>
      <trkpt lat="42.4512341525" lon="19.7997275647">
        <ele>2067.45</ele>
        <time>2019-07-05T10:23:52Z</time>
      </trkpt>
      <trkpt lat="42.4511336535" lon="19.7997372877">
        <ele>2069.86</ele>
        <time>2019-07-05T10:24:07Z</time>
      </trkpt>
      <trkpt lat="42.4510613177" lon="19.7997342702">
        <ele>2071.78</ele>
        <time>2019-07-05T10:24:20Z</time>
      </trkpt>
      <trkpt lat="42.4509920832" lon="19.7997781914">
        <ele>2074.18</ele>
        <time>2019-07-05T10:24:33Z</time>
      </trkpt>
      <trkpt lat="42.4508957751" lon="19.7998392954">
        <ele>2076.10</ele>
        <time>2019-07-05T10:24:46Z</time>
      </trkpt>
      <trkpt lat="42.4508718029" lon="19.7998740803">
        <ele>2076.10</ele>
        <time>2019-07-05T10:24:57Z</time>
      </trkpt>
      <trkpt lat="42.4508203380" lon="19.7999282274">
        <ele>2076.10</ele>
        <time>2019-07-05T10:25:08Z</time>
      </trkpt>
      <trkpt lat="42.4507920910" lon="19.8000231944">
        <ele>2076.59</ele>
        <time>2019-07-05T10:25:23Z</time>
      </trkpt>
      <trkpt lat="42.4507863913" lon="19.8000497650">
        <ele>2076.59</ele>
        <time>2019-07-05T10:25:26Z</time>
      </trkpt>
      <trkpt lat="42.4507115409" lon="19.8001039959">
        <ele>2075.14</ele>
        <time>2019-07-05T10:25:35Z</time>
      </trkpt>
      <trkpt lat="42.4507038295" lon="19.8002182413">
        <ele>2076.59</ele>
        <time>2019-07-05T10:25:41Z</time>
      </trkpt>
      <trkpt lat="42.4506039172" lon="19.8003474902">
        <ele>2078.03</ele>
        <time>2019-07-05T10:25:57Z</time>
      </trkpt>
      <trkpt lat="42.4505504407" lon="19.8004796728">
        <ele>2078.99</ele>
        <time>2019-07-05T10:26:10Z</time>
      </trkpt>
      <trkpt lat="42.4505397957" lon="19.8004951794">
        <ele>2078.99</ele>
        <time>2019-07-05T10:26:12Z</time>
      </trkpt>
      <trkpt lat="42.4505009037" lon="19.8006608896">
        <ele>2078.99</ele>
        <time>2019-07-05T10:26:26Z</time>
      </trkpt>
      <trkpt lat="42.4504993111" lon="19.8006733786">
        <ele>2078.99</ele>
        <time>2019-07-05T10:26:27Z</time>
      </trkpt>
      <trkpt lat="42.4505016580" lon="19.8006924056">
        <ele>2079.47</ele>
        <time>2019-07-05T10:26:28Z</time>
      </trkpt>
      <trkpt lat="42.4504282326" lon="19.8008526675">
        <ele>2078.03</ele>
        <time>2019-07-05T10:26:43Z</time>
      </trkpt>
      <trkpt lat="42.4504096247" lon="19.8008502368">
        <ele>2078.03</ele>
        <time>2019-07-05T10:26:45Z</time>
      </trkpt>
      <trkpt lat="42.4502979778" lon="19.8009002768">
        <ele>2078.03</ele>
        <time>2019-07-05T10:26:57Z</time>
      </trkpt>
      <trkpt lat="42.4502160028" lon="19.8009887058">
        <ele>2078.03</ele>
        <time>2019-07-05T10:27:07Z</time>
      </trkpt>
      <trkpt lat="42.4501801282" lon="19.8010474630">
        <ele>2078.03</ele>
        <time>2019-07-05T10:27:13Z</time>
      </trkpt>
      <trkpt lat="42.4501003325" lon="19.8011479620">
        <ele>2078.03</ele>
        <time>2019-07-05T10:27:24Z</time>
      </trkpt>
      <trkpt lat="42.4500285834" lon="19.8012299370">
        <ele>2078.03</ele>
        <time>2019-07-05T10:27:33Z</time>
      </trkpt>
      <trkpt lat="42.4499391485" lon="19.8013363034">
        <ele>2078.03</ele>
        <time>2019-07-05T10:27:44Z</time>
      </trkpt>
      <trkpt lat="42.4499268271" lon="19.8013699986">
        <ele>2079.47</ele>
        <time>2019-07-05T10:27:47Z</time>
      </trkpt>
      <trkpt lat="42.4498675670" lon="19.8014670610">
        <ele>2079.47</ele>
        <time>2019-07-05T10:27:56Z</time>
      </trkpt>
      <trkpt lat="42.4498491269" lon="19.8015270755">
        <ele>2079.95</ele>
        <time>2019-07-05T10:28:01Z</time>
      </trkpt>
      <trkpt lat="42.4497823231" lon="19.8017004970">
        <ele>2081.39</ele>
        <time>2019-07-05T10:28:16Z</time>
      </trkpt>
      <trkpt lat="42.4497140106" lon="19.8017746769">
        <ele>2081.39</ele>
        <time>2019-07-05T10:28:29Z</time>
      </trkpt>
      <trkpt lat="42.4496911280" lon="19.8017941229">
        <ele>2081.39</ele>
        <time>2019-07-05T10:28:32Z</time>
      </trkpt>
      <trkpt lat="42.4495756254" lon="19.8019036744">
        <ele>2081.39</ele>
        <time>2019-07-05T10:28:47Z</time>
      </trkpt>
      <trkpt lat="42.4495507311" lon="19.8019364476">
        <ele>2079.95</ele>
        <time>2019-07-05T10:28:51Z</time>
      </trkpt>
      <trkpt lat="42.4495077319" lon="19.8020035028">
        <ele>2079.95</ele>
        <time>2019-07-05T10:28:57Z</time>
      </trkpt>
      <trkpt lat="42.4494202249" lon="19.8021562211">
        <ele>2080.43</ele>
        <time>2019-07-05T10:29:12Z</time>
      </trkpt>
      <trkpt lat="42.4493540078" lon="19.8023123760">
        <ele>2081.39</ele>
        <time>2019-07-05T10:29:26Z</time>
      </trkpt>
      <trkpt lat="42.4493171275" lon="19.8024743143">
        <ele>2082.35</ele>
        <time>2019-07-05T10:29:39Z</time>
      </trkpt>
      <trkpt lat="42.4493146129" lon="19.8024885636">
        <ele>2082.35</ele>
        <time>2019-07-05T10:29:40Z</time>
      </trkpt>
      <trkpt lat="42.4493008666" lon="19.8025283776">
        <ele>2082.83</ele>
        <time>2019-07-05T10:29:43Z</time>
      </trkpt>
      <trkpt lat="42.4492773972" lon="19.8026645835">
        <ele>2083.79</ele>
        <time>2019-07-05T10:29:57Z</time>
      </trkpt>
      <trkpt lat="42.4492734578" lon="19.8027178925">
        <ele>2083.79</ele>
        <time>2019-07-05T10:30:01Z</time>
      </trkpt>
      <trkpt lat="42.4492686801" lon="19.8027739674">
        <ele>2083.79</ele>
        <time>2019-07-05T10:30:04Z</time>
      </trkpt>
      <trkpt lat="42.4492673390" lon="19.8029688466">
        <ele>2084.28</ele>
        <time>2019-07-05T10:30:18Z</time>
      </trkpt>
      <trkpt lat="42.4492588732" lon="19.8031031247">
        <ele>2086.68</ele>
        <time>2019-07-05T10:30:31Z</time>
      </trkpt>
      <trkpt lat="42.4492335599" lon="19.8032092396">
        <ele>2089.08</ele>
        <time>2019-07-05T10:30:47Z</time>
      </trkpt>
      <trkpt lat="42.4492255971" lon="19.8032960761">
        <ele>2091.00</ele>
        <time>2019-07-05T10:31:01Z</time>
      </trkpt>
      <trkpt lat="42.4492228311" lon="19.8034282587">
        <ele>2092.93</ele>
        <time>2019-07-05T10:31:18Z</time>
      </trkpt>
      <trkpt lat="42.4492409360" lon="19.8035459407">
        <ele>2093.41</ele>
        <time>2019-07-05T10:31:32Z</time>
      </trkpt>
      <trkpt lat="42.4492550176" lon="19.8036053684">
        <ele>2094.37</ele>
        <time>2019-07-05T10:31:44Z</time>
      </trkpt>
      <trkpt lat="42.4492710270" lon="19.8036739323">
        <ele>2096.29</ele>
        <time>2019-07-05T10:31:59Z</time>
      </trkpt>
      <trkpt lat="42.4493071530" lon="19.8037569132">
        <ele>2097.25</ele>
        <time>2019-07-05T10:32:12Z</time>
      </trkpt>
      <trkpt lat="42.4493332207" lon="19.8038795404">
        <ele>2098.70</ele>
        <time>2019-07-05T10:32:24Z</time>
      </trkpt>
      <trkpt lat="42.4493602943" lon="19.8040039279">
        <ele>2100.62</ele>
        <time>2019-07-05T10:32:35Z</time>
      </trkpt>
      <trkpt lat="42.4493642338" lon="19.8041397985">
        <ele>2103.50</ele>
        <time>2019-07-05T10:32:47Z</time>
      </trkpt>
      <trkpt lat="42.4493712746" lon="19.8042322509">
        <ele>2105.91</ele>
        <time>2019-07-05T10:32:59Z</time>
      </trkpt>
      <trkpt lat="42.4493756332" lon="19.8043160699">
        <ele>2108.79</ele>
        <time>2019-07-05T10:33:14Z</time>
      </trkpt>
      <trkpt lat="42.4493929837" lon="19.8043459933">
        <ele>2111.67</ele>
        <time>2019-07-05T10:33:26Z</time>
      </trkpt>
      <trkpt lat="42.4493823387" lon="19.8043816164">
        <ele>2113.60</ele>
        <time>2019-07-05T10:33:39Z</time>
      </trkpt>
      <trkpt lat="42.4493999407" lon="19.8044170719">
        <ele>2116.00</ele>
        <time>2019-07-05T10:33:50Z</time>
      </trkpt>
      <trkpt lat="42.4494091608" lon="19.8044674471">
        <ele>2118.88</ele>
        <time>2019-07-05T10:34:02Z</time>
      </trkpt>
      <trkpt lat="42.4494238291" lon="19.8045095243">
        <ele>2120.81</ele>
        <time>2019-07-05T10:34:15Z</time>
      </trkpt>
      <trkpt lat="42.4494050536" lon="19.8045456503">
        <ele>2124.17</ele>
        <time>2019-07-05T10:34:27Z</time>
      </trkpt>
      <trkpt lat="42.4493830092" lon="19.8045835365">
        <ele>2126.09</ele>
        <time>2019-07-05T10:34:41Z</time>
      </trkpt>
      <trkpt lat="42.4493666645" lon="19.8046156392">
        <ele>2128.98</ele>
        <time>2019-07-05T10:34:56Z</time>
      </trkpt>
      <trkpt lat="42.4493420217" lon="19.8046371806">
        <ele>2131.38</ele>
        <time>2019-07-05T10:35:14Z</time>
      </trkpt>
      <trkpt lat="42.4493257608" lon="19.8047158029">
        <ele>2134.26</ele>
        <time>2019-07-05T10:35:28Z</time>
      </trkpt>
      <trkpt lat="42.4493120145" lon="19.8048112728">
        <ele>2133.78</ele>
        <time>2019-07-05T10:35:38Z</time>
      </trkpt>
      <trkpt lat="42.4493098352" lon="19.8048206605">
        <ele>2133.78</ele>
        <time>2019-07-05T10:35:39Z</time>
      </trkpt>
      <trkpt lat="42.4492750503" lon="19.8049075808">
        <ele>2134.74</ele>
        <time>2019-07-05T10:35:48Z</time>
      </trkpt>
      <trkpt lat="42.4492472224" lon="19.8050305434">
        <ele>2135.23</ele>
        <time>2019-07-05T10:36:01Z</time>
      </trkpt>
      <trkpt lat="42.4492330570" lon="19.8051752988">
        <ele>2135.23</ele>
        <time>2019-07-05T10:36:12Z</time>
      </trkpt>
      <trkpt lat="42.4492148682" lon="19.8053209763">
        <ele>2136.67</ele>
        <time>2019-07-05T10:36:26Z</time>
      </trkpt>
      <trkpt lat="42.4492011219" lon="19.8054404184">
        <ele>2138.11</ele>
        <time>2019-07-05T10:36:38Z</time>
      </trkpt>
      <trkpt lat="42.4492189754" lon="19.8055751994">
        <ele>2139.07</ele>
        <time>2019-07-05T10:36:50Z</time>
      </trkpt>
      <trkpt lat="42.4492802471" lon="19.8056772072">
        <ele>2140.03</ele>
        <time>2019-07-05T10:37:01Z</time>
      </trkpt>
      <trkpt lat="42.4492797442" lon="19.8057421669">
        <ele>2142.44</ele>
        <time>2019-07-05T10:37:12Z</time>
      </trkpt>
      <trkpt lat="42.4492730387" lon="19.8058227170">
        <ele>2143.40</ele>
        <time>2019-07-05T10:37:24Z</time>
      </trkpt>
      <trkpt lat="42.4492716137" lon="19.8058379721">
        <ele>2143.40</ele>
        <time>2019-07-05T10:37:25Z</time>
      </trkpt>
      <trkpt lat="42.4492406845" lon="19.8059686460">
        <ele>2143.40</ele>
        <time>2019-07-05T10:37:36Z</time>
      </trkpt>
      <trkpt lat="42.4492191430" lon="19.8060498666">
        <ele>2143.40</ele>
        <time>2019-07-05T10:37:44Z</time>
      </trkpt>
      <trkpt lat="42.4491924047" lon="19.8062065244">
        <ele>2143.88</ele>
        <time>2019-07-05T10:37:58Z</time>
      </trkpt>
      <trkpt lat="42.4491679296" lon="19.8063255474">
        <ele>2144.36</ele>
        <time>2019-07-05T10:38:12Z</time>
      </trkpt>
      <trkpt lat="42.4491295405" lon="19.8064603284">
        <ele>2145.32</ele>
        <time>2019-07-05T10:38:25Z</time>
      </trkpt>
      <trkpt lat="42.4491146207" lon="19.8065474164">
        <ele>2146.28</ele>
        <time>2019-07-05T10:38:37Z</time>
      </trkpt>
      <trkpt lat="42.4491086695" lon="19.8065716401">
        <ele>2146.76</ele>
        <time>2019-07-05T10:38:41Z</time>
      </trkpt>
      <trkpt lat="42.4490903970" lon="19.8066450655">
        <ele>2147.24</ele>
        <time>2019-07-05T10:38:50Z</time>
      </trkpt>
      <trkpt lat="42.4490934983" lon="19.8067898210">
        <ele>2148.68</ele>
        <time>2019-07-05T10:39:04Z</time>
      </trkpt>
      <trkpt lat="42.4490739685" lon="19.8069224227">
        <ele>2149.65</ele>
        <time>2019-07-05T10:39:17Z</time>
      </trkpt>
      <trkpt lat="42.4490524270" lon="19.8070256878">
        <ele>2150.61</ele>
        <time>2019-07-05T10:39:28Z</time>
      </trkpt>
      <trkpt lat="42.4490547739" lon="19.8070396017">
        <ele>2151.09</ele>
        <time>2019-07-05T10:39:29Z</time>
      </trkpt>
      <trkpt lat="42.4490543548" lon="19.8071814235">
        <ele>2152.53</ele>
        <time>2019-07-05T10:39:41Z</time>
      </trkpt>
      <trkpt lat="42.4490602221" lon="19.8073523305">
        <ele>2153.49</ele>
        <time>2019-07-05T10:39:55Z</time>
      </trkpt>
      <trkpt lat="42.4490691908" lon="19.8074963316">
        <ele>2155.41</ele>
        <time>2019-07-05T10:40:09Z</time>
      </trkpt>
      <trkpt lat="42.4490815960" lon="19.8076259159">
        <ele>2158.30</ele>
        <time>2019-07-05T10:40:23Z</time>
      </trkpt>
      <trkpt lat="42.4490462244" lon="19.8077200446">
        <ele>2159.74</ele>
        <time>2019-07-05T10:40:35Z</time>
      </trkpt>
      <trkpt lat="42.4490338191" lon="19.8078376427">
        <ele>2160.22</ele>
        <time>2019-07-05T10:40:46Z</time>
      </trkpt>
      <trkpt lat="42.4489792529" lon="19.8079394829">
        <ele>2163.58</ele>
        <time>2019-07-05T10:41:00Z</time>
      </trkpt>
      <trkpt lat="42.4489450548" lon="19.8080694862">
        <ele>2165.51</ele>
        <time>2019-07-05T10:41:13Z</time>
      </trkpt>
      <trkpt lat="42.4489169754" lon="19.8081911914">
        <ele>2166.95</ele>
        <time>2019-07-05T10:41:24Z</time>
      </trkpt>
      <trkpt lat="42.4488757364" lon="19.8082500324">
        <ele>2168.87</ele>
        <time>2019-07-05T10:41:35Z</time>
      </trkpt>
      <trkpt lat="42.4488214217" lon="19.8082948755">
        <ele>2171.27</ele>
        <time>2019-07-05T10:41:49Z</time>
      </trkpt>
      <trkpt lat="42.4488107767" lon="19.8084572330">
        <ele>2174.16</ele>
        <time>2019-07-05T10:42:04Z</time>
      </trkpt>
      <trkpt lat="42.4487855472" lon="19.8085667845">
        <ele>2176.08</ele>
        <time>2019-07-05T10:42:18Z</time>
      </trkpt>
      <trkpt lat="42.4487677775" lon="19.8086939380">
        <ele>2177.52</ele>
        <time>2019-07-05T10:42:30Z</time>
      </trkpt>
      <trkpt lat="42.4487366807" lon="19.8088048305">
        <ele>2179.93</ele>
        <time>2019-07-05T10:42:44Z</time>
      </trkpt>
      <trkpt lat="42.4486879818" lon="19.8088396154">
        <ele>2182.81</ele>
        <time>2019-07-05T10:42:56Z</time>
      </trkpt>
      <trkpt lat="42.4486553762" lon="19.8089493345">
        <ele>2184.25</ele>
        <time>2019-07-05T10:43:08Z</time>
      </trkpt>
      <trkpt lat="42.4486075994" lon="19.8090378474">
        <ele>2185.69</ele>
        <time>2019-07-05T10:43:21Z</time>
      </trkpt>
      <trkpt lat="42.4485438131" lon="19.8090720456">
        <ele>2187.62</ele>
        <time>2019-07-05T10:43:34Z</time>
      </trkpt>
      <trkpt lat="42.4485171586" lon="19.8091613129">
        <ele>2189.54</ele>
        <time>2019-07-05T10:43:45Z</time>
      </trkpt>
      <trkpt lat="42.4484980479" lon="19.8092393484">
        <ele>2191.46</ele>
        <time>2019-07-05T10:43:57Z</time>
      </trkpt>
      <trkpt lat="42.4485167395" lon="19.8093041405">
        <ele>2193.87</ele>
        <time>2019-07-05T10:44:10Z</time>
      </trkpt>
      <trkpt lat="42.4485181645" lon="19.8093816731">
        <ele>2196.75</ele>
        <time>2019-07-05T10:44:24Z</time>
      </trkpt>
      <trkpt lat="42.4484932702" lon="19.8094429448">
        <ele>2198.67</ele>
        <time>2019-07-05T10:44:36Z</time>
      </trkpt>
      <trkpt lat="42.4484470021" lon="19.8095077369">
        <ele>2200.59</ele>
        <time>2019-07-05T10:44:49Z</time>
      </trkpt>
      <trkpt lat="42.4484138936" lon="19.8095699307">
        <ele>2203.00</ele>
        <time>2019-07-05T10:45:01Z</time>
      </trkpt>
      <trkpt lat="42.4483525380" lon="19.8096350580">
        <ele>2205.40</ele>
        <time>2019-07-05T10:45:14Z</time>
      </trkpt>
      <trkpt lat="42.4483343493" lon="19.8097311985">
        <ele>2208.77</ele>
        <time>2019-07-05T10:45:27Z</time>
      </trkpt>
      <trkpt lat="42.4483470060" lon="19.8098028637">
        <ele>2211.17</ele>
        <time>2019-07-05T10:45:41Z</time>
      </trkpt>
      <trkpt lat="42.4483727384" lon="19.8098370619">
        <ele>2213.09</ele>
        <time>2019-07-05T10:45:52Z</time>
      </trkpt>
      <trkpt lat="42.4483522866" lon="19.8098958191">
        <ele>2215.98</ele>
        <time>2019-07-05T10:46:04Z</time>
      </trkpt>
      <trkpt lat="42.4483768456" lon="19.8100250680">
        <ele>2215.98</ele>
        <time>2019-07-05T10:46:22Z</time>
      </trkpt>
      <trkpt lat="42.4484195095" lon="19.8100300133">
        <ele>2215.98</ele>
        <time>2019-07-05T10:46:37Z</time>
      </trkpt>
      <trkpt lat="42.4484123010" lon="19.8100818973">
        <ele>2215.01</ele>
        <time>2019-07-05T10:47:00Z</time>
      </trkpt>
      <trkpt lat="42.4484541267" lon="19.8101027682">
        <ele>2215.50</ele>
        <time>2019-07-05T10:47:21Z</time>
      </trkpt>
      <trkpt lat="42.4484707229" lon="19.8101253156">
        <ele>2215.98</ele>
        <time>2019-07-05T10:47:28Z</time>
      </trkpt>
      <trkpt lat="42.4487031531" lon="19.8101202026">
        <ele>2215.01</ele>
        <time>2019-07-05T10:47:48Z</time>
      </trkpt>
      <trkpt lat="42.4486661889" lon="19.8101206217">
        <ele>2215.50</ele>
        <time>2019-07-05T10:48:07Z</time>
      </trkpt>
      <trkpt lat="42.4486497603" lon="19.8101123236">
        <ele>2216.94</ele>
        <time>2019-07-05T10:48:13Z</time>
      </trkpt>
      <trkpt lat="42.4486766662" lon="19.8101062048">
        <ele>2218.38</ele>
        <time>2019-07-05T10:48:51Z</time>
      </trkpt>
      <trkpt lat="42.4487165641" lon="19.8100829870">
        <ele>2219.34</ele>
        <time>2019-07-05T10:49:24Z</time>
      </trkpt>
      <trkpt lat="42.4487056676" lon="19.8101099767">
        <ele>2220.78</ele>
        <time>2019-07-05T10:49:47Z</time>
      </trkpt>
      <trkpt lat="42.4487530254" lon="19.8100847472">
        <ele>2221.26</ele>
        <time>2019-07-05T10:50:03Z</time>
      </trkpt>
      <trkpt lat="42.4487642571" lon="19.8101170175">
        <ele>2225.11</ele>
        <time>2019-07-05T10:50:16Z</time>
      </trkpt>
      <trkpt lat="42.4487427995" lon="19.8101588432">
        <ele>2226.07</ele>
        <time>2019-07-05T10:50:23Z</time>
      </trkpt>
      <trkpt lat="42.4487147201" lon="19.8102966417">
        <ele>2228.47</ele>
        <time>2019-07-05T10:50:36Z</time>
      </trkpt>
      <trkpt lat="42.4487119541" lon="19.8103779461">
        <ele>2228.95</ele>
        <time>2019-07-05T10:50:46Z</time>
      </trkpt>
      <trkpt lat="42.4486868083" lon="19.8104386311">
        <ele>2230.40</ele>
        <time>2019-07-05T10:50:56Z</time>
      </trkpt>
      <trkpt lat="42.4486518558" lon="19.8105008248">
        <ele>2232.80</ele>
        <time>2019-07-05T10:51:07Z</time>
      </trkpt>
      <trkpt lat="42.4485815316" lon="19.8105619289">
        <ele>2236.16</ele>
        <time>2019-07-05T10:51:21Z</time>
      </trkpt>
      <trkpt lat="42.4485735688" lon="19.8106199317">
        <ele>2239.53</ele>
        <time>2019-07-05T10:51:33Z</time>
      </trkpt>
      <trkpt lat="42.4485769216" lon="19.8106280621">
        <ele>2239.53</ele>
        <time>2019-07-05T10:51:34Z</time>
      </trkpt>
      <trkpt lat="42.4485375267" lon="19.8107196763">
        <ele>2242.89</ele>
        <time>2019-07-05T10:51:49Z</time>
      </trkpt>
      <trkpt lat="42.4485234451" lon="19.8108274676">
        <ele>2245.78</ele>
        <time>2019-07-05T10:52:00Z</time>
      </trkpt>
      <trkpt lat="42.4484835472" lon="19.8108792678">
        <ele>2247.22</ele>
        <time>2019-07-05T10:52:06Z</time>
      </trkpt>
      <trkpt lat="42.4484184198" lon="19.8109719716">
        <ele>2249.62</ele>
        <time>2019-07-05T10:52:18Z</time>
      </trkpt>
      <trkpt lat="42.4483999796" lon="19.8110246100">
        <ele>2251.54</ele>
        <time>2019-07-05T10:52:24Z</time>
      </trkpt>
      <trkpt lat="42.4483684637" lon="19.8110758234">
        <ele>2254.43</ele>
        <time>2019-07-05T10:52:36Z</time>
      </trkpt>
      <trkpt lat="42.4483118858" lon="19.8111270368">
        <ele>2257.79</ele>
        <time>2019-07-05T10:52:49Z</time>
      </trkpt>
      <trkpt lat="42.4483081140" lon="19.8111902364">
        <ele>2259.72</ele>
        <time>2019-07-05T10:52:58Z</time>
      </trkpt>
      <trkpt lat="42.4482455011" lon="19.8113498278">
        <ele>2262.60</ele>
        <time>2019-07-05T10:53:12Z</time>
      </trkpt>
      <trkpt lat="42.4482393824" lon="19.8113653343">
        <ele>2261.16</ele>
        <time>2019-07-05T10:53:14Z</time>
      </trkpt>
      <trkpt lat="42.4482185952" lon="19.8113726266">
        <ele>2264.04</ele>
        <time>2019-07-05T10:53:16Z</time>
      </trkpt>
      <trkpt lat="42.4482150748" lon="19.8113815952">
        <ele>2264.04</ele>
        <time>2019-07-05T10:53:17Z</time>
      </trkpt>
      <trkpt lat="42.4481991492" lon="19.8114894703">
        <ele>2264.52</ele>
        <time>2019-07-05T10:53:26Z</time>
      </trkpt>
      <trkpt lat="42.4481503665" lon="19.8115753848">
        <ele>2265.48</ele>
        <time>2019-07-05T10:53:42Z</time>
      </trkpt>
      <trkpt lat="42.4481472652" lon="19.8116172105">
        <ele>2265.48</ele>
        <time>2019-07-05T10:54:00Z</time>
      </trkpt>
      <trkpt lat="42.4481129833" lon="19.8116250057">
        <ele>2265.96</ele>
        <time>2019-07-05T10:54:10Z</time>
      </trkpt>
      <trkpt lat="42.4480620213" lon="19.8115769774">
        <ele>2265.00</ele>
        <time>2019-07-05T10:54:17Z</time>
      </trkpt>
      <trkpt lat="42.4480477720" lon="19.8115787376">
        <ele>2265.00</ele>
        <time>2019-07-05T10:54:19Z</time>
      </trkpt>
      <trkpt lat="42.4480287451" lon="19.8116309568">
        <ele>2265.00</ele>
        <time>2019-07-05T10:54:25Z</time>
      </trkpt>
      <trkpt lat="42.4479978159" lon="19.8116996884">
        <ele>2265.96</ele>
        <time>2019-07-05T10:54:37Z</time>
      </trkpt>
      <trkpt lat="42.4479596782" lon="19.8117625527">
        <ele>2266.45</ele>
        <time>2019-07-05T10:54:49Z</time>
      </trkpt>
      <trkpt lat="42.4479339458" lon="19.8118172865">
        <ele>2266.93</ele>
        <time>2019-07-05T10:55:06Z</time>
      </trkpt>
      <trkpt lat="42.4479281623" lon="19.8118308652">
        <ele>2266.93</ele>
        <time>2019-07-05T10:55:07Z</time>
      </trkpt>
      <trkpt lat="42.4478585925" lon="19.8119049612">
        <ele>2267.89</ele>
        <time>2019-07-05T10:55:19Z</time>
      </trkpt>
      <trkpt lat="42.4477842450" lon="19.8119715136">
        <ele>2270.29</ele>
        <time>2019-07-05T10:55:32Z</time>
      </trkpt>
      <trkpt lat="42.4476882722" lon="19.8120482918">
        <ele>2272.21</ele>
        <time>2019-07-05T10:55:47Z</time>
      </trkpt>
      <trkpt lat="42.4476047885" lon="19.8121139221">
        <ele>2273.66</ele>
        <time>2019-07-05T10:56:01Z</time>
      </trkpt>
      <trkpt lat="42.4475286808" lon="19.8121984117">
        <ele>2276.06</ele>
        <time>2019-07-05T10:56:16Z</time>
      </trkpt>
      <trkpt lat="42.4474515673" lon="19.8122844100">
        <ele>2278.46</ele>
        <time>2019-07-05T10:56:30Z</time>
      </trkpt>
      <trkpt lat="42.4474001024" lon="19.8123660497">
        <ele>2280.87</ele>
        <time>2019-07-05T10:56:43Z</time>
      </trkpt>
      <trkpt lat="42.4473731965" lon="19.8124043550">
        <ele>2281.83</ele>
        <time>2019-07-05T10:56:48Z</time>
      </trkpt>
      <trkpt lat="42.4473249167" lon="19.8124781996">
        <ele>2283.75</ele>
        <time>2019-07-05T10:57:02Z</time>
      </trkpt>
      <trkpt lat="42.4470615573" lon="19.8124522995">
        <ele>2286.63</ele>
        <time>2019-07-05T10:57:18Z</time>
      </trkpt>
      <trkpt lat="42.4469006248" lon="19.8126180936">
        <ele>2288.56</ele>
        <time>2019-07-05T10:57:33Z</time>
      </trkpt>
      <trkpt lat="42.4468807597" lon="19.8127008229">
        <ele>2291.44</ele>
        <time>2019-07-05T10:57:49Z</time>
      </trkpt>
      <trkpt lat="42.4468836933" lon="19.8128097039">
        <ele>2293.36</ele>
        <time>2019-07-05T10:58:03Z</time>
      </trkpt>
      <trkpt lat="42.4468722101" lon="19.8129044194">
        <ele>2296.73</ele>
        <time>2019-07-05T10:58:17Z</time>
      </trkpt>
      <trkpt lat="42.4468750600" lon="19.8129402101">
        <ele>2299.61</ele>
        <time>2019-07-05T10:58:31Z</time>
      </trkpt>
      <trkpt lat="42.4468608107" lon="19.8130421340">
        <ele>2302.98</ele>
        <time>2019-07-05T10:58:45Z</time>
      </trkpt>
      <trkpt lat="42.4468348268" lon="19.8131250311">
        <ele>2305.38</ele>
        <time>2019-07-05T10:58:59Z</time>
      </trkpt>
      <trkpt lat="42.4468049873" lon="19.8131819442">
        <ele>2307.78</ele>
        <time>2019-07-05T10:59:10Z</time>
      </trkpt>
      <trkpt lat="42.4467232637" lon="19.8131721374">
        <ele>2309.22</ele>
        <time>2019-07-05T10:59:22Z</time>
      </trkpt>
      <trkpt lat="42.4466263689" lon="19.8132127058">
        <ele>2311.63</ele>
        <time>2019-07-05T10:59:37Z</time>
      </trkpt>
      <trkpt lat="42.4465797655" lon="19.8132587224">
        <ele>2314.99</ele>
        <time>2019-07-05T10:59:49Z</time>
      </trkpt>
      <trkpt lat="42.4465267919" lon="19.8132570460">
        <ele>2316.43</ele>
        <time>2019-07-05T11:00:02Z</time>
      </trkpt>
      <trkpt lat="42.4465336651" lon="19.8132586386">
        <ele>2318.84</ele>
        <time>2019-07-05T11:00:15Z</time>
      </trkpt>
      <trkpt lat="42.4465531949" lon="19.8132293019">
        <ele>2321.24</ele>
        <time>2019-07-05T11:00:27Z</time>
      </trkpt>
      <trkpt lat="42.4465614930" lon="19.8132476583">
        <ele>2323.64</ele>
        <time>2019-07-05T11:00:38Z</time>
      </trkpt>
      <trkpt lat="42.4465262890" lon="19.8131734785">
        <ele>2326.05</ele>
        <time>2019-07-05T11:00:52Z</time>
      </trkpt>
      <trkpt lat="42.4465525243" lon="19.8131405376">
        <ele>2328.93</ele>
        <time>2019-07-05T11:01:03Z</time>
      </trkpt>
      <trkpt lat="42.4465488363" lon="19.8130003922">
        <ele>2331.81</ele>
        <time>2019-07-05T11:01:18Z</time>
      </trkpt>
      <trkpt lat="42.4465601519" lon="19.8129763361">
        <ele>2332.30</ele>
        <time>2019-07-05T11:01:22Z</time>
      </trkpt>
      <trkpt lat="42.4465837050" lon="19.8128620908">
        <ele>2332.78</ele>
        <time>2019-07-05T11:01:35Z</time>
      </trkpt>
      <trkpt lat="42.4465174880" lon="19.8128167447">
        <ele>2334.70</ele>
        <time>2019-07-05T11:01:48Z</time>
      </trkpt>
      <trkpt lat="42.4464827031" lon="19.8127708957">
        <ele>2336.14</ele>
        <time>2019-07-05T11:02:00Z</time>
      </trkpt>
      <trkpt lat="42.4464743212" lon="19.8127511144">
        <ele>2336.62</ele>
        <time>2019-07-05T11:02:04Z</time>
      </trkpt>
      <trkpt lat="42.4463886581" lon="19.8126938660">
        <ele>2338.54</ele>
        <time>2019-07-05T11:02:17Z</time>
      </trkpt>
      <trkpt lat="42.4463879876" lon="19.8126766831">
        <ele>2339.99</ele>
        <time>2019-07-05T11:02:26Z</time>
      </trkpt>
      <trkpt lat="42.4463657755" lon="19.8126660381">
        <ele>2340.47</ele>
        <time>2019-07-05T11:02:37Z</time>
      </trkpt>
      <trkpt lat="42.4463822041" lon="19.8126708157">
        <ele>2343.83</ele>
        <time>2019-07-05T11:02:48Z</time>
      </trkpt>
      <trkpt lat="42.4464092776" lon="19.8126403056">
        <ele>2346.72</ele>
        <time>2019-07-05T11:03:00Z</time>
      </trkpt>
      <trkpt lat="42.4463886581" lon="19.8126200214">
        <ele>2347.20</ele>
        <time>2019-07-05T11:03:06Z</time>
      </trkpt>
      <trkpt lat="42.4463691283" lon="19.8126732465">
        <ele>2348.64</ele>
        <time>2019-07-05T11:03:15Z</time>
      </trkpt>
      <trkpt lat="42.4463447370" lon="19.8126806226">
        <ele>2349.60</ele>
        <time>2019-07-05T11:03:22Z</time>
      </trkpt>
      <trkpt lat="42.4463151488" lon="19.8126993980">
        <ele>2351.52</ele>
        <time>2019-07-05T11:03:30Z</time>
      </trkpt>
      <trkpt lat="42.4462794419" lon="19.8127115518">
        <ele>2352.96</ele>
        <time>2019-07-05T11:03:39Z</time>
      </trkpt>
      <trkpt lat="42.4462905899" lon="19.8127314169">
        <ele>2354.89</ele>
        <time>2019-07-05T11:03:50Z</time>
      </trkpt>
      <trkpt lat="42.4463853892" lon="19.8127539642">
        <ele>2357.77</ele>
        <time>2019-07-05T11:04:03Z</time>
      </trkpt>
      <trkpt lat="42.4462843873" lon="19.8127552215">
        <ele>2360.17</ele>
        <time>2019-07-05T11:04:18Z</time>
      </trkpt>
      <trkpt lat="42.4461871572" lon="19.8127305787">
        <ele>2361.62</ele>
        <time>2019-07-05T11:04:28Z</time>
      </trkpt>
      <trkpt lat="42.4461330101" lon="19.8127436545">
        <ele>2363.54</ele>
        <time>2019-07-05T11:04:41Z</time>
      </trkpt>
      <trkpt lat="42.4460833054" lon="19.8127235379">
        <ele>2365.94</ele>
        <time>2019-07-05T11:04:51Z</time>
      </trkpt>
      <trkpt lat="42.4459574930" lon="19.8127008229">
        <ele>2367.86</ele>
        <time>2019-07-05T11:05:04Z</time>
      </trkpt>
      <trkpt lat="42.4459035136" lon="19.8127921857">
        <ele>2368.83</ele>
        <time>2019-07-05T11:05:19Z</time>
      </trkpt>
      <trkpt lat="42.4458668847" lon="19.8127896711">
        <ele>2369.31</ele>
        <time>2019-07-05T11:05:28Z</time>
      </trkpt>
      <trkpt lat="42.4458581675" lon="19.8127614241">
        <ele>2369.31</ele>
        <time>2019-07-05T11:05:31Z</time>
      </trkpt>
      <trkpt lat="42.4458190240" lon="19.8126919381">
        <ele>2371.23</ele>
        <time>2019-07-05T11:05:44Z</time>
      </trkpt>
      <trkpt lat="42.4457791261" lon="19.8126303311">
        <ele>2373.63</ele>
        <time>2019-07-05T11:05:57Z</time>
      </trkpt>
      <trkpt lat="42.4457510468" lon="19.8125946242">
        <ele>2376.04</ele>
        <time>2019-07-05T11:06:09Z</time>
      </trkpt>
      <trkpt lat="42.4457339477" lon="19.8125558160">
        <ele>2378.44</ele>
        <time>2019-07-05T11:06:23Z</time>
      </trkpt>
      <trkpt lat="42.4457318522" lon="19.8125439975">
        <ele>2378.92</ele>
        <time>2019-07-05T11:06:35Z</time>
      </trkpt>
      <trkpt lat="42.4457817245" lon="19.8125519603">
        <ele>2380.36</ele>
        <time>2019-07-05T11:06:48Z</time>
      </trkpt>
      <trkpt lat="42.4458726682" lon="19.8125624377">
        <ele>2383.25</ele>
        <time>2019-07-05T11:07:01Z</time>
      </trkpt>
      <trkpt lat="42.4459589180" lon="19.8125451710">
        <ele>2386.13</ele>
        <time>2019-07-05T11:07:14Z</time>
      </trkpt>
      <trkpt lat="42.4459631927" lon="19.8125027586">
        <ele>2388.05</ele>
        <time>2019-07-05T11:07:25Z</time>
      </trkpt>
      <trkpt lat="42.4459331017" lon="19.8124221247">
        <ele>2391.42</ele>
        <time>2019-07-05T11:07:38Z</time>
      </trkpt>
      <trkpt lat="42.4459168408" lon="19.8123618588">
        <ele>2393.34</ele>
        <time>2019-07-05T11:07:51Z</time>
      </trkpt>
      <trkpt lat="42.4458873365" lon="19.8122689873">
        <ele>2395.26</ele>
        <time>2019-07-05T11:08:03Z</time>
      </trkpt>
      <trkpt lat="42.4458456784" lon="19.8121854197">
        <ele>2397.18</ele>
        <time>2019-07-05T11:08:18Z</time>
      </trkpt>
      <trkpt lat="42.4455981608" lon="19.8120413348">
        <ele>2398.63</ele>
        <time>2019-07-05T11:08:29Z</time>
      </trkpt>
      <trkpt lat="42.4455881026" lon="19.8120376468">
        <ele>2401.03</ele>
        <time>2019-07-05T11:08:41Z</time>
      </trkpt>
      <trkpt lat="42.4455678184" lon="19.8120566737">
        <ele>2403.43</ele>
        <time>2019-07-05T11:08:55Z</time>
      </trkpt>
      <trkpt lat="42.4455865100" lon="19.8120884411">
        <ele>2404.88</ele>
        <time>2019-07-05T11:09:05Z</time>
      </trkpt>
      <trkpt lat="42.4455499649" lon="19.8120860104">
        <ele>2407.76</ele>
        <time>2019-07-05T11:09:18Z</time>
      </trkpt>
      <trkpt lat="42.4454529863" lon="19.8120891955">
        <ele>2409.20</ele>
        <time>2019-07-05T11:09:33Z</time>
      </trkpt>
      <trkpt lat="42.4454421736" lon="19.8121365532">
        <ele>2411.12</ele>
        <time>2019-07-05T11:09:47Z</time>
      </trkpt>
      <trkpt lat="42.4454369769" lon="19.8121550772">
        <ele>2412.57</ele>
        <time>2019-07-05T11:10:00Z</time>
      </trkpt>
      <trkpt lat="42.4454340432" lon="19.8121607769">
        <ele>2414.49</ele>
        <time>2019-07-05T11:10:11Z</time>
      </trkpt>
      <trkpt lat="42.4454699177" lon="19.8121850006">
        <ele>2416.41</ele>
        <time>2019-07-05T11:10:24Z</time>
      </trkpt>
      <trkpt lat="42.4454359710" lon="19.8121994175">
        <ele>2418.33</ele>
        <time>2019-07-05T11:10:38Z</time>
      </trkpt>
      <trkpt lat="42.4454262480" lon="19.8121950589">
        <ele>2418.33</ele>
        <time>2019-07-05T11:10:41Z</time>
      </trkpt>
      <trkpt lat="42.4454061314" lon="19.8122133315">
        <ele>2420.74</ele>
        <time>2019-07-05T11:10:54Z</time>
      </trkpt>
      <trkpt lat="42.4453564268" lon="19.8122029379">
        <ele>2421.70</ele>
        <time>2019-07-05T11:11:05Z</time>
      </trkpt>
      <trkpt lat="42.4453091528" lon="19.8121900298">
        <ele>2423.62</ele>
        <time>2019-07-05T11:11:21Z</time>
      </trkpt>
      <trkpt lat="42.4453006871" lon="19.8122238927">
        <ele>2426.50</ele>
        <time>2019-07-05T11:11:36Z</time>
      </trkpt>
      <trkpt lat="42.4452993460" lon="19.8122901935">
        <ele>2427.95</ele>
        <time>2019-07-05T11:11:57Z</time>
      </trkpt>
      <trkpt lat="42.4453012738" lon="19.8123031016">
        <ele>2427.95</ele>
        <time>2019-07-05T11:12:00Z</time>
      </trkpt>
      <trkpt lat="42.4452861026" lon="19.8123335280">
        <ele>2429.39</ele>
        <time>2019-07-05T11:12:11Z</time>
      </trkpt>
      <trkpt lat="42.4452578556" lon="19.8122922052">
        <ele>2432.27</ele>
        <time>2019-07-05T11:12:25Z</time>
      </trkpt>
      <trkpt lat="42.4451675825" lon="19.8122803029">
        <ele>2434.20</ele>
        <time>2019-07-05T11:12:37Z</time>
      </trkpt>
      <trkpt lat="42.4451493938" lon="19.8122874275">
        <ele>2436.12</ele>
        <time>2019-07-05T11:12:52Z</time>
      </trkpt>
      <trkpt lat="42.4451009464" lon="19.8122962285">
        <ele>2438.04</ele>
        <time>2019-07-05T11:13:04Z</time>
      </trkpt>
      <trkpt lat="42.4450293649" lon="19.8123157583">
        <ele>2440.44</ele>
        <time>2019-07-05T11:13:18Z</time>
      </trkpt>
      <trkpt lat="42.4450301193" lon="19.8123788740">
        <ele>2440.44</ele>
        <time>2019-07-05T11:13:36Z</time>
      </trkpt>
      <trkpt lat="42.4450136907" lon="19.8123841546">
        <ele>2440.44</ele>
        <time>2019-07-05T11:14:04Z</time>
      </trkpt>
      <trkpt lat="42.4450135231" lon="19.8123811372">
        <ele>2440.44</ele>
        <time>2019-07-05T11:14:27Z</time>
      </trkpt>
      <trkpt lat="42.4449528381" lon="19.8123682290">
        <ele>2440.92</ele>
        <time>2019-07-05T11:15:02Z</time>
      </trkpt>
      <trkpt lat="42.4449514970" lon="19.8123835679">
        <ele>2440.92</ele>
        <time>2019-07-05T11:15:35Z</time>
      </trkpt>
      <trkpt lat="42.4448387604" lon="19.8123125732">
        <ele>2441.89</ele>
        <time>2019-07-05T11:15:48Z</time>
      </trkpt>
      <trkpt lat="42.4448069092" lon="19.8122652154">
        <ele>2444.29</ele>
        <time>2019-07-05T11:16:01Z</time>
      </trkpt>
      <trkpt lat="42.4447983596" lon="19.8122252338">
        <ele>2446.21</ele>
        <time>2019-07-05T11:16:13Z</time>
      </trkpt>
      <trkpt lat="42.4447871279" lon="19.8121881858">
        <ele>2449.58</ele>
        <time>2019-07-05T11:16:25Z</time>
      </trkpt>
      <trkpt lat="42.4447785784" lon="19.8121737689">
        <ele>2451.02</ele>
        <time>2019-07-05T11:16:36Z</time>
      </trkpt>
      <trkpt lat="42.4447748065" lon="19.8122026864">
        <ele>2453.42</ele>
        <time>2019-07-05T11:16:50Z</time>
      </trkpt>
      <trkpt lat="42.4447883014" lon="19.8122041952">
        <ele>2455.34</ele>
        <time>2019-07-05T11:17:00Z</time>
      </trkpt>
      <trkpt lat="42.4448014610" lon="19.8122219648">
        <ele>2457.75</ele>
        <time>2019-07-05T11:17:12Z</time>
      </trkpt>
      <trkpt lat="42.4447524268" lon="19.8122388124">
        <ele>2460.63</ele>
        <time>2019-07-05T11:17:25Z</time>
      </trkpt>
      <trkpt lat="42.4447413627" lon="19.8122322746">
        <ele>2462.55</ele>
        <time>2019-07-05T11:17:40Z</time>
      </trkpt>
      <trkpt lat="42.4447618984" lon="19.8122205399">
        <ele>2464.96</ele>
        <time>2019-07-05T11:17:52Z</time>
      </trkpt>
      <trkpt lat="42.4447183963" lon="19.8122570012">
        <ele>2468.32</ele>
        <time>2019-07-05T11:18:05Z</time>
      </trkpt>
      <trkpt lat="42.4445680249" lon="19.8122092243">
        <ele>2469.28</ele>
        <time>2019-07-05T11:18:19Z</time>
      </trkpt>
      <trkpt lat="42.4445215054" lon="19.8122476134">
        <ele>2470.24</ele>
        <time>2019-07-05T11:18:35Z</time>
      </trkpt>
      <trkpt lat="42.4444769137" lon="19.8122624494">
        <ele>2473.13</ele>
        <time>2019-07-05T11:18:44Z</time>
      </trkpt>
      <trkpt lat="42.4444308970" lon="19.8122801352">
        <ele>2476.01</ele>
        <time>2019-07-05T11:18:58Z</time>
      </trkpt>
      <trkpt lat="42.4443923403" lon="19.8122995812">
        <ele>2478.90</ele>
        <time>2019-07-05T11:19:11Z</time>
      </trkpt>
      <trkpt lat="42.4443502631" lon="19.8123336118">
        <ele>2481.30</ele>
        <time>2019-07-05T11:19:23Z</time>
      </trkpt>
      <trkpt lat="42.4443301465" lon="19.8123352882">
        <ele>2483.70</ele>
        <time>2019-07-05T11:19:36Z</time>
      </trkpt>
      <trkpt lat="42.4443181604" lon="19.8122919537">
        <ele>2486.11</ele>
        <time>2019-07-05T11:19:48Z</time>
      </trkpt>
      <trkpt lat="42.4442727305" lon="19.8122720048">
        <ele>2488.51</ele>
        <time>2019-07-05T11:20:01Z</time>
      </trkpt>
      <trkpt lat="42.4442247860" lon="19.8122777045">
        <ele>2491.39</ele>
        <time>2019-07-05T11:20:17Z</time>
      </trkpt>
      <trkpt lat="42.4442246184" lon="19.8122820631">
        <ele>2491.87</ele>
        <time>2019-07-05T11:20:18Z</time>
      </trkpt>
      <trkpt lat="42.4441942759" lon="19.8123655468">
        <ele>2493.32</ele>
        <time>2019-07-05T11:20:32Z</time>
      </trkpt>
      <trkpt lat="42.4441609159" lon="19.8123924527">
        <ele>2494.28</ele>
        <time>2019-07-05T11:20:47Z</time>
      </trkpt>
      <trkpt lat="42.4441176653" lon="19.8123720847">
        <ele>2497.16</ele>
        <time>2019-07-05T11:21:01Z</time>
      </trkpt>
      <trkpt lat="42.4440833833" lon="19.8123693187">
        <ele>2499.57</ele>
        <time>2019-07-05T11:21:15Z</time>
      </trkpt>
      <trkpt lat="42.4440679606" lon="19.8123621941">
        <ele>2501.01</ele>
        <time>2019-07-05T11:21:19Z</time>
      </trkpt>
      <trkpt lat="42.4440632667" lon="19.8123516329">
        <ele>2502.45</ele>
        <time>2019-07-05T11:21:22Z</time>
      </trkpt>
      <trkpt lat="42.4440216087" lon="19.8123233858">
        <ele>2503.41</ele>
        <time>2019-07-05T11:21:36Z</time>
      </trkpt>
      <trkpt lat="42.4439947866" lon="19.8122820631">
        <ele>2504.85</ele>
        <time>2019-07-05T11:21:48Z</time>
      </trkpt>
      <trkpt lat="42.4439818785" lon="19.8122604378">
        <ele>2507.26</ele>
        <time>2019-07-05T11:21:59Z</time>
      </trkpt>
      <trkpt lat="42.4439724069" lon="19.8122400697">
        <ele>2509.66</ele>
        <time>2019-07-05T11:22:13Z</time>
      </trkpt>
      <trkpt lat="42.4439803697" lon="19.8122052010">
        <ele>2512.06</ele>
        <time>2019-07-05T11:22:29Z</time>
      </trkpt>
      <trkpt lat="42.4439915176" lon="19.8121874314">
        <ele>2513.50</ele>
        <time>2019-07-05T11:22:39Z</time>
      </trkpt>
      <trkpt lat="42.4440145679" lon="19.8121906165">
        <ele>2514.47</ele>
        <time>2019-07-05T11:22:53Z</time>
      </trkpt>
      <trkpt lat="42.4440231174" lon="19.8121753614">
        <ele>2514.95</ele>
        <time>2019-07-05T11:23:11Z</time>
      </trkpt>
      <trkpt lat="42.4439988937" lon="19.8121274170">
        <ele>2516.87</ele>
        <time>2019-07-05T11:23:31Z</time>
      </trkpt>
      <trkpt lat="42.4439775199" lon="19.8121014331">
        <ele>2517.83</ele>
        <time>2019-07-05T11:23:43Z</time>
      </trkpt>
      <trkpt lat="42.4439691380" lon="19.8120906204">
        <ele>2519.27</ele>
        <time>2019-07-05T11:23:54Z</time>
      </trkpt>
      <trkpt lat="42.4439804535" lon="19.8121212982">
        <ele>2519.27</ele>
        <time>2019-07-05T11:24:20Z</time>
      </trkpt>
      <trkpt lat="42.4439610913" lon="19.8121198732">
        <ele>2518.31</ele>
        <time>2019-07-05T11:24:33Z</time>
      </trkpt>
      <trkpt lat="42.4439817946" lon="19.8121456895">
        <ele>2516.39</ele>
        <time>2019-07-05T11:24:45Z</time>
      </trkpt>
      <trkpt lat="42.4440039229" lon="19.8121353798">
        <ele>2514.95</ele>
        <time>2019-07-05T11:25:06Z</time>
      </trkpt>
      <trkpt lat="42.4440020788" lon="19.8121528141">
        <ele>2513.02</ele>
        <time>2019-07-05T11:25:19Z</time>
      </trkpt>
      <trkpt lat="42.4439928588" lon="19.8121052887">
        <ele>2511.58</ele>
        <time>2019-07-05T11:25:33Z</time>
      </trkpt>
      <trkpt lat="42.4440170825" lon="19.8120609485">
        <ele>2510.62</ele>
        <time>2019-07-05T11:25:46Z</time>
      </trkpt>
      <trkpt lat="42.4440118857" lon="19.8120316118">
        <ele>2512.06</ele>
        <time>2019-07-05T11:25:54Z</time>
      </trkpt>
      <trkpt lat="42.4440125562" lon="19.8120107409">
        <ele>2512.54</ele>
        <time>2019-07-05T11:26:10Z</time>
      </trkpt>
      <trkpt lat="42.4440087005" lon="19.8119877744">
        <ele>2514.95</ele>
        <time>2019-07-05T11:26:23Z</time>
      </trkpt>
      <trkpt lat="42.4439945351" lon="19.8119759560">
        <ele>2514.95</ele>
        <time>2019-07-05T11:26:40Z</time>
      </trkpt>
      <trkpt lat="42.4439962115" lon="19.8119853437">
        <ele>2515.43</ele>
        <time>2019-07-05T11:27:07Z</time>
      </trkpt>
      <trkpt lat="42.4439881649" lon="19.8119459487">
        <ele>2515.43</ele>
        <time>2019-07-05T11:27:27Z</time>
      </trkpt>
      <trkpt lat="42.4439932778" lon="19.8119137622">
        <ele>2515.91</ele>
        <time>2019-07-05T11:27:54Z</time>
      </trkpt>
      <trkpt lat="42.4439747538" lon="19.8119345494">
        <ele>2515.91</ele>
        <time>2019-07-05T11:28:16Z</time>
      </trkpt>
      <trkpt lat="42.4439564813" lon="19.8119770456">
        <ele>2516.39</ele>
        <time>2019-07-05T11:28:38Z</time>
      </trkpt>
      <trkpt lat="42.4439323414" lon="19.8119739443">
        <ele>2514.95</ele>
        <time>2019-07-05T11:29:01Z</time>
      </trkpt>
      <trkpt lat="42.4439289887" lon="19.8119259160">
        <ele>2515.43</ele>
        <time>2019-07-05T11:29:18Z</time>
      </trkpt>
      <trkpt lat="42.4439926911" lon="19.8118763790">
        <ele>2515.43</ele>
        <time>2019-07-05T11:29:37Z</time>
      </trkpt>
      <trkpt lat="42.4439780228" lon="19.8119127564">
        <ele>2514.95</ele>
        <time>2019-07-05T11:29:53Z</time>
      </trkpt>
      <trkpt lat="42.4439394660" lon="19.8119259160">
        <ele>2514.95</ele>
        <time>2019-07-05T11:30:24Z</time>
      </trkpt>
      <trkpt lat="42.4439128116" lon="19.8119147681">
        <ele>2514.95</ele>
        <time>2019-07-05T11:30:43Z</time>
      </trkpt>
      <trkpt lat="42.4438949581" lon="19.8119148519">
        <ele>2511.58</ele>
        <time>2019-07-05T11:30:59Z</time>
      </trkpt>
      <trkpt lat="42.4439628515" lon="19.8119000997">
        <ele>2508.22</ele>
        <time>2019-07-05T11:31:06Z</time>
      </trkpt>
      <trkpt lat="42.4439731613" lon="19.8118921369">
        <ele>2507.74</ele>
        <time>2019-07-05T11:31:08Z</time>
      </trkpt>
      <trkpt lat="42.4440092035" lon="19.8118950706">
        <ele>2506.29</ele>
        <time>2019-07-05T11:31:15Z</time>
      </trkpt>
      <trkpt lat="42.4440260511" lon="19.8118749540">
        <ele>2506.29</ele>
        <time>2019-07-05T11:31:36Z</time>
      </trkpt>
      <trkpt lat="42.4440762587" lon="19.8119114991">
        <ele>2505.33</ele>
        <time>2019-07-05T11:31:54Z</time>
      </trkpt>
      <trkpt lat="42.4440592434" lon="19.8119508941">
        <ele>2501.97</ele>
        <time>2019-07-05T11:32:02Z</time>
      </trkpt>
      <trkpt lat="42.4440602493" lon="19.8120014369">
        <ele>2498.60</ele>
        <time>2019-07-05T11:32:11Z</time>
      </trkpt>
      <trkpt lat="42.4440563936" lon="19.8120418377">
        <ele>2495.72</ele>
        <time>2019-07-05T11:32:19Z</time>
      </trkpt>
      <trkpt lat="42.4440940283" lon="19.8121369723">
        <ele>2493.80</ele>
        <time>2019-07-05T11:32:33Z</time>
      </trkpt>
      <trkpt lat="42.4441106245" lon="19.8122138344">
        <ele>2493.32</ele>
        <time>2019-07-05T11:32:48Z</time>
      </trkpt>
      <trkpt lat="42.4441041704" lon="19.8122186121">
        <ele>2493.32</ele>
        <time>2019-07-05T11:32:49Z</time>
      </trkpt>
      <trkpt lat="42.4441009853" lon="19.8122421652">
        <ele>2492.84</ele>
        <time>2019-07-05T11:32:51Z</time>
      </trkpt>
      <trkpt lat="42.4441128876" lon="19.8123543989">
        <ele>2492.36</ele>
        <time>2019-07-05T11:33:02Z</time>
      </trkpt>
      <trkpt lat="42.4440952856" lon="19.8123869207">
        <ele>2493.80</ele>
        <time>2019-07-05T11:33:06Z</time>
      </trkpt>
      <trkpt lat="42.4440765101" lon="19.8124334402">
        <ele>2494.76</ele>
        <time>2019-07-05T11:33:18Z</time>
      </trkpt>
      <trkpt lat="42.4441226944" lon="19.8124061991">
        <ele>2492.36</ele>
        <time>2019-07-05T11:33:30Z</time>
      </trkpt>
      <trkpt lat="42.4441739917" lon="19.8123807181">
        <ele>2491.39</ele>
        <time>2019-07-05T11:33:39Z</time>
      </trkpt>
      <trkpt lat="42.4441971257" lon="19.8123304266">
        <ele>2488.51</ele>
        <time>2019-07-05T11:33:52Z</time>
      </trkpt>
      <trkpt lat="42.4442298990" lon="19.8123156745">
        <ele>2485.63</ele>
        <time>2019-07-05T11:34:04Z</time>
      </trkpt>
      <trkpt lat="42.4442633428" lon="19.8123567458">
        <ele>2483.70</ele>
        <time>2019-07-05T11:34:17Z</time>
      </trkpt>
      <trkpt lat="42.4442881532" lon="19.8123882618">
        <ele>2482.26</ele>
        <time>2019-07-05T11:34:36Z</time>
      </trkpt>
      <trkpt lat="42.4443065096" lon="19.8123891838">
        <ele>2482.26</ele>
        <time>2019-07-05T11:34:52Z</time>
      </trkpt>
      <trkpt lat="42.4443480000" lon="19.8123704921">
        <ele>2481.30</ele>
        <time>2019-07-05T11:35:06Z</time>
      </trkpt>
      <trkpt lat="42.4443920888" lon="19.8123524711">
        <ele>2478.90</ele>
        <time>2019-07-05T11:35:21Z</time>
      </trkpt>
      <trkpt lat="42.4444257002" lon="19.8123445921">
        <ele>2476.97</ele>
        <time>2019-07-05T11:35:35Z</time>
      </trkpt>
      <trkpt lat="42.4444352556" lon="19.8123414069">
        <ele>2475.53</ele>
        <time>2019-07-05T11:35:37Z</time>
      </trkpt>
      <trkpt lat="42.4444693699" lon="19.8123264033">
        <ele>2472.65</ele>
        <time>2019-07-05T11:35:50Z</time>
      </trkpt>
      <trkpt lat="42.4445282109" lon="19.8122723401">
        <ele>2469.76</ele>
        <time>2019-07-05T11:36:05Z</time>
      </trkpt>
      <trkpt lat="42.4445681926" lon="19.8121989146">
        <ele>2467.36</ele>
        <time>2019-07-05T11:36:20Z</time>
      </trkpt>
      <trkpt lat="42.4446019717" lon="19.8122241441">
        <ele>2464.96</ele>
        <time>2019-07-05T11:36:33Z</time>
      </trkpt>
      <trkpt lat="42.4446252733" lon="19.8122458532">
        <ele>2461.59</ele>
        <time>2019-07-05T11:36:43Z</time>
      </trkpt>
      <trkpt lat="42.4446432106" lon="19.8122090567">
        <ele>2460.15</ele>
        <time>2019-07-05T11:36:57Z</time>
      </trkpt>
      <trkpt lat="42.4446914066" lon="19.8121612798">
        <ele>2458.23</ele>
        <time>2019-07-05T11:37:15Z</time>
      </trkpt>
      <trkpt lat="42.4446962681" lon="19.8121854197">
        <ele>2456.79</ele>
        <time>2019-07-05T11:37:29Z</time>
      </trkpt>
      <trkpt lat="42.4447188154" lon="19.8122207075">
        <ele>2454.86</ele>
        <time>2019-07-05T11:37:43Z</time>
      </trkpt>
      <trkpt lat="42.4447490741" lon="19.8122099787">
        <ele>2451.98</ele>
        <time>2019-07-05T11:37:59Z</time>
      </trkpt>
      <trkpt lat="42.4447788298" lon="19.8122279160">
        <ele>2449.10</ele>
        <time>2019-07-05T11:38:11Z</time>
      </trkpt>
      <trkpt lat="42.4447773211" lon="19.8122401536">
        <ele>2449.58</ele>
        <time>2019-07-05T11:38:13Z</time>
      </trkpt>
      <trkpt lat="42.4448026344" lon="19.8122865055">
        <ele>2446.69</ele>
        <time>2019-07-05T11:38:27Z</time>
      </trkpt>
      <trkpt lat="42.4448416941" lon="19.8122893553">
        <ele>2444.29</ele>
        <time>2019-07-05T11:38:39Z</time>
      </trkpt>
      <trkpt lat="42.4448856153" lon="19.8123072926">
        <ele>2440.92</ele>
        <time>2019-07-05T11:38:49Z</time>
      </trkpt>
      <trkpt lat="42.4449286144" lon="19.8123097233">
        <ele>2437.56</ele>
        <time>2019-07-05T11:39:03Z</time>
      </trkpt>
      <trkpt lat="42.4449280277" lon="19.8123051971">
        <ele>2437.56</ele>
        <time>2019-07-05T11:39:04Z</time>
      </trkpt>
      <trkpt lat="42.4449794926" lon="19.8122543190">
        <ele>2435.64</ele>
        <time>2019-07-05T11:39:17Z</time>
      </trkpt>
      <trkpt lat="42.4450094998" lon="19.8122095596">
        <ele>2432.75</ele>
        <time>2019-07-05T11:39:31Z</time>
      </trkpt>
      <trkpt lat="42.4450016208" lon="19.8121788818">
        <ele>2430.35</ele>
        <time>2019-07-05T11:39:45Z</time>
      </trkpt>
      <trkpt lat="42.4450149480" lon="19.8121604417">
        <ele>2428.43</ele>
        <time>2019-07-05T11:40:00Z</time>
      </trkpt>
      <trkpt lat="42.4450517446" lon="19.8121177778">
        <ele>2426.50</ele>
        <time>2019-07-05T11:40:16Z</time>
      </trkpt>
      <trkpt lat="42.4450807460" lon="19.8120754492">
        <ele>2424.58</ele>
        <time>2019-07-05T11:40:32Z</time>
      </trkpt>
      <trkpt lat="42.4450985156" lon="19.8120710067">
        <ele>2421.22</ele>
        <time>2019-07-05T11:40:47Z</time>
      </trkpt>
      <trkpt lat="42.4451276008" lon="19.8121071327">
        <ele>2420.26</ele>
        <time>2019-07-05T11:41:01Z</time>
      </trkpt>
      <trkpt lat="42.4451348931" lon="19.8120829929">
        <ele>2418.81</ele>
        <time>2019-07-05T11:41:16Z</time>
      </trkpt>
      <trkpt lat="42.4451498128" lon="19.8120565061">
        <ele>2416.89</ele>
        <time>2019-07-05T11:41:29Z</time>
      </trkpt>
      <trkpt lat="42.4451623019" lon="19.8121263273">
        <ele>2415.45</ele>
        <time>2019-07-05T11:41:44Z</time>
      </trkpt>
      <trkpt lat="42.4451898783" lon="19.8121218011">
        <ele>2414.49</ele>
        <time>2019-07-05T11:41:54Z</time>
      </trkpt>
      <trkpt lat="42.4452418461" lon="19.8120898660">
        <ele>2412.57</ele>
        <time>2019-07-05T11:42:06Z</time>
      </trkpt>
      <trkpt lat="42.4452902097" lon="19.8120720964">
        <ele>2410.64</ele>
        <time>2019-07-05T11:42:22Z</time>
      </trkpt>
      <trkpt lat="42.4453047942" lon="19.8120484594">
        <ele>2409.68</ele>
        <time>2019-07-05T11:42:44Z</time>
      </trkpt>
      <trkpt lat="42.4453128409" lon="19.8120561708">
        <ele>2408.24</ele>
        <time>2019-07-05T11:42:59Z</time>
      </trkpt>
      <trkpt lat="42.4453459494" lon="19.8120261636">
        <ele>2407.76</ele>
        <time>2019-07-05T11:43:13Z</time>
      </trkpt>
      <trkpt lat="42.4453576840" lon="19.8120112438">
        <ele>2405.36</ele>
        <time>2019-07-05T11:43:26Z</time>
      </trkpt>
      <trkpt lat="42.4453973304" lon="19.8120227270">
        <ele>2402.95</ele>
        <time>2019-07-05T11:43:36Z</time>
      </trkpt>
      <trkpt lat="42.4453930557" lon="19.8120949790">
        <ele>2400.55</ele>
        <time>2019-07-05T11:43:49Z</time>
      </trkpt>
      <trkpt lat="42.4453909602" lon="19.8121883534">
        <ele>2397.67</ele>
        <time>2019-07-05T11:44:02Z</time>
      </trkpt>
      <trkpt lat="42.4453947321" lon="19.8122327775">
        <ele>2395.74</ele>
        <time>2019-07-05T11:44:14Z</time>
      </trkpt>
      <trkpt lat="42.4454072211" lon="19.8123177700">
        <ele>2391.90</ele>
        <time>2019-07-05T11:44:26Z</time>
      </trkpt>
      <trkpt lat="42.4454187881" lon="19.8124243040">
        <ele>2388.53</ele>
        <time>2019-07-05T11:44:39Z</time>
      </trkpt>
      <trkpt lat="42.4454404134" lon="19.8124976456">
        <ele>2386.13</ele>
        <time>2019-07-05T11:44:51Z</time>
      </trkpt>
      <trkpt lat="42.4455218855" lon="19.8125416506">
        <ele>2384.69</ele>
        <time>2019-07-05T11:45:04Z</time>
      </trkpt>
      <trkpt lat="42.4455969036" lon="19.8125838116">
        <ele>2382.28</ele>
        <time>2019-07-05T11:45:17Z</time>
      </trkpt>
      <trkpt lat="42.4456305150" lon="19.8126139026">
        <ele>2381.32</ele>
        <time>2019-07-05T11:45:22Z</time>
      </trkpt>
      <trkpt lat="42.4457145017" lon="19.8126926087">
        <ele>2377.96</ele>
        <time>2019-07-05T11:45:32Z</time>
      </trkpt>
      <trkpt lat="42.4458238017" lon="19.8127998970">
        <ele>2375.07</ele>
        <time>2019-07-05T11:45:46Z</time>
      </trkpt>
      <trkpt lat="42.4458555691" lon="19.8127999809">
        <ele>2374.59</ele>
        <time>2019-07-05T11:45:59Z</time>
      </trkpt>
      <trkpt lat="42.4459434114" lon="19.8127405532">
        <ele>2374.11</ele>
        <time>2019-07-05T11:46:12Z</time>
      </trkpt>
      <trkpt lat="42.4460207764" lon="19.8126807902">
        <ele>2373.15</ele>
        <time>2019-07-05T11:46:25Z</time>
      </trkpt>
      <trkpt lat="42.4460410606" lon="19.8126783594">
        <ele>2372.19</ele>
        <time>2019-07-05T11:46:41Z</time>
      </trkpt>
      <trkpt lat="42.4460675474" lon="19.8127097078">
        <ele>2371.23</ele>
        <time>2019-07-05T11:46:53Z</time>
      </trkpt>
      <trkpt lat="42.4460942857" lon="19.8127843067">
        <ele>2368.83</ele>
        <time>2019-07-05T11:47:08Z</time>
      </trkpt>
      <trkpt lat="42.4461610895" lon="19.8128652759">
        <ele>2368.35</ele>
        <time>2019-07-05T11:47:25Z</time>
      </trkpt>
      <trkpt lat="42.4461798649" lon="19.8128218576">
        <ele>2366.90</ele>
        <time>2019-07-05T11:47:38Z</time>
      </trkpt>
      <trkpt lat="42.4462076928" lon="19.8127875756">
        <ele>2364.98</ele>
        <time>2019-07-05T11:47:44Z</time>
      </trkpt>
      <trkpt lat="42.4462750833" lon="19.8127375357">
        <ele>2362.58</ele>
        <time>2019-07-05T11:47:57Z</time>
      </trkpt>
      <trkpt lat="42.4462770950" lon="19.8127354402">
        <ele>2362.58</ele>
        <time>2019-07-05T11:47:58Z</time>
      </trkpt>
      <trkpt lat="42.4462947808" lon="19.8127101269">
        <ele>2361.62</ele>
        <time>2019-07-05T11:48:14Z</time>
      </trkpt>
      <trkpt lat="42.4462899193" lon="19.8127028346">
        <ele>2359.21</ele>
        <time>2019-07-05T11:48:27Z</time>
      </trkpt>
      <trkpt lat="42.4462949485" lon="19.8127249628">
        <ele>2357.77</ele>
        <time>2019-07-05T11:48:42Z</time>
      </trkpt>
      <trkpt lat="42.4463354331" lon="19.8127252981">
        <ele>2356.81</ele>
        <time>2019-07-05T11:48:53Z</time>
      </trkpt>
      <trkpt lat="42.4463525321" lon="19.8127030022">
        <ele>2353.93</ele>
        <time>2019-07-05T11:49:03Z</time>
      </trkpt>
      <trkpt lat="42.4463956989" lon="19.8126973026">
        <ele>2352.00</ele>
        <time>2019-07-05T11:49:17Z</time>
      </trkpt>
      <trkpt lat="42.4464143906" lon="19.8126896750">
        <ele>2350.56</ele>
        <time>2019-07-05T11:49:30Z</time>
      </trkpt>
      <trkpt lat="42.4464116246" lon="19.8126958776">
        <ele>2349.60</ele>
        <time>2019-07-05T11:49:37Z</time>
      </trkpt>
      <trkpt lat="42.4464164861" lon="19.8127247952">
        <ele>2346.23</ele>
        <time>2019-07-05T11:49:45Z</time>
      </trkpt>
      <trkpt lat="42.4464179948" lon="19.8127242923">
        <ele>2346.23</ele>
        <time>2019-07-05T11:49:46Z</time>
      </trkpt>
      <trkpt lat="42.4464497622" lon="19.8126966320">
        <ele>2345.27</ele>
        <time>2019-07-05T11:49:59Z</time>
      </trkpt>
      <trkpt lat="42.4464588147" lon="19.8127387930">
        <ele>2343.35</ele>
        <time>2019-07-05T11:50:10Z</time>
      </trkpt>
      <trkpt lat="42.4464750756" lon="19.8127554730">
        <ele>2342.39</ele>
        <time>2019-07-05T11:50:12Z</time>
      </trkpt>
      <trkpt lat="42.4465059210" lon="19.8127986398">
        <ele>2341.91</ele>
        <time>2019-07-05T11:50:26Z</time>
      </trkpt>
      <trkpt lat="42.4465479143" lon="19.8128162418">
        <ele>2340.95</ele>
        <time>2019-07-05T11:50:39Z</time>
      </trkpt>
      <trkpt lat="42.4465813581" lon="19.8128450755">
        <ele>2339.51</ele>
        <time>2019-07-05T11:50:52Z</time>
      </trkpt>
      <trkpt lat="42.4466409534" lon="19.8128382862">
        <ele>2337.58</ele>
        <time>2019-07-05T11:51:06Z</time>
      </trkpt>
      <trkpt lat="42.4466402829" lon="19.8128382862">
        <ele>2339.02</ele>
        <time>2019-07-05T11:51:09Z</time>
      </trkpt>
      <trkpt lat="42.4466902390" lon="19.8128716461">
        <ele>2337.58</ele>
        <time>2019-07-05T11:51:19Z</time>
      </trkpt>
      <trkpt lat="42.4467226770" lon="19.8129414674">
        <ele>2334.70</ele>
        <time>2019-07-05T11:51:34Z</time>
      </trkpt>
      <trkpt lat="42.4467232637" lon="19.8129407130">
        <ele>2336.14</ele>
        <time>2019-07-05T11:51:37Z</time>
      </trkpt>
      <trkpt lat="42.4467144627" lon="19.8129276372">
        <ele>2333.74</ele>
        <time>2019-07-05T11:51:52Z</time>
      </trkpt>
      <trkpt lat="42.4466857966" lon="19.8129430600">
        <ele>2333.74</ele>
        <time>2019-07-05T11:52:08Z</time>
      </trkpt>
      <trkpt lat="42.4466770794" lon="19.8129369412">
        <ele>2333.26</ele>
        <time>2019-07-05T11:52:28Z</time>
      </trkpt>
      <trkpt lat="42.4466862995" lon="19.8129252065">
        <ele>2333.26</ele>
        <time>2019-07-05T11:52:40Z</time>
      </trkpt>
      <trkpt lat="42.4467148818" lon="19.8129299842">
        <ele>2333.26</ele>
        <time>2019-07-05T11:53:00Z</time>
      </trkpt>
      <trkpt lat="42.4467194080" lon="19.8129058443">
        <ele>2332.30</ele>
        <time>2019-07-05T11:53:19Z</time>
      </trkpt>
      <trkpt lat="42.4467253592" lon="19.8129299842">
        <ele>2331.81</ele>
        <time>2019-07-05T11:53:37Z</time>
      </trkpt>
      <trkpt lat="42.4467706215" lon="19.8128904216">
        <ele>2330.85</ele>
        <time>2019-07-05T11:53:53Z</time>
      </trkpt>
      <trkpt lat="42.4467881396" lon="19.8129244521">
        <ele>2330.85</ele>
        <time>2019-07-05T11:54:13Z</time>
      </trkpt>
      <trkpt lat="42.4468327314" lon="19.8129428923">
        <ele>2332.30</ele>
        <time>2019-07-05T11:54:40Z</time>
      </trkpt>
      <trkpt lat="42.4467666820" lon="19.8128869850">
        <ele>2332.30</ele>
        <time>2019-07-05T11:54:59Z</time>
      </trkpt>
      <trkpt lat="42.4467593897" lon="19.8128466681">
        <ele>2332.30</ele>
        <time>2019-07-05T11:55:17Z</time>
      </trkpt>
      <trkpt lat="42.4467590544" lon="19.8128452431">
        <ele>2330.85</ele>
        <time>2019-07-05T11:55:20Z</time>
      </trkpt>
      <trkpt lat="42.4467758182" lon="19.8128719814">
        <ele>2330.37</ele>
        <time>2019-07-05T11:55:40Z</time>
      </trkpt>
      <trkpt lat="42.4467760697" lon="19.8128683772">
        <ele>2329.41</ele>
        <time>2019-07-05T11:56:03Z</time>
      </trkpt>
      <trkpt lat="42.4467795063" lon="19.8128537089">
        <ele>2328.93</ele>
        <time>2019-07-05T11:56:25Z</time>
      </trkpt>
      <trkpt lat="42.4467806797" lon="19.8128463328">
        <ele>2329.89</ele>
        <time>2019-07-05T11:56:37Z</time>
      </trkpt>
      <trkpt lat="42.4468064122" lon="19.8128591571">
        <ele>2328.45</ele>
        <time>2019-07-05T11:57:19Z</time>
      </trkpt>
      <trkpt lat="42.4468064122" lon="19.8128666170">
        <ele>2327.97</ele>
        <time>2019-07-05T11:58:01Z</time>
      </trkpt>
      <trkpt lat="42.4468020536" lon="19.8128558043">
        <ele>2327.49</ele>
        <time>2019-07-05T11:58:42Z</time>
      </trkpt>
      <trkpt lat="42.4467988685" lon="19.8128618393">
        <ele>2327.01</ele>
        <time>2019-07-05T11:59:24Z</time>
      </trkpt>
      <trkpt lat="42.4467921630" lon="19.8128715623">
        <ele>2326.53</ele>
        <time>2019-07-05T12:00:07Z</time>
      </trkpt>
      <trkpt lat="42.4468064122" lon="19.8128646892">
        <ele>2326.53</ele>
        <time>2019-07-05T12:00:44Z</time>
      </trkpt>
      <trkpt lat="42.4467816018" lon="19.8128578998">
        <ele>2328.45</ele>
        <time>2019-07-05T12:01:29Z</time>
      </trkpt>
      <trkpt lat="42.4467901513" lon="19.8128568940">
        <ele>2328.93</ele>
        <time>2019-07-05T12:02:04Z</time>
      </trkpt>
      <trkpt lat="42.4467852898" lon="19.8128705565">
        <ele>2326.53</ele>
        <time>2019-07-05T12:02:31Z</time>
      </trkpt>
      <trkpt lat="42.4467936717" lon="19.8128642701">
        <ele>2326.53</ele>
        <time>2019-07-05T12:02:51Z</time>
      </trkpt>
      <trkpt lat="42.4467898998" lon="19.8128603306">
        <ele>2326.53</ele>
        <time>2019-07-05T12:03:11Z</time>
      </trkpt>
      <trkpt lat="42.4468023889" lon="19.8128372803">
        <ele>2327.49</ele>
        <time>2019-07-05T12:03:56Z</time>
      </trkpt>
      <trkpt lat="42.4468092620" lon="19.8128128890">
        <ele>2327.97</ele>
        <time>2019-07-05T12:04:45Z</time>
      </trkpt>
      <trkpt lat="42.4468043167" lon="19.8128321674">
        <ele>2327.49</ele>
        <time>2019-07-05T12:05:22Z</time>
      </trkpt>
      <trkpt lat="42.4468038138" lon="19.8128371127">
        <ele>2327.49</ele>
        <time>2019-07-05T12:06:07Z</time>
      </trkpt>
      <trkpt lat="42.4467819370" lon="19.8128864821">
        <ele>2327.97</ele>
        <time>2019-07-05T12:06:26Z</time>
      </trkpt>
      <trkpt lat="42.4467717111" lon="19.8128844704">
        <ele>2327.49</ele>
        <time>2019-07-05T12:06:47Z</time>
      </trkpt>
      <trkpt lat="42.4467646703" lon="19.8128876556">
        <ele>2327.49</ele>
        <time>2019-07-05T12:07:05Z</time>
      </trkpt>
      <trkpt lat="42.4467741419" lon="19.8129357677">
        <ele>2326.05</ele>
        <time>2019-07-05T12:07:15Z</time>
      </trkpt>
      <trkpt lat="42.4467848707" lon="19.8129871488">
        <ele>2324.12</ele>
        <time>2019-07-05T12:07:27Z</time>
      </trkpt>
      <trkpt lat="42.4467801768" lon="19.8130245320">
        <ele>2323.64</ele>
        <time>2019-07-05T12:07:39Z</time>
      </trkpt>
      <trkpt lat="42.4468179792" lon="19.8130136356">
        <ele>2323.16</ele>
        <time>2019-07-05T12:07:52Z</time>
      </trkpt>
      <trkpt lat="42.4468315579" lon="19.8129899986">
        <ele>2322.20</ele>
        <time>2019-07-05T12:08:05Z</time>
      </trkpt>
      <trkpt lat="42.4468182307" lon="19.8129592370">
        <ele>2323.64</ele>
        <time>2019-07-05T12:08:11Z</time>
      </trkpt>
      <trkpt lat="42.4467678554" lon="19.8129481729">
        <ele>2326.05</ele>
        <time>2019-07-05T12:08:23Z</time>
      </trkpt>
      <trkpt lat="42.4466913287" lon="19.8129402939">
        <ele>2328.93</ele>
        <time>2019-07-05T12:08:37Z</time>
      </trkpt>
      <trkpt lat="42.4466675241" lon="19.8129581474">
        <ele>2328.93</ele>
        <time>2019-07-05T12:08:40Z</time>
      </trkpt>
      <trkpt lat="42.4465594813" lon="19.8130542040">
        <ele>2330.37</ele>
        <time>2019-07-05T12:08:54Z</time>
      </trkpt>
      <trkpt lat="42.4465506803" lon="19.8131184932">
        <ele>2329.41</ele>
        <time>2019-07-05T12:09:01Z</time>
      </trkpt>
      <trkpt lat="42.4465474952" lon="19.8131987080">
        <ele>2326.05</ele>
        <time>2019-07-05T12:09:12Z</time>
      </trkpt>
      <trkpt lat="42.4465354253" lon="19.8132743966">
        <ele>2323.64</ele>
        <time>2019-07-05T12:09:23Z</time>
      </trkpt>
      <trkpt lat="42.4465511832" lon="19.8133522645">
        <ele>2321.24</ele>
        <time>2019-07-05T12:09:36Z</time>
      </trkpt>
      <trkpt lat="42.4465934280" lon="19.8133992031">
        <ele>2317.88</ele>
        <time>2019-07-05T12:09:51Z</time>
      </trkpt>
      <trkpt lat="42.4466324039" lon="19.8134490754">
        <ele>2316.43</ele>
        <time>2019-07-05T12:10:08Z</time>
      </trkpt>
      <trkpt lat="42.4467165582" lon="19.8133954313">
        <ele>2312.59</ele>
        <time>2019-07-05T12:10:19Z</time>
      </trkpt>
      <trkpt lat="42.4467435479" lon="19.8133742251">
        <ele>2312.59</ele>
        <time>2019-07-05T12:10:23Z</time>
      </trkpt>
      <trkpt lat="42.4468492437" lon="19.8132883105">
        <ele>2309.70</ele>
        <time>2019-07-05T12:10:38Z</time>
      </trkpt>
      <trkpt lat="42.4469007086" lon="19.8132965248">
        <ele>2307.30</ele>
        <time>2019-07-05T12:10:50Z</time>
      </trkpt>
      <trkpt lat="42.4469822645" lon="19.8132763244">
        <ele>2304.42</ele>
        <time>2019-07-05T12:11:04Z</time>
      </trkpt>
      <trkpt lat="42.4469783250" lon="19.8131842073">
        <ele>2302.49</ele>
        <time>2019-07-05T12:11:17Z</time>
      </trkpt>
      <trkpt lat="42.4469971843" lon="19.8130674474">
        <ele>2301.05</ele>
        <time>2019-07-05T12:11:30Z</time>
      </trkpt>
      <trkpt lat="42.4470330589" lon="19.8130040802">
        <ele>2297.21</ele>
        <time>2019-07-05T12:11:40Z</time>
      </trkpt>
      <trkpt lat="42.4470333941" lon="19.8129406292">
        <ele>2296.25</ele>
        <time>2019-07-05T12:11:50Z</time>
      </trkpt>
      <trkpt lat="42.4470402673" lon="19.8128598277">
        <ele>2293.36</ele>
        <time>2019-07-05T12:12:05Z</time>
      </trkpt>
      <trkpt lat="42.4470647424" lon="19.8127122223">
        <ele>2290.48</ele>
        <time>2019-07-05T12:12:23Z</time>
      </trkpt>
      <trkpt lat="42.4470902234" lon="19.8126089573">
        <ele>2287.59</ele>
        <time>2019-07-05T12:12:36Z</time>
      </trkpt>
      <trkpt lat="42.4471001979" lon="19.8125387169">
        <ele>2285.67</ele>
        <time>2019-07-05T12:12:51Z</time>
      </trkpt>
      <trkpt lat="42.4471039698" lon="19.8124125693">
        <ele>2282.79</ele>
        <time>2019-07-05T12:13:03Z</time>
      </trkpt>
      <trkpt lat="42.4471308757" lon="19.8124001641">
        <ele>2280.87</ele>
        <time>2019-07-05T12:13:07Z</time>
      </trkpt>
      <trkpt lat="42.4471699353" lon="19.8123916984">
        <ele>2278.46</ele>
        <time>2019-07-05T12:13:14Z</time>
      </trkpt>
      <trkpt lat="42.4472072348" lon="19.8123670556">
        <ele>2275.10</ele>
        <time>2019-07-05T12:13:20Z</time>
      </trkpt>
      <trkpt lat="42.4472618848" lon="19.8123446759">
        <ele>2272.21</ele>
        <time>2019-07-05T12:13:26Z</time>
      </trkpt>
      <trkpt lat="42.4472880363" lon="19.8123488668">
        <ele>2270.29</ele>
        <time>2019-07-05T12:13:29Z</time>
      </trkpt>
      <trkpt lat="42.4473527446" lon="19.8123147525">
        <ele>2268.37</ele>
        <time>2019-07-05T12:13:38Z</time>
      </trkpt>
      <trkpt lat="42.4473964144" lon="19.8123005871">
        <ele>2266.45</ele>
        <time>2019-07-05T12:13:43Z</time>
      </trkpt>
      <trkpt lat="42.4474725220" lon="19.8122822307">
        <ele>2263.08</ele>
        <time>2019-07-05T12:13:50Z</time>
      </trkpt>
      <trkpt lat="42.4475722667" lon="19.8122308496">
        <ele>2259.24</ele>
        <time>2019-07-05T12:13:59Z</time>
      </trkpt>
      <trkpt lat="42.4476584326" lon="19.8122073803">
        <ele>2255.87</ele>
        <time>2019-07-05T12:14:06Z</time>
      </trkpt>
      <trkpt lat="42.4477487896" lon="19.8121749423">
        <ele>2252.51</ele>
        <time>2019-07-05T12:14:13Z</time>
      </trkpt>
      <trkpt lat="42.4478272442" lon="19.8121195380">
        <ele>2249.62</ele>
        <time>2019-07-05T12:14:20Z</time>
      </trkpt>
      <trkpt lat="42.4479404837" lon="19.8119844217">
        <ele>2245.78</ele>
        <time>2019-07-05T12:14:31Z</time>
      </trkpt>
      <trkpt lat="42.4479703233" lon="19.8119498044">
        <ele>2244.82</ele>
        <time>2019-07-05T12:14:34Z</time>
      </trkpt>
      <trkpt lat="42.4480733369" lon="19.8118608724">
        <ele>2241.93</ele>
        <time>2019-07-05T12:14:43Z</time>
      </trkpt>
      <trkpt lat="42.4482014962" lon="19.8117545899">
        <ele>2238.57</ele>
        <time>2019-07-05T12:14:55Z</time>
      </trkpt>
      <trkpt lat="42.4483299069" lon="19.8116719443">
        <ele>2236.16</ele>
        <time>2019-07-05T12:15:09Z</time>
      </trkpt>
      <trkpt lat="42.4483354390" lon="19.8116616346">
        <ele>2235.68</ele>
        <time>2019-07-05T12:15:10Z</time>
      </trkpt>
      <trkpt lat="42.4483552203" lon="19.8116217367">
        <ele>2234.24</ele>
        <time>2019-07-05T12:15:13Z</time>
      </trkpt>
      <trkpt lat="42.4484116305" lon="19.8115714453">
        <ele>2230.88</ele>
        <time>2019-07-05T12:15:19Z</time>
      </trkpt>
      <trkpt lat="42.4484698847" lon="19.8114631511">
        <ele>2227.99</ele>
        <time>2019-07-05T12:15:27Z</time>
      </trkpt>
      <trkpt lat="42.4485477526" lon="19.8114154581">
        <ele>2224.15</ele>
        <time>2019-07-05T12:15:35Z</time>
      </trkpt>
      <trkpt lat="42.4486512691" lon="19.8113183957">
        <ele>2220.30</ele>
        <time>2019-07-05T12:15:43Z</time>
      </trkpt>
      <trkpt lat="42.4487140495" lon="19.8112222552">
        <ele>2216.94</ele>
        <time>2019-07-05T12:15:49Z</time>
      </trkpt>
      <trkpt lat="42.4488038197" lon="19.8111004662">
        <ele>2213.09</ele>
        <time>2019-07-05T12:15:56Z</time>
      </trkpt>
      <trkpt lat="42.4489156343" lon="19.8109412938">
        <ele>2209.25</ele>
        <time>2019-07-05T12:16:07Z</time>
      </trkpt>
      <trkpt lat="42.4489718769" lon="19.8108542897">
        <ele>2206.84</ele>
        <time>2019-07-05T12:16:13Z</time>
      </trkpt>
      <trkpt lat="42.4490043148" lon="19.8107894138">
        <ele>2205.40</ele>
        <time>2019-07-05T12:16:16Z</time>
      </trkpt>
      <trkpt lat="42.4490326457" lon="19.8107197601">
        <ele>2203.96</ele>
        <time>2019-07-05T12:16:19Z</time>
      </trkpt>
      <trkpt lat="42.4491132796" lon="19.8105845600">
        <ele>2200.59</ele>
        <time>2019-07-05T12:16:27Z</time>
      </trkpt>
      <trkpt lat="42.4492685124" lon="19.8104132339">
        <ele>2198.19</ele>
        <time>2019-07-05T12:16:44Z</time>
      </trkpt>
      <trkpt lat="42.4493225757" lon="19.8103128187">
        <ele>2196.75</ele>
        <time>2019-07-05T12:16:54Z</time>
      </trkpt>
      <trkpt lat="42.4493996054" lon="19.8103092145">
        <ele>2196.75</ele>
        <time>2019-07-05T12:17:04Z</time>
      </trkpt>
      <trkpt lat="42.4495404214" lon="19.8102705739">
        <ele>2196.27</ele>
        <time>2019-07-05T12:17:20Z</time>
      </trkpt>
      <trkpt lat="42.4495706800" lon="19.8102611024">
        <ele>2196.27</ele>
        <time>2019-07-05T12:17:23Z</time>
      </trkpt>
      <trkpt lat="42.4496277608" lon="19.8101853300">
        <ele>2193.87</ele>
        <time>2019-07-05T12:17:29Z</time>
      </trkpt>
      <trkpt lat="42.4496487156" lon="19.8100338690">
        <ele>2190.50</ele>
        <time>2019-07-05T12:17:37Z</time>
      </trkpt>
      <trkpt lat="42.4496659823" lon="19.8099123314">
        <ele>2187.14</ele>
        <time>2019-07-05T12:17:42Z</time>
      </trkpt>
      <trkpt lat="42.4496812373" lon="19.8098103236">
        <ele>2184.25</ele>
        <time>2019-07-05T12:17:46Z</time>
      </trkpt>
      <trkpt lat="42.4496807344" lon="19.8097789753">
        <ele>2184.25</ele>
        <time>2019-07-05T12:17:47Z</time>
      </trkpt>
      <trkpt lat="42.4496829137" lon="19.8097182903">
        <ele>2182.81</ele>
        <time>2019-07-05T12:17:49Z</time>
      </trkpt>
      <trkpt lat="42.4496719334" lon="19.8095468804">
        <ele>2180.41</ele>
        <time>2019-07-05T12:17:56Z</time>
      </trkpt>
      <trkpt lat="42.4496417586" lon="19.8092416115">
        <ele>2177.52</ele>
        <time>2019-07-05T12:18:13Z</time>
      </trkpt>
      <trkpt lat="42.4496774655" lon="19.8091007117">
        <ele>2174.64</ele>
        <time>2019-07-05T12:18:27Z</time>
      </trkpt>
      <trkpt lat="42.4496768788" lon="19.8088619113">
        <ele>2171.27</ele>
        <time>2019-07-05T12:18:40Z</time>
      </trkpt>
      <trkpt lat="42.4497106578" lon="19.8085957859">
        <ele>2168.87</ele>
        <time>2019-07-05T12:18:57Z</time>
      </trkpt>
      <trkpt lat="42.4496886972" lon="19.8085206002">
        <ele>2167.43</ele>
        <time>2019-07-05T12:19:15Z</time>
      </trkpt>
      <trkpt lat="42.4496551696" lon="19.8084770981">
        <ele>2167.43</ele>
        <time>2019-07-05T12:19:27Z</time>
      </trkpt>
      <trkpt lat="42.4496287666" lon="19.8084122222">
        <ele>2166.47</ele>
        <time>2019-07-05T12:19:55Z</time>
      </trkpt>
      <trkpt lat="42.4496448599" lon="19.8084375355">
        <ele>2166.47</ele>
        <time>2019-07-05T12:20:23Z</time>
      </trkpt>
      <trkpt lat="42.4496046267" lon="19.8084211908">
        <ele>2166.47</ele>
        <time>2019-07-05T12:20:46Z</time>
      </trkpt>
      <trkpt lat="42.4495694228" lon="19.8083471786">
        <ele>2165.99</ele>
        <time>2019-07-05T12:21:00Z</time>
      </trkpt>
      <trkpt lat="42.4495389126" lon="19.8082455900">
        <ele>2166.47</ele>
        <time>2019-07-05T12:21:13Z</time>
      </trkpt>
      <trkpt lat="42.4495157786" lon="19.8081403971">
        <ele>2167.43</ele>
        <time>2019-07-05T12:21:29Z</time>
      </trkpt>
      <trkpt lat="42.4495273456" lon="19.8080635350">
        <ele>2167.91</ele>
        <time>2019-07-05T12:21:38Z</time>
      </trkpt>
      <trkpt lat="42.4494995177" lon="19.8079866730">
        <ele>2167.91</ele>
        <time>2019-07-05T12:21:53Z</time>
      </trkpt>
      <trkpt lat="42.4494861905" lon="19.8079046141">
        <ele>2165.51</ele>
        <time>2019-07-05T12:22:04Z</time>
      </trkpt>
      <trkpt lat="42.4494386651" lon="19.8077839147">
        <ele>2164.06</ele>
        <time>2019-07-05T12:22:15Z</time>
      </trkpt>
      <trkpt lat="42.4494085740" lon="19.8076638859">
        <ele>2162.62</ele>
        <time>2019-07-05T12:22:28Z</time>
      </trkpt>
      <trkpt lat="42.4493670836" lon="19.8075928073">
        <ele>2162.62</ele>
        <time>2019-07-05T12:22:41Z</time>
      </trkpt>
      <trkpt lat="42.4493457936" lon="19.8074514885">
        <ele>2160.70</ele>
        <time>2019-07-05T12:22:56Z</time>
      </trkpt>
      <trkpt lat="42.4493029620" lon="19.8072303738">
        <ele>2160.22</ele>
        <time>2019-07-05T12:23:11Z</time>
      </trkpt>
      <trkpt lat="42.4493043032" lon="19.8071028013">
        <ele>2159.74</ele>
        <time>2019-07-05T12:23:25Z</time>
      </trkpt>
      <trkpt lat="42.4492676742" lon="19.8069457244">
        <ele>2159.74</ele>
        <time>2019-07-05T12:23:37Z</time>
      </trkpt>
      <trkpt lat="42.4492484797" lon="19.8068933375">
        <ele>2159.74</ele>
        <time>2019-07-05T12:23:43Z</time>
      </trkpt>
      <trkpt lat="42.4492150359" lon="19.8067112826">
        <ele>2159.26</ele>
        <time>2019-07-05T12:24:01Z</time>
      </trkpt>
      <trkpt lat="42.4492047261" lon="19.8065684550">
        <ele>2158.30</ele>
        <time>2019-07-05T12:24:12Z</time>
      </trkpt>
      <trkpt lat="42.4492457137" lon="19.8064515274">
        <ele>2157.34</ele>
        <time>2019-07-05T12:24:27Z</time>
      </trkpt>
      <trkpt lat="42.4492237531" lon="19.8063075263">
        <ele>2158.78</ele>
        <time>2019-07-05T12:24:40Z</time>
      </trkpt>
      <trkpt lat="42.4492274411" lon="19.8062698916">
        <ele>2159.26</ele>
        <time>2019-07-05T12:24:44Z</time>
      </trkpt>
      <trkpt lat="42.4492499046" lon="19.8061096296">
        <ele>2159.26</ele>
        <time>2019-07-05T12:24:58Z</time>
      </trkpt>
      <trkpt lat="42.4492642377" lon="19.8060340248">
        <ele>2159.26</ele>
        <time>2019-07-05T12:25:03Z</time>
      </trkpt>
      <trkpt lat="42.4493045546" lon="19.8059344478">
        <ele>2158.30</ele>
        <time>2019-07-05T12:25:17Z</time>
      </trkpt>
      <trkpt lat="42.4493225757" lon="19.8058038577">
        <ele>2157.34</ele>
        <time>2019-07-05T12:25:30Z</time>
      </trkpt>
      <trkpt lat="42.4492825102" lon="19.8057163507">
        <ele>2156.37</ele>
        <time>2019-07-05T12:25:48Z</time>
      </trkpt>
      <trkpt lat="42.4492711946" lon="19.8056322802">
        <ele>2154.45</ele>
        <time>2019-07-05T12:26:01Z</time>
      </trkpt>
      <trkpt lat="42.4492670875" lon="19.8055872694">
        <ele>2153.49</ele>
        <time>2019-07-05T12:26:06Z</time>
      </trkpt>
      <trkpt lat="42.4492420256" lon="19.8054488003">
        <ele>2152.53</ele>
        <time>2019-07-05T12:26:20Z</time>
      </trkpt>
      <trkpt lat="42.4492589571" lon="19.8052510712">
        <ele>2151.09</ele>
        <time>2019-07-05T12:26:37Z</time>
      </trkpt>
      <trkpt lat="42.4492738768" lon="19.8050787393">
        <ele>2150.13</ele>
        <time>2019-07-05T12:26:50Z</time>
      </trkpt>
      <trkpt lat="42.4492991064" lon="19.8050279450">
        <ele>2150.13</ele>
        <time>2019-07-05T12:26:55Z</time>
      </trkpt>
      <trkpt lat="42.4493756332" lon="19.8049024679">
        <ele>2149.16</ele>
        <time>2019-07-05T12:27:09Z</time>
      </trkpt>
      <trkpt lat="42.4493669998" lon="19.8047852051">
        <ele>2150.61</ele>
        <time>2019-07-05T12:27:23Z</time>
      </trkpt>
      <trkpt lat="42.4493734539" lon="19.8047693633">
        <ele>2149.16</ele>
        <time>2019-07-05T12:27:26Z</time>
      </trkpt>
      <trkpt lat="42.4494012818" lon="19.8046780843">
        <ele>2146.28</ele>
        <time>2019-07-05T12:27:40Z</time>
      </trkpt>
      <trkpt lat="42.4494036287" lon="19.8046255298">
        <ele>2143.88</ele>
        <time>2019-07-05T12:27:53Z</time>
      </trkpt>
      <trkpt lat="42.4494238291" lon="19.8046066705">
        <ele>2140.51</ele>
        <time>2019-07-05T12:28:06Z</time>
      </trkpt>
      <trkpt lat="42.4494593684" lon="19.8045505956">
        <ele>2138.11</ele>
        <time>2019-07-05T12:28:20Z</time>
      </trkpt>
      <trkpt lat="42.4494591169" lon="19.8045189958">
        <ele>2135.71</ele>
        <time>2019-07-05T12:28:35Z</time>
      </trkpt>
      <trkpt lat="42.4494555965" lon="19.8044632562">
        <ele>2133.30</ele>
        <time>2019-07-05T12:28:49Z</time>
      </trkpt>
      <trkpt lat="42.4494651519" lon="19.8043980449">
        <ele>2130.42</ele>
        <time>2019-07-05T12:29:03Z</time>
      </trkpt>
      <trkpt lat="42.4494656548" lon="19.8043967038">
        <ele>2130.42</ele>
        <time>2019-07-05T12:29:04Z</time>
      </trkpt>
      <trkpt lat="42.4494818319" lon="19.8043534532">
        <ele>2128.02</ele>
        <time>2019-07-05T12:29:17Z</time>
      </trkpt>
      <trkpt lat="42.4494871963" lon="19.8043658584">
        <ele>2127.05</ele>
        <time>2019-07-05T12:29:31Z</time>
      </trkpt>
      <trkpt lat="42.4494745396" lon="19.8043214343">
        <ele>2125.13</ele>
        <time>2019-07-05T12:29:56Z</time>
      </trkpt>
      <trkpt lat="42.4494545907" lon="19.8042324185">
        <ele>2122.73</ele>
        <time>2019-07-05T12:30:10Z</time>
      </trkpt>
      <trkpt lat="42.4494566862" lon="19.8041438218">
        <ele>2119.36</ele>
        <time>2019-07-05T12:30:24Z</time>
      </trkpt>
      <trkpt lat="42.4494276010" lon="19.8040133994">
        <ele>2116.48</ele>
        <time>2019-07-05T12:30:40Z</time>
      </trkpt>
      <trkpt lat="42.4493925646" lon="19.8038814683">
        <ele>2115.04</ele>
        <time>2019-07-05T12:30:58Z</time>
      </trkpt>
      <trkpt lat="42.4493536726" lon="19.8037854955">
        <ele>2113.12</ele>
        <time>2019-07-05T12:31:11Z</time>
      </trkpt>
      <trkpt lat="42.4493261799" lon="19.8037096392">
        <ele>2112.63</ele>
        <time>2019-07-05T12:31:28Z</time>
      </trkpt>
      <trkpt lat="42.4493237492" lon="19.8037007544">
        <ele>2112.15</ele>
        <time>2019-07-05T12:31:54Z</time>
      </trkpt>
      <trkpt lat="42.4493192229" lon="19.8037835676">
        <ele>2111.67</ele>
        <time>2019-07-05T12:32:15Z</time>
      </trkpt>
      <trkpt lat="42.4493087456" lon="19.8038249742">
        <ele>2111.67</ele>
        <time>2019-07-05T12:32:45Z</time>
      </trkpt>
      <trkpt lat="42.4493094999" lon="19.8038683925">
        <ele>2111.67</ele>
        <time>2019-07-05T12:33:17Z</time>
      </trkpt>
      <trkpt lat="42.4493224081" lon="19.8037872557">
        <ele>2111.19</ele>
        <time>2019-07-05T12:33:51Z</time>
      </trkpt>
      <trkpt lat="42.4493416026" lon="19.8038026784">
        <ele>2111.19</ele>
        <time>2019-07-05T12:34:27Z</time>
      </trkpt>
      <trkpt lat="42.4493223242" lon="19.8039110564">
        <ele>2111.19</ele>
        <time>2019-07-05T12:35:05Z</time>
      </trkpt>
      <trkpt lat="42.4492987711" lon="19.8038311768">
        <ele>2111.19</ele>
        <time>2019-07-05T12:35:46Z</time>
      </trkpt>
      <trkpt lat="42.4492962565" lon="19.8037243914">
        <ele>2111.19</ele>
        <time>2019-07-05T12:36:11Z</time>
      </trkpt>
      <trkpt lat="42.4493078236" lon="19.8037020117">
        <ele>2112.63</ele>
        <time>2019-07-05T12:36:13Z</time>
      </trkpt>
      <trkpt lat="42.4493076559" lon="19.8037062027">
        <ele>2111.67</ele>
        <time>2019-07-05T12:36:25Z</time>
      </trkpt>
      <trkpt lat="42.4493275210" lon="19.8036233056">
        <ele>2110.23</ele>
        <time>2019-07-05T12:36:38Z</time>
      </trkpt>
      <trkpt lat="42.4493336398" lon="19.8034591042">
        <ele>2109.75</ele>
        <time>2019-07-05T12:36:52Z</time>
      </trkpt>
      <trkpt lat="42.4493089132" lon="19.8033156898">
        <ele>2107.83</ele>
        <time>2019-07-05T12:37:10Z</time>
      </trkpt>
      <trkpt lat="42.4493167084" lon="19.8031918053">
        <ele>2104.94</ele>
        <time>2019-07-05T12:37:24Z</time>
      </trkpt>
      <trkpt lat="42.4493203964" lon="19.8030980956">
        <ele>2101.58</ele>
        <time>2019-07-05T12:37:31Z</time>
      </trkpt>
      <trkpt lat="42.4493309576" lon="19.8028834350">
        <ele>2100.14</ele>
        <time>2019-07-05T12:37:43Z</time>
      </trkpt>
      <trkpt lat="42.4493315443" lon="19.8028714489">
        <ele>2100.14</ele>
        <time>2019-07-05T12:37:44Z</time>
      </trkpt>
      <trkpt lat="42.4493380822" lon="19.8028449621">
        <ele>2100.14</ele>
        <time>2019-07-05T12:37:46Z</time>
      </trkpt>
      <trkpt lat="42.4493426085" lon="19.8027209938">
        <ele>2099.66</ele>
        <time>2019-07-05T12:37:56Z</time>
      </trkpt>
      <trkpt lat="42.4493421894" lon="19.8026821855">
        <ele>2101.10</ele>
        <time>2019-07-05T12:37:59Z</time>
      </trkpt>
      <trkpt lat="42.4493725318" lon="19.8024422117">
        <ele>2099.18</ele>
        <time>2019-07-05T12:38:14Z</time>
      </trkpt>
      <trkpt lat="42.4494096637" lon="19.8023015633">
        <ele>2098.70</ele>
        <time>2019-07-05T12:38:26Z</time>
      </trkpt>
      <trkpt lat="42.4494742043" lon="19.8021073546">
        <ele>2098.21</ele>
        <time>2019-07-05T12:38:41Z</time>
      </trkpt>
      <trkpt lat="42.4495314527" lon="19.8020124715">
        <ele>2097.73</ele>
        <time>2019-07-05T12:38:53Z</time>
      </trkpt>
      <trkpt lat="42.4495774694" lon="19.8019361962">
        <ele>2097.73</ele>
        <time>2019-07-05T12:39:01Z</time>
      </trkpt>
      <trkpt lat="42.4497122504" lon="19.8018245492">
        <ele>2097.73</ele>
        <time>2019-07-05T12:39:17Z</time>
      </trkpt>
      <trkpt lat="42.4497399107" lon="19.8017395567">
        <ele>2100.14</ele>
        <time>2019-07-05T12:39:30Z</time>
      </trkpt>
      <trkpt lat="42.4497465324" lon="19.8017156683">
        <ele>2099.66</ele>
        <time>2019-07-05T12:39:34Z</time>
      </trkpt>
      <trkpt lat="42.4498283397" lon="19.8014977388">
        <ele>2097.73</ele>
        <time>2019-07-05T12:39:50Z</time>
      </trkpt>
      <trkpt lat="42.4499464408" lon="19.8013126664">
        <ele>2096.77</ele>
        <time>2019-07-05T12:40:05Z</time>
      </trkpt>
      <trkpt lat="42.4500664696" lon="19.8011633009">
        <ele>2096.29</ele>
        <time>2019-07-05T12:40:20Z</time>
      </trkpt>
      <trkpt lat="42.4500688165" lon="19.8011584394">
        <ele>2096.29</ele>
        <time>2019-07-05T12:40:21Z</time>
      </trkpt>
      <trkpt lat="42.4502194393" lon="19.8010079004">
        <ele>2094.85</ele>
        <time>2019-07-05T12:40:39Z</time>
      </trkpt>
      <trkpt lat="42.4503643624" lon="19.8009289429">
        <ele>2094.85</ele>
        <time>2019-07-05T12:40:54Z</time>
      </trkpt>
      <trkpt lat="42.4504069425" lon="19.8009168729">
        <ele>2094.85</ele>
        <time>2019-07-05T12:40:59Z</time>
      </trkpt>
      <trkpt lat="42.4504487682" lon="19.8008813336">
        <ele>2094.37</ele>
        <time>2019-07-05T12:41:04Z</time>
      </trkpt>
      <trkpt lat="42.4504963774" lon="19.8007779010">
        <ele>2094.37</ele>
        <time>2019-07-05T12:41:13Z</time>
      </trkpt>
      <trkpt lat="42.4505701382" lon="19.8006288707">
        <ele>2094.37</ele>
        <time>2019-07-05T12:41:27Z</time>
      </trkpt>
      <trkpt lat="42.4506209325" lon="19.8005431239">
        <ele>2095.33</ele>
        <time>2019-07-05T12:41:36Z</time>
      </trkpt>
      <trkpt lat="42.4507189170" lon="19.8004536051">
        <ele>2094.37</ele>
        <time>2019-07-05T12:41:47Z</time>
      </trkpt>
      <trkpt lat="42.4508198351" lon="19.8002992105">
        <ele>2091.00</ele>
        <time>2019-07-05T12:42:01Z</time>
      </trkpt>
      <trkpt lat="42.4508607388" lon="19.8002218455">
        <ele>2089.56</ele>
        <time>2019-07-05T12:42:07Z</time>
      </trkpt>
      <trkpt lat="42.4509199988" lon="19.8002068419">
        <ele>2088.60</ele>
        <time>2019-07-05T12:42:12Z</time>
      </trkpt>
      <trkpt lat="42.4509887304" lon="19.8001437262">
        <ele>2087.16</ele>
        <time>2019-07-05T12:42:20Z</time>
      </trkpt>
      <trkpt lat="42.4511263613" lon="19.8000921775">
        <ele>2084.28</ele>
        <time>2019-07-05T12:42:32Z</time>
      </trkpt>
      <trkpt lat="42.4511859566" lon="19.8000587337">
        <ele>2082.83</ele>
        <time>2019-07-05T12:42:38Z</time>
      </trkpt>
      <trkpt lat="42.4513506610" lon="19.7999378666">
        <ele>2081.39</ele>
        <time>2019-07-05T12:42:53Z</time>
      </trkpt>
      <trkpt lat="42.4514001980" lon="19.7998755053">
        <ele>2080.91</ele>
        <time>2019-07-05T12:42:59Z</time>
      </trkpt>
      <trkpt lat="42.4515271001" lon="19.7997890040">
        <ele>2080.43</ele>
        <time>2019-07-05T12:43:13Z</time>
      </trkpt>
      <trkpt lat="42.4515659921" lon="19.7997434065">
        <ele>2079.47</ele>
        <time>2019-07-05T12:43:31Z</time>
      </trkpt>
      <trkpt lat="42.4515503179" lon="19.7996859066">
        <ele>2078.99</ele>
        <time>2019-07-05T12:44:00Z</time>
      </trkpt>
      <trkpt lat="42.4516400881" lon="19.7996051051">
        <ele>2075.62</ele>
        <time>2019-07-05T12:44:08Z</time>
      </trkpt>
      <trkpt lat="42.4516861886" lon="19.7995528020">
        <ele>2072.74</ele>
        <time>2019-07-05T12:44:12Z</time>
      </trkpt>
      <trkpt lat="42.4517579377" lon="19.7994297557">
        <ele>2068.41</ele>
        <time>2019-07-05T12:44:19Z</time>
      </trkpt>
      <trkpt lat="42.4518171977" lon="19.7993521392">
        <ele>2065.05</ele>
        <time>2019-07-05T12:44:24Z</time>
      </trkpt>
      <trkpt lat="42.4518497195" lon="19.7993300110">
        <ele>2063.13</ele>
        <time>2019-07-05T12:44:27Z</time>
      </trkpt>
      <trkpt lat="42.4519416690" lon="19.7992555797">
        <ele>2060.24</ele>
        <time>2019-07-05T12:44:35Z</time>
      </trkpt>
      <trkpt lat="42.4519872665" lon="19.7991417535">
        <ele>2057.36</ele>
        <time>2019-07-05T12:44:47Z</time>
      </trkpt>
      <trkpt lat="42.4519869313" lon="19.7991304379">
        <ele>2057.36</ele>
        <time>2019-07-05T12:44:48Z</time>
      </trkpt>
      <trkpt lat="42.4519900326" lon="19.7991031129">
        <ele>2056.88</ele>
        <time>2019-07-05T12:44:50Z</time>
      </trkpt>
      <trkpt lat="42.4521343689" lon="19.7989741154">
        <ele>2053.03</ele>
        <time>2019-07-05T12:45:05Z</time>
      </trkpt>
      <trkpt lat="42.4523071200" lon="19.7989270929">
        <ele>2050.15</ele>
        <time>2019-07-05T12:45:20Z</time>
      </trkpt>
      <trkpt lat="42.4524530489" lon="19.7988909669">
        <ele>2046.78</ele>
        <time>2019-07-05T12:45:31Z</time>
      </trkpt>
      <trkpt lat="42.4525406398" lon="19.7987628914">
        <ele>2042.94</ele>
        <time>2019-07-05T12:45:41Z</time>
      </trkpt>
      <trkpt lat="42.4525518715" lon="19.7986941598">
        <ele>2042.94</ele>
        <time>2019-07-05T12:45:57Z</time>
      </trkpt>
      <trkpt lat="42.4525349401" lon="19.7986604646">
        <ele>2042.46</ele>
        <time>2019-07-05T12:46:23Z</time>
      </trkpt>
      <trkpt lat="42.4525229540" lon="19.7986142803">
        <ele>2041.98</ele>
        <time>2019-07-05T12:46:52Z</time>
      </trkpt>
      <trkpt lat="42.4526296556" lon="19.7985235881">
        <ele>2038.13</ele>
        <time>2019-07-05T12:47:00Z</time>
      </trkpt>
      <trkpt lat="42.4527081102" lon="19.7984664235">
        <ele>2034.77</ele>
        <time>2019-07-05T12:47:05Z</time>
      </trkpt>
      <trkpt lat="42.4527346808" lon="19.7984482348">
        <ele>2033.81</ele>
        <time>2019-07-05T12:47:07Z</time>
      </trkpt>
      <trkpt lat="42.4528153986" lon="19.7984189820">
        <ele>2029.96</ele>
        <time>2019-07-05T12:47:13Z</time>
      </trkpt>
      <trkpt lat="42.4528292287" lon="19.7984153777">
        <ele>2029.48</ele>
        <time>2019-07-05T12:47:14Z</time>
      </trkpt>
      <trkpt lat="42.4528599903" lon="19.7984025534">
        <ele>2028.52</ele>
        <time>2019-07-05T12:47:16Z</time>
      </trkpt>
      <trkpt lat="42.4529192504" lon="19.7983821016">
        <ele>2025.64</ele>
        <time>2019-07-05T12:47:20Z</time>
      </trkpt>
      <trkpt lat="42.4529941846" lon="19.7983928304">
        <ele>2023.23</ele>
        <time>2019-07-05T12:47:25Z</time>
      </trkpt>
      <trkpt lat="42.4530803505" lon="19.7984214965">
        <ele>2019.87</ele>
        <time>2019-07-05T12:47:30Z</time>
      </trkpt>
      <trkpt lat="42.4531802628" lon="19.7984603047">
        <ele>2016.50</ele>
        <time>2019-07-05T12:47:35Z</time>
      </trkpt>
      <trkpt lat="42.4532230943" lon="19.7984737158">
        <ele>2016.02</ele>
        <time>2019-07-05T12:47:37Z</time>
      </trkpt>
      <trkpt lat="42.4532623217" lon="19.7984915692">
        <ele>2014.58</ele>
        <time>2019-07-05T12:47:39Z</time>
      </trkpt>
      <trkpt lat="42.4533042312" lon="19.7985272761">
        <ele>2013.62</ele>
        <time>2019-07-05T12:47:42Z</time>
      </trkpt>
      <trkpt lat="42.4534494057" lon="19.7986290324">
        <ele>2009.29</ele>
        <time>2019-07-05T12:47:57Z</time>
      </trkpt>
      <trkpt lat="42.4535135273" lon="19.7986085806">
        <ele>2007.37</ele>
        <time>2019-07-05T12:48:10Z</time>
      </trkpt>
      <trkpt lat="42.4535151199" lon="19.7985603847">
        <ele>2007.37</ele>
        <time>2019-07-05T12:48:41Z</time>
      </trkpt>
      <trkpt lat="42.4535292014" lon="19.7985581215">
        <ele>2007.37</ele>
        <time>2019-07-05T12:48:44Z</time>
      </trkpt>
      <trkpt lat="42.4535496533" lon="19.7986274399">
        <ele>2004.97</ele>
        <time>2019-07-05T12:49:00Z</time>
      </trkpt>
      <trkpt lat="42.4535699375" lon="19.7986036353">
        <ele>2004.97</ele>
        <time>2019-07-05T12:49:26Z</time>
      </trkpt>
      <trkpt lat="42.4535919819" lon="19.7986099217">
        <ele>2004.97</ele>
        <time>2019-07-05T12:49:31Z</time>
      </trkpt>
      <trkpt lat="42.4536299519" lon="19.7986382525">
        <ele>2003.52</ele>
        <time>2019-07-05T12:49:35Z</time>
      </trkpt>
      <trkpt lat="42.4537265114" lon="19.7987941559">
        <ele>2000.16</ele>
        <time>2019-07-05T12:49:45Z</time>
      </trkpt>
      <trkpt lat="42.4537473824" lon="19.7988250852">
        <ele>1999.68</ele>
        <time>2019-07-05T12:49:47Z</time>
      </trkpt>
      <trkpt lat="42.4538134318" lon="19.7989043780">
        <ele>1997.76</ele>
        <time>2019-07-05T12:49:55Z</time>
      </trkpt>
      <trkpt lat="42.4538555928" lon="19.7989845090">
        <ele>1996.32</ele>
        <time>2019-07-05T12:50:01Z</time>
      </trkpt>
      <trkpt lat="42.4538801517" lon="19.7990444396">
        <ele>1994.87</ele>
        <time>2019-07-05T12:50:05Z</time>
      </trkpt>
      <trkpt lat="42.4539601151" lon="19.7991722636">
        <ele>1992.47</ele>
        <time>2019-07-05T12:50:14Z</time>
      </trkpt>
      <trkpt lat="42.4540483765" lon="19.7992873471">
        <ele>1989.10</ele>
        <time>2019-07-05T12:50:23Z</time>
      </trkpt>
      <trkpt lat="42.4542482849" lon="19.7993929591">
        <ele>1986.22</ele>
        <time>2019-07-05T12:50:38Z</time>
      </trkpt>
      <trkpt lat="42.4544062000" lon="19.7994424962">
        <ele>1985.26</ele>
        <time>2019-07-05T12:50:51Z</time>
      </trkpt>
      <trkpt lat="42.4544227123" lon="19.7994611040">
        <ele>1985.26</ele>
        <time>2019-07-05T12:50:53Z</time>
      </trkpt>
      <trkpt lat="42.4545559846" lon="19.7995692305">
        <ele>1985.26</ele>
        <time>2019-07-05T12:51:07Z</time>
      </trkpt>
      <trkpt lat="42.4546943698" lon="19.7996128164">
        <ele>1982.86</ele>
        <time>2019-07-05T12:51:21Z</time>
      </trkpt>
      <trkpt lat="42.4547627661" lon="19.7996362858">
        <ele>1983.82</ele>
        <time>2019-07-05T12:51:40Z</time>
      </trkpt>
      <trkpt lat="42.4547752552" lon="19.7996193543">
        <ele>1983.82</ele>
        <time>2019-07-05T12:52:07Z</time>
      </trkpt>
      <trkpt lat="42.4547752552" lon="19.7996306699">
        <ele>1983.34</ele>
        <time>2019-07-05T12:52:29Z</time>
      </trkpt>
      <trkpt lat="42.4548320007" lon="19.7996222042">
        <ele>1980.93</ele>
        <time>2019-07-05T12:52:42Z</time>
      </trkpt>
      <trkpt lat="42.4549121317" lon="19.7995984834">
        <ele>1979.01</ele>
        <time>2019-07-05T12:52:56Z</time>
      </trkpt>
      <trkpt lat="42.4549578968" lon="19.7996051889">
        <ele>1977.09</ele>
        <time>2019-07-05T12:53:13Z</time>
      </trkpt>
      <trkpt lat="42.4549885746" lon="19.7996575758">
        <ele>1974.69</ele>
        <time>2019-07-05T12:53:25Z</time>
      </trkpt>
      <trkpt lat="42.4550139718" lon="19.7996988986">
        <ele>1972.76</ele>
        <time>2019-07-05T12:53:38Z</time>
      </trkpt>
      <trkpt lat="42.4550666101" lon="19.7996900138">
        <ele>1970.36</ele>
        <time>2019-07-05T12:53:53Z</time>
      </trkpt>
      <trkpt lat="42.4550956953" lon="19.7996765189">
        <ele>1969.40</ele>
        <time>2019-07-05T12:54:17Z</time>
      </trkpt>
      <trkpt lat="42.4551530275" lon="19.7996667959">
        <ele>1966.03</ele>
        <time>2019-07-05T12:54:28Z</time>
      </trkpt>
      <trkpt lat="42.4552440550" lon="19.7996683046">
        <ele>1964.11</ele>
        <time>2019-07-05T12:54:41Z</time>
      </trkpt>
      <trkpt lat="42.4553537741" lon="19.7997069452">
        <ele>1961.71</ele>
        <time>2019-07-05T12:54:54Z</time>
      </trkpt>
      <trkpt lat="42.4554155488" lon="19.7997327615">
        <ele>1960.27</ele>
        <time>2019-07-05T12:55:10Z</time>
      </trkpt>
      <trkpt lat="42.4553973600" lon="19.7996607609">
        <ele>1959.78</ele>
        <time>2019-07-05T12:55:39Z</time>
      </trkpt>
      <trkpt lat="42.4554737192" lon="19.7997408081">
        <ele>1958.34</ele>
        <time>2019-07-05T12:55:52Z</time>
      </trkpt>
      <trkpt lat="42.4554912373" lon="19.7997609247">
        <ele>1958.34</ele>
        <time>2019-07-05T12:55:54Z</time>
      </trkpt>
      <trkpt lat="42.4556198157" lon="19.7998254653">
        <ele>1955.46</ele>
        <time>2019-07-05T12:56:07Z</time>
      </trkpt>
      <trkpt lat="42.4557061493" lon="19.7998864017">
        <ele>1952.09</ele>
        <time>2019-07-05T12:56:21Z</time>
      </trkpt>
      <trkpt lat="42.4558047205" lon="19.7999655269">
        <ele>1949.69</ele>
        <time>2019-07-05T12:56:32Z</time>
      </trkpt>
      <trkpt lat="42.4558859412" lon="19.8000407126">
        <ele>1948.73</ele>
        <time>2019-07-05T12:56:43Z</time>
      </trkpt>
      <trkpt lat="42.4559602886" lon="19.8000744916">
        <ele>1948.25</ele>
        <time>2019-07-05T12:56:56Z</time>
      </trkpt>
      <trkpt lat="42.4560445268" lon="19.8001383618">
        <ele>1949.21</ele>
        <time>2019-07-05T12:57:08Z</time>
      </trkpt>
      <trkpt lat="42.4561715964" lon="19.8002290539">
        <ele>1949.69</ele>
        <time>2019-07-05T12:57:24Z</time>
      </trkpt>
      <trkpt lat="42.4562140089" lon="19.8002407886">
        <ele>1949.69</ele>
        <time>2019-07-05T12:57:29Z</time>
      </trkpt>
      <trkpt lat="42.4563324451" lon="19.8003128730">
        <ele>1947.77</ele>
        <time>2019-07-05T12:57:43Z</time>
      </trkpt>
      <trkpt lat="42.4563933816" lon="19.8003856279">
        <ele>1945.85</ele>
        <time>2019-07-05T12:57:54Z</time>
      </trkpt>
      <trkpt lat="42.4564880971" lon="19.8004486598">
        <ele>1944.88</ele>
        <time>2019-07-05T12:58:04Z</time>
      </trkpt>
      <trkpt lat="42.4565644562" lon="19.8005114403">
        <ele>1944.40</ele>
        <time>2019-07-05T12:58:17Z</time>
      </trkpt>
      <trkpt lat="42.4566862453" lon="19.8005414475">
        <ele>1942.00</ele>
        <time>2019-07-05T12:58:32Z</time>
      </trkpt>
      <trkpt lat="42.4567424040" lon="19.8005731311">
        <ele>1940.08</ele>
        <time>2019-07-05T12:58:40Z</time>
      </trkpt>
      <trkpt lat="42.4568910990" lon="19.8005696107">
        <ele>1937.19</ele>
        <time>2019-07-05T12:58:54Z</time>
      </trkpt>
      <trkpt lat="42.4569718167" lon="19.8005982768">
        <ele>1936.23</ele>
        <time>2019-07-05T12:59:08Z</time>
      </trkpt>
      <trkpt lat="42.4569838867" lon="19.8005905654">
        <ele>1935.75</ele>
        <time>2019-07-05T12:59:10Z</time>
      </trkpt>
      <trkpt lat="42.4571424723" lon="19.8005888890">
        <ele>1934.31</ele>
        <time>2019-07-05T12:59:26Z</time>
      </trkpt>
      <trkpt lat="42.4572350923" lon="19.8005645815">
        <ele>1933.83</ele>
        <time>2019-07-05T12:59:39Z</time>
      </trkpt>
      <trkpt lat="42.4572728947" lon="19.8005608935">
        <ele>1932.39</ele>
        <time>2019-07-05T12:59:44Z</time>
      </trkpt>
      <trkpt lat="42.4573865533" lon="19.8005455546">
        <ele>1929.50</ele>
        <time>2019-07-05T12:59:57Z</time>
      </trkpt>
      <trkpt lat="42.4574338272" lon="19.8005618155">
        <ele>1929.02</ele>
        <time>2019-07-05T13:00:00Z</time>
      </trkpt>
      <trkpt lat="42.4575333204" lon="19.8005857877">
        <ele>1926.62</ele>
        <time>2019-07-05T13:00:12Z</time>
      </trkpt>
      <trkpt lat="42.4576805905" lon="19.8005235102">
        <ele>1923.74</ele>
        <time>2019-07-05T13:00:27Z</time>
      </trkpt>
      <trkpt lat="42.4578204006" lon="19.8005865421">
        <ele>1921.33</ele>
        <time>2019-07-05T13:00:42Z</time>
      </trkpt>
      <trkpt lat="42.4579345621" lon="19.8005471472">
        <ele>1919.41</ele>
        <time>2019-07-05T13:00:54Z</time>
      </trkpt>
      <trkpt lat="42.4581001047" lon="19.8006362468">
        <ele>1916.53</ele>
        <time>2019-07-05T13:01:07Z</time>
      </trkpt>
      <trkpt lat="42.4581872765" lon="19.8006612249">
        <ele>1913.64</ele>
        <time>2019-07-05T13:01:16Z</time>
      </trkpt>
      <trkpt lat="42.4583211355" lon="19.8007617239">
        <ele>1910.76</ele>
        <time>2019-07-05T13:01:28Z</time>
      </trkpt>
      <trkpt lat="42.4583539926" lon="19.8007904738">
        <ele>1909.80</ele>
        <time>2019-07-05T13:01:32Z</time>
      </trkpt>
      <trkpt lat="42.4584036972" lon="19.8008322995">
        <ele>1908.35</ele>
        <time>2019-07-05T13:01:38Z</time>
      </trkpt>
      <trkpt lat="42.4585088901" lon="19.8009404261">
        <ele>1905.47</ele>
        <time>2019-07-05T13:01:53Z</time>
      </trkpt>
      <trkpt lat="42.4585511349" lon="19.8009752110">
        <ele>1904.99</ele>
        <time>2019-07-05T13:01:57Z</time>
      </trkpt>
      <trkpt lat="42.4585800525" lon="19.8010098282">
        <ele>1904.03</ele>
        <time>2019-07-05T13:02:00Z</time>
      </trkpt>
      <trkpt lat="42.4587182701" lon="19.8011182062">
        <ele>1900.18</ele>
        <time>2019-07-05T13:02:13Z</time>
      </trkpt>
      <trkpt lat="42.4588417355" lon="19.8012155201">
        <ele>1899.22</ele>
        <time>2019-07-05T13:02:27Z</time>
      </trkpt>
      <trkpt lat="42.4589284882" lon="19.8012933880">
        <ele>1896.34</ele>
        <time>2019-07-05T13:02:39Z</time>
      </trkpt>
      <trkpt lat="42.4589805398" lon="19.8013474513">
        <ele>1894.90</ele>
        <time>2019-07-05T13:02:44Z</time>
      </trkpt>
      <trkpt lat="42.4590149056" lon="19.8013722617">
        <ele>1894.42</ele>
        <time>2019-07-05T13:02:47Z</time>
      </trkpt>
      <trkpt lat="42.4590624310" lon="19.8014283367">
        <ele>1893.93</ele>
        <time>2019-07-05T13:02:53Z</time>
      </trkpt>
      <trkpt lat="42.4591175839" lon="19.8015343677">
        <ele>1891.53</ele>
        <time>2019-07-05T13:03:03Z</time>
      </trkpt>
      <trkpt lat="42.4591649417" lon="19.8016424943">
        <ele>1889.61</ele>
        <time>2019-07-05T13:03:12Z</time>
      </trkpt>
      <trkpt lat="42.4592044204" lon="19.8017061129">
        <ele>1887.21</ele>
        <time>2019-07-05T13:03:20Z</time>
      </trkpt>
      <trkpt lat="42.4592330027" lon="19.8017524648">
        <ele>1885.76</ele>
        <time>2019-07-05T13:03:24Z</time>
      </trkpt>
      <trkpt lat="42.4592928495" lon="19.8018288240">
        <ele>1883.36</ele>
        <time>2019-07-05T13:03:35Z</time>
      </trkpt>
      <trkpt lat="42.4593086075" lon="19.8018540535">
        <ele>1882.88</ele>
        <time>2019-07-05T13:03:37Z</time>
      </trkpt>
      <trkpt lat="42.4593908340" lon="19.8019013274">
        <ele>1880.00</ele>
        <time>2019-07-05T13:03:49Z</time>
      </trkpt>
      <trkpt lat="42.4593998864" lon="19.8019125592">
        <ele>1880.00</ele>
        <time>2019-07-05T13:03:51Z</time>
      </trkpt>
      <trkpt lat="42.4594986252" lon="19.8019770999">
        <ele>1876.63</ele>
        <time>2019-07-05T13:04:04Z</time>
      </trkpt>
      <trkpt lat="42.4595218431" lon="19.8020232841">
        <ele>1875.19</ele>
        <time>2019-07-05T13:04:08Z</time>
      </trkpt>
      <trkpt lat="42.4595443904" lon="19.8020573985">
        <ele>1874.71</ele>
        <time>2019-07-05T13:04:12Z</time>
      </trkpt>
      <trkpt lat="42.4596312270" lon="19.8021984659">
        <ele>1870.38</ele>
        <time>2019-07-05T13:04:25Z</time>
      </trkpt>
      <trkpt lat="42.4596542772" lon="19.8022230249">
        <ele>1869.90</ele>
        <time>2019-07-05T13:04:28Z</time>
      </trkpt>
      <trkpt lat="42.4597224221" lon="19.8023453169">
        <ele>1866.06</ele>
        <time>2019-07-05T13:04:40Z</time>
      </trkpt>
      <trkpt lat="42.4597426224" lon="19.8024208378">
        <ele>1862.69</ele>
        <time>2019-07-05T13:04:49Z</time>
      </trkpt>
      <trkpt lat="42.4597463943" lon="19.8024787568">
        <ele>1860.77</ele>
        <time>2019-07-05T13:04:56Z</time>
      </trkpt>
      <trkpt lat="42.4597567040" lon="19.8025189899">
        <ele>1859.33</ele>
        <time>2019-07-05T13:05:00Z</time>
      </trkpt>
      <trkpt lat="42.4597747251" lon="19.8026152980">
        <ele>1856.44</ele>
        <time>2019-07-05T13:05:12Z</time>
      </trkpt>
      <trkpt lat="42.4597880524" lon="19.8026440479">
        <ele>1855.48</ele>
        <time>2019-07-05T13:05:16Z</time>
      </trkpt>
      <trkpt lat="42.4597978592" lon="19.8026677687">
        <ele>1854.52</ele>
        <time>2019-07-05T13:05:18Z</time>
      </trkpt>
      <trkpt lat="42.4598977715" lon="19.8028112669">
        <ele>1852.12</ele>
        <time>2019-07-05T13:05:32Z</time>
      </trkpt>
      <trkpt lat="42.4600048922" lon="19.8029687628">
        <ele>1850.19</ele>
        <time>2019-07-05T13:05:46Z</time>
      </trkpt>
      <trkpt lat="42.4601055589" lon="19.8031148594">
        <ele>1848.27</ele>
        <time>2019-07-05T13:05:59Z</time>
      </trkpt>
      <trkpt lat="42.4601579458" lon="19.8032410070">
        <ele>1846.35</ele>
        <time>2019-07-05T13:06:11Z</time>
      </trkpt>
      <trkpt lat="42.4602493923" lon="19.8033688311">
        <ele>1842.98</ele>
        <time>2019-07-05T13:06:26Z</time>
      </trkpt>
      <trkpt lat="42.4603032880" lon="19.8034831602">
        <ele>1842.50</ele>
        <time>2019-07-05T13:06:38Z</time>
      </trkpt>
      <trkpt lat="42.4603379890" lon="19.8036580067">
        <ele>1839.62</ele>
        <time>2019-07-05T13:06:52Z</time>
      </trkpt>
      <trkpt lat="42.4603684992" lon="19.8037807178">
        <ele>1838.66</ele>
        <time>2019-07-05T13:07:02Z</time>
      </trkpt>
      <trkpt lat="42.4603837542" lon="19.8038283270">
        <ele>1837.22</ele>
        <time>2019-07-05T13:07:06Z</time>
      </trkpt>
      <trkpt lat="42.4604269210" lon="19.8040262237">
        <ele>1835.29</ele>
        <time>2019-07-05T13:07:20Z</time>
      </trkpt>
      <trkpt lat="42.4604477081" lon="19.8041728232">
        <ele>1833.37</ele>
        <time>2019-07-05T13:07:33Z</time>
      </trkpt>
      <trkpt lat="42.4604496360" lon="19.8042148165">
        <ele>1831.93</ele>
        <time>2019-07-05T13:07:36Z</time>
      </trkpt>
      <trkpt lat="42.4604652263" lon="19.8042922653">
        <ele>1831.45</ele>
        <time>2019-07-05T13:07:42Z</time>
      </trkpt>
      <trkpt lat="42.4605155177" lon="19.8044635914">
        <ele>1829.05</ele>
        <time>2019-07-05T13:07:57Z</time>
      </trkpt>
      <trkpt lat="42.4605088122" lon="19.8046000488">
        <ele>1826.64</ele>
        <time>2019-07-05T13:08:06Z</time>
      </trkpt>
      <trkpt lat="42.4605321977" lon="19.8047352489">
        <ele>1824.72</ele>
        <time>2019-07-05T13:08:19Z</time>
      </trkpt>
      <trkpt lat="42.4605669826" lon="19.8048755620">
        <ele>1821.35</ele>
        <time>2019-07-05T13:08:32Z</time>
      </trkpt>
      <trkpt lat="42.4605622888" lon="19.8049461376">
        <ele>1818.47</ele>
        <time>2019-07-05T13:08:43Z</time>
      </trkpt>
      <trkpt lat="42.4605684076" lon="19.8049619794">
        <ele>1818.95</ele>
        <time>2019-07-05T13:08:45Z</time>
      </trkpt>
      <trkpt lat="42.4606088083" lon="19.8050581198">
        <ele>1815.59</ele>
        <time>2019-07-05T13:08:56Z</time>
      </trkpt>
      <trkpt lat="42.4606894422" lon="19.8051380832">
        <ele>1813.66</ele>
        <time>2019-07-05T13:09:10Z</time>
      </trkpt>
      <trkpt lat="42.4608149193" lon="19.8052312899">
        <ele>1815.11</ele>
        <time>2019-07-05T13:09:25Z</time>
      </trkpt>
      <trkpt lat="42.4609015882" lon="19.8052911367">
        <ele>1815.59</ele>
        <time>2019-07-05T13:09:37Z</time>
      </trkpt>
      <trkpt lat="42.4609129038" lon="19.8052994348">
        <ele>1815.59</ele>
        <time>2019-07-05T13:09:38Z</time>
      </trkpt>
      <trkpt lat="42.4610188510" lon="19.8053845111">
        <ele>1816.55</ele>
        <time>2019-07-05T13:09:54Z</time>
      </trkpt>
      <trkpt lat="42.4610419851" lon="19.8054187093">
        <ele>1817.03</ele>
        <time>2019-07-05T13:09:59Z</time>
      </trkpt>
      <trkpt lat="42.4611376226" lon="19.8055363074">
        <ele>1818.95</ele>
        <time>2019-07-05T13:10:14Z</time>
      </trkpt>
      <trkpt lat="42.4612129759" lon="19.8056114931">
        <ele>1820.39</ele>
        <time>2019-07-05T13:10:28Z</time>
      </trkpt>
      <trkpt lat="42.4612233695" lon="19.8056171089">
        <ele>1819.91</ele>
        <time>2019-07-05T13:10:30Z</time>
      </trkpt>
      <trkpt lat="42.4612440728" lon="19.8056257423">
        <ele>1818.95</ele>
        <time>2019-07-05T13:10:32Z</time>
      </trkpt>
      <trkpt lat="42.4613499362" lon="19.8056793865">
        <ele>1818.47</ele>
        <time>2019-07-05T13:10:46Z</time>
      </trkpt>
      <trkpt lat="42.4614028260" lon="19.8057364672">
        <ele>1816.07</ele>
        <time>2019-07-05T13:10:59Z</time>
      </trkpt>
      <trkpt lat="42.4614034127" lon="19.8057423346">
        <ele>1816.07</ele>
        <time>2019-07-05T13:11:00Z</time>
      </trkpt>
      <trkpt lat="42.4614636786" lon="19.8057616968">
        <ele>1814.63</ele>
        <time>2019-07-05T13:11:05Z</time>
      </trkpt>
      <trkpt lat="42.4616026506" lon="19.8058339488">
        <ele>1814.15</ele>
        <time>2019-07-05T13:11:20Z</time>
      </trkpt>
      <trkpt lat="42.4616810214" lon="19.8058897723">
        <ele>1813.66</ele>
        <time>2019-07-05T13:11:29Z</time>
      </trkpt>
      <trkpt lat="42.4617724679" lon="19.8059678078">
        <ele>1812.22</ele>
        <time>2019-07-05T13:11:40Z</time>
      </trkpt>
      <trkpt lat="42.4617766589" lon="19.8059942108">
        <ele>1810.78</ele>
        <time>2019-07-05T13:11:42Z</time>
      </trkpt>
      <trkpt lat="42.4618095160" lon="19.8060270678">
        <ele>1810.78</ele>
        <time>2019-07-05T13:11:46Z</time>
      </trkpt>
      <trkpt lat="42.4618918262" lon="19.8061651178">
        <ele>1809.82</ele>
        <time>2019-07-05T13:11:56Z</time>
      </trkpt>
      <trkpt lat="42.4619174749" lon="19.8061893415">
        <ele>1809.82</ele>
        <time>2019-07-05T13:11:59Z</time>
      </trkpt>
      <trkpt lat="42.4620591290" lon="19.8063753359">
        <ele>1809.34</ele>
        <time>2019-07-05T13:12:15Z</time>
      </trkpt>
      <trkpt lat="42.4620883819" lon="19.8063991405">
        <ele>1809.34</ele>
        <time>2019-07-05T13:12:18Z</time>
      </trkpt>
      <trkpt lat="42.4621727038" lon="19.8065283895">
        <ele>1808.86</ele>
        <time>2019-07-05T13:12:30Z</time>
      </trkpt>
      <trkpt lat="42.4622318801" lon="19.8066360131">
        <ele>1808.86</ele>
        <time>2019-07-05T13:12:39Z</time>
      </trkpt>
      <trkpt lat="42.4623333849" lon="19.8067805171">
        <ele>1808.38</ele>
        <time>2019-07-05T13:12:54Z</time>
      </trkpt>
      <trkpt lat="42.4623949081" lon="19.8068384361">
        <ele>1809.82</ele>
        <time>2019-07-05T13:13:08Z</time>
      </trkpt>
      <trkpt lat="42.4624058884" lon="19.8068452254">
        <ele>1809.82</ele>
        <time>2019-07-05T13:13:36Z</time>
      </trkpt>
      <trkpt lat="42.4624145217" lon="19.8068301380">
        <ele>1809.82</ele>
        <time>2019-07-05T13:13:58Z</time>
      </trkpt>
      <trkpt lat="42.4624345545" lon="19.8068029806">
        <ele>1809.82</ele>
        <time>2019-07-05T13:14:26Z</time>
      </trkpt>
      <trkpt lat="42.4623808265" lon="19.8068698682">
        <ele>1809.82</ele>
        <time>2019-07-05T13:14:47Z</time>
      </trkpt>
      <trkpt lat="42.4624195509" lon="19.8068866320">
        <ele>1810.30</ele>
        <time>2019-07-05T13:15:07Z</time>
      </trkpt>
      <trkpt lat="42.4624029547" lon="19.8069142923">
        <ele>1810.78</ele>
        <time>2019-07-05T13:15:29Z</time>
      </trkpt>
      <trkpt lat="42.4624126777" lon="19.8068924993">
        <ele>1811.26</ele>
        <time>2019-07-05T13:15:56Z</time>
      </trkpt>
      <trkpt lat="42.4623540044" lon="19.8068945948">
        <ele>1809.82</ele>
        <time>2019-07-05T13:16:18Z</time>
      </trkpt>
      <trkpt lat="42.4623569380" lon="19.8068787530">
        <ele>1809.82</ele>
        <time>2019-07-05T13:16:37Z</time>
      </trkpt>
      <trkpt lat="42.4624192994" lon="19.8068434652">
        <ele>1809.82</ele>
        <time>2019-07-05T13:16:53Z</time>
      </trkpt>
      <trkpt lat="42.4623955786" lon="19.8068288807">
        <ele>1810.30</ele>
        <time>2019-07-05T13:17:16Z</time>
      </trkpt>
      <trkpt lat="42.4623962492" lon="19.8068160564">
        <ele>1810.30</ele>
        <time>2019-07-05T13:17:44Z</time>
      </trkpt>
      <trkpt lat="42.4623835087" lon="19.8068107758">
        <ele>1811.26</ele>
        <time>2019-07-05T13:17:50Z</time>
      </trkpt>
      <trkpt lat="42.4624170363" lon="19.8068282939">
        <ele>1811.26</ele>
        <time>2019-07-05T13:18:12Z</time>
      </trkpt>
      <trkpt lat="42.4624701776" lon="19.8069300503">
        <ele>1809.82</ele>
        <time>2019-07-05T13:18:40Z</time>
      </trkpt>
      <trkpt lat="42.4624270108" lon="19.8068390228">
        <ele>1810.30</ele>
        <time>2019-07-05T13:18:59Z</time>
      </trkpt>
      <trkpt lat="42.4623830058" lon="19.8068062495">
        <ele>1809.82</ele>
        <time>2019-07-05T13:19:18Z</time>
      </trkpt>
      <trkpt lat="42.4623864423" lon="19.8068035673">
        <ele>1811.26</ele>
        <time>2019-07-05T13:19:28Z</time>
      </trkpt>
      <trkpt lat="42.4623985123" lon="19.8068627436">
        <ele>1811.26</ele>
        <time>2019-07-05T13:19:44Z</time>
      </trkpt>
      <trkpt lat="42.4623693433" lon="19.8068558704">
        <ele>1810.30</ele>
        <time>2019-07-05T13:20:02Z</time>
      </trkpt>
      <trkpt lat="42.4624075647" lon="19.8068895657">
        <ele>1811.74</ele>
        <time>2019-07-05T13:20:08Z</time>
      </trkpt>
      <trkpt lat="42.4624419305" lon="19.8068951815">
        <ele>1811.74</ele>
        <time>2019-07-05T13:20:20Z</time>
      </trkpt>
      <trkpt lat="42.4624593649" lon="19.8069099337">
        <ele>1810.78</ele>
        <time>2019-07-05T13:20:25Z</time>
      </trkpt>
      <trkpt lat="42.4625431839" lon="19.8069784138">
        <ele>1810.78</ele>
        <time>2019-07-05T13:20:41Z</time>
      </trkpt>
      <trkpt lat="42.4625529908" lon="19.8069397733">
        <ele>1810.30</ele>
        <time>2019-07-05T13:20:57Z</time>
      </trkpt>
      <trkpt lat="42.4625519011" lon="19.8069441319">
        <ele>1809.82</ele>
        <time>2019-07-05T13:21:12Z</time>
      </trkpt>
      <trkpt lat="42.4625451956" lon="19.8069450539">
        <ele>1809.82</ele>
        <time>2019-07-05T13:21:36Z</time>
      </trkpt>
      <trkpt lat="42.4625643063" lon="19.8069272004">
        <ele>1809.82</ele>
        <time>2019-07-05T13:22:01Z</time>
      </trkpt>
      <trkpt lat="42.4625753704" lon="19.8069420364">
        <ele>1809.82</ele>
        <time>2019-07-05T13:22:19Z</time>
      </trkpt>
      <trkpt lat="42.4625309464" lon="19.8069006298">
        <ele>1811.26</ele>
        <time>2019-07-05T13:22:29Z</time>
      </trkpt>
      <trkpt lat="42.4625061359" lon="19.8068838660">
        <ele>1811.26</ele>
        <time>2019-07-05T13:22:34Z</time>
      </trkpt>
      <trkpt lat="42.4623746239" lon="19.8068327364">
        <ele>1811.26</ele>
        <time>2019-07-05T13:22:50Z</time>
      </trkpt>
      <trkpt lat="42.4623982608" lon="19.8068653420">
        <ele>1810.78</ele>
        <time>2019-07-05T13:23:04Z</time>
      </trkpt>
      <trkpt lat="42.4624001887" lon="19.8068743944">
        <ele>1810.78</ele>
        <time>2019-07-05T13:23:17Z</time>
      </trkpt>
      <trkpt lat="42.4624063913" lon="19.8068564571">
        <ele>1810.30</ele>
        <time>2019-07-05T13:23:21Z</time>
      </trkpt>
      <trkpt lat="42.4624045473" lon="19.8068412021">
        <ele>1762.23</ele>
        <time>2019-07-06T05:52:10Z</time>
      </trkpt>
      <trkpt lat="42.4624006078" lon="19.8068367597">
        <ele>1762.23</ele>
        <time>2019-07-06T05:52:11Z</time>
      </trkpt>
      <trkpt lat="42.4624115042" lon="19.8068951815">
        <ele>1766.08</ele>
        <time>2019-07-06T05:52:37Z</time>
      </trkpt>
      <trkpt lat="42.4624094088" lon="19.8068935890">
        <ele>1769.92</ele>
        <time>2019-07-06T05:52:39Z</time>
      </trkpt>
      <trkpt lat="42.4624046311" lon="19.8068952654">
        <ele>1771.37</ele>
        <time>2019-07-06T05:52:41Z</time>
      </trkpt>
      <trkpt lat="42.4624037091" lon="19.8068520986">
        <ele>1774.73</ele>
        <time>2019-07-06T05:52:44Z</time>
      </trkpt>
      <trkpt lat="42.4623984285" lon="19.8068522662">
        <ele>1776.17</ele>
        <time>2019-07-06T05:52:46Z</time>
      </trkpt>
      <trkpt lat="42.4623705167" lon="19.8068170622">
        <ele>1776.17</ele>
        <time>2019-07-06T05:53:14Z</time>
      </trkpt>
      <trkpt lat="42.4623296130" lon="19.8068125360">
        <ele>1776.17</ele>
        <time>2019-07-06T05:53:29Z</time>
      </trkpt>
      <trkpt lat="42.4622773938" lon="19.8067600653">
        <ele>1776.17</ele>
        <time>2019-07-06T05:53:38Z</time>
      </trkpt>
      <trkpt lat="42.4622703530" lon="19.8066974524">
        <ele>1780.02</ele>
        <time>2019-07-06T05:53:46Z</time>
      </trkpt>
      <trkpt lat="42.4622649048" lon="19.8066821136">
        <ele>1782.90</ele>
        <time>2019-07-06T05:53:50Z</time>
      </trkpt>
      <trkpt lat="42.4622532539" lon="19.8066624161">
        <ele>1784.34</ele>
        <time>2019-07-06T05:53:52Z</time>
      </trkpt>
      <trkpt lat="42.4622229114" lon="19.8066329118">
        <ele>1784.34</ele>
        <time>2019-07-06T05:53:57Z</time>
      </trkpt>
      <trkpt lat="42.4621759728" lon="19.8065847158">
        <ele>1783.86</ele>
        <time>2019-07-06T05:54:03Z</time>
      </trkpt>
      <trkpt lat="42.4621135276" lon="19.8064629268">
        <ele>1785.79</ele>
        <time>2019-07-06T05:54:16Z</time>
      </trkpt>
      <trkpt lat="42.4621095043" lon="19.8064766731">
        <ele>1788.19</ele>
        <time>2019-07-06T05:54:20Z</time>
      </trkpt>
      <trkpt lat="42.4620921537" lon="19.8064291477">
        <ele>1791.55</ele>
        <time>2019-07-06T05:54:26Z</time>
      </trkpt>
      <trkpt lat="42.4620094243" lon="19.8063545488">
        <ele>1794.44</ele>
        <time>2019-07-06T05:54:36Z</time>
      </trkpt>
      <trkpt lat="42.4619309697" lon="19.8062496912">
        <ele>1797.80</ele>
        <time>2019-07-06T05:54:49Z</time>
      </trkpt>
      <trkpt lat="42.4618657585" lon="19.8061517067">
        <ele>1801.17</ele>
        <time>2019-07-06T05:54:59Z</time>
      </trkpt>
      <trkpt lat="42.4618039001" lon="19.8060524650">
        <ele>1803.57</ele>
        <time>2019-07-06T05:55:07Z</time>
      </trkpt>
      <trkpt lat="42.4617372639" lon="19.8059611861">
        <ele>1807.42</ele>
        <time>2019-07-06T05:55:19Z</time>
      </trkpt>
      <trkpt lat="42.4616472423" lon="19.8058694042">
        <ele>1809.34</ele>
        <time>2019-07-06T05:55:35Z</time>
      </trkpt>
      <trkpt lat="42.4615728110" lon="19.8058378045">
        <ele>1809.82</ele>
        <time>2019-07-06T05:55:43Z</time>
      </trkpt>
      <trkpt lat="42.4614751618" lon="19.8057684861">
        <ele>1810.30</ele>
        <time>2019-07-06T05:55:56Z</time>
      </trkpt>
      <trkpt lat="42.4614461605" lon="19.8057321925">
        <ele>1811.26</ele>
        <time>2019-07-06T05:56:00Z</time>
      </trkpt>
      <trkpt lat="42.4613393750" lon="19.8057172727">
        <ele>1812.70</ele>
        <time>2019-07-06T05:56:13Z</time>
      </trkpt>
      <trkpt lat="42.4612782709" lon="19.8056464456">
        <ele>1813.66</ele>
        <time>2019-07-06T05:56:24Z</time>
      </trkpt>
      <trkpt lat="42.4612061866" lon="19.8056146782">
        <ele>1814.63</ele>
        <time>2019-07-06T05:56:35Z</time>
      </trkpt>
      <trkpt lat="42.4611874111" lon="19.8056031112">
        <ele>1815.11</ele>
        <time>2019-07-06T05:56:37Z</time>
      </trkpt>
      <trkpt lat="42.4611499440" lon="19.8055575136">
        <ele>1815.11</ele>
        <time>2019-07-06T05:56:42Z</time>
      </trkpt>
      <trkpt lat="42.4610543065" lon="19.8054819088">
        <ele>1811.74</ele>
        <time>2019-07-06T05:56:56Z</time>
      </trkpt>
      <trkpt lat="42.4609406479" lon="19.8053822480">
        <ele>1810.30</ele>
        <time>2019-07-06T05:57:09Z</time>
      </trkpt>
      <trkpt lat="42.4608597625" lon="19.8053699266">
        <ele>1809.82</ele>
        <time>2019-07-06T05:57:20Z</time>
      </trkpt>
      <trkpt lat="42.4607586768" lon="19.8053448647">
        <ele>1809.34</ele>
        <time>2019-07-06T05:57:32Z</time>
      </trkpt>
      <trkpt lat="42.4606673978" lon="19.8052313738">
        <ele>1808.86</ele>
        <time>2019-07-06T05:57:45Z</time>
      </trkpt>
      <trkpt lat="42.4606561661" lon="19.8052035458">
        <ele>1809.82</ele>
        <time>2019-07-06T05:57:48Z</time>
      </trkpt>
      <trkpt lat="42.4606133346" lon="19.8051156197">
        <ele>1812.22</ele>
        <time>2019-07-06T05:57:58Z</time>
      </trkpt>
      <trkpt lat="42.4605877697" lon="19.8049940821">
        <ele>1815.11</ele>
        <time>2019-07-06T05:58:11Z</time>
      </trkpt>
      <trkpt lat="42.4605609477" lon="19.8049136996">
        <ele>1817.03</ele>
        <time>2019-07-06T05:58:24Z</time>
      </trkpt>
      <trkpt lat="42.4605569243" lon="19.8048001248">
        <ele>1818.95</ele>
        <time>2019-07-06T05:58:36Z</time>
      </trkpt>
      <trkpt lat="42.4605420884" lon="19.8046956863">
        <ele>1820.39</ele>
        <time>2019-07-06T05:58:47Z</time>
      </trkpt>
      <trkpt lat="42.4605385680" lon="19.8045785073">
        <ele>1822.32</ele>
        <time>2019-07-06T05:58:58Z</time>
      </trkpt>
      <trkpt lat="42.4605378136" lon="19.8044676147">
        <ele>1824.24</ele>
        <time>2019-07-06T05:59:10Z</time>
      </trkpt>
      <trkpt lat="42.4605010170" lon="19.8044028226">
        <ele>1825.20</ele>
        <time>2019-07-06T05:59:19Z</time>
      </trkpt>
      <trkpt lat="42.4604764581" lon="19.8042894155">
        <ele>1826.64</ele>
        <time>2019-07-06T05:59:30Z</time>
      </trkpt>
      <trkpt lat="42.4604710937" lon="19.8042776808">
        <ele>1827.12</ele>
        <time>2019-07-06T05:59:31Z</time>
      </trkpt>
      <trkpt lat="42.4604544975" lon="19.8042533733">
        <ele>1827.12</ele>
        <time>2019-07-06T05:59:34Z</time>
      </trkpt>
      <trkpt lat="42.4604557548" lon="19.8041952029">
        <ele>1827.60</ele>
        <time>2019-07-06T05:59:40Z</time>
      </trkpt>
      <trkpt lat="42.4604377337" lon="19.8040611763">
        <ele>1830.01</ele>
        <time>2019-07-06T05:59:53Z</time>
      </trkpt>
      <trkpt lat="42.4604057148" lon="19.8039282393">
        <ele>1830.97</ele>
        <time>2019-07-06T06:00:07Z</time>
      </trkpt>
      <trkpt lat="42.4603886157" lon="19.8038026784">
        <ele>1832.89</ele>
        <time>2019-07-06T06:00:20Z</time>
      </trkpt>
      <trkpt lat="42.4603475444" lon="19.8036497086">
        <ele>1833.85</ele>
        <time>2019-07-06T06:00:34Z</time>
      </trkpt>
      <trkpt lat="42.4603312835" lon="19.8035703320">
        <ele>1836.26</ele>
        <time>2019-07-06T06:00:47Z</time>
      </trkpt>
      <trkpt lat="42.4602913857" lon="19.8034645524">
        <ele>1836.74</ele>
        <time>2019-07-06T06:00:59Z</time>
      </trkpt>
      <trkpt lat="42.4602634739" lon="19.8033714294">
        <ele>1837.70</ele>
        <time>2019-07-06T06:01:11Z</time>
      </trkpt>
      <trkpt lat="42.4602267612" lon="19.8032814078">
        <ele>1839.14</ele>
        <time>2019-07-06T06:01:22Z</time>
      </trkpt>
      <trkpt lat="42.4601931497" lon="19.8032222316">
        <ele>1840.10</ele>
        <time>2019-07-06T06:01:33Z</time>
      </trkpt>
      <trkpt lat="42.4601600412" lon="19.8031609599">
        <ele>1841.54</ele>
        <time>2019-07-06T06:01:44Z</time>
      </trkpt>
      <trkpt lat="42.4600841850" lon="19.8030163720">
        <ele>1843.47</ele>
        <time>2019-07-06T06:01:58Z</time>
      </trkpt>
      <trkpt lat="42.4600126874" lon="19.8029374983">
        <ele>1844.43</ele>
        <time>2019-07-06T06:02:10Z</time>
      </trkpt>
      <trkpt lat="42.4599443749" lon="19.8028174695">
        <ele>1844.91</ele>
        <time>2019-07-06T06:02:18Z</time>
      </trkpt>
      <trkpt lat="42.4598630704" lon="19.8026913218">
        <ele>1846.35</ele>
        <time>2019-07-06T06:02:32Z</time>
      </trkpt>
      <trkpt lat="42.4598318897" lon="19.8026516754">
        <ele>1846.83</ele>
        <time>2019-07-06T06:02:37Z</time>
      </trkpt>
      <trkpt lat="42.4597874656" lon="19.8025882244">
        <ele>1848.75</ele>
        <time>2019-07-06T06:02:49Z</time>
      </trkpt>
      <trkpt lat="42.4597952608" lon="19.8025380168">
        <ele>1850.68</ele>
        <time>2019-07-06T06:03:02Z</time>
      </trkpt>
      <trkpt lat="42.4597631581" lon="19.8024770804">
        <ele>1853.08</ele>
        <time>2019-07-06T06:03:13Z</time>
      </trkpt>
      <trkpt lat="42.4597711209" lon="19.8024143837">
        <ele>1855.00</ele>
        <time>2019-07-06T06:03:23Z</time>
      </trkpt>
      <trkpt lat="42.4597655889" lon="19.8023263738">
        <ele>1856.44</ele>
        <time>2019-07-06T06:03:34Z</time>
      </trkpt>
      <trkpt lat="42.4597219191" lon="19.8022555467">
        <ele>1858.85</ele>
        <time>2019-07-06T06:03:50Z</time>
      </trkpt>
      <trkpt lat="42.4596589711" lon="19.8021900002">
        <ele>1861.25</ele>
        <time>2019-07-06T06:04:02Z</time>
      </trkpt>
      <trkpt lat="42.4596328195" lon="19.8021056782">
        <ele>1863.17</ele>
        <time>2019-07-06T06:04:14Z</time>
      </trkpt>
      <trkpt lat="42.4595550355" lon="19.8020096216">
        <ele>1864.61</ele>
        <time>2019-07-06T06:04:27Z</time>
      </trkpt>
      <trkpt lat="42.4595257826" lon="19.8019498587">
        <ele>1866.54</ele>
        <time>2019-07-06T06:04:37Z</time>
      </trkpt>
      <trkpt lat="42.4594878964" lon="19.8018649500">
        <ele>1868.94</ele>
        <time>2019-07-06T06:04:49Z</time>
      </trkpt>
      <trkpt lat="42.4594526086" lon="19.8018323444">
        <ele>1869.90</ele>
        <time>2019-07-06T06:04:56Z</time>
      </trkpt>
      <trkpt lat="42.4593665265" lon="19.8017797060">
        <ele>1872.30</ele>
        <time>2019-07-06T06:05:10Z</time>
      </trkpt>
      <trkpt lat="42.4592842162" lon="19.8017154168">
        <ele>1874.23</ele>
        <time>2019-07-06T06:05:24Z</time>
      </trkpt>
      <trkpt lat="42.4592118803" lon="19.8016184382">
        <ele>1877.11</ele>
        <time>2019-07-06T06:05:38Z</time>
      </trkpt>
      <trkpt lat="42.4591611698" lon="19.8015595134">
        <ele>1878.55</ele>
        <time>2019-07-06T06:05:50Z</time>
      </trkpt>
      <trkpt lat="42.4591326714" lon="19.8014842439">
        <ele>1880.48</ele>
        <time>2019-07-06T06:06:03Z</time>
      </trkpt>
      <trkpt lat="42.4591055978" lon="19.8013983294">
        <ele>1881.92</ele>
        <time>2019-07-06T06:06:14Z</time>
      </trkpt>
      <trkpt lat="42.4590757582" lon="19.8013394047">
        <ele>1883.84</ele>
        <time>2019-07-06T06:06:25Z</time>
      </trkpt>
      <trkpt lat="42.4590302445" lon="19.8012649734">
        <ele>1885.28</ele>
        <time>2019-07-06T06:06:38Z</time>
      </trkpt>
      <trkpt lat="42.4589663744" lon="19.8011848424">
        <ele>1885.76</ele>
        <time>2019-07-06T06:06:50Z</time>
      </trkpt>
      <trkpt lat="42.4588702340" lon="19.8011219781">
        <ele>1887.69</ele>
        <time>2019-07-06T06:07:03Z</time>
      </trkpt>
      <trkpt lat="42.4587970600" lon="19.8010602035">
        <ele>1889.61</ele>
        <time>2019-07-06T06:07:15Z</time>
      </trkpt>
      <trkpt lat="42.4586919509" lon="19.8009952437">
        <ele>1891.05</ele>
        <time>2019-07-06T06:07:28Z</time>
      </trkpt>
      <trkpt lat="42.4586253986" lon="19.8009291943">
        <ele>1892.49</ele>
        <time>2019-07-06T06:07:38Z</time>
      </trkpt>
      <trkpt lat="42.4586052820" lon="19.8009152804">
        <ele>1892.49</ele>
        <time>2019-07-06T06:07:41Z</time>
      </trkpt>
      <trkpt lat="42.4585248996" lon="19.8007877916">
        <ele>1894.90</ele>
        <time>2019-07-06T06:07:54Z</time>
      </trkpt>
      <trkpt lat="42.4584672321" lon="19.8007392604">
        <ele>1896.34</ele>
        <time>2019-07-06T06:08:04Z</time>
      </trkpt>
      <trkpt lat="42.4583982490" lon="19.8006083351">
        <ele>1897.78</ele>
        <time>2019-07-06T06:08:17Z</time>
      </trkpt>
      <trkpt lat="42.4583228957" lon="19.8005226720">
        <ele>1899.22</ele>
        <time>2019-07-06T06:08:30Z</time>
      </trkpt>
      <trkpt lat="42.4582488835" lon="19.8004776612">
        <ele>1901.63</ele>
        <time>2019-07-06T06:08:43Z</time>
      </trkpt>
      <trkpt lat="42.4581717700" lon="19.8004101031">
        <ele>1903.55</ele>
        <time>2019-07-06T06:08:55Z</time>
      </trkpt>
      <trkpt lat="42.4580924772" lon="19.8003515974">
        <ele>1905.47</ele>
        <time>2019-07-06T06:09:06Z</time>
      </trkpt>
      <trkpt lat="42.4580221530" lon="19.8002599832">
        <ele>1906.91</ele>
        <time>2019-07-06T06:09:19Z</time>
      </trkpt>
      <trkpt lat="42.4579489790" lon="19.8002044111">
        <ele>1909.32</ele>
        <time>2019-07-06T06:09:32Z</time>
      </trkpt>
      <trkpt lat="42.4578653276" lon="19.8001583107">
        <ele>1910.76</ele>
        <time>2019-07-06T06:09:43Z</time>
      </trkpt>
      <trkpt lat="42.4577791616" lon="19.8001742363">
        <ele>1911.72</ele>
        <time>2019-07-06T06:09:55Z</time>
      </trkpt>
      <trkpt lat="42.4577282835" lon="19.8001780920">
        <ele>1912.20</ele>
        <time>2019-07-06T06:10:03Z</time>
      </trkpt>
      <trkpt lat="42.4576650001" lon="19.8001735657">
        <ele>1914.12</ele>
        <time>2019-07-06T06:10:14Z</time>
      </trkpt>
      <trkpt lat="42.4575872999" lon="19.8001468275">
        <ele>1915.08</ele>
        <time>2019-07-06T06:10:25Z</time>
      </trkpt>
      <trkpt lat="42.4574996252" lon="19.8002352566">
        <ele>1917.01</ele>
        <time>2019-07-06T06:10:38Z</time>
      </trkpt>
      <trkpt lat="42.4574455619" lon="19.8003319837">
        <ele>1919.41</ele>
        <time>2019-07-06T06:10:52Z</time>
      </trkpt>
      <trkpt lat="42.4573596474" lon="19.8003366776">
        <ele>1920.85</ele>
        <time>2019-07-06T06:11:04Z</time>
      </trkpt>
      <trkpt lat="42.4572815280" lon="19.8003493343">
        <ele>1922.77</ele>
        <time>2019-07-06T06:11:16Z</time>
      </trkpt>
      <trkpt lat="42.4572122935" lon="19.8002973665">
        <ele>1925.18</ele>
        <time>2019-07-06T06:11:29Z</time>
      </trkpt>
      <trkpt lat="42.4571456574" lon="19.8003104422">
        <ele>1926.14</ele>
        <time>2019-07-06T06:11:39Z</time>
      </trkpt>
      <trkpt lat="42.4570661969" lon="19.8003170639">
        <ele>1926.14</ele>
        <time>2019-07-06T06:11:51Z</time>
      </trkpt>
      <trkpt lat="42.4569816235" lon="19.8003143817">
        <ele>1926.62</ele>
        <time>2019-07-06T06:12:02Z</time>
      </trkpt>
      <trkpt lat="42.4568862375" lon="19.8002661858">
        <ele>1928.06</ele>
        <time>2019-07-06T06:12:14Z</time>
      </trkpt>
      <trkpt lat="42.4568051845" lon="19.8002718017">
        <ele>1929.50</ele>
        <time>2019-07-06T06:12:26Z</time>
      </trkpt>
      <trkpt lat="42.4567078706" lon="19.8002418783">
        <ele>1930.95</ele>
        <time>2019-07-06T06:12:39Z</time>
      </trkpt>
      <trkpt lat="42.4567128159" lon="19.8002227675">
        <ele>1930.95</ele>
        <time>2019-07-06T06:12:48Z</time>
      </trkpt>
      <trkpt lat="42.4566831440" lon="19.8003422096">
        <ele>1932.39</ele>
        <time>2019-07-06T06:13:00Z</time>
      </trkpt>
      <trkpt lat="42.4566210341" lon="19.8003006354">
        <ele>1934.31</ele>
        <time>2019-07-06T06:13:11Z</time>
      </trkpt>
      <trkpt lat="42.4565478601" lon="19.8002716340">
        <ele>1934.79</ele>
        <time>2019-07-06T06:13:22Z</time>
      </trkpt>
      <trkpt lat="42.4564451817" lon="19.8002324905">
        <ele>1935.75</ele>
        <time>2019-07-06T06:13:35Z</time>
      </trkpt>
      <trkpt lat="42.4563987460" lon="19.8001876473">
        <ele>1937.19</ele>
        <time>2019-07-06T06:13:45Z</time>
      </trkpt>
      <trkpt lat="42.4563635420" lon="19.8001707997">
        <ele>1937.67</ele>
        <time>2019-07-06T06:13:51Z</time>
      </trkpt>
      <trkpt lat="42.4563204590" lon="19.8001409601">
        <ele>1937.67</ele>
        <time>2019-07-06T06:13:55Z</time>
      </trkpt>
      <trkpt lat="42.4562392384" lon="19.8000548780">
        <ele>1939.12</ele>
        <time>2019-07-06T06:14:07Z</time>
      </trkpt>
      <trkpt lat="42.4561544135" lon="19.8000242002">
        <ele>1939.12</ele>
        <time>2019-07-06T06:14:18Z</time>
      </trkpt>
      <trkpt lat="42.4561477918" lon="19.8000208475">
        <ele>1939.12</ele>
        <time>2019-07-06T06:14:19Z</time>
      </trkpt>
      <trkpt lat="42.4560262542" lon="19.7999668680">
        <ele>1939.12</ele>
        <time>2019-07-06T06:14:31Z</time>
      </trkpt>
      <trkpt lat="42.4560095742" lon="19.7999796085">
        <ele>1939.12</ele>
        <time>2019-07-06T06:14:33Z</time>
      </trkpt>
      <trkpt lat="42.4559882004" lon="19.7999913432">
        <ele>1938.16</ele>
        <time>2019-07-06T06:14:35Z</time>
      </trkpt>
      <trkpt lat="42.4559266772" lon="19.7999500204">
        <ele>1938.16</ele>
        <time>2019-07-06T06:14:45Z</time>
      </trkpt>
      <trkpt lat="42.4558423553" lon="19.7998886649">
        <ele>1938.16</ele>
        <time>2019-07-06T06:14:57Z</time>
      </trkpt>
      <trkpt lat="42.4558337219" lon="19.7998809535">
        <ele>1939.12</ele>
        <time>2019-07-06T06:14:58Z</time>
      </trkpt>
      <trkpt lat="42.4557462148" lon="19.7998421453">
        <ele>1940.08</ele>
        <time>2019-07-06T06:15:11Z</time>
      </trkpt>
      <trkpt lat="42.4556900561" lon="19.7997637745">
        <ele>1942.00</ele>
        <time>2019-07-06T06:15:22Z</time>
      </trkpt>
      <trkpt lat="42.4556326400" lon="19.7997024190">
        <ele>1943.92</ele>
        <time>2019-07-06T06:15:34Z</time>
      </trkpt>
      <trkpt lat="42.4555619806" lon="19.7996175103">
        <ele>1943.92</ele>
        <time>2019-07-06T06:15:46Z</time>
      </trkpt>
      <trkpt lat="42.4554922432" lon="19.7995523829">
        <ele>1945.36</ele>
        <time>2019-07-06T06:15:57Z</time>
      </trkpt>
      <trkpt lat="42.4554389343" lon="19.7994881775">
        <ele>1947.29</ele>
        <time>2019-07-06T06:16:08Z</time>
      </trkpt>
      <trkpt lat="42.4554115254" lon="19.7994507942">
        <ele>1947.29</ele>
        <time>2019-07-06T06:16:28Z</time>
      </trkpt>
      <trkpt lat="42.4553694483" lon="19.7994916979">
        <ele>1947.29</ele>
        <time>2019-07-06T06:16:48Z</time>
      </trkpt>
      <trkpt lat="42.4553642515" lon="19.7996087931">
        <ele>1947.77</ele>
        <time>2019-07-06T06:16:53Z</time>
      </trkpt>
      <trkpt lat="42.4553626589" lon="19.7997208592">
        <ele>1948.25</ele>
        <time>2019-07-06T06:17:00Z</time>
      </trkpt>
      <trkpt lat="42.4552905746" lon="19.7996522114">
        <ele>1950.17</ele>
        <time>2019-07-06T06:17:11Z</time>
      </trkpt>
      <trkpt lat="42.4552088510" lon="19.7996227071">
        <ele>1951.61</ele>
        <time>2019-07-06T06:17:21Z</time>
      </trkpt>
      <trkpt lat="42.4550813623" lon="19.7996435780">
        <ele>1954.02</ele>
        <time>2019-07-06T06:17:36Z</time>
      </trkpt>
      <trkpt lat="42.4550159834" lon="19.7996901814">
        <ele>1954.50</ele>
        <time>2019-07-06T06:17:48Z</time>
      </trkpt>
      <trkpt lat="42.4549958669" lon="19.7997455858">
        <ele>1953.06</ele>
        <time>2019-07-06T06:17:56Z</time>
      </trkpt>
      <trkpt lat="42.4549922626" lon="19.7997788619">
        <ele>1952.57</ele>
        <time>2019-07-06T06:18:08Z</time>
      </trkpt>
      <trkpt lat="42.4550070986" lon="19.7997907642">
        <ele>1951.61</ele>
        <time>2019-07-06T06:18:22Z</time>
      </trkpt>
      <trkpt lat="42.4551082682" lon="19.7997467592">
        <ele>1951.61</ele>
        <time>2019-07-06T06:18:40Z</time>
      </trkpt>
      <trkpt lat="42.4551341683" lon="19.7997643612">
        <ele>1951.61</ele>
        <time>2019-07-06T06:19:02Z</time>
      </trkpt>
      <trkpt lat="42.4551939312" lon="19.7997269779">
        <ele>1951.13</ele>
        <time>2019-07-06T06:19:25Z</time>
      </trkpt>
      <trkpt lat="42.4552616570" lon="19.7996504512">
        <ele>1951.61</ele>
        <time>2019-07-06T06:19:45Z</time>
      </trkpt>
      <trkpt lat="42.4552183226" lon="19.7996974736">
        <ele>1951.61</ele>
        <time>2019-07-06T06:20:05Z</time>
      </trkpt>
      <trkpt lat="42.4551417958" lon="19.7997652832">
        <ele>1951.61</ele>
        <time>2019-07-06T06:20:31Z</time>
      </trkpt>
      <trkpt lat="42.4551715516" lon="19.7997760121">
        <ele>1951.61</ele>
        <time>2019-07-06T06:20:53Z</time>
      </trkpt>
      <trkpt lat="42.4551483337" lon="19.7998296563">
        <ele>1951.61</ele>
        <time>2019-07-06T06:21:10Z</time>
      </trkpt>
      <trkpt lat="42.4552149698" lon="19.7997615952">
        <ele>1951.61</ele>
        <time>2019-07-06T06:21:32Z</time>
      </trkpt>
      <trkpt lat="42.4551899917" lon="19.7998180054">
        <ele>1951.61</ele>
        <time>2019-07-06T06:21:56Z</time>
      </trkpt>
      <trkpt lat="42.4551446456" lon="19.7998033371">
        <ele>1953.06</ele>
        <time>2019-07-06T06:22:12Z</time>
      </trkpt>
      <trkpt lat="42.4551617447" lon="19.7997334320">
        <ele>1953.06</ele>
        <time>2019-07-06T06:22:29Z</time>
      </trkpt>
      <trkpt lat="42.4551661871" lon="19.7996973898">
        <ele>1953.06</ele>
        <time>2019-07-06T06:22:49Z</time>
      </trkpt>
      <trkpt lat="42.4551149737" lon="19.7997127287">
        <ele>1953.06</ele>
        <time>2019-07-06T06:23:08Z</time>
      </trkpt>
      <trkpt lat="42.4552132096" lon="19.7996923607">
        <ele>1953.54</ele>
        <time>2019-07-06T06:23:30Z</time>
      </trkpt>
      <trkpt lat="42.4551393650" lon="19.7997019999">
        <ele>1953.54</ele>
        <time>2019-07-06T06:23:43Z</time>
      </trkpt>
      <trkpt lat="42.4551940989" lon="19.7996916901">
        <ele>1953.54</ele>
        <time>2019-07-06T06:24:02Z</time>
      </trkpt>
      <trkpt lat="42.4550967012" lon="19.7997497767">
        <ele>1953.54</ele>
        <time>2019-07-06T06:24:23Z</time>
      </trkpt>
      <trkpt lat="42.4550781772" lon="19.7997504473">
        <ele>1954.98</ele>
        <time>2019-07-06T06:24:38Z</time>
      </trkpt>
      <trkpt lat="42.4550570548" lon="19.7996721603">
        <ele>1957.38</ele>
        <time>2019-07-06T06:24:50Z</time>
      </trkpt>
      <trkpt lat="42.4549969565" lon="19.7996428236">
        <ele>1959.78</ele>
        <time>2019-07-06T06:25:01Z</time>
      </trkpt>
      <trkpt lat="42.4549427256" lon="19.7996058594">
        <ele>1962.19</ele>
        <time>2019-07-06T06:25:15Z</time>
      </trkpt>
      <trkpt lat="42.4549056776" lon="19.7995683085">
        <ele>1965.55</ele>
        <time>2019-07-06T06:25:27Z</time>
      </trkpt>
      <trkpt lat="42.4548350181" lon="19.7995211184">
        <ele>1967.48</ele>
        <time>2019-07-06T06:25:41Z</time>
      </trkpt>
      <trkpt lat="42.4547698069" lon="19.7994773649">
        <ele>1967.96</ele>
        <time>2019-07-06T06:25:52Z</time>
      </trkpt>
      <trkpt lat="42.4547646102" lon="19.7994751856">
        <ele>1967.96</ele>
        <time>2019-07-06T06:25:53Z</time>
      </trkpt>
      <trkpt lat="42.4546571542" lon="19.7994404007">
        <ele>1969.40</ele>
        <time>2019-07-06T06:26:06Z</time>
      </trkpt>
      <trkpt lat="42.4546517897" lon="19.7994390596">
        <ele>1969.40</ele>
        <time>2019-07-06T06:26:07Z</time>
      </trkpt>
      <trkpt lat="42.4545586668" lon="19.7994473577">
        <ele>1969.40</ele>
        <time>2019-07-06T06:26:15Z</time>
      </trkpt>
      <trkpt lat="42.4545369577" lon="19.7994426638">
        <ele>1969.88</ele>
        <time>2019-07-06T06:26:17Z</time>
      </trkpt>
      <trkpt lat="42.4543463532" lon="19.7994088009">
        <ele>1971.32</ele>
        <time>2019-07-06T06:26:33Z</time>
      </trkpt>
      <trkpt lat="42.4543388095" lon="19.7994068731">
        <ele>1971.80</ele>
        <time>2019-07-06T06:26:34Z</time>
      </trkpt>
      <trkpt lat="42.4542886019" lon="19.7993948031">
        <ele>1972.28</ele>
        <time>2019-07-06T06:26:38Z</time>
      </trkpt>
      <trkpt lat="42.4541365542" lon="19.7993364651">
        <ele>1974.20</ele>
        <time>2019-07-06T06:26:50Z</time>
      </trkpt>
      <trkpt lat="42.4541054573" lon="19.7993200365">
        <ele>1975.17</ele>
        <time>2019-07-06T06:26:55Z</time>
      </trkpt>
      <trkpt lat="42.4539607018" lon="19.7992422525">
        <ele>1978.05</ele>
        <time>2019-07-06T06:27:15Z</time>
      </trkpt>
      <trkpt lat="42.4538260885" lon="19.7991526499">
        <ele>1979.49</ele>
        <time>2019-07-06T06:27:29Z</time>
      </trkpt>
      <trkpt lat="42.4536778964" lon="19.7990527377">
        <ele>1981.90</ele>
        <time>2019-07-06T06:27:44Z</time>
      </trkpt>
      <trkpt lat="42.4535312969" lon="19.7989563458">
        <ele>1984.78</ele>
        <time>2019-07-06T06:27:59Z</time>
      </trkpt>
      <trkpt lat="42.4534633197" lon="19.7988169547">
        <ele>1987.66</ele>
        <time>2019-07-06T06:28:13Z</time>
      </trkpt>
      <trkpt lat="42.4534038082" lon="19.7986891307">
        <ele>1990.07</ele>
        <time>2019-07-06T06:28:26Z</time>
      </trkpt>
      <trkpt lat="42.4533399381" lon="19.7985758074">
        <ele>1993.43</ele>
        <time>2019-07-06T06:28:40Z</time>
      </trkpt>
      <trkpt lat="42.4532956816" lon="19.7984826006">
        <ele>1996.32</ele>
        <time>2019-07-06T06:28:53Z</time>
      </trkpt>
      <trkpt lat="42.4532329850" lon="19.7984086722">
        <ele>1999.20</ele>
        <time>2019-07-06T06:29:08Z</time>
      </trkpt>
      <trkpt lat="42.4531674385" lon="19.7983364202">
        <ele>2002.56</ele>
        <time>2019-07-06T06:29:21Z</time>
      </trkpt>
      <trkpt lat="42.4530836195" lon="19.7983041499">
        <ele>2004.97</ele>
        <time>2019-07-06T06:29:35Z</time>
      </trkpt>
      <trkpt lat="42.4530055001" lon="19.7983007971">
        <ele>2006.89</ele>
        <time>2019-07-06T06:29:45Z</time>
      </trkpt>
      <trkpt lat="42.4528842140" lon="19.7983095143">
        <ele>2010.25</ele>
        <time>2019-07-06T06:30:00Z</time>
      </trkpt>
      <trkpt lat="42.4528128840" lon="19.7983546928">
        <ele>2013.14</ele>
        <time>2019-07-06T06:30:13Z</time>
      </trkpt>
      <trkpt lat="42.4527480919" lon="19.7983876336">
        <ele>2016.02</ele>
        <time>2019-07-06T06:30:27Z</time>
      </trkpt>
      <trkpt lat="42.4526828807" lon="19.7984706145">
        <ele>2019.39</ele>
        <time>2019-07-06T06:30:41Z</time>
      </trkpt>
      <trkpt lat="42.4526043423" lon="19.7985349037">
        <ele>2022.27</ele>
        <time>2019-07-06T06:30:56Z</time>
      </trkpt>
      <trkpt lat="42.4525195174" lon="19.7986021265">
        <ele>2025.15</ele>
        <time>2019-07-06T06:31:08Z</time>
      </trkpt>
      <trkpt lat="42.4524598382" lon="19.7986573633">
        <ele>2027.08</ele>
        <time>2019-07-06T06:31:19Z</time>
      </trkpt>
      <trkpt lat="42.4523905199" lon="19.7987179644">
        <ele>2029.48</ele>
        <time>2019-07-06T06:31:34Z</time>
      </trkpt>
      <trkpt lat="42.4522718322" lon="19.7987999395">
        <ele>2031.40</ele>
        <time>2019-07-06T06:31:49Z</time>
      </trkpt>
      <trkpt lat="42.4521355424" lon="19.7988658212">
        <ele>2033.81</ele>
        <time>2019-07-06T06:32:05Z</time>
      </trkpt>
      <trkpt lat="42.4520279188" lon="19.7989116702">
        <ele>2036.69</ele>
        <time>2019-07-06T06:32:19Z</time>
      </trkpt>
      <trkpt lat="42.4519562535" lon="19.7989724390">
        <ele>2037.65</ele>
        <time>2019-07-06T06:32:30Z</time>
      </trkpt>
      <trkpt lat="42.4519449379" lon="19.7989965789">
        <ele>2038.61</ele>
        <time>2019-07-06T06:32:34Z</time>
      </trkpt>
      <trkpt lat="42.4519171100" lon="19.7990913782">
        <ele>2041.02</ele>
        <time>2019-07-06T06:32:46Z</time>
      </trkpt>
      <trkpt lat="42.4518581014" lon="19.7991687432">
        <ele>2042.94</ele>
        <time>2019-07-06T06:32:58Z</time>
      </trkpt>
      <trkpt lat="42.4517905433" lon="19.7992239799">
        <ele>2045.34</ele>
        <time>2019-07-06T06:33:12Z</time>
      </trkpt>
      <trkpt lat="42.4517257512" lon="19.7992871795">
        <ele>2047.75</ele>
        <time>2019-07-06T06:33:25Z</time>
      </trkpt>
      <trkpt lat="42.4516918045" lon="19.7993409075">
        <ele>2050.63</ele>
        <time>2019-07-06T06:33:38Z</time>
      </trkpt>
      <trkpt lat="42.4516086560" lon="19.7993779555">
        <ele>2053.99</ele>
        <time>2019-07-06T06:33:53Z</time>
      </trkpt>
      <trkpt lat="42.4515590351" lon="19.7994631995">
        <ele>2056.88</ele>
        <time>2019-07-06T06:34:07Z</time>
      </trkpt>
      <trkpt lat="42.4514963385" lon="19.7995042708">
        <ele>2059.76</ele>
        <time>2019-07-06T06:34:20Z</time>
      </trkpt>
      <trkpt lat="42.4514447059" lon="19.7995506227">
        <ele>2062.17</ele>
        <time>2019-07-06T06:34:30Z</time>
      </trkpt>
      <trkpt lat="42.4513952527" lon="19.7996479366">
        <ele>2063.13</ele>
        <time>2019-07-06T06:34:39Z</time>
      </trkpt>
      <trkpt lat="42.4513867032" lon="19.7996618506">
        <ele>2063.13</ele>
        <time>2019-07-06T06:34:41Z</time>
      </trkpt>
      <trkpt lat="42.4513516668" lon="19.7998565622">
        <ele>2063.61</ele>
        <time>2019-07-06T06:34:53Z</time>
      </trkpt>
      <trkpt lat="42.4513299577" lon="19.7998761758">
        <ele>2064.09</ele>
        <time>2019-07-06T06:34:57Z</time>
      </trkpt>
      <trkpt lat="42.4511971045" lon="19.7999687120">
        <ele>2065.53</ele>
        <time>2019-07-06T06:35:12Z</time>
      </trkpt>
      <trkpt lat="42.4510772433" lon="19.8000018205">
        <ele>2066.97</ele>
        <time>2019-07-06T06:35:26Z</time>
      </trkpt>
      <trkpt lat="42.4509764090" lon="19.8000298999">
        <ele>2068.89</ele>
        <time>2019-07-06T06:35:38Z</time>
      </trkpt>
      <trkpt lat="42.4508837890" lon="19.8000812810">
        <ele>2070.82</ele>
        <time>2019-07-06T06:35:50Z</time>
      </trkpt>
      <trkpt lat="42.4508536980" lon="19.8001016490">
        <ele>2071.78</ele>
        <time>2019-07-06T06:35:55Z</time>
      </trkpt>
      <trkpt lat="42.4507968687" lon="19.8001174070">
        <ele>2073.22</ele>
        <time>2019-07-06T06:36:03Z</time>
      </trkpt>
      <trkpt lat="42.4507293943" lon="19.8002027348">
        <ele>2075.14</ele>
        <time>2019-07-06T06:36:16Z</time>
      </trkpt>
      <trkpt lat="42.4506641831" lon="19.8002496734">
        <ele>2076.10</ele>
        <time>2019-07-06T06:36:24Z</time>
      </trkpt>
      <trkpt lat="42.4505922664" lon="19.8003188241">
        <ele>2077.55</ele>
        <time>2019-07-06T06:36:33Z</time>
      </trkpt>
      <trkpt lat="42.4505502731" lon="19.8003932554">
        <ele>2077.55</ele>
        <time>2019-07-06T06:36:39Z</time>
      </trkpt>
      <trkpt lat="42.4505371135" lon="19.8004342429">
        <ele>2078.03</ele>
        <time>2019-07-06T06:36:42Z</time>
      </trkpt>
      <trkpt lat="42.4505061004" lon="19.8005707841">
        <ele>2078.03</ele>
        <time>2019-07-06T06:36:50Z</time>
      </trkpt>
      <trkpt lat="42.4504719023" lon="19.8006386776">
        <ele>2078.03</ele>
        <time>2019-07-06T06:36:55Z</time>
      </trkpt>
      <trkpt lat="42.4504414760" lon="19.8006684333">
        <ele>2078.03</ele>
        <time>2019-07-06T06:36:58Z</time>
      </trkpt>
      <trkpt lat="42.4503977224" lon="19.8007352371">
        <ele>2078.03</ele>
        <time>2019-07-06T06:37:03Z</time>
      </trkpt>
      <trkpt lat="42.4502539728" lon="19.8008353170">
        <ele>2078.03</ele>
        <time>2019-07-06T06:37:17Z</time>
      </trkpt>
      <trkpt lat="42.4501815531" lon="19.8009556811">
        <ele>2077.07</ele>
        <time>2019-07-06T06:37:26Z</time>
      </trkpt>
      <trkpt lat="42.4500665534" lon="19.8011338804">
        <ele>2077.07</ele>
        <time>2019-07-06T06:37:39Z</time>
      </trkpt>
      <trkpt lat="42.4500273261" lon="19.8012295179">
        <ele>2077.07</ele>
        <time>2019-07-06T06:37:46Z</time>
      </trkpt>
      <trkpt lat="42.4499903619" lon="19.8012788035">
        <ele>2077.07</ele>
        <time>2019-07-06T06:37:51Z</time>
      </trkpt>
      <trkpt lat="42.4499723408" lon="19.8013010994">
        <ele>2077.07</ele>
        <time>2019-07-06T06:37:54Z</time>
      </trkpt>
      <trkpt lat="42.4499434233" lon="19.8013330344">
        <ele>2078.51</ele>
        <time>2019-07-06T06:37:57Z</time>
      </trkpt>
      <trkpt lat="42.4498370569" lon="19.8015473597">
        <ele>2078.99</ele>
        <time>2019-07-06T06:38:13Z</time>
      </trkpt>
      <trkpt lat="42.4497920461" lon="19.8016719986">
        <ele>2079.95</ele>
        <time>2019-07-06T06:38:23Z</time>
      </trkpt>
      <trkpt lat="42.4497735221" lon="19.8016768601">
        <ele>2080.43</ele>
        <time>2019-07-06T06:38:25Z</time>
      </trkpt>
      <trkpt lat="42.4497400783" lon="19.8017159197">
        <ele>2080.43</ele>
        <time>2019-07-06T06:38:29Z</time>
      </trkpt>
      <trkpt lat="42.4496650603" lon="19.8017890938">
        <ele>2081.39</ele>
        <time>2019-07-06T06:38:41Z</time>
      </trkpt>
      <trkpt lat="42.4495343026" lon="19.8019127268">
        <ele>2081.39</ele>
        <time>2019-07-06T06:38:55Z</time>
      </trkpt>
      <trkpt lat="42.4494944885" lon="19.8019607551">
        <ele>2081.39</ele>
        <time>2019-07-06T06:39:00Z</time>
      </trkpt>
      <trkpt lat="42.4494263437" lon="19.8020853940">
        <ele>2081.39</ele>
        <time>2019-07-06T06:39:11Z</time>
      </trkpt>
      <trkpt lat="42.4494191352" lon="19.8021009844">
        <ele>2081.39</ele>
        <time>2019-07-06T06:39:12Z</time>
      </trkpt>
      <trkpt lat="42.4493478891" lon="19.8022850510">
        <ele>2081.39</ele>
        <time>2019-07-06T06:39:26Z</time>
      </trkpt>
      <trkpt lat="42.4493001122" lon="19.8023960274">
        <ele>2081.87</ele>
        <time>2019-07-06T06:39:35Z</time>
      </trkpt>
      <trkpt lat="42.4492869526" lon="19.8025059141">
        <ele>2083.31</ele>
        <time>2019-07-06T06:39:45Z</time>
      </trkpt>
      <trkpt lat="42.4492617231" lon="19.8026422877">
        <ele>2083.79</ele>
        <time>2019-07-06T06:39:55Z</time>
      </trkpt>
      <trkpt lat="42.4492179696" lon="19.8027945869">
        <ele>2083.79</ele>
        <time>2019-07-06T06:40:07Z</time>
      </trkpt>
      <trkpt lat="42.4492019601" lon="19.8028096743">
        <ele>2084.28</ele>
        <time>2019-07-06T06:40:09Z</time>
      </trkpt>
      <trkpt lat="42.4491995294" lon="19.8028382566">
        <ele>2084.28</ele>
        <time>2019-07-06T06:40:11Z</time>
      </trkpt>
      <trkpt lat="42.4491964281" lon="19.8028580379">
        <ele>2084.28</ele>
        <time>2019-07-06T06:40:13Z</time>
      </trkpt>
      <trkpt lat="42.4491810054" lon="19.8029393423">
        <ele>2084.76</ele>
        <time>2019-07-06T06:40:18Z</time>
      </trkpt>
      <trkpt lat="42.4492073245" lon="19.8030326329">
        <ele>2085.24</ele>
        <time>2019-07-06T06:40:24Z</time>
      </trkpt>
      <trkpt lat="42.4492142815" lon="19.8030579463">
        <ele>2085.24</ele>
        <time>2019-07-06T06:40:26Z</time>
      </trkpt>
      <trkpt lat="42.4492481444" lon="19.8032168671">
        <ele>2088.12</ele>
        <time>2019-07-06T06:40:40Z</time>
      </trkpt>
      <trkpt lat="42.4492465518" lon="19.8032437731">
        <ele>2089.08</ele>
        <time>2019-07-06T06:40:43Z</time>
      </trkpt>
      <trkpt lat="42.4492466357" lon="19.8033729382">
        <ele>2091.49</ele>
        <time>2019-07-06T06:40:56Z</time>
      </trkpt>
      <trkpt lat="42.4492407683" lon="19.8035171907">
        <ele>2092.93</ele>
        <time>2019-07-06T06:41:11Z</time>
      </trkpt>
      <trkpt lat="42.4492532574" lon="19.8036251497">
        <ele>2093.89</ele>
        <time>2019-07-06T06:41:23Z</time>
      </trkpt>
      <trkpt lat="42.4492685962" lon="19.8037326057">
        <ele>2096.29</ele>
        <time>2019-07-06T06:41:36Z</time>
      </trkpt>
      <trkpt lat="42.4492803309" lon="19.8037919495">
        <ele>2096.77</ele>
        <time>2019-07-06T06:41:42Z</time>
      </trkpt>
      <trkpt lat="42.4493222404" lon="19.8038824741">
        <ele>2097.25</ele>
        <time>2019-07-06T06:41:48Z</time>
      </trkpt>
      <trkpt lat="42.4493472185" lon="19.8040311690">
        <ele>2099.18</ele>
        <time>2019-07-06T06:42:01Z</time>
      </trkpt>
      <trkpt lat="42.4493555166" lon="19.8041510303">
        <ele>2101.58</ele>
        <time>2019-07-06T06:42:14Z</time>
      </trkpt>
      <trkpt lat="42.4493680056" lon="19.8042379506">
        <ele>2103.98</ele>
        <time>2019-07-06T06:42:26Z</time>
      </trkpt>
      <trkpt lat="42.4494005274" lon="19.8043438140">
        <ele>2106.39</ele>
        <time>2019-07-06T06:42:41Z</time>
      </trkpt>
      <trkpt lat="42.4493903853" lon="19.8043732345">
        <ele>2108.79</ele>
        <time>2019-07-06T06:42:54Z</time>
      </trkpt>
      <trkpt lat="42.4493818358" lon="19.8044175748">
        <ele>2112.15</ele>
        <time>2019-07-06T06:43:09Z</time>
      </trkpt>
      <trkpt lat="42.4493765552" lon="19.8044623341">
        <ele>2114.56</ele>
        <time>2019-07-06T06:43:21Z</time>
      </trkpt>
      <trkpt lat="42.4493887927" lon="19.8045211751">
        <ele>2116.96</ele>
        <time>2019-07-06T06:43:35Z</time>
      </trkpt>
      <trkpt lat="42.4493939895" lon="19.8045540322">
        <ele>2119.84</ele>
        <time>2019-07-06T06:43:47Z</time>
      </trkpt>
      <trkpt lat="42.4493764713" lon="19.8045547865">
        <ele>2121.77</ele>
        <time>2019-07-06T06:44:04Z</time>
      </trkpt>
      <trkpt lat="42.4493696820" lon="19.8045847937">
        <ele>2123.69</ele>
        <time>2019-07-06T06:44:19Z</time>
      </trkpt>
      <trkpt lat="42.4493451230" lon="19.8046404496">
        <ele>2126.09</ele>
        <time>2019-07-06T06:44:33Z</time>
      </trkpt>
      <trkpt lat="42.4492939096" lon="19.8046800122">
        <ele>2128.98</ele>
        <time>2019-07-06T06:44:46Z</time>
      </trkpt>
      <trkpt lat="42.4492751341" lon="19.8047827743">
        <ele>2131.86</ele>
        <time>2019-07-06T06:45:00Z</time>
      </trkpt>
      <trkpt lat="42.4492857791" lon="19.8048201576">
        <ele>2132.34</ele>
        <time>2019-07-06T06:45:13Z</time>
      </trkpt>
      <trkpt lat="42.4492843542" lon="19.8047731351">
        <ele>2132.34</ele>
        <time>2019-07-06T06:45:29Z</time>
      </trkpt>
      <trkpt lat="42.4492865335" lon="19.8047808465">
        <ele>2132.34</ele>
        <time>2019-07-06T06:45:45Z</time>
      </trkpt>
      <trkpt lat="42.4493017886" lon="19.8048035614">
        <ele>2132.34</ele>
        <time>2019-07-06T06:46:00Z</time>
      </trkpt>
      <trkpt lat="42.4492944963" lon="19.8048013821">
        <ele>2132.34</ele>
        <time>2019-07-06T06:46:17Z</time>
      </trkpt>
      <trkpt lat="42.4492923170" lon="19.8048110213">
        <ele>2132.34</ele>
        <time>2019-07-06T06:46:18Z</time>
      </trkpt>
      <trkpt lat="42.4492771458" lon="19.8048373405">
        <ele>2131.38</ele>
        <time>2019-07-06T06:46:20Z</time>
      </trkpt>
      <trkpt lat="42.4492066540" lon="19.8049677629">
        <ele>2131.38</ele>
        <time>2019-07-06T06:46:33Z</time>
      </trkpt>
      <trkpt lat="42.4491955899" lon="19.8049960099">
        <ele>2131.38</ele>
        <time>2019-07-06T06:46:36Z</time>
      </trkpt>
      <trkpt lat="42.4491820112" lon="19.8050593771">
        <ele>2132.82</ele>
        <time>2019-07-06T06:46:40Z</time>
      </trkpt>
      <trkpt lat="42.4491920695" lon="19.8050995264">
        <ele>2132.82</ele>
        <time>2019-07-06T06:46:42Z</time>
      </trkpt>
      <trkpt lat="42.4491958413" lon="19.8052224889">
        <ele>2132.82</ele>
        <time>2019-07-06T06:46:50Z</time>
      </trkpt>
      <trkpt lat="42.4491644930" lon="19.8053512350">
        <ele>2134.74</ele>
        <time>2019-07-06T06:47:01Z</time>
      </trkpt>
      <trkpt lat="42.4491843581" lon="19.8055229802">
        <ele>2135.23</ele>
        <time>2019-07-06T06:47:14Z</time>
      </trkpt>
      <trkpt lat="42.4491874594" lon="19.8055353016">
        <ele>2135.23</ele>
        <time>2019-07-06T06:47:15Z</time>
      </trkpt>
      <trkpt lat="42.4492310453" lon="19.8056749441">
        <ele>2136.67</ele>
        <time>2019-07-06T06:47:24Z</time>
      </trkpt>
      <trkpt lat="42.4492571130" lon="19.8057521414">
        <ele>2138.59</ele>
        <time>2019-07-06T06:47:36Z</time>
      </trkpt>
      <trkpt lat="42.4492592085" lon="19.8057734314">
        <ele>2139.07</ele>
        <time>2019-07-06T06:47:38Z</time>
      </trkpt>
      <trkpt lat="42.4492713623" lon="19.8058238905">
        <ele>2140.03</ele>
        <time>2019-07-06T06:47:42Z</time>
      </trkpt>
      <trkpt lat="42.4492095038" lon="19.8059453443">
        <ele>2140.51</ele>
        <time>2019-07-06T06:47:57Z</time>
      </trkpt>
      <trkpt lat="42.4491903093" lon="19.8060216196">
        <ele>2140.51</ele>
        <time>2019-07-06T06:48:03Z</time>
      </trkpt>
      <trkpt lat="42.4491881300" lon="19.8060476873">
        <ele>2140.51</ele>
        <time>2019-07-06T06:48:05Z</time>
      </trkpt>
      <trkpt lat="42.4491572008" lon="19.8061854858">
        <ele>2140.51</ele>
        <time>2019-07-06T06:48:15Z</time>
      </trkpt>
      <trkpt lat="42.4491619784" lon="19.8064244539">
        <ele>2139.07</ele>
        <time>2019-07-06T06:48:30Z</time>
      </trkpt>
      <trkpt lat="42.4491201527" lon="19.8065928463">
        <ele>2140.51</ele>
        <time>2019-07-06T06:48:46Z</time>
      </trkpt>
      <trkpt lat="42.4490935821" lon="19.8067507613">
        <ele>2142.44</ele>
        <time>2019-07-06T06:49:01Z</time>
      </trkpt>
      <trkpt lat="42.4490892235" lon="19.8068764061">
        <ele>2143.88</ele>
        <time>2019-07-06T06:49:15Z</time>
      </trkpt>
      <trkpt lat="42.4490657542" lon="19.8069914896">
        <ele>2145.80</ele>
        <time>2019-07-06T06:49:28Z</time>
      </trkpt>
      <trkpt lat="42.4490414467" lon="19.8071053997">
        <ele>2146.76</ele>
        <time>2019-07-06T06:49:40Z</time>
      </trkpt>
      <trkpt lat="42.4490248505" lon="19.8071760591">
        <ele>2147.72</ele>
        <time>2019-07-06T06:49:47Z</time>
      </trkpt>
      <trkpt lat="42.4490115233" lon="19.8073364887">
        <ele>2149.16</ele>
        <time>2019-07-06T06:50:00Z</time>
      </trkpt>
      <trkpt lat="42.4490271136" lon="19.8075141013">
        <ele>2151.57</ele>
        <time>2019-07-06T06:50:15Z</time>
      </trkpt>
      <trkpt lat="42.4490339030" lon="19.8075471260">
        <ele>2152.05</ele>
        <time>2019-07-06T06:50:18Z</time>
      </trkpt>
      <trkpt lat="42.4490538519" lon="19.8076712620">
        <ele>2154.45</ele>
        <time>2019-07-06T06:50:31Z</time>
      </trkpt>
      <trkpt lat="42.4490526784" lon="19.8076969106">
        <ele>2154.45</ele>
        <time>2019-07-06T06:50:33Z</time>
      </trkpt>
      <trkpt lat="42.4490483198" lon="19.8077727668">
        <ele>2155.41</ele>
        <time>2019-07-06T06:50:41Z</time>
      </trkpt>
      <trkpt lat="42.4490377586" lon="19.8078558315">
        <ele>2156.37</ele>
        <time>2019-07-06T06:50:49Z</time>
      </trkpt>
      <trkpt lat="42.4490134511" lon="19.8079764470">
        <ele>2158.30</ele>
        <time>2019-07-06T06:51:02Z</time>
      </trkpt>
      <trkpt lat="42.4489499163" lon="19.8080914468">
        <ele>2161.66</ele>
        <time>2019-07-06T06:51:16Z</time>
      </trkpt>
      <trkpt lat="42.4489105213" lon="19.8082321789">
        <ele>2163.10</ele>
        <time>2019-07-06T06:51:30Z</time>
      </trkpt>
      <trkpt lat="42.4488482438" lon="19.8083470948">
        <ele>2165.51</ele>
        <time>2019-07-06T06:51:45Z</time>
      </trkpt>
      <trkpt lat="42.4487888161" lon="19.8084627651">
        <ele>2168.39</ele>
        <time>2019-07-06T06:51:59Z</time>
      </trkpt>
      <trkpt lat="42.4487596471" lon="19.8086013179">
        <ele>2171.27</ele>
        <time>2019-07-06T06:52:14Z</time>
      </trkpt>
      <trkpt lat="42.4487364292" lon="19.8087381106">
        <ele>2172.72</ele>
        <time>2019-07-06T06:52:27Z</time>
      </trkpt>
      <trkpt lat="42.4487082660" lon="19.8088395316">
        <ele>2176.08</ele>
        <time>2019-07-06T06:52:40Z</time>
      </trkpt>
      <trkpt lat="42.4486962799" lon="19.8088361789">
        <ele>2176.08</ele>
        <time>2019-07-06T06:52:42Z</time>
      </trkpt>
      <trkpt lat="42.4486578908" lon="19.8089221772">
        <ele>2179.45</ele>
        <time>2019-07-06T06:52:56Z</time>
      </trkpt>
      <trkpt lat="42.4486364331" lon="19.8090512585">
        <ele>2180.89</ele>
        <time>2019-07-06T06:53:09Z</time>
      </trkpt>
      <trkpt lat="42.4486159813" lon="19.8090884741">
        <ele>2181.37</ele>
        <time>2019-07-06T06:53:13Z</time>
      </trkpt>
      <trkpt lat="42.4485697970" lon="19.8092258535">
        <ele>2183.29</ele>
        <time>2019-07-06T06:53:27Z</time>
      </trkpt>
      <trkpt lat="42.4485371914" lon="19.8093689326">
        <ele>2185.69</ele>
        <time>2019-07-06T06:53:40Z</time>
      </trkpt>
      <trkpt lat="42.4485029094" lon="19.8094680067">
        <ele>2188.58</ele>
        <time>2019-07-06T06:53:54Z</time>
      </trkpt>
      <trkpt lat="42.4484702200" lon="19.8095572740">
        <ele>2191.46</ele>
        <time>2019-07-06T06:54:08Z</time>
      </trkpt>
      <trkpt lat="42.4484237842" lon="19.8095223214">
        <ele>2194.35</ele>
        <time>2019-07-06T06:54:20Z</time>
      </trkpt>
      <trkpt lat="42.4483937770" lon="19.8095972557">
        <ele>2196.27</ele>
        <time>2019-07-06T06:54:32Z</time>
      </trkpt>
      <trkpt lat="42.4483858980" lon="19.8097232357">
        <ele>2199.15</ele>
        <time>2019-07-06T06:54:46Z</time>
      </trkpt>
      <trkpt lat="42.4483817071" lon="19.8098057974">
        <ele>2202.52</ele>
        <time>2019-07-06T06:54:59Z</time>
      </trkpt>
      <trkpt lat="42.4483645242" lon="19.8098855093">
        <ele>2204.92</ele>
        <time>2019-07-06T06:55:11Z</time>
      </trkpt>
      <trkpt lat="42.4483529571" lon="19.8099247366">
        <ele>2207.81</ele>
        <time>2019-07-06T06:55:24Z</time>
      </trkpt>
      <trkpt lat="42.4483408034" lon="19.8099922109">
        <ele>2210.21</ele>
        <time>2019-07-06T06:55:37Z</time>
      </trkpt>
      <trkpt lat="42.4482946191" lon="19.8100384790">
        <ele>2213.09</ele>
        <time>2019-07-06T06:55:51Z</time>
      </trkpt>
      <trkpt lat="42.4482298270" lon="19.8101169337">
        <ele>2215.50</ele>
        <time>2019-07-06T06:56:06Z</time>
      </trkpt>
      <trkpt lat="42.4481879175" lon="19.8102285806">
        <ele>2216.46</ele>
        <time>2019-07-06T06:56:18Z</time>
      </trkpt>
      <trkpt lat="42.4481836427" lon="19.8102410696">
        <ele>2216.46</ele>
        <time>2019-07-06T06:56:19Z</time>
      </trkpt>
      <trkpt lat="42.4481579103" lon="19.8103410657">
        <ele>2216.94</ele>
        <time>2019-07-06T06:56:31Z</time>
      </trkpt>
      <trkpt lat="42.4480994884" lon="19.8104152456">
        <ele>2218.86</ele>
        <time>2019-07-06T06:56:44Z</time>
      </trkpt>
      <trkpt lat="42.4480516277" lon="19.8105024174">
        <ele>2221.26</ele>
        <time>2019-07-06T06:56:57Z</time>
      </trkpt>
      <trkpt lat="42.4480258115" lon="19.8105666228">
        <ele>2223.19</ele>
        <time>2019-07-06T06:57:10Z</time>
      </trkpt>
      <trkpt lat="42.4480061140" lon="19.8106221110">
        <ele>2225.59</ele>
        <time>2019-07-06T06:57:23Z</time>
      </trkpt>
      <trkpt lat="42.4479666352" lon="19.8106843047">
        <ele>2228.47</ele>
        <time>2019-07-06T06:57:37Z</time>
      </trkpt>
      <trkpt lat="42.4479301739" lon="19.8107788526">
        <ele>2231.36</ele>
        <time>2019-07-06T06:57:51Z</time>
      </trkpt>
      <trkpt lat="42.4478953052" lon="19.8108817823">
        <ele>2233.28</ele>
        <time>2019-07-06T06:58:04Z</time>
      </trkpt>
      <trkpt lat="42.4478735123" lon="19.8110365961">
        <ele>2236.16</ele>
        <time>2019-07-06T06:58:20Z</time>
      </trkpt>
      <trkpt lat="42.4478357099" lon="19.8110645078">
        <ele>2239.53</ele>
        <time>2019-07-06T06:58:32Z</time>
      </trkpt>
      <trkpt lat="42.4477949739" lon="19.8111351673">
        <ele>2241.93</ele>
        <time>2019-07-06T06:58:47Z</time>
      </trkpt>
      <trkpt lat="42.4477456883" lon="19.8112023901">
        <ele>2244.33</ele>
        <time>2019-07-06T06:58:59Z</time>
      </trkpt>
      <trkpt lat="42.4477420840" lon="19.8112646677">
        <ele>2245.30</ele>
        <time>2019-07-06T06:59:05Z</time>
      </trkpt>
      <trkpt lat="42.4477144238" lon="19.8113347404">
        <ele>2246.26</ele>
        <time>2019-07-06T06:59:13Z</time>
      </trkpt>
      <trkpt lat="42.4476996716" lon="19.8114267737">
        <ele>2247.22</ele>
        <time>2019-07-06T06:59:27Z</time>
      </trkpt>
      <trkpt lat="42.4476476200" lon="19.8114871234">
        <ele>2248.66</ele>
        <time>2019-07-06T06:59:37Z</time>
      </trkpt>
      <trkpt lat="42.4476109073" lon="19.8115183040">
        <ele>2249.14</ele>
        <time>2019-07-06T06:59:43Z</time>
      </trkpt>
      <trkpt lat="42.4475612864" lon="19.8116421886">
        <ele>2249.62</ele>
        <time>2019-07-06T06:59:56Z</time>
      </trkpt>
      <trkpt lat="42.4475396611" lon="19.8116702680">
        <ele>2249.62</ele>
        <time>2019-07-06T07:00:03Z</time>
      </trkpt>
      <trkpt lat="42.4474890344" lon="19.8117245827">
        <ele>2250.10</ele>
        <time>2019-07-06T07:00:15Z</time>
      </trkpt>
      <trkpt lat="42.4474202190" lon="19.8118090723">
        <ele>2251.54</ele>
        <time>2019-07-06T07:00:30Z</time>
      </trkpt>
      <trkpt lat="42.4473385792" lon="19.8118581064">
        <ele>2253.95</ele>
        <time>2019-07-06T07:00:44Z</time>
      </trkpt>
      <trkpt lat="42.4472794030" lon="19.8119003512">
        <ele>2256.35</ele>
        <time>2019-07-06T07:00:55Z</time>
      </trkpt>
      <trkpt lat="42.4472706020" lon="19.8119144328">
        <ele>2256.83</ele>
        <time>2019-07-06T07:00:58Z</time>
      </trkpt>
      <trkpt lat="42.4471815862" lon="19.8120207153">
        <ele>2258.75</ele>
        <time>2019-07-06T07:01:14Z</time>
      </trkpt>
      <trkpt lat="42.4471416883" lon="19.8121351283">
        <ele>2260.20</ele>
        <time>2019-07-06T07:01:28Z</time>
      </trkpt>
      <trkpt lat="42.4470860325" lon="19.8122241441">
        <ele>2262.12</ele>
        <time>2019-07-06T07:01:40Z</time>
      </trkpt>
      <trkpt lat="42.4470282812" lon="19.8123352043">
        <ele>2265.00</ele>
        <time>2019-07-06T07:01:53Z</time>
      </trkpt>
      <trkpt lat="42.4469854496" lon="19.8124082945">
        <ele>2267.89</ele>
        <time>2019-07-06T07:02:05Z</time>
      </trkpt>
      <trkpt lat="42.4469843600" lon="19.8125129007">
        <ele>2270.29</ele>
        <time>2019-07-06T07:02:21Z</time>
      </trkpt>
      <trkpt lat="42.4469781574" lon="19.8126091249">
        <ele>2272.69</ele>
        <time>2019-07-06T07:02:34Z</time>
      </trkpt>
      <trkpt lat="42.4469727930" lon="19.8127535451">
        <ele>2275.10</ele>
        <time>2019-07-06T07:02:49Z</time>
      </trkpt>
      <trkpt lat="42.4469808396" lon="19.8128182534">
        <ele>2277.02</ele>
        <time>2019-07-06T07:03:03Z</time>
      </trkpt>
      <trkpt lat="42.4469890539" lon="19.8129505198">
        <ele>2279.42</ele>
        <time>2019-07-06T07:03:17Z</time>
      </trkpt>
      <trkpt lat="42.4469535984" lon="19.8129801080">
        <ele>2282.79</ele>
        <time>2019-07-06T07:03:31Z</time>
      </trkpt>
      <trkpt lat="42.4469337333" lon="19.8130348418">
        <ele>2284.23</ele>
        <time>2019-07-06T07:03:45Z</time>
      </trkpt>
      <trkpt lat="42.4468878005" lon="19.8131034058">
        <ele>2288.08</ele>
        <time>2019-07-06T07:04:00Z</time>
      </trkpt>
      <trkpt lat="42.4468095135" lon="19.8131710477">
        <ele>2290.00</ele>
        <time>2019-07-06T07:04:13Z</time>
      </trkpt>
      <trkpt lat="42.4467851222" lon="19.8132096883">
        <ele>2291.92</ele>
        <time>2019-07-06T07:04:29Z</time>
      </trkpt>
      <trkpt lat="42.4467145465" lon="19.8132474907">
        <ele>2294.32</ele>
        <time>2019-07-06T07:04:41Z</time>
      </trkpt>
      <trkpt lat="42.4466410372" lon="19.8132776655">
        <ele>2296.73</ele>
        <time>2019-07-06T07:04:54Z</time>
      </trkpt>
      <trkpt lat="42.4466359243" lon="19.8133132048">
        <ele>2298.17</ele>
        <time>2019-07-06T07:05:01Z</time>
      </trkpt>
      <trkpt lat="42.4465811905" lon="19.8133131210">
        <ele>2301.53</ele>
        <time>2019-07-06T07:05:16Z</time>
      </trkpt>
      <trkpt lat="42.4465624150" lon="19.8132907413">
        <ele>2304.42</ele>
        <time>2019-07-06T07:05:29Z</time>
      </trkpt>
      <trkpt lat="42.4465648457" lon="19.8132387735">
        <ele>2307.30</ele>
        <time>2019-07-06T07:05:41Z</time>
      </trkpt>
      <trkpt lat="42.4465421308" lon="19.8131802678">
        <ele>2310.67</ele>
        <time>2019-07-06T07:05:55Z</time>
      </trkpt>
      <trkpt lat="42.4465803523" lon="19.8131187446">
        <ele>2313.55</ele>
        <time>2019-07-06T07:06:08Z</time>
      </trkpt>
      <trkpt lat="42.4465810228" lon="19.8130127136">
        <ele>2315.47</ele>
        <time>2019-07-06T07:06:22Z</time>
      </trkpt>
      <trkpt lat="42.4465903267" lon="19.8129986320">
        <ele>2315.47</ele>
        <time>2019-07-06T07:06:23Z</time>
      </trkpt>
      <trkpt lat="42.4466178194" lon="19.8128778487">
        <ele>2315.95</ele>
        <time>2019-07-06T07:06:36Z</time>
      </trkpt>
      <trkpt lat="42.4465712160" lon="19.8128280602">
        <ele>2317.88</ele>
        <time>2019-07-06T07:06:49Z</time>
      </trkpt>
      <trkpt lat="42.4465226848" lon="19.8127762601">
        <ele>2320.76</ele>
        <time>2019-07-06T07:07:02Z</time>
      </trkpt>
      <trkpt lat="42.4464747403" lon="19.8126864899">
        <ele>2322.68</ele>
        <time>2019-07-06T07:07:16Z</time>
      </trkpt>
      <trkpt lat="42.4464526121" lon="19.8126562312">
        <ele>2324.12</ele>
        <time>2019-07-06T07:07:27Z</time>
      </trkpt>
      <trkpt lat="42.4463979620" lon="19.8126666248">
        <ele>2326.53</ele>
        <time>2019-07-06T07:07:40Z</time>
      </trkpt>
      <trkpt lat="42.4464076012" lon="19.8126574885">
        <ele>2328.93</ele>
        <time>2019-07-06T07:07:52Z</time>
      </trkpt>
      <trkpt lat="42.4463776778" lon="19.8126558959">
        <ele>2331.81</ele>
        <time>2019-07-06T07:08:06Z</time>
      </trkpt>
      <trkpt lat="42.4463017378" lon="19.8127058521">
        <ele>2333.74</ele>
        <time>2019-07-06T07:08:20Z</time>
      </trkpt>
      <trkpt lat="42.4462547991" lon="19.8127498571">
        <ele>2337.10</ele>
        <time>2019-07-06T07:08:36Z</time>
      </trkpt>
      <trkpt lat="42.4462249596" lon="19.8127406370">
        <ele>2339.51</ele>
        <time>2019-07-06T07:08:48Z</time>
      </trkpt>
      <trkpt lat="42.4462230317" lon="19.8126802035">
        <ele>2341.43</ele>
        <time>2019-07-06T07:09:03Z</time>
      </trkpt>
      <trkpt lat="42.4462055136" lon="19.8126657866">
        <ele>2341.91</ele>
        <time>2019-07-06T07:09:19Z</time>
      </trkpt>
      <trkpt lat="42.4462161586" lon="19.8126616795">
        <ele>2341.91</ele>
        <time>2019-07-06T07:09:34Z</time>
      </trkpt>
      <trkpt lat="42.4462146498" lon="19.8126582429">
        <ele>2342.39</ele>
        <time>2019-07-06T07:09:51Z</time>
      </trkpt>
      <trkpt lat="42.4462164100" lon="19.8126683012">
        <ele>2342.39</ele>
        <time>2019-07-06T07:10:08Z</time>
      </trkpt>
      <trkpt lat="42.4462210201" lon="19.8126367852">
        <ele>2342.39</ele>
        <time>2019-07-06T07:10:29Z</time>
      </trkpt>
      <trkpt lat="42.4461902585" lon="19.8126206920">
        <ele>2345.27</ele>
        <time>2019-07-06T07:10:41Z</time>
      </trkpt>
      <trkpt lat="42.4461338483" lon="19.8125937860">
        <ele>2347.68</ele>
        <time>2019-07-06T07:10:55Z</time>
      </trkpt>
      <trkpt lat="42.4461243767" lon="19.8125967197">
        <ele>2348.16</ele>
        <time>2019-07-06T07:10:58Z</time>
      </trkpt>
      <trkpt lat="42.4460558128" lon="19.8126157466">
        <ele>2350.08</ele>
        <time>2019-07-06T07:11:10Z</time>
      </trkpt>
      <trkpt lat="42.4460336007" lon="19.8126652837">
        <ele>2351.04</ele>
        <time>2019-07-06T07:11:15Z</time>
      </trkpt>
      <trkpt lat="42.4459777772" lon="19.8127263878">
        <ele>2352.48</ele>
        <time>2019-07-06T07:11:24Z</time>
      </trkpt>
      <trkpt lat="42.4459131528" lon="19.8127825465">
        <ele>2353.93</ele>
        <time>2019-07-06T07:11:32Z</time>
      </trkpt>
      <trkpt lat="42.4458437506" lon="19.8127831332">
        <ele>2354.89</ele>
        <time>2019-07-06T07:11:42Z</time>
      </trkpt>
      <trkpt lat="42.4458142463" lon="19.8127409723">
        <ele>2354.89</ele>
        <time>2019-07-06T07:11:47Z</time>
      </trkpt>
      <trkpt lat="42.4457688164" lon="19.8126408923">
        <ele>2356.33</ele>
        <time>2019-07-06T07:12:01Z</time>
      </trkpt>
      <trkpt lat="42.4457180221" lon="19.8125691433">
        <ele>2359.21</ele>
        <time>2019-07-06T07:12:15Z</time>
      </trkpt>
      <trkpt lat="42.4456552416" lon="19.8125196062">
        <ele>2362.10</ele>
        <time>2019-07-06T07:12:28Z</time>
      </trkpt>
      <trkpt lat="42.4455669802" lon="19.8125040997">
        <ele>2364.50</ele>
        <time>2019-07-06T07:12:44Z</time>
      </trkpt>
      <trkpt lat="42.4454830773" lon="19.8124585021">
        <ele>2366.42</ele>
        <time>2019-07-06T07:12:58Z</time>
      </trkpt>
      <trkpt lat="42.4454926327" lon="19.8123936262">
        <ele>2369.79</ele>
        <time>2019-07-06T07:13:11Z</time>
      </trkpt>
      <trkpt lat="42.4454833288" lon="19.8123179376">
        <ele>2372.67</ele>
        <time>2019-07-06T07:13:24Z</time>
      </trkpt>
      <trkpt lat="42.4454715941" lon="19.8122357111">
        <ele>2376.04</ele>
        <time>2019-07-06T07:13:37Z</time>
      </trkpt>
      <trkpt lat="42.4454822391" lon="19.8121609446">
        <ele>2378.44</ele>
        <time>2019-07-06T07:13:51Z</time>
      </trkpt>
      <trkpt lat="42.4454889446" lon="19.8120724317">
        <ele>2381.32</ele>
        <time>2019-07-06T07:14:05Z</time>
      </trkpt>
      <trkpt lat="42.4454654753" lon="19.8119841702">
        <ele>2383.25</ele>
        <time>2019-07-06T07:14:19Z</time>
      </trkpt>
      <trkpt lat="42.4453653954" lon="19.8120002635">
        <ele>2384.69</ele>
        <time>2019-07-06T07:14:31Z</time>
      </trkpt>
      <trkpt lat="42.4453559238" lon="19.8120059632">
        <ele>2385.17</ele>
        <time>2019-07-06T07:14:37Z</time>
      </trkpt>
      <trkpt lat="42.4453028664" lon="19.8120729346">
        <ele>2387.57</ele>
        <time>2019-07-06T07:14:51Z</time>
      </trkpt>
      <trkpt lat="42.4453034531" lon="19.8120646365">
        <ele>2389.97</ele>
        <time>2019-07-06T07:15:04Z</time>
      </trkpt>
      <trkpt lat="42.4452404212" lon="19.8120420892">
        <ele>2392.86</ele>
        <time>2019-07-06T07:15:17Z</time>
      </trkpt>
      <trkpt lat="42.4451706000" lon="19.8120512255">
        <ele>2395.74</ele>
        <time>2019-07-06T07:15:32Z</time>
      </trkpt>
      <trkpt lat="42.4451695941" lon="19.8120758682">
        <ele>2396.70</ele>
        <time>2019-07-06T07:15:45Z</time>
      </trkpt>
      <trkpt lat="42.4451278523" lon="19.8120558355">
        <ele>2399.11</ele>
        <time>2019-07-06T07:15:56Z</time>
      </trkpt>
      <trkpt lat="42.4450809974" lon="19.8120405804">
        <ele>2401.03</ele>
        <time>2019-07-06T07:16:08Z</time>
      </trkpt>
      <trkpt lat="42.4450756330" lon="19.8120512255">
        <ele>2403.43</ele>
        <time>2019-07-06T07:16:21Z</time>
      </trkpt>
      <trkpt lat="42.4450835958" lon="19.8120655585">
        <ele>2405.36</ele>
        <time>2019-07-06T07:16:32Z</time>
      </trkpt>
      <trkpt lat="42.4450809974" lon="19.8120654747">
        <ele>2407.28</ele>
        <time>2019-07-06T07:16:44Z</time>
      </trkpt>
      <trkpt lat="42.4450540915" lon="19.8121044505">
        <ele>2409.68</ele>
        <time>2019-07-06T07:16:55Z</time>
      </trkpt>
      <trkpt lat="42.4450364895" lon="19.8121391516">
        <ele>2411.60</ele>
        <time>2019-07-06T07:17:05Z</time>
      </trkpt>
      <trkpt lat="42.4449975137" lon="19.8121811450">
        <ele>2414.49</ele>
        <time>2019-07-06T07:17:17Z</time>
      </trkpt>
      <trkpt lat="42.4449729547" lon="19.8121996690">
        <ele>2416.41</ele>
        <time>2019-07-06T07:17:31Z</time>
      </trkpt>
      <trkpt lat="42.4449571129" lon="19.8122065421">
        <ele>2419.78</ele>
        <time>2019-07-06T07:17:45Z</time>
      </trkpt>
      <trkpt lat="42.4449214898" lon="19.8122206237">
        <ele>2422.18</ele>
        <time>2019-07-06T07:17:58Z</time>
      </trkpt>
      <trkpt lat="42.4449003674" lon="19.8122435901">
        <ele>2424.10</ele>
        <time>2019-07-06T07:18:12Z</time>
      </trkpt>
      <trkpt lat="42.4448795803" lon="19.8122475296">
        <ele>2426.02</ele>
        <time>2019-07-06T07:18:27Z</time>
      </trkpt>
      <trkpt lat="42.4448380899" lon="19.8122412432">
        <ele>2428.43</ele>
        <time>2019-07-06T07:18:42Z</time>
      </trkpt>
      <trkpt lat="42.4448116869" lon="19.8122306820">
        <ele>2431.31</ele>
        <time>2019-07-06T07:18:55Z</time>
      </trkpt>
      <trkpt lat="42.4447975215" lon="19.8121736012">
        <ele>2433.71</ele>
        <time>2019-07-06T07:19:11Z</time>
      </trkpt>
      <trkpt lat="42.4448076636" lon="19.8121720087">
        <ele>2436.60</ele>
        <time>2019-07-06T07:19:24Z</time>
      </trkpt>
      <trkpt lat="42.4447854515" lon="19.8121665604">
        <ele>2438.52</ele>
        <time>2019-07-06T07:19:37Z</time>
      </trkpt>
      <trkpt lat="42.4447310530" lon="19.8121527303">
        <ele>2439.96</ele>
        <time>2019-07-06T07:19:47Z</time>
      </trkpt>
      <trkpt lat="42.4447150435" lon="19.8121518921">
        <ele>2441.89</ele>
        <time>2019-07-06T07:19:59Z</time>
      </trkpt>
      <trkpt lat="42.4447037280" lon="19.8121610284">
        <ele>2443.81</ele>
        <time>2019-07-06T07:20:10Z</time>
      </trkpt>
      <trkpt lat="42.4446588010" lon="19.8121803068">
        <ele>2446.69</ele>
        <time>2019-07-06T07:20:22Z</time>
      </trkpt>
      <trkpt lat="42.4446280394" lon="19.8121628724">
        <ele>2448.62</ele>
        <time>2019-07-06T07:20:35Z</time>
      </trkpt>
      <trkpt lat="42.4445824418" lon="19.8121614475">
        <ele>2451.50</ele>
        <time>2019-07-06T07:20:49Z</time>
      </trkpt>
      <trkpt lat="42.4445636664" lon="19.8121964000">
        <ele>2453.42</ele>
        <time>2019-07-06T07:20:58Z</time>
      </trkpt>
      <trkpt lat="42.4445178173" lon="19.8122216295">
        <ele>2455.34</ele>
        <time>2019-07-06T07:21:11Z</time>
      </trkpt>
      <trkpt lat="42.4444759917" lon="19.8122632876">
        <ele>2457.75</ele>
        <time>2019-07-06T07:21:25Z</time>
      </trkpt>
      <trkpt lat="42.4444418773" lon="19.8122901935">
        <ele>2460.63</ele>
        <time>2019-07-06T07:21:37Z</time>
      </trkpt>
      <trkpt lat="42.4444122892" lon="19.8123098072">
        <ele>2463.04</ele>
        <time>2019-07-06T07:21:51Z</time>
      </trkpt>
      <trkpt lat="42.4443697091" lon="19.8123195302">
        <ele>2465.92</ele>
        <time>2019-07-06T07:22:02Z</time>
      </trkpt>
      <trkpt lat="42.4443378579" lon="19.8123362940">
        <ele>2468.32</ele>
        <time>2019-07-06T07:22:15Z</time>
      </trkpt>
      <trkpt lat="42.4443402886" lon="19.8122919537">
        <ele>2470.24</ele>
        <time>2019-07-06T07:22:31Z</time>
      </trkpt>
      <trkpt lat="42.4442839622" lon="19.8122854996">
        <ele>2473.61</ele>
        <time>2019-07-06T07:22:45Z</time>
      </trkpt>
      <trkpt lat="42.4442272168" lon="19.8122851644">
        <ele>2476.49</ele>
        <time>2019-07-06T07:23:02Z</time>
      </trkpt>
      <trkpt lat="42.4442363530" lon="19.8122735973">
        <ele>2477.45</ele>
        <time>2019-07-06T07:23:19Z</time>
      </trkpt>
      <trkpt lat="42.4442235287" lon="19.8122357111">
        <ele>2479.38</ele>
        <time>2019-07-06T07:23:34Z</time>
      </trkpt>
      <trkpt lat="42.4442050047" lon="19.8122041114">
        <ele>2479.86</ele>
        <time>2019-07-06T07:23:56Z</time>
      </trkpt>
      <trkpt lat="42.4442158174" lon="19.8121991660">
        <ele>2479.86</ele>
        <time>2019-07-06T07:24:24Z</time>
      </trkpt>
      <trkpt lat="42.4442248698" lon="19.8122094758">
        <ele>2480.34</ele>
        <time>2019-07-06T07:24:48Z</time>
      </trkpt>
      <trkpt lat="42.4442194216" lon="19.8121777084">
        <ele>2482.74</ele>
        <time>2019-07-06T07:25:03Z</time>
      </trkpt>
      <trkpt lat="42.4442118779" lon="19.8121346254">
        <ele>2485.15</ele>
        <time>2019-07-06T07:25:15Z</time>
      </trkpt>
      <trkpt lat="42.4441696331" lon="19.8121065460">
        <ele>2487.07</ele>
        <time>2019-07-06T07:25:29Z</time>
      </trkpt>
      <trkpt lat="42.4441450741" lon="19.8120613676">
        <ele>2489.95</ele>
        <time>2019-07-06T07:25:40Z</time>
      </trkpt>
      <trkpt lat="42.4441081937" lon="19.8120116629">
        <ele>2492.84</ele>
        <time>2019-07-06T07:25:54Z</time>
      </trkpt>
      <trkpt lat="42.4440781027" lon="19.8120057117">
        <ele>2494.76</ele>
        <time>2019-07-06T07:26:11Z</time>
      </trkpt>
      <trkpt lat="42.4440419767" lon="19.8120248225">
        <ele>2497.16</ele>
        <time>2019-07-06T07:26:25Z</time>
      </trkpt>
      <trkpt lat="42.4440122209" lon="19.8120146804">
        <ele>2500.05</ele>
        <time>2019-07-06T07:26:39Z</time>
      </trkpt>
      <trkpt lat="42.4440032523" lon="19.8120710906">
        <ele>2501.49</ele>
        <time>2019-07-06T07:26:59Z</time>
      </trkpt>
      <trkpt lat="42.4440013245" lon="19.8120689951">
        <ele>2501.49</ele>
        <time>2019-07-06T07:27:10Z</time>
      </trkpt>
      <trkpt lat="42.4439556431" lon="19.8120518960">
        <ele>2503.89</ele>
        <time>2019-07-06T07:27:24Z</time>
      </trkpt>
      <trkpt lat="42.4439622648" lon="19.8120274208">
        <ele>2505.33</ele>
        <time>2019-07-06T07:27:38Z</time>
      </trkpt>
      <trkpt lat="42.4439462554" lon="19.8119913787">
        <ele>2508.22</ele>
        <time>2019-07-06T07:27:50Z</time>
      </trkpt>
      <trkpt lat="42.4439347722" lon="19.8119673226">
        <ele>2509.18</ele>
        <time>2019-07-06T07:27:56Z</time>
      </trkpt>
      <trkpt lat="42.4438859895" lon="19.8119151872">
        <ele>2512.06</ele>
        <time>2019-07-06T07:28:08Z</time>
      </trkpt>
      <trkpt lat="42.4438655376" lon="19.8118522391">
        <ele>2514.47</ele>
        <time>2019-07-06T07:28:20Z</time>
      </trkpt>
      <trkpt lat="42.4438691419" lon="19.8117834236">
        <ele>2516.39</ele>
        <time>2019-07-06T07:28:35Z</time>
      </trkpt>
      <trkpt lat="42.4438598379" lon="19.8117968347">
        <ele>2516.39</ele>
        <time>2019-07-06T07:28:55Z</time>
      </trkpt>
      <trkpt lat="42.4439213611" lon="19.8117466271">
        <ele>2516.87</ele>
        <time>2019-07-06T07:29:10Z</time>
      </trkpt>
      <trkpt lat="42.4439350236" lon="19.8117172066">
        <ele>2518.31</ele>
        <time>2019-07-06T07:29:22Z</time>
      </trkpt>
      <trkpt lat="42.4439501110" lon="19.8116728663">
        <ele>2518.79</ele>
        <time>2019-07-06T07:29:39Z</time>
      </trkpt>
      <trkpt lat="42.4440397136" lon="19.8116906360">
        <ele>2519.75</ele>
        <time>2019-07-06T07:30:05Z</time>
      </trkpt>
      <trkpt lat="42.4440618418" lon="19.8117074836">
        <ele>2519.75</ele>
        <time>2019-07-06T07:30:23Z</time>
      </trkpt>
      <trkpt lat="42.4440589920" lon="19.8117073998">
        <ele>2520.23</ele>
        <time>2019-07-06T07:30:36Z</time>
      </trkpt>
      <trkpt lat="42.4440021627" lon="19.8116607126">
        <ele>2521.68</ele>
        <time>2019-07-06T07:30:58Z</time>
      </trkpt>
      <trkpt lat="42.4440075271" lon="19.8116668314">
        <ele>2524.08</ele>
        <time>2019-07-06T07:31:14Z</time>
      </trkpt>
      <trkpt lat="42.4441223592" lon="19.8116650712">
        <ele>2526.00</ele>
        <time>2019-07-06T07:31:26Z</time>
      </trkpt>
      <trkpt lat="42.4442369398" lon="19.8116469663">
        <ele>2527.92</ele>
        <time>2019-07-06T07:31:38Z</time>
      </trkpt>
      <trkpt lat="42.4443977047" lon="19.8116859421">
        <ele>2530.81</ele>
        <time>2019-07-06T07:31:52Z</time>
      </trkpt>
      <trkpt lat="42.4444952700" lon="19.8117442802">
        <ele>2532.73</ele>
        <time>2019-07-06T07:32:08Z</time>
      </trkpt>
      <trkpt lat="42.4444531091" lon="19.8117181286">
        <ele>2534.65</ele>
        <time>2019-07-06T07:32:18Z</time>
      </trkpt>
      <trkpt lat="42.4443855509" lon="19.8117581103">
        <ele>2537.54</ele>
        <time>2019-07-06T07:32:34Z</time>
      </trkpt>
      <trkpt lat="42.4443424679" lon="19.8117624689">
        <ele>2539.94</ele>
        <time>2019-07-06T07:32:46Z</time>
      </trkpt>
      <trkpt lat="42.4443169869" lon="19.8117469624">
        <ele>2540.42</ele>
        <time>2019-07-06T07:33:05Z</time>
      </trkpt>
      <trkpt lat="42.4443222675" lon="19.8117224872">
        <ele>2541.38</ele>
        <time>2019-07-06T07:33:14Z</time>
      </trkpt>
      <trkpt lat="42.4442696292" lon="19.8116864450">
        <ele>2544.27</ele>
        <time>2019-07-06T07:33:24Z</time>
      </trkpt>
      <trkpt lat="42.4442533683" lon="19.8116545100">
        <ele>2546.67</ele>
        <time>2019-07-06T07:33:36Z</time>
      </trkpt>
      <trkpt lat="42.4442788493" lon="19.8116330523">
        <ele>2548.59</ele>
        <time>2019-07-06T07:33:59Z</time>
      </trkpt>
      <trkpt lat="42.4442770053" lon="19.8116088286">
        <ele>2550.03</ele>
        <time>2019-07-06T07:34:12Z</time>
      </trkpt>
      <trkpt lat="42.4442316592" lon="19.8115649074">
        <ele>2552.92</ele>
        <time>2019-07-06T07:34:22Z</time>
      </trkpt>
      <trkpt lat="42.4442610797" lon="19.8115491495">
        <ele>2554.84</ele>
        <time>2019-07-06T07:34:31Z</time>
      </trkpt>
      <trkpt lat="42.4442807771" lon="19.8115604650">
        <ele>2554.84</ele>
        <time>2019-07-06T07:34:33Z</time>
      </trkpt>
      <trkpt lat="42.4442738201" lon="19.8115440365">
        <ele>2556.76</ele>
        <time>2019-07-06T07:34:44Z</time>
      </trkpt>
      <trkpt lat="42.4441949464" lon="19.8113786615">
        <ele>2558.69</ele>
        <time>2019-07-06T07:34:55Z</time>
      </trkpt>
      <trkpt lat="42.4440565612" lon="19.8113007937">
        <ele>2561.09</ele>
        <time>2019-07-06T07:35:07Z</time>
      </trkpt>
      <trkpt lat="42.4439904280" lon="19.8112539388">
        <ele>2563.49</ele>
        <time>2019-07-06T07:35:22Z</time>
      </trkpt>
      <trkpt lat="42.4439636897" lon="19.8112114426">
        <ele>2565.90</ele>
        <time>2019-07-06T07:35:34Z</time>
      </trkpt>
      <trkpt lat="42.4439554755" lon="19.8111748137">
        <ele>2568.78</ele>
        <time>2019-07-06T07:35:42Z</time>
      </trkpt>
      <trkpt lat="42.4439420644" lon="19.8111690301">
        <ele>2570.22</ele>
        <time>2019-07-06T07:35:45Z</time>
      </trkpt>
      <trkpt lat="42.4438886717" lon="19.8110982031">
        <ele>2572.63</ele>
        <time>2019-07-06T07:36:00Z</time>
      </trkpt>
      <trkpt lat="42.4438184313" lon="19.8110895697">
        <ele>2574.07</ele>
        <time>2019-07-06T07:36:13Z</time>
      </trkpt>
      <trkpt lat="42.4437926151" lon="19.8110629991">
        <ele>2574.55</ele>
        <time>2019-07-06T07:36:19Z</time>
      </trkpt>
      <trkpt lat="42.4437260628" lon="19.8110132106">
        <ele>2575.03</ele>
        <time>2019-07-06T07:36:32Z</time>
      </trkpt>
      <trkpt lat="42.4437185191" lon="19.8110048287">
        <ele>2573.59</ele>
        <time>2019-07-06T07:36:34Z</time>
      </trkpt>
      <trkpt lat="42.4437017553" lon="19.8109811917">
        <ele>2573.11</ele>
        <time>2019-07-06T07:36:38Z</time>
      </trkpt>
      <trkpt lat="42.4436300900" lon="19.8109208420">
        <ele>2574.55</ele>
        <time>2019-07-06T07:36:49Z</time>
      </trkpt>
      <trkpt lat="42.4436018430" lon="19.8108917568">
        <ele>2575.99</ele>
        <time>2019-07-06T07:37:02Z</time>
      </trkpt>
      <trkpt lat="42.4435702432" lon="19.8109073471">
        <ele>2577.91</ele>
        <time>2019-07-06T07:37:17Z</time>
      </trkpt>
      <trkpt lat="42.4435283337" lon="19.8109334987">
        <ele>2579.35</ele>
        <time>2019-07-06T07:37:31Z</time>
      </trkpt>
      <trkpt lat="42.4434792995" lon="19.8109703790">
        <ele>2581.76</ele>
        <time>2019-07-06T07:37:42Z</time>
      </trkpt>
      <trkpt lat="42.4434140045" lon="19.8109713849">
        <ele>2583.68</ele>
        <time>2019-07-06T07:37:55Z</time>
      </trkpt>
      <trkpt lat="42.4433633778" lon="19.8109457362">
        <ele>2584.64</ele>
        <time>2019-07-06T07:38:08Z</time>
      </trkpt>
      <trkpt lat="42.4433336221" lon="19.8109186627">
        <ele>2585.60</ele>
        <time>2019-07-06T07:38:21Z</time>
      </trkpt>
      <trkpt lat="42.4433102366" lon="19.8108811118">
        <ele>2586.56</ele>
        <time>2019-07-06T07:38:26Z</time>
      </trkpt>
      <trkpt lat="42.4432638846" lon="19.8108407110">
        <ele>2589.45</ele>
        <time>2019-07-06T07:38:37Z</time>
      </trkpt>
      <trkpt lat="42.4432331230" lon="19.8108080216">
        <ele>2591.37</ele>
        <time>2019-07-06T07:38:47Z</time>
      </trkpt>
      <trkpt lat="42.4432114139" lon="19.8107818700">
        <ele>2594.25</ele>
        <time>2019-07-06T07:39:00Z</time>
      </trkpt>
      <trkpt lat="42.4431904592" lon="19.8107509408">
        <ele>2596.66</ele>
        <time>2019-07-06T07:39:14Z</time>
      </trkpt>
      <trkpt lat="42.4431629665" lon="19.8107507732">
        <ele>2598.10</ele>
        <time>2019-07-06T07:39:26Z</time>
      </trkpt>
      <trkpt lat="42.4431197159" lon="19.8107632622">
        <ele>2600.50</ele>
        <time>2019-07-06T07:39:41Z</time>
      </trkpt>
      <trkpt lat="42.4431033712" lon="19.8108087759">
        <ele>2603.87</ele>
        <time>2019-07-06T07:39:52Z</time>
      </trkpt>
      <trkpt lat="42.4430592824" lon="19.8108078539">
        <ele>2606.27</ele>
        <time>2019-07-06T07:40:03Z</time>
      </trkpt>
      <trkpt lat="42.4430211447" lon="19.8107920121">
        <ele>2609.64</ele>
        <time>2019-07-06T07:40:17Z</time>
      </trkpt>
      <trkpt lat="42.4429711886" lon="19.8107940238">
        <ele>2612.52</ele>
        <time>2019-07-06T07:40:31Z</time>
      </trkpt>
      <trkpt lat="42.4429318774" lon="19.8107920121">
        <ele>2614.92</ele>
        <time>2019-07-06T07:40:43Z</time>
      </trkpt>
      <trkpt lat="42.4429074861" lon="19.8108234443">
        <ele>2616.37</ele>
        <time>2019-07-06T07:40:55Z</time>
      </trkpt>
      <trkpt lat="42.4428881239" lon="19.8108105361">
        <ele>2618.29</ele>
        <time>2019-07-06T07:41:10Z</time>
      </trkpt>
      <trkpt lat="42.4428522494" lon="19.8108270485">
        <ele>2620.69</ele>
        <time>2019-07-06T07:41:27Z</time>
      </trkpt>
      <trkpt lat="42.4428262655" lon="19.8108787648">
        <ele>2624.06</ele>
        <time>2019-07-06T07:41:42Z</time>
      </trkpt>
      <trkpt lat="42.4428349826" lon="19.8109671101">
        <ele>2625.98</ele>
        <time>2019-07-06T07:41:54Z</time>
      </trkpt>
      <trkpt lat="42.4428215716" lon="19.8109682836">
        <ele>2628.38</ele>
        <time>2019-07-06T07:42:06Z</time>
      </trkpt>
      <trkpt lat="42.4427851103" lon="19.8109837901">
        <ele>2630.79</ele>
        <time>2019-07-06T07:42:19Z</time>
      </trkpt>
      <trkpt lat="42.4427686818" lon="19.8110044934">
        <ele>2632.71</ele>
        <time>2019-07-06T07:42:32Z</time>
      </trkpt>
      <trkpt lat="42.4427536782" lon="19.8110430501">
        <ele>2635.11</ele>
        <time>2019-07-06T07:42:44Z</time>
      </trkpt>
      <trkpt lat="42.4427257665" lon="19.8111673538">
        <ele>2637.51</ele>
        <time>2019-07-06T07:42:57Z</time>
      </trkpt>
      <trkpt lat="42.4427517503" lon="19.8112567049">
        <ele>2638.96</ele>
        <time>2019-07-06T07:43:12Z</time>
      </trkpt>
      <trkpt lat="42.4427582882" lon="19.8113242630">
        <ele>2640.40</ele>
        <time>2019-07-06T07:43:24Z</time>
      </trkpt>
      <trkpt lat="42.4427859485" lon="19.8114207387">
        <ele>2641.84</ele>
        <time>2019-07-06T07:43:35Z</time>
      </trkpt>
      <trkpt lat="42.4427908100" lon="19.8114715330">
        <ele>2642.32</ele>
        <time>2019-07-06T07:43:41Z</time>
      </trkpt>
      <trkpt lat="42.4427843560" lon="19.8114758078">
        <ele>2642.80</ele>
        <time>2019-07-06T07:43:48Z</time>
      </trkpt>
      <trkpt lat="42.4427867867" lon="19.8115442041">
        <ele>2643.28</ele>
        <time>2019-07-06T07:43:59Z</time>
      </trkpt>
      <trkpt lat="42.4428137764" lon="19.8116239998">
        <ele>2645.69</ele>
        <time>2019-07-06T07:44:11Z</time>
      </trkpt>
      <trkpt lat="42.4428259302" lon="19.8116517439">
        <ele>2648.57</ele>
        <time>2019-07-06T07:44:24Z</time>
      </trkpt>
      <trkpt lat="42.4428194761" lon="19.8116649035">
        <ele>2650.97</ele>
        <time>2019-07-06T07:44:38Z</time>
      </trkpt>
      <trkpt lat="42.4427965935" lon="19.8116494808">
        <ele>2653.38</ele>
        <time>2019-07-06T07:44:51Z</time>
      </trkpt>
      <trkpt lat="42.4428010359" lon="19.8117430229">
        <ele>2655.30</ele>
        <time>2019-07-06T07:45:02Z</time>
      </trkpt>
      <trkpt lat="42.4427850265" lon="19.8117990978">
        <ele>2654.34</ele>
        <time>2019-07-06T07:45:17Z</time>
      </trkpt>
      <trkpt lat="42.4427729566" lon="19.8118147720">
        <ele>2657.22</ele>
        <time>2019-07-06T07:45:27Z</time>
      </trkpt>
      <trkpt lat="42.4427551031" lon="19.8118496407">
        <ele>2660.59</ele>
        <time>2019-07-06T07:45:41Z</time>
      </trkpt>
      <trkpt lat="42.4427289516" lon="19.8118405882">
        <ele>2662.03</ele>
        <time>2019-07-06T07:45:54Z</time>
      </trkpt>
      <trkpt lat="42.4426636565" lon="19.8118773848">
        <ele>2664.91</ele>
        <time>2019-07-06T07:46:07Z</time>
      </trkpt>
      <trkpt lat="42.4426145386" lon="19.8119881097">
        <ele>2666.35</ele>
        <time>2019-07-06T07:46:19Z</time>
      </trkpt>
      <trkpt lat="42.4426064920" lon="19.8121122457">
        <ele>2668.76</ele>
        <time>2019-07-06T07:46:34Z</time>
      </trkpt>
      <trkpt lat="42.4425888900" lon="19.8122035246">
        <ele>2670.20</ele>
        <time>2019-07-06T07:46:46Z</time>
      </trkpt>
      <trkpt lat="42.4425401073" lon="19.8122627847">
        <ele>2670.20</ele>
        <time>2019-07-06T07:46:58Z</time>
      </trkpt>
      <trkpt lat="42.4425287079" lon="19.8123616911">
        <ele>2671.16</ele>
        <time>2019-07-06T07:47:10Z</time>
      </trkpt>
      <trkpt lat="42.4425015505" lon="19.8124505393">
        <ele>2672.60</ele>
        <time>2019-07-06T07:47:26Z</time>
      </trkpt>
      <trkpt lat="42.4424349982" lon="19.8125315085">
        <ele>2675.97</ele>
        <time>2019-07-06T07:47:40Z</time>
      </trkpt>
      <trkpt lat="42.4424116127" lon="19.8125601746">
        <ele>2676.93</ele>
        <time>2019-07-06T07:47:47Z</time>
      </trkpt>
      <trkpt lat="42.4423759058" lon="19.8126157466">
        <ele>2676.93</ele>
        <time>2019-07-06T07:48:00Z</time>
      </trkpt>
      <trkpt lat="42.4422930088" lon="19.8126894236">
        <ele>2678.37</ele>
        <time>2019-07-06T07:48:13Z</time>
      </trkpt>
      <trkpt lat="42.4422036577" lon="19.8127713986">
        <ele>2679.33</ele>
        <time>2019-07-06T07:48:24Z</time>
      </trkpt>
      <trkpt lat="42.4421704654" lon="19.8128045909">
        <ele>2680.77</ele>
        <time>2019-07-06T07:48:36Z</time>
      </trkpt>
      <trkpt lat="42.4420842994" lon="19.8128200136">
        <ele>2680.77</ele>
        <time>2019-07-06T07:48:52Z</time>
      </trkpt>
      <trkpt lat="42.4420801923" lon="19.8128472548">
        <ele>2680.77</ele>
        <time>2019-07-06T07:49:15Z</time>
      </trkpt>
      <trkpt lat="42.4420840479" lon="19.8128139786">
        <ele>2680.77</ele>
        <time>2019-07-06T07:49:34Z</time>
      </trkpt>
      <trkpt lat="42.4420976266" lon="19.8127947003">
        <ele>2681.25</ele>
        <time>2019-07-06T07:49:53Z</time>
      </trkpt>
      <trkpt lat="42.4420725647" lon="19.8128009867">
        <ele>2681.25</ele>
        <time>2019-07-06T07:50:12Z</time>
      </trkpt>
      <trkpt lat="42.4420896638" lon="19.8128247913">
        <ele>2680.29</ele>
        <time>2019-07-06T07:50:24Z</time>
      </trkpt>
      <trkpt lat="42.4421094451" lon="19.8128276411">
        <ele>2680.29</ele>
        <time>2019-07-06T07:50:43Z</time>
      </trkpt>
      <trkpt lat="42.4420935195" lon="19.8128250428">
        <ele>2680.29</ele>
        <time>2019-07-06T07:51:02Z</time>
      </trkpt>
      <trkpt lat="42.4420788512" lon="19.8128188401">
        <ele>2680.29</ele>
        <time>2019-07-06T07:51:15Z</time>
      </trkpt>
      <trkpt lat="42.4420696311" lon="19.8128232826">
        <ele>2680.29</ele>
        <time>2019-07-06T07:51:31Z</time>
      </trkpt>
      <trkpt lat="42.4420908373" lon="19.8128535412">
        <ele>2679.81</ele>
        <time>2019-07-06T07:52:13Z</time>
      </trkpt>
      <trkpt lat="42.4420981295" lon="19.8128663655">
        <ele>2679.81</ele>
        <time>2019-07-06T07:52:56Z</time>
      </trkpt>
      <trkpt lat="42.4420983810" lon="19.8128604982">
        <ele>2679.81</ele>
        <time>2019-07-06T07:53:39Z</time>
      </trkpt>
      <trkpt lat="42.4420925975" lon="19.8128564749">
        <ele>2679.81</ele>
        <time>2019-07-06T07:54:21Z</time>
      </trkpt>
      <trkpt lat="42.4420936033" lon="19.8128412198">
        <ele>2679.81</ele>
        <time>2019-07-06T07:54:38Z</time>
      </trkpt>
      <trkpt lat="42.4421728123" lon="19.8128428962">
        <ele>2679.81</ele>
        <time>2019-07-06T07:54:51Z</time>
      </trkpt>
      <trkpt lat="42.4421744049" lon="19.8128221929">
        <ele>2679.33</ele>
        <time>2019-07-06T07:55:23Z</time>
      </trkpt>
      <trkpt lat="42.4421692919" lon="19.8128258809">
        <ele>2679.33</ele>
        <time>2019-07-06T07:55:55Z</time>
      </trkpt>
      <trkpt lat="42.4421920907" lon="19.8128237016">
        <ele>2679.81</ele>
        <time>2019-07-06T07:56:31Z</time>
      </trkpt>
      <trkpt lat="42.4421870615" lon="19.8128351849">
        <ele>2679.81</ele>
        <time>2019-07-06T07:57:13Z</time>
      </trkpt>
      <trkpt lat="42.4421853013" lon="19.8128515296">
        <ele>2679.81</ele>
        <time>2019-07-06T07:57:50Z</time>
      </trkpt>
      <trkpt lat="42.4421977066" lon="19.8128506076">
        <ele>2680.29</ele>
        <time>2019-07-06T07:58:25Z</time>
      </trkpt>
      <trkpt lat="42.4421983771" lon="19.8128482606">
        <ele>2680.29</ele>
        <time>2019-07-06T07:59:09Z</time>
      </trkpt>
      <trkpt lat="42.4422020651" lon="19.8128533736">
        <ele>2680.29</ele>
        <time>2019-07-06T08:00:01Z</time>
      </trkpt>
      <trkpt lat="42.4421986286" lon="19.8128358554">
        <ele>2680.77</ele>
        <time>2019-07-06T08:00:44Z</time>
      </trkpt>
      <trkpt lat="42.4421913363" lon="19.8128237855">
        <ele>2680.77</ele>
        <time>2019-07-06T08:01:13Z</time>
      </trkpt>
      <trkpt lat="42.4421904981" lon="19.8128246237">
        <ele>2680.77</ele>
        <time>2019-07-06T08:01:52Z</time>
      </trkpt>
      <trkpt lat="42.4421895761" lon="19.8128286470">
        <ele>2682.22</ele>
        <time>2019-07-06T08:02:06Z</time>
      </trkpt>
      <trkpt lat="42.4421848822" lon="19.8128246237">
        <ele>2682.22</ele>
        <time>2019-07-06T08:02:19Z</time>
      </trkpt>
      <trkpt lat="42.4421870615" lon="19.8128300719">
        <ele>2681.73</ele>
        <time>2019-07-06T08:02:40Z</time>
      </trkpt>
      <trkpt lat="42.4421842117" lon="19.8128281441">
        <ele>2681.73</ele>
        <time>2019-07-06T08:03:03Z</time>
      </trkpt>
      <trkpt lat="42.4422191642" lon="19.8128123023">
        <ele>2681.73</ele>
        <time>2019-07-06T08:03:20Z</time>
      </trkpt>
      <trkpt lat="42.4422837049" lon="19.8127869051">
        <ele>2680.77</ele>
        <time>2019-07-06T08:03:30Z</time>
      </trkpt>
      <trkpt lat="42.4423256144" lon="19.8127326742">
        <ele>2679.33</ele>
        <time>2019-07-06T08:03:36Z</time>
      </trkpt>
      <trkpt lat="42.4424095172" lon="19.8126650322">
        <ele>2679.33</ele>
        <time>2019-07-06T08:03:49Z</time>
      </trkpt>
      <trkpt lat="42.4424753152" lon="19.8125911038">
        <ele>2677.41</ele>
        <time>2019-07-06T08:04:05Z</time>
      </trkpt>
      <trkpt lat="42.4425639957" lon="19.8124346137">
        <ele>2673.56</ele>
        <time>2019-07-06T08:04:19Z</time>
      </trkpt>
      <trkpt lat="42.4426352419" lon="19.8123505432">
        <ele>2672.60</ele>
        <time>2019-07-06T08:04:31Z</time>
      </trkpt>
      <trkpt lat="42.4426794145" lon="19.8122590128">
        <ele>2671.64</ele>
        <time>2019-07-06T08:04:41Z</time>
      </trkpt>
      <trkpt lat="42.4427188933" lon="19.8121414986">
        <ele>2671.16</ele>
        <time>2019-07-06T08:04:55Z</time>
      </trkpt>
      <trkpt lat="42.4426855333" lon="19.8121082224">
        <ele>2670.20</ele>
        <time>2019-07-06T08:05:00Z</time>
      </trkpt>
      <trkpt lat="42.4426665902" lon="19.8120583501">
        <ele>2668.28</ele>
        <time>2019-07-06T08:05:10Z</time>
      </trkpt>
      <trkpt lat="42.4426867068" lon="19.8119373154">
        <ele>2666.83</ele>
        <time>2019-07-06T08:05:24Z</time>
      </trkpt>
      <trkpt lat="42.4426775705" lon="19.8119292688">
        <ele>2665.39</ele>
        <time>2019-07-06T08:05:40Z</time>
      </trkpt>
      <trkpt lat="42.4427274428" lon="19.8119246587">
        <ele>2662.99</ele>
        <time>2019-07-06T08:05:52Z</time>
      </trkpt>
      <trkpt lat="42.4427389260" lon="19.8118950706">
        <ele>2662.99</ele>
        <time>2019-07-06T08:06:06Z</time>
      </trkpt>
      <trkpt lat="42.4427993596" lon="19.8119089007">
        <ele>2660.59</ele>
        <time>2019-07-06T08:06:21Z</time>
      </trkpt>
      <trkpt lat="42.4428261817" lon="19.8118863534">
        <ele>2657.70</ele>
        <time>2019-07-06T08:06:31Z</time>
      </trkpt>
      <trkpt lat="42.4428287800" lon="19.8118847609">
        <ele>2657.22</ele>
        <time>2019-07-06T08:06:32Z</time>
      </trkpt>
      <trkpt lat="42.4428376649" lon="19.8118017800">
        <ele>2656.74</ele>
        <time>2019-07-06T08:06:44Z</time>
      </trkpt>
      <trkpt lat="42.4428570271" lon="19.8117350601">
        <ele>2653.38</ele>
        <time>2019-07-06T08:06:57Z</time>
      </trkpt>
      <trkpt lat="42.4428740423" lon="19.8117020354">
        <ele>2651.93</ele>
        <time>2019-07-06T08:07:12Z</time>
      </trkpt>
      <trkpt lat="42.4428699352" lon="19.8116427753">
        <ele>2649.05</ele>
        <time>2019-07-06T08:07:26Z</time>
      </trkpt>
      <trkpt lat="42.4428627267" lon="19.8115571123">
        <ele>2646.65</ele>
        <time>2019-07-06T08:07:37Z</time>
      </trkpt>
      <trkpt lat="42.4428414367" lon="19.8114956729">
        <ele>2645.69</ele>
        <time>2019-07-06T08:07:49Z</time>
      </trkpt>
      <trkpt lat="42.4428372458" lon="19.8114207387">
        <ele>2644.24</ele>
        <time>2019-07-06T08:08:02Z</time>
      </trkpt>
      <trkpt lat="42.4428079929" lon="19.8113462236">
        <ele>2642.32</ele>
        <time>2019-07-06T08:08:15Z</time>
      </trkpt>
      <trkpt lat="42.4428349826" lon="19.8112933338">
        <ele>2640.40</ele>
        <time>2019-07-06T08:08:29Z</time>
      </trkpt>
      <trkpt lat="42.4428122677" lon="19.8112094309">
        <ele>2639.44</ele>
        <time>2019-07-06T08:08:41Z</time>
      </trkpt>
      <trkpt lat="42.4428143632" lon="19.8112278711">
        <ele>2637.51</ele>
        <time>2019-07-06T08:08:55Z</time>
      </trkpt>
      <trkpt lat="42.4428470526" lon="19.8112172261">
        <ele>2635.59</ele>
        <time>2019-07-06T08:09:10Z</time>
      </trkpt>
      <trkpt lat="42.4428962544" lon="19.8112159688">
        <ele>2632.71</ele>
        <time>2019-07-06T08:09:21Z</time>
      </trkpt>
      <trkpt lat="42.4429256748" lon="19.8111912422">
        <ele>2629.82</ele>
        <time>2019-07-06T08:09:36Z</time>
      </trkpt>
      <trkpt lat="42.4429611303" lon="19.8111627437">
        <ele>2627.90</ele>
        <time>2019-07-06T08:09:48Z</time>
      </trkpt>
      <trkpt lat="42.4429784808" lon="19.8111111950">
        <ele>2626.46</ele>
        <time>2019-07-06T08:10:03Z</time>
      </trkpt>
      <trkpt lat="42.4429629743" lon="19.8110521864">
        <ele>2625.02</ele>
        <time>2019-07-06T08:10:16Z</time>
      </trkpt>
      <trkpt lat="42.4429489765" lon="19.8110044096">
        <ele>2624.06</ele>
        <time>2019-07-06T08:10:29Z</time>
      </trkpt>
      <trkpt lat="42.4429612141" lon="19.8110021465">
        <ele>2622.13</ele>
        <time>2019-07-06T08:10:39Z</time>
      </trkpt>
      <trkpt lat="42.4429395050" lon="19.8109101970">
        <ele>2621.17</ele>
        <time>2019-07-06T08:10:53Z</time>
      </trkpt>
      <trkpt lat="42.4429198075" lon="19.8108278029">
        <ele>2618.77</ele>
        <time>2019-07-06T08:11:05Z</time>
      </trkpt>
      <trkpt lat="42.4429404270" lon="19.8108294792">
        <ele>2618.29</ele>
        <time>2019-07-06T08:11:27Z</time>
      </trkpt>
      <trkpt lat="42.4429722782" lon="19.8108035792">
        <ele>2615.40</ele>
        <time>2019-07-06T08:11:40Z</time>
      </trkpt>
      <trkpt lat="42.4429837614" lon="19.8108275514">
        <ele>2613.00</ele>
        <time>2019-07-06T08:11:50Z</time>
      </trkpt>
      <trkpt lat="42.4430348910" lon="19.8108245339">
        <ele>2609.16</ele>
        <time>2019-07-06T08:12:06Z</time>
      </trkpt>
      <trkpt lat="42.4430674128" lon="19.8107952811">
        <ele>2607.23</ele>
        <time>2019-07-06T08:12:19Z</time>
      </trkpt>
      <trkpt lat="42.4430960789" lon="19.8107986338">
        <ele>2604.35</ele>
        <time>2019-07-06T08:12:35Z</time>
      </trkpt>
      <trkpt lat="42.4431336299" lon="19.8107802775">
        <ele>2602.43</ele>
        <time>2019-07-06T08:12:46Z</time>
      </trkpt>
      <trkpt lat="42.4431484658" lon="19.8107620887">
        <ele>2600.98</ele>
        <time>2019-07-06T08:12:58Z</time>
      </trkpt>
      <trkpt lat="42.4431498908" lon="19.8107507732">
        <ele>2599.54</ele>
        <time>2019-07-06T08:13:13Z</time>
      </trkpt>
      <trkpt lat="42.4431780539" lon="19.8107951973">
        <ele>2597.62</ele>
        <time>2019-07-06T08:13:26Z</time>
      </trkpt>
      <trkpt lat="42.4432242382" lon="19.8108119611">
        <ele>2594.74</ele>
        <time>2019-07-06T08:13:42Z</time>
      </trkpt>
      <trkpt lat="42.4432462826" lon="19.8108563852">
        <ele>2591.37</ele>
        <time>2019-07-06T08:13:57Z</time>
      </trkpt>
      <trkpt lat="42.4432791397" lon="19.8108996358">
        <ele>2589.93</ele>
        <time>2019-07-06T08:14:10Z</time>
      </trkpt>
      <trkpt lat="42.4433252402" lon="19.8109357618">
        <ele>2588.49</ele>
        <time>2019-07-06T08:14:22Z</time>
      </trkpt>
      <trkpt lat="42.4433754478" lon="19.8109491728">
        <ele>2587.53</ele>
        <time>2019-07-06T08:14:33Z</time>
      </trkpt>
      <trkpt lat="42.4434378929" lon="19.8109378573">
        <ele>2584.16</ele>
        <time>2019-07-06T08:14:46Z</time>
      </trkpt>
      <trkpt lat="42.4434984103" lon="19.8109039944">
        <ele>2582.24</ele>
        <time>2019-07-06T08:14:56Z</time>
      </trkpt>
      <trkpt lat="42.4435196165" lon="19.8108662758">
        <ele>2579.84</ele>
        <time>2019-07-06T08:15:07Z</time>
      </trkpt>
      <trkpt lat="42.4435630348" lon="19.8108818661">
        <ele>2576.95</ele>
        <time>2019-07-06T08:15:17Z</time>
      </trkpt>
      <trkpt lat="42.4436215404" lon="19.8108516075">
        <ele>2576.95</ele>
        <time>2019-07-06T08:15:31Z</time>
      </trkpt>
      <trkpt lat="42.4436429981" lon="19.8108822852">
        <ele>2576.95</ele>
        <time>2019-07-06T08:15:46Z</time>
      </trkpt>
      <trkpt lat="42.4436927028" lon="19.8109679483">
        <ele>2575.99</ele>
        <time>2019-07-06T08:15:59Z</time>
      </trkpt>
      <trkpt lat="42.4436947983" lon="19.8109857179">
        <ele>2576.95</ele>
        <time>2019-07-06T08:16:00Z</time>
      </trkpt>
      <trkpt lat="42.4437106401" lon="19.8111007176">
        <ele>2578.39</ele>
        <time>2019-07-06T08:16:13Z</time>
      </trkpt>
      <trkpt lat="42.4437232129" lon="19.8111075908">
        <ele>2578.87</ele>
        <time>2019-07-06T08:16:37Z</time>
      </trkpt>
      <trkpt lat="42.4437607639" lon="19.8111132067">
        <ele>2577.43</ele>
        <time>2019-07-06T08:16:57Z</time>
      </trkpt>
      <trkpt lat="42.4437965546" lon="19.8111102730">
        <ele>2575.99</ele>
        <time>2019-07-06T08:17:03Z</time>
      </trkpt>
      <trkpt lat="42.4438390508" lon="19.8111375142">
        <ele>2575.03</ele>
        <time>2019-07-06T08:17:17Z</time>
      </trkpt>
      <trkpt lat="42.4438497797" lon="19.8111557029">
        <ele>2573.11</ele>
        <time>2019-07-06T08:17:31Z</time>
      </trkpt>
      <trkpt lat="42.4438444152" lon="19.8111912422">
        <ele>2571.66</ele>
        <time>2019-07-06T08:17:46Z</time>
      </trkpt>
      <trkpt lat="42.4438561499" lon="19.8112260271">
        <ele>2568.30</ele>
        <time>2019-07-06T08:18:01Z</time>
      </trkpt>
      <trkpt lat="42.4439162482" lon="19.8111572955">
        <ele>2566.38</ele>
        <time>2019-07-06T08:18:11Z</time>
      </trkpt>
      <trkpt lat="42.4439261388" lon="19.8111189902">
        <ele>2565.42</ele>
        <time>2019-07-06T08:18:15Z</time>
      </trkpt>
      <trkpt lat="42.4439472612" lon="19.8110500071">
        <ele>2562.53</ele>
        <time>2019-07-06T08:18:27Z</time>
      </trkpt>
      <trkpt lat="42.4439657014" lon="19.8111070879">
        <ele>2561.57</ele>
        <time>2019-07-06T08:18:39Z</time>
      </trkpt>
      <trkpt lat="42.4439390469" lon="19.8111662641">
        <ele>2561.09</ele>
        <time>2019-07-06T08:18:51Z</time>
      </trkpt>
      <trkpt lat="42.4439208582" lon="19.8111733049">
        <ele>2562.53</ele>
        <time>2019-07-06T08:18:54Z</time>
      </trkpt>
      <trkpt lat="42.4439121410" lon="19.8112101015">
        <ele>2562.53</ele>
        <time>2019-07-06T08:18:58Z</time>
      </trkpt>
      <trkpt lat="42.4438519590" lon="19.8112541065">
        <ele>2563.49</ele>
        <time>2019-07-06T08:19:16Z</time>
      </trkpt>
      <trkpt lat="42.4438625202" lon="19.8112888914">
        <ele>2562.05</ele>
        <time>2019-07-06T08:19:29Z</time>
      </trkpt>
      <trkpt lat="42.4438643642" lon="19.8113213293">
        <ele>2560.61</ele>
        <time>2019-07-06T08:19:51Z</time>
      </trkpt>
      <trkpt lat="42.4438474327" lon="19.8113210779">
        <ele>2560.13</ele>
        <time>2019-07-06T08:20:05Z</time>
      </trkpt>
      <trkpt lat="42.4438029248" lon="19.8113660887">
        <ele>2558.21</ele>
        <time>2019-07-06T08:20:23Z</time>
      </trkpt>
      <trkpt lat="42.4438075349" lon="19.8113541864">
        <ele>2557.24</ele>
        <time>2019-07-06T08:20:39Z</time>
      </trkpt>
      <trkpt lat="42.4437592551" lon="19.8113857862">
        <ele>2555.80</ele>
        <time>2019-07-06T08:20:55Z</time>
      </trkpt>
      <trkpt lat="42.4437791202" lon="19.8114060704">
        <ele>2554.36</ele>
        <time>2019-07-06T08:21:07Z</time>
      </trkpt>
      <trkpt lat="42.4437799584" lon="19.8114484828">
        <ele>2551.96</ele>
        <time>2019-07-06T08:21:20Z</time>
      </trkpt>
      <trkpt lat="42.4437947944" lon="19.8114602175">
        <ele>2550.51</ele>
        <time>2019-07-06T08:21:30Z</time>
      </trkpt>
      <trkpt lat="42.4438000750" lon="19.8114853632">
        <ele>2549.07</ele>
        <time>2019-07-06T08:21:47Z</time>
      </trkpt>
      <trkpt lat="42.4437803775" lon="19.8115108442">
        <ele>2547.15</ele>
        <time>2019-07-06T08:22:02Z</time>
      </trkpt>
      <trkpt lat="42.4437955488" lon="19.8115135264">
        <ele>2546.19</ele>
        <time>2019-07-06T08:22:14Z</time>
      </trkpt>
      <trkpt lat="42.4437932018" lon="19.8115137778">
        <ele>2545.71</ele>
        <time>2019-07-06T08:22:29Z</time>
      </trkpt>
      <trkpt lat="42.4438046012" lon="19.8115411866">
        <ele>2544.27</ele>
        <time>2019-07-06T08:22:47Z</time>
      </trkpt>
      <trkpt lat="42.4438289087" lon="19.8115283623">
        <ele>2543.79</ele>
        <time>2019-07-06T08:23:01Z</time>
      </trkpt>
      <trkpt lat="42.4438389670" lon="19.8115229141">
        <ele>2542.82</ele>
        <time>2019-07-06T08:23:21Z</time>
      </trkpt>
      <trkpt lat="42.4438494444" lon="19.8115167953">
        <ele>2542.34</ele>
        <time>2019-07-06T08:23:38Z</time>
      </trkpt>
      <trkpt lat="42.4438505340" lon="19.8115027137">
        <ele>2542.34</ele>
        <time>2019-07-06T08:23:53Z</time>
      </trkpt>
      <trkpt lat="42.4438518751" lon="19.8115157895">
        <ele>2541.38</ele>
        <time>2019-07-06T08:24:10Z</time>
      </trkpt>
      <trkpt lat="42.4438740034" lon="19.8115119338">
        <ele>2539.94</ele>
        <time>2019-07-06T08:24:22Z</time>
      </trkpt>
      <trkpt lat="42.4438925274" lon="19.8115080781">
        <ele>2539.46</ele>
        <time>2019-07-06T08:24:37Z</time>
      </trkpt>
      <trkpt lat="42.4438884202" lon="19.8115164600">
        <ele>2538.02</ele>
        <time>2019-07-06T08:24:54Z</time>
      </trkpt>
      <trkpt lat="42.4439323414" lon="19.8115162924">
        <ele>2536.58</ele>
        <time>2019-07-06T08:25:10Z</time>
      </trkpt>
      <trkpt lat="42.4439408071" lon="19.8114978522">
        <ele>2535.13</ele>
        <time>2019-07-06T08:25:21Z</time>
      </trkpt>
      <trkpt lat="42.4439232890" lon="19.8114980198">
        <ele>2533.21</ele>
        <time>2019-07-06T08:25:34Z</time>
      </trkpt>
      <trkpt lat="42.4439020827" lon="19.8115318827">
        <ele>2531.77</ele>
        <time>2019-07-06T08:25:47Z</time>
      </trkpt>
      <trkpt lat="42.4437998235" lon="19.8116069846">
        <ele>2530.33</ele>
        <time>2019-07-06T08:25:58Z</time>
      </trkpt>
      <trkpt lat="42.4437794555" lon="19.8116100859">
        <ele>2530.33</ele>
        <time>2019-07-06T08:26:00Z</time>
      </trkpt>
      <trkpt lat="42.4437852390" lon="19.8117050529">
        <ele>2528.40</ele>
        <time>2019-07-06T08:26:13Z</time>
      </trkpt>
      <trkpt lat="42.4437939562" lon="19.8118209746">
        <ele>2526.96</ele>
        <time>2019-07-06T08:26:28Z</time>
      </trkpt>
      <trkpt lat="42.4437974766" lon="19.8118793964">
        <ele>2524.56</ele>
        <time>2019-07-06T08:26:41Z</time>
      </trkpt>
      <trkpt lat="42.4438025057" lon="19.8119209707">
        <ele>2523.60</ele>
        <time>2019-07-06T08:26:56Z</time>
      </trkpt>
      <trkpt lat="42.4438149948" lon="19.8119564261">
        <ele>2521.19</ele>
        <time>2019-07-06T08:27:09Z</time>
      </trkpt>
      <trkpt lat="42.4438393861" lon="19.8120116629">
        <ele>2518.79</ele>
        <time>2019-07-06T08:27:22Z</time>
      </trkpt>
      <trkpt lat="42.4438723270" lon="19.8120636307">
        <ele>2515.91</ele>
        <time>2019-07-06T08:27:35Z</time>
      </trkpt>
      <trkpt lat="42.4438670464" lon="19.8121192865">
        <ele>2513.02</ele>
        <time>2019-07-06T08:27:46Z</time>
      </trkpt>
      <trkpt lat="42.4438901804" lon="19.8121675663">
        <ele>2511.10</ele>
        <time>2019-07-06T08:27:59Z</time>
      </trkpt>
      <trkpt lat="42.4438707344" lon="19.8121984955">
        <ele>2510.14</ele>
        <time>2019-07-06T08:28:20Z</time>
      </trkpt>
      <trkpt lat="42.4438590836" lon="19.8122176901">
        <ele>2508.22</ele>
        <time>2019-07-06T08:28:36Z</time>
      </trkpt>
      <trkpt lat="42.4439006578" lon="19.8122513015">
        <ele>2506.29</ele>
        <time>2019-07-06T08:28:49Z</time>
      </trkpt>
      <trkpt lat="42.4439211097" lon="19.8123051971">
        <ele>2502.93</ele>
        <time>2019-07-06T08:29:00Z</time>
      </trkpt>
      <trkpt lat="42.4439895898" lon="19.8123634513">
        <ele>2500.53</ele>
        <time>2019-07-06T08:29:12Z</time>
      </trkpt>
      <trkpt lat="42.4439916015" lon="19.8123806342">
        <ele>2498.60</ele>
        <time>2019-07-06T08:29:17Z</time>
      </trkpt>
      <trkpt lat="42.4440542143" lon="19.8123742640">
        <ele>2496.68</ele>
        <time>2019-07-06T08:29:30Z</time>
      </trkpt>
      <trkpt lat="42.4440848920" lon="19.8123863339">
        <ele>2495.72</ele>
        <time>2019-07-06T08:29:48Z</time>
      </trkpt>
      <trkpt lat="42.4440744147" lon="19.8123847414">
        <ele>2495.72</ele>
        <time>2019-07-06T08:30:10Z</time>
      </trkpt>
      <trkpt lat="42.4440869875" lon="19.8124362901">
        <ele>2495.72</ele>
        <time>2019-07-06T08:30:31Z</time>
      </trkpt>
      <trkpt lat="42.4440730736" lon="19.8124170117">
        <ele>2495.72</ele>
        <time>2019-07-06T08:30:41Z</time>
      </trkpt>
      <trkpt lat="42.4441228621" lon="19.8124431632">
        <ele>2494.76</ele>
        <time>2019-07-06T08:30:54Z</time>
      </trkpt>
      <trkpt lat="42.4441008177" lon="19.8124188557">
        <ele>2494.76</ele>
        <time>2019-07-06T08:31:14Z</time>
      </trkpt>
      <trkpt lat="42.4441335909" lon="19.8124299198">
        <ele>2493.80</ele>
        <time>2019-07-06T08:31:35Z</time>
      </trkpt>
      <trkpt lat="42.4440864008" lon="19.8124217056">
        <ele>2493.80</ele>
        <time>2019-07-06T08:32:03Z</time>
      </trkpt>
      <trkpt lat="42.4441363569" lon="19.8124139104">
        <ele>2493.80</ele>
        <time>2019-07-06T08:32:30Z</time>
      </trkpt>
      <trkpt lat="42.4440946151" lon="19.8124003317">
        <ele>2493.80</ele>
        <time>2019-07-06T08:32:55Z</time>
      </trkpt>
      <trkpt lat="42.4441297352" lon="19.8124190234">
        <ele>2493.80</ele>
        <time>2019-07-06T08:33:19Z</time>
      </trkpt>
      <trkpt lat="42.4441372789" lon="19.8124077078">
        <ele>2493.80</ele>
        <time>2019-07-06T08:33:39Z</time>
      </trkpt>
      <trkpt lat="42.4441264663" lon="19.8124330211">
        <ele>2493.80</ele>
        <time>2019-07-06T08:33:58Z</time>
      </trkpt>
      <trkpt lat="42.4441562220" lon="19.8124283273">
        <ele>2492.36</ele>
        <time>2019-07-06T08:34:08Z</time>
      </trkpt>
      <trkpt lat="42.4442246184" lon="19.8123782035">
        <ele>2488.99</ele>
        <time>2019-07-06T08:34:22Z</time>
      </trkpt>
      <trkpt lat="42.4442428909" lon="19.8123002518">
        <ele>2487.55</ele>
        <time>2019-07-06T08:34:35Z</time>
      </trkpt>
      <trkpt lat="42.4442833755" lon="19.8123023473">
        <ele>2484.66</ele>
        <time>2019-07-06T08:34:47Z</time>
      </trkpt>
      <trkpt lat="42.4442993850" lon="19.8123569135">
        <ele>2481.78</ele>
        <time>2019-07-06T08:35:01Z</time>
      </trkpt>
      <trkpt lat="42.4443531968" lon="19.8123229668">
        <ele>2479.86</ele>
        <time>2019-07-06T08:35:13Z</time>
      </trkpt>
      <trkpt lat="42.4443588965" lon="19.8123172671">
        <ele>2476.97</ele>
        <time>2019-07-06T08:35:26Z</time>
      </trkpt>
      <trkpt lat="42.4444095232" lon="19.8123019282">
        <ele>2474.09</ele>
        <time>2019-07-06T08:35:38Z</time>
      </trkpt>
      <trkpt lat="42.4444638379" lon="19.8122934625">
        <ele>2471.21</ele>
        <time>2019-07-06T08:35:51Z</time>
      </trkpt>
      <trkpt lat="42.4444811884" lon="19.8122836556">
        <ele>2470.24</ele>
        <time>2019-07-06T08:35:55Z</time>
      </trkpt>
      <trkpt lat="42.4445563741" lon="19.8122352920">
        <ele>2466.40</ele>
        <time>2019-07-06T08:36:08Z</time>
      </trkpt>
      <trkpt lat="42.4445757363" lon="19.8121837433">
        <ele>2465.44</ele>
        <time>2019-07-06T08:36:20Z</time>
      </trkpt>
      <trkpt lat="42.4445989542" lon="19.8122093920">
        <ele>2462.07</ele>
        <time>2019-07-06T08:36:31Z</time>
      </trkpt>
      <trkpt lat="42.4446506705" lon="19.8122368008">
        <ele>2460.15</ele>
        <time>2019-07-06T08:36:44Z</time>
      </trkpt>
      <trkpt lat="42.4446547776" lon="19.8121700808">
        <ele>2458.71</ele>
        <time>2019-07-06T08:37:00Z</time>
      </trkpt>
      <trkpt lat="42.4446536880" lon="19.8121718410">
        <ele>2456.79</ele>
        <time>2019-07-06T08:37:14Z</time>
      </trkpt>
      <trkpt lat="42.4446631595" lon="19.8121693265">
        <ele>2455.34</ele>
        <time>2019-07-06T08:37:29Z</time>
      </trkpt>
      <trkpt lat="42.4446847010" lon="19.8121903650">
        <ele>2454.86</ele>
        <time>2019-07-06T08:37:44Z</time>
      </trkpt>
      <trkpt lat="42.4447142053" lon="19.8121775407">
        <ele>2452.94</ele>
        <time>2019-07-06T08:37:57Z</time>
      </trkpt>
      <trkpt lat="42.4447384290" lon="19.8121901136">
        <ele>2449.58</ele>
        <time>2019-07-06T08:38:09Z</time>
      </trkpt>
      <trkpt lat="42.4447450507" lon="19.8122191150">
        <ele>2446.69</ele>
        <time>2019-07-06T08:38:16Z</time>
      </trkpt>
      <trkpt lat="42.4447959289" lon="19.8122716695">
        <ele>2442.85</ele>
        <time>2019-07-06T08:38:28Z</time>
      </trkpt>
      <trkpt lat="42.4448511656" lon="19.8122847453">
        <ele>2439.48</ele>
        <time>2019-07-06T08:38:39Z</time>
      </trkpt>
      <trkpt lat="42.4449084140" lon="19.8122929595">
        <ele>2436.60</ele>
        <time>2019-07-06T08:38:51Z</time>
      </trkpt>
      <trkpt lat="42.4449483957" lon="19.8122790456">
        <ele>2433.71</ele>
        <time>2019-07-06T08:39:03Z</time>
      </trkpt>
      <trkpt lat="42.4449787382" lon="19.8122270778">
        <ele>2430.83</ele>
        <time>2019-07-06T08:39:15Z</time>
      </trkpt>
      <trkpt lat="42.4449865334" lon="19.8121802229">
        <ele>2429.87</ele>
        <time>2019-07-06T08:39:33Z</time>
      </trkpt>
      <trkpt lat="42.4450037163" lon="19.8121648841">
        <ele>2427.47</ele>
        <time>2019-07-06T08:39:50Z</time>
      </trkpt>
      <trkpt lat="42.4450358190" lon="19.8121704161">
        <ele>2426.02</ele>
        <time>2019-07-06T08:40:02Z</time>
      </trkpt>
      <trkpt lat="42.4450732023" lon="19.8121473659">
        <ele>2423.62</ele>
        <time>2019-07-06T08:40:18Z</time>
      </trkpt>
      <trkpt lat="42.4450835958" lon="19.8121388163">
        <ele>2421.70</ele>
        <time>2019-07-06T08:40:34Z</time>
      </trkpt>
      <trkpt lat="42.4451072328" lon="19.8121213820">
        <ele>2418.81</ele>
        <time>2019-07-06T08:40:47Z</time>
      </trkpt>
      <trkpt lat="42.4451353122" lon="19.8120714258">
        <ele>2416.41</ele>
        <time>2019-07-06T08:40:59Z</time>
      </trkpt>
      <trkpt lat="42.4451724440" lon="19.8120903689">
        <ele>2413.53</ele>
        <time>2019-07-06T08:41:16Z</time>
      </trkpt>
      <trkpt lat="42.4451491423" lon="19.8121195380">
        <ele>2412.57</ele>
        <time>2019-07-06T08:41:28Z</time>
      </trkpt>
      <trkpt lat="42.4452038761" lon="19.8121316079">
        <ele>2410.64</ele>
        <time>2019-07-06T08:41:34Z</time>
      </trkpt>
      <trkpt lat="42.4452822469" lon="19.8121161852">
        <ele>2407.76</ele>
        <time>2019-07-06T08:41:47Z</time>
      </trkpt>
      <trkpt lat="42.4453214742" lon="19.8120553326">
        <ele>2404.88</ele>
        <time>2019-07-06T08:41:59Z</time>
      </trkpt>
      <trkpt lat="42.4453728553" lon="19.8120196257">
        <ele>2401.99</ele>
        <time>2019-07-06T08:42:11Z</time>
      </trkpt>
      <trkpt lat="42.4453917146" lon="19.8120241519">
        <ele>2401.51</ele>
        <time>2019-07-06T08:42:15Z</time>
      </trkpt>
      <trkpt lat="42.4454404134" lon="19.8120153509">
        <ele>2399.11</ele>
        <time>2019-07-06T08:42:23Z</time>
      </trkpt>
      <trkpt lat="42.4453678261" lon="19.8121228069">
        <ele>2396.22</ele>
        <time>2019-07-06T08:42:33Z</time>
      </trkpt>
      <trkpt lat="42.4453545827" lon="19.8121698294">
        <ele>2394.78</ele>
        <time>2019-07-06T08:42:36Z</time>
      </trkpt>
      <trkpt lat="42.4453369807" lon="19.8122366332">
        <ele>2392.38</ele>
        <time>2019-07-06T08:42:40Z</time>
      </trkpt>
      <trkpt lat="42.4453399982" lon="19.8122632038">
        <ele>2390.94</ele>
        <time>2019-07-06T08:42:41Z</time>
      </trkpt>
      <trkpt lat="42.4453411717" lon="19.8122870084">
        <ele>2389.97</ele>
        <time>2019-07-06T08:42:42Z</time>
      </trkpt>
      <trkpt lat="42.4453344662" lon="19.8123257328">
        <ele>2388.05</ele>
        <time>2019-07-06T08:42:44Z</time>
      </trkpt>
      <trkpt lat="42.4453363102" lon="19.8123807181">
        <ele>2385.65</ele>
        <time>2019-07-06T08:42:46Z</time>
      </trkpt>
      <trkpt lat="42.4453367293" lon="19.8124248907">
        <ele>2383.73</ele>
        <time>2019-07-06T08:42:48Z</time>
      </trkpt>
      <trkpt lat="42.4454306904" lon="19.8124915268">
        <ele>2383.25</ele>
        <time>2019-07-06T08:42:59Z</time>
      </trkpt>
      <trkpt lat="42.4454301875" lon="19.8125568219">
        <ele>2383.25</ele>
        <time>2019-07-06T08:43:11Z</time>
      </trkpt>
      <trkpt lat="42.4454442691" lon="19.8125517927">
        <ele>2383.25</ele>
        <time>2019-07-06T08:43:13Z</time>
      </trkpt>
      <trkpt lat="42.4456129968" lon="19.8125869129">
        <ele>2381.32</ele>
        <time>2019-07-06T08:43:28Z</time>
      </trkpt>
      <trkpt lat="42.4456756935" lon="19.8126563150">
        <ele>2377.96</ele>
        <time>2019-07-06T08:43:43Z</time>
      </trkpt>
      <trkpt lat="42.4456833210" lon="19.8126589134">
        <ele>2377.96</ele>
        <time>2019-07-06T08:43:44Z</time>
      </trkpt>
      <trkpt lat="42.4457088020" lon="19.8126766831">
        <ele>2376.52</ele>
        <time>2019-07-06T08:43:48Z</time>
      </trkpt>
      <trkpt lat="42.4457350373" lon="19.8127007391">
        <ele>2375.55</ele>
        <time>2019-07-06T08:43:52Z</time>
      </trkpt>
      <trkpt lat="42.4457909446" lon="19.8127477616">
        <ele>2372.67</ele>
        <time>2019-07-06T08:44:02Z</time>
      </trkpt>
      <trkpt lat="42.4457972310" lon="19.8127559759">
        <ele>2372.19</ele>
        <time>2019-07-06T08:44:03Z</time>
      </trkpt>
      <trkpt lat="42.4459064472" lon="19.8128368612">
        <ele>2371.23</ele>
        <time>2019-07-06T08:44:17Z</time>
      </trkpt>
      <trkpt lat="42.4459596723" lon="19.8128126375">
        <ele>2371.23</ele>
        <time>2019-07-06T08:44:23Z</time>
      </trkpt>
      <trkpt lat="42.4460334331" lon="19.8127886653">
        <ele>2370.27</ele>
        <time>2019-07-06T08:44:30Z</time>
      </trkpt>
      <trkpt lat="42.4460784439" lon="19.8127335962">
        <ele>2368.35</ele>
        <time>2019-07-06T08:44:44Z</time>
      </trkpt>
      <trkpt lat="42.4461155757" lon="19.8127049301">
        <ele>2365.94</ele>
        <time>2019-07-06T08:44:56Z</time>
      </trkpt>
      <trkpt lat="42.4461373687" lon="19.8126934469">
        <ele>2364.98</ele>
        <time>2019-07-06T08:45:02Z</time>
      </trkpt>
      <trkpt lat="42.4461755063" lon="19.8127194308">
        <ele>2363.06</ele>
        <time>2019-07-06T08:45:14Z</time>
      </trkpt>
      <trkpt lat="42.4462156557" lon="19.8127386253">
        <ele>2360.65</ele>
        <time>2019-07-06T08:45:29Z</time>
      </trkpt>
      <trkpt lat="42.4462144822" lon="19.8127513658">
        <ele>2358.73</ele>
        <time>2019-07-06T08:45:38Z</time>
      </trkpt>
      <trkpt lat="42.4462567270" lon="19.8127584904">
        <ele>2356.81</ele>
        <time>2019-07-06T08:45:48Z</time>
      </trkpt>
      <trkpt lat="42.4462852255" lon="19.8127622623">
        <ele>2353.93</ele>
        <time>2019-07-06T08:45:57Z</time>
      </trkpt>
      <trkpt lat="42.4463186692" lon="19.8127589095">
        <ele>2352.00</ele>
        <time>2019-07-06T08:46:09Z</time>
      </trkpt>
      <trkpt lat="42.4463207647" lon="19.8127898388">
        <ele>2350.56</ele>
        <time>2019-07-06T08:46:20Z</time>
      </trkpt>
      <trkpt lat="42.4463485926" lon="19.8127058521">
        <ele>2348.64</ele>
        <time>2019-07-06T08:46:31Z</time>
      </trkpt>
      <trkpt lat="42.4463755824" lon="19.8127077799">
        <ele>2346.72</ele>
        <time>2019-07-06T08:46:45Z</time>
      </trkpt>
      <trkpt lat="42.4464235269" lon="19.8127024993">
        <ele>2343.83</ele>
        <time>2019-07-06T08:46:59Z</time>
      </trkpt>
      <trkpt lat="42.4464318249" lon="19.8127195146">
        <ele>2341.91</ele>
        <time>2019-07-06T08:47:08Z</time>
      </trkpt>
      <trkpt lat="42.4464542046" lon="19.8127372004">
        <ele>2340.47</ele>
        <time>2019-07-06T08:47:12Z</time>
      </trkpt>
      <trkpt lat="42.4465277139" lon="19.8128221929">
        <ele>2338.06</ele>
        <time>2019-07-06T08:47:25Z</time>
      </trkpt>
      <trkpt lat="42.4465910811" lon="19.8128728196">
        <ele>2335.66</ele>
        <time>2019-07-06T08:47:37Z</time>
      </trkpt>
      <trkpt lat="42.4465863872" lon="19.8128479254">
        <ele>2335.66</ele>
        <time>2019-07-06T08:47:48Z</time>
      </trkpt>
      <trkpt lat="42.4465685338" lon="19.8128522001">
        <ele>2335.18</ele>
        <time>2019-07-06T08:47:50Z</time>
      </trkpt>
      <trkpt lat="42.4465650134" lon="19.8129133042">
        <ele>2333.74</ele>
        <time>2019-07-06T08:48:00Z</time>
      </trkpt>
      <trkpt lat="42.4465515185" lon="19.8129508551">
        <ele>2335.18</ele>
        <time>2019-07-06T08:48:04Z</time>
      </trkpt>
      <trkpt lat="42.4465480819" lon="19.8129636794">
        <ele>2335.18</ele>
        <time>2019-07-06T08:48:05Z</time>
      </trkpt>
      <trkpt lat="42.4464920070" lon="19.8130372725">
        <ele>2333.74</ele>
        <time>2019-07-06T08:48:12Z</time>
      </trkpt>
      <trkpt lat="42.4464971200" lon="19.8130718898">
        <ele>2333.26</ele>
        <time>2019-07-06T08:48:16Z</time>
      </trkpt>
      <trkpt lat="42.4465143867" lon="19.8131664377">
        <ele>2330.37</ele>
        <time>2019-07-06T08:48:28Z</time>
      </trkpt>
      <trkpt lat="42.4465487525" lon="19.8132197466">
        <ele>2327.49</ele>
        <time>2019-07-06T08:48:38Z</time>
      </trkpt>
      <trkpt lat="42.4465482496" lon="19.8133013025">
        <ele>2324.12</ele>
        <time>2019-07-06T08:48:48Z</time>
      </trkpt>
      <trkpt lat="42.4465959426" lon="19.8133469839">
        <ele>2321.24</ele>
        <time>2019-07-06T08:49:01Z</time>
      </trkpt>
      <trkpt lat="42.4466217589" lon="19.8133841157">
        <ele>2319.32</ele>
        <time>2019-07-06T08:49:07Z</time>
      </trkpt>
      <trkpt lat="42.4467060808" lon="19.8133724649">
        <ele>2315.47</ele>
        <time>2019-07-06T08:49:20Z</time>
      </trkpt>
      <trkpt lat="42.4467235990" lon="19.8133537732">
        <ele>2315.47</ele>
        <time>2019-07-06T08:49:22Z</time>
      </trkpt>
      <trkpt lat="42.4467841163" lon="19.8133327346">
        <ele>2313.55</ele>
        <time>2019-07-06T08:49:27Z</time>
      </trkpt>
      <trkpt lat="42.4468137883" lon="19.8133165576">
        <ele>2313.07</ele>
        <time>2019-07-06T08:49:30Z</time>
      </trkpt>
      <trkpt lat="42.4468992837" lon="19.8133059964">
        <ele>2311.15</ele>
        <time>2019-07-06T08:49:40Z</time>
      </trkpt>
      <trkpt lat="42.4469470605" lon="19.8132921662">
        <ele>2309.22</ele>
        <time>2019-07-06T08:49:52Z</time>
      </trkpt>
      <trkpt lat="42.4469703622" lon="19.8132990394">
        <ele>2307.30</ele>
        <time>2019-07-06T08:50:00Z</time>
      </trkpt>
      <trkpt lat="42.4470119365" lon="19.8131955229">
        <ele>2304.90</ele>
        <time>2019-07-06T08:50:14Z</time>
      </trkpt>
      <trkpt lat="42.4470296223" lon="19.8131032381">
        <ele>2301.53</ele>
        <time>2019-07-06T08:50:26Z</time>
      </trkpt>
      <trkpt lat="42.4470341485" lon="19.8130324949">
        <ele>2300.09</ele>
        <time>2019-07-06T08:50:43Z</time>
      </trkpt>
      <trkpt lat="42.4470618088" lon="19.8129702173">
        <ele>2298.65</ele>
        <time>2019-07-06T08:50:48Z</time>
      </trkpt>
      <trkpt lat="42.4470868707" lon="19.8128999770">
        <ele>2295.77</ele>
        <time>2019-07-06T08:50:54Z</time>
      </trkpt>
      <trkpt lat="42.4470955040" lon="19.8128595762">
        <ele>2294.32</ele>
        <time>2019-07-06T08:50:57Z</time>
      </trkpt>
      <trkpt lat="42.4471113458" lon="19.8127926886">
        <ele>2291.44</ele>
        <time>2019-07-06T08:51:02Z</time>
      </trkpt>
      <trkpt lat="42.4471338931" lon="19.8126881663">
        <ele>2288.08</ele>
        <time>2019-07-06T08:51:11Z</time>
      </trkpt>
      <trkpt lat="42.4471587874" lon="19.8125978932">
        <ele>2284.71</ele>
        <time>2019-07-06T08:51:16Z</time>
      </trkpt>
      <trkpt lat="42.4471605476" lon="19.8125771061">
        <ele>2283.75</ele>
        <time>2019-07-06T08:51:18Z</time>
      </trkpt>
      <trkpt lat="42.4471877050" lon="19.8124315124">
        <ele>2280.38</ele>
        <time>2019-07-06T08:51:28Z</time>
      </trkpt>
      <trkpt lat="42.4471825920" lon="19.8124164250">
        <ele>2280.38</ele>
        <time>2019-07-06T08:51:35Z</time>
      </trkpt>
      <trkpt lat="42.4471928179" lon="19.8124078754">
        <ele>2279.42</ele>
        <time>2019-07-06T08:51:37Z</time>
      </trkpt>
      <trkpt lat="42.4472302850" lon="19.8123725876">
        <ele>2276.06</ele>
        <time>2019-07-06T08:51:42Z</time>
      </trkpt>
      <trkpt lat="42.4472367391" lon="19.8123619426">
        <ele>2275.58</ele>
        <time>2019-07-06T08:51:43Z</time>
      </trkpt>
      <trkpt lat="42.4472791515" lon="19.8123202007">
        <ele>2271.73</ele>
        <time>2019-07-06T08:51:48Z</time>
      </trkpt>
      <trkpt lat="42.4473048002" lon="19.8122895230">
        <ele>2268.37</ele>
        <time>2019-07-06T08:51:54Z</time>
      </trkpt>
      <trkpt lat="42.4473036267" lon="19.8122530617">
        <ele>2265.96</ele>
        <time>2019-07-06T08:51:58Z</time>
      </trkpt>
      <trkpt lat="42.4473259225" lon="19.8121812288">
        <ele>2262.60</ele>
        <time>2019-07-06T08:52:04Z</time>
      </trkpt>
      <trkpt lat="42.4474024493" lon="19.8121574242">
        <ele>2259.24</ele>
        <time>2019-07-06T08:52:11Z</time>
      </trkpt>
      <trkpt lat="42.4474454485" lon="19.8121410795">
        <ele>2258.27</ele>
        <time>2019-07-06T08:52:13Z</time>
      </trkpt>
      <trkpt lat="42.4475262500" lon="19.8120523151">
        <ele>2254.91</ele>
        <time>2019-07-06T08:52:19Z</time>
      </trkpt>
      <trkpt lat="42.4476187024" lon="19.8119959887">
        <ele>2251.54</ele>
        <time>2019-07-06T08:52:24Z</time>
      </trkpt>
      <trkpt lat="42.4477154296" lon="19.8119337950">
        <ele>2248.66</ele>
        <time>2019-07-06T08:52:31Z</time>
      </trkpt>
      <trkpt lat="42.4478747696" lon="19.8118283506">
        <ele>2244.82</ele>
        <time>2019-07-06T08:52:39Z</time>
      </trkpt>
      <trkpt lat="42.4480810482" lon="19.8117597029">
        <ele>2240.97</ele>
        <time>2019-07-06T08:52:49Z</time>
      </trkpt>
      <trkpt lat="42.4482061062" lon="19.8116550967">
        <ele>2239.05</ele>
        <time>2019-07-06T08:53:00Z</time>
      </trkpt>
      <trkpt lat="42.4483799469" lon="19.8115868680">
        <ele>2235.68</ele>
        <time>2019-07-06T08:53:07Z</time>
      </trkpt>
      <trkpt lat="42.4485007301" lon="19.8115329724">
        <ele>2231.84</ele>
        <time>2019-07-06T08:53:11Z</time>
      </trkpt>
      <trkpt lat="42.4486271292" lon="19.8114768136">
        <ele>2228.47</ele>
        <time>2019-07-06T08:53:17Z</time>
      </trkpt>
      <trkpt lat="42.4486767501" lon="19.8114326410">
        <ele>2226.07</ele>
        <time>2019-07-06T08:53:21Z</time>
      </trkpt>
      <trkpt lat="42.4486909155" lon="19.8114135303">
        <ele>2225.11</ele>
        <time>2019-07-06T08:53:22Z</time>
      </trkpt>
      <trkpt lat="42.4487994611" lon="19.8113434575">
        <ele>2221.26</ele>
        <time>2019-07-06T08:53:27Z</time>
      </trkpt>
      <trkpt lat="42.4488184880" lon="19.8113335669">
        <ele>2220.78</ele>
        <time>2019-07-06T08:53:28Z</time>
      </trkpt>
      <trkpt lat="42.4488570448" lon="19.8112896457">
        <ele>2218.86</ele>
        <time>2019-07-06T08:53:31Z</time>
      </trkpt>
      <trkpt lat="42.4489730503" lon="19.8111968581">
        <ele>2215.50</ele>
        <time>2019-07-06T08:53:38Z</time>
      </trkpt>
      <trkpt lat="42.4490669277" lon="19.8111272044">
        <ele>2213.57</ele>
        <time>2019-07-06T08:53:43Z</time>
      </trkpt>
      <trkpt lat="42.4491556920" lon="19.8110259511">
        <ele>2210.69</ele>
        <time>2019-07-06T08:53:48Z</time>
      </trkpt>
      <trkpt lat="42.4492101744" lon="19.8109893221">
        <ele>2209.25</ele>
        <time>2019-07-06T08:53:50Z</time>
      </trkpt>
      <trkpt lat="42.4492740445" lon="19.8108755797">
        <ele>2206.36</ele>
        <time>2019-07-06T08:53:56Z</time>
      </trkpt>
      <trkpt lat="42.4492821749" lon="19.8106672894">
        <ele>2203.00</ele>
        <time>2019-07-06T08:54:02Z</time>
      </trkpt>
      <trkpt lat="42.4493165407" lon="19.8105833866">
        <ele>2202.04</ele>
        <time>2019-07-06T08:54:05Z</time>
      </trkpt>
      <trkpt lat="42.4493639823" lon="19.8104982264">
        <ele>2201.56</ele>
        <time>2019-07-06T08:54:12Z</time>
      </trkpt>
      <trkpt lat="42.4493741244" lon="19.8104342725">
        <ele>2201.56</ele>
        <time>2019-07-06T08:54:16Z</time>
      </trkpt>
      <trkpt lat="42.4493971746" lon="19.8103828076">
        <ele>2200.59</ele>
        <time>2019-07-06T08:54:19Z</time>
      </trkpt>
      <trkpt lat="42.4493833445" lon="19.8102309275">
        <ele>2199.15</ele>
        <time>2019-07-06T08:54:27Z</time>
      </trkpt>
      <trkpt lat="42.4493690114" lon="19.8101439234">
        <ele>2198.67</ele>
        <time>2019-07-06T08:54:31Z</time>
      </trkpt>
      <trkpt lat="42.4493717775" lon="19.8100989126">
        <ele>2197.23</ele>
        <time>2019-07-06T08:54:34Z</time>
      </trkpt>
      <trkpt lat="42.4492795765" lon="19.8099406622">
        <ele>2195.31</ele>
        <time>2019-07-06T08:54:45Z</time>
      </trkpt>
      <trkpt lat="42.4492716976" lon="19.8099221382">
        <ele>2194.35</ele>
        <time>2019-07-06T08:54:51Z</time>
      </trkpt>
      <trkpt lat="42.4492145330" lon="19.8098318651">
        <ele>2192.42</ele>
        <time>2019-07-06T08:54:55Z</time>
      </trkpt>
      <trkpt lat="42.4491754733" lon="19.8095852695">
        <ele>2189.54</ele>
        <time>2019-07-06T08:55:03Z</time>
      </trkpt>
      <trkpt lat="42.4491395988" lon="19.8094955832">
        <ele>2188.58</ele>
        <time>2019-07-06T08:55:07Z</time>
      </trkpt>
      <trkpt lat="42.4491385929" lon="19.8094228283">
        <ele>2188.10</ele>
        <time>2019-07-06T08:55:11Z</time>
      </trkpt>
      <trkpt lat="42.4491789937" lon="19.8093100917">
        <ele>2186.18</ele>
        <time>2019-07-06T08:55:18Z</time>
      </trkpt>
      <trkpt lat="42.4492261000" lon="19.8092264403">
        <ele>2184.73</ele>
        <time>2019-07-06T08:55:22Z</time>
      </trkpt>
      <trkpt lat="42.4492989387" lon="19.8091116082">
        <ele>2181.37</ele>
        <time>2019-07-06T08:55:27Z</time>
      </trkpt>
      <trkpt lat="42.4494215660" lon="19.8090313934">
        <ele>2178.97</ele>
        <time>2019-07-06T08:55:32Z</time>
      </trkpt>
      <trkpt lat="42.4494610447" lon="19.8089025635">
        <ele>2176.56</ele>
        <time>2019-07-06T08:55:37Z</time>
      </trkpt>
      <trkpt lat="42.4495370686" lon="19.8087271303">
        <ele>2173.20</ele>
        <time>2019-07-06T08:55:44Z</time>
      </trkpt>
      <trkpt lat="42.4495933112" lon="19.8086589854">
        <ele>2172.24</ele>
        <time>2019-07-06T08:55:48Z</time>
      </trkpt>
      <trkpt lat="42.4496516492" lon="19.8085638508">
        <ele>2170.79</ele>
        <time>2019-07-06T08:55:54Z</time>
      </trkpt>
      <trkpt lat="42.4496483803" lon="19.8085114639">
        <ele>2170.79</ele>
        <time>2019-07-06T08:55:57Z</time>
      </trkpt>
      <trkpt lat="42.4495695904" lon="19.8083398025">
        <ele>2169.83</ele>
        <time>2019-07-06T08:56:09Z</time>
      </trkpt>
      <trkpt lat="42.4495568499" lon="19.8082438298">
        <ele>2170.31</ele>
        <time>2019-07-06T08:56:20Z</time>
      </trkpt>
      <trkpt lat="42.4495814089" lon="19.8082211148">
        <ele>2170.31</ele>
        <time>2019-07-06T08:56:23Z</time>
      </trkpt>
      <trkpt lat="42.4495529104" lon="19.8081429955">
        <ele>2170.79</ele>
        <time>2019-07-06T08:56:31Z</time>
      </trkpt>
      <trkpt lat="42.4495368171" lon="19.8080197815">
        <ele>2171.27</ele>
        <time>2019-07-06T08:56:42Z</time>
      </trkpt>
      <trkpt lat="42.4495465402" lon="19.8079763632">
        <ele>2169.83</ele>
        <time>2019-07-06T08:56:47Z</time>
      </trkpt>
      <trkpt lat="42.4495400023" lon="19.8079554923">
        <ele>2169.83</ele>
        <time>2019-07-06T08:56:49Z</time>
      </trkpt>
      <trkpt lat="42.4495013617" lon="19.8078642134">
        <ele>2167.91</ele>
        <time>2019-07-06T08:57:00Z</time>
      </trkpt>
      <trkpt lat="42.4494868610" lon="19.8078432586">
        <ele>2167.43</ele>
        <time>2019-07-06T08:57:01Z</time>
      </trkpt>
      <trkpt lat="42.4493872002" lon="19.8076773807">
        <ele>2165.99</ele>
        <time>2019-07-06T08:57:14Z</time>
      </trkpt>
      <trkpt lat="42.4493410159" lon="19.8075783905">
        <ele>2166.47</ele>
        <time>2019-07-06T08:57:25Z</time>
      </trkpt>
      <trkpt lat="42.4493298680" lon="19.8075312003">
        <ele>2165.51</ele>
        <time>2019-07-06T08:57:32Z</time>
      </trkpt>
      <trkpt lat="42.4492894672" lon="19.8074755445">
        <ele>2164.55</ele>
        <time>2019-07-06T08:57:39Z</time>
      </trkpt>
      <trkpt lat="42.4492892995" lon="19.8073655739">
        <ele>2164.06</ele>
        <time>2019-07-06T08:57:46Z</time>
      </trkpt>
      <trkpt lat="42.4492961727" lon="19.8072941601">
        <ele>2163.58</ele>
        <time>2019-07-06T08:57:50Z</time>
      </trkpt>
      <trkpt lat="42.4493178818" lon="19.8071835190">
        <ele>2162.14</ele>
        <time>2019-07-06T08:57:58Z</time>
      </trkpt>
      <trkpt lat="42.4493303709" lon="19.8071160447">
        <ele>2161.66</ele>
        <time>2019-07-06T08:58:03Z</time>
      </trkpt>
      <trkpt lat="42.4493233301" lon="19.8069991171">
        <ele>2161.18</ele>
        <time>2019-07-06T08:58:15Z</time>
      </trkpt>
      <trkpt lat="42.4492853601" lon="19.8068063334">
        <ele>2160.70</ele>
        <time>2019-07-06T08:58:28Z</time>
      </trkpt>
      <trkpt lat="42.4492105097" lon="19.8065832071">
        <ele>2160.70</ele>
        <time>2019-07-06T08:58:41Z</time>
      </trkpt>
      <trkpt lat="42.4492323026" lon="19.8064333387">
        <ele>2160.70</ele>
        <time>2019-07-06T08:58:53Z</time>
      </trkpt>
      <trkpt lat="42.4492547661" lon="19.8063216917">
        <ele>2162.14</ele>
        <time>2019-07-06T08:59:02Z</time>
      </trkpt>
      <trkpt lat="42.4492557719" lon="19.8062742501">
        <ele>2162.14</ele>
        <time>2019-07-06T08:59:06Z</time>
      </trkpt>
      <trkpt lat="42.4492737930" lon="19.8062617611">
        <ele>2162.62</ele>
        <time>2019-07-06T08:59:08Z</time>
      </trkpt>
      <trkpt lat="42.4493281078" lon="19.8061854020">
        <ele>2162.62</ele>
        <time>2019-07-06T08:59:16Z</time>
      </trkpt>
      <trkpt lat="42.4493658263" lon="19.8060056940">
        <ele>2162.62</ele>
        <time>2019-07-06T08:59:28Z</time>
      </trkpt>
      <trkpt lat="42.4494004436" lon="19.8059497867">
        <ele>2162.62</ele>
        <time>2019-07-06T08:59:32Z</time>
      </trkpt>
      <trkpt lat="42.4494190514" lon="19.8058471922">
        <ele>2161.18</ele>
        <time>2019-07-06T08:59:40Z</time>
      </trkpt>
      <trkpt lat="42.4493590370" lon="19.8057785444">
        <ele>2160.22</ele>
        <time>2019-07-06T08:59:49Z</time>
      </trkpt>
      <trkpt lat="42.4493331369" lon="19.8057260737">
        <ele>2158.78</ele>
        <time>2019-07-06T08:59:53Z</time>
      </trkpt>
      <trkpt lat="42.4493226595" lon="19.8056905344">
        <ele>2158.30</ele>
        <time>2019-07-06T08:59:57Z</time>
      </trkpt>
      <trkpt lat="42.4492802471" lon="19.8056415841">
        <ele>2158.30</ele>
        <time>2019-07-06T09:00:04Z</time>
      </trkpt>
      <trkpt lat="42.4492628966" lon="19.8055799771">
        <ele>2157.34</ele>
        <time>2019-07-06T09:00:09Z</time>
      </trkpt>
      <trkpt lat="42.4492356554" lon="19.8055402469">
        <ele>2157.34</ele>
        <time>2019-07-06T09:00:12Z</time>
      </trkpt>
      <trkpt lat="42.4492456298" lon="19.8055175319">
        <ele>2157.34</ele>
        <time>2019-07-06T09:00:14Z</time>
      </trkpt>
      <trkpt lat="42.4492320511" lon="19.8053622991">
        <ele>2155.41</ele>
        <time>2019-07-06T09:00:27Z</time>
      </trkpt>
      <trkpt lat="42.4492426962" lon="19.8053435236">
        <ele>2154.93</ele>
        <time>2019-07-06T09:00:31Z</time>
      </trkpt>
      <trkpt lat="42.4492452107" lon="19.8052492272">
        <ele>2154.45</ele>
        <time>2019-07-06T09:00:36Z</time>
      </trkpt>
      <trkpt lat="42.4492471386" lon="19.8052189685">
        <ele>2153.97</ele>
        <time>2019-07-06T09:00:38Z</time>
      </trkpt>
      <trkpt lat="42.4492556881" lon="19.8051822558">
        <ele>2153.97</ele>
        <time>2019-07-06T09:00:42Z</time>
      </trkpt>
      <trkpt lat="42.4492778163" lon="19.8050975148">
        <ele>2153.97</ele>
        <time>2019-07-06T09:00:48Z</time>
      </trkpt>
      <trkpt lat="42.4493478891" lon="19.8049192317">
        <ele>2152.53</ele>
        <time>2019-07-06T09:01:00Z</time>
      </trkpt>
      <trkpt lat="42.4493517447" lon="19.8048356641">
        <ele>2152.53</ele>
        <time>2019-07-06T09:01:07Z</time>
      </trkpt>
      <trkpt lat="42.4493297003" lon="19.8047784157">
        <ele>2152.53</ele>
        <time>2019-07-06T09:01:21Z</time>
      </trkpt>
      <trkpt lat="42.4493321311" lon="19.8047857918">
        <ele>2152.53</ele>
        <time>2019-07-06T09:01:43Z</time>
      </trkpt>
      <trkpt lat="42.4493175466" lon="19.8047781643">
        <ele>2152.05</ele>
        <time>2019-07-06T09:02:09Z</time>
      </trkpt>
      <trkpt lat="42.4493289459" lon="19.8047852889">
        <ele>2152.05</ele>
        <time>2019-07-06T09:02:24Z</time>
      </trkpt>
      <trkpt lat="42.4493561871" lon="19.8047891445">
        <ele>2152.05</ele>
        <time>2019-07-06T09:02:39Z</time>
      </trkpt>
      <trkpt lat="42.4493708555" lon="19.8047005478">
        <ele>2149.65</ele>
        <time>2019-07-06T09:02:52Z</time>
      </trkpt>
      <trkpt lat="42.4494040478" lon="19.8046473227">
        <ele>2147.72</ele>
        <time>2019-07-06T09:03:01Z</time>
      </trkpt>
      <trkpt lat="42.4494017009" lon="19.8046454787">
        <ele>2147.24</ele>
        <time>2019-07-06T09:03:02Z</time>
      </trkpt>
      <trkpt lat="42.4494416825" lon="19.8046094365">
        <ele>2144.36</ele>
        <time>2019-07-06T09:03:13Z</time>
      </trkpt>
      <trkpt lat="42.4494581111" lon="19.8045829497">
        <ele>2140.99</ele>
        <time>2019-07-06T09:03:23Z</time>
      </trkpt>
      <trkpt lat="42.4494922254" lon="19.8045271263">
        <ele>2138.59</ele>
        <time>2019-07-06T09:03:33Z</time>
      </trkpt>
      <trkpt lat="42.4494959135" lon="19.8044714704">
        <ele>2136.19</ele>
        <time>2019-07-06T09:03:44Z</time>
      </trkpt>
      <trkpt lat="42.4494923092" lon="19.8044270463">
        <ele>2133.78</ele>
        <time>2019-07-06T09:03:54Z</time>
      </trkpt>
      <trkpt lat="42.4494851008" lon="19.8044124618">
        <ele>2131.86</ele>
        <time>2019-07-06T09:04:00Z</time>
      </trkpt>
      <trkpt lat="42.4494851846" lon="19.8043621704">
        <ele>2128.98</ele>
        <time>2019-07-06T09:04:10Z</time>
      </trkpt>
      <trkpt lat="42.4494794011" lon="19.8042946961">
        <ele>2125.61</ele>
        <time>2019-07-06T09:04:19Z</time>
      </trkpt>
      <trkpt lat="42.4494872801" lon="19.8042277247">
        <ele>2123.21</ele>
        <time>2019-07-06T09:04:28Z</time>
      </trkpt>
      <trkpt lat="42.4494775571" lon="19.8041993938">
        <ele>2122.73</ele>
        <time>2019-07-06T09:04:30Z</time>
      </trkpt>
      <trkpt lat="42.4494613800" lon="19.8041408882">
        <ele>2121.29</ele>
        <time>2019-07-06T09:04:35Z</time>
      </trkpt>
      <trkpt lat="42.4494586140" lon="19.8041154072">
        <ele>2120.32</ele>
        <time>2019-07-06T09:04:37Z</time>
      </trkpt>
      <trkpt lat="42.4494380783" lon="19.8040532973">
        <ele>2119.36</ele>
        <time>2019-07-06T09:04:41Z</time>
      </trkpt>
      <trkpt lat="42.4494122621" lon="19.8039693944">
        <ele>2118.40</ele>
        <time>2019-07-06T09:04:47Z</time>
      </trkpt>
      <trkpt lat="42.4494029582" lon="19.8039304186">
        <ele>2117.92</ele>
        <time>2019-07-06T09:04:50Z</time>
      </trkpt>
      <trkpt lat="42.4493714422" lon="19.8038847372">
        <ele>2116.96</ele>
        <time>2019-07-06T09:04:54Z</time>
      </trkpt>
      <trkpt lat="42.4493353162" lon="19.8038368765">
        <ele>2116.96</ele>
        <time>2019-07-06T09:04:58Z</time>
      </trkpt>
      <trkpt lat="42.4492892995" lon="19.8037226312">
        <ele>2115.52</ele>
        <time>2019-07-06T09:05:09Z</time>
      </trkpt>
      <trkpt lat="42.4492887966" lon="19.8036794644">
        <ele>2114.56</ele>
        <time>2019-07-06T09:05:13Z</time>
      </trkpt>
      <trkpt lat="42.4492890481" lon="19.8035817314">
        <ele>2112.63</ele>
        <time>2019-07-06T09:05:21Z</time>
      </trkpt>
      <trkpt lat="42.4492820911" lon="19.8035511374">
        <ele>2112.63</ele>
        <time>2019-07-06T09:05:23Z</time>
      </trkpt>
      <trkpt lat="42.4492820073" lon="19.8035078868">
        <ele>2112.63</ele>
        <time>2019-07-06T09:05:26Z</time>
      </trkpt>
      <trkpt lat="42.4493035488" lon="19.8034130875">
        <ele>2112.15</ele>
        <time>2019-07-06T09:05:32Z</time>
      </trkpt>
      <trkpt lat="42.4493205640" lon="19.8033527378">
        <ele>2110.71</ele>
        <time>2019-07-06T09:05:37Z</time>
      </trkpt>
      <trkpt lat="42.4493137747" lon="19.8032698408">
        <ele>2109.27</ele>
        <time>2019-07-06T09:05:42Z</time>
      </trkpt>
      <trkpt lat="42.4493191391" lon="19.8032473773">
        <ele>2108.79</ele>
        <time>2019-07-06T09:05:44Z</time>
      </trkpt>
      <trkpt lat="42.4493057281" lon="19.8031483870">
        <ele>2106.87</ele>
        <time>2019-07-06T09:05:50Z</time>
      </trkpt>
      <trkpt lat="42.4492981844" lon="19.8030577786">
        <ele>2105.42</ele>
        <time>2019-07-06T09:05:54Z</time>
      </trkpt>
      <trkpt lat="42.4492871203" lon="19.8029644042">
        <ele>2103.98</ele>
        <time>2019-07-06T09:05:58Z</time>
      </trkpt>
      <trkpt lat="42.4493214861" lon="19.8027525097">
        <ele>2103.50</ele>
        <time>2019-07-06T09:06:12Z</time>
      </trkpt>
      <trkpt lat="42.4493258446" lon="19.8027036432">
        <ele>2103.02</ele>
        <time>2019-07-06T09:06:16Z</time>
      </trkpt>
      <trkpt lat="42.4493884575" lon="19.8024331592">
        <ele>2101.58</ele>
        <time>2019-07-06T09:06:32Z</time>
      </trkpt>
      <trkpt lat="42.4494800717" lon="19.8022278864">
        <ele>2100.62</ele>
        <time>2019-07-06T09:06:45Z</time>
      </trkpt>
      <trkpt lat="42.4495892879" lon="19.8020050954">
        <ele>2099.66</ele>
        <time>2019-07-06T09:07:03Z</time>
      </trkpt>
      <trkpt lat="42.4497154355" lon="19.8019095417">
        <ele>2099.66</ele>
        <time>2019-07-06T09:07:14Z</time>
      </trkpt>
      <trkpt lat="42.4497652240" lon="19.8019067757">
        <ele>2099.66</ele>
        <time>2019-07-06T09:07:19Z</time>
      </trkpt>
      <trkpt lat="42.4498170242" lon="19.8018695600">
        <ele>2099.66</ele>
        <time>2019-07-06T09:07:25Z</time>
      </trkpt>
      <trkpt lat="42.4499519728" lon="19.8016336095">
        <ele>2098.21</ele>
        <time>2019-07-06T09:07:40Z</time>
      </trkpt>
      <trkpt lat="42.4500022642" lon="19.8015227169">
        <ele>2097.73</ele>
        <time>2019-07-06T09:07:48Z</time>
      </trkpt>
      <trkpt lat="42.4500580877" lon="19.8014043644">
        <ele>2097.73</ele>
        <time>2019-07-06T09:07:58Z</time>
      </trkpt>
      <trkpt lat="42.4500834849" lon="19.8013417516">
        <ele>2097.25</ele>
        <time>2019-07-06T09:08:02Z</time>
      </trkpt>
      <trkpt lat="42.4502268154" lon="19.8011286836">
        <ele>2096.29</ele>
        <time>2019-07-06T09:08:18Z</time>
      </trkpt>
      <trkpt lat="42.4502759334" lon="19.8010652326">
        <ele>2096.29</ele>
        <time>2019-07-06T09:08:24Z</time>
      </trkpt>
      <trkpt lat="42.4504195992" lon="19.8008817527">
        <ele>2096.29</ele>
        <time>2019-07-06T09:08:42Z</time>
      </trkpt>
      <trkpt lat="42.4504742492" lon="19.8008204810">
        <ele>2096.29</ele>
        <time>2019-07-06T09:08:48Z</time>
      </trkpt>
      <trkpt lat="42.4505753350" lon="19.8006193154">
        <ele>2096.29</ele>
        <time>2019-07-06T09:09:03Z</time>
      </trkpt>
      <trkpt lat="42.4506277218" lon="19.8005697783">
        <ele>2097.25</ele>
        <time>2019-07-06T09:09:10Z</time>
      </trkpt>
      <trkpt lat="42.4506381154" lon="19.8005603906">
        <ele>2097.25</ele>
        <time>2019-07-06T09:09:11Z</time>
      </trkpt>
      <trkpt lat="42.4507270474" lon="19.8004239332">
        <ele>2095.81</ele>
        <time>2019-07-06T09:09:22Z</time>
      </trkpt>
      <trkpt lat="42.4507452361" lon="19.8004031461">
        <ele>2095.81</ele>
        <time>2019-07-06T09:09:24Z</time>
      </trkpt>
      <trkpt lat="42.4508191645" lon="19.8002428003">
        <ele>2093.41</ele>
        <time>2019-07-06T09:09:34Z</time>
      </trkpt>
      <trkpt lat="42.4509210885" lon="19.8001935147">
        <ele>2091.49</ele>
        <time>2019-07-06T09:09:42Z</time>
      </trkpt>
      <trkpt lat="42.4510606471" lon="19.8001223523">
        <ele>2088.60</ele>
        <time>2019-07-06T09:09:53Z</time>
      </trkpt>
      <trkpt lat="42.4512173887" lon="19.8000695463">
        <ele>2086.20</ele>
        <time>2019-07-06T09:10:07Z</time>
      </trkpt>
      <trkpt lat="42.4512242619" lon="19.8000511061">
        <ele>2086.20</ele>
        <time>2019-07-06T09:10:10Z</time>
      </trkpt>
      <trkpt lat="42.4514067359" lon="19.7999682929">
        <ele>2084.28</ele>
        <time>2019-07-06T09:10:24Z</time>
      </trkpt>
      <trkpt lat="42.4515215680" lon="19.7998601664">
        <ele>2083.79</ele>
        <time>2019-07-06T09:10:37Z</time>
      </trkpt>
      <trkpt lat="42.4515834264" lon="19.7997967992">
        <ele>2083.31</ele>
        <time>2019-07-06T09:10:49Z</time>
      </trkpt>
      <trkpt lat="42.4516044650" lon="19.7997441608">
        <ele>2082.35</ele>
        <time>2019-07-06T09:11:03Z</time>
      </trkpt>
      <trkpt lat="42.4516045488" lon="19.7996747587">
        <ele>2081.87</ele>
        <time>2019-07-06T09:11:20Z</time>
      </trkpt>
      <trkpt lat="42.4515672494" lon="19.7996595874">
        <ele>2081.87</ele>
        <time>2019-07-06T09:11:30Z</time>
      </trkpt>
      <trkpt lat="42.4515851028" lon="19.7996461764">
        <ele>2081.39</ele>
        <time>2019-07-06T09:11:32Z</time>
      </trkpt>
      <trkpt lat="42.4516056385" lon="19.7996296640">
        <ele>2080.91</ele>
        <time>2019-07-06T09:11:34Z</time>
      </trkpt>
      <trkpt lat="42.4516871944" lon="19.7995248903">
        <ele>2076.59</ele>
        <time>2019-07-06T09:11:40Z</time>
      </trkpt>
      <trkpt lat="42.4517493043" lon="19.7994410712">
        <ele>2073.22</ele>
        <time>2019-07-06T09:11:44Z</time>
      </trkpt>
      <trkpt lat="42.4518073909" lon="19.7993587609">
        <ele>2069.86</ele>
        <time>2019-07-06T09:11:48Z</time>
      </trkpt>
      <trkpt lat="42.4518653098" lon="19.7992705833">
        <ele>2066.49</ele>
        <time>2019-07-06T09:11:52Z</time>
      </trkpt>
      <trkpt lat="42.4518988375" lon="19.7992510535">
        <ele>2065.53</ele>
        <time>2019-07-06T09:11:54Z</time>
      </trkpt>
      <trkpt lat="42.4520142563" lon="19.7991680726">
        <ele>2061.68</ele>
        <time>2019-07-06T09:12:05Z</time>
      </trkpt>
      <trkpt lat="42.4520188663" lon="19.7991688270">
        <ele>2062.17</ele>
        <time>2019-07-06T09:12:06Z</time>
      </trkpt>
      <trkpt lat="42.4519842491" lon="19.7990718484">
        <ele>2061.20</ele>
        <time>2019-07-06T09:12:24Z</time>
      </trkpt>
      <trkpt lat="42.4519977439" lon="19.7990869358">
        <ele>2060.24</ele>
        <time>2019-07-06T09:12:35Z</time>
      </trkpt>
      <trkpt lat="42.4521787930" lon="19.7990511451">
        <ele>2056.40</ele>
        <time>2019-07-06T09:12:47Z</time>
      </trkpt>
      <trkpt lat="42.4523275718" lon="19.7990432661">
        <ele>2053.99</ele>
        <time>2019-07-06T09:12:58Z</time>
      </trkpt>
      <trkpt lat="42.4524087086" lon="19.7990168631">
        <ele>2053.51</ele>
        <time>2019-07-06T09:13:04Z</time>
      </trkpt>
      <trkpt lat="42.4524601735" lon="19.7990158573">
        <ele>2052.07</ele>
        <time>2019-07-06T09:13:08Z</time>
      </trkpt>
      <trkpt lat="42.4524979759" lon="19.7989949025">
        <ele>2051.11</ele>
        <time>2019-07-06T09:13:12Z</time>
      </trkpt>
      <trkpt lat="42.4526098743" lon="19.7988151107">
        <ele>2047.26</ele>
        <time>2019-07-06T09:13:23Z</time>
      </trkpt>
      <trkpt lat="42.4526226148" lon="19.7987996880">
        <ele>2047.26</ele>
        <time>2019-07-06T09:13:24Z</time>
      </trkpt>
      <trkpt lat="42.4526634347" lon="19.7987720277">
        <ele>2045.34</ele>
        <time>2019-07-06T09:13:27Z</time>
      </trkpt>
      <trkpt lat="42.4527381174" lon="19.7987005301">
        <ele>2041.50</ele>
        <time>2019-07-06T09:13:32Z</time>
      </trkpt>
      <trkpt lat="42.4528153148" lon="19.7986917291">
        <ele>2038.61</ele>
        <time>2019-07-06T09:13:36Z</time>
      </trkpt>
      <trkpt lat="42.4528953619" lon="19.7986740433">
        <ele>2035.25</ele>
        <time>2019-07-06T09:13:40Z</time>
      </trkpt>
      <trkpt lat="42.4529547896" lon="19.7986587044">
        <ele>2032.84</ele>
        <time>2019-07-06T09:13:43Z</time>
      </trkpt>
      <trkpt lat="42.4530412070" lon="19.7986447904">
        <ele>2029.48</ele>
        <time>2019-07-06T09:13:47Z</time>
      </trkpt>
      <trkpt lat="42.4530791771" lon="19.7986500710">
        <ele>2027.56</ele>
        <time>2019-07-06T09:13:49Z</time>
      </trkpt>
      <trkpt lat="42.4531428795" lon="19.7986288648">
        <ele>2024.67</ele>
        <time>2019-07-06T09:13:53Z</time>
      </trkpt>
      <trkpt lat="42.4532385170" lon="19.7986324690">
        <ele>2020.35</ele>
        <time>2019-07-06T09:13:59Z</time>
      </trkpt>
      <trkpt lat="42.4532526825" lon="19.7986266855">
        <ele>2019.87</ele>
        <time>2019-07-06T09:14:00Z</time>
      </trkpt>
      <trkpt lat="42.4533432908" lon="19.7986592911">
        <ele>2016.50</ele>
        <time>2019-07-06T09:14:08Z</time>
      </trkpt>
      <trkpt lat="42.4533533491" lon="19.7986825090">
        <ele>2016.02</ele>
        <time>2019-07-06T09:14:13Z</time>
      </trkpt>
      <trkpt lat="42.4534163810" lon="19.7987094149">
        <ele>2014.58</ele>
        <time>2019-07-06T09:14:18Z</time>
      </trkpt>
      <trkpt lat="42.4535043072" lon="19.7988225706">
        <ele>2010.73</ele>
        <time>2019-07-06T09:14:24Z</time>
      </trkpt>
      <trkpt lat="42.4535286985" lon="19.7988465428">
        <ele>2009.77</ele>
        <time>2019-07-06T09:14:25Z</time>
      </trkpt>
      <trkpt lat="42.4535339791" lon="19.7988583613">
        <ele>2009.77</ele>
        <time>2019-07-06T09:14:26Z</time>
      </trkpt>
      <trkpt lat="42.4535987712" lon="19.7989419289">
        <ele>2007.85</ele>
        <time>2019-07-06T09:14:30Z</time>
      </trkpt>
      <trkpt lat="42.4537152797" lon="19.7990503069">
        <ele>2004.49</ele>
        <time>2019-07-06T09:14:36Z</time>
      </trkpt>
      <trkpt lat="42.4538490549" lon="19.7991483752">
        <ele>2003.04</ele>
        <time>2019-07-06T09:14:43Z</time>
      </trkpt>
      <trkpt lat="42.4540199619" lon="19.7992854193">
        <ele>1999.20</ele>
        <time>2019-07-06T09:14:55Z</time>
      </trkpt>
      <trkpt lat="42.4540582672" lon="19.7993060388">
        <ele>1998.72</ele>
        <time>2019-07-06T09:14:57Z</time>
      </trkpt>
      <trkpt lat="42.4541282561" lon="19.7993497085">
        <ele>1997.28</ele>
        <time>2019-07-06T09:15:02Z</time>
      </trkpt>
      <trkpt lat="42.4542419985" lon="19.7994279955">
        <ele>1994.87</ele>
        <time>2019-07-06T09:15:10Z</time>
      </trkpt>
      <trkpt lat="42.4543075450" lon="19.7994347010">
        <ele>1994.39</ele>
        <time>2019-07-06T09:15:14Z</time>
      </trkpt>
      <trkpt lat="42.4543913640" lon="19.7994775325">
        <ele>1993.43</ele>
        <time>2019-07-06T09:15:19Z</time>
      </trkpt>
      <trkpt lat="42.4545236304" lon="19.7995601781">
        <ele>1991.51</ele>
        <time>2019-07-06T09:15:30Z</time>
      </trkpt>
      <trkpt lat="42.4545843154" lon="19.7995728347">
        <ele>1991.03</ele>
        <time>2019-07-06T09:15:36Z</time>
      </trkpt>
      <trkpt lat="42.4546185136" lon="19.7995702364">
        <ele>1991.03</ele>
        <time>2019-07-06T09:15:41Z</time>
      </trkpt>
      <trkpt lat="42.4546428211" lon="19.7995830607">
        <ele>1992.47</ele>
        <time>2019-07-06T09:15:43Z</time>
      </trkpt>
      <trkpt lat="42.4547511991" lon="19.7996231262">
        <ele>1991.51</ele>
        <time>2019-07-06T09:15:52Z</time>
      </trkpt>
      <trkpt lat="42.4548502732" lon="19.7996449191">
        <ele>1991.03</ele>
        <time>2019-07-06T09:16:05Z</time>
      </trkpt>
      <trkpt lat="42.4549045041" lon="19.7996828053">
        <ele>1989.10</ele>
        <time>2019-07-06T09:16:17Z</time>
      </trkpt>
      <trkpt lat="42.4549709726" lon="19.7997332644">
        <ele>1985.74</ele>
        <time>2019-07-06T09:16:29Z</time>
      </trkpt>
      <trkpt lat="42.4550233595" lon="19.7997569852">
        <ele>1984.30</ele>
        <time>2019-07-06T09:16:41Z</time>
      </trkpt>
      <trkpt lat="42.4550657719" lon="19.7997273132">
        <ele>1980.93</ele>
        <time>2019-07-06T09:16:53Z</time>
      </trkpt>
      <trkpt lat="42.4550699629" lon="19.7997724917">
        <ele>1978.53</ele>
        <time>2019-07-06T09:17:06Z</time>
      </trkpt>
      <trkpt lat="42.4550541211" lon="19.7997949552">
        <ele>1976.13</ele>
        <time>2019-07-06T09:17:18Z</time>
      </trkpt>
      <trkpt lat="42.4551215116" lon="19.7997857351">
        <ele>1976.13</ele>
        <time>2019-07-06T09:17:35Z</time>
      </trkpt>
      <trkpt lat="42.4552759062" lon="19.7997559793">
        <ele>1975.17</ele>
        <time>2019-07-06T09:17:53Z</time>
      </trkpt>
      <trkpt lat="42.4557097536" lon="19.7993968986">
        <ele>1975.17</ele>
        <time>2019-07-06T09:18:21Z</time>
      </trkpt>
      <trkpt lat="42.4559901282" lon="19.7992367204">
        <ele>1975.17</ele>
        <time>2019-07-06T09:18:47Z</time>
      </trkpt>
      <trkpt lat="42.4559483025" lon="19.7993171029">
        <ele>1975.17</ele>
        <time>2019-07-06T09:19:19Z</time>
      </trkpt>
      <trkpt lat="42.4558460433" lon="19.7994118184">
        <ele>1975.17</ele>
        <time>2019-07-06T09:19:41Z</time>
      </trkpt>
      <trkpt lat="42.4556503259" lon="19.7996237967">
        <ele>1975.17</ele>
        <time>2019-07-06T09:20:10Z</time>
      </trkpt>
      <trkpt lat="42.4556827638" lon="19.7995794564">
        <ele>1975.17</ele>
        <time>2019-07-06T09:20:30Z</time>
      </trkpt>
      <trkpt lat="42.4558047205" lon="19.7994993255">
        <ele>1975.17</ele>
        <time>2019-07-06T09:20:58Z</time>
      </trkpt>
      <trkpt lat="42.4557359051" lon="19.7995560709">
        <ele>1975.17</ele>
        <time>2019-07-06T09:21:11Z</time>
      </trkpt>
      <trkpt lat="42.4564583413" lon="19.7990049608">
        <ele>1942.00</ele>
        <time>2019-07-06T09:23:14Z</time>
      </trkpt>
      <trkpt lat="42.4564553238" lon="19.7990054637">
        <ele>1942.00</ele>
        <time>2019-07-06T09:23:15Z</time>
      </trkpt>
      <trkpt lat="42.4564456008" lon="19.7990032006">
        <ele>1943.44</ele>
        <time>2019-07-06T09:23:17Z</time>
      </trkpt>
      <trkpt lat="42.4564145040" lon="19.7989995964">
        <ele>1943.44</ele>
        <time>2019-07-06T09:23:44Z</time>
      </trkpt>
      <trkpt lat="42.4562823214" lon="19.7990360577">
        <ele>1946.33</ele>
        <time>2019-07-06T09:24:00Z</time>
      </trkpt>
      <trkpt lat="42.4562686589" lon="19.7990472894">
        <ele>1950.65</ele>
        <time>2019-07-06T09:24:03Z</time>
      </trkpt>
      <trkpt lat="42.4562508892" lon="19.7990475409">
        <ele>1955.94</ele>
        <time>2019-07-06T09:24:06Z</time>
      </trkpt>
      <trkpt lat="42.4562443513" lon="19.7990497202">
        <ele>1955.94</ele>
        <time>2019-07-06T09:24:07Z</time>
      </trkpt>
      <trkpt lat="42.4562297668" lon="19.7990601137">
        <ele>1959.30</ele>
        <time>2019-07-06T09:24:10Z</time>
      </trkpt>
      <trkpt lat="42.4562166072" lon="19.7990736086">
        <ele>1962.67</ele>
        <time>2019-07-06T09:24:13Z</time>
      </trkpt>
      <trkpt lat="42.4561829958" lon="19.7990946472">
        <ele>1966.51</ele>
        <time>2019-07-06T09:24:17Z</time>
      </trkpt>
      <trkpt lat="42.4561729375" lon="19.7990709264">
        <ele>1969.88</ele>
        <time>2019-07-06T09:24:22Z</time>
      </trkpt>
      <trkpt lat="42.4561519828" lon="19.7990595270">
        <ele>1973.24</ele>
        <time>2019-07-06T09:24:30Z</time>
      </trkpt>
      <trkpt lat="42.4560443591" lon="19.7991369758">
        <ele>1976.61</ele>
        <time>2019-07-06T09:24:42Z</time>
      </trkpt>
      <trkpt lat="42.4558586162" lon="19.7992844135">
        <ele>1977.09</ele>
        <time>2019-07-06T09:25:09Z</time>
      </trkpt>
      <trkpt lat="42.4555266090" lon="19.7994722519">
        <ele>1977.57</ele>
        <time>2019-07-06T09:25:36Z</time>
      </trkpt>
      <trkpt lat="42.4552562088" lon="19.7996716574">
        <ele>1978.05</ele>
        <time>2019-07-06T09:26:02Z</time>
      </trkpt>
      <trkpt lat="42.4552651774" lon="19.7996803746">
        <ele>1977.57</ele>
        <time>2019-07-06T09:26:27Z</time>
      </trkpt>
      <trkpt lat="42.4552996270" lon="19.7996249702">
        <ele>1976.61</ele>
        <time>2019-07-06T09:26:58Z</time>
      </trkpt>
      <trkpt lat="42.4552625790" lon="19.7996746749">
        <ele>1976.61</ele>
        <time>2019-07-06T09:27:21Z</time>
      </trkpt>
      <trkpt lat="42.4551674444" lon="19.7997705638">
        <ele>1976.13</ele>
        <time>2019-07-06T09:27:54Z</time>
      </trkpt>
      <trkpt lat="42.4549887422" lon="19.7999016568">
        <ele>1976.13</ele>
        <time>2019-07-06T09:28:23Z</time>
      </trkpt>
      <trkpt lat="42.4550399557" lon="19.7999082785">
        <ele>1976.13</ele>
        <time>2019-07-06T09:28:59Z</time>
      </trkpt>
      <trkpt lat="42.4550369382" lon="19.7998817079">
        <ele>1976.13</ele>
        <time>2019-07-06T09:29:25Z</time>
      </trkpt>
      <trkpt lat="42.4550880678" lon="19.7997957934">
        <ele>1975.65</ele>
        <time>2019-07-06T09:30:01Z</time>
      </trkpt>
      <trkpt lat="42.4551145546" lon="19.7998338472">
        <ele>1975.17</ele>
        <time>2019-07-06T09:30:30Z</time>
      </trkpt>
      <trkpt lat="42.4551665224" lon="19.7998018283">
        <ele>1976.61</ele>
        <time>2019-07-06T09:30:50Z</time>
      </trkpt>
      <trkpt lat="42.4551519379" lon="19.7997724079">
        <ele>1976.61</ele>
        <time>2019-07-06T09:31:07Z</time>
      </trkpt>
      <trkpt lat="42.4551184103" lon="19.7997662891">
        <ele>1976.13</ele>
        <time>2019-07-06T09:31:30Z</time>
      </trkpt>
      <trkpt lat="42.4551375210" lon="19.7997698933">
        <ele>1976.13</ele>
        <time>2019-07-06T09:31:43Z</time>
      </trkpt>
      <trkpt lat="42.4551995471" lon="19.7997393832">
        <ele>1976.13</ele>
        <time>2019-07-06T09:32:09Z</time>
      </trkpt>
      <trkpt lat="42.4553162232" lon="19.7997384612">
        <ele>1976.13</ele>
        <time>2019-07-06T09:32:44Z</time>
      </trkpt>
      <trkpt lat="42.4552919157" lon="19.7998097911">
        <ele>1976.13</ele>
        <time>2019-07-06T09:33:22Z</time>
      </trkpt>
      <trkpt lat="42.4552774150" lon="19.7998021636">
        <ele>1976.13</ele>
        <time>2019-07-06T09:33:39Z</time>
      </trkpt>
      <trkpt lat="42.4553175643" lon="19.7999003995">
        <ele>1975.65</ele>
        <time>2019-07-06T09:33:57Z</time>
      </trkpt>
      <trkpt lat="42.4551811069" lon="19.7998346016">
        <ele>1976.61</ele>
        <time>2019-07-06T09:34:09Z</time>
      </trkpt>
      <trkpt lat="42.4551539496" lon="19.7997696418">
        <ele>1976.13</ele>
        <time>2019-07-06T09:34:23Z</time>
      </trkpt>
      <trkpt lat="42.4551878963" lon="19.7997541353">
        <ele>1974.69</ele>
        <time>2019-07-06T09:34:37Z</time>
      </trkpt>
      <trkpt lat="42.4551892374" lon="19.7997567337">
        <ele>1974.69</ele>
        <time>2019-07-06T09:34:38Z</time>
      </trkpt>
      <trkpt lat="42.4552008044" lon="19.7997066099">
        <ele>1974.20</ele>
        <time>2019-07-06T09:34:48Z</time>
      </trkpt>
      <trkpt lat="42.4552635010" lon="19.7996997368">
        <ele>1971.80</ele>
        <time>2019-07-06T09:35:00Z</time>
      </trkpt>
      <trkpt lat="42.4553301372" lon="19.7996533848">
        <ele>1971.32</ele>
        <time>2019-07-06T09:35:12Z</time>
      </trkpt>
      <trkpt lat="42.4553981982" lon="19.7996445838">
        <ele>1971.80</ele>
        <time>2019-07-06T09:35:25Z</time>
      </trkpt>
      <trkpt lat="42.4554824363" lon="19.7996320948">
        <ele>1969.88</ele>
        <time>2019-07-06T09:35:37Z</time>
      </trkpt>
      <trkpt lat="42.4555532634" lon="19.7996056080">
        <ele>1970.84</ele>
        <time>2019-07-06T09:35:48Z</time>
      </trkpt>
      <trkpt lat="42.4556675088" lon="19.7996036801">
        <ele>1970.84</ele>
        <time>2019-07-06T09:36:01Z</time>
      </trkpt>
      <trkpt lat="42.4557269365" lon="19.7995992377">
        <ele>1972.28</ele>
        <time>2019-07-06T09:36:14Z</time>
      </trkpt>
      <trkpt lat="42.4557476398" lon="19.7995999083">
        <ele>1972.76</ele>
        <time>2019-07-06T09:36:18Z</time>
      </trkpt>
      <trkpt lat="42.4557701033" lon="19.7995962203">
        <ele>1973.24</ele>
        <time>2019-07-06T09:36:21Z</time>
      </trkpt>
      <trkpt lat="42.4558299500" lon="19.7996702325">
        <ele>1975.17</ele>
        <time>2019-07-06T09:36:33Z</time>
      </trkpt>
      <trkpt lat="42.4558660761" lon="19.7996883374">
        <ele>1976.61</ele>
        <time>2019-07-06T09:36:45Z</time>
      </trkpt>
      <trkpt lat="42.4559286050" lon="19.7996841464">
        <ele>1976.61</ele>
        <time>2019-07-06T09:37:02Z</time>
      </trkpt>
      <trkpt lat="42.4559325445" lon="19.7996710707">
        <ele>1976.61</ele>
        <time>2019-07-06T09:37:03Z</time>
      </trkpt>
      <trkpt lat="42.4559511524" lon="19.7996497806">
        <ele>1976.61</ele>
        <time>2019-07-06T09:37:05Z</time>
      </trkpt>
      <trkpt lat="42.4560755398" lon="19.7995559033">
        <ele>1977.57</ele>
        <time>2019-07-06T09:37:20Z</time>
      </trkpt>
      <trkpt lat="42.4560873583" lon="19.7995450068">
        <ele>1978.05</ele>
        <time>2019-07-06T09:37:22Z</time>
      </trkpt>
      <trkpt lat="42.4562039506" lon="19.7994981520">
        <ele>1979.97</ele>
        <time>2019-07-06T09:37:37Z</time>
      </trkpt>
      <trkpt lat="42.4562725984" lon="19.7994621936">
        <ele>1982.38</ele>
        <time>2019-07-06T09:37:52Z</time>
      </trkpt>
      <trkpt lat="42.4563419167" lon="19.7994123213">
        <ele>1982.86</ele>
        <time>2019-07-06T09:38:06Z</time>
      </trkpt>
      <trkpt lat="42.4563548248" lon="19.7994079627">
        <ele>1981.41</ele>
        <time>2019-07-06T09:38:08Z</time>
      </trkpt>
      <trkpt lat="42.4564061221" lon="19.7993886843">
        <ele>1979.49</ele>
        <time>2019-07-06T09:38:15Z</time>
      </trkpt>
      <trkpt lat="42.4564395659" lon="19.7993825655">
        <ele>1979.01</ele>
        <time>2019-07-06T09:38:19Z</time>
      </trkpt>
      <trkpt lat="42.4565616902" lon="19.7993953060">
        <ele>1978.53</ele>
        <time>2019-07-06T09:38:31Z</time>
      </trkpt>
      <trkpt lat="42.4565712456" lon="19.7993953899">
        <ele>1978.53</ele>
        <time>2019-07-06T09:38:32Z</time>
      </trkpt>
      <trkpt lat="42.4566347804" lon="19.7993896902">
        <ele>1978.53</ele>
        <time>2019-07-06T09:38:39Z</time>
      </trkpt>
      <trkpt lat="42.4567377940" lon="19.7993836552">
        <ele>1979.49</ele>
        <time>2019-07-06T09:38:51Z</time>
      </trkpt>
      <trkpt lat="42.4567755125" lon="19.7993544023">
        <ele>1979.97</ele>
        <time>2019-07-06T09:38:56Z</time>
      </trkpt>
      <trkpt lat="42.4568063579" lon="19.7993457690">
        <ele>1980.45</ele>
        <time>2019-07-06T09:39:00Z</time>
      </trkpt>
      <trkpt lat="42.4569304939" lon="19.7993667237">
        <ele>1980.93</ele>
        <time>2019-07-06T09:39:14Z</time>
      </trkpt>
      <trkpt lat="42.4570433982" lon="19.7993379738">
        <ele>1981.41</ele>
        <time>2019-07-06T09:39:26Z</time>
      </trkpt>
      <trkpt lat="42.4571038317" lon="19.7993063740">
        <ele>1983.34</ele>
        <time>2019-07-06T09:39:37Z</time>
      </trkpt>
      <trkpt lat="42.4571546260" lon="19.7992952261">
        <ele>1985.26</ele>
        <time>2019-07-06T09:39:46Z</time>
      </trkpt>
      <trkpt lat="42.4572433904" lon="19.7992892750">
        <ele>1985.74</ele>
        <time>2019-07-06T09:40:00Z</time>
      </trkpt>
      <trkpt lat="42.4573311489" lon="19.7993549891">
        <ele>1988.14</ele>
        <time>2019-07-06T09:40:15Z</time>
      </trkpt>
      <trkpt lat="42.4573711306" lon="19.7994015086">
        <ele>1989.10</ele>
        <time>2019-07-06T09:40:27Z</time>
      </trkpt>
      <trkpt lat="42.4573807698" lon="19.7993371356">
        <ele>1991.03</ele>
        <time>2019-07-06T09:40:39Z</time>
      </trkpt>
      <trkpt lat="42.4574160576" lon="19.7993405722">
        <ele>1993.43</ele>
        <time>2019-07-06T09:40:53Z</time>
      </trkpt>
      <trkpt lat="42.4574338272" lon="19.7993279155">
        <ele>1995.35</ele>
        <time>2019-07-06T09:41:05Z</time>
      </trkpt>
      <trkpt lat="42.4574804306" lon="19.7993384767">
        <ele>1997.28</ele>
        <time>2019-07-06T09:41:17Z</time>
      </trkpt>
      <trkpt lat="42.4575469829" lon="19.7993229702">
        <ele>1999.20</ele>
        <time>2019-07-06T09:41:30Z</time>
      </trkpt>
      <trkpt lat="42.4576037284" lon="19.7993162647">
        <ele>2000.16</ele>
        <time>2019-07-06T09:41:43Z</time>
      </trkpt>
      <trkpt lat="42.4576611444" lon="19.7993083019">
        <ele>2002.56</ele>
        <time>2019-07-06T09:41:55Z</time>
      </trkpt>
      <trkpt lat="42.4577410240" lon="19.7992757801">
        <ele>2004.49</ele>
        <time>2019-07-06T09:42:08Z</time>
      </trkpt>
      <trkpt lat="42.4578108452" lon="19.7992425039">
        <ele>2005.45</ele>
        <time>2019-07-06T09:42:21Z</time>
      </trkpt>
      <trkpt lat="42.4578752182" lon="19.7992083058">
        <ele>2007.37</ele>
        <time>2019-07-06T09:42:33Z</time>
      </trkpt>
      <trkpt lat="42.4579576962" lon="19.7991394065">
        <ele>2008.81</ele>
        <time>2019-07-06T09:42:46Z</time>
      </trkpt>
      <trkpt lat="42.4580167048" lon="19.7990557551">
        <ele>2010.73</ele>
        <time>2019-07-06T09:42:59Z</time>
      </trkpt>
      <trkpt lat="42.4581058882" lon="19.7990083136">
        <ele>2012.18</ele>
        <time>2019-07-06T09:43:13Z</time>
      </trkpt>
      <trkpt lat="42.4581937306" lon="19.7989941482">
        <ele>2013.62</ele>
        <time>2019-07-06T09:43:26Z</time>
      </trkpt>
      <trkpt lat="42.4582899548" lon="19.7989739478">
        <ele>2015.06</ele>
        <time>2019-07-06T09:43:40Z</time>
      </trkpt>
      <trkpt lat="42.4583035335" lon="19.7989592794">
        <ele>2015.06</ele>
        <time>2019-07-06T09:43:43Z</time>
      </trkpt>
      <trkpt lat="42.4583826587" lon="19.7989091557">
        <ele>2016.02</ele>
        <time>2019-07-06T09:43:52Z</time>
      </trkpt>
      <trkpt lat="42.4584883545" lon="19.7988683358">
        <ele>2017.94</ele>
        <time>2019-07-06T09:44:06Z</time>
      </trkpt>
      <trkpt lat="42.4585597683" lon="19.7988353949">
        <ele>2019.39</ele>
        <time>2019-07-06T09:44:18Z</time>
      </trkpt>
      <trkpt lat="42.4586228840" lon="19.7988006100">
        <ele>2021.79</ele>
        <time>2019-07-06T09:44:31Z</time>
      </trkpt>
      <trkpt lat="42.4586276617" lon="19.7987926472">
        <ele>2021.79</ele>
        <time>2019-07-06T09:44:32Z</time>
      </trkpt>
      <trkpt lat="42.4587059487" lon="19.7987399250">
        <ele>2023.23</ele>
        <time>2019-07-06T09:44:44Z</time>
      </trkpt>
      <trkpt lat="42.4587580003" lon="19.7986875381">
        <ele>2025.15</ele>
        <time>2019-07-06T09:44:56Z</time>
      </trkpt>
      <trkpt lat="42.4588201102" lon="19.7985856142">
        <ele>2026.12</ele>
        <time>2019-07-06T09:45:07Z</time>
      </trkpt>
      <trkpt lat="42.4589057732" lon="19.7984888032">
        <ele>2028.04</ele>
        <time>2019-07-06T09:45:22Z</time>
      </trkpt>
      <trkpt lat="42.4589265604" lon="19.7984895576">
        <ele>2028.52</ele>
        <time>2019-07-06T09:45:37Z</time>
      </trkpt>
      <trkpt lat="42.4589581601" lon="19.7983790003">
        <ele>2028.52</ele>
        <time>2019-07-06T09:45:51Z</time>
      </trkpt>
      <trkpt lat="42.4590168335" lon="19.7982936725">
        <ele>2029.48</ele>
        <time>2019-07-06T09:46:04Z</time>
      </trkpt>
      <trkpt lat="42.4590659514" lon="19.7982799262">
        <ele>2029.96</ele>
        <time>2019-07-06T09:46:18Z</time>
      </trkpt>
      <trkpt lat="42.4591288995" lon="19.7983222548">
        <ele>2031.40</ele>
        <time>2019-07-06T09:46:30Z</time>
      </trkpt>
      <trkpt lat="42.4591770954" lon="19.7983125318">
        <ele>2031.88</ele>
        <time>2019-07-06T09:46:36Z</time>
      </trkpt>
      <trkpt lat="42.4592257943" lon="19.7983154655">
        <ele>2033.81</ele>
        <time>2019-07-06T09:46:48Z</time>
      </trkpt>
      <trkpt lat="42.4592893291" lon="19.7983407788">
        <ele>2036.21</ele>
        <time>2019-07-06T09:47:02Z</time>
      </trkpt>
      <trkpt lat="42.4593601562" lon="19.7983351629">
        <ele>2037.17</ele>
        <time>2019-07-06T09:47:13Z</time>
      </trkpt>
      <trkpt lat="42.4594346713" lon="19.7982699517">
        <ele>2039.57</ele>
        <time>2019-07-06T09:47:28Z</time>
      </trkpt>
      <trkpt lat="42.4594827835" lon="19.7981500067">
        <ele>2041.02</ele>
        <time>2019-07-06T09:47:40Z</time>
      </trkpt>
      <trkpt lat="42.4595521856" lon="19.7980469093">
        <ele>2042.46</ele>
        <time>2019-07-06T09:47:55Z</time>
      </trkpt>
      <trkpt lat="42.4595987890" lon="19.7979778424">
        <ele>2044.86</ele>
        <time>2019-07-06T09:48:08Z</time>
      </trkpt>
      <trkpt lat="42.4596613180" lon="19.7979888227">
        <ele>2046.78</ele>
        <time>2019-07-06T09:48:21Z</time>
      </trkpt>
      <trkpt lat="42.4597387668" lon="19.7979811952">
        <ele>2048.71</ele>
        <time>2019-07-06T09:48:34Z</time>
      </trkpt>
      <trkpt lat="42.4598014634" lon="19.7980026528">
        <ele>2049.67</ele>
        <time>2019-07-06T09:48:47Z</time>
      </trkpt>
      <trkpt lat="42.4598481506" lon="19.7980420478">
        <ele>2051.11</ele>
        <time>2019-07-06T09:48:58Z</time>
      </trkpt>
      <trkpt lat="42.4599021301" lon="19.7980700433">
        <ele>2052.55</ele>
        <time>2019-07-06T09:49:09Z</time>
      </trkpt>
      <trkpt lat="42.4599542655" lon="19.7981257830">
        <ele>2053.99</ele>
        <time>2019-07-06T09:49:20Z</time>
      </trkpt>
      <trkpt lat="42.4600200634" lon="19.7981757391">
        <ele>2056.40</ele>
        <time>2019-07-06T09:49:34Z</time>
      </trkpt>
      <trkpt lat="42.4600685947" lon="19.7982133739">
        <ele>2058.32</ele>
        <time>2019-07-06T09:49:48Z</time>
      </trkpt>
      <trkpt lat="42.4601328839" lon="19.7982350830">
        <ele>2060.72</ele>
        <time>2019-07-06T09:50:01Z</time>
      </trkpt>
      <trkpt lat="42.4601957481" lon="19.7982647549">
        <ele>2061.68</ele>
        <time>2019-07-06T09:50:13Z</time>
      </trkpt>
      <trkpt lat="42.4602457043" lon="19.7982892301">
        <ele>2064.09</ele>
        <time>2019-07-06T09:50:26Z</time>
      </trkpt>
      <trkpt lat="42.4602667429" lon="19.7982149664">
        <ele>2066.49</ele>
        <time>2019-07-06T09:50:43Z</time>
      </trkpt>
      <trkpt lat="42.4603037909" lon="19.7981888987">
        <ele>2068.89</ele>
        <time>2019-07-06T09:50:55Z</time>
      </trkpt>
      <trkpt lat="42.4603502266" lon="19.7980983742">
        <ele>2070.34</ele>
        <time>2019-07-06T09:51:11Z</time>
      </trkpt>
      <trkpt lat="42.4603005219" lon="19.7979866434">
        <ele>2072.74</ele>
        <time>2019-07-06T09:51:25Z</time>
      </trkpt>
      <trkpt lat="42.4603260029" lon="19.7978845518">
        <ele>2074.18</ele>
        <time>2019-07-06T09:51:39Z</time>
      </trkpt>
      <trkpt lat="42.4603995960" lon="19.7978694644">
        <ele>2076.59</ele>
        <time>2019-07-06T09:51:52Z</time>
      </trkpt>
      <trkpt lat="42.4604871031" lon="19.7977953684">
        <ele>2077.55</ele>
        <time>2019-07-06T09:52:06Z</time>
      </trkpt>
      <trkpt lat="42.4605555832" lon="19.7977833822">
        <ele>2078.51</ele>
        <time>2019-07-06T09:52:18Z</time>
      </trkpt>
      <trkpt lat="42.4605683237" lon="19.7977211885">
        <ele>2078.51</ele>
        <time>2019-07-06T09:52:35Z</time>
      </trkpt>
      <trkpt lat="42.4605746102" lon="19.7976675443">
        <ele>2080.91</ele>
        <time>2019-07-06T09:52:48Z</time>
      </trkpt>
      <trkpt lat="42.4606466107" lon="19.7975795344">
        <ele>2080.91</ele>
        <time>2019-07-06T09:53:00Z</time>
      </trkpt>
      <trkpt lat="42.4607196171" lon="19.7975214478">
        <ele>2082.35</ele>
        <time>2019-07-06T09:53:12Z</time>
      </trkpt>
      <trkpt lat="42.4607711658" lon="19.7974872496">
        <ele>2082.83</ele>
        <time>2019-07-06T09:53:23Z</time>
      </trkpt>
      <trkpt lat="42.4607803859" lon="19.7974505369">
        <ele>2085.72</ele>
        <time>2019-07-06T09:53:36Z</time>
      </trkpt>
      <trkpt lat="42.4608586729" lon="19.7974346112">
        <ele>2087.64</ele>
        <time>2019-07-06T09:53:49Z</time>
      </trkpt>
      <trkpt lat="42.4609244708" lon="19.7973936237">
        <ele>2089.56</ele>
        <time>2019-07-06T09:54:05Z</time>
      </trkpt>
      <trkpt lat="42.4610089604" lon="19.7974155843">
        <ele>2090.52</ele>
        <time>2019-07-06T09:54:17Z</time>
      </trkpt>
      <trkpt lat="42.4611021671" lon="19.7973725852">
        <ele>2091.97</ele>
        <time>2019-07-06T09:54:31Z</time>
      </trkpt>
      <trkpt lat="42.4611759279" lon="19.7973666340">
        <ele>2093.41</ele>
        <time>2019-07-06T09:54:42Z</time>
      </trkpt>
      <trkpt lat="42.4612044264" lon="19.7973520495">
        <ele>2093.89</ele>
        <time>2019-07-06T09:54:48Z</time>
      </trkpt>
      <trkpt lat="42.4612158258" lon="19.7972574178">
        <ele>2095.33</ele>
        <time>2019-07-06T09:55:00Z</time>
      </trkpt>
      <trkpt lat="42.4612434860" lon="19.7971823998">
        <ele>2096.29</ele>
        <time>2019-07-06T09:55:16Z</time>
      </trkpt>
      <trkpt lat="42.4613140617" lon="19.7970989160">
        <ele>2097.25</ele>
        <time>2019-07-06T09:55:28Z</time>
      </trkpt>
      <trkpt lat="42.4613188393" lon="19.7970964853">
        <ele>2097.73</ele>
        <time>2019-07-06T09:55:29Z</time>
      </trkpt>
      <trkpt lat="42.4613667838" lon="19.7970845830">
        <ele>2097.73</ele>
        <time>2019-07-06T09:55:35Z</time>
      </trkpt>
      <trkpt lat="42.4614454061" lon="19.7971290909">
        <ele>2099.18</ele>
        <time>2019-07-06T09:55:50Z</time>
      </trkpt>
      <trkpt lat="42.4614749942" lon="19.7971886024">
        <ele>2100.62</ele>
        <time>2019-07-06T09:56:01Z</time>
      </trkpt>
      <trkpt lat="42.4614610802" lon="19.7971973196">
        <ele>2101.10</ele>
        <time>2019-07-06T09:56:17Z</time>
      </trkpt>
      <trkpt lat="42.4614665285" lon="19.7972290032">
        <ele>2102.06</ele>
        <time>2019-07-06T09:56:38Z</time>
      </trkpt>
      <trkpt lat="42.4614593200" lon="19.7972673085">
        <ele>2102.54</ele>
        <time>2019-07-06T09:56:58Z</time>
      </trkpt>
      <trkpt lat="42.4614978768" lon="19.7971904464">
        <ele>2102.54</ele>
        <time>2019-07-06T09:57:23Z</time>
      </trkpt>
      <trkpt lat="42.4614127167" lon="19.7972174361">
        <ele>2102.06</ele>
        <time>2019-07-06T09:57:55Z</time>
      </trkpt>
      <trkpt lat="42.4614071846" lon="19.7971963137">
        <ele>2101.58</ele>
        <time>2019-07-06T09:58:20Z</time>
      </trkpt>
      <trkpt lat="42.4613959529" lon="19.7972487845">
        <ele>2101.10</ele>
        <time>2019-07-06T09:58:50Z</time>
      </trkpt>
      <trkpt lat="42.4614149798" lon="19.7973084636">
        <ele>2101.58</ele>
        <time>2019-07-06T09:59:19Z</time>
      </trkpt>
      <trkpt lat="42.4613873195" lon="19.7970961500">
        <ele>2101.10</ele>
        <time>2019-07-06T09:59:37Z</time>
      </trkpt>
      <trkpt lat="42.4613560550" lon="19.7972096410">
        <ele>2100.62</ele>
        <time>2019-07-06T10:00:02Z</time>
      </trkpt>
      <trkpt lat="42.4614083581" lon="19.7972197831">
        <ele>2100.62</ele>
        <time>2019-07-06T10:00:19Z</time>
      </trkpt>
      <trkpt lat="42.4614132196" lon="19.7972210404">
        <ele>2099.18</ele>
        <time>2019-07-06T10:00:22Z</time>
      </trkpt>
      <trkpt lat="42.4614096154" lon="19.7972706612">
        <ele>2099.18</ele>
        <time>2019-07-06T10:00:52Z</time>
      </trkpt>
      <trkpt lat="42.4615464918" lon="19.7972606868">
        <ele>2098.70</ele>
        <time>2019-07-06T10:01:16Z</time>
      </trkpt>
      <trkpt lat="42.4616028182" lon="19.7972532269">
        <ele>2101.58</ele>
        <time>2019-07-06T10:01:28Z</time>
      </trkpt>
      <trkpt lat="42.4616552889" lon="19.7972527239">
        <ele>2102.06</ele>
        <time>2019-07-06T10:01:43Z</time>
      </trkpt>
      <trkpt lat="42.4616984557" lon="19.7972757742">
        <ele>2103.50</ele>
        <time>2019-07-06T10:01:55Z</time>
      </trkpt>
      <trkpt lat="42.4616456497" lon="19.7971438430">
        <ele>2105.42</ele>
        <time>2019-07-06T10:02:09Z</time>
      </trkpt>
      <trkpt lat="42.4616257846" lon="19.7970394883">
        <ele>2106.87</ele>
        <time>2019-07-06T10:02:22Z</time>
      </trkpt>
      <trkpt lat="42.4616317358" lon="19.7969529871">
        <ele>2108.79</ele>
        <time>2019-07-06T10:02:34Z</time>
      </trkpt>
      <trkpt lat="42.4617018923" lon="19.7968898714">
        <ele>2109.75</ele>
        <time>2019-07-06T10:02:47Z</time>
      </trkpt>
      <trkpt lat="42.4617355876" lon="19.7969005164">
        <ele>2109.75</ele>
        <time>2019-07-06T10:03:03Z</time>
      </trkpt>
      <trkpt lat="42.4617371801" lon="19.7968902905">
        <ele>2108.31</ele>
        <time>2019-07-06T10:03:06Z</time>
      </trkpt>
      <trkpt lat="42.4617236014" lon="19.7968760412">
        <ele>2108.31</ele>
        <time>2019-07-06T10:03:48Z</time>
      </trkpt>
      <trkpt lat="42.4617194943" lon="19.7968617920">
        <ele>2107.83</ele>
        <time>2019-07-06T10:04:23Z</time>
      </trkpt>
      <trkpt lat="42.4617080111" lon="19.7968444414">
        <ele>2107.83</ele>
        <time>2019-07-06T10:04:46Z</time>
      </trkpt>
      <trkpt lat="42.4617022276" lon="19.7968225647">
        <ele>2107.83</ele>
        <time>2019-07-06T10:05:23Z</time>
      </trkpt>
      <trkpt lat="42.4617165606" lon="19.7968191281">
        <ele>2107.83</ele>
        <time>2019-07-06T10:05:49Z</time>
      </trkpt>
      <trkpt lat="42.4617015570" lon="19.7968485486">
        <ele>2107.83</ele>
        <time>2019-07-06T10:06:14Z</time>
      </trkpt>
      <trkpt lat="42.4617161416" lon="19.7968256660">
        <ele>2108.31</ele>
        <time>2019-07-06T10:06:54Z</time>
      </trkpt>
      <trkpt lat="42.4617115315" lon="19.7968184575">
        <ele>2108.31</ele>
        <time>2019-07-06T10:07:27Z</time>
      </trkpt>
      <trkpt lat="42.4617219251" lon="19.7968126740">
        <ele>2108.79</ele>
        <time>2019-07-06T10:08:00Z</time>
      </trkpt>
      <trkpt lat="42.4617155548" lon="19.7967762966">
        <ele>2108.79</ele>
        <time>2019-07-06T10:08:39Z</time>
      </trkpt>
      <trkpt lat="42.4617081787" lon="19.7968135960">
        <ele>2108.79</ele>
        <time>2019-07-06T10:09:07Z</time>
      </trkpt>
      <trkpt lat="42.4617184885" lon="19.7968168650">
        <ele>2110.23</ele>
        <time>2019-07-06T10:09:32Z</time>
      </trkpt>
      <trkpt lat="42.4617485795" lon="19.7968398314">
        <ele>2110.23</ele>
        <time>2019-07-06T10:09:51Z</time>
      </trkpt>
      <trkpt lat="42.4617297202" lon="19.7968121711">
        <ele>2110.23</ele>
        <time>2019-07-06T10:10:06Z</time>
      </trkpt>
      <trkpt lat="42.4617266189" lon="19.7968162782">
        <ele>2110.71</ele>
        <time>2019-07-06T10:10:28Z</time>
      </trkpt>
      <trkpt lat="42.4617307261" lon="19.7968095727">
        <ele>2110.71</ele>
        <time>2019-07-06T10:10:50Z</time>
      </trkpt>
      <trkpt lat="42.4616915826" lon="19.7968004365">
        <ele>2110.71</ele>
        <time>2019-07-06T10:11:20Z</time>
      </trkpt>
      <trkpt lat="42.4617331568" lon="19.7967612091">
        <ele>2110.71</ele>
        <time>2019-07-06T10:11:36Z</time>
      </trkpt>
      <trkpt lat="42.4617502559" lon="19.7967769671">
        <ele>2109.75</ele>
        <time>2019-07-06T10:11:41Z</time>
      </trkpt>
      <trkpt lat="42.4617154710" lon="19.7967383265">
        <ele>2109.27</ele>
        <time>2019-07-06T10:11:59Z</time>
      </trkpt>
      <trkpt lat="42.4617188238" lon="19.7967710160">
        <ele>2109.27</ele>
        <time>2019-07-06T10:12:22Z</time>
      </trkpt>
      <trkpt lat="42.4617296364" lon="19.7967751231">
        <ele>2109.27</ele>
        <time>2019-07-06T10:12:52Z</time>
      </trkpt>
      <trkpt lat="42.4617574643" lon="19.7967711836">
        <ele>2108.31</ele>
        <time>2019-07-06T10:13:12Z</time>
      </trkpt>
      <trkpt lat="42.4617688637" lon="19.7966916393">
        <ele>2105.91</ele>
        <time>2019-07-06T10:13:23Z</time>
      </trkpt>
      <trkpt lat="42.4618309736" lon="19.7967309505">
        <ele>2103.98</ele>
        <time>2019-07-06T10:13:36Z</time>
      </trkpt>
      <trkpt lat="42.4618740566" lon="19.7967649810">
        <ele>2101.10</ele>
        <time>2019-07-06T10:13:48Z</time>
      </trkpt>
      <trkpt lat="42.4619279522" lon="19.7967963293">
        <ele>2098.21</ele>
        <time>2019-07-06T10:13:59Z</time>
      </trkpt>
      <trkpt lat="42.4619388487" lon="19.7966965847">
        <ele>2096.29</ele>
        <time>2019-07-06T10:14:10Z</time>
      </trkpt>
      <trkpt lat="42.4619707000" lon="19.7966570221">
        <ele>2093.41</ele>
        <time>2019-07-06T10:14:20Z</time>
      </trkpt>
      <trkpt lat="42.4619930796" lon="19.7966681700">
        <ele>2092.93</ele>
        <time>2019-07-06T10:14:23Z</time>
      </trkpt>
      <trkpt lat="42.4620478135" lon="19.7966942377">
        <ele>2091.00</ele>
        <time>2019-07-06T10:14:31Z</time>
      </trkpt>
      <trkpt lat="42.4621140305" lon="19.7966909688">
        <ele>2089.56</ele>
        <time>2019-07-06T10:14:43Z</time>
      </trkpt>
      <trkpt lat="42.4621372484" lon="19.7966733668">
        <ele>2088.12</ele>
        <time>2019-07-06T10:14:47Z</time>
      </trkpt>
      <trkpt lat="42.4621136952" lon="19.7966067307">
        <ele>2086.68</ele>
        <time>2019-07-06T10:14:52Z</time>
      </trkpt>
      <trkpt lat="42.4620879628" lon="19.7965304554">
        <ele>2085.72</ele>
        <time>2019-07-06T10:14:57Z</time>
      </trkpt>
      <trkpt lat="42.4620616436" lon="19.7964735422">
        <ele>2084.28</ele>
        <time>2019-07-06T10:15:03Z</time>
      </trkpt>
      <trkpt lat="42.4620375037" lon="19.7964140307">
        <ele>2081.87</ele>
        <time>2019-07-06T10:15:17Z</time>
      </trkpt>
      <trkpt lat="42.4620320555" lon="19.7962920740">
        <ele>2079.47</ele>
        <time>2019-07-06T10:15:31Z</time>
      </trkpt>
      <trkpt lat="42.4620240089" lon="19.7962591331">
        <ele>2077.55</ele>
        <time>2019-07-06T10:15:37Z</time>
      </trkpt>
      <trkpt lat="42.4620919861" lon="19.7962797526">
        <ele>2074.18</ele>
        <time>2019-07-06T10:15:48Z</time>
      </trkpt>
      <trkpt lat="42.4620654993" lon="19.7961924970">
        <ele>2073.22</ele>
        <time>2019-07-06T10:15:56Z</time>
      </trkpt>
      <trkpt lat="42.4621004518" lon="19.7960045747">
        <ele>2069.38</ele>
        <time>2019-07-06T10:16:10Z</time>
      </trkpt>
      <trkpt lat="42.4621246755" lon="19.7959352564">
        <ele>2068.41</ele>
        <time>2019-07-06T10:16:16Z</time>
      </trkpt>
      <trkpt lat="42.4621396791" lon="19.7959193308">
        <ele>2067.93</ele>
        <time>2019-07-06T10:16:20Z</time>
      </trkpt>
      <trkpt lat="42.4621779006" lon="19.7958251182">
        <ele>2064.57</ele>
        <time>2019-07-06T10:16:33Z</time>
      </trkpt>
      <trkpt lat="42.4621815048" lon="19.7958412953">
        <ele>2062.17</ele>
        <time>2019-07-06T10:16:44Z</time>
      </trkpt>
      <trkpt lat="42.4621749669" lon="19.7958226874">
        <ele>2062.17</ele>
        <time>2019-07-06T10:16:45Z</time>
      </trkpt>
      <trkpt lat="42.4621445406" lon="19.7957663611">
        <ele>2062.17</ele>
        <time>2019-07-06T10:16:49Z</time>
      </trkpt>
      <trkpt lat="42.4620976858" lon="19.7957018204">
        <ele>2059.28</ele>
        <time>2019-07-06T10:17:02Z</time>
      </trkpt>
      <trkpt lat="42.4621363264" lon="19.7956874873">
        <ele>2056.88</ele>
        <time>2019-07-06T10:17:13Z</time>
      </trkpt>
      <trkpt lat="42.4621338118" lon="19.7956793569">
        <ele>2056.40</ele>
        <time>2019-07-06T10:17:14Z</time>
      </trkpt>
      <trkpt lat="42.4620903097" lon="19.7956190910">
        <ele>2053.99</ele>
        <time>2019-07-06T10:17:26Z</time>
      </trkpt>
      <trkpt lat="42.4620798323" lon="19.7955308296">
        <ele>2051.11</ele>
        <time>2019-07-06T10:17:38Z</time>
      </trkpt>
      <trkpt lat="42.4621041398" lon="19.7954791132">
        <ele>2049.67</ele>
        <time>2019-07-06T10:17:44Z</time>
      </trkpt>
      <trkpt lat="42.4621377513" lon="19.7954016645">
        <ele>2047.75</ele>
        <time>2019-07-06T10:17:52Z</time>
      </trkpt>
      <trkpt lat="42.4621413555" lon="19.7953904327">
        <ele>2047.75</ele>
        <time>2019-07-06T10:17:53Z</time>
      </trkpt>
      <trkpt lat="42.4622012861" lon="19.7952984832">
        <ele>2044.86</ele>
        <time>2019-07-06T10:18:05Z</time>
      </trkpt>
      <trkpt lat="42.4622265156" lon="19.7952690627">
        <ele>2044.38</ele>
        <time>2019-07-06T10:18:09Z</time>
      </trkpt>
      <trkpt lat="42.4622019567" lon="19.7951918654">
        <ele>2043.90</ele>
        <time>2019-07-06T10:18:14Z</time>
      </trkpt>
      <trkpt lat="42.4621584546" lon="19.7950177733">
        <ele>2042.94</ele>
        <time>2019-07-06T10:18:27Z</time>
      </trkpt>
      <trkpt lat="42.4621166289" lon="19.7948951460">
        <ele>2042.46</ele>
        <time>2019-07-06T10:18:41Z</time>
      </trkpt>
      <trkpt lat="42.4621079955" lon="19.7948683240">
        <ele>2040.54</ele>
        <time>2019-07-06T10:18:48Z</time>
      </trkpt>
      <trkpt lat="42.4620961770" lon="19.7948002629">
        <ele>2039.09</ele>
        <time>2019-07-06T10:18:53Z</time>
      </trkpt>
      <trkpt lat="42.4620861188" lon="19.7947447747">
        <ele>2039.09</ele>
        <time>2019-07-06T10:18:59Z</time>
      </trkpt>
      <trkpt lat="42.4620415270" lon="19.7946788091">
        <ele>2038.13</ele>
        <time>2019-07-06T10:19:08Z</time>
      </trkpt>
      <trkpt lat="42.4619854521" lon="19.7946549207">
        <ele>2037.17</ele>
        <time>2019-07-06T10:19:15Z</time>
      </trkpt>
      <trkpt lat="42.4619080871" lon="19.7945621330">
        <ele>2037.17</ele>
        <time>2019-07-06T10:19:24Z</time>
      </trkpt>
      <trkpt lat="42.4618202448" lon="19.7945127636">
        <ele>2036.21</ele>
        <time>2019-07-06T10:19:39Z</time>
      </trkpt>
      <trkpt lat="42.4617509264" lon="19.7944956645">
        <ele>2036.21</ele>
        <time>2019-07-06T10:19:52Z</time>
      </trkpt>
      <trkpt lat="42.4617126212" lon="19.7944270167">
        <ele>2035.73</ele>
        <time>2019-07-06T10:20:01Z</time>
      </trkpt>
      <trkpt lat="42.4616549537" lon="19.7943700198">
        <ele>2037.65</ele>
        <time>2019-07-06T10:20:12Z</time>
      </trkpt>
      <trkpt lat="42.4616708793" lon="19.7943064850">
        <ele>2037.65</ele>
        <time>2019-07-06T10:20:18Z</time>
      </trkpt>
      <trkpt lat="42.4616669398" lon="19.7942270245">
        <ele>2036.21</ele>
        <time>2019-07-06T10:20:27Z</time>
      </trkpt>
      <trkpt lat="42.4616414588" lon="19.7941246815">
        <ele>2034.29</ele>
        <time>2019-07-06T10:20:39Z</time>
      </trkpt>
      <trkpt lat="42.4616489187" lon="19.7940698639">
        <ele>2031.40</ele>
        <time>2019-07-06T10:20:54Z</time>
      </trkpt>
      <trkpt lat="42.4616559595" lon="19.7940033954">
        <ele>2029.48</ele>
        <time>2019-07-06T10:21:01Z</time>
      </trkpt>
      <trkpt lat="42.4616590608" lon="19.7938949335">
        <ele>2029.00</ele>
        <time>2019-07-06T10:21:14Z</time>
      </trkpt>
      <trkpt lat="42.4616588093" lon="19.7938355897">
        <ele>2029.00</ele>
        <time>2019-07-06T10:21:18Z</time>
      </trkpt>
      <trkpt lat="42.4616360106" lon="19.7937300615">
        <ele>2028.52</ele>
        <time>2019-07-06T10:21:33Z</time>
      </trkpt>
      <trkpt lat="42.4616157264" lon="19.7937783413">
        <ele>2028.52</ele>
        <time>2019-07-06T10:21:47Z</time>
      </trkpt>
      <trkpt lat="42.4616080988" lon="19.7936591506">
        <ele>2028.52</ele>
        <time>2019-07-06T10:22:03Z</time>
      </trkpt>
      <trkpt lat="42.4616254494" lon="19.7935809474">
        <ele>2027.08</ele>
        <time>2019-07-06T10:22:10Z</time>
      </trkpt>
      <trkpt lat="42.4616391119" lon="19.7935231961">
        <ele>2026.12</ele>
        <time>2019-07-06T10:22:15Z</time>
      </trkpt>
      <trkpt lat="42.4616520200" lon="19.7934229486">
        <ele>2026.12</ele>
        <time>2019-07-06T10:22:25Z</time>
      </trkpt>
      <trkpt lat="42.4616690353" lon="19.7933607548">
        <ele>2025.64</ele>
        <time>2019-07-06T10:22:32Z</time>
      </trkpt>
      <trkpt lat="42.4617322348" lon="19.7932556458">
        <ele>2023.23</ele>
        <time>2019-07-06T10:22:44Z</time>
      </trkpt>
      <trkpt lat="42.4617834482" lon="19.7931540571">
        <ele>2022.27</ele>
        <time>2019-07-06T10:22:58Z</time>
      </trkpt>
      <trkpt lat="42.4618221726" lon="19.7930560727">
        <ele>2019.39</ele>
        <time>2019-07-06T10:23:10Z</time>
      </trkpt>
      <trkpt lat="42.4618604779" lon="19.7930347826">
        <ele>2017.46</ele>
        <time>2019-07-06T10:23:21Z</time>
      </trkpt>
      <trkpt lat="42.4618749786" lon="19.7929821443">
        <ele>2014.58</ele>
        <time>2019-07-06T10:23:33Z</time>
      </trkpt>
      <trkpt lat="42.4618605617" lon="19.7929683141">
        <ele>2014.58</ele>
        <time>2019-07-06T10:23:36Z</time>
      </trkpt>
      <trkpt lat="42.4618327338" lon="19.7928527277">
        <ele>2013.62</ele>
        <time>2019-07-06T10:23:48Z</time>
      </trkpt>
      <trkpt lat="42.4618265312" lon="19.7927755304">
        <ele>2013.14</ele>
        <time>2019-07-06T10:23:55Z</time>
      </trkpt>
      <trkpt lat="42.4618410319" lon="19.7926687449">
        <ele>2011.70</ele>
        <time>2019-07-06T10:24:04Z</time>
      </trkpt>
      <trkpt lat="42.4618629087" lon="19.7925333772">
        <ele>2012.66</ele>
        <time>2019-07-06T10:24:16Z</time>
      </trkpt>
      <trkpt lat="42.4618692789" lon="19.7924793977">
        <ele>2013.14</ele>
        <time>2019-07-06T10:24:20Z</time>
      </trkpt>
      <trkpt lat="42.4618588015" lon="19.7923817486">
        <ele>2016.02</ele>
        <time>2019-07-06T10:24:32Z</time>
      </trkpt>
      <trkpt lat="42.4618288781" lon="19.7923876159">
        <ele>2016.02</ele>
        <time>2019-07-06T10:24:44Z</time>
      </trkpt>
      <trkpt lat="42.4617868010" lon="19.7923296131">
        <ele>2016.02</ele>
        <time>2019-07-06T10:24:55Z</time>
      </trkpt>
      <trkpt lat="42.4617603980" lon="19.7922436148">
        <ele>2016.50</ele>
        <time>2019-07-06T10:25:08Z</time>
      </trkpt>
      <trkpt lat="42.4617293011" lon="19.7921744641">
        <ele>2016.50</ele>
        <time>2019-07-06T10:25:21Z</time>
      </trkpt>
      <trkpt lat="42.4617022276" lon="19.7921109293">
        <ele>2016.50</ele>
        <time>2019-07-06T10:25:32Z</time>
      </trkpt>
      <trkpt lat="42.4616549537" lon="19.7920571174">
        <ele>2016.50</ele>
        <time>2019-07-06T10:25:45Z</time>
      </trkpt>
      <trkpt lat="42.4616112001" lon="19.7919342387">
        <ele>2014.58</ele>
        <time>2019-07-06T10:26:00Z</time>
      </trkpt>
      <trkpt lat="42.4615797680" lon="19.7919319756">
        <ele>2014.10</ele>
        <time>2019-07-06T10:26:20Z</time>
      </trkpt>
      <trkpt lat="42.4616190791" lon="19.7916484158">
        <ele>2014.10</ele>
        <time>2019-07-06T10:26:45Z</time>
      </trkpt>
      <trkpt lat="42.4616163131" lon="19.7916930076">
        <ele>2014.10</ele>
        <time>2019-07-06T10:26:47Z</time>
      </trkpt>
      <trkpt lat="42.4616273772" lon="19.7918341588">
        <ele>2011.70</ele>
        <time>2019-07-06T10:27:00Z</time>
      </trkpt>
      <trkpt lat="42.4616317358" lon="19.7918172274">
        <ele>2010.25</ele>
        <time>2019-07-06T10:27:03Z</time>
      </trkpt>
      <trkpt lat="42.4616432190" lon="19.7917547822">
        <ele>2007.37</ele>
        <time>2019-07-06T10:27:14Z</time>
      </trkpt>
      <trkpt lat="42.4616828654" lon="19.7916607372">
        <ele>2004.49</ele>
        <time>2019-07-06T10:27:26Z</time>
      </trkpt>
      <trkpt lat="42.4616671912" lon="19.7915922571">
        <ele>2001.60</ele>
        <time>2019-07-06T10:27:35Z</time>
      </trkpt>
      <trkpt lat="42.4616797641" lon="19.7915415466">
        <ele>2000.16</ele>
        <time>2019-07-06T10:27:39Z</time>
      </trkpt>
      <trkpt lat="42.4616475776" lon="19.7913974617">
        <ele>1997.28</ele>
        <time>2019-07-06T10:27:53Z</time>
      </trkpt>
      <trkpt lat="42.4616308976" lon="19.7913507745">
        <ele>1996.32</ele>
        <time>2019-07-06T10:27:57Z</time>
      </trkpt>
      <trkpt lat="42.4616184086" lon="19.7913306579">
        <ele>1995.83</ele>
        <time>2019-07-06T10:27:59Z</time>
      </trkpt>
      <trkpt lat="42.4615332484" lon="19.7913077753">
        <ele>1994.39</ele>
        <time>2019-07-06T10:28:09Z</time>
      </trkpt>
      <trkpt lat="42.4614656065" lon="19.7911891714">
        <ele>1992.47</ele>
        <time>2019-07-06T10:28:19Z</time>
      </trkpt>
      <trkpt lat="42.4613924325" lon="19.7911134828">
        <ele>1989.59</ele>
        <time>2019-07-06T10:28:27Z</time>
      </trkpt>
      <trkpt lat="42.4612890836" lon="19.7910018358">
        <ele>1988.14</ele>
        <time>2019-07-06T10:28:40Z</time>
      </trkpt>
      <trkpt lat="42.4612453301" lon="19.7909206152">
        <ele>1987.66</ele>
        <time>2019-07-06T10:28:49Z</time>
      </trkpt>
      <trkpt lat="42.4612172507" lon="19.7908155061">
        <ele>1987.66</ele>
        <time>2019-07-06T10:28:59Z</time>
      </trkpt>
      <trkpt lat="42.4612142332" lon="19.7907903604">
        <ele>1989.10</ele>
        <time>2019-07-06T10:29:01Z</time>
      </trkpt>
      <trkpt lat="42.4611829687" lon="19.7906809766">
        <ele>1989.59</ele>
        <time>2019-07-06T10:29:13Z</time>
      </trkpt>
      <trkpt lat="42.4611723237" lon="19.7905249055">
        <ele>1989.59</ele>
        <time>2019-07-06T10:29:25Z</time>
      </trkpt>
      <trkpt lat="42.4611815438" lon="19.7904877737">
        <ele>1988.14</ele>
        <time>2019-07-06T10:29:38Z</time>
      </trkpt>
      <trkpt lat="42.4612221960" lon="19.7904499713">
        <ele>1985.26</ele>
        <time>2019-07-06T10:29:50Z</time>
      </trkpt>
      <trkpt lat="42.4612511974" lon="19.7904181201">
        <ele>1983.82</ele>
        <time>2019-07-06T10:29:59Z</time>
      </trkpt>
      <trkpt lat="42.4613110442" lon="19.7903581057">
        <ele>1981.41</ele>
        <time>2019-07-06T10:30:08Z</time>
      </trkpt>
      <trkpt lat="42.4613300711" lon="19.7903458681">
        <ele>1980.93</ele>
        <time>2019-07-06T10:30:10Z</time>
      </trkpt>
      <trkpt lat="42.4613796920" lon="19.7902634740">
        <ele>1978.53</ele>
        <time>2019-07-06T10:30:22Z</time>
      </trkpt>
      <trkpt lat="42.4613201804" lon="19.7901959997">
        <ele>1975.65</ele>
        <time>2019-07-06T10:30:34Z</time>
      </trkpt>
      <trkpt lat="42.4613107089" lon="19.7901641484">
        <ele>1973.72</ele>
        <time>2019-07-06T10:30:45Z</time>
      </trkpt>
      <trkpt lat="42.4614159856" lon="19.7900863644">
        <ele>1970.36</ele>
        <time>2019-07-06T10:30:57Z</time>
      </trkpt>
      <trkpt lat="42.4614694621" lon="19.7899195645">
        <ele>1969.40</ele>
        <time>2019-07-06T10:31:08Z</time>
      </trkpt>
      <trkpt lat="42.4614718091" lon="19.7898478154">
        <ele>1968.92</ele>
        <time>2019-07-06T10:31:21Z</time>
      </trkpt>
      <trkpt lat="42.4614919256" lon="19.7897978593">
        <ele>1967.48</ele>
        <time>2019-07-06T10:31:34Z</time>
      </trkpt>
      <trkpt lat="42.4614820350" lon="19.7897808440">
        <ele>1967.48</ele>
        <time>2019-07-06T10:31:42Z</time>
      </trkpt>
      <trkpt lat="42.4615145568" lon="19.7896888945">
        <ele>1966.03</ele>
        <time>2019-07-06T10:31:57Z</time>
      </trkpt>
      <trkpt lat="42.4615199212" lon="19.7896564566">
        <ele>1966.03</ele>
        <time>2019-07-06T10:32:14Z</time>
      </trkpt>
      <trkpt lat="42.4615718890" lon="19.7895601485">
        <ele>1963.15</ele>
        <time>2019-07-06T10:32:27Z</time>
      </trkpt>
      <trkpt lat="42.4615915027" lon="19.7895471565">
        <ele>1963.15</ele>
        <time>2019-07-06T10:32:46Z</time>
      </trkpt>
      <trkpt lat="42.4616080150" lon="19.7894930933">
        <ele>1962.19</ele>
        <time>2019-07-06T10:32:51Z</time>
      </trkpt>
      <trkpt lat="42.4616902415" lon="19.7893241141">
        <ele>1958.82</ele>
        <time>2019-07-06T10:33:05Z</time>
      </trkpt>
      <trkpt lat="42.4617618229" lon="19.7891887464">
        <ele>1958.82</ele>
        <time>2019-07-06T10:33:19Z</time>
      </trkpt>
      <trkpt lat="42.4618061632" lon="19.7891159914">
        <ele>1957.86</ele>
        <time>2019-07-06T10:33:30Z</time>
      </trkpt>
      <trkpt lat="42.4618893955" lon="19.7890217789">
        <ele>1957.86</ele>
        <time>2019-07-06T10:33:42Z</time>
      </trkpt>
      <trkpt lat="42.4619351607" lon="19.7890170850">
        <ele>1956.42</ele>
        <time>2019-07-06T10:33:57Z</time>
      </trkpt>
      <trkpt lat="42.4619691912" lon="19.7889271472">
        <ele>1955.46</ele>
        <time>2019-07-06T10:34:07Z</time>
      </trkpt>
      <trkpt lat="42.4619731307" lon="19.7889108863">
        <ele>1955.46</ele>
        <time>2019-07-06T10:34:25Z</time>
      </trkpt>
      <trkpt lat="42.4619868770" lon="19.7888835613">
        <ele>1954.98</ele>
        <time>2019-07-06T10:34:41Z</time>
      </trkpt>
      <trkpt lat="42.4619960971" lon="19.7887692321">
        <ele>1954.02</ele>
        <time>2019-07-06T10:34:53Z</time>
      </trkpt>
      <trkpt lat="42.4619941693" lon="19.7887502052">
        <ele>1954.02</ele>
        <time>2019-07-06T10:34:55Z</time>
      </trkpt>
      <trkpt lat="42.4619935825" lon="19.7886839043">
        <ele>1953.54</ele>
        <time>2019-07-06T10:35:09Z</time>
      </trkpt>
      <trkpt lat="42.4620226678" lon="19.7885589302">
        <ele>1951.13</ele>
        <time>2019-07-06T10:35:23Z</time>
      </trkpt>
      <trkpt lat="42.4620420299" lon="19.7884788830">
        <ele>1949.21</ele>
        <time>2019-07-06T10:35:35Z</time>
      </trkpt>
      <trkpt lat="42.4620628171" lon="19.7884041164">
        <ele>1947.77</ele>
        <time>2019-07-06T10:35:50Z</time>
      </trkpt>
      <trkpt lat="42.4620587099" lon="19.7883569263">
        <ele>1946.81</ele>
        <time>2019-07-06T10:35:53Z</time>
      </trkpt>
      <trkpt lat="42.4620733783" lon="19.7883163579">
        <ele>1946.33</ele>
        <time>2019-07-06T10:35:56Z</time>
      </trkpt>
      <trkpt lat="42.4620393477" lon="19.7881421819">
        <ele>1944.40</ele>
        <time>2019-07-06T10:36:10Z</time>
      </trkpt>
      <trkpt lat="42.4619952589" lon="19.7881042119">
        <ele>1943.44</ele>
        <time>2019-07-06T10:36:21Z</time>
      </trkpt>
      <trkpt lat="42.4620126095" lon="19.7879988514">
        <ele>1943.44</ele>
        <time>2019-07-06T10:36:32Z</time>
      </trkpt>
      <trkpt lat="42.4620074965" lon="19.7879227437">
        <ele>1942.96</ele>
        <time>2019-07-06T10:36:48Z</time>
      </trkpt>
      <trkpt lat="42.4619984441" lon="19.7877095081">
        <ele>1942.96</ele>
        <time>2019-07-06T10:37:01Z</time>
      </trkpt>
      <trkpt lat="42.4620318040" lon="19.7878938261">
        <ele>1942.48</ele>
        <time>2019-07-06T10:37:25Z</time>
      </trkpt>
      <trkpt lat="42.4620448798" lon="19.7878688481">
        <ele>1941.52</ele>
        <time>2019-07-06T10:37:30Z</time>
      </trkpt>
      <trkpt lat="42.4620486517" lon="19.7877999488">
        <ele>1940.56</ele>
        <time>2019-07-06T10:37:35Z</time>
      </trkpt>
      <trkpt lat="42.4620417785" lon="19.7877727915">
        <ele>1939.60</ele>
        <time>2019-07-06T10:37:37Z</time>
      </trkpt>
      <trkpt lat="42.4619151279" lon="19.7876600549">
        <ele>1938.16</ele>
        <time>2019-07-06T10:37:50Z</time>
      </trkpt>
      <trkpt lat="42.4618762359" lon="19.7876100987">
        <ele>1938.16</ele>
        <time>2019-07-06T10:37:55Z</time>
      </trkpt>
      <trkpt lat="42.4618500844" lon="19.7875448037">
        <ele>1938.16</ele>
        <time>2019-07-06T10:37:59Z</time>
      </trkpt>
      <trkpt lat="42.4618462287" lon="19.7874735575">
        <ele>1938.16</ele>
        <time>2019-07-06T10:38:03Z</time>
      </trkpt>
      <trkpt lat="42.4618111085" lon="19.7873733938">
        <ele>1938.16</ele>
        <time>2019-07-06T10:38:10Z</time>
      </trkpt>
      <trkpt lat="42.4617914949" lon="19.7873329930">
        <ele>1937.67</ele>
        <time>2019-07-06T10:38:13Z</time>
      </trkpt>
      <trkpt lat="42.4617312290" lon="19.7872051690">
        <ele>1937.67</ele>
        <time>2019-07-06T10:38:25Z</time>
      </trkpt>
      <trkpt lat="42.4617218412" lon="19.7871489264">
        <ele>1937.67</ele>
        <time>2019-07-06T10:38:31Z</time>
      </trkpt>
      <trkpt lat="42.4617230147" lon="19.7870829608">
        <ele>1938.64</ele>
        <time>2019-07-06T10:38:38Z</time>
      </trkpt>
      <trkpt lat="42.4617690314" lon="19.7869169153">
        <ele>1938.16</ele>
        <time>2019-07-06T10:38:52Z</time>
      </trkpt>
      <trkpt lat="42.4617627449" lon="19.7867918573">
        <ele>1936.23</ele>
        <time>2019-07-06T10:39:02Z</time>
      </trkpt>
      <trkpt lat="42.4617877230" lon="19.7866051085">
        <ele>1935.27</ele>
        <time>2019-07-06T10:39:16Z</time>
      </trkpt>
      <trkpt lat="42.4618070852" lon="19.7865757719">
        <ele>1934.31</ele>
        <time>2019-07-06T10:39:19Z</time>
      </trkpt>
      <trkpt lat="42.4618135393" lon="19.7865302581">
        <ele>1933.35</ele>
        <time>2019-07-06T10:39:22Z</time>
      </trkpt>
      <trkpt lat="42.4618397746" lon="19.7863376420">
        <ele>1929.98</ele>
        <time>2019-07-06T10:39:35Z</time>
      </trkpt>
      <trkpt lat="42.4617849570" lon="19.7861498035">
        <ele>1929.02</ele>
        <time>2019-07-06T10:39:48Z</time>
      </trkpt>
      <trkpt lat="42.4617478251" lon="19.7859985940">
        <ele>1929.02</ele>
        <time>2019-07-06T10:40:00Z</time>
      </trkpt>
      <trkpt lat="42.4617437180" lon="19.7859866917">
        <ele>1930.46</ele>
        <time>2019-07-06T10:40:01Z</time>
      </trkpt>
      <trkpt lat="42.4617254455" lon="19.7859519906">
        <ele>1930.46</ele>
        <time>2019-07-06T10:40:04Z</time>
      </trkpt>
      <trkpt lat="42.4617076758" lon="19.7858417686">
        <ele>1930.95</ele>
        <time>2019-07-06T10:40:12Z</time>
      </trkpt>
      <trkpt lat="42.4616835359" lon="19.7857408505">
        <ele>1930.95</ele>
        <time>2019-07-06T10:40:19Z</time>
      </trkpt>
      <trkpt lat="42.4616904929" lon="19.7856331430">
        <ele>1930.95</ele>
        <time>2019-07-06T10:40:31Z</time>
      </trkpt>
      <trkpt lat="42.4616989587" lon="19.7854915727">
        <ele>1929.50</ele>
        <time>2019-07-06T10:40:43Z</time>
      </trkpt>
      <trkpt lat="42.4617528543" lon="19.7853675205">
        <ele>1929.50</ele>
        <time>2019-07-06T10:40:56Z</time>
      </trkpt>
      <trkpt lat="42.4617415387" lon="19.7852982022">
        <ele>1929.02</ele>
        <time>2019-07-06T10:41:08Z</time>
      </trkpt>
      <trkpt lat="42.4617341626" lon="19.7852473240">
        <ele>1928.54</ele>
        <time>2019-07-06T10:41:23Z</time>
      </trkpt>
      <trkpt lat="42.4617601465" lon="19.7852474079">
        <ele>1928.06</ele>
        <time>2019-07-06T10:41:40Z</time>
      </trkpt>
      <trkpt lat="42.4617774133" lon="19.7852456477">
        <ele>1928.06</ele>
        <time>2019-07-06T10:41:45Z</time>
      </trkpt>
      <trkpt lat="42.4618389364" lon="19.7852494195">
        <ele>1927.10</ele>
        <time>2019-07-06T10:42:00Z</time>
      </trkpt>
      <trkpt lat="42.4618809298" lon="19.7852474917">
        <ele>1926.62</ele>
        <time>2019-07-06T10:42:05Z</time>
      </trkpt>
      <trkpt lat="42.4619323947" lon="19.7852106951">
        <ele>1925.18</ele>
        <time>2019-07-06T10:42:15Z</time>
      </trkpt>
      <trkpt lat="42.4619678501" lon="19.7851222660">
        <ele>1923.25</ele>
        <time>2019-07-06T10:42:23Z</time>
      </trkpt>
      <trkpt lat="42.4620656669" lon="19.7850207612">
        <ele>1921.81</ele>
        <time>2019-07-06T10:42:36Z</time>
      </trkpt>
      <trkpt lat="42.4622058123" lon="19.7849205136">
        <ele>1921.33</ele>
        <time>2019-07-06T10:42:49Z</time>
      </trkpt>
      <trkpt lat="42.4623472150" lon="19.7847445775">
        <ele>1919.89</ele>
        <time>2019-07-06T10:43:02Z</time>
      </trkpt>
      <trkpt lat="42.4623909686" lon="19.7845819686">
        <ele>1919.41</ele>
        <time>2019-07-06T10:43:13Z</time>
      </trkpt>
      <trkpt lat="42.4624095764" lon="19.7845263127">
        <ele>1919.41</ele>
        <time>2019-07-06T10:43:17Z</time>
      </trkpt>
      <trkpt lat="42.4624346383" lon="19.7845130693">
        <ele>1919.41</ele>
        <time>2019-07-06T10:43:20Z</time>
      </trkpt>
      <trkpt lat="42.4625350535" lon="19.7844352853">
        <ele>1918.93</ele>
        <time>2019-07-06T10:43:30Z</time>
      </trkpt>
      <trkpt lat="42.4625838362" lon="19.7843487840">
        <ele>1918.45</ele>
        <time>2019-07-06T10:43:37Z</time>
      </trkpt>
      <trkpt lat="42.4626688287" lon="19.7842229716">
        <ele>1918.45</ele>
        <time>2019-07-06T10:43:50Z</time>
      </trkpt>
      <trkpt lat="42.4627866782" lon="19.7840913758">
        <ele>1917.49</ele>
        <time>2019-07-06T10:44:01Z</time>
      </trkpt>
      <trkpt lat="42.4628809746" lon="19.7840106580">
        <ele>1914.60</ele>
        <time>2019-07-06T10:44:10Z</time>
      </trkpt>
      <trkpt lat="42.4629554059" lon="19.7838704288">
        <ele>1911.72</ele>
        <time>2019-07-06T10:44:23Z</time>
      </trkpt>
      <trkpt lat="42.4629466888" lon="19.7838304471">
        <ele>1911.72</ele>
        <time>2019-07-06T10:44:26Z</time>
      </trkpt>
      <trkpt lat="42.4629473593" lon="19.7837795690">
        <ele>1910.28</ele>
        <time>2019-07-06T10:44:30Z</time>
      </trkpt>
      <trkpt lat="42.4629349541" lon="19.7837257572">
        <ele>1909.32</ele>
        <time>2019-07-06T10:44:34Z</time>
      </trkpt>
      <trkpt lat="42.4629545677" lon="19.7835999448">
        <ele>1905.95</ele>
        <time>2019-07-06T10:44:45Z</time>
      </trkpt>
      <trkpt lat="42.4629680626" lon="19.7835473903">
        <ele>1904.99</ele>
        <time>2019-07-06T10:44:49Z</time>
      </trkpt>
      <trkpt lat="42.4629739299" lon="19.7834888846">
        <ele>1903.55</ele>
        <time>2019-07-06T10:44:53Z</time>
      </trkpt>
      <trkpt lat="42.4630038533" lon="19.7834132798">
        <ele>1902.11</ele>
        <time>2019-07-06T10:44:59Z</time>
      </trkpt>
      <trkpt lat="42.4630285800" lon="19.7833548579">
        <ele>1900.66</ele>
        <time>2019-07-06T10:45:05Z</time>
      </trkpt>
      <trkpt lat="42.4630674720" lon="19.7832976934">
        <ele>1899.70</ele>
        <time>2019-07-06T10:45:10Z</time>
      </trkpt>
      <trkpt lat="42.4631337728" lon="19.7832786664">
        <ele>1896.34</ele>
        <time>2019-07-06T10:45:21Z</time>
      </trkpt>
      <trkpt lat="42.4631461781" lon="19.7832702007">
        <ele>1895.86</ele>
        <time>2019-07-06T10:45:23Z</time>
      </trkpt>
      <trkpt lat="42.4631922785" lon="19.7832463961">
        <ele>1894.90</ele>
        <time>2019-07-06T10:45:30Z</time>
      </trkpt>
      <trkpt lat="42.4632736668" lon="19.7831565421">
        <ele>1891.05</ele>
        <time>2019-07-06T10:45:43Z</time>
      </trkpt>
      <trkpt lat="42.4633103795" lon="19.7830747347">
        <ele>1887.69</ele>
        <time>2019-07-06T10:45:56Z</time>
      </trkpt>
      <trkpt lat="42.4634125549" lon="19.7830804344">
        <ele>1885.28</ele>
        <time>2019-07-06T10:46:07Z</time>
      </trkpt>
      <trkpt lat="42.4634211045" lon="19.7830737289">
        <ele>1884.80</ele>
        <time>2019-07-06T10:46:08Z</time>
      </trkpt>
      <trkpt lat="42.4634423945" lon="19.7830540314">
        <ele>1883.84</ele>
        <time>2019-07-06T10:46:11Z</time>
      </trkpt>
      <trkpt lat="42.4635143951" lon="19.7829686198">
        <ele>1881.44</ele>
        <time>2019-07-06T10:46:25Z</time>
      </trkpt>
      <trkpt lat="42.4635619204" lon="19.7829552926">
        <ele>1878.07</ele>
        <time>2019-07-06T10:46:36Z</time>
      </trkpt>
      <trkpt lat="42.4636257067" lon="19.7829887364">
        <ele>1875.67</ele>
        <time>2019-07-06T10:46:49Z</time>
      </trkpt>
      <trkpt lat="42.4636306521" lon="19.7830045782">
        <ele>1874.71</ele>
        <time>2019-07-06T10:46:51Z</time>
      </trkpt>
      <trkpt lat="42.4636450689" lon="19.7830152232">
        <ele>1873.75</ele>
        <time>2019-07-06T10:46:53Z</time>
      </trkpt>
      <trkpt lat="42.4637223501" lon="19.7829501797">
        <ele>1871.34</ele>
        <time>2019-07-06T10:47:05Z</time>
      </trkpt>
      <trkpt lat="42.4637799338" lon="19.7828994691">
        <ele>1869.42</ele>
        <time>2019-07-06T10:47:17Z</time>
      </trkpt>
      <trkpt lat="42.4638300575" lon="19.7829137184">
        <ele>1867.02</ele>
        <time>2019-07-06T10:47:32Z</time>
      </trkpt>
      <trkpt lat="42.4638873059" lon="19.7828951944">
        <ele>1864.61</ele>
        <time>2019-07-06T10:47:42Z</time>
      </trkpt>
      <trkpt lat="42.4639285449" lon="19.7828999721">
        <ele>1864.13</ele>
        <time>2019-07-06T10:47:47Z</time>
      </trkpt>
      <trkpt lat="42.4639860447" lon="19.7828500159">
        <ele>1861.25</ele>
        <time>2019-07-06T10:47:58Z</time>
      </trkpt>
      <trkpt lat="42.4640431255" lon="19.7828116268">
        <ele>1859.33</ele>
        <time>2019-07-06T10:48:07Z</time>
      </trkpt>
      <trkpt lat="42.4641137850" lon="19.7827682085">
        <ele>1856.92</ele>
        <time>2019-07-06T10:48:20Z</time>
      </trkpt>
      <trkpt lat="42.4641528446" lon="19.7827462479">
        <ele>1854.52</ele>
        <time>2019-07-06T10:48:30Z</time>
      </trkpt>
      <trkpt lat="42.4641834386" lon="19.7827185038">
        <ele>1853.56</ele>
        <time>2019-07-06T10:48:36Z</time>
      </trkpt>
      <trkpt lat="42.4642002862" lon="19.7827124689">
        <ele>1853.08</ele>
        <time>2019-07-06T10:48:38Z</time>
      </trkpt>
      <trkpt lat="42.4642383400" lon="19.7827212699">
        <ele>1852.12</ele>
        <time>2019-07-06T10:48:43Z</time>
      </trkpt>
      <trkpt lat="42.4643061496" lon="19.7826665360">
        <ele>1849.23</ele>
        <time>2019-07-06T10:48:53Z</time>
      </trkpt>
      <trkpt lat="42.4643703550" lon="19.7826138977">
        <ele>1847.31</ele>
        <time>2019-07-06T10:49:05Z</time>
      </trkpt>
      <trkpt lat="42.4644172098" lon="19.7826615069">
        <ele>1844.43</ele>
        <time>2019-07-06T10:49:17Z</time>
      </trkpt>
      <trkpt lat="42.4644218199" lon="19.7826668713">
        <ele>1844.43</ele>
        <time>2019-07-06T10:49:18Z</time>
      </trkpt>
      <trkpt lat="42.4644719437" lon="19.7827185038">
        <ele>1841.54</ele>
        <time>2019-07-06T10:49:31Z</time>
      </trkpt>
      <trkpt lat="42.4645044655" lon="19.7827943601">
        <ele>1839.62</ele>
        <time>2019-07-06T10:49:42Z</time>
      </trkpt>
      <trkpt lat="42.4645480514" lon="19.7828688752">
        <ele>1836.74</ele>
        <time>2019-07-06T10:49:54Z</time>
      </trkpt>
      <trkpt lat="42.4645748734" lon="19.7829488385">
        <ele>1834.33</ele>
        <time>2019-07-06T10:50:06Z</time>
      </trkpt>
      <trkpt lat="42.4646420125" lon="19.7830088530">
        <ele>1830.97</ele>
        <time>2019-07-06T10:50:19Z</time>
      </trkpt>
      <trkpt lat="42.4646548368" lon="19.7829847969">
        <ele>1830.49</ele>
        <time>2019-07-06T10:50:23Z</time>
      </trkpt>
      <trkpt lat="42.4647109117" lon="19.7829558793">
        <ele>1828.08</ele>
        <time>2019-07-06T10:50:34Z</time>
      </trkpt>
      <trkpt lat="42.4647780508" lon="19.7828780115">
        <ele>1824.72</ele>
        <time>2019-07-06T10:50:47Z</time>
      </trkpt>
      <trkpt lat="42.4648079742" lon="19.7828671988">
        <ele>1823.76</ele>
        <time>2019-07-06T10:50:50Z</time>
      </trkpt>
      <trkpt lat="42.4648239836" lon="19.7828399576">
        <ele>1823.28</ele>
        <time>2019-07-06T10:50:53Z</time>
      </trkpt>
      <trkpt lat="42.4648471177" lon="19.7828236129">
        <ele>1822.80</ele>
        <time>2019-07-06T10:50:55Z</time>
      </trkpt>
      <trkpt lat="42.4647507258" lon="19.7826307453">
        <ele>1821.84</ele>
        <time>2019-07-06T10:51:07Z</time>
      </trkpt>
      <trkpt lat="42.4648273364" lon="19.7825668752">
        <ele>1818.95</ele>
        <time>2019-07-06T10:51:23Z</time>
      </trkpt>
      <trkpt lat="42.4648330361" lon="19.7825509496">
        <ele>1818.95</ele>
        <time>2019-07-06T10:51:27Z</time>
      </trkpt>
      <trkpt lat="42.4648701679" lon="19.7824922763">
        <ele>1816.55</ele>
        <time>2019-07-06T10:51:39Z</time>
      </trkpt>
      <trkpt lat="42.4648945592" lon="19.7825096268">
        <ele>1814.15</ele>
        <time>2019-07-06T10:51:50Z</time>
      </trkpt>
      <trkpt lat="42.4648232292" lon="19.7825790290">
        <ele>1812.22</ele>
        <time>2019-07-06T10:52:01Z</time>
      </trkpt>
      <trkpt lat="42.4648210499" lon="19.7826692183">
        <ele>1809.82</ele>
        <time>2019-07-06T10:52:13Z</time>
      </trkpt>
      <trkpt lat="42.4648592714" lon="19.7827310767">
        <ele>1806.94</ele>
        <time>2019-07-06T10:52:25Z</time>
      </trkpt>
      <trkpt lat="42.4648580141" lon="19.7827427275">
        <ele>1806.45</ele>
        <time>2019-07-06T10:52:26Z</time>
      </trkpt>
      <trkpt lat="42.4648800585" lon="19.7828423884">
        <ele>1804.05</ele>
        <time>2019-07-06T10:52:37Z</time>
      </trkpt>
      <trkpt lat="42.4649176095" lon="19.7829726432">
        <ele>1802.13</ele>
        <time>2019-07-06T10:52:49Z</time>
      </trkpt>
      <trkpt lat="42.4649798032" lon="19.7830508463">
        <ele>1799.73</ele>
        <time>2019-07-06T10:53:00Z</time>
      </trkpt>
      <trkpt lat="42.4650305137" lon="19.7829930950">
        <ele>1797.32</ele>
        <time>2019-07-06T10:53:13Z</time>
      </trkpt>
      <trkpt lat="42.4651073758" lon="19.7829548735">
        <ele>1794.44</ele>
        <time>2019-07-06T10:53:25Z</time>
      </trkpt>
      <trkpt lat="42.4651464354" lon="19.7829156462">
        <ele>1792.03</ele>
        <time>2019-07-06T10:53:38Z</time>
      </trkpt>
      <trkpt lat="42.4652014207" lon="19.7829256207">
        <ele>1789.15</ele>
        <time>2019-07-06T10:53:50Z</time>
      </trkpt>
      <trkpt lat="42.4652257282" lon="19.7830068413">
        <ele>1787.23</ele>
        <time>2019-07-06T10:54:02Z</time>
      </trkpt>
      <trkpt lat="42.4652811326" lon="19.7830133792">
        <ele>1784.82</ele>
        <time>2019-07-06T10:54:14Z</time>
      </trkpt>
      <trkpt lat="42.4653462600" lon="19.7829833720">
        <ele>1782.90</ele>
        <time>2019-07-06T10:54:26Z</time>
      </trkpt>
      <trkpt lat="42.4654092919" lon="19.7829871438">
        <ele>1780.50</ele>
        <time>2019-07-06T10:54:37Z</time>
      </trkpt>
      <trkpt lat="42.4654185958" lon="19.7829798516">
        <ele>1779.54</ele>
        <time>2019-07-06T10:54:39Z</time>
      </trkpt>
      <trkpt lat="42.4654538836" lon="19.7829586454">
        <ele>1779.06</ele>
        <time>2019-07-06T10:54:52Z</time>
      </trkpt>
      <trkpt lat="42.4654731620" lon="19.7829241958">
        <ele>1779.06</ele>
        <time>2019-07-06T10:55:12Z</time>
      </trkpt>
      <trkpt lat="42.4654546380" lon="19.7829651833">
        <ele>1779.06</ele>
        <time>2019-07-06T10:55:37Z</time>
      </trkpt>
      <trkpt lat="42.4654892553" lon="19.7829839587">
        <ele>1778.58</ele>
        <time>2019-07-06T10:56:03Z</time>
      </trkpt>
      <trkpt lat="42.4655206874" lon="19.7830453143">
        <ele>1775.69</ele>
        <time>2019-07-06T10:56:15Z</time>
      </trkpt>
      <trkpt lat="42.4655050971" lon="19.7831049096">
        <ele>1773.77</ele>
        <time>2019-07-06T10:56:25Z</time>
      </trkpt>
      <trkpt lat="42.4654992297" lon="19.7832194064">
        <ele>1770.41</ele>
        <time>2019-07-06T10:56:38Z</time>
      </trkpt>
      <trkpt lat="42.4655070249" lon="19.7832663450">
        <ele>1768.48</ele>
        <time>2019-07-06T10:56:43Z</time>
      </trkpt>
      <trkpt lat="42.4655419774" lon="19.7833453026">
        <ele>1766.56</ele>
        <time>2019-07-06T10:56:50Z</time>
      </trkpt>
      <trkpt lat="42.4655673746" lon="19.7833702806">
        <ele>1765.60</ele>
        <time>2019-07-06T10:56:54Z</time>
      </trkpt>
      <trkpt lat="42.4656060152" lon="19.7834431194">
        <ele>1763.20</ele>
        <time>2019-07-06T10:57:02Z</time>
      </trkpt>
      <trkpt lat="42.4656586535" lon="19.7835297883">
        <ele>1760.31</ele>
        <time>2019-07-06T10:57:12Z</time>
      </trkpt>
      <trkpt lat="42.4656744953" lon="19.7835727874">
        <ele>1758.87</ele>
        <time>2019-07-06T10:57:16Z</time>
      </trkpt>
      <trkpt lat="42.4657438975" lon="19.7836253420">
        <ele>1755.99</ele>
        <time>2019-07-06T10:57:27Z</time>
      </trkpt>
      <trkpt lat="42.4657766707" lon="19.7836362384">
        <ele>1755.02</ele>
        <time>2019-07-06T10:57:31Z</time>
      </trkpt>
      <trkpt lat="42.4658386130" lon="19.7836966719">
        <ele>1752.62</ele>
        <time>2019-07-06T10:57:38Z</time>
      </trkpt>
      <trkpt lat="42.4659365136" lon="19.7838064749">
        <ele>1749.26</ele>
        <time>2019-07-06T10:57:51Z</time>
      </trkpt>
      <trkpt lat="42.4659685325" lon="19.7839247435">
        <ele>1747.33</ele>
        <time>2019-07-06T10:58:03Z</time>
      </trkpt>
      <trkpt lat="42.4659834523" lon="19.7839824110">
        <ele>1745.89</ele>
        <time>2019-07-06T10:58:08Z</time>
      </trkpt>
      <trkpt lat="42.4659939297" lon="19.7840230633">
        <ele>1744.93</ele>
        <time>2019-07-06T10:58:12Z</time>
      </trkpt>
      <trkpt lat="42.4659937620" lon="19.7841270827">
        <ele>1741.57</ele>
        <time>2019-07-06T10:58:22Z</time>
      </trkpt>
      <trkpt lat="42.4660259485" lon="19.7842182778">
        <ele>1739.64</ele>
        <time>2019-07-06T10:58:33Z</time>
      </trkpt>
      <trkpt lat="42.4660789222" lon="19.7842903621">
        <ele>1736.76</ele>
        <time>2019-07-06T10:58:43Z</time>
      </trkpt>
      <trkpt lat="42.4661047384" lon="19.7843889333">
        <ele>1733.88</ele>
        <time>2019-07-06T10:58:55Z</time>
      </trkpt>
      <trkpt lat="42.4661453906" lon="19.7844484448">
        <ele>1730.99</ele>
        <time>2019-07-06T10:59:05Z</time>
      </trkpt>
      <trkpt lat="42.4662068300" lon="19.7845524643">
        <ele>1728.11</ele>
        <time>2019-07-06T10:59:16Z</time>
      </trkpt>
      <trkpt lat="42.4662231747" lon="19.7846527956">
        <ele>1726.18</ele>
        <time>2019-07-06T10:59:24Z</time>
      </trkpt>
      <trkpt lat="42.4662241805" lon="19.7847539652">
        <ele>1723.78</ele>
        <time>2019-07-06T10:59:35Z</time>
      </trkpt>
      <trkpt lat="42.4662776571" lon="19.7848230321">
        <ele>1721.38</ele>
        <time>2019-07-06T10:59:48Z</time>
      </trkpt>
      <trkpt lat="42.4662850332" lon="19.7848279774">
        <ele>1720.90</ele>
        <time>2019-07-06T10:59:49Z</time>
      </trkpt>
      <trkpt lat="42.4663767312" lon="19.7848789394">
        <ele>1718.01</ele>
        <time>2019-07-06T11:00:02Z</time>
      </trkpt>
      <trkpt lat="42.4664702732" lon="19.7848324198">
        <ele>1715.13</ele>
        <time>2019-07-06T11:00:15Z</time>
      </trkpt>
      <trkpt lat="42.4664788228" lon="19.7848293185">
        <ele>1715.13</ele>
        <time>2019-07-06T11:00:16Z</time>
      </trkpt>
      <trkpt lat="42.4665423576" lon="19.7847842239">
        <ele>1712.25</ele>
        <time>2019-07-06T11:00:28Z</time>
      </trkpt>
      <trkpt lat="42.4666085746" lon="19.7847036738">
        <ele>1708.88</ele>
        <time>2019-07-06T11:00:40Z</time>
      </trkpt>
      <trkpt lat="42.4667104986" lon="19.7845799569">
        <ele>1706.00</ele>
        <time>2019-07-06T11:00:54Z</time>
      </trkpt>
      <trkpt lat="42.4667911325" lon="19.7845031787">
        <ele>1703.59</ele>
        <time>2019-07-06T11:01:06Z</time>
      </trkpt>
      <trkpt lat="42.4668829981" lon="19.7844667174">
        <ele>1700.71</ele>
        <time>2019-07-06T11:01:18Z</time>
      </trkpt>
      <trkpt lat="42.4668915477" lon="19.7844645381">
        <ele>1700.71</ele>
        <time>2019-07-06T11:01:19Z</time>
      </trkpt>
      <trkpt lat="42.4669979140" lon="19.7844916116">
        <ele>1699.27</ele>
        <time>2019-07-06T11:01:32Z</time>
      </trkpt>
      <trkpt lat="42.4670259934" lon="19.7845186014">
        <ele>1698.31</ele>
        <time>2019-07-06T11:01:37Z</time>
      </trkpt>
      <trkpt lat="42.4670633767" lon="19.7845729161">
        <ele>1696.38</ele>
        <time>2019-07-06T11:01:43Z</time>
      </trkpt>
      <trkpt lat="42.4671324436" lon="19.7846681345">
        <ele>1693.98</ele>
        <time>2019-07-06T11:01:57Z</time>
      </trkpt>
      <trkpt lat="42.4671315216" lon="19.7847408056">
        <ele>1692.54</ele>
        <time>2019-07-06T11:02:04Z</time>
      </trkpt>
      <trkpt lat="42.4671197869" lon="19.7849142272">
        <ele>1691.58</ele>
        <time>2019-07-06T11:02:15Z</time>
      </trkpt>
      <trkpt lat="42.4671492074" lon="19.7849286441">
        <ele>1690.14</ele>
        <time>2019-07-06T11:02:19Z</time>
      </trkpt>
      <trkpt lat="42.4672117364" lon="19.7850173246">
        <ele>1688.69</ele>
        <time>2019-07-06T11:02:30Z</time>
      </trkpt>
      <trkpt lat="42.4672388937" lon="19.7850520257">
        <ele>1688.69</ele>
        <time>2019-07-06T11:02:46Z</time>
      </trkpt>
      <trkpt lat="42.4672376364" lon="19.7851041611">
        <ele>1688.69</ele>
        <time>2019-07-06T11:03:10Z</time>
      </trkpt>
      <trkpt lat="42.4672716670" lon="19.7851550393">
        <ele>1688.69</ele>
        <time>2019-07-06T11:03:33Z</time>
      </trkpt>
      <trkpt lat="42.4672424980" lon="19.7851175722">
        <ele>1688.21</ele>
        <time>2019-07-06T11:03:50Z</time>
      </trkpt>
      <trkpt lat="42.4672256503" lon="19.7850931808">
        <ele>1688.21</ele>
        <time>2019-07-06T11:04:19Z</time>
      </trkpt>
      <trkpt lat="42.4672367983" lon="19.7850703821">
        <ele>1688.21</ele>
        <time>2019-07-06T11:04:46Z</time>
      </trkpt>
      <trkpt lat="42.4672347028" lon="19.7851230204">
        <ele>1688.21</ele>
        <time>2019-07-06T11:05:13Z</time>
      </trkpt>
      <trkpt lat="42.4672936276" lon="19.7851398680">
        <ele>1686.29</ele>
        <time>2019-07-06T11:05:22Z</time>
      </trkpt>
      <trkpt lat="42.4672920350" lon="19.7851627506">
        <ele>1685.81</ele>
        <time>2019-07-06T11:05:24Z</time>
      </trkpt>
      <trkpt lat="42.4672943819" lon="19.7852203343">
        <ele>1683.89</ele>
        <time>2019-07-06T11:05:32Z</time>
      </trkpt>
      <trkpt lat="42.4672937952" lon="19.7852567118">
        <ele>1682.93</ele>
        <time>2019-07-06T11:05:36Z</time>
      </trkpt>
      <trkpt lat="42.4673450924" lon="19.7853259463">
        <ele>1681.48</ele>
        <time>2019-07-06T11:05:48Z</time>
      </trkpt>
      <trkpt lat="42.4673651252" lon="19.7853347473">
        <ele>1681.00</ele>
        <time>2019-07-06T11:05:51Z</time>
      </trkpt>
      <trkpt lat="42.4674347788" lon="19.7853335738">
        <ele>1677.64</ele>
        <time>2019-07-06T11:06:01Z</time>
      </trkpt>
      <trkpt lat="42.4675240461" lon="19.7853287123">
        <ele>1674.75</ele>
        <time>2019-07-06T11:06:15Z</time>
      </trkpt>
      <trkpt lat="42.4676108826" lon="19.7853432130">
        <ele>1672.35</ele>
        <time>2019-07-06T11:06:25Z</time>
      </trkpt>
      <trkpt lat="42.4677041732" lon="19.7853022255">
        <ele>1670.91</ele>
        <time>2019-07-06T11:06:35Z</time>
      </trkpt>
      <trkpt lat="42.4678203464" lon="19.7852794267">
        <ele>1668.51</ele>
        <time>2019-07-06T11:06:49Z</time>
      </trkpt>
      <trkpt lat="42.4678712245" lon="19.7852781694">
        <ele>1666.58</ele>
        <time>2019-07-06T11:06:58Z</time>
      </trkpt>
      <trkpt lat="42.4678998068" lon="19.7853445541">
        <ele>1664.66</ele>
        <time>2019-07-06T11:07:08Z</time>
      </trkpt>
      <trkpt lat="42.4679575581" lon="19.7853862960">
        <ele>1661.78</ele>
        <time>2019-07-06T11:07:18Z</time>
      </trkpt>
      <trkpt lat="42.4679861404" lon="19.7853925824">
        <ele>1661.30</ele>
        <time>2019-07-06T11:07:22Z</time>
      </trkpt>
      <trkpt lat="42.4684419483" lon="19.7855018824">
        <ele>1658.89</ele>
        <time>2019-07-06T11:07:32Z</time>
      </trkpt>
      <trkpt lat="42.4687293638" lon="19.7855986096">
        <ele>1656.97</ele>
        <time>2019-07-06T11:07:39Z</time>
      </trkpt>
      <trkpt lat="42.4684065767" lon="19.7853734717">
        <ele>1654.09</ele>
        <time>2019-07-06T11:07:50Z</time>
      </trkpt>
      <trkpt lat="42.4681717157" lon="19.7853567917">
        <ele>1651.68</ele>
        <time>2019-07-06T11:08:02Z</time>
      </trkpt>
      <trkpt lat="42.4679478351" lon="19.7853458952">
        <ele>1650.24</ele>
        <time>2019-07-06T11:08:15Z</time>
      </trkpt>
      <trkpt lat="42.4678926822" lon="19.7854096815">
        <ele>1648.32</ele>
        <time>2019-07-06T11:08:26Z</time>
      </trkpt>
      <trkpt lat="42.4679403752" lon="19.7853847872">
        <ele>1646.40</ele>
        <time>2019-07-06T11:08:38Z</time>
      </trkpt>
      <trkpt lat="42.4679433089" lon="19.7853764053">
        <ele>1643.99</ele>
        <time>2019-07-06T11:08:50Z</time>
      </trkpt>
      <trkpt lat="42.4680044129" lon="19.7853393573">
        <ele>1641.59</ele>
        <time>2019-07-06T11:09:02Z</time>
      </trkpt>
      <trkpt lat="42.4680321570" lon="19.7853041533">
        <ele>1640.15</ele>
        <time>2019-07-06T11:09:08Z</time>
      </trkpt>
      <trkpt lat="42.4680407904" lon="19.7853023093">
        <ele>1640.15</ele>
        <time>2019-07-06T11:09:09Z</time>
      </trkpt>
      <trkpt lat="42.4681395292" lon="19.7852314822">
        <ele>1637.74</ele>
        <time>2019-07-06T11:09:20Z</time>
      </trkpt>
      <trkpt lat="42.4682081770" lon="19.7852445580">
        <ele>1635.34</ele>
        <time>2019-07-06T11:09:30Z</time>
      </trkpt>
      <trkpt lat="42.4682240188" lon="19.7852621600">
        <ele>1634.38</ele>
        <time>2019-07-06T11:09:35Z</time>
      </trkpt>
      <trkpt lat="42.4682754837" lon="19.7853775788">
        <ele>1632.46</ele>
        <time>2019-07-06T11:09:48Z</time>
      </trkpt>
      <trkpt lat="42.4683263618" lon="19.7854665946">
        <ele>1630.53</ele>
        <time>2019-07-06T11:10:01Z</time>
      </trkpt>
      <trkpt lat="42.4683313910" lon="19.7854780778">
        <ele>1630.05</ele>
        <time>2019-07-06T11:10:04Z</time>
      </trkpt>
      <trkpt lat="42.4683552794" lon="19.7855717037">
        <ele>1628.13</ele>
        <time>2019-07-06T11:10:15Z</time>
      </trkpt>
      <trkpt lat="42.4683624040" lon="19.7856196482">
        <ele>1627.65</ele>
        <time>2019-07-06T11:10:24Z</time>
      </trkpt>
      <trkpt lat="42.4683686905" lon="19.7856565285">
        <ele>1627.17</ele>
        <time>2019-07-06T11:10:30Z</time>
      </trkpt>
      <trkpt lat="42.4683905672" lon="19.7857501544">
        <ele>1624.77</ele>
        <time>2019-07-06T11:10:41Z</time>
      </trkpt>
      <trkpt lat="42.4684372544" lon="19.7858166229">
        <ele>1622.84</ele>
        <time>2019-07-06T11:10:52Z</time>
      </trkpt>
      <trkpt lat="42.4684993643" lon="19.7858642321">
        <ele>1620.44</ele>
        <time>2019-07-06T11:11:05Z</time>
      </trkpt>
      <trkpt lat="42.4685239233" lon="19.7858636454">
        <ele>1619.96</ele>
        <time>2019-07-06T11:11:11Z</time>
      </trkpt>
      <trkpt lat="42.4686177168" lon="19.7859280184">
        <ele>1616.59</ele>
        <time>2019-07-06T11:11:23Z</time>
      </trkpt>
      <trkpt lat="42.4686629791" lon="19.7859977558">
        <ele>1614.19</ele>
        <time>2019-07-06T11:11:37Z</time>
      </trkpt>
      <trkpt lat="42.4687830918" lon="19.7860622965">
        <ele>1612.27</ele>
        <time>2019-07-06T11:11:50Z</time>
      </trkpt>
      <trkpt lat="42.4688696768" lon="19.7861747816">
        <ele>1610.35</ele>
        <time>2019-07-06T11:12:02Z</time>
      </trkpt>
      <trkpt lat="42.4688664917" lon="19.7861192934">
        <ele>1607.46</ele>
        <time>2019-07-06T11:12:14Z</time>
      </trkpt>
      <trkpt lat="42.4688830040" lon="19.7860793117">
        <ele>1606.50</ele>
        <time>2019-07-06T11:12:18Z</time>
      </trkpt>
      <trkpt lat="42.4688784778" lon="19.7860315349">
        <ele>1605.54</ele>
        <time>2019-07-06T11:12:22Z</time>
      </trkpt>
      <trkpt lat="42.4687126838" lon="19.7858137731">
        <ele>1602.66</ele>
        <time>2019-07-06T11:12:39Z</time>
      </trkpt>
      <trkpt lat="42.4686636496" lon="19.7857217398">
        <ele>1601.21</ele>
        <time>2019-07-06T11:12:45Z</time>
      </trkpt>
      <trkpt lat="42.4686211534" lon="19.7856159601">
        <ele>1600.25</ele>
        <time>2019-07-06T11:12:53Z</time>
      </trkpt>
      <trkpt lat="42.4686297029" lon="19.7855867073">
        <ele>1599.77</ele>
        <time>2019-07-06T11:12:55Z</time>
      </trkpt>
      <trkpt lat="42.4686411023" lon="19.7854721267">
        <ele>1598.81</ele>
        <time>2019-07-06T11:13:05Z</time>
      </trkpt>
      <trkpt lat="42.4686277751" lon="19.7854138725">
        <ele>1598.81</ele>
        <time>2019-07-06T11:13:10Z</time>
      </trkpt>
      <trkpt lat="42.4686526693" lon="19.7852609027">
        <ele>1597.37</ele>
        <time>2019-07-06T11:13:22Z</time>
      </trkpt>
      <trkpt lat="42.4686457124" lon="19.7852578852">
        <ele>1596.41</ele>
        <time>2019-07-06T11:13:23Z</time>
      </trkpt>
      <trkpt lat="42.4686540943" lon="19.7852035705">
        <ele>1595.93</ele>
        <time>2019-07-06T11:13:28Z</time>
      </trkpt>
      <trkpt lat="42.4686117657" lon="19.7849924304">
        <ele>1595.93</ele>
        <time>2019-07-06T11:13:42Z</time>
      </trkpt>
      <trkpt lat="42.4685582053" lon="19.7848754190">
        <ele>1595.45</ele>
        <time>2019-07-06T11:13:52Z</time>
      </trkpt>
      <trkpt lat="42.4685296230" lon="19.7847641073">
        <ele>1594.48</ele>
        <time>2019-07-06T11:14:00Z</time>
      </trkpt>
      <trkpt lat="42.4685036391" lon="19.7846828867">
        <ele>1594.48</ele>
        <time>2019-07-06T11:14:05Z</time>
      </trkpt>
      <trkpt lat="42.4685063213" lon="19.7846387140">
        <ele>1594.00</ele>
        <time>2019-07-06T11:14:08Z</time>
      </trkpt>
      <trkpt lat="42.4685131945" lon="19.7845814656">
        <ele>1594.00</ele>
        <time>2019-07-06T11:14:12Z</time>
      </trkpt>
      <trkpt lat="42.4684810918" lon="19.7844745964">
        <ele>1593.52</ele>
        <time>2019-07-06T11:14:19Z</time>
      </trkpt>
      <trkpt lat="42.4684771523" lon="19.7843975667">
        <ele>1592.08</ele>
        <time>2019-07-06T11:14:26Z</time>
      </trkpt>
      <trkpt lat="42.4684449658" lon="19.7842233907">
        <ele>1592.08</ele>
        <time>2019-07-06T11:14:37Z</time>
      </trkpt>
      <trkpt lat="42.4684354104" lon="19.7840687446">
        <ele>1591.12</ele>
        <time>2019-07-06T11:14:50Z</time>
      </trkpt>
      <trkpt lat="42.4683984462" lon="19.7838966642">
        <ele>1590.64</ele>
        <time>2019-07-06T11:15:04Z</time>
      </trkpt>
      <trkpt lat="42.4683863763" lon="19.7837723605">
        <ele>1589.68</ele>
        <time>2019-07-06T11:15:14Z</time>
      </trkpt>
      <trkpt lat="42.4684059899" lon="19.7835997771">
        <ele>1588.24</ele>
        <time>2019-07-06T11:15:26Z</time>
      </trkpt>
      <trkpt lat="42.4684099294" lon="19.7835411876">
        <ele>1586.79</ele>
        <time>2019-07-06T11:15:31Z</time>
      </trkpt>
      <trkpt lat="42.4684824329" lon="19.7833930794">
        <ele>1583.91</ele>
        <time>2019-07-06T11:15:41Z</time>
      </trkpt>
      <trkpt lat="42.4685079139" lon="19.7832997050">
        <ele>1581.99</ele>
        <time>2019-07-06T11:15:51Z</time>
      </trkpt>
      <trkpt lat="42.4685369991" lon="19.7831813525">
        <ele>1580.06</ele>
        <time>2019-07-06T11:16:03Z</time>
      </trkpt>
      <trkpt lat="42.4685384240" lon="19.7831082623">
        <ele>1579.10</ele>
        <time>2019-07-06T11:16:13Z</time>
      </trkpt>
      <trkpt lat="42.4685636535" lon="19.7830655985">
        <ele>1579.58</ele>
        <time>2019-07-06T11:16:26Z</time>
      </trkpt>
      <trkpt lat="42.4685442913" lon="19.7830405366">
        <ele>1578.62</ele>
        <time>2019-07-06T11:16:41Z</time>
      </trkpt>
      <trkpt lat="42.4685090035" lon="19.7830393631">
        <ele>1578.62</ele>
        <time>2019-07-06T11:17:07Z</time>
      </trkpt>
      <trkpt lat="42.4685227498" lon="19.7830640897">
        <ele>1578.62</ele>
        <time>2019-07-06T11:17:33Z</time>
      </trkpt>
      <trkpt lat="42.4685213249" lon="19.7830598988">
        <ele>1578.62</ele>
        <time>2019-07-06T11:18:00Z</time>
      </trkpt>
      <trkpt lat="42.4685143679" lon="19.7830371838">
        <ele>1578.62</ele>
        <time>2019-07-06T11:18:15Z</time>
      </trkpt>
      <trkpt lat="42.4685673416" lon="19.7830402851">
        <ele>1578.62</ele>
        <time>2019-07-06T11:18:36Z</time>
      </trkpt>
      <trkpt lat="42.4685458839" lon="19.7830515169">
        <ele>1578.62</ele>
        <time>2019-07-06T11:18:58Z</time>
      </trkpt>
      <trkpt lat="42.4685392622" lon="19.7830615751">
        <ele>1580.06</ele>
        <time>2019-07-06T11:19:15Z</time>
      </trkpt>
      <trkpt lat="42.4684988614" lon="19.7830428835">
        <ele>1580.06</ele>
        <time>2019-07-06T11:19:33Z</time>
      </trkpt>
      <trkpt lat="42.4684985261" lon="19.7830210067">
        <ele>1580.06</ele>
        <time>2019-07-06T11:19:43Z</time>
      </trkpt>
      <trkpt lat="42.4685369991" lon="19.7829625849">
        <ele>1580.54</ele>
        <time>2019-07-06T11:19:50Z</time>
      </trkpt>
      <trkpt lat="42.4685206544" lon="19.7828597389">
        <ele>1581.99</ele>
        <time>2019-07-06T11:20:02Z</time>
      </trkpt>
      <trkpt lat="42.4685313832" lon="19.7827314958">
        <ele>1582.95</ele>
        <time>2019-07-06T11:20:14Z</time>
      </trkpt>
      <trkpt lat="42.4684429541" lon="19.7825435735">
        <ele>1582.95</ele>
        <time>2019-07-06T11:20:19Z</time>
      </trkpt>
      <trkpt lat="42.4682797585" lon="19.7823973093">
        <ele>1583.91</ele>
        <time>2019-07-06T11:20:24Z</time>
      </trkpt>
      <trkpt lat="42.4681332428" lon="19.7822055314">
        <ele>1585.35</ele>
        <time>2019-07-06T11:20:37Z</time>
      </trkpt>
      <trkpt lat="42.4680633377" lon="19.7820693254">
        <ele>1587.27</ele>
        <time>2019-07-06T11:20:48Z</time>
      </trkpt>
      <trkpt lat="42.4680894893" lon="19.7820155974">
        <ele>1588.72</ele>
        <time>2019-07-06T11:20:58Z</time>
      </trkpt>
      <trkpt lat="42.4680944346" lon="19.7819516435">
        <ele>1590.16</ele>
        <time>2019-07-06T11:21:07Z</time>
      </trkpt>
      <trkpt lat="42.4681136291" lon="19.7818520665">
        <ele>1591.60</ele>
        <time>2019-07-06T11:21:19Z</time>
      </trkpt>
      <trkpt lat="42.4681143835" lon="19.7817229014">
        <ele>1594.00</ele>
        <time>2019-07-06T11:21:34Z</time>
      </trkpt>
      <trkpt lat="42.4680929258" lon="19.7815700993">
        <ele>1595.93</ele>
        <time>2019-07-06T11:21:49Z</time>
      </trkpt>
      <trkpt lat="42.4680933449" lon="19.7815462109">
        <ele>1595.93</ele>
        <time>2019-07-06T11:21:51Z</time>
      </trkpt>
      <trkpt lat="42.4680129625" lon="19.7813926544">
        <ele>1596.41</ele>
        <time>2019-07-06T11:22:04Z</time>
      </trkpt>
      <trkpt lat="42.4679267965" lon="19.7812839411">
        <ele>1596.41</ele>
        <time>2019-07-06T11:22:16Z</time>
      </trkpt>
      <trkpt lat="42.4679129664" lon="19.7812662553">
        <ele>1595.93</ele>
        <time>2019-07-06T11:22:18Z</time>
      </trkpt>
      <trkpt lat="42.4678895809" lon="19.7812527604">
        <ele>1594.96</ele>
        <time>2019-07-06T11:22:20Z</time>
      </trkpt>
      <trkpt lat="42.4678724818" lon="19.7812473122">
        <ele>1594.96</ele>
        <time>2019-07-06T11:22:22Z</time>
      </trkpt>
      <trkpt lat="42.4678158201" lon="19.7811919078">
        <ele>1594.00</ele>
        <time>2019-07-06T11:22:29Z</time>
      </trkpt>
      <trkpt lat="42.4677361082" lon="19.7812240105">
        <ele>1594.00</ele>
        <time>2019-07-06T11:22:41Z</time>
      </trkpt>
      <trkpt lat="42.4676849786" lon="19.7811744735">
        <ele>1593.04</ele>
        <time>2019-07-06T11:22:49Z</time>
      </trkpt>
      <trkpt lat="42.4676475953" lon="19.7811130341">
        <ele>1593.04</ele>
        <time>2019-07-06T11:22:54Z</time>
      </trkpt>
      <trkpt lat="42.4675431568" lon="19.7809461504">
        <ele>1592.08</ele>
        <time>2019-07-06T11:23:05Z</time>
      </trkpt>
      <trkpt lat="42.4675020017" lon="19.7809192445">
        <ele>1594.00</ele>
        <time>2019-07-06T11:23:12Z</time>
      </trkpt>
      <trkpt lat="42.4674489442" lon="19.7808650136">
        <ele>1595.45</ele>
        <time>2019-07-06T11:23:22Z</time>
      </trkpt>
      <trkpt lat="42.4674110580" lon="19.7807918396">
        <ele>1596.89</ele>
        <time>2019-07-06T11:23:33Z</time>
      </trkpt>
      <trkpt lat="42.4673600961" lon="19.7807233594">
        <ele>1596.41</ele>
        <time>2019-07-06T11:23:40Z</time>
      </trkpt>
      <trkpt lat="42.4673271552" lon="19.7806991357">
        <ele>1597.37</ele>
        <time>2019-07-06T11:23:44Z</time>
      </trkpt>
      <trkpt lat="42.4672593456" lon="19.7805887461">
        <ele>1597.85</ele>
        <time>2019-07-06T11:23:57Z</time>
      </trkpt>
      <trkpt lat="42.4672359601" lon="19.7805563081">
        <ele>1598.33</ele>
        <time>2019-07-06T11:24:01Z</time>
      </trkpt>
      <trkpt lat="42.4671449326" lon="19.7805076092">
        <ele>1599.77</ele>
        <time>2019-07-06T11:24:13Z</time>
      </trkpt>
      <trkpt lat="42.4671086390" lon="19.7804541327">
        <ele>1601.21</ele>
        <time>2019-07-06T11:24:21Z</time>
      </trkpt>
      <trkpt lat="42.4670487083" lon="19.7803841438">
        <ele>1603.14</ele>
        <time>2019-07-06T11:24:32Z</time>
      </trkpt>
      <trkpt lat="42.4670231435" lon="19.7803304996">
        <ele>1603.62</ele>
        <time>2019-07-06T11:24:38Z</time>
      </trkpt>
      <trkpt lat="42.4669720978" lon="19.7803013306">
        <ele>1605.06</ele>
        <time>2019-07-06T11:24:50Z</time>
      </trkpt>
      <trkpt lat="42.4669457786" lon="19.7802315094">
        <ele>1606.02</ele>
        <time>2019-07-06T11:25:00Z</time>
      </trkpt>
      <trkpt lat="42.4668482970" lon="19.7801279929">
        <ele>1606.02</ele>
        <time>2019-07-06T11:25:14Z</time>
      </trkpt>
      <trkpt lat="42.4668308627" lon="19.7801031824">
        <ele>1606.02</ele>
        <time>2019-07-06T11:25:17Z</time>
      </trkpt>
      <trkpt lat="42.4668201338" lon="19.7800927889">
        <ele>1606.02</ele>
        <time>2019-07-06T11:25:18Z</time>
      </trkpt>
      <trkpt lat="42.4667719379" lon="19.7800189443">
        <ele>1605.54</ele>
        <time>2019-07-06T11:25:26Z</time>
      </trkpt>
      <trkpt lat="42.4667577725" lon="19.7799314372">
        <ele>1604.58</ele>
        <time>2019-07-06T11:25:32Z</time>
      </trkpt>
      <trkpt lat="42.4667244125" lon="19.7798485402">
        <ele>1604.10</ele>
        <time>2019-07-06T11:25:39Z</time>
      </trkpt>
      <trkpt lat="42.4666642305" lon="19.7797327023">
        <ele>1605.06</ele>
        <time>2019-07-06T11:25:49Z</time>
      </trkpt>
      <trkpt lat="42.4665887095" lon="19.7795237415">
        <ele>1605.06</ele>
        <time>2019-07-06T11:26:04Z</time>
      </trkpt>
      <trkpt lat="42.4665332213" lon="19.7794151958">
        <ele>1606.02</ele>
        <time>2019-07-06T11:26:16Z</time>
      </trkpt>
      <trkpt lat="42.4665021244" lon="19.7793139424">
        <ele>1605.54</ele>
        <time>2019-07-06T11:26:31Z</time>
      </trkpt>
      <trkpt lat="42.4664971791" lon="19.7793077398">
        <ele>1606.02</ele>
        <time>2019-07-06T11:26:44Z</time>
      </trkpt>
      <trkpt lat="42.4664243404" lon="19.7793053929">
        <ele>1606.98</ele>
        <time>2019-07-06T11:27:01Z</time>
      </trkpt>
      <trkpt lat="42.4663802516" lon="19.7792927362">
        <ele>1607.94</ele>
        <time>2019-07-06T11:27:08Z</time>
      </trkpt>
      <trkpt lat="42.4663311336" lon="19.7792780679">
        <ele>1607.46</ele>
        <time>2019-07-06T11:27:12Z</time>
      </trkpt>
      <trkpt lat="42.4661983643" lon="19.7792497370">
        <ele>1607.46</ele>
        <time>2019-07-06T11:27:25Z</time>
      </trkpt>
      <trkpt lat="42.4661546107" lon="19.7792322189">
        <ele>1607.46</ele>
        <time>2019-07-06T11:27:30Z</time>
      </trkpt>
      <trkpt lat="42.4661085103" lon="19.7792378347">
        <ele>1606.98</ele>
        <time>2019-07-06T11:27:35Z</time>
      </trkpt>
      <trkpt lat="42.4660296366" lon="19.7792101745">
        <ele>1606.98</ele>
        <time>2019-07-06T11:27:42Z</time>
      </trkpt>
      <trkpt lat="42.4659965280" lon="19.7792291176">
        <ele>1606.98</ele>
        <time>2019-07-06T11:27:47Z</time>
      </trkpt>
      <trkpt lat="42.4659498408" lon="19.7792417742">
        <ele>1607.46</ele>
        <time>2019-07-06T11:27:53Z</time>
      </trkpt>
      <trkpt lat="42.4659183249" lon="19.7792349011">
        <ele>1607.46</ele>
        <time>2019-07-06T11:27:56Z</time>
      </trkpt>
      <trkpt lat="42.4658542871" lon="19.7792256810">
        <ele>1607.46</ele>
        <time>2019-07-06T11:28:04Z</time>
      </trkpt>
      <trkpt lat="42.4657862261" lon="19.7792109288">
        <ele>1607.94</ele>
        <time>2019-07-06T11:28:16Z</time>
      </trkpt>
      <trkpt lat="42.4657723960" lon="19.7791872919">
        <ele>1607.94</ele>
        <time>2019-07-06T11:28:19Z</time>
      </trkpt>
      <trkpt lat="42.4656866491" lon="19.7791207395">
        <ele>1607.94</ele>
        <time>2019-07-06T11:28:31Z</time>
      </trkpt>
      <trkpt lat="42.4656449910" lon="19.7790573724">
        <ele>1607.94</ele>
        <time>2019-07-06T11:28:38Z</time>
      </trkpt>
      <trkpt lat="42.4656251259" lon="19.7790178098">
        <ele>1607.94</ele>
        <time>2019-07-06T11:28:40Z</time>
      </trkpt>
      <trkpt lat="42.4655748345" lon="19.7789795883">
        <ele>1607.94</ele>
        <time>2019-07-06T11:28:47Z</time>
      </trkpt>
      <trkpt lat="42.4654868245" lon="19.7788944282">
        <ele>1607.94</ele>
        <time>2019-07-06T11:28:59Z</time>
      </trkpt>
      <trkpt lat="42.4654109683" lon="19.7788167279">
        <ele>1608.90</ele>
        <time>2019-07-06T11:29:11Z</time>
      </trkpt>
      <trkpt lat="42.4654095434" lon="19.7787948512">
        <ele>1608.90</ele>
        <time>2019-07-06T11:29:13Z</time>
      </trkpt>
      <trkpt lat="42.4654041789" lon="19.7787795961">
        <ele>1608.90</ele>
        <time>2019-07-06T11:29:14Z</time>
      </trkpt>
      <trkpt lat="42.4653827213" lon="19.7787321545">
        <ele>1608.90</ele>
        <time>2019-07-06T11:29:17Z</time>
      </trkpt>
      <trkpt lat="42.4653401412" lon="19.7786791809">
        <ele>1608.90</ele>
        <time>2019-07-06T11:29:22Z</time>
      </trkpt>
      <trkpt lat="42.4652161729" lon="19.7785502672">
        <ele>1606.98</ele>
        <time>2019-07-06T11:29:36Z</time>
      </trkpt>
      <trkpt lat="42.4651660491" lon="19.7785100341">
        <ele>1606.98</ele>
        <time>2019-07-06T11:29:40Z</time>
      </trkpt>
      <trkpt lat="42.4650584254" lon="19.7784806974">
        <ele>1606.50</ele>
        <time>2019-07-06T11:29:50Z</time>
      </trkpt>
      <trkpt lat="42.4650086369" lon="19.7784440685">
        <ele>1605.54</ele>
        <time>2019-07-06T11:29:55Z</time>
      </trkpt>
      <trkpt lat="42.4650004227" lon="19.7784326691">
        <ele>1605.54</ele>
        <time>2019-07-06T11:29:56Z</time>
      </trkpt>
      <trkpt lat="42.4649724271" lon="19.7784287296">
        <ele>1605.54</ele>
        <time>2019-07-06T11:29:58Z</time>
      </trkpt>
      <trkpt lat="42.4646740314" lon="19.7774823289">
        <ele>1604.10</ele>
        <time>2019-07-06T11:30:09Z</time>
      </trkpt>
      <trkpt lat="42.4646530766" lon="19.7774511483">
        <ele>1603.62</ele>
        <time>2019-07-06T11:30:12Z</time>
      </trkpt>
      <trkpt lat="42.4646581057" lon="19.7777170222">
        <ele>1603.14</ele>
        <time>2019-07-06T11:30:20Z</time>
      </trkpt>
      <trkpt lat="42.4646204710" lon="19.7777837422">
        <ele>1604.58</ele>
        <time>2019-07-06T11:30:27Z</time>
      </trkpt>
      <trkpt lat="42.4645620491" lon="19.7778131627">
        <ele>1604.58</ele>
        <time>2019-07-06T11:30:38Z</time>
      </trkpt>
      <trkpt lat="42.4645221513" lon="19.7778129112">
        <ele>1606.02</ele>
        <time>2019-07-06T11:30:47Z</time>
      </trkpt>
      <trkpt lat="42.4644742906" lon="19.7778236400">
        <ele>1607.46</ele>
        <time>2019-07-06T11:30:58Z</time>
      </trkpt>
      <trkpt lat="42.4644696806" lon="19.7778155934">
        <ele>1607.46</ele>
        <time>2019-07-06T11:30:59Z</time>
      </trkpt>
      <trkpt lat="42.4644122645" lon="19.7777589317">
        <ele>1608.42</ele>
        <time>2019-07-06T11:31:11Z</time>
      </trkpt>
      <trkpt lat="42.4643473048" lon="19.7777047008">
        <ele>1609.38</ele>
        <time>2019-07-06T11:31:19Z</time>
      </trkpt>
      <trkpt lat="42.4642947502" lon="19.7776899487">
        <ele>1609.38</ele>
        <time>2019-07-06T11:31:24Z</time>
      </trkpt>
      <trkpt lat="42.4641789962" lon="19.7776539065">
        <ele>1609.86</ele>
        <time>2019-07-06T11:31:38Z</time>
      </trkpt>
      <trkpt lat="42.4641074985" lon="19.7776180319">
        <ele>1608.90</ele>
        <time>2019-07-06T11:31:45Z</time>
      </trkpt>
      <trkpt lat="42.4640023895" lon="19.7775505576">
        <ele>1607.94</ele>
        <time>2019-07-06T11:31:56Z</time>
      </trkpt>
      <trkpt lat="42.4639309756" lon="19.7774813231">
        <ele>1607.94</ele>
        <time>2019-07-06T11:32:04Z</time>
      </trkpt>
      <trkpt lat="42.4638790078" lon="19.7774850111">
        <ele>1607.94</ele>
        <time>2019-07-06T11:32:14Z</time>
      </trkpt>
      <trkpt lat="42.4638536945" lon="19.7774568480">
        <ele>1607.46</ele>
        <time>2019-07-06T11:32:28Z</time>
      </trkpt>
      <trkpt lat="42.4638552871" lon="19.7774940636">
        <ele>1607.46</ele>
        <time>2019-07-06T11:32:58Z</time>
      </trkpt>
      <trkpt lat="42.4635962863" lon="19.7765369341">
        <ele>1607.46</ele>
        <time>2019-07-06T11:33:23Z</time>
      </trkpt>
      <trkpt lat="42.4638359249" lon="19.7772057261">
        <ele>1607.46</ele>
        <time>2019-07-06T11:33:55Z</time>
      </trkpt>
      <trkpt lat="42.4637830351" lon="19.7773120925">
        <ele>1607.46</ele>
        <time>2019-07-06T11:34:27Z</time>
      </trkpt>
      <trkpt lat="42.4637980387" lon="19.7773478832">
        <ele>1607.46</ele>
        <time>2019-07-06T11:34:49Z</time>
      </trkpt>
      <trkpt lat="42.4638343323" lon="19.7774116695">
        <ele>1606.98</ele>
        <time>2019-07-06T11:35:17Z</time>
      </trkpt>
      <trkpt lat="42.4638199154" lon="19.7774901241">
        <ele>1606.50</ele>
        <time>2019-07-06T11:35:44Z</time>
      </trkpt>
      <trkpt lat="42.4638813548" lon="19.7775420919">
        <ele>1607.46</ele>
        <time>2019-07-06T11:36:03Z</time>
      </trkpt>
      <trkpt lat="42.4638848752" lon="19.7775122523">
        <ele>1607.46</ele>
        <time>2019-07-06T11:36:15Z</time>
      </trkpt>
      <trkpt lat="42.4638327397" lon="19.7774496395">
        <ele>1606.98</ele>
        <time>2019-07-06T11:36:22Z</time>
      </trkpt>
      <trkpt lat="42.4637025688" lon="19.7773625515">
        <ele>1607.94</ele>
        <time>2019-07-06T11:36:36Z</time>
      </trkpt>
      <trkpt lat="42.4636847153" lon="19.7773553431">
        <ele>1608.42</ele>
        <time>2019-07-06T11:36:41Z</time>
      </trkpt>
      <trkpt lat="42.4636117928" lon="19.7772954963">
        <ele>1608.42</ele>
        <time>2019-07-06T11:36:49Z</time>
      </trkpt>
      <trkpt lat="42.4635639321" lon="19.7772787325">
        <ele>1608.42</ele>
        <time>2019-07-06T11:36:53Z</time>
      </trkpt>
      <trkpt lat="42.4634986371" lon="19.7772377450">
        <ele>1608.90</ele>
        <time>2019-07-06T11:37:03Z</time>
      </trkpt>
      <trkpt lat="42.4634399638" lon="19.7772527486">
        <ele>1609.86</ele>
        <time>2019-07-06T11:37:09Z</time>
      </trkpt>
      <trkpt lat="42.4633631017" lon="19.7772343922">
        <ele>1611.79</ele>
        <time>2019-07-06T11:37:22Z</time>
      </trkpt>
      <trkpt lat="42.4633122236" lon="19.7772234958">
        <ele>1611.79</ele>
        <time>2019-07-06T11:37:32Z</time>
      </trkpt>
      <trkpt lat="42.4632082041" lon="19.7772019543">
        <ele>1612.75</ele>
        <time>2019-07-06T11:37:45Z</time>
      </trkpt>
      <trkpt lat="42.4631833099" lon="19.7771863639">
        <ele>1613.23</ele>
        <time>2019-07-06T11:37:50Z</time>
      </trkpt>
      <trkpt lat="42.4631399754" lon="19.7771612182">
        <ele>1614.67</ele>
        <time>2019-07-06T11:38:00Z</time>
      </trkpt>
      <trkpt lat="42.4631331023" lon="19.7771547642">
        <ele>1614.67</ele>
        <time>2019-07-06T11:38:01Z</time>
      </trkpt>
      <trkpt lat="42.4630394764" lon="19.7771242540">
        <ele>1616.59</ele>
        <time>2019-07-06T11:38:12Z</time>
      </trkpt>
      <trkpt lat="42.4629953876" lon="19.7770936601">
        <ele>1618.04</ele>
        <time>2019-07-06T11:38:23Z</time>
      </trkpt>
      <trkpt lat="42.4629704095" lon="19.7770603839">
        <ele>1618.52</ele>
        <time>2019-07-06T11:38:26Z</time>
      </trkpt>
      <trkpt lat="42.4629225489" lon="19.7769504134">
        <ele>1619.00</ele>
        <time>2019-07-06T11:38:38Z</time>
      </trkpt>
      <trkpt lat="42.4628880993" lon="19.7768831905">
        <ele>1619.48</ele>
        <time>2019-07-06T11:38:45Z</time>
      </trkpt>
      <trkpt lat="42.4627882708" lon="19.7767808475">
        <ele>1620.44</ele>
        <time>2019-07-06T11:38:58Z</time>
      </trkpt>
      <trkpt lat="42.4627684057" lon="19.7767666820">
        <ele>1621.40</ele>
        <time>2019-07-06T11:39:00Z</time>
      </trkpt>
      <trkpt lat="42.4627099000" lon="19.7767203301">
        <ele>1620.92</ele>
        <time>2019-07-06T11:39:06Z</time>
      </trkpt>
      <trkpt lat="42.4626374803" lon="19.7766895685">
        <ele>1622.36</ele>
        <time>2019-07-06T11:39:15Z</time>
      </trkpt>
      <trkpt lat="42.4625779688" lon="19.7766359244">
        <ele>1622.84</ele>
        <time>2019-07-06T11:39:19Z</time>
      </trkpt>
      <trkpt lat="42.4624348059" lon="19.7765531950">
        <ele>1623.32</ele>
        <time>2019-07-06T11:39:35Z</time>
      </trkpt>
      <trkpt lat="42.4623564351" lon="19.7765034065">
        <ele>1623.80</ele>
        <time>2019-07-06T11:39:45Z</time>
      </trkpt>
      <trkpt lat="42.4622737058" lon="19.7764673643">
        <ele>1623.80</ele>
        <time>2019-07-06T11:39:57Z</time>
      </trkpt>
      <trkpt lat="42.4622602947" lon="19.7764629219">
        <ele>1624.28</ele>
        <time>2019-07-06T11:39:59Z</time>
      </trkpt>
      <trkpt lat="42.4622014537" lon="19.7764302325">
        <ele>1624.28</ele>
        <time>2019-07-06T11:40:05Z</time>
      </trkpt>
      <trkpt lat="42.4620589614" lon="19.7764050029">
        <ele>1625.25</ele>
        <time>2019-07-06T11:40:20Z</time>
      </trkpt>
      <trkpt lat="42.4618994538" lon="19.7763467487">
        <ele>1626.21</ele>
        <time>2019-07-06T11:40:34Z</time>
      </trkpt>
      <trkpt lat="42.4617879745" lon="19.7763414681">
        <ele>1627.17</ele>
        <time>2019-07-06T11:40:46Z</time>
      </trkpt>
      <trkpt lat="42.4617558718" lon="19.7763264645">
        <ele>1627.17</ele>
        <time>2019-07-06T11:40:49Z</time>
      </trkpt>
      <trkpt lat="42.4617000483" lon="19.7763171606">
        <ele>1627.17</ele>
        <time>2019-07-06T11:40:53Z</time>
      </trkpt>
      <trkpt lat="42.4616660178" lon="19.7763029113">
        <ele>1627.17</ele>
        <time>2019-07-06T11:40:56Z</time>
      </trkpt>
      <trkpt lat="42.4615941849" lon="19.7762759216">
        <ele>1626.69</ele>
        <time>2019-07-06T11:41:04Z</time>
      </trkpt>
      <trkpt lat="42.4614466634" lon="19.7761981376">
        <ele>1627.65</ele>
        <time>2019-07-06T11:41:17Z</time>
      </trkpt>
      <trkpt lat="42.4614261277" lon="19.7761953715">
        <ele>1627.65</ele>
        <time>2019-07-06T11:41:19Z</time>
      </trkpt>
      <trkpt lat="42.4614074361" lon="19.7761890013">
        <ele>1627.17</ele>
        <time>2019-07-06T11:41:21Z</time>
      </trkpt>
      <trkpt lat="42.4613924325" lon="19.7761821281">
        <ele>1627.17</ele>
        <time>2019-07-06T11:41:23Z</time>
      </trkpt>
      <trkpt lat="42.4613315798" lon="19.7761133965">
        <ele>1627.65</ele>
        <time>2019-07-06T11:41:32Z</time>
      </trkpt>
      <trkpt lat="42.4613136426" lon="19.7760988958">
        <ele>1628.13</ele>
        <time>2019-07-06T11:41:34Z</time>
      </trkpt>
      <trkpt lat="42.4612213578" lon="19.7760666255">
        <ele>1628.61</ele>
        <time>2019-07-06T11:41:47Z</time>
      </trkpt>
      <trkpt lat="42.4611139018" lon="19.7759978101">
        <ele>1630.05</ele>
        <time>2019-07-06T11:41:59Z</time>
      </trkpt>
      <trkpt lat="42.4609814677" lon="19.7759206966">
        <ele>1631.49</ele>
        <time>2019-07-06T11:42:13Z</time>
      </trkpt>
      <trkpt lat="42.4608858302" lon="19.7758650407">
        <ele>1632.94</ele>
        <time>2019-07-06T11:42:22Z</time>
      </trkpt>
      <trkpt lat="42.4608388916" lon="19.7758269031">
        <ele>1633.42</ele>
        <time>2019-07-06T11:42:25Z</time>
      </trkpt>
      <trkpt lat="42.4607358780" lon="19.7757320199">
        <ele>1633.90</ele>
        <time>2019-07-06T11:42:37Z</time>
      </trkpt>
      <trkpt lat="42.4606345408" lon="19.7756517213">
        <ele>1634.38</ele>
        <time>2019-07-06T11:42:47Z</time>
      </trkpt>
      <trkpt lat="42.4605589360" lon="19.7756120749">
        <ele>1634.86</ele>
        <time>2019-07-06T11:42:55Z</time>
      </trkpt>
      <trkpt lat="42.4604721833" lon="19.7755593527">
        <ele>1635.34</ele>
        <time>2019-07-06T11:43:09Z</time>
      </trkpt>
      <trkpt lat="42.4604244903" lon="19.7755772900">
        <ele>1635.34</ele>
        <time>2019-07-06T11:43:15Z</time>
      </trkpt>
      <trkpt lat="42.4604036193" lon="19.7755964845">
        <ele>1634.38</ele>
        <time>2019-07-06T11:43:19Z</time>
      </trkpt>
      <trkpt lat="42.4603674095" lon="19.7755750269">
        <ele>1634.38</ele>
        <time>2019-07-06T11:43:23Z</time>
      </trkpt>
      <trkpt lat="42.4603525735" lon="19.7755658068">
        <ele>1634.38</ele>
        <time>2019-07-06T11:43:24Z</time>
      </trkpt>
      <trkpt lat="42.4602311198" lon="19.7755200416">
        <ele>1635.34</ele>
        <time>2019-07-06T11:43:38Z</time>
      </trkpt>
      <trkpt lat="42.4601315428" lon="19.7754852567">
        <ele>1636.78</ele>
        <time>2019-07-06T11:43:48Z</time>
      </trkpt>
      <trkpt lat="42.4600607995" lon="19.7754464485">
        <ele>1637.74</ele>
        <time>2019-07-06T11:43:54Z</time>
      </trkpt>
      <trkpt lat="42.4599703588" lon="19.7754170280">
        <ele>1639.67</ele>
        <time>2019-07-06T11:44:06Z</time>
      </trkpt>
      <trkpt lat="42.4598900601" lon="19.7753519006">
        <ele>1641.59</ele>
        <time>2019-07-06T11:44:20Z</time>
      </trkpt>
      <trkpt lat="42.4597866274" lon="19.7752859350">
        <ele>1642.55</ele>
        <time>2019-07-06T11:44:30Z</time>
      </trkpt>
      <trkpt lat="42.4597313907" lon="19.7752177063">
        <ele>1643.03</ele>
        <time>2019-07-06T11:44:40Z</time>
      </trkpt>
      <trkpt lat="42.4596426263" lon="19.7751438618">
        <ele>1643.03</ele>
        <time>2019-07-06T11:44:50Z</time>
      </trkpt>
      <trkpt lat="42.4595386907" lon="19.7750729509">
        <ele>1643.99</ele>
        <time>2019-07-06T11:45:03Z</time>
      </trkpt>
      <trkpt lat="42.4594322406" lon="19.7749422770">
        <ele>1645.91</ele>
        <time>2019-07-06T11:45:13Z</time>
      </trkpt>
      <trkpt lat="42.4593806919" lon="19.7749359906">
        <ele>1647.84</ele>
        <time>2019-07-06T11:45:26Z</time>
      </trkpt>
      <trkpt lat="42.4593303166" lon="19.7749094199">
        <ele>1650.24</ele>
        <time>2019-07-06T11:45:38Z</time>
      </trkpt>
      <trkpt lat="42.4592765886" lon="19.7748492379">
        <ele>1652.64</ele>
        <time>2019-07-06T11:45:51Z</time>
      </trkpt>
      <trkpt lat="42.4592323322" lon="19.7748023830">
        <ele>1653.60</ele>
        <time>2019-07-06T11:46:05Z</time>
      </trkpt>
      <trkpt lat="42.4592062645" lon="19.7747359145">
        <ele>1652.16</ele>
        <time>2019-07-06T11:46:15Z</time>
      </trkpt>
      <trkpt lat="42.4591484293" lon="19.7746676020">
        <ele>1650.72</ele>
        <time>2019-07-06T11:46:31Z</time>
      </trkpt>
      <trkpt lat="42.4591194279" lon="19.7746620700">
        <ele>1649.28</ele>
        <time>2019-07-06T11:46:48Z</time>
      </trkpt>
      <trkpt lat="42.4591509439" lon="19.7746448871">
        <ele>1648.80</ele>
        <time>2019-07-06T11:46:58Z</time>
      </trkpt>
      <trkpt lat="42.4591444060" lon="19.7746286262">
        <ele>1648.80</ele>
        <time>2019-07-06T11:47:15Z</time>
      </trkpt>
      <trkpt lat="42.4591067713" lon="19.7746099345">
        <ele>1648.80</ele>
        <time>2019-07-06T11:47:32Z</time>
      </trkpt>
      <trkpt lat="42.4590712320" lon="19.7746116947">
        <ele>1648.32</ele>
        <time>2019-07-06T11:47:43Z</time>
      </trkpt>
      <trkpt lat="42.4590019137" lon="19.7746243514">
        <ele>1648.80</ele>
        <time>2019-07-06T11:47:56Z</time>
      </trkpt>
      <trkpt lat="42.4589677993" lon="19.7746355832">
        <ele>1649.76</ele>
        <time>2019-07-06T11:48:04Z</time>
      </trkpt>
      <trkpt lat="42.4589071982" lon="19.7746546101">
        <ele>1650.72</ele>
        <time>2019-07-06T11:48:16Z</time>
      </trkpt>
      <trkpt lat="42.4588390533" lon="19.7746458091">
        <ele>1651.68</ele>
        <time>2019-07-06T11:48:29Z</time>
      </trkpt>
      <trkpt lat="42.4587819725" lon="19.7746648360">
        <ele>1652.16</ele>
        <time>2019-07-06T11:48:42Z</time>
      </trkpt>
      <trkpt lat="42.4587341957" lon="19.7746766545">
        <ele>1653.60</ele>
        <time>2019-07-06T11:48:54Z</time>
      </trkpt>
      <trkpt lat="42.4586580880" lon="19.7746844497">
        <ele>1654.57</ele>
        <time>2019-07-06T11:49:08Z</time>
      </trkpt>
      <trkpt lat="42.4586095568" lon="19.7746645845">
        <ele>1656.49</ele>
        <time>2019-07-06T11:49:18Z</time>
      </trkpt>
      <trkpt lat="42.4585689045" lon="19.7746934183">
        <ele>1657.93</ele>
        <time>2019-07-06T11:49:30Z</time>
      </trkpt>
      <trkpt lat="42.4585267436" lon="19.7747034766">
        <ele>1658.41</ele>
        <time>2019-07-06T11:49:41Z</time>
      </trkpt>
      <trkpt lat="42.4584479537" lon="19.7746592201">
        <ele>1659.85</ele>
        <time>2019-07-06T11:49:55Z</time>
      </trkpt>
      <trkpt lat="42.4583959859" lon="19.7746111080">
        <ele>1661.78</ele>
        <time>2019-07-06T11:50:08Z</time>
      </trkpt>
      <trkpt lat="42.4583839159" lon="19.7745979484">
        <ele>1661.78</ele>
        <time>2019-07-06T11:50:09Z</time>
      </trkpt>
      <trkpt lat="42.4583444372" lon="19.7745381016">
        <ele>1662.26</ele>
        <time>2019-07-06T11:50:14Z</time>
      </trkpt>
      <trkpt lat="42.4583135918" lon="19.7744924203">
        <ele>1662.74</ele>
        <time>2019-07-06T11:50:27Z</time>
      </trkpt>
      <trkpt lat="42.4582212232" lon="19.7744679451">
        <ele>1664.18</ele>
        <time>2019-07-06T11:50:40Z</time>
      </trkpt>
      <trkpt lat="42.4581330456" lon="19.7744759917">
        <ele>1665.62</ele>
        <time>2019-07-06T11:50:53Z</time>
      </trkpt>
      <trkpt lat="42.4580517411" lon="19.7744826134">
        <ele>1666.58</ele>
        <time>2019-07-06T11:51:05Z</time>
      </trkpt>
      <trkpt lat="42.4579930678" lon="19.7745335754">
        <ele>1667.54</ele>
        <time>2019-07-06T11:51:18Z</time>
      </trkpt>
      <trkpt lat="42.4579318799" lon="19.7745332401">
        <ele>1669.47</ele>
        <time>2019-07-06T11:51:30Z</time>
      </trkpt>
      <trkpt lat="42.4578924011" lon="19.7745085135">
        <ele>1669.95</ele>
        <time>2019-07-06T11:51:43Z</time>
      </trkpt>
      <trkpt lat="42.4578869529" lon="19.7745420411">
        <ele>1670.91</ele>
        <time>2019-07-06T11:52:03Z</time>
      </trkpt>
      <trkpt lat="42.4578854442" lon="19.7745569609">
        <ele>1669.47</ele>
        <time>2019-07-06T11:52:22Z</time>
      </trkpt>
      <trkpt lat="42.4578991905" lon="19.7745738085">
        <ele>1669.47</ele>
        <time>2019-07-06T11:52:46Z</time>
      </trkpt>
      <trkpt lat="42.4579007830" lon="19.7745764907">
        <ele>1669.47</ele>
        <time>2019-07-06T11:53:15Z</time>
      </trkpt>
      <trkpt lat="42.4578653276" lon="19.7745470703">
        <ele>1669.47</ele>
        <time>2019-07-06T11:53:40Z</time>
      </trkpt>
      <trkpt lat="42.4578837678" lon="19.7745536081">
        <ele>1668.99</ele>
        <time>2019-07-06T11:54:16Z</time>
      </trkpt>
      <trkpt lat="42.4578822590" lon="19.7745718807">
        <ele>1668.99</ele>
        <time>2019-07-06T11:54:51Z</time>
      </trkpt>
      <trkpt lat="42.4579016212" lon="19.7745698690">
        <ele>1668.99</ele>
        <time>2019-07-06T11:55:09Z</time>
      </trkpt>
      <trkpt lat="42.4578835163" lon="19.7744938452">
        <ele>1668.99</ele>
        <time>2019-07-06T11:55:36Z</time>
      </trkpt>
      <trkpt lat="42.4578906409" lon="19.7745605651">
        <ele>1669.95</ele>
        <time>2019-07-06T11:56:07Z</time>
      </trkpt>
      <trkpt lat="42.4578867853" lon="19.7745586373">
        <ele>1669.95</ele>
        <time>2019-07-06T11:56:27Z</time>
      </trkpt>
      <trkpt lat="42.4578989390" lon="19.7745476570">
        <ele>1670.43</ele>
        <time>2019-07-06T11:56:43Z</time>
      </trkpt>
      <trkpt lat="42.4578833487" lon="19.7745198291">
        <ele>1671.87</ele>
        <time>2019-07-06T11:56:52Z</time>
      </trkpt>
      <trkpt lat="42.4578233343" lon="19.7745030653">
        <ele>1673.79</ele>
        <time>2019-07-06T11:57:03Z</time>
      </trkpt>
      <trkpt lat="42.4578047264" lon="19.7744967788">
        <ele>1674.27</ele>
        <time>2019-07-06T11:57:17Z</time>
      </trkpt>
      <trkpt lat="42.4578038044" lon="19.7744382732">
        <ele>1675.72</ele>
        <time>2019-07-06T11:57:36Z</time>
      </trkpt>
      <trkpt lat="42.4577595480" lon="19.7743799351">
        <ele>1676.20</ele>
        <time>2019-07-06T11:57:49Z</time>
      </trkpt>
      <trkpt lat="42.4577205721" lon="19.7743091919">
        <ele>1678.12</ele>
        <time>2019-07-06T11:58:01Z</time>
      </trkpt>
      <trkpt lat="42.4577003717" lon="19.7742222715">
        <ele>1679.56</ele>
        <time>2019-07-06T11:58:13Z</time>
      </trkpt>
      <trkpt lat="42.4576587975" lon="19.7741572279">
        <ele>1681.48</ele>
        <time>2019-07-06T11:58:25Z</time>
      </trkpt>
      <trkpt lat="42.4575909879" lon="19.7740546335">
        <ele>1682.93</ele>
        <time>2019-07-06T11:58:41Z</time>
      </trkpt>
      <trkpt lat="42.4575218372" lon="19.7740192618">
        <ele>1682.93</ele>
        <time>2019-07-06T11:58:53Z</time>
      </trkpt>
      <trkpt lat="42.4574465677" lon="19.7739869077">
        <ele>1684.37</ele>
        <time>2019-07-06T11:59:05Z</time>
      </trkpt>
      <trkpt lat="42.4573952705" lon="19.7739257198">
        <ele>1684.37</ele>
        <time>2019-07-06T11:59:18Z</time>
      </trkpt>
      <trkpt lat="42.4573880620" lon="19.7739140689">
        <ele>1684.37</ele>
        <time>2019-07-06T11:59:20Z</time>
      </trkpt>
      <trkpt lat="42.4573568814" lon="19.7738506179">
        <ele>1684.37</ele>
        <time>2019-07-06T11:59:31Z</time>
      </trkpt>
      <trkpt lat="42.4573607370" lon="19.7738519590">
        <ele>1684.37</ele>
        <time>2019-07-06T11:59:44Z</time>
      </trkpt>
      <trkpt lat="42.4573297240" lon="19.7737940401">
        <ele>1684.37</ele>
        <time>2019-07-06T12:00:00Z</time>
      </trkpt>
      <trkpt lat="42.4572706316" lon="19.7736815549">
        <ele>1685.33</ele>
        <time>2019-07-06T12:00:14Z</time>
      </trkpt>
      <trkpt lat="42.4572350085" lon="19.7735979874">
        <ele>1686.29</ele>
        <time>2019-07-06T12:00:25Z</time>
      </trkpt>
      <trkpt lat="42.4572237767" lon="19.7735389788">
        <ele>1685.81</ele>
        <time>2019-07-06T12:00:29Z</time>
      </trkpt>
      <trkpt lat="42.4571509380" lon="19.7734280024">
        <ele>1685.81</ele>
        <time>2019-07-06T12:00:41Z</time>
      </trkpt>
      <trkpt lat="42.4571092799" lon="19.7733144276">
        <ele>1687.25</ele>
        <time>2019-07-06T12:00:54Z</time>
      </trkpt>
      <trkpt lat="42.4570626765" lon="19.7732089832">
        <ele>1688.21</ele>
        <time>2019-07-06T12:01:06Z</time>
      </trkpt>
      <trkpt lat="42.4570195936" lon="19.7731032036">
        <ele>1690.14</ele>
        <time>2019-07-06T12:01:19Z</time>
      </trkpt>
      <trkpt lat="42.4569733255" lon="19.7730185464">
        <ele>1690.62</ele>
        <time>2019-07-06T12:01:29Z</time>
      </trkpt>
      <trkpt lat="42.4569640215" lon="19.7729798220">
        <ele>1691.58</ele>
        <time>2019-07-06T12:01:43Z</time>
      </trkpt>
      <trkpt lat="42.4569558911" lon="19.7729263455">
        <ele>1691.10</ele>
        <time>2019-07-06T12:02:03Z</time>
      </trkpt>
      <trkpt lat="42.4569452461" lon="19.7728938237">
        <ele>1691.10</ele>
        <time>2019-07-06T12:02:06Z</time>
      </trkpt>
      <trkpt lat="42.4568544701" lon="19.7727613896">
        <ele>1693.02</ele>
        <time>2019-07-06T12:02:20Z</time>
      </trkpt>
      <trkpt lat="42.4568299949" lon="19.7726678476">
        <ele>1694.46</ele>
        <time>2019-07-06T12:02:32Z</time>
      </trkpt>
      <trkpt lat="42.4567982275" lon="19.7725894768">
        <ele>1695.90</ele>
        <time>2019-07-06T12:02:43Z</time>
      </trkpt>
      <trkpt lat="42.4568016641" lon="19.7725043166">
        <ele>1698.31</ele>
        <time>2019-07-06T12:02:55Z</time>
      </trkpt>
      <trkpt lat="42.4568032566" lon="19.7724978626">
        <ele>1698.79</ele>
        <time>2019-07-06T12:02:56Z</time>
      </trkpt>
      <trkpt lat="42.4568041787" lon="19.7723888140">
        <ele>1701.19</ele>
        <time>2019-07-06T12:03:10Z</time>
      </trkpt>
      <trkpt lat="42.4568118062" lon="19.7722812742">
        <ele>1703.59</ele>
        <time>2019-07-06T12:03:24Z</time>
      </trkpt>
      <trkpt lat="42.4567903485" lon="19.7722476628">
        <ele>1703.11</ele>
        <time>2019-07-06T12:03:29Z</time>
      </trkpt>
      <trkpt lat="42.4567654543" lon="19.7721822001">
        <ele>1703.59</ele>
        <time>2019-07-06T12:03:35Z</time>
      </trkpt>
      <trkpt lat="42.4567038473" lon="19.7720589861">
        <ele>1704.55</ele>
        <time>2019-07-06T12:03:49Z</time>
      </trkpt>
      <trkpt lat="42.4566920288" lon="19.7720178310">
        <ele>1705.04</ele>
        <time>2019-07-06T12:04:03Z</time>
      </trkpt>
      <trkpt lat="42.4566893466" lon="19.7719938587">
        <ele>1704.55</ele>
        <time>2019-07-06T12:04:17Z</time>
      </trkpt>
      <trkpt lat="42.4566857424" lon="19.7720079403">
        <ele>1704.55</ele>
        <time>2019-07-06T12:04:23Z</time>
      </trkpt>
      <trkpt lat="42.4565954693" lon="19.7721184138">
        <ele>1704.55</ele>
        <time>2019-07-06T12:04:36Z</time>
      </trkpt>
      <trkpt lat="42.4565830640" lon="19.7721226886">
        <ele>1704.55</ele>
        <time>2019-07-06T12:04:37Z</time>
      </trkpt>
      <trkpt lat="42.4564806372" lon="19.7721262090">
        <ele>1705.52</ele>
        <time>2019-07-06T12:04:49Z</time>
      </trkpt>
      <trkpt lat="42.4564043619" lon="19.7721320763">
        <ele>1706.96</ele>
        <time>2019-07-06T12:05:01Z</time>
      </trkpt>
      <trkpt lat="42.4563595187" lon="19.7721405420">
        <ele>1706.96</ele>
        <time>2019-07-06T12:05:05Z</time>
      </trkpt>
      <trkpt lat="42.4563000910" lon="19.7721435595">
        <ele>1706.96</ele>
        <time>2019-07-06T12:05:10Z</time>
      </trkpt>
      <trkpt lat="42.4562299345" lon="19.7721443977">
        <ele>1706.96</ele>
        <time>2019-07-06T12:05:16Z</time>
      </trkpt>
      <trkpt lat="42.4561070558" lon="19.7721267119">
        <ele>1707.92</ele>
        <time>2019-07-06T12:05:28Z</time>
      </trkpt>
      <trkpt lat="42.4560764618" lon="19.7721469123">
        <ele>1706.96</ele>
        <time>2019-07-06T12:05:42Z</time>
      </trkpt>
      <trkpt lat="42.4560232367" lon="19.7722104471">
        <ele>1706.48</ele>
        <time>2019-07-06T12:05:52Z</time>
      </trkpt>
      <trkpt lat="42.4559699278" lon="19.7722490039">
        <ele>1706.00</ele>
        <time>2019-07-06T12:05:58Z</time>
      </trkpt>
      <trkpt lat="42.4559545051" lon="19.7722640075">
        <ele>1705.52</ele>
        <time>2019-07-06T12:06:00Z</time>
      </trkpt>
      <trkpt lat="42.4558498152" lon="19.7722915839">
        <ele>1706.48</ele>
        <time>2019-07-06T12:06:11Z</time>
      </trkpt>
      <trkpt lat="42.4558421038" lon="19.7722972836">
        <ele>1706.48</ele>
        <time>2019-07-06T12:06:12Z</time>
      </trkpt>
      <trkpt lat="42.4558104202" lon="19.7723220941">
        <ele>1706.48</ele>
        <time>2019-07-06T12:06:15Z</time>
      </trkpt>
      <trkpt lat="42.4557846040" lon="19.7723587230">
        <ele>1705.52</ele>
        <time>2019-07-06T12:06:18Z</time>
      </trkpt>
      <trkpt lat="42.4557642359" lon="19.7723617405">
        <ele>1705.52</ele>
        <time>2019-07-06T12:06:20Z</time>
      </trkpt>
      <trkpt lat="42.4556685984" lon="19.7723487485">
        <ele>1706.48</ele>
        <time>2019-07-06T12:06:30Z</time>
      </trkpt>
      <trkpt lat="42.4556392618" lon="19.7723608185">
        <ele>1706.96</ele>
        <time>2019-07-06T12:06:33Z</time>
      </trkpt>
      <trkpt lat="42.4555302132" lon="19.7723551188">
        <ele>1707.92</ele>
        <time>2019-07-06T12:06:46Z</time>
      </trkpt>
      <trkpt lat="42.4555048998" lon="19.7723545320">
        <ele>1708.40</ele>
        <time>2019-07-06T12:06:49Z</time>
      </trkpt>
      <trkpt lat="42.4554337375" lon="19.7723384388">
        <ele>1708.40</ele>
        <time>2019-07-06T12:06:56Z</time>
      </trkpt>
      <trkpt lat="42.4553599767" lon="19.7723514307">
        <ele>1708.88</ele>
        <time>2019-07-06T12:07:02Z</time>
      </trkpt>
      <trkpt lat="42.4552740622" lon="19.7723596450">
        <ele>1710.32</ele>
        <time>2019-07-06T12:07:13Z</time>
      </trkpt>
      <trkpt lat="42.4551641755" lon="19.7723295540">
        <ele>1712.25</ele>
        <time>2019-07-06T12:07:27Z</time>
      </trkpt>
      <trkpt lat="42.4550807755" lon="19.7723261174">
        <ele>1713.69</ele>
        <time>2019-07-06T12:07:39Z</time>
      </trkpt>
      <trkpt lat="42.4550583120" lon="19.7723254468">
        <ele>1714.17</ele>
        <time>2019-07-06T12:07:42Z</time>
      </trkpt>
      <trkpt lat="42.4550292268" lon="19.7723286320">
        <ele>1714.65</ele>
        <time>2019-07-06T12:07:45Z</time>
      </trkpt>
      <trkpt lat="42.4549889937" lon="19.7723302245">
        <ele>1714.65</ele>
        <time>2019-07-06T12:07:49Z</time>
      </trkpt>
      <trkpt lat="42.4548112135" lon="19.7722758260">
        <ele>1712.73</ele>
        <time>2019-07-06T12:08:03Z</time>
      </trkpt>
      <trkpt lat="42.4547527079" lon="19.7722718865">
        <ele>1714.17</ele>
        <time>2019-07-06T12:08:09Z</time>
      </trkpt>
      <trkpt lat="42.4546698947" lon="19.7722025681">
        <ele>1714.17</ele>
        <time>2019-07-06T12:08:17Z</time>
      </trkpt>
      <trkpt lat="42.4546059407" lon="19.7720293142">
        <ele>1713.69</ele>
        <time>2019-07-06T12:08:30Z</time>
      </trkpt>
      <trkpt lat="42.4545502849" lon="19.7719568107">
        <ele>1714.65</ele>
        <time>2019-07-06T12:08:40Z</time>
      </trkpt>
      <trkpt lat="42.4544848222" lon="19.7719164100">
        <ele>1714.65</ele>
        <time>2019-07-06T12:08:47Z</time>
      </trkpt>
      <trkpt lat="42.4543756060" lon="19.7718284838">
        <ele>1715.13</ele>
        <time>2019-07-06T12:09:02Z</time>
      </trkpt>
      <trkpt lat="42.4543245602" lon="19.7718003206">
        <ele>1715.13</ele>
        <time>2019-07-06T12:09:08Z</time>
      </trkpt>
      <trkpt lat="42.4542787950" lon="19.7717792820">
        <ele>1715.13</ele>
        <time>2019-07-06T12:09:12Z</time>
      </trkpt>
      <trkpt lat="42.4541940540" lon="19.7717046831">
        <ele>1716.09</ele>
        <time>2019-07-06T12:09:24Z</time>
      </trkpt>
      <trkpt lat="42.4541459419" lon="19.7716561519">
        <ele>1716.09</ele>
        <time>2019-07-06T12:09:29Z</time>
      </trkpt>
      <trkpt lat="42.4540723488" lon="19.7716280725">
        <ele>1716.09</ele>
        <time>2019-07-06T12:09:37Z</time>
      </trkpt>
      <trkpt lat="42.4540412519" lon="19.7716077883">
        <ele>1716.09</ele>
        <time>2019-07-06T12:09:40Z</time>
      </trkpt>
      <trkpt lat="42.4539894518" lon="19.7715868335">
        <ele>1716.09</ele>
        <time>2019-07-06T12:09:44Z</time>
      </trkpt>
      <trkpt lat="42.4539111648" lon="19.7714892682">
        <ele>1716.09</ele>
        <time>2019-07-06T12:09:56Z</time>
      </trkpt>
      <trkpt lat="42.4538693391" lon="19.7714300919">
        <ele>1716.57</ele>
        <time>2019-07-06T12:10:03Z</time>
      </trkpt>
      <trkpt lat="42.4538054690" lon="19.7712828219">
        <ele>1718.01</ele>
        <time>2019-07-06T12:10:18Z</time>
      </trkpt>
      <trkpt lat="42.4537928961" lon="19.7712458577">
        <ele>1718.01</ele>
        <time>2019-07-06T12:10:22Z</time>
      </trkpt>
      <trkpt lat="42.4537384976" lon="19.7711387370">
        <ele>1718.01</ele>
        <time>2019-07-06T12:10:35Z</time>
      </trkpt>
      <trkpt lat="42.4536721967" lon="19.7710459493">
        <ele>1718.01</ele>
        <time>2019-07-06T12:10:49Z</time>
      </trkpt>
      <trkpt lat="42.4535795767" lon="19.7709876113">
        <ele>1718.49</ele>
        <time>2019-07-06T12:11:01Z</time>
      </trkpt>
      <trkpt lat="42.4535522517" lon="19.7709725238">
        <ele>1718.49</ele>
        <time>2019-07-06T12:11:05Z</time>
      </trkpt>
      <trkpt lat="42.4535214063" lon="19.7709527425">
        <ele>1718.49</ele>
        <time>2019-07-06T12:11:09Z</time>
      </trkpt>
      <trkpt lat="42.4535042234" lon="19.7709266748">
        <ele>1718.49</ele>
        <time>2019-07-06T12:11:12Z</time>
      </trkpt>
      <trkpt lat="42.4534786586" lon="19.7709171195">
        <ele>1717.05</ele>
        <time>2019-07-06T12:11:15Z</time>
      </trkpt>
      <trkpt lat="42.4534126092" lon="19.7708897106">
        <ele>1715.61</ele>
        <time>2019-07-06T12:11:23Z</time>
      </trkpt>
      <trkpt lat="42.4533949234" lon="19.7708845139">
        <ele>1716.09</ele>
        <time>2019-07-06T12:11:25Z</time>
      </trkpt>
      <trkpt lat="42.4532539397" lon="19.7708089091">
        <ele>1714.65</ele>
        <time>2019-07-06T12:11:39Z</time>
      </trkpt>
      <trkpt lat="42.4531739764" lon="19.7707683407">
        <ele>1716.09</ele>
        <time>2019-07-06T12:11:49Z</time>
      </trkpt>
      <trkpt lat="42.4531649239" lon="19.7707695141">
        <ele>1716.09</ele>
        <time>2019-07-06T12:11:50Z</time>
      </trkpt>
      <trkpt lat="42.4530738965" lon="19.7708092444">
        <ele>1717.05</ele>
        <time>2019-07-06T12:12:02Z</time>
      </trkpt>
      <trkpt lat="42.4529900774" lon="19.7708133515">
        <ele>1718.49</ele>
        <time>2019-07-06T12:12:12Z</time>
      </trkpt>
      <trkpt lat="42.4529508501" lon="19.7707917262">
        <ele>1719.46</ele>
        <time>2019-07-06T12:12:18Z</time>
      </trkpt>
      <trkpt lat="42.4529101141" lon="19.7706799116">
        <ele>1720.42</ele>
        <time>2019-07-06T12:12:31Z</time>
      </trkpt>
      <trkpt lat="42.4528657738" lon="19.7706647404">
        <ele>1721.38</ele>
        <time>2019-07-06T12:12:44Z</time>
      </trkpt>
      <trkpt lat="42.4527496006" lon="19.7705853637">
        <ele>1722.34</ele>
        <time>2019-07-06T12:12:58Z</time>
      </trkpt>
      <trkpt lat="42.4527367763" lon="19.7704645805">
        <ele>1724.26</ele>
        <time>2019-07-06T12:13:12Z</time>
      </trkpt>
      <trkpt lat="42.4527395424" lon="19.7704556119">
        <ele>1724.26</ele>
        <time>2019-07-06T12:13:26Z</time>
      </trkpt>
      <trkpt lat="42.4527329206" lon="19.7704201564">
        <ele>1724.26</ele>
        <time>2019-07-06T12:14:03Z</time>
      </trkpt>
      <trkpt lat="42.4527521152" lon="19.7703681048">
        <ele>1723.78</ele>
        <time>2019-07-06T12:14:36Z</time>
      </trkpt>
      <trkpt lat="42.4527584855" lon="19.7704862896">
        <ele>1723.78</ele>
        <time>2019-07-06T12:15:14Z</time>
      </trkpt>
      <trkpt lat="42.4527338427" lon="19.7704672627">
        <ele>1723.30</ele>
        <time>2019-07-06T12:15:50Z</time>
      </trkpt>
      <trkpt lat="42.4527457450" lon="19.7704359144">
        <ele>1723.78</ele>
        <time>2019-07-06T12:16:05Z</time>
      </trkpt>
      <trkpt lat="42.4527062662" lon="19.7704297118">
        <ele>1723.78</ele>
        <time>2019-07-06T12:16:20Z</time>
      </trkpt>
      <trkpt lat="42.4526028335" lon="19.7704075836">
        <ele>1724.26</ele>
        <time>2019-07-06T12:16:31Z</time>
      </trkpt>
      <trkpt lat="42.4524836428" lon="19.7703578789">
        <ele>1725.22</ele>
        <time>2019-07-06T12:16:44Z</time>
      </trkpt>
      <trkpt lat="42.4524768535" lon="19.7702883929">
        <ele>1727.15</ele>
        <time>2019-07-06T12:16:56Z</time>
      </trkpt>
      <trkpt lat="42.4524602573" lon="19.7702621575">
        <ele>1727.63</ele>
        <time>2019-07-06T12:17:01Z</time>
      </trkpt>
      <trkpt lat="42.4524180964" lon="19.7702248581">
        <ele>1726.67</ele>
        <time>2019-07-06T12:17:06Z</time>
      </trkpt>
      <trkpt lat="42.4523780309" lon="19.7701933421">
        <ele>1726.67</ele>
        <time>2019-07-06T12:17:10Z</time>
      </trkpt>
      <trkpt lat="42.4523486942" lon="19.7700582258">
        <ele>1727.63</ele>
        <time>2019-07-06T12:17:22Z</time>
      </trkpt>
      <trkpt lat="42.4523333553" lon="19.7700303979">
        <ele>1728.11</ele>
        <time>2019-07-06T12:17:26Z</time>
      </trkpt>
      <trkpt lat="42.4522841536" lon="19.7698822897">
        <ele>1728.11</ele>
        <time>2019-07-06T12:17:41Z</time>
      </trkpt>
      <trkpt lat="42.4523005821" lon="19.7698504385">
        <ele>1729.07</ele>
        <time>2019-07-06T12:17:53Z</time>
      </trkpt>
      <trkpt lat="42.4522745144" lon="19.7697987221">
        <ele>1730.03</ele>
        <time>2019-07-06T12:18:17Z</time>
      </trkpt>
      <trkpt lat="42.4522511289" lon="19.7697174177">
        <ele>1731.95</ele>
        <time>2019-07-06T12:18:29Z</time>
      </trkpt>
      <trkpt lat="42.4522341974" lon="19.7696009092">
        <ele>1732.43</ele>
        <time>2019-07-06T12:18:41Z</time>
      </trkpt>
      <trkpt lat="42.4522094708" lon="19.7695424035">
        <ele>1732.91</ele>
        <time>2019-07-06T12:18:49Z</time>
      </trkpt>
      <trkpt lat="42.4521839060" lon="19.7694829758">
        <ele>1733.39</ele>
        <time>2019-07-06T12:18:54Z</time>
      </trkpt>
      <trkpt lat="42.4521764461" lon="19.7693460155">
        <ele>1734.36</ele>
        <time>2019-07-06T12:19:06Z</time>
      </trkpt>
      <trkpt lat="42.4521517195" lon="19.7691632900">
        <ele>1735.32</ele>
        <time>2019-07-06T12:19:20Z</time>
      </trkpt>
      <trkpt lat="42.4520910345" lon="19.7690767050">
        <ele>1737.72</ele>
        <time>2019-07-06T12:19:33Z</time>
      </trkpt>
      <trkpt lat="42.4520760309" lon="19.7690521460">
        <ele>1737.72</ele>
        <time>2019-07-06T12:19:36Z</time>
      </trkpt>
      <trkpt lat="42.4519857578" lon="19.7689612862">
        <ele>1739.64</ele>
        <time>2019-07-06T12:19:49Z</time>
      </trkpt>
      <trkpt lat="42.4519292638" lon="19.7689527366">
        <ele>1741.57</ele>
        <time>2019-07-06T12:20:01Z</time>
      </trkpt>
      <trkpt lat="42.4518817384" lon="19.7690369748">
        <ele>1743.01</ele>
        <time>2019-07-06T12:20:14Z</time>
      </trkpt>
      <trkpt lat="42.4518167786" lon="19.7690551635">
        <ele>1745.89</ele>
        <time>2019-07-06T12:20:25Z</time>
      </trkpt>
      <trkpt lat="42.4517938122" lon="19.7689776309">
        <ele>1746.85</ele>
        <time>2019-07-06T12:20:35Z</time>
      </trkpt>
      <trkpt lat="42.4517300259" lon="19.7688746173">
        <ele>1747.33</ele>
        <time>2019-07-06T12:20:48Z</time>
      </trkpt>
      <trkpt lat="42.4516951572" lon="19.7688738629">
        <ele>1747.33</ele>
        <time>2019-07-06T12:21:01Z</time>
      </trkpt>
      <trkpt lat="42.4516525771" lon="19.7688938119">
        <ele>1745.89</ele>
        <time>2019-07-06T12:21:07Z</time>
      </trkpt>
      <trkpt lat="42.4516452011" lon="19.7689189576">
        <ele>1745.89</ele>
        <time>2019-07-06T12:21:10Z</time>
      </trkpt>
      <trkpt lat="42.4516281858" lon="19.7689104080">
        <ele>1746.37</ele>
        <time>2019-07-06T12:21:23Z</time>
      </trkpt>
      <trkpt lat="42.4516128469" lon="19.7689581849">
        <ele>1743.49</ele>
        <time>2019-07-06T12:21:36Z</time>
      </trkpt>
      <trkpt lat="42.4515663274" lon="19.7690223902">
        <ele>1741.57</ele>
        <time>2019-07-06T12:21:49Z</time>
      </trkpt>
      <trkpt lat="42.4515629746" lon="19.7690409981">
        <ele>1740.60</ele>
        <time>2019-07-06T12:21:51Z</time>
      </trkpt>
      <trkpt lat="42.4515415169" lon="19.7691270802">
        <ele>1738.68</ele>
        <time>2019-07-06T12:21:59Z</time>
      </trkpt>
      <trkpt lat="42.4514504056" lon="19.7691330314">
        <ele>1736.76</ele>
        <time>2019-07-06T12:22:10Z</time>
      </trkpt>
      <trkpt lat="42.4513742980" lon="19.7691804729">
        <ele>1734.36</ele>
        <time>2019-07-06T12:22:21Z</time>
      </trkpt>
      <trkpt lat="42.4513426982" lon="19.7691983264">
        <ele>1733.39</ele>
        <time>2019-07-06T12:22:25Z</time>
      </trkpt>
      <trkpt lat="42.4512758106" lon="19.7692614421">
        <ele>1730.99</ele>
        <time>2019-07-06T12:22:37Z</time>
      </trkpt>
      <trkpt lat="42.4512288719" lon="19.7692167666">
        <ele>1730.03</ele>
        <time>2019-07-06T12:22:44Z</time>
      </trkpt>
      <trkpt lat="42.4511624034" lon="19.7691109870">
        <ele>1726.18</ele>
        <time>2019-07-06T12:22:58Z</time>
      </trkpt>
      <trkpt lat="42.4511248525" lon="19.7691548243">
        <ele>1724.74</ele>
        <time>2019-07-06T12:23:09Z</time>
      </trkpt>
      <trkpt lat="42.4510648381" lon="19.7691427544">
        <ele>1722.34</ele>
        <time>2019-07-06T12:23:21Z</time>
      </trkpt>
      <trkpt lat="42.4510315619" lon="19.7691849992">
        <ele>1720.90</ele>
        <time>2019-07-06T12:23:25Z</time>
      </trkpt>
      <trkpt lat="42.4509669375" lon="19.7692112345">
        <ele>1718.97</ele>
        <time>2019-07-06T12:23:35Z</time>
      </trkpt>
      <trkpt lat="42.4509073421" lon="19.7691937163">
        <ele>1715.13</ele>
        <time>2019-07-06T12:23:46Z</time>
      </trkpt>
      <trkpt lat="42.4508555420" lon="19.7691755276">
        <ele>1714.17</ele>
        <time>2019-07-06T12:23:54Z</time>
      </trkpt>
      <trkpt lat="42.4507376086" lon="19.7691165190">
        <ele>1710.32</ele>
        <time>2019-07-06T12:24:07Z</time>
      </trkpt>
      <trkpt lat="42.4507222697" lon="19.7691243980">
        <ele>1710.32</ele>
        <time>2019-07-06T12:24:09Z</time>
      </trkpt>
      <trkpt lat="42.4506253749" lon="19.7691016831">
        <ele>1707.44</ele>
        <time>2019-07-06T12:24:20Z</time>
      </trkpt>
      <trkpt lat="42.4506118800" lon="19.7691145912">
        <ele>1706.48</ele>
        <time>2019-07-06T12:24:22Z</time>
      </trkpt>
      <trkpt lat="42.4506040011" lon="19.7691345401">
        <ele>1706.48</ele>
        <time>2019-07-06T12:24:24Z</time>
      </trkpt>
      <trkpt lat="42.4504480138" lon="19.7691282537">
        <ele>1703.11</ele>
        <time>2019-07-06T12:24:38Z</time>
      </trkpt>
      <trkpt lat="42.4504097085" lon="19.7691250686">
        <ele>1702.15</ele>
        <time>2019-07-06T12:24:41Z</time>
      </trkpt>
      <trkpt lat="42.4503767677" lon="19.7691416647">
        <ele>1701.19</ele>
        <time>2019-07-06T12:24:44Z</time>
      </trkpt>
      <trkpt lat="42.4502719101" lon="19.7691726778">
        <ele>1699.27</ele>
        <time>2019-07-06T12:24:54Z</time>
      </trkpt>
      <trkpt lat="42.4501538090" lon="19.7691690736">
        <ele>1696.38</ele>
        <time>2019-07-06T12:25:04Z</time>
      </trkpt>
      <trkpt lat="42.4501018412" lon="19.7691554110">
        <ele>1694.46</ele>
        <time>2019-07-06T12:25:10Z</time>
      </trkpt>
      <trkpt lat="42.4500503764" lon="19.7691530641">
        <ele>1693.50</ele>
        <time>2019-07-06T12:25:15Z</time>
      </trkpt>
      <trkpt lat="42.4500158429" lon="19.7691656370">
        <ele>1693.02</ele>
        <time>2019-07-06T12:25:18Z</time>
      </trkpt>
      <trkpt lat="42.4499026034" lon="19.7691058740">
        <ele>1690.62</ele>
        <time>2019-07-06T12:25:29Z</time>
      </trkpt>
      <trkpt lat="42.4497844186" lon="19.7691598535">
        <ele>1687.73</ele>
        <time>2019-07-06T12:25:39Z</time>
      </trkpt>
      <trkpt lat="42.4497607816" lon="19.7691836581">
        <ele>1687.25</ele>
        <time>2019-07-06T12:25:41Z</time>
      </trkpt>
      <trkpt lat="42.4497180339" lon="19.7692151740">
        <ele>1685.81</ele>
        <time>2019-07-06T12:25:45Z</time>
      </trkpt>
      <trkpt lat="42.4496237375" lon="19.7692968138">
        <ele>1683.41</ele>
        <time>2019-07-06T12:25:54Z</time>
      </trkpt>
      <trkpt lat="42.4496300239" lon="19.7695193533">
        <ele>1682.44</ele>
        <time>2019-07-06T12:26:08Z</time>
      </trkpt>
      <trkpt lat="42.4496125057" lon="19.7696224507">
        <ele>1681.96</ele>
        <time>2019-07-06T12:26:14Z</time>
      </trkpt>
      <trkpt lat="42.4495700095" lon="19.7698511928">
        <ele>1680.04</ele>
        <time>2019-07-06T12:26:28Z</time>
      </trkpt>
      <trkpt lat="42.4495332967" lon="19.7699855547">
        <ele>1679.08</ele>
        <time>2019-07-06T12:26:43Z</time>
      </trkpt>
      <trkpt lat="42.4495560117" lon="19.7700347565">
        <ele>1679.08</ele>
        <time>2019-07-06T12:26:54Z</time>
      </trkpt>
      <trkpt lat="42.4495513178" lon="19.7700748220">
        <ele>1677.64</ele>
        <time>2019-07-06T12:27:06Z</time>
      </trkpt>
      <trkpt lat="42.4495459534" lon="19.7701375186">
        <ele>1675.72</ele>
        <time>2019-07-06T12:27:13Z</time>
      </trkpt>
      <trkpt lat="42.4494975060" lon="19.7701325733">
        <ele>1674.27</ele>
        <time>2019-07-06T12:27:21Z</time>
      </trkpt>
      <trkpt lat="42.4494486395" lon="19.7701296397">
        <ele>1672.83</ele>
        <time>2019-07-06T12:27:26Z</time>
      </trkpt>
      <trkpt lat="42.4494246673" lon="19.7701446433">
        <ele>1672.83</ele>
        <time>2019-07-06T12:27:29Z</time>
      </trkpt>
      <trkpt lat="42.4494034611" lon="19.7701049969">
        <ele>1671.87</ele>
        <time>2019-07-06T12:27:33Z</time>
      </trkpt>
      <trkpt lat="42.4493668322" lon="19.7700645123">
        <ele>1670.91</ele>
        <time>2019-07-06T12:27:37Z</time>
      </trkpt>
      <trkpt lat="42.4493220728" lon="19.7700516880">
        <ele>1670.91</ele>
        <time>2019-07-06T12:27:41Z</time>
      </trkpt>
      <trkpt lat="42.4492965080" lon="19.7700386960">
        <ele>1670.43</ele>
        <time>2019-07-06T12:27:44Z</time>
      </trkpt>
      <trkpt lat="42.4492605496" lon="19.7699432261">
        <ele>1668.99</ele>
        <time>2019-07-06T12:27:52Z</time>
      </trkpt>
      <trkpt lat="42.4492385052" lon="19.7699027415">
        <ele>1668.02</ele>
        <time>2019-07-06T12:27:56Z</time>
      </trkpt>
      <trkpt lat="42.4491931591" lon="19.7698539589">
        <ele>1665.62</ele>
        <time>2019-07-06T12:28:07Z</time>
      </trkpt>
      <trkpt lat="42.4491582066" lon="19.7698881570">
        <ele>1663.70</ele>
        <time>2019-07-06T12:28:16Z</time>
      </trkpt>
      <trkpt lat="42.4490856193" lon="19.7700050846">
        <ele>1660.81</ele>
        <time>2019-07-06T12:28:29Z</time>
      </trkpt>
      <trkpt lat="42.4490755610" lon="19.7700141370">
        <ele>1660.81</ele>
        <time>2019-07-06T12:28:30Z</time>
      </trkpt>
      <trkpt lat="42.4490064941" lon="19.7701005545">
        <ele>1658.89</ele>
        <time>2019-07-06T12:28:39Z</time>
      </trkpt>
      <trkpt lat="42.4489289615" lon="19.7700980399">
        <ele>1656.01</ele>
        <time>2019-07-06T12:28:50Z</time>
      </trkpt>
      <trkpt lat="42.4488987867" lon="19.7700539511">
        <ele>1656.01</ele>
        <time>2019-07-06T12:29:06Z</time>
      </trkpt>
      <trkpt lat="42.4488920812" lon="19.7700475808">
        <ele>1655.53</ele>
        <time>2019-07-06T12:29:07Z</time>
      </trkpt>
      <trkpt lat="42.4488252774" lon="19.7699612472">
        <ele>1654.09</ele>
        <time>2019-07-06T12:29:20Z</time>
      </trkpt>
      <trkpt lat="42.4487308972" lon="19.7699079383">
        <ele>1654.09</ele>
        <time>2019-07-06T12:29:32Z</time>
      </trkpt>
      <trkpt lat="42.4487303104" lon="19.7698928509">
        <ele>1654.09</ele>
        <time>2019-07-06T12:29:33Z</time>
      </trkpt>
      <trkpt lat="42.4486956932" lon="19.7698578145">
        <ele>1653.60</ele>
        <time>2019-07-06T12:29:38Z</time>
      </trkpt>
      <trkpt lat="42.4486651830" lon="19.7698513605">
        <ele>1653.12</ele>
        <time>2019-07-06T12:29:41Z</time>
      </trkpt>
      <trkpt lat="42.4486215133" lon="19.7697967943">
        <ele>1651.20</ele>
        <time>2019-07-06T12:29:53Z</time>
      </trkpt>
      <trkpt lat="42.4486189149" lon="19.7697911784">
        <ele>1651.20</ele>
        <time>2019-07-06T12:29:54Z</time>
      </trkpt>
      <trkpt lat="42.4485850520" lon="19.7697345167">
        <ele>1650.24</ele>
        <time>2019-07-06T12:30:00Z</time>
      </trkpt>
      <trkpt lat="42.4485682882" lon="19.7695974726">
        <ele>1649.28</ele>
        <time>2019-07-06T12:30:12Z</time>
      </trkpt>
      <trkpt lat="42.4485152308" lon="19.7694351152">
        <ele>1646.88</ele>
        <time>2019-07-06T12:30:25Z</time>
      </trkpt>
      <trkpt lat="42.4485086929" lon="19.7693938762">
        <ele>1646.40</ele>
        <time>2019-07-06T12:30:28Z</time>
      </trkpt>
      <trkpt lat="42.4484256282" lon="19.7693153378">
        <ele>1644.47</ele>
        <time>2019-07-06T12:30:38Z</time>
      </trkpt>
      <trkpt lat="42.4484066851" lon="19.7693093028">
        <ele>1643.99</ele>
        <time>2019-07-06T12:30:40Z</time>
      </trkpt>
      <trkpt lat="42.4483304936" lon="19.7691948898">
        <ele>1643.03</ele>
        <time>2019-07-06T12:30:52Z</time>
      </trkpt>
      <trkpt lat="42.4482532125" lon="19.7690679040">
        <ele>1640.63</ele>
        <time>2019-07-06T12:31:05Z</time>
      </trkpt>
      <trkpt lat="42.4482475966" lon="19.7690614499">
        <ele>1640.63</ele>
        <time>2019-07-06T12:31:06Z</time>
      </trkpt>
      <trkpt lat="42.4482134823" lon="19.7690539900">
        <ele>1639.67</ele>
        <time>2019-07-06T12:31:09Z</time>
      </trkpt>
      <trkpt lat="42.4480355345" lon="19.7690487932">
        <ele>1637.74</ele>
        <time>2019-07-06T12:31:23Z</time>
      </trkpt>
      <trkpt lat="42.4479191937" lon="19.7690154333">
        <ele>1637.26</ele>
        <time>2019-07-06T12:31:35Z</time>
      </trkpt>
      <trkpt lat="42.4478220474" lon="19.7690298501">
        <ele>1637.26</ele>
        <time>2019-07-06T12:31:47Z</time>
      </trkpt>
      <trkpt lat="42.4477898609" lon="19.7690446023">
        <ele>1636.78</ele>
        <time>2019-07-06T12:31:51Z</time>
      </trkpt>
      <trkpt lat="42.4476920441" lon="19.7690465301">
        <ele>1635.82</ele>
        <time>2019-07-06T12:32:02Z</time>
      </trkpt>
      <trkpt lat="42.4476197921" lon="19.7690515593">
        <ele>1635.82</ele>
        <time>2019-07-06T12:32:11Z</time>
      </trkpt>
      <trkpt lat="42.4475858454" lon="19.7690580972">
        <ele>1635.82</ele>
        <time>2019-07-06T12:32:14Z</time>
      </trkpt>
      <trkpt lat="42.4474972486" lon="19.7691354621">
        <ele>1633.42</ele>
        <time>2019-07-06T12:32:25Z</time>
      </trkpt>
      <trkpt lat="42.4474580213" lon="19.7691901959">
        <ele>1633.42</ele>
        <time>2019-07-06T12:32:38Z</time>
      </trkpt>
      <trkpt lat="42.4473699275" lon="19.7693113144">
        <ele>1631.01</ele>
        <time>2019-07-06T12:32:51Z</time>
      </trkpt>
      <trkpt lat="42.4473375734" lon="19.7693506256">
        <ele>1629.57</ele>
        <time>2019-07-06T12:32:57Z</time>
      </trkpt>
      <trkpt lat="42.4472921435" lon="19.7694109753">
        <ele>1628.61</ele>
        <time>2019-07-06T12:33:04Z</time>
      </trkpt>
      <trkpt lat="42.4472107552" lon="19.7695809603">
        <ele>1626.21</ele>
        <time>2019-07-06T12:33:17Z</time>
      </trkpt>
      <trkpt lat="42.4472038820" lon="19.7696261387">
        <ele>1626.21</ele>
        <time>2019-07-06T12:33:20Z</time>
      </trkpt>
      <trkpt lat="42.4472431932" lon="19.7697715648">
        <ele>1625.73</ele>
        <time>2019-07-06T12:33:33Z</time>
      </trkpt>
      <trkpt lat="42.4472870305" lon="19.7698635142">
        <ele>1624.77</ele>
        <time>2019-07-06T12:33:45Z</time>
      </trkpt>
      <trkpt lat="42.4473068956" lon="19.7699682880">
        <ele>1623.80</ele>
        <time>2019-07-06T12:33:58Z</time>
      </trkpt>
      <trkpt lat="42.4473172054" lon="19.7700477485">
        <ele>1623.80</ele>
        <time>2019-07-06T12:34:10Z</time>
      </trkpt>
      <trkpt lat="42.4473351426" lon="19.7701134626">
        <ele>1625.25</ele>
        <time>2019-07-06T12:34:18Z</time>
      </trkpt>
      <trkpt lat="42.4473663233" lon="19.7701715492">
        <ele>1625.25</ele>
        <time>2019-07-06T12:34:26Z</time>
      </trkpt>
      <trkpt lat="42.4474092387" lon="19.7701969463">
        <ele>1623.80</ele>
        <time>2019-07-06T12:34:38Z</time>
      </trkpt>
      <trkpt lat="42.4473904632" lon="19.7702239361">
        <ele>1625.25</ele>
        <time>2019-07-06T12:34:43Z</time>
      </trkpt>
      <trkpt lat="42.4473366514" lon="19.7702362575">
        <ele>1624.77</ele>
        <time>2019-07-06T12:34:58Z</time>
      </trkpt>
      <trkpt lat="42.4473186303" lon="19.7702660132">
        <ele>1624.77</ele>
        <time>2019-07-06T12:35:11Z</time>
      </trkpt>
      <trkpt lat="42.4472818337" lon="19.7703561187">
        <ele>1623.32</ele>
        <time>2019-07-06T12:35:24Z</time>
      </trkpt>
      <trkpt lat="42.4472897127" lon="19.7703666799">
        <ele>1623.32</ele>
        <time>2019-07-06T12:35:38Z</time>
      </trkpt>
      <trkpt lat="42.4472934846" lon="19.7703224234">
        <ele>1622.36</ele>
        <time>2019-07-06T12:36:01Z</time>
      </trkpt>
      <trkpt lat="42.4473112542" lon="19.7703501675">
        <ele>1621.88</ele>
        <time>2019-07-06T12:36:38Z</time>
      </trkpt>
      <trkpt lat="42.4472764693" lon="19.7704047337">
        <ele>1621.40</ele>
        <time>2019-07-06T12:37:15Z</time>
      </trkpt>
      <trkpt lat="42.4472936522" lon="19.7703992017">
        <ele>1620.92</ele>
        <time>2019-07-06T12:37:56Z</time>
      </trkpt>
      <trkpt lat="42.4472779781" lon="19.7704025544">
        <ele>1620.44</ele>
        <time>2019-07-06T12:38:35Z</time>
      </trkpt>
      <trkpt lat="42.4472834263" lon="19.7704004589">
        <ele>1619.96</ele>
        <time>2019-07-06T12:39:15Z</time>
      </trkpt>
      <trkpt lat="42.4473001063" lon="19.7704230901">
        <ele>1619.48</ele>
        <time>2019-07-06T12:39:49Z</time>
      </trkpt>
      <trkpt lat="42.4473044649" lon="19.7704135347">
        <ele>1619.00</ele>
        <time>2019-07-06T12:40:24Z</time>
      </trkpt>
      <trkpt lat="42.4472568557" lon="19.7704483196">
        <ele>1618.04</ele>
        <time>2019-07-06T12:41:03Z</time>
      </trkpt>
      <trkpt lat="42.4472387508" lon="19.7704401053">
        <ele>1617.56</ele>
        <time>2019-07-06T12:41:43Z</time>
      </trkpt>
      <trkpt lat="42.4472400080" lon="19.7704234254">
        <ele>1617.07</ele>
        <time>2019-07-06T12:42:20Z</time>
      </trkpt>
      <trkpt lat="42.4472562689" lon="19.7704582103">
        <ele>1617.07</ele>
        <time>2019-07-06T12:42:51Z</time>
      </trkpt>
      <trkpt lat="42.4472627230" lon="19.7704090923">
        <ele>1616.59</ele>
        <time>2019-07-06T12:43:31Z</time>
      </trkpt>
      <trkpt lat="42.4473185465" lon="19.7703882214">
        <ele>1616.11</ele>
        <time>2019-07-06T12:44:17Z</time>
      </trkpt>
      <trkpt lat="42.4473007768" lon="19.7704030573">
        <ele>1615.63</ele>
        <time>2019-07-06T12:44:54Z</time>
      </trkpt>
      <trkpt lat="42.4472879525" lon="19.7704152111">
        <ele>1615.63</ele>
        <time>2019-07-06T12:45:32Z</time>
      </trkpt>
      <trkpt lat="42.4472584482" lon="19.7704610601">
        <ele>1615.15</ele>
        <time>2019-07-06T12:46:12Z</time>
      </trkpt>
      <trkpt lat="42.4472428579" lon="19.7704814281">
        <ele>1614.67</ele>
        <time>2019-07-06T12:46:44Z</time>
      </trkpt>
      <trkpt lat="42.4472820014" lon="19.7704498284">
        <ele>1614.67</ele>
        <time>2019-07-06T12:47:14Z</time>
      </trkpt>
      <trkpt lat="42.4472858571" lon="19.7704521753">
        <ele>1614.19</ele>
        <time>2019-07-06T12:47:56Z</time>
      </trkpt>
      <trkpt lat="42.4472995196" lon="19.7703660093">
        <ele>1614.19</ele>
        <time>2019-07-06T12:48:32Z</time>
      </trkpt>
      <trkpt lat="42.4472769722" lon="19.7703977767">
        <ele>1613.71</ele>
        <time>2019-07-06T12:49:14Z</time>
      </trkpt>
      <trkpt lat="42.4472799059" lon="19.7703916579">
        <ele>1613.71</ele>
        <time>2019-07-06T12:49:50Z</time>
      </trkpt>
      <trkpt lat="42.4472907186" lon="19.7703974415">
        <ele>1613.23</ele>
        <time>2019-07-06T12:50:34Z</time>
      </trkpt>
      <trkpt lat="42.4472741224" lon="19.7704463918">
        <ele>1613.23</ele>
        <time>2019-07-06T12:51:04Z</time>
      </trkpt>
      <trkpt lat="42.4472715240" lon="19.7704639100">
        <ele>1612.75</ele>
        <time>2019-07-06T12:51:39Z</time>
      </trkpt>
      <trkpt lat="42.4472842645" lon="19.7704419494">
        <ele>1613.71</ele>
        <time>2019-07-06T12:52:17Z</time>
      </trkpt>
      <trkpt lat="42.4473425187" lon="19.7703477368">
        <ele>1613.71</ele>
        <time>2019-07-06T12:53:00Z</time>
      </trkpt>
      <trkpt lat="42.4473228212" lon="19.7703633271">
        <ele>1613.71</ele>
        <time>2019-07-06T12:53:31Z</time>
      </trkpt>
      <trkpt lat="42.4472857732" lon="19.7703480721">
        <ele>1613.71</ele>
        <time>2019-07-06T12:54:07Z</time>
      </trkpt>
      <trkpt lat="42.4472845998" lon="19.7703904007">
        <ele>1613.23</ele>
        <time>2019-07-06T12:54:42Z</time>
      </trkpt>
      <trkpt lat="42.4473599531" lon="19.7703791689">
        <ele>1613.23</ele>
        <time>2019-07-06T12:55:27Z</time>
      </trkpt>
      <trkpt lat="42.4472956639" lon="19.7703209147">
        <ele>1613.23</ele>
        <time>2019-07-06T12:56:09Z</time>
      </trkpt>
      <trkpt lat="42.4473185465" lon="19.7703593038">
        <ele>1613.23</ele>
        <time>2019-07-06T12:56:47Z</time>
      </trkpt>
      <trkpt lat="42.4473175406" lon="19.7703227587">
        <ele>1612.75</ele>
        <time>2019-07-06T12:57:29Z</time>
      </trkpt>
      <trkpt lat="42.4472804926" lon="19.7703598905">
        <ele>1612.75</ele>
        <time>2019-07-06T12:58:02Z</time>
      </trkpt>
      <trkpt lat="42.4473062251" lon="19.7703443840">
        <ele>1612.75</ele>
        <time>2019-07-06T12:58:32Z</time>
      </trkpt>
      <trkpt lat="42.4473084044" lon="19.7703902330">
        <ele>1612.75</ele>
        <time>2019-07-06T12:59:11Z</time>
      </trkpt>
      <trkpt lat="42.4473095778" lon="19.7703686077">
        <ele>1612.75</ele>
        <time>2019-07-06T12:59:43Z</time>
      </trkpt>
      <trkpt lat="42.4474011082" lon="19.7703318950">
        <ele>1612.75</ele>
        <time>2019-07-06T13:00:21Z</time>
      </trkpt>
      <trkpt lat="42.4473213963" lon="19.7703898977">
        <ele>1613.23</ele>
        <time>2019-07-06T13:00:57Z</time>
      </trkpt>
      <trkpt lat="42.4473171216" lon="19.7703696974">
        <ele>1612.75</ele>
        <time>2019-07-06T13:01:34Z</time>
      </trkpt>
      <trkpt lat="42.4473303650" lon="19.7703507543">
        <ele>1612.75</ele>
        <time>2019-07-06T13:02:14Z</time>
      </trkpt>
      <trkpt lat="42.4473343045" lon="19.7703732178">
        <ele>1612.75</ele>
        <time>2019-07-06T13:03:00Z</time>
      </trkpt>
      <trkpt lat="42.4473887030" lon="19.7703407798">
        <ele>1612.27</ele>
        <time>2019-07-06T13:03:41Z</time>
      </trkpt>
      <trkpt lat="42.4474188779" lon="19.7703611478">
        <ele>1612.27</ele>
        <time>2019-07-06T13:04:17Z</time>
      </trkpt>
      <trkpt lat="42.4473617971" lon="19.7703698650">
        <ele>1612.27</ele>
        <time>2019-07-06T13:04:53Z</time>
      </trkpt>
      <trkpt lat="42.4473006930" lon="19.7703667637">
        <ele>1612.27</ele>
        <time>2019-07-06T13:05:28Z</time>
      </trkpt>
      <trkpt lat="42.4473239109" lon="19.7703610640">
        <ele>1611.79</ele>
        <time>2019-07-06T13:06:13Z</time>
      </trkpt>
      <trkpt lat="42.4472645670" lon="19.7703648359">
        <ele>1611.79</ele>
        <time>2019-07-06T13:06:58Z</time>
      </trkpt>
      <trkpt lat="42.4473173730" lon="19.7703821864">
        <ele>1611.31</ele>
        <time>2019-07-06T13:07:29Z</time>
      </trkpt>
      <trkpt lat="42.4473344721" lon="19.7703540232">
        <ele>1611.31</ele>
        <time>2019-07-06T13:08:01Z</time>
      </trkpt>
      <trkpt lat="42.4473239109" lon="19.7703497484">
        <ele>1611.31</ele>
        <time>2019-07-06T13:08:38Z</time>
      </trkpt>
      <trkpt lat="42.4472948257" lon="19.7703207470">
        <ele>1610.83</ele>
        <time>2019-07-06T13:09:11Z</time>
      </trkpt>
      <trkpt lat="42.4472892098" lon="19.7703241836">
        <ele>1610.83</ele>
        <time>2019-07-06T13:09:53Z</time>
      </trkpt>
      <trkpt lat="42.4473396689" lon="19.7703770734">
        <ele>1610.83</ele>
        <time>2019-07-06T13:10:39Z</time>
      </trkpt>
      <trkpt lat="42.4473332986" lon="19.7703929991">
        <ele>1610.35</ele>
        <time>2019-07-06T13:11:22Z</time>
      </trkpt>
      <trkpt lat="42.4473066442" lon="19.7703506704">
        <ele>1610.35</ele>
        <time>2019-07-06T13:11:55Z</time>
      </trkpt>
      <trkpt lat="42.4473155290" lon="19.7703533527">
        <ele>1609.86</ele>
        <time>2019-07-06T13:12:33Z</time>
      </trkpt>
      <trkpt lat="42.4472993519" lon="19.7703727987">
        <ele>1609.86</ele>
        <time>2019-07-06T13:13:12Z</time>
      </trkpt>
      <trkpt lat="42.4472949095" lon="19.7703783307">
        <ele>1609.86</ele>
        <time>2019-07-06T13:13:51Z</time>
      </trkpt>
      <trkpt lat="42.4473116733" lon="19.7703360859">
        <ele>1609.38</ele>
        <time>2019-07-06T13:14:30Z</time>
      </trkpt>
      <trkpt lat="42.4473084882" lon="19.7703649197">
        <ele>1609.38</ele>
        <time>2019-07-06T13:15:17Z</time>
      </trkpt>
      <trkpt lat="42.4472880363" lon="19.7703576274">
        <ele>1608.90</ele>
        <time>2019-07-06T13:15:50Z</time>
      </trkpt>
      <trkpt lat="42.4473116733" lon="19.7703701165">
        <ele>1608.90</ele>
        <time>2019-07-06T13:16:27Z</time>
      </trkpt>
      <trkpt lat="42.4472845998" lon="19.7703704517">
        <ele>1608.90</ele>
        <time>2019-07-06T13:17:08Z</time>
      </trkpt>
      <trkpt lat="42.4473101646" lon="19.7703289613">
        <ele>1608.42</ele>
        <time>2019-07-06T13:17:52Z</time>
      </trkpt>
      <trkpt lat="42.4473233242" lon="19.7703466471">
        <ele>1608.42</ele>
        <time>2019-07-06T13:18:35Z</time>
      </trkpt>
      <trkpt lat="42.4473195523" lon="19.7703567892">
        <ele>1608.42</ele>
        <time>2019-07-06T13:19:12Z</time>
      </trkpt>
      <trkpt lat="42.4473040458" lon="19.7703191545">
        <ele>1606.98</ele>
        <time>2019-07-06T13:19:42Z</time>
      </trkpt>
      <trkpt lat="42.4473176245" lon="19.7703256924">
        <ele>1606.98</ele>
        <time>2019-07-06T13:20:14Z</time>
      </trkpt>
      <trkpt lat="42.4473209772" lon="19.7703349125">
        <ele>1606.98</ele>
        <time>2019-07-06T13:20:51Z</time>
      </trkpt>
      <trkpt lat="42.4473039620" lon="19.7703156341">
        <ele>1606.98</ele>
        <time>2019-07-06T13:21:24Z</time>
      </trkpt>
      <trkpt lat="42.4472851027" lon="19.7703305539">
        <ele>1606.98</ele>
        <time>2019-07-06T13:21:55Z</time>
      </trkpt>
      <trkpt lat="42.4473070633" lon="19.7703388520">
        <ele>1606.98</ele>
        <time>2019-07-06T13:22:31Z</time>
      </trkpt>
      <trkpt lat="42.4473070633" lon="19.7703426238">
        <ele>1606.98</ele>
        <time>2019-07-06T13:23:08Z</time>
      </trkpt>
      <trkpt lat="42.4473043811" lon="19.7703425400">
        <ele>1606.98</ele>
        <time>2019-07-06T13:23:42Z</time>
      </trkpt>
      <trkpt lat="42.4472901318" lon="19.7703312244">
        <ele>1608.42</ele>
        <time>2019-07-06T13:23:55Z</time>
      </trkpt>
      <trkpt lat="42.4473005254" lon="19.7703075875">
        <ele>1608.90</ele>
        <time>2019-07-06T13:24:07Z</time>
      </trkpt>
      <trkpt lat="42.4472773075" lon="19.7703261953">
        <ele>1608.90</ele>
        <time>2019-07-06T13:24:24Z</time>
      </trkpt>
      <trkpt lat="42.4472846836" lon="19.7703234293">
        <ele>1608.90</ele>
        <time>2019-07-06T13:24:46Z</time>
      </trkpt>
      <trkpt lat="42.4472769722" lon="19.7703429591">
        <ele>1608.90</ele>
        <time>2019-07-06T13:24:58Z</time>
      </trkpt>
      <trkpt lat="42.4472736195" lon="19.7703994531">
        <ele>1608.90</ele>
        <time>2019-07-06T13:25:20Z</time>
      </trkpt>
      <trkpt lat="42.4472401757" lon="19.7704361659">
        <ele>1608.90</ele>
        <time>2019-07-06T13:25:35Z</time>
      </trkpt>
      <trkpt lat="42.4472219031" lon="19.7703898139">
        <ele>1608.90</ele>
        <time>2019-07-06T13:25:47Z</time>
      </trkpt>
      <trkpt lat="42.4471706059" lon="19.7704099305">
        <ele>1608.90</ele>
        <time>2019-07-06T13:26:00Z</time>
      </trkpt>
      <trkpt lat="42.4471193925" lon="19.7704167198">
        <ele>1609.38</ele>
        <time>2019-07-06T13:26:15Z</time>
      </trkpt>
      <trkpt lat="42.4470800813" lon="19.7704063263">
        <ele>1609.38</ele>
        <time>2019-07-06T13:26:28Z</time>
      </trkpt>
      <trkpt lat="42.4470188934" lon="19.7704001237">
        <ele>1607.94</ele>
        <time>2019-07-06T13:26:39Z</time>
      </trkpt>
      <trkpt lat="42.4469694402" lon="19.7704569530">
        <ele>1607.46</ele>
        <time>2019-07-06T13:26:52Z</time>
      </trkpt>
      <trkpt lat="42.4469340686" lon="19.7705219965">
        <ele>1607.46</ele>
        <time>2019-07-06T13:27:03Z</time>
      </trkpt>
      <trkpt lat="42.4468619004" lon="19.7705501597">
        <ele>1608.90</ele>
        <time>2019-07-06T13:27:15Z</time>
      </trkpt>
      <trkpt lat="42.4468287919" lon="19.7705034725">
        <ele>1609.86</ele>
        <time>2019-07-06T13:27:28Z</time>
      </trkpt>
      <trkpt lat="42.4467951804" lon="19.7704289574">
        <ele>1610.83</ele>
        <time>2019-07-06T13:27:42Z</time>
      </trkpt>
      <trkpt lat="42.4467266165" lon="19.7703812644">
        <ele>1612.75</ele>
        <time>2019-07-06T13:27:57Z</time>
      </trkpt>
      <trkpt lat="42.4466765765" lon="19.7703684401">
        <ele>1614.67</ele>
        <time>2019-07-06T13:28:10Z</time>
      </trkpt>
      <trkpt lat="42.4466372654" lon="19.7703834437">
        <ele>1616.11</ele>
        <time>2019-07-06T13:28:22Z</time>
      </trkpt>
      <trkpt lat="42.4466040730" lon="19.7703921609">
        <ele>1618.52</ele>
        <time>2019-07-06T13:28:36Z</time>
      </trkpt>
      <trkpt lat="42.4465977866" lon="19.7704270296">
        <ele>1619.48</ele>
        <time>2019-07-06T13:28:50Z</time>
      </trkpt>
      <trkpt lat="42.4465815257" lon="19.7703559510">
        <ele>1620.44</ele>
        <time>2019-07-06T13:29:01Z</time>
      </trkpt>
      <trkpt lat="42.4465498421" lon="19.7702700365">
        <ele>1622.36</ele>
        <time>2019-07-06T13:29:15Z</time>
      </trkpt>
      <trkpt lat="42.4465120398" lon="19.7702556197">
        <ele>1624.28</ele>
        <time>2019-07-06T13:29:26Z</time>
      </trkpt>
      <trkpt lat="42.4464930966" lon="19.7701919172">
        <ele>1626.21</ele>
        <time>2019-07-06T13:29:40Z</time>
      </trkpt>
      <trkpt lat="42.4464716390" lon="19.7702911589">
        <ele>1627.65</ele>
        <time>2019-07-06T13:29:50Z</time>
      </trkpt>
      <trkpt lat="42.4464405421" lon="19.7702735569">
        <ele>1629.57</ele>
        <time>2019-07-06T13:30:03Z</time>
      </trkpt>
      <trkpt lat="42.4464051705" lon="19.7703797556">
        <ele>1631.01</ele>
        <time>2019-07-06T13:30:15Z</time>
      </trkpt>
      <trkpt lat="42.4463852216" lon="19.7704347409">
        <ele>1632.46</ele>
        <time>2019-07-06T13:30:29Z</time>
      </trkpt>
      <trkpt lat="42.4463642668" lon="19.7703337390">
        <ele>1634.38</ele>
        <time>2019-07-06T13:30:42Z</time>
      </trkpt>
      <trkpt lat="42.4463193398" lon="19.7703386843">
        <ele>1636.30</ele>
        <time>2019-07-06T13:30:57Z</time>
      </trkpt>
      <trkpt lat="42.4462728202" lon="19.7703970224">
        <ele>1637.74</ele>
        <time>2019-07-06T13:31:11Z</time>
      </trkpt>
      <trkpt lat="42.4462633487" lon="19.7704044823">
        <ele>1638.22</ele>
        <time>2019-07-06T13:31:23Z</time>
      </trkpt>
      <trkpt lat="42.4462661985" lon="19.7703459766">
        <ele>1639.67</ele>
        <time>2019-07-06T13:31:37Z</time>
      </trkpt>
      <trkpt lat="42.4462914281" lon="19.7702394426">
        <ele>1640.15</ele>
        <time>2019-07-06T13:31:49Z</time>
      </trkpt>
      <trkpt lat="42.4462829623" lon="19.7701878101">
        <ele>1641.59</ele>
        <time>2019-07-06T13:31:59Z</time>
      </trkpt>
      <trkpt lat="42.4462229479" lon="19.7702219244">
        <ele>1643.03</ele>
        <time>2019-07-06T13:32:12Z</time>
      </trkpt>
      <trkpt lat="42.4462055974" lon="19.7702781670">
        <ele>1644.47</ele>
        <time>2019-07-06T13:32:23Z</time>
      </trkpt>
      <trkpt lat="42.4461507797" lon="19.7703339905">
        <ele>1645.91</ele>
        <time>2019-07-06T13:32:37Z</time>
      </trkpt>
      <trkpt lat="42.4460926931" lon="19.7703898977">
        <ele>1646.88</ele>
        <time>2019-07-06T13:32:49Z</time>
      </trkpt>
      <trkpt lat="42.4460505322" lon="19.7704319749">
        <ele>1647.84</ele>
        <time>2019-07-06T13:33:01Z</time>
      </trkpt>
      <trkpt lat="42.4459999893" lon="19.7705115192">
        <ele>1649.28</ele>
        <time>2019-07-06T13:33:13Z</time>
      </trkpt>
      <trkpt lat="42.4459983129" lon="19.7706215736">
        <ele>1650.72</ele>
        <time>2019-07-06T13:33:27Z</time>
      </trkpt>
      <trkpt lat="42.4459365383" lon="19.7706012893">
        <ele>1653.12</ele>
        <time>2019-07-06T13:33:42Z</time>
      </trkpt>
      <trkpt lat="42.4458532222" lon="19.7705744673">
        <ele>1653.60</ele>
        <time>2019-07-06T13:33:55Z</time>
      </trkpt>
      <trkpt lat="42.4457819760" lon="19.7705829330">
        <ele>1655.53</ele>
        <time>2019-07-06T13:34:08Z</time>
      </trkpt>
      <trkpt lat="42.4457621947" lon="19.7705800831">
        <ele>1655.53</ele>
        <time>2019-07-06T13:34:11Z</time>
      </trkpt>
      <trkpt lat="42.4456922896" lon="19.7705777362">
        <ele>1656.97</ele>
        <time>2019-07-06T13:34:23Z</time>
      </trkpt>
      <trkpt lat="42.4456069618" lon="19.7705608048">
        <ele>1657.93</ele>
        <time>2019-07-06T13:34:36Z</time>
      </trkpt>
      <trkpt lat="42.4455347098" lon="19.7705488186">
        <ele>1659.85</ele>
        <time>2019-07-06T13:34:48Z</time>
      </trkpt>
      <trkpt lat="42.4454653915" lon="19.7705351561">
        <ele>1660.81</ele>
        <time>2019-07-06T13:34:59Z</time>
      </trkpt>
      <trkpt lat="42.4454052094" lon="19.7705194820">
        <ele>1662.26</ele>
        <time>2019-07-06T13:35:10Z</time>
      </trkpt>
      <trkpt lat="42.4453304429" lon="19.7705051489">
        <ele>1663.70</ele>
        <time>2019-07-06T13:35:23Z</time>
      </trkpt>
      <trkpt lat="42.4452747870" lon="19.7705042269">
        <ele>1665.14</ele>
        <time>2019-07-06T13:35:35Z</time>
      </trkpt>
      <trkpt lat="42.4452134315" lon="19.7704493254">
        <ele>1667.54</ele>
        <time>2019-07-06T13:35:49Z</time>
      </trkpt>
      <trkpt lat="42.4451389164" lon="19.7704211622">
        <ele>1669.47</ele>
        <time>2019-07-06T13:36:05Z</time>
      </trkpt>
      <trkpt lat="42.4450890440" lon="19.7704133671">
        <ele>1670.91</ele>
        <time>2019-07-06T13:36:19Z</time>
      </trkpt>
      <trkpt lat="42.4450632278" lon="19.7704035603">
        <ele>1673.31</ele>
        <time>2019-07-06T13:36:33Z</time>
      </trkpt>
      <trkpt lat="42.4450569414" lon="19.7703268658">
        <ele>1674.75</ele>
        <time>2019-07-06T13:36:46Z</time>
      </trkpt>
      <trkpt lat="42.4450036325" lon="19.7703020554">
        <ele>1676.20</ele>
        <time>2019-07-06T13:36:59Z</time>
      </trkpt>
      <trkpt lat="42.4449662492" lon="19.7703195736">
        <ele>1677.64</ele>
        <time>2019-07-06T13:37:11Z</time>
      </trkpt>
      <trkpt lat="42.4449344818" lon="19.7703196574">
        <ele>1679.56</ele>
        <time>2019-07-06T13:37:25Z</time>
      </trkpt>
      <trkpt lat="42.4448561110" lon="19.7703381814">
        <ele>1680.04</ele>
        <time>2019-07-06T13:37:36Z</time>
      </trkpt>
      <trkpt lat="42.4448328093" lon="19.7703442164">
        <ele>1680.52</ele>
        <time>2019-07-06T13:37:48Z</time>
      </trkpt>
      <trkpt lat="42.4447632395" lon="19.7703792527">
        <ele>1681.96</ele>
        <time>2019-07-06T13:38:00Z</time>
      </trkpt>
      <trkpt lat="42.4447383452" lon="19.7703845333">
        <ele>1683.89</ele>
        <time>2019-07-06T13:38:05Z</time>
      </trkpt>
      <trkpt lat="42.4446937535" lon="19.7703428753">
        <ele>1683.89</ele>
        <time>2019-07-06T13:38:20Z</time>
      </trkpt>
      <trkpt lat="42.4446281232" lon="19.7702906560">
        <ele>1685.81</ele>
        <time>2019-07-06T13:38:35Z</time>
      </trkpt>
      <trkpt lat="42.4445675220" lon="19.7702468187">
        <ele>1686.77</ele>
        <time>2019-07-06T13:38:48Z</time>
      </trkpt>
      <trkpt lat="42.4444840383" lon="19.7702484950">
        <ele>1688.21</ele>
        <time>2019-07-06T13:38:59Z</time>
      </trkpt>
      <trkpt lat="42.4444475770" lon="19.7702750657">
        <ele>1689.65</ele>
        <time>2019-07-06T13:39:05Z</time>
      </trkpt>
      <trkpt lat="42.4443603214" lon="19.7703038156">
        <ele>1691.10</ele>
        <time>2019-07-06T13:39:19Z</time>
      </trkpt>
      <trkpt lat="42.4443358462" lon="19.7703831922">
        <ele>1692.54</ele>
        <time>2019-07-06T13:39:31Z</time>
      </trkpt>
      <trkpt lat="42.4443072639" lon="19.7704546899">
        <ele>1693.50</ele>
        <time>2019-07-06T13:39:42Z</time>
      </trkpt>
      <trkpt lat="42.4442577269" lon="19.7705064900">
        <ele>1695.42</ele>
        <time>2019-07-06T13:39:53Z</time>
      </trkpt>
      <trkpt lat="42.4441914260" lon="19.7704972699">
        <ele>1696.38</ele>
        <time>2019-07-06T13:40:08Z</time>
      </trkpt>
      <trkpt lat="42.4441703036" lon="19.7704872955">
        <ele>1696.38</ele>
        <time>2019-07-06T13:40:27Z</time>
      </trkpt>
      <trkpt lat="42.4441617541" lon="19.7704865411">
        <ele>1696.38</ele>
        <time>2019-07-06T13:40:29Z</time>
      </trkpt>
      <trkpt lat="42.4440972134" lon="19.7705081664">
        <ele>1696.38</ele>
        <time>2019-07-06T13:40:44Z</time>
      </trkpt>
      <trkpt lat="42.4441268854" lon="19.7705473099">
        <ele>1696.38</ele>
        <time>2019-07-06T13:40:57Z</time>
      </trkpt>
      <trkpt lat="42.4441220239" lon="19.7705328092">
        <ele>1696.38</ele>
        <time>2019-07-06T13:41:14Z</time>
      </trkpt>
      <trkpt lat="42.4441132229" lon="19.7705531772">
        <ele>1696.38</ele>
        <time>2019-07-06T13:41:37Z</time>
      </trkpt>
      <trkpt lat="42.4441108759" lon="19.7705161292">
        <ele>1697.34</ele>
        <time>2019-07-06T13:41:55Z</time>
      </trkpt>
      <trkpt lat="42.4441139773" lon="19.7705058195">
        <ele>1697.34</ele>
        <time>2019-07-06T13:42:20Z</time>
      </trkpt>
      <trkpt lat="42.4441197608" lon="19.7704708669">
        <ele>1697.34</ele>
        <time>2019-07-06T13:42:54Z</time>
      </trkpt>
      <trkpt lat="42.4441158213" lon="19.7705246788">
        <ele>1697.83</ele>
        <time>2019-07-06T13:43:20Z</time>
      </trkpt>
      <trkpt lat="42.4441092834" lon="19.7705140337">
        <ele>1697.83</ele>
        <time>2019-07-06T13:43:28Z</time>
      </trkpt>
      <trkpt lat="42.4440154061" lon="19.7705090884">
        <ele>1696.38</ele>
        <time>2019-07-06T13:43:37Z</time>
      </trkpt>
      <trkpt lat="42.4439004902" lon="19.7705752216">
        <ele>1695.90</ele>
        <time>2019-07-06T13:43:51Z</time>
      </trkpt>
      <trkpt lat="42.4437792040" lon="19.7706351522">
        <ele>1694.46</ele>
        <time>2019-07-06T13:44:05Z</time>
      </trkpt>
      <trkpt lat="42.4437259790" lon="19.7706591245">
        <ele>1694.94</ele>
        <time>2019-07-06T13:44:11Z</time>
      </trkpt>
      <trkpt lat="42.4436765257" lon="19.7706748825">
        <ele>1694.46</ele>
        <time>2019-07-06T13:44:16Z</time>
      </trkpt>
      <trkpt lat="42.4435390625" lon="19.7707560193">
        <ele>1693.02</ele>
        <time>2019-07-06T13:44:32Z</time>
      </trkpt>
      <trkpt lat="42.4434592668" lon="19.7707481403">
        <ele>1691.58</ele>
        <time>2019-07-06T13:44:44Z</time>
      </trkpt>
      <trkpt lat="42.4433826562" lon="19.7707373276">
        <ele>1689.65</ele>
        <time>2019-07-06T13:44:55Z</time>
      </trkpt>
      <trkpt lat="42.4433504697" lon="19.7707141098">
        <ele>1688.21</ele>
        <time>2019-07-06T13:44:59Z</time>
      </trkpt>
      <trkpt lat="42.4432907905" lon="19.7706621420">
        <ele>1687.25</ele>
        <time>2019-07-06T13:45:07Z</time>
      </trkpt>
      <trkpt lat="42.4431896210" lon="19.7705898061">
        <ele>1684.85</ele>
        <time>2019-07-06T13:45:20Z</time>
      </trkpt>
      <trkpt lat="42.4431648105" lon="19.7705818433">
        <ele>1683.89</ele>
        <time>2019-07-06T13:45:37Z</time>
      </trkpt>
      <trkpt lat="42.4431514833" lon="19.7705711983">
        <ele>1683.89</ele>
        <time>2019-07-06T13:45:41Z</time>
      </trkpt>
      <trkpt lat="42.4431213923" lon="19.7705673426">
        <ele>1682.93</ele>
        <time>2019-07-06T13:45:45Z</time>
      </trkpt>
      <trkpt lat="42.4431020301" lon="19.7705601342">
        <ele>1682.44</ele>
        <time>2019-07-06T13:45:47Z</time>
      </trkpt>
      <trkpt lat="42.4430436920" lon="19.7705834359">
        <ele>1680.52</ele>
        <time>2019-07-06T13:45:56Z</time>
      </trkpt>
      <trkpt lat="42.4430144392" lon="19.7705949191">
        <ele>1680.52</ele>
        <time>2019-07-06T13:46:10Z</time>
      </trkpt>
      <trkpt lat="42.4430493917" lon="19.7705419455">
        <ele>1680.52</ele>
        <time>2019-07-06T13:46:32Z</time>
      </trkpt>
      <trkpt lat="42.4430532474" lon="19.7705197334">
        <ele>1681.00</ele>
        <time>2019-07-06T13:46:53Z</time>
      </trkpt>
      <trkpt lat="42.4430837575" lon="19.7705022991">
        <ele>1680.52</ele>
        <time>2019-07-06T13:47:02Z</time>
      </trkpt>
      <trkpt lat="42.4430001061" lon="19.7704220843">
        <ele>1677.64</ele>
        <time>2019-07-06T13:47:15Z</time>
      </trkpt>
      <trkpt lat="42.4429744575" lon="19.7704030573">
        <ele>1676.68</ele>
        <time>2019-07-06T13:47:20Z</time>
      </trkpt>
      <trkpt lat="42.4429043010" lon="19.7703309730">
        <ele>1673.79</ele>
        <time>2019-07-06T13:47:32Z</time>
      </trkpt>
      <trkpt lat="42.4428366590" lon="19.7703403607">
        <ele>1671.39</ele>
        <time>2019-07-06T13:47:43Z</time>
      </trkpt>
      <trkpt lat="42.4428306241" lon="19.7703525983">
        <ele>1670.91</ele>
        <time>2019-07-06T13:47:44Z</time>
      </trkpt>
      <trkpt lat="42.4428074062" lon="19.7703844495">
        <ele>1670.43</ele>
        <time>2019-07-06T13:47:51Z</time>
      </trkpt>
      <trkpt lat="42.4427961744" lon="19.7704167198">
        <ele>1669.95</ele>
        <time>2019-07-06T13:47:54Z</time>
      </trkpt>
      <trkpt lat="42.4427518342" lon="19.7704225034">
        <ele>1668.51</ele>
        <time>2019-07-06T13:48:00Z</time>
      </trkpt>
      <trkpt lat="42.4427063204" lon="19.7703934181">
        <ele>1667.06</ele>
        <time>2019-07-06T13:48:06Z</time>
      </trkpt>
      <trkpt lat="42.4426554423" lon="19.7703734692">
        <ele>1664.66</ele>
        <time>2019-07-06T13:48:14Z</time>
      </trkpt>
      <trkpt lat="42.4426494073" lon="19.7702473216">
        <ele>1662.74</ele>
        <time>2019-07-06T13:48:27Z</time>
      </trkpt>
      <trkpt lat="42.4426198192" lon="19.7702137940">
        <ele>1660.33</ele>
        <time>2019-07-06T13:48:35Z</time>
      </trkpt>
      <trkpt lat="42.4425570387" lon="19.7702241875">
        <ele>1658.41</ele>
        <time>2019-07-06T13:48:49Z</time>
      </trkpt>
      <trkpt lat="42.4425433762" lon="19.7701443918">
        <ele>1656.01</ele>
        <time>2019-07-06T13:49:00Z</time>
      </trkpt>
      <trkpt lat="42.4425234273" lon="19.7701200843">
        <ele>1654.57</ele>
        <time>2019-07-06T13:49:05Z</time>
      </trkpt>
      <trkpt lat="42.4424737226" lon="19.7700787615">
        <ele>1651.68</ele>
        <time>2019-07-06T13:49:18Z</time>
      </trkpt>
      <trkpt lat="42.4424453080" lon="19.7699974570">
        <ele>1649.76</ele>
        <time>2019-07-06T13:49:29Z</time>
      </trkpt>
      <trkpt lat="42.4424428772" lon="19.7699127160">
        <ele>1647.84</ele>
        <time>2019-07-06T13:49:40Z</time>
      </trkpt>
      <trkpt lat="42.4424148817" lon="19.7698816191">
        <ele>1646.40</ele>
        <time>2019-07-06T13:49:46Z</time>
      </trkpt>
      <trkpt lat="42.4423805159" lon="19.7698666994">
        <ele>1644.95</ele>
        <time>2019-07-06T13:49:51Z</time>
      </trkpt>
      <trkpt lat="42.4423510954" lon="19.7698709741">
        <ele>1643.03</ele>
        <time>2019-07-06T13:50:02Z</time>
      </trkpt>
      <trkpt lat="42.4423267879" lon="19.7698861454">
        <ele>1641.11</ele>
        <time>2019-07-06T13:50:14Z</time>
      </trkpt>
      <trkpt lat="42.4423202500" lon="19.7698349319">
        <ele>1639.67</ele>
        <time>2019-07-06T13:50:29Z</time>
      </trkpt>
      <trkpt lat="42.4422770832" lon="19.7698334232">
        <ele>1637.74</ele>
        <time>2019-07-06T13:50:40Z</time>
      </trkpt>
      <trkpt lat="42.4422574695" lon="19.7698180005">
        <ele>1636.30</ele>
        <time>2019-07-06T13:50:46Z</time>
      </trkpt>
      <trkpt lat="42.4422306474" lon="19.7697694693">
        <ele>1633.90</ele>
        <time>2019-07-06T13:50:59Z</time>
      </trkpt>
      <trkpt lat="42.4422296416" lon="19.7697175015">
        <ele>1632.94</ele>
        <time>2019-07-06T13:51:06Z</time>
      </trkpt>
      <trkpt lat="42.4422343355" lon="19.7697006539">
        <ele>1631.98</ele>
        <time>2019-07-06T13:51:08Z</time>
      </trkpt>
      <trkpt lat="42.4422200862" lon="19.7697004862">
        <ele>1630.05</ele>
        <time>2019-07-06T13:51:20Z</time>
      </trkpt>
      <trkpt lat="42.4422138836" lon="19.7696314193">
        <ele>1627.65</ele>
        <time>2019-07-06T13:51:32Z</time>
      </trkpt>
      <trkpt lat="42.4422026519" lon="19.7695850674">
        <ele>1625.73</ele>
        <time>2019-07-06T13:51:39Z</time>
      </trkpt>
      <trkpt lat="42.4421550427" lon="19.7695918567">
        <ele>1624.77</ele>
        <time>2019-07-06T13:51:44Z</time>
      </trkpt>
      <trkpt lat="42.4421060923" lon="19.7696183436">
        <ele>1622.36</ele>
        <time>2019-07-06T13:51:56Z</time>
      </trkpt>
      <trkpt lat="42.4421350937" lon="19.7694922797">
        <ele>1619.48</ele>
        <time>2019-07-06T13:52:09Z</time>
      </trkpt>
      <trkpt lat="42.4421671126" lon="19.7694258951">
        <ele>1618.04</ele>
        <time>2019-07-06T13:52:16Z</time>
      </trkpt>
      <trkpt lat="42.4421831220" lon="19.7693797946">
        <ele>1617.56</ele>
        <time>2019-07-06T13:52:19Z</time>
      </trkpt>
      <trkpt lat="42.4421388656" lon="19.7693249770">
        <ele>1615.63</ele>
        <time>2019-07-06T13:52:29Z</time>
      </trkpt>
      <trkpt lat="42.4420563038" lon="19.7693893500">
        <ele>1613.23</ele>
        <time>2019-07-06T13:52:41Z</time>
      </trkpt>
      <trkpt lat="42.4420193397" lon="19.7693832312">
        <ele>1610.83</ele>
        <time>2019-07-06T13:52:54Z</time>
      </trkpt>
      <trkpt lat="42.4420197587" lon="19.7693497874">
        <ele>1609.38</ele>
        <time>2019-07-06T13:53:05Z</time>
      </trkpt>
      <trkpt lat="42.4419896677" lon="19.7692171019">
        <ele>1605.54</ele>
        <time>2019-07-06T13:53:17Z</time>
      </trkpt>
      <trkpt lat="42.4419792742" lon="19.7691978235">
        <ele>1605.06</ele>
        <time>2019-07-06T13:53:18Z</time>
      </trkpt>
      <trkpt lat="42.4418860674" lon="19.7692074627">
        <ele>1602.66</ele>
        <time>2019-07-06T13:53:34Z</time>
      </trkpt>
      <trkpt lat="42.4418886658" lon="19.7691580094">
        <ele>1601.21</ele>
        <time>2019-07-06T13:53:41Z</time>
      </trkpt>
      <trkpt lat="42.4419187568" lon="19.7690443508">
        <ele>1600.25</ele>
        <time>2019-07-06T13:53:52Z</time>
      </trkpt>
      <trkpt lat="42.4419216905" lon="19.7690309398">
        <ele>1600.25</ele>
        <time>2019-07-06T13:53:53Z</time>
      </trkpt>
      <trkpt lat="42.4419802800" lon="19.7688860167">
        <ele>1599.77</ele>
        <time>2019-07-06T13:54:05Z</time>
      </trkpt>
      <trkpt lat="42.4420488440" lon="19.7687538341">
        <ele>1600.73</ele>
        <time>2019-07-06T13:54:17Z</time>
      </trkpt>
      <trkpt lat="42.4421034101" lon="19.7686733678">
        <ele>1600.73</ele>
        <time>2019-07-06T13:54:28Z</time>
      </trkpt>
      <trkpt lat="42.4421130493" lon="19.7685672529">
        <ele>1597.37</ele>
        <time>2019-07-06T13:54:40Z</time>
      </trkpt>
      <trkpt lat="42.4420656916" lon="19.7685489804">
        <ele>1595.45</ele>
        <time>2019-07-06T13:54:50Z</time>
      </trkpt>
      <trkpt lat="42.4420050066" lon="19.7685472202">
        <ele>1592.56</ele>
        <time>2019-07-06T13:55:00Z</time>
      </trkpt>
      <trkpt lat="42.4420126341" lon="19.7684913129">
        <ele>1590.16</ele>
        <time>2019-07-06T13:55:11Z</time>
      </trkpt>
      <trkpt lat="42.4420426413" lon="19.7684718668">
        <ele>1589.68</ele>
        <time>2019-07-06T13:55:14Z</time>
      </trkpt>
      <trkpt lat="42.4420121312" lon="19.7684098408">
        <ele>1586.31</ele>
        <time>2019-07-06T13:55:27Z</time>
      </trkpt>
      <trkpt lat="42.4420004804" lon="19.7684152052">
        <ele>1586.31</ele>
        <time>2019-07-06T13:55:28Z</time>
      </trkpt>
      <trkpt lat="42.4419496860" lon="19.7683588788">
        <ele>1583.43</ele>
        <time>2019-07-06T13:55:41Z</time>
      </trkpt>
      <trkpt lat="42.4419278093" lon="19.7683169693">
        <ele>1580.54</ele>
        <time>2019-07-06T13:55:52Z</time>
      </trkpt>
      <trkpt lat="42.4419597443" lon="19.7682647500">
        <ele>1579.10</ele>
        <time>2019-07-06T13:55:59Z</time>
      </trkpt>
      <trkpt lat="42.4420163222" lon="19.7681746446">
        <ele>1576.70</ele>
        <time>2019-07-06T13:56:10Z</time>
      </trkpt>
      <trkpt lat="42.4420626741" lon="19.7680610698">
        <ele>1574.78</ele>
        <time>2019-07-06T13:56:19Z</time>
      </trkpt>
      <trkpt lat="42.4419990554" lon="19.7679837048">
        <ele>1572.37</ele>
        <time>2019-07-06T13:56:30Z</time>
      </trkpt>
      <trkpt lat="42.4419468362" lon="19.7680281289">
        <ele>1570.45</ele>
        <time>2019-07-06T13:56:44Z</time>
      </trkpt>
      <trkpt lat="42.4419616722" lon="19.7679559607">
        <ele>1568.05</ele>
        <time>2019-07-06T13:56:55Z</time>
      </trkpt>
      <trkpt lat="42.4419241212" lon="19.7678955272">
        <ele>1566.61</ele>
        <time>2019-07-06T13:57:04Z</time>
      </trkpt>
      <trkpt lat="42.4418296572" lon="19.7679723054">
        <ele>1564.20</ele>
        <time>2019-07-06T13:57:16Z</time>
      </trkpt>
      <trkpt lat="42.4417874962" lon="19.7679517698">
        <ele>1561.32</ele>
        <time>2019-07-06T13:57:29Z</time>
      </trkpt>
      <trkpt lat="42.4417867418" lon="19.7679264564">
        <ele>1560.84</ele>
        <time>2019-07-06T13:57:32Z</time>
      </trkpt>
      <trkpt lat="42.4417476822" lon="19.7679134645">
        <ele>1558.43</ele>
        <time>2019-07-06T13:57:41Z</time>
      </trkpt>
      <trkpt lat="42.4416783638" lon="19.7679438069">
        <ele>1556.99</ele>
        <time>2019-07-06T13:57:51Z</time>
      </trkpt>
      <trkpt lat="42.4416435789" lon="19.7678063437">
        <ele>1554.59</ele>
        <time>2019-07-06T13:58:04Z</time>
      </trkpt>
      <trkpt lat="42.4416382983" lon="19.7678024881">
        <ele>1554.11</ele>
        <time>2019-07-06T13:58:05Z</time>
      </trkpt>
      <trkpt lat="42.4415285792" lon="19.7678599041">
        <ele>1551.22</ele>
        <time>2019-07-06T13:58:18Z</time>
      </trkpt>
      <trkpt lat="42.4414866697" lon="19.7678506840">
        <ele>1548.82</ele>
        <time>2019-07-06T13:58:26Z</time>
      </trkpt>
      <trkpt lat="42.4414554890" lon="19.7678470798">
        <ele>1547.86</ele>
        <time>2019-07-06T13:58:31Z</time>
      </trkpt>
      <trkpt lat="42.4414348695" lon="19.7678956948">
        <ele>1546.90</ele>
        <time>2019-07-06T13:58:36Z</time>
      </trkpt>
      <trkpt lat="42.4413730111" lon="19.7678839602">
        <ele>1544.50</ele>
        <time>2019-07-06T13:58:48Z</time>
      </trkpt>
      <trkpt lat="42.4413092248" lon="19.7678377759">
        <ele>1542.09</ele>
        <time>2019-07-06T13:59:00Z</time>
      </trkpt>
      <trkpt lat="42.4412943050" lon="19.7678283881">
        <ele>1541.61</ele>
        <time>2019-07-06T13:59:02Z</time>
      </trkpt>
      <trkpt lat="42.4412257411" lon="19.7678768355">
        <ele>1539.69</ele>
        <time>2019-07-06T13:59:10Z</time>
      </trkpt>
      <trkpt lat="42.4411933869" lon="19.7678315733">
        <ele>1539.21</ele>
        <time>2019-07-06T13:59:15Z</time>
      </trkpt>
      <trkpt lat="42.4411856756" lon="19.7677951958">
        <ele>1537.77</ele>
        <time>2019-07-06T13:59:18Z</time>
      </trkpt>
      <trkpt lat="42.4411973264" lon="19.7676794417">
        <ele>1536.32</ele>
        <time>2019-07-06T13:59:27Z</time>
      </trkpt>
      <trkpt lat="42.4411981646" lon="19.7675640229">
        <ele>1533.92</ele>
        <time>2019-07-06T13:59:40Z</time>
      </trkpt>
      <trkpt lat="42.4411798920" lon="19.7675563116">
        <ele>1532.96</ele>
        <time>2019-07-06T13:59:45Z</time>
      </trkpt>
      <trkpt lat="42.4410901219" lon="19.7675344348">
        <ele>1530.56</ele>
        <time>2019-07-06T13:59:59Z</time>
      </trkpt>
      <trkpt lat="42.4410186242" lon="19.7675920185">
        <ele>1528.15</ele>
        <time>2019-07-06T14:00:11Z</time>
      </trkpt>
      <trkpt lat="42.4409553409" lon="19.7676447406">
        <ele>1525.27</ele>
        <time>2019-07-06T14:00:22Z</time>
      </trkpt>
      <trkpt lat="42.4409282673" lon="19.7676153202">
        <ele>1523.35</ele>
        <time>2019-07-06T14:00:33Z</time>
      </trkpt>
      <trkpt lat="42.4409222323" lon="19.7676222771">
        <ele>1522.87</ele>
        <time>2019-07-06T14:00:44Z</time>
      </trkpt>
      <trkpt lat="42.4409209751" lon="19.7676450759">
        <ele>1522.87</ele>
        <time>2019-07-06T14:00:55Z</time>
      </trkpt>
      <trkpt lat="42.4408799037" lon="19.7677195072">
        <ele>1520.94</ele>
        <time>2019-07-06T14:01:10Z</time>
      </trkpt>
      <trkpt lat="42.4408385810" lon="19.7677741572">
        <ele>1519.02</ele>
        <time>2019-07-06T14:01:24Z</time>
      </trkpt>
      <trkpt lat="42.4407762196" lon="19.7678221855">
        <ele>1515.66</ele>
        <time>2019-07-06T14:01:37Z</time>
      </trkpt>
      <trkpt lat="42.4407763034" lon="19.7679086868">
        <ele>1512.29</ele>
        <time>2019-07-06T14:01:49Z</time>
      </trkpt>
      <trkpt lat="42.4407297838" lon="19.7679274622">
        <ele>1509.41</ele>
        <time>2019-07-06T14:02:00Z</time>
      </trkpt>
      <trkpt lat="42.4406965915" lon="19.7679516021">
        <ele>1506.52</ele>
        <time>2019-07-06T14:02:12Z</time>
      </trkpt>
      <trkpt lat="42.4407054763" lon="19.7680450603">
        <ele>1503.64</ele>
        <time>2019-07-06T14:02:23Z</time>
      </trkpt>
      <trkpt lat="42.4406708591" lon="19.7680804320">
        <ele>1500.76</ele>
        <time>2019-07-06T14:02:36Z</time>
      </trkpt>
      <trkpt lat="42.4406205676" lon="19.7680765763">
        <ele>1499.31</ele>
        <time>2019-07-06T14:02:41Z</time>
      </trkpt>
      <trkpt lat="42.4405685998" lon="19.7680474911">
        <ele>1496.43</ele>
        <time>2019-07-06T14:02:49Z</time>
      </trkpt>
      <trkpt lat="42.4405485671" lon="19.7680109460">
        <ele>1495.47</ele>
        <time>2019-07-06T14:02:51Z</time>
      </trkpt>
      <trkpt lat="42.4404366687" lon="19.7678428050">
        <ele>1493.06</ele>
        <time>2019-07-06T14:03:04Z</time>
      </trkpt>
      <trkpt lat="42.4403541069" lon="19.7677343432">
        <ele>1490.18</ele>
        <time>2019-07-06T14:03:16Z</time>
      </trkpt>
      <trkpt lat="42.4402843695" lon="19.7677345946">
        <ele>1487.78</ele>
        <time>2019-07-06T14:03:24Z</time>
      </trkpt>
      <trkpt lat="42.4402799271" lon="19.7678136360">
        <ele>1485.37</ele>
        <time>2019-07-06T14:03:34Z</time>
      </trkpt>
      <trkpt lat="42.4402292166" lon="19.7677421384">
        <ele>1483.93</ele>
        <time>2019-07-06T14:03:40Z</time>
      </trkpt>
      <trkpt lat="42.4402023945" lon="19.7677153163">
        <ele>1482.97</ele>
        <time>2019-07-06T14:03:43Z</time>
      </trkpt>
      <trkpt lat="42.4401839543" lon="19.7677520290">
        <ele>1482.49</ele>
        <time>2019-07-06T14:03:47Z</time>
      </trkpt>
      <trkpt lat="42.4402132072" lon="19.7677959502">
        <ele>1481.53</ele>
        <time>2019-07-06T14:03:51Z</time>
      </trkpt>
      <trkpt lat="42.4402039871" lon="19.7679056693">
        <ele>1478.65</ele>
        <time>2019-07-06T14:04:04Z</time>
      </trkpt>
      <trkpt lat="42.4401650112" lon="19.7678959463">
        <ele>1476.72</ele>
        <time>2019-07-06T14:04:11Z</time>
      </trkpt>
      <trkpt lat="42.4401116185" lon="19.7678898275">
        <ele>1474.80</ele>
        <time>2019-07-06T14:04:18Z</time>
      </trkpt>
      <trkpt lat="42.4401526898" lon="19.7680051625">
        <ele>1472.40</ele>
        <time>2019-07-06T14:04:32Z</time>
      </trkpt>
      <trkpt lat="42.4401484989" lon="19.7681142949">
        <ele>1469.03</ele>
        <time>2019-07-06T14:04:44Z</time>
      </trkpt>
      <trkpt lat="42.4400833715" lon="19.7681110259">
        <ele>1467.11</ele>
        <time>2019-07-06T14:04:56Z</time>
      </trkpt>
      <trkpt lat="42.4400848802" lon="19.7681173123">
        <ele>1467.11</ele>
        <time>2019-07-06T14:04:57Z</time>
      </trkpt>
      <trkpt lat="42.4401169829" lon="19.7682027239">
        <ele>1464.71</ele>
        <time>2019-07-06T14:05:09Z</time>
      </trkpt>
      <trkpt lat="42.4401471578" lon="19.7682545241">
        <ele>1462.30</ele>
        <time>2019-07-06T14:05:17Z</time>
      </trkpt>
      <trkpt lat="42.4401677772" lon="19.7683398519">
        <ele>1460.38</ele>
        <time>2019-07-06T14:05:27Z</time>
      </trkpt>
      <trkpt lat="42.4400650151" lon="19.7683044802">
        <ele>1457.50</ele>
        <time>2019-07-06T14:05:42Z</time>
      </trkpt>
      <trkpt lat="42.4399901647" lon="19.7682470642">
        <ele>1455.09</ele>
        <time>2019-07-06T14:05:57Z</time>
      </trkpt>
      <trkpt lat="42.4399305694" lon="19.7682350781">
        <ele>1451.73</ele>
        <time>2019-07-06T14:06:10Z</time>
      </trkpt>
      <trkpt lat="42.4399310723" lon="19.7683054022">
        <ele>1449.32</ele>
        <time>2019-07-06T14:06:23Z</time>
      </trkpt>
      <trkpt lat="42.4398745783" lon="19.7682567872">
        <ele>1446.44</ele>
        <time>2019-07-06T14:06:36Z</time>
      </trkpt>
      <trkpt lat="42.4398098700" lon="19.7681593057">
        <ele>1444.04</ele>
        <time>2019-07-06T14:06:48Z</time>
      </trkpt>
      <trkpt lat="42.4397761747" lon="19.7681796737">
        <ele>1442.11</ele>
        <time>2019-07-06T14:06:54Z</time>
      </trkpt>
      <trkpt lat="42.4397365283" lon="19.7683046479">
        <ele>1439.23</ele>
        <time>2019-07-06T14:07:07Z</time>
      </trkpt>
      <trkpt lat="42.4397255480" lon="19.7683258541">
        <ele>1438.75</ele>
        <time>2019-07-06T14:07:09Z</time>
      </trkpt>
      <trkpt lat="42.4397260509" lon="19.7684312146">
        <ele>1436.83</ele>
        <time>2019-07-06T14:07:20Z</time>
      </trkpt>
      <trkpt lat="42.4397138134" lon="19.7685451247">
        <ele>1434.42</ele>
        <time>2019-07-06T14:07:31Z</time>
      </trkpt>
      <trkpt lat="42.4397310801" lon="19.7686420195">
        <ele>1432.02</ele>
        <time>2019-07-06T14:07:44Z</time>
      </trkpt>
      <trkpt lat="42.4397397973" lon="19.7686909698">
        <ele>1431.54</ele>
        <time>2019-07-06T14:07:58Z</time>
      </trkpt>
      <trkpt lat="42.4397556391" lon="19.7686957475">
        <ele>1431.54</ele>
        <time>2019-07-06T14:08:01Z</time>
      </trkpt>
      <trkpt lat="42.4398594070" lon="19.7688020300">
        <ele>1428.66</ele>
        <time>2019-07-06T14:08:16Z</time>
      </trkpt>
      <trkpt lat="42.4398946948" lon="19.7688067239">
        <ele>1428.66</ele>
        <time>2019-07-06T14:08:28Z</time>
      </trkpt>
      <trkpt lat="42.4399803579" lon="19.7688612901">
        <ele>1427.21</ele>
        <time>2019-07-06T14:08:39Z</time>
      </trkpt>
      <trkpt lat="42.4400438089" lon="19.7688863520">
        <ele>1426.25</ele>
        <time>2019-07-06T14:08:45Z</time>
      </trkpt>
      <trkpt lat="42.4401495047" lon="19.7690215521">
        <ele>1425.77</ele>
        <time>2019-07-06T14:08:57Z</time>
      </trkpt>
      <trkpt lat="42.4401499238" lon="19.7690608632">
        <ele>1425.77</ele>
        <time>2019-07-06T14:09:01Z</time>
      </trkpt>
      <trkpt lat="42.4401370995" lon="19.7690818179">
        <ele>1425.29</ele>
        <time>2019-07-06T14:09:03Z</time>
      </trkpt>
      <trkpt lat="42.4400987942" lon="19.7691501305">
        <ele>1422.41</ele>
        <time>2019-07-06T14:09:11Z</time>
      </trkpt>
      <trkpt lat="42.4401021469" lon="19.7692241427">
        <ele>1420.97</ele>
        <time>2019-07-06T14:09:18Z</time>
      </trkpt>
      <trkpt lat="42.4400672782" lon="19.7693196964">
        <ele>1417.12</ele>
        <time>2019-07-06T14:09:28Z</time>
      </trkpt>
      <trkpt lat="42.4400596507" lon="19.7693295870">
        <ele>1417.12</ele>
        <time>2019-07-06T14:09:31Z</time>
      </trkpt>
      <trkpt lat="42.4400606565" lon="19.7694027610">
        <ele>1414.24</ele>
        <time>2019-07-06T14:09:43Z</time>
      </trkpt>
      <trkpt lat="42.4400413781" lon="19.7694735043">
        <ele>1412.31</ele>
        <time>2019-07-06T14:09:54Z</time>
      </trkpt>
      <trkpt lat="42.4399842974" lon="19.7694094665">
        <ele>1408.47</ele>
        <time>2019-07-06T14:10:07Z</time>
      </trkpt>
      <trkpt lat="42.4399874825" lon="19.7693995759">
        <ele>1407.99</ele>
        <time>2019-07-06T14:10:09Z</time>
      </trkpt>
      <trkpt lat="42.4399400409" lon="19.7694224585">
        <ele>1406.07</ele>
        <time>2019-07-06T14:10:21Z</time>
      </trkpt>
      <trkpt lat="42.4399344251" lon="19.7695460077">
        <ele>1402.70</ele>
        <time>2019-07-06T14:10:32Z</time>
      </trkpt>
      <trkpt lat="42.4399542902" lon="19.7695551440">
        <ele>1402.70</ele>
        <time>2019-07-06T14:10:34Z</time>
      </trkpt>
      <trkpt lat="42.4399775080" lon="19.7695678845">
        <ele>1402.22</ele>
        <time>2019-07-06T14:10:51Z</time>
      </trkpt>
      <trkpt lat="42.4399785977" lon="19.7695703991">
        <ele>1402.22</ele>
        <time>2019-07-06T14:10:55Z</time>
      </trkpt>
      <trkpt lat="42.4400390312" lon="19.7696779389">
        <ele>1399.34</ele>
        <time>2019-07-06T14:11:08Z</time>
      </trkpt>
      <trkpt lat="42.4400626682" lon="19.7697630152">
        <ele>1397.41</ele>
        <time>2019-07-06T14:11:17Z</time>
      </trkpt>
      <trkpt lat="42.4401079305" lon="19.7698336747">
        <ele>1395.49</ele>
        <time>2019-07-06T14:11:27Z</time>
      </trkpt>
      <trkpt lat="42.4401479121" lon="19.7699293960">
        <ele>1394.05</ele>
        <time>2019-07-06T14:11:36Z</time>
      </trkpt>
      <trkpt lat="42.4402717967" lon="19.7701732256">
        <ele>1393.09</ele>
        <time>2019-07-06T14:11:51Z</time>
      </trkpt>
      <trkpt lat="42.4402179848" lon="19.7701666877">
        <ele>1393.09</ele>
        <time>2019-07-06T14:12:10Z</time>
      </trkpt>
      <trkpt lat="42.4402273726" lon="19.7701637540">
        <ele>1393.09</ele>
        <time>2019-07-06T14:12:12Z</time>
      </trkpt>
      <trkpt lat="42.4402443878" lon="19.7702163924">
        <ele>1391.17</ele>
        <time>2019-07-06T14:12:21Z</time>
      </trkpt>
      <trkpt lat="42.4402554519" lon="19.7702373471">
        <ele>1391.17</ele>
        <time>2019-07-06T14:12:25Z</time>
      </trkpt>
      <trkpt lat="42.4402934220" lon="19.7702431306">
        <ele>1391.17</ele>
        <time>2019-07-06T14:12:38Z</time>
      </trkpt>
      <trkpt lat="42.4403149635" lon="19.7702693660">
        <ele>1391.17</ele>
        <time>2019-07-06T14:12:49Z</time>
      </trkpt>
      <trkpt lat="42.4403113592" lon="19.7702738922">
        <ele>1391.17</ele>
        <time>2019-07-06T14:12:50Z</time>
      </trkpt>
      <trkpt lat="42.4402398616" lon="19.7703585494">
        <ele>1389.72</ele>
        <time>2019-07-06T14:12:56Z</time>
      </trkpt>
      <trkpt lat="42.4402026460" lon="19.7704247665">
        <ele>1388.76</ele>
        <time>2019-07-06T14:13:05Z</time>
      </trkpt>
      <trkpt lat="42.4401531089" lon="19.7704772372">
        <ele>1387.80</ele>
        <time>2019-07-06T14:13:09Z</time>
      </trkpt>
      <trkpt lat="42.4400666915" lon="19.7704630718">
        <ele>1384.92</ele>
        <time>2019-07-06T14:13:22Z</time>
      </trkpt>
      <trkpt lat="42.4400728103" lon="19.7704435419">
        <ele>1383.96</ele>
        <time>2019-07-06T14:13:24Z</time>
      </trkpt>
      <trkpt lat="42.4400472455" lon="19.7703505028">
        <ele>1381.07</ele>
        <time>2019-07-06T14:13:34Z</time>
      </trkpt>
      <trkpt lat="42.4400435574" lon="19.7703229263">
        <ele>1380.59</ele>
        <time>2019-07-06T14:13:44Z</time>
      </trkpt>
      <trkpt lat="42.4399850518" lon="19.7704644967">
        <ele>1376.75</ele>
        <time>2019-07-06T14:13:57Z</time>
      </trkpt>
      <trkpt lat="42.4399509374" lon="19.7704565339">
        <ele>1375.30</ele>
        <time>2019-07-06T14:14:07Z</time>
      </trkpt>
      <trkpt lat="42.4398877379" lon="19.7704227548">
        <ele>1371.94</ele>
        <time>2019-07-06T14:14:18Z</time>
      </trkpt>
      <trkpt lat="42.4398752488" lon="19.7704201564">
        <ele>1371.46</ele>
        <time>2019-07-06T14:14:19Z</time>
      </trkpt>
      <trkpt lat="42.4398098700" lon="19.7704598028">
        <ele>1368.57</ele>
        <time>2019-07-06T14:14:31Z</time>
      </trkpt>
      <trkpt lat="42.4398511089" lon="19.7703334037">
        <ele>1367.13</ele>
        <time>2019-07-06T14:14:42Z</time>
      </trkpt>
      <trkpt lat="42.4398331717" lon="19.7703748103">
        <ele>1365.69</ele>
        <time>2019-07-06T14:14:48Z</time>
      </trkpt>
      <trkpt lat="42.4397694692" lon="19.7704044823">
        <ele>1362.81</ele>
        <time>2019-07-06T14:14:59Z</time>
      </trkpt>
      <trkpt lat="42.4397453293" lon="19.7704038955">
        <ele>1361.36</ele>
        <time>2019-07-06T14:15:01Z</time>
      </trkpt>
      <trkpt lat="42.4397071078" lon="19.7704294603">
        <ele>1359.92</ele>
        <time>2019-07-06T14:15:05Z</time>
      </trkpt>
      <trkpt lat="42.4396736640" lon="19.7704291251">
        <ele>1359.44</ele>
        <time>2019-07-06T14:15:08Z</time>
      </trkpt>
      <trkpt lat="42.4396852311" lon="19.7703308892">
        <ele>1356.08</ele>
        <time>2019-07-06T14:15:19Z</time>
      </trkpt>
      <trkpt lat="42.4396891706" lon="19.7703192383">
        <ele>1355.60</ele>
        <time>2019-07-06T14:15:20Z</time>
      </trkpt>
      <trkpt lat="42.4397066887" lon="19.7702383529">
        <ele>1354.15</ele>
        <time>2019-07-06T14:15:27Z</time>
      </trkpt>
      <trkpt lat="42.4396957923" lon="19.7701534443">
        <ele>1352.71</ele>
        <time>2019-07-06T14:15:34Z</time>
      </trkpt>
      <trkpt lat="42.4397038389" lon="19.7701182403">
        <ele>1351.27</ele>
        <time>2019-07-06T14:15:36Z</time>
      </trkpt>
      <trkpt lat="42.4396936968" lon="19.7701231856">
        <ele>1350.79</ele>
        <time>2019-07-06T14:15:39Z</time>
      </trkpt>
      <trkpt lat="42.4396636058" lon="19.7702018917">
        <ele>1349.35</ele>
        <time>2019-07-06T14:15:44Z</time>
      </trkpt>
      <trkpt lat="42.4395916890" lon="19.7703303024">
        <ele>1346.94</ele>
        <time>2019-07-06T14:15:53Z</time>
      </trkpt>
      <trkpt lat="42.4395513721" lon="19.7703650035">
        <ele>1345.02</ele>
        <time>2019-07-06T14:16:00Z</time>
      </trkpt>
      <trkpt lat="42.4394885916" lon="19.7703701165">
        <ele>1341.66</ele>
        <time>2019-07-06T14:16:12Z</time>
      </trkpt>
      <trkpt lat="42.4394632783" lon="19.7703770734">
        <ele>1339.73</ele>
        <time>2019-07-06T14:16:17Z</time>
      </trkpt>
      <trkpt lat="42.4394167587" lon="19.7704286221">
        <ele>1336.37</ele>
        <time>2019-07-06T14:16:29Z</time>
      </trkpt>
      <trkpt lat="42.4394174293" lon="19.7704258561">
        <ele>1336.37</ele>
        <time>2019-07-06T14:16:30Z</time>
      </trkpt>
      <trkpt lat="42.4394128192" lon="19.7704015486">
        <ele>1335.89</ele>
        <time>2019-07-06T14:16:32Z</time>
      </trkpt>
      <trkpt lat="42.4393971451" lon="19.7703443002">
        <ele>1333.97</ele>
        <time>2019-07-06T14:16:39Z</time>
      </trkpt>
      <trkpt lat="42.4393851589" lon="19.7702880576">
        <ele>1332.04</ele>
        <time>2019-07-06T14:16:44Z</time>
      </trkpt>
      <trkpt lat="42.4393520504" lon="19.7702813521">
        <ele>1331.08</ele>
        <time>2019-07-06T14:16:48Z</time>
      </trkpt>
      <trkpt lat="42.4393468536" lon="19.7703294642">
        <ele>1329.64</ele>
        <time>2019-07-06T14:16:53Z</time>
      </trkpt>
      <trkpt lat="42.4393350352" lon="19.7703533527">
        <ele>1329.64</ele>
        <time>2019-07-06T14:16:55Z</time>
      </trkpt>
      <trkpt lat="42.4392953049" lon="19.7703492455">
        <ele>1326.76</ele>
        <time>2019-07-06T14:17:06Z</time>
      </trkpt>
      <trkpt lat="42.4392717518" lon="19.7702912427">
        <ele>1324.35</ele>
        <time>2019-07-06T14:17:13Z</time>
      </trkpt>
      <trkpt lat="42.4392368831" lon="19.7702893149">
        <ele>1321.95</ele>
        <time>2019-07-06T14:17:24Z</time>
      </trkpt>
      <trkpt lat="42.4392259866" lon="19.7703099344">
        <ele>1321.47</ele>
        <time>2019-07-06T14:17:26Z</time>
      </trkpt>
      <trkpt lat="42.4391761981" lon="19.7703339066">
        <ele>1318.10</ele>
        <time>2019-07-06T14:17:38Z</time>
      </trkpt>
      <trkpt lat="42.4391689058" lon="19.7703049053">
        <ele>1317.14</ele>
        <time>2019-07-06T14:17:41Z</time>
      </trkpt>
      <trkpt lat="42.4391195364" lon="19.7703043185">
        <ele>1314.74</ele>
        <time>2019-07-06T14:17:52Z</time>
      </trkpt>
      <trkpt lat="42.4391007610" lon="19.7704308014">
        <ele>1311.38</ele>
        <time>2019-07-06T14:18:05Z</time>
      </trkpt>
      <trkpt lat="42.4390711728" lon="19.7704557795">
        <ele>1310.41</ele>
        <time>2019-07-06T14:18:10Z</time>
      </trkpt>
      <trkpt lat="42.4390374776" lon="19.7704718728">
        <ele>1307.53</ele>
        <time>2019-07-06T14:18:20Z</time>
      </trkpt>
      <trkpt lat="42.4390251562" lon="19.7704818472">
        <ele>1306.09</ele>
        <time>2019-07-06T14:18:23Z</time>
      </trkpt>
      <trkpt lat="42.4390130863" lon="19.7705014609">
        <ele>1305.61</ele>
        <time>2019-07-06T14:18:27Z</time>
      </trkpt>
      <trkpt lat="42.4389444385" lon="19.7704949230">
        <ele>1302.72</ele>
        <time>2019-07-06T14:18:36Z</time>
      </trkpt>
      <trkpt lat="42.4389097374" lon="19.7703849524">
        <ele>1299.36</ele>
        <time>2019-07-06T14:18:48Z</time>
      </trkpt>
      <trkpt lat="42.4388833344" lon="19.7703582980">
        <ele>1298.88</ele>
        <time>2019-07-06T14:18:51Z</time>
      </trkpt>
      <trkpt lat="42.4388406705" lon="19.7704204917">
        <ele>1295.51</ele>
        <time>2019-07-06T14:19:03Z</time>
      </trkpt>
      <trkpt lat="42.4387406744" lon="19.7704874631">
        <ele>1292.63</ele>
        <time>2019-07-06T14:19:15Z</time>
      </trkpt>
      <trkpt lat="42.4386719428" lon="19.7705394309">
        <ele>1289.75</ele>
        <time>2019-07-06T14:19:26Z</time>
      </trkpt>
      <trkpt lat="42.4386129342" lon="19.7705579549">
        <ele>1287.34</ele>
        <time>2019-07-06T14:19:35Z</time>
      </trkpt>
      <trkpt lat="42.4385663308" lon="19.7705293726">
        <ele>1285.42</ele>
        <time>2019-07-06T14:19:43Z</time>
      </trkpt>
      <trkpt lat="42.4385850225" lon="19.7703635786">
        <ele>1281.57</ele>
        <time>2019-07-06T14:19:57Z</time>
      </trkpt>
      <trkpt lat="42.4385550991" lon="19.7703558672">
        <ele>1280.13</ele>
        <time>2019-07-06T14:20:05Z</time>
      </trkpt>
      <trkpt lat="42.4384787399" lon="19.7703974415">
        <ele>1278.69</ele>
        <time>2019-07-06T14:20:11Z</time>
      </trkpt>
      <trkpt lat="42.4383634049" lon="19.7704088408">
        <ele>1274.85</ele>
        <time>2019-07-06T14:20:22Z</time>
      </trkpt>
      <trkpt lat="42.4383544363" lon="19.7704138700">
        <ele>1274.85</ele>
        <time>2019-07-06T14:20:23Z</time>
      </trkpt>
      <trkpt lat="42.4382410292" lon="19.7704492416">
        <ele>1271.48</ele>
        <time>2019-07-06T14:20:34Z</time>
      </trkpt>
      <trkpt lat="42.4381717946" lon="19.7704599705">
        <ele>1269.56</ele>
        <time>2019-07-06T14:20:41Z</time>
      </trkpt>
      <trkpt lat="42.4381350819" lon="19.7704404406">
        <ele>1268.60</ele>
        <time>2019-07-06T14:20:47Z</time>
      </trkpt>
      <trkpt lat="42.4380396958" lon="19.7704832722">
        <ele>1264.75</ele>
        <time>2019-07-06T14:21:00Z</time>
      </trkpt>
      <trkpt lat="42.4379914999" lon="19.7704912350">
        <ele>1261.87</ele>
        <time>2019-07-06T14:21:11Z</time>
      </trkpt>
      <trkpt lat="42.4379952718" lon="19.7704591323">
        <ele>1261.39</ele>
        <time>2019-07-06T14:21:13Z</time>
      </trkpt>
      <trkpt lat="42.4379961938" lon="19.7703134548">
        <ele>1258.02</ele>
        <time>2019-07-06T14:21:24Z</time>
      </trkpt>
      <trkpt lat="42.4380059168" lon="19.7702557873">
        <ele>1257.06</ele>
        <time>2019-07-06T14:21:28Z</time>
      </trkpt>
      <trkpt lat="42.4380104430" lon="19.7701615747">
        <ele>1255.14</ele>
        <time>2019-07-06T14:21:34Z</time>
      </trkpt>
      <trkpt lat="42.4379646778" lon="19.7701847088">
        <ele>1252.74</ele>
        <time>2019-07-06T14:21:43Z</time>
      </trkpt>
      <trkpt lat="42.4378845468" lon="19.7702153027">
        <ele>1250.33</ele>
        <time>2019-07-06T14:21:49Z</time>
      </trkpt>
      <trkpt lat="42.4378242809" lon="19.7702200804">
        <ele>1247.93</ele>
        <time>2019-07-06T14:21:57Z</time>
      </trkpt>
      <trkpt lat="42.4377321638" lon="19.7703018878">
        <ele>1244.56</ele>
        <time>2019-07-06T14:22:09Z</time>
      </trkpt>
      <trkpt lat="42.4377129693" lon="19.7702908237">
        <ele>1244.08</ele>
        <time>2019-07-06T14:22:12Z</time>
      </trkpt>
      <trkpt lat="42.4376606662" lon="19.7702551167">
        <ele>1242.16</ele>
        <time>2019-07-06T14:22:18Z</time>
      </trkpt>
      <trkpt lat="42.4376087822" lon="19.7702292167">
        <ele>1240.24</ele>
        <time>2019-07-06T14:22:26Z</time>
      </trkpt>
      <trkpt lat="42.4375058524" lon="19.7703027260">
        <ele>1235.91</ele>
        <time>2019-07-06T14:22:37Z</time>
      </trkpt>
      <trkpt lat="42.4374831375" lon="19.7703271173">
        <ele>1234.95</ele>
        <time>2019-07-06T14:22:45Z</time>
      </trkpt>
      <trkpt lat="42.4374542199" lon="19.7703341581">
        <ele>1233.03</ele>
        <time>2019-07-06T14:22:57Z</time>
      </trkpt>
      <trkpt lat="42.4373841472" lon="19.7703848686">
        <ele>1230.14</ele>
        <time>2019-07-06T14:23:04Z</time>
      </trkpt>
      <trkpt lat="42.4372931197" lon="19.7704555281">
        <ele>1227.74</ele>
        <time>2019-07-06T14:23:14Z</time>
      </trkpt>
      <trkpt lat="42.4371781200" lon="19.7705147043">
        <ele>1224.38</ele>
        <time>2019-07-06T14:23:24Z</time>
      </trkpt>
      <trkpt lat="42.4371523876" lon="19.7704846133">
        <ele>1222.93</ele>
        <time>2019-07-06T14:23:29Z</time>
      </trkpt>
      <trkpt lat="42.4371202849" lon="19.7704437934">
        <ele>1220.53</ele>
        <time>2019-07-06T14:23:39Z</time>
      </trkpt>
      <trkpt lat="42.4370356277" lon="19.7704691906">
        <ele>1218.61</ele>
        <time>2019-07-06T14:23:46Z</time>
      </trkpt>
      <trkpt lat="42.4369839951" lon="19.7704866249">
        <ele>1215.72</ele>
        <time>2019-07-06T14:23:53Z</time>
      </trkpt>
      <trkpt lat="42.4369198736" lon="19.7704753093">
        <ele>1213.32</ele>
        <time>2019-07-06T14:24:02Z</time>
      </trkpt>
      <trkpt lat="42.4368778802" lon="19.7704691067">
        <ele>1211.88</ele>
        <time>2019-07-06T14:24:05Z</time>
      </trkpt>
      <trkpt lat="42.4368329532" lon="19.7704370040">
        <ele>1209.96</ele>
        <time>2019-07-06T14:24:10Z</time>
      </trkpt>
      <trkpt lat="42.4366812408" lon="19.7704082541">
        <ele>1208.03</ele>
        <time>2019-07-06T14:24:24Z</time>
      </trkpt>
      <trkpt lat="42.4365443643" lon="19.7703569569">
        <ele>1205.63</ele>
        <time>2019-07-06T14:24:36Z</time>
      </trkpt>
      <trkpt lat="42.4365056399" lon="19.7703266982">
        <ele>1205.15</ele>
        <time>2019-07-06T14:24:49Z</time>
      </trkpt>
      <trkpt lat="42.4364000279" lon="19.7703738045">
        <ele>1202.75</ele>
        <time>2019-07-06T14:24:59Z</time>
      </trkpt>
      <trkpt lat="42.4363016244" lon="19.7703721281">
        <ele>1201.79</ele>
        <time>2019-07-06T14:25:14Z</time>
      </trkpt>
      <trkpt lat="42.4362648278" lon="19.7702934220">
        <ele>1200.82</ele>
        <time>2019-07-06T14:25:39Z</time>
      </trkpt>
      <trkpt lat="42.4362487346" lon="19.7703633271">
        <ele>1200.82</ele>
        <time>2019-07-06T14:26:10Z</time>
      </trkpt>
      <trkpt lat="42.4362410232" lon="19.7703686077">
        <ele>1200.34</ele>
        <time>2019-07-06T14:26:35Z</time>
      </trkpt>
      <trkpt lat="42.4362458847" lon="19.7703755647">
        <ele>1200.34</ele>
        <time>2019-07-06T14:26:56Z</time>
      </trkpt>
      <trkpt lat="42.4362401012" lon="19.7703609802">
        <ele>1200.34</ele>
        <time>2019-07-06T14:27:21Z</time>
      </trkpt>
      <trkpt lat="42.4362395983" lon="19.7703681886">
        <ele>1200.34</ele>
        <time>2019-07-06T14:27:50Z</time>
      </trkpt>
      <trkpt lat="42.4362652469" lon="19.7703844495">
        <ele>1200.34</ele>
        <time>2019-07-06T14:28:24Z</time>
      </trkpt>
      <trkpt lat="42.4362611398" lon="19.7703904845">
        <ele>1200.34</ele>
        <time>2019-07-06T14:28:46Z</time>
      </trkpt>
      <trkpt lat="42.4362143688" lon="19.7703470662">
        <ele>1200.34</ele>
        <time>2019-07-06T14:29:18Z</time>
      </trkpt>
      <trkpt lat="42.4362208229" lon="19.7703422047">
        <ele>1199.86</ele>
        <time>2019-07-06T14:29:47Z</time>
      </trkpt>
      <trkpt lat="42.4362810887" lon="19.7703433782">
        <ele>1199.86</ele>
        <time>2019-07-06T14:30:28Z</time>
      </trkpt>
      <trkpt lat="42.4362531770" lon="19.7703403607">
        <ele>1199.86</ele>
        <time>2019-07-06T14:31:02Z</time>
      </trkpt>
      <trkpt lat="42.4362483155" lon="19.7703395225">
        <ele>1199.38</ele>
        <time>2019-07-06T14:31:30Z</time>
      </trkpt>
      <trkpt lat="42.4362716172" lon="19.7703682724">
        <ele>1199.38</ele>
        <time>2019-07-06T14:32:01Z</time>
      </trkpt>
      <trkpt lat="42.4362758081" lon="19.7704173066">
        <ele>1199.38</ele>
        <time>2019-07-06T14:32:33Z</time>
      </trkpt>
      <trkpt lat="42.4362511653" lon="19.7704151273">
        <ele>1198.90</ele>
        <time>2019-07-06T14:33:16Z</time>
      </trkpt>
      <trkpt lat="42.4362915661" lon="19.7704215813">
        <ele>1198.90</ele>
        <time>2019-07-06T14:33:46Z</time>
      </trkpt>
      <trkpt lat="42.4362827651" lon="19.7704086732">
        <ele>1198.42</ele>
        <time>2019-07-06T14:34:18Z</time>
      </trkpt>
      <trkpt lat="42.4362819269" lon="19.7704128642">
        <ele>1198.42</ele>
        <time>2019-07-06T14:34:45Z</time>
      </trkpt>
      <trkpt lat="42.4363204837" lon="19.7704348247">
        <ele>1198.42</ele>
        <time>2019-07-06T14:35:16Z</time>
      </trkpt>
      <trkpt lat="42.4362675939" lon="19.7704352438">
        <ele>1199.38</ele>
        <time>2019-07-06T14:35:33Z</time>
      </trkpt>
      <trkpt lat="42.4362423643" lon="19.7704136185">
        <ele>1198.90</ele>
        <time>2019-07-06T14:35:52Z</time>
      </trkpt>
      <trkpt lat="42.4362363294" lon="19.7703565378">
        <ele>1198.90</ele>
        <time>2019-07-06T14:36:05Z</time>
      </trkpt>
      <trkpt lat="42.4361808412" lon="19.7703390196">
        <ele>1197.46</ele>
        <time>2019-07-06T14:36:25Z</time>
      </trkpt>
      <trkpt lat="42.4360966031" lon="19.7703022230">
        <ele>1194.09</ele>
        <time>2019-07-06T14:36:38Z</time>
      </trkpt>
      <trkpt lat="42.4359932542" lon="19.7702600621">
        <ele>1191.21</ele>
        <time>2019-07-06T14:36:48Z</time>
      </trkpt>
      <trkpt lat="42.4359463993" lon="19.7702536918">
        <ele>1189.77</ele>
        <time>2019-07-06T14:36:54Z</time>
      </trkpt>
      <trkpt lat="42.4358603172" lon="19.7702277917">
        <ele>1187.37</ele>
        <time>2019-07-06T14:37:06Z</time>
      </trkpt>
      <trkpt lat="42.4358609878" lon="19.7700853832">
        <ele>1184.96</ele>
        <time>2019-07-06T14:37:18Z</time>
      </trkpt>
      <trkpt lat="42.4358541984" lon="19.7700780071">
        <ele>1184.48</ele>
        <time>2019-07-06T14:37:20Z</time>
      </trkpt>
      <trkpt lat="42.4358257838" lon="19.7700452339">
        <ele>1183.52</ele>
        <time>2019-07-06T14:37:24Z</time>
      </trkpt>
      <trkpt lat="42.4358016439" lon="19.7699526977">
        <ele>1181.60</ele>
        <time>2019-07-06T14:37:30Z</time>
      </trkpt>
      <trkpt lat="42.4357915856" lon="19.7698505223">
        <ele>1178.71</ele>
        <time>2019-07-06T14:37:38Z</time>
      </trkpt>
      <trkpt lat="42.4357508495" lon="19.7697483469">
        <ele>1176.31</ele>
        <time>2019-07-06T14:37:48Z</time>
      </trkpt>
      <trkpt lat="42.4357076827" lon="19.7695775237">
        <ele>1172.95</ele>
        <time>2019-07-06T14:37:59Z</time>
      </trkpt>
      <trkpt lat="42.4357353430" lon="19.7695284057">
        <ele>1171.98</ele>
        <time>2019-07-06T14:38:03Z</time>
      </trkpt>
      <trkpt lat="42.4356934335" lon="19.7693597618">
        <ele>1169.10</ele>
        <time>2019-07-06T14:38:14Z</time>
      </trkpt>
      <trkpt lat="42.4357009772" lon="19.7693185229">
        <ele>1168.62</ele>
        <time>2019-07-06T14:38:16Z</time>
      </trkpt>
      <trkpt lat="42.4357179925" lon="19.7691518068">
        <ele>1165.26</ele>
        <time>2019-07-06T14:38:27Z</time>
      </trkpt>
      <trkpt lat="42.4357070122" lon="19.7691218834">
        <ele>1164.29</ele>
        <time>2019-07-06T14:38:32Z</time>
      </trkpt>
      <trkpt lat="42.4355878215" lon="19.7690381482">
        <ele>1161.89</ele>
        <time>2019-07-06T14:38:44Z</time>
      </trkpt>
      <trkpt lat="42.4355663639" lon="19.7690191213">
        <ele>1161.89</ele>
        <time>2019-07-06T14:38:46Z</time>
      </trkpt>
      <trkpt lat="42.4355333392" lon="19.7689789720">
        <ele>1160.93</ele>
        <time>2019-07-06T14:38:49Z</time>
      </trkpt>
      <trkpt lat="42.4354887474" lon="19.7689249087">
        <ele>1159.49</ele>
        <time>2019-07-06T14:38:54Z</time>
      </trkpt>
      <trkpt lat="42.4354743306" lon="19.7688162792">
        <ele>1156.60</ele>
        <time>2019-07-06T14:39:02Z</time>
      </trkpt>
      <trkpt lat="42.4353848118" lon="19.7686863597">
        <ele>1154.20</ele>
        <time>2019-07-06T14:39:10Z</time>
      </trkpt>
      <trkpt lat="42.4353370350" lon="19.7685198113">
        <ele>1150.84</ele>
        <time>2019-07-06T14:39:21Z</time>
      </trkpt>
      <trkpt lat="42.4352940358" lon="19.7684410214">
        <ele>1148.91</ele>
        <time>2019-07-06T14:39:27Z</time>
      </trkpt>
      <trkpt lat="42.4352606758" lon="19.7683514189">
        <ele>1147.47</ele>
        <time>2019-07-06T14:39:33Z</time>
      </trkpt>
      <trkpt lat="42.4352190178" lon="19.7683147062">
        <ele>1146.51</ele>
        <time>2019-07-06T14:39:37Z</time>
      </trkpt>
      <trkpt lat="42.4351431616" lon="19.7681893967">
        <ele>1143.14</ele>
        <time>2019-07-06T14:39:46Z</time>
      </trkpt>
      <trkpt lat="42.4351159204" lon="19.7681344952">
        <ele>1142.18</ele>
        <time>2019-07-06T14:39:53Z</time>
      </trkpt>
      <trkpt lat="42.4350899365" lon="19.7681127023">
        <ele>1141.70</ele>
        <time>2019-07-06T14:39:55Z</time>
      </trkpt>
      <trkpt lat="42.4349665549" lon="19.7679815255">
        <ele>1139.30</ele>
        <time>2019-07-06T14:40:07Z</time>
      </trkpt>
      <trkpt lat="42.4348973203" lon="19.7679279651">
        <ele>1138.34</ele>
        <time>2019-07-06T14:40:12Z</time>
      </trkpt>
      <trkpt lat="42.4348436762" lon="19.7678795177">
        <ele>1137.86</ele>
        <time>2019-07-06T14:40:16Z</time>
      </trkpt>
      <trkpt lat="42.4347006809" lon="19.7677612491">
        <ele>1134.49</ele>
        <time>2019-07-06T14:40:30Z</time>
      </trkpt>
      <trkpt lat="42.4346907064" lon="19.7677526996">
        <ele>1134.01</ele>
        <time>2019-07-06T14:40:31Z</time>
      </trkpt>
      <trkpt lat="42.4346558377" lon="19.7677558009">
        <ele>1133.05</ele>
        <time>2019-07-06T14:40:35Z</time>
      </trkpt>
      <trkpt lat="42.4346073903" lon="19.7677383665">
        <ele>1132.57</ele>
        <time>2019-07-06T14:40:40Z</time>
      </trkpt>
      <trkpt lat="42.4345269240" lon="19.7676558048">
        <ele>1131.13</ele>
        <time>2019-07-06T14:40:46Z</time>
      </trkpt>
      <trkpt lat="42.4344983418" lon="19.7676187567">
        <ele>1130.65</ele>
        <time>2019-07-06T14:40:49Z</time>
      </trkpt>
      <trkpt lat="42.4344629701" lon="19.7675946169">
        <ele>1130.17</ele>
        <time>2019-07-06T14:40:52Z</time>
      </trkpt>
      <trkpt lat="42.4343563523" lon="19.7675309144">
        <ele>1127.28</ele>
        <time>2019-07-06T14:41:03Z</time>
      </trkpt>
      <trkpt lat="42.4343512394" lon="19.7675213590">
        <ele>1127.28</ele>
        <time>2019-07-06T14:41:04Z</time>
      </trkpt>
      <trkpt lat="42.4343049712" lon="19.7673403937">
        <ele>1123.92</ele>
        <time>2019-07-06T14:41:14Z</time>
      </trkpt>
      <trkpt lat="42.4342069868" lon="19.7672682256">
        <ele>1122.48</ele>
        <time>2019-07-06T14:41:22Z</time>
      </trkpt>
      <trkpt lat="42.4341508280" lon="19.7672191914">
        <ele>1121.03</ele>
        <time>2019-07-06T14:41:29Z</time>
      </trkpt>
      <trkpt lat="42.4340085872" lon="19.7670808900">
        <ele>1117.19</ele>
        <time>2019-07-06T14:41:41Z</time>
      </trkpt>
      <trkpt lat="42.4339546077" lon="19.7670730110">
        <ele>1116.71</ele>
        <time>2019-07-06T14:41:45Z</time>
      </trkpt>
      <trkpt lat="42.4338955153" lon="19.7670568340">
        <ele>1114.79</ele>
        <time>2019-07-06T14:41:51Z</time>
      </trkpt>
      <trkpt lat="42.4338395242" lon="19.7670420818">
        <ele>1113.82</ele>
        <time>2019-07-06T14:41:56Z</time>
      </trkpt>
      <trkpt lat="42.4338075891" lon="19.7670245636">
        <ele>1113.34</ele>
        <time>2019-07-06T14:41:59Z</time>
      </trkpt>
      <trkpt lat="42.4337191600" lon="19.7669394873">
        <ele>1110.94</ele>
        <time>2019-07-06T14:42:11Z</time>
      </trkpt>
      <trkpt lat="42.4337199144" lon="19.7669378947">
        <ele>1110.94</ele>
        <time>2019-07-06T14:42:15Z</time>
      </trkpt>
      <trkpt lat="42.4336943496" lon="19.7669441812">
        <ele>1110.46</ele>
        <time>2019-07-06T14:42:18Z</time>
      </trkpt>
      <trkpt lat="42.4336612411" lon="19.7669347096">
        <ele>1110.94</ele>
        <time>2019-07-06T14:42:21Z</time>
      </trkpt>
      <trkpt lat="42.4336117879" lon="19.7669252381">
        <ele>1109.98</ele>
        <time>2019-07-06T14:42:26Z</time>
      </trkpt>
      <trkpt lat="42.4335583951" lon="19.7669236455">
        <ele>1109.02</ele>
        <time>2019-07-06T14:42:31Z</time>
      </trkpt>
      <trkpt lat="42.4335156474" lon="19.7669073008">
        <ele>1107.58</ele>
        <time>2019-07-06T14:42:35Z</time>
      </trkpt>
      <trkpt lat="42.4334078562" lon="19.7668368928">
        <ele>1105.65</ele>
        <time>2019-07-06T14:42:44Z</time>
      </trkpt>
      <trkpt lat="42.4333649408" lon="19.7667702567">
        <ele>1103.73</ele>
        <time>2019-07-06T14:42:50Z</time>
      </trkpt>
      <trkpt lat="42.4332236219" lon="19.7666742001">
        <ele>1100.37</ele>
        <time>2019-07-06T14:43:03Z</time>
      </trkpt>
      <trkpt lat="42.4331791978" lon="19.7666677460">
        <ele>1099.89</ele>
        <time>2019-07-06T14:43:06Z</time>
      </trkpt>
      <trkpt lat="42.4331525434" lon="19.7666581068">
        <ele>1099.89</ele>
        <time>2019-07-06T14:43:08Z</time>
      </trkpt>
      <trkpt lat="42.4329727516" lon="19.7666107491">
        <ele>1097.00</ele>
        <time>2019-07-06T14:43:24Z</time>
      </trkpt>
      <trkpt lat="42.4329512939" lon="19.7666178737">
        <ele>1096.52</ele>
        <time>2019-07-06T14:43:35Z</time>
      </trkpt>
      <trkpt lat="42.4329134915" lon="19.7666042112">
        <ele>1095.56</ele>
        <time>2019-07-06T14:43:49Z</time>
      </trkpt>
      <trkpt lat="42.4328378867" lon="19.7665838432">
        <ele>1093.64</ele>
        <time>2019-07-06T14:44:08Z</time>
      </trkpt>
      <trkpt lat="42.4326753616" lon="19.7665704321">
        <ele>1092.20</ele>
        <time>2019-07-06T14:44:22Z</time>
      </trkpt>
      <trkpt lat="42.4326179456" lon="19.7665299475">
        <ele>1090.27</ele>
        <time>2019-07-06T14:44:30Z</time>
      </trkpt>
      <trkpt lat="42.4325834960" lon="19.7664608806">
        <ele>1089.31</ele>
        <time>2019-07-06T14:44:35Z</time>
      </trkpt>
      <trkpt lat="42.4325459450" lon="19.7663733736">
        <ele>1087.87</ele>
        <time>2019-07-06T14:44:40Z</time>
      </trkpt>
      <trkpt lat="42.4325168598" lon="19.7662471421">
        <ele>1085.95</ele>
        <time>2019-07-06T14:44:50Z</time>
      </trkpt>
      <trkpt lat="42.4325100705" lon="19.7662001196">
        <ele>1085.47</ele>
        <time>2019-07-06T14:44:53Z</time>
      </trkpt>
      <trkpt lat="42.4324213900" lon="19.7660178132">
        <ele>1082.10</ele>
        <time>2019-07-06T14:45:06Z</time>
      </trkpt>
      <trkpt lat="42.4323576875" lon="19.7658738121">
        <ele>1078.74</ele>
        <time>2019-07-06T14:45:19Z</time>
      </trkpt>
      <trkpt lat="42.4322444480" lon="19.7657372709">
        <ele>1076.33</ele>
        <time>2019-07-06T14:45:31Z</time>
      </trkpt>
      <trkpt lat="42.4321878701" lon="19.7655811161">
        <ele>1072.97</ele>
        <time>2019-07-06T14:45:44Z</time>
      </trkpt>
      <trkpt lat="42.4321288615" lon="19.7654450778">
        <ele>1070.57</ele>
        <time>2019-07-06T14:45:53Z</time>
      </trkpt>
      <trkpt lat="42.4319950026" lon="19.7652988974">
        <ele>1067.68</ele>
        <time>2019-07-06T14:46:07Z</time>
      </trkpt>
      <trkpt lat="42.4318484869" lon="19.7652162518">
        <ele>1064.32</ele>
        <time>2019-07-06T14:46:21Z</time>
      </trkpt>
      <trkpt lat="42.4317007978" lon="19.7650814708">
        <ele>1061.91</ele>
        <time>2019-07-06T14:46:35Z</time>
      </trkpt>
      <trkpt lat="42.4315709621" lon="19.7649705783">
        <ele>1059.51</ele>
        <time>2019-07-06T14:46:48Z</time>
      </trkpt>
      <trkpt lat="42.4315513484" lon="19.7649601009">
        <ele>1059.03</ele>
        <time>2019-07-06T14:46:50Z</time>
      </trkpt>
      <trkpt lat="42.4315126240" lon="19.7649248131">
        <ele>1058.07</ele>
        <time>2019-07-06T14:46:54Z</time>
      </trkpt>
      <trkpt lat="42.4314193334" lon="19.7648396529">
        <ele>1057.11</ele>
        <time>2019-07-06T14:47:02Z</time>
      </trkpt>
      <trkpt lat="42.4312340934" lon="19.7647394054">
        <ele>1055.18</ele>
        <time>2019-07-06T14:47:17Z</time>
      </trkpt>
      <trkpt lat="42.4311693851" lon="19.7646965738">
        <ele>1054.22</ele>
        <time>2019-07-06T14:47:23Z</time>
      </trkpt>
      <trkpt lat="42.4311468378" lon="19.7646782175">
        <ele>1053.74</ele>
        <time>2019-07-06T14:47:25Z</time>
      </trkpt>
      <trkpt lat="42.4309507851" lon="19.7645526566">
        <ele>1051.82</ele>
        <time>2019-07-06T14:47:41Z</time>
      </trkpt>
      <trkpt lat="42.4308150820" lon="19.7644187976">
        <ele>1049.90</ele>
        <time>2019-07-06T14:47:53Z</time>
      </trkpt>
      <trkpt lat="42.4307636172" lon="19.7643245012">
        <ele>1047.97</ele>
        <time>2019-07-06T14:48:03Z</time>
      </trkpt>
      <trkpt lat="42.4307291675" lon="19.7642298695">
        <ele>1046.05</ele>
        <time>2019-07-06T14:48:10Z</time>
      </trkpt>
      <trkpt lat="42.4306807201" lon="19.7641124390">
        <ele>1044.13</ele>
        <time>2019-07-06T14:48:18Z</time>
      </trkpt>
      <trkpt lat="42.4305817299" lon="19.7639833577">
        <ele>1041.25</ele>
        <time>2019-07-06T14:48:31Z</time>
      </trkpt>
      <trkpt lat="42.4304345436" lon="19.7639287077">
        <ele>1039.32</ele>
        <time>2019-07-06T14:48:43Z</time>
      </trkpt>
      <trkpt lat="42.4302433524" lon="19.7638533544">
        <ele>1037.88</ele>
        <time>2019-07-06T14:48:58Z</time>
      </trkpt>
      <trkpt lat="42.4302159436" lon="19.7638431285">
        <ele>1037.40</ele>
        <time>2019-07-06T14:49:00Z</time>
      </trkpt>
      <trkpt lat="42.4301861040" lon="19.7638257779">
        <ele>1036.92</ele>
        <time>2019-07-06T14:49:03Z</time>
      </trkpt>
      <trkpt lat="42.4301376566" lon="19.7636793461">
        <ele>1034.04</ele>
        <time>2019-07-06T14:49:14Z</time>
      </trkpt>
      <trkpt lat="42.4299799930" lon="19.7636143025">
        <ele>1032.11</ele>
        <time>2019-07-06T14:49:28Z</time>
      </trkpt>
      <trkpt lat="42.4299395084" lon="19.7635829542">
        <ele>1031.63</ele>
        <time>2019-07-06T14:49:32Z</time>
      </trkpt>
      <trkpt lat="42.4299174640" lon="19.7635583114">
        <ele>1030.67</ele>
        <time>2019-07-06T14:49:34Z</time>
      </trkpt>
      <trkpt lat="42.4298416916" lon="19.7634821199">
        <ele>1028.27</ele>
        <time>2019-07-06T14:49:41Z</time>
      </trkpt>
      <trkpt lat="42.4297381751" lon="19.7634329181">
        <ele>1024.90</ele>
        <time>2019-07-06T14:49:53Z</time>
      </trkpt>
      <trkpt lat="42.4297293741" lon="19.7634239495">
        <ele>1024.90</ele>
        <time>2019-07-06T14:49:54Z</time>
      </trkpt>
      <trkpt lat="42.4297069944" lon="19.7633939423">
        <ele>1024.42</ele>
        <time>2019-07-06T14:49:58Z</time>
      </trkpt>
      <trkpt lat="42.4296043999" lon="19.7632855643">
        <ele>1021.06</ele>
        <time>2019-07-06T14:50:10Z</time>
      </trkpt>
      <trkpt lat="42.4295748957" lon="19.7632703930">
        <ele>1020.58</ele>
        <time>2019-07-06T14:50:13Z</time>
      </trkpt>
      <trkpt lat="42.4294723012" lon="19.7631817125">
        <ele>1018.17</ele>
        <time>2019-07-06T14:50:26Z</time>
      </trkpt>
      <trkpt lat="42.4293863028" lon="19.7630904336">
        <ele>1016.25</ele>
        <time>2019-07-06T14:50:38Z</time>
      </trkpt>
      <trkpt lat="42.4293188285" lon="19.7631290741">
        <ele>1014.81</ele>
        <time>2019-07-06T14:50:46Z</time>
      </trkpt>
      <trkpt lat="42.4292615801" lon="19.7631378751">
        <ele>1013.85</ele>
        <time>2019-07-06T14:50:51Z</time>
      </trkpt>
      <trkpt lat="42.4291561358" lon="19.7630819678">
        <ele>1011.44</ele>
        <time>2019-07-06T14:51:01Z</time>
      </trkpt>
      <trkpt lat="42.4290558044" lon="19.7629219573">
        <ele>1008.56</ele>
        <time>2019-07-06T14:51:15Z</time>
      </trkpt>
      <trkpt lat="42.4289802834" lon="19.7628201172">
        <ele>1006.64</ele>
        <time>2019-07-06T14:51:23Z</time>
      </trkpt>
      <trkpt lat="42.4289351888" lon="19.7627817281">
        <ele>1005.68</ele>
        <time>2019-07-06T14:51:28Z</time>
      </trkpt>
      <trkpt lat="42.4288839754" lon="19.7627528105">
        <ele>1004.23</ele>
        <time>2019-07-06T14:51:33Z</time>
      </trkpt>
      <trkpt lat="42.4287267309" lon="19.7626991663">
        <ele>1000.87</ele>
        <time>2019-07-06T14:51:47Z</time>
      </trkpt>
      <trkpt lat="42.4286129046" lon="19.7626243159">
        <ele>997.99</ele>
        <time>2019-07-06T14:51:59Z</time>
      </trkpt>
      <trkpt lat="42.4285904411" lon="19.7625938896">
        <ele>997.51</ele>
        <time>2019-07-06T14:52:02Z</time>
      </trkpt>
      <trkpt lat="42.4284796324" lon="19.7625327855">
        <ele>995.58</ele>
        <time>2019-07-06T14:52:11Z</time>
      </trkpt>
      <trkpt lat="42.4284402374" lon="19.7624809854">
        <ele>994.14</ele>
        <time>2019-07-06T14:52:15Z</time>
      </trkpt>
      <trkpt lat="42.4283598550" lon="19.7623266745">
        <ele>991.26</ele>
        <time>2019-07-06T14:52:26Z</time>
      </trkpt>
      <trkpt lat="42.4283418339" lon="19.7623071447">
        <ele>990.78</ele>
        <time>2019-07-06T14:52:28Z</time>
      </trkpt>
      <trkpt lat="42.4282944761" lon="19.7622552607">
        <ele>989.81</ele>
        <time>2019-07-06T14:52:33Z</time>
      </trkpt>
      <trkpt lat="42.4282648880" lon="19.7621846851">
        <ele>988.85</ele>
        <time>2019-07-06T14:52:39Z</time>
      </trkpt>
      <trkpt lat="42.4282197095" lon="19.7621392552">
        <ele>987.41</ele>
        <time>2019-07-06T14:52:44Z</time>
      </trkpt>
      <trkpt lat="42.4281192943" lon="19.7619672585">
        <ele>984.53</ele>
        <time>2019-07-06T14:52:58Z</time>
      </trkpt>
      <trkpt lat="42.4280356430" lon="19.7619151231">
        <ele>982.60</ele>
        <time>2019-07-06T14:53:05Z</time>
      </trkpt>
      <trkpt lat="42.4279037956" lon="19.7618390992">
        <ele>979.72</ele>
        <time>2019-07-06T14:53:19Z</time>
      </trkpt>
      <trkpt lat="42.4278681725" lon="19.7618267778">
        <ele>978.76</ele>
        <time>2019-07-06T14:53:28Z</time>
      </trkpt>
      <trkpt lat="42.4278031290" lon="19.7617619857">
        <ele>977.80</ele>
        <time>2019-07-06T14:53:37Z</time>
      </trkpt>
      <trkpt lat="42.4277733732" lon="19.7616466507">
        <ele>976.84</ele>
        <time>2019-07-06T14:53:44Z</time>
      </trkpt>
      <trkpt lat="42.4276819266" lon="19.7613786813">
        <ele>972.99</ele>
        <time>2019-07-06T14:54:00Z</time>
      </trkpt>
      <trkpt lat="42.4275489897" lon="19.7612483427">
        <ele>970.11</ele>
        <time>2019-07-06T14:54:14Z</time>
      </trkpt>
      <trkpt lat="42.4273795914" lon="19.7611475922">
        <ele>967.22</ele>
        <time>2019-07-06T14:54:29Z</time>
      </trkpt>
      <trkpt lat="42.4273390230" lon="19.7611015756">
        <ele>966.74</ele>
        <time>2019-07-06T14:54:43Z</time>
      </trkpt>
      <trkpt lat="42.4273658451" lon="19.7611143161">
        <ele>966.26</ele>
        <time>2019-07-06T14:55:07Z</time>
      </trkpt>
      <trkpt lat="42.4273450579" lon="19.7611192614">
        <ele>966.26</ele>
        <time>2019-07-06T14:55:32Z</time>
      </trkpt>
      <trkpt lat="42.4272548687" lon="19.7610018309">
        <ele>964.34</ele>
        <time>2019-07-06T14:55:46Z</time>
      </trkpt>
      <trkpt lat="42.4272117019" lon="19.7609669622">
        <ele>962.90</ele>
        <time>2019-07-06T14:55:51Z</time>
      </trkpt>
      <trkpt lat="42.4271197524" lon="19.7609280702">
        <ele>960.49</ele>
        <time>2019-07-06T14:55:59Z</time>
      </trkpt>
      <trkpt lat="42.4270757474" lon="19.7608740069">
        <ele>958.57</ele>
        <time>2019-07-06T14:56:03Z</time>
      </trkpt>
      <trkpt lat="42.4269502703" lon="19.7606624477">
        <ele>956.17</ele>
        <time>2019-07-06T14:56:19Z</time>
      </trkpt>
      <trkpt lat="42.4268189259" lon="19.7605364677">
        <ele>953.77</ele>
        <time>2019-07-06T14:56:32Z</time>
      </trkpt>
      <trkpt lat="42.4266370386" lon="19.7604863439">
        <ele>950.40</ele>
        <time>2019-07-06T14:56:46Z</time>
      </trkpt>
      <trkpt lat="42.4265506212" lon="19.7604715917">
        <ele>949.44</ele>
        <time>2019-07-06T14:56:52Z</time>
      </trkpt>
      <trkpt lat="42.4264079612" lon="19.7604429256">
        <ele>947.52</ele>
        <time>2019-07-06T14:57:03Z</time>
      </trkpt>
      <trkpt lat="42.4262419995" lon="19.7604471166">
        <ele>945.11</ele>
        <time>2019-07-06T14:57:16Z</time>
      </trkpt>
      <trkpt lat="42.4262030236" lon="19.7604642995">
        <ele>944.15</ele>
        <time>2019-07-06T14:57:19Z</time>
      </trkpt>
      <trkpt lat="42.4259758741" lon="19.7604435124">
        <ele>940.79</ele>
        <time>2019-07-06T14:57:34Z</time>
      </trkpt>
      <trkpt lat="42.4258975871" lon="19.7604329512">
        <ele>939.83</ele>
        <time>2019-07-06T14:57:39Z</time>
      </trkpt>
      <trkpt lat="42.4257328827" lon="19.7604140081">
        <ele>936.46</ele>
        <time>2019-07-06T14:57:53Z</time>
      </trkpt>
      <trkpt lat="42.4256052263" lon="19.7604220547">
        <ele>935.02</ele>
        <time>2019-07-06T14:58:03Z</time>
      </trkpt>
      <trkpt lat="42.4254860356" lon="19.7604016867">
        <ele>933.10</ele>
        <time>2019-07-06T14:58:10Z</time>
      </trkpt>
      <trkpt lat="42.4253724609" lon="19.7603632137">
        <ele>931.17</ele>
        <time>2019-07-06T14:58:19Z</time>
      </trkpt>
      <trkpt lat="42.4252588023" lon="19.7603612021">
        <ele>930.69</ele>
        <time>2019-07-06T14:58:28Z</time>
      </trkpt>
      <trkpt lat="42.4252085108" lon="19.7603699192">
        <ele>930.21</ele>
        <time>2019-07-06T14:58:32Z</time>
      </trkpt>
      <trkpt lat="42.4250394478" lon="19.7604862601">
        <ele>928.77</ele>
        <time>2019-07-06T14:58:46Z</time>
      </trkpt>
      <trkpt lat="42.4250303954" lon="19.7604945581">
        <ele>928.29</ele>
        <time>2019-07-06T14:58:47Z</time>
      </trkpt>
      <trkpt lat="42.4249723088" lon="19.7605187818">
        <ele>927.81</ele>
        <time>2019-07-06T14:58:52Z</time>
      </trkpt>
      <trkpt lat="42.4248335045" lon="19.7605356295">
        <ele>926.85</ele>
        <time>2019-07-06T14:59:03Z</time>
      </trkpt>
      <trkpt lat="42.4247389566" lon="19.7605335340">
        <ele>925.41</ele>
        <time>2019-07-06T14:59:10Z</time>
      </trkpt>
      <trkpt lat="42.4246586580" lon="19.7605354618">
        <ele>924.45</ele>
        <time>2019-07-06T14:59:16Z</time>
      </trkpt>
      <trkpt lat="42.4246284831" lon="19.7605300136">
        <ele>924.45</ele>
        <time>2019-07-06T14:59:18Z</time>
      </trkpt>
      <trkpt lat="42.4245756771" lon="19.7605288401">
        <ele>923.96</ele>
        <time>2019-07-06T14:59:22Z</time>
      </trkpt>
      <trkpt lat="42.4244534690" lon="19.7605463583">
        <ele>923.48</ele>
        <time>2019-07-06T14:59:32Z</time>
      </trkpt>
      <trkpt lat="42.4243419897" lon="19.7605512198">
        <ele>922.52</ele>
        <time>2019-07-06T14:59:41Z</time>
      </trkpt>
      <trkpt lat="42.4242870044" lon="19.7605634574">
        <ele>921.08</ele>
        <time>2019-07-06T14:59:46Z</time>
      </trkpt>
      <trkpt lat="42.4241263233" lon="19.7606507130">
        <ele>919.64</ele>
        <time>2019-07-06T15:00:01Z</time>
      </trkpt>
      <trkpt lat="42.4240946397" lon="19.7606751043">
        <ele>919.16</ele>
        <time>2019-07-06T15:00:04Z</time>
      </trkpt>
      <trkpt lat="42.4240599386" lon="19.7606906947">
        <ele>918.68</ele>
        <time>2019-07-06T15:00:07Z</time>
      </trkpt>
      <trkpt lat="42.4239836633" lon="19.7606852464">
        <ele>918.20</ele>
        <time>2019-07-06T15:00:13Z</time>
      </trkpt>
      <trkpt lat="42.4239378143" lon="19.7607062012">
        <ele>917.72</ele>
        <time>2019-07-06T15:00:17Z</time>
      </trkpt>
      <trkpt lat="42.4238192942" lon="19.7607361246">
        <ele>916.27</ele>
        <time>2019-07-06T15:00:26Z</time>
      </trkpt>
      <trkpt lat="42.4237378221" lon="19.7607579175">
        <ele>915.79</ele>
        <time>2019-07-06T15:00:36Z</time>
      </trkpt>
      <trkpt lat="42.4236887880" lon="19.7607694846">
        <ele>915.79</ele>
        <time>2019-07-06T15:00:46Z</time>
      </trkpt>
      <trkpt lat="42.4236032087" lon="19.7608346958">
        <ele>915.31</ele>
        <time>2019-07-06T15:00:53Z</time>
      </trkpt>
      <trkpt lat="42.4235172104" lon="19.7608660441">
        <ele>914.83</ele>
        <time>2019-07-06T15:01:01Z</time>
      </trkpt>
      <trkpt lat="42.4234431982" lon="19.7608617693">
        <ele>913.87</ele>
        <time>2019-07-06T15:01:06Z</time>
      </trkpt>
      <trkpt lat="42.4233013764" lon="19.7608927824">
        <ele>912.43</ele>
        <time>2019-07-06T15:01:18Z</time>
      </trkpt>
      <trkpt lat="42.4232589640" lon="19.7609243821">
        <ele>912.43</ele>
        <time>2019-07-06T15:01:21Z</time>
      </trkpt>
      <trkpt lat="42.4230773281" lon="19.7610470932">
        <ele>910.51</ele>
        <time>2019-07-06T15:01:36Z</time>
      </trkpt>
      <trkpt lat="42.4230584688" lon="19.7610692214">
        <ele>910.99</ele>
        <time>2019-07-06T15:01:38Z</time>
      </trkpt>
      <trkpt lat="42.4230454769" lon="19.7610767651">
        <ele>910.51</ele>
        <time>2019-07-06T15:01:39Z</time>
      </trkpt>
      <trkpt lat="42.4229920842" lon="19.7610930260">
        <ele>910.51</ele>
        <time>2019-07-06T15:01:43Z</time>
      </trkpt>
      <trkpt lat="42.4229829479" lon="19.7611054312">
        <ele>909.54</ele>
        <time>2019-07-06T15:01:44Z</time>
      </trkpt>
      <trkpt lat="42.4228731450" lon="19.7611180879">
        <ele>909.54</ele>
        <time>2019-07-06T15:01:52Z</time>
      </trkpt>
      <trkpt lat="42.4228038266" lon="19.7611144837">
        <ele>908.58</ele>
        <time>2019-07-06T15:01:56Z</time>
      </trkpt>
      <trkpt lat="42.4227476679" lon="19.7611403838">
        <ele>908.10</ele>
        <time>2019-07-06T15:02:02Z</time>
      </trkpt>
      <trkpt lat="42.4227240309" lon="19.7611579858">
        <ele>907.62</ele>
        <time>2019-07-06T15:02:05Z</time>
      </trkpt>
      <trkpt lat="42.4226173293" lon="19.7611646075">
        <ele>906.18</ele>
        <time>2019-07-06T15:02:14Z</time>
      </trkpt>
      <trkpt lat="42.4224501103" lon="19.7610914335">
        <ele>904.74</ele>
        <time>2019-07-06T15:02:26Z</time>
      </trkpt>
      <trkpt lat="42.4224175047" lon="19.7610954568">
        <ele>905.22</ele>
        <time>2019-07-06T15:02:28Z</time>
      </trkpt>
      <trkpt lat="42.4223933648" lon="19.7611045092">
        <ele>904.74</ele>
        <time>2019-07-06T15:02:30Z</time>
      </trkpt>
      <trkpt lat="42.4223423190" lon="19.7611105442">
        <ele>904.26</ele>
        <time>2019-07-06T15:02:34Z</time>
      </trkpt>
      <trkpt lat="42.4222136568" lon="19.7611204349">
        <ele>903.30</ele>
        <time>2019-07-06T15:02:43Z</time>
      </trkpt>
      <trkpt lat="42.4222039338" lon="19.7611278947">
        <ele>903.30</ele>
        <time>2019-07-06T15:02:44Z</time>
      </trkpt>
      <trkpt lat="42.4221777823" lon="19.7611362766">
        <ele>902.82</ele>
        <time>2019-07-06T15:02:46Z</time>
      </trkpt>
      <trkpt lat="42.4221026804" lon="19.7611992247">
        <ele>901.85</ele>
        <time>2019-07-06T15:02:54Z</time>
      </trkpt>
      <trkpt lat="42.4220696557" lon="19.7612592392">
        <ele>900.89</ele>
        <time>2019-07-06T15:03:07Z</time>
      </trkpt>
      <trkpt lat="42.4220676441" lon="19.7612622567">
        <ele>900.89</ele>
        <time>2019-07-06T15:03:08Z</time>
      </trkpt>
      <trkpt lat="42.4220248964" lon="19.7612656094">
        <ele>900.89</ele>
        <time>2019-07-06T15:03:17Z</time>
      </trkpt>
      <trkpt lat="42.4218799733" lon="19.7612935212">
        <ele>900.41</ele>
        <time>2019-07-06T15:03:30Z</time>
      </trkpt>
      <trkpt lat="42.4218088947" lon="19.7613595705">
        <ele>899.93</ele>
        <time>2019-07-06T15:03:41Z</time>
      </trkpt>
      <trkpt lat="42.4217912927" lon="19.7613808606">
        <ele>899.93</ele>
        <time>2019-07-06T15:03:43Z</time>
      </trkpt>
      <trkpt lat="42.4217816535" lon="19.7613898292">
        <ele>899.45</ele>
        <time>2019-07-06T15:03:44Z</time>
      </trkpt>
      <trkpt lat="42.4216445256" lon="19.7614608239">
        <ele>898.49</ele>
        <time>2019-07-06T15:03:57Z</time>
      </trkpt>
      <trkpt lat="42.4214602914" lon="19.7615368478">
        <ele>897.05</ele>
        <time>2019-07-06T15:04:11Z</time>
      </trkpt>
      <trkpt lat="42.4214497302" lon="19.7615431342">
        <ele>897.05</ele>
        <time>2019-07-06T15:04:12Z</time>
      </trkpt>
      <trkpt lat="42.4214441143" lon="19.7615547851">
        <ele>897.05</ele>
        <time>2019-07-06T15:04:13Z</time>
      </trkpt>
      <trkpt lat="42.4213760532" lon="19.7615945153">
        <ele>896.57</ele>
        <time>2019-07-06T15:04:20Z</time>
      </trkpt>
      <trkpt lat="42.4212180544" lon="19.7614443116">
        <ele>896.09</ele>
        <time>2019-07-06T15:04:33Z</time>
      </trkpt>
      <trkpt lat="42.4211213272" lon="19.7613376100">
        <ele>896.09</ele>
        <time>2019-07-06T15:04:48Z</time>
      </trkpt>
      <trkpt lat="42.4210286234" lon="19.7611687146">
        <ele>895.61</ele>
        <time>2019-07-06T15:05:03Z</time>
      </trkpt>
      <trkpt lat="42.4210031424" lon="19.7609950416">
        <ele>894.64</ele>
        <time>2019-07-06T15:05:16Z</time>
      </trkpt>
      <trkpt lat="42.4209589697" lon="19.7608026769">
        <ele>893.20</ele>
        <time>2019-07-06T15:05:31Z</time>
      </trkpt>
      <trkpt lat="42.4209353328" lon="19.7606428340">
        <ele>892.72</ele>
        <time>2019-07-06T15:05:44Z</time>
      </trkpt>
      <trkpt lat="42.4209235981" lon="19.7604525648">
        <ele>891.28</ele>
        <time>2019-07-06T15:05:59Z</time>
      </trkpt>
      <trkpt lat="42.4209106062" lon="19.7602814063">
        <ele>890.80</ele>
        <time>2019-07-06T15:06:10Z</time>
      </trkpt>
      <trkpt lat="42.4208811857" lon="19.7601409256">
        <ele>890.32</ele>
        <time>2019-07-06T15:06:15Z</time>
      </trkpt>
      <trkpt lat="42.4208924174" lon="19.7600619681">
        <ele>890.32</ele>
        <time>2019-07-06T15:06:19Z</time>
      </trkpt>
      <trkpt lat="42.4208780844" lon="19.7600005288">
        <ele>889.84</ele>
        <time>2019-07-06T15:06:22Z</time>
      </trkpt>
      <trkpt lat="42.4206829537" lon="19.7597891372">
        <ele>888.40</ele>
        <time>2019-07-06T15:06:39Z</time>
      </trkpt>
      <trkpt lat="42.4205673672" lon="19.7597007919">
        <ele>887.43</ele>
        <time>2019-07-06T15:06:51Z</time>
      </trkpt>
      <trkpt lat="42.4205402099" lon="19.7596891411">
        <ele>886.95</ele>
        <time>2019-07-06T15:06:53Z</time>
      </trkpt>
      <trkpt lat="42.4203615077" lon="19.7594785877">
        <ele>885.99</ele>
        <time>2019-07-06T15:07:09Z</time>
      </trkpt>
      <trkpt lat="42.4202446640" lon="19.7592924256">
        <ele>885.03</ele>
        <time>2019-07-06T15:07:23Z</time>
      </trkpt>
      <trkpt lat="42.4201716576" lon="19.7591539565">
        <ele>884.55</ele>
        <time>2019-07-06T15:07:34Z</time>
      </trkpt>
      <trkpt lat="42.4200238008" lon="19.7589454986">
        <ele>883.59</ele>
        <time>2019-07-06T15:07:49Z</time>
      </trkpt>
      <trkpt lat="42.4198738486" lon="19.7587229591">
        <ele>881.67</ele>
        <time>2019-07-06T15:08:05Z</time>
      </trkpt>
      <trkpt lat="42.4197415821" lon="19.7585279960">
        <ele>880.22</ele>
        <time>2019-07-06T15:08:21Z</time>
      </trkpt>
      <trkpt lat="42.4197190348" lon="19.7584652156">
        <ele>880.22</ele>
        <time>2019-07-06T15:08:25Z</time>
      </trkpt>
      <trkpt lat="42.4197053723" lon="19.7584399022">
        <ele>879.74</ele>
        <time>2019-07-06T15:08:27Z</time>
      </trkpt>
      <trkpt lat="42.4196083099" lon="19.7582461964">
        <ele>878.78</ele>
        <time>2019-07-06T15:08:41Z</time>
      </trkpt>
      <trkpt lat="42.4194747023" lon="19.7581800632">
        <ele>878.78</ele>
        <time>2019-07-06T15:08:53Z</time>
      </trkpt>
      <trkpt lat="42.4194555078" lon="19.7582027782">
        <ele>877.82</ele>
        <time>2019-07-06T15:09:08Z</time>
      </trkpt>
      <trkpt lat="42.4194356427" lon="19.7582188714">
        <ele>877.82</ele>
        <time>2019-07-06T15:09:27Z</time>
      </trkpt>
      <trkpt lat="42.4194294401" lon="19.7581889480">
        <ele>877.34</ele>
        <time>2019-07-06T15:09:47Z</time>
      </trkpt>
      <trkpt lat="42.4194394145" lon="19.7581734415">
        <ele>877.34</ele>
        <time>2019-07-06T15:09:59Z</time>
      </trkpt>
      <trkpt lat="42.4192933179" lon="19.7581879422">
        <ele>876.86</ele>
        <time>2019-07-06T15:10:15Z</time>
      </trkpt>
      <trkpt lat="42.4192830082" lon="19.7581941448">
        <ele>876.38</ele>
        <time>2019-07-06T15:10:25Z</time>
      </trkpt>
      <trkpt lat="42.4192577787" lon="19.7582311928">
        <ele>876.38</ele>
        <time>2019-07-06T15:10:29Z</time>
      </trkpt>
      <trkpt lat="42.4192031287" lon="19.7583384812">
        <ele>876.38</ele>
        <time>2019-07-06T15:10:37Z</time>
      </trkpt>
      <trkpt lat="42.4191757198" lon="19.7583537363">
        <ele>876.38</ele>
        <time>2019-07-06T15:10:41Z</time>
      </trkpt>
      <trkpt lat="42.4190191459" lon="19.7582340427">
        <ele>875.42</ele>
        <time>2019-07-06T15:10:56Z</time>
      </trkpt>
      <trkpt lat="42.4189286213" lon="19.7582252417">
        <ele>874.46</ele>
        <time>2019-07-06T15:11:04Z</time>
      </trkpt>
      <trkpt lat="42.4189099297" lon="19.7582289297">
        <ele>874.46</ele>
        <time>2019-07-06T15:11:06Z</time>
      </trkpt>
      <trkpt lat="42.4187365081" lon="19.7582663968">
        <ele>873.98</ele>
        <time>2019-07-06T15:11:21Z</time>
      </trkpt>
      <trkpt lat="42.4186002184" lon="19.7582188714">
        <ele>872.53</ele>
        <time>2019-07-06T15:11:35Z</time>
      </trkpt>
      <trkpt lat="42.4184649345" lon="19.7581382375">
        <ele>872.05</ele>
        <time>2019-07-06T15:11:49Z</time>
      </trkpt>
      <trkpt lat="42.4183119647" lon="19.7580512334">
        <ele>871.57</ele>
        <time>2019-07-06T15:12:03Z</time>
      </trkpt>
      <trkpt lat="42.4181682989" lon="19.7579470463">
        <ele>871.09</ele>
        <time>2019-07-06T15:12:17Z</time>
      </trkpt>
      <trkpt lat="42.4181264732" lon="19.7579156142">
        <ele>871.09</ele>
        <time>2019-07-06T15:12:21Z</time>
      </trkpt>
      <trkpt lat="42.4180233758" lon="19.7578923963">
        <ele>871.09</ele>
        <time>2019-07-06T15:12:30Z</time>
      </trkpt>
      <trkpt lat="42.4178786203" lon="19.7580118384">
        <ele>870.61</ele>
        <time>2019-07-06T15:12:45Z</time>
      </trkpt>
      <trkpt lat="42.4178233836" lon="19.7580757923">
        <ele>870.61</ele>
        <time>2019-07-06T15:12:57Z</time>
      </trkpt>
      <trkpt lat="42.4176877644" lon="19.7581980005">
        <ele>870.13</ele>
        <time>2019-07-06T15:13:10Z</time>
      </trkpt>
      <trkpt lat="42.4175565038" lon="19.7583706677">
        <ele>870.13</ele>
        <time>2019-07-06T15:13:25Z</time>
      </trkpt>
      <trkpt lat="42.4175198749" lon="19.7584700771">
        <ele>870.13</ele>
        <time>2019-07-06T15:13:32Z</time>
      </trkpt>
      <trkpt lat="42.4174915440" lon="19.7585068736">
        <ele>870.13</ele>
        <time>2019-07-06T15:13:35Z</time>
      </trkpt>
      <trkpt lat="42.4174696673" lon="19.7585207038">
        <ele>870.13</ele>
        <time>2019-07-06T15:13:37Z</time>
      </trkpt>
      <trkpt lat="42.4173566792" lon="19.7586256452">
        <ele>871.57</ele>
        <time>2019-07-06T15:13:49Z</time>
      </trkpt>
      <trkpt lat="42.4173332937" lon="19.7586523835">
        <ele>871.57</ele>
        <time>2019-07-06T15:13:52Z</time>
      </trkpt>
      <trkpt lat="42.4171873648" lon="19.7587823030">
        <ele>872.53</ele>
        <time>2019-07-06T15:14:07Z</time>
      </trkpt>
      <trkpt lat="42.4171384983" lon="19.7588115558">
        <ele>872.53</ele>
        <time>2019-07-06T15:14:20Z</time>
      </trkpt>
      <trkpt lat="42.4171245843" lon="19.7588356957">
        <ele>872.53</ele>
        <time>2019-07-06T15:14:24Z</time>
      </trkpt>
      <trkpt lat="42.4170550145" lon="19.7589252144">
        <ele>871.09</ele>
        <time>2019-07-06T15:14:33Z</time>
      </trkpt>
      <trkpt lat="42.4169038050" lon="19.7590088658">
        <ele>869.17</ele>
        <time>2019-07-06T15:14:46Z</time>
      </trkpt>
      <trkpt lat="42.4168842752" lon="19.7590118833">
        <ele>868.69</ele>
        <time>2019-07-06T15:14:48Z</time>
      </trkpt>
      <trkpt lat="42.4168482330" lon="19.7590261325">
        <ele>868.69</ele>
        <time>2019-07-06T15:14:51Z</time>
      </trkpt>
      <trkpt lat="42.4167053215" lon="19.7591421381">
        <ele>866.77</ele>
        <time>2019-07-06T15:15:06Z</time>
      </trkpt>
      <trkpt lat="42.4165702052" lon="19.7592508513">
        <ele>864.84</ele>
        <time>2019-07-06T15:15:18Z</time>
      </trkpt>
      <trkpt lat="42.4164894875" lon="19.7593310662">
        <ele>864.36</ele>
        <time>2019-07-06T15:15:27Z</time>
      </trkpt>
      <trkpt lat="42.4163566343" lon="19.7593685333">
        <ele>863.40</ele>
        <time>2019-07-06T15:15:41Z</time>
      </trkpt>
      <trkpt lat="42.4162020721" lon="19.7593818605">
        <ele>862.92</ele>
        <time>2019-07-06T15:15:55Z</time>
      </trkpt>
      <trkpt lat="42.4160488509" lon="19.7593826149">
        <ele>862.44</ele>
        <time>2019-07-06T15:16:09Z</time>
      </trkpt>
      <trkpt lat="42.4160051811" lon="19.7593588103">
        <ele>863.88</ele>
        <time>2019-07-06T15:16:12Z</time>
      </trkpt>
      <trkpt lat="42.4159899261" lon="19.7593464050">
        <ele>863.88</ele>
        <time>2019-07-06T15:16:13Z</time>
      </trkpt>
      <trkpt lat="42.4158565700" lon="19.7593702096">
        <ele>864.36</ele>
        <time>2019-07-06T15:16:23Z</time>
      </trkpt>
      <trkpt lat="42.4156389758" lon="19.7594449762">
        <ele>862.44</ele>
        <time>2019-07-06T15:16:39Z</time>
      </trkpt>
      <trkpt lat="42.4154756963" lon="19.7594588064">
        <ele>860.04</ele>
        <time>2019-07-06T15:16:52Z</time>
      </trkpt>
      <trkpt lat="42.4153927155" lon="19.7594520170">
        <ele>859.08</ele>
        <time>2019-07-06T15:16:59Z</time>
      </trkpt>
      <trkpt lat="42.4151735287" lon="19.7593829501">
        <ele>856.67</ele>
        <time>2019-07-06T15:17:15Z</time>
      </trkpt>
      <trkpt lat="42.4150878657" lon="19.7593997978">
        <ele>856.67</ele>
        <time>2019-07-06T15:17:21Z</time>
      </trkpt>
      <trkpt lat="42.4150610436" lon="19.7594077606">
        <ele>856.67</ele>
        <time>2019-07-06T15:17:23Z</time>
      </trkpt>
      <trkpt lat="42.4148687627" lon="19.7595035657">
        <ele>856.67</ele>
        <time>2019-07-06T15:17:38Z</time>
      </trkpt>
      <trkpt lat="42.4146988615" lon="19.7595559526">
        <ele>854.75</ele>
        <time>2019-07-06T15:17:51Z</time>
      </trkpt>
      <trkpt lat="42.4145611469" lon="19.7595977783">
        <ele>854.27</ele>
        <time>2019-07-06T15:18:05Z</time>
      </trkpt>
      <trkpt lat="42.4144629948" lon="19.7596344072">
        <ele>853.79</ele>
        <time>2019-07-06T15:18:17Z</time>
      </trkpt>
      <trkpt lat="42.4144344963" lon="19.7596491594">
        <ele>853.79</ele>
        <time>2019-07-06T15:18:20Z</time>
      </trkpt>
      <trkpt lat="42.4142667744" lon="19.7596427053">
        <ele>853.79</ele>
        <time>2019-07-06T15:18:35Z</time>
      </trkpt>
      <trkpt lat="42.4141010642" lon="19.7596308868">
        <ele>853.79</ele>
        <time>2019-07-06T15:18:48Z</time>
      </trkpt>
      <trkpt lat="42.4140661955" lon="19.7596655041">
        <ele>853.31</ele>
        <time>2019-07-06T15:18:52Z</time>
      </trkpt>
      <trkpt lat="42.4140123837" lon="19.7597086709">
        <ele>852.83</ele>
        <time>2019-07-06T15:18:57Z</time>
      </trkpt>
      <trkpt lat="42.4138639402" lon="19.7597020492">
        <ele>852.35</ele>
        <time>2019-07-06T15:19:10Z</time>
      </trkpt>
      <trkpt lat="42.4137183465" lon="19.7597121075">
        <ele>854.75</ele>
        <time>2019-07-06T15:19:23Z</time>
      </trkpt>
      <trkpt lat="42.4135859124" lon="19.7597175557">
        <ele>854.75</ele>
        <time>2019-07-06T15:19:35Z</time>
      </trkpt>
      <trkpt lat="42.4133870099" lon="19.7598145343">
        <ele>853.79</ele>
        <time>2019-07-06T15:19:50Z</time>
      </trkpt>
      <trkpt lat="42.4133145064" lon="19.7598749679">
        <ele>853.31</ele>
        <time>2019-07-06T15:19:57Z</time>
      </trkpt>
      <trkpt lat="42.4132049549" lon="19.7600572743">
        <ele>853.31</ele>
        <time>2019-07-06T15:20:11Z</time>
      </trkpt>
      <trkpt lat="42.4131998420" lon="19.7601113375">
        <ele>853.31</ele>
        <time>2019-07-06T15:20:14Z</time>
      </trkpt>
      <trkpt lat="42.4131907057" lon="19.7601931449">
        <ele>853.31</ele>
        <time>2019-07-06T15:20:19Z</time>
      </trkpt>
      <trkpt lat="42.4131337088" lon="19.7603964061">
        <ele>854.27</ele>
        <time>2019-07-06T15:20:33Z</time>
      </trkpt>
      <trkpt lat="42.4130138475" lon="19.7605667263">
        <ele>854.27</ele>
        <time>2019-07-06T15:20:46Z</time>
      </trkpt>
      <trkpt lat="42.4129857682" lon="19.7606545687">
        <ele>854.27</ele>
        <time>2019-07-06T15:20:51Z</time>
      </trkpt>
      <trkpt lat="42.4129799008" lon="19.7606684826">
        <ele>854.27</ele>
        <time>2019-07-06T15:20:52Z</time>
      </trkpt>
      <trkpt lat="42.4128661584" lon="19.7609187663">
        <ele>854.27</ele>
        <time>2019-07-06T15:21:09Z</time>
      </trkpt>
      <trkpt lat="42.4127732869" lon="19.7611452453">
        <ele>854.27</ele>
        <time>2019-07-06T15:21:23Z</time>
      </trkpt>
      <trkpt lat="42.4127452075" lon="19.7612071875">
        <ele>854.27</ele>
        <time>2019-07-06T15:21:27Z</time>
      </trkpt>
      <trkpt lat="42.4126995262" lon="19.7613086924">
        <ele>854.27</ele>
        <time>2019-07-06T15:21:34Z</time>
      </trkpt>
      <trkpt lat="42.4126022961" lon="19.7615132947">
        <ele>854.27</ele>
        <time>2019-07-06T15:21:49Z</time>
      </trkpt>
      <trkpt lat="42.4125209916" lon="19.7616802622">
        <ele>854.27</ele>
        <time>2019-07-06T15:22:02Z</time>
      </trkpt>
      <trkpt lat="42.4125102628" lon="19.7616893984">
        <ele>854.27</ele>
        <time>2019-07-06T15:22:03Z</time>
      </trkpt>
      <trkpt lat="42.4124416150" lon="19.7617365047">
        <ele>854.75</ele>
        <time>2019-07-06T15:22:09Z</time>
      </trkpt>
      <trkpt lat="42.4122609012" lon="19.7618644126">
        <ele>855.23</ele>
        <time>2019-07-06T15:22:25Z</time>
      </trkpt>
      <trkpt lat="42.4121223483" lon="19.7619369160">
        <ele>853.79</ele>
        <time>2019-07-06T15:22:36Z</time>
      </trkpt>
      <trkpt lat="42.4119694624" lon="19.7620561067">
        <ele>853.31</ele>
        <time>2019-07-06T15:22:50Z</time>
      </trkpt>
      <trkpt lat="42.4118029978" lon="19.7621973418">
        <ele>853.31</ele>
        <time>2019-07-06T15:23:05Z</time>
      </trkpt>
      <trkpt lat="42.4116466753" lon="19.7623142693">
        <ele>852.83</ele>
        <time>2019-07-06T15:23:19Z</time>
      </trkpt>
      <trkpt lat="42.4115006626" lon="19.7624648921">
        <ele>851.38</ele>
        <time>2019-07-06T15:23:33Z</time>
      </trkpt>
      <trkpt lat="42.4113934580" lon="19.7626881022">
        <ele>851.38</ele>
        <time>2019-07-06T15:23:48Z</time>
      </trkpt>
      <trkpt lat="42.4113471061" lon="19.7627700772">
        <ele>851.38</ele>
        <time>2019-07-06T15:23:54Z</time>
      </trkpt>
      <trkpt lat="42.4113033526" lon="19.7628293373">
        <ele>851.38</ele>
        <time>2019-07-06T15:23:59Z</time>
      </trkpt>
      <trkpt lat="42.4112903606" lon="19.7628597636">
        <ele>851.38</ele>
        <time>2019-07-06T15:24:01Z</time>
      </trkpt>
      <trkpt lat="42.4112772848" lon="19.7628736775">
        <ele>851.38</ele>
        <time>2019-07-06T15:24:02Z</time>
      </trkpt>
      <trkpt lat="42.4112179410" lon="19.7629397269">
        <ele>851.38</ele>
        <time>2019-07-06T15:24:08Z</time>
      </trkpt>
      <trkpt lat="42.4111101497" lon="19.7631098796">
        <ele>851.38</ele>
        <time>2019-07-06T15:24:22Z</time>
      </trkpt>
      <trkpt lat="42.4110213853" lon="19.7632178385">
        <ele>851.38</ele>
        <time>2019-07-06T15:24:33Z</time>
      </trkpt>
      <trkpt lat="42.4109144323" lon="19.7633381188">
        <ele>850.90</ele>
        <time>2019-07-06T15:24:44Z</time>
      </trkpt>
      <trkpt lat="42.4107526615" lon="19.7635571379">
        <ele>849.94</ele>
        <time>2019-07-06T15:25:01Z</time>
      </trkpt>
      <trkpt lat="42.4106322136" lon="19.7637307271">
        <ele>849.46</ele>
        <time>2019-07-06T15:25:15Z</time>
      </trkpt>
      <trkpt lat="42.4105228297" lon="19.7638687771">
        <ele>848.98</ele>
        <time>2019-07-06T15:25:28Z</time>
      </trkpt>
      <trkpt lat="42.4104730412" lon="19.7639455553">
        <ele>848.98</ele>
        <time>2019-07-06T15:25:35Z</time>
      </trkpt>
      <trkpt lat="42.4103708658" lon="19.7641553544">
        <ele>848.98</ele>
        <time>2019-07-06T15:25:51Z</time>
      </trkpt>
      <trkpt lat="42.4102500826" lon="19.7642803285">
        <ele>848.98</ele>
        <time>2019-07-06T15:26:04Z</time>
      </trkpt>
      <trkpt lat="42.4102097657" lon="19.7643265966">
        <ele>848.50</ele>
        <time>2019-07-06T15:26:17Z</time>
      </trkpt>
      <trkpt lat="42.4101353344" lon="19.7643694282">
        <ele>848.02</ele>
        <time>2019-07-06T15:26:32Z</time>
      </trkpt>
      <trkpt lat="42.4100205023" lon="19.7644677479">
        <ele>847.06</ele>
        <time>2019-07-06T15:26:42Z</time>
      </trkpt>
      <trkpt lat="42.4100112822" lon="19.7644845955">
        <ele>847.06</ele>
        <time>2019-07-06T15:26:43Z</time>
      </trkpt>
      <trkpt lat="42.4098860566" lon="19.7646167781">
        <ele>846.10</ele>
        <time>2019-07-06T15:26:55Z</time>
      </trkpt>
      <trkpt lat="42.4098314904" lon="19.7646692488">
        <ele>846.10</ele>
        <time>2019-07-06T15:27:00Z</time>
      </trkpt>
      <trkpt lat="42.4097652733" lon="19.7647463623">
        <ele>845.62</ele>
        <time>2019-07-06T15:27:06Z</time>
      </trkpt>
      <trkpt lat="42.4096315820" lon="19.7648829874">
        <ele>845.62</ele>
        <time>2019-07-06T15:27:20Z</time>
      </trkpt>
      <trkpt lat="42.4094982259" lon="19.7649746854">
        <ele>846.58</ele>
        <time>2019-07-06T15:27:34Z</time>
      </trkpt>
      <trkpt lat="42.4094746727" lon="19.7650217079">
        <ele>847.06</ele>
        <time>2019-07-06T15:27:46Z</time>
      </trkpt>
      <trkpt lat="42.4094896764" lon="19.7650021780">
        <ele>847.06</ele>
        <time>2019-07-06T15:28:09Z</time>
      </trkpt>
      <trkpt lat="42.4094437435" lon="19.7650331911">
        <ele>847.06</ele>
        <time>2019-07-06T15:28:23Z</time>
      </trkpt>
      <trkpt lat="42.4094101321" lon="19.7650582530">
        <ele>847.54</ele>
        <time>2019-07-06T15:28:26Z</time>
      </trkpt>
      <trkpt lat="42.4093494471" lon="19.7650933731">
        <ele>847.54</ele>
        <time>2019-07-06T15:28:42Z</time>
      </trkpt>
      <trkpt lat="42.4093278218" lon="19.7651052754">
        <ele>847.54</ele>
        <time>2019-07-06T15:29:01Z</time>
      </trkpt>
      <trkpt lat="42.4093009159" lon="19.7651398089">
        <ele>847.54</ele>
        <time>2019-07-06T15:29:18Z</time>
      </trkpt>
      <trkpt lat="42.4092055298" lon="19.7651958000">
        <ele>847.54</ele>
        <time>2019-07-06T15:29:33Z</time>
      </trkpt>
      <trkpt lat="42.4091233872" lon="19.7652661242">
        <ele>848.02</ele>
        <time>2019-07-06T15:29:41Z</time>
      </trkpt>
      <trkpt lat="42.4089598563" lon="19.7654240392">
        <ele>848.02</ele>
        <time>2019-07-06T15:29:58Z</time>
      </trkpt>
      <trkpt lat="42.4088146817" lon="19.7655261308">
        <ele>848.98</ele>
        <time>2019-07-06T15:30:13Z</time>
      </trkpt>
      <trkpt lat="42.4086575210" lon="19.7656448185">
        <ele>848.98</ele>
        <time>2019-07-06T15:30:28Z</time>
      </trkpt>
      <trkpt lat="42.4085097481" lon="19.7657655180">
        <ele>849.46</ele>
        <time>2019-07-06T15:30:43Z</time>
      </trkpt>
      <trkpt lat="42.4084317125" lon="19.7658421285">
        <ele>848.02</ele>
        <time>2019-07-06T15:30:51Z</time>
      </trkpt>
      <trkpt lat="42.4083094206" lon="19.7659800109">
        <ele>847.06</ele>
        <time>2019-07-06T15:31:04Z</time>
      </trkpt>
      <trkpt lat="42.4081440456" lon="19.7659544460">
        <ele>847.06</ele>
        <time>2019-07-06T15:31:19Z</time>
      </trkpt>
      <trkpt lat="42.4080140423" lon="19.7659411188">
        <ele>847.06</ele>
        <time>2019-07-06T15:31:29Z</time>
      </trkpt>
      <trkpt lat="42.4079331569" lon="19.7659837827">
        <ele>846.58</ele>
        <time>2019-07-06T15:31:44Z</time>
      </trkpt>
      <trkpt lat="42.4078207556" lon="19.7660114430">
        <ele>846.10</ele>
        <time>2019-07-06T15:32:04Z</time>
      </trkpt>
      <trkpt lat="42.4076256249" lon="19.7661064100">
        <ele>844.66</ele>
        <time>2019-07-06T15:32:19Z</time>
      </trkpt>
      <trkpt lat="42.4074678775" lon="19.7662432864">
        <ele>843.69</ele>
        <time>2019-07-06T15:32:34Z</time>
      </trkpt>
      <trkpt lat="42.4073510338" lon="19.7663693503">
        <ele>842.25</ele>
        <time>2019-07-06T15:32:46Z</time>
      </trkpt>
      <trkpt lat="42.4071770255" lon="19.7664502356">
        <ele>841.77</ele>
        <time>2019-07-06T15:33:01Z</time>
      </trkpt>
      <trkpt lat="42.4070051964" lon="19.7665333003">
        <ele>841.29</ele>
        <time>2019-07-06T15:33:16Z</time>
      </trkpt>
      <trkpt lat="42.4068364687" lon="19.7666592803">
        <ele>840.81</ele>
        <time>2019-07-06T15:33:32Z</time>
      </trkpt>
      <trkpt lat="42.4067121651" lon="19.7667863499">
        <ele>840.33</ele>
        <time>2019-07-06T15:33:45Z</time>
      </trkpt>
      <trkpt lat="42.4065594468" lon="19.7669040319">
        <ele>839.37</ele>
        <time>2019-07-06T15:33:59Z</time>
      </trkpt>
      <trkpt lat="42.4063923955" lon="19.7670317721">
        <ele>839.37</ele>
        <time>2019-07-06T15:34:14Z</time>
      </trkpt>
      <trkpt lat="42.4061965104" lon="19.7672086302">
        <ele>838.41</ele>
        <time>2019-07-06T15:34:33Z</time>
      </trkpt>
      <trkpt lat="42.4060276151" lon="19.7674416471">
        <ele>836.48</ele>
        <time>2019-07-06T15:34:51Z</time>
      </trkpt>
      <trkpt lat="42.4059118610" lon="19.7676105425">
        <ele>834.08</ele>
        <time>2019-07-06T15:35:05Z</time>
      </trkpt>
      <trkpt lat="42.4058784172" lon="19.7676716466">
        <ele>833.60</ele>
        <time>2019-07-06T15:35:09Z</time>
      </trkpt>
      <trkpt lat="42.4058158882" lon="19.7677053418">
        <ele>833.60</ele>
        <time>2019-07-06T15:35:14Z</time>
      </trkpt>
      <trkpt lat="42.4055947736" lon="19.7676274739">
        <ele>833.60</ele>
        <time>2019-07-06T15:35:33Z</time>
      </trkpt>
      <trkpt lat="42.4055816978" lon="19.7676314134">
        <ele>833.60</ele>
        <time>2019-07-06T15:35:34Z</time>
      </trkpt>
      <trkpt lat="42.4054582324" lon="19.7677050903">
        <ele>834.56</ele>
        <time>2019-07-06T15:35:44Z</time>
      </trkpt>
      <trkpt lat="42.4053770117" lon="19.7677612491">
        <ele>833.12</ele>
        <time>2019-07-06T15:35:51Z</time>
      </trkpt>
      <trkpt lat="42.4052008241" lon="19.7679018136">
        <ele>832.64</ele>
        <time>2019-07-06T15:36:07Z</time>
      </trkpt>
      <trkpt lat="42.4047828186" lon="19.7681427095">
        <ele>833.60</ele>
        <time>2019-07-06T15:36:45Z</time>
      </trkpt>
      <trkpt lat="42.4045579322" lon="19.7682954278">
        <ele>834.08</ele>
        <time>2019-07-06T15:37:06Z</time>
      </trkpt>
      <trkpt lat="42.4043612089" lon="19.7684275266">
        <ele>833.60</ele>
        <time>2019-07-06T15:37:24Z</time>
      </trkpt>
      <trkpt lat="42.4041416869" lon="19.7685780656">
        <ele>833.60</ele>
        <time>2019-07-06T15:37:44Z</time>
      </trkpt>
      <trkpt lat="42.4039399344" lon="19.7687033750">
        <ele>833.60</ele>
        <time>2019-07-06T15:38:02Z</time>
      </trkpt>
      <trkpt lat="42.4036956020" lon="19.7688397486">
        <ele>831.68</ele>
        <time>2019-07-06T15:38:23Z</time>
      </trkpt>
      <trkpt lat="42.4034733139" lon="19.7690157685">
        <ele>830.24</ele>
        <time>2019-07-06T15:38:44Z</time>
      </trkpt>
      <trkpt lat="42.4034202565" lon="19.7690912057">
        <ele>830.24</ele>
        <time>2019-07-06T15:38:50Z</time>
      </trkpt>
      <trkpt lat="42.4032311607" lon="19.7692267410">
        <ele>829.27</ele>
        <time>2019-07-06T15:39:06Z</time>
      </trkpt>
      <trkpt lat="42.4030777719" lon="19.7692131624">
        <ele>830.72</ele>
        <time>2019-07-06T15:39:20Z</time>
      </trkpt>
      <trkpt lat="42.4030170869" lon="19.7692530602">
        <ele>830.72</ele>
        <time>2019-07-06T15:39:26Z</time>
      </trkpt>
      <trkpt lat="42.4029764347" lon="19.7693211213">
        <ele>831.20</ele>
        <time>2019-07-06T15:39:31Z</time>
      </trkpt>
      <trkpt lat="42.4029375426" lon="19.7694857419">
        <ele>831.20</ele>
        <time>2019-07-06T15:39:41Z</time>
      </trkpt>
      <trkpt lat="42.4028625246" lon="19.7695628554">
        <ele>829.76</ele>
        <time>2019-07-06T15:39:48Z</time>
      </trkpt>
      <trkpt lat="42.4028124847" lon="19.7695778590">
        <ele>829.76</ele>
        <time>2019-07-06T15:39:52Z</time>
      </trkpt>
      <trkpt lat="42.4026439246" lon="19.7695532162">
        <ele>829.27</ele>
        <time>2019-07-06T15:40:06Z</time>
      </trkpt>
      <trkpt lat="42.4024700001" lon="19.7695322614">
        <ele>831.20</ele>
        <time>2019-07-06T15:40:22Z</time>
      </trkpt>
      <trkpt lat="42.4023249093" lon="19.7696812917">
        <ele>831.68</ele>
        <time>2019-07-06T15:40:36Z</time>
      </trkpt>
      <trkpt lat="42.4022494722" lon="19.7697558906">
        <ele>832.16</ele>
        <time>2019-07-06T15:40:43Z</time>
      </trkpt>
      <trkpt lat="42.4021672457" lon="19.7698782664">
        <ele>832.16</ele>
        <time>2019-07-06T15:40:52Z</time>
      </trkpt>
      <trkpt lat="42.4020721950" lon="19.7701392788">
        <ele>831.68</ele>
        <time>2019-07-06T15:41:08Z</time>
      </trkpt>
      <trkpt lat="42.4020359013" lon="19.7702455614">
        <ele>831.68</ele>
        <time>2019-07-06T15:41:15Z</time>
      </trkpt>
      <trkpt lat="42.4020436127" lon="19.7704119422">
        <ele>830.24</ele>
        <time>2019-07-06T15:41:29Z</time>
      </trkpt>
      <trkpt lat="42.4020186346" lon="19.7704467271">
        <ele>829.76</ele>
        <time>2019-07-06T15:41:49Z</time>
      </trkpt>
      <trkpt lat="42.4020193890" lon="19.7704885527">
        <ele>829.76</ele>
        <time>2019-07-06T15:42:06Z</time>
      </trkpt>
      <trkpt lat="42.4019872863" lon="19.7705182247">
        <ele>829.27</ele>
        <time>2019-07-06T15:42:28Z</time>
      </trkpt>
      <trkpt lat="42.4020105880" lon="19.7705490701">
        <ele>829.27</ele>
        <time>2019-07-06T15:42:40Z</time>
      </trkpt>
      <trkpt lat="42.4020236637" lon="19.7705346532">
        <ele>829.27</ele>
        <time>2019-07-06T15:43:03Z</time>
      </trkpt>
      <trkpt lat="42.4020576105" lon="19.7705048975">
        <ele>829.27</ele>
        <time>2019-07-06T15:43:23Z</time>
      </trkpt>
      <trkpt lat="42.4020275194" lon="19.7705399338">
        <ele>830.24</ele>
        <time>2019-07-06T15:43:51Z</time>
      </trkpt>
      <trkpt lat="42.4020400923" lon="19.7705346532">
        <ele>830.24</ele>
        <time>2019-07-06T15:44:09Z</time>
      </trkpt>
      <trkpt lat="42.4020328838" lon="19.7704882175">
        <ele>828.79</ele>
        <time>2019-07-06T15:44:32Z</time>
      </trkpt>
      <trkpt lat="42.4019949138" lon="19.7705025505">
        <ele>828.31</ele>
        <time>2019-07-06T15:44:35Z</time>
      </trkpt>
      <trkpt lat="42.4019457120" lon="19.7705660854">
        <ele>827.35</ele>
        <time>2019-07-06T15:44:41Z</time>
      </trkpt>
      <trkpt lat="42.4018761422" lon="19.7705747187">
        <ele>826.39</ele>
        <time>2019-07-06T15:44:52Z</time>
      </trkpt>
      <trkpt lat="42.4018528406" lon="19.7705685999">
        <ele>825.91</ele>
        <time>2019-07-06T15:44:54Z</time>
      </trkpt>
      <trkpt lat="42.4017857015" lon="19.7705263551">
        <ele>824.95</ele>
        <time>2019-07-06T15:45:00Z</time>
      </trkpt>
      <trkpt lat="42.4016601406" lon="19.7705463041">
        <ele>823.99</ele>
        <time>2019-07-06T15:45:14Z</time>
      </trkpt>
      <trkpt lat="42.4015826918" lon="19.7704667598">
        <ele>821.10</ele>
        <time>2019-07-06T15:45:24Z</time>
      </trkpt>
      <trkpt lat="42.4015468173" lon="19.7704399377">
        <ele>820.62</ele>
        <time>2019-07-06T15:45:27Z</time>
      </trkpt>
      <trkpt lat="42.4015257787" lon="19.7703760676">
        <ele>820.14</ele>
        <time>2019-07-06T15:45:31Z</time>
      </trkpt>
      <trkpt lat="42.4014967773" lon="19.7703001276">
        <ele>818.22</ele>
        <time>2019-07-06T15:45:36Z</time>
      </trkpt>
      <trkpt lat="42.4014446419" lon="19.7702538595">
        <ele>816.78</ele>
        <time>2019-07-06T15:45:41Z</time>
      </trkpt>
      <trkpt lat="42.4013962783" lon="19.7702361736">
        <ele>815.34</ele>
        <time>2019-07-06T15:45:45Z</time>
      </trkpt>
      <trkpt lat="42.4012539536" lon="19.7701945156">
        <ele>812.93</ele>
        <time>2019-07-06T15:45:57Z</time>
      </trkpt>
      <trkpt lat="42.4011414684" lon="19.7702273726">
        <ele>812.45</ele>
        <time>2019-07-06T15:46:06Z</time>
      </trkpt>
      <trkpt lat="42.4009978026" lon="19.7702943441">
        <ele>812.45</ele>
        <time>2019-07-06T15:46:17Z</time>
      </trkpt>
      <trkpt lat="42.4009755906" lon="19.7703298833">
        <ele>811.49</ele>
        <time>2019-07-06T15:46:20Z</time>
      </trkpt>
      <trkpt lat="42.4009025842" lon="19.7704195697">
        <ele>810.05</ele>
        <time>2019-07-06T15:46:27Z</time>
      </trkpt>
      <trkpt lat="42.4007333536" lon="19.7704752255">
        <ele>810.05</ele>
        <time>2019-07-06T15:46:41Z</time>
      </trkpt>
      <trkpt lat="42.4005488679" lon="19.7705151234">
        <ele>809.09</ele>
        <time>2019-07-06T15:46:57Z</time>
      </trkpt>
      <trkpt lat="42.4003611971" lon="19.7705235891">
        <ele>807.64</ele>
        <time>2019-07-06T15:47:12Z</time>
      </trkpt>
      <trkpt lat="42.4003488757" lon="19.7705247626">
        <ele>807.64</ele>
        <time>2019-07-06T15:47:13Z</time>
      </trkpt>
      <trkpt lat="42.4002881069" lon="19.7705621459">
        <ele>806.68</ele>
        <time>2019-07-06T15:47:18Z</time>
      </trkpt>
      <trkpt lat="42.4000959937" lon="19.7707706876">
        <ele>805.72</ele>
        <time>2019-07-06T15:47:36Z</time>
      </trkpt>
      <trkpt lat="42.3998933192" lon="19.7709254175">
        <ele>803.80</ele>
        <time>2019-07-06T15:47:53Z</time>
      </trkpt>
      <trkpt lat="42.3996926565" lon="19.7710173670">
        <ele>802.36</ele>
        <time>2019-07-06T15:48:08Z</time>
      </trkpt>
      <trkpt lat="42.3996418621" lon="19.7709901258">
        <ele>801.88</ele>
        <time>2019-07-06T15:48:12Z</time>
      </trkpt>
      <trkpt lat="42.3995615635" lon="19.7708799038">
        <ele>799.95</ele>
        <time>2019-07-06T15:48:27Z</time>
      </trkpt>
      <trkpt lat="42.3995665926" lon="19.7708813287">
        <ele>799.47</ele>
        <time>2019-07-06T15:48:42Z</time>
      </trkpt>
      <trkpt lat="42.3996191472" lon="19.7709075641">
        <ele>800.92</ele>
        <time>2019-07-06T15:48:54Z</time>
      </trkpt>
      <trkpt lat="42.3996079993" lon="19.7709014453">
        <ele>800.92</ele>
        <time>2019-07-06T15:49:05Z</time>
      </trkpt>
      <trkpt lat="42.3995432910" lon="19.7709027864">
        <ele>799.47</ele>
        <time>2019-07-06T15:49:10Z</time>
      </trkpt>
      <trkpt lat="42.3994137906" lon="19.7709834203">
        <ele>797.07</ele>
        <time>2019-07-06T15:49:25Z</time>
      </trkpt>
      <trkpt lat="42.3993805144" lon="19.7709894553">
        <ele>797.07</ele>
        <time>2019-07-06T15:49:38Z</time>
      </trkpt>
      <trkpt lat="42.3993807659" lon="19.7710059676">
        <ele>796.59</ele>
        <time>2019-07-06T15:49:40Z</time>
      </trkpt>
      <trkpt lat="42.3993899859" lon="19.7710503917">
        <ele>796.59</ele>
        <time>2019-07-06T15:49:43Z</time>
      </trkpt>
      <trkpt lat="42.3994184006" lon="19.7711555846">
        <ele>796.59</ele>
        <time>2019-07-06T15:49:57Z</time>
      </trkpt>
      <trkpt lat="42.3993890639" lon="19.7712469473">
        <ele>796.59</ele>
        <time>2019-07-06T15:50:10Z</time>
      </trkpt>
      <trkpt lat="42.3993168958" lon="19.7714207042">
        <ele>796.59</ele>
        <time>2019-07-06T15:50:23Z</time>
      </trkpt>
      <trkpt lat="42.3991375230" lon="19.7715725005">
        <ele>796.59</ele>
        <time>2019-07-06T15:50:41Z</time>
      </trkpt>
      <trkpt lat="42.3989970423" lon="19.7716070339">
        <ele>796.59</ele>
        <time>2019-07-06T15:50:57Z</time>
      </trkpt>
      <trkpt lat="42.3989537917" lon="19.7716256417">
        <ele>797.55</ele>
        <time>2019-07-06T15:51:02Z</time>
      </trkpt>
      <trkpt lat="42.3988418095" lon="19.7716310900">
        <ele>799.47</ele>
        <time>2019-07-06T15:51:15Z</time>
      </trkpt>
      <trkpt lat="42.3987655342" lon="19.7716501169">
        <ele>800.44</ele>
        <time>2019-07-06T15:51:31Z</time>
      </trkpt>
      <trkpt lat="42.3987003230" lon="19.7716179304">
        <ele>801.40</ele>
        <time>2019-07-06T15:51:45Z</time>
      </trkpt>
      <trkpt lat="42.3986772727" lon="19.7716485243">
        <ele>801.88</ele>
        <time>2019-07-06T15:52:06Z</time>
      </trkpt>
      <trkpt lat="42.3986580782" lon="19.7716472670">
        <ele>801.40</ele>
        <time>2019-07-06T15:52:34Z</time>
      </trkpt>
      <trkpt lat="42.3986747582" lon="19.7716639470">
        <ele>801.40</ele>
        <time>2019-07-06T15:53:11Z</time>
      </trkpt>
      <trkpt lat="42.3987517878" lon="19.7716529667">
        <ele>799.95</ele>
        <time>2019-07-06T15:53:25Z</time>
      </trkpt>
      <trkpt lat="42.3988864012" lon="19.7716394719">
        <ele>798.03</ele>
        <time>2019-07-06T15:53:39Z</time>
      </trkpt>
      <trkpt lat="42.3990138061" lon="19.7716084588">
        <ele>796.11</ele>
        <time>2019-07-06T15:53:53Z</time>
      </trkpt>
      <trkpt lat="42.3990156502" lon="19.7716079559">
        <ele>796.11</ele>
        <time>2019-07-06T15:54:18Z</time>
      </trkpt>
      <trkpt lat="42.3990526143" lon="19.7715887614">
        <ele>795.63</ele>
        <time>2019-07-06T15:54:38Z</time>
      </trkpt>
      <trkpt lat="42.3990744911" lon="19.7715722490">
        <ele>795.15</ele>
        <time>2019-07-06T15:54:55Z</time>
      </trkpt>
      <trkpt lat="42.3990899138" lon="19.7715989873">
        <ele>795.15</ele>
        <time>2019-07-06T15:55:18Z</time>
      </trkpt>
      <trkpt lat="42.3991262075" lon="19.7716146614">
        <ele>795.15</ele>
        <time>2019-07-06T15:55:39Z</time>
      </trkpt>
      <trkpt lat="42.3992778361" lon="19.7715207841">
        <ele>795.15</ele>
        <time>2019-07-06T15:55:54Z</time>
      </trkpt>
      <trkpt lat="42.3993288819" lon="19.7714670561">
        <ele>795.15</ele>
        <time>2019-07-06T15:55:59Z</time>
      </trkpt>
      <trkpt lat="42.3994151317" lon="19.7712886892">
        <ele>795.15</ele>
        <time>2019-07-06T15:56:12Z</time>
      </trkpt>
      <trkpt lat="42.3994194902" lon="19.7712508030">
        <ele>795.15</ele>
        <time>2019-07-06T15:56:15Z</time>
      </trkpt>
      <trkpt lat="42.3994179815" lon="19.7711779643">
        <ele>795.15</ele>
        <time>2019-07-06T15:56:22Z</time>
      </trkpt>
      <trkpt lat="42.3994211666" lon="19.7710363939">
        <ele>796.11</ele>
        <time>2019-07-06T15:56:31Z</time>
      </trkpt>
      <trkpt lat="42.3995131999" lon="19.7709187958">
        <ele>796.59</ele>
        <time>2019-07-06T15:56:43Z</time>
      </trkpt>
      <trkpt lat="42.3996292893" lon="19.7708748747">
        <ele>798.51</ele>
        <time>2019-07-06T15:56:56Z</time>
      </trkpt>
      <trkpt lat="42.3996572010" lon="19.7708457895">
        <ele>798.51</ele>
        <time>2019-07-06T15:56:59Z</time>
      </trkpt>
      <trkpt lat="42.3996758927" lon="19.7708049696">
        <ele>798.51</ele>
        <time>2019-07-06T15:57:02Z</time>
      </trkpt>
      <trkpt lat="42.3997919820" lon="19.7705799155">
        <ele>797.55</ele>
        <time>2019-07-06T15:57:18Z</time>
      </trkpt>
      <trkpt lat="42.3997879587" lon="19.7705337312">
        <ele>797.55</ele>
        <time>2019-07-06T15:57:21Z</time>
      </trkpt>
      <trkpt lat="42.3997519165" lon="19.7703867964">
        <ele>796.11</ele>
        <time>2019-07-06T15:57:32Z</time>
      </trkpt>
      <trkpt lat="42.3996063229" lon="19.7703790013">
        <ele>795.15</ele>
        <time>2019-07-06T15:57:44Z</time>
      </trkpt>
      <trkpt lat="42.3995852005" lon="19.7703906521">
        <ele>794.67</ele>
        <time>2019-07-06T15:57:53Z</time>
      </trkpt>
      <trkpt lat="42.3995026387" lon="19.7704540193">
        <ele>793.22</ele>
        <time>2019-07-06T15:58:06Z</time>
      </trkpt>
      <trkpt lat="42.3993901536" lon="19.7704997845">
        <ele>792.74</ele>
        <time>2019-07-06T15:58:20Z</time>
      </trkpt>
      <trkpt lat="42.3992286343" lon="19.7706405167">
        <ele>791.30</ele>
        <time>2019-07-06T15:58:36Z</time>
      </trkpt>
      <trkpt lat="42.3991880659" lon="19.7706564423">
        <ele>791.30</ele>
        <time>2019-07-06T15:58:48Z</time>
      </trkpt>
      <trkpt lat="42.3991648480" lon="19.7706887126">
        <ele>790.82</ele>
        <time>2019-07-06T15:59:07Z</time>
      </trkpt>
      <trkpt lat="42.3990623374" lon="19.7707316279">
        <ele>790.82</ele>
        <time>2019-07-06T15:59:18Z</time>
      </trkpt>
      <trkpt lat="42.3988970462" lon="19.7708976734">
        <ele>789.38</ele>
        <time>2019-07-06T15:59:36Z</time>
      </trkpt>
      <trkpt lat="42.3987194337" lon="19.7708322946">
        <ele>787.94</ele>
        <time>2019-07-06T15:59:52Z</time>
      </trkpt>
      <trkpt lat="42.3985776119" lon="19.7708491422">
        <ele>786.02</ele>
        <time>2019-07-06T16:00:04Z</time>
      </trkpt>
      <trkpt lat="42.3985148314" lon="19.7709724400">
        <ele>784.57</ele>
        <time>2019-07-06T16:00:14Z</time>
      </trkpt>
      <trkpt lat="42.3985026777" lon="19.7710786387">
        <ele>783.61</ele>
        <time>2019-07-06T16:00:28Z</time>
      </trkpt>
      <trkpt lat="42.3984616064" lon="19.7711376473">
        <ele>783.61</ele>
        <time>2019-07-06T16:00:37Z</time>
      </trkpt>
      <trkpt lat="42.3983050324" lon="19.7712197900">
        <ele>783.13</ele>
        <time>2019-07-06T16:00:51Z</time>
      </trkpt>
      <trkpt lat="42.3981890269" lon="19.7714248952">
        <ele>780.73</ele>
        <time>2019-07-06T16:01:06Z</time>
      </trkpt>
      <trkpt lat="42.3980609514" lon="19.7716569062">
        <ele>778.32</ele>
        <time>2019-07-06T16:01:22Z</time>
      </trkpt>
      <trkpt lat="42.3978893738" lon="19.7717869934">
        <ele>776.40</ele>
        <time>2019-07-06T16:01:37Z</time>
      </trkpt>
      <trkpt lat="42.3977115098" lon="19.7719498537">
        <ele>774.48</ele>
        <time>2019-07-06T16:01:52Z</time>
      </trkpt>
      <trkpt lat="42.3975912295" lon="19.7720901668">
        <ele>773.04</ele>
        <time>2019-07-06T16:02:05Z</time>
      </trkpt>
      <trkpt lat="42.3975463025" lon="19.7721141391">
        <ele>772.08</ele>
        <time>2019-07-06T16:02:09Z</time>
      </trkpt>
      <trkpt lat="42.3973601405" lon="19.7722251993">
        <ele>770.15</ele>
        <time>2019-07-06T16:02:26Z</time>
      </trkpt>
      <trkpt lat="42.3972949293" lon="19.7722303122">
        <ele>769.67</ele>
        <time>2019-07-06T16:02:31Z</time>
      </trkpt>
      <trkpt lat="42.3972707056" lon="19.7722266242">
        <ele>769.67</ele>
        <time>2019-07-06T16:02:33Z</time>
      </trkpt>
      <trkpt lat="42.3970714677" lon="19.7722392809">
        <ele>767.75</ele>
        <time>2019-07-06T16:02:48Z</time>
      </trkpt>
      <trkpt lat="42.3968912568" lon="19.7722714674">
        <ele>765.83</ele>
        <time>2019-07-06T16:03:03Z</time>
      </trkpt>
      <trkpt lat="42.3967207689" lon="19.7723572981">
        <ele>764.39</ele>
        <time>2019-07-06T16:03:18Z</time>
      </trkpt>
      <trkpt lat="42.3966524564" lon="19.7723946813">
        <ele>763.42</ele>
        <time>2019-07-06T16:03:24Z</time>
      </trkpt>
      <trkpt lat="42.3966087867" lon="19.7726170532">
        <ele>762.94</ele>
        <time>2019-07-06T16:03:38Z</time>
      </trkpt>
      <trkpt lat="42.3965745885" lon="19.7728548478">
        <ele>762.46</ele>
        <time>2019-07-06T16:03:54Z</time>
      </trkpt>
      <trkpt lat="42.3965478502" lon="19.7729193047">
        <ele>762.46</ele>
        <time>2019-07-06T16:04:07Z</time>
      </trkpt>
      <trkpt lat="42.3965388816" lon="19.7729402594">
        <ele>762.46</ele>
        <time>2019-07-06T16:04:15Z</time>
      </trkpt>
      <trkpt lat="42.3964033462" lon="19.7730502300">
        <ele>761.02</ele>
        <time>2019-07-06T16:04:29Z</time>
      </trkpt>
      <trkpt lat="42.3963104747" lon="19.7730922233">
        <ele>760.54</ele>
        <time>2019-07-06T16:04:37Z</time>
      </trkpt>
      <trkpt lat="42.3962736782" lon="19.7731227335">
        <ele>760.06</ele>
        <time>2019-07-06T16:04:41Z</time>
      </trkpt>
      <trkpt lat="42.3961000051" lon="19.7732031159">
        <ele>758.62</ele>
        <time>2019-07-06T16:04:56Z</time>
      </trkpt>
      <trkpt lat="42.3959390726" lon="19.7732983343">
        <ele>757.66</ele>
        <time>2019-07-06T16:05:12Z</time>
      </trkpt>
      <trkpt lat="42.3958670720" lon="19.7733430937">
        <ele>757.18</ele>
        <time>2019-07-06T16:05:24Z</time>
      </trkpt>
      <trkpt lat="42.3958994262" lon="19.7733525652">
        <ele>757.18</ele>
        <time>2019-07-06T16:05:30Z</time>
      </trkpt>
      <trkpt lat="42.3960679024" lon="19.7734465264">
        <ele>756.69</ele>
        <time>2019-07-06T16:05:46Z</time>
      </trkpt>
      <trkpt lat="42.3962005880" lon="19.7735259868">
        <ele>756.69</ele>
        <time>2019-07-06T16:06:00Z</time>
      </trkpt>
      <trkpt lat="42.3962965608" lon="19.7736056149">
        <ele>756.69</ele>
        <time>2019-07-06T16:06:15Z</time>
      </trkpt>
      <trkpt lat="42.3962891009" lon="19.7736111470">
        <ele>756.69</ele>
        <time>2019-07-06T16:06:37Z</time>
      </trkpt>
      <trkpt lat="42.3962589260" lon="19.7736372985">
        <ele>756.21</ele>
        <time>2019-07-06T16:07:03Z</time>
      </trkpt>
      <trkpt lat="42.3962752707" lon="19.7736217920">
        <ele>756.21</ele>
        <time>2019-07-06T16:07:21Z</time>
      </trkpt>
      <trkpt lat="42.3963036016" lon="19.7736083809">
        <ele>757.18</ele>
        <time>2019-07-06T16:07:54Z</time>
      </trkpt>
      <trkpt lat="42.3962816410" lon="19.7736329399">
        <ele>757.18</ele>
        <time>2019-07-06T16:08:15Z</time>
      </trkpt>
      <trkpt lat="42.3962652124" lon="19.7736320179">
        <ele>757.18</ele>
        <time>2019-07-06T16:08:17Z</time>
      </trkpt>
      <trkpt lat="42.3961642105" lon="19.7736953013">
        <ele>757.18</ele>
        <time>2019-07-06T16:08:30Z</time>
      </trkpt>
      <trkpt lat="42.3961153440" lon="19.7737543937">
        <ele>755.73</ele>
        <time>2019-07-06T16:08:44Z</time>
      </trkpt>
      <trkpt lat="42.3961427528" lon="19.7737242188">
        <ele>755.73</ele>
        <time>2019-07-06T16:09:02Z</time>
      </trkpt>
      <trkpt lat="42.3961500451" lon="19.7736883443">
        <ele>755.73</ele>
        <time>2019-07-06T16:09:17Z</time>
      </trkpt>
      <trkpt lat="42.3961260729" lon="19.7737056110">
        <ele>755.73</ele>
        <time>2019-07-06T16:09:32Z</time>
      </trkpt>
      <trkpt lat="42.3961052019" lon="19.7737441678">
        <ele>755.25</ele>
        <time>2019-07-06T16:09:46Z</time>
      </trkpt>
      <trkpt lat="42.3961341195" lon="19.7737880889">
        <ele>754.77</ele>
        <time>2019-07-06T16:10:10Z</time>
      </trkpt>
      <trkpt lat="42.3961590137" lon="19.7737868316">
        <ele>754.29</ele>
        <time>2019-07-06T16:10:41Z</time>
      </trkpt>
      <trkpt lat="42.3961316887" lon="19.7737445869">
        <ele>754.29</ele>
        <time>2019-07-06T16:11:10Z</time>
      </trkpt>
      <trkpt lat="42.3961776216" lon="19.7737468500">
        <ele>754.29</ele>
        <time>2019-07-06T16:11:41Z</time>
      </trkpt>
      <trkpt lat="42.3961584270" lon="19.7737710737">
        <ele>754.29</ele>
        <time>2019-07-06T16:12:05Z</time>
      </trkpt>
      <trkpt lat="42.3961507156" lon="19.7737755999">
        <ele>755.73</ele>
        <time>2019-07-06T16:12:07Z</time>
      </trkpt>
      <trkpt lat="42.3961236421" lon="19.7737536393">
        <ele>755.25</ele>
        <time>2019-07-06T16:12:33Z</time>
      </trkpt>
      <trkpt lat="42.3962599318" lon="19.7731206380">
        <ele>738.91</ele>
        <time>2019-07-07T06:46:18Z</time>
      </trkpt>
      <trkpt lat="42.3962683138" lon="19.7731162794">
        <ele>738.91</ele>
        <time>2019-07-07T06:46:19Z</time>
      </trkpt>
      <trkpt lat="42.3964068666" lon="19.7730322089">
        <ele>740.35</ele>
        <time>2019-07-07T06:46:37Z</time>
      </trkpt>
      <trkpt lat="42.3964298330" lon="19.7730139364">
        <ele>740.35</ele>
        <time>2019-07-07T06:46:40Z</time>
      </trkpt>
      <trkpt lat="42.3965331819" lon="19.7728838492">
        <ele>741.79</ele>
        <time>2019-07-07T06:46:55Z</time>
      </trkpt>
      <trkpt lat="42.3965769354" lon="19.7727376688">
        <ele>741.79</ele>
        <time>2019-07-07T06:47:08Z</time>
      </trkpt>
      <trkpt lat="42.3966362793" lon="19.7725511715">
        <ele>742.28</ele>
        <time>2019-07-07T06:47:23Z</time>
      </trkpt>
      <trkpt lat="42.3966994788" lon="19.7723780014">
        <ele>743.24</ele>
        <time>2019-07-07T06:47:40Z</time>
      </trkpt>
      <trkpt lat="42.3967540450" lon="19.7723552864">
        <ele>743.72</ele>
        <time>2019-07-07T06:47:46Z</time>
      </trkpt>
      <trkpt lat="42.3967946973" lon="19.7723386902">
        <ele>744.20</ele>
        <time>2019-07-07T06:47:51Z</time>
      </trkpt>
      <trkpt lat="42.3969361000" lon="19.7722844593">
        <ele>745.16</ele>
        <time>2019-07-07T06:48:06Z</time>
      </trkpt>
      <trkpt lat="42.3970874771" lon="19.7722566314">
        <ele>747.08</ele>
        <time>2019-07-07T06:48:22Z</time>
      </trkpt>
      <trkpt lat="42.3971826117" lon="19.7722469922">
        <ele>748.04</ele>
        <time>2019-07-07T06:48:31Z</time>
      </trkpt>
      <trkpt lat="42.3973551951" lon="19.7722538654">
        <ele>749.49</ele>
        <time>2019-07-07T06:48:45Z</time>
      </trkpt>
      <trkpt lat="42.3974670935" lon="19.7722162306">
        <ele>749.97</ele>
        <time>2019-07-07T06:48:54Z</time>
      </trkpt>
      <trkpt lat="42.3974921554" lon="19.7721845470">
        <ele>750.45</ele>
        <time>2019-07-07T06:48:58Z</time>
      </trkpt>
      <trkpt lat="42.3976023775" lon="19.7720734868">
        <ele>751.89</ele>
        <time>2019-07-07T06:49:11Z</time>
      </trkpt>
      <trkpt lat="42.3977319617" lon="19.7719521169">
        <ele>753.33</ele>
        <time>2019-07-07T06:49:25Z</time>
      </trkpt>
      <trkpt lat="42.3978482187" lon="19.7718309145">
        <ele>754.77</ele>
        <time>2019-07-07T06:49:39Z</time>
      </trkpt>
      <trkpt lat="42.3979844246" lon="19.7717405576">
        <ele>756.69</ele>
        <time>2019-07-07T06:49:53Z</time>
      </trkpt>
      <trkpt lat="42.3981013522" lon="19.7716302518">
        <ele>757.18</ele>
        <time>2019-07-07T06:50:06Z</time>
      </trkpt>
      <trkpt lat="42.3981859256" lon="19.7714989912">
        <ele>759.10</ele>
        <time>2019-07-07T06:50:19Z</time>
      </trkpt>
      <trkpt lat="42.3982720077" lon="19.7713313531">
        <ele>761.02</ele>
        <time>2019-07-07T06:50:34Z</time>
      </trkpt>
      <trkpt lat="42.3983601853" lon="19.7711971588">
        <ele>761.50</ele>
        <time>2019-07-07T06:50:48Z</time>
      </trkpt>
      <trkpt lat="42.3984498717" lon="19.7711363062">
        <ele>762.46</ele>
        <time>2019-07-07T06:51:03Z</time>
      </trkpt>
      <trkpt lat="42.3985050246" lon="19.7710715979">
        <ele>762.94</ele>
        <time>2019-07-07T06:51:17Z</time>
      </trkpt>
      <trkpt lat="42.3985113110" lon="19.7710389085">
        <ele>762.94</ele>
        <time>2019-07-07T06:51:20Z</time>
      </trkpt>
      <trkpt lat="42.3985730018" lon="19.7708975896">
        <ele>764.39</ele>
        <time>2019-07-07T06:51:33Z</time>
      </trkpt>
      <trkpt lat="42.3986688070" lon="19.7708487231">
        <ele>766.31</ele>
        <time>2019-07-07T06:51:47Z</time>
      </trkpt>
      <trkpt lat="42.3987189308" lon="19.7708653193">
        <ele>767.27</ele>
        <time>2019-07-07T06:51:53Z</time>
      </trkpt>
      <trkpt lat="42.3987828847" lon="19.7709116712">
        <ele>767.27</ele>
        <time>2019-07-07T06:52:00Z</time>
      </trkpt>
      <trkpt lat="42.3989202641" lon="19.7708885372">
        <ele>769.19</ele>
        <time>2019-07-07T06:52:14Z</time>
      </trkpt>
      <trkpt lat="42.3990434781" lon="19.7707738727">
        <ele>770.15</ele>
        <time>2019-07-07T06:52:29Z</time>
      </trkpt>
      <trkpt lat="42.3991075158" lon="19.7707787342">
        <ele>770.63</ele>
        <time>2019-07-07T06:52:35Z</time>
      </trkpt>
      <trkpt lat="42.3992249463" lon="19.7708604578">
        <ele>772.08</ele>
        <time>2019-07-07T06:52:49Z</time>
      </trkpt>
      <trkpt lat="42.3993441369" lon="19.7709742840">
        <ele>773.52</ele>
        <time>2019-07-07T06:53:04Z</time>
      </trkpt>
      <trkpt lat="42.3994608130" lon="19.7709689196">
        <ele>774.96</ele>
        <time>2019-07-07T06:53:18Z</time>
      </trkpt>
      <trkpt lat="42.3995667603" lon="19.7709082346">
        <ele>777.36</ele>
        <time>2019-07-07T06:53:32Z</time>
      </trkpt>
      <trkpt lat="42.3996400181" lon="19.7709932271">
        <ele>779.29</ele>
        <time>2019-07-07T06:53:45Z</time>
      </trkpt>
      <trkpt lat="42.3997170478" lon="19.7710122541">
        <ele>779.77</ele>
        <time>2019-07-07T06:53:53Z</time>
      </trkpt>
      <trkpt lat="42.3998484761" lon="19.7709416784">
        <ele>781.69</ele>
        <time>2019-07-07T06:54:07Z</time>
      </trkpt>
      <trkpt lat="42.4000081513" lon="19.7708319593">
        <ele>782.17</ele>
        <time>2019-07-07T06:54:22Z</time>
      </trkpt>
      <trkpt lat="42.4001319520" lon="19.7707374115">
        <ele>783.61</ele>
        <time>2019-07-07T06:54:36Z</time>
      </trkpt>
      <trkpt lat="42.4002463650" lon="19.7705908120">
        <ele>784.57</ele>
        <time>2019-07-07T06:54:51Z</time>
      </trkpt>
      <trkpt lat="42.4003812298" lon="19.7705224156">
        <ele>785.53</ele>
        <time>2019-07-07T06:55:04Z</time>
      </trkpt>
      <trkpt lat="42.4005145859" lon="19.7705237567">
        <ele>786.98</ele>
        <time>2019-07-07T06:55:18Z</time>
      </trkpt>
      <trkpt lat="42.4005390611" lon="19.7705262713">
        <ele>787.46</ele>
        <time>2019-07-07T06:55:20Z</time>
      </trkpt>
      <trkpt lat="42.4005983211" lon="19.7705124412">
        <ele>787.94</ele>
        <time>2019-07-07T06:55:26Z</time>
      </trkpt>
      <trkpt lat="42.4007730838" lon="19.7704891395">
        <ele>788.42</ele>
        <time>2019-07-07T06:55:41Z</time>
      </trkpt>
      <trkpt lat="42.4008569028" lon="19.7704705317">
        <ele>788.42</ele>
        <time>2019-07-07T06:55:48Z</time>
      </trkpt>
      <trkpt lat="42.4009776860" lon="19.7703425400">
        <ele>789.38</ele>
        <time>2019-07-07T06:56:03Z</time>
      </trkpt>
      <trkpt lat="42.4010980502" lon="19.7702654265">
        <ele>790.82</ele>
        <time>2019-07-07T06:56:15Z</time>
      </trkpt>
      <trkpt lat="42.4012210965" lon="19.7702091839">
        <ele>790.82</ele>
        <time>2019-07-07T06:56:27Z</time>
      </trkpt>
      <trkpt lat="42.4013277981" lon="19.7702164762">
        <ele>791.78</ele>
        <time>2019-07-07T06:56:44Z</time>
      </trkpt>
      <trkpt lat="42.4013479985" lon="19.7702400293">
        <ele>792.74</ele>
        <time>2019-07-07T06:57:04Z</time>
      </trkpt>
      <trkpt lat="42.4013692047" lon="19.7702267021">
        <ele>793.22</ele>
        <time>2019-07-07T06:57:19Z</time>
      </trkpt>
      <trkpt lat="42.4014367629" lon="19.7702784184">
        <ele>795.15</ele>
        <time>2019-07-07T06:57:30Z</time>
      </trkpt>
      <trkpt lat="42.4015065841" lon="19.7703806777">
        <ele>798.03</ele>
        <time>2019-07-07T06:57:45Z</time>
      </trkpt>
      <trkpt lat="42.4015601445" lon="19.7704655025">
        <ele>799.47</ele>
        <time>2019-07-07T06:57:56Z</time>
      </trkpt>
      <trkpt lat="42.4016135372" lon="19.7705631517">
        <ele>801.40</ele>
        <time>2019-07-07T06:58:09Z</time>
      </trkpt>
      <trkpt lat="42.4017259385" lon="19.7705800831">
        <ele>803.32</ele>
        <time>2019-07-07T06:58:22Z</time>
      </trkpt>
      <trkpt lat="42.4018279463" lon="19.7705828492">
        <ele>804.28</ele>
        <time>2019-07-07T06:58:35Z</time>
      </trkpt>
      <trkpt lat="42.4019568600" lon="19.7705880459">
        <ele>805.72</ele>
        <time>2019-07-07T06:58:49Z</time>
      </trkpt>
      <trkpt lat="42.4020180479" lon="19.7704908159">
        <ele>807.16</ele>
        <time>2019-07-07T06:59:03Z</time>
      </trkpt>
      <trkpt lat="42.4020626396" lon="19.7705169674">
        <ele>809.57</ele>
        <time>2019-07-07T06:59:14Z</time>
      </trkpt>
      <trkpt lat="42.4021390826" lon="19.7706476413">
        <ele>811.01</ele>
        <time>2019-07-07T06:59:29Z</time>
      </trkpt>
      <trkpt lat="42.4021803215" lon="19.7707667481">
        <ele>812.45</ele>
        <time>2019-07-07T06:59:41Z</time>
      </trkpt>
      <trkpt lat="42.4021920562" lon="19.7708485555">
        <ele>813.41</ele>
        <time>2019-07-07T06:59:48Z</time>
      </trkpt>
      <trkpt lat="42.4022424314" lon="19.7709842585">
        <ele>814.85</ele>
        <time>2019-07-07T07:00:01Z</time>
      </trkpt>
      <trkpt lat="42.4022482987" lon="19.7711456101">
        <ele>816.30</ele>
        <time>2019-07-07T07:00:14Z</time>
      </trkpt>
      <trkpt lat="42.4022668228" lon="19.7712999210">
        <ele>817.74</ele>
        <time>2019-07-07T07:00:27Z</time>
      </trkpt>
      <trkpt lat="42.4022800662" lon="19.7714192793">
        <ele>819.18</ele>
        <time>2019-07-07T07:00:39Z</time>
      </trkpt>
      <trkpt lat="42.4023487139" lon="19.7714590933">
        <ele>821.58</ele>
        <time>2019-07-07T07:00:53Z</time>
      </trkpt>
      <trkpt lat="42.4024060462" lon="19.7715285793">
        <ele>822.55</ele>
        <time>2019-07-07T07:01:05Z</time>
      </trkpt>
      <trkpt lat="42.4024967384" lon="19.7716146614">
        <ele>825.43</ele>
        <time>2019-07-07T07:01:21Z</time>
      </trkpt>
      <trkpt lat="42.4025543220" lon="19.7717015818">
        <ele>826.87</ele>
        <time>2019-07-07T07:01:33Z</time>
      </trkpt>
      <trkpt lat="42.4026140012" lon="19.7718058527">
        <ele>827.83</ele>
        <time>2019-07-07T07:01:46Z</time>
      </trkpt>
      <trkpt lat="42.4026670586" lon="19.7719278932">
        <ele>830.24</ele>
        <time>2019-07-07T07:01:59Z</time>
      </trkpt>
      <trkpt lat="42.4027273245" lon="19.7720242850">
        <ele>831.20</ele>
        <time>2019-07-07T07:02:10Z</time>
      </trkpt>
      <trkpt lat="42.4027963914" lon="19.7720850538">
        <ele>832.64</ele>
        <time>2019-07-07T07:02:21Z</time>
      </trkpt>
      <trkpt lat="42.4028396420" lon="19.7721941024">
        <ele>834.56</ele>
        <time>2019-07-07T07:02:33Z</time>
      </trkpt>
      <trkpt lat="42.4029258080" lon="19.7722448967">
        <ele>836.00</ele>
        <time>2019-07-07T07:02:47Z</time>
      </trkpt>
      <trkpt lat="42.4030043464" lon="19.7723649256">
        <ele>837.93</ele>
        <time>2019-07-07T07:03:01Z</time>
      </trkpt>
      <trkpt lat="42.4030820467" lon="19.7724960186">
        <ele>838.89</ele>
        <time>2019-07-07T07:03:14Z</time>
      </trkpt>
      <trkpt lat="42.4031574838" lon="19.7725927457">
        <ele>839.85</ele>
        <time>2019-07-07T07:03:26Z</time>
      </trkpt>
      <trkpt lat="42.4032283109" lon="19.7726821806">
        <ele>841.29</ele>
        <time>2019-07-07T07:03:38Z</time>
      </trkpt>
      <trkpt lat="42.4033040833" lon="19.7727613896">
        <ele>842.73</ele>
        <time>2019-07-07T07:03:50Z</time>
      </trkpt>
      <trkpt lat="42.4033915065" lon="19.7728560213">
        <ele>844.18</ele>
        <time>2019-07-07T07:04:02Z</time>
      </trkpt>
      <trkpt lat="42.4034801032" lon="19.7729359847">
        <ele>844.66</ele>
        <time>2019-07-07T07:04:15Z</time>
      </trkpt>
      <trkpt lat="42.4035401177" lon="19.7730311193">
        <ele>847.06</ele>
        <time>2019-07-07T07:04:27Z</time>
      </trkpt>
      <trkpt lat="42.4036022276" lon="19.7731064726">
        <ele>848.02</ele>
        <time>2019-07-07T07:04:36Z</time>
      </trkpt>
      <trkpt lat="42.4036667682" lon="19.7732092347">
        <ele>849.94</ele>
        <time>2019-07-07T07:04:49Z</time>
      </trkpt>
      <trkpt lat="42.4037064984" lon="19.7733033635">
        <ele>851.38</ele>
        <time>2019-07-07T07:05:00Z</time>
      </trkpt>
      <trkpt lat="42.4037455581" lon="19.7734442633">
        <ele>853.31</ele>
        <time>2019-07-07T07:05:13Z</time>
      </trkpt>
      <trkpt lat="42.4038038123" lon="19.7735574190">
        <ele>854.75</ele>
        <time>2019-07-07T07:05:25Z</time>
      </trkpt>
      <trkpt lat="42.4038438778" lon="19.7736994922">
        <ele>856.67</ele>
        <time>2019-07-07T07:05:37Z</time>
      </trkpt>
      <trkpt lat="42.4038664252" lon="19.7738165036">
        <ele>858.59</ele>
        <time>2019-07-07T07:05:49Z</time>
      </trkpt>
      <trkpt lat="42.4039006233" lon="19.7739279829">
        <ele>860.52</ele>
        <time>2019-07-07T07:06:02Z</time>
      </trkpt>
      <trkpt lat="42.4039160460" lon="19.7740430664">
        <ele>861.96</ele>
        <time>2019-07-07T07:06:14Z</time>
      </trkpt>
      <trkpt lat="42.4039774854" lon="19.7741496004">
        <ele>864.36</ele>
        <time>2019-07-07T07:06:27Z</time>
      </trkpt>
      <trkpt lat="42.4039966799" lon="19.7741713095">
        <ele>864.36</ele>
        <time>2019-07-07T07:06:29Z</time>
      </trkpt>
      <trkpt lat="42.4040055647" lon="19.7741913423">
        <ele>864.84</ele>
        <time>2019-07-07T07:06:31Z</time>
      </trkpt>
      <trkpt lat="42.4040425289" lon="19.7742461599">
        <ele>865.32</ele>
        <time>2019-07-07T07:06:38Z</time>
      </trkpt>
      <trkpt lat="42.4041103385" lon="19.7743285540">
        <ele>867.25</ele>
        <time>2019-07-07T07:06:50Z</time>
      </trkpt>
      <trkpt lat="42.4041364063" lon="19.7743635904">
        <ele>867.25</ele>
        <time>2019-07-07T07:06:53Z</time>
      </trkpt>
      <trkpt lat="42.4041902181" lon="19.7745021433">
        <ele>869.17</ele>
        <time>2019-07-07T07:07:06Z</time>
      </trkpt>
      <trkpt lat="42.4041031301" lon="19.7746282909">
        <ele>870.13</ele>
        <time>2019-07-07T07:07:17Z</time>
      </trkpt>
      <trkpt lat="42.4039863702" lon="19.7747219168">
        <ele>870.61</ele>
        <time>2019-07-07T07:07:32Z</time>
      </trkpt>
      <trkpt lat="42.4039552733" lon="19.7747235093">
        <ele>871.09</ele>
        <time>2019-07-07T07:07:36Z</time>
      </trkpt>
      <trkpt lat="42.4038408604" lon="19.7747537680">
        <ele>873.01</ele>
        <time>2019-07-07T07:07:50Z</time>
      </trkpt>
      <trkpt lat="42.4037442170" lon="19.7748054005">
        <ele>873.98</ele>
        <time>2019-07-07T07:08:02Z</time>
      </trkpt>
      <trkpt lat="42.4036566261" lon="19.7748446278">
        <ele>875.42</ele>
        <time>2019-07-07T07:08:14Z</time>
      </trkpt>
      <trkpt lat="42.4035525229" lon="19.7748898063">
        <ele>876.86</ele>
        <time>2019-07-07T07:08:25Z</time>
      </trkpt>
      <trkpt lat="42.4034504313" lon="19.7749304585">
        <ele>878.78</ele>
        <time>2019-07-07T07:08:38Z</time>
      </trkpt>
      <trkpt lat="42.4033630081" lon="19.7749605495">
        <ele>880.22</ele>
        <time>2019-07-07T07:08:51Z</time>
      </trkpt>
      <trkpt lat="42.4033567216" lon="19.7749664169">
        <ele>880.71</ele>
        <time>2019-07-07T07:08:52Z</time>
      </trkpt>
      <trkpt lat="42.4032318313" lon="19.7750046384">
        <ele>882.63</ele>
        <time>2019-07-07T07:09:08Z</time>
      </trkpt>
      <trkpt lat="42.4031140655" lon="19.7749878746">
        <ele>884.55</ele>
        <time>2019-07-07T07:09:20Z</time>
      </trkpt>
      <trkpt lat="42.4030164164" lon="19.7749820910">
        <ele>885.51</ele>
        <time>2019-07-07T07:09:30Z</time>
      </trkpt>
      <trkpt lat="42.4029666279" lon="19.7750134394">
        <ele>886.47</ele>
        <time>2019-07-07T07:09:36Z</time>
      </trkpt>
      <trkpt lat="42.4029256403" lon="19.7750348970">
        <ele>886.47</ele>
        <time>2019-07-07T07:09:40Z</time>
      </trkpt>
      <trkpt lat="42.4028008338" lon="19.7751425207">
        <ele>888.40</ele>
        <time>2019-07-07T07:09:55Z</time>
      </trkpt>
      <trkpt lat="42.4026541505" lon="19.7751735337">
        <ele>889.36</ele>
        <time>2019-07-07T07:10:11Z</time>
      </trkpt>
      <trkpt lat="42.4025861733" lon="19.7751830891">
        <ele>890.80</ele>
        <time>2019-07-07T07:10:18Z</time>
      </trkpt>
      <trkpt lat="42.4025667273" lon="19.7751908842">
        <ele>890.80</ele>
        <time>2019-07-07T07:10:20Z</time>
      </trkpt>
      <trkpt lat="42.4024225585" lon="19.7752305306">
        <ele>891.76</ele>
        <time>2019-07-07T07:10:35Z</time>
      </trkpt>
      <trkpt lat="42.4024399091" lon="19.7753628809">
        <ele>893.68</ele>
        <time>2019-07-07T07:10:49Z</time>
      </trkpt>
      <trkpt lat="42.4024902843" lon="19.7753756214">
        <ele>895.12</ele>
        <time>2019-07-07T07:10:56Z</time>
      </trkpt>
      <trkpt lat="42.4026020151" lon="19.7753778845">
        <ele>897.05</ele>
        <time>2019-07-07T07:11:10Z</time>
      </trkpt>
      <trkpt lat="42.4026852474" lon="19.7753952350">
        <ele>898.97</ele>
        <time>2019-07-07T07:11:22Z</time>
      </trkpt>
      <trkpt lat="42.4027722515" lon="19.7754226439">
        <ele>900.41</ele>
        <time>2019-07-07T07:11:32Z</time>
      </trkpt>
      <trkpt lat="42.4028662127" lon="19.7754401620">
        <ele>901.85</ele>
        <time>2019-07-07T07:11:43Z</time>
      </trkpt>
      <trkpt lat="42.4029541388" lon="19.7754951473">
        <ele>903.30</ele>
        <time>2019-07-07T07:11:54Z</time>
      </trkpt>
      <trkpt lat="42.4030284863" lon="19.7755862586">
        <ele>904.74</ele>
        <time>2019-07-07T07:12:06Z</time>
      </trkpt>
      <trkpt lat="42.4031182565" lon="19.7756239772">
        <ele>906.18</ele>
        <time>2019-07-07T07:12:18Z</time>
      </trkpt>
      <trkpt lat="42.4032578152" lon="19.7755606938">
        <ele>908.10</ele>
        <time>2019-07-07T07:12:33Z</time>
      </trkpt>
      <trkpt lat="42.4033480883" lon="19.7755012661">
        <ele>910.03</ele>
        <time>2019-07-07T07:12:45Z</time>
      </trkpt>
      <trkpt lat="42.4034657702" lon="19.7754998412">
        <ele>911.47</ele>
        <time>2019-07-07T07:12:59Z</time>
      </trkpt>
      <trkpt lat="42.4035912473" lon="19.7755566705">
        <ele>913.39</ele>
        <time>2019-07-07T07:13:13Z</time>
      </trkpt>
      <trkpt lat="42.4036129564" lon="19.7756946366">
        <ele>914.83</ele>
        <time>2019-07-07T07:13:26Z</time>
      </trkpt>
      <trkpt lat="42.4035230186" lon="19.7757569142">
        <ele>916.27</ele>
        <time>2019-07-07T07:13:38Z</time>
      </trkpt>
      <trkpt lat="42.4033862259" lon="19.7757829819">
        <ele>917.72</ele>
        <time>2019-07-07T07:13:53Z</time>
      </trkpt>
      <trkpt lat="42.4033304863" lon="19.7758490313">
        <ele>918.68</ele>
        <time>2019-07-07T07:14:00Z</time>
      </trkpt>
      <trkpt lat="42.4033577275" lon="19.7759909369">
        <ele>920.60</ele>
        <time>2019-07-07T07:14:14Z</time>
      </trkpt>
      <trkpt lat="42.4034218490" lon="19.7760106344">
        <ele>921.56</ele>
        <time>2019-07-07T07:14:21Z</time>
      </trkpt>
      <trkpt lat="42.4035483319" lon="19.7760196030">
        <ele>922.52</ele>
        <time>2019-07-07T07:14:34Z</time>
      </trkpt>
      <trkpt lat="42.4036636669" lon="19.7759481054">
        <ele>924.45</ele>
        <time>2019-07-07T07:14:48Z</time>
      </trkpt>
      <trkpt lat="42.4037272856" lon="19.7759756818">
        <ele>924.93</ele>
        <time>2019-07-07T07:14:55Z</time>
      </trkpt>
      <trkpt lat="42.4037059955" lon="19.7761267237">
        <ele>927.33</ele>
        <time>2019-07-07T07:15:09Z</time>
      </trkpt>
      <trkpt lat="42.4037000444" lon="19.7761326749">
        <ele>927.33</ele>
        <time>2019-07-07T07:15:10Z</time>
      </trkpt>
      <trkpt lat="42.4036220927" lon="19.7762175836">
        <ele>929.73</ele>
        <time>2019-07-07T07:15:23Z</time>
      </trkpt>
      <trkpt lat="42.4035510141" lon="19.7763048392">
        <ele>931.17</ele>
        <time>2019-07-07T07:15:36Z</time>
      </trkpt>
      <trkpt lat="42.4034534488" lon="19.7763699666">
        <ele>933.10</ele>
        <time>2019-07-07T07:15:49Z</time>
      </trkpt>
      <trkpt lat="42.4033897463" lon="19.7764376085">
        <ele>935.02</ele>
        <time>2019-07-07T07:15:59Z</time>
      </trkpt>
      <trkpt lat="42.4033632595" lon="19.7764661908">
        <ele>935.50</ele>
        <time>2019-07-07T07:16:03Z</time>
      </trkpt>
      <trkpt lat="42.4032747466" lon="19.7765569668">
        <ele>937.42</ele>
        <time>2019-07-07T07:16:17Z</time>
      </trkpt>
      <trkpt lat="42.4031498563" lon="19.7765710484">
        <ele>938.86</ele>
        <time>2019-07-07T07:16:31Z</time>
      </trkpt>
      <trkpt lat="42.4030251335" lon="19.7765153926">
        <ele>941.27</ele>
        <time>2019-07-07T07:16:47Z</time>
      </trkpt>
      <trkpt lat="42.4029336032" lon="19.7765036579">
        <ele>943.19</ele>
        <time>2019-07-07T07:16:59Z</time>
      </trkpt>
      <trkpt lat="42.4028488621" lon="19.7765499260">
        <ele>944.15</ele>
        <time>2019-07-07T07:17:11Z</time>
      </trkpt>
      <trkpt lat="42.4027424119" lon="19.7765886504">
        <ele>946.56</ele>
        <time>2019-07-07T07:17:25Z</time>
      </trkpt>
      <trkpt lat="42.4026395660" lon="19.7766161431">
        <ele>948.96</ele>
        <time>2019-07-07T07:17:41Z</time>
      </trkpt>
      <trkpt lat="42.4025442638" lon="19.7765998822">
        <ele>950.40</ele>
        <time>2019-07-07T07:17:53Z</time>
      </trkpt>
      <trkpt lat="42.4024441000" lon="19.7765888181">
        <ele>952.32</ele>
        <time>2019-07-07T07:18:07Z</time>
      </trkpt>
      <trkpt lat="42.4023669027" lon="19.7765779216">
        <ele>954.73</ele>
        <time>2019-07-07T07:18:19Z</time>
      </trkpt>
      <trkpt lat="42.4022964109" lon="19.7766452283">
        <ele>955.69</ele>
        <time>2019-07-07T07:18:32Z</time>
      </trkpt>
      <trkpt lat="42.4023540784" lon="19.7767091822">
        <ele>958.09</ele>
        <time>2019-07-07T07:18:46Z</time>
      </trkpt>
      <trkpt lat="42.4024127517" lon="19.7767513432">
        <ele>960.01</ele>
        <time>2019-07-07T07:18:59Z</time>
      </trkpt>
      <trkpt lat="42.4024382327" lon="19.7768112738">
        <ele>962.42</ele>
        <time>2019-07-07T07:19:11Z</time>
      </trkpt>
      <trkpt lat="42.4024722632" lon="19.7768702824">
        <ele>964.34</ele>
        <time>2019-07-07T07:19:24Z</time>
      </trkpt>
      <trkpt lat="42.4024889432" lon="19.7769265249">
        <ele>966.26</ele>
        <time>2019-07-07T07:19:36Z</time>
      </trkpt>
      <trkpt lat="42.4025559984" lon="19.7769712005">
        <ele>968.67</ele>
        <time>2019-07-07T07:19:48Z</time>
      </trkpt>
      <trkpt lat="42.4025338702" lon="19.7770425305">
        <ele>971.07</ele>
        <time>2019-07-07T07:20:02Z</time>
      </trkpt>
      <trkpt lat="42.4025790486" lon="19.7770768963">
        <ele>972.51</ele>
        <time>2019-07-07T07:20:14Z</time>
      </trkpt>
      <trkpt lat="42.4025787134" lon="19.7771407664">
        <ele>974.43</ele>
        <time>2019-07-07T07:20:27Z</time>
      </trkpt>
      <trkpt lat="42.4026230536" lon="19.7771952488">
        <ele>976.84</ele>
        <time>2019-07-07T07:20:39Z</time>
      </trkpt>
      <trkpt lat="42.4026223831" lon="19.7772600409">
        <ele>978.76</ele>
        <time>2019-07-07T07:20:50Z</time>
      </trkpt>
      <trkpt lat="42.4026507139" lon="19.7773399204">
        <ele>981.16</ele>
        <time>2019-07-07T07:21:05Z</time>
      </trkpt>
      <trkpt lat="42.4026585929" lon="19.7774158604">
        <ele>984.05</ele>
        <time>2019-07-07T07:21:19Z</time>
      </trkpt>
      <trkpt lat="42.4026456848" lon="19.7774683312">
        <ele>985.97</ele>
        <time>2019-07-07T07:21:30Z</time>
      </trkpt>
      <trkpt lat="42.4026349559" lon="19.7775530722">
        <ele>987.89</ele>
        <time>2019-07-07T07:21:43Z</time>
      </trkpt>
      <trkpt lat="42.4026903603" lon="19.7775820736">
        <ele>989.81</ele>
        <time>2019-07-07T07:21:55Z</time>
      </trkpt>
      <trkpt lat="42.4027408194" lon="19.7776222229">
        <ele>992.22</ele>
        <time>2019-07-07T07:22:09Z</time>
      </trkpt>
      <trkpt lat="42.4027621094" lon="19.7776813153">
        <ele>993.66</ele>
        <time>2019-07-07T07:22:21Z</time>
      </trkpt>
      <trkpt lat="42.4027941283" lon="19.7777335346">
        <ele>996.06</ele>
        <time>2019-07-07T07:22:33Z</time>
      </trkpt>
      <trkpt lat="42.4028280750" lon="19.7778420802">
        <ele>998.47</ele>
        <time>2019-07-07T07:22:50Z</time>
      </trkpt>
      <trkpt lat="42.4028655421" lon="19.7779216245">
        <ele>1000.87</ele>
        <time>2019-07-07T07:23:03Z</time>
      </trkpt>
      <trkpt lat="42.4028985668" lon="19.7780097183">
        <ele>1003.27</ele>
        <time>2019-07-07T07:23:16Z</time>
      </trkpt>
      <trkpt lat="42.4029479362" lon="19.7780955490">
        <ele>1006.16</ele>
        <time>2019-07-07T07:23:33Z</time>
      </trkpt>
      <trkpt lat="42.4029785302" lon="19.7781829722">
        <ele>1008.56</ele>
        <time>2019-07-07T07:23:47Z</time>
      </trkpt>
      <trkpt lat="42.4029873312" lon="19.7782495245">
        <ele>1010.48</ele>
        <time>2019-07-07T07:23:59Z</time>
      </trkpt>
      <trkpt lat="42.4029470980" lon="19.7783452459">
        <ele>1013.37</ele>
        <time>2019-07-07T07:24:15Z</time>
      </trkpt>
      <trkpt lat="42.4029976409" lon="19.7783906758">
        <ele>1015.29</ele>
        <time>2019-07-07T07:24:28Z</time>
      </trkpt>
      <trkpt lat="42.4030050170" lon="19.7784745786">
        <ele>1018.17</ele>
        <time>2019-07-07T07:24:41Z</time>
      </trkpt>
      <trkpt lat="42.4029878341" lon="19.7786063422">
        <ele>1020.58</ele>
        <time>2019-07-07T07:24:56Z</time>
      </trkpt>
      <trkpt lat="42.4029695615" lon="19.7787184920">
        <ele>1022.50</ele>
        <time>2019-07-07T07:25:10Z</time>
      </trkpt>
      <trkpt lat="42.4029846489" lon="19.7788140457">
        <ele>1024.90</ele>
        <time>2019-07-07T07:25:22Z</time>
      </trkpt>
      <trkpt lat="42.4030584935" lon="19.7788329888">
        <ele>1027.31</ele>
        <time>2019-07-07T07:25:36Z</time>
      </trkpt>
      <trkpt lat="42.4031164125" lon="19.7788656782">
        <ele>1030.19</ele>
        <time>2019-07-07T07:25:50Z</time>
      </trkpt>
      <trkpt lat="42.4031201843" lon="19.7789403610">
        <ele>1032.11</ele>
        <time>2019-07-07T07:26:04Z</time>
      </trkpt>
      <trkpt lat="42.4032075237" lon="19.7789562866">
        <ele>1034.52</ele>
        <time>2019-07-07T07:26:18Z</time>
      </trkpt>
      <trkpt lat="42.4032608327" lon="19.7790201567">
        <ele>1036.92</ele>
        <time>2019-07-07T07:26:32Z</time>
      </trkpt>
      <trkpt lat="42.4032895826" lon="19.7791190632">
        <ele>1038.84</ele>
        <time>2019-07-07T07:26:44Z</time>
      </trkpt>
      <trkpt lat="42.4032366090" lon="19.7791836876">
        <ele>1042.21</ele>
        <time>2019-07-07T07:26:58Z</time>
      </trkpt>
      <trkpt lat="42.4031950347" lon="19.7792423610">
        <ele>1043.65</ele>
        <time>2019-07-07T07:27:11Z</time>
      </trkpt>
      <trkpt lat="42.4031524546" lon="19.7793113440">
        <ele>1046.53</ele>
        <time>2019-07-07T07:27:25Z</time>
      </trkpt>
      <trkpt lat="42.4031668715" lon="19.7794102505">
        <ele>1048.94</ele>
        <time>2019-07-07T07:27:39Z</time>
      </trkpt>
      <trkpt lat="42.4031769298" lon="19.7794665769">
        <ele>1050.38</ele>
        <time>2019-07-07T07:27:52Z</time>
      </trkpt>
      <trkpt lat="42.4031814560" lon="19.7795630526">
        <ele>1053.26</ele>
        <time>2019-07-07T07:28:09Z</time>
      </trkpt>
      <trkpt lat="42.4031150714" lon="19.7796052974">
        <ele>1055.67</ele>
        <time>2019-07-07T07:28:25Z</time>
      </trkpt>
      <trkpt lat="42.4031295720" lon="19.7796837520">
        <ele>1058.07</ele>
        <time>2019-07-07T07:28:39Z</time>
      </trkpt>
      <trkpt lat="42.4031066056" lon="19.7797792219">
        <ele>1059.99</ele>
        <time>2019-07-07T07:28:52Z</time>
      </trkpt>
      <trkpt lat="42.4031787738" lon="19.7798425891">
        <ele>1062.39</ele>
        <time>2019-07-07T07:29:07Z</time>
      </trkpt>
      <trkpt lat="42.4032265507" lon="19.7798785474">
        <ele>1064.80</ele>
        <time>2019-07-07T07:29:18Z</time>
      </trkpt>
      <trkpt lat="42.4031594954" lon="19.7799549066">
        <ele>1067.20</ele>
        <time>2019-07-07T07:29:32Z</time>
      </trkpt>
      <trkpt lat="42.4031158257" lon="19.7800207883">
        <ele>1069.12</ele>
        <time>2019-07-07T07:29:44Z</time>
      </trkpt>
      <trkpt lat="42.4031007383" lon="19.7801143304">
        <ele>1071.05</ele>
        <time>2019-07-07T07:29:59Z</time>
      </trkpt>
      <trkpt lat="42.4031028338" lon="19.7801870853">
        <ele>1073.93</ele>
        <time>2019-07-07T07:30:12Z</time>
      </trkpt>
      <trkpt lat="42.4030976370" lon="19.7802861594">
        <ele>1076.33</ele>
        <time>2019-07-07T07:30:27Z</time>
      </trkpt>
      <trkpt lat="42.4030939490" lon="19.7803724092">
        <ele>1078.74</ele>
        <time>2019-07-07T07:30:43Z</time>
      </trkpt>
      <trkpt lat="42.4030758440" lon="19.7804468405">
        <ele>1080.66</ele>
        <time>2019-07-07T07:30:54Z</time>
      </trkpt>
      <trkpt lat="42.4030281510" lon="19.7805211879">
        <ele>1083.06</ele>
        <time>2019-07-07T07:31:09Z</time>
      </trkpt>
      <trkpt lat="42.4030164164" lon="19.7805881593">
        <ele>1085.47</ele>
        <time>2019-07-07T07:31:19Z</time>
      </trkpt>
      <trkpt lat="42.4029713217" lon="19.7806704696">
        <ele>1087.39</ele>
        <time>2019-07-07T07:31:33Z</time>
      </trkpt>
      <trkpt lat="42.4028911907" lon="19.7808421310">
        <ele>1089.31</ele>
        <time>2019-07-07T07:31:50Z</time>
      </trkpt>
      <trkpt lat="42.4028414860" lon="19.7809778340">
        <ele>1090.27</ele>
        <time>2019-07-07T07:32:02Z</time>
      </trkpt>
      <trkpt lat="42.4028158374" lon="19.7811091784">
        <ele>1092.20</ele>
        <time>2019-07-07T07:32:18Z</time>
      </trkpt>
      <trkpt lat="42.4028176814" lon="19.7811210807">
        <ele>1090.75</ele>
        <time>2019-07-07T07:32:30Z</time>
      </trkpt>
      <trkpt lat="42.4028380495" lon="19.7811826039">
        <ele>1090.75</ele>
        <time>2019-07-07T07:33:02Z</time>
      </trkpt>
      <trkpt lat="42.4027569126" lon="19.7812038939">
        <ele>1090.75</ele>
        <time>2019-07-07T07:33:29Z</time>
      </trkpt>
      <trkpt lat="42.4027463514" lon="19.7811782453">
        <ele>1090.75</ele>
        <time>2019-07-07T07:33:58Z</time>
      </trkpt>
      <trkpt lat="42.4027863331" lon="19.7812409420">
        <ele>1090.75</ele>
        <time>2019-07-07T07:34:34Z</time>
      </trkpt>
      <trkpt lat="42.4027385563" lon="19.7811518423">
        <ele>1090.75</ele>
        <time>2019-07-07T07:34:59Z</time>
      </trkpt>
      <trkpt lat="42.4027457647" lon="19.7811745573">
        <ele>1090.75</ele>
        <time>2019-07-07T07:35:05Z</time>
      </trkpt>
      <trkpt lat="42.4027233012" lon="19.7811795026">
        <ele>1092.20</ele>
        <time>2019-07-07T07:38:00Z</time>
      </trkpt>
      <trkpt lat="42.4027236365" lon="19.7811783291">
        <ele>1092.20</ele>
        <time>2019-07-07T07:38:01Z</time>
      </trkpt>
      <trkpt lat="42.4027168471" lon="19.7811596375">
        <ele>1092.68</ele>
        <time>2019-07-07T07:38:34Z</time>
      </trkpt>
      <trkpt lat="42.4027371313" lon="19.7811418679">
        <ele>1092.68</ele>
        <time>2019-07-07T07:38:56Z</time>
      </trkpt>
      <trkpt lat="42.4027411547" lon="19.7811235115">
        <ele>1093.16</ele>
        <time>2019-07-07T07:39:17Z</time>
      </trkpt>
      <trkpt lat="42.4027327728" lon="19.7811373416">
        <ele>1093.64</ele>
        <time>2019-07-07T07:39:37Z</time>
      </trkpt>
      <trkpt lat="42.4027122371" lon="19.7812831867">
        <ele>1094.60</ele>
        <time>2019-07-07T07:39:53Z</time>
      </trkpt>
      <trkpt lat="42.4026947189" lon="19.7813981865">
        <ele>1096.52</ele>
        <time>2019-07-07T07:40:05Z</time>
      </trkpt>
      <trkpt lat="42.4026652146" lon="19.7814844362">
        <ele>1097.96</ele>
        <time>2019-07-07T07:40:18Z</time>
      </trkpt>
      <trkpt lat="42.4026552401" lon="19.7815979272">
        <ele>1100.37</ele>
        <time>2019-07-07T07:40:32Z</time>
      </trkpt>
      <trkpt lat="42.4026288372" lon="19.7816552594">
        <ele>1102.29</ele>
        <time>2019-07-07T07:40:45Z</time>
      </trkpt>
      <trkpt lat="42.4026145879" lon="19.7817136813">
        <ele>1104.69</ele>
        <time>2019-07-07T07:40:57Z</time>
      </trkpt>
      <trkpt lat="42.4025429226" lon="19.7817540821">
        <ele>1106.13</ele>
        <time>2019-07-07T07:41:11Z</time>
      </trkpt>
      <trkpt lat="42.4025057908" lon="19.7818226460">
        <ele>1109.02</ele>
        <time>2019-07-07T07:41:23Z</time>
      </trkpt>
      <trkpt lat="42.4025140051" lon="19.7819715086">
        <ele>1110.46</ele>
        <time>2019-07-07T07:41:37Z</time>
      </trkpt>
      <trkpt lat="42.4024762865" lon="19.7820865922">
        <ele>1111.42</ele>
        <time>2019-07-07T07:41:48Z</time>
      </trkpt>
      <trkpt lat="42.4024593551" lon="19.7822480276">
        <ele>1113.82</ele>
        <time>2019-07-07T07:42:03Z</time>
      </trkpt>
      <trkpt lat="42.4024106562" lon="19.7823416535">
        <ele>1114.79</ele>
        <time>2019-07-07T07:42:14Z</time>
      </trkpt>
      <trkpt lat="42.4023352191" lon="19.7824681364">
        <ele>1117.19</ele>
        <time>2019-07-07T07:42:31Z</time>
      </trkpt>
      <trkpt lat="42.4022587761" lon="19.7825304978">
        <ele>1119.59</ele>
        <time>2019-07-07T07:42:43Z</time>
      </trkpt>
      <trkpt lat="42.4021491408" lon="19.7825408075">
        <ele>1122.00</ele>
        <time>2019-07-07T07:42:56Z</time>
      </trkpt>
      <trkpt lat="42.4020468816" lon="19.7825110517">
        <ele>1123.92</ele>
        <time>2019-07-07T07:43:10Z</time>
      </trkpt>
      <trkpt lat="42.4019955005" lon="19.7826003190">
        <ele>1126.80</ele>
        <time>2019-07-07T07:43:24Z</time>
      </trkpt>
      <trkpt lat="42.4019296188" lon="19.7826698888">
        <ele>1129.21</ele>
        <time>2019-07-07T07:43:38Z</time>
      </trkpt>
      <trkpt lat="42.4019301217" lon="19.7827537078">
        <ele>1130.65</ele>
        <time>2019-07-07T07:43:51Z</time>
      </trkpt>
      <trkpt lat="42.4019593745" lon="19.7827665322">
        <ele>1131.61</ele>
        <time>2019-07-07T07:43:55Z</time>
      </trkpt>
      <trkpt lat="42.4019835144" lon="19.7828407120">
        <ele>1134.01</ele>
        <time>2019-07-07T07:44:08Z</time>
      </trkpt>
      <trkpt lat="42.4019649066" lon="19.7829474974">
        <ele>1136.42</ele>
        <time>2019-07-07T07:44:23Z</time>
      </trkpt>
      <trkpt lat="42.4019864481" lon="19.7829909157">
        <ele>1138.34</ele>
        <time>2019-07-07T07:44:31Z</time>
      </trkpt>
      <trkpt lat="42.4019909743" lon="19.7830904089">
        <ele>1140.26</ele>
        <time>2019-07-07T07:44:47Z</time>
      </trkpt>
      <trkpt lat="42.4019163754" lon="19.7830626648">
        <ele>1142.18</ele>
        <time>2019-07-07T07:44:59Z</time>
      </trkpt>
      <trkpt lat="42.4018204026" lon="19.7830523551">
        <ele>1144.59</ele>
        <time>2019-07-07T07:45:14Z</time>
      </trkpt>
      <trkpt lat="42.4018336460" lon="19.7831998765">
        <ele>1147.47</ele>
        <time>2019-07-07T07:45:28Z</time>
      </trkpt>
      <trkpt lat="42.4018775672" lon="19.7832898144">
        <ele>1149.39</ele>
        <time>2019-07-07T07:45:39Z</time>
      </trkpt>
      <trkpt lat="42.4018897209" lon="19.7833583783">
        <ele>1150.84</ele>
        <time>2019-07-07T07:45:50Z</time>
      </trkpt>
      <trkpt lat="42.4018710293" lon="19.7834102623">
        <ele>1153.24</ele>
        <time>2019-07-07T07:46:03Z</time>
      </trkpt>
      <trkpt lat="42.4018452130" lon="19.7834852803">
        <ele>1155.64</ele>
        <time>2019-07-07T07:46:13Z</time>
      </trkpt>
      <trkpt lat="42.4017725419" lon="19.7835764755">
        <ele>1158.53</ele>
        <time>2019-07-07T07:46:27Z</time>
      </trkpt>
      <trkpt lat="42.4017107673" lon="19.7835250944">
        <ele>1160.45</ele>
        <time>2019-07-07T07:46:39Z</time>
      </trkpt>
      <trkpt lat="42.4016467296" lon="19.7835488152">
        <ele>1162.85</ele>
        <time>2019-07-07T07:46:53Z</time>
      </trkpt>
      <trkpt lat="42.4015839491" lon="19.7835931554">
        <ele>1164.77</ele>
        <time>2019-07-07T07:47:05Z</time>
      </trkpt>
      <trkpt lat="42.4015746452" lon="19.7837098315">
        <ele>1167.66</ele>
        <time>2019-07-07T07:47:19Z</time>
      </trkpt>
      <trkpt lat="42.4015518464" lon="19.7837524116">
        <ele>1168.62</ele>
        <time>2019-07-07T07:47:27Z</time>
      </trkpt>
      <trkpt lat="42.4014786724" lon="19.7837190516">
        <ele>1171.50</ele>
        <time>2019-07-07T07:47:41Z</time>
      </trkpt>
      <trkpt lat="42.4014058337" lon="19.7836959176">
        <ele>1173.43</ele>
        <time>2019-07-07T07:47:55Z</time>
      </trkpt>
      <trkpt lat="42.4013381079" lon="19.7836999409">
        <ele>1175.35</ele>
        <time>2019-07-07T07:48:07Z</time>
      </trkpt>
      <trkpt lat="42.4012198392" lon="19.7836660780">
        <ele>1177.27</ele>
        <time>2019-07-07T07:48:23Z</time>
      </trkpt>
      <trkpt lat="42.4012284726" lon="19.7837846819">
        <ele>1179.67</ele>
        <time>2019-07-07T07:48:34Z</time>
      </trkpt>
      <trkpt lat="42.4012259580" lon="19.7838565987">
        <ele>1180.64</ele>
        <time>2019-07-07T07:48:42Z</time>
      </trkpt>
      <trkpt lat="42.4011442345" lon="19.7839098237">
        <ele>1182.08</ele>
        <time>2019-07-07T07:48:52Z</time>
      </trkpt>
      <trkpt lat="42.4010861479" lon="19.7839632165">
        <ele>1184.00</ele>
        <time>2019-07-07T07:49:03Z</time>
      </trkpt>
      <trkpt lat="42.4009976350" lon="19.7839881107">
        <ele>1185.92</ele>
        <time>2019-07-07T07:49:15Z</time>
      </trkpt>
      <trkpt lat="42.4009503610" lon="19.7840625420">
        <ele>1187.85</ele>
        <time>2019-07-07T07:49:26Z</time>
      </trkpt>
      <trkpt lat="42.4009989761" lon="19.7841572575">
        <ele>1189.77</ele>
        <time>2019-07-07T07:49:39Z</time>
      </trkpt>
      <trkpt lat="42.4010309111" lon="19.7842689045">
        <ele>1191.69</ele>
        <time>2019-07-07T07:49:51Z</time>
      </trkpt>
      <trkpt lat="42.4010482617" lon="19.7843680624">
        <ele>1194.09</ele>
        <time>2019-07-07T07:50:07Z</time>
      </trkpt>
      <trkpt lat="42.4009817094" lon="19.7844154201">
        <ele>1196.02</ele>
        <time>2019-07-07T07:50:19Z</time>
      </trkpt>
      <trkpt lat="42.4009144027" lon="19.7844431642">
        <ele>1198.42</ele>
        <time>2019-07-07T07:50:31Z</time>
      </trkpt>
      <trkpt lat="42.4008824676" lon="19.7844846547">
        <ele>1200.34</ele>
        <time>2019-07-07T07:50:43Z</time>
      </trkpt>
      <trkpt lat="42.4008810427" lon="19.7845548950">
        <ele>1202.75</ele>
        <time>2019-07-07T07:50:55Z</time>
      </trkpt>
      <trkpt lat="42.4007896800" lon="19.7845616005">
        <ele>1205.15</ele>
        <time>2019-07-07T07:51:09Z</time>
      </trkpt>
      <trkpt lat="42.4007264804" lon="19.7845155001">
        <ele>1207.55</ele>
        <time>2019-07-07T07:51:22Z</time>
      </trkpt>
      <trkpt lat="42.4006597605" lon="19.7845340241">
        <ele>1209.48</ele>
        <time>2019-07-07T07:51:35Z</time>
      </trkpt>
      <trkpt lat="42.4006084632" lon="19.7844968922">
        <ele>1211.88</ele>
        <time>2019-07-07T07:51:48Z</time>
      </trkpt>
      <trkpt lat="42.4005572498" lon="19.7844739258">
        <ele>1214.28</ele>
        <time>2019-07-07T07:52:00Z</time>
      </trkpt>
      <trkpt lat="42.4004857522" lon="19.7844775300">
        <ele>1215.24</ele>
        <time>2019-07-07T07:52:10Z</time>
      </trkpt>
      <trkpt lat="42.4004664738" lon="19.7844512947">
        <ele>1216.21</ele>
        <time>2019-07-07T07:52:36Z</time>
      </trkpt>
      <trkpt lat="42.4004289228" lon="19.7844826430">
        <ele>1217.17</ele>
        <time>2019-07-07T07:52:51Z</time>
      </trkpt>
      <trkpt lat="42.4003482889" lon="19.7845479380">
        <ele>1219.57</ele>
        <time>2019-07-07T07:53:04Z</time>
      </trkpt>
      <trkpt lat="42.4003053736" lon="19.7846491076">
        <ele>1221.01</ele>
        <time>2019-07-07T07:53:15Z</time>
      </trkpt>
      <trkpt lat="42.4002735224" lon="19.7847522888">
        <ele>1222.45</ele>
        <time>2019-07-07T07:53:26Z</time>
      </trkpt>
      <trkpt lat="42.4002579320" lon="19.7848814540">
        <ele>1224.86</ele>
        <time>2019-07-07T07:53:41Z</time>
      </trkpt>
      <trkpt lat="42.4002503045" lon="19.7850206774">
        <ele>1226.78</ele>
        <time>2019-07-07T07:53:55Z</time>
      </trkpt>
      <trkpt lat="42.4002357200" lon="19.7851313185">
        <ele>1228.70</ele>
        <time>2019-07-07T07:54:09Z</time>
      </trkpt>
      <trkpt lat="42.4002466165" lon="19.7852741461">
        <ele>1230.62</ele>
        <time>2019-07-07T07:54:23Z</time>
      </trkpt>
      <trkpt lat="42.4002489634" lon="19.7854381800">
        <ele>1233.03</ele>
        <time>2019-07-07T07:54:37Z</time>
      </trkpt>
      <trkpt lat="42.4002575967" lon="19.7855421994">
        <ele>1234.95</ele>
        <time>2019-07-07T07:54:47Z</time>
      </trkpt>
      <trkpt lat="42.4002605304" lon="19.7856560256">
        <ele>1236.39</ele>
        <time>2019-07-07T07:54:57Z</time>
      </trkpt>
      <trkpt lat="42.4002505559" lon="19.7857411858">
        <ele>1237.35</ele>
        <time>2019-07-07T07:55:04Z</time>
      </trkpt>
      <trkpt lat="42.4002427608" lon="19.7858914733">
        <ele>1239.28</ele>
        <time>2019-07-07T07:55:16Z</time>
      </trkpt>
      <trkpt lat="42.4002228118" lon="19.7860898729">
        <ele>1239.28</ele>
        <time>2019-07-07T07:55:30Z</time>
      </trkpt>
      <trkpt lat="42.4002290145" lon="19.7861693334">
        <ele>1239.28</ele>
        <time>2019-07-07T07:55:45Z</time>
      </trkpt>
      <trkpt lat="42.4002850894" lon="19.7861846723">
        <ele>1240.24</ele>
        <time>2019-07-07T07:56:03Z</time>
      </trkpt>
      <trkpt lat="42.4003664777" lon="19.7861691657">
        <ele>1242.64</ele>
        <time>2019-07-07T07:56:13Z</time>
      </trkpt>
      <trkpt lat="42.4003927968" lon="19.7861580178">
        <ele>1242.64</ele>
        <time>2019-07-07T07:56:17Z</time>
      </trkpt>
      <trkpt lat="42.4004433397" lon="19.7861763742">
        <ele>1243.60</ele>
        <time>2019-07-07T07:56:23Z</time>
      </trkpt>
      <trkpt lat="42.4005002528" lon="19.7862668987">
        <ele>1245.53</ele>
        <time>2019-07-07T07:56:35Z</time>
      </trkpt>
      <trkpt lat="42.4005198665" lon="19.7863275837">
        <ele>1246.97</ele>
        <time>2019-07-07T07:56:42Z</time>
      </trkpt>
      <trkpt lat="42.4005378876" lon="19.7863510530">
        <ele>1247.93</ele>
        <time>2019-07-07T07:56:45Z</time>
      </trkpt>
      <trkpt lat="42.4006382190" lon="19.7864194494">
        <ele>1248.89</ele>
        <time>2019-07-07T07:56:58Z</time>
      </trkpt>
      <trkpt lat="42.4006995745" lon="19.7864533961">
        <ele>1250.33</ele>
        <time>2019-07-07T07:57:07Z</time>
      </trkpt>
      <trkpt lat="42.4008045997" lon="19.7864892706">
        <ele>1252.74</ele>
        <time>2019-07-07T07:57:21Z</time>
      </trkpt>
      <trkpt lat="42.4008730799" lon="19.7865211219">
        <ele>1255.14</ele>
        <time>2019-07-07T07:57:35Z</time>
      </trkpt>
      <trkpt lat="42.4008972198" lon="19.7865865845">
        <ele>1257.06</ele>
        <time>2019-07-07T07:57:43Z</time>
      </trkpt>
      <trkpt lat="42.4009090383" lon="19.7866414022">
        <ele>1257.54</ele>
        <time>2019-07-07T07:57:49Z</time>
      </trkpt>
      <trkpt lat="42.4009293225" lon="19.7867420688">
        <ele>1259.46</ele>
        <time>2019-07-07T07:57:58Z</time>
      </trkpt>
      <trkpt lat="42.4010023288" lon="19.7868524585">
        <ele>1261.39</ele>
        <time>2019-07-07T07:58:11Z</time>
      </trkpt>
      <trkpt lat="42.4010164943" lon="19.7868750896">
        <ele>1261.39</ele>
        <time>2019-07-07T07:58:14Z</time>
      </trkpt>
      <trkpt lat="42.4010253791" lon="19.7869106289">
        <ele>1261.87</ele>
        <time>2019-07-07T07:58:18Z</time>
      </trkpt>
      <trkpt lat="42.4010427296" lon="19.7870142292">
        <ele>1263.79</ele>
        <time>2019-07-07T07:58:30Z</time>
      </trkpt>
      <trkpt lat="42.4010597449" lon="19.7871083580">
        <ele>1266.19</ele>
        <time>2019-07-07T07:58:42Z</time>
      </trkpt>
      <trkpt lat="42.4010692164" lon="19.7872096114">
        <ele>1268.60</ele>
        <time>2019-07-07T07:58:52Z</time>
      </trkpt>
      <trkpt lat="42.4010570627" lon="19.7872728948">
        <ele>1269.56</ele>
        <time>2019-07-07T07:59:00Z</time>
      </trkpt>
      <trkpt lat="42.4010445736" lon="19.7873752378">
        <ele>1271.48</ele>
        <time>2019-07-07T07:59:11Z</time>
      </trkpt>
      <trkpt lat="42.4010994751" lon="19.7874557041">
        <ele>1273.40</ele>
        <time>2019-07-07T07:59:24Z</time>
      </trkpt>
      <trkpt lat="42.4011283088" lon="19.7874919977">
        <ele>1273.88</ele>
        <time>2019-07-07T07:59:30Z</time>
      </trkpt>
      <trkpt lat="42.4011759181" lon="19.7875880543">
        <ele>1276.29</ele>
        <time>2019-07-07T07:59:43Z</time>
      </trkpt>
      <trkpt lat="42.4011735711" lon="19.7876111045">
        <ele>1276.77</ele>
        <time>2019-07-07T07:59:46Z</time>
      </trkpt>
      <trkpt lat="42.4011423904" lon="19.7877276130">
        <ele>1279.17</ele>
        <time>2019-07-07T08:00:01Z</time>
      </trkpt>
      <trkpt lat="42.4011540413" lon="19.7877859510">
        <ele>1281.09</ele>
        <time>2019-07-07T08:00:07Z</time>
      </trkpt>
      <trkpt lat="42.4011646025" lon="19.7878544312">
        <ele>1281.57</ele>
        <time>2019-07-07T08:00:13Z</time>
      </trkpt>
      <trkpt lat="42.4011662789" lon="19.7879081592">
        <ele>1281.57</ele>
        <time>2019-07-07T08:00:17Z</time>
      </trkpt>
      <trkpt lat="42.4011804443" lon="19.7879689280">
        <ele>1282.54</ele>
        <time>2019-07-07T08:00:23Z</time>
      </trkpt>
      <trkpt lat="42.4011963699" lon="19.7879918944">
        <ele>1283.50</ele>
        <time>2019-07-07T08:00:26Z</time>
      </trkpt>
      <trkpt lat="42.4012100324" lon="19.7880193871">
        <ele>1283.50</ele>
        <time>2019-07-07T08:00:29Z</time>
      </trkpt>
      <trkpt lat="42.4012505170" lon="19.7881182097">
        <ele>1285.42</ele>
        <time>2019-07-07T08:00:41Z</time>
      </trkpt>
      <trkpt lat="42.4012638442" lon="19.7882158589">
        <ele>1287.34</ele>
        <time>2019-07-07T08:00:52Z</time>
      </trkpt>
      <trkpt lat="42.4013015628" lon="19.7882772982">
        <ele>1289.75</ele>
        <time>2019-07-07T08:01:02Z</time>
      </trkpt>
      <trkpt lat="42.4013059214" lon="19.7882841714">
        <ele>1289.75</ele>
        <time>2019-07-07T08:01:03Z</time>
      </trkpt>
      <trkpt lat="42.4013319053" lon="19.7883641347">
        <ele>1290.71</ele>
        <time>2019-07-07T08:01:10Z</time>
      </trkpt>
      <trkpt lat="42.4013592303" lon="19.7885321081">
        <ele>1292.15</ele>
        <time>2019-07-07T08:01:23Z</time>
      </trkpt>
      <trkpt lat="42.4013938475" lon="19.7886340320">
        <ele>1293.59</ele>
        <time>2019-07-07T08:01:34Z</time>
      </trkpt>
      <trkpt lat="42.4014295544" lon="19.7887670528">
        <ele>1295.03</ele>
        <time>2019-07-07T08:01:47Z</time>
      </trkpt>
      <trkpt lat="42.4014614057" lon="19.7888519615">
        <ele>1295.99</ele>
        <time>2019-07-07T08:01:57Z</time>
      </trkpt>
      <trkpt lat="42.4014881440" lon="19.7888942901">
        <ele>1296.96</ele>
        <time>2019-07-07T08:02:01Z</time>
      </trkpt>
      <trkpt lat="42.4015256111" lon="19.7889684699">
        <ele>1297.92</ele>
        <time>2019-07-07T08:02:08Z</time>
      </trkpt>
      <trkpt lat="42.4015469849" lon="19.7890231200">
        <ele>1298.40</ele>
        <time>2019-07-07T08:02:13Z</time>
      </trkpt>
      <trkpt lat="42.4015670177" lon="19.7891693842">
        <ele>1299.84</ele>
        <time>2019-07-07T08:02:28Z</time>
      </trkpt>
      <trkpt lat="42.4015978631" lon="19.7892868146">
        <ele>1301.28</ele>
        <time>2019-07-07T08:02:39Z</time>
      </trkpt>
      <trkpt lat="42.4016562849" lon="19.7893905826">
        <ele>1302.72</ele>
        <time>2019-07-07T08:02:53Z</time>
      </trkpt>
      <trkpt lat="42.4016861245" lon="19.7894757427">
        <ele>1305.13</ele>
        <time>2019-07-07T08:03:07Z</time>
      </trkpt>
      <trkpt lat="42.4017451331" lon="19.7895712126">
        <ele>1307.05</ele>
        <time>2019-07-07T08:03:20Z</time>
      </trkpt>
      <trkpt lat="42.4017551914" lon="19.7896344960">
        <ele>1308.97</ele>
        <time>2019-07-07T08:03:28Z</time>
      </trkpt>
      <trkpt lat="42.4018521700" lon="19.7897189856">
        <ele>1310.41</ele>
        <time>2019-07-07T08:03:41Z</time>
      </trkpt>
      <trkpt lat="42.4018747173" lon="19.7897440474">
        <ele>1310.90</ele>
        <time>2019-07-07T08:03:44Z</time>
      </trkpt>
      <trkpt lat="42.4019727856" lon="19.7898104321">
        <ele>1312.82</ele>
        <time>2019-07-07T08:03:57Z</time>
      </trkpt>
      <trkpt lat="42.4020408466" lon="19.7898875456">
        <ele>1314.74</ele>
        <time>2019-07-07T08:04:10Z</time>
      </trkpt>
      <trkpt lat="42.4020080734" lon="19.7899536788">
        <ele>1317.14</ele>
        <time>2019-07-07T08:04:23Z</time>
      </trkpt>
      <trkpt lat="42.4019452091" lon="19.7899338976">
        <ele>1317.62</ele>
        <time>2019-07-07T08:04:31Z</time>
      </trkpt>
      <trkpt lat="42.4018770643" lon="19.7899332270">
        <ele>1318.59</ele>
        <time>2019-07-07T08:04:40Z</time>
      </trkpt>
      <trkpt lat="42.4017221667" lon="19.7899064049">
        <ele>1320.51</ele>
        <time>2019-07-07T08:04:56Z</time>
      </trkpt>
      <trkpt lat="42.4016606435" lon="19.7900688462">
        <ele>1323.39</ele>
        <time>2019-07-07T08:05:11Z</time>
      </trkpt>
      <trkpt lat="42.4016674329" lon="19.7900887951">
        <ele>1323.39</ele>
        <time>2019-07-07T08:05:13Z</time>
      </trkpt>
      <trkpt lat="42.4016738031" lon="19.7901234124">
        <ele>1323.87</ele>
        <time>2019-07-07T08:05:16Z</time>
      </trkpt>
      <trkpt lat="42.4016893096" lon="19.7902400885">
        <ele>1325.31</ele>
        <time>2019-07-07T08:05:25Z</time>
      </trkpt>
      <trkpt lat="42.4016959313" lon="19.7902694251">
        <ele>1325.31</ele>
        <time>2019-07-07T08:05:27Z</time>
      </trkpt>
      <trkpt lat="42.4017053191" lon="19.7902958281">
        <ele>1325.80</ele>
        <time>2019-07-07T08:05:29Z</time>
      </trkpt>
      <trkpt lat="42.4017253518" lon="19.7904612869">
        <ele>1327.24</ele>
        <time>2019-07-07T08:05:43Z</time>
      </trkpt>
      <trkpt lat="42.4017477315" lon="19.7905279230">
        <ele>1328.20</ele>
        <time>2019-07-07T08:05:50Z</time>
      </trkpt>
      <trkpt lat="42.4018245935" lon="19.7906438448">
        <ele>1330.12</ele>
        <time>2019-07-07T08:06:03Z</time>
      </trkpt>
      <trkpt lat="42.4019091669" lon="19.7907384764">
        <ele>1332.04</ele>
        <time>2019-07-07T08:06:18Z</time>
      </trkpt>
      <trkpt lat="42.4019815866" lon="19.7908108123">
        <ele>1334.93</ele>
        <time>2019-07-07T08:06:33Z</time>
      </trkpt>
      <trkpt lat="42.4020752124" lon="19.7908979841">
        <ele>1335.89</ele>
        <time>2019-07-07T08:06:47Z</time>
      </trkpt>
      <trkpt lat="42.4022115860" lon="19.7909906041">
        <ele>1337.33</ele>
        <time>2019-07-07T08:06:59Z</time>
      </trkpt>
      <trkpt lat="42.4023323692" lon="19.7910932824">
        <ele>1338.29</ele>
        <time>2019-07-07T08:07:13Z</time>
      </trkpt>
      <trkpt lat="42.4024504703" lon="19.7911345214">
        <ele>1338.29</ele>
        <time>2019-07-07T08:07:27Z</time>
      </trkpt>
      <trkpt lat="42.4025547411" lon="19.7912085336">
        <ele>1338.77</ele>
        <time>2019-07-07T08:07:39Z</time>
      </trkpt>
      <trkpt lat="42.4026006740" lon="19.7912320867">
        <ele>1338.77</ele>
        <time>2019-07-07T08:07:43Z</time>
      </trkpt>
      <trkpt lat="42.4027469382" lon="19.7913093679">
        <ele>1338.77</ele>
        <time>2019-07-07T08:07:59Z</time>
      </trkpt>
      <trkpt lat="42.4027883448" lon="19.7913273051">
        <ele>1338.77</ele>
        <time>2019-07-07T08:08:03Z</time>
      </trkpt>
      <trkpt lat="42.4029536359" lon="19.7913475893">
        <ele>1337.33</ele>
        <time>2019-07-07T08:08:19Z</time>
      </trkpt>
      <trkpt lat="42.4031004030" lon="19.7914041672">
        <ele>1337.33</ele>
        <time>2019-07-07T08:08:32Z</time>
      </trkpt>
      <trkpt lat="42.4031662010" lon="19.7914196737">
        <ele>1338.77</ele>
        <time>2019-07-07T08:08:40Z</time>
      </trkpt>
      <trkpt lat="42.4032831285" lon="19.7914486751">
        <ele>1340.22</ele>
        <time>2019-07-07T08:08:54Z</time>
      </trkpt>
      <trkpt lat="42.4033851363" lon="19.7915126290">
        <ele>1342.14</ele>
        <time>2019-07-07T08:09:08Z</time>
      </trkpt>
      <trkpt lat="42.4035203364" lon="19.7915793490">
        <ele>1343.58</ele>
        <time>2019-07-07T08:09:22Z</time>
      </trkpt>
      <trkpt lat="42.4036583863" lon="19.7916439734">
        <ele>1345.02</ele>
        <time>2019-07-07T08:09:38Z</time>
      </trkpt>
      <trkpt lat="42.4037577119" lon="19.7917299718">
        <ele>1345.98</ele>
        <time>2019-07-07T08:09:52Z</time>
      </trkpt>
      <trkpt lat="42.4038621504" lon="19.7918300517">
        <ele>1346.94</ele>
        <time>2019-07-07T08:10:07Z</time>
      </trkpt>
      <trkpt lat="42.4039582070" lon="19.7918558680">
        <ele>1349.35</ele>
        <time>2019-07-07T08:10:20Z</time>
      </trkpt>
      <trkpt lat="42.4040325545" lon="19.7918888088">
        <ele>1350.79</ele>
        <time>2019-07-07T08:10:33Z</time>
      </trkpt>
      <trkpt lat="42.4040615559" lon="19.7919351608">
        <ele>1352.23</ele>
        <time>2019-07-07T08:10:45Z</time>
      </trkpt>
      <trkpt lat="42.4040234182" lon="19.7919810936">
        <ele>1354.63</ele>
        <time>2019-07-07T08:11:01Z</time>
      </trkpt>
      <trkpt lat="42.4039996974" lon="19.7920994461">
        <ele>1357.04</ele>
        <time>2019-07-07T08:11:17Z</time>
      </trkpt>
      <trkpt lat="42.4040508270" lon="19.7922304552">
        <ele>1358.96</ele>
        <time>2019-07-07T08:11:32Z</time>
      </trkpt>
      <trkpt lat="42.4040905572" lon="19.7923545074">
        <ele>1360.88</ele>
        <time>2019-07-07T08:11:46Z</time>
      </trkpt>
      <trkpt lat="42.4041301198" lon="19.7924430203">
        <ele>1361.84</ele>
        <time>2019-07-07T08:11:58Z</time>
      </trkpt>
      <trkpt lat="42.4041873682" lon="19.7925374005">
        <ele>1363.29</ele>
        <time>2019-07-07T08:12:12Z</time>
      </trkpt>
      <trkpt lat="42.4042472150" lon="19.7926622909">
        <ele>1365.69</ele>
        <time>2019-07-07T08:12:26Z</time>
      </trkpt>
      <trkpt lat="42.4042632245" lon="19.7926640511">
        <ele>1365.69</ele>
        <time>2019-07-07T08:12:28Z</time>
      </trkpt>
      <trkpt lat="42.4043189641" lon="19.7927098162">
        <ele>1367.61</ele>
        <time>2019-07-07T08:12:41Z</time>
      </trkpt>
      <trkpt lat="42.4043518212" lon="19.7928365506">
        <ele>1370.02</ele>
        <time>2019-07-07T08:12:55Z</time>
      </trkpt>
      <trkpt lat="42.4043335486" lon="19.7929990757">
        <ele>1372.42</ele>
        <time>2019-07-07T08:13:10Z</time>
      </trkpt>
      <trkpt lat="42.4043808226" lon="19.7930911928">
        <ele>1374.34</ele>
        <time>2019-07-07T08:13:24Z</time>
      </trkpt>
      <trkpt lat="42.4044515658" lon="19.7931673843">
        <ele>1377.23</ele>
        <time>2019-07-07T08:13:38Z</time>
      </trkpt>
      <trkpt lat="42.4044916313" lon="19.7931730002">
        <ele>1379.15</ele>
        <time>2019-07-07T08:13:50Z</time>
      </trkpt>
      <trkpt lat="42.4045474548" lon="19.7931926977">
        <ele>1381.07</ele>
        <time>2019-07-07T08:14:04Z</time>
      </trkpt>
      <trkpt lat="42.4045926332" lon="19.7932532988">
        <ele>1383.47</ele>
        <time>2019-07-07T08:14:17Z</time>
      </trkpt>
      <trkpt lat="42.4046376441" lon="19.7932378761">
        <ele>1385.40</ele>
        <time>2019-07-07T08:14:28Z</time>
      </trkpt>
      <trkpt lat="42.4046968203" lon="19.7932965495">
        <ele>1387.80</ele>
        <time>2019-07-07T08:14:42Z</time>
      </trkpt>
      <trkpt lat="42.4047285877" lon="19.7933375370">
        <ele>1389.72</ele>
        <time>2019-07-07T08:14:55Z</time>
      </trkpt>
      <trkpt lat="42.4047989957" lon="19.7934277263">
        <ele>1392.13</ele>
        <time>2019-07-07T08:15:09Z</time>
      </trkpt>
      <trkpt lat="42.4048607703" lon="19.7935102042">
        <ele>1393.57</ele>
        <time>2019-07-07T08:15:20Z</time>
      </trkpt>
      <trkpt lat="42.4049060326" lon="19.7935886588">
        <ele>1395.49</ele>
        <time>2019-07-07T08:15:32Z</time>
      </trkpt>
      <trkpt lat="42.4049383029" lon="19.7936958633">
        <ele>1396.45</ele>
        <time>2019-07-07T08:15:44Z</time>
      </trkpt>
      <trkpt lat="42.4049688131" lon="19.7937830351">
        <ele>1399.34</ele>
        <time>2019-07-07T08:15:57Z</time>
      </trkpt>
      <trkpt lat="42.4050120637" lon="19.7938716318">
        <ele>1400.30</ele>
        <time>2019-07-07T08:16:09Z</time>
      </trkpt>
      <trkpt lat="42.4050806277" lon="19.7939563729">
        <ele>1401.74</ele>
        <time>2019-07-07T08:16:22Z</time>
      </trkpt>
      <trkpt lat="42.4050940387" lon="19.7939766571">
        <ele>1402.22</ele>
        <time>2019-07-07T08:16:25Z</time>
      </trkpt>
      <trkpt lat="42.4051382113" lon="19.7940349951">
        <ele>1403.18</ele>
        <time>2019-07-07T08:16:35Z</time>
      </trkpt>
      <trkpt lat="42.4051833060" lon="19.7941217478">
        <ele>1404.14</ele>
        <time>2019-07-07T08:16:43Z</time>
      </trkpt>
      <trkpt lat="42.4052389618" lon="19.7942143679">
        <ele>1405.58</ele>
        <time>2019-07-07T08:16:55Z</time>
      </trkpt>
      <trkpt lat="42.4052558094" lon="19.7942392621">
        <ele>1405.58</ele>
        <time>2019-07-07T08:16:58Z</time>
      </trkpt>
      <trkpt lat="42.4053544644" lon="19.7943601292">
        <ele>1405.58</ele>
        <time>2019-07-07T08:17:11Z</time>
      </trkpt>
      <trkpt lat="42.4054319132" lon="19.7945292760">
        <ele>1405.58</ele>
        <time>2019-07-07T08:17:23Z</time>
      </trkpt>
      <trkpt lat="42.4055042490" lon="19.7946301103">
        <ele>1407.03</ele>
        <time>2019-07-07T08:17:34Z</time>
      </trkpt>
      <trkpt lat="42.4055622518" lon="19.7947545815">
        <ele>1409.43</ele>
        <time>2019-07-07T08:17:50Z</time>
      </trkpt>
      <trkpt lat="42.4055894930" lon="19.7948672343">
        <ele>1411.83</ele>
        <time>2019-07-07T08:18:05Z</time>
      </trkpt>
      <trkpt lat="42.4055941030" lon="19.7949998360">
        <ele>1413.28</ele>
        <time>2019-07-07T08:18:16Z</time>
      </trkpt>
      <trkpt lat="42.4055845477" lon="19.7950480320">
        <ele>1413.28</ele>
        <time>2019-07-07T08:18:19Z</time>
      </trkpt>
      <trkpt lat="42.4056110345" lon="19.7952600941">
        <ele>1413.28</ele>
        <time>2019-07-07T08:18:33Z</time>
      </trkpt>
      <trkpt lat="42.4056733120" lon="19.7953653708">
        <ele>1414.24</ele>
        <time>2019-07-07T08:18:48Z</time>
      </trkpt>
      <trkpt lat="42.4057606515" lon="19.7954898421">
        <ele>1415.68</ele>
        <time>2019-07-07T08:19:01Z</time>
      </trkpt>
      <trkpt lat="42.4058500025" lon="19.7957267147">
        <ele>1416.64</ele>
        <time>2019-07-07T08:19:16Z</time>
      </trkpt>
      <trkpt lat="42.4058638327" lon="19.7957850527">
        <ele>1417.12</ele>
        <time>2019-07-07T08:19:35Z</time>
      </trkpt>
      <trkpt lat="42.4059350789" lon="19.7959047463">
        <ele>1417.60</ele>
        <time>2019-07-07T08:19:48Z</time>
      </trkpt>
      <trkpt lat="42.4060144555" lon="19.7960156389">
        <ele>1419.52</ele>
        <time>2019-07-07T08:20:02Z</time>
      </trkpt>
      <trkpt lat="42.4060831033" lon="19.7961371765">
        <ele>1420.97</ele>
        <time>2019-07-07T08:20:15Z</time>
      </trkpt>
      <trkpt lat="42.4061325565" lon="19.7962220851">
        <ele>1421.93</ele>
        <time>2019-07-07T08:20:25Z</time>
      </trkpt>
      <trkpt lat="42.4061777350" lon="19.7963608056">
        <ele>1421.93</ele>
        <time>2019-07-07T08:20:36Z</time>
      </trkpt>
      <trkpt lat="42.4062457960" lon="19.7965100873">
        <ele>1422.89</ele>
        <time>2019-07-07T08:20:50Z</time>
      </trkpt>
      <trkpt lat="42.4062494840" lon="19.7965195589">
        <ele>1422.89</ele>
        <time>2019-07-07T08:20:51Z</time>
      </trkpt>
      <trkpt lat="42.4063588679" lon="19.7967447806">
        <ele>1424.81</ele>
        <time>2019-07-07T08:21:08Z</time>
      </trkpt>
      <trkpt lat="42.4064173736" lon="19.7968738619">
        <ele>1427.21</ele>
        <time>2019-07-07T08:21:23Z</time>
      </trkpt>
      <trkpt lat="42.4065001030" lon="19.7970393207">
        <ele>1428.66</ele>
        <time>2019-07-07T08:21:39Z</time>
      </trkpt>
      <trkpt lat="42.4065659847" lon="19.7971778736">
        <ele>1431.54</ele>
        <time>2019-07-07T08:21:55Z</time>
      </trkpt>
      <trkpt lat="42.4066330399" lon="19.7972872574">
        <ele>1433.46</ele>
        <time>2019-07-07T08:22:10Z</time>
      </trkpt>
      <trkpt lat="42.4067025259" lon="19.7973203659">
        <ele>1435.39</ele>
        <time>2019-07-07T08:22:20Z</time>
      </trkpt>
      <trkpt lat="42.4068159331" lon="19.7973105591">
        <ele>1436.83</ele>
        <time>2019-07-07T08:22:34Z</time>
      </trkpt>
      <trkpt lat="42.4068528134" lon="19.7972595971">
        <ele>1438.75</ele>
        <time>2019-07-07T08:22:47Z</time>
      </trkpt>
      <trkpt lat="42.4069172703" lon="19.7973175999">
        <ele>1440.19</ele>
        <time>2019-07-07T08:22:59Z</time>
      </trkpt>
      <trkpt lat="42.4069574196" lon="19.7974285763">
        <ele>1442.11</ele>
        <time>2019-07-07T08:23:13Z</time>
      </trkpt>
      <trkpt lat="42.4069906119" lon="19.7975007445">
        <ele>1444.52</ele>
        <time>2019-07-07T08:23:28Z</time>
      </trkpt>
      <trkpt lat="42.4070585892" lon="19.7975936159">
        <ele>1447.40</ele>
        <time>2019-07-07T08:23:45Z</time>
      </trkpt>
      <trkpt lat="42.4071505386" lon="19.7977237031">
        <ele>1449.32</ele>
        <time>2019-07-07T08:24:00Z</time>
      </trkpt>
      <trkpt lat="42.4071902689" lon="19.7977552190">
        <ele>1451.25</ele>
        <time>2019-07-07T08:24:13Z</time>
      </trkpt>
      <trkpt lat="42.4072425719" lon="19.7977898363">
        <ele>1453.17</ele>
        <time>2019-07-07T08:24:28Z</time>
      </trkpt>
      <trkpt lat="42.4072810449" lon="19.7978236992">
        <ele>1453.17</ele>
        <time>2019-07-07T08:24:33Z</time>
      </trkpt>
      <trkpt lat="42.4074254651" lon="19.7979005612">
        <ele>1453.65</ele>
        <time>2019-07-07T08:24:47Z</time>
      </trkpt>
      <trkpt lat="42.4075592402" lon="19.7980030719">
        <ele>1455.57</ele>
        <time>2019-07-07T08:25:03Z</time>
      </trkpt>
      <trkpt lat="42.4075955339" lon="19.7980624996">
        <ele>1457.50</ele>
        <time>2019-07-07T08:25:21Z</time>
      </trkpt>
      <trkpt lat="42.4075492658" lon="19.7981637530">
        <ele>1459.42</ele>
        <time>2019-07-07T08:25:36Z</time>
      </trkpt>
      <trkpt lat="42.4075982999" lon="19.7982653417">
        <ele>1461.82</ele>
        <time>2019-07-07T08:25:54Z</time>
      </trkpt>
      <trkpt lat="42.4076250382" lon="19.7982750647">
        <ele>1463.26</ele>
        <time>2019-07-07T08:26:06Z</time>
      </trkpt>
      <trkpt lat="42.4076738209" lon="19.7982012201">
        <ele>1463.26</ele>
        <time>2019-07-07T08:26:20Z</time>
      </trkpt>
      <trkpt lat="42.4076399580" lon="19.7983256076">
        <ele>1463.26</ele>
        <time>2019-07-07T08:26:53Z</time>
      </trkpt>
      <trkpt lat="42.4076877348" lon="19.7982286289">
        <ele>1463.74</ele>
        <time>2019-07-07T08:27:23Z</time>
      </trkpt>
      <trkpt lat="42.4076673668" lon="19.7981841210">
        <ele>1464.23</ele>
        <time>2019-07-07T08:27:51Z</time>
      </trkpt>
      <trkpt lat="42.4077117909" lon="19.7982273716">
        <ele>1464.71</ele>
        <time>2019-07-07T08:28:23Z</time>
      </trkpt>
      <trkpt lat="42.4076323304" lon="19.7982404474">
        <ele>1465.19</ele>
        <time>2019-07-07T08:28:57Z</time>
      </trkpt>
      <trkpt lat="42.4076469149" lon="19.7982433811">
        <ele>1465.19</ele>
        <time>2019-07-07T08:29:14Z</time>
      </trkpt>
      <trkpt lat="42.4076469149" lon="19.7982494161">
        <ele>1465.67</ele>
        <time>2019-07-07T08:29:29Z</time>
      </trkpt>
      <trkpt lat="42.4077303149" lon="19.7984002903">
        <ele>1466.15</ele>
        <time>2019-07-07T08:29:45Z</time>
      </trkpt>
      <trkpt lat="42.4077559635" lon="19.7985590436">
        <ele>1467.59</ele>
        <time>2019-07-07T08:29:59Z</time>
      </trkpt>
      <trkpt lat="42.4077586457" lon="19.7987309564">
        <ele>1469.51</ele>
        <time>2019-07-07T08:30:14Z</time>
      </trkpt>
      <trkpt lat="42.4077654351" lon="19.7989163641">
        <ele>1471.92</ele>
        <time>2019-07-07T08:30:27Z</time>
      </trkpt>
      <trkpt lat="42.4078212585" lon="19.7990318667">
        <ele>1472.88</ele>
        <time>2019-07-07T08:30:42Z</time>
      </trkpt>
      <trkpt lat="42.4078564625" lon="19.7990803979">
        <ele>1471.92</ele>
        <time>2019-07-07T08:30:50Z</time>
      </trkpt>
      <trkpt lat="42.4078788422" lon="19.7991134226">
        <ele>1471.92</ele>
        <time>2019-07-07T08:30:53Z</time>
      </trkpt>
      <trkpt lat="42.4080261122" lon="19.7992782108">
        <ele>1471.44</ele>
        <time>2019-07-07T08:31:05Z</time>
      </trkpt>
      <trkpt lat="42.4080093484" lon="19.7993522231">
        <ele>1471.44</ele>
        <time>2019-07-07T08:31:13Z</time>
      </trkpt>
      <trkpt lat="42.4079894833" lon="19.7993922047">
        <ele>1472.88</ele>
        <time>2019-07-07T08:31:15Z</time>
      </trkpt>
      <trkpt lat="42.4079552852" lon="19.7994793765">
        <ele>1473.36</ele>
        <time>2019-07-07T08:31:22Z</time>
      </trkpt>
      <trkpt lat="42.4079557043" lon="19.7995495331">
        <ele>1472.88</ele>
        <time>2019-07-07T08:31:26Z</time>
      </trkpt>
      <trkpt lat="42.4080078397" lon="19.7997217812">
        <ele>1471.92</ele>
        <time>2019-07-07T08:31:39Z</time>
      </trkpt>
      <trkpt lat="42.4080072530" lon="19.7997525427">
        <ele>1471.92</ele>
        <time>2019-07-07T08:31:41Z</time>
      </trkpt>
      <trkpt lat="42.4079856277" lon="19.7998789418">
        <ele>1470.47</ele>
        <time>2019-07-07T08:31:49Z</time>
      </trkpt>
      <trkpt lat="42.4080199935" lon="19.7999792732">
        <ele>1471.92</ele>
        <time>2019-07-07T08:31:58Z</time>
      </trkpt>
      <trkpt lat="42.4080486596" lon="19.8000728153">
        <ele>1472.40</ele>
        <time>2019-07-07T08:32:07Z</time>
      </trkpt>
      <trkpt lat="42.4080406968" lon="19.8001045827">
        <ele>1472.40</ele>
        <time>2019-07-07T08:32:09Z</time>
      </trkpt>
      <trkpt lat="42.4079718813" lon="19.8001762480">
        <ele>1472.40</ele>
        <time>2019-07-07T08:32:16Z</time>
      </trkpt>
      <trkpt lat="42.4079577159" lon="19.8002029024">
        <ele>1470.95</ele>
        <time>2019-07-07T08:32:18Z</time>
      </trkpt>
      <trkpt lat="42.4079554528" lon="19.8002464045">
        <ele>1469.99</ele>
        <time>2019-07-07T08:32:21Z</time>
      </trkpt>
      <trkpt lat="42.4079495016" lon="19.8004384339">
        <ele>1469.99</ele>
        <time>2019-07-07T08:32:35Z</time>
      </trkpt>
      <trkpt lat="42.4079285469" lon="19.8004381824">
        <ele>1470.47</ele>
        <time>2019-07-07T08:32:40Z</time>
      </trkpt>
      <trkpt lat="42.4078222644" lon="19.8004175629">
        <ele>1471.92</ele>
        <time>2019-07-07T08:32:54Z</time>
      </trkpt>
      <trkpt lat="42.4077520240" lon="19.8004329018">
        <ele>1474.32</ele>
        <time>2019-07-07T08:33:07Z</time>
      </trkpt>
      <trkpt lat="42.4076810293" lon="19.8003833648">
        <ele>1476.24</ele>
        <time>2019-07-07T08:33:19Z</time>
      </trkpt>
      <trkpt lat="42.4076077715" lon="19.8003416229">
        <ele>1478.16</ele>
        <time>2019-07-07T08:33:31Z</time>
      </trkpt>
      <trkpt lat="42.4075252935" lon="19.8003252782">
        <ele>1479.61</ele>
        <time>2019-07-07T08:33:42Z</time>
      </trkpt>
      <trkpt lat="42.4074124731" lon="19.8003075086">
        <ele>1480.57</ele>
        <time>2019-07-07T08:33:53Z</time>
      </trkpt>
      <trkpt lat="42.4072994012" lon="19.8003919143">
        <ele>1482.49</ele>
        <time>2019-07-07T08:34:07Z</time>
      </trkpt>
      <trkpt lat="42.4072486907" lon="19.8004818521">
        <ele>1483.93</ele>
        <time>2019-07-07T08:34:20Z</time>
      </trkpt>
      <trkpt lat="42.4072092958" lon="19.8005862907">
        <ele>1485.37</ele>
        <time>2019-07-07T08:34:33Z</time>
      </trkpt>
      <trkpt lat="42.4072278198" lon="19.8006650805">
        <ele>1487.78</ele>
        <time>2019-07-07T08:34:47Z</time>
      </trkpt>
      <trkpt lat="42.4072482716" lon="19.8006691039">
        <ele>1488.74</ele>
        <time>2019-07-07T08:35:01Z</time>
      </trkpt>
      <trkpt lat="42.4073037598" lon="19.8006931599">
        <ele>1491.14</ele>
        <time>2019-07-07T08:35:14Z</time>
      </trkpt>
      <trkpt lat="42.4072955456" lon="19.8008071538">
        <ele>1493.06</ele>
        <time>2019-07-07T08:35:30Z</time>
      </trkpt>
      <trkpt lat="42.4073185120" lon="19.8008115124">
        <ele>1494.03</ele>
        <time>2019-07-07T08:35:34Z</time>
      </trkpt>
      <trkpt lat="42.4074294046" lon="19.8008678388">
        <ele>1495.95</ele>
        <time>2019-07-07T08:35:47Z</time>
      </trkpt>
      <trkpt lat="42.4073928595" lon="19.8009547591">
        <ele>1497.39</ele>
        <time>2019-07-07T08:35:59Z</time>
      </trkpt>
      <trkpt lat="42.4073475972" lon="19.8010320403">
        <ele>1499.31</ele>
        <time>2019-07-07T08:36:12Z</time>
      </trkpt>
      <trkpt lat="42.4073707312" lon="19.8011491355">
        <ele>1501.24</ele>
        <time>2019-07-07T08:36:27Z</time>
      </trkpt>
      <trkpt lat="42.4074041750" lon="19.8012297694">
        <ele>1503.64</ele>
        <time>2019-07-07T08:36:43Z</time>
      </trkpt>
      <trkpt lat="42.4074682128" lon="19.8013116606">
        <ele>1507.00</ele>
        <time>2019-07-07T08:36:57Z</time>
      </trkpt>
      <trkpt lat="42.4074098747" lon="19.8014475312">
        <ele>1508.45</ele>
        <time>2019-07-07T08:37:12Z</time>
      </trkpt>
      <trkpt lat="42.4074076116" lon="19.8015402351">
        <ele>1510.37</ele>
        <time>2019-07-07T08:37:25Z</time>
      </trkpt>
      <trkpt lat="42.4073450826" lon="19.8015841562">
        <ele>1512.29</ele>
        <time>2019-07-07T08:37:36Z</time>
      </trkpt>
      <trkpt lat="42.4073289055" lon="19.8015743494">
        <ele>1512.77</ele>
        <time>2019-07-07T08:37:38Z</time>
      </trkpt>
      <trkpt lat="42.4072404765" lon="19.8015927896">
        <ele>1514.69</ele>
        <time>2019-07-07T08:37:50Z</time>
      </trkpt>
      <trkpt lat="42.4072480202" lon="19.8016631138">
        <ele>1516.62</ele>
        <time>2019-07-07T08:38:03Z</time>
      </trkpt>
      <trkpt lat="42.4071986508" lon="19.8017775267">
        <ele>1519.02</ele>
        <time>2019-07-07T08:38:17Z</time>
      </trkpt>
      <trkpt lat="42.4071816355" lon="19.8017954640">
        <ele>1520.94</ele>
        <time>2019-07-07T08:38:26Z</time>
      </trkpt>
      <trkpt lat="42.4071178492" lon="19.8018272314">
        <ele>1521.42</ele>
        <time>2019-07-07T08:38:39Z</time>
      </trkpt>
      <trkpt lat="42.4070802145" lon="19.8017981462">
        <ele>1523.83</ele>
        <time>2019-07-07T08:38:54Z</time>
      </trkpt>
      <trkpt lat="42.4069984071" lon="19.8018667940">
        <ele>1525.75</ele>
        <time>2019-07-07T08:39:07Z</time>
      </trkpt>
      <trkpt lat="42.4069571681" lon="19.8019180074">
        <ele>1527.19</ele>
        <time>2019-07-07T08:39:15Z</time>
      </trkpt>
      <trkpt lat="42.4069076311" lon="19.8019803688">
        <ele>1529.11</ele>
        <time>2019-07-07T08:39:25Z</time>
      </trkpt>
      <trkpt lat="42.4068663921" lon="19.8020729050">
        <ele>1531.04</ele>
        <time>2019-07-07T08:39:35Z</time>
      </trkpt>
      <trkpt lat="42.4066981673" lon="19.8020573147">
        <ele>1533.44</ele>
        <time>2019-07-07T08:39:50Z</time>
      </trkpt>
      <trkpt lat="42.4066524021" lon="19.8020787723">
        <ele>1535.36</ele>
        <time>2019-07-07T08:40:04Z</time>
      </trkpt>
      <trkpt lat="42.4066119175" lon="19.8021485098">
        <ele>1538.25</ele>
        <time>2019-07-07T08:40:20Z</time>
      </trkpt>
      <trkpt lat="42.4065509811" lon="19.8022020701">
        <ele>1540.17</ele>
        <time>2019-07-07T08:40:35Z</time>
      </trkpt>
      <trkpt lat="42.4065470416" lon="19.8023239430">
        <ele>1543.05</ele>
        <time>2019-07-07T08:40:49Z</time>
      </trkpt>
      <trkpt lat="42.4065236561" lon="19.8023454845">
        <ele>1544.98</ele>
        <time>2019-07-07T08:41:02Z</time>
      </trkpt>
      <trkpt lat="42.4064822495" lon="19.8023795988">
        <ele>1547.38</ele>
        <time>2019-07-07T08:41:15Z</time>
      </trkpt>
      <trkpt lat="42.4063961674" lon="19.8024403676">
        <ele>1550.26</ele>
        <time>2019-07-07T08:41:31Z</time>
      </trkpt>
      <trkpt lat="42.4063621368" lon="19.8024566285">
        <ele>1552.67</ele>
        <time>2019-07-07T08:41:46Z</time>
      </trkpt>
      <trkpt lat="42.4063084088" lon="19.8024422117">
        <ele>1554.59</ele>
        <time>2019-07-07T08:42:00Z</time>
      </trkpt>
      <trkpt lat="42.4062290322" lon="19.8024106119">
        <ele>1556.51</ele>
        <time>2019-07-07T08:42:13Z</time>
      </trkpt>
      <trkpt lat="42.4061142839" lon="19.8024148028">
        <ele>1558.92</ele>
        <time>2019-07-07T08:42:27Z</time>
      </trkpt>
      <trkpt lat="42.4060399365" lon="19.8024745658">
        <ele>1562.28</ele>
        <time>2019-07-07T08:42:43Z</time>
      </trkpt>
      <trkpt lat="42.4060006253" lon="19.8025437165">
        <ele>1563.72</ele>
        <time>2019-07-07T08:42:55Z</time>
      </trkpt>
      <trkpt lat="42.4058938399" lon="19.8025496677">
        <ele>1566.12</ele>
        <time>2019-07-07T08:43:08Z</time>
      </trkpt>
      <trkpt lat="42.4058708735" lon="19.8026541900">
        <ele>1568.05</ele>
        <time>2019-07-07T08:43:23Z</time>
      </trkpt>
      <trkpt lat="42.4058670178" lon="19.8028243426">
        <ele>1570.45</ele>
        <time>2019-07-07T08:43:39Z</time>
      </trkpt>
      <trkpt lat="42.4058418721" lon="19.8029700201">
        <ele>1572.37</ele>
        <time>2019-07-07T08:43:55Z</time>
      </trkpt>
      <trkpt lat="42.4058506731" lon="19.8031195533">
        <ele>1574.78</ele>
        <time>2019-07-07T08:44:11Z</time>
      </trkpt>
      <trkpt lat="42.4058623239" lon="19.8032710142">
        <ele>1578.14</ele>
        <time>2019-07-07T08:44:28Z</time>
      </trkpt>
      <trkpt lat="42.4058688618" lon="19.8034161888">
        <ele>1580.06</ele>
        <time>2019-07-07T08:44:42Z</time>
      </trkpt>
      <trkpt lat="42.4059208296" lon="19.8035149276">
        <ele>1581.03</ele>
        <time>2019-07-07T08:45:04Z</time>
      </trkpt>
      <trkpt lat="42.4059031438" lon="19.8036476132">
        <ele>1583.43</ele>
        <time>2019-07-07T08:45:17Z</time>
      </trkpt>
      <trkpt lat="42.4059245177" lon="19.8038146645">
        <ele>1584.87</ele>
        <time>2019-07-07T08:45:35Z</time>
      </trkpt>
      <trkpt lat="42.4059172254" lon="19.8038727511">
        <ele>1585.35</ele>
        <time>2019-07-07T08:45:48Z</time>
      </trkpt>
      <trkpt lat="42.4059356656" lon="19.8040273972">
        <ele>1586.31</ele>
        <time>2019-07-07T08:46:02Z</time>
      </trkpt>
      <trkpt lat="42.4059470650" lon="19.8041632678">
        <ele>1588.24</ele>
        <time>2019-07-07T08:46:17Z</time>
      </trkpt>
      <trkpt lat="42.4059585482" lon="19.8042106256">
        <ele>1589.68</ele>
        <time>2019-07-07T08:46:23Z</time>
      </trkpt>
      <trkpt lat="42.4059935007" lon="19.8043814488">
        <ele>1590.64</ele>
        <time>2019-07-07T08:46:37Z</time>
      </trkpt>
      <trkpt lat="42.4060550239" lon="19.8045215942">
        <ele>1592.56</ele>
        <time>2019-07-07T08:46:52Z</time>
      </trkpt>
      <trkpt lat="42.4060740508" lon="19.8046330735">
        <ele>1594.00</ele>
        <time>2019-07-07T08:47:04Z</time>
      </trkpt>
      <trkpt lat="42.4061159603" lon="19.8047818523">
        <ele>1595.45</ele>
        <time>2019-07-07T08:47:19Z</time>
      </trkpt>
      <trkpt lat="42.4061017949" lon="19.8048446327">
        <ele>1595.93</ele>
        <time>2019-07-07T08:47:25Z</time>
      </trkpt>
      <trkpt lat="42.4061091710" lon="19.8049612250">
        <ele>1597.37</ele>
        <time>2019-07-07T08:47:35Z</time>
      </trkpt>
      <trkpt lat="42.4061664194" lon="19.8050789069">
        <ele>1600.25</ele>
        <time>2019-07-07T08:47:49Z</time>
      </trkpt>
      <trkpt lat="42.4061529245" lon="19.8051903024">
        <ele>1601.69</ele>
        <time>2019-07-07T08:48:01Z</time>
      </trkpt>
      <trkpt lat="42.4061424471" lon="19.8053023685">
        <ele>1604.10</ele>
        <time>2019-07-07T08:48:14Z</time>
      </trkpt>
      <trkpt lat="42.4061464705" lon="19.8054496385">
        <ele>1606.50</ele>
        <time>2019-07-07T08:48:30Z</time>
      </trkpt>
      <trkpt lat="42.4061738793" lon="19.8056370579">
        <ele>1608.42</ele>
        <time>2019-07-07T08:48:45Z</time>
      </trkpt>
      <trkpt lat="42.4062214885" lon="19.8057786282">
        <ele>1610.35</ele>
        <time>2019-07-07T08:48:59Z</time>
      </trkpt>
      <trkpt lat="42.4062267691" lon="19.8058834020">
        <ele>1612.27</ele>
        <time>2019-07-07T08:49:12Z</time>
      </trkpt>
      <trkpt lat="42.4061848596" lon="19.8059418239">
        <ele>1612.75</ele>
        <time>2019-07-07T08:49:21Z</time>
      </trkpt>
      <trkpt lat="42.4061532598" lon="19.8059644550">
        <ele>1613.23</ele>
        <time>2019-07-07T08:49:25Z</time>
      </trkpt>
      <trkpt lat="42.4061288685" lon="19.8060014192">
        <ele>1613.23</ele>
        <time>2019-07-07T08:49:29Z</time>
      </trkpt>
      <trkpt lat="42.4060768168" lon="19.8061543889">
        <ele>1615.63</ele>
        <time>2019-07-07T08:49:45Z</time>
      </trkpt>
      <trkpt lat="42.4060655013" lon="19.8062418960">
        <ele>1617.56</ele>
        <time>2019-07-07T08:49:56Z</time>
      </trkpt>
      <trkpt lat="42.4060485698" lon="19.8063326720">
        <ele>1619.96</ele>
        <time>2019-07-07T08:50:10Z</time>
      </trkpt>
      <trkpt lat="42.4060214963" lon="19.8064627592">
        <ele>1621.40</ele>
        <time>2019-07-07T08:50:23Z</time>
      </trkpt>
      <trkpt lat="42.4060002062" lon="19.8065915052">
        <ele>1622.84</ele>
        <time>2019-07-07T08:50:35Z</time>
      </trkpt>
      <trkpt lat="42.4059733003" lon="19.8066879809">
        <ele>1623.80</ele>
        <time>2019-07-07T08:50:49Z</time>
      </trkpt>
      <trkpt lat="42.4058798421" lon="19.8067630827">
        <ele>1626.21</ele>
        <time>2019-07-07T08:51:04Z</time>
      </trkpt>
      <trkpt lat="42.4058690295" lon="19.8067891505">
        <ele>1628.61</ele>
        <time>2019-07-07T08:51:18Z</time>
      </trkpt>
      <trkpt lat="42.4058186542" lon="19.8068454769">
        <ele>1630.05</ele>
        <time>2019-07-07T08:51:28Z</time>
      </trkpt>
      <trkpt lat="42.4057353381" lon="19.8069834430">
        <ele>1631.98</ele>
        <time>2019-07-07T08:51:44Z</time>
      </trkpt>
      <trkpt lat="42.4056972004" lon="19.8071016278">
        <ele>1633.90</ele>
        <time>2019-07-07T08:51:57Z</time>
      </trkpt>
      <trkpt lat="42.4056735635" lon="19.8071363289">
        <ele>1634.38</ele>
        <time>2019-07-07T08:52:01Z</time>
      </trkpt>
      <trkpt lat="42.4056438915" lon="19.8072487302">
        <ele>1636.78</ele>
        <time>2019-07-07T08:52:14Z</time>
      </trkpt>
      <trkpt lat="42.4055726454" lon="19.8073680885">
        <ele>1638.22</ele>
        <time>2019-07-07T08:52:26Z</time>
      </trkpt>
      <trkpt lat="42.4055062607" lon="19.8075312003">
        <ele>1638.70</ele>
        <time>2019-07-07T08:52:39Z</time>
      </trkpt>
      <trkpt lat="42.4055026565" lon="19.8076658975">
        <ele>1638.70</ele>
        <time>2019-07-07T08:52:50Z</time>
      </trkpt>
      <trkpt lat="42.4054834619" lon="19.8077130876">
        <ele>1638.70</ele>
        <time>2019-07-07T08:52:54Z</time>
      </trkpt>
      <trkpt lat="42.4054058455" lon="19.8078567535">
        <ele>1638.70</ele>
        <time>2019-07-07T08:53:08Z</time>
      </trkpt>
      <trkpt lat="42.4053442385" lon="19.8079855833">
        <ele>1637.26</ele>
        <time>2019-07-07T08:53:22Z</time>
      </trkpt>
      <trkpt lat="42.4053200986" lon="19.8081250582">
        <ele>1637.26</ele>
        <time>2019-07-07T08:53:36Z</time>
      </trkpt>
      <trkpt lat="42.4053067714" lon="19.8081652913">
        <ele>1636.78</ele>
        <time>2019-07-07T08:53:41Z</time>
      </trkpt>
      <trkpt lat="42.4052891694" lon="19.8083125614">
        <ele>1635.82</ele>
        <time>2019-07-07T08:53:52Z</time>
      </trkpt>
      <trkpt lat="42.4053136446" lon="19.8084808700">
        <ele>1634.86</ele>
        <time>2019-07-07T08:54:04Z</time>
      </trkpt>
      <trkpt lat="42.4053264689" lon="19.8085474223">
        <ele>1634.86</ele>
        <time>2019-07-07T08:54:09Z</time>
      </trkpt>
      <trkpt lat="42.4053313304" lon="19.8086274695">
        <ele>1636.30</ele>
        <time>2019-07-07T08:54:14Z</time>
      </trkpt>
      <trkpt lat="42.4052851461" lon="19.8087682016">
        <ele>1637.74</ele>
        <time>2019-07-07T08:54:30Z</time>
      </trkpt>
      <trkpt lat="42.4052634370" lon="19.8088875599">
        <ele>1638.70</ele>
        <time>2019-07-07T08:54:44Z</time>
      </trkpt>
      <trkpt lat="42.4052534625" lon="19.8089713790">
        <ele>1641.11</ele>
        <time>2019-07-07T08:54:55Z</time>
      </trkpt>
      <trkpt lat="42.4052829668" lon="19.8090838641">
        <ele>1643.51</ele>
        <time>2019-07-07T08:55:10Z</time>
      </trkpt>
      <trkpt lat="42.4053304084" lon="19.8090640828">
        <ele>1644.95</ele>
        <time>2019-07-07T08:55:21Z</time>
      </trkpt>
      <trkpt lat="42.4053527042" lon="19.8089722171">
        <ele>1646.40</ele>
        <time>2019-07-07T08:55:35Z</time>
      </trkpt>
      <trkpt lat="42.4053421430" lon="19.8090374283">
        <ele>1648.32</ele>
        <time>2019-07-07T08:55:47Z</time>
      </trkpt>
      <trkpt lat="42.4053394608" lon="19.8091900628">
        <ele>1650.24</ele>
        <time>2019-07-07T08:56:02Z</time>
      </trkpt>
      <trkpt lat="42.4053661991" lon="19.8093151208">
        <ele>1652.16</ele>
        <time>2019-07-07T08:56:15Z</time>
      </trkpt>
      <trkpt lat="42.4053808674" lon="19.8094119318">
        <ele>1654.09</ele>
        <time>2019-07-07T08:56:29Z</time>
      </trkpt>
      <trkpt lat="42.4054163229" lon="19.8094846029">
        <ele>1656.49</ele>
        <time>2019-07-07T08:56:44Z</time>
      </trkpt>
      <trkpt lat="42.4054325838" lon="19.8095715232">
        <ele>1658.41</ele>
        <time>2019-07-07T08:56:58Z</time>
      </trkpt>
      <trkpt lat="42.4054251239" lon="19.8096488044">
        <ele>1659.85</ele>
        <time>2019-07-07T08:57:10Z</time>
      </trkpt>
      <trkpt lat="42.4054361042" lon="19.8097200505">
        <ele>1662.26</ele>
        <time>2019-07-07T08:57:26Z</time>
      </trkpt>
      <trkpt lat="42.4054162391" lon="19.8097666539">
        <ele>1664.66</ele>
        <time>2019-07-07T08:57:38Z</time>
      </trkpt>
      <trkpt lat="42.4054143112" lon="19.8098564241">
        <ele>1666.58</ele>
        <time>2019-07-07T08:57:51Z</time>
      </trkpt>
      <trkpt lat="42.4054123834" lon="19.8099783808">
        <ele>1668.51</ele>
        <time>2019-07-07T08:58:04Z</time>
      </trkpt>
      <trkpt lat="42.4054141436" lon="19.8101009242">
        <ele>1669.95</ele>
        <time>2019-07-07T08:58:18Z</time>
      </trkpt>
      <trkpt lat="42.4054335896" lon="19.8101631179">
        <ele>1671.87</ele>
        <time>2019-07-07T08:58:29Z</time>
      </trkpt>
      <trkpt lat="42.4054374453" lon="19.8102843203">
        <ele>1673.31</ele>
        <time>2019-07-07T08:58:41Z</time>
      </trkpt>
      <trkpt lat="42.4054227769" lon="19.8103712406">
        <ele>1674.27</ele>
        <time>2019-07-07T08:58:53Z</time>
      </trkpt>
      <trkpt lat="42.4054510240" lon="19.8104747571">
        <ele>1676.68</ele>
        <time>2019-07-07T08:59:06Z</time>
      </trkpt>
      <trkpt lat="42.4054686259" lon="19.8105351906">
        <ele>1678.60</ele>
        <time>2019-07-07T08:59:18Z</time>
      </trkpt>
      <trkpt lat="42.4054796062" lon="19.8106170818">
        <ele>1680.04</ele>
        <time>2019-07-07T08:59:29Z</time>
      </trkpt>
      <trkpt lat="42.4054760858" lon="19.8106996436">
        <ele>1682.44</ele>
        <time>2019-07-07T08:59:41Z</time>
      </trkpt>
      <trkpt lat="42.4054677039" lon="19.8107874021">
        <ele>1683.89</ele>
        <time>2019-07-07T08:59:52Z</time>
      </trkpt>
      <trkpt lat="42.4054604955" lon="19.8109232727">
        <ele>1685.81</ele>
        <time>2019-07-07T09:00:07Z</time>
      </trkpt>
      <trkpt lat="42.4054983817" lon="19.8110144679">
        <ele>1687.25</ele>
        <time>2019-07-07T09:00:20Z</time>
      </trkpt>
      <trkpt lat="42.4055166543" lon="19.8111202475">
        <ele>1689.65</ele>
        <time>2019-07-07T09:00:33Z</time>
      </trkpt>
      <trkpt lat="42.4055645149" lon="19.8112547770">
        <ele>1691.58</ele>
        <time>2019-07-07T09:00:46Z</time>
      </trkpt>
      <trkpt lat="42.4055972043" lon="19.8113484867">
        <ele>1693.98</ele>
        <time>2019-07-07T09:00:57Z</time>
      </trkpt>
      <trkpt lat="42.4056187458" lon="19.8114258517">
        <ele>1695.90</ele>
        <time>2019-07-07T09:01:12Z</time>
      </trkpt>
      <trkpt lat="42.4056273792" lon="19.8114959244">
        <ele>1698.79</ele>
        <time>2019-07-07T09:01:27Z</time>
      </trkpt>
      <trkpt lat="42.4056423828" lon="19.8115722835">
        <ele>1701.67</ele>
        <time>2019-07-07T09:01:41Z</time>
      </trkpt>
      <trkpt lat="42.4056324922" lon="19.8116707709">
        <ele>1703.59</ele>
        <time>2019-07-07T09:01:55Z</time>
      </trkpt>
      <trkpt lat="42.4056804366" lon="19.8117325455">
        <ele>1706.96</ele>
        <time>2019-07-07T09:02:11Z</time>
      </trkpt>
      <trkpt lat="42.4057064205" lon="19.8117599543">
        <ele>1707.92</ele>
        <time>2019-07-07T09:02:17Z</time>
      </trkpt>
      <trkpt lat="42.4057214241" lon="19.8118317034">
        <ele>1709.84</ele>
        <time>2019-07-07T09:02:29Z</time>
      </trkpt>
      <trkpt lat="42.4057474080" lon="19.8119486310">
        <ele>1710.80</ele>
        <time>2019-07-07T09:02:40Z</time>
      </trkpt>
      <trkpt lat="42.4057563767" lon="19.8120898660">
        <ele>1713.21</ele>
        <time>2019-07-07T09:02:54Z</time>
      </trkpt>
      <trkpt lat="42.4057902396" lon="19.8121820670">
        <ele>1713.69</ele>
        <time>2019-07-07T09:03:03Z</time>
      </trkpt>
      <trkpt lat="42.4058385193" lon="19.8123186920">
        <ele>1715.61</ele>
        <time>2019-07-07T09:03:17Z</time>
      </trkpt>
      <trkpt lat="42.4058616534" lon="19.8123410717">
        <ele>1715.61</ele>
        <time>2019-07-07T09:03:21Z</time>
      </trkpt>
      <trkpt lat="42.4059178121" lon="19.8124559037">
        <ele>1718.49</ele>
        <time>2019-07-07T09:03:35Z</time>
      </trkpt>
      <trkpt lat="42.4059696961" lon="19.8125761840">
        <ele>1720.42</ele>
        <time>2019-07-07T09:03:49Z</time>
      </trkpt>
      <trkpt lat="42.4059991166" lon="19.8126416467">
        <ele>1722.82</ele>
        <time>2019-07-07T09:04:01Z</time>
      </trkpt>
      <trkpt lat="42.4060085882" lon="19.8127129767">
        <ele>1724.26</ele>
        <time>2019-07-07T09:04:13Z</time>
      </trkpt>
      <trkpt lat="42.4060729612" lon="19.8127603345">
        <ele>1727.15</ele>
        <time>2019-07-07T09:04:28Z</time>
      </trkpt>
      <trkpt lat="42.4061050639" lon="19.8128860630">
        <ele>1729.07</ele>
        <time>2019-07-07T09:04:41Z</time>
      </trkpt>
      <trkpt lat="42.4061361607" lon="19.8129593208">
        <ele>1730.99</ele>
        <time>2019-07-07T09:04:53Z</time>
      </trkpt>
      <trkpt lat="42.4061972648" lon="19.8130553775">
        <ele>1731.95</ele>
        <time>2019-07-07T09:05:04Z</time>
      </trkpt>
      <trkpt lat="42.4062288646" lon="19.8131539486">
        <ele>1733.88</ele>
        <time>2019-07-07T09:05:15Z</time>
      </trkpt>
      <trkpt lat="42.4061830994" lon="19.8132460658">
        <ele>1736.28</ele>
        <time>2019-07-07T09:05:30Z</time>
      </trkpt>
      <trkpt lat="42.4061248451" lon="19.8133170605">
        <ele>1737.72</ele>
        <time>2019-07-07T09:05:44Z</time>
      </trkpt>
      <trkpt lat="42.4061534274" lon="19.8133724649">
        <ele>1738.68</ele>
        <time>2019-07-07T09:05:55Z</time>
      </trkpt>
      <trkpt lat="42.4062162079" lon="19.8133942578">
        <ele>1740.60</ele>
        <time>2019-07-07T09:06:07Z</time>
      </trkpt>
      <trkpt lat="42.4062256794" lon="19.8134515900">
        <ele>1743.01</ele>
        <time>2019-07-07T09:06:18Z</time>
      </trkpt>
      <trkpt lat="42.4062343128" lon="19.8134762328">
        <ele>1743.49</ele>
        <time>2019-07-07T09:06:21Z</time>
      </trkpt>
      <trkpt lat="42.4062154535" lon="19.8135915678">
        <ele>1744.93</ele>
        <time>2019-07-07T09:06:34Z</time>
      </trkpt>
      <trkpt lat="42.4061852787" lon="19.8136668373">
        <ele>1746.85</ele>
        <time>2019-07-07T09:06:46Z</time>
      </trkpt>
      <trkpt lat="42.4061727896" lon="19.8137543444">
        <ele>1748.78</ele>
        <time>2019-07-07T09:06:59Z</time>
      </trkpt>
      <trkpt lat="42.4061379209" lon="19.8138424382">
        <ele>1751.18</ele>
        <time>2019-07-07T09:07:12Z</time>
      </trkpt>
      <trkpt lat="42.4060890544" lon="19.8138949089">
        <ele>1753.58</ele>
        <time>2019-07-07T09:07:25Z</time>
      </trkpt>
      <trkpt lat="42.4060794991" lon="19.8139464576">
        <ele>1755.02</ele>
        <time>2019-07-07T09:07:35Z</time>
      </trkpt>
      <trkpt lat="42.4060405232" lon="19.8140265048">
        <ele>1757.43</ele>
        <time>2019-07-07T09:07:49Z</time>
      </trkpt>
      <trkpt lat="42.4059841968" lon="19.8141035344">
        <ele>1759.35</ele>
        <time>2019-07-07T09:08:01Z</time>
      </trkpt>
      <trkpt lat="42.4059526809" lon="19.8141799774">
        <ele>1761.27</ele>
        <time>2019-07-07T09:08:14Z</time>
      </trkpt>
      <trkpt lat="42.4059800059" lon="19.8142169416">
        <ele>1762.71</ele>
        <time>2019-07-07T09:08:24Z</time>
      </trkpt>
      <trkpt lat="42.4059305526" lon="19.8143015150">
        <ele>1765.12</ele>
        <time>2019-07-07T09:08:40Z</time>
      </trkpt>
      <trkpt lat="42.4059375934" lon="19.8143909499">
        <ele>1767.52</ele>
        <time>2019-07-07T09:08:53Z</time>
      </trkpt>
      <trkpt lat="42.4059137888" lon="19.8144524731">
        <ele>1769.44</ele>
        <time>2019-07-07T09:09:05Z</time>
      </trkpt>
      <trkpt lat="42.4058862124" lon="19.8145321012">
        <ele>1771.85</ele>
        <time>2019-07-07T09:09:18Z</time>
      </trkpt>
      <trkpt lat="42.4058851227" lon="19.8145703226">
        <ele>1772.81</ele>
        <time>2019-07-07T09:09:29Z</time>
      </trkpt>
      <trkpt lat="42.4058474880" lon="19.8146410659">
        <ele>1774.73</ele>
        <time>2019-07-07T09:09:43Z</time>
      </trkpt>
      <trkpt lat="42.4058384355" lon="19.8147001583">
        <ele>1776.65</ele>
        <time>2019-07-07T09:09:55Z</time>
      </trkpt>
      <trkpt lat="42.4058213364" lon="19.8147572391">
        <ele>1779.06</ele>
        <time>2019-07-07T09:10:08Z</time>
      </trkpt>
      <trkpt lat="42.4057622440" lon="19.8148464225">
        <ele>1780.98</ele>
        <time>2019-07-07T09:10:20Z</time>
      </trkpt>
      <trkpt lat="42.4057324883" lon="19.8149096221">
        <ele>1782.42</ele>
        <time>2019-07-07T09:10:32Z</time>
      </trkpt>
      <trkpt lat="42.4057428818" lon="19.8149952013">
        <ele>1785.31</ele>
        <time>2019-07-07T09:10:44Z</time>
      </trkpt>
      <trkpt lat="42.4057360925" lon="19.8150029127">
        <ele>1785.31</ele>
        <time>2019-07-07T09:10:45Z</time>
      </trkpt>
      <trkpt lat="42.4056619965" lon="19.8150243703">
        <ele>1785.79</ele>
        <time>2019-07-07T09:11:01Z</time>
      </trkpt>
      <trkpt lat="42.4056334142" lon="19.8150700517">
        <ele>1787.23</ele>
        <time>2019-07-07T09:11:14Z</time>
      </trkpt>
      <trkpt lat="42.4056743179" lon="19.8151147272">
        <ele>1790.11</ele>
        <time>2019-07-07T09:11:28Z</time>
      </trkpt>
      <trkpt lat="42.4057129584" lon="19.8151368555">
        <ele>1791.55</ele>
        <time>2019-07-07T09:11:41Z</time>
      </trkpt>
      <trkpt lat="42.4057070073" lon="19.8151363526">
        <ele>1791.07</ele>
        <time>2019-07-07T09:12:13Z</time>
      </trkpt>
      <trkpt lat="42.4057195801" lon="19.8151447345">
        <ele>1791.07</ele>
        <time>2019-07-07T09:12:31Z</time>
      </trkpt>
      <trkpt lat="42.4057529401" lon="19.8151225224">
        <ele>1790.11</ele>
        <time>2019-07-07T09:12:45Z</time>
      </trkpt>
      <trkpt lat="42.4057536107" lon="19.8151283059">
        <ele>1790.11</ele>
        <time>2019-07-07T09:13:19Z</time>
      </trkpt>
      <trkpt lat="42.4057422951" lon="19.8151252046">
        <ele>1790.59</ele>
        <time>2019-07-07T09:13:49Z</time>
      </trkpt>
      <trkpt lat="42.4057427142" lon="19.8151056748">
        <ele>1790.59</ele>
        <time>2019-07-07T09:14:27Z</time>
      </trkpt>
      <trkpt lat="42.4057431333" lon="19.8150975443">
        <ele>1790.59</ele>
        <time>2019-07-07T09:14:54Z</time>
      </trkpt>
      <trkpt lat="42.4057401158" lon="19.8151262943">
        <ele>1791.07</ele>
        <time>2019-07-07T09:15:25Z</time>
      </trkpt>
      <trkpt lat="42.4057401158" lon="19.8151468299">
        <ele>1791.07</ele>
        <time>2019-07-07T09:15:54Z</time>
      </trkpt>
      <trkpt lat="42.4057581369" lon="19.8151419684">
        <ele>1791.07</ele>
        <time>2019-07-07T09:16:18Z</time>
      </trkpt>
      <trkpt lat="42.4057678599" lon="19.8151528649">
        <ele>1791.55</ele>
        <time>2019-07-07T09:16:48Z</time>
      </trkpt>
      <trkpt lat="42.4057609867" lon="19.8151620012">
        <ele>1791.07</ele>
        <time>2019-07-07T09:17:23Z</time>
      </trkpt>
      <trkpt lat="42.4057695363" lon="19.8151315749">
        <ele>1791.55</ele>
        <time>2019-07-07T09:17:54Z</time>
      </trkpt>
      <trkpt lat="42.4057593103" lon="19.8151122127">
        <ele>1792.03</ele>
        <time>2019-07-07T09:18:24Z</time>
      </trkpt>
      <trkpt lat="42.4057523534" lon="19.8151272163">
        <ele>1792.52</ele>
        <time>2019-07-07T09:18:54Z</time>
      </trkpt>
      <trkpt lat="42.4057400320" lon="19.8151301499">
        <ele>1792.52</ele>
        <time>2019-07-07T09:19:25Z</time>
      </trkpt>
      <trkpt lat="42.4057733919" lon="19.8151210137">
        <ele>1793.00</ele>
        <time>2019-07-07T09:19:55Z</time>
      </trkpt>
      <trkpt lat="42.4057532754" lon="19.8151637614">
        <ele>1793.48</ele>
        <time>2019-07-07T09:20:22Z</time>
      </trkpt>
      <trkpt lat="42.4057600647" lon="19.8151394539">
        <ele>1793.48</ele>
        <time>2019-07-07T09:20:54Z</time>
      </trkpt>
      <trkpt lat="42.4057522696" lon="19.8151210137">
        <ele>1793.48</ele>
        <time>2019-07-07T09:21:25Z</time>
      </trkpt>
      <trkpt lat="42.4057563767" lon="19.8151311558">
        <ele>1793.96</ele>
        <time>2019-07-07T09:21:46Z</time>
      </trkpt>
      <trkpt lat="42.4057470728" lon="19.8151301499">
        <ele>1793.96</ele>
        <time>2019-07-07T09:22:24Z</time>
      </trkpt>
      <trkpt lat="42.4057464022" lon="19.8151326645">
        <ele>1794.44</ele>
        <time>2019-07-07T09:22:56Z</time>
      </trkpt>
      <trkpt lat="42.4057487492" lon="19.8151683714">
        <ele>1794.92</ele>
        <time>2019-07-07T09:23:28Z</time>
      </trkpt>
      <trkpt lat="42.4057449773" lon="19.8151565529">
        <ele>1794.92</ele>
        <time>2019-07-07T09:24:00Z</time>
      </trkpt>
      <trkpt lat="42.4057514314" lon="19.8151345085">
        <ele>1794.92</ele>
        <time>2019-07-07T09:24:29Z</time>
      </trkpt>
      <trkpt lat="42.4057601485" lon="19.8151179124">
        <ele>1795.40</ele>
        <time>2019-07-07T09:24:55Z</time>
      </trkpt>
      <trkpt lat="42.4057635013" lon="19.8151343409">
        <ele>1795.88</ele>
        <time>2019-07-07T09:25:18Z</time>
      </trkpt>
      <trkpt lat="42.4057692010" lon="19.8151250370">
        <ele>1796.36</ele>
        <time>2019-07-07T09:25:44Z</time>
      </trkpt>
      <trkpt lat="42.4057755712" lon="19.8151388671">
        <ele>1797.80</ele>
        <time>2019-07-07T09:25:59Z</time>
      </trkpt>
      <trkpt lat="42.4057646748" lon="19.8151683714">
        <ele>1797.80</ele>
        <time>2019-07-07T09:26:02Z</time>
      </trkpt>
      <trkpt lat="42.4057894852" lon="19.8151697963">
        <ele>1796.84</ele>
        <time>2019-07-07T09:26:05Z</time>
      </trkpt>
      <trkpt lat="42.4058251083" lon="19.8151540384">
        <ele>1796.36</ele>
        <time>2019-07-07T09:26:17Z</time>
      </trkpt>
      <trkpt lat="42.4059336539" lon="19.8151153140">
        <ele>1795.88</ele>
        <time>2019-07-07T09:26:33Z</time>
      </trkpt>
      <trkpt lat="42.4059468973" lon="19.8151037470">
        <ele>1795.40</ele>
        <time>2019-07-07T09:26:49Z</time>
      </trkpt>
      <trkpt lat="42.4059555307" lon="19.8150951136">
        <ele>1795.88</ele>
        <time>2019-07-07T09:27:13Z</time>
      </trkpt>
      <trkpt lat="42.4059566204" lon="19.8150902521">
        <ele>1795.88</ele>
        <time>2019-07-07T09:27:15Z</time>
      </trkpt>
      <trkpt lat="42.4059864599" lon="19.8150834627">
        <ele>1795.88</ele>
        <time>2019-07-07T09:27:18Z</time>
      </trkpt>
      <trkpt lat="42.4060561135" lon="19.8150909226">
        <ele>1794.92</ele>
        <time>2019-07-07T09:27:24Z</time>
      </trkpt>
      <trkpt lat="42.4061261024" lon="19.8150868993">
        <ele>1793.48</ele>
        <time>2019-07-07T09:27:30Z</time>
      </trkpt>
      <trkpt lat="42.4063382484" lon="19.8150673695">
        <ele>1791.55</ele>
        <time>2019-07-07T09:27:48Z</time>
      </trkpt>
      <trkpt lat="42.4063856062" lon="19.8150096182">
        <ele>1791.55</ele>
        <time>2019-07-07T09:27:54Z</time>
      </trkpt>
      <trkpt lat="42.4064240791" lon="19.8149718158">
        <ele>1791.55</ele>
        <time>2019-07-07T09:27:58Z</time>
      </trkpt>
      <trkpt lat="42.4064674973" lon="19.8148242943">
        <ele>1793.00</ele>
        <time>2019-07-07T09:28:09Z</time>
      </trkpt>
      <trkpt lat="42.4065567646" lon="19.8147590831">
        <ele>1791.55</ele>
        <time>2019-07-07T09:28:19Z</time>
      </trkpt>
      <trkpt lat="42.4065726064" lon="19.8147677165">
        <ele>1791.07</ele>
        <time>2019-07-07T09:28:32Z</time>
      </trkpt>
      <trkpt lat="42.4065833353" lon="19.8147697281">
        <ele>1791.07</ele>
        <time>2019-07-07T09:28:34Z</time>
      </trkpt>
      <trkpt lat="42.4066067208" lon="19.8147422355">
        <ele>1790.59</ele>
        <time>2019-07-07T09:28:37Z</time>
      </trkpt>
      <trkpt lat="42.4066428468" lon="19.8146989010">
        <ele>1789.63</ele>
        <time>2019-07-07T09:28:41Z</time>
      </trkpt>
      <trkpt lat="42.4066687468" lon="19.8146855738">
        <ele>1789.15</ele>
        <time>2019-07-07T09:28:43Z</time>
      </trkpt>
      <trkpt lat="42.4066876061" lon="19.8146654572">
        <ele>1788.67</ele>
        <time>2019-07-07T09:28:45Z</time>
      </trkpt>
      <trkpt lat="42.4067855906" lon="19.8145740107">
        <ele>1787.71</ele>
        <time>2019-07-07T09:28:57Z</time>
      </trkpt>
      <trkpt lat="42.4068332836" lon="19.8145683948">
        <ele>1787.71</ele>
        <time>2019-07-07T09:29:01Z</time>
      </trkpt>
      <trkpt lat="42.4068891071" lon="19.8144889344">
        <ele>1786.27</ele>
        <time>2019-07-07T09:29:08Z</time>
      </trkpt>
      <trkpt lat="42.4069474451" lon="19.8144601006">
        <ele>1786.75</ele>
        <time>2019-07-07T09:29:13Z</time>
      </trkpt>
      <trkpt lat="42.4070224632" lon="19.8144666385">
        <ele>1785.31</ele>
        <time>2019-07-07T09:29:18Z</time>
      </trkpt>
      <trkpt lat="42.4072064459" lon="19.8143948894">
        <ele>1785.79</ele>
        <time>2019-07-07T09:29:32Z</time>
      </trkpt>
      <trkpt lat="42.4072802067" lon="19.8143658880">
        <ele>1785.31</ele>
        <time>2019-07-07T09:29:38Z</time>
      </trkpt>
      <trkpt lat="42.4073577393" lon="19.8143413290">
        <ele>1785.31</ele>
        <time>2019-07-07T09:29:45Z</time>
      </trkpt>
      <trkpt lat="42.4075313285" lon="19.8141948134">
        <ele>1783.86</ele>
        <time>2019-07-07T09:30:01Z</time>
      </trkpt>
      <trkpt lat="42.4075413868" lon="19.8141893651">
        <ele>1783.38</ele>
        <time>2019-07-07T09:30:02Z</time>
      </trkpt>
      <trkpt lat="42.4076661095" lon="19.8142073024">
        <ele>1780.50</ele>
        <time>2019-07-07T09:30:13Z</time>
      </trkpt>
      <trkpt lat="42.4077060912" lon="19.8142047878">
        <ele>1780.50</ele>
        <time>2019-07-07T09:30:16Z</time>
      </trkpt>
      <trkpt lat="42.4077686202" lon="19.8141328711">
        <ele>1780.02</ele>
        <time>2019-07-07T09:30:23Z</time>
      </trkpt>
      <trkpt lat="42.4079123698" lon="19.8141037859">
        <ele>1778.58</ele>
        <time>2019-07-07T09:30:37Z</time>
      </trkpt>
      <trkpt lat="42.4079782516" lon="19.8140366469">
        <ele>1777.61</ele>
        <time>2019-07-07T09:30:44Z</time>
      </trkpt>
      <trkpt lat="42.4080344941" lon="19.8140463699">
        <ele>1776.17</ele>
        <time>2019-07-07T09:30:49Z</time>
      </trkpt>
      <trkpt lat="42.4081529304" lon="19.8140331265">
        <ele>1773.29</ele>
        <time>2019-07-07T09:31:04Z</time>
      </trkpt>
      <trkpt lat="42.4081613123" lon="19.8140574340">
        <ele>1772.81</ele>
        <time>2019-07-07T09:31:07Z</time>
      </trkpt>
      <trkpt lat="42.4081912357" lon="19.8141260818">
        <ele>1770.89</ele>
        <time>2019-07-07T09:31:19Z</time>
      </trkpt>
      <trkpt lat="42.4081995338" lon="19.8141047917">
        <ele>1770.89</ele>
        <time>2019-07-07T09:31:22Z</time>
      </trkpt>
      <trkpt lat="42.4082147889" lon="19.8139871098">
        <ele>1768.48</ele>
        <time>2019-07-07T09:31:29Z</time>
      </trkpt>
      <trkpt lat="42.4082582910" lon="19.8138559330">
        <ele>1767.52</ele>
        <time>2019-07-07T09:31:41Z</time>
      </trkpt>
      <trkpt lat="42.4082504958" lon="19.8138350621">
        <ele>1768.96</ele>
        <time>2019-07-07T09:31:44Z</time>
      </trkpt>
      <trkpt lat="42.4082412757" lon="19.8137987684">
        <ele>1769.44</ele>
        <time>2019-07-07T09:31:48Z</time>
      </trkpt>
      <trkpt lat="42.4082253501" lon="19.8136471398">
        <ele>1768.00</ele>
        <time>2019-07-07T09:32:00Z</time>
      </trkpt>
      <trkpt lat="42.4082262721" lon="19.8136176355">
        <ele>1768.00</ele>
        <time>2019-07-07T09:32:02Z</time>
      </trkpt>
      <trkpt lat="42.4082330614" lon="19.8135460541">
        <ele>1767.52</ele>
        <time>2019-07-07T09:32:08Z</time>
      </trkpt>
      <trkpt lat="42.4082913157" lon="19.8135241773">
        <ele>1766.56</ele>
        <time>2019-07-07T09:32:11Z</time>
      </trkpt>
      <trkpt lat="42.4083831813" lon="19.8134548590">
        <ele>1764.64</ele>
        <time>2019-07-07T09:32:20Z</time>
      </trkpt>
      <trkpt lat="42.4083992746" lon="19.8134562001">
        <ele>1763.68</ele>
        <time>2019-07-07T09:32:22Z</time>
      </trkpt>
      <trkpt lat="42.4084146135" lon="19.8134457227">
        <ele>1763.68</ele>
        <time>2019-07-07T09:32:24Z</time>
      </trkpt>
      <trkpt lat="42.4084657431" lon="19.8134287912">
        <ele>1761.75</ele>
        <time>2019-07-07T09:32:30Z</time>
      </trkpt>
      <trkpt lat="42.4084934872" lon="19.8133666813">
        <ele>1760.79</ele>
        <time>2019-07-07T09:32:36Z</time>
      </trkpt>
      <trkpt lat="42.4084957503" lon="19.8133222573">
        <ele>1760.31</ele>
        <time>2019-07-07T09:32:39Z</time>
      </trkpt>
      <trkpt lat="42.4085182976" lon="19.8132332414">
        <ele>1760.31</ele>
        <time>2019-07-07T09:32:45Z</time>
      </trkpt>
      <trkpt lat="42.4085246678" lon="19.8131709639">
        <ele>1759.83</ele>
        <time>2019-07-07T09:32:49Z</time>
      </trkpt>
      <trkpt lat="42.4085607938" lon="19.8130926769">
        <ele>1759.35</ele>
        <time>2019-07-07T09:32:54Z</time>
      </trkpt>
      <trkpt lat="42.4085585307" lon="19.8129570577">
        <ele>1758.39</ele>
        <time>2019-07-07T09:33:03Z</time>
      </trkpt>
      <trkpt lat="42.4085566029" lon="19.8128925171">
        <ele>1758.39</ele>
        <time>2019-07-07T09:33:07Z</time>
      </trkpt>
      <trkpt lat="42.4085660744" lon="19.8127510305">
        <ele>1759.83</ele>
        <time>2019-07-07T09:33:22Z</time>
      </trkpt>
      <trkpt lat="42.4085834250" lon="19.8126801196">
        <ele>1758.87</ele>
        <time>2019-07-07T09:33:30Z</time>
      </trkpt>
      <trkpt lat="42.4085862748" lon="19.8126713187">
        <ele>1758.39</ele>
        <time>2019-07-07T09:33:31Z</time>
      </trkpt>
      <trkpt lat="42.4085962493" lon="19.8126141541">
        <ele>1757.43</ele>
        <time>2019-07-07T09:33:35Z</time>
      </trkpt>
      <trkpt lat="42.4086668249" lon="19.8124988191">
        <ele>1755.50</ele>
        <time>2019-07-07T09:33:41Z</time>
      </trkpt>
      <trkpt lat="42.4086541682" lon="19.8124493659">
        <ele>1755.50</ele>
        <time>2019-07-07T09:33:45Z</time>
      </trkpt>
      <trkpt lat="42.4086338840" lon="19.8123202845">
        <ele>1755.02</ele>
        <time>2019-07-07T09:33:57Z</time>
      </trkpt>
      <trkpt lat="42.4086673278" lon="19.8122892715">
        <ele>1755.02</ele>
        <time>2019-07-07T09:34:02Z</time>
      </trkpt>
      <trkpt lat="42.4087578524" lon="19.8122610245">
        <ele>1754.54</ele>
        <time>2019-07-07T09:34:10Z</time>
      </trkpt>
      <trkpt lat="42.4089337047" lon="19.8122927919">
        <ele>1755.50</ele>
        <time>2019-07-07T09:34:23Z</time>
      </trkpt>
      <trkpt lat="42.4089920428" lon="19.8122668080">
        <ele>1755.99</ele>
        <time>2019-07-07T09:34:27Z</time>
      </trkpt>
      <trkpt lat="42.4090420827" lon="19.8121936340">
        <ele>1755.99</ele>
        <time>2019-07-07T09:34:34Z</time>
      </trkpt>
      <trkpt lat="42.4091089703" lon="19.8121785466">
        <ele>1755.02</ele>
        <time>2019-07-07T09:34:41Z</time>
      </trkpt>
      <trkpt lat="42.4091735948" lon="19.8121010978">
        <ele>1755.99</ele>
        <time>2019-07-07T09:34:54Z</time>
      </trkpt>
      <trkpt lat="42.4092315976" lon="19.8121177778">
        <ele>1756.47</ele>
        <time>2019-07-07T09:35:01Z</time>
      </trkpt>
      <trkpt lat="42.4092498701" lon="19.8121043667">
        <ele>1754.54</ele>
        <time>2019-07-07T09:35:03Z</time>
      </trkpt>
      <trkpt lat="42.4092811346" lon="19.8120108247">
        <ele>1752.62</ele>
        <time>2019-07-07T09:35:16Z</time>
      </trkpt>
      <trkpt lat="42.4092590064" lon="19.8119428474">
        <ele>1751.18</ele>
        <time>2019-07-07T09:35:21Z</time>
      </trkpt>
      <trkpt lat="42.4092975631" lon="19.8117934819">
        <ele>1748.29</ele>
        <time>2019-07-07T09:35:34Z</time>
      </trkpt>
      <trkpt lat="42.4093560688" lon="19.8117107525">
        <ele>1745.41</ele>
        <time>2019-07-07T09:35:46Z</time>
      </trkpt>
      <trkpt lat="42.4094332661" lon="19.8116182163">
        <ele>1742.05</ele>
        <time>2019-07-07T09:35:58Z</time>
      </trkpt>
      <trkpt lat="42.4094460905" lon="19.8115955852">
        <ele>1742.05</ele>
        <time>2019-07-07T09:36:16Z</time>
      </trkpt>
      <trkpt lat="42.4094375409" lon="19.8115958367">
        <ele>1742.05</ele>
        <time>2019-07-07T09:36:35Z</time>
      </trkpt>
      <trkpt lat="42.4094151612" lon="19.8116016202">
        <ele>1742.05</ele>
        <time>2019-07-07T09:36:59Z</time>
      </trkpt>
      <trkpt lat="42.4094647821" lon="19.8115457129">
        <ele>1739.64</ele>
        <time>2019-07-07T09:37:14Z</time>
      </trkpt>
      <trkpt lat="42.4095475115" lon="19.8114318866">
        <ele>1736.28</ele>
        <time>2019-07-07T09:37:26Z</time>
      </trkpt>
      <trkpt lat="42.4096602481" lon="19.8114311323">
        <ele>1734.84</ele>
        <time>2019-07-07T09:37:36Z</time>
      </trkpt>
      <trkpt lat="42.4096826278" lon="19.8114357423">
        <ele>1734.36</ele>
        <time>2019-07-07T09:37:38Z</time>
      </trkpt>
      <trkpt lat="42.4097579811" lon="19.8113617301">
        <ele>1731.47</ele>
        <time>2019-07-07T09:37:49Z</time>
      </trkpt>
      <trkpt lat="42.4097701348" lon="19.8113680165">
        <ele>1730.51</ele>
        <time>2019-07-07T09:38:04Z</time>
      </trkpt>
      <trkpt lat="42.4097891618" lon="19.8113505822">
        <ele>1729.07</ele>
        <time>2019-07-07T09:38:25Z</time>
      </trkpt>
      <trkpt lat="42.4098625034" lon="19.8113033921">
        <ele>1725.70</ele>
        <time>2019-07-07T09:38:36Z</time>
      </trkpt>
      <trkpt lat="42.4098936003" lon="19.8113270290">
        <ele>1722.34</ele>
        <time>2019-07-07T09:38:48Z</time>
      </trkpt>
      <trkpt lat="42.4098936841" lon="19.8114233371">
        <ele>1719.94</ele>
        <time>2019-07-07T09:38:57Z</time>
      </trkpt>
      <trkpt lat="42.4098956957" lon="19.8114525061">
        <ele>1719.46</ele>
        <time>2019-07-07T09:38:59Z</time>
      </trkpt>
      <trkpt lat="42.4099624995" lon="19.8114336468">
        <ele>1717.05</ele>
        <time>2019-07-07T09:39:11Z</time>
      </trkpt>
      <trkpt lat="42.4099837057" lon="19.8114890512">
        <ele>1715.13</ele>
        <time>2019-07-07T09:39:23Z</time>
      </trkpt>
      <trkpt lat="42.4100136291" lon="19.8114184756">
        <ele>1713.21</ele>
        <time>2019-07-07T09:39:30Z</time>
      </trkpt>
      <trkpt lat="42.4100479111" lon="19.8114454653">
        <ele>1710.80</ele>
        <time>2019-07-07T09:39:41Z</time>
      </trkpt>
      <trkpt lat="42.4100466538" lon="19.8114577029">
        <ele>1709.84</ele>
        <time>2019-07-07T09:39:42Z</time>
      </trkpt>
      <trkpt lat="42.4100918323" lon="19.8114192300">
        <ele>1706.96</ele>
        <time>2019-07-07T09:39:53Z</time>
      </trkpt>
      <trkpt lat="42.4101013038" lon="19.8114076629">
        <ele>1706.00</ele>
        <time>2019-07-07T09:39:55Z</time>
      </trkpt>
      <trkpt lat="42.4101392739" lon="19.8114454653">
        <ele>1704.07</ele>
        <time>2019-07-07T09:40:06Z</time>
      </trkpt>
      <trkpt lat="42.4101591390" lon="19.8115353193">
        <ele>1701.67</ele>
        <time>2019-07-07T09:40:18Z</time>
      </trkpt>
      <trkpt lat="42.4102072511" lon="19.8115550168">
        <ele>1698.31</ele>
        <time>2019-07-07T09:40:29Z</time>
      </trkpt>
      <trkpt lat="42.4102459755" lon="19.8115781508">
        <ele>1695.90</ele>
        <time>2019-07-07T09:40:39Z</time>
      </trkpt>
      <trkpt lat="42.4103049003" lon="19.8115716968">
        <ele>1693.02</ele>
        <time>2019-07-07T09:40:51Z</time>
      </trkpt>
      <trkpt lat="42.4102884717" lon="19.8117022030">
        <ele>1690.14</ele>
        <time>2019-07-07T09:41:04Z</time>
      </trkpt>
      <trkpt lat="42.4103207421" lon="19.8117411789">
        <ele>1688.21</ele>
        <time>2019-07-07T09:41:15Z</time>
      </trkpt>
      <trkpt lat="42.4103256874" lon="19.8117361497">
        <ele>1688.21</ele>
        <time>2019-07-07T09:41:16Z</time>
      </trkpt>
      <trkpt lat="42.4103976879" lon="19.8117402568">
        <ele>1684.37</ele>
        <time>2019-07-07T09:41:29Z</time>
      </trkpt>
      <trkpt lat="42.4103749730" lon="19.8118077312">
        <ele>1682.44</ele>
        <time>2019-07-07T09:41:39Z</time>
      </trkpt>
      <trkpt lat="42.4103784095" lon="19.8118581902">
        <ele>1680.52</ele>
        <time>2019-07-07T09:41:51Z</time>
      </trkpt>
      <trkpt lat="42.4103882164" lon="19.8118653987">
        <ele>1680.04</ele>
        <time>2019-07-07T09:41:53Z</time>
      </trkpt>
      <trkpt lat="42.4103909824" lon="19.8119052127">
        <ele>1678.12</ele>
        <time>2019-07-07T09:42:04Z</time>
      </trkpt>
      <trkpt lat="42.4103280343" lon="19.8119853437">
        <ele>1675.23</ele>
        <time>2019-07-07T09:42:15Z</time>
      </trkpt>
      <trkpt lat="42.4103177246" lon="19.8121003434">
        <ele>1671.39</ele>
        <time>2019-07-07T09:42:28Z</time>
      </trkpt>
      <trkpt lat="42.4103188142" lon="19.8121281713">
        <ele>1670.43</ele>
        <time>2019-07-07T09:42:34Z</time>
      </trkpt>
      <trkpt lat="42.4102877174" lon="19.8122453503">
        <ele>1667.06</ele>
        <time>2019-07-07T09:42:48Z</time>
      </trkpt>
      <trkpt lat="42.4102835264" lon="19.8123305943">
        <ele>1664.66</ele>
        <time>2019-07-07T09:42:59Z</time>
      </trkpt>
      <trkpt lat="42.4102758989" lon="19.8123546503">
        <ele>1664.18</ele>
        <time>2019-07-07T09:43:01Z</time>
      </trkpt>
      <trkpt lat="42.4102750607" lon="19.8124048579">
        <ele>1662.74</ele>
        <time>2019-07-07T09:43:05Z</time>
      </trkpt>
      <trkpt lat="42.4101900682" lon="19.8125244677">
        <ele>1659.37</ele>
        <time>2019-07-07T09:43:18Z</time>
      </trkpt>
      <trkpt lat="42.4102138728" lon="19.8125636950">
        <ele>1656.97</ele>
        <time>2019-07-07T09:43:28Z</time>
      </trkpt>
      <trkpt lat="42.4102720432" lon="19.8125650361">
        <ele>1655.53</ele>
        <time>2019-07-07T09:43:35Z</time>
      </trkpt>
      <trkpt lat="42.4103046488" lon="19.8125743400">
        <ele>1653.60</ele>
        <time>2019-07-07T09:43:41Z</time>
      </trkpt>
      <trkpt lat="42.4102278706" lon="19.8127633519">
        <ele>1650.72</ele>
        <time>2019-07-07T09:43:57Z</time>
      </trkpt>
      <trkpt lat="42.4102189019" lon="19.8128250428">
        <ele>1649.76</ele>
        <time>2019-07-07T09:44:03Z</time>
      </trkpt>
      <trkpt lat="42.4101864640" lon="19.8129170761">
        <ele>1647.36</ele>
        <time>2019-07-07T09:44:14Z</time>
      </trkpt>
      <trkpt lat="42.4102093466" lon="19.8129736539">
        <ele>1645.43</ele>
        <time>2019-07-07T09:44:24Z</time>
      </trkpt>
      <trkpt lat="42.4102844484" lon="19.8129820358">
        <ele>1643.03</ele>
        <time>2019-07-07T09:44:36Z</time>
      </trkpt>
      <trkpt lat="42.4102712050" lon="19.8130011465">
        <ele>1643.03</ele>
        <time>2019-07-07T09:44:39Z</time>
      </trkpt>
      <trkpt lat="42.4102499150" lon="19.8130577244">
        <ele>1641.11</ele>
        <time>2019-07-07T09:44:45Z</time>
      </trkpt>
      <trkpt lat="42.4103549402" lon="19.8130745720">
        <ele>1638.22</ele>
        <time>2019-07-07T09:44:58Z</time>
      </trkpt>
      <trkpt lat="42.4103404395" lon="19.8131320719">
        <ele>1636.78</ele>
        <time>2019-07-07T09:45:03Z</time>
      </trkpt>
      <trkpt lat="42.4102801736" lon="19.8132561240">
        <ele>1633.90</ele>
        <time>2019-07-07T09:45:16Z</time>
      </trkpt>
      <trkpt lat="42.4103239272" lon="19.8132712115">
        <ele>1632.46</ele>
        <time>2019-07-07T09:45:23Z</time>
      </trkpt>
      <trkpt lat="42.4103918206" lon="19.8132797610">
        <ele>1631.01</ele>
        <time>2019-07-07T09:45:34Z</time>
      </trkpt>
      <trkpt lat="42.4103708658" lon="19.8133575451">
        <ele>1628.61</ele>
        <time>2019-07-07T09:45:43Z</time>
      </trkpt>
      <trkpt lat="42.4103667587" lon="19.8133850377">
        <ele>1628.13</ele>
        <time>2019-07-07T09:45:45Z</time>
      </trkpt>
      <trkpt lat="42.4103850313" lon="19.8133989517">
        <ele>1627.65</ele>
        <time>2019-07-07T09:45:47Z</time>
      </trkpt>
      <trkpt lat="42.4104675092" lon="19.8133784160">
        <ele>1625.73</ele>
        <time>2019-07-07T09:45:57Z</time>
      </trkpt>
      <trkpt lat="42.4105581176" lon="19.8134002928">
        <ele>1622.36</ele>
        <time>2019-07-07T09:46:10Z</time>
      </trkpt>
      <trkpt lat="42.4105194770" lon="19.8135259375">
        <ele>1619.48</ele>
        <time>2019-07-07T09:46:24Z</time>
      </trkpt>
      <trkpt lat="42.4104836863" lon="19.8136573657">
        <ele>1616.11</ele>
        <time>2019-07-07T09:46:37Z</time>
      </trkpt>
      <trkpt lat="42.4105130229" lon="19.8136376683">
        <ele>1615.15</ele>
        <time>2019-07-07T09:46:42Z</time>
      </trkpt>
      <trkpt lat="42.4105472211" lon="19.8136810027">
        <ele>1613.23</ele>
        <time>2019-07-07T09:46:51Z</time>
      </trkpt>
      <trkpt lat="42.4105579499" lon="19.8137626424">
        <ele>1611.79</ele>
        <time>2019-07-07T09:47:01Z</time>
      </trkpt>
      <trkpt lat="42.4106279388" lon="19.8137400951">
        <ele>1610.35</ele>
        <time>2019-07-07T09:47:09Z</time>
      </trkpt>
      <trkpt lat="42.4106645677" lon="19.8137689289">
        <ele>1608.90</ele>
        <time>2019-07-07T09:47:17Z</time>
      </trkpt>
      <trkpt lat="42.4107307009" lon="19.8138026241">
        <ele>1606.50</ele>
        <time>2019-07-07T09:47:29Z</time>
      </trkpt>
      <trkpt lat="42.4107325450" lon="19.8138596211">
        <ele>1604.58</ele>
        <time>2019-07-07T09:47:34Z</time>
      </trkpt>
      <trkpt lat="42.4106960837" lon="19.8139827512">
        <ele>1601.69</ele>
        <time>2019-07-07T09:47:45Z</time>
      </trkpt>
      <trkpt lat="42.4107121769" lon="19.8140118364">
        <ele>1601.69</ele>
        <time>2019-07-07T09:47:48Z</time>
      </trkpt>
      <trkpt lat="42.4107972533" lon="19.8140187096">
        <ele>1600.25</ele>
        <time>2019-07-07T09:47:57Z</time>
      </trkpt>
      <trkpt lat="42.4109118339" lon="19.8139674123">
        <ele>1596.89</ele>
        <time>2019-07-07T09:48:07Z</time>
      </trkpt>
      <trkpt lat="42.4109757878" lon="19.8139900435">
        <ele>1595.45</ele>
        <time>2019-07-07T09:48:12Z</time>
      </trkpt>
      <trkpt lat="42.4109437689" lon="19.8141373973">
        <ele>1592.56</ele>
        <time>2019-07-07T09:48:22Z</time>
      </trkpt>
      <trkpt lat="42.4109348841" lon="19.8143228050">
        <ele>1588.72</ele>
        <time>2019-07-07T09:48:36Z</time>
      </trkpt>
      <trkpt lat="42.4109426793" lon="19.8143294267">
        <ele>1588.72</ele>
        <time>2019-07-07T09:48:37Z</time>
      </trkpt>
      <trkpt lat="42.4109754525" lon="19.8143730965">
        <ele>1586.79</ele>
        <time>2019-07-07T09:48:44Z</time>
      </trkpt>
      <trkpt lat="42.4110041186" lon="19.8145076260">
        <ele>1583.43</ele>
        <time>2019-07-07T09:48:57Z</time>
      </trkpt>
      <trkpt lat="42.4110339582" lon="19.8146257270">
        <ele>1580.54</ele>
        <time>2019-07-07T09:49:08Z</time>
      </trkpt>
      <trkpt lat="42.4111236446" lon="19.8147320934">
        <ele>1576.70</ele>
        <time>2019-07-07T09:49:20Z</time>
      </trkpt>
      <trkpt lat="42.4111698288" lon="19.8148322571">
        <ele>1573.33</ele>
        <time>2019-07-07T09:49:30Z</time>
      </trkpt>
      <trkpt lat="42.4111691583" lon="19.8149020784">
        <ele>1572.37</ele>
        <time>2019-07-07T09:49:35Z</time>
      </trkpt>
      <trkpt lat="42.4111744389" lon="19.8149380367">
        <ele>1571.41</ele>
        <time>2019-07-07T09:49:38Z</time>
      </trkpt>
      <trkpt lat="42.4112691544" lon="19.8150156531">
        <ele>1568.53</ele>
        <time>2019-07-07T09:49:49Z</time>
      </trkpt>
      <trkpt lat="42.4112829007" lon="19.8151034117">
        <ele>1567.09</ele>
        <time>2019-07-07T09:49:56Z</time>
      </trkpt>
      <trkpt lat="42.4113468546" lon="19.8151158169">
        <ele>1565.64</ele>
        <time>2019-07-07T09:50:02Z</time>
      </trkpt>
      <trkpt lat="42.4113657139" lon="19.8151260428">
        <ele>1565.64</ele>
        <time>2019-07-07T09:50:04Z</time>
      </trkpt>
      <trkpt lat="42.4114754330" lon="19.8151685391">
        <ele>1562.28</ele>
        <time>2019-07-07T09:50:14Z</time>
      </trkpt>
      <trkpt lat="42.4114799593" lon="19.8152533639">
        <ele>1561.32</ele>
        <time>2019-07-07T09:50:20Z</time>
      </trkpt>
      <trkpt lat="42.4115161691" lon="19.8153889831">
        <ele>1557.95</ele>
        <time>2019-07-07T09:50:31Z</time>
      </trkpt>
      <trkpt lat="42.4115237966" lon="19.8154007178">
        <ele>1557.95</ele>
        <time>2019-07-07T09:50:32Z</time>
      </trkpt>
      <trkpt lat="42.4115470145" lon="19.8154422920">
        <ele>1556.99</ele>
        <time>2019-07-07T09:50:36Z</time>
      </trkpt>
      <trkpt lat="42.4115335196" lon="19.8154851235">
        <ele>1556.99</ele>
        <time>2019-07-07T09:50:39Z</time>
      </trkpt>
      <trkpt lat="42.4115388002" lon="19.8155170586">
        <ele>1555.55</ele>
        <time>2019-07-07T09:50:41Z</time>
      </trkpt>
      <trkpt lat="42.4115835596" lon="19.8155306373">
        <ele>1554.11</ele>
        <time>2019-07-07T09:50:46Z</time>
      </trkpt>
      <trkpt lat="42.4115974735" lon="19.8155707866">
        <ele>1553.15</ele>
        <time>2019-07-07T09:50:49Z</time>
      </trkpt>
      <trkpt lat="42.4116494413" lon="19.8156049009">
        <ele>1552.19</ele>
        <time>2019-07-07T09:50:54Z</time>
      </trkpt>
      <trkpt lat="42.4116648640" lon="19.8156310525">
        <ele>1551.71</ele>
        <time>2019-07-07T09:50:56Z</time>
      </trkpt>
      <trkpt lat="42.4116965476" lon="19.8157121893">
        <ele>1551.71</ele>
        <time>2019-07-07T09:51:03Z</time>
      </trkpt>
      <trkpt lat="42.4117226154" lon="19.8157588765">
        <ele>1550.26</ele>
        <time>2019-07-07T09:51:07Z</time>
      </trkpt>
      <trkpt lat="42.4117090367" lon="19.8159391712">
        <ele>1548.82</ele>
        <time>2019-07-07T09:51:20Z</time>
      </trkpt>
      <trkpt lat="42.4117122218" lon="19.8159680888">
        <ele>1548.82</ele>
        <time>2019-07-07T09:51:22Z</time>
      </trkpt>
      <trkpt lat="42.4117392115" lon="19.8161067255">
        <ele>1548.82</ele>
        <time>2019-07-07T09:51:32Z</time>
      </trkpt>
      <trkpt lat="42.4117355235" lon="19.8161830846">
        <ele>1547.86</ele>
        <time>2019-07-07T09:51:37Z</time>
      </trkpt>
      <trkpt lat="42.4117652792" lon="19.8162836675">
        <ele>1546.90</ele>
        <time>2019-07-07T09:51:44Z</time>
      </trkpt>
      <trkpt lat="42.4117643572" lon="19.8163756169">
        <ele>1545.94</ele>
        <time>2019-07-07T09:51:49Z</time>
      </trkpt>
      <trkpt lat="42.4117706437" lon="19.8164094798">
        <ele>1545.94</ele>
        <time>2019-07-07T09:51:51Z</time>
      </trkpt>
      <trkpt lat="42.4117478449" lon="19.8166149203">
        <ele>1543.53</ele>
        <time>2019-07-07T09:52:05Z</time>
      </trkpt>
      <trkpt lat="42.4117504433" lon="19.8166303430">
        <ele>1543.05</ele>
        <time>2019-07-07T09:52:06Z</time>
      </trkpt>
      <trkpt lat="42.4117315840" lon="19.8167809658">
        <ele>1541.13</ele>
        <time>2019-07-07T09:52:15Z</time>
      </trkpt>
      <trkpt lat="42.4116547219" lon="19.8169639427">
        <ele>1538.73</ele>
        <time>2019-07-07T09:52:29Z</time>
      </trkpt>
      <trkpt lat="42.4116297439" lon="19.8170205206">
        <ele>1537.77</ele>
        <time>2019-07-07T09:52:33Z</time>
      </trkpt>
      <trkpt lat="42.4116001558" lon="19.8171448242">
        <ele>1536.32</ele>
        <time>2019-07-07T09:52:41Z</time>
      </trkpt>
      <trkpt lat="42.4116102140" lon="19.8172505200">
        <ele>1534.88</ele>
        <time>2019-07-07T09:52:48Z</time>
      </trkpt>
      <trkpt lat="42.4116118904" lon="19.8173265439">
        <ele>1533.44</ele>
        <time>2019-07-07T09:52:54Z</time>
      </trkpt>
      <trkpt lat="42.4116470106" lon="19.8174070101">
        <ele>1532.96</ele>
        <time>2019-07-07T09:52:59Z</time>
      </trkpt>
      <trkpt lat="42.4117163289" lon="19.8175146338">
        <ele>1530.56</ele>
        <time>2019-07-07T09:53:11Z</time>
      </trkpt>
      <trkpt lat="42.4117470905" lon="19.8177141231">
        <ele>1528.63</ele>
        <time>2019-07-07T09:53:24Z</time>
      </trkpt>
      <trkpt lat="42.4117784388" lon="19.8179479782">
        <ele>1528.15</ele>
        <time>2019-07-07T09:53:39Z</time>
      </trkpt>
      <trkpt lat="42.4117677100" lon="19.8180035502">
        <ele>1528.15</ele>
        <time>2019-07-07T09:53:42Z</time>
      </trkpt>
      <trkpt lat="42.4117227830" lon="19.8182181269">
        <ele>1524.79</ele>
        <time>2019-07-07T09:53:56Z</time>
      </trkpt>
      <trkpt lat="42.4117224477" lon="19.8182781413">
        <ele>1523.83</ele>
        <time>2019-07-07T09:53:59Z</time>
      </trkpt>
      <trkpt lat="42.4117004033" lon="19.8184478749">
        <ele>1522.39</ele>
        <time>2019-07-07T09:54:08Z</time>
      </trkpt>
      <trkpt lat="42.4116795324" lon="19.8185262457">
        <ele>1521.42</ele>
        <time>2019-07-07T09:54:13Z</time>
      </trkpt>
      <trkpt lat="42.4116582423" lon="19.8185808957">
        <ele>1520.94</ele>
        <time>2019-07-07T09:54:17Z</time>
      </trkpt>
      <trkpt lat="42.4116050173" lon="19.8186537344">
        <ele>1519.50</ele>
        <time>2019-07-07T09:54:23Z</time>
      </trkpt>
      <trkpt lat="42.4115683883" lon="19.8187560774">
        <ele>1518.06</ele>
        <time>2019-07-07T09:54:30Z</time>
      </trkpt>
      <trkpt lat="42.4115222879" lon="19.8188099731">
        <ele>1517.10</ele>
        <time>2019-07-07T09:54:34Z</time>
      </trkpt>
      <trkpt lat="42.4114472698" lon="19.8189781141">
        <ele>1514.21</ele>
        <time>2019-07-07T09:54:45Z</time>
      </trkpt>
      <trkpt lat="42.4113950506" lon="19.8190855701">
        <ele>1512.29</ele>
        <time>2019-07-07T09:54:53Z</time>
      </trkpt>
      <trkpt lat="42.4113586731" lon="19.8191374540">
        <ele>1511.81</ele>
        <time>2019-07-07T09:54:57Z</time>
      </trkpt>
      <trkpt lat="42.4113594275" lon="19.8191643599">
        <ele>1511.33</ele>
        <time>2019-07-07T09:54:59Z</time>
      </trkpt>
      <trkpt lat="42.4112590123" lon="19.8193726502">
        <ele>1508.93</ele>
        <time>2019-07-07T09:55:13Z</time>
      </trkpt>
      <trkpt lat="42.4112434220" lon="19.8194005620">
        <ele>1508.93</ele>
        <time>2019-07-07T09:55:15Z</time>
      </trkpt>
      <trkpt lat="42.4112308491" lon="19.8195165675">
        <ele>1507.97</ele>
        <time>2019-07-07T09:55:22Z</time>
      </trkpt>
      <trkpt lat="42.4111391511" lon="19.8197246902">
        <ele>1504.60</ele>
        <time>2019-07-07T09:55:35Z</time>
      </trkpt>
      <trkpt lat="42.4111228064" lon="19.8197573796">
        <ele>1504.60</ele>
        <time>2019-07-07T09:55:38Z</time>
      </trkpt>
      <trkpt lat="42.4110915419" lon="19.8197981156">
        <ele>1504.12</ele>
        <time>2019-07-07T09:55:41Z</time>
      </trkpt>
      <trkpt lat="42.4110626243" lon="19.8198505025">
        <ele>1502.68</ele>
        <time>2019-07-07T09:55:45Z</time>
      </trkpt>
      <trkpt lat="42.4110007659" lon="19.8200686835">
        <ele>1499.79</ele>
        <time>2019-07-07T09:55:56Z</time>
      </trkpt>
      <trkpt lat="42.4109911267" lon="19.8201298714">
        <ele>1498.83</ele>
        <time>2019-07-07T09:55:59Z</time>
      </trkpt>
      <trkpt lat="42.4109814875" lon="19.8202721961">
        <ele>1496.91</ele>
        <time>2019-07-07T09:56:06Z</time>
      </trkpt>
      <trkpt lat="42.4109265022" lon="19.8205099907">
        <ele>1494.03</ele>
        <time>2019-07-07T09:56:20Z</time>
      </trkpt>
      <trkpt lat="42.4109078944" lon="19.8207064625">
        <ele>1491.62</ele>
        <time>2019-07-07T09:56:31Z</time>
      </trkpt>
      <trkpt lat="42.4109148514" lon="19.8209147528">
        <ele>1488.74</ele>
        <time>2019-07-07T09:56:44Z</time>
      </trkpt>
      <trkpt lat="42.4108954053" lon="19.8210018408">
        <ele>1487.30</ele>
        <time>2019-07-07T09:56:49Z</time>
      </trkpt>
      <trkpt lat="42.4108848441" lon="19.8212026712">
        <ele>1484.89</ele>
        <time>2019-07-07T09:57:00Z</time>
      </trkpt>
      <trkpt lat="42.4108436052" lon="19.8215012345">
        <ele>1482.01</ele>
        <time>2019-07-07T09:57:17Z</time>
      </trkpt>
      <trkpt lat="42.4107987620" lon="19.8216134682">
        <ele>1480.09</ele>
        <time>2019-07-07T09:57:24Z</time>
      </trkpt>
      <trkpt lat="42.4107194692" lon="19.8218368459">
        <ele>1476.72</ele>
        <time>2019-07-07T09:57:39Z</time>
      </trkpt>
      <trkpt lat="42.4107151106" lon="19.8218899872">
        <ele>1475.76</ele>
        <time>2019-07-07T09:57:43Z</time>
      </trkpt>
      <trkpt lat="42.4106662441" lon="19.8220484052">
        <ele>1472.40</ele>
        <time>2019-07-07T09:57:56Z</time>
      </trkpt>
      <trkpt lat="42.4106742907" lon="19.8221562803">
        <ele>1470.47</ele>
        <time>2019-07-07T09:58:04Z</time>
      </trkpt>
      <trkpt lat="42.4106147792" lon="19.8222567793">
        <ele>1468.55</ele>
        <time>2019-07-07T09:58:11Z</time>
      </trkpt>
      <trkpt lat="42.4106207304" lon="19.8223281093">
        <ele>1467.59</ele>
        <time>2019-07-07T09:58:15Z</time>
      </trkpt>
      <trkpt lat="42.4106237479" lon="19.8224177118">
        <ele>1467.11</ele>
        <time>2019-07-07T09:58:20Z</time>
      </trkpt>
      <trkpt lat="42.4105998594" lon="19.8225389980">
        <ele>1465.67</ele>
        <time>2019-07-07T09:58:27Z</time>
      </trkpt>
      <trkpt lat="42.4105535075" lon="19.8224954121">
        <ele>1463.26</ele>
        <time>2019-07-07T09:58:40Z</time>
      </trkpt>
      <trkpt lat="42.4105127715" lon="19.8224498983">
        <ele>1460.86</ele>
        <time>2019-07-07T09:58:50Z</time>
      </trkpt>
      <trkpt lat="42.4104785733" lon="19.8224361520">
        <ele>1459.90</ele>
        <time>2019-07-07T09:58:56Z</time>
      </trkpt>
      <trkpt lat="42.4104047287" lon="19.8224912211">
        <ele>1457.02</ele>
        <time>2019-07-07T09:59:09Z</time>
      </trkpt>
      <trkpt lat="42.4103936646" lon="19.8224445339">
        <ele>1455.09</ele>
        <time>2019-07-07T09:59:20Z</time>
      </trkpt>
      <trkpt lat="42.4103365839" lon="19.8226220626">
        <ele>1454.61</ele>
        <time>2019-07-07T09:59:33Z</time>
      </trkpt>
      <trkpt lat="42.4102777429" lon="19.8226743657">
        <ele>1453.17</ele>
        <time>2019-07-07T09:59:45Z</time>
      </trkpt>
      <trkpt lat="42.4102813471" lon="19.8226086516">
        <ele>1452.21</ele>
        <time>2019-07-07T10:00:03Z</time>
      </trkpt>
      <trkpt lat="42.4102228414" lon="19.8225606233">
        <ele>1450.29</ele>
        <time>2019-07-07T10:00:15Z</time>
      </trkpt>
      <trkpt lat="42.4102102686" lon="19.8225067277">
        <ele>1449.32</ele>
        <time>2019-07-07T10:00:28Z</time>
      </trkpt>
      <trkpt lat="42.4102380127" lon="19.8225089908">
        <ele>1448.36</ele>
        <time>2019-07-07T10:00:48Z</time>
      </trkpt>
      <trkpt lat="42.4102320615" lon="19.8226196319">
        <ele>1448.36</ele>
        <time>2019-07-07T10:01:21Z</time>
      </trkpt>
      <trkpt lat="42.4102397729" lon="19.8225675803">
        <ele>1447.88</ele>
        <time>2019-07-07T10:01:53Z</time>
      </trkpt>
      <trkpt lat="42.4102538545" lon="19.8225156963">
        <ele>1447.88</ele>
        <time>2019-07-07T10:02:16Z</time>
      </trkpt>
      <trkpt lat="42.4102311395" lon="19.8225491401">
        <ele>1447.88</ele>
        <time>2019-07-07T10:02:51Z</time>
      </trkpt>
      <trkpt lat="42.4102389347" lon="19.8225802369">
        <ele>1447.88</ele>
        <time>2019-07-07T10:03:14Z</time>
      </trkpt>
      <trkpt lat="42.4102522619" lon="19.8225606233">
        <ele>1447.40</ele>
        <time>2019-07-07T10:03:52Z</time>
      </trkpt>
      <trkpt lat="42.4102832749" lon="19.8225024529">
        <ele>1447.40</ele>
        <time>2019-07-07T10:04:31Z</time>
      </trkpt>
      <trkpt lat="42.4101623241" lon="19.8225716874">
        <ele>1446.92</ele>
        <time>2019-07-07T10:05:15Z</time>
      </trkpt>
      <trkpt lat="42.4102018867" lon="19.8225651495">
        <ele>1446.44</ele>
        <time>2019-07-07T10:05:58Z</time>
      </trkpt>
      <trkpt lat="42.4102739710" lon="19.8225110862">
        <ele>1445.96</ele>
        <time>2019-07-07T10:06:43Z</time>
      </trkpt>
      <trkpt lat="42.4102712050" lon="19.8225405067">
        <ele>1445.96</ele>
        <time>2019-07-07T10:07:21Z</time>
      </trkpt>
      <trkpt lat="42.4102375098" lon="19.8225849308">
        <ele>1445.96</ele>
        <time>2019-07-07T10:08:05Z</time>
      </trkpt>
      <trkpt lat="42.4102054071" lon="19.8225768842">
        <ele>1445.96</ele>
        <time>2019-07-07T10:08:46Z</time>
      </trkpt>
      <trkpt lat="42.4101970252" lon="19.8225864395">
        <ele>1445.96</ele>
        <time>2019-07-07T10:09:16Z</time>
      </trkpt>
      <trkpt lat="42.4102011323" lon="19.8226088192">
        <ele>1445.96</ele>
        <time>2019-07-07T10:09:50Z</time>
      </trkpt>
      <trkpt lat="42.4102156330" lon="19.8225887027">
        <ele>1445.96</ele>
        <time>2019-07-07T10:10:29Z</time>
      </trkpt>
      <trkpt lat="42.4102058262" lon="19.8225571029">
        <ele>1446.92</ele>
        <time>2019-07-07T10:11:01Z</time>
      </trkpt>
      <trkpt lat="42.4102089275" lon="19.8225423507">
        <ele>1446.44</ele>
        <time>2019-07-07T10:11:31Z</time>
      </trkpt>
      <trkpt lat="42.4102028087" lon="19.8225730285">
        <ele>1446.44</ele>
        <time>2019-07-07T10:12:11Z</time>
      </trkpt>
      <trkpt lat="42.4101954326" lon="19.8225908820">
        <ele>1446.44</ele>
        <time>2019-07-07T10:12:46Z</time>
      </trkpt>
      <trkpt lat="42.4101870507" lon="19.8225684185">
        <ele>1446.44</ele>
        <time>2019-07-07T10:13:16Z</time>
      </trkpt>
      <trkpt lat="42.4101920798" lon="19.8225630540">
        <ele>1446.44</ele>
        <time>2019-07-07T10:13:52Z</time>
      </trkpt>
      <trkpt lat="42.4101957679" lon="19.8226120882">
        <ele>1445.96</ele>
        <time>2019-07-07T10:14:27Z</time>
      </trkpt>
      <trkpt lat="42.4102082569" lon="19.8225731961">
        <ele>1445.96</ele>
        <time>2019-07-07T10:15:02Z</time>
      </trkpt>
      <trkpt lat="42.4102102686" lon="19.8225844279">
        <ele>1446.44</ele>
        <time>2019-07-07T10:15:40Z</time>
      </trkpt>
      <trkpt lat="42.4102075025" lon="19.8225696757">
        <ele>1446.44</ele>
        <time>2019-07-07T10:16:24Z</time>
      </trkpt>
      <trkpt lat="42.4102200754" lon="19.8225521576">
        <ele>1446.44</ele>
        <time>2019-07-07T10:17:07Z</time>
      </trkpt>
      <trkpt lat="42.4102081731" lon="19.8225954920">
        <ele>1445.96</ele>
        <time>2019-07-07T10:17:49Z</time>
      </trkpt>
      <trkpt lat="42.4102090113" lon="19.8225718550">
        <ele>1445.00</ele>
        <time>2019-07-07T10:18:26Z</time>
      </trkpt>
      <trkpt lat="42.4101992045" lon="19.8225725256">
        <ele>1444.52</ele>
        <time>2019-07-07T10:19:10Z</time>
      </trkpt>
      <trkpt lat="42.4102298822" lon="19.8225577734">
        <ele>1444.52</ele>
        <time>2019-07-07T10:19:46Z</time>
      </trkpt>
      <trkpt lat="42.4101927504" lon="19.8225775547">
        <ele>1444.52</ele>
        <time>2019-07-07T10:20:25Z</time>
      </trkpt>
      <trkpt lat="42.4101961870" lon="19.8225691728">
        <ele>1444.52</ele>
        <time>2019-07-07T10:20:40Z</time>
      </trkpt>
      <trkpt lat="42.4102222547" lon="19.8225524090">
        <ele>1444.52</ele>
        <time>2019-07-07T10:21:22Z</time>
      </trkpt>
      <trkpt lat="42.4102139566" lon="19.8225201387">
        <ele>1444.04</ele>
        <time>2019-07-07T10:22:02Z</time>
      </trkpt>
      <trkpt lat="42.4102258589" lon="19.8224844318">
        <ele>1444.04</ele>
        <time>2019-07-07T10:22:41Z</time>
      </trkpt>
      <trkpt lat="42.4101831112" lon="19.8224738706">
        <ele>1444.04</ele>
        <time>2019-07-07T10:23:12Z</time>
      </trkpt>
      <trkpt lat="42.4102162197" lon="19.8225090746">
        <ele>1443.56</ele>
        <time>2019-07-07T10:23:45Z</time>
      </trkpt>
      <trkpt lat="42.4102140404" lon="19.8225170374">
        <ele>1445.00</ele>
        <time>2019-07-07T10:24:17Z</time>
      </trkpt>
      <trkpt lat="42.4102146272" lon="19.8225027043">
        <ele>1445.00</ele>
        <time>2019-07-07T10:24:42Z</time>
      </trkpt>
      <trkpt lat="42.4102057423" lon="19.8225666583">
        <ele>1445.00</ele>
        <time>2019-07-07T10:25:14Z</time>
      </trkpt>
      <trkpt lat="42.4102183152" lon="19.8225555941">
        <ele>1445.00</ele>
        <time>2019-07-07T10:25:52Z</time>
      </trkpt>
      <trkpt lat="42.4102263618" lon="19.8225063924">
        <ele>1445.00</ele>
        <time>2019-07-07T10:26:34Z</time>
      </trkpt>
      <trkpt lat="42.4101308919" lon="19.8224517424">
        <ele>1445.00</ele>
        <time>2019-07-07T10:27:11Z</time>
      </trkpt>
      <trkpt lat="42.4101717956" lon="19.8225055542">
        <ele>1445.00</ele>
        <time>2019-07-07T10:27:37Z</time>
      </trkpt>
      <trkpt lat="42.4102031440" lon="19.8225136846">
        <ele>1445.00</ele>
        <time>2019-07-07T10:28:09Z</time>
      </trkpt>
      <trkpt lat="42.4101859611" lon="19.8224878684">
        <ele>1445.00</ele>
        <time>2019-07-07T10:28:39Z</time>
      </trkpt>
      <trkpt lat="42.4102126993" lon="19.8225285206">
        <ele>1445.00</ele>
        <time>2019-07-07T10:29:10Z</time>
      </trkpt>
      <trkpt lat="42.4101604801" lon="19.8225306161">
        <ele>1445.00</ele>
        <time>2019-07-07T10:29:44Z</time>
      </trkpt>
      <trkpt lat="42.4102021381" lon="19.8225540854">
        <ele>1445.96</ele>
        <time>2019-07-07T10:30:11Z</time>
      </trkpt>
      <trkpt lat="42.4102655053" lon="19.8226115014">
        <ele>1446.92</ele>
        <time>2019-07-07T10:30:26Z</time>
      </trkpt>
      <trkpt lat="42.4102740549" lon="19.8226390779">
        <ele>1447.40</ele>
        <time>2019-07-07T10:30:40Z</time>
      </trkpt>
      <trkpt lat="42.4102629069" lon="19.8225761298">
        <ele>1447.40</ele>
        <time>2019-07-07T10:31:29Z</time>
      </trkpt>
      <trkpt lat="42.4102762341" lon="19.8225717712">
        <ele>1447.40</ele>
        <time>2019-07-07T10:32:15Z</time>
      </trkpt>
      <trkpt lat="42.4102582969" lon="19.8226519860">
        <ele>1447.40</ele>
        <time>2019-07-07T10:32:45Z</time>
      </trkpt>
      <trkpt lat="42.4102805927" lon="19.8226639722">
        <ele>1447.40</ele>
        <time>2019-07-07T10:33:07Z</time>
      </trkpt>
      <trkpt lat="42.4102786649" lon="19.8227313627">
        <ele>1448.84</ele>
        <time>2019-07-07T10:33:27Z</time>
      </trkpt>
      <trkpt lat="42.4103195686" lon="19.8228000104">
        <ele>1450.29</ele>
        <time>2019-07-07T10:33:39Z</time>
      </trkpt>
      <trkpt lat="42.4103209097" lon="19.8229690734">
        <ele>1449.81</ele>
        <time>2019-07-07T10:33:54Z</time>
      </trkpt>
      <trkpt lat="42.4103269447" lon="19.8230059538">
        <ele>1448.36</ele>
        <time>2019-07-07T10:33:58Z</time>
      </trkpt>
      <trkpt lat="42.4103582930" lon="19.8231209535">
        <ele>1447.88</ele>
        <time>2019-07-07T10:34:08Z</time>
      </trkpt>
      <trkpt lat="42.4104194809" lon="19.8233209457">
        <ele>1445.00</ele>
        <time>2019-07-07T10:34:24Z</time>
      </trkpt>
      <trkpt lat="42.4104555231" lon="19.8233975563">
        <ele>1444.04</ele>
        <time>2019-07-07T10:34:31Z</time>
      </trkpt>
      <trkpt lat="42.4104951695" lon="19.8235286493">
        <ele>1443.08</ele>
        <time>2019-07-07T10:34:39Z</time>
      </trkpt>
      <trkpt lat="42.4105224106" lon="19.8236440681">
        <ele>1440.67</ele>
        <time>2019-07-07T10:34:51Z</time>
      </trkpt>
      <trkpt lat="42.4104961753" lon="19.8237330001">
        <ele>1438.75</ele>
        <time>2019-07-07T10:34:59Z</time>
      </trkpt>
      <trkpt lat="42.4104515836" lon="19.8238684516">
        <ele>1435.87</ele>
        <time>2019-07-07T10:35:12Z</time>
      </trkpt>
      <trkpt lat="42.4104547687" lon="19.8239823617">
        <ele>1432.50</ele>
        <time>2019-07-07T10:35:22Z</time>
      </trkpt>
      <trkpt lat="42.4104617257" lon="19.8241158854">
        <ele>1430.10</ele>
        <time>2019-07-07T10:35:34Z</time>
      </trkpt>
      <trkpt lat="42.4104593787" lon="19.8242262751">
        <ele>1427.21</ele>
        <time>2019-07-07T10:35:48Z</time>
      </trkpt>
      <trkpt lat="42.4104769807" lon="19.8242660053">
        <ele>1425.29</ele>
        <time>2019-07-07T10:35:55Z</time>
      </trkpt>
      <trkpt lat="42.4105224945" lon="19.8243528418">
        <ele>1421.93</ele>
        <time>2019-07-07T10:36:07Z</time>
      </trkpt>
      <trkpt lat="42.4104931578" lon="19.8243924044">
        <ele>1421.45</ele>
        <time>2019-07-07T10:36:11Z</time>
      </trkpt>
      <trkpt lat="42.4105514959" lon="19.8244761396">
        <ele>1419.04</ele>
        <time>2019-07-07T10:36:21Z</time>
      </trkpt>
      <trkpt lat="42.4105809163" lon="19.8244457971">
        <ele>1417.12</ele>
        <time>2019-07-07T10:36:25Z</time>
      </trkpt>
      <trkpt lat="42.4106473010" lon="19.8244328890">
        <ele>1414.24</ele>
        <time>2019-07-07T10:36:36Z</time>
      </trkpt>
      <trkpt lat="42.4106777273" lon="19.8244893830">
        <ele>1411.35</ele>
        <time>2019-07-07T10:36:44Z</time>
      </trkpt>
      <trkpt lat="42.4107050523" lon="19.8244711943">
        <ele>1410.39</ele>
        <time>2019-07-07T10:36:47Z</time>
      </trkpt>
      <trkpt lat="42.4107225705" lon="19.8244713619">
        <ele>1409.91</ele>
        <time>2019-07-07T10:36:48Z</time>
      </trkpt>
      <trkpt lat="42.4107478000" lon="19.8245286942">
        <ele>1407.99</ele>
        <time>2019-07-07T10:36:55Z</time>
      </trkpt>
      <trkpt lat="42.4107370712" lon="19.8246215656">
        <ele>1405.58</ele>
        <time>2019-07-07T10:37:02Z</time>
      </trkpt>
      <trkpt lat="42.4107231572" lon="19.8247845098">
        <ele>1402.22</ele>
        <time>2019-07-07T10:37:12Z</time>
      </trkpt>
      <trkpt lat="42.4106819183" lon="19.8249372281">
        <ele>1399.82</ele>
        <time>2019-07-07T10:37:22Z</time>
      </trkpt>
      <trkpt lat="42.4106199760" lon="19.8250190355">
        <ele>1396.93</ele>
        <time>2019-07-07T10:37:35Z</time>
      </trkpt>
      <trkpt lat="42.4105488975" lon="19.8250135034">
        <ele>1393.57</ele>
        <time>2019-07-07T10:37:48Z</time>
      </trkpt>
      <trkpt lat="42.4105237518" lon="19.8250438459">
        <ele>1390.68</ele>
        <time>2019-07-07T10:37:58Z</time>
      </trkpt>
      <trkpt lat="42.4104649946" lon="19.8250836600">
        <ele>1387.80</ele>
        <time>2019-07-07T10:38:09Z</time>
      </trkpt>
      <trkpt lat="42.4104267731" lon="19.8250523116">
        <ele>1385.88</ele>
        <time>2019-07-07T10:38:15Z</time>
      </trkpt>
      <trkpt lat="42.4103541858" lon="19.8249937221">
        <ele>1382.99</ele>
        <time>2019-07-07T10:38:23Z</time>
      </trkpt>
      <trkpt lat="42.4103204068" lon="19.8250259925">
        <ele>1381.07</ele>
        <time>2019-07-07T10:38:29Z</time>
      </trkpt>
      <trkpt lat="42.4103276152" lon="19.8250970710">
        <ele>1379.63</ele>
        <time>2019-07-07T10:38:34Z</time>
      </trkpt>
      <trkpt lat="42.4103183951" lon="19.8251176067">
        <ele>1379.15</ele>
        <time>2019-07-07T10:38:37Z</time>
      </trkpt>
      <trkpt lat="42.4102997035" lon="19.8251080513">
        <ele>1379.15</ele>
        <time>2019-07-07T10:38:39Z</time>
      </trkpt>
      <trkpt lat="42.4102733005" lon="19.8250921257">
        <ele>1378.19</ele>
        <time>2019-07-07T10:38:42Z</time>
      </trkpt>
      <trkpt lat="42.4102532677" lon="19.8251025192">
        <ele>1376.75</ele>
        <time>2019-07-07T10:38:44Z</time>
      </trkpt>
      <trkpt lat="42.4102629069" lon="19.8251836561">
        <ele>1373.86</ele>
        <time>2019-07-07T10:38:57Z</time>
      </trkpt>
      <trkpt lat="42.4102855381" lon="19.8252549022">
        <ele>1370.50</ele>
        <time>2019-07-07T10:39:08Z</time>
      </trkpt>
      <trkpt lat="42.4102670979" lon="19.8252864182">
        <ele>1370.02</ele>
        <time>2019-07-07T10:39:15Z</time>
      </trkpt>
      <trkpt lat="42.4102682713" lon="19.8253566585">
        <ele>1367.13</ele>
        <time>2019-07-07T10:39:23Z</time>
      </trkpt>
      <trkpt lat="42.4102018028" lon="19.8253042717">
        <ele>1363.29</ele>
        <time>2019-07-07T10:39:33Z</time>
      </trkpt>
      <trkpt lat="42.4101251084" lon="19.8253070377">
        <ele>1360.40</ele>
        <time>2019-07-07T10:39:44Z</time>
      </trkpt>
      <trkpt lat="42.4101453926" lon="19.8254120629">
        <ele>1357.04</ele>
        <time>2019-07-07T10:39:53Z</time>
      </trkpt>
      <trkpt lat="42.4101511762" lon="19.8254292458">
        <ele>1356.56</ele>
        <time>2019-07-07T10:39:55Z</time>
      </trkpt>
      <trkpt lat="42.4101759866" lon="19.8255040124">
        <ele>1355.12</ele>
        <time>2019-07-07T10:40:12Z</time>
      </trkpt>
      <trkpt lat="42.4102381803" lon="19.8255677987">
        <ele>1352.71</ele>
        <time>2019-07-07T10:40:28Z</time>
      </trkpt>
      <trkpt lat="42.4102821015" lon="19.8255506158">
        <ele>1350.31</ele>
        <time>2019-07-07T10:40:38Z</time>
      </trkpt>
      <trkpt lat="42.4103104323" lon="19.8255570699">
        <ele>1348.39</ele>
        <time>2019-07-07T10:40:42Z</time>
      </trkpt>
      <trkpt lat="42.4103561975" lon="19.8255619314">
        <ele>1345.50</ele>
        <time>2019-07-07T10:40:49Z</time>
      </trkpt>
      <trkpt lat="42.4104242586" lon="19.8255645297">
        <ele>1343.58</ele>
        <time>2019-07-07T10:40:58Z</time>
      </trkpt>
      <trkpt lat="42.4105393421" lon="19.8256072775">
        <ele>1339.25</ele>
        <time>2019-07-07T10:41:08Z</time>
      </trkpt>
      <trkpt lat="42.4105720315" lon="19.8256092053">
        <ele>1338.29</ele>
        <time>2019-07-07T10:41:12Z</time>
      </trkpt>
      <trkpt lat="42.4105782341" lon="19.8256246280">
        <ele>1337.81</ele>
        <time>2019-07-07T10:41:14Z</time>
      </trkpt>
      <trkpt lat="42.4105970934" lon="19.8256656993">
        <ele>1335.41</ele>
        <time>2019-07-07T10:41:18Z</time>
      </trkpt>
      <trkpt lat="42.4106462952" lon="19.8257378675">
        <ele>1333.97</ele>
        <time>2019-07-07T10:41:28Z</time>
      </trkpt>
      <trkpt lat="42.4106844328" lon="19.8257634323">
        <ele>1332.52</ele>
        <time>2019-07-07T10:41:33Z</time>
      </trkpt>
      <trkpt lat="42.4107050523" lon="19.8257932719">
        <ele>1330.60</ele>
        <time>2019-07-07T10:41:37Z</time>
      </trkpt>
      <trkpt lat="42.4107777234" lon="19.8258612491">
        <ele>1326.76</ele>
        <time>2019-07-07T10:41:47Z</time>
      </trkpt>
      <trkpt lat="42.4108407553" lon="19.8258620873">
        <ele>1325.80</ele>
        <time>2019-07-07T10:41:53Z</time>
      </trkpt>
      <trkpt lat="42.4109322857" lon="19.8258853890">
        <ele>1323.87</ele>
        <time>2019-07-07T10:42:07Z</time>
      </trkpt>
      <trkpt lat="42.4109891988" lon="19.8258918431">
        <ele>1322.91</ele>
        <time>2019-07-07T10:42:13Z</time>
      </trkpt>
      <trkpt lat="42.4110701680" lon="19.8258800246">
        <ele>1320.03</ele>
        <time>2019-07-07T10:42:21Z</time>
      </trkpt>
      <trkpt lat="42.4111461919" lon="19.8258787673">
        <ele>1316.66</ele>
        <time>2019-07-07T10:42:28Z</time>
      </trkpt>
      <trkpt lat="42.4111530650" lon="19.8258775938">
        <ele>1316.18</ele>
        <time>2019-07-07T10:42:29Z</time>
      </trkpt>
      <trkpt lat="42.4112224672" lon="19.8259158153">
        <ele>1313.78</ele>
        <time>2019-07-07T10:42:35Z</time>
      </trkpt>
      <trkpt lat="42.4113214575" lon="19.8259817809">
        <ele>1309.93</ele>
        <time>2019-07-07T10:42:45Z</time>
      </trkpt>
      <trkpt lat="42.4113313481" lon="19.8260958586">
        <ele>1306.09</ele>
        <time>2019-07-07T10:42:57Z</time>
      </trkpt>
      <trkpt lat="42.4113722518" lon="19.8261546157">
        <ele>1303.20</ele>
        <time>2019-07-07T10:43:06Z</time>
      </trkpt>
      <trkpt lat="42.4113750178" lon="19.8261643387">
        <ele>1303.20</ele>
        <time>2019-07-07T10:43:07Z</time>
      </trkpt>
      <trkpt lat="42.4114041869" lon="19.8262196593">
        <ele>1301.76</ele>
        <time>2019-07-07T10:43:10Z</time>
      </trkpt>
      <trkpt lat="42.4114388041" lon="19.8262491636">
        <ele>1299.36</ele>
        <time>2019-07-07T10:43:14Z</time>
      </trkpt>
      <trkpt lat="42.4114524666" lon="19.8262876365">
        <ele>1298.40</ele>
        <time>2019-07-07T10:43:17Z</time>
      </trkpt>
      <trkpt lat="42.4114936218" lon="19.8263400234">
        <ele>1295.99</ele>
        <time>2019-07-07T10:43:22Z</time>
      </trkpt>
      <trkpt lat="42.4115108885" lon="19.8263709527">
        <ele>1294.55</ele>
        <time>2019-07-07T10:43:24Z</time>
      </trkpt>
      <trkpt lat="42.4115322623" lon="19.8264265247">
        <ele>1292.63</ele>
        <time>2019-07-07T10:43:29Z</time>
      </trkpt>
      <trkpt lat="42.4115610123" lon="19.8265489005">
        <ele>1289.27</ele>
        <time>2019-07-07T10:43:38Z</time>
      </trkpt>
      <trkpt lat="42.4116231222" lon="19.8266543448">
        <ele>1286.86</ele>
        <time>2019-07-07T10:43:45Z</time>
      </trkpt>
      <trkpt lat="42.4116948713" lon="19.8267232440">
        <ele>1284.94</ele>
        <time>2019-07-07T10:43:59Z</time>
      </trkpt>
      <trkpt lat="42.4116047658" lon="19.8266714439">
        <ele>1284.94</ele>
        <time>2019-07-07T10:44:24Z</time>
      </trkpt>
      <trkpt lat="42.4116753414" lon="19.8267131019">
        <ele>1284.94</ele>
        <time>2019-07-07T10:44:47Z</time>
      </trkpt>
      <trkpt lat="42.4116962124" lon="19.8267752118">
        <ele>1286.38</ele>
        <time>2019-07-07T10:45:06Z</time>
      </trkpt>
      <trkpt lat="42.4116978887" lon="19.8267957475">
        <ele>1286.38</ele>
        <time>2019-07-07T10:45:10Z</time>
      </trkpt>
      <trkpt lat="42.4118185043" lon="19.8269094899">
        <ele>1283.02</ele>
        <time>2019-07-07T10:45:23Z</time>
      </trkpt>
      <trkpt lat="42.4118498527" lon="19.8269626312">
        <ele>1282.06</ele>
        <time>2019-07-07T10:45:27Z</time>
      </trkpt>
      <trkpt lat="42.4119500164" lon="19.8270230647">
        <ele>1281.09</ele>
        <time>2019-07-07T10:45:40Z</time>
      </trkpt>
      <trkpt lat="42.4120260403" lon="19.8271095660">
        <ele>1280.13</ele>
        <time>2019-07-07T10:45:53Z</time>
      </trkpt>
      <trkpt lat="42.4120577239" lon="19.8272223864">
        <ele>1277.25</ele>
        <time>2019-07-07T10:46:04Z</time>
      </trkpt>
      <trkpt lat="42.4121133797" lon="19.8272781260">
        <ele>1275.33</ele>
        <time>2019-07-07T10:46:17Z</time>
      </trkpt>
      <trkpt lat="42.4121237732" lon="19.8273164313">
        <ele>1274.85</ele>
        <time>2019-07-07T10:46:20Z</time>
      </trkpt>
      <trkpt lat="42.4121313170" lon="19.8273354582">
        <ele>1274.36</ele>
        <time>2019-07-07T10:46:21Z</time>
      </trkpt>
      <trkpt lat="42.4122160580" lon="19.8274657968">
        <ele>1272.44</ele>
        <time>2019-07-07T10:46:34Z</time>
      </trkpt>
      <trkpt lat="42.4122354202" lon="19.8274890147">
        <ele>1272.44</ele>
        <time>2019-07-07T10:46:36Z</time>
      </trkpt>
      <trkpt lat="42.4123410322" lon="19.8275732528">
        <ele>1273.40</ele>
        <time>2019-07-07T10:46:49Z</time>
      </trkpt>
      <trkpt lat="42.4123645015" lon="19.8275830597">
        <ele>1273.40</ele>
        <time>2019-07-07T10:46:51Z</time>
      </trkpt>
      <trkpt lat="42.4123951793" lon="19.8276000749">
        <ele>1273.40</ele>
        <time>2019-07-07T10:46:54Z</time>
      </trkpt>
      <trkpt lat="42.4124524277" lon="19.8277360294">
        <ele>1273.40</ele>
        <time>2019-07-07T10:47:06Z</time>
      </trkpt>
      <trkpt lat="42.4124544393" lon="19.8277537990">
        <ele>1273.40</ele>
        <time>2019-07-07T10:47:07Z</time>
      </trkpt>
      <trkpt lat="42.4124611448" lon="19.8277761787">
        <ele>1271.96</ele>
        <time>2019-07-07T10:47:08Z</time>
      </trkpt>
      <trkpt lat="42.4124798365" lon="19.8278053477">
        <ele>1271.96</ele>
        <time>2019-07-07T10:47:10Z</time>
      </trkpt>
      <trkpt lat="42.4125114363" lon="19.8280170746">
        <ele>1270.52</ele>
        <time>2019-07-07T10:47:22Z</time>
      </trkpt>
      <trkpt lat="42.4125053175" lon="19.8281364329">
        <ele>1268.12</ele>
        <time>2019-07-07T10:47:28Z</time>
      </trkpt>
      <trkpt lat="42.4124688562" lon="19.8283276241">
        <ele>1264.75</ele>
        <time>2019-07-07T10:47:37Z</time>
      </trkpt>
      <trkpt lat="42.4124482367" lon="19.8284062464">
        <ele>1264.27</ele>
        <time>2019-07-07T10:47:41Z</time>
      </trkpt>
      <trkpt lat="42.4124364182" lon="19.8285084218">
        <ele>1264.27</ele>
        <time>2019-07-07T10:47:54Z</time>
      </trkpt>
      <trkpt lat="42.4124199897" lon="19.8285754770">
        <ele>1262.83</ele>
        <time>2019-07-07T10:48:00Z</time>
      </trkpt>
      <trkpt lat="42.4124174751" lon="19.8286002874">
        <ele>1262.35</ele>
        <time>2019-07-07T10:48:01Z</time>
      </trkpt>
      <trkpt lat="42.4124100152" lon="19.8286105972">
        <ele>1262.35</ele>
        <time>2019-07-07T10:48:02Z</time>
      </trkpt>
      <trkpt lat="42.4123510905" lon="19.8288435303">
        <ele>1258.98</ele>
        <time>2019-07-07T10:48:16Z</time>
      </trkpt>
      <trkpt lat="42.4123212509" lon="19.8289353121">
        <ele>1258.02</ele>
        <time>2019-07-07T10:48:21Z</time>
      </trkpt>
      <trkpt lat="42.4122244399" lon="19.8291006032">
        <ele>1254.66</ele>
        <time>2019-07-07T10:48:35Z</time>
      </trkpt>
      <trkpt lat="42.4121641740" lon="19.8292234819">
        <ele>1251.29</ele>
        <time>2019-07-07T10:48:46Z</time>
      </trkpt>
      <trkpt lat="42.4120798521" lon="19.8293200415">
        <ele>1247.93</ele>
        <time>2019-07-07T10:48:58Z</time>
      </trkpt>
      <trkpt lat="42.4120557122" lon="19.8293494619">
        <ele>1246.97</ele>
        <time>2019-07-07T10:49:02Z</time>
      </trkpt>
      <trkpt lat="42.4120713025" lon="19.8294130806">
        <ele>1245.53</ele>
        <time>2019-07-07T10:49:07Z</time>
      </trkpt>
      <trkpt lat="42.4120728951" lon="19.8295391444">
        <ele>1244.56</ele>
        <time>2019-07-07T10:49:14Z</time>
      </trkpt>
      <trkpt lat="42.4120158143" lon="19.8296702374">
        <ele>1242.16</ele>
        <time>2019-07-07T10:49:24Z</time>
      </trkpt>
      <trkpt lat="42.4120166525" lon="19.8298095446">
        <ele>1240.24</ele>
        <time>2019-07-07T10:49:32Z</time>
      </trkpt>
      <trkpt lat="42.4119851366" lon="19.8299978022">
        <ele>1237.35</ele>
        <time>2019-07-07T10:49:46Z</time>
      </trkpt>
      <trkpt lat="42.4119734857" lon="19.8300558049">
        <ele>1235.91</ele>
        <time>2019-07-07T10:49:51Z</time>
      </trkpt>
      <trkpt lat="42.4119377788" lon="19.8301975429">
        <ele>1233.51</ele>
        <time>2019-07-07T10:50:02Z</time>
      </trkpt>
      <trkpt lat="42.4119086936" lon="19.8302475829">
        <ele>1231.59</ele>
        <time>2019-07-07T10:50:07Z</time>
      </trkpt>
      <trkpt lat="42.4119484238" lon="19.8303682823">
        <ele>1231.11</ele>
        <time>2019-07-07T10:50:18Z</time>
      </trkpt>
      <trkpt lat="42.4119364377" lon="19.8304192442">
        <ele>1230.62</ele>
        <time>2019-07-07T10:50:22Z</time>
      </trkpt>
      <trkpt lat="42.4118721485" lon="19.8305843677">
        <ele>1230.62</ele>
        <time>2019-07-07T10:50:37Z</time>
      </trkpt>
      <trkpt lat="42.4118947797" lon="19.8308908101">
        <ele>1230.62</ele>
        <time>2019-07-07T10:50:54Z</time>
      </trkpt>
      <trkpt lat="42.4119025748" lon="19.8309730366">
        <ele>1230.62</ele>
        <time>2019-07-07T10:51:00Z</time>
      </trkpt>
      <trkpt lat="42.4119217694" lon="19.8310665786">
        <ele>1229.18</ele>
        <time>2019-07-07T10:51:06Z</time>
      </trkpt>
      <trkpt lat="42.4119535368" lon="19.8313555028">
        <ele>1228.70</ele>
        <time>2019-07-07T10:51:21Z</time>
      </trkpt>
      <trkpt lat="42.4119511899" lon="19.8314193729">
        <ele>1227.74</ele>
        <time>2019-07-07T10:51:27Z</time>
      </trkpt>
      <trkpt lat="42.4118915945" lon="19.8315976560">
        <ele>1226.30</ele>
        <time>2019-07-07T10:51:38Z</time>
      </trkpt>
      <trkpt lat="42.4119666126" lon="19.8317870032">
        <ele>1224.38</ele>
        <time>2019-07-07T10:51:50Z</time>
      </trkpt>
      <trkpt lat="42.4118295684" lon="19.8320183437">
        <ele>1220.53</ele>
        <time>2019-07-07T10:52:06Z</time>
      </trkpt>
      <trkpt lat="42.4117039237" lon="19.8320662882">
        <ele>1217.65</ele>
        <time>2019-07-07T10:52:18Z</time>
      </trkpt>
      <trkpt lat="42.4116338510" lon="19.8321444076">
        <ele>1214.76</ele>
        <time>2019-07-07T10:52:25Z</time>
      </trkpt>
      <trkpt lat="42.4115227908" lon="19.8322231136">
        <ele>1212.36</ele>
        <time>2019-07-07T10:52:37Z</time>
      </trkpt>
      <trkpt lat="42.4114655424" lon="19.8322538752">
        <ele>1210.92</ele>
        <time>2019-07-07T10:52:43Z</time>
      </trkpt>
      <trkpt lat="42.4113934580" lon="19.8323852196">
        <ele>1208.03</ele>
        <time>2019-07-07T10:52:54Z</time>
      </trkpt>
      <trkpt lat="42.4113101419" lon="19.8324302305">
        <ele>1205.63</ele>
        <time>2019-07-07T10:53:10Z</time>
      </trkpt>
      <trkpt lat="42.4112420809" lon="19.8324082699">
        <ele>1204.19</ele>
        <time>2019-07-07T10:53:31Z</time>
      </trkpt>
      <trkpt lat="42.4111487065" lon="19.8324971180">
        <ele>1201.79</ele>
        <time>2019-07-07T10:53:40Z</time>
      </trkpt>
      <trkpt lat="42.4110182002" lon="19.8325740639">
        <ele>1197.94</ele>
        <time>2019-07-07T10:53:53Z</time>
      </trkpt>
      <trkpt lat="42.4108752888" lon="19.8326008022">
        <ele>1194.58</ele>
        <time>2019-07-07T10:54:04Z</time>
      </trkpt>
      <trkpt lat="42.4107612949" lon="19.8326962721">
        <ele>1191.69</ele>
        <time>2019-07-07T10:54:16Z</time>
      </trkpt>
      <trkpt lat="42.4106866121" lon="19.8328119423">
        <ele>1190.25</ele>
        <time>2019-07-07T10:54:24Z</time>
      </trkpt>
      <trkpt lat="42.4105725344" lon="19.8330121022">
        <ele>1187.37</ele>
        <time>2019-07-07T10:54:38Z</time>
      </trkpt>
      <trkpt lat="42.4105386715" lon="19.8332010303">
        <ele>1184.96</ele>
        <time>2019-07-07T10:54:51Z</time>
      </trkpt>
      <trkpt lat="42.4105148669" lon="19.8334152717">
        <ele>1183.52</ele>
        <time>2019-07-07T10:55:04Z</time>
      </trkpt>
      <trkpt lat="42.4105110951" lon="19.8334618751">
        <ele>1183.52</ele>
        <time>2019-07-07T10:55:07Z</time>
      </trkpt>
      <trkpt lat="42.4105089158" lon="19.8335034493">
        <ele>1183.52</ele>
        <time>2019-07-07T10:55:10Z</time>
      </trkpt>
      <trkpt lat="42.4104304612" lon="19.8336238135">
        <ele>1183.04</ele>
        <time>2019-07-07T10:55:20Z</time>
      </trkpt>
      <trkpt lat="42.4103594664" lon="19.8337076325">
        <ele>1181.12</ele>
        <time>2019-07-07T10:55:27Z</time>
      </trkpt>
      <trkpt lat="42.4102482386" lon="19.8339201976">
        <ele>1178.23</ele>
        <time>2019-07-07T10:55:39Z</time>
      </trkpt>
      <trkpt lat="42.4101819377" lon="19.8339519650">
        <ele>1177.27</ele>
        <time>2019-07-07T10:55:44Z</time>
      </trkpt>
      <trkpt lat="42.4100660998" lon="19.8339762725">
        <ele>1175.35</ele>
        <time>2019-07-07T10:55:53Z</time>
      </trkpt>
      <trkpt lat="42.4100660998" lon="19.8340607621">
        <ele>1175.35</ele>
        <time>2019-07-07T10:55:59Z</time>
      </trkpt>
      <trkpt lat="42.4100231845" lon="19.8342936113">
        <ele>1174.87</ele>
        <time>2019-07-07T10:56:13Z</time>
      </trkpt>
      <trkpt lat="42.4100532755" lon="19.8344375286">
        <ele>1174.87</ele>
        <time>2019-07-07T10:56:27Z</time>
      </trkpt>
      <trkpt lat="42.4100088514" lon="19.8345013987">
        <ele>1174.39</ele>
        <time>2019-07-07T10:56:43Z</time>
      </trkpt>
      <trkpt lat="42.4100328237" lon="19.8344979621">
        <ele>1174.39</ele>
        <time>2019-07-07T10:57:08Z</time>
      </trkpt>
      <trkpt lat="42.4100200832" lon="19.8345392011">
        <ele>1172.95</ele>
        <time>2019-07-07T10:57:15Z</time>
      </trkpt>
      <trkpt lat="42.4099930096" lon="19.8347149696">
        <ele>1171.50</ele>
        <time>2019-07-07T10:57:28Z</time>
      </trkpt>
      <trkpt lat="42.4100154731" lon="19.8349007964">
        <ele>1168.14</ele>
        <time>2019-07-07T10:57:40Z</time>
      </trkpt>
      <trkpt lat="42.4100198317" lon="19.8349239305">
        <ele>1168.14</ele>
        <time>2019-07-07T10:57:42Z</time>
      </trkpt>
      <trkpt lat="42.4100466538" lon="19.8351476435">
        <ele>1166.22</ele>
        <time>2019-07-07T10:57:56Z</time>
      </trkpt>
      <trkpt lat="42.4100334942" lon="19.8354481347">
        <ele>1163.33</ele>
        <time>2019-07-07T10:58:12Z</time>
      </trkpt>
      <trkpt lat="42.4100293871" lon="19.8356860131">
        <ele>1162.37</ele>
        <time>2019-07-07T10:58:25Z</time>
      </trkpt>
      <trkpt lat="42.4100079294" lon="19.8359347880">
        <ele>1160.45</ele>
        <time>2019-07-07T10:58:40Z</time>
      </trkpt>
      <trkpt lat="42.4099989608" lon="19.8361154180">
        <ele>1159.01</ele>
        <time>2019-07-07T10:58:51Z</time>
      </trkpt>
      <trkpt lat="42.4100649264" lon="19.8363070283">
        <ele>1156.60</ele>
        <time>2019-07-07T10:59:05Z</time>
      </trkpt>
      <trkpt lat="42.4100746494" lon="19.8364524543">
        <ele>1156.60</ele>
        <time>2019-07-07T10:59:13Z</time>
      </trkpt>
      <trkpt lat="42.4100683630" lon="19.8367171548">
        <ele>1155.16</ele>
        <time>2019-07-07T10:59:28Z</time>
      </trkpt>
      <trkpt lat="42.4100653455" lon="19.8367493413">
        <ele>1154.20</ele>
        <time>2019-07-07T10:59:30Z</time>
      </trkpt>
      <trkpt lat="42.4100283813" lon="19.8370312247">
        <ele>1152.28</ele>
        <time>2019-07-07T10:59:46Z</time>
      </trkpt>
      <trkpt lat="42.4099928420" lon="19.8372532614">
        <ele>1150.35</ele>
        <time>2019-07-07T10:59:59Z</time>
      </trkpt>
      <trkpt lat="42.4100064207" lon="19.8375295289">
        <ele>1148.43</ele>
        <time>2019-07-07T11:00:14Z</time>
      </trkpt>
      <trkpt lat="42.4100122042" lon="19.8375783116">
        <ele>1147.47</ele>
        <time>2019-07-07T11:00:17Z</time>
      </trkpt>
      <trkpt lat="42.4100089353" lon="19.8378407490">
        <ele>1145.55</ele>
        <time>2019-07-07T11:00:30Z</time>
      </trkpt>
      <trkpt lat="42.4100363441" lon="19.8381028511">
        <ele>1143.63</ele>
        <time>2019-07-07T11:00:45Z</time>
      </trkpt>
      <trkpt lat="42.4100557901" lon="19.8382811341">
        <ele>1141.70</ele>
        <time>2019-07-07T11:00:56Z</time>
      </trkpt>
      <trkpt lat="42.4100648426" lon="19.8383128177">
        <ele>1140.74</ele>
        <time>2019-07-07T11:00:58Z</time>
      </trkpt>
      <trkpt lat="42.4101112783" lon="19.8385513667">
        <ele>1137.86</ele>
        <time>2019-07-07T11:01:13Z</time>
      </trkpt>
      <trkpt lat="42.4101141281" lon="19.8385693878">
        <ele>1137.86</ele>
        <time>2019-07-07T11:01:14Z</time>
      </trkpt>
      <trkpt lat="42.4101327360" lon="19.8386071064">
        <ele>1136.90</ele>
        <time>2019-07-07T11:01:17Z</time>
      </trkpt>
      <trkpt lat="42.4101496674" lon="19.8386668693">
        <ele>1135.94</ele>
        <time>2019-07-07T11:01:20Z</time>
      </trkpt>
      <trkpt lat="42.4101914931" lon="19.8388126306">
        <ele>1134.49</ele>
        <time>2019-07-07T11:01:28Z</time>
      </trkpt>
      <trkpt lat="42.4102615658" lon="19.8390970286">
        <ele>1133.53</ele>
        <time>2019-07-07T11:01:44Z</time>
      </trkpt>
      <trkpt lat="42.4103291240" lon="19.8393210769">
        <ele>1131.13</ele>
        <time>2019-07-07T11:01:57Z</time>
      </trkpt>
      <trkpt lat="42.4103836063" lon="19.8395472206">
        <ele>1129.21</ele>
        <time>2019-07-07T11:02:10Z</time>
      </trkpt>
      <trkpt lat="42.4104333110" lon="19.8396859411">
        <ele>1128.73</ele>
        <time>2019-07-07T11:02:20Z</time>
      </trkpt>
      <trkpt lat="42.4104722030" lon="19.8397653177">
        <ele>1128.73</ele>
        <time>2019-07-07T11:02:25Z</time>
      </trkpt>
      <trkpt lat="42.4104476441" lon="19.8398280982">
        <ele>1128.24</ele>
        <time>2019-07-07T11:02:29Z</time>
      </trkpt>
      <trkpt lat="42.4103092588" lon="19.8399948981">
        <ele>1123.92</ele>
        <time>2019-07-07T11:02:43Z</time>
      </trkpt>
      <trkpt lat="42.4102360010" lon="19.8400845006">
        <ele>1121.52</ele>
        <time>2019-07-07T11:02:52Z</time>
      </trkpt>
      <trkpt lat="42.4102565367" lon="19.8403324373">
        <ele>1119.59</ele>
        <time>2019-07-07T11:03:07Z</time>
      </trkpt>
      <trkpt lat="42.4102864601" lon="19.8406046815">
        <ele>1116.23</ele>
        <time>2019-07-07T11:03:24Z</time>
      </trkpt>
      <trkpt lat="42.4102928303" lon="19.8407658655">
        <ele>1113.34</ele>
        <time>2019-07-07T11:03:38Z</time>
      </trkpt>
      <trkpt lat="42.4103019666" lon="19.8410166521">
        <ele>1110.94</ele>
        <time>2019-07-07T11:03:52Z</time>
      </trkpt>
      <trkpt lat="42.4102301337" lon="19.8412671871">
        <ele>1108.06</ele>
        <time>2019-07-07T11:04:06Z</time>
      </trkpt>
      <trkpt lat="42.4101799261" lon="19.8414396867">
        <ele>1107.58</ele>
        <time>2019-07-07T11:04:19Z</time>
      </trkpt>
      <trkpt lat="42.4100908265" lon="19.8416958377">
        <ele>1107.58</ele>
        <time>2019-07-07T11:04:34Z</time>
      </trkpt>
      <trkpt lat="42.4100863840" lon="19.8417711910">
        <ele>1107.58</ele>
        <time>2019-07-07T11:04:38Z</time>
      </trkpt>
      <trkpt lat="42.4100999627" lon="19.8419243284">
        <ele>1107.10</ele>
        <time>2019-07-07T11:04:47Z</time>
      </trkpt>
      <trkpt lat="42.4101010524" lon="19.8420581035">
        <ele>1107.10</ele>
        <time>2019-07-07T11:04:56Z</time>
      </trkpt>
      <trkpt lat="42.4102098495" lon="19.8422533181">
        <ele>1106.61</ele>
        <time>2019-07-07T11:05:10Z</time>
      </trkpt>
      <trkpt lat="42.4102397729" lon="19.8423817288">
        <ele>1106.61</ele>
        <time>2019-07-07T11:05:18Z</time>
      </trkpt>
      <trkpt lat="42.4102385156" lon="19.8424256500">
        <ele>1106.61</ele>
        <time>2019-07-07T11:05:21Z</time>
      </trkpt>
      <trkpt lat="42.4102429580" lon="19.8424541485">
        <ele>1106.61</ele>
        <time>2019-07-07T11:05:23Z</time>
      </trkpt>
      <trkpt lat="42.4102633260" lon="19.8425009195">
        <ele>1106.61</ele>
        <time>2019-07-07T11:05:27Z</time>
      </trkpt>
      <trkpt lat="42.4102733005" lon="19.8425659630">
        <ele>1106.61</ele>
        <time>2019-07-07T11:05:31Z</time>
      </trkpt>
      <trkpt lat="42.4102942552" lon="19.8426287435">
        <ele>1106.61</ele>
        <time>2019-07-07T11:05:43Z</time>
      </trkpt>
      <trkpt lat="42.4103478156" lon="19.8427053541">
        <ele>1106.13</ele>
        <time>2019-07-07T11:05:54Z</time>
      </trkpt>
      <trkpt lat="42.4104442075" lon="19.8429435678">
        <ele>1105.65</ele>
        <time>2019-07-07T11:06:11Z</time>
      </trkpt>
      <trkpt lat="42.4105327204" lon="19.8431612458">
        <ele>1105.17</ele>
        <time>2019-07-07T11:06:26Z</time>
      </trkpt>
      <trkpt lat="42.4105514959" lon="19.8432353418">
        <ele>1104.69</ele>
        <time>2019-07-07T11:06:31Z</time>
      </trkpt>
      <trkpt lat="42.4105853587" lon="19.8434672691">
        <ele>1104.69</ele>
        <time>2019-07-07T11:06:47Z</time>
      </trkpt>
      <trkpt lat="42.4105941597" lon="19.8434975278">
        <ele>1104.21</ele>
        <time>2019-07-07T11:06:49Z</time>
      </trkpt>
      <trkpt lat="42.4106878694" lon="19.8437167984">
        <ele>1104.21</ele>
        <time>2019-07-07T11:07:05Z</time>
      </trkpt>
      <trkpt lat="42.4107925594" lon="19.8438589554">
        <ele>1103.73</ele>
        <time>2019-07-07T11:07:19Z</time>
      </trkpt>
      <trkpt lat="42.4109609518" lon="19.8440794833">
        <ele>1103.73</ele>
        <time>2019-07-07T11:07:37Z</time>
      </trkpt>
      <trkpt lat="42.4110758677" lon="19.8442918807">
        <ele>1102.77</ele>
        <time>2019-07-07T11:07:53Z</time>
      </trkpt>
      <trkpt lat="42.4112020154" lon="19.8444418330">
        <ele>1102.77</ele>
        <time>2019-07-07T11:08:07Z</time>
      </trkpt>
      <trkpt lat="42.4112893548" lon="19.8446585052">
        <ele>1102.29</ele>
        <time>2019-07-07T11:08:22Z</time>
      </trkpt>
      <trkpt lat="42.4113679770" lon="19.8448232096">
        <ele>1101.81</ele>
        <time>2019-07-07T11:08:35Z</time>
      </trkpt>
      <trkpt lat="42.4114241358" lon="19.8448792845">
        <ele>1101.33</ele>
        <time>2019-07-07T11:08:42Z</time>
      </trkpt>
      <trkpt lat="42.4115035124" lon="19.8448743392">
        <ele>1101.33</ele>
        <time>2019-07-07T11:08:51Z</time>
      </trkpt>
      <trkpt lat="42.4115859065" lon="19.8449139018">
        <ele>1100.85</ele>
        <time>2019-07-07T11:09:02Z</time>
      </trkpt>
      <trkpt lat="42.4117453303" lon="19.8450356908">
        <ele>1100.85</ele>
        <time>2019-07-07T11:09:15Z</time>
      </trkpt>
      <trkpt lat="42.4119295646" lon="19.8450864013">
        <ele>1100.85</ele>
        <time>2019-07-07T11:09:31Z</time>
      </trkpt>
      <trkpt lat="42.4120584782" lon="19.8451485112">
        <ele>1100.37</ele>
        <time>2019-07-07T11:09:43Z</time>
      </trkpt>
      <trkpt lat="42.4121391121" lon="19.8452682048">
        <ele>1101.81</ele>
        <time>2019-07-07T11:09:55Z</time>
      </trkpt>
      <trkpt lat="42.4122049101" lon="19.8453961965">
        <ele>1101.81</ele>
        <time>2019-07-07T11:10:08Z</time>
      </trkpt>
      <trkpt lat="42.4122257810" lon="19.8454583902">
        <ele>1101.81</ele>
        <time>2019-07-07T11:10:17Z</time>
      </trkpt>
      <trkpt lat="42.4123001285" lon="19.8455757368">
        <ele>1101.33</ele>
        <time>2019-07-07T11:10:28Z</time>
      </trkpt>
      <trkpt lat="42.4123500846" lon="19.8456192389">
        <ele>1100.37</ele>
        <time>2019-07-07T11:10:33Z</time>
      </trkpt>
      <trkpt lat="42.4124410283" lon="19.8457382619">
        <ele>1099.89</ele>
        <time>2019-07-07T11:10:46Z</time>
      </trkpt>
      <trkpt lat="42.4124520086" lon="19.8458026350">
        <ele>1099.40</ele>
        <time>2019-07-07T11:10:50Z</time>
      </trkpt>
      <trkpt lat="42.4125319719" lon="19.8459960893">
        <ele>1099.40</ele>
        <time>2019-07-07T11:11:05Z</time>
      </trkpt>
      <trkpt lat="42.4125506636" lon="19.8460362386">
        <ele>1099.40</ele>
        <time>2019-07-07T11:11:07Z</time>
      </trkpt>
      <trkpt lat="42.4126406014" lon="19.8462755419">
        <ele>1099.40</ele>
        <time>2019-07-07T11:11:22Z</time>
      </trkpt>
      <trkpt lat="42.4127022084" lon="19.8464924656">
        <ele>1098.92</ele>
        <time>2019-07-07T11:11:35Z</time>
      </trkpt>
      <trkpt lat="42.4127223250" lon="19.8466593493">
        <ele>1098.92</ele>
        <time>2019-07-07T11:11:46Z</time>
      </trkpt>
      <trkpt lat="42.4127377477" lon="19.8467450961">
        <ele>1098.92</ele>
        <time>2019-07-07T11:11:52Z</time>
      </trkpt>
      <trkpt lat="42.4127423577" lon="19.8467952199">
        <ele>1098.92</ele>
        <time>2019-07-07T11:11:55Z</time>
      </trkpt>
      <trkpt lat="42.4127587024" lon="19.8469615169">
        <ele>1098.92</ele>
        <time>2019-07-07T11:12:06Z</time>
      </trkpt>
      <trkpt lat="42.4127706885" lon="19.8470336013">
        <ele>1098.44</ele>
        <time>2019-07-07T11:12:11Z</time>
      </trkpt>
      <trkpt lat="42.4127758853" lon="19.8471190967">
        <ele>1098.44</ele>
        <time>2019-07-07T11:12:17Z</time>
      </trkpt>
      <trkpt lat="42.4127931520" lon="19.8472037539">
        <ele>1098.44</ele>
        <time>2019-07-07T11:12:24Z</time>
      </trkpt>
      <trkpt lat="42.4128666613" lon="19.8473991361">
        <ele>1099.40</ele>
        <time>2019-07-07T11:12:40Z</time>
      </trkpt>
      <trkpt lat="42.4128878675" lon="19.8474329989">
        <ele>1099.40</ele>
        <time>2019-07-07T11:12:43Z</time>
      </trkpt>
      <trkpt lat="42.4129028711" lon="19.8476660158">
        <ele>1099.40</ele>
        <time>2019-07-07T11:12:58Z</time>
      </trkpt>
      <trkpt lat="42.4128849339" lon="19.8478935845">
        <ele>1099.40</ele>
        <time>2019-07-07T11:13:12Z</time>
      </trkpt>
      <trkpt lat="42.4128914718" lon="19.8479380924">
        <ele>1099.89</ele>
        <time>2019-07-07T11:13:15Z</time>
      </trkpt>
      <trkpt lat="42.4128910527" lon="19.8479955085">
        <ele>1099.89</ele>
        <time>2019-07-07T11:13:19Z</time>
      </trkpt>
      <trkpt lat="42.4129133485" lon="19.8482567724">
        <ele>1100.37</ele>
        <time>2019-07-07T11:13:36Z</time>
      </trkpt>
      <trkpt lat="42.4129386619" lon="19.8483127635">
        <ele>1100.85</ele>
        <time>2019-07-07T11:13:41Z</time>
      </trkpt>
      <trkpt lat="42.4129659031" lon="19.8483645637">
        <ele>1100.37</ele>
        <time>2019-07-07T11:13:45Z</time>
      </trkpt>
      <trkpt lat="42.4129673280" lon="19.8484963272">
        <ele>1100.37</ele>
        <time>2019-07-07T11:13:53Z</time>
      </trkpt>
      <trkpt lat="42.4130381551" lon="19.8487239797">
        <ele>1100.85</ele>
        <time>2019-07-07T11:14:09Z</time>
      </trkpt>
      <trkpt lat="42.4130704254" lon="19.8488886841">
        <ele>1101.33</ele>
        <time>2019-07-07T11:14:22Z</time>
      </trkpt>
      <trkpt lat="42.4130762089" lon="19.8489055317">
        <ele>1101.33</ele>
        <time>2019-07-07T11:14:23Z</time>
      </trkpt>
      <trkpt lat="42.4130927213" lon="19.8489270732">
        <ele>1101.33</ele>
        <time>2019-07-07T11:14:25Z</time>
      </trkpt>
      <trkpt lat="42.4131048750" lon="19.8489752691">
        <ele>1100.37</ele>
        <time>2019-07-07T11:14:28Z</time>
      </trkpt>
      <trkpt lat="42.4131066352" lon="19.8489836510">
        <ele>1100.37</ele>
        <time>2019-07-07T11:14:29Z</time>
      </trkpt>
      <trkpt lat="42.4131451920" lon="19.8490530532">
        <ele>1099.40</ele>
        <time>2019-07-07T11:14:34Z</time>
      </trkpt>
      <trkpt lat="42.4131523166" lon="19.8491411470">
        <ele>1098.92</ele>
        <time>2019-07-07T11:14:39Z</time>
      </trkpt>
      <trkpt lat="42.4131808151" lon="19.8493744992">
        <ele>1098.44</ele>
        <time>2019-07-07T11:14:53Z</time>
      </trkpt>
      <trkpt lat="42.4132064637" lon="19.8494627606">
        <ele>1097.96</ele>
        <time>2019-07-07T11:14:59Z</time>
      </trkpt>
      <trkpt lat="42.4132341240" lon="19.8495174106">
        <ele>1097.96</ele>
        <time>2019-07-07T11:15:04Z</time>
      </trkpt>
      <trkpt lat="42.4133062921" lon="19.8497029021">
        <ele>1097.96</ele>
        <time>2019-07-07T11:15:17Z</time>
      </trkpt>
      <trkpt lat="42.4133710004" lon="19.8498845380">
        <ele>1097.48</ele>
        <time>2019-07-07T11:15:30Z</time>
      </trkpt>
      <trkpt lat="42.4133765325" lon="19.8498968594">
        <ele>1097.48</ele>
        <time>2019-07-07T11:15:31Z</time>
      </trkpt>
      <trkpt lat="42.4134419952" lon="19.8499568738">
        <ele>1097.00</ele>
        <time>2019-07-07T11:15:37Z</time>
      </trkpt>
      <trkpt lat="42.4134975672" lon="19.8501753062">
        <ele>1096.04</ele>
        <time>2019-07-07T11:15:50Z</time>
      </trkpt>
      <trkpt lat="42.4135282449" lon="19.8503866978">
        <ele>1097.48</ele>
        <time>2019-07-07T11:16:04Z</time>
      </trkpt>
      <trkpt lat="42.4135925341" lon="19.8505494744">
        <ele>1097.96</ele>
        <time>2019-07-07T11:16:16Z</time>
      </trkpt>
      <trkpt lat="42.4136106391" lon="19.8505931441">
        <ele>1097.96</ele>
        <time>2019-07-07T11:16:20Z</time>
      </trkpt>
      <trkpt lat="42.4136354495" lon="19.8506886140">
        <ele>1097.96</ele>
        <time>2019-07-07T11:16:27Z</time>
      </trkpt>
      <trkpt lat="42.4136750959" lon="19.8507479578">
        <ele>1097.96</ele>
        <time>2019-07-07T11:16:33Z</time>
      </trkpt>
      <trkpt lat="42.4137388822" lon="19.8509212118">
        <ele>1098.92</ele>
        <time>2019-07-07T11:16:46Z</time>
      </trkpt>
      <trkpt lat="42.4138360284" lon="19.8510447610">
        <ele>1098.44</ele>
        <time>2019-07-07T11:17:00Z</time>
      </trkpt>
      <trkpt lat="42.4139160756" lon="19.8511493672">
        <ele>1099.89</ele>
        <time>2019-07-07T11:17:12Z</time>
      </trkpt>
      <trkpt lat="42.4139801972" lon="19.8512491956">
        <ele>1099.40</ele>
        <time>2019-07-07T11:17:20Z</time>
      </trkpt>
      <trkpt lat="42.4140611663" lon="19.8514293227">
        <ele>1099.40</ele>
        <time>2019-07-07T11:17:33Z</time>
      </trkpt>
      <trkpt lat="42.4140677042" lon="19.8514427338">
        <ele>1099.40</ele>
        <time>2019-07-07T11:17:34Z</time>
      </trkpt>
      <trkpt lat="42.4141076859" lon="19.8515665345">
        <ele>1097.96</ele>
        <time>2019-07-07T11:17:42Z</time>
      </trkpt>
      <trkpt lat="42.4141435605" lon="19.8516589869">
        <ele>1097.48</ele>
        <time>2019-07-07T11:17:49Z</time>
      </trkpt>
      <trkpt lat="42.4141713046" lon="19.8517075181">
        <ele>1097.00</ele>
        <time>2019-07-07T11:17:53Z</time>
      </trkpt>
      <trkpt lat="42.4141950253" lon="19.8517872300">
        <ele>1095.56</ele>
        <time>2019-07-07T11:17:58Z</time>
      </trkpt>
      <trkpt lat="42.4142137170" lon="19.8518042453">
        <ele>1095.56</ele>
        <time>2019-07-07T11:18:00Z</time>
      </trkpt>
      <trkpt lat="42.4142910820" lon="19.8520207498">
        <ele>1095.08</ele>
        <time>2019-07-07T11:18:13Z</time>
      </trkpt>
      <trkpt lat="42.4143065047" lon="19.8520648386">
        <ele>1094.60</ele>
        <time>2019-07-07T11:18:16Z</time>
      </trkpt>
      <trkpt lat="42.4144106079" lon="19.8522758950">
        <ele>1093.64</ele>
        <time>2019-07-07T11:18:31Z</time>
      </trkpt>
      <trkpt lat="42.4144146312" lon="19.8522848636">
        <ele>1093.64</ele>
        <time>2019-07-07T11:18:32Z</time>
      </trkpt>
      <trkpt lat="42.4144365918" lon="19.8523047287">
        <ele>1093.64</ele>
        <time>2019-07-07T11:18:34Z</time>
      </trkpt>
      <trkpt lat="42.4144655094" lon="19.8523680121">
        <ele>1092.68</ele>
        <time>2019-07-07T11:18:39Z</time>
      </trkpt>
      <trkpt lat="42.4145239312" lon="19.8525656573">
        <ele>1090.27</ele>
        <time>2019-07-07T11:18:53Z</time>
      </trkpt>
      <trkpt lat="42.4145283736" lon="19.8525789846">
        <ele>1090.27</ele>
        <time>2019-07-07T11:18:54Z</time>
      </trkpt>
      <trkpt lat="42.4146150425" lon="19.8527934775">
        <ele>1089.31</ele>
        <time>2019-07-07T11:19:08Z</time>
      </trkpt>
      <trkpt lat="42.4146703631" lon="19.8529233132">
        <ele>1088.83</ele>
        <time>2019-07-07T11:19:17Z</time>
      </trkpt>
      <trkpt lat="42.4146809243" lon="19.8529913742">
        <ele>1088.35</ele>
        <time>2019-07-07T11:19:21Z</time>
      </trkpt>
      <trkpt lat="42.4146973528" lon="19.8530680686">
        <ele>1087.39</ele>
        <time>2019-07-07T11:19:26Z</time>
      </trkpt>
      <trkpt lat="42.4147315510" lon="19.8531984910">
        <ele>1085.95</ele>
        <time>2019-07-07T11:19:34Z</time>
      </trkpt>
      <trkpt lat="42.4147505779" lon="19.8532892670">
        <ele>1085.47</ele>
        <time>2019-07-07T11:19:40Z</time>
      </trkpt>
      <trkpt lat="42.4147819262" lon="19.8533545621">
        <ele>1084.02</ele>
        <time>2019-07-07T11:19:45Z</time>
      </trkpt>
      <trkpt lat="42.4148060661" lon="19.8533906881">
        <ele>1083.54</ele>
        <time>2019-07-07T11:19:48Z</time>
      </trkpt>
      <trkpt lat="42.4148639012" lon="19.8534258083">
        <ele>1083.06</ele>
        <time>2019-07-07T11:19:53Z</time>
      </trkpt>
      <trkpt lat="42.4149319623" lon="19.8536004871">
        <ele>1082.58</ele>
        <time>2019-07-07T11:20:06Z</time>
      </trkpt>
      <trkpt lat="42.4149540905" lon="19.8536517005">
        <ele>1082.58</ele>
        <time>2019-07-07T11:20:10Z</time>
      </trkpt>
      <trkpt lat="42.4150452856" lon="19.8538196739">
        <ele>1081.14</ele>
        <time>2019-07-07T11:20:23Z</time>
      </trkpt>
      <trkpt lat="42.4150543381" lon="19.8538518604">
        <ele>1080.66</ele>
        <time>2019-07-07T11:20:26Z</time>
      </trkpt>
      <trkpt lat="42.4150703475" lon="19.8539038282">
        <ele>1080.18</ele>
        <time>2019-07-07T11:20:30Z</time>
      </trkpt>
      <trkpt lat="42.4151550885" lon="19.8541474063">
        <ele>1078.26</ele>
        <time>2019-07-07T11:20:46Z</time>
      </trkpt>
      <trkpt lat="42.4151716847" lon="19.8541904055">
        <ele>1077.78</ele>
        <time>2019-07-07T11:20:50Z</time>
      </trkpt>
      <trkpt lat="42.4151857663" lon="19.8542121146">
        <ele>1077.78</ele>
        <time>2019-07-07T11:20:52Z</time>
      </trkpt>
      <trkpt lat="42.4152873550" lon="19.8543150444">
        <ele>1076.33</ele>
        <time>2019-07-07T11:21:05Z</time>
      </trkpt>
      <trkpt lat="42.4153549131" lon="19.8543767352">
        <ele>1076.33</ele>
        <time>2019-07-07T11:21:15Z</time>
      </trkpt>
      <trkpt lat="42.4154393189" lon="19.8544750549">
        <ele>1075.85</ele>
        <time>2019-07-07T11:21:25Z</time>
      </trkpt>
      <trkpt lat="42.4154894426" lon="19.8546024598">
        <ele>1075.37</ele>
        <time>2019-07-07T11:21:38Z</time>
      </trkpt>
      <trkpt lat="42.4155253172" lon="19.8546713591">
        <ele>1074.41</ele>
        <time>2019-07-07T11:21:53Z</time>
      </trkpt>
      <trkpt lat="42.4155986588" lon="19.8547863588">
        <ele>1073.93</ele>
        <time>2019-07-07T11:22:06Z</time>
      </trkpt>
      <trkpt lat="42.4156354554" lon="19.8548460379">
        <ele>1072.97</ele>
        <time>2019-07-07T11:22:13Z</time>
      </trkpt>
      <trkpt lat="42.4157094676" lon="19.8549830820">
        <ele>1072.49</ele>
        <time>2019-07-07T11:22:27Z</time>
      </trkpt>
      <trkpt lat="42.4157792050" lon="19.8551351298">
        <ele>1071.53</ele>
        <time>2019-07-07T11:22:40Z</time>
      </trkpt>
      <trkpt lat="42.4157854915" lon="19.8552622832">
        <ele>1070.57</ele>
        <time>2019-07-07T11:22:49Z</time>
      </trkpt>
      <trkpt lat="42.4157531373" lon="19.8554843199">
        <ele>1069.12</ele>
        <time>2019-07-07T11:23:04Z</time>
      </trkpt>
      <trkpt lat="42.4157241359" lon="19.8556093778">
        <ele>1067.68</ele>
        <time>2019-07-07T11:23:12Z</time>
      </trkpt>
      <trkpt lat="42.4157144967" lon="19.8558492679">
        <ele>1066.24</ele>
        <time>2019-07-07T11:23:26Z</time>
      </trkpt>
      <trkpt lat="42.4157255609" lon="19.8559492640">
        <ele>1065.76</ele>
        <time>2019-07-07T11:23:33Z</time>
      </trkpt>
      <trkpt lat="42.4157536402" lon="19.8560861405">
        <ele>1064.80</ele>
        <time>2019-07-07T11:23:42Z</time>
      </trkpt>
      <trkpt lat="42.4157710746" lon="19.8562046606">
        <ele>1063.84</ele>
        <time>2019-07-07T11:23:49Z</time>
      </trkpt>
      <trkpt lat="42.4157809652" lon="19.8562710453">
        <ele>1063.36</ele>
        <time>2019-07-07T11:23:53Z</time>
      </trkpt>
      <trkpt lat="42.4157997407" lon="19.8565127794">
        <ele>1061.91</ele>
        <time>2019-07-07T11:24:06Z</time>
      </trkpt>
      <trkpt lat="42.4158199411" lon="19.8565971013">
        <ele>1061.43</ele>
        <time>2019-07-07T11:24:11Z</time>
      </trkpt>
      <trkpt lat="42.4158439972" lon="19.8566292878">
        <ele>1060.95</ele>
        <time>2019-07-07T11:24:14Z</time>
      </trkpt>
      <trkpt lat="42.4159500282" lon="19.8568468820">
        <ele>1059.99</ele>
        <time>2019-07-07T11:24:29Z</time>
      </trkpt>
      <trkpt lat="42.4160494376" lon="19.8570413422">
        <ele>1058.07</ele>
        <time>2019-07-07T11:24:44Z</time>
      </trkpt>
      <trkpt lat="42.4161288980" lon="19.8572553322">
        <ele>1056.63</ele>
        <time>2019-07-07T11:25:01Z</time>
      </trkpt>
      <trkpt lat="42.4161412194" lon="19.8573055398">
        <ele>1056.15</ele>
        <time>2019-07-07T11:25:05Z</time>
      </trkpt>
      <trkpt lat="42.4160923529" lon="19.8574529774">
        <ele>1055.67</ele>
        <time>2019-07-07T11:25:19Z</time>
      </trkpt>
      <trkpt lat="42.4160772655" lon="19.8574774526">
        <ele>1055.18</ele>
        <time>2019-07-07T11:25:34Z</time>
      </trkpt>
      <trkpt lat="42.4160958733" lon="19.8574743513">
        <ele>1054.22</ele>
        <time>2019-07-07T11:26:07Z</time>
      </trkpt>
      <trkpt lat="42.4160761759" lon="19.8574881814">
        <ele>1054.22</ele>
        <time>2019-07-07T11:26:45Z</time>
      </trkpt>
      <trkpt lat="42.4160669558" lon="19.8574937973">
        <ele>1055.67</ele>
        <time>2019-07-07T11:27:16Z</time>
      </trkpt>
      <trkpt lat="42.4160834681" lon="19.8575243074">
        <ele>1054.22</ele>
        <time>2019-07-07T11:27:44Z</time>
      </trkpt>
      <trkpt lat="42.4160763435" lon="19.8575085495">
        <ele>1053.74</ele>
        <time>2019-07-07T11:28:09Z</time>
      </trkpt>
      <trkpt lat="42.4160819594" lon="19.8575016763">
        <ele>1053.74</ele>
        <time>2019-07-07T11:28:36Z</time>
      </trkpt>
      <trkpt lat="42.4160946999" lon="19.8574974854">
        <ele>1053.74</ele>
        <time>2019-07-07T11:29:02Z</time>
      </trkpt>
      <trkpt lat="42.4160847254" lon="19.8574830685">
        <ele>1053.74</ele>
        <time>2019-07-07T11:29:40Z</time>
      </trkpt>
      <trkpt lat="42.4161186721" lon="19.8575128242">
        <ele>1053.74</ele>
        <time>2019-07-07T11:30:19Z</time>
      </trkpt>
      <trkpt lat="42.4160989746" lon="19.8575247265">
        <ele>1053.74</ele>
        <time>2019-07-07T11:30:55Z</time>
      </trkpt>
      <trkpt lat="42.4160747509" lon="19.8574881814">
        <ele>1053.74</ele>
        <time>2019-07-07T11:31:31Z</time>
      </trkpt>
      <trkpt lat="42.4161030818" lon="19.8575050291">
        <ele>1053.74</ele>
        <time>2019-07-07T11:32:01Z</time>
      </trkpt>
      <trkpt lat="42.4161195103" lon="19.8575222958">
        <ele>1053.26</ele>
        <time>2019-07-07T11:32:30Z</time>
      </trkpt>
      <trkpt lat="42.4161079433" lon="19.8575562425">
        <ele>1053.26</ele>
        <time>2019-07-07T11:33:08Z</time>
      </trkpt>
      <trkpt lat="42.4160929397" lon="19.8575352039">
        <ele>1053.26</ele>
        <time>2019-07-07T11:33:49Z</time>
      </trkpt>
      <trkpt lat="42.4160553049" lon="19.8574930429">
        <ele>1053.26</ele>
        <time>2019-07-07T11:34:26Z</time>
      </trkpt>
      <trkpt lat="42.4160595797" lon="19.8575133272">
        <ele>1053.26</ele>
        <time>2019-07-07T11:34:57Z</time>
      </trkpt>
      <trkpt lat="42.4160870723" lon="19.8575092200">
        <ele>1054.22</ele>
        <time>2019-07-07T11:35:16Z</time>
      </trkpt>
      <trkpt lat="42.4161351845" lon="19.8575276602">
        <ele>1054.22</ele>
        <time>2019-07-07T11:35:35Z</time>
      </trkpt>
      <trkpt lat="42.4161080271" lon="19.8575442564">
        <ele>1054.70</ele>
        <time>2019-07-07T11:35:59Z</time>
      </trkpt>
      <trkpt lat="42.4161093682" lon="19.8576434981">
        <ele>1053.26</ele>
        <time>2019-07-07T11:36:12Z</time>
      </trkpt>
      <trkpt lat="42.4161278084" lon="19.8577112239">
        <ele>1052.78</ele>
        <time>2019-07-07T11:36:17Z</time>
      </trkpt>
      <trkpt lat="42.4161536247" lon="19.8577629402">
        <ele>1052.30</ele>
        <time>2019-07-07T11:36:21Z</time>
      </trkpt>
      <trkpt lat="42.4162743241" lon="19.8579183407">
        <ele>1051.34</ele>
        <time>2019-07-07T11:36:36Z</time>
      </trkpt>
      <trkpt lat="42.4162812810" lon="19.8579297401">
        <ele>1051.34</ele>
        <time>2019-07-07T11:36:37Z</time>
      </trkpt>
      <trkpt lat="42.4163486715" lon="19.8581558838">
        <ele>1050.38</ele>
        <time>2019-07-07T11:36:53Z</time>
      </trkpt>
      <trkpt lat="42.4163555447" lon="19.8584141303">
        <ele>1049.42</ele>
        <time>2019-07-07T11:37:09Z</time>
      </trkpt>
      <trkpt lat="42.4163692072" lon="19.8586898949">
        <ele>1047.01</ele>
        <time>2019-07-07T11:37:26Z</time>
      </trkpt>
      <trkpt lat="42.4164078478" lon="19.8589137755">
        <ele>1045.57</ele>
        <time>2019-07-07T11:37:40Z</time>
      </trkpt>
      <trkpt lat="42.4164177384" lon="19.8589772265">
        <ele>1045.57</ele>
        <time>2019-07-07T11:37:44Z</time>
      </trkpt>
      <trkpt lat="42.4165153038" lon="19.8591568507">
        <ele>1045.09</ele>
        <time>2019-07-07T11:37:58Z</time>
      </trkpt>
      <trkpt lat="42.4165899027" lon="19.8593851738">
        <ele>1044.13</ele>
        <time>2019-07-07T11:38:14Z</time>
      </trkpt>
      <trkpt lat="42.4166683573" lon="19.8596034385">
        <ele>1043.17</ele>
        <time>2019-07-07T11:38:30Z</time>
      </trkpt>
      <trkpt lat="42.4168399349" lon="19.8597377166">
        <ele>1042.21</ele>
        <time>2019-07-07T11:38:47Z</time>
      </trkpt>
      <trkpt lat="42.4169488158" lon="19.8599354457">
        <ele>1041.25</ele>
        <time>2019-07-07T11:39:03Z</time>
      </trkpt>
      <trkpt lat="42.4169934914" lon="19.8602105398">
        <ele>1040.28</ele>
        <time>2019-07-07T11:39:21Z</time>
      </trkpt>
      <trkpt lat="42.4170265161" lon="19.8604130466">
        <ele>1039.80</ele>
        <time>2019-07-07T11:39:35Z</time>
      </trkpt>
      <trkpt lat="42.4170421902" lon="19.8606486619">
        <ele>1039.32</ele>
        <time>2019-07-07T11:39:50Z</time>
      </trkpt>
      <trkpt lat="42.4170429446" lon="19.8608904798">
        <ele>1038.84</ele>
        <time>2019-07-07T11:40:06Z</time>
      </trkpt>
      <trkpt lat="42.4170612171" lon="19.8610241711">
        <ele>1038.36</ele>
        <time>2019-07-07T11:40:15Z</time>
      </trkpt>
      <trkpt lat="42.4170811661" lon="19.8612130154">
        <ele>1038.36</ele>
        <time>2019-07-07T11:40:28Z</time>
      </trkpt>
      <trkpt lat="42.4170681741" lon="19.8614208028">
        <ele>1037.88</ele>
        <time>2019-07-07T11:40:41Z</time>
      </trkpt>
      <trkpt lat="42.4170359876" lon="19.8615021911">
        <ele>1037.40</ele>
        <time>2019-07-07T11:40:51Z</time>
      </trkpt>
      <trkpt lat="42.4169614725" lon="19.8616328649">
        <ele>1037.40</ele>
        <time>2019-07-07T11:41:01Z</time>
      </trkpt>
      <trkpt lat="42.4169000331" lon="19.8618450947">
        <ele>1036.92</ele>
        <time>2019-07-07T11:41:16Z</time>
      </trkpt>
      <trkpt lat="42.4168765638" lon="19.8618572485">
        <ele>1036.44</ele>
        <time>2019-07-07T11:41:33Z</time>
      </trkpt>
      <trkpt lat="42.4168858677" lon="19.8618693184">
        <ele>1035.96</ele>
        <time>2019-07-07T11:41:51Z</time>
      </trkpt>
      <trkpt lat="42.4168937467" lon="19.8618885968">
        <ele>1035.96</ele>
        <time>2019-07-07T11:41:53Z</time>
      </trkpt>
      <trkpt lat="42.4169763085" lon="19.8621055204">
        <ele>1035.96</ele>
        <time>2019-07-07T11:42:08Z</time>
      </trkpt>
      <trkpt lat="42.4169841036" lon="19.8621161655">
        <ele>1035.96</ele>
        <time>2019-07-07T11:42:09Z</time>
      </trkpt>
      <trkpt lat="42.4170639832" lon="19.8623226117">
        <ele>1035.00</ele>
        <time>2019-07-07T11:42:24Z</time>
      </trkpt>
      <trkpt lat="42.4171104189" lon="19.8625302315">
        <ele>1034.52</ele>
        <time>2019-07-07T11:42:37Z</time>
      </trkpt>
      <trkpt lat="42.4171298649" lon="19.8626376037">
        <ele>1034.04</ele>
        <time>2019-07-07T11:42:43Z</time>
      </trkpt>
      <trkpt lat="42.4171678349" lon="19.8627092689">
        <ele>1034.04</ele>
        <time>2019-07-07T11:42:48Z</time>
      </trkpt>
      <trkpt lat="42.4172872771" lon="19.8629483208">
        <ele>1032.59</ele>
        <time>2019-07-07T11:43:05Z</time>
      </trkpt>
      <trkpt lat="42.4173478782" lon="19.8630645778">
        <ele>1032.11</ele>
        <time>2019-07-07T11:43:13Z</time>
      </trkpt>
      <trkpt lat="42.4174070545" lon="19.8631229158">
        <ele>1032.11</ele>
        <time>2019-07-07T11:43:19Z</time>
      </trkpt>
      <trkpt lat="42.4175881036" lon="19.8632105067">
        <ele>1031.63</ele>
        <time>2019-07-07T11:43:34Z</time>
      </trkpt>
      <trkpt lat="42.4177428335" lon="19.8633331340">
        <ele>1031.15</ele>
        <time>2019-07-07T11:43:48Z</time>
      </trkpt>
      <trkpt lat="42.4178626947" lon="19.8634630535">
        <ele>1030.19</ele>
        <time>2019-07-07T11:44:01Z</time>
      </trkpt>
      <trkpt lat="42.4179984815" lon="19.8636184540">
        <ele>1029.71</ele>
        <time>2019-07-07T11:44:16Z</time>
      </trkpt>
      <trkpt lat="42.4181151576" lon="19.8637423385">
        <ele>1029.71</ele>
        <time>2019-07-07T11:44:29Z</time>
      </trkpt>
      <trkpt lat="42.4182315823" lon="19.8638798017">
        <ele>1029.23</ele>
        <time>2019-07-07T11:44:44Z</time>
      </trkpt>
      <trkpt lat="42.4183012359" lon="19.8639935441">
        <ele>1029.23</ele>
        <time>2019-07-07T11:44:55Z</time>
      </trkpt>
      <trkpt lat="42.4183110427" lon="19.8640515469">
        <ele>1029.23</ele>
        <time>2019-07-07T11:44:59Z</time>
      </trkpt>
      <trkpt lat="42.4184360169" lon="19.8642321769">
        <ele>1027.79</ele>
        <time>2019-07-07T11:45:15Z</time>
      </trkpt>
      <trkpt lat="42.4184849672" lon="19.8642968852">
        <ele>1027.31</ele>
        <time>2019-07-07T11:45:21Z</time>
      </trkpt>
      <trkpt lat="42.4185850471" lon="19.8644505255">
        <ele>1027.31</ele>
        <time>2019-07-07T11:45:35Z</time>
      </trkpt>
      <trkpt lat="42.4186789244" lon="19.8646639287">
        <ele>1026.83</ele>
        <time>2019-07-07T11:45:50Z</time>
      </trkpt>
      <trkpt lat="42.4188227579" lon="19.8648670223">
        <ele>1025.38</ele>
        <time>2019-07-07T11:46:06Z</time>
      </trkpt>
      <trkpt lat="42.4188854545" lon="19.8649039865">
        <ele>1024.90</ele>
        <time>2019-07-07T11:46:12Z</time>
      </trkpt>
      <trkpt lat="42.4190317187" lon="19.8650290444">
        <ele>1024.42</ele>
        <time>2019-07-07T11:46:28Z</time>
      </trkpt>
      <trkpt lat="42.4190580379" lon="19.8650555313">
        <ele>1023.94</ele>
        <time>2019-07-07T11:46:31Z</time>
      </trkpt>
      <trkpt lat="42.4190742150" lon="19.8651017155">
        <ele>1023.94</ele>
        <time>2019-07-07T11:46:34Z</time>
      </trkpt>
      <trkpt lat="42.4192064814" lon="19.8652585410">
        <ele>1023.94</ele>
        <time>2019-07-07T11:46:49Z</time>
      </trkpt>
      <trkpt lat="42.4193567690" lon="19.8654255923">
        <ele>1022.98</ele>
        <time>2019-07-07T11:47:04Z</time>
      </trkpt>
      <trkpt lat="42.4194926396" lon="19.8655389994">
        <ele>1022.50</ele>
        <time>2019-07-07T11:47:16Z</time>
      </trkpt>
      <trkpt lat="42.4196377303" lon="19.8656600341">
        <ele>1021.54</ele>
        <time>2019-07-07T11:47:30Z</time>
      </trkpt>
      <trkpt lat="42.4197100662" lon="19.8657750338">
        <ele>1021.06</ele>
        <time>2019-07-07T11:47:39Z</time>
      </trkpt>
      <trkpt lat="42.4197293445" lon="19.8658098187">
        <ele>1021.06</ele>
        <time>2019-07-07T11:47:42Z</time>
      </trkpt>
      <trkpt lat="42.4197782949" lon="19.8659178615">
        <ele>1020.58</ele>
        <time>2019-07-07T11:47:50Z</time>
      </trkpt>
      <trkpt lat="42.4198727589" lon="19.8661424965">
        <ele>1020.58</ele>
        <time>2019-07-07T11:48:04Z</time>
      </trkpt>
      <trkpt lat="42.4199832324" lon="19.8662589211">
        <ele>1020.58</ele>
        <time>2019-07-07T11:48:17Z</time>
      </trkpt>
      <trkpt lat="42.4200733379" lon="19.8663525470">
        <ele>1020.10</ele>
        <time>2019-07-07T11:48:27Z</time>
      </trkpt>
      <trkpt lat="42.4202280678" lon="19.8664340191">
        <ele>1019.13</ele>
        <time>2019-07-07T11:48:40Z</time>
      </trkpt>
      <trkpt lat="42.4202973023" lon="19.8664525431">
        <ele>1019.13</ele>
        <time>2019-07-07T11:48:46Z</time>
      </trkpt>
      <trkpt lat="42.4203394633" lon="19.8664345220">
        <ele>1019.13</ele>
        <time>2019-07-07T11:48:50Z</time>
      </trkpt>
      <trkpt lat="42.4203783553" lon="19.8663793691">
        <ele>1019.13</ele>
        <time>2019-07-07T11:48:55Z</time>
      </trkpt>
      <trkpt lat="42.4204391241" lon="19.8662292492">
        <ele>1019.13</ele>
        <time>2019-07-07T11:49:07Z</time>
      </trkpt>
      <trkpt lat="42.4205132201" lon="19.8661487829">
        <ele>1018.65</ele>
        <time>2019-07-07T11:49:18Z</time>
      </trkpt>
      <trkpt lat="42.4205800239" lon="19.8661327735">
        <ele>1018.17</ele>
        <time>2019-07-07T11:49:22Z</time>
      </trkpt>
      <trkpt lat="42.4207836203" lon="19.8662096355">
        <ele>1017.69</ele>
        <time>2019-07-07T11:49:36Z</time>
      </trkpt>
      <trkpt lat="42.4208254460" lon="19.8662211187">
        <ele>1017.69</ele>
        <time>2019-07-07T11:49:40Z</time>
      </trkpt>
      <trkpt lat="42.4208443053" lon="19.8662238847">
        <ele>1017.21</ele>
        <time>2019-07-07T11:49:42Z</time>
      </trkpt>
      <trkpt lat="42.4209795054" lon="19.8663758487">
        <ele>1017.21</ele>
        <time>2019-07-07T11:49:57Z</time>
      </trkpt>
      <trkpt lat="42.4210103508" lon="19.8664896749">
        <ele>1016.73</ele>
        <time>2019-07-07T11:50:03Z</time>
      </trkpt>
      <trkpt lat="42.4210630730" lon="19.8665723205">
        <ele>1016.73</ele>
        <time>2019-07-07T11:50:10Z</time>
      </trkpt>
      <trkpt lat="42.4211880472" lon="19.8667407129">
        <ele>1016.25</ele>
        <time>2019-07-07T11:50:24Z</time>
      </trkpt>
      <trkpt lat="42.4213286117" lon="19.8668718059">
        <ele>1016.25</ele>
        <time>2019-07-07T11:50:39Z</time>
      </trkpt>
      <trkpt lat="42.4215021171" lon="19.8669312336">
        <ele>1015.77</ele>
        <time>2019-07-07T11:50:53Z</time>
      </trkpt>
      <trkpt lat="42.4215979222" lon="19.8670666013">
        <ele>1015.29</ele>
        <time>2019-07-07T11:51:06Z</time>
      </trkpt>
      <trkpt lat="42.4217509758" lon="19.8672102671">
        <ele>1015.29</ele>
        <time>2019-07-07T11:51:20Z</time>
      </trkpt>
      <trkpt lat="42.4217715953" lon="19.8672351614">
        <ele>1014.81</ele>
        <time>2019-07-07T11:51:22Z</time>
      </trkpt>
      <trkpt lat="42.4218176119" lon="19.8672777414">
        <ele>1014.81</ele>
        <time>2019-07-07T11:51:26Z</time>
      </trkpt>
      <trkpt lat="42.4219105672" lon="19.8673764803">
        <ele>1014.81</ele>
        <time>2019-07-07T11:51:35Z</time>
      </trkpt>
      <trkpt lat="42.4220139999" lon="19.8675611336">
        <ele>1014.33</ele>
        <time>2019-07-07T11:51:49Z</time>
      </trkpt>
      <trkpt lat="42.4220212083" lon="19.8675752152">
        <ele>1014.33</ele>
        <time>2019-07-07T11:51:50Z</time>
      </trkpt>
      <trkpt lat="42.4221373815" lon="19.8677163664">
        <ele>1014.33</ele>
        <time>2019-07-07T11:52:02Z</time>
      </trkpt>
      <trkpt lat="42.4222837295" lon="19.8677796498">
        <ele>1014.33</ele>
        <time>2019-07-07T11:52:15Z</time>
      </trkpt>
      <trkpt lat="42.4222911894" lon="19.8677861039">
        <ele>1014.33</ele>
        <time>2019-07-07T11:52:16Z</time>
      </trkpt>
      <trkpt lat="42.4223957956" lon="19.8679097369">
        <ele>1012.89</ele>
        <time>2019-07-07T11:52:30Z</time>
      </trkpt>
      <trkpt lat="42.4224466737" lon="19.8681030236">
        <ele>1012.89</ele>
        <time>2019-07-07T11:52:42Z</time>
      </trkpt>
      <trkpt lat="42.4224604201" lon="19.8682532273">
        <ele>1012.89</ele>
        <time>2019-07-07T11:52:52Z</time>
      </trkpt>
      <trkpt lat="42.4225086998" lon="19.8682997469">
        <ele>1012.41</ele>
        <time>2019-07-07T11:52:58Z</time>
      </trkpt>
      <trkpt lat="42.4225579016" lon="19.8683603480">
        <ele>1012.41</ele>
        <time>2019-07-07T11:53:03Z</time>
      </trkpt>
      <trkpt lat="42.4227037467" lon="19.8685242981">
        <ele>1010.96</ele>
        <time>2019-07-07T11:53:17Z</time>
      </trkpt>
      <trkpt lat="42.4228199199" lon="19.8687066045">
        <ele>1010.96</ele>
        <time>2019-07-07T11:53:31Z</time>
      </trkpt>
      <trkpt lat="42.4228871427" lon="19.8688244540">
        <ele>1010.96</ele>
        <time>2019-07-07T11:53:40Z</time>
      </trkpt>
      <trkpt lat="42.4230671022" lon="19.8689077701">
        <ele>1010.48</ele>
        <time>2019-07-07T11:53:54Z</time>
      </trkpt>
      <trkpt lat="42.4231204949" lon="19.8689088598">
        <ele>1010.48</ele>
        <time>2019-07-07T11:53:58Z</time>
      </trkpt>
      <trkpt lat="42.4232862052" lon="19.8689257074">
        <ele>1010.48</ele>
        <time>2019-07-07T11:54:13Z</time>
      </trkpt>
      <trkpt lat="42.4234422762" lon="19.8689474165">
        <ele>1008.56</ele>
        <time>2019-07-07T11:54:25Z</time>
      </trkpt>
      <trkpt lat="42.4235029612" lon="19.8689581454">
        <ele>1010.00</ele>
        <time>2019-07-07T11:54:30Z</time>
      </trkpt>
      <trkpt lat="42.4237297755" lon="19.8690697923">
        <ele>1010.00</ele>
        <time>2019-07-07T11:54:49Z</time>
      </trkpt>
      <trkpt lat="42.4238907080" lon="19.8692776635">
        <ele>1010.00</ele>
        <time>2019-07-07T11:55:07Z</time>
      </trkpt>
      <trkpt lat="42.4239566736" lon="19.8693722114">
        <ele>1009.04</ele>
        <time>2019-07-07T11:55:17Z</time>
      </trkpt>
      <trkpt lat="42.4240036961" lon="19.8694310524">
        <ele>1009.04</ele>
        <time>2019-07-07T11:55:21Z</time>
      </trkpt>
      <trkpt lat="42.4240552448" lon="19.8695587926">
        <ele>1008.56</ele>
        <time>2019-07-07T11:55:29Z</time>
      </trkpt>
      <trkpt lat="42.4241044465" lon="19.8696126044">
        <ele>1008.08</ele>
        <time>2019-07-07T11:55:34Z</time>
      </trkpt>
      <trkpt lat="42.4241549894" lon="19.8696421925">
        <ele>1008.08</ele>
        <time>2019-07-07T11:55:38Z</time>
      </trkpt>
      <trkpt lat="42.4242069572" lon="19.8696785700">
        <ele>1008.08</ele>
        <time>2019-07-07T11:55:43Z</time>
      </trkpt>
      <trkpt lat="42.4244134035" lon="19.8696197290">
        <ele>1007.60</ele>
        <time>2019-07-07T11:55:59Z</time>
      </trkpt>
      <trkpt lat="42.4244662933" lon="19.8695946671">
        <ele>1007.60</ele>
        <time>2019-07-07T11:56:03Z</time>
      </trkpt>
      <trkpt lat="42.4244901817" lon="19.8695724551">
        <ele>1007.60</ele>
        <time>2019-07-07T11:56:05Z</time>
      </trkpt>
      <trkpt lat="42.4246492703" lon="19.8695422802">
        <ele>1007.60</ele>
        <time>2019-07-07T11:56:17Z</time>
      </trkpt>
      <trkpt lat="42.4247288983" lon="19.8695601337">
        <ele>1007.12</ele>
        <time>2019-07-07T11:56:24Z</time>
      </trkpt>
      <trkpt lat="42.4248667806" lon="19.8696512450">
        <ele>1006.64</ele>
        <time>2019-07-07T11:56:38Z</time>
      </trkpt>
      <trkpt lat="42.4250331614" lon="19.8697244190">
        <ele>1006.16</ele>
        <time>2019-07-07T11:56:53Z</time>
      </trkpt>
      <trkpt lat="42.4251948483" lon="19.8697749618">
        <ele>1005.68</ele>
        <time>2019-07-07T11:57:08Z</time>
      </trkpt>
      <trkpt lat="42.4252146296" lon="19.8697717767">
        <ele>1005.20</ele>
        <time>2019-07-07T11:57:10Z</time>
      </trkpt>
      <trkpt lat="42.4253813457" lon="19.8697152827">
        <ele>1004.72</ele>
        <time>2019-07-07T11:57:24Z</time>
      </trkpt>
      <trkpt lat="42.4254464731" lon="19.8697269335">
        <ele>1004.72</ele>
        <time>2019-07-07T11:57:38Z</time>
      </trkpt>
      <trkpt lat="42.4254631530" lon="19.8697241675">
        <ele>1004.72</ele>
        <time>2019-07-07T11:57:55Z</time>
      </trkpt>
      <trkpt lat="42.4255255144" lon="19.8697268497">
        <ele>1006.16</ele>
        <time>2019-07-07T11:58:02Z</time>
      </trkpt>
      <trkpt lat="42.4255613051" lon="19.8697405960">
        <ele>1006.16</ele>
        <time>2019-07-07T11:58:05Z</time>
      </trkpt>
      <trkpt lat="42.4256585352" lon="19.8697159532">
        <ele>1004.72</ele>
        <time>2019-07-07T11:58:13Z</time>
      </trkpt>
      <trkpt lat="42.4257885385" lon="19.8696443718">
        <ele>1003.75</ele>
        <time>2019-07-07T11:58:26Z</time>
      </trkpt>
      <trkpt lat="42.4258482177" lon="19.8694986105">
        <ele>1003.75</ele>
        <time>2019-07-07T11:58:39Z</time>
      </trkpt>
      <trkpt lat="42.4258441944" lon="19.8695513327">
        <ele>1002.31</ele>
        <time>2019-07-07T11:58:53Z</time>
      </trkpt>
      <trkpt lat="42.4258198868" lon="19.8695907276">
        <ele>1002.31</ele>
        <time>2019-07-07T11:59:11Z</time>
      </trkpt>
      <trkpt lat="42.4258071464" lon="19.8696315475">
        <ele>1002.31</ele>
        <time>2019-07-07T11:59:41Z</time>
      </trkpt>
      <trkpt lat="42.4257976748" lon="19.8696270213">
        <ele>1002.31</ele>
        <time>2019-07-07T12:00:06Z</time>
      </trkpt>
      <trkpt lat="42.4258092418" lon="19.8696680926">
        <ele>1002.31</ele>
        <time>2019-07-07T12:00:25Z</time>
      </trkpt>
      <trkpt lat="42.4258540850" lon="19.8696240876">
        <ele>1002.31</ele>
        <time>2019-07-07T12:00:54Z</time>
      </trkpt>
      <trkpt lat="42.4259133451" lon="19.8694480676">
        <ele>1002.31</ele>
        <time>2019-07-07T12:01:24Z</time>
      </trkpt>
      <trkpt lat="42.4259058014" lon="19.8695835192">
        <ele>1002.31</ele>
        <time>2019-07-07T12:01:53Z</time>
      </trkpt>
      <trkpt lat="42.4259080645" lon="19.8695768975">
        <ele>1002.31</ele>
        <time>2019-07-07T12:02:32Z</time>
      </trkpt>
      <trkpt lat="42.4258322921" lon="19.8696444556">
        <ele>1002.31</ele>
        <time>2019-07-07T12:03:05Z</time>
      </trkpt>
      <trkpt lat="42.4258521572" lon="19.8697405122">
        <ele>1002.31</ele>
        <time>2019-07-07T12:03:38Z</time>
      </trkpt>
      <trkpt lat="42.4258230720" lon="19.8696172982">
        <ele>1002.79</ele>
        <time>2019-07-07T12:04:11Z</time>
      </trkpt>
      <trkpt lat="42.4258744530" lon="19.8696322180">
        <ele>1002.79</ele>
        <time>2019-07-07T12:04:41Z</time>
      </trkpt>
      <trkpt lat="42.4258375727" lon="19.8696201481">
        <ele>1002.79</ele>
        <time>2019-07-07T12:05:14Z</time>
      </trkpt>
      <trkpt lat="42.4258265086" lon="19.8696455453">
        <ele>1002.31</ele>
        <time>2019-07-07T12:05:47Z</time>
      </trkpt>
      <trkpt lat="42.4258414283" lon="19.8696503229">
        <ele>1002.31</ele>
        <time>2019-07-07T12:06:16Z</time>
      </trkpt>
      <trkpt lat="42.4258518219" lon="19.8696311284">
        <ele>1002.31</ele>
        <time>2019-07-07T12:06:49Z</time>
      </trkpt>
      <trkpt lat="42.4258332141" lon="19.8697856069">
        <ele>1001.83</ele>
        <time>2019-07-07T12:07:23Z</time>
      </trkpt>
      <trkpt lat="42.4258372374" lon="19.8696266860">
        <ele>1001.35</ele>
        <time>2019-07-07T12:08:01Z</time>
      </trkpt>
      <trkpt lat="42.4258860201" lon="19.8695394304">
        <ele>1000.87</ele>
        <time>2019-07-07T12:08:35Z</time>
      </trkpt>
      <trkpt lat="42.4258569349" lon="19.8696701881">
        <ele>1000.87</ele>
        <time>2019-07-07T12:09:11Z</time>
      </trkpt>
      <trkpt lat="42.4258178752" lon="19.8696510773">
        <ele>1000.39</ele>
        <time>2019-07-07T12:09:48Z</time>
      </trkpt>
      <trkpt lat="42.4258465413" lon="19.8695626482">
        <ele>999.91</ele>
        <time>2019-07-07T12:10:19Z</time>
      </trkpt>
      <trkpt lat="42.4258431885" lon="19.8696835991">
        <ele>1000.87</ele>
        <time>2019-07-07T12:10:57Z</time>
      </trkpt>
      <trkpt lat="42.4259174522" lon="19.8696295358">
        <ele>1000.39</ele>
        <time>2019-07-07T12:11:38Z</time>
      </trkpt>
      <trkpt lat="42.4258913845" lon="19.8694980238">
        <ele>1000.39</ele>
        <time>2019-07-07T12:12:13Z</time>
      </trkpt>
      <trkpt lat="42.4258630536" lon="19.8694845289">
        <ele>1000.39</ele>
        <time>2019-07-07T12:12:50Z</time>
      </trkpt>
      <trkpt lat="42.4259032868" lon="19.8695368320">
        <ele>1000.39</ele>
        <time>2019-07-07T12:13:26Z</time>
      </trkpt>
      <trkpt lat="42.4259476271" lon="19.8694798350">
        <ele>999.91</ele>
        <time>2019-07-07T12:13:57Z</time>
      </trkpt>
      <trkpt lat="42.4259081483" lon="19.8694291245">
        <ele>999.91</ele>
        <time>2019-07-07T12:14:25Z</time>
      </trkpt>
      <trkpt lat="42.4258209765" lon="19.8695460521">
        <ele>999.43</ele>
        <time>2019-07-07T12:15:02Z</time>
      </trkpt>
      <trkpt lat="42.4258266762" lon="19.8694874626">
        <ele>998.95</ele>
        <time>2019-07-07T12:15:37Z</time>
      </trkpt>
      <trkpt lat="42.4258426856" lon="19.8695918173">
        <ele>998.95</ele>
        <time>2019-07-07T12:16:10Z</time>
      </trkpt>
      <trkpt lat="42.4258929770" lon="19.8696141969">
        <ele>998.47</ele>
        <time>2019-07-07T12:16:38Z</time>
      </trkpt>
      <trkpt lat="42.4259629659" lon="19.8697092477">
        <ele>998.47</ele>
        <time>2019-07-07T12:17:08Z</time>
      </trkpt>
      <trkpt lat="42.4258812424" lon="19.8696268536">
        <ele>997.99</ele>
        <time>2019-07-07T12:17:45Z</time>
      </trkpt>
      <trkpt lat="42.4258643948" lon="19.8695354071">
        <ele>997.51</ele>
        <time>2019-07-07T12:18:28Z</time>
      </trkpt>
      <trkpt lat="42.4259073101" lon="19.8695887160">
        <ele>997.51</ele>
        <time>2019-07-07T12:19:03Z</time>
      </trkpt>
      <trkpt lat="42.4259136803" lon="19.8695405200">
        <ele>997.02</ele>
        <time>2019-07-07T12:19:33Z</time>
      </trkpt>
      <trkpt lat="42.4259065557" lon="19.8695473932">
        <ele>997.51</ele>
        <time>2019-07-07T12:20:06Z</time>
      </trkpt>
      <trkpt lat="42.4258159474" lon="19.8695448786">
        <ele>997.51</ele>
        <time>2019-07-07T12:20:39Z</time>
      </trkpt>
      <trkpt lat="42.4258823320" lon="19.8695683479">
        <ele>997.51</ele>
        <time>2019-07-07T12:21:02Z</time>
      </trkpt>
      <trkpt lat="42.4258827511" lon="19.8695689347">
        <ele>997.99</ele>
        <time>2019-07-07T12:21:28Z</time>
      </trkpt>
      <trkpt lat="42.4259034544" lon="19.8695449624">
        <ele>997.99</ele>
        <time>2019-07-07T12:22:04Z</time>
      </trkpt>
      <trkpt lat="42.4258896243" lon="19.8695022147">
        <ele>997.99</ele>
        <time>2019-07-07T12:22:41Z</time>
      </trkpt>
      <trkpt lat="42.4259032868" lon="19.8695690185">
        <ele>998.47</ele>
        <time>2019-07-07T12:23:07Z</time>
      </trkpt>
      <trkpt lat="42.4258591980" lon="19.8696176335">
        <ele>998.47</ele>
        <time>2019-07-07T12:23:31Z</time>
      </trkpt>
      <trkpt lat="42.4258505646" lon="19.8695994448">
        <ele>998.47</ele>
        <time>2019-07-07T12:24:02Z</time>
      </trkpt>
      <trkpt lat="42.4259486329" lon="19.8695838545">
        <ele>998.47</ele>
        <time>2019-07-07T12:24:33Z</time>
      </trkpt>
      <trkpt lat="42.4259554222" lon="19.8696561065">
        <ele>998.47</ele>
        <time>2019-07-07T12:25:05Z</time>
      </trkpt>
      <trkpt lat="42.4260545801" lon="19.8695890512">
        <ele>998.95</ele>
        <time>2019-07-07T12:25:44Z</time>
      </trkpt>
      <trkpt lat="42.4259773828" lon="19.8695635702">
        <ele>998.95</ele>
        <time>2019-07-07T12:26:13Z</time>
      </trkpt>
      <trkpt lat="42.4259562604" lon="19.8695167992">
        <ele>999.43</ele>
        <time>2019-07-07T12:26:45Z</time>
      </trkpt>
      <trkpt lat="42.4259609543" lon="19.8695504107">
        <ele>999.43</ele>
        <time>2019-07-07T12:27:13Z</time>
      </trkpt>
      <trkpt lat="42.4258623831" lon="19.8695944995">
        <ele>999.91</ele>
        <time>2019-07-07T12:27:45Z</time>
      </trkpt>
      <trkpt lat="42.4258889537" lon="19.8695306294">
        <ele>1000.39</ele>
        <time>2019-07-07T12:28:11Z</time>
      </trkpt>
      <trkpt lat="42.4259063043" lon="19.8694756441">
        <ele>1000.87</ele>
        <time>2019-07-07T12:28:47Z</time>
      </trkpt>
      <trkpt lat="42.4259232357" lon="19.8695237562">
        <ele>1000.87</ele>
        <time>2019-07-07T12:29:23Z</time>
      </trkpt>
      <trkpt lat="42.4258981738" lon="19.8694690224">
        <ele>1000.87</ele>
        <time>2019-07-07T12:29:49Z</time>
      </trkpt>
      <trkpt lat="42.4259012751" lon="19.8694637418">
        <ele>1001.35</ele>
        <time>2019-07-07T12:30:09Z</time>
      </trkpt>
      <trkpt lat="42.4259506445" lon="19.8694226705">
        <ele>1001.83</ele>
        <time>2019-07-07T12:30:42Z</time>
      </trkpt>
      <trkpt lat="42.4258777220" lon="19.8695627321">
        <ele>1001.83</ele>
        <time>2019-07-07T12:31:07Z</time>
      </trkpt>
      <trkpt lat="42.4259485491" lon="19.8695240077">
        <ele>1001.83</ele>
        <time>2019-07-07T12:31:36Z</time>
      </trkpt>
      <trkpt lat="42.4258725252" lon="19.8695309646">
        <ele>1001.83</ele>
        <time>2019-07-07T12:32:05Z</time>
      </trkpt>
      <trkpt lat="42.4258374888" lon="19.8695664201">
        <ele>1001.83</ele>
        <time>2019-07-07T12:32:43Z</time>
      </trkpt>
      <trkpt lat="42.4258609582" lon="19.8695714492">
        <ele>1001.83</ele>
        <time>2019-07-07T12:33:20Z</time>
      </trkpt>
      <trkpt lat="42.4258967489" lon="19.8695757240">
        <ele>1002.31</ele>
        <time>2019-07-07T12:33:58Z</time>
      </trkpt>
      <trkpt lat="42.4259003531" lon="19.8695246782">
        <ele>1002.31</ele>
        <time>2019-07-07T12:34:36Z</time>
      </trkpt>
      <trkpt lat="42.4258264247" lon="19.8696244229">
        <ele>1001.83</ele>
        <time>2019-07-07T12:35:14Z</time>
      </trkpt>
      <trkpt lat="42.4258545879" lon="19.8695157096">
        <ele>1001.83</ele>
        <time>2019-07-07T12:35:41Z</time>
      </trkpt>
      <trkpt lat="42.4258008599" lon="19.8696162086">
        <ele>1001.35</ele>
        <time>2019-07-07T12:36:11Z</time>
      </trkpt>
      <trkpt lat="42.4257558491" lon="19.8696127720">
        <ele>1001.35</ele>
        <time>2019-07-07T12:36:39Z</time>
      </trkpt>
      <trkpt lat="42.4258425180" lon="19.8694724590">
        <ele>1000.87</ele>
        <time>2019-07-07T12:37:09Z</time>
      </trkpt>
      <trkpt lat="42.4258353934" lon="19.8695825133">
        <ele>1000.39</ele>
        <time>2019-07-07T12:37:37Z</time>
      </trkpt>
      <trkpt lat="42.4258403387" lon="19.8695827648">
        <ele>1000.39</ele>
        <time>2019-07-07T12:38:03Z</time>
      </trkpt>
      <trkpt lat="42.4258103315" lon="19.8695437051">
        <ele>1000.39</ele>
        <time>2019-07-07T12:38:38Z</time>
      </trkpt>
      <trkpt lat="42.4258289393" lon="19.8695257679">
        <ele>999.91</ele>
        <time>2019-07-07T12:39:08Z</time>
      </trkpt>
      <trkpt lat="42.4258241616" lon="19.8695706110">
        <ele>1000.39</ele>
        <time>2019-07-07T12:39:48Z</time>
      </trkpt>
      <trkpt lat="42.4258175399" lon="19.8695365805">
        <ele>999.91</ele>
        <time>2019-07-07T12:40:21Z</time>
      </trkpt>
      <trkpt lat="42.4257419351" lon="19.8695483990">
        <ele>999.91</ele>
        <time>2019-07-07T12:41:04Z</time>
      </trkpt>
      <trkpt lat="42.4257844314" lon="19.8695152905">
        <ele>999.43</ele>
        <time>2019-07-07T12:41:41Z</time>
      </trkpt>
      <trkpt lat="42.4257726129" lon="19.8696367443">
        <ele>998.95</ele>
        <time>2019-07-07T12:42:23Z</time>
      </trkpt>
      <trkpt lat="42.4257613812" lon="19.8697353993">
        <ele>998.95</ele>
        <time>2019-07-07T12:42:59Z</time>
      </trkpt>
      <trkpt lat="42.4257188011" lon="19.8696666677">
        <ele>998.95</ele>
        <time>2019-07-07T12:43:27Z</time>
      </trkpt>
      <trkpt lat="42.4258727767" lon="19.8695668392">
        <ele>998.95</ele>
        <time>2019-07-07T12:43:57Z</time>
      </trkpt>
      <trkpt lat="42.4258896243" lon="19.8694877140">
        <ele>998.95</ele>
        <time>2019-07-07T12:44:27Z</time>
      </trkpt>
      <trkpt lat="42.4258836731" lon="19.8694814276">
        <ele>998.95</ele>
        <time>2019-07-07T12:45:00Z</time>
      </trkpt>
      <trkpt lat="42.4258333817" lon="19.8695268575">
        <ele>998.95</ele>
        <time>2019-07-07T12:45:31Z</time>
      </trkpt>
      <trkpt lat="42.4258823320" lon="19.8695554398">
        <ele>998.95</ele>
        <time>2019-07-07T12:46:04Z</time>
      </trkpt>
      <trkpt lat="42.4258784764" lon="19.8695860337">
        <ele>999.43</ele>
        <time>2019-07-07T12:46:29Z</time>
      </trkpt>
      <trkpt lat="42.4259052984" lon="19.8694806732">
        <ele>999.43</ele>
        <time>2019-07-07T12:46:59Z</time>
      </trkpt>
      <trkpt lat="42.4258940667" lon="19.8694955930">
        <ele>999.43</ele>
        <time>2019-07-07T12:47:28Z</time>
      </trkpt>
      <trkpt lat="42.4259194639" lon="19.8694416974">
        <ele>999.43</ele>
        <time>2019-07-07T12:48:00Z</time>
      </trkpt>
      <trkpt lat="42.4259059690" lon="19.8694568686">
        <ele>999.91</ele>
        <time>2019-07-07T12:48:26Z</time>
      </trkpt>
      <trkpt lat="42.4258931447" lon="19.8695096746">
        <ele>999.91</ele>
        <time>2019-07-07T12:49:00Z</time>
      </trkpt>
      <trkpt lat="42.4258372374" lon="19.8695474770">
        <ele>999.43</ele>
        <time>2019-07-07T12:49:39Z</time>
      </trkpt>
      <trkpt lat="42.4258863553" lon="19.8695085850">
        <ele>999.91</ele>
        <time>2019-07-07T12:50:12Z</time>
      </trkpt>
      <trkpt lat="42.4258788116" lon="19.8695312999">
        <ele>999.91</ele>
        <time>2019-07-07T12:50:45Z</time>
      </trkpt>
      <trkpt lat="42.4258404225" lon="19.8694964312">
        <ele>1000.39</ele>
        <time>2019-07-07T12:51:14Z</time>
      </trkpt>
      <trkpt lat="42.4258006085" lon="19.8695489019">
        <ele>1000.39</ele>
        <time>2019-07-07T12:51:43Z</time>
      </trkpt>
      <trkpt lat="42.4257970043" lon="19.8695682641">
        <ele>1000.39</ele>
        <time>2019-07-07T12:52:10Z</time>
      </trkpt>
      <trkpt lat="42.4257711042" lon="19.8695340659">
        <ele>1000.39</ele>
        <time>2019-07-07T12:52:48Z</time>
      </trkpt>
      <trkpt lat="42.4258981738" lon="19.8693973571">
        <ele>1000.39</ele>
        <time>2019-07-07T12:53:17Z</time>
      </trkpt>
      <trkpt lat="42.4258726928" lon="19.8694920726">
        <ele>1000.87</ele>
        <time>2019-07-07T12:53:50Z</time>
      </trkpt>
      <trkpt lat="42.4258961622" lon="19.8694952577">
        <ele>1000.87</ele>
        <time>2019-07-07T12:54:16Z</time>
      </trkpt>
      <trkpt lat="42.4259216432" lon="19.8695769813">
        <ele>1001.35</ele>
        <time>2019-07-07T12:54:48Z</time>
      </trkpt>
      <trkpt lat="42.4258840922" lon="19.8696010374">
        <ele>1001.35</ele>
        <time>2019-07-07T12:55:24Z</time>
      </trkpt>
      <trkpt lat="42.4259073939" lon="19.8695000354">
        <ele>1001.83</ele>
        <time>2019-07-07T12:55:53Z</time>
      </trkpt>
      <trkpt lat="42.4258568510" lon="19.8695587087">
        <ele>1001.83</ele>
        <time>2019-07-07T12:56:31Z</time>
      </trkpt>
      <trkpt lat="42.4258619640" lon="19.8694934137">
        <ele>1001.83</ele>
        <time>2019-07-07T12:57:05Z</time>
      </trkpt>
      <trkpt lat="42.4258369859" lon="19.8695489857">
        <ele>1002.31</ele>
        <time>2019-07-07T12:57:39Z</time>
      </trkpt>
      <trkpt lat="42.4258785602" lon="19.8695175536">
        <ele>1002.31</ele>
        <time>2019-07-07T12:58:15Z</time>
      </trkpt>
      <trkpt lat="42.4258096609" lon="19.8695154581">
        <ele>1002.31</ele>
        <time>2019-07-07T12:58:49Z</time>
      </trkpt>
      <trkpt lat="42.4258178752" lon="19.8695250135">
        <ele>1001.83</ele>
        <time>2019-07-07T12:59:12Z</time>
      </trkpt>
      <trkpt lat="42.4258073140" lon="19.8696270213">
        <ele>1001.83</ele>
        <time>2019-07-07T12:59:41Z</time>
      </trkpt>
      <trkpt lat="42.4258216470" lon="19.8695561104">
        <ele>1001.83</ele>
        <time>2019-07-07T13:00:13Z</time>
      </trkpt>
      <trkpt lat="42.4258531630" lon="19.8695501592">
        <ele>1001.35</ele>
        <time>2019-07-07T13:00:46Z</time>
      </trkpt>
      <trkpt lat="42.4258384947" lon="19.8695728742">
        <ele>1001.83</ele>
        <time>2019-07-07T13:01:29Z</time>
      </trkpt>
      <trkpt lat="42.4258033745" lon="19.8696053959">
        <ele>1001.83</ele>
        <time>2019-07-07T13:01:50Z</time>
      </trkpt>
      <trkpt lat="42.4258491397" lon="19.8695824295">
        <ele>1002.31</ele>
        <time>2019-07-07T13:02:22Z</time>
      </trkpt>
      <trkpt lat="42.4258788116" lon="19.8695551045">
        <ele>1002.31</ele>
        <time>2019-07-07T13:02:56Z</time>
      </trkpt>
      <trkpt lat="42.4258443620" lon="19.8695455492">
        <ele>1002.31</ele>
        <time>2019-07-07T13:03:26Z</time>
      </trkpt>
      <trkpt lat="42.4258894566" lon="19.8695233371">
        <ele>1002.31</ele>
        <time>2019-07-07T13:04:01Z</time>
      </trkpt>
      <trkpt lat="42.4258802366" lon="19.8695053160">
        <ele>1002.79</ele>
        <time>2019-07-07T13:04:40Z</time>
      </trkpt>
      <trkpt lat="42.4258957431" lon="19.8694967665">
        <ele>1002.79</ele>
        <time>2019-07-07T13:05:16Z</time>
      </trkpt>
      <trkpt lat="42.4259228166" lon="19.8695423640">
        <ele>1003.27</ele>
        <time>2019-07-07T13:05:53Z</time>
      </trkpt>
      <trkpt lat="42.4259627145" lon="19.8695910629">
        <ele>1003.27</ele>
        <time>2019-07-07T13:06:20Z</time>
      </trkpt>
      <trkpt lat="42.4259427655" lon="19.8695772327">
        <ele>1003.27</ele>
        <time>2019-07-07T13:06:51Z</time>
      </trkpt>
      <trkpt lat="42.4259392451" lon="19.8695544340">
        <ele>1003.27</ele>
        <time>2019-07-07T13:07:20Z</time>
      </trkpt>
      <trkpt lat="42.4259782210" lon="19.8695301265">
        <ele>1003.75</ele>
        <time>2019-07-07T13:07:44Z</time>
      </trkpt>
      <trkpt lat="42.4259162787" lon="19.8695758916">
        <ele>1003.75</ele>
        <time>2019-07-07T13:08:02Z</time>
      </trkpt>
      <trkpt lat="42.4257968366" lon="19.8696895503">
        <ele>1003.75</ele>
        <time>2019-07-07T13:08:30Z</time>
      </trkpt>
      <trkpt lat="42.4258608744" lon="19.8695885483">
        <ele>1003.75</ele>
        <time>2019-07-07T13:08:50Z</time>
      </trkpt>
      <trkpt lat="42.4258252513" lon="19.8695827648">
        <ele>1004.23</ele>
        <time>2019-07-07T13:09:14Z</time>
      </trkpt>
      <trkpt lat="42.4258249998" lon="19.8695136979">
        <ele>1004.23</ele>
        <time>2019-07-07T13:09:35Z</time>
      </trkpt>
      <trkpt lat="42.4258503132" lon="19.8695297074">
        <ele>1004.72</ele>
        <time>2019-07-07T13:10:00Z</time>
      </trkpt>
      <trkpt lat="42.4258835893" lon="19.8695414420">
        <ele>1004.72</ele>
        <time>2019-07-07T13:10:17Z</time>
      </trkpt>
      <trkpt lat="42.4258134328" lon="19.8696347326">
        <ele>1004.72</ele>
        <time>2019-07-07T13:10:34Z</time>
      </trkpt>
      <trkpt lat="42.4258471280" lon="19.8696245905">
        <ele>1004.72</ele>
        <time>2019-07-07T13:10:46Z</time>
      </trkpt>
      <trkpt lat="42.4259485491" lon="19.8695265222">
        <ele>1005.20</ele>
        <time>2019-07-07T13:11:01Z</time>
      </trkpt>
      <trkpt lat="42.4259085674" lon="19.8694969341">
        <ele>1005.20</ele>
        <time>2019-07-07T13:11:20Z</time>
      </trkpt>
      <trkpt lat="42.4258345552" lon="19.8694871273">
        <ele>1005.68</ele>
        <time>2019-07-07T13:11:34Z</time>
      </trkpt>
      <trkpt lat="42.4258470442" lon="19.8695644084">
        <ele>1005.68</ele>
        <time>2019-07-07T13:11:51Z</time>
      </trkpt>
      <trkpt lat="42.4258205574" lon="19.8696582019">
        <ele>1005.68</ele>
        <time>2019-07-07T13:12:07Z</time>
      </trkpt>
      <trkpt lat="42.4257848505" lon="19.8698329646">
        <ele>1005.68</ele>
        <time>2019-07-07T13:12:23Z</time>
      </trkpt>
      <trkpt lat="42.4258295260" lon="19.8698898777">
        <ele>1005.68</ele>
        <time>2019-07-07T13:12:32Z</time>
      </trkpt>
      <trkpt lat="42.4259243254" lon="19.8699493892">
        <ele>1005.68</ele>
        <time>2019-07-07T13:12:42Z</time>
      </trkpt>
      <trkpt lat="42.4259332102" lon="19.8699730262">
        <ele>1004.23</ele>
        <time>2019-07-07T13:12:44Z</time>
      </trkpt>
      <trkpt lat="42.4260038696" lon="19.8700650595">
        <ele>1004.23</ele>
        <time>2019-07-07T13:12:58Z</time>
      </trkpt>
      <trkpt lat="42.4260113295" lon="19.8700667359">
        <ele>1004.23</ele>
        <time>2019-07-07T13:12:59Z</time>
      </trkpt>
      <trkpt lat="42.4260972440" lon="19.8701650556">
        <ele>1003.75</ele>
        <time>2019-07-07T13:13:13Z</time>
      </trkpt>
      <trkpt lat="42.4260906223" lon="19.8702755291">
        <ele>1003.75</ele>
        <time>2019-07-07T13:13:22Z</time>
      </trkpt>
      <trkpt lat="42.4260767922" lon="19.8704763595">
        <ele>1003.75</ele>
        <time>2019-07-07T13:13:38Z</time>
      </trkpt>
      <trkpt lat="42.4260667339" lon="19.8704849090">
        <ele>1003.75</ele>
        <time>2019-07-07T13:13:43Z</time>
      </trkpt>
      <trkpt lat="42.4259432685" lon="19.8706151638">
        <ele>1003.75</ele>
        <time>2019-07-07T13:13:59Z</time>
      </trkpt>
      <trkpt lat="42.4259262532" lon="19.8706659582">
        <ele>1003.75</ele>
        <time>2019-07-07T13:14:15Z</time>
      </trkpt>
      <trkpt lat="42.4259150214" lon="19.8707033414">
        <ele>1003.75</ele>
        <time>2019-07-07T13:14:32Z</time>
      </trkpt>
      <trkpt lat="42.4259904586" lon="19.8706369568">
        <ele>1003.27</ele>
        <time>2019-07-07T13:14:48Z</time>
      </trkpt>
      <trkpt lat="42.4261350464" lon="19.8705940414">
        <ele>1003.27</ele>
        <time>2019-07-07T13:15:01Z</time>
      </trkpt>
      <trkpt lat="42.4263328593" lon="19.8706997372">
        <ele>1003.27</ele>
        <time>2019-07-07T13:15:17Z</time>
      </trkpt>
      <trkpt lat="42.4263566639" lon="19.8707185127">
        <ele>1003.27</ele>
        <time>2019-07-07T13:15:19Z</time>
      </trkpt>
      <trkpt lat="42.4264059495" lon="19.8707589135">
        <ele>1003.27</ele>
        <time>2019-07-07T13:15:24Z</time>
      </trkpt>
      <trkpt lat="42.4264795426" lon="19.8708489351">
        <ele>1002.79</ele>
        <time>2019-07-07T13:15:33Z</time>
      </trkpt>
      <trkpt lat="42.4265438318" lon="19.8709128890">
        <ele>1002.79</ele>
        <time>2019-07-07T13:15:39Z</time>
      </trkpt>
      <trkpt lat="42.4267187621" lon="19.8711138871">
        <ele>1002.31</ele>
        <time>2019-07-07T13:15:56Z</time>
      </trkpt>
      <trkpt lat="42.4268664513" lon="19.8712585587">
        <ele>1002.31</ele>
        <time>2019-07-07T13:16:10Z</time>
      </trkpt>
      <trkpt lat="42.4270350114" lon="19.8714246880">
        <ele>1001.83</ele>
        <time>2019-07-07T13:16:26Z</time>
      </trkpt>
      <trkpt lat="42.4272189941" lon="19.8715981934">
        <ele>1001.35</ele>
        <time>2019-07-07T13:16:43Z</time>
      </trkpt>
      <trkpt lat="42.4274268653" lon="19.8718115967">
        <ele>1000.87</ele>
        <time>2019-07-07T13:17:03Z</time>
      </trkpt>
      <trkpt lat="42.4276051484" lon="19.8719755467">
        <ele>1000.39</ele>
        <time>2019-07-07T13:17:19Z</time>
      </trkpt>
      <trkpt lat="42.4276552722" lon="19.8720234912">
        <ele>999.91</ele>
        <time>2019-07-07T13:17:24Z</time>
      </trkpt>
      <trkpt lat="42.4277203158" lon="19.8720797338">
        <ele>999.91</ele>
        <time>2019-07-07T13:17:30Z</time>
      </trkpt>
      <trkpt lat="42.4279042147" lon="19.8721806519">
        <ele>999.91</ele>
        <time>2019-07-07T13:17:44Z</time>
      </trkpt>
      <trkpt lat="42.4280237406" lon="19.8722485453">
        <ele>999.43</ele>
        <time>2019-07-07T13:17:53Z</time>
      </trkpt>
      <trkpt lat="42.4282145966" lon="19.8723604437">
        <ele>998.95</ele>
        <time>2019-07-07T13:18:10Z</time>
      </trkpt>
      <trkpt lat="42.4284263235" lon="19.8724559974">
        <ele>997.99</ele>
        <time>2019-07-07T13:18:25Z</time>
      </trkpt>
      <trkpt lat="42.4286020081" lon="19.8725139163">
        <ele>997.02</ele>
        <time>2019-07-07T13:18:37Z</time>
      </trkpt>
      <trkpt lat="42.4287799560" lon="19.8726109788">
        <ele>996.54</ele>
        <time>2019-07-07T13:18:51Z</time>
      </trkpt>
      <trkpt lat="42.4290018249" lon="19.8726734240">
        <ele>996.54</ele>
        <time>2019-07-07T13:19:05Z</time>
      </trkpt>
      <trkpt lat="42.4293284677" lon="19.8728072830">
        <ele>995.58</ele>
        <time>2019-07-07T13:19:26Z</time>
      </trkpt>
      <trkpt lat="42.4296160508" lon="19.8729047645">
        <ele>995.10</ele>
        <time>2019-07-07T13:19:45Z</time>
      </trkpt>
      <trkpt lat="42.4298493192" lon="19.8730037548">
        <ele>994.62</ele>
        <time>2019-07-07T13:20:02Z</time>
      </trkpt>
      <trkpt lat="42.4301072303" lon="19.8731221911">
        <ele>994.14</ele>
        <time>2019-07-07T13:20:21Z</time>
      </trkpt>
      <trkpt lat="42.4302063882" lon="19.8732195888">
        <ele>993.66</ele>
        <time>2019-07-07T13:20:31Z</time>
      </trkpt>
      <trkpt lat="42.4302568473" lon="19.8733420484">
        <ele>993.66</ele>
        <time>2019-07-07T13:20:39Z</time>
      </trkpt>
      <trkpt lat="42.4302787241" lon="19.8734004702">
        <ele>993.66</ele>
        <time>2019-07-07T13:20:43Z</time>
      </trkpt>
      <trkpt lat="42.4304092303" lon="19.8736689426">
        <ele>992.70</ele>
        <time>2019-07-07T13:21:02Z</time>
      </trkpt>
      <trkpt lat="42.4305235595" lon="19.8739326373">
        <ele>992.22</ele>
        <time>2019-07-07T13:21:19Z</time>
      </trkpt>
      <trkpt lat="42.4306264054" lon="19.8741692584">
        <ele>992.22</ele>
        <time>2019-07-07T13:21:35Z</time>
      </trkpt>
      <trkpt lat="42.4307466857" lon="19.8744201288">
        <ele>992.22</ele>
        <time>2019-07-07T13:21:53Z</time>
      </trkpt>
      <trkpt lat="42.4308812991" lon="19.8747007549">
        <ele>991.74</ele>
        <time>2019-07-07T13:22:12Z</time>
      </trkpt>
      <trkpt lat="42.4309638608" lon="19.8749111407">
        <ele>991.74</ele>
        <time>2019-07-07T13:22:27Z</time>
      </trkpt>
      <trkpt lat="42.4310852308" lon="19.8751959577">
        <ele>991.26</ele>
        <time>2019-07-07T13:22:46Z</time>
      </trkpt>
      <trkpt lat="42.4312010687" lon="19.8754355125">
        <ele>990.78</ele>
        <time>2019-07-07T13:23:03Z</time>
      </trkpt>
      <trkpt lat="42.4312317465" lon="19.8754953593">
        <ele>990.78</ele>
        <time>2019-07-07T13:23:07Z</time>
      </trkpt>
      <trkpt lat="42.4313510209" lon="19.8757808469">
        <ele>990.78</ele>
        <time>2019-07-07T13:23:25Z</time>
      </trkpt>
      <trkpt lat="42.4314495083" lon="19.8760298733">
        <ele>990.78</ele>
        <time>2019-07-07T13:23:41Z</time>
      </trkpt>
      <trkpt lat="42.4314568844" lon="19.8760423623">
        <ele>990.78</ele>
        <time>2019-07-07T13:23:42Z</time>
      </trkpt>
      <trkpt lat="42.4314982072" lon="19.8761393409">
        <ele>990.30</ele>
        <time>2019-07-07T13:23:48Z</time>
      </trkpt>
      <trkpt lat="42.4316192418" lon="19.8763370700">
        <ele>990.30</ele>
        <time>2019-07-07T13:24:03Z</time>
      </trkpt>
      <trkpt lat="42.4318468105" lon="19.8763953242">
        <ele>989.81</ele>
        <time>2019-07-07T13:24:20Z</time>
      </trkpt>
      <trkpt lat="42.4318983592" lon="19.8764192127">
        <ele>989.81</ele>
        <time>2019-07-07T13:24:24Z</time>
      </trkpt>
      <trkpt lat="42.4320126884" lon="19.8764700908">
        <ele>989.33</ele>
        <time>2019-07-07T13:24:33Z</time>
      </trkpt>
      <trkpt lat="42.4322045501" lon="19.8766098171">
        <ele>989.33</ele>
        <time>2019-07-07T13:24:50Z</time>
      </trkpt>
      <trkpt lat="42.4323008582" lon="19.8766840808">
        <ele>989.33</ele>
        <time>2019-07-07T13:24:58Z</time>
      </trkpt>
      <trkpt lat="42.4324091524" lon="19.8768083844">
        <ele>988.85</ele>
        <time>2019-07-07T13:25:09Z</time>
      </trkpt>
      <trkpt lat="42.4324953184" lon="19.8768797144">
        <ele>988.37</ele>
        <time>2019-07-07T13:25:16Z</time>
      </trkpt>
      <trkpt lat="42.4326727632" lon="19.8771068640">
        <ele>987.41</ele>
        <time>2019-07-07T13:25:34Z</time>
      </trkpt>
      <trkpt lat="42.4326813128" lon="19.8771185987">
        <ele>987.41</ele>
        <time>2019-07-07T13:25:35Z</time>
      </trkpt>
      <trkpt lat="42.4327619467" lon="19.8773452453">
        <ele>986.93</ele>
        <time>2019-07-07T13:25:49Z</time>
      </trkpt>
      <trkpt lat="42.4327785429" lon="19.8774392903">
        <ele>986.93</ele>
        <time>2019-07-07T13:25:54Z</time>
      </trkpt>
      <trkpt lat="42.4328319356" lon="19.8775862250">
        <ele>986.45</ele>
        <time>2019-07-07T13:26:02Z</time>
      </trkpt>
      <trkpt lat="42.4328934588" lon="19.8777674418">
        <ele>985.97</ele>
        <time>2019-07-07T13:26:12Z</time>
      </trkpt>
      <trkpt lat="42.4330345262" lon="19.8780069128">
        <ele>985.97</ele>
        <time>2019-07-07T13:26:29Z</time>
      </trkpt>
      <trkpt lat="42.4332346860" lon="19.8782076593">
        <ele>985.97</ele>
        <time>2019-07-07T13:26:48Z</time>
      </trkpt>
      <trkpt lat="42.4333639350" lon="19.8783173785">
        <ele>985.49</ele>
        <time>2019-07-07T13:26:59Z</time>
      </trkpt>
      <trkpt lat="42.4334193394" lon="19.8783928156">
        <ele>985.01</ele>
        <time>2019-07-07T13:27:05Z</time>
      </trkpt>
      <trkpt lat="42.4336039089" lon="19.8785509821">
        <ele>984.53</ele>
        <time>2019-07-07T13:27:22Z</time>
      </trkpt>
      <trkpt lat="42.4337876402" lon="19.8787384015">
        <ele>984.05</ele>
        <time>2019-07-07T13:27:40Z</time>
      </trkpt>
      <trkpt lat="42.4339639954" lon="19.8788934667">
        <ele>983.57</ele>
        <time>2019-07-07T13:27:56Z</time>
      </trkpt>
      <trkpt lat="42.4341649935" lon="19.8790585902">
        <ele>982.60</ele>
        <time>2019-07-07T13:28:14Z</time>
      </trkpt>
      <trkpt lat="42.4342307914" lon="19.8791082110">
        <ele>982.60</ele>
        <time>2019-07-07T13:28:20Z</time>
      </trkpt>
      <trkpt lat="42.4343880359" lon="19.8792756815">
        <ele>982.60</ele>
        <time>2019-07-07T13:28:36Z</time>
      </trkpt>
      <trkpt lat="42.4345365632" lon="19.8794114683">
        <ele>982.12</ele>
        <time>2019-07-07T13:28:50Z</time>
      </trkpt>
      <trkpt lat="42.4347261619" lon="19.8795290664">
        <ele>981.64</ele>
        <time>2019-07-07T13:29:06Z</time>
      </trkpt>
      <trkpt lat="42.4349241424" lon="19.8796391208">
        <ele>980.68</ele>
        <time>2019-07-07T13:29:23Z</time>
      </trkpt>
      <trkpt lat="42.4350669701" lon="19.8797138873">
        <ele>980.20</ele>
        <time>2019-07-07T13:29:35Z</time>
      </trkpt>
      <trkpt lat="42.4352400564" lon="19.8797983769">
        <ele>980.20</ele>
        <time>2019-07-07T13:29:50Z</time>
      </trkpt>
      <trkpt lat="42.4354530405" lon="19.8798324913">
        <ele>979.24</ele>
        <time>2019-07-07T13:30:05Z</time>
      </trkpt>
      <trkpt lat="42.4354601651" lon="19.8798358440">
        <ele>979.24</ele>
        <time>2019-07-07T13:30:06Z</time>
      </trkpt>
      <trkpt lat="42.4354789406" lon="19.8798396997">
        <ele>979.24</ele>
        <time>2019-07-07T13:30:08Z</time>
      </trkpt>
      <trkpt lat="42.4356880691" lon="19.8798895720">
        <ele>978.76</ele>
        <time>2019-07-07T13:30:24Z</time>
      </trkpt>
      <trkpt lat="42.4358656816" lon="19.8798974510">
        <ele>978.76</ele>
        <time>2019-07-07T13:30:38Z</time>
      </trkpt>
      <trkpt lat="42.4358789250" lon="19.8798999656">
        <ele>978.76</ele>
        <time>2019-07-07T13:30:39Z</time>
      </trkpt>
      <trkpt lat="42.4360700324" lon="19.8798453994">
        <ele>978.28</ele>
        <time>2019-07-07T13:30:54Z</time>
      </trkpt>
      <trkpt lat="42.4361934140" lon="19.8797494266">
        <ele>978.28</ele>
        <time>2019-07-07T13:31:06Z</time>
      </trkpt>
      <trkpt lat="42.4362941645" lon="19.8796753306">
        <ele>978.28</ele>
        <time>2019-07-07T13:31:13Z</time>
      </trkpt>
      <trkpt lat="42.4364832602" lon="19.8795376159">
        <ele>977.80</ele>
        <time>2019-07-07T13:31:29Z</time>
      </trkpt>
      <trkpt lat="42.4364928156" lon="19.8795257136">
        <ele>977.80</ele>
        <time>2019-07-07T13:31:30Z</time>
      </trkpt>
      <trkpt lat="42.4365628045" lon="19.8794676270">
        <ele>977.80</ele>
        <time>2019-07-07T13:31:36Z</time>
      </trkpt>
      <trkpt lat="42.4367758725" lon="19.8793178424">
        <ele>977.32</ele>
        <time>2019-07-07T13:31:52Z</time>
      </trkpt>
      <trkpt lat="42.4369332846" lon="19.8791742604">
        <ele>977.32</ele>
        <time>2019-07-07T13:32:09Z</time>
      </trkpt>
      <trkpt lat="42.4370865058" lon="19.8791030981">
        <ele>977.32</ele>
        <time>2019-07-07T13:32:23Z</time>
      </trkpt>
      <trkpt lat="42.4372770265" lon="19.8791236337">
        <ele>977.32</ele>
        <time>2019-07-07T13:32:37Z</time>
      </trkpt>
      <trkpt lat="42.4374398030" lon="19.8791859113">
        <ele>976.84</ele>
        <time>2019-07-07T13:32:51Z</time>
      </trkpt>
      <trkpt lat="42.4375892524" lon="19.8792934511">
        <ele>976.84</ele>
        <time>2019-07-07T13:33:05Z</time>
      </trkpt>
      <trkpt lat="42.4377485923" lon="19.8793924414">
        <ele>976.36</ele>
        <time>2019-07-07T13:33:18Z</time>
      </trkpt>
      <trkpt lat="42.4379152246" lon="19.8794984724">
        <ele>975.39</ele>
        <time>2019-07-07T13:33:32Z</time>
      </trkpt>
      <trkpt lat="42.4380850419" lon="19.8795949481">
        <ele>974.91</ele>
        <time>2019-07-07T13:33:46Z</time>
      </trkpt>
      <trkpt lat="42.4382643308" lon="19.8797025718">
        <ele>974.43</ele>
        <time>2019-07-07T13:34:01Z</time>
      </trkpt>
      <trkpt lat="42.4384123553" lon="19.8798060045">
        <ele>973.95</ele>
        <time>2019-07-07T13:34:14Z</time>
      </trkpt>
      <trkpt lat="42.4386151135" lon="19.8798697907">
        <ele>973.95</ele>
        <time>2019-07-07T13:34:29Z</time>
      </trkpt>
      <trkpt lat="42.4387945700" lon="19.8799388576">
        <ele>973.47</ele>
        <time>2019-07-07T13:34:43Z</time>
      </trkpt>
      <trkpt lat="42.4389992561" lon="19.8799979500">
        <ele>973.47</ele>
        <time>2019-07-07T13:34:59Z</time>
      </trkpt>
      <trkpt lat="42.4391910341" lon="19.8800639994">
        <ele>972.99</ele>
        <time>2019-07-07T13:35:13Z</time>
      </trkpt>
      <trkpt lat="42.4393522181" lon="19.8801760655">
        <ele>972.51</ele>
        <time>2019-07-07T13:35:27Z</time>
      </trkpt>
      <trkpt lat="42.4395181797" lon="19.8803125229">
        <ele>972.51</ele>
        <time>2019-07-07T13:35:42Z</time>
      </trkpt>
      <trkpt lat="42.4397159088" lon="19.8804517463">
        <ele>972.03</ele>
        <time>2019-07-07T13:35:58Z</time>
      </trkpt>
      <trkpt lat="42.4398946110" lon="19.8806202225">
        <ele>971.55</ele>
        <time>2019-07-07T13:36:14Z</time>
      </trkpt>
      <trkpt lat="42.4400850479" lon="19.8807677440">
        <ele>971.07</ele>
        <time>2019-07-07T13:36:30Z</time>
      </trkpt>
      <trkpt lat="42.4402410351" lon="19.8809114099">
        <ele>970.59</ele>
        <time>2019-07-07T13:36:44Z</time>
      </trkpt>
      <trkpt lat="42.4403930828" lon="19.8810712527">
        <ele>970.59</ele>
        <time>2019-07-07T13:36:58Z</time>
      </trkpt>
      <trkpt lat="42.4405312166" lon="19.8812888470">
        <ele>970.11</ele>
        <time>2019-07-07T13:37:13Z</time>
      </trkpt>
      <trkpt lat="42.4405475613" lon="19.8813185189">
        <ele>969.63</ele>
        <time>2019-07-07T13:37:15Z</time>
      </trkpt>
      <trkpt lat="42.4406735413" lon="19.8815128114">
        <ele>969.15</ele>
        <time>2019-07-07T13:37:29Z</time>
      </trkpt>
      <trkpt lat="42.4408033770" lon="19.8817377817">
        <ele>968.18</ele>
        <time>2019-07-07T13:37:45Z</time>
      </trkpt>
      <trkpt lat="42.4409201369" lon="19.8819400370">
        <ele>967.70</ele>
        <time>2019-07-07T13:37:59Z</time>
      </trkpt>
      <trkpt lat="42.4409411754" lon="19.8820153065">
        <ele>967.70</ele>
        <time>2019-07-07T13:38:03Z</time>
      </trkpt>
      <trkpt lat="42.4410733581" lon="19.8823033087">
        <ele>967.22</ele>
        <time>2019-07-07T13:38:21Z</time>
      </trkpt>
      <trkpt lat="42.4411679897" lon="19.8825103417">
        <ele>966.26</ele>
        <time>2019-07-07T13:38:34Z</time>
      </trkpt>
      <trkpt lat="42.4413108174" lon="19.8827901296">
        <ele>965.30</ele>
        <time>2019-07-07T13:38:52Z</time>
      </trkpt>
      <trkpt lat="42.4413559120" lon="19.8828625493">
        <ele>965.30</ele>
        <time>2019-07-07T13:38:57Z</time>
      </trkpt>
      <trkpt lat="42.4415228795" lon="19.8832140025">
        <ele>964.34</ele>
        <time>2019-07-07T13:39:19Z</time>
      </trkpt>
      <trkpt lat="42.4416495301" lon="19.8834200297">
        <ele>963.86</ele>
        <time>2019-07-07T13:39:34Z</time>
      </trkpt>
      <trkpt lat="42.4418160785" lon="19.8835535534">
        <ele>963.38</ele>
        <time>2019-07-07T13:39:49Z</time>
      </trkpt>
      <trkpt lat="42.4419637676" lon="19.8836638592">
        <ele>963.38</ele>
        <time>2019-07-07T13:40:02Z</time>
      </trkpt>
      <trkpt lat="42.4421495944" lon="19.8837723210">
        <ele>962.90</ele>
        <time>2019-07-07T13:40:17Z</time>
      </trkpt>
      <trkpt lat="42.4423614889" lon="19.8839131370">
        <ele>962.90</ele>
        <time>2019-07-07T13:40:35Z</time>
      </trkpt>
      <trkpt lat="42.4425583798" lon="19.8840235267">
        <ele>962.42</ele>
        <time>2019-07-07T13:40:51Z</time>
      </trkpt>
      <trkpt lat="42.4427125230" lon="19.8841237742">
        <ele>962.42</ele>
        <time>2019-07-07T13:41:05Z</time>
      </trkpt>
      <trkpt lat="42.4428833462" lon="19.8842520174">
        <ele>961.94</ele>
        <time>2019-07-07T13:41:20Z</time>
      </trkpt>
      <trkpt lat="42.4430389982" lon="19.8843508400">
        <ele>961.94</ele>
        <time>2019-07-07T13:41:33Z</time>
      </trkpt>
      <trkpt lat="42.4432184547" lon="19.8844575416">
        <ele>960.98</ele>
        <time>2019-07-07T13:41:48Z</time>
      </trkpt>
      <trkpt lat="42.4433859251" lon="19.8845878802">
        <ele>960.49</ele>
        <time>2019-07-07T13:42:03Z</time>
      </trkpt>
      <trkpt lat="42.4435710814" lon="19.8846794106">
        <ele>960.49</ele>
        <time>2019-07-07T13:42:18Z</time>
      </trkpt>
      <trkpt lat="42.4437594227" lon="19.8848067317">
        <ele>960.01</ele>
        <time>2019-07-07T13:42:34Z</time>
      </trkpt>
      <trkpt lat="42.4439444114" lon="19.8849694245">
        <ele>959.53</ele>
        <time>2019-07-07T13:42:52Z</time>
      </trkpt>
      <trkpt lat="42.4440304935" lon="19.8850490525">
        <ele>959.53</ele>
        <time>2019-07-07T13:43:00Z</time>
      </trkpt>
      <trkpt lat="42.4442121293" lon="19.8852100689">
        <ele>959.05</ele>
        <time>2019-07-07T13:43:16Z</time>
      </trkpt>
      <trkpt lat="42.4443563819" lon="19.8853423353">
        <ele>958.57</ele>
        <time>2019-07-07T13:43:29Z</time>
      </trkpt>
      <trkpt lat="42.4445369281" lon="19.8854474444">
        <ele>958.09</ele>
        <time>2019-07-07T13:43:44Z</time>
      </trkpt>
      <trkpt lat="42.4447308853" lon="19.8855700716">
        <ele>957.61</ele>
        <time>2019-07-07T13:44:00Z</time>
      </trkpt>
      <trkpt lat="42.4448981043" lon="19.8856902681">
        <ele>957.13</ele>
        <time>2019-07-07T13:44:15Z</time>
      </trkpt>
      <trkpt lat="42.4450514931" lon="19.8857766856">
        <ele>957.13</ele>
        <time>2019-07-07T13:44:28Z</time>
      </trkpt>
      <trkpt lat="42.4452658184" lon="19.8858987261">
        <ele>956.65</ele>
        <time>2019-07-07T13:44:45Z</time>
      </trkpt>
      <trkpt lat="42.4454530701" lon="19.8859907594">
        <ele>956.17</ele>
        <time>2019-07-07T13:45:00Z</time>
      </trkpt>
      <trkpt lat="42.4455880187" lon="19.8860632628">
        <ele>956.17</ele>
        <time>2019-07-07T13:45:16Z</time>
      </trkpt>
      <trkpt lat="42.4456659704" lon="19.8860988859">
        <ele>955.69</ele>
        <time>2019-07-07T13:45:30Z</time>
      </trkpt>
      <trkpt lat="42.4458411522" lon="19.8861432262">
        <ele>955.21</ele>
        <time>2019-07-07T13:45:46Z</time>
      </trkpt>
      <trkpt lat="42.4460111372" lon="19.8862087727">
        <ele>954.73</ele>
        <time>2019-07-07T13:46:01Z</time>
      </trkpt>
      <trkpt lat="42.4461800326" lon="19.8862450663">
        <ele>954.73</ele>
        <time>2019-07-07T13:46:14Z</time>
      </trkpt>
      <trkpt lat="42.4463592377" lon="19.8862762470">
        <ele>954.25</ele>
        <time>2019-07-07T13:46:28Z</time>
      </trkpt>
      <trkpt lat="42.4465273786" lon="19.8862956930">
        <ele>953.77</ele>
        <time>2019-07-07T13:46:41Z</time>
      </trkpt>
      <trkpt lat="42.4466784205" lon="19.8863124568">
        <ele>953.77</ele>
        <time>2019-07-07T13:46:53Z</time>
      </trkpt>
      <trkpt lat="42.4468769040" lon="19.8863088526">
        <ele>953.77</ele>
        <time>2019-07-07T13:47:07Z</time>
      </trkpt>
      <trkpt lat="42.4469585437" lon="19.8862961121">
        <ele>953.28</ele>
        <time>2019-07-07T13:47:14Z</time>
      </trkpt>
      <trkpt lat="42.4470119365" lon="19.8862985428">
        <ele>953.28</ele>
        <time>2019-07-07T13:47:18Z</time>
      </trkpt>
      <trkpt lat="42.4471763056" lon="19.8863163963">
        <ele>953.28</ele>
        <time>2019-07-07T13:47:32Z</time>
      </trkpt>
      <trkpt lat="42.4473326281" lon="19.8863606527">
        <ele>953.28</ele>
        <time>2019-07-07T13:47:45Z</time>
      </trkpt>
      <trkpt lat="42.4474952370" lon="19.8864073399">
        <ele>952.80</ele>
        <time>2019-07-07T13:47:59Z</time>
      </trkpt>
      <trkpt lat="42.4476773757" lon="19.8864758201">
        <ele>952.80</ele>
        <time>2019-07-07T13:48:14Z</time>
      </trkpt>
      <trkpt lat="42.4478499591" lon="19.8865320627">
        <ele>952.32</ele>
        <time>2019-07-07T13:48:27Z</time>
      </trkpt>
      <trkpt lat="42.4480182678" lon="19.8865919933">
        <ele>951.84</ele>
        <time>2019-07-07T13:48:40Z</time>
      </trkpt>
      <trkpt lat="42.4481826369" lon="19.8866256047">
        <ele>951.84</ele>
        <time>2019-07-07T13:48:54Z</time>
      </trkpt>
      <trkpt lat="42.4483730737" lon="19.8867029697">
        <ele>951.36</ele>
        <time>2019-07-07T13:49:10Z</time>
      </trkpt>
      <trkpt lat="42.4485370237" lon="19.8868312966">
        <ele>949.92</ele>
        <time>2019-07-07T13:49:26Z</time>
      </trkpt>
      <trkpt lat="42.4485853035" lon="19.8868757207">
        <ele>949.92</ele>
        <time>2019-07-07T13:49:30Z</time>
      </trkpt>
      <trkpt lat="42.4486640934" lon="19.8870099150">
        <ele>949.92</ele>
        <time>2019-07-07T13:49:40Z</time>
      </trkpt>
      <trkpt lat="42.4487006385" lon="19.8870929796">
        <ele>949.44</ele>
        <time>2019-07-07T13:49:47Z</time>
      </trkpt>
      <trkpt lat="42.4487029854" lon="19.8871130962">
        <ele>949.44</ele>
        <time>2019-07-07T13:49:49Z</time>
      </trkpt>
      <trkpt lat="42.4488283787" lon="19.8873329535">
        <ele>948.96</ele>
        <time>2019-07-07T13:50:03Z</time>
      </trkpt>
      <trkpt lat="42.4489488266" lon="19.8875180259">
        <ele>948.48</ele>
        <time>2019-07-07T13:50:17Z</time>
      </trkpt>
      <trkpt lat="42.4490879662" lon="19.8877149168">
        <ele>948.00</ele>
        <time>2019-07-07T13:50:33Z</time>
      </trkpt>
      <trkpt lat="42.4491777364" lon="19.8878521286">
        <ele>948.00</ele>
        <time>2019-07-07T13:50:44Z</time>
      </trkpt>
      <trkpt lat="42.4491950870" lon="19.8878797051">
        <ele>948.00</ele>
        <time>2019-07-07T13:50:46Z</time>
      </trkpt>
      <trkpt lat="42.4493142776" lon="19.8880883306">
        <ele>947.52</ele>
        <time>2019-07-07T13:51:01Z</time>
      </trkpt>
      <trkpt lat="42.4494406767" lon="19.8882900830">
        <ele>946.56</ele>
        <time>2019-07-07T13:51:16Z</time>
      </trkpt>
      <trkpt lat="42.4495773856" lon="19.8884824477">
        <ele>945.59</ele>
        <time>2019-07-07T13:51:31Z</time>
      </trkpt>
      <trkpt lat="42.4497433472" lon="19.8885922506">
        <ele>945.11</ele>
        <time>2019-07-07T13:51:45Z</time>
      </trkpt>
      <trkpt lat="42.4498780444" lon="19.8885676078">
        <ele>944.63</ele>
        <time>2019-07-07T13:51:56Z</time>
      </trkpt>
      <trkpt lat="42.4500852451" lon="19.8885048274">
        <ele>944.63</ele>
        <time>2019-07-07T13:52:12Z</time>
      </trkpt>
      <trkpt lat="42.4502550624" lon="19.8884853814">
        <ele>944.15</ele>
        <time>2019-07-07T13:52:24Z</time>
      </trkpt>
      <trkpt lat="42.4504331779" lon="19.8885263689">
        <ele>943.67</ele>
        <time>2019-07-07T13:52:38Z</time>
      </trkpt>
      <trkpt lat="42.4505797774" lon="19.8886411171">
        <ele>943.67</ele>
        <time>2019-07-07T13:52:52Z</time>
      </trkpt>
      <trkpt lat="42.4507523607" lon="19.8887501657">
        <ele>943.19</ele>
        <time>2019-07-07T13:53:07Z</time>
      </trkpt>
      <trkpt lat="42.4508940987" lon="19.8888490722">
        <ele>943.19</ele>
        <time>2019-07-07T13:53:20Z</time>
      </trkpt>
      <trkpt lat="42.4510265328" lon="19.8889422789">
        <ele>943.19</ele>
        <time>2019-07-07T13:53:32Z</time>
      </trkpt>
      <trkpt lat="42.4512017984" lon="19.8890401796">
        <ele>942.71</ele>
        <time>2019-07-07T13:53:47Z</time>
      </trkpt>
      <trkpt lat="42.4513955042" lon="19.8891478870">
        <ele>941.75</ele>
        <time>2019-07-07T13:54:03Z</time>
      </trkpt>
      <trkpt lat="42.4515677523" lon="19.8892635573">
        <ele>941.75</ele>
        <time>2019-07-07T13:54:19Z</time>
      </trkpt>
      <trkpt lat="42.4517289363" lon="19.8893470410">
        <ele>941.75</ele>
        <time>2019-07-07T13:54:32Z</time>
      </trkpt>
      <trkpt lat="42.4517215602" lon="19.8893436883">
        <ele>941.75</ele>
        <time>2019-07-07T13:54:44Z</time>
      </trkpt>
      <trkpt lat="42.4517843407" lon="19.8893563449">
        <ele>941.75</ele>
        <time>2019-07-07T13:55:04Z</time>
      </trkpt>
      <trkpt lat="42.4518479593" lon="19.8893996794">
        <ele>941.75</ele>
        <time>2019-07-07T13:55:10Z</time>
      </trkpt>
      <trkpt lat="42.4518865999" lon="19.8894441035">
        <ele>943.19</ele>
        <time>2019-07-07T13:55:14Z</time>
      </trkpt>
      <trkpt lat="42.4519894458" lon="19.8895616177">
        <ele>942.71</ele>
        <time>2019-07-07T13:55:27Z</time>
      </trkpt>
      <trkpt lat="42.4520522263" lon="19.8896792997">
        <ele>942.71</ele>
        <time>2019-07-07T13:55:37Z</time>
      </trkpt>
      <trkpt lat="42.4520795513" lon="19.8897551559">
        <ele>942.71</ele>
        <time>2019-07-07T13:55:43Z</time>
      </trkpt>
      <trkpt lat="42.4520656373" lon="19.8898139130">
        <ele>942.71</ele>
        <time>2019-07-07T13:55:47Z</time>
      </trkpt>
      <trkpt lat="42.4520637095" lon="19.8898517154">
        <ele>942.71</ele>
        <time>2019-07-07T13:55:50Z</time>
      </trkpt>
      <trkpt lat="42.4520285893" lon="19.8899260629">
        <ele>942.71</ele>
        <time>2019-07-07T13:55:56Z</time>
      </trkpt>
      <trkpt lat="42.4520100653" lon="19.8899421562">
        <ele>942.71</ele>
        <time>2019-07-07T13:55:57Z</time>
      </trkpt>
      <trkpt lat="42.4520021863" lon="19.8901034240">
        <ele>940.79</ele>
        <time>2019-07-07T13:56:11Z</time>
      </trkpt>
      <trkpt lat="42.4520094786" lon="19.8901105486">
        <ele>940.79</ele>
        <time>2019-07-07T13:56:14Z</time>
      </trkpt>
      <trkpt lat="42.4520238955" lon="19.8901778553">
        <ele>940.31</ele>
        <time>2019-07-07T13:56:18Z</time>
      </trkpt>
      <trkpt lat="42.4520144239" lon="19.8904039990">
        <ele>940.31</ele>
        <time>2019-07-07T13:56:33Z</time>
      </trkpt>
      <trkpt lat="42.4520138372" lon="19.8904710542">
        <ele>939.83</ele>
        <time>2019-07-07T13:56:37Z</time>
      </trkpt>
      <trkpt lat="42.4520416651" lon="19.8905750737">
        <ele>939.83</ele>
        <time>2019-07-07T13:56:44Z</time>
      </trkpt>
      <trkpt lat="42.4521690700" lon="19.8907404486">
        <ele>939.83</ele>
        <time>2019-07-07T13:56:59Z</time>
      </trkpt>
      <trkpt lat="42.4523092993" lon="19.8909845296">
        <ele>939.83</ele>
        <time>2019-07-07T13:57:19Z</time>
      </trkpt>
      <trkpt lat="42.4524070323" lon="19.8911402654">
        <ele>939.35</ele>
        <time>2019-07-07T13:57:32Z</time>
      </trkpt>
      <trkpt lat="42.4525225349" lon="19.8913677502">
        <ele>939.35</ele>
        <time>2019-07-07T13:57:49Z</time>
      </trkpt>
      <trkpt lat="42.4525547214" lon="19.8914302792">
        <ele>939.35</ele>
        <time>2019-07-07T13:57:54Z</time>
      </trkpt>
      <trkpt lat="42.4526640214" lon="19.8916285951">
        <ele>938.86</ele>
        <time>2019-07-07T13:58:09Z</time>
      </trkpt>
      <trkpt lat="42.4527717289" lon="19.8918378912">
        <ele>938.86</ele>
        <time>2019-07-07T13:58:24Z</time>
      </trkpt>
      <trkpt lat="42.4528729822" lon="19.8920233827">
        <ele>938.38</ele>
        <time>2019-07-07T13:58:39Z</time>
      </trkpt>
      <trkpt lat="42.4530000519" lon="19.8922374565">
        <ele>938.38</ele>
        <time>2019-07-07T13:58:57Z</time>
      </trkpt>
      <trkpt lat="42.4531160574" lon="19.8923961259">
        <ele>937.42</ele>
        <time>2019-07-07T13:59:11Z</time>
      </trkpt>
      <trkpt lat="42.4532217532" lon="19.8926250357">
        <ele>937.42</ele>
        <time>2019-07-07T13:59:27Z</time>
      </trkpt>
      <trkpt lat="42.4533063266" lon="19.8927868064">
        <ele>936.94</ele>
        <time>2019-07-07T13:59:41Z</time>
      </trkpt>
      <trkpt lat="42.4533605576" lon="19.8928478267">
        <ele>936.94</ele>
        <time>2019-07-07T13:59:58Z</time>
      </trkpt>
      <trkpt lat="42.4533725437" lon="19.8928723019">
        <ele>936.94</ele>
        <time>2019-07-07T14:00:00Z</time>
      </trkpt>
      <trkpt lat="42.4534577038" lon="19.8930577096">
        <ele>936.46</ele>
        <time>2019-07-07T14:00:14Z</time>
      </trkpt>
      <trkpt lat="42.4535660818" lon="19.8932836019">
        <ele>936.46</ele>
        <time>2019-07-07T14:00:30Z</time>
      </trkpt>
      <trkpt lat="42.4536669161" lon="19.8934706021">
        <ele>935.98</ele>
        <time>2019-07-07T14:00:45Z</time>
      </trkpt>
      <trkpt lat="42.4538108334" lon="19.8936894536">
        <ele>935.50</ele>
        <time>2019-07-07T14:01:02Z</time>
      </trkpt>
      <trkpt lat="42.4539016932" lon="19.8938684911">
        <ele>935.50</ele>
        <time>2019-07-07T14:01:15Z</time>
      </trkpt>
      <trkpt lat="42.4539109971" lon="19.8938974086">
        <ele>935.50</ele>
        <time>2019-07-07T14:01:17Z</time>
      </trkpt>
      <trkpt lat="42.4540313613" lon="19.8940675613">
        <ele>935.50</ele>
        <time>2019-07-07T14:01:31Z</time>
      </trkpt>
      <trkpt lat="42.4541125819" lon="19.8942288291">
        <ele>935.02</ele>
        <time>2019-07-07T14:01:43Z</time>
      </trkpt>
      <trkpt lat="42.4542379752" lon="19.8944334313">
        <ele>935.02</ele>
        <time>2019-07-07T14:02:00Z</time>
      </trkpt>
      <trkpt lat="42.4543640390" lon="19.8946557194">
        <ele>934.54</ele>
        <time>2019-07-07T14:02:17Z</time>
      </trkpt>
      <trkpt lat="42.4544142466" lon="19.8947545420">
        <ele>934.54</ele>
        <time>2019-07-07T14:02:25Z</time>
      </trkpt>
      <trkpt lat="42.4544477742" lon="19.8948238604">
        <ele>934.54</ele>
        <time>2019-07-07T14:02:30Z</time>
      </trkpt>
      <trkpt lat="42.4545946252" lon="19.8950633314">
        <ele>934.54</ele>
        <time>2019-07-07T14:02:49Z</time>
      </trkpt>
      <trkpt lat="42.4547065236" lon="19.8952603899">
        <ele>934.54</ele>
        <time>2019-07-07T14:03:04Z</time>
      </trkpt>
      <trkpt lat="42.4548161589" lon="19.8954959214">
        <ele>934.54</ele>
        <time>2019-07-07T14:03:20Z</time>
      </trkpt>
      <trkpt lat="42.4549436476" lon="19.8957304470">
        <ele>934.54</ele>
        <time>2019-07-07T14:03:37Z</time>
      </trkpt>
      <trkpt lat="42.4550173245" lon="19.8958900385">
        <ele>934.54</ele>
        <time>2019-07-07T14:03:48Z</time>
      </trkpt>
      <trkpt lat="42.4550310709" lon="19.8959052097">
        <ele>934.54</ele>
        <time>2019-07-07T14:03:50Z</time>
      </trkpt>
      <trkpt lat="42.4550970364" lon="19.8960486241">
        <ele>934.54</ele>
        <time>2019-07-07T14:04:00Z</time>
      </trkpt>
      <trkpt lat="42.4551457353" lon="19.8961383104">
        <ele>935.50</ele>
        <time>2019-07-07T14:04:08Z</time>
      </trkpt>
      <trkpt lat="42.4552555382" lon="19.8962036055">
        <ele>936.46</ele>
        <time>2019-07-07T14:04:22Z</time>
      </trkpt>
      <trkpt lat="42.4553158041" lon="19.8961896077">
        <ele>936.94</ele>
        <time>2019-07-07T14:04:36Z</time>
      </trkpt>
      <trkpt lat="42.4553156365" lon="19.8961979896">
        <ele>936.94</ele>
        <time>2019-07-07T14:04:59Z</time>
      </trkpt>
      <trkpt lat="42.4553644191" lon="19.8962208722">
        <ele>936.94</ele>
        <time>2019-07-07T14:05:23Z</time>
      </trkpt>
      <trkpt lat="42.4555451330" lon="19.8962079640">
        <ele>936.94</ele>
        <time>2019-07-07T14:05:37Z</time>
      </trkpt>
      <trkpt lat="42.4556276109" lon="19.8963251431">
        <ele>935.02</ele>
        <time>2019-07-07T14:05:47Z</time>
      </trkpt>
      <trkpt lat="42.4556261860" lon="19.8963580001">
        <ele>935.02</ele>
        <time>2019-07-07T14:05:49Z</time>
      </trkpt>
      <trkpt lat="42.4556328915" lon="19.8963653762">
        <ele>935.02</ele>
        <time>2019-07-07T14:05:50Z</time>
      </trkpt>
      <trkpt lat="42.4556145351" lon="19.8965745885">
        <ele>934.06</ele>
        <time>2019-07-07T14:06:02Z</time>
      </trkpt>
      <trkpt lat="42.4556169659" lon="19.8966351058">
        <ele>934.06</ele>
        <time>2019-07-07T14:06:06Z</time>
      </trkpt>
      <trkpt lat="42.4556421954" lon="19.8969135527">
        <ele>934.06</ele>
        <time>2019-07-07T14:06:24Z</time>
      </trkpt>
      <trkpt lat="42.4556426145" lon="19.8969363514">
        <ele>934.06</ele>
        <time>2019-07-07T14:06:25Z</time>
      </trkpt>
      <trkpt lat="42.4556475598" lon="19.8969511874">
        <ele>934.06</ele>
        <time>2019-07-07T14:06:26Z</time>
      </trkpt>
      <trkpt lat="42.4556810874" lon="19.8971722182">
        <ele>933.10</ele>
        <time>2019-07-07T14:06:38Z</time>
      </trkpt>
      <trkpt lat="42.4556711968" lon="19.8973168898">
        <ele>932.62</ele>
        <time>2019-07-07T14:06:46Z</time>
      </trkpt>
      <trkpt lat="42.4556654971" lon="19.8973724619">
        <ele>932.62</ele>
        <time>2019-07-07T14:06:49Z</time>
      </trkpt>
      <trkpt lat="42.4556400999" lon="19.8976639844">
        <ele>933.58</ele>
        <time>2019-07-07T14:07:06Z</time>
      </trkpt>
      <trkpt lat="42.4556333106" lon="19.8979207221">
        <ele>934.54</ele>
        <time>2019-07-07T14:07:22Z</time>
      </trkpt>
      <trkpt lat="42.4556520022" lon="19.8981358018">
        <ele>935.02</ele>
        <time>2019-07-07T14:07:37Z</time>
      </trkpt>
      <trkpt lat="42.4556702748" lon="19.8983818945">
        <ele>936.94</ele>
        <time>2019-07-07T14:07:52Z</time>
      </trkpt>
      <trkpt lat="42.4557140283" lon="19.8985960521">
        <ele>936.94</ele>
        <time>2019-07-07T14:08:06Z</time>
      </trkpt>
      <trkpt lat="42.4558339734" lon="19.8987969663">
        <ele>935.50</ele>
        <time>2019-07-07T14:08:21Z</time>
      </trkpt>
      <trkpt lat="42.4559633061" lon="19.8990171589">
        <ele>935.50</ele>
        <time>2019-07-07T14:08:38Z</time>
      </trkpt>
      <trkpt lat="42.4561167788" lon="19.8991542868">
        <ele>936.46</ele>
        <time>2019-07-07T14:08:53Z</time>
      </trkpt>
      <trkpt lat="42.4562653061" lon="19.8992533609">
        <ele>935.98</ele>
        <time>2019-07-07T14:09:07Z</time>
      </trkpt>
      <trkpt lat="42.4564097263" lon="19.8992849607">
        <ele>935.98</ele>
        <time>2019-07-07T14:09:24Z</time>
      </trkpt>
      <trkpt lat="42.4563644640" lon="19.8993197456">
        <ele>936.94</ele>
        <time>2019-07-07T14:09:33Z</time>
      </trkpt>
      <trkpt lat="42.4563544895" lon="19.8993021436">
        <ele>935.50</ele>
        <time>2019-07-07T14:09:37Z</time>
      </trkpt>
      <trkpt lat="42.4563471973" lon="19.8992952704">
        <ele>936.94</ele>
        <time>2019-07-07T14:09:39Z</time>
      </trkpt>
      <trkpt lat="42.4563414138" lon="19.8992906604">
        <ele>935.50</ele>
        <time>2019-07-07T14:09:43Z</time>
      </trkpt>
      <trkpt lat="42.4563321099" lon="19.8993023112">
        <ele>936.94</ele>
        <time>2019-07-07T14:09:49Z</time>
      </trkpt>
      <trkpt lat="42.4563319422" lon="19.8993925843">
        <ele>933.58</ele>
        <time>2019-07-07T14:10:01Z</time>
      </trkpt>
      <trkpt lat="42.4563692417" lon="19.8994432949">
        <ele>931.65</ele>
        <time>2019-07-07T14:10:10Z</time>
      </trkpt>
      <trkpt lat="42.4564288370" lon="19.8995118588">
        <ele>929.73</ele>
        <time>2019-07-07T14:10:22Z</time>
      </trkpt>
      <trkpt lat="42.4564406555" lon="19.8995299637">
        <ele>929.73</ele>
        <time>2019-07-07T14:10:24Z</time>
      </trkpt>
      <trkpt lat="42.4565342814" lon="19.8995923251">
        <ele>927.33</ele>
        <time>2019-07-07T14:10:35Z</time>
      </trkpt>
      <trkpt lat="42.4566023424" lon="19.8996586259">
        <ele>925.89</ele>
        <time>2019-07-07T14:10:46Z</time>
      </trkpt>
      <trkpt lat="42.4566442519" lon="19.8996872921">
        <ele>924.93</ele>
        <time>2019-07-07T14:10:52Z</time>
      </trkpt>
      <trkpt lat="42.4566894304" lon="19.8998153675">
        <ele>921.08</ele>
        <time>2019-07-07T14:11:08Z</time>
      </trkpt>
      <trkpt lat="42.4567627721" lon="19.8999319598">
        <ele>918.68</ele>
        <time>2019-07-07T14:11:22Z</time>
      </trkpt>
      <trkpt lat="42.4568069447" lon="19.9000102468">
        <ele>916.27</ele>
        <time>2019-07-07T14:11:34Z</time>
      </trkpt>
      <trkpt lat="42.4568411428" lon="19.9000426847">
        <ele>914.83</ele>
        <time>2019-07-07T14:11:50Z</time>
      </trkpt>
      <trkpt lat="42.4568532966" lon="19.9000726081">
        <ele>914.35</ele>
        <time>2019-07-07T14:12:05Z</time>
      </trkpt>
      <trkpt lat="42.4569272250" lon="19.9001369812">
        <ele>914.35</ele>
        <time>2019-07-07T14:12:19Z</time>
      </trkpt>
      <trkpt lat="42.4569578189" lon="19.9001914635">
        <ele>912.91</ele>
        <time>2019-07-07T14:12:31Z</time>
      </trkpt>
      <trkpt lat="42.4570166599" lon="19.9002460297">
        <ele>910.51</ele>
        <time>2019-07-07T14:12:43Z</time>
      </trkpt>
      <trkpt lat="42.4570804462" lon="19.9003223889">
        <ele>908.10</ele>
        <time>2019-07-07T14:12:55Z</time>
      </trkpt>
      <trkpt lat="42.4570912588" lon="19.9004002567">
        <ele>906.66</ele>
        <time>2019-07-07T14:13:03Z</time>
      </trkpt>
      <trkpt lat="42.4570951983" lon="19.9004963972">
        <ele>905.22</ele>
        <time>2019-07-07T14:13:13Z</time>
      </trkpt>
      <trkpt lat="42.4571578111" lon="19.9006326869">
        <ele>905.22</ele>
        <time>2019-07-07T14:13:25Z</time>
      </trkpt>
      <trkpt lat="42.4571944401" lon="19.9008055218">
        <ele>905.22</ele>
        <time>2019-07-07T14:13:41Z</time>
      </trkpt>
      <trkpt lat="42.4571956974" lon="19.9009184260">
        <ele>906.66</ele>
        <time>2019-07-07T14:13:55Z</time>
      </trkpt>
      <trkpt lat="42.4572262913" lon="19.9008760136">
        <ele>906.66</ele>
        <time>2019-07-07T14:14:08Z</time>
      </trkpt>
      <trkpt lat="42.4572008103" lon="19.9008771870">
        <ele>906.66</ele>
        <time>2019-07-07T14:14:31Z</time>
      </trkpt>
      <trkpt lat="42.4572064262" lon="19.9008728284">
        <ele>906.66</ele>
        <time>2019-07-07T14:14:56Z</time>
      </trkpt>
      <trkpt lat="42.4572509341" lon="19.9008631054">
        <ele>906.66</ele>
        <time>2019-07-07T14:15:16Z</time>
      </trkpt>
      <trkpt lat="42.4572024867" lon="19.9008717388">
        <ele>906.66</ele>
        <time>2019-07-07T14:15:44Z</time>
      </trkpt>
      <trkpt lat="42.4572739005" lon="19.9007837288">
        <ele>906.66</ele>
        <time>2019-07-07T14:16:05Z</time>
      </trkpt>
      <trkpt lat="42.4573026504" lon="19.9007963855">
        <ele>907.14</ele>
        <time>2019-07-07T14:16:20Z</time>
      </trkpt>
      <trkpt lat="42.4572988786" lon="19.9007529672">
        <ele>907.14</ele>
        <time>2019-07-07T14:16:43Z</time>
      </trkpt>
      <trkpt lat="42.4572817795" lon="19.9007614329">
        <ele>907.14</ele>
        <time>2019-07-07T14:17:07Z</time>
      </trkpt>
      <trkpt lat="42.4573398661" lon="19.9008237105">
        <ele>905.22</ele>
        <time>2019-07-07T14:24:37Z</time>
      </trkpt>
      <trkpt lat="42.4573780876" lon="19.9007026758">
        <ele>907.62</ele>
        <time>2019-07-07T14:50:02Z</time>
      </trkpt>
      <trkpt lat="42.4573543668" lon="19.9007423222">
        <ele>906.18</ele>
        <time>2019-07-07T14:50:16Z</time>
      </trkpt>
      <trkpt lat="42.4573517684" lon="19.9007889256">
        <ele>907.62</ele>
        <time>2019-07-07T14:50:45Z</time>
      </trkpt>
      <trkpt lat="42.4573303107" lon="19.9010566436">
        <ele>907.62</ele>
        <time>2019-07-07T14:51:07Z</time>
      </trkpt>
      <trkpt lat="42.4573221803" lon="19.9010265525">
        <ele>907.62</ele>
        <time>2019-07-07T14:51:35Z</time>
      </trkpt>
      <trkpt lat="42.4573267903" lon="19.9010081124">
        <ele>906.18</ele>
        <time>2019-07-07T14:51:55Z</time>
      </trkpt>
      <trkpt lat="42.4574049935" lon="19.9006264843">
        <ele>907.62</ele>
        <time>2019-07-07T15:15:36Z</time>
      </trkpt>
      <trkpt lat="42.4574103579" lon="19.9008277338">
        <ele>907.62</ele>
        <time>2019-07-07T15:16:04Z</time>
      </trkpt>
      <trkpt lat="42.4574100226" lon="19.9008764327">
        <ele>908.58</ele>
        <time>2019-07-07T15:16:10Z</time>
      </trkpt>
      <trkpt lat="42.4574148003" lon="19.9009863194">
        <ele>908.58</ele>
        <time>2019-07-07T15:16:37Z</time>
      </trkpt>
      <trkpt lat="42.4574214220" lon="19.9009515345">
        <ele>906.66</ele>
        <time>2019-07-07T15:16:41Z</time>
      </trkpt>
      <trkpt lat="42.4574312288" lon="19.9009046797">
        <ele>908.10</ele>
        <time>2019-07-07T15:16:46Z</time>
      </trkpt>
      <trkpt lat="42.4574307259" lon="19.9009165820">
        <ele>907.14</ele>
        <time>2019-07-07T15:17:14Z</time>
      </trkpt>
      <trkpt lat="42.4574432150" lon="19.9008966330">
        <ele>908.58</ele>
        <time>2019-07-07T15:17:56Z</time>
      </trkpt>
      <trkpt lat="42.4574716296" lon="19.9008591659">
        <ele>908.58</ele>
        <time>2019-07-07T15:18:31Z</time>
      </trkpt>
      <trkpt lat="42.4574680254" lon="19.9009565637">
        <ele>908.58</ele>
        <time>2019-07-07T15:19:00Z</time>
      </trkpt>
      <trkpt lat="42.4574348330" lon="19.9010076094">
        <ele>907.14</ele>
        <time>2019-07-07T15:19:11Z</time>
      </trkpt>
      <trkpt lat="42.4574242719" lon="19.9006539769">
        <ele>907.14</ele>
        <time>2019-07-07T15:19:36Z</time>
      </trkpt>
      <trkpt lat="42.4574175663" lon="19.9002463650">
        <ele>908.58</ele>
        <time>2019-07-07T15:20:10Z</time>
      </trkpt>
      <trkpt lat="42.4574562069" lon="19.8998227436">
        <ele>907.62</ele>
        <time>2019-07-07T15:20:49Z</time>
      </trkpt>
      <trkpt lat="42.4574724678" lon="19.8998409323">
        <ele>907.62</ele>
        <time>2019-07-07T15:21:22Z</time>
      </trkpt>
      <trkpt lat="42.4574684445" lon="19.8999167047">
        <ele>906.66</ele>
        <time>2019-07-07T15:21:42Z</time>
      </trkpt>
      <trkpt lat="42.4575045705" lon="19.9002358876">
        <ele>908.10</ele>
        <time>2019-07-07T15:22:12Z</time>
      </trkpt>
      <trkpt lat="42.4574581347" lon="19.9006348662">
        <ele>907.14</ele>
        <time>2019-07-07T15:22:44Z</time>
      </trkpt>
      <trkpt lat="42.4574161414" lon="19.9009932764">
        <ele>908.10</ele>
        <time>2019-07-07T15:23:11Z</time>
      </trkpt>
      <trkpt lat="42.4567207787" lon="19.9008390494">
        <ele>886.47</ele>
        <time>2019-07-08T05:46:14Z</time>
      </trkpt>
      <trkpt lat="42.4567323457" lon="19.9008311704">
        <ele>886.47</ele>
        <time>2019-07-08T05:46:15Z</time>
      </trkpt>
      <trkpt lat="42.4567368720" lon="19.9007205293">
        <ele>886.47</ele>
        <time>2019-07-08T05:46:40Z</time>
      </trkpt>
      <trkpt lat="42.4567285739" lon="19.9007173441">
        <ele>886.47</ele>
        <time>2019-07-08T05:47:04Z</time>
      </trkpt>
      <trkpt lat="42.4568714853" lon="19.9007510394">
        <ele>886.47</ele>
        <time>2019-07-08T05:47:31Z</time>
      </trkpt>
      <trkpt lat="42.4568238761" lon="19.9005871732">
        <ele>886.47</ele>
        <time>2019-07-08T05:47:50Z</time>
      </trkpt>
      <trkpt lat="42.4569842219" lon="19.9005349539">
        <ele>886.47</ele>
        <time>2019-07-08T05:48:09Z</time>
      </trkpt>
      <trkpt lat="42.4570312444" lon="19.9004602712">
        <ele>885.03</ele>
        <time>2019-07-08T05:48:21Z</time>
      </trkpt>
      <trkpt lat="42.4570372794" lon="19.9004746042">
        <ele>884.55</ele>
        <time>2019-07-08T05:48:25Z</time>
      </trkpt>
      <trkpt lat="42.4570755847" lon="19.9005399831">
        <ele>884.55</ele>
        <time>2019-07-08T05:48:41Z</time>
      </trkpt>
      <trkpt lat="42.4571065977" lon="19.9005460180">
        <ele>884.55</ele>
        <time>2019-07-08T05:48:50Z</time>
      </trkpt>
      <trkpt lat="42.4571460765" lon="19.9004538171">
        <ele>887.43</ele>
        <time>2019-07-08T05:48:57Z</time>
      </trkpt>
      <trkpt lat="42.4571454898" lon="19.9004177749">
        <ele>889.36</ele>
        <time>2019-07-08T05:49:00Z</time>
      </trkpt>
      <trkpt lat="42.4571236130" lon="19.9003714230">
        <ele>892.72</ele>
        <time>2019-07-08T05:49:05Z</time>
      </trkpt>
      <trkpt lat="42.4571036641" lon="19.9003256578">
        <ele>896.09</ele>
        <time>2019-07-08T05:49:12Z</time>
      </trkpt>
      <trkpt lat="42.4571012333" lon="19.9003595207">
        <ele>899.45</ele>
        <time>2019-07-08T05:49:24Z</time>
      </trkpt>
      <trkpt lat="42.4570858106" lon="19.9004004244">
        <ele>902.33</ele>
        <time>2019-07-08T05:49:38Z</time>
      </trkpt>
      <trkpt lat="42.4570995569" lon="19.9003842473">
        <ele>905.70</ele>
        <time>2019-07-08T05:49:47Z</time>
      </trkpt>
      <trkpt lat="42.4570314121" lon="19.9003578443">
        <ele>908.58</ele>
        <time>2019-07-08T05:50:01Z</time>
      </trkpt>
      <trkpt lat="42.4570392910" lon="19.9002876878">
        <ele>910.03</ele>
        <time>2019-07-08T05:50:14Z</time>
      </trkpt>
      <trkpt lat="42.4570396263" lon="19.9002682418">
        <ele>911.47</ele>
        <time>2019-07-08T05:50:19Z</time>
      </trkpt>
      <trkpt lat="42.4570359383" lon="19.9002061319">
        <ele>913.39</ele>
        <time>2019-07-08T05:50:31Z</time>
      </trkpt>
      <trkpt lat="42.4569936935" lon="19.9001601152">
        <ele>914.83</ele>
        <time>2019-07-08T05:50:44Z</time>
      </trkpt>
      <trkpt lat="42.4569553882" lon="19.9001195468">
        <ele>917.24</ele>
        <time>2019-07-08T05:50:57Z</time>
      </trkpt>
      <trkpt lat="42.4569177534" lon="19.9000681657">
        <ele>919.16</ele>
        <time>2019-07-08T05:51:10Z</time>
      </trkpt>
      <trkpt lat="42.4568845611" lon="19.9000193831">
        <ele>919.16</ele>
        <time>2019-07-08T05:51:25Z</time>
      </trkpt>
      <trkpt lat="42.4568800349" lon="19.8999944888">
        <ele>919.64</ele>
        <time>2019-07-08T05:51:37Z</time>
      </trkpt>
      <trkpt lat="42.4568387959" lon="19.8999394197">
        <ele>920.12</ele>
        <time>2019-07-08T05:51:50Z</time>
      </trkpt>
      <trkpt lat="42.4568101298" lon="19.8998926487">
        <ele>922.04</ele>
        <time>2019-07-08T05:52:03Z</time>
      </trkpt>
      <trkpt lat="42.4567817152" lon="19.8998442013">
        <ele>923.96</ele>
        <time>2019-07-08T05:52:16Z</time>
      </trkpt>
      <trkpt lat="42.4567489419" lon="19.8997949995">
        <ele>925.89</ele>
        <time>2019-07-08T05:52:29Z</time>
      </trkpt>
      <trkpt lat="42.4567362014" lon="19.8997340631">
        <ele>927.81</ele>
        <time>2019-07-08T05:52:41Z</time>
      </trkpt>
      <trkpt lat="42.4566781987" lon="19.8997040559">
        <ele>929.25</ele>
        <time>2019-07-08T05:52:52Z</time>
      </trkpt>
      <trkpt lat="42.4566225428" lon="19.8996757250">
        <ele>931.17</ele>
        <time>2019-07-08T05:53:05Z</time>
      </trkpt>
      <trkpt lat="42.4565708265" lon="19.8996481486">
        <ele>932.62</ele>
        <time>2019-07-08T05:53:16Z</time>
      </trkpt>
      <trkpt lat="42.4564996641" lon="19.8995654192">
        <ele>934.54</ele>
        <time>2019-07-08T05:53:32Z</time>
      </trkpt>
      <trkpt lat="42.4564615265" lon="19.8995092604">
        <ele>935.98</ele>
        <time>2019-07-08T05:53:43Z</time>
      </trkpt>
      <trkpt lat="42.4564478640" lon="19.8994669318">
        <ele>937.90</ele>
        <time>2019-07-08T05:53:55Z</time>
      </trkpt>
      <trkpt lat="42.4564297590" lon="19.8994434625">
        <ele>937.42</ele>
        <time>2019-07-08T05:53:58Z</time>
      </trkpt>
      <trkpt lat="42.4564109836" lon="19.8994303867">
        <ele>937.42</ele>
        <time>2019-07-08T05:54:00Z</time>
      </trkpt>
      <trkpt lat="42.4562373105" lon="19.8993525188">
        <ele>937.90</ele>
        <time>2019-07-08T05:54:16Z</time>
      </trkpt>
      <trkpt lat="42.4561074749" lon="19.8992350046">
        <ele>937.42</ele>
        <time>2019-07-08T05:54:31Z</time>
      </trkpt>
      <trkpt lat="42.4560102448" lon="19.8990741558">
        <ele>937.42</ele>
        <time>2019-07-08T05:54:45Z</time>
      </trkpt>
      <trkpt lat="42.4558879528" lon="19.8988978844">
        <ele>936.94</ele>
        <time>2019-07-08T05:55:01Z</time>
      </trkpt>
      <trkpt lat="42.4557959195" lon="19.8986819666">
        <ele>936.94</ele>
        <time>2019-07-08T05:55:17Z</time>
      </trkpt>
      <trkpt lat="42.4557682592" lon="19.8984922003">
        <ele>936.46</ele>
        <time>2019-07-08T05:55:30Z</time>
      </trkpt>
      <trkpt lat="42.4556726217" lon="19.8981956486">
        <ele>935.02</ele>
        <time>2019-07-08T05:55:39Z</time>
      </trkpt>
      <trkpt lat="42.4556186423" lon="19.8979631346">
        <ele>934.06</ele>
        <time>2019-07-08T05:55:52Z</time>
      </trkpt>
      <trkpt lat="42.4556180555" lon="19.8978993483">
        <ele>934.54</ele>
        <time>2019-07-08T05:55:56Z</time>
      </trkpt>
      <trkpt lat="42.4556246772" lon="19.8976709414">
        <ele>933.58</ele>
        <time>2019-07-08T05:56:11Z</time>
      </trkpt>
      <trkpt lat="42.4556238391" lon="19.8976466339">
        <ele>933.10</ele>
        <time>2019-07-08T05:56:13Z</time>
      </trkpt>
      <trkpt lat="42.4556279462" lon="19.8976150341">
        <ele>933.10</ele>
        <time>2019-07-08T05:56:15Z</time>
      </trkpt>
      <trkpt lat="42.4556574505" lon="19.8974018823">
        <ele>933.10</ele>
        <time>2019-07-08T05:56:28Z</time>
      </trkpt>
      <trkpt lat="42.4556585401" lon="19.8973560333">
        <ele>933.10</ele>
        <time>2019-07-08T05:56:31Z</time>
      </trkpt>
      <trkpt lat="42.4556862842" lon="19.8970989604">
        <ele>932.62</ele>
        <time>2019-07-08T05:56:49Z</time>
      </trkpt>
      <trkpt lat="42.4556646589" lon="19.8969530314">
        <ele>933.58</ele>
        <time>2019-07-08T05:57:00Z</time>
      </trkpt>
      <trkpt lat="42.4556598812" lon="19.8969252873">
        <ele>933.58</ele>
        <time>2019-07-08T05:57:02Z</time>
      </trkpt>
      <trkpt lat="42.4556350708" lon="19.8966231197">
        <ele>934.06</ele>
        <time>2019-07-08T05:57:21Z</time>
      </trkpt>
      <trkpt lat="42.4556501582" lon="19.8964729160">
        <ele>934.06</ele>
        <time>2019-07-08T05:57:32Z</time>
      </trkpt>
      <trkpt lat="42.4556120206" lon="19.8962506279">
        <ele>935.02</ele>
        <time>2019-07-08T05:57:48Z</time>
      </trkpt>
      <trkpt lat="42.4555981066" lon="19.8962131608">
        <ele>934.54</ele>
        <time>2019-07-08T05:57:52Z</time>
      </trkpt>
      <trkpt lat="42.4555166345" lon="19.8960804753">
        <ele>935.02</ele>
        <time>2019-07-08T05:58:07Z</time>
      </trkpt>
      <trkpt lat="42.4554388504" lon="19.8959669843">
        <ele>935.98</ele>
        <time>2019-07-08T05:58:21Z</time>
      </trkpt>
      <trkpt lat="42.4554134533" lon="19.8958452791">
        <ele>936.94</ele>
        <time>2019-07-08T05:58:35Z</time>
      </trkpt>
      <trkpt lat="42.4554221705" lon="19.8957710154">
        <ele>938.86</ele>
        <time>2019-07-08T05:58:47Z</time>
      </trkpt>
      <trkpt lat="42.4554437958" lon="19.8956996854">
        <ele>940.79</ele>
        <time>2019-07-08T05:59:01Z</time>
      </trkpt>
      <trkpt lat="42.4554926623" lon="19.8956472985">
        <ele>942.71</ele>
        <time>2019-07-08T05:59:15Z</time>
      </trkpt>
      <trkpt lat="42.4555551074" lon="19.8955531698">
        <ele>943.67</ele>
        <time>2019-07-08T05:59:27Z</time>
      </trkpt>
      <trkpt lat="42.4556087516" lon="19.8954871204">
        <ele>945.11</ele>
        <time>2019-07-08T05:59:39Z</time>
      </trkpt>
      <trkpt lat="42.4556606356" lon="19.8954061512">
        <ele>947.52</ele>
        <time>2019-07-08T05:59:51Z</time>
      </trkpt>
      <trkpt lat="42.4557433650" lon="19.8953714501">
        <ele>948.96</ele>
        <time>2019-07-08T06:00:04Z</time>
      </trkpt>
      <trkpt lat="42.4558055587" lon="19.8953279480">
        <ele>950.40</ele>
        <time>2019-07-08T06:00:16Z</time>
      </trkpt>
      <trkpt lat="42.4558617175" lon="19.8953227513">
        <ele>952.80</ele>
        <time>2019-07-08T06:00:28Z</time>
      </trkpt>
      <trkpt lat="42.4558913894" lon="19.8953328095">
        <ele>953.77</ele>
        <time>2019-07-08T06:00:33Z</time>
      </trkpt>
      <trkpt lat="42.4559710175" lon="19.8953152075">
        <ele>954.25</ele>
        <time>2019-07-08T06:00:45Z</time>
      </trkpt>
      <trkpt lat="42.4560557585" lon="19.8952171393">
        <ele>956.17</ele>
        <time>2019-07-08T06:01:01Z</time>
      </trkpt>
      <trkpt lat="42.4561242387" lon="19.8951967712">
        <ele>957.61</ele>
        <time>2019-07-08T06:01:13Z</time>
      </trkpt>
      <trkpt lat="42.4561752006" lon="19.8951563705">
        <ele>959.05</ele>
        <time>2019-07-08T06:01:24Z</time>
      </trkpt>
      <trkpt lat="42.4562297668" lon="19.8950666003">
        <ele>960.49</ele>
        <time>2019-07-08T06:01:37Z</time>
      </trkpt>
      <trkpt lat="42.4562918767" lon="19.8950457294">
        <ele>962.42</ele>
        <time>2019-07-08T06:01:50Z</time>
      </trkpt>
      <trkpt lat="42.4563501310" lon="19.8950296361">
        <ele>964.82</ele>
        <time>2019-07-08T06:02:04Z</time>
      </trkpt>
      <trkpt lat="42.4564298429" lon="19.8949866369">
        <ele>966.74</ele>
        <time>2019-07-08T06:02:17Z</time>
      </trkpt>
      <trkpt lat="42.4564421643" lon="19.8949854635">
        <ele>966.74</ele>
        <time>2019-07-08T06:02:19Z</time>
      </trkpt>
      <trkpt lat="42.4565354548" lon="19.8949658498">
        <ele>967.70</ele>
        <time>2019-07-08T06:02:31Z</time>
      </trkpt>
      <trkpt lat="42.4566170946" lon="19.8949434701">
        <ele>969.15</ele>
        <time>2019-07-08T06:02:44Z</time>
      </trkpt>
      <trkpt lat="42.4566752650" lon="19.8949841224">
        <ele>970.59</ele>
        <time>2019-07-08T06:02:57Z</time>
      </trkpt>
      <trkpt lat="42.4567174260" lon="19.8950684443">
        <ele>972.51</ele>
        <time>2019-07-08T06:03:11Z</time>
      </trkpt>
      <trkpt lat="42.4568053521" lon="19.8951061629">
        <ele>973.95</ele>
        <time>2019-07-08T06:03:25Z</time>
      </trkpt>
      <trkpt lat="42.4568931945" lon="19.8951206636">
        <ele>975.88</ele>
        <time>2019-07-08T06:03:38Z</time>
      </trkpt>
      <trkpt lat="42.4569871556" lon="19.8951280396">
        <ele>976.84</ele>
        <time>2019-07-08T06:03:51Z</time>
      </trkpt>
      <trkpt lat="42.4570463318" lon="19.8951323982">
        <ele>977.80</ele>
        <time>2019-07-08T06:04:02Z</time>
      </trkpt>
      <trkpt lat="42.4571495969" lon="19.8951382656">
        <ele>978.76</ele>
        <time>2019-07-08T06:04:14Z</time>
      </trkpt>
      <trkpt lat="42.4572247826" lon="19.8951371759">
        <ele>979.72</ele>
        <time>2019-07-08T06:04:21Z</time>
      </trkpt>
      <trkpt lat="42.4572919216" lon="19.8951038159">
        <ele>981.16</ele>
        <time>2019-07-08T06:04:32Z</time>
      </trkpt>
      <trkpt lat="42.4573934264" lon="19.8950796761">
        <ele>982.12</ele>
        <time>2019-07-08T06:04:44Z</time>
      </trkpt>
      <trkpt lat="42.4574856274" lon="19.8950983677">
        <ele>983.57</ele>
        <time>2019-07-08T06:04:58Z</time>
      </trkpt>
      <trkpt lat="42.4575825222" lon="19.8950738925">
        <ele>985.01</ele>
        <time>2019-07-08T06:05:11Z</time>
      </trkpt>
      <trkpt lat="42.4576492421" lon="19.8950626608">
        <ele>986.45</ele>
        <time>2019-07-08T06:05:23Z</time>
      </trkpt>
      <trkpt lat="42.4577239249" lon="19.8950350005">
        <ele>988.85</ele>
        <time>2019-07-08T06:05:35Z</time>
      </trkpt>
      <trkpt lat="42.4578030501" lon="19.8950312287">
        <ele>990.78</ele>
        <time>2019-07-08T06:05:51Z</time>
      </trkpt>
      <trkpt lat="42.4578378350" lon="19.8950158060">
        <ele>992.70</ele>
        <time>2019-07-08T06:06:04Z</time>
      </trkpt>
      <trkpt lat="42.4578880426" lon="19.8949620780">
        <ele>994.62</ele>
        <time>2019-07-08T06:06:19Z</time>
      </trkpt>
      <trkpt lat="42.4579297844" lon="19.8949631676">
        <ele>996.54</ele>
        <time>2019-07-08T06:06:31Z</time>
      </trkpt>
      <trkpt lat="42.4579808302" lon="19.8949254490">
        <ele>997.99</ele>
        <time>2019-07-08T06:06:43Z</time>
      </trkpt>
      <trkpt lat="42.4580505677" lon="19.8949386925">
        <ele>1000.39</ele>
        <time>2019-07-08T06:06:58Z</time>
      </trkpt>
      <trkpt lat="42.4580724444" lon="19.8949162290">
        <ele>1001.83</ele>
        <time>2019-07-08T06:07:10Z</time>
      </trkpt>
      <trkpt lat="42.4581115879" lon="19.8949175701">
        <ele>1004.23</ele>
        <time>2019-07-08T06:07:23Z</time>
      </trkpt>
      <trkpt lat="42.4581701774" lon="19.8949570488">
        <ele>1005.68</ele>
        <time>2019-07-08T06:07:36Z</time>
      </trkpt>
      <trkpt lat="42.4582221452" lon="19.8949409556">
        <ele>1008.08</ele>
        <time>2019-07-08T06:07:48Z</time>
      </trkpt>
      <trkpt lat="42.4582866021" lon="19.8951082584">
        <ele>1010.48</ele>
        <time>2019-07-08T06:08:03Z</time>
      </trkpt>
      <trkpt lat="42.4583247397" lon="19.8951722961">
        <ele>1012.41</ele>
        <time>2019-07-08T06:08:13Z</time>
      </trkpt>
      <trkpt lat="42.4583610334" lon="19.8950905725">
        <ele>1014.33</ele>
        <time>2019-07-08T06:08:27Z</time>
      </trkpt>
      <trkpt lat="42.4584478699" lon="19.8950927518">
        <ele>1016.25</ele>
        <time>2019-07-08T06:08:39Z</time>
      </trkpt>
      <trkpt lat="42.4585367180" lon="19.8950956017">
        <ele>1017.21</ele>
        <time>2019-07-08T06:08:48Z</time>
      </trkpt>
      <trkpt lat="42.4586202018" lon="19.8949577194">
        <ele>1018.65</ele>
        <time>2019-07-08T06:09:00Z</time>
      </trkpt>
      <trkpt lat="42.4586832337" lon="19.8948178254">
        <ele>1019.13</ele>
        <time>2019-07-08T06:09:11Z</time>
      </trkpt>
      <trkpt lat="42.4587449245" lon="19.8946837988">
        <ele>1021.06</ele>
        <time>2019-07-08T06:09:24Z</time>
      </trkpt>
      <trkpt lat="42.4588213675" lon="19.8945903406">
        <ele>1022.02</ele>
        <time>2019-07-08T06:09:37Z</time>
      </trkpt>
      <trkpt lat="42.4587725848" lon="19.8943251371">
        <ele>1023.94</ele>
        <time>2019-07-08T06:09:50Z</time>
      </trkpt>
      <trkpt lat="42.4588483572" lon="19.8942945432">
        <ele>1025.38</ele>
        <time>2019-07-08T06:10:02Z</time>
      </trkpt>
      <trkpt lat="42.4589325115" lon="19.8942427430">
        <ele>1026.83</ele>
        <time>2019-07-08T06:10:15Z</time>
      </trkpt>
      <trkpt lat="42.4590215273" lon="19.8942651227">
        <ele>1028.27</ele>
        <time>2019-07-08T06:10:30Z</time>
      </trkpt>
      <trkpt lat="42.4591148179" lon="19.8942334391">
        <ele>1030.19</ele>
        <time>2019-07-08T06:10:44Z</time>
      </trkpt>
      <trkpt lat="42.4591881596" lon="19.8942127358">
        <ele>1031.63</ele>
        <time>2019-07-08T06:10:56Z</time>
      </trkpt>
      <trkpt lat="42.4592560530" lon="19.8942216206">
        <ele>1033.55</ele>
        <time>2019-07-08T06:11:10Z</time>
      </trkpt>
      <trkpt lat="42.4593179952" lon="19.8942706548">
        <ele>1035.48</ele>
        <time>2019-07-08T06:11:23Z</time>
      </trkpt>
      <trkpt lat="42.4593774229" lon="19.8942867480">
        <ele>1036.92</ele>
        <time>2019-07-08T06:11:35Z</time>
      </trkpt>
      <trkpt lat="42.4593862239" lon="19.8942986503">
        <ele>1037.88</ele>
        <time>2019-07-08T06:11:37Z</time>
      </trkpt>
      <trkpt lat="42.4594245292" lon="19.8943674657">
        <ele>1039.32</ele>
        <time>2019-07-08T06:11:49Z</time>
      </trkpt>
      <trkpt lat="42.4595155567" lon="19.8943132348">
        <ele>1041.25</ele>
        <time>2019-07-08T06:12:06Z</time>
      </trkpt>
      <trkpt lat="42.4595377687" lon="19.8943673819">
        <ele>1043.17</ele>
        <time>2019-07-08T06:12:19Z</time>
      </trkpt>
      <trkpt lat="42.4595362600" lon="19.8943775240">
        <ele>1043.17</ele>
        <time>2019-07-08T06:12:20Z</time>
      </trkpt>
      <trkpt lat="42.4596098531" lon="19.8944581579">
        <ele>1044.61</ele>
        <time>2019-07-08T06:12:32Z</time>
      </trkpt>
      <trkpt lat="42.4597080890" lon="19.8944548890">
        <ele>1047.01</ele>
        <time>2019-07-08T06:12:45Z</time>
      </trkpt>
      <trkpt lat="42.4597878847" lon="19.8944713175">
        <ele>1048.45</ele>
        <time>2019-07-08T06:12:57Z</time>
      </trkpt>
      <trkpt lat="42.4598486535" lon="19.8944650311">
        <ele>1050.38</ele>
        <time>2019-07-08T06:13:10Z</time>
      </trkpt>
      <trkpt lat="42.4598944187" lon="19.8944434896">
        <ele>1052.30</ele>
        <time>2019-07-08T06:13:24Z</time>
      </trkpt>
      <trkpt lat="42.4599437043" lon="19.8944688868">
        <ele>1054.22</ele>
        <time>2019-07-08T06:13:36Z</time>
      </trkpt>
      <trkpt lat="42.4599883799" lon="19.8945081979">
        <ele>1056.63</ele>
        <time>2019-07-08T06:13:51Z</time>
      </trkpt>
      <trkpt lat="42.4600561056" lon="19.8944748379">
        <ele>1058.55</ele>
        <time>2019-07-08T06:14:06Z</time>
      </trkpt>
      <trkpt lat="42.4601166230" lon="19.8944322579">
        <ele>1060.47</ele>
        <time>2019-07-08T06:14:20Z</time>
      </trkpt>
      <trkpt lat="42.4601597060" lon="19.8943585809">
        <ele>1061.91</ele>
        <time>2019-07-08T06:14:34Z</time>
      </trkpt>
      <trkpt lat="42.4602003582" lon="19.8943533003">
        <ele>1064.32</ele>
        <time>2019-07-08T06:14:48Z</time>
      </trkpt>
      <trkpt lat="42.4602267612" lon="19.8943765182">
        <ele>1066.72</ele>
        <time>2019-07-08T06:15:02Z</time>
      </trkpt>
      <trkpt lat="42.4602795672" lon="19.8943258915">
        <ele>1069.12</ele>
        <time>2019-07-08T06:15:15Z</time>
      </trkpt>
      <trkpt lat="42.4603413418" lon="19.8943258077">
        <ele>1070.08</ele>
        <time>2019-07-08T06:15:26Z</time>
      </trkpt>
      <trkpt lat="42.4603488855" lon="19.8943293281">
        <ele>1070.08</ele>
        <time>2019-07-08T06:15:27Z</time>
      </trkpt>
      <trkpt lat="42.4603767972" lon="19.8943480197">
        <ele>1070.08</ele>
        <time>2019-07-08T06:15:30Z</time>
      </trkpt>
      <trkpt lat="42.4604535755" lon="19.8943645321">
        <ele>1071.53</ele>
        <time>2019-07-08T06:15:44Z</time>
      </trkpt>
      <trkpt lat="42.4604876898" lon="19.8943364527">
        <ele>1073.93</ele>
        <time>2019-07-08T06:15:56Z</time>
      </trkpt>
      <trkpt lat="42.4605276715" lon="19.8943391349">
        <ele>1074.89</ele>
        <time>2019-07-08T06:16:08Z</time>
      </trkpt>
      <trkpt lat="42.4605788849" lon="19.8943079542">
        <ele>1076.81</ele>
        <time>2019-07-08T06:16:19Z</time>
      </trkpt>
      <trkpt lat="42.4606355466" lon="19.8942752648">
        <ele>1078.26</ele>
        <time>2019-07-08T06:16:32Z</time>
      </trkpt>
      <trkpt lat="42.4607098941" lon="19.8942595907">
        <ele>1080.18</ele>
        <time>2019-07-08T06:16:45Z</time>
      </trkpt>
      <trkpt lat="42.4607636221" lon="19.8942660447">
        <ele>1082.10</ele>
        <time>2019-07-08T06:16:58Z</time>
      </trkpt>
      <trkpt lat="42.4607663043" lon="19.8942779470">
        <ele>1082.58</ele>
        <time>2019-07-08T06:17:00Z</time>
      </trkpt>
      <trkpt lat="42.4608279951" lon="19.8942602612">
        <ele>1083.06</ele>
        <time>2019-07-08T06:17:11Z</time>
      </trkpt>
      <trkpt lat="42.4609248899" lon="19.8942191061">
        <ele>1084.50</ele>
        <time>2019-07-08T06:17:24Z</time>
      </trkpt>
      <trkpt lat="42.4609907717" lon="19.8941916134">
        <ele>1087.39</ele>
        <time>2019-07-08T06:17:39Z</time>
      </trkpt>
      <trkpt lat="42.4610501993" lon="19.8941611871">
        <ele>1088.83</ele>
        <time>2019-07-08T06:17:51Z</time>
      </trkpt>
      <trkpt lat="42.4610949587" lon="19.8940960597">
        <ele>1090.75</ele>
        <time>2019-07-08T06:18:04Z</time>
      </trkpt>
      <trkpt lat="42.4611536320" lon="19.8940150905">
        <ele>1093.16</ele>
        <time>2019-07-08T06:18:20Z</time>
      </trkpt>
      <trkpt lat="42.4612093717" lon="19.8939516395">
        <ele>1095.56</ele>
        <time>2019-07-08T06:18:35Z</time>
      </trkpt>
      <trkpt lat="42.4612611718" lon="19.8938793875">
        <ele>1097.00</ele>
        <time>2019-07-08T06:18:49Z</time>
      </trkpt>
      <trkpt lat="42.4613136426" lon="19.8938629590">
        <ele>1099.40</ele>
        <time>2019-07-08T06:19:02Z</time>
      </trkpt>
      <trkpt lat="42.4613931030" lon="19.8938859254">
        <ele>1100.85</ele>
        <time>2019-07-08T06:19:15Z</time>
      </trkpt>
      <trkpt lat="42.4614390358" lon="19.8938408308">
        <ele>1103.25</ele>
        <time>2019-07-08T06:19:27Z</time>
      </trkpt>
      <trkpt lat="42.4614768382" lon="19.8937724344">
        <ele>1104.69</ele>
        <time>2019-07-08T06:19:37Z</time>
      </trkpt>
      <trkpt lat="42.4615087733" lon="19.8937814031">
        <ele>1106.61</ele>
        <time>2019-07-08T06:19:48Z</time>
      </trkpt>
      <trkpt lat="42.4615488388" lon="19.8937574308">
        <ele>1107.10</ele>
        <time>2019-07-08T06:19:56Z</time>
      </trkpt>
      <trkpt lat="42.4615899939" lon="19.8937375657">
        <ele>1108.54</ele>
        <time>2019-07-08T06:20:08Z</time>
      </trkpt>
      <trkpt lat="42.4616415426" lon="19.8936851788">
        <ele>1110.94</ele>
        <time>2019-07-08T06:20:23Z</time>
      </trkpt>
      <trkpt lat="42.4616969470" lon="19.8936394136">
        <ele>1112.86</ele>
        <time>2019-07-08T06:20:36Z</time>
      </trkpt>
      <trkpt lat="42.4617170636" lon="19.8935608752">
        <ele>1114.79</ele>
        <time>2019-07-08T06:20:49Z</time>
      </trkpt>
      <trkpt lat="42.4617354199" lon="19.8935197201">
        <ele>1116.23</ele>
        <time>2019-07-08T06:20:59Z</time>
      </trkpt>
      <trkpt lat="42.4617711268" lon="19.8934928980">
        <ele>1118.15</ele>
        <time>2019-07-08T06:21:12Z</time>
      </trkpt>
      <trkpt lat="42.4618167244" lon="19.8935207259">
        <ele>1120.07</ele>
        <time>2019-07-08T06:21:25Z</time>
      </trkpt>
      <trkpt lat="42.4618681893" lon="19.8935498949">
        <ele>1121.52</ele>
        <time>2019-07-08T06:21:38Z</time>
      </trkpt>
      <trkpt lat="42.4619168043" lon="19.8935643118">
        <ele>1122.96</ele>
        <time>2019-07-08T06:21:50Z</time>
      </trkpt>
      <trkpt lat="42.4619800039" lon="19.8935803212">
        <ele>1124.88</ele>
        <time>2019-07-08T06:22:02Z</time>
      </trkpt>
      <trkpt lat="42.4620287865" lon="19.8935603723">
        <ele>1126.32</ele>
        <time>2019-07-08T06:22:14Z</time>
      </trkpt>
      <trkpt lat="42.4620525073" lon="19.8934798222">
        <ele>1128.24</ele>
        <time>2019-07-08T06:22:29Z</time>
      </trkpt>
      <trkpt lat="42.4620831851" lon="19.8934279382">
        <ele>1130.17</ele>
        <time>2019-07-08T06:22:44Z</time>
      </trkpt>
      <trkpt lat="42.4621113483" lon="19.8933870345">
        <ele>1132.09</ele>
        <time>2019-07-08T06:22:56Z</time>
      </trkpt>
      <trkpt lat="42.4621719494" lon="19.8933192249">
        <ele>1134.01</ele>
        <time>2019-07-08T06:23:11Z</time>
      </trkpt>
      <trkpt lat="42.4621638190" lon="19.8932561930">
        <ele>1135.45</ele>
        <time>2019-07-08T06:23:23Z</time>
      </trkpt>
      <trkpt lat="42.4621711951" lon="19.8931443784">
        <ele>1137.38</ele>
        <time>2019-07-08T06:23:38Z</time>
      </trkpt>
      <trkpt lat="42.4621938262" lon="19.8930861242">
        <ele>1138.82</ele>
        <time>2019-07-08T06:23:50Z</time>
      </trkpt>
      <trkpt lat="42.4622217380" lon="19.8930368386">
        <ele>1141.22</ele>
        <time>2019-07-08T06:24:01Z</time>
      </trkpt>
      <trkpt lat="42.4622584507" lon="19.8929948453">
        <ele>1143.14</ele>
        <time>2019-07-08T06:24:13Z</time>
      </trkpt>
      <trkpt lat="42.4622843508" lon="19.8929267842">
        <ele>1146.03</ele>
        <time>2019-07-08T06:24:28Z</time>
      </trkpt>
      <trkpt lat="42.4622934870" lon="19.8928592261">
        <ele>1147.95</ele>
        <time>2019-07-08T06:24:40Z</time>
      </trkpt>
      <trkpt lat="42.4623316247" lon="19.8928278778">
        <ele>1149.39</ele>
        <time>2019-07-08T06:24:52Z</time>
      </trkpt>
      <trkpt lat="42.4623655714" lon="19.8927913327">
        <ele>1150.35</ele>
        <time>2019-07-08T06:25:01Z</time>
      </trkpt>
      <trkpt lat="42.4624022841" lon="19.8927681148">
        <ele>1152.28</ele>
        <time>2019-07-08T06:25:13Z</time>
      </trkpt>
      <trkpt lat="42.4624403380" lon="19.8927972000">
        <ele>1154.68</ele>
        <time>2019-07-08T06:25:27Z</time>
      </trkpt>
      <trkpt lat="42.4624887016" lon="19.8928099405">
        <ele>1156.12</ele>
        <time>2019-07-08T06:25:39Z</time>
      </trkpt>
      <trkpt lat="42.4625319522" lon="19.8928206693">
        <ele>1159.01</ele>
        <time>2019-07-08T06:25:52Z</time>
      </trkpt>
      <trkpt lat="42.4625790585" lon="19.8928426299">
        <ele>1160.45</ele>
        <time>2019-07-08T06:26:04Z</time>
      </trkpt>
      <trkpt lat="42.4626286794" lon="19.8928173166">
        <ele>1162.37</ele>
        <time>2019-07-08T06:26:17Z</time>
      </trkpt>
      <trkpt lat="42.4626308586" lon="19.8927237745">
        <ele>1164.29</ele>
        <time>2019-07-08T06:26:31Z</time>
      </trkpt>
      <trkpt lat="42.4626732711" lon="19.8926889058">
        <ele>1166.70</ele>
        <time>2019-07-08T06:26:46Z</time>
      </trkpt>
      <trkpt lat="42.4626955669" lon="19.8926646821">
        <ele>1168.14</ele>
        <time>2019-07-08T06:26:57Z</time>
      </trkpt>
      <trkpt lat="42.4626966566" lon="19.8925769236">
        <ele>1170.06</ele>
        <time>2019-07-08T06:27:12Z</time>
      </trkpt>
      <trkpt lat="42.4627049547" lon="19.8924928531">
        <ele>1171.98</ele>
        <time>2019-07-08T06:27:27Z</time>
      </trkpt>
      <trkpt lat="42.4626845028" lon="19.8923864868">
        <ele>1173.91</ele>
        <time>2019-07-08T06:27:41Z</time>
      </trkpt>
      <trkpt lat="42.4627039488" lon="19.8923009075">
        <ele>1175.35</ele>
        <time>2019-07-08T06:27:54Z</time>
      </trkpt>
      <trkpt lat="42.4626988359" lon="19.8922459222">
        <ele>1177.27</ele>
        <time>2019-07-08T06:28:08Z</time>
      </trkpt>
      <trkpt lat="42.4627088103" lon="19.8921790347">
        <ele>1179.67</ele>
        <time>2019-07-08T06:28:20Z</time>
      </trkpt>
      <trkpt lat="42.4627449363" lon="19.8921625223">
        <ele>1182.08</ele>
        <time>2019-07-08T06:28:32Z</time>
      </trkpt>
      <trkpt lat="42.4627587665" lon="19.8921685573">
        <ele>1183.52</ele>
        <time>2019-07-08T06:28:44Z</time>
      </trkpt>
      <trkpt lat="42.4627966527" lon="19.8922133166">
        <ele>1185.44</ele>
        <time>2019-07-08T06:28:57Z</time>
      </trkpt>
      <trkpt lat="42.4628326111" lon="19.8921996541">
        <ele>1187.85</ele>
        <time>2019-07-08T06:29:10Z</time>
      </trkpt>
      <trkpt lat="42.4628647976" lon="19.8922013305">
        <ele>1188.81</ele>
        <time>2019-07-08T06:29:21Z</time>
      </trkpt>
      <trkpt lat="42.4629041925" lon="19.8922576569">
        <ele>1190.73</ele>
        <time>2019-07-08T06:29:32Z</time>
      </trkpt>
      <trkpt lat="42.4629493710" lon="19.8923042603">
        <ele>1193.13</ele>
        <time>2019-07-08T06:29:45Z</time>
      </trkpt>
      <trkpt lat="42.4629932921" lon="19.8923536297">
        <ele>1195.06</ele>
        <time>2019-07-08T06:29:59Z</time>
      </trkpt>
      <trkpt lat="42.4630398117" lon="19.8923868220">
        <ele>1196.98</ele>
        <time>2019-07-08T06:30:12Z</time>
      </trkpt>
      <trkpt lat="42.4630713277" lon="19.8923710641">
        <ele>1198.90</ele>
        <time>2019-07-08T06:30:25Z</time>
      </trkpt>
      <trkpt lat="42.4630559888" lon="19.8922924418">
        <ele>1201.79</ele>
        <time>2019-07-08T06:30:38Z</time>
      </trkpt>
      <trkpt lat="42.4630396441" lon="19.8921662103">
        <ele>1203.71</ele>
        <time>2019-07-08T06:30:56Z</time>
      </trkpt>
      <trkpt lat="42.4630464334" lon="19.8921081237">
        <ele>1205.63</ele>
        <time>2019-07-08T06:31:06Z</time>
      </trkpt>
      <trkpt lat="42.4630502891" lon="19.8920368776">
        <ele>1207.55</ele>
        <time>2019-07-08T06:31:19Z</time>
      </trkpt>
      <trkpt lat="42.4630459305" lon="19.8919549026">
        <ele>1209.48</ele>
        <time>2019-07-08T06:31:31Z</time>
      </trkpt>
      <trkpt lat="42.4630348664" lon="19.8918764479">
        <ele>1211.40</ele>
        <time>2019-07-08T06:31:44Z</time>
      </trkpt>
      <trkpt lat="42.4630422425" lon="19.8918487877">
        <ele>1212.84</ele>
        <time>2019-07-08T06:31:54Z</time>
      </trkpt>
      <trkpt lat="42.4630906899" lon="19.8918588459">
        <ele>1213.80</ele>
        <time>2019-07-08T06:32:05Z</time>
      </trkpt>
      <trkpt lat="42.4631229602" lon="19.8918919545">
        <ele>1216.21</ele>
        <time>2019-07-08T06:32:19Z</time>
      </trkpt>
      <trkpt lat="42.4631596729" lon="19.8918392323">
        <ele>1218.61</ele>
        <time>2019-07-08T06:32:35Z</time>
      </trkpt>
      <trkpt lat="42.4631538894" lon="19.8917580117">
        <ele>1220.05</ele>
        <time>2019-07-08T06:32:47Z</time>
      </trkpt>
      <trkpt lat="42.4631310906" lon="19.8916830774">
        <ele>1221.49</ele>
        <time>2019-07-08T06:32:59Z</time>
      </trkpt>
      <trkpt lat="42.4631187692" lon="19.8915990070">
        <ele>1223.90</ele>
        <time>2019-07-08T06:33:12Z</time>
      </trkpt>
      <trkpt lat="42.4631121475" lon="19.8914710991">
        <ele>1224.86</ele>
        <time>2019-07-08T06:33:26Z</time>
      </trkpt>
      <trkpt lat="42.4630891811" lon="19.8913510703">
        <ele>1226.78</ele>
        <time>2019-07-08T06:33:40Z</time>
      </trkpt>
      <trkpt lat="42.4630589224" lon="19.8912649043">
        <ele>1229.18</ele>
        <time>2019-07-08T06:33:53Z</time>
      </trkpt>
      <trkpt lat="42.4630387221" lon="19.8911723681">
        <ele>1232.07</ele>
        <time>2019-07-08T06:34:08Z</time>
      </trkpt>
      <trkpt lat="42.4630640354" lon="19.8911221605">
        <ele>1233.51</ele>
        <time>2019-07-08T06:34:19Z</time>
      </trkpt>
      <trkpt lat="42.4631201103" lon="19.8911185563">
        <ele>1235.43</ele>
        <time>2019-07-08T06:34:31Z</time>
      </trkpt>
      <trkpt lat="42.4631383829" lon="19.8911315482">
        <ele>1236.87</ele>
        <time>2019-07-08T06:34:42Z</time>
      </trkpt>
      <trkpt lat="42.4631347787" lon="19.8910970148">
        <ele>1238.80</ele>
        <time>2019-07-08T06:34:54Z</time>
      </trkpt>
      <trkpt lat="42.4631854892" lon="19.8910722043">
        <ele>1241.68</ele>
        <time>2019-07-08T06:35:10Z</time>
      </trkpt>
      <trkpt lat="42.4631987326" lon="19.8909918219">
        <ele>1243.60</ele>
        <time>2019-07-08T06:35:23Z</time>
      </trkpt>
      <trkpt lat="42.4632549752" lon="19.8909960128">
        <ele>1246.01</ele>
        <time>2019-07-08T06:35:38Z</time>
      </trkpt>
      <trkpt lat="42.4632622674" lon="19.8909648322">
        <ele>1247.93</ele>
        <time>2019-07-08T06:35:50Z</time>
      </trkpt>
      <trkpt lat="42.4632819649" lon="19.8909404408">
        <ele>1250.33</ele>
        <time>2019-07-08T06:36:02Z</time>
      </trkpt>
      <trkpt lat="42.4632791989" lon="19.8908551130">
        <ele>1252.25</ele>
        <time>2019-07-08T06:36:16Z</time>
      </trkpt>
      <trkpt lat="42.4632420670" lon="19.8908039834">
        <ele>1254.66</ele>
        <time>2019-07-08T06:36:30Z</time>
      </trkpt>
      <trkpt lat="42.4631322641" lon="19.8906914145">
        <ele>1256.58</ele>
        <time>2019-07-08T06:36:45Z</time>
      </trkpt>
      <trkpt lat="42.4630499538" lon="19.8906478286">
        <ele>1258.50</ele>
        <time>2019-07-08T06:36:59Z</time>
      </trkpt>
      <trkpt lat="42.4630241375" lon="19.8906467389">
        <ele>1259.94</ele>
        <time>2019-07-08T06:37:10Z</time>
      </trkpt>
      <trkpt lat="42.4629887659" lon="19.8905954417">
        <ele>1263.31</ele>
        <time>2019-07-08T06:37:28Z</time>
      </trkpt>
      <trkpt lat="42.4630532227" lon="19.8905498441">
        <ele>1264.75</ele>
        <time>2019-07-08T06:37:40Z</time>
      </trkpt>
      <trkpt lat="42.4630989879" lon="19.8905267939">
        <ele>1267.64</ele>
        <time>2019-07-08T06:37:56Z</time>
      </trkpt>
      <trkpt lat="42.4631382152" lon="19.8904969543">
        <ele>1270.04</ele>
        <time>2019-07-08T06:38:10Z</time>
      </trkpt>
      <trkpt lat="42.4631817173" lon="19.8904397059">
        <ele>1271.96</ele>
        <time>2019-07-08T06:38:23Z</time>
      </trkpt>
      <trkpt lat="42.4632545561" lon="19.8904216848">
        <ele>1273.88</ele>
        <time>2019-07-08T06:38:36Z</time>
      </trkpt>
      <trkpt lat="42.4633524567" lon="19.8904223554">
        <ele>1275.81</ele>
        <time>2019-07-08T06:38:51Z</time>
      </trkpt>
      <trkpt lat="42.4634232000" lon="19.8904414661">
        <ele>1278.21</ele>
        <time>2019-07-08T06:39:06Z</time>
      </trkpt>
      <trkpt lat="42.4634734914" lon="19.8904391192">
        <ele>1280.13</ele>
        <time>2019-07-08T06:39:17Z</time>
      </trkpt>
      <trkpt lat="42.4635107908" lon="19.8903957009">
        <ele>1281.57</ele>
        <time>2019-07-08T06:39:31Z</time>
      </trkpt>
      <trkpt lat="42.4635828752" lon="19.8903807811">
        <ele>1284.46</ele>
        <time>2019-07-08T06:39:45Z</time>
      </trkpt>
      <trkpt lat="42.4636344239" lon="19.8903920967">
        <ele>1286.38</ele>
        <time>2019-07-08T06:39:58Z</time>
      </trkpt>
      <trkpt lat="42.4636814464" lon="19.8904137220">
        <ele>1288.78</ele>
        <time>2019-07-08T06:40:10Z</time>
      </trkpt>
      <trkpt lat="42.4637353420" lon="19.8905203398">
        <ele>1291.19</ele>
        <time>2019-07-08T06:40:24Z</time>
      </trkpt>
      <trkpt lat="42.4638064206" lon="19.8905871436">
        <ele>1294.07</ele>
        <time>2019-07-08T06:40:38Z</time>
      </trkpt>
      <trkpt lat="42.4638558738" lon="19.8906023987">
        <ele>1295.51</ele>
        <time>2019-07-08T06:40:50Z</time>
      </trkpt>
      <trkpt lat="42.4638811033" lon="19.8906304780">
        <ele>1297.44</ele>
        <time>2019-07-08T06:41:03Z</time>
      </trkpt>
      <trkpt lat="42.4639320653" lon="19.8906702083">
        <ele>1298.88</ele>
        <time>2019-07-08T06:41:13Z</time>
      </trkpt>
      <trkpt lat="42.4639852066" lon="19.8907355033">
        <ele>1301.28</ele>
        <time>2019-07-08T06:41:25Z</time>
      </trkpt>
      <trkpt lat="42.4640076701" lon="19.8907751497">
        <ele>1302.72</ele>
        <time>2019-07-08T06:41:36Z</time>
      </trkpt>
      <trkpt lat="42.4639876373" lon="19.8908648361">
        <ele>1304.65</ele>
        <time>2019-07-08T06:41:47Z</time>
      </trkpt>
      <trkpt lat="42.4640080892" lon="19.8909411114">
        <ele>1306.57</ele>
        <time>2019-07-08T06:41:59Z</time>
      </trkpt>
      <trkpt lat="42.4639750645" lon="19.8910055682">
        <ele>1308.97</ele>
        <time>2019-07-08T06:42:12Z</time>
      </trkpt>
      <trkpt lat="42.4639727175" lon="19.8910817597">
        <ele>1311.86</ele>
        <time>2019-07-08T06:42:27Z</time>
      </trkpt>
      <trkpt lat="42.4640313908" lon="19.8911087494">
        <ele>1313.30</ele>
        <time>2019-07-08T06:42:42Z</time>
      </trkpt>
      <trkpt lat="42.4640405271" lon="19.8911169637">
        <ele>1313.78</ele>
        <time>2019-07-08T06:42:59Z</time>
      </trkpt>
      <trkpt lat="42.4640300497" lon="19.8910959251">
        <ele>1312.82</ele>
        <time>2019-07-08T06:43:18Z</time>
      </trkpt>
      <trkpt lat="42.4640028086" lon="19.8910699412">
        <ele>1313.30</ele>
        <time>2019-07-08T06:43:51Z</time>
      </trkpt>
      <trkpt lat="42.4640115257" lon="19.8910815921">
        <ele>1313.78</ele>
        <time>2019-07-08T06:44:25Z</time>
      </trkpt>
      <trkpt lat="42.4639821891" lon="19.8910862021">
        <ele>1314.26</ele>
        <time>2019-07-08T06:45:06Z</time>
      </trkpt>
      <trkpt lat="42.4640096817" lon="19.8910934944">
        <ele>1315.22</ele>
        <time>2019-07-08T06:45:52Z</time>
      </trkpt>
      <trkpt lat="42.4640591349" lon="19.8910883814">
        <ele>1315.70</ele>
        <time>2019-07-08T06:46:33Z</time>
      </trkpt>
      <trkpt lat="42.4640202429" lon="19.8911184724">
        <ele>1316.18</ele>
        <time>2019-07-08T06:47:06Z</time>
      </trkpt>
      <trkpt lat="42.4640317261" lon="19.8911491502">
        <ele>1317.14</ele>
        <time>2019-07-08T06:47:43Z</time>
      </trkpt>
      <trkpt lat="42.4640403595" lon="19.8911521677">
        <ele>1317.62</ele>
        <time>2019-07-08T06:48:26Z</time>
      </trkpt>
      <trkpt lat="42.4640275352" lon="19.8910665046">
        <ele>1317.62</ele>
        <time>2019-07-08T06:49:07Z</time>
      </trkpt>
      <trkpt lat="42.4639636651" lon="19.8910741322">
        <ele>1317.62</ele>
        <time>2019-07-08T06:49:38Z</time>
      </trkpt>
      <trkpt lat="42.4639502540" lon="19.8911001999">
        <ele>1318.10</ele>
        <time>2019-07-08T06:50:18Z</time>
      </trkpt>
      <trkpt lat="42.4639905710" lon="19.8911154550">
        <ele>1318.59</ele>
        <time>2019-07-08T06:50:55Z</time>
      </trkpt>
      <trkpt lat="42.4639645033" lon="19.8911427800">
        <ele>1319.07</ele>
        <time>2019-07-08T06:51:36Z</time>
      </trkpt>
      <trkpt lat="42.4639644194" lon="19.8911152873">
        <ele>1319.55</ele>
        <time>2019-07-08T06:52:10Z</time>
      </trkpt>
      <trkpt lat="42.4639920797" lon="19.8910659179">
        <ele>1320.51</ele>
        <time>2019-07-08T06:52:49Z</time>
      </trkpt>
      <trkpt lat="42.4640173931" lon="19.8910279479">
        <ele>1320.99</ele>
        <time>2019-07-08T06:53:32Z</time>
      </trkpt>
      <trkpt lat="42.4639882240" lon="19.8910820112">
        <ele>1321.95</ele>
        <time>2019-07-08T06:54:14Z</time>
      </trkpt>
      <trkpt lat="42.4639935885" lon="19.8910832684">
        <ele>1322.43</ele>
        <time>2019-07-08T06:54:57Z</time>
      </trkpt>
      <trkpt lat="42.4639981985" lon="19.8910686001">
        <ele>1322.91</ele>
        <time>2019-07-08T06:55:36Z</time>
      </trkpt>
      <trkpt lat="42.4640019704" lon="19.8910457175">
        <ele>1322.91</ele>
        <time>2019-07-08T06:56:20Z</time>
      </trkpt>
      <trkpt lat="42.4640032277" lon="19.8910353240">
        <ele>1322.91</ele>
        <time>2019-07-08T06:57:01Z</time>
      </trkpt>
      <trkpt lat="42.4639919121" lon="19.8910638224">
        <ele>1321.47</ele>
        <time>2019-07-08T06:57:42Z</time>
      </trkpt>
      <trkpt lat="42.4640059937" lon="19.8910716176">
        <ele>1321.47</ele>
        <time>2019-07-08T06:58:21Z</time>
      </trkpt>
      <trkpt lat="42.4639152177" lon="19.8910689354">
        <ele>1321.47</ele>
        <time>2019-07-08T06:58:57Z</time>
      </trkpt>
      <trkpt lat="42.4639312271" lon="19.8910917342">
        <ele>1322.91</ele>
        <time>2019-07-08T06:59:24Z</time>
      </trkpt>
      <trkpt lat="42.4639785849" lon="19.8911200650">
        <ele>1323.39</ele>
        <time>2019-07-08T06:59:46Z</time>
      </trkpt>
      <trkpt lat="42.4639891461" lon="19.8910796642">
        <ele>1323.87</ele>
        <time>2019-07-08T07:00:14Z</time>
      </trkpt>
      <trkpt lat="42.4640107714" lon="19.8911138624">
        <ele>1324.83</ele>
        <time>2019-07-08T07:00:29Z</time>
      </trkpt>
      <trkpt lat="42.4640373420" lon="19.8911296204">
        <ele>1325.31</ele>
        <time>2019-07-08T07:00:42Z</time>
      </trkpt>
      <trkpt lat="42.4640572909" lon="19.8911838513">
        <ele>1326.76</ele>
        <time>2019-07-08T07:00:56Z</time>
      </trkpt>
      <trkpt lat="42.4641116057" lon="19.8911179695">
        <ele>1328.20</ele>
        <time>2019-07-08T07:01:08Z</time>
      </trkpt>
      <trkpt lat="42.4641884677" lon="19.8910851963">
        <ele>1330.60</ele>
        <time>2019-07-08T07:01:21Z</time>
      </trkpt>
      <trkpt lat="42.4642164633" lon="19.8911107611">
        <ele>1332.52</ele>
        <time>2019-07-08T07:01:32Z</time>
      </trkpt>
      <trkpt lat="42.4642559420" lon="19.8910883814">
        <ele>1333.97</ele>
        <time>2019-07-08T07:01:43Z</time>
      </trkpt>
      <trkpt lat="42.4642965104" lon="19.8910180572">
        <ele>1336.37</ele>
        <time>2019-07-08T07:01:57Z</time>
      </trkpt>
      <trkpt lat="42.4643117655" lon="19.8909629881">
        <ele>1338.29</ele>
        <time>2019-07-08T07:02:08Z</time>
      </trkpt>
      <trkpt lat="42.4642983545" lon="19.8908645846">
        <ele>1338.77</ele>
        <time>2019-07-08T07:02:17Z</time>
      </trkpt>
      <trkpt lat="42.4643017910" lon="19.8907731380">
        <ele>1338.77</ele>
        <time>2019-07-08T07:02:27Z</time>
      </trkpt>
      <trkpt lat="42.4643078260" lon="19.8906877264">
        <ele>1340.70</ele>
        <time>2019-07-08T07:02:41Z</time>
      </trkpt>
      <trkpt lat="42.4643195607" lon="19.8905784264">
        <ele>1343.10</ele>
        <time>2019-07-08T07:02:55Z</time>
      </trkpt>
      <trkpt lat="42.4643245060" lon="19.8904919252">
        <ele>1345.02</ele>
        <time>2019-07-08T07:03:07Z</time>
      </trkpt>
      <trkpt lat="42.4643053114" lon="19.8903843015">
        <ele>1347.43</ele>
        <time>2019-07-08T07:03:20Z</time>
      </trkpt>
      <trkpt lat="42.4643128552" lon="19.8903597426">
        <ele>1348.87</ele>
        <time>2019-07-08T07:03:32Z</time>
      </trkpt>
      <trkpt lat="42.4643765576" lon="19.8903883249">
        <ele>1351.27</ele>
        <time>2019-07-08T07:03:46Z</time>
      </trkpt>
      <trkpt lat="42.4644237477" lon="19.8904715572">
        <ele>1352.71</ele>
        <time>2019-07-08T07:04:00Z</time>
      </trkpt>
      <trkpt lat="42.4644751288" lon="19.8905379418">
        <ele>1353.67</ele>
        <time>2019-07-08T07:04:11Z</time>
      </trkpt>
      <trkpt lat="42.4645216484" lon="19.8906142171">
        <ele>1355.12</ele>
        <time>2019-07-08T07:04:24Z</time>
      </trkpt>
      <trkpt lat="42.4645747058" lon="19.8907057475">
        <ele>1357.52</ele>
        <time>2019-07-08T07:04:41Z</time>
      </trkpt>
      <trkpt lat="42.4646105804" lon="19.8908136226">
        <ele>1359.44</ele>
        <time>2019-07-08T07:04:56Z</time>
      </trkpt>
      <trkpt lat="42.4646467064" lon="19.8908934183">
        <ele>1361.84</ele>
        <time>2019-07-08T07:05:11Z</time>
      </trkpt>
      <trkpt lat="42.4646848440" lon="19.8909388483">
        <ele>1363.77</ele>
        <time>2019-07-08T07:05:25Z</time>
      </trkpt>
      <trkpt lat="42.4647119176" lon="19.8909787461">
        <ele>1365.21</ele>
        <time>2019-07-08T07:05:35Z</time>
      </trkpt>
      <trkpt lat="42.4647729378" lon="19.8910533451">
        <ele>1366.17</ele>
        <time>2019-07-08T07:05:48Z</time>
      </trkpt>
      <trkpt lat="42.4647888634" lon="19.8911444563">
        <ele>1368.57</ele>
        <time>2019-07-08T07:06:00Z</time>
      </trkpt>
      <trkpt lat="42.4647875223" lon="19.8912461288">
        <ele>1369.54</ele>
        <time>2019-07-08T07:06:12Z</time>
      </trkpt>
      <trkpt lat="42.4647847563" lon="19.8913166206">
        <ele>1370.98</ele>
        <time>2019-07-08T07:06:24Z</time>
      </trkpt>
      <trkpt lat="42.4648257438" lon="19.8913651519">
        <ele>1372.90</ele>
        <time>2019-07-08T07:06:38Z</time>
      </trkpt>
      <trkpt lat="42.4648761190" lon="19.8913069814">
        <ele>1374.82</ele>
        <time>2019-07-08T07:06:52Z</time>
      </trkpt>
      <trkpt lat="42.4649297632" lon="19.8912603781">
        <ele>1377.23</ele>
        <time>2019-07-08T07:07:06Z</time>
      </trkpt>
      <trkpt lat="42.4649284221" lon="19.8911610525">
        <ele>1378.67</ele>
        <time>2019-07-08T07:07:17Z</time>
      </trkpt>
      <trkpt lat="42.4649631232" lon="19.8911237530">
        <ele>1380.11</ele>
        <time>2019-07-08T07:07:30Z</time>
      </trkpt>
      <trkpt lat="42.4650127441" lon="19.8911419418">
        <ele>1382.03</ele>
        <time>2019-07-08T07:07:44Z</time>
      </trkpt>
      <trkpt lat="42.4650488701" lon="19.8911310453">
        <ele>1383.96</ele>
        <time>2019-07-08T07:07:56Z</time>
      </trkpt>
      <trkpt lat="42.4650618620" lon="19.8911773134">
        <ele>1385.40</ele>
        <time>2019-07-08T07:08:08Z</time>
      </trkpt>
      <trkpt lat="42.4650930427" lon="19.8912121821">
        <ele>1386.84</ele>
        <time>2019-07-08T07:08:21Z</time>
      </trkpt>
      <trkpt lat="42.4651215412" lon="19.8912644014">
        <ele>1388.76</ele>
        <time>2019-07-08T07:08:34Z</time>
      </trkpt>
      <trkpt lat="42.4651404005" lon="19.8913452029">
        <ele>1390.68</ele>
        <time>2019-07-08T07:08:47Z</time>
      </trkpt>
      <trkpt lat="42.4651931226" lon="19.8913996853">
        <ele>1393.09</ele>
        <time>2019-07-08T07:09:03Z</time>
      </trkpt>
      <trkpt lat="42.4652128201" lon="19.8914363980">
        <ele>1395.49</ele>
        <time>2019-07-08T07:09:15Z</time>
      </trkpt>
      <trkpt lat="42.4652689788" lon="19.8914317042">
        <ele>1396.93</ele>
        <time>2019-07-08T07:09:30Z</time>
      </trkpt>
      <trkpt lat="42.4652966391" lon="19.8913612962">
        <ele>1398.37</ele>
        <time>2019-07-08T07:09:43Z</time>
      </trkpt>
      <trkpt lat="42.4653363694" lon="19.8914051335">
        <ele>1399.82</ele>
        <time>2019-07-08T07:09:56Z</time>
      </trkpt>
      <trkpt lat="42.4653855711" lon="19.8913893756">
        <ele>1402.22</ele>
        <time>2019-07-08T07:10:12Z</time>
      </trkpt>
      <trkpt lat="42.4654475134" lon="19.8914150242">
        <ele>1403.66</ele>
        <time>2019-07-08T07:10:25Z</time>
      </trkpt>
      <trkpt lat="42.4654647801" lon="19.8914051335">
        <ele>1405.10</ele>
        <time>2019-07-08T07:10:38Z</time>
      </trkpt>
      <trkpt lat="42.4654978048" lon="19.8913288582">
        <ele>1406.55</ele>
        <time>2019-07-08T07:10:50Z</time>
      </trkpt>
      <trkpt lat="42.4655287340" lon="19.8913260084">
        <ele>1407.51</ele>
        <time>2019-07-08T07:11:02Z</time>
      </trkpt>
      <trkpt lat="42.4655574840" lon="19.8912867811">
        <ele>1408.95</ele>
        <time>2019-07-08T07:11:15Z</time>
      </trkpt>
      <trkpt lat="42.4655938614" lon="19.8913652357">
        <ele>1410.87</ele>
        <time>2019-07-08T07:11:29Z</time>
      </trkpt>
      <trkpt lat="42.4656699691" lon="19.8914221488">
        <ele>1412.31</ele>
        <time>2019-07-08T07:11:42Z</time>
      </trkpt>
      <trkpt lat="42.4657298159" lon="19.8914679140">
        <ele>1413.76</ele>
        <time>2019-07-08T07:11:54Z</time>
      </trkpt>
      <trkpt lat="42.4657640979" lon="19.8914144374">
        <ele>1415.68</ele>
        <time>2019-07-08T07:12:05Z</time>
      </trkpt>
      <trkpt lat="42.4657732341" lon="19.8913398385">
        <ele>1417.60</ele>
        <time>2019-07-08T07:12:19Z</time>
      </trkpt>
      <trkpt lat="42.4657927640" lon="19.8912815843">
        <ele>1420.00</ele>
        <time>2019-07-08T07:12:33Z</time>
      </trkpt>
      <trkpt lat="42.4657663610" lon="19.8912048899">
        <ele>1420.97</ele>
        <time>2019-07-08T07:12:44Z</time>
      </trkpt>
      <trkpt lat="42.4657630082" lon="19.8911281954">
        <ele>1422.41</ele>
        <time>2019-07-08T07:12:57Z</time>
      </trkpt>
      <trkpt lat="42.4657672830" lon="19.8910622299">
        <ele>1423.37</ele>
        <time>2019-07-08T07:13:10Z</time>
      </trkpt>
      <trkpt lat="42.4657708872" lon="19.8909877986">
        <ele>1424.81</ele>
        <time>2019-07-08T07:13:27Z</time>
      </trkpt>
      <trkpt lat="42.4658205081" lon="19.8910407722">
        <ele>1427.21</ele>
        <time>2019-07-08T07:13:40Z</time>
      </trkpt>
      <trkpt lat="42.4658527784" lon="19.8909380101">
        <ele>1428.18</ele>
        <time>2019-07-08T07:13:54Z</time>
      </trkpt>
      <trkpt lat="42.4658860546" lon="19.8909064941">
        <ele>1428.18</ele>
        <time>2019-07-08T07:14:10Z</time>
      </trkpt>
      <trkpt lat="42.4658892397" lon="19.8908218369">
        <ele>1430.10</ele>
        <time>2019-07-08T07:14:24Z</time>
      </trkpt>
      <trkpt lat="42.4658899102" lon="19.8907163087">
        <ele>1431.54</ele>
        <time>2019-07-08T07:14:36Z</time>
      </trkpt>
      <trkpt lat="42.4659382738" lon="19.8907386884">
        <ele>1432.98</ele>
        <time>2019-07-08T07:14:49Z</time>
      </trkpt>
      <trkpt lat="42.4659905769" lon="19.8906309810">
        <ele>1435.39</ele>
        <time>2019-07-08T07:15:02Z</time>
      </trkpt>
      <trkpt lat="42.4659916665" lon="19.8905553762">
        <ele>1435.87</ele>
        <time>2019-07-08T07:15:12Z</time>
      </trkpt>
      <trkpt lat="42.4660568777" lon="19.8906040750">
        <ele>1438.27</ele>
        <time>2019-07-08T07:15:26Z</time>
      </trkpt>
      <trkpt lat="42.4661062472" lon="19.8906887323">
        <ele>1440.67</ele>
        <time>2019-07-08T07:15:41Z</time>
      </trkpt>
      <trkpt lat="42.4661548622" lon="19.8907479923">
        <ele>1442.60</ele>
        <time>2019-07-08T07:15:52Z</time>
      </trkpt>
      <trkpt lat="42.4662228394" lon="19.8907904886">
        <ele>1444.04</ele>
        <time>2019-07-08T07:16:04Z</time>
      </trkpt>
      <trkpt lat="42.4662791658" lon="19.8908562027">
        <ele>1445.48</ele>
        <time>2019-07-08T07:16:16Z</time>
      </trkpt>
      <trkpt lat="42.4663352408" lon="19.8909012135">
        <ele>1447.40</ele>
        <time>2019-07-08T07:16:29Z</time>
      </trkpt>
      <trkpt lat="42.4663876276" lon="19.8909193184">
        <ele>1449.32</ele>
        <time>2019-07-08T07:16:41Z</time>
      </trkpt>
      <trkpt lat="42.4664825108" lon="19.8909859546">
        <ele>1450.29</ele>
        <time>2019-07-08T07:16:54Z</time>
      </trkpt>
      <trkpt lat="42.4665773101" lon="19.8910327256">
        <ele>1451.73</ele>
        <time>2019-07-08T07:17:05Z</time>
      </trkpt>
      <trkpt lat="42.4666295294" lon="19.8910013773">
        <ele>1453.17</ele>
        <time>2019-07-08T07:17:18Z</time>
      </trkpt>
      <trkpt lat="42.4666771386" lon="19.8909442965">
        <ele>1453.65</ele>
        <time>2019-07-08T07:17:28Z</time>
      </trkpt>
      <trkpt lat="42.4666742049" lon="19.8908505868">
        <ele>1454.61</ele>
        <time>2019-07-08T07:17:39Z</time>
      </trkpt>
      <trkpt lat="42.4666788988" lon="19.8907189909">
        <ele>1456.53</ele>
        <time>2019-07-08T07:17:53Z</time>
      </trkpt>
      <trkpt lat="42.4666840117" lon="19.8906200845">
        <ele>1457.02</ele>
        <time>2019-07-08T07:18:07Z</time>
      </trkpt>
      <trkpt lat="42.4667160306" lon="19.8904924281">
        <ele>1459.90</ele>
        <time>2019-07-08T07:18:22Z</time>
      </trkpt>
      <trkpt lat="42.4667582754" lon="19.8904591519">
        <ele>1462.30</ele>
        <time>2019-07-08T07:18:34Z</time>
      </trkpt>
      <trkpt lat="42.4667650647" lon="19.8904304858">
        <ele>1462.78</ele>
        <time>2019-07-08T07:18:37Z</time>
      </trkpt>
      <trkpt lat="42.4667691719" lon="19.8903209344">
        <ele>1463.74</ele>
        <time>2019-07-08T07:18:49Z</time>
      </trkpt>
      <trkpt lat="42.4667861033" lon="19.8902826291">
        <ele>1464.71</ele>
        <time>2019-07-08T07:18:54Z</time>
      </trkpt>
      <trkpt lat="42.4668248277" lon="19.8901826330">
        <ele>1466.15</ele>
        <time>2019-07-08T07:19:05Z</time>
      </trkpt>
      <trkpt lat="42.4668692518" lon="19.8901419807">
        <ele>1467.11</ele>
        <time>2019-07-08T07:19:18Z</time>
      </trkpt>
      <trkpt lat="42.4668961577" lon="19.8900264781">
        <ele>1468.07</ele>
        <time>2019-07-08T07:19:31Z</time>
      </trkpt>
      <trkpt lat="42.4669133406" lon="19.8899806291">
        <ele>1469.51</ele>
        <time>2019-07-08T07:19:42Z</time>
      </trkpt>
      <trkpt lat="42.4669189565" lon="19.8899605125">
        <ele>1469.99</ele>
        <time>2019-07-08T07:19:45Z</time>
      </trkpt>
      <trkpt lat="42.4669919629" lon="19.8899175134">
        <ele>1470.47</ele>
        <time>2019-07-08T07:19:58Z</time>
      </trkpt>
      <trkpt lat="42.4670142587" lon="19.8898679763">
        <ele>1469.51</ele>
        <time>2019-07-08T07:20:17Z</time>
      </trkpt>
      <trkpt lat="42.4670208804" lon="19.8898683116">
        <ele>1468.07</ele>
        <time>2019-07-08T07:20:20Z</time>
      </trkpt>
      <trkpt lat="42.4670901988" lon="19.8898293357">
        <ele>1466.63</ele>
        <time>2019-07-08T07:20:31Z</time>
      </trkpt>
      <trkpt lat="42.4671416637" lon="19.8897949699">
        <ele>1466.15</ele>
        <time>2019-07-08T07:20:44Z</time>
      </trkpt>
      <trkpt lat="42.4670738541" lon="19.8899470177">
        <ele>1465.19</ele>
        <time>2019-07-08T07:21:03Z</time>
      </trkpt>
      <trkpt lat="42.4670778774" lon="19.8899061140">
        <ele>1462.78</ele>
        <time>2019-07-08T07:21:15Z</time>
      </trkpt>
      <trkpt lat="42.4670772906" lon="19.8898987379">
        <ele>1462.78</ele>
        <time>2019-07-08T07:21:16Z</time>
      </trkpt>
      <trkpt lat="42.4670825712" lon="19.8898314312">
        <ele>1461.34</ele>
        <time>2019-07-08T07:21:25Z</time>
      </trkpt>
      <trkpt lat="42.4671395682" lon="19.8897245619">
        <ele>1460.86</ele>
        <time>2019-07-08T07:21:39Z</time>
      </trkpt>
      <trkpt lat="42.4671554938" lon="19.8897183593">
        <ele>1460.86</ele>
        <time>2019-07-08T07:21:41Z</time>
      </trkpt>
      <trkpt lat="42.4671741854" lon="19.8897122405">
        <ele>1460.86</ele>
        <time>2019-07-08T07:21:43Z</time>
      </trkpt>
      <trkpt lat="42.4672577530" lon="19.8895627912">
        <ele>1462.30</ele>
        <time>2019-07-08T07:21:56Z</time>
      </trkpt>
      <trkpt lat="42.4672953039" lon="19.8894593585">
        <ele>1460.38</ele>
        <time>2019-07-08T07:22:08Z</time>
      </trkpt>
      <trkpt lat="42.4673616048" lon="19.8893565964">
        <ele>1460.86</ele>
        <time>2019-07-08T07:22:20Z</time>
      </trkpt>
      <trkpt lat="42.4674356170" lon="19.8892699275">
        <ele>1462.30</ele>
        <time>2019-07-08T07:22:32Z</time>
      </trkpt>
      <trkpt lat="42.4674419034" lon="19.8892716877">
        <ele>1462.78</ele>
        <time>2019-07-08T07:22:33Z</time>
      </trkpt>
      <trkpt lat="42.4675465096" lon="19.8892093264">
        <ele>1464.23</ele>
        <time>2019-07-08T07:22:46Z</time>
      </trkpt>
      <trkpt lat="42.4676292390" lon="19.8891560175">
        <ele>1466.63</ele>
        <time>2019-07-08T07:23:00Z</time>
      </trkpt>
      <trkpt lat="42.4676989764" lon="19.8890715279">
        <ele>1468.07</ele>
        <time>2019-07-08T07:23:13Z</time>
      </trkpt>
      <trkpt lat="42.4677591585" lon="19.8889977671">
        <ele>1469.99</ele>
        <time>2019-07-08T07:23:27Z</time>
      </trkpt>
      <trkpt lat="42.4678139761" lon="19.8889183905">
        <ele>1471.92</ele>
        <time>2019-07-08T07:23:39Z</time>
      </trkpt>
      <trkpt lat="42.4678446539" lon="19.8888145387">
        <ele>1473.84</ele>
        <time>2019-07-08T07:23:53Z</time>
      </trkpt>
      <trkpt lat="42.4678759184" lon="19.8887964338">
        <ele>1474.32</ele>
        <time>2019-07-08T07:23:57Z</time>
      </trkpt>
      <trkpt lat="42.4679554626" lon="19.8887463938">
        <ele>1475.76</ele>
        <time>2019-07-08T07:24:06Z</time>
      </trkpt>
      <trkpt lat="42.4679713883" lon="19.8887379281">
        <ele>1476.24</ele>
        <time>2019-07-08T07:24:07Z</time>
      </trkpt>
      <trkpt lat="42.4679966178" lon="19.8887310550">
        <ele>1476.24</ele>
        <time>2019-07-08T07:24:09Z</time>
      </trkpt>
      <trkpt lat="42.4680740666" lon="19.8886662629">
        <ele>1477.68</ele>
        <time>2019-07-08T07:24:21Z</time>
      </trkpt>
      <trkpt lat="42.4680815265" lon="19.8886545282">
        <ele>1478.16</ele>
        <time>2019-07-08T07:24:22Z</time>
      </trkpt>
      <trkpt lat="42.4681447260" lon="19.8885790911">
        <ele>1479.61</ele>
        <time>2019-07-08T07:24:35Z</time>
      </trkpt>
      <trkpt lat="42.4681745656" lon="19.8885034863">
        <ele>1481.05</ele>
        <time>2019-07-08T07:24:48Z</time>
      </trkpt>
      <trkpt lat="42.4682509247" lon="19.8884501774">
        <ele>1482.49</ele>
        <time>2019-07-08T07:25:00Z</time>
      </trkpt>
      <trkpt lat="42.4683215003" lon="19.8883979581">
        <ele>1483.93</ele>
        <time>2019-07-08T07:25:15Z</time>
      </trkpt>
      <trkpt lat="42.4683619849" lon="19.8883711360">
        <ele>1484.89</ele>
        <time>2019-07-08T07:25:21Z</time>
      </trkpt>
      <trkpt lat="42.4684546050" lon="19.8883044999">
        <ele>1486.34</ele>
        <time>2019-07-08T07:25:34Z</time>
      </trkpt>
      <trkpt lat="42.4685485661" lon="19.8882579803">
        <ele>1487.78</ele>
        <time>2019-07-08T07:25:48Z</time>
      </trkpt>
      <trkpt lat="42.4686165433" lon="19.8881981336">
        <ele>1489.70</ele>
        <time>2019-07-08T07:26:01Z</time>
      </trkpt>
      <trkpt lat="42.4686898850" lon="19.8881036695">
        <ele>1491.62</ele>
        <time>2019-07-08T07:26:14Z</time>
      </trkpt>
      <trkpt lat="42.4687099177" lon="19.8879917711">
        <ele>1493.55</ele>
        <time>2019-07-08T07:26:29Z</time>
      </trkpt>
      <trkpt lat="42.4687586166" lon="19.8878889252">
        <ele>1495.95</ele>
        <time>2019-07-08T07:26:41Z</time>
      </trkpt>
      <trkpt lat="42.4688087404" lon="19.8877928685">
        <ele>1497.39</ele>
        <time>2019-07-08T07:26:55Z</time>
      </trkpt>
      <trkpt lat="42.4688303657" lon="19.8876927886">
        <ele>1499.31</ele>
        <time>2019-07-08T07:27:07Z</time>
      </trkpt>
      <trkpt lat="42.4688542541" lon="19.8875882663">
        <ele>1501.24</ele>
        <time>2019-07-08T07:27:21Z</time>
      </trkpt>
      <trkpt lat="42.4688980076" lon="19.8875452671">
        <ele>1503.16</ele>
        <time>2019-07-08T07:27:35Z</time>
      </trkpt>
      <trkpt lat="42.4690138455" lon="19.8874886893">
        <ele>1505.56</ele>
        <time>2019-07-08T07:27:49Z</time>
      </trkpt>
      <trkpt lat="42.4690735247" lon="19.8874543235">
        <ele>1507.97</ele>
        <time>2019-07-08T07:28:00Z</time>
      </trkpt>
      <trkpt lat="42.4691446032" lon="19.8874146771">
        <ele>1509.89</ele>
        <time>2019-07-08T07:28:14Z</time>
      </trkpt>
      <trkpt lat="42.4691928830" lon="19.8873894475">
        <ele>1511.81</ele>
        <time>2019-07-08T07:28:29Z</time>
      </trkpt>
      <trkpt lat="42.4692649674" lon="19.8874105699">
        <ele>1513.73</ele>
        <time>2019-07-08T07:28:43Z</time>
      </trkpt>
      <trkpt lat="42.4692724273" lon="19.8873280082">
        <ele>1516.14</ele>
        <time>2019-07-08T07:28:59Z</time>
      </trkpt>
      <trkpt lat="42.4693020992" lon="19.8873002641">
        <ele>1518.06</ele>
        <time>2019-07-08T07:29:14Z</time>
      </trkpt>
      <trkpt lat="42.4693491217" lon="19.8873360548">
        <ele>1519.50</ele>
        <time>2019-07-08T07:29:26Z</time>
      </trkpt>
      <trkpt lat="42.4693837389" lon="19.8873914592">
        <ele>1521.90</ele>
        <time>2019-07-08T07:29:40Z</time>
      </trkpt>
      <trkpt lat="42.4694410712" lon="19.8873665649">
        <ele>1523.35</ele>
        <time>2019-07-08T07:29:53Z</time>
      </trkpt>
      <trkpt lat="42.4695020914" lon="19.8873321153">
        <ele>1525.27</ele>
        <time>2019-07-08T07:30:07Z</time>
      </trkpt>
      <trkpt lat="42.4695885926" lon="19.8872974142">
        <ele>1528.63</ele>
        <time>2019-07-08T07:30:24Z</time>
      </trkpt>
      <trkpt lat="42.4695973098" lon="19.8872938938">
        <ele>1528.63</ele>
        <time>2019-07-08T07:30:27Z</time>
      </trkpt>
      <trkpt lat="42.4696066976" lon="19.8872900382">
        <ele>1527.19</ele>
        <time>2019-07-08T07:30:29Z</time>
      </trkpt>
      <trkpt lat="42.4696533848" lon="19.8872291017">
        <ele>1527.67</ele>
        <time>2019-07-08T07:30:44Z</time>
      </trkpt>
      <trkpt lat="42.4698186759" lon="19.8871418461">
        <ele>1527.67</ele>
        <time>2019-07-08T07:30:56Z</time>
      </trkpt>
      <trkpt lat="42.4698414747" lon="19.8871389125">
        <ele>1528.63</ele>
        <time>2019-07-08T07:30:58Z</time>
      </trkpt>
      <trkpt lat="42.4699347652" lon="19.8870677501">
        <ele>1530.08</ele>
        <time>2019-07-08T07:31:12Z</time>
      </trkpt>
      <trkpt lat="42.4699897505" lon="19.8869820870">
        <ele>1531.52</ele>
        <time>2019-07-08T07:31:28Z</time>
      </trkpt>
      <trkpt lat="42.4700452387" lon="19.8869483080">
        <ele>1533.44</ele>
        <time>2019-07-08T07:31:37Z</time>
      </trkpt>
      <trkpt lat="42.4701189157" lon="19.8869506549">
        <ele>1534.40</ele>
        <time>2019-07-08T07:31:49Z</time>
      </trkpt>
      <trkpt lat="42.4701536167" lon="19.8868576158">
        <ele>1536.80</ele>
        <time>2019-07-08T07:32:02Z</time>
      </trkpt>
      <trkpt lat="42.4702438898" lon="19.8868639022">
        <ele>1538.25</ele>
        <time>2019-07-08T07:32:13Z</time>
      </trkpt>
      <trkpt lat="42.4703385215" lon="19.8868674226">
        <ele>1540.65</ele>
        <time>2019-07-08T07:32:26Z</time>
      </trkpt>
      <trkpt lat="42.4704037327" lon="19.8868233338">
        <ele>1542.09</ele>
        <time>2019-07-08T07:32:37Z</time>
      </trkpt>
      <trkpt lat="42.4703581352" lon="19.8867537640">
        <ele>1544.50</ele>
        <time>2019-07-08T07:32:50Z</time>
      </trkpt>
      <trkpt lat="42.4703652598" lon="19.8867178056">
        <ele>1545.94</ele>
        <time>2019-07-08T07:33:01Z</time>
      </trkpt>
      <trkpt lat="42.4704083428" lon="19.8866738006">
        <ele>1547.86</ele>
        <time>2019-07-08T07:33:13Z</time>
      </trkpt>
      <trkpt lat="42.4704486597" lon="19.8867029697">
        <ele>1549.78</ele>
        <time>2019-07-08T07:33:26Z</time>
      </trkpt>
      <trkpt lat="42.4705245998" lon="19.8866560310">
        <ele>1551.71</ele>
        <time>2019-07-08T07:33:38Z</time>
      </trkpt>
      <trkpt lat="42.4705613125" lon="19.8866067454">
        <ele>1553.63</ele>
        <time>2019-07-08T07:33:51Z</time>
      </trkpt>
      <trkpt lat="42.4705666769" lon="19.8866011295">
        <ele>1553.63</ele>
        <time>2019-07-08T07:33:52Z</time>
      </trkpt>
      <trkpt lat="42.4706308823" lon="19.8865639139">
        <ele>1555.55</ele>
        <time>2019-07-08T07:34:03Z</time>
      </trkpt>
      <trkpt lat="42.4706686847" lon="19.8865524307">
        <ele>1557.47</ele>
        <time>2019-07-08T07:34:15Z</time>
      </trkpt>
      <trkpt lat="42.4706951715" lon="19.8865769058">
        <ele>1559.40</ele>
        <time>2019-07-08T07:34:28Z</time>
      </trkpt>
      <trkpt lat="42.4707768112" lon="19.8865847010">
        <ele>1561.80</ele>
        <time>2019-07-08T07:34:42Z</time>
      </trkpt>
      <trkpt lat="42.4708803277" lon="19.8865411989">
        <ele>1564.68</ele>
        <time>2019-07-08T07:34:58Z</time>
      </trkpt>
      <trkpt lat="42.4709887058" lon="19.8864852916">
        <ele>1567.57</ele>
        <time>2019-07-08T07:35:14Z</time>
      </trkpt>
      <trkpt lat="42.4710638914" lon="19.8864406999">
        <ele>1570.45</ele>
        <time>2019-07-08T07:35:29Z</time>
      </trkpt>
      <trkpt lat="42.4711426813" lon="19.8863674421">
        <ele>1572.37</ele>
        <time>2019-07-08T07:35:43Z</time>
      </trkpt>
      <trkpt lat="42.4712278415" lon="19.8863352556">
        <ele>1575.26</ele>
        <time>2019-07-08T07:35:57Z</time>
      </trkpt>
      <trkpt lat="42.4712953158" lon="19.8862420488">
        <ele>1577.18</ele>
        <time>2019-07-08T07:36:10Z</time>
      </trkpt>
      <trkpt lat="42.4713633768" lon="19.8861686233">
        <ele>1579.10</ele>
        <time>2019-07-08T07:36:22Z</time>
      </trkpt>
      <trkpt lat="42.4714436755" lon="19.8860957008">
        <ele>1580.54</ele>
        <time>2019-07-08T07:36:35Z</time>
      </trkpt>
      <trkpt lat="42.4715116527" lon="19.8860247061">
        <ele>1582.47</ele>
        <time>2019-07-08T07:36:47Z</time>
      </trkpt>
      <trkpt lat="42.4715566635" lon="19.8859553039">
        <ele>1583.91</ele>
        <time>2019-07-08T07:36:58Z</time>
      </trkpt>
      <trkpt lat="42.4716165103" lon="19.8858551402">
        <ele>1585.35</ele>
        <time>2019-07-08T07:37:11Z</time>
      </trkpt>
      <trkpt lat="42.4716971442" lon="19.8857362010">
        <ele>1587.27</ele>
        <time>2019-07-08T07:37:24Z</time>
      </trkpt>
      <trkpt lat="42.4717678037" lon="19.8856362049">
        <ele>1588.72</ele>
        <time>2019-07-08T07:37:37Z</time>
      </trkpt>
      <trkpt lat="42.4718038458" lon="19.8856463470">
        <ele>1590.16</ele>
        <time>2019-07-08T07:37:49Z</time>
      </trkpt>
      <trkpt lat="42.4718541373" lon="19.8855688144">
        <ele>1592.08</ele>
        <time>2019-07-08T07:38:00Z</time>
      </trkpt>
      <trkpt lat="42.4719261378" lon="19.8855127394">
        <ele>1593.04</ele>
        <time>2019-07-08T07:38:10Z</time>
      </trkpt>
      <trkpt lat="42.4720137287" lon="19.8854319379">
        <ele>1594.00</ele>
        <time>2019-07-08T07:38:23Z</time>
      </trkpt>
      <trkpt lat="42.4720792752" lon="19.8853569198">
        <ele>1594.96</ele>
        <time>2019-07-08T07:38:34Z</time>
      </trkpt>
      <trkpt lat="42.4721545447" lon="19.8853009287">
        <ele>1596.41</ele>
        <time>2019-07-08T07:38:45Z</time>
      </trkpt>
      <trkpt lat="42.4722267967" lon="19.8852297664">
        <ele>1597.37</ele>
        <time>2019-07-08T07:38:58Z</time>
      </trkpt>
      <trkpt lat="42.4723177403" lon="19.8851722665">
        <ele>1598.33</ele>
        <time>2019-07-08T07:39:13Z</time>
      </trkpt>
      <trkpt lat="42.4723350909" lon="19.8851585202">
        <ele>1598.81</ele>
        <time>2019-07-08T07:39:17Z</time>
      </trkpt>
      <trkpt lat="42.4724182393" lon="19.8851336259">
        <ele>1600.25</ele>
        <time>2019-07-08T07:39:30Z</time>
      </trkpt>
      <trkpt lat="42.4724846240" lon="19.8850899562">
        <ele>1601.69</ele>
        <time>2019-07-08T07:39:41Z</time>
      </trkpt>
      <trkpt lat="42.4725448899" lon="19.8850623798">
        <ele>1602.66</ele>
        <time>2019-07-08T07:39:52Z</time>
      </trkpt>
      <trkpt lat="42.4726115260" lon="19.8850534111">
        <ele>1603.62</ele>
        <time>2019-07-08T07:40:03Z</time>
      </trkpt>
      <trkpt lat="42.4726872146" lon="19.8850085679">
        <ele>1604.58</ele>
        <time>2019-07-08T07:40:16Z</time>
      </trkpt>
      <trkpt lat="42.4727061577" lon="19.8849421833">
        <ele>1606.50</ele>
        <time>2019-07-08T07:40:26Z</time>
      </trkpt>
      <trkpt lat="42.4727469776" lon="19.8849093262">
        <ele>1607.94</ele>
        <time>2019-07-08T07:40:35Z</time>
      </trkpt>
      <trkpt lat="42.4727973528" lon="19.8848079052">
        <ele>1609.38</ele>
        <time>2019-07-08T07:40:48Z</time>
      </trkpt>
      <trkpt lat="42.4729040544" lon="19.8848304525">
        <ele>1611.31</ele>
        <time>2019-07-08T07:41:02Z</time>
      </trkpt>
      <trkpt lat="42.4728705268" lon="19.8848236632">
        <ele>1613.71</ele>
        <time>2019-07-08T07:41:18Z</time>
      </trkpt>
      <trkpt lat="42.4728473928" lon="19.8847602960">
        <ele>1615.15</ele>
        <time>2019-07-08T07:41:30Z</time>
      </trkpt>
      <trkpt lat="42.4728371669" lon="19.8846689332">
        <ele>1617.07</ele>
        <time>2019-07-08T07:41:42Z</time>
      </trkpt>
      <trkpt lat="42.4728904758" lon="19.8845942505">
        <ele>1618.52</ele>
        <time>2019-07-08T07:41:55Z</time>
      </trkpt>
      <trkpt lat="42.4729239196" lon="19.8845923226">
        <ele>1620.44</ele>
        <time>2019-07-08T07:42:05Z</time>
      </trkpt>
      <trkpt lat="42.4729737919" lon="19.8845616449">
        <ele>1622.36</ele>
        <time>2019-07-08T07:42:18Z</time>
      </trkpt>
      <trkpt lat="42.4730211496" lon="19.8845880479">
        <ele>1624.28</ele>
        <time>2019-07-08T07:42:30Z</time>
      </trkpt>
      <trkpt lat="42.4730239995" lon="19.8845394328">
        <ele>1625.25</ele>
        <time>2019-07-08T07:42:41Z</time>
      </trkpt>
      <trkpt lat="42.4730285257" lon="19.8844422027">
        <ele>1627.65</ele>
        <time>2019-07-08T07:42:53Z</time>
      </trkpt>
      <trkpt lat="42.4729680084" lon="19.8843606468">
        <ele>1628.13</ele>
        <time>2019-07-08T07:43:05Z</time>
      </trkpt>
      <trkpt lat="42.4730079900" lon="19.8843465652">
        <ele>1630.05</ele>
        <time>2019-07-08T07:43:16Z</time>
      </trkpt>
      <trkpt lat="42.4729960039" lon="19.8843059968">
        <ele>1631.01</ele>
        <time>2019-07-08T07:43:22Z</time>
      </trkpt>
      <trkpt lat="42.4729517475" lon="19.8842042405">
        <ele>1632.94</ele>
        <time>2019-07-08T07:43:35Z</time>
      </trkpt>
      <trkpt lat="42.4729982670" lon="19.8841643427">
        <ele>1634.38</ele>
        <time>2019-07-08T07:43:46Z</time>
      </trkpt>
      <trkpt lat="42.4731093273" lon="19.8841710482">
        <ele>1636.30</ele>
        <time>2019-07-08T07:44:01Z</time>
      </trkpt>
      <trkpt lat="42.4731277674" lon="19.8840810265">
        <ele>1638.22</ele>
        <time>2019-07-08T07:44:11Z</time>
      </trkpt>
      <trkpt lat="42.4731279351" lon="19.8840195872">
        <ele>1639.67</ele>
        <time>2019-07-08T07:44:23Z</time>
      </trkpt>
      <trkpt lat="42.4731463753" lon="19.8839330021">
        <ele>1642.55</ele>
        <time>2019-07-08T07:44:36Z</time>
      </trkpt>
      <trkpt lat="42.4731421843" lon="19.8838786036">
        <ele>1644.47</ele>
        <time>2019-07-08T07:44:51Z</time>
      </trkpt>
      <trkpt lat="42.4732092395" lon="19.8838842195">
        <ele>1645.91</ele>
        <time>2019-07-08T07:45:04Z</time>
      </trkpt>
      <trkpt lat="42.4732331280" lon="19.8838942777">
        <ele>1646.40</ele>
        <time>2019-07-08T07:45:07Z</time>
      </trkpt>
      <trkpt lat="42.4732608721" lon="19.8838957865">
        <ele>1647.84</ele>
        <time>2019-07-08T07:45:18Z</time>
      </trkpt>
      <trkpt lat="42.4732461199" lon="19.8837856483">
        <ele>1649.76</ele>
        <time>2019-07-08T07:45:31Z</time>
      </trkpt>
      <trkpt lat="42.4732074793" lon="19.8836919386">
        <ele>1651.68</ele>
        <time>2019-07-08T07:45:43Z</time>
      </trkpt>
      <trkpt lat="42.4732102454" lon="19.8836489394">
        <ele>1653.60</ele>
        <time>2019-07-08T07:45:57Z</time>
      </trkpt>
      <trkpt lat="42.4732557591" lon="19.8836952075">
        <ele>1654.57</ele>
        <time>2019-07-08T07:46:06Z</time>
      </trkpt>
      <trkpt lat="42.4733096547" lon="19.8836617637">
        <ele>1656.01</ele>
        <time>2019-07-08T07:46:18Z</time>
      </trkpt>
      <trkpt lat="42.4732845929" lon="19.8835761845">
        <ele>1658.89</ele>
        <time>2019-07-08T07:46:33Z</time>
      </trkpt>
      <trkpt lat="42.4732863531" lon="19.8834946286">
        <ele>1659.85</ele>
        <time>2019-07-08T07:46:44Z</time>
      </trkpt>
      <trkpt lat="42.4733437691" lon="19.8834989034">
        <ele>1662.26</ele>
        <time>2019-07-08T07:46:57Z</time>
      </trkpt>
      <trkpt lat="42.4734073877" lon="19.8835082073">
        <ele>1664.66</ele>
        <time>2019-07-08T07:47:09Z</time>
      </trkpt>
      <trkpt lat="42.4734878540" lon="19.8835063633">
        <ele>1666.10</ele>
        <time>2019-07-08T07:47:21Z</time>
      </trkpt>
      <trkpt lat="42.4735750258" lon="19.8835196067">
        <ele>1668.02</ele>
        <time>2019-07-08T07:47:32Z</time>
      </trkpt>
      <trkpt lat="42.4736316036" lon="19.8835489433">
        <ele>1669.95</ele>
        <time>2019-07-08T07:47:44Z</time>
      </trkpt>
      <trkpt lat="42.4736694898" lon="19.8836071976">
        <ele>1671.87</ele>
        <time>2019-07-08T07:47:58Z</time>
      </trkpt>
      <trkpt lat="42.4737093877" lon="19.8836590815">
        <ele>1674.27</ele>
        <time>2019-07-08T07:48:12Z</time>
      </trkpt>
      <trkpt lat="42.4737460166" lon="19.8836768512">
        <ele>1675.72</ele>
        <time>2019-07-08T07:48:24Z</time>
      </trkpt>
      <trkpt lat="42.4737834837" lon="19.8836891726">
        <ele>1678.12</ele>
        <time>2019-07-08T07:48:35Z</time>
      </trkpt>
      <trkpt lat="42.4738283269" lon="19.8837590776">
        <ele>1680.04</ele>
        <time>2019-07-08T07:48:48Z</time>
      </trkpt>
      <trkpt lat="42.4738344457" lon="19.8837649450">
        <ele>1680.04</ele>
        <time>2019-07-08T07:48:49Z</time>
      </trkpt>
      <trkpt lat="42.4738841504" lon="19.8838180862">
        <ele>1682.44</ele>
        <time>2019-07-08T07:49:01Z</time>
      </trkpt>
      <trkpt lat="42.4739382975" lon="19.8838415556">
        <ele>1684.37</ele>
        <time>2019-07-08T07:49:12Z</time>
      </trkpt>
      <trkpt lat="42.4739664607" lon="19.8839065991">
        <ele>1686.29</ele>
        <time>2019-07-08T07:49:26Z</time>
      </trkpt>
      <trkpt lat="42.4740008265" lon="19.8839761689">
        <ele>1688.21</ele>
        <time>2019-07-08T07:49:39Z</time>
      </trkpt>
      <trkpt lat="42.4740349408" lon="19.8840459064">
        <ele>1690.62</ele>
        <time>2019-07-08T07:49:51Z</time>
      </trkpt>
      <trkpt lat="42.4740605894" lon="19.8841093574">
        <ele>1693.02</ele>
        <time>2019-07-08T07:50:04Z</time>
      </trkpt>
      <trkpt lat="42.4740542192" lon="19.8842169810">
        <ele>1694.46</ele>
        <time>2019-07-08T07:50:16Z</time>
      </trkpt>
      <trkpt lat="42.4740231223" lon="19.8843479902">
        <ele>1695.90</ele>
        <time>2019-07-08T07:50:30Z</time>
      </trkpt>
      <trkpt lat="42.4740241282" lon="19.8844655044">
        <ele>1698.31</ele>
        <time>2019-07-08T07:50:44Z</time>
      </trkpt>
      <trkpt lat="42.4740414787" lon="19.8845648300">
        <ele>1700.23</ele>
        <time>2019-07-08T07:50:56Z</time>
      </trkpt>
      <trkpt lat="42.4740842264" lon="19.8845142033">
        <ele>1702.15</ele>
        <time>2019-07-08T07:51:08Z</time>
      </trkpt>
      <trkpt lat="42.4741443247" lon="19.8844542727">
        <ele>1704.55</ele>
        <time>2019-07-08T07:51:20Z</time>
      </trkpt>
      <trkpt lat="42.4741759244" lon="19.8844285402">
        <ele>1706.00</ele>
        <time>2019-07-08T07:51:31Z</time>
      </trkpt>
      <trkpt lat="42.4742444046" lon="19.8844101001">
        <ele>1707.92</ele>
        <time>2019-07-08T07:51:42Z</time>
      </trkpt>
      <trkpt lat="42.4743231107" lon="19.8843842838">
        <ele>1709.84</ele>
        <time>2019-07-08T07:51:56Z</time>
      </trkpt>
      <trkpt lat="42.4743881542" lon="19.8843515106">
        <ele>1712.25</ele>
        <time>2019-07-08T07:52:09Z</time>
      </trkpt>
      <trkpt lat="42.4744000565" lon="19.8844018020">
        <ele>1714.17</ele>
        <time>2019-07-08T07:52:21Z</time>
      </trkpt>
      <trkpt lat="42.4744224362" lon="19.8843543604">
        <ele>1715.61</ele>
        <time>2019-07-08T07:52:33Z</time>
      </trkpt>
      <trkpt lat="42.4744692910" lon="19.8843054939">
        <ele>1717.53</ele>
        <time>2019-07-08T07:52:45Z</time>
      </trkpt>
      <trkpt lat="42.4745180737" lon="19.8842427135">
        <ele>1719.94</ele>
        <time>2019-07-08T07:52:57Z</time>
      </trkpt>
      <trkpt lat="42.4745644256" lon="19.8841542844">
        <ele>1722.34</ele>
        <time>2019-07-08T07:53:13Z</time>
      </trkpt>
      <trkpt lat="42.4745911639" lon="19.8841298092">
        <ele>1724.26</ele>
        <time>2019-07-08T07:53:25Z</time>
      </trkpt>
      <trkpt lat="42.4746179860" lon="19.8841620795">
        <ele>1725.70</ele>
        <time>2019-07-08T07:53:40Z</time>
      </trkpt>
      <trkpt lat="42.4746578000" lon="19.8841008078">
        <ele>1727.63</ele>
        <time>2019-07-08T07:53:51Z</time>
      </trkpt>
      <trkpt lat="42.4746734742" lon="19.8841397837">
        <ele>1730.03</ele>
        <time>2019-07-08T07:54:06Z</time>
      </trkpt>
      <trkpt lat="42.4746971950" lon="19.8841444775">
        <ele>1732.43</ele>
        <time>2019-07-08T07:54:19Z</time>
      </trkpt>
      <trkpt lat="42.4747395236" lon="19.8841023166">
        <ele>1734.84</ele>
        <time>2019-07-08T07:54:32Z</time>
      </trkpt>
      <trkpt lat="42.4747687764" lon="19.8840465769">
        <ele>1736.28</ele>
        <time>2019-07-08T07:54:43Z</time>
      </trkpt>
      <trkpt lat="42.4747994542" lon="19.8839522805">
        <ele>1738.68</ele>
        <time>2019-07-08T07:54:59Z</time>
      </trkpt>
      <trkpt lat="42.4748581275" lon="19.8839660268">
        <ele>1740.60</ele>
        <time>2019-07-08T07:55:11Z</time>
      </trkpt>
      <trkpt lat="42.4748770706" lon="19.8839746602">
        <ele>1742.05</ele>
        <time>2019-07-08T07:55:23Z</time>
      </trkpt>
      <trkpt lat="42.4748438783" lon="19.8838926852">
        <ele>1743.97</ele>
        <time>2019-07-08T07:55:36Z</time>
      </trkpt>
      <trkpt lat="42.4748929124" lon="19.8838960379">
        <ele>1745.89</ele>
        <time>2019-07-08T07:55:48Z</time>
      </trkpt>
      <trkpt lat="42.4749226682" lon="19.8838547152">
        <ele>1747.81</ele>
        <time>2019-07-08T07:56:01Z</time>
      </trkpt>
      <trkpt lat="42.4748887215" lon="19.8837714829">
        <ele>1749.26</ele>
        <time>2019-07-08T07:56:12Z</time>
      </trkpt>
      <trkpt lat="42.4748698622" lon="19.8837122228">
        <ele>1751.18</ele>
        <time>2019-07-08T07:56:24Z</time>
      </trkpt>
      <trkpt lat="42.4748696107" lon="19.8836732469">
        <ele>1752.62</ele>
        <time>2019-07-08T07:56:30Z</time>
      </trkpt>
      <trkpt lat="42.4749041442" lon="19.8836803716">
        <ele>1753.10</ele>
        <time>2019-07-08T07:56:36Z</time>
      </trkpt>
      <trkpt lat="42.4750091694" lon="19.8836533818">
        <ele>1755.02</ele>
        <time>2019-07-08T07:56:49Z</time>
      </trkpt>
      <trkpt lat="42.4750737939" lon="19.8836677987">
        <ele>1756.95</ele>
        <time>2019-07-08T07:57:02Z</time>
      </trkpt>
      <trkpt lat="42.4750960059" lon="19.8836548068">
        <ele>1758.39</ele>
        <time>2019-07-08T07:57:12Z</time>
      </trkpt>
      <trkpt lat="42.4750905577" lon="19.8835667968">
        <ele>1760.31</ele>
        <time>2019-07-08T07:57:25Z</time>
      </trkpt>
      <trkpt lat="42.4751526676" lon="19.8835387174">
        <ele>1763.20</ele>
        <time>2019-07-08T07:57:39Z</time>
      </trkpt>
      <trkpt lat="42.4751988519" lon="19.8835860752">
        <ele>1764.64</ele>
        <time>2019-07-08T07:57:51Z</time>
      </trkpt>
      <trkpt lat="42.4752682541" lon="19.8836575728">
        <ele>1766.08</ele>
        <time>2019-07-08T07:58:05Z</time>
      </trkpt>
      <trkpt lat="42.4753436074" lon="19.8837441579">
        <ele>1768.00</ele>
        <time>2019-07-08T07:58:18Z</time>
      </trkpt>
      <trkpt lat="42.4753924739" lon="19.8838228639">
        <ele>1769.44</ele>
        <time>2019-07-08T07:58:29Z</time>
      </trkpt>
      <trkpt lat="42.4754244089" lon="19.8838307429">
        <ele>1769.44</ele>
        <time>2019-07-08T07:58:33Z</time>
      </trkpt>
      <trkpt lat="42.4755120836" lon="19.8838630971">
        <ele>1771.37</ele>
        <time>2019-07-08T07:58:46Z</time>
      </trkpt>
      <trkpt lat="42.4756213836" lon="19.8838673718">
        <ele>1773.29</ele>
        <time>2019-07-08T07:59:00Z</time>
      </trkpt>
      <trkpt lat="42.4757228047" lon="19.8838914279">
        <ele>1774.25</ele>
        <time>2019-07-08T07:59:13Z</time>
      </trkpt>
      <trkpt lat="42.4758071266" lon="19.8838861473">
        <ele>1776.17</ele>
        <time>2019-07-08T07:59:25Z</time>
      </trkpt>
      <trkpt lat="42.4758272432" lon="19.8838706408">
        <ele>1776.65</ele>
        <time>2019-07-08T07:59:30Z</time>
      </trkpt>
      <trkpt lat="42.4759210367" lon="19.8838715628">
        <ele>1778.58</ele>
        <time>2019-07-08T07:59:43Z</time>
      </trkpt>
      <trkpt lat="42.4759906903" lon="19.8838558886">
        <ele>1780.02</ele>
        <time>2019-07-08T07:59:54Z</time>
      </trkpt>
      <trkpt lat="42.4760034308" lon="19.8838390410">
        <ele>1780.50</ele>
        <time>2019-07-08T07:59:57Z</time>
      </trkpt>
      <trkpt lat="42.4761104677" lon="19.8838194273">
        <ele>1781.46</ele>
        <time>2019-07-08T08:00:10Z</time>
      </trkpt>
      <trkpt lat="42.4761279020" lon="19.8837993108">
        <ele>1781.46</ele>
        <time>2019-07-08T08:00:13Z</time>
      </trkpt>
      <trkpt lat="42.4762242101" lon="19.8838041723">
        <ele>1783.86</ele>
        <time>2019-07-08T08:00:26Z</time>
      </trkpt>
      <trkpt lat="42.4762945343" lon="19.8838274740">
        <ele>1786.27</ele>
        <time>2019-07-08T08:00:39Z</time>
      </trkpt>
      <trkpt lat="42.4763484299" lon="19.8838444892">
        <ele>1789.15</ele>
        <time>2019-07-08T08:00:51Z</time>
      </trkpt>
      <trkpt lat="42.4763911776" lon="19.8838578165">
        <ele>1790.59</ele>
        <time>2019-07-08T08:01:01Z</time>
      </trkpt>
      <trkpt lat="42.4763863999" lon="19.8838406336">
        <ele>1791.55</ele>
        <time>2019-07-08T08:01:15Z</time>
      </trkpt>
      <trkpt lat="42.4763077777" lon="19.8837694712">
        <ele>1792.03</ele>
        <time>2019-07-08T08:01:43Z</time>
      </trkpt>
      <trkpt lat="42.4764696322" lon="19.8838587385">
        <ele>1792.03</ele>
        <time>2019-07-08T08:02:10Z</time>
      </trkpt>
      <trkpt lat="42.4764226936" lon="19.8838141467">
        <ele>1792.52</ele>
        <time>2019-07-08T08:02:36Z</time>
      </trkpt>
      <trkpt lat="42.4763842206" lon="19.8838426452">
        <ele>1791.55</ele>
        <time>2019-07-08T08:02:57Z</time>
      </trkpt>
      <trkpt lat="42.4763806164" lon="19.8838470038">
        <ele>1792.03</ele>
        <time>2019-07-08T08:03:23Z</time>
      </trkpt>
      <trkpt lat="42.4764084443" lon="19.8838838004">
        <ele>1792.03</ele>
        <time>2019-07-08T08:03:42Z</time>
      </trkpt>
      <trkpt lat="42.4763750006" lon="19.8838719819">
        <ele>1792.52</ele>
        <time>2019-07-08T08:04:02Z</time>
      </trkpt>
      <trkpt lat="42.4763849750" lon="19.8838610016">
        <ele>1792.52</ele>
        <time>2019-07-08T08:04:30Z</time>
      </trkpt>
      <trkpt lat="42.4763877410" lon="19.8838294856">
        <ele>1793.00</ele>
        <time>2019-07-08T08:04:55Z</time>
      </trkpt>
      <trkpt lat="42.4763553031" lon="19.8838385381">
        <ele>1793.48</ele>
        <time>2019-07-08T08:05:20Z</time>
      </trkpt>
      <trkpt lat="42.4763915967" lon="19.8838418070">
        <ele>1793.96</ele>
        <time>2019-07-08T08:05:53Z</time>
      </trkpt>
      <trkpt lat="42.4763781857" lon="19.8838485125">
        <ele>1794.44</ele>
        <time>2019-07-08T08:06:30Z</time>
      </trkpt>
      <trkpt lat="42.4763652775" lon="19.8838298209">
        <ele>1794.92</ele>
        <time>2019-07-08T08:07:02Z</time>
      </trkpt>
      <trkpt lat="42.4763414729" lon="19.8837682139">
        <ele>1795.40</ele>
        <time>2019-07-08T08:07:28Z</time>
      </trkpt>
      <trkpt lat="42.4763287324" lon="19.8837891687">
        <ele>1795.88</ele>
        <time>2019-07-08T08:08:00Z</time>
      </trkpt>
      <trkpt lat="42.4763386231" lon="19.8837973829">
        <ele>1795.88</ele>
        <time>2019-07-08T08:08:25Z</time>
      </trkpt>
      <trkpt lat="42.4763574824" lon="19.8838101234">
        <ele>1796.36</ele>
        <time>2019-07-08T08:09:03Z</time>
      </trkpt>
      <trkpt lat="42.4763254635" lon="19.8838812858">
        <ele>1796.84</ele>
        <time>2019-07-08T08:09:37Z</time>
      </trkpt>
      <trkpt lat="42.4763092864" lon="19.8838142306">
        <ele>1796.84</ele>
        <time>2019-07-08T08:10:09Z</time>
      </trkpt>
      <trkpt lat="42.4763608351" lon="19.8837947007">
        <ele>1797.32</ele>
        <time>2019-07-08T08:10:40Z</time>
      </trkpt>
      <trkpt lat="42.4762966298" lon="19.8838068545">
        <ele>1797.80</ele>
        <time>2019-07-08T08:11:13Z</time>
      </trkpt>
      <trkpt lat="42.4762847275" lon="19.8838142306">
        <ele>1798.76</ele>
        <time>2019-07-08T08:11:45Z</time>
      </trkpt>
      <trkpt lat="42.4763061851" lon="19.8838190082">
        <ele>1799.24</ele>
        <time>2019-07-08T08:12:28Z</time>
      </trkpt>
      <trkpt lat="42.4762263894" lon="19.8839406297">
        <ele>1800.21</ele>
        <time>2019-07-08T08:13:01Z</time>
      </trkpt>
      <trkpt lat="42.4762249645" lon="19.8838094529">
        <ele>1801.17</ele>
        <time>2019-07-08T08:13:39Z</time>
      </trkpt>
      <trkpt lat="42.4762057699" lon="19.8837297410">
        <ele>1801.65</ele>
        <time>2019-07-08T08:14:03Z</time>
      </trkpt>
      <trkpt lat="42.4762720708" lon="19.8838004004">
        <ele>1801.65</ele>
        <time>2019-07-08T08:14:28Z</time>
      </trkpt>
      <trkpt lat="42.4762920197" lon="19.8838553019">
        <ele>1802.13</ele>
        <time>2019-07-08T08:14:52Z</time>
      </trkpt>
      <trkpt lat="42.4763402157" lon="19.8838470876">
        <ele>1802.61</ele>
        <time>2019-07-08T08:15:10Z</time>
      </trkpt>
      <trkpt lat="42.4763683788" lon="19.8838454951">
        <ele>1802.61</ele>
        <time>2019-07-08T08:15:27Z</time>
      </trkpt>
      <trkpt lat="42.4764045887" lon="19.8838418908">
        <ele>1804.05</ele>
        <time>2019-07-08T08:15:34Z</time>
      </trkpt>
      <trkpt lat="42.4764334224" lon="19.8838256299">
        <ele>1804.05</ele>
        <time>2019-07-08T08:15:40Z</time>
      </trkpt>
      <trkpt lat="42.4764595740" lon="19.8838019092">
        <ele>1804.53</ele>
        <time>2019-07-08T08:15:44Z</time>
      </trkpt>
      <trkpt lat="42.4764764216" lon="19.8838054296">
        <ele>1804.53</ele>
        <time>2019-07-08T08:15:46Z</time>
      </trkpt>
      <trkpt lat="42.4765212648" lon="19.8838709760">
        <ele>1806.45</ele>
        <time>2019-07-08T08:15:59Z</time>
      </trkpt>
      <trkpt lat="42.4765171576" lon="19.8839220218">
        <ele>1808.38</ele>
        <time>2019-07-08T08:16:14Z</time>
      </trkpt>
      <trkpt lat="42.4764591549" lon="19.8838914279">
        <ele>1810.30</ele>
        <time>2019-07-08T08:16:29Z</time>
      </trkpt>
      <trkpt lat="42.4764595740" lon="19.8839501850">
        <ele>1811.74</ele>
        <time>2019-07-08T08:16:38Z</time>
      </trkpt>
      <trkpt lat="42.4764302373" lon="19.8839907534">
        <ele>1813.66</ele>
        <time>2019-07-08T08:16:48Z</time>
      </trkpt>
      <trkpt lat="42.4764295667" lon="19.8840063438">
        <ele>1814.15</ele>
        <time>2019-07-08T08:16:51Z</time>
      </trkpt>
      <trkpt lat="42.4764720630" lon="19.8840171564">
        <ele>1815.11</ele>
        <time>2019-07-08T08:16:55Z</time>
      </trkpt>
      <trkpt lat="42.4764936045" lon="19.8840133846">
        <ele>1815.11</ele>
        <time>2019-07-08T08:16:57Z</time>
      </trkpt>
      <trkpt lat="42.4766138010" lon="19.8840999696">
        <ele>1815.59</ele>
        <time>2019-07-08T08:17:08Z</time>
      </trkpt>
      <trkpt lat="42.4766997155" lon="19.8841459863">
        <ele>1815.59</ele>
        <time>2019-07-08T08:17:20Z</time>
      </trkpt>
      <trkpt lat="42.4767562933" lon="19.8841828667">
        <ele>1815.59</ele>
        <time>2019-07-08T08:17:27Z</time>
      </trkpt>
      <trkpt lat="42.4768309761" lon="19.8842081800">
        <ele>1815.59</ele>
        <time>2019-07-08T08:17:34Z</time>
      </trkpt>
      <trkpt lat="42.4768995401" lon="19.8842767440">
        <ele>1816.55</ele>
        <time>2019-07-08T08:17:45Z</time>
      </trkpt>
      <trkpt lat="42.4769705348" lon="19.8843279574">
        <ele>1816.55</ele>
        <time>2019-07-08T08:17:57Z</time>
      </trkpt>
      <trkpt lat="42.4770377576" lon="19.8843520973">
        <ele>1817.03</ele>
        <time>2019-07-08T08:18:09Z</time>
      </trkpt>
      <trkpt lat="42.4770991970" lon="19.8843158875">
        <ele>1818.47</ele>
        <time>2019-07-08T08:18:20Z</time>
      </trkpt>
      <trkpt lat="42.4771375023" lon="19.8842650093">
        <ele>1819.91</ele>
        <time>2019-07-08T08:18:30Z</time>
      </trkpt>
      <trkpt lat="42.4771915656" lon="19.8842602316">
        <ele>1819.91</ele>
        <time>2019-07-08T08:18:37Z</time>
      </trkpt>
      <trkpt lat="42.4772069044" lon="19.8842559569">
        <ele>1819.91</ele>
        <time>2019-07-08T08:18:40Z</time>
      </trkpt>
      <trkpt lat="42.4773085769" lon="19.8843448889">
        <ele>1821.84</ele>
        <time>2019-07-08T08:18:55Z</time>
      </trkpt>
      <trkpt lat="42.4773598742" lon="19.8844082560">
        <ele>1823.28</ele>
        <time>2019-07-08T08:19:07Z</time>
      </trkpt>
      <trkpt lat="42.4774520751" lon="19.8844675161">
        <ele>1824.72</ele>
        <time>2019-07-08T08:19:20Z</time>
      </trkpt>
      <trkpt lat="42.4775149394" lon="19.8845152929">
        <ele>1826.64</ele>
        <time>2019-07-08T08:19:32Z</time>
      </trkpt>
      <trkpt lat="42.4775692541" lon="19.8844337370">
        <ele>1829.05</ele>
        <time>2019-07-08T08:19:44Z</time>
      </trkpt>
      <trkpt lat="42.4775782228" lon="19.8843830265">
        <ele>1830.49</ele>
        <time>2019-07-08T08:19:57Z</time>
      </trkpt>
      <trkpt lat="42.4776467029" lon="19.8844480701">
        <ele>1831.93</ele>
        <time>2019-07-08T08:20:09Z</time>
      </trkpt>
      <trkpt lat="42.4777095672" lon="19.8845495749">
        <ele>1833.37</ele>
        <time>2019-07-08T08:20:21Z</time>
      </trkpt>
      <trkpt lat="42.4777590204" lon="19.8844876327">
        <ele>1835.29</ele>
        <time>2019-07-08T08:20:33Z</time>
      </trkpt>
      <trkpt lat="42.4778192863" lon="19.8845328949">
        <ele>1837.22</ele>
        <time>2019-07-08T08:20:46Z</time>
      </trkpt>
      <trkpt lat="42.4778639618" lon="19.8844732996">
        <ele>1839.62</ele>
        <time>2019-07-08T08:21:01Z</time>
      </trkpt>
      <trkpt lat="42.4778606091" lon="19.8844686057">
        <ele>1840.58</ele>
        <time>2019-07-08T08:21:04Z</time>
      </trkpt>
      <trkpt lat="42.4778513052" lon="19.8843502533">
        <ele>1842.02</ele>
        <time>2019-07-08T08:21:14Z</time>
      </trkpt>
      <trkpt lat="42.4778254051" lon="19.8843174800">
        <ele>1842.50</ele>
        <time>2019-07-08T08:21:23Z</time>
      </trkpt>
      <trkpt lat="42.4778922088" lon="19.8842923343">
        <ele>1843.95</ele>
        <time>2019-07-08T08:21:36Z</time>
      </trkpt>
      <trkpt lat="42.4779490381" lon="19.8842903227">
        <ele>1845.87</ele>
        <time>2019-07-08T08:21:48Z</time>
      </trkpt>
      <trkpt lat="42.4780037720" lon="19.8843058292">
        <ele>1847.31</ele>
        <time>2019-07-08T08:21:59Z</time>
      </trkpt>
      <trkpt lat="42.4780813884" lon="19.8843210004">
        <ele>1849.23</ele>
        <time>2019-07-08T08:22:11Z</time>
      </trkpt>
      <trkpt lat="42.4781492818" lon="19.8842767440">
        <ele>1851.16</ele>
        <time>2019-07-08T08:22:23Z</time>
      </trkpt>
      <trkpt lat="42.4781877548" lon="19.8842459824">
        <ele>1852.60</ele>
        <time>2019-07-08T08:22:33Z</time>
      </trkpt>
      <trkpt lat="42.4782657064" lon="19.8842403665">
        <ele>1854.52</ele>
        <time>2019-07-08T08:22:46Z</time>
      </trkpt>
      <trkpt lat="42.4783228710" lon="19.8842692003">
        <ele>1856.44</ele>
        <time>2019-07-08T08:22:58Z</time>
      </trkpt>
      <trkpt lat="42.4783932790" lon="19.8843191564">
        <ele>1858.85</ele>
        <time>2019-07-08T08:23:11Z</time>
      </trkpt>
      <trkpt lat="42.4784321710" lon="19.8843716271">
        <ele>1860.77</ele>
        <time>2019-07-08T08:23:25Z</time>
      </trkpt>
      <trkpt lat="42.4784818757" lon="19.8844170570">
        <ele>1862.69</ele>
        <time>2019-07-08T08:23:36Z</time>
      </trkpt>
      <trkpt lat="42.4785237852" lon="19.8844691925">
        <ele>1865.09</ele>
        <time>2019-07-08T08:23:49Z</time>
      </trkpt>
      <trkpt lat="42.4785503559" lon="19.8844818491">
        <ele>1865.58</ele>
        <time>2019-07-08T08:23:53Z</time>
      </trkpt>
      <trkpt lat="42.4786269665" lon="19.8845394328">
        <ele>1867.02</ele>
        <time>2019-07-08T08:24:05Z</time>
      </trkpt>
      <trkpt lat="42.4786943570" lon="19.8845701106">
        <ele>1868.46</ele>
        <time>2019-07-08T08:24:15Z</time>
      </trkpt>
      <trkpt lat="42.4787467439" lon="19.8846198991">
        <ele>1869.90</ele>
        <time>2019-07-08T08:24:26Z</time>
      </trkpt>
      <trkpt lat="42.4788475782" lon="19.8846440390">
        <ele>1871.82</ele>
        <time>2019-07-08T08:24:39Z</time>
      </trkpt>
      <trkpt lat="42.4789210036" lon="19.8846838530">
        <ele>1873.75</ele>
        <time>2019-07-08T08:24:53Z</time>
      </trkpt>
      <trkpt lat="42.4789655954" lon="19.8847236671">
        <ele>1875.19</ele>
        <time>2019-07-08T08:25:03Z</time>
      </trkpt>
      <trkpt lat="42.4790109415" lon="19.8847729526">
        <ele>1876.63</ele>
        <time>2019-07-08T08:25:16Z</time>
      </trkpt>
      <trkpt lat="42.4790701177" lon="19.8847869504">
        <ele>1877.11</ele>
        <time>2019-07-08T08:25:26Z</time>
      </trkpt>
      <trkpt lat="42.4791380949" lon="19.8847763054">
        <ele>1877.11</ele>
        <time>2019-07-08T08:25:34Z</time>
      </trkpt>
      <trkpt lat="42.4791866262" lon="19.8847805802">
        <ele>1877.11</ele>
        <time>2019-07-08T08:25:40Z</time>
      </trkpt>
      <trkpt lat="42.4793291185" lon="19.8848233279">
        <ele>1877.11</ele>
        <time>2019-07-08T08:25:54Z</time>
      </trkpt>
      <trkpt lat="42.4794266000" lon="19.8848356493">
        <ele>1877.11</ele>
        <time>2019-07-08T08:26:06Z</time>
      </trkpt>
      <trkpt lat="42.4794411007" lon="19.8848354816">
        <ele>1877.11</ele>
        <time>2019-07-08T08:26:08Z</time>
      </trkpt>
      <trkpt lat="42.4794848543" lon="19.8848340567">
        <ele>1877.11</ele>
        <time>2019-07-08T08:26:12Z</time>
      </trkpt>
      <trkpt lat="42.4796037097" lon="19.8848419357">
        <ele>1877.11</ele>
        <time>2019-07-08T08:26:23Z</time>
      </trkpt>
      <trkpt lat="42.4796368182" lon="19.8848472163">
        <ele>1875.67</ele>
        <time>2019-07-08T08:26:26Z</time>
      </trkpt>
      <trkpt lat="42.4796459544" lon="19.8848531675">
        <ele>1875.67</ele>
        <time>2019-07-08T08:26:27Z</time>
      </trkpt>
      <trkpt lat="42.4797603674" lon="19.8849079013">
        <ele>1875.19</ele>
        <time>2019-07-08T08:26:41Z</time>
      </trkpt>
      <trkpt lat="42.4797881953" lon="19.8849058896">
        <ele>1874.23</ele>
        <time>2019-07-08T08:26:44Z</time>
      </trkpt>
      <trkpt lat="42.4798181187" lon="19.8849181272">
        <ele>1874.23</ele>
        <time>2019-07-08T08:26:47Z</time>
      </trkpt>
      <trkpt lat="42.4799090624" lon="19.8849083204">
        <ele>1872.79</ele>
        <time>2019-07-08T08:26:58Z</time>
      </trkpt>
      <trkpt lat="42.4799665622" lon="19.8848908022">
        <ele>1871.34</ele>
        <time>2019-07-08T08:27:04Z</time>
      </trkpt>
      <trkpt lat="42.4800913688" lon="19.8848568555">
        <ele>1871.34</ele>
        <time>2019-07-08T08:27:14Z</time>
      </trkpt>
      <trkpt lat="42.4801299255" lon="19.8848418519">
        <ele>1871.34</ele>
        <time>2019-07-08T08:27:20Z</time>
      </trkpt>
      <trkpt lat="42.4801979866" lon="19.8848549277">
        <ele>1871.34</ele>
        <time>2019-07-08T08:27:29Z</time>
      </trkpt>
      <trkpt lat="42.4802844040" lon="19.8848623876">
        <ele>1872.30</ele>
        <time>2019-07-08T08:27:38Z</time>
      </trkpt>
      <trkpt lat="42.4803014193" lon="19.8848621361">
        <ele>1872.79</ele>
        <time>2019-07-08T08:27:40Z</time>
      </trkpt>
      <trkpt lat="42.4803913571" lon="19.8849088233">
        <ele>1874.71</ele>
        <time>2019-07-08T08:27:53Z</time>
      </trkpt>
      <trkpt lat="42.4804838933" lon="19.8849503137">
        <ele>1875.19</ele>
        <time>2019-07-08T08:28:06Z</time>
      </trkpt>
      <trkpt lat="42.4805539660" lon="19.8849835899">
        <ele>1875.19</ele>
        <time>2019-07-08T08:28:16Z</time>
      </trkpt>
      <trkpt lat="42.4806490168" lon="19.8850010242">
        <ele>1875.19</ele>
        <time>2019-07-08T08:28:24Z</time>
      </trkpt>
      <trkpt lat="42.4806915969" lon="19.8850047961">
        <ele>1875.19</ele>
        <time>2019-07-08T08:28:27Z</time>
      </trkpt>
      <trkpt lat="42.4807393737" lon="19.8850391619">
        <ele>1875.67</ele>
        <time>2019-07-08T08:28:34Z</time>
      </trkpt>
      <trkpt lat="42.4808459915" lon="19.8850837536">
        <ele>1875.67</ele>
        <time>2019-07-08T08:28:46Z</time>
      </trkpt>
      <trkpt lat="42.4808781780" lon="19.8851370625">
        <ele>1875.67</ele>
        <time>2019-07-08T08:28:52Z</time>
      </trkpt>
      <trkpt lat="42.4809896573" lon="19.8852322809">
        <ele>1875.67</ele>
        <time>2019-07-08T08:29:05Z</time>
      </trkpt>
      <trkpt lat="42.4810945988" lon="19.8853191175">
        <ele>1875.67</ele>
        <time>2019-07-08T08:29:20Z</time>
      </trkpt>
      <trkpt lat="42.4811573792" lon="19.8853674810">
        <ele>1876.15</ele>
        <time>2019-07-08T08:29:29Z</time>
      </trkpt>
      <trkpt lat="42.4811847880" lon="19.8854070436">
        <ele>1876.15</ele>
        <time>2019-07-08T08:29:34Z</time>
      </trkpt>
      <trkpt lat="42.4812074192" lon="19.8854228016">
        <ele>1876.63</ele>
        <time>2019-07-08T08:29:37Z</time>
      </trkpt>
      <trkpt lat="42.4812863767" lon="19.8855135776">
        <ele>1877.11</ele>
        <time>2019-07-08T08:29:50Z</time>
      </trkpt>
      <trkpt lat="42.4813561141" lon="19.8855604324">
        <ele>1879.03</ele>
        <time>2019-07-08T08:30:02Z</time>
      </trkpt>
      <trkpt lat="42.4814632349" lon="19.8856260628">
        <ele>1880.00</ele>
        <time>2019-07-08T08:30:16Z</time>
      </trkpt>
      <trkpt lat="42.4815554358" lon="19.8856489453">
        <ele>1880.00</ele>
        <time>2019-07-08T08:30:27Z</time>
      </trkpt>
      <trkpt lat="42.4816312920" lon="19.8857050203">
        <ele>1882.40</ele>
        <time>2019-07-08T08:30:39Z</time>
      </trkpt>
      <trkpt lat="42.4816886242" lon="19.8857398890">
        <ele>1884.32</ele>
        <time>2019-07-08T08:30:52Z</time>
      </trkpt>
      <trkpt lat="42.4817897938" lon="19.8857282382">
        <ele>1885.76</ele>
        <time>2019-07-08T08:31:04Z</time>
      </trkpt>
      <trkpt lat="42.4818641413" lon="19.8857502826">
        <ele>1886.24</ele>
        <time>2019-07-08T08:31:16Z</time>
      </trkpt>
      <trkpt lat="42.4819618743" lon="19.8857894260">
        <ele>1888.65</ele>
        <time>2019-07-08T08:31:32Z</time>
      </trkpt>
      <trkpt lat="42.4820270017" lon="19.8857954610">
        <ele>1888.65</ele>
        <time>2019-07-08T08:31:42Z</time>
      </trkpt>
      <trkpt lat="42.4820986670" lon="19.8858185951">
        <ele>1888.65</ele>
        <time>2019-07-08T08:31:49Z</time>
      </trkpt>
      <trkpt lat="42.4821870122" lon="19.8858267255">
        <ele>1888.65</ele>
        <time>2019-07-08T08:31:58Z</time>
      </trkpt>
      <trkpt lat="42.4822247308" lon="19.8858329281">
        <ele>1887.21</ele>
        <time>2019-07-08T08:32:01Z</time>
      </trkpt>
      <trkpt lat="42.4822929595" lon="19.8857970536">
        <ele>1886.24</ele>
        <time>2019-07-08T08:32:12Z</time>
      </trkpt>
      <trkpt lat="42.4822993297" lon="19.8857895937">
        <ele>1886.24</ele>
        <time>2019-07-08T08:32:13Z</time>
      </trkpt>
      <trkpt lat="42.4823284149" lon="19.8857735842">
        <ele>1885.76</ele>
        <time>2019-07-08T08:32:17Z</time>
      </trkpt>
      <trkpt lat="42.4823449273" lon="19.8857675493">
        <ele>1885.76</ele>
        <time>2019-07-08T08:32:19Z</time>
      </trkpt>
      <trkpt lat="42.4824418221" lon="19.8857022543">
        <ele>1885.76</ele>
        <time>2019-07-08T08:32:32Z</time>
      </trkpt>
      <trkpt lat="42.4824611843" lon="19.8856750131">
        <ele>1887.69</ele>
        <time>2019-07-08T08:32:36Z</time>
      </trkpt>
      <trkpt lat="42.4825300835" lon="19.8857089598">
        <ele>1888.65</ele>
        <time>2019-07-08T08:32:46Z</time>
      </trkpt>
      <trkpt lat="42.4826310016" lon="19.8856962193">
        <ele>1890.09</ele>
        <time>2019-07-08T08:32:58Z</time>
      </trkpt>
      <trkpt lat="42.4827274773" lon="19.8856651224">
        <ele>1891.05</ele>
        <time>2019-07-08T08:33:09Z</time>
      </trkpt>
      <trkpt lat="42.4828169122" lon="19.8856975604">
        <ele>1892.97</ele>
        <time>2019-07-08T08:33:21Z</time>
      </trkpt>
      <trkpt lat="42.4828716461" lon="19.8857270647">
        <ele>1894.42</ele>
        <time>2019-07-08T08:33:31Z</time>
      </trkpt>
      <trkpt lat="42.4829392042" lon="19.8857671302">
        <ele>1895.38</ele>
        <time>2019-07-08T08:33:44Z</time>
      </trkpt>
      <trkpt lat="42.4829744920" lon="19.8857822176">
        <ele>1897.30</ele>
        <time>2019-07-08T08:33:56Z</time>
      </trkpt>
      <trkpt lat="42.4829994701" lon="19.8857820500">
        <ele>1898.26</ele>
        <time>2019-07-08T08:34:01Z</time>
      </trkpt>
      <trkpt lat="42.4830620829" lon="19.8857830558">
        <ele>1899.70</ele>
        <time>2019-07-08T08:34:11Z</time>
      </trkpt>
      <trkpt lat="42.4831351731" lon="19.8857528809">
        <ele>1902.11</ele>
        <time>2019-07-08T08:34:22Z</time>
      </trkpt>
      <trkpt lat="42.4831665214" lon="19.8856911063">
        <ele>1903.55</ele>
        <time>2019-07-08T08:34:33Z</time>
      </trkpt>
      <trkpt lat="42.4831937626" lon="19.8856394738">
        <ele>1904.51</ele>
        <time>2019-07-08T08:34:41Z</time>
      </trkpt>
      <trkpt lat="42.4832339957" lon="19.8855951335">
        <ele>1905.47</ele>
        <time>2019-07-08T08:34:48Z</time>
      </trkpt>
      <trkpt lat="42.4833004642" lon="19.8855607677">
        <ele>1906.91</ele>
        <time>2019-07-08T08:35:00Z</time>
      </trkpt>
      <trkpt lat="42.4834572896" lon="19.8855326883">
        <ele>1905.47</ele>
        <time>2019-07-08T08:35:14Z</time>
      </trkpt>
      <trkpt lat="42.4834960978" lon="19.8855533078">
        <ele>1905.47</ele>
        <time>2019-07-08T08:35:19Z</time>
      </trkpt>
      <trkpt lat="42.4835224170" lon="19.8855561577">
        <ele>1905.47</ele>
        <time>2019-07-08T08:35:21Z</time>
      </trkpt>
      <trkpt lat="42.4835419469" lon="19.8855638690">
        <ele>1905.47</ele>
        <time>2019-07-08T08:35:23Z</time>
      </trkpt>
      <trkpt lat="42.4836593773" lon="19.8856337741">
        <ele>1905.47</ele>
        <time>2019-07-08T08:35:34Z</time>
      </trkpt>
      <trkpt lat="42.4836890493" lon="19.8856528848">
        <ele>1906.91</ele>
        <time>2019-07-08T08:35:38Z</time>
      </trkpt>
      <trkpt lat="42.4837307911" lon="19.8857227061">
        <ele>1908.35</ele>
        <time>2019-07-08T08:35:50Z</time>
      </trkpt>
      <trkpt lat="42.4837563559" lon="19.8857200239">
        <ele>1909.32</ele>
        <time>2019-07-08T08:36:07Z</time>
      </trkpt>
      <trkpt lat="42.4837991875" lon="19.8857941199">
        <ele>1909.80</ele>
        <time>2019-07-08T08:36:21Z</time>
      </trkpt>
      <trkpt lat="42.4838415161" lon="19.8858517874">
        <ele>1910.76</ele>
        <time>2019-07-08T08:36:28Z</time>
      </trkpt>
      <trkpt lat="42.4838791508" lon="19.8859110475">
        <ele>1912.20</ele>
        <time>2019-07-08T08:36:37Z</time>
      </trkpt>
      <trkpt lat="42.4839099962" lon="19.8859428149">
        <ele>1914.12</ele>
        <time>2019-07-08T08:36:48Z</time>
      </trkpt>
      <trkpt lat="42.4839468766" lon="19.8859194294">
        <ele>1915.56</ele>
        <time>2019-07-08T08:37:00Z</time>
      </trkpt>
      <trkpt lat="42.4840081483" lon="19.8859677091">
        <ele>1917.97</ele>
        <time>2019-07-08T08:37:13Z</time>
      </trkpt>
      <trkpt lat="42.4840599485" lon="19.8859980516">
        <ele>1920.37</ele>
        <time>2019-07-08T08:37:28Z</time>
      </trkpt>
      <trkpt lat="42.4840960745" lon="19.8859420605">
        <ele>1922.77</ele>
        <time>2019-07-08T08:37:39Z</time>
      </trkpt>
      <trkpt lat="42.4841762893" lon="19.8859593272">
        <ele>1924.22</ele>
        <time>2019-07-08T08:37:53Z</time>
      </trkpt>
      <trkpt lat="42.4843194522" lon="19.8859133106">
        <ele>1925.18</ele>
        <time>2019-07-08T08:38:07Z</time>
      </trkpt>
      <trkpt lat="42.4843662232" lon="19.8859110475">
        <ele>1925.18</ele>
        <time>2019-07-08T08:38:13Z</time>
      </trkpt>
      <trkpt lat="42.4844569992" lon="19.8858398851">
        <ele>1925.66</ele>
        <time>2019-07-08T08:38:26Z</time>
      </trkpt>
      <trkpt lat="42.4845781177" lon="19.8858154099">
        <ele>1926.14</ele>
        <time>2019-07-08T08:38:39Z</time>
      </trkpt>
      <trkpt lat="42.4846270680" lon="19.8859041743">
        <ele>1928.06</ele>
        <time>2019-07-08T08:38:51Z</time>
      </trkpt>
      <trkpt lat="42.4847039301" lon="19.8859741632">
        <ele>1928.54</ele>
        <time>2019-07-08T08:39:03Z</time>
      </trkpt>
      <trkpt lat="42.4847080372" lon="19.8859850597">
        <ele>1928.54</ele>
        <time>2019-07-08T08:39:04Z</time>
      </trkpt>
      <trkpt lat="42.4847747572" lon="19.8860389553">
        <ele>1928.54</ele>
        <time>2019-07-08T08:39:14Z</time>
      </trkpt>
      <trkpt lat="42.4847867433" lon="19.8860725667">
        <ele>1929.02</ele>
        <time>2019-07-08T08:39:18Z</time>
      </trkpt>
      <trkpt lat="42.4848077819" lon="19.8860764224">
        <ele>1929.02</ele>
        <time>2019-07-08T08:39:21Z</time>
      </trkpt>
      <trkpt lat="42.4848652817" lon="19.8860926833">
        <ele>1929.02</ele>
        <time>2019-07-08T08:39:30Z</time>
      </trkpt>
      <trkpt lat="42.4848941993" lon="19.8860913422">
        <ele>1929.02</ele>
        <time>2019-07-08T08:39:33Z</time>
      </trkpt>
      <trkpt lat="42.4849713128" lon="19.8861563019">
        <ele>1929.50</ele>
        <time>2019-07-08T08:39:44Z</time>
      </trkpt>
      <trkpt lat="42.4850642681" lon="19.8862009775">
        <ele>1930.46</ele>
        <time>2019-07-08T08:39:56Z</time>
      </trkpt>
      <trkpt lat="42.4851498473" lon="19.8862681165">
        <ele>1930.95</ele>
        <time>2019-07-08T08:40:08Z</time>
      </trkpt>
      <trkpt lat="42.4852200877" lon="19.8863502592">
        <ele>1930.95</ele>
        <time>2019-07-08T08:40:19Z</time>
      </trkpt>
      <trkpt lat="42.4852349237" lon="19.8863482475">
        <ele>1929.50</ele>
        <time>2019-07-08T08:40:21Z</time>
      </trkpt>
      <trkpt lat="42.4852854665" lon="19.8863452300">
        <ele>1929.50</ele>
        <time>2019-07-08T08:40:28Z</time>
      </trkpt>
      <trkpt lat="42.4853417929" lon="19.8863577191">
        <ele>1930.95</ele>
        <time>2019-07-08T08:40:35Z</time>
      </trkpt>
      <trkpt lat="42.4854096863" lon="19.8863506783">
        <ele>1931.43</ele>
        <time>2019-07-08T08:40:42Z</time>
      </trkpt>
      <trkpt lat="42.4854601454" lon="19.8863791768">
        <ele>1931.91</ele>
        <time>2019-07-08T08:40:48Z</time>
      </trkpt>
      <trkpt lat="42.4854852911" lon="19.8863847088">
        <ele>1931.91</ele>
        <time>2019-07-08T08:40:51Z</time>
      </trkpt>
      <trkpt lat="42.4856004585" lon="19.8864097707">
        <ele>1931.91</ele>
        <time>2019-07-08T08:41:03Z</time>
      </trkpt>
      <trkpt lat="42.4856197368" lon="19.8864108603">
        <ele>1931.91</ele>
        <time>2019-07-08T08:41:05Z</time>
      </trkpt>
      <trkpt lat="42.4856384285" lon="19.8864295520">
        <ele>1932.87</ele>
        <time>2019-07-08T08:41:07Z</time>
      </trkpt>
      <trkpt lat="42.4857284501" lon="19.8864744790">
        <ele>1933.35</ele>
        <time>2019-07-08T08:41:16Z</time>
      </trkpt>
      <trkpt lat="42.4858388398" lon="19.8865123652">
        <ele>1934.31</ele>
        <time>2019-07-08T08:41:27Z</time>
      </trkpt>
      <trkpt lat="42.4858658295" lon="19.8864915781">
        <ele>1934.31</ele>
        <time>2019-07-08T08:41:30Z</time>
      </trkpt>
      <trkpt lat="42.4859965034" lon="19.8864737246">
        <ele>1935.27</ele>
        <time>2019-07-08T08:41:44Z</time>
      </trkpt>
      <trkpt lat="42.4861348048" lon="19.8864660133">
        <ele>1936.71</ele>
        <time>2019-07-08T08:41:58Z</time>
      </trkpt>
      <trkpt lat="42.4862226471" lon="19.8864584696">
        <ele>1938.16</ele>
        <time>2019-07-08T08:42:12Z</time>
      </trkpt>
      <trkpt lat="42.4863766227" lon="19.8865110241">
        <ele>1939.12</ele>
        <time>2019-07-08T08:42:27Z</time>
      </trkpt>
      <trkpt lat="42.4864805583" lon="19.8865477368">
        <ele>1940.08</ele>
        <time>2019-07-08T08:42:38Z</time>
      </trkpt>
      <trkpt lat="42.4865112361" lon="19.8865632433">
        <ele>1940.56</ele>
        <time>2019-07-08T08:42:42Z</time>
      </trkpt>
      <trkpt lat="42.4865546543" lon="19.8865908198">
        <ele>1941.04</ele>
        <time>2019-07-08T08:42:48Z</time>
      </trkpt>
      <trkpt lat="42.4866612721" lon="19.8866706993">
        <ele>1942.48</ele>
        <time>2019-07-08T08:43:02Z</time>
      </trkpt>
      <trkpt lat="42.4867619388" lon="19.8867019638">
        <ele>1943.92</ele>
        <time>2019-07-08T08:43:15Z</time>
      </trkpt>
      <trkpt lat="42.4868497811" lon="19.8867380060">
        <ele>1944.88</ele>
        <time>2019-07-08T08:43:26Z</time>
      </trkpt>
      <trkpt lat="42.4869469274" lon="19.8867711984">
        <ele>1946.81</ele>
        <time>2019-07-08T08:43:39Z</time>
      </trkpt>
      <trkpt lat="42.4869517051" lon="19.8867748026">
        <ele>1947.29</ele>
        <time>2019-07-08T08:43:40Z</time>
      </trkpt>
      <trkpt lat="42.4870484322" lon="19.8867558595">
        <ele>1949.21</ele>
        <time>2019-07-08T08:43:53Z</time>
      </trkpt>
      <trkpt lat="42.4871225283" lon="19.8868063185">
        <ele>1950.65</ele>
        <time>2019-07-08T08:44:05Z</time>
      </trkpt>
      <trkpt lat="42.4871770106" lon="19.8868450429">
        <ele>1952.57</ele>
        <time>2019-07-08T08:44:17Z</time>
      </trkpt>
      <trkpt lat="42.4872514419" lon="19.8869141098">
        <ele>1954.98</ele>
        <time>2019-07-08T08:44:31Z</time>
      </trkpt>
      <trkpt lat="42.4872869812" lon="19.8869318794">
        <ele>1956.90</ele>
        <time>2019-07-08T08:44:43Z</time>
      </trkpt>
      <trkpt lat="42.4873667769" lon="19.8869378306">
        <ele>1958.34</ele>
        <time>2019-07-08T08:44:57Z</time>
      </trkpt>
      <trkpt lat="42.4874346703" lon="19.8869513255">
        <ele>1960.75</ele>
        <time>2019-07-08T08:45:08Z</time>
      </trkpt>
      <trkpt lat="42.4875155557" lon="19.8869445361">
        <ele>1962.67</ele>
        <time>2019-07-08T08:45:19Z</time>
      </trkpt>
      <trkpt lat="42.4875935074" lon="19.8869770579">
        <ele>1964.59</ele>
        <time>2019-07-08T08:45:32Z</time>
      </trkpt>
      <trkpt lat="42.4876665138" lon="19.8870324623">
        <ele>1966.03</ele>
        <time>2019-07-08T08:45:44Z</time>
      </trkpt>
      <trkpt lat="42.4877426215" lon="19.8870541714">
        <ele>1968.92</ele>
        <time>2019-07-08T08:45:57Z</time>
      </trkpt>
      <trkpt lat="42.4877645820" lon="19.8870440293">
        <ele>1968.92</ele>
        <time>2019-07-08T08:46:12Z</time>
      </trkpt>
      <trkpt lat="42.4877910689" lon="19.8870923091">
        <ele>1969.40</ele>
        <time>2019-07-08T08:46:16Z</time>
      </trkpt>
      <trkpt lat="42.4878634885" lon="19.8871950712">
        <ele>1971.80</ele>
        <time>2019-07-08T08:46:28Z</time>
      </trkpt>
      <trkpt lat="42.4878694396" lon="19.8872029502">
        <ele>1971.32</ele>
        <time>2019-07-08T08:46:29Z</time>
      </trkpt>
      <trkpt lat="42.4879726209" lon="19.8872384056">
        <ele>1973.72</ele>
        <time>2019-07-08T08:46:43Z</time>
      </trkpt>
      <trkpt lat="42.4880370777" lon="19.8872943968">
        <ele>1976.13</ele>
        <time>2019-07-08T08:46:55Z</time>
      </trkpt>
      <trkpt lat="42.4881027918" lon="19.8873388208">
        <ele>1978.05</ele>
        <time>2019-07-08T08:47:07Z</time>
      </trkpt>
      <trkpt lat="42.4881195556" lon="19.8873461131">
        <ele>1978.53</ele>
        <time>2019-07-08T08:47:09Z</time>
      </trkpt>
      <trkpt lat="42.4881614652" lon="19.8873686604">
        <ele>1979.01</ele>
        <time>2019-07-08T08:47:16Z</time>
      </trkpt>
      <trkpt lat="42.4882193003" lon="19.8874295969">
        <ele>1981.41</ele>
        <time>2019-07-08T08:47:27Z</time>
      </trkpt>
      <trkpt lat="42.4882959947" lon="19.8874972388">
        <ele>1983.34</ele>
        <time>2019-07-08T08:47:41Z</time>
      </trkpt>
      <trkpt lat="42.4883602001" lon="19.8875071295">
        <ele>1983.82</ele>
        <time>2019-07-08T08:47:50Z</time>
      </trkpt>
      <trkpt lat="42.4884629622" lon="19.8875345383">
        <ele>1985.26</ele>
        <time>2019-07-08T08:48:04Z</time>
      </trkpt>
      <trkpt lat="42.4885428417" lon="19.8875637073">
        <ele>1986.22</ele>
        <time>2019-07-08T08:48:16Z</time>
      </trkpt>
      <trkpt lat="42.4886290915" lon="19.8876160104">
        <ele>1989.10</ele>
        <time>2019-07-08T08:48:29Z</time>
      </trkpt>
      <trkpt lat="42.4886896089" lon="19.8876479454">
        <ele>1991.03</ele>
        <time>2019-07-08T08:48:42Z</time>
      </trkpt>
      <trkpt lat="42.4887508806" lon="19.8876796290">
        <ele>1993.43</ele>
        <time>2019-07-08T08:48:54Z</time>
      </trkpt>
      <trkpt lat="42.4888192769" lon="19.8877211194">
        <ele>1993.43</ele>
        <time>2019-07-08T08:49:03Z</time>
      </trkpt>
      <trkpt lat="42.4888784532" lon="19.8877895996">
        <ele>1994.87</ele>
        <time>2019-07-08T08:49:12Z</time>
      </trkpt>
      <trkpt lat="42.4889504537" lon="19.8878793698">
        <ele>1996.80</ele>
        <time>2019-07-08T08:49:24Z</time>
      </trkpt>
      <trkpt lat="42.4889768567" lon="19.8878880870">
        <ele>1997.28</ele>
        <time>2019-07-08T08:49:27Z</time>
      </trkpt>
      <trkpt lat="42.4890685547" lon="19.8879451677">
        <ele>1998.72</ele>
        <time>2019-07-08T08:49:39Z</time>
      </trkpt>
      <trkpt lat="42.4890749250" lon="19.8879565671">
        <ele>1998.72</ele>
        <time>2019-07-08T08:49:40Z</time>
      </trkpt>
      <trkpt lat="42.4891242944" lon="19.8880214430">
        <ele>2001.12</ele>
        <time>2019-07-08T08:49:51Z</time>
      </trkpt>
      <trkpt lat="42.4891781062" lon="19.8880774342">
        <ele>2003.52</ele>
        <time>2019-07-08T08:50:03Z</time>
      </trkpt>
      <trkpt lat="42.4892213568" lon="19.8881055973">
        <ele>2005.45</ele>
        <time>2019-07-08T08:50:14Z</time>
      </trkpt>
      <trkpt lat="42.4892998952" lon="19.8881392926">
        <ele>2007.37</ele>
        <time>2019-07-08T08:50:28Z</time>
      </trkpt>
      <trkpt lat="42.4893249571" lon="19.8881820403">
        <ele>2009.29</ele>
        <time>2019-07-08T08:50:40Z</time>
      </trkpt>
      <trkpt lat="42.4894025736" lon="19.8882191721">
        <ele>2012.18</ele>
        <time>2019-07-08T08:50:55Z</time>
      </trkpt>
      <trkpt lat="42.4895029888" lon="19.8882636800">
        <ele>2012.66</ele>
        <time>2019-07-08T08:51:08Z</time>
      </trkpt>
      <trkpt lat="42.4895531964" lon="19.8883517738">
        <ele>2013.62</ele>
        <time>2019-07-08T08:51:19Z</time>
      </trkpt>
      <trkpt lat="42.4895758275" lon="19.8884025682">
        <ele>2014.58</ele>
        <time>2019-07-08T08:51:32Z</time>
      </trkpt>
      <trkpt lat="42.4896065053" lon="19.8884564638">
        <ele>2014.58</ele>
        <time>2019-07-08T08:51:38Z</time>
      </trkpt>
      <trkpt lat="42.4896546174" lon="19.8885127902">
        <ele>2014.58</ele>
        <time>2019-07-08T08:51:45Z</time>
      </trkpt>
      <trkpt lat="42.4896699563" lon="19.8886139598">
        <ele>2016.02</ele>
        <time>2019-07-08T08:51:56Z</time>
      </trkpt>
      <trkpt lat="42.4896745663" lon="19.8886442184">
        <ele>2016.02</ele>
        <time>2019-07-08T08:52:00Z</time>
      </trkpt>
      <trkpt lat="42.4896911625" lon="19.8887490761">
        <ele>2016.02</ele>
        <time>2019-07-08T08:52:10Z</time>
      </trkpt>
      <trkpt lat="42.4897326529" lon="19.8888932448">
        <ele>2016.50</ele>
        <time>2019-07-08T08:52:24Z</time>
      </trkpt>
      <trkpt lat="42.4897264503" lon="19.8889439553">
        <ele>2016.98</ele>
        <time>2019-07-08T08:52:42Z</time>
      </trkpt>
      <trkpt lat="42.4897567090" lon="19.8889468051">
        <ele>2016.02</ele>
        <time>2019-07-08T08:52:56Z</time>
      </trkpt>
      <trkpt lat="42.4897884764" lon="19.8889482301">
        <ele>2016.50</ele>
        <time>2019-07-08T08:53:32Z</time>
      </trkpt>
      <trkpt lat="42.4897995405" lon="19.8889041413">
        <ele>2016.98</ele>
        <time>2019-07-08T08:54:08Z</time>
      </trkpt>
      <trkpt lat="42.4898208305" lon="19.8889100924">
        <ele>2016.98</ele>
        <time>2019-07-08T08:54:25Z</time>
      </trkpt>
      <trkpt lat="42.4897577148" lon="19.8889348190">
        <ele>2017.46</ele>
        <time>2019-07-08T08:54:38Z</time>
      </trkpt>
      <trkpt lat="42.4897650909" lon="19.8889306281">
        <ele>2017.46</ele>
        <time>2019-07-08T08:55:06Z</time>
      </trkpt>
      <trkpt lat="42.4897692818" lon="19.8889240902">
        <ele>2017.94</ele>
        <time>2019-07-08T08:55:32Z</time>
      </trkpt>
      <trkpt lat="42.4897448067" lon="19.8889240064">
        <ele>2017.94</ele>
        <time>2019-07-08T08:56:02Z</time>
      </trkpt>
      <trkpt lat="42.4897458125" lon="19.8889406025">
        <ele>2019.39</ele>
        <time>2019-07-08T08:56:41Z</time>
      </trkpt>
      <trkpt lat="42.4897835311" lon="19.8889073264">
        <ele>2019.87</ele>
        <time>2019-07-08T08:57:22Z</time>
      </trkpt>
      <trkpt lat="42.4897515122" lon="19.8889206536">
        <ele>2020.35</ele>
        <time>2019-07-08T08:57:58Z</time>
      </trkpt>
      <trkpt lat="42.4897787534" lon="19.8888952564">
        <ele>2019.39</ele>
        <time>2019-07-08T08:58:36Z</time>
      </trkpt>
      <trkpt lat="42.4897726346" lon="19.8889268562">
        <ele>2019.39</ele>
        <time>2019-07-08T08:59:13Z</time>
      </trkpt>
      <trkpt lat="42.4897779990" lon="19.8889038898">
        <ele>2019.87</ele>
        <time>2019-07-08T08:59:43Z</time>
      </trkpt>
      <trkpt lat="42.4897774123" lon="19.8889152054">
        <ele>2018.91</ele>
        <time>2019-07-08T09:00:21Z</time>
      </trkpt>
      <trkpt lat="42.4897603132" lon="19.8888986092">
        <ele>2018.91</ele>
        <time>2019-07-08T09:01:05Z</time>
      </trkpt>
      <trkpt lat="42.4897707067" lon="19.8889250122">
        <ele>2019.39</ele>
        <time>2019-07-08T09:01:49Z</time>
      </trkpt>
      <trkpt lat="42.4897543620" lon="19.8889054824">
        <ele>2019.87</ele>
        <time>2019-07-08T09:02:25Z</time>
      </trkpt>
      <trkpt lat="42.4897784181" lon="19.8889063206">
        <ele>2019.87</ele>
        <time>2019-07-08T09:03:01Z</time>
      </trkpt>
      <trkpt lat="42.4897643365" lon="19.8889368307">
        <ele>2020.35</ele>
        <time>2019-07-08T09:03:26Z</time>
      </trkpt>
      <trkpt lat="42.4897661805" lon="19.8889452964">
        <ele>2022.27</ele>
        <time>2019-07-08T09:04:06Z</time>
      </trkpt>
      <trkpt lat="42.4897679407" lon="19.8889442906">
        <ele>2023.23</ele>
        <time>2019-07-08T09:04:25Z</time>
      </trkpt>
      <trkpt lat="42.4897781666" lon="19.8889805842">
        <ele>2023.71</ele>
        <time>2019-07-08T09:04:41Z</time>
      </trkpt>
      <trkpt lat="42.4897631630" lon="19.8890936561">
        <ele>2021.31</ele>
        <time>2019-07-08T09:04:53Z</time>
      </trkpt>
      <trkpt lat="42.4897569604" lon="19.8891241662">
        <ele>2020.83</ele>
        <time>2019-07-08T09:04:56Z</time>
      </trkpt>
      <trkpt lat="42.4897648394" lon="19.8893151060">
        <ele>2019.39</ele>
        <time>2019-07-08T09:05:11Z</time>
      </trkpt>
      <trkpt lat="42.4897702038" lon="19.8894438520">
        <ele>2018.91</ele>
        <time>2019-07-08T09:05:24Z</time>
      </trkpt>
      <trkpt lat="42.4897870515" lon="19.8895436805">
        <ele>2018.91</ele>
        <time>2019-07-08T09:05:37Z</time>
      </trkpt>
      <trkpt lat="42.4897820223" lon="19.8895778786">
        <ele>2018.43</ele>
        <time>2019-07-08T09:05:52Z</time>
      </trkpt>
      <trkpt lat="42.4897981156" lon="19.8896697443">
        <ele>2017.94</ele>
        <time>2019-07-08T09:06:05Z</time>
      </trkpt>
      <trkpt lat="42.4898013007" lon="19.8897561617">
        <ele>2019.39</ele>
        <time>2019-07-08T09:06:17Z</time>
      </trkpt>
      <trkpt lat="42.4898057431" lon="19.8897620291">
        <ele>2019.39</ele>
        <time>2019-07-08T09:06:18Z</time>
      </trkpt>
      <trkpt lat="42.4898086768" lon="19.8898393940">
        <ele>2019.39</ele>
        <time>2019-07-08T09:06:27Z</time>
      </trkpt>
      <trkpt lat="42.4897764903" lon="19.8899585009">
        <ele>2020.35</ele>
        <time>2019-07-08T09:06:41Z</time>
      </trkpt>
      <trkpt lat="42.4897359218" lon="19.8900234606">
        <ele>2022.27</ele>
        <time>2019-07-08T09:06:53Z</time>
      </trkpt>
      <trkpt lat="42.4897095188" lon="19.8900976405">
        <ele>2024.67</ele>
        <time>2019-07-08T09:07:05Z</time>
      </trkpt>
      <trkpt lat="42.4897045735" lon="19.8901694734">
        <ele>2025.64</ele>
        <time>2019-07-08T09:07:21Z</time>
      </trkpt>
      <trkpt lat="42.4897106085" lon="19.8902552202">
        <ele>2025.64</ele>
        <time>2019-07-08T09:07:33Z</time>
      </trkpt>
      <trkpt lat="42.4897275399" lon="19.8902876582">
        <ele>2024.19</ele>
        <time>2019-07-08T09:07:48Z</time>
      </trkpt>
      <trkpt lat="42.4897595588" lon="19.8902705591">
        <ele>2023.71</ele>
        <time>2019-07-08T09:07:59Z</time>
      </trkpt>
      <trkpt lat="42.4897740595" lon="19.8902601656">
        <ele>2023.71</ele>
        <time>2019-07-08T09:08:15Z</time>
      </trkpt>
      <trkpt lat="42.4897765741" lon="19.8902740795">
        <ele>2023.23</ele>
        <time>2019-07-08T09:08:29Z</time>
      </trkpt>
      <trkpt lat="42.4897559546" lon="19.8902762588">
        <ele>2023.23</ele>
        <time>2019-07-08T09:08:54Z</time>
      </trkpt>
      <trkpt lat="42.4897513445" lon="19.8902531248">
        <ele>2023.23</ele>
        <time>2019-07-08T09:09:29Z</time>
      </trkpt>
      <trkpt lat="42.4897466507" lon="19.8902443238">
        <ele>2023.23</ele>
        <time>2019-07-08T09:10:04Z</time>
      </trkpt>
      <trkpt lat="42.4897592235" lon="19.8902512807">
        <ele>2023.23</ele>
        <time>2019-07-08T09:10:40Z</time>
      </trkpt>
      <trkpt lat="42.4897653423" lon="19.8902632669">
        <ele>2023.23</ele>
        <time>2019-07-08T09:11:20Z</time>
      </trkpt>
      <trkpt lat="42.4897560384" lon="19.8902464192">
        <ele>2023.23</ele>
        <time>2019-07-08T09:11:52Z</time>
      </trkpt>
      <trkpt lat="42.4897797592" lon="19.8902562261">
        <ele>2023.23</ele>
        <time>2019-07-08T09:12:23Z</time>
      </trkpt>
      <trkpt lat="42.4897664320" lon="19.8902921844">
        <ele>2023.71</ele>
        <time>2019-07-08T09:13:03Z</time>
      </trkpt>
      <trkpt lat="42.4897845369" lon="19.8902884126">
        <ele>2023.71</ele>
        <time>2019-07-08T09:13:44Z</time>
      </trkpt>
      <trkpt lat="42.4897800107" lon="19.8903651070">
        <ele>2025.15</ele>
        <time>2019-07-08T09:14:17Z</time>
      </trkpt>
      <trkpt lat="42.4898064137" lon="19.8903653584">
        <ele>2025.64</ele>
        <time>2019-07-08T09:14:44Z</time>
      </trkpt>
      <trkpt lat="42.4897610676" lon="19.8902587406">
        <ele>2027.08</ele>
        <time>2019-07-08T09:15:02Z</time>
      </trkpt>
      <trkpt lat="42.4897722155" lon="19.8902574833">
        <ele>2025.64</ele>
        <time>2019-07-08T09:15:21Z</time>
      </trkpt>
      <trkpt lat="42.4897638336" lon="19.8902626801">
        <ele>2025.15</ele>
        <time>2019-07-08T09:15:37Z</time>
      </trkpt>
      <trkpt lat="42.4897586368" lon="19.8902581539">
        <ele>2026.12</ele>
        <time>2019-07-08T09:15:53Z</time>
      </trkpt>
      <trkpt lat="42.4897065852" lon="19.8902482633">
        <ele>2027.56</ele>
        <time>2019-07-08T09:16:06Z</time>
      </trkpt>
      <trkpt lat="42.4897015560" lon="19.8902477603">
        <ele>2028.04</ele>
        <time>2019-07-08T09:16:07Z</time>
      </trkpt>
      <trkpt lat="42.4896762427" lon="19.8903541267">
        <ele>2030.44</ele>
        <time>2019-07-08T09:16:18Z</time>
      </trkpt>
      <trkpt lat="42.4896762427" lon="19.8904159013">
        <ele>2032.84</ele>
        <time>2019-07-08T09:16:31Z</time>
      </trkpt>
      <trkpt lat="42.4896597303" lon="19.8904344253">
        <ele>2034.29</ele>
        <time>2019-07-08T09:16:35Z</time>
      </trkpt>
      <trkpt lat="42.4896392785" lon="19.8904577270">
        <ele>2035.25</ele>
        <time>2019-07-08T09:16:48Z</time>
      </trkpt>
      <trkpt lat="42.4895782582" lon="19.8904817831">
        <ele>2038.61</ele>
        <time>2019-07-08T09:17:01Z</time>
      </trkpt>
      <trkpt lat="42.4895808566" lon="19.8904907517">
        <ele>2038.61</ele>
        <time>2019-07-08T09:17:02Z</time>
      </trkpt>
      <trkpt lat="42.4895540345" lon="19.8905936815">
        <ele>2040.54</ele>
        <time>2019-07-08T09:17:13Z</time>
      </trkpt>
      <trkpt lat="42.4895290565" lon="19.8906565458">
        <ele>2043.42</ele>
        <time>2019-07-08T09:17:25Z</time>
      </trkpt>
      <trkpt lat="42.4895158131" lon="19.8906660173">
        <ele>2045.34</ele>
        <time>2019-07-08T09:17:36Z</time>
      </trkpt>
      <trkpt lat="42.4894884881" lon="19.8906737287">
        <ele>2048.23</ele>
        <time>2019-07-08T09:17:49Z</time>
      </trkpt>
      <trkpt lat="42.4894361012" lon="19.8907126207">
        <ele>2049.67</ele>
        <time>2019-07-08T09:18:01Z</time>
      </trkpt>
      <trkpt lat="42.4893962871" lon="19.8908396065">
        <ele>2051.59</ele>
        <time>2019-07-08T09:18:16Z</time>
      </trkpt>
      <trkpt lat="42.4893513601" lon="19.8909275327">
        <ele>2053.99</ele>
        <time>2019-07-08T09:18:30Z</time>
      </trkpt>
      <trkpt lat="42.4893307406" lon="19.8909691069">
        <ele>2055.44</ele>
        <time>2019-07-08T09:18:44Z</time>
      </trkpt>
      <trkpt lat="42.4892831314" lon="19.8910326418">
        <ele>2056.88</ele>
        <time>2019-07-08T09:19:01Z</time>
      </trkpt>
      <trkpt lat="42.4892398808" lon="19.8910967633">
        <ele>2058.80</ele>
        <time>2019-07-08T09:19:14Z</time>
      </trkpt>
      <trkpt lat="42.4892216921" lon="19.8911292851">
        <ele>2061.20</ele>
        <time>2019-07-08T09:19:27Z</time>
      </trkpt>
      <trkpt lat="42.4892061017" lon="19.8911903892">
        <ele>2063.61</ele>
        <time>2019-07-08T09:19:38Z</time>
      </trkpt>
      <trkpt lat="42.4892009888" lon="19.8912972584">
        <ele>2066.01</ele>
        <time>2019-07-08T09:19:52Z</time>
      </trkpt>
      <trkpt lat="42.4891772680" lon="19.8913572729">
        <ele>2068.89</ele>
        <time>2019-07-08T09:20:05Z</time>
      </trkpt>
      <trkpt lat="42.4891649466" lon="19.8914220650">
        <ele>2070.82</ele>
        <time>2019-07-08T09:20:16Z</time>
      </trkpt>
      <trkpt lat="42.4891644437" lon="19.8915242404">
        <ele>2073.22</ele>
        <time>2019-07-08T09:20:29Z</time>
      </trkpt>
      <trkpt lat="42.4891465064" lon="19.8915492184">
        <ele>2075.62</ele>
        <time>2019-07-08T09:20:43Z</time>
      </trkpt>
      <trkpt lat="42.4891275633" lon="19.8915983364">
        <ele>2077.55</ele>
        <time>2019-07-08T09:20:55Z</time>
      </trkpt>
      <trkpt lat="42.4891127273" lon="19.8916679062">
        <ele>2080.91</ele>
        <time>2019-07-08T09:21:08Z</time>
      </trkpt>
      <trkpt lat="42.4890877493" lon="19.8917282559">
        <ele>2083.79</ele>
        <time>2019-07-08T09:21:22Z</time>
      </trkpt>
      <trkpt lat="42.4890811276" lon="19.8917956464">
        <ele>2085.24</ele>
        <time>2019-07-08T09:21:34Z</time>
      </trkpt>
      <trkpt lat="42.4890697282" lon="19.8918900266">
        <ele>2088.12</ele>
        <time>2019-07-08T09:21:48Z</time>
      </trkpt>
      <trkpt lat="42.4890673812" lon="19.8919789586">
        <ele>2090.52</ele>
        <time>2019-07-08T09:22:00Z</time>
      </trkpt>
      <trkpt lat="42.4890476838" lon="19.8920793738">
        <ele>2093.89</ele>
        <time>2019-07-08T09:22:13Z</time>
      </trkpt>
      <trkpt lat="42.4890457559" lon="19.8921479378">
        <ele>2095.33</ele>
        <time>2019-07-08T09:22:24Z</time>
      </trkpt>
      <trkpt lat="42.4890430737" lon="19.8922241293">
        <ele>2097.25</ele>
        <time>2019-07-08T09:22:36Z</time>
      </trkpt>
      <trkpt lat="42.4890276510" lon="19.8923246283">
        <ele>2100.62</ele>
        <time>2019-07-08T09:22:48Z</time>
      </trkpt>
      <trkpt lat="42.4890187662" lon="19.8924076091">
        <ele>2103.02</ele>
        <time>2019-07-08T09:23:00Z</time>
      </trkpt>
      <trkpt lat="42.4890077021" lon="19.8925188370">
        <ele>2105.91</ele>
        <time>2019-07-08T09:23:15Z</time>
      </trkpt>
      <trkpt lat="42.4889898486" lon="19.8926228564">
        <ele>2108.79</ele>
        <time>2019-07-08T09:23:28Z</time>
      </trkpt>
      <trkpt lat="42.4889808800" lon="19.8927010596">
        <ele>2111.19</ele>
        <time>2019-07-08T09:23:41Z</time>
      </trkpt>
      <trkpt lat="42.4889976438" lon="19.8927773349">
        <ele>2113.12</ele>
        <time>2019-07-08T09:23:55Z</time>
      </trkpt>
      <trkpt lat="42.4889659602" lon="19.8928432167">
        <ele>2114.08</ele>
        <time>2019-07-08T09:24:04Z</time>
      </trkpt>
      <trkpt lat="42.4889559858" lon="19.8929280415">
        <ele>2115.52</ele>
        <time>2019-07-08T09:24:14Z</time>
      </trkpt>
      <trkpt lat="42.4890015833" lon="19.8930073343">
        <ele>2116.96</ele>
        <time>2019-07-08T09:24:25Z</time>
      </trkpt>
      <trkpt lat="42.4890056904" lon="19.8930587992">
        <ele>2116.96</ele>
        <time>2019-07-08T09:24:31Z</time>
      </trkpt>
      <trkpt lat="42.4890350271" lon="19.8931800015">
        <ele>2116.96</ele>
        <time>2019-07-08T09:24:43Z</time>
      </trkpt>
      <trkpt lat="42.4890413973" lon="19.8932708614">
        <ele>2119.36</ele>
        <time>2019-07-08T09:24:52Z</time>
      </trkpt>
      <trkpt lat="42.4890795350" lon="19.8934105877">
        <ele>2120.32</ele>
        <time>2019-07-08T09:25:05Z</time>
      </trkpt>
      <trkpt lat="42.4891041778" lon="19.8934669979">
        <ele>2120.81</ele>
        <time>2019-07-08T09:25:10Z</time>
      </trkpt>
      <trkpt lat="42.4891938642" lon="19.8936206382">
        <ele>2121.29</ele>
        <time>2019-07-08T09:25:22Z</time>
      </trkpt>
      <trkpt lat="42.4892123044" lon="19.8937182035">
        <ele>2123.21</ele>
        <time>2019-07-08T09:25:32Z</time>
      </trkpt>
      <trkpt lat="42.4892398808" lon="19.8938277550">
        <ele>2123.21</ele>
        <time>2019-07-08T09:25:43Z</time>
      </trkpt>
      <trkpt lat="42.4892618414" lon="19.8938778788">
        <ele>2123.21</ele>
        <time>2019-07-08T09:25:47Z</time>
      </trkpt>
      <trkpt lat="42.4892818742" lon="19.8939298466">
        <ele>2123.69</ele>
        <time>2019-07-08T09:25:51Z</time>
      </trkpt>
      <trkpt lat="42.4892977159" lon="19.8939544894">
        <ele>2124.17</ele>
        <time>2019-07-08T09:25:53Z</time>
      </trkpt>
      <trkpt lat="42.4894349277" lon="19.8940316867">
        <ele>2122.73</ele>
        <time>2019-07-08T09:26:04Z</time>
      </trkpt>
      <trkpt lat="42.4895411264" lon="19.8940819781">
        <ele>2121.77</ele>
        <time>2019-07-08T09:26:16Z</time>
      </trkpt>
      <trkpt lat="42.4896087684" lon="19.8941559903">
        <ele>2124.17</ele>
        <time>2019-07-08T09:26:28Z</time>
      </trkpt>
      <trkpt lat="42.4895953573" lon="19.8942804616">
        <ele>2126.57</ele>
        <time>2019-07-08T09:26:44Z</time>
      </trkpt>
      <trkpt lat="42.4896246102" lon="19.8944077827">
        <ele>2129.46</ele>
        <time>2019-07-08T09:26:59Z</time>
      </trkpt>
      <trkpt lat="42.4896159768" lon="19.8944654502">
        <ele>2130.90</ele>
        <time>2019-07-08T09:27:09Z</time>
      </trkpt>
      <trkpt lat="42.4896049965" lon="19.8945105448">
        <ele>2133.30</ele>
        <time>2019-07-08T09:27:21Z</time>
      </trkpt>
      <trkpt lat="42.4896085169" lon="19.8945740797">
        <ele>2136.67</ele>
        <time>2019-07-08T09:27:34Z</time>
      </trkpt>
      <trkpt lat="42.4896333274" lon="19.8946796916">
        <ele>2138.59</ele>
        <time>2019-07-08T09:27:47Z</time>
      </trkpt>
      <trkpt lat="42.4896537792" lon="19.8947436456">
        <ele>2140.99</ele>
        <time>2019-07-08T09:28:01Z</time>
      </trkpt>
      <trkpt lat="42.4896499235" lon="19.8948093597">
        <ele>2143.88</ele>
        <time>2019-07-08T09:28:13Z</time>
      </trkpt>
      <trkpt lat="42.4896531925" lon="19.8948587291">
        <ele>2145.32</ele>
        <time>2019-07-08T09:28:26Z</time>
      </trkpt>
      <trkpt lat="42.4896434695" lon="19.8949355073">
        <ele>2147.24</ele>
        <time>2019-07-08T09:28:42Z</time>
      </trkpt>
      <trkpt lat="42.4896293040" lon="19.8949636705">
        <ele>2149.16</ele>
        <time>2019-07-08T09:28:55Z</time>
      </trkpt>
      <trkpt lat="42.4895924237" lon="19.8949997127">
        <ele>2151.09</ele>
        <time>2019-07-08T09:29:08Z</time>
      </trkpt>
      <trkpt lat="42.4895709660" lon="19.8950627446">
        <ele>2152.53</ele>
        <time>2019-07-08T09:29:19Z</time>
      </trkpt>
      <trkpt lat="42.4895246141" lon="19.8950888962">
        <ele>2154.45</ele>
        <time>2019-07-08T09:29:32Z</time>
      </trkpt>
      <trkpt lat="42.4894625880" lon="19.8951256089">
        <ele>2156.37</ele>
        <time>2019-07-08T09:29:46Z</time>
      </trkpt>
      <trkpt lat="42.4894011486" lon="19.8951624893">
        <ele>2158.30</ele>
        <time>2019-07-08T09:30:00Z</time>
      </trkpt>
      <trkpt lat="42.4893244542" lon="19.8952225875">
        <ele>2159.26</ele>
        <time>2019-07-08T09:30:14Z</time>
      </trkpt>
      <trkpt lat="42.4892238714" lon="19.8952776566">
        <ele>2159.74</ele>
        <time>2019-07-08T09:30:27Z</time>
      </trkpt>
      <trkpt lat="42.4891194329" lon="19.8953316361">
        <ele>2161.66</ele>
        <time>2019-07-08T09:30:42Z</time>
      </trkpt>
      <trkpt lat="42.4890266452" lon="19.8953815922">
        <ele>2163.10</ele>
        <time>2019-07-08T09:30:57Z</time>
      </trkpt>
      <trkpt lat="42.4889333546" lon="19.8953792453">
        <ele>2163.58</ele>
        <time>2019-07-08T09:31:11Z</time>
      </trkpt>
      <trkpt lat="42.4888467696" lon="19.8954460490">
        <ele>2165.51</ele>
        <time>2019-07-08T09:31:22Z</time>
      </trkpt>
      <trkpt lat="42.4888102245" lon="19.8953955062">
        <ele>2167.43</ele>
        <time>2019-07-08T09:31:33Z</time>
      </trkpt>
      <trkpt lat="42.4888232164" lon="19.8955268506">
        <ele>2170.31</ele>
        <time>2019-07-08T09:31:47Z</time>
      </trkpt>
      <trkpt lat="42.4887907784" lon="19.8955387529">
        <ele>2172.24</ele>
        <time>2019-07-08T09:32:00Z</time>
      </trkpt>
      <trkpt lat="42.4887596816" lon="19.8955822550">
        <ele>2175.60</ele>
        <time>2019-07-08T09:32:11Z</time>
      </trkpt>
      <trkpt lat="42.4888098054" lon="19.8957028706">
        <ele>2178.00</ele>
        <time>2019-07-08T09:32:24Z</time>
      </trkpt>
      <trkpt lat="42.4888923671" lon="19.8957689200">
        <ele>2179.93</ele>
        <time>2019-07-08T09:32:38Z</time>
      </trkpt>
      <trkpt lat="42.4889368750" lon="19.8957986757">
        <ele>2181.37</ele>
        <time>2019-07-08T09:32:47Z</time>
      </trkpt>
      <trkpt lat="42.4890051037" lon="19.8958552536">
        <ele>2183.77</ele>
        <time>2019-07-08T09:32:59Z</time>
      </trkpt>
      <trkpt lat="42.4890558142" lon="19.8958947323">
        <ele>2186.18</ele>
        <time>2019-07-08T09:33:11Z</time>
      </trkpt>
      <trkpt lat="42.4891358614" lon="19.8959216382">
        <ele>2189.06</ele>
        <time>2019-07-08T09:33:26Z</time>
      </trkpt>
      <trkpt lat="42.4892138969" lon="19.8959498852">
        <ele>2191.46</ele>
        <time>2019-07-08T09:33:41Z</time>
      </trkpt>
      <trkpt lat="42.4892224465" lon="19.8959642183">
        <ele>2193.87</ele>
        <time>2019-07-08T09:33:58Z</time>
      </trkpt>
      <trkpt lat="42.4891427346" lon="19.8959651403">
        <ele>2195.31</ele>
        <time>2019-07-08T09:34:12Z</time>
      </trkpt>
      <trkpt lat="42.4890926946" lon="19.8959653080">
        <ele>2196.27</ele>
        <time>2019-07-08T09:34:25Z</time>
      </trkpt>
      <trkpt lat="42.4890808761" lon="19.8959585186">
        <ele>2196.75</ele>
        <time>2019-07-08T09:34:27Z</time>
      </trkpt>
      <trkpt lat="42.4889807962" lon="19.8959524836">
        <ele>2198.67</ele>
        <time>2019-07-08T09:34:41Z</time>
      </trkpt>
      <trkpt lat="42.4889480229" lon="19.8959780484">
        <ele>2199.15</ele>
        <time>2019-07-08T09:34:49Z</time>
      </trkpt>
      <trkpt lat="42.4888813030" lon="19.8959950637">
        <ele>2199.15</ele>
        <time>2019-07-08T09:34:57Z</time>
      </trkpt>
      <trkpt lat="42.4887671415" lon="19.8960233107">
        <ele>2200.59</ele>
        <time>2019-07-08T09:35:12Z</time>
      </trkpt>
      <trkpt lat="42.4886460230" lon="19.8960376438">
        <ele>2201.08</ele>
        <time>2019-07-08T09:35:25Z</time>
      </trkpt>
      <trkpt lat="42.4885796383" lon="19.8960990831">
        <ele>2201.56</ele>
        <time>2019-07-08T09:35:38Z</time>
      </trkpt>
      <trkpt lat="42.4885448534" lon="19.8961047828">
        <ele>2202.04</ele>
        <time>2019-07-08T09:35:54Z</time>
      </trkpt>
      <trkpt lat="42.4884759542" lon="19.8961385619">
        <ele>2204.92</ele>
        <time>2019-07-08T09:36:07Z</time>
      </trkpt>
      <trkpt lat="42.4884276744" lon="19.8961352091">
        <ele>2207.81</ele>
        <time>2019-07-08T09:36:20Z</time>
      </trkpt>
      <trkpt lat="42.4883991759" lon="19.8961802199">
        <ele>2210.69</ele>
        <time>2019-07-08T09:36:36Z</time>
      </trkpt>
      <trkpt lat="42.4883255828" lon="19.8961848300">
        <ele>2213.09</ele>
        <time>2019-07-08T09:36:49Z</time>
      </trkpt>
      <trkpt lat="42.4882659875" lon="19.8961494584">
        <ele>2215.98</ele>
        <time>2019-07-08T09:37:03Z</time>
      </trkpt>
      <trkpt lat="42.4882051349" lon="19.8961485364">
        <ele>2218.38</ele>
        <time>2019-07-08T09:37:15Z</time>
      </trkpt>
      <trkpt lat="42.4881452043" lon="19.8961678986">
        <ele>2220.78</ele>
        <time>2019-07-08T09:37:31Z</time>
      </trkpt>
      <trkpt lat="42.4880849384" lon="19.8962041922">
        <ele>2223.67</ele>
        <time>2019-07-08T09:37:44Z</time>
      </trkpt>
      <trkpt lat="42.4880780652" lon="19.8962057848">
        <ele>2224.15</ele>
        <time>2019-07-08T09:37:45Z</time>
      </trkpt>
      <trkpt lat="42.4880393408" lon="19.8962626979">
        <ele>2227.03</ele>
        <time>2019-07-08T09:37:57Z</time>
      </trkpt>
      <trkpt lat="42.4880038016" lon="19.8963409010">
        <ele>2228.95</ele>
        <time>2019-07-08T09:38:11Z</time>
      </trkpt>
      <trkpt lat="42.4879768118" lon="19.8964380473">
        <ele>2231.84</ele>
        <time>2019-07-08T09:38:26Z</time>
      </trkpt>
      <trkpt lat="42.4880170450" lon="19.8964708205">
        <ele>2233.28</ele>
        <time>2019-07-08T09:38:33Z</time>
      </trkpt>
      <trkpt lat="42.4880862795" lon="19.8965228721">
        <ele>2235.68</ele>
        <time>2019-07-08T09:38:47Z</time>
      </trkpt>
      <trkpt lat="42.4880882911" lon="19.8965369537">
        <ele>2239.05</ele>
        <time>2019-07-08T09:39:03Z</time>
      </trkpt>
      <trkpt lat="42.4880857766" lon="19.8966010753">
        <ele>2240.49</ele>
        <time>2019-07-08T09:39:16Z</time>
      </trkpt>
      <trkpt lat="42.4881185498" lon="19.8966645263">
        <ele>2243.85</ele>
        <time>2019-07-08T09:39:27Z</time>
      </trkpt>
      <trkpt lat="42.4880820885" lon="19.8966983892">
        <ele>2246.26</ele>
        <time>2019-07-08T09:39:40Z</time>
      </trkpt>
      <trkpt lat="42.4880446214" lon="19.8967278097">
        <ele>2249.62</ele>
        <time>2019-07-08T09:39:52Z</time>
      </trkpt>
      <trkpt lat="42.4880050588" lon="19.8967985529">
        <ele>2250.58</ele>
        <time>2019-07-08T09:40:07Z</time>
      </trkpt>
      <trkpt lat="42.4880208168" lon="19.8968666978">
        <ele>2252.51</ele>
        <time>2019-07-08T09:40:21Z</time>
      </trkpt>
      <trkpt lat="42.4879632331" lon="19.8969257902">
        <ele>2255.39</ele>
        <time>2019-07-08T09:40:36Z</time>
      </trkpt>
      <trkpt lat="42.4880398437" lon="19.8970139679">
        <ele>2257.79</ele>
        <time>2019-07-08T09:40:51Z</time>
      </trkpt>
      <trkpt lat="42.4881375767" lon="19.8970284685">
        <ele>2260.20</ele>
        <time>2019-07-08T09:41:05Z</time>
      </trkpt>
      <trkpt lat="42.4882181268" lon="19.8970541172">
        <ele>2263.08</ele>
        <time>2019-07-08T09:41:17Z</time>
      </trkpt>
      <trkpt lat="42.4881756306" lon="19.8970559612">
        <ele>2265.96</ele>
        <time>2019-07-08T09:41:31Z</time>
      </trkpt>
      <trkpt lat="42.4881001934" lon="19.8970738985">
        <ele>2266.45</ele>
        <time>2019-07-08T09:41:45Z</time>
      </trkpt>
      <trkpt lat="42.4881009478" lon="19.8971115332">
        <ele>2268.37</ele>
        <time>2019-07-08T09:41:59Z</time>
      </trkpt>
      <trkpt lat="42.4880571105" lon="19.8971003853">
        <ele>2271.25</ele>
        <time>2019-07-08T09:42:10Z</time>
      </trkpt>
      <trkpt lat="42.4880224932" lon="19.8971050791">
        <ele>2274.62</ele>
        <time>2019-07-08T09:42:22Z</time>
      </trkpt>
      <trkpt lat="42.4879826792" lon="19.8971021455">
        <ele>2276.54</ele>
        <time>2019-07-08T09:42:30Z</time>
      </trkpt>
      <trkpt lat="42.4879141990" lon="19.8971130420">
        <ele>2278.94</ele>
        <time>2019-07-08T09:42:44Z</time>
      </trkpt>
      <trkpt lat="42.4879103433" lon="19.8971149698">
        <ele>2278.94</ele>
        <time>2019-07-08T09:42:45Z</time>
      </trkpt>
      <trkpt lat="42.4878817610" lon="19.8971194122">
        <ele>2279.90</ele>
        <time>2019-07-08T09:42:48Z</time>
      </trkpt>
      <trkpt lat="42.4877939187" lon="19.8971388582">
        <ele>2281.83</ele>
        <time>2019-07-08T09:43:01Z</time>
      </trkpt>
      <trkpt lat="42.4877419509" lon="19.8971606512">
        <ele>2284.71</ele>
        <time>2019-07-08T09:43:13Z</time>
      </trkpt>
      <trkpt lat="42.4877151288" lon="19.8971567117">
        <ele>2285.19</ele>
        <time>2019-07-08T09:43:17Z</time>
      </trkpt>
      <trkpt lat="42.4876265321" lon="19.8971989565">
        <ele>2287.11</ele>
        <time>2019-07-08T09:43:31Z</time>
      </trkpt>
      <trkpt lat="42.4876209162" lon="19.8972691130">
        <ele>2289.04</ele>
        <time>2019-07-08T09:43:44Z</time>
      </trkpt>
      <trkpt lat="42.4875476584" lon="19.8972805124">
        <ele>2291.92</ele>
        <time>2019-07-08T09:43:57Z</time>
      </trkpt>
      <trkpt lat="42.4874960259" lon="19.8973054066">
        <ele>2294.80</ele>
        <time>2019-07-08T09:44:11Z</time>
      </trkpt>
      <trkpt lat="42.4874101114" lon="19.8973010480">
        <ele>2297.69</ele>
        <time>2019-07-08T09:44:25Z</time>
      </trkpt>
      <trkpt lat="42.4873148929" lon="19.8973268643">
        <ele>2300.57</ele>
        <time>2019-07-08T09:44:41Z</time>
      </trkpt>
      <trkpt lat="42.4872366898" lon="19.8973654211">
        <ele>2303.46</ele>
        <time>2019-07-08T09:44:54Z</time>
      </trkpt>
      <trkpt lat="42.4871844705" lon="19.8974196520">
        <ele>2306.34</ele>
        <time>2019-07-08T09:45:08Z</time>
      </trkpt>
      <trkpt lat="42.4872216024" lon="19.8975084163">
        <ele>2309.22</ele>
        <time>2019-07-08T09:45:22Z</time>
      </trkpt>
      <trkpt lat="42.4872925133" lon="19.8975656647">
        <ele>2312.11</ele>
        <time>2019-07-08T09:45:37Z</time>
      </trkpt>
      <trkpt lat="42.4872532021" lon="19.8975636531">
        <ele>2314.99</ele>
        <time>2019-07-08T09:45:51Z</time>
      </trkpt>
      <trkpt lat="42.4872113764" lon="19.8975833505">
        <ele>2317.40</ele>
        <time>2019-07-08T09:46:04Z</time>
      </trkpt>
      <trkpt lat="42.4871922657" lon="19.8975911457">
        <ele>2319.32</ele>
        <time>2019-07-08T09:46:09Z</time>
      </trkpt>
      <trkpt lat="42.4871215224" lon="19.8975865357">
        <ele>2321.24</ele>
        <time>2019-07-08T09:46:22Z</time>
      </trkpt>
      <trkpt lat="42.4870283157" lon="19.8975771479">
        <ele>2322.20</ele>
        <time>2019-07-08T09:46:35Z</time>
      </trkpt>
      <trkpt lat="42.4869893398" lon="19.8975719512">
        <ele>2322.20</ele>
        <time>2019-07-08T09:46:39Z</time>
      </trkpt>
      <trkpt lat="42.4868524633" lon="19.8975756392">
        <ele>2323.64</ele>
        <time>2019-07-08T09:46:54Z</time>
      </trkpt>
      <trkpt lat="42.4867538922" lon="19.8975579534">
        <ele>2325.09</ele>
        <time>2019-07-08T09:47:07Z</time>
      </trkpt>
      <trkpt lat="42.4866597634" lon="19.8975550197">
        <ele>2326.05</ele>
        <time>2019-07-08T09:47:20Z</time>
      </trkpt>
      <trkpt lat="42.4865391478" lon="19.8975499067">
        <ele>2328.45</ele>
        <time>2019-07-08T09:47:35Z</time>
      </trkpt>
      <trkpt lat="42.4864447676" lon="19.8975328915">
        <ele>2330.37</ele>
        <time>2019-07-08T09:47:50Z</time>
      </trkpt>
      <trkpt lat="42.4863738567" lon="19.8975222465">
        <ele>2333.26</ele>
        <time>2019-07-08T09:48:02Z</time>
      </trkpt>
      <trkpt lat="42.4863106571" lon="19.8975249287">
        <ele>2336.62</ele>
        <time>2019-07-08T09:48:14Z</time>
      </trkpt>
      <trkpt lat="42.4862478767" lon="19.8975584563">
        <ele>2339.02</ele>
        <time>2019-07-08T09:48:27Z</time>
      </trkpt>
      <trkpt lat="42.4862039555" lon="19.8976067360">
        <ele>2342.39</ele>
        <time>2019-07-08T09:48:40Z</time>
      </trkpt>
      <trkpt lat="42.4861626327" lon="19.8976111785">
        <ele>2344.31</ele>
        <time>2019-07-08T09:48:53Z</time>
      </trkpt>
      <trkpt lat="42.4861568492" lon="19.8976068199">
        <ele>2346.23</ele>
        <time>2019-07-08T09:49:01Z</time>
      </trkpt>
      <trkpt lat="42.4860923085" lon="19.8975455482">
        <ele>2347.68</ele>
        <time>2019-07-08T09:49:15Z</time>
      </trkpt>
      <trkpt lat="42.4860490579" lon="19.8975718673">
        <ele>2350.08</ele>
        <time>2019-07-08T09:49:27Z</time>
      </trkpt>
      <trkpt lat="42.4859958328" lon="19.8975996953">
        <ele>2352.96</ele>
        <time>2019-07-08T09:49:40Z</time>
      </trkpt>
      <trkpt lat="42.4859493133" lon="19.8976390064">
        <ele>2356.33</ele>
        <time>2019-07-08T09:49:53Z</time>
      </trkpt>
      <trkpt lat="42.4859008659" lon="19.8976677563">
        <ele>2359.21</ele>
        <time>2019-07-08T09:50:07Z</time>
      </trkpt>
      <trkpt lat="42.4858808331" lon="19.8977465462">
        <ele>2359.21</ele>
        <time>2019-07-08T09:50:21Z</time>
      </trkpt>
      <trkpt lat="42.4858654942" lon="19.8978550080">
        <ele>2361.14</ele>
        <time>2019-07-08T09:50:35Z</time>
      </trkpt>
      <trkpt lat="42.4858542625" lon="19.8979053833">
        <ele>2364.02</ele>
        <time>2019-07-08T09:50:49Z</time>
      </trkpt>
      <trkpt lat="42.4858041387" lon="19.8979364801">
        <ele>2366.90</ele>
        <time>2019-07-08T09:51:02Z</time>
      </trkpt>
      <trkpt lat="42.4857636541" lon="19.8979670741">
        <ele>2369.79</ele>
        <time>2019-07-08T09:51:18Z</time>
      </trkpt>
      <trkpt lat="42.4857052322" lon="19.8980124202">
        <ele>2372.19</ele>
        <time>2019-07-08T09:51:30Z</time>
      </trkpt>
      <trkpt lat="42.4856535997" lon="19.8981031124">
        <ele>2375.07</ele>
        <time>2019-07-08T09:51:44Z</time>
      </trkpt>
      <trkpt lat="42.4855908193" lon="19.8981515598">
        <ele>2377.48</ele>
        <time>2019-07-08T09:51:58Z</time>
      </trkpt>
      <trkpt lat="42.4855422042" lon="19.8982046172">
        <ele>2380.84</ele>
        <time>2019-07-08T09:52:12Z</time>
      </trkpt>
      <trkpt lat="42.4854826927" lon="19.8982545733">
        <ele>2384.21</ele>
        <time>2019-07-08T09:52:24Z</time>
      </trkpt>
      <trkpt lat="42.4854330719" lon="19.8983823135">
        <ele>2387.09</ele>
        <time>2019-07-08T09:52:38Z</time>
      </trkpt>
      <trkpt lat="42.4853889830" lon="19.8984026816">
        <ele>2389.97</ele>
        <time>2019-07-08T09:52:52Z</time>
      </trkpt>
      <trkpt lat="42.4853328243" lon="19.8984838184">
        <ele>2390.94</ele>
        <time>2019-07-08T09:53:05Z</time>
      </trkpt>
      <trkpt lat="42.4852920882" lon="19.8985433299">
        <ele>2392.38</ele>
        <time>2019-07-08T09:53:20Z</time>
      </trkpt>
      <trkpt lat="42.4852888193" lon="19.8986439127">
        <ele>2393.34</ele>
        <time>2019-07-08T09:53:34Z</time>
      </trkpt>
      <trkpt lat="42.4852963630" lon="19.8986879177">
        <ele>2393.34</ele>
        <time>2019-07-08T09:53:46Z</time>
      </trkpt>
      <trkpt lat="42.4852985423" lon="19.8986941203">
        <ele>2393.34</ele>
        <time>2019-07-08T09:53:57Z</time>
      </trkpt>
      <trkpt lat="42.4853141326" lon="19.8986968026">
        <ele>2393.82</ele>
        <time>2019-07-08T09:54:16Z</time>
      </trkpt>
      <trkpt lat="42.4853255320" lon="19.8987108842">
        <ele>2392.86</ele>
        <time>2019-07-08T09:54:31Z</time>
      </trkpt>
      <trkpt lat="42.4853079300" lon="19.8987036757">
        <ele>2394.30</ele>
        <time>2019-07-08T09:54:46Z</time>
      </trkpt>
      <trkpt lat="42.4853214249" lon="19.8987175059">
        <ele>2394.78</ele>
        <time>2019-07-08T09:55:10Z</time>
      </trkpt>
      <trkpt lat="42.4853187427" lon="19.8987175897">
        <ele>2394.78</ele>
        <time>2019-07-08T09:55:32Z</time>
      </trkpt>
      <trkpt lat="42.4852900766" lon="19.8987532966">
        <ele>2395.26</ele>
        <time>2019-07-08T09:55:47Z</time>
      </trkpt>
      <trkpt lat="42.4852725584" lon="19.8988312483">
        <ele>2396.22</ele>
        <time>2019-07-08T09:56:02Z</time>
      </trkpt>
      <trkpt lat="42.4853233527" lon="19.8989193421">
        <ele>2398.15</ele>
        <time>2019-07-08T09:56:15Z</time>
      </trkpt>
      <trkpt lat="42.4853220955" lon="19.8989853077">
        <ele>2400.55</ele>
        <time>2019-07-08T09:56:30Z</time>
      </trkpt>
      <trkpt lat="42.4853097741" lon="19.8990557157">
        <ele>2403.43</ele>
        <time>2019-07-08T09:56:43Z</time>
      </trkpt>
      <trkpt lat="42.4854099378" lon="19.8991447315">
        <ele>2404.88</ele>
        <time>2019-07-08T09:56:59Z</time>
      </trkpt>
      <trkpt lat="42.4854954332" lon="19.8991332483">
        <ele>2407.76</ele>
        <time>2019-07-08T09:57:14Z</time>
      </trkpt>
      <trkpt lat="42.4855761509" lon="19.8991314042">
        <ele>2410.16</ele>
        <time>2019-07-08T09:57:29Z</time>
      </trkpt>
      <trkpt lat="42.4856283702" lon="19.8991930950">
        <ele>2413.53</ele>
        <time>2019-07-08T09:57:43Z</time>
      </trkpt>
      <trkpt lat="42.4857036397" lon="19.8992053326">
        <ele>2415.93</ele>
        <time>2019-07-08T09:57:58Z</time>
      </trkpt>
      <trkpt lat="42.4857557751" lon="19.8992086854">
        <ele>2417.37</ele>
        <time>2019-07-08T09:58:11Z</time>
      </trkpt>
      <trkpt lat="42.4858224951" lon="19.8992189951">
        <ele>2420.74</ele>
        <time>2019-07-08T09:58:26Z</time>
      </trkpt>
      <trkpt lat="42.4858887121" lon="19.8992079310">
        <ele>2423.14</ele>
        <time>2019-07-08T09:58:42Z</time>
      </trkpt>
      <trkpt lat="42.4858883768" lon="19.8992177378">
        <ele>2426.50</ele>
        <time>2019-07-08T09:58:56Z</time>
      </trkpt>
      <trkpt lat="42.4859115109" lon="19.8992614076">
        <ele>2428.43</ele>
        <time>2019-07-08T09:59:07Z</time>
      </trkpt>
      <trkpt lat="42.4859386683" lon="19.8993338272">
        <ele>2431.31</ele>
        <time>2019-07-08T09:59:23Z</time>
      </trkpt>
      <trkpt lat="42.4859944917" lon="19.8993683606">
        <ele>2434.20</ele>
        <time>2019-07-08T09:59:37Z</time>
      </trkpt>
      <trkpt lat="42.4860243313" lon="19.8993951827">
        <ele>2437.08</ele>
        <time>2019-07-08T09:59:50Z</time>
      </trkpt>
      <trkpt lat="42.4860512372" lon="19.8994254414">
        <ele>2439.96</ele>
        <time>2019-07-08T10:00:03Z</time>
      </trkpt>
      <trkpt lat="42.4860711861" lon="19.8994128685">
        <ele>2441.41</ele>
        <time>2019-07-08T10:00:06Z</time>
      </trkpt>
      <trkpt lat="42.4861403368" lon="19.8993682768">
        <ele>2441.89</ele>
        <time>2019-07-08T10:00:22Z</time>
      </trkpt>
      <trkpt lat="42.4861649796" lon="19.8993666004">
        <ele>2444.29</ele>
        <time>2019-07-08T10:00:36Z</time>
      </trkpt>
      <trkpt lat="42.4862027820" lon="19.8993813526">
        <ele>2446.21</ele>
        <time>2019-07-08T10:00:48Z</time>
      </trkpt>
      <trkpt lat="42.4862021115" lon="19.8993894830">
        <ele>2448.13</ele>
        <time>2019-07-08T10:01:01Z</time>
      </trkpt>
      <trkpt lat="42.4862185400" lon="19.8994056601">
        <ele>2449.58</ele>
        <time>2019-07-08T10:01:04Z</time>
      </trkpt>
      <trkpt lat="42.4862669874" lon="19.8994148802">
        <ele>2451.02</ele>
        <time>2019-07-08T10:01:17Z</time>
      </trkpt>
      <trkpt lat="42.4863160215" lon="19.8994095996">
        <ele>2453.42</ele>
        <time>2019-07-08T10:01:32Z</time>
      </trkpt>
      <trkpt lat="42.4863363896" lon="19.8994064145">
        <ele>2455.34</ele>
        <time>2019-07-08T10:01:37Z</time>
      </trkpt>
      <trkpt lat="42.4864335358" lon="19.8994222563">
        <ele>2457.27</ele>
        <time>2019-07-08T10:01:52Z</time>
      </trkpt>
      <trkpt lat="42.4864780437" lon="19.8994058277">
        <ele>2458.71</ele>
        <time>2019-07-08T10:02:04Z</time>
      </trkpt>
      <trkpt lat="42.4865021836" lon="19.8994064145">
        <ele>2460.63</ele>
        <time>2019-07-08T10:02:23Z</time>
      </trkpt>
      <trkpt lat="42.4865771178" lon="19.8993846215">
        <ele>2462.55</ele>
        <time>2019-07-08T10:02:36Z</time>
      </trkpt>
      <trkpt lat="42.4866538122" lon="19.8993536923">
        <ele>2465.44</ele>
        <time>2019-07-08T10:02:50Z</time>
      </trkpt>
      <trkpt lat="42.4867008347" lon="19.8993442208">
        <ele>2468.32</ele>
        <time>2019-07-08T10:03:03Z</time>
      </trkpt>
      <trkpt lat="42.4867876712" lon="19.8993502557">
        <ele>2470.73</ele>
        <time>2019-07-08T10:03:17Z</time>
      </trkpt>
      <trkpt lat="42.4868363701" lon="19.8993413709">
        <ele>2472.65</ele>
        <time>2019-07-08T10:03:25Z</time>
      </trkpt>
      <trkpt lat="42.4869044311" lon="19.8993468191">
        <ele>2473.61</ele>
        <time>2019-07-08T10:03:39Z</time>
      </trkpt>
      <trkpt lat="42.4869508669" lon="19.8993592244">
        <ele>2474.57</ele>
        <time>2019-07-08T10:03:53Z</time>
      </trkpt>
      <trkpt lat="42.4870215263" lon="19.8994465638">
        <ele>2476.49</ele>
        <time>2019-07-08T10:04:05Z</time>
      </trkpt>
      <trkpt lat="42.4870979693" lon="19.8995001242">
        <ele>2477.94</ele>
        <time>2019-07-08T10:04:18Z</time>
      </trkpt>
      <trkpt lat="42.4871394597" lon="19.8995276168">
        <ele>2479.86</ele>
        <time>2019-07-08T10:04:35Z</time>
      </trkpt>
      <trkpt lat="42.4871944450" lon="19.8995889723">
        <ele>2480.82</ele>
        <time>2019-07-08T10:04:49Z</time>
      </trkpt>
      <trkpt lat="42.4872253742" lon="19.8996115196">
        <ele>2482.74</ele>
        <time>2019-07-08T10:05:03Z</time>
      </trkpt>
      <trkpt lat="42.4872568902" lon="19.8996520042">
        <ele>2485.15</ele>
        <time>2019-07-08T10:05:23Z</time>
      </trkpt>
      <trkpt lat="42.4872842990" lon="19.8996687680">
        <ele>2486.59</ele>
        <time>2019-07-08T10:05:38Z</time>
      </trkpt>
      <trkpt lat="42.4873325787" lon="19.8996543512">
        <ele>2488.03</ele>
        <time>2019-07-08T10:05:56Z</time>
      </trkpt>
      <trkpt lat="42.4873766676" lon="19.8996447120">
        <ele>2490.43</ele>
        <time>2019-07-08T10:06:14Z</time>
      </trkpt>
      <trkpt lat="42.4874139670" lon="19.8996691871">
        <ele>2492.36</ele>
        <time>2019-07-08T10:06:33Z</time>
      </trkpt>
      <trkpt lat="42.4874330778" lon="19.8996748868">
        <ele>2493.32</ele>
        <time>2019-07-08T10:06:47Z</time>
      </trkpt>
      <trkpt lat="42.4875094369" lon="19.8996959254">
        <ele>2495.72</ele>
        <time>2019-07-08T10:07:00Z</time>
      </trkpt>
      <trkpt lat="42.4875930883" lon="19.8997167125">
        <ele>2498.12</ele>
        <time>2019-07-08T10:07:15Z</time>
      </trkpt>
      <trkpt lat="42.4876298010" lon="19.8997400980">
        <ele>2498.60</ele>
        <time>2019-07-08T10:07:21Z</time>
      </trkpt>
      <trkpt lat="42.4877354968" lon="19.8998044711">
        <ele>2500.53</ele>
        <time>2019-07-08T10:07:36Z</time>
      </trkpt>
      <trkpt lat="42.4878755584" lon="19.8997888807">
        <ele>2501.01</ele>
        <time>2019-07-08T10:07:51Z</time>
      </trkpt>
      <trkpt lat="42.4879204854" lon="19.8997927364">
        <ele>2501.97</ele>
        <time>2019-07-08T10:07:56Z</time>
      </trkpt>
      <trkpt lat="42.4879675917" lon="19.8997760564">
        <ele>2502.93</ele>
        <time>2019-07-08T10:08:11Z</time>
      </trkpt>
      <trkpt lat="42.4880443700" lon="19.8998045549">
        <ele>2502.93</ele>
        <time>2019-07-08T10:08:26Z</time>
      </trkpt>
      <trkpt lat="42.4881687574" lon="19.8997797444">
        <ele>2503.41</ele>
        <time>2019-07-08T10:08:40Z</time>
      </trkpt>
      <trkpt lat="42.4882743694" lon="19.8998026270">
        <ele>2503.89</ele>
        <time>2019-07-08T10:08:52Z</time>
      </trkpt>
      <trkpt lat="42.4882798176" lon="19.8998037167">
        <ele>2503.89</ele>
        <time>2019-07-08T10:08:53Z</time>
      </trkpt>
      <trkpt lat="42.4883039575" lon="19.8998134397">
        <ele>2502.45</ele>
        <time>2019-07-08T10:08:55Z</time>
      </trkpt>
      <trkpt lat="42.4883152731" lon="19.8998151161">
        <ele>2502.93</ele>
        <time>2019-07-08T10:08:56Z</time>
      </trkpt>
      <trkpt lat="42.4884241540" lon="19.8998380825">
        <ele>2502.93</ele>
        <time>2019-07-08T10:09:07Z</time>
      </trkpt>
      <trkpt lat="42.4885488767" lon="19.8998356517">
        <ele>2502.93</ele>
        <time>2019-07-08T10:09:20Z</time>
      </trkpt>
      <trkpt lat="42.4886111543" lon="19.8998618871">
        <ele>2502.93</ele>
        <time>2019-07-08T10:09:30Z</time>
      </trkpt>
      <trkpt lat="42.4887070432" lon="19.8998890445">
        <ele>2503.41</ele>
        <time>2019-07-08T10:09:41Z</time>
      </trkpt>
      <trkpt lat="42.4887695722" lon="19.8998750467">
        <ele>2504.37</ele>
        <time>2019-07-08T10:09:56Z</time>
      </trkpt>
      <trkpt lat="42.4887834024" lon="19.8998604622">
        <ele>2504.85</ele>
        <time>2019-07-08T10:10:14Z</time>
      </trkpt>
      <trkpt lat="42.4887954723" lon="19.8998495657">
        <ele>2504.85</ele>
        <time>2019-07-08T10:10:43Z</time>
      </trkpt>
      <trkpt lat="42.4888541456" lon="19.8998958338">
        <ele>2505.81</ele>
        <time>2019-07-08T10:10:56Z</time>
      </trkpt>
      <trkpt lat="42.4889114778" lon="19.8999571893">
        <ele>2506.77</ele>
        <time>2019-07-08T10:11:12Z</time>
      </trkpt>
      <trkpt lat="42.4889264815" lon="19.8999685887">
        <ele>2506.77</ele>
        <time>2019-07-08T10:11:29Z</time>
      </trkpt>
      <trkpt lat="42.4889318459" lon="19.8999833409">
        <ele>2507.74</ele>
        <time>2019-07-08T10:11:47Z</time>
      </trkpt>
      <trkpt lat="42.4889414851" lon="19.8999777250">
        <ele>2508.22</ele>
        <time>2019-07-08T10:12:04Z</time>
      </trkpt>
      <trkpt lat="42.4889377970" lon="19.8999414314">
        <ele>2508.22</ele>
        <time>2019-07-08T10:12:26Z</time>
      </trkpt>
      <trkpt lat="42.4889305048" lon="19.8999348097">
        <ele>2508.70</ele>
        <time>2019-07-08T10:12:49Z</time>
      </trkpt>
      <trkpt lat="42.4889232125" lon="19.8999479692">
        <ele>2507.26</ele>
        <time>2019-07-08T10:12:54Z</time>
      </trkpt>
      <trkpt lat="42.4889364559" lon="19.8999763001">
        <ele>2507.26</ele>
        <time>2019-07-08T10:13:12Z</time>
      </trkpt>
      <trkpt lat="42.4889598414" lon="19.8999883700">
        <ele>2507.74</ele>
        <time>2019-07-08T10:13:35Z</time>
      </trkpt>
      <trkpt lat="42.4889658764" lon="19.8999943212">
        <ele>2507.74</ele>
        <time>2019-07-08T10:13:48Z</time>
      </trkpt>
      <trkpt lat="42.4889569078" lon="19.8999686725">
        <ele>2507.74</ele>
        <time>2019-07-08T10:13:54Z</time>
      </trkpt>
      <trkpt lat="42.4889271520" lon="19.8999583628">
        <ele>2508.22</ele>
        <time>2019-07-08T10:14:09Z</time>
      </trkpt>
      <trkpt lat="42.4889291637" lon="19.8999522440">
        <ele>2508.22</ele>
        <time>2019-07-08T10:14:24Z</time>
      </trkpt>
      <trkpt lat="42.4889188539" lon="19.8999538366">
        <ele>2508.22</ele>
        <time>2019-07-08T10:14:48Z</time>
      </trkpt>
      <trkpt lat="42.4889202788" lon="19.8999477178">
        <ele>2508.70</ele>
        <time>2019-07-08T10:15:15Z</time>
      </trkpt>
      <trkpt lat="42.4889243022" lon="19.8999733664">
        <ele>2507.26</ele>
        <time>2019-07-08T10:15:32Z</time>
      </trkpt>
      <trkpt lat="42.4889263976" lon="19.8999817483">
        <ele>2506.77</ele>
        <time>2019-07-08T10:15:53Z</time>
      </trkpt>
      <trkpt lat="42.4889336061" lon="19.8999731150">
        <ele>2507.26</ele>
        <time>2019-07-08T10:16:29Z</time>
      </trkpt>
      <trkpt lat="42.4889337737" lon="19.8999768868">
        <ele>2507.74</ele>
        <time>2019-07-08T10:17:12Z</time>
      </trkpt>
      <trkpt lat="42.4889345281" lon="19.8999849334">
        <ele>2507.74</ele>
        <time>2019-07-08T10:17:37Z</time>
      </trkpt>
      <trkpt lat="42.4889248889" lon="19.8999778088">
        <ele>2508.22</ele>
        <time>2019-07-08T10:18:23Z</time>
      </trkpt>
      <trkpt lat="42.4889310077" lon="19.8999762163">
        <ele>2508.22</ele>
        <time>2019-07-08T10:18:58Z</time>
      </trkpt>
      <trkpt lat="42.4889276549" lon="19.8999422695">
        <ele>2510.14</ele>
        <time>2019-07-08T10:19:16Z</time>
      </trkpt>
      <trkpt lat="42.4889196921" lon="19.8999403417">
        <ele>2510.62</ele>
        <time>2019-07-08T10:19:37Z</time>
      </trkpt>
      <trkpt lat="42.4889113102" lon="19.8999598715">
        <ele>2511.10</ele>
        <time>2019-07-08T10:20:05Z</time>
      </trkpt>
      <trkpt lat="42.4889271520" lon="19.8999442812">
        <ele>2511.10</ele>
        <time>2019-07-08T10:20:29Z</time>
      </trkpt>
      <trkpt lat="42.4889298342" lon="19.8999464605">
        <ele>2511.10</ele>
        <time>2019-07-08T10:20:58Z</time>
      </trkpt>
      <trkpt lat="42.4889216200" lon="19.8999384977">
        <ele>2510.14</ele>
        <time>2019-07-08T10:21:11Z</time>
      </trkpt>
      <trkpt lat="42.4889073707" lon="19.8999442812">
        <ele>2511.58</ele>
        <time>2019-07-08T10:21:16Z</time>
      </trkpt>
      <trkpt lat="42.4889076222" lon="19.8999421019">
        <ele>2511.58</ele>
        <time>2019-07-08T10:21:45Z</time>
      </trkpt>
      <trkpt lat="42.4889223743" lon="19.8999319598">
        <ele>2511.58</ele>
        <time>2019-07-08T10:22:03Z</time>
      </trkpt>
      <trkpt lat="42.4889372103" lon="19.8999590334">
        <ele>2511.58</ele>
        <time>2019-07-08T10:22:19Z</time>
      </trkpt>
      <trkpt lat="42.4889474362" lon="19.8999643140">
        <ele>2512.06</ele>
        <time>2019-07-08T10:22:39Z</time>
      </trkpt>
      <trkpt lat="42.4889329355" lon="19.8999495618">
        <ele>2512.06</ele>
        <time>2019-07-08T10:22:56Z</time>
      </trkpt>
      <trkpt lat="42.4889326002" lon="19.8999504838">
        <ele>2512.06</ele>
        <time>2019-07-08T10:23:10Z</time>
      </trkpt>
      <trkpt lat="42.4889214523" lon="19.8999893758">
        <ele>2512.06</ele>
        <time>2019-07-08T10:23:32Z</time>
      </trkpt>
      <trkpt lat="42.4889284093" lon="19.8999742046">
        <ele>2511.10</ele>
        <time>2019-07-08T10:23:50Z</time>
      </trkpt>
      <trkpt lat="42.4889197759" lon="19.8999668285">
        <ele>2511.10</ele>
        <time>2019-07-08T10:24:18Z</time>
      </trkpt>
      <trkpt lat="42.4889419042" lon="19.8999585304">
        <ele>2511.10</ele>
        <time>2019-07-08T10:24:38Z</time>
      </trkpt>
      <trkpt lat="42.4889305886" lon="19.8999620508">
        <ele>2512.54</ele>
        <time>2019-07-08T10:24:52Z</time>
      </trkpt>
      <trkpt lat="42.4889206141" lon="19.8999535851">
        <ele>2512.54</ele>
        <time>2019-07-08T10:25:12Z</time>
      </trkpt>
      <trkpt lat="42.4889301695" lon="19.8999304511">
        <ele>2513.02</ele>
        <time>2019-07-08T10:25:31Z</time>
      </trkpt>
      <trkpt lat="42.4889041856" lon="19.8999303672">
        <ele>2513.02</ele>
        <time>2019-07-08T10:25:43Z</time>
      </trkpt>
      <trkpt lat="42.4888695683" lon="19.8998903017">
        <ele>2511.58</ele>
        <time>2019-07-08T10:26:00Z</time>
      </trkpt>
      <trkpt lat="42.4888152536" lon="19.8998645693">
        <ele>2510.62</ele>
        <time>2019-07-08T10:26:14Z</time>
      </trkpt>
      <trkpt lat="42.4887491204" lon="19.8998485599">
        <ele>2510.62</ele>
        <time>2019-07-08T10:26:27Z</time>
      </trkpt>
      <trkpt lat="42.4886453524" lon="19.8998241685">
        <ele>2510.14</ele>
        <time>2019-07-08T10:26:41Z</time>
      </trkpt>
      <trkpt lat="42.4886014313" lon="19.8998061474">
        <ele>2510.14</ele>
        <time>2019-07-08T10:26:48Z</time>
      </trkpt>
      <trkpt lat="42.4884751160" lon="19.8998024594">
        <ele>2509.66</ele>
        <time>2019-07-08T10:27:01Z</time>
      </trkpt>
      <trkpt lat="42.4883804005" lon="19.8997942451">
        <ele>2509.18</ele>
        <time>2019-07-08T10:27:15Z</time>
      </trkpt>
      <trkpt lat="42.4883069750" lon="19.8997828458">
        <ele>2509.18</ele>
        <time>2019-07-08T10:27:30Z</time>
      </trkpt>
      <trkpt lat="42.4882593658" lon="19.8997596279">
        <ele>2509.66</ele>
        <time>2019-07-08T10:27:52Z</time>
      </trkpt>
      <trkpt lat="42.4882268440" lon="19.8997581191">
        <ele>2510.62</ele>
        <time>2019-07-08T10:27:56Z</time>
      </trkpt>
      <trkpt lat="42.4880899675" lon="19.8997769784">
        <ele>2509.66</ele>
        <time>2019-07-08T10:28:13Z</time>
      </trkpt>
      <trkpt lat="42.4879506603" lon="19.8997701053">
        <ele>2509.66</ele>
        <time>2019-07-08T10:28:30Z</time>
      </trkpt>
      <trkpt lat="42.4878108501" lon="19.8997758888">
        <ele>2508.22</ele>
        <time>2019-07-08T10:28:45Z</time>
      </trkpt>
      <trkpt lat="42.4877304677" lon="19.8997556884">
        <ele>2507.74</ele>
        <time>2019-07-08T10:28:56Z</time>
      </trkpt>
      <trkpt lat="42.4876116123" lon="19.8997037206">
        <ele>2504.37</ele>
        <time>2019-07-08T10:29:12Z</time>
      </trkpt>
      <trkpt lat="42.4875326548" lon="19.8996601347">
        <ele>2503.89</ele>
        <time>2019-07-08T10:29:25Z</time>
      </trkpt>
      <trkpt lat="42.4874852132" lon="19.8996584583">
        <ele>2501.97</ele>
        <time>2019-07-08T10:29:41Z</time>
      </trkpt>
      <trkpt lat="42.4874396157" lon="19.8996361624">
        <ele>2501.01</ele>
        <time>2019-07-08T10:29:57Z</time>
      </trkpt>
      <trkpt lat="42.4874184933" lon="19.8996244278">
        <ele>2500.05</ele>
        <time>2019-07-08T10:30:12Z</time>
      </trkpt>
      <trkpt lat="42.4873692077" lon="19.8996161297">
        <ele>2497.64</ele>
        <time>2019-07-08T10:30:26Z</time>
      </trkpt>
      <trkpt lat="42.4873074330" lon="19.8996265233">
        <ele>2494.76</ele>
        <time>2019-07-08T10:30:38Z</time>
      </trkpt>
      <trkpt lat="42.4872779287" lon="19.8996148724">
        <ele>2492.36</ele>
        <time>2019-07-08T10:30:50Z</time>
      </trkpt>
      <trkpt lat="42.4872371089" lon="19.8995542713">
        <ele>2489.47</ele>
        <time>2019-07-08T10:31:02Z</time>
      </trkpt>
      <trkpt lat="42.4871615879" lon="19.8995062429">
        <ele>2488.99</ele>
        <time>2019-07-08T10:31:14Z</time>
      </trkpt>
      <trkpt lat="42.4870886654" lon="19.8994216695">
        <ele>2487.55</ele>
        <time>2019-07-08T10:31:26Z</time>
      </trkpt>
      <trkpt lat="42.4870149884" lon="19.8993886448">
        <ele>2485.63</ele>
        <time>2019-07-08T10:31:37Z</time>
      </trkpt>
      <trkpt lat="42.4870085344" lon="19.8993723840">
        <ele>2485.15</ele>
        <time>2019-07-08T10:31:39Z</time>
      </trkpt>
      <trkpt lat="42.4869196862" lon="19.8993362579">
        <ele>2484.66</ele>
        <time>2019-07-08T10:31:48Z</time>
      </trkpt>
      <trkpt lat="42.4869124778" lon="19.8993194103">
        <ele>2484.66</ele>
        <time>2019-07-08T10:31:49Z</time>
      </trkpt>
      <trkpt lat="42.4868115596" lon="19.8992835358">
        <ele>2483.22</ele>
        <time>2019-07-08T10:32:02Z</time>
      </trkpt>
      <trkpt lat="42.4867449235" lon="19.8992522713">
        <ele>2480.34</ele>
        <time>2019-07-08T10:32:15Z</time>
      </trkpt>
      <trkpt lat="42.4866563268" lon="19.8992467392">
        <ele>2477.45</ele>
        <time>2019-07-08T10:32:29Z</time>
      </trkpt>
      <trkpt lat="42.4865930434" lon="19.8992801830">
        <ele>2476.97</ele>
        <time>2019-07-08T10:32:39Z</time>
      </trkpt>
      <trkpt lat="42.4865052849" lon="19.8993452266">
        <ele>2473.61</ele>
        <time>2019-07-08T10:32:52Z</time>
      </trkpt>
      <trkpt lat="42.4864684045" lon="19.8993058316">
        <ele>2472.17</ele>
        <time>2019-07-08T10:33:06Z</time>
      </trkpt>
      <trkpt lat="42.4864189513" lon="19.8992868885">
        <ele>2470.24</ele>
        <time>2019-07-08T10:33:12Z</time>
      </trkpt>
      <trkpt lat="42.4863565061" lon="19.8992906604">
        <ele>2468.80</ele>
        <time>2019-07-08T10:33:18Z</time>
      </trkpt>
      <trkpt lat="42.4862995930" lon="19.8993610684">
        <ele>2466.88</ele>
        <time>2019-07-08T10:33:32Z</time>
      </trkpt>
      <trkpt lat="42.4862671550" lon="19.8993855435">
        <ele>2470.24</ele>
        <time>2019-07-08T10:33:39Z</time>
      </trkpt>
      <trkpt lat="42.4862566777" lon="19.8993923329">
        <ele>2471.21</ele>
        <time>2019-07-08T10:33:41Z</time>
      </trkpt>
      <trkpt lat="42.4862483796" lon="19.8993848730">
        <ele>2466.88</ele>
        <time>2019-07-08T10:33:44Z</time>
      </trkpt>
      <trkpt lat="42.4862421770" lon="19.8993769940">
        <ele>2466.88</ele>
        <time>2019-07-08T10:33:45Z</time>
      </trkpt>
      <trkpt lat="42.4862196296" lon="19.8993570451">
        <ele>2463.52</ele>
        <time>2019-07-08T10:33:50Z</time>
      </trkpt>
      <trkpt lat="42.4862006027" lon="19.8993728869">
        <ele>2460.15</ele>
        <time>2019-07-08T10:33:59Z</time>
      </trkpt>
      <trkpt lat="42.4861909635" lon="19.8993493337">
        <ele>2458.23</ele>
        <time>2019-07-08T10:34:11Z</time>
      </trkpt>
      <trkpt lat="42.4861918017" lon="19.8993377667">
        <ele>2458.23</ele>
        <time>2019-07-08T10:34:12Z</time>
      </trkpt>
      <trkpt lat="42.4861436896" lon="19.8993180692">
        <ele>2455.82</ele>
        <time>2019-07-08T10:34:25Z</time>
      </trkpt>
      <trkpt lat="42.4861235730" lon="19.8993295524">
        <ele>2453.90</ele>
        <time>2019-07-08T10:34:31Z</time>
      </trkpt>
      <trkpt lat="42.4860655703" lon="19.8993713781">
        <ele>2452.46</ele>
        <time>2019-07-08T10:34:40Z</time>
      </trkpt>
      <trkpt lat="42.4860374909" lon="19.8993344977">
        <ele>2449.10</ele>
        <time>2019-07-08T10:34:50Z</time>
      </trkpt>
      <trkpt lat="42.4860403407" lon="19.8992689513">
        <ele>2446.21</ele>
        <time>2019-07-08T10:34:59Z</time>
      </trkpt>
      <trkpt lat="42.4859809969" lon="19.8992466554">
        <ele>2444.29</ele>
        <time>2019-07-08T10:35:11Z</time>
      </trkpt>
      <trkpt lat="42.4859373271" lon="19.8992236052">
        <ele>2441.41</ele>
        <time>2019-07-08T10:35:21Z</time>
      </trkpt>
      <trkpt lat="42.4859053921" lon="19.8991885688">
        <ele>2438.52</ele>
        <time>2019-07-08T10:35:32Z</time>
      </trkpt>
      <trkpt lat="42.4859031290" lon="19.8991712183">
        <ele>2436.60</ele>
        <time>2019-07-08T10:35:35Z</time>
      </trkpt>
      <trkpt lat="42.4858527537" lon="19.8991370201">
        <ele>2434.68</ele>
        <time>2019-07-08T10:35:45Z</time>
      </trkpt>
      <trkpt lat="42.4857846927" lon="19.8991386965">
        <ele>2431.31</ele>
        <time>2019-07-08T10:35:55Z</time>
      </trkpt>
      <trkpt lat="42.4857778195" lon="19.8991288058">
        <ele>2431.31</ele>
        <time>2019-07-08T10:35:56Z</time>
      </trkpt>
      <trkpt lat="42.4857090879" lon="19.8991093598">
        <ele>2427.95</ele>
        <time>2019-07-08T10:36:07Z</time>
      </trkpt>
      <trkpt lat="42.4856271129" lon="19.8991158977">
        <ele>2424.10</ele>
        <time>2019-07-08T10:36:19Z</time>
      </trkpt>
      <trkpt lat="42.4855273683" lon="19.8990603257">
        <ele>2421.22</ele>
        <time>2019-07-08T10:36:33Z</time>
      </trkpt>
      <trkpt lat="42.4854424596" lon="19.8990532011">
        <ele>2418.33</ele>
        <time>2019-07-08T10:36:45Z</time>
      </trkpt>
      <trkpt lat="42.4853633344" lon="19.8990547098">
        <ele>2415.45</ele>
        <time>2019-07-08T10:36:58Z</time>
      </trkpt>
      <trkpt lat="42.4853448104" lon="19.8990112916">
        <ele>2413.05</ele>
        <time>2019-07-08T10:37:06Z</time>
      </trkpt>
      <trkpt lat="42.4852388632" lon="19.8990051728">
        <ele>2410.16</ele>
        <time>2019-07-08T10:37:20Z</time>
      </trkpt>
      <trkpt lat="42.4852180760" lon="19.8989723995">
        <ele>2408.72</ele>
        <time>2019-07-08T10:37:27Z</time>
      </trkpt>
      <trkpt lat="42.4852179922" lon="19.8989048414">
        <ele>2407.28</ele>
        <time>2019-07-08T10:37:32Z</time>
      </trkpt>
      <trkpt lat="42.4853007216" lon="19.8988126405">
        <ele>2407.76</ele>
        <time>2019-07-08T10:37:42Z</time>
      </trkpt>
      <trkpt lat="42.4853279628" lon="19.8987270612">
        <ele>2407.76</ele>
        <time>2019-07-08T10:37:49Z</time>
      </trkpt>
      <trkpt lat="42.4853389431" lon="19.8986974731">
        <ele>2406.32</ele>
        <time>2019-07-08T10:37:51Z</time>
      </trkpt>
      <trkpt lat="42.4853599817" lon="19.8985315114">
        <ele>2404.88</ele>
        <time>2019-07-08T10:38:06Z</time>
      </trkpt>
      <trkpt lat="42.4853838701" lon="19.8984989896">
        <ele>2404.39</ele>
        <time>2019-07-08T10:38:10Z</time>
      </trkpt>
      <trkpt lat="42.4854660966" lon="19.8984452616">
        <ele>2402.47</ele>
        <time>2019-07-08T10:38:19Z</time>
      </trkpt>
      <trkpt lat="42.4855274521" lon="19.8983890191">
        <ele>2399.11</ele>
        <time>2019-07-08T10:38:29Z</time>
      </trkpt>
      <trkpt lat="42.4855536874" lon="19.8982806411">
        <ele>2395.74</ele>
        <time>2019-07-08T10:38:39Z</time>
      </trkpt>
      <trkpt lat="42.4856231734" lon="19.8982616141">
        <ele>2392.86</ele>
        <time>2019-07-08T10:38:50Z</time>
      </trkpt>
      <trkpt lat="42.4856779911" lon="19.8981823213">
        <ele>2389.49</ele>
        <time>2019-07-08T10:39:00Z</time>
      </trkpt>
      <trkpt lat="42.4857273605" lon="19.8981016874">
        <ele>2386.61</ele>
        <time>2019-07-08T10:39:10Z</time>
      </trkpt>
      <trkpt lat="42.4857535958" lon="19.8980796430">
        <ele>2383.73</ele>
        <time>2019-07-08T10:39:17Z</time>
      </trkpt>
      <trkpt lat="42.4857879616" lon="19.8980857618">
        <ele>2380.84</ele>
        <time>2019-07-08T10:39:27Z</time>
      </trkpt>
      <trkpt lat="42.4858969264" lon="19.8980080616">
        <ele>2377.96</ele>
        <time>2019-07-08T10:39:39Z</time>
      </trkpt>
      <trkpt lat="42.4859787337" lon="19.8979375698">
        <ele>2374.59</ele>
        <time>2019-07-08T10:39:51Z</time>
      </trkpt>
      <trkpt lat="42.4860051367" lon="19.8978824168">
        <ele>2372.67</ele>
        <time>2019-07-08T10:40:01Z</time>
      </trkpt>
      <trkpt lat="42.4860399216" lon="19.8978327122">
        <ele>2369.31</ele>
        <time>2019-07-08T10:40:13Z</time>
      </trkpt>
      <trkpt lat="42.4860675819" lon="19.8977772240">
        <ele>2366.90</ele>
        <time>2019-07-08T10:40:22Z</time>
      </trkpt>
      <trkpt lat="42.4860915542" lon="19.8977181315">
        <ele>2363.54</ele>
        <time>2019-07-08T10:40:34Z</time>
      </trkpt>
      <trkpt lat="42.4861039594" lon="19.8977097496">
        <ele>2363.54</ele>
        <time>2019-07-08T10:40:36Z</time>
      </trkpt>
      <trkpt lat="42.4861367326" lon="19.8976996914">
        <ele>2362.10</ele>
        <time>2019-07-08T10:40:39Z</time>
      </trkpt>
      <trkpt lat="42.4861646444" lon="19.8976401798">
        <ele>2359.69</ele>
        <time>2019-07-08T10:40:51Z</time>
      </trkpt>
      <trkpt lat="42.4861861020" lon="19.8976127710">
        <ele>2356.33</ele>
        <time>2019-07-08T10:41:01Z</time>
      </trkpt>
      <trkpt lat="42.4862677418" lon="19.8975988571">
        <ele>2352.96</ele>
        <time>2019-07-08T10:41:11Z</time>
      </trkpt>
      <trkpt lat="42.4863591045" lon="19.8975810874">
        <ele>2349.60</ele>
        <time>2019-07-08T10:41:24Z</time>
      </trkpt>
      <trkpt lat="42.4863880221" lon="19.8975036386">
        <ele>2346.23</ele>
        <time>2019-07-08T10:41:34Z</time>
      </trkpt>
      <trkpt lat="42.4864183646" lon="19.8973362520">
        <ele>2343.83</ele>
        <time>2019-07-08T10:41:48Z</time>
      </trkpt>
      <trkpt lat="42.4863782991" lon="19.8971764930">
        <ele>2343.83</ele>
        <time>2019-07-08T10:41:50Z</time>
      </trkpt>
      <trkpt lat="42.4863888603" lon="19.8969873134">
        <ele>2342.39</ele>
        <time>2019-07-08T10:41:55Z</time>
      </trkpt>
      <trkpt lat="42.4864104018" lon="19.8969181627">
        <ele>2341.91</ele>
        <time>2019-07-08T10:41:58Z</time>
      </trkpt>
      <trkpt lat="42.4863869324" lon="19.8968043365">
        <ele>2341.91</ele>
        <time>2019-07-08T10:42:04Z</time>
      </trkpt>
      <trkpt lat="42.4863928836" lon="19.8967709765">
        <ele>2340.95</ele>
        <time>2019-07-08T10:42:07Z</time>
      </trkpt>
      <trkpt lat="42.4864635430" lon="19.8965786118">
        <ele>2339.99</ele>
        <time>2019-07-08T10:42:24Z</time>
      </trkpt>
      <trkpt lat="42.4864715897" lon="19.8963839840">
        <ele>2339.51</ele>
        <time>2019-07-08T10:42:33Z</time>
      </trkpt>
      <trkpt lat="42.4865704961" lon="19.8963842355">
        <ele>2338.54</ele>
        <time>2019-07-08T10:42:50Z</time>
      </trkpt>
      <trkpt lat="42.4867655430" lon="19.8967034183">
        <ele>2336.62</ele>
        <time>2019-07-08T10:43:06Z</time>
      </trkpt>
      <trkpt lat="42.4868730828" lon="19.8967444897">
        <ele>2332.78</ele>
        <time>2019-07-08T10:43:19Z</time>
      </trkpt>
      <trkpt lat="42.4869252183" lon="19.8967730720">
        <ele>2331.81</ele>
        <time>2019-07-08T10:43:24Z</time>
      </trkpt>
      <trkpt lat="42.4869620986" lon="19.8968128022">
        <ele>2330.37</ele>
        <time>2019-07-08T10:43:27Z</time>
      </trkpt>
      <trkpt lat="42.4869627692" lon="19.8968126345">
        <ele>2330.37</ele>
        <time>2019-07-08T10:43:29Z</time>
      </trkpt>
      <trkpt lat="42.4869260564" lon="19.8967926018">
        <ele>2329.41</ele>
        <time>2019-07-08T10:43:34Z</time>
      </trkpt>
      <trkpt lat="42.4869176745" lon="19.8967309110">
        <ele>2325.57</ele>
        <time>2019-07-08T10:43:46Z</time>
      </trkpt>
      <trkpt lat="42.4870070256" lon="19.8967263009">
        <ele>2322.20</ele>
        <time>2019-07-08T10:43:58Z</time>
      </trkpt>
      <trkpt lat="42.4870211072" lon="19.8967415560">
        <ele>2321.24</ele>
        <time>2019-07-08T10:44:00Z</time>
      </trkpt>
      <trkpt lat="42.4870483484" lon="19.8967548832">
        <ele>2321.24</ele>
        <time>2019-07-08T10:44:02Z</time>
      </trkpt>
      <trkpt lat="42.4871827941" lon="19.8967789393">
        <ele>2316.91</ele>
        <time>2019-07-08T10:44:18Z</time>
      </trkpt>
      <trkpt lat="42.4873083550" lon="19.8968423903">
        <ele>2314.51</ele>
        <time>2019-07-08T10:44:34Z</time>
      </trkpt>
      <trkpt lat="42.4874215107" lon="19.8969106190">
        <ele>2311.15</ele>
        <time>2019-07-08T10:44:47Z</time>
      </trkpt>
      <trkpt lat="42.4875381868" lon="19.8968171608">
        <ele>2308.74</ele>
        <time>2019-07-08T10:45:05Z</time>
      </trkpt>
      <trkpt lat="42.4876448046" lon="19.8968272191">
        <ele>2306.34</ele>
        <time>2019-07-08T10:45:18Z</time>
      </trkpt>
      <trkpt lat="42.4876792543" lon="19.8968386184">
        <ele>2303.94</ele>
        <time>2019-07-08T10:45:29Z</time>
      </trkpt>
      <trkpt lat="42.4877651688" lon="19.8968577292">
        <ele>2301.53</ele>
        <time>2019-07-08T10:45:43Z</time>
      </trkpt>
      <trkpt lat="42.4878507480" lon="19.8968986329">
        <ele>2299.61</ele>
        <time>2019-07-08T10:45:56Z</time>
      </trkpt>
      <trkpt lat="42.4878992792" lon="19.8969013989">
        <ele>2298.17</ele>
        <time>2019-07-08T10:46:09Z</time>
      </trkpt>
      <trkpt lat="42.4879486486" lon="19.8968913406">
        <ele>2294.80</ele>
        <time>2019-07-08T10:46:23Z</time>
      </trkpt>
      <trkpt lat="42.4880115967" lon="19.8968771752">
        <ele>2292.40</ele>
        <time>2019-07-08T10:46:38Z</time>
      </trkpt>
      <trkpt lat="42.4880825076" lon="19.8968484253">
        <ele>2290.48</ele>
        <time>2019-07-08T10:46:51Z</time>
      </trkpt>
      <trkpt lat="42.4881579448" lon="19.8968239501">
        <ele>2287.11</ele>
        <time>2019-07-08T10:47:04Z</time>
      </trkpt>
      <trkpt lat="42.4880744610" lon="19.8968349304">
        <ele>2283.75</ele>
        <time>2019-07-08T10:47:17Z</time>
      </trkpt>
      <trkpt lat="42.4879720341" lon="19.8968369421">
        <ele>2280.38</ele>
        <time>2019-07-08T10:47:29Z</time>
      </trkpt>
      <trkpt lat="42.4880148657" lon="19.8968046717">
        <ele>2277.50</ele>
        <time>2019-07-08T10:47:40Z</time>
      </trkpt>
      <trkpt lat="42.4881068990" lon="19.8968110420">
        <ele>2275.10</ele>
        <time>2019-07-08T10:47:53Z</time>
      </trkpt>
      <trkpt lat="42.4881225731" lon="19.8967445735">
        <ele>2271.73</ele>
        <time>2019-07-08T10:48:04Z</time>
      </trkpt>
      <trkpt lat="42.4881234113" lon="19.8966818769">
        <ele>2268.85</ele>
        <time>2019-07-08T10:48:16Z</time>
      </trkpt>
      <trkpt lat="42.4881165382" lon="19.8966311663">
        <ele>2266.45</ele>
        <time>2019-07-08T10:48:26Z</time>
      </trkpt>
      <trkpt lat="42.4880678393" lon="19.8965005763">
        <ele>2263.08</ele>
        <time>2019-07-08T10:48:38Z</time>
      </trkpt>
      <trkpt lat="42.4880772270" lon="19.8964520451">
        <ele>2260.68</ele>
        <time>2019-07-08T10:48:50Z</time>
      </trkpt>
      <trkpt lat="42.4879799969" lon="19.8964122310">
        <ele>2257.31</ele>
        <time>2019-07-08T10:49:01Z</time>
      </trkpt>
      <trkpt lat="42.4879582040" lon="19.8963326029">
        <ele>2255.39</ele>
        <time>2019-07-08T10:49:15Z</time>
      </trkpt>
      <trkpt lat="42.4879639875" lon="19.8962400667">
        <ele>2252.51</ele>
        <time>2019-07-08T10:49:25Z</time>
      </trkpt>
      <trkpt lat="42.4879861996" lon="19.8961523920">
        <ele>2250.58</ele>
        <time>2019-07-08T10:49:33Z</time>
      </trkpt>
      <trkpt lat="42.4879931565" lon="19.8961092252">
        <ele>2249.62</ele>
        <time>2019-07-08T10:49:36Z</time>
      </trkpt>
      <trkpt lat="42.4880194757" lon="19.8960196227">
        <ele>2247.22</ele>
        <time>2019-07-08T10:49:47Z</time>
      </trkpt>
      <trkpt lat="42.4881216511" lon="19.8959215544">
        <ele>2244.82</ele>
        <time>2019-07-08T10:50:03Z</time>
      </trkpt>
      <trkpt lat="42.4881481379" lon="19.8958769627">
        <ele>2240.97</ele>
        <time>2019-07-08T10:50:15Z</time>
      </trkpt>
      <trkpt lat="42.4881515745" lon="19.8958760407">
        <ele>2240.97</ele>
        <time>2019-07-08T10:50:16Z</time>
      </trkpt>
      <trkpt lat="42.4881666619" lon="19.8958553374">
        <ele>2239.53</ele>
        <time>2019-07-08T10:50:20Z</time>
      </trkpt>
      <trkpt lat="42.4882234074" lon="19.8957715183">
        <ele>2236.64</ele>
        <time>2019-07-08T10:50:36Z</time>
      </trkpt>
      <trkpt lat="42.4882473797" lon="19.8956880346">
        <ele>2233.76</ele>
        <time>2019-07-08T10:50:52Z</time>
      </trkpt>
      <trkpt lat="42.4883087352" lon="19.8955923971">
        <ele>2230.40</ele>
        <time>2019-07-08T10:51:07Z</time>
      </trkpt>
      <trkpt lat="42.4883443583" lon="19.8955820035">
        <ele>2229.92</ele>
        <time>2019-07-08T10:51:10Z</time>
      </trkpt>
      <trkpt lat="42.4883808196" lon="19.8955794051">
        <ele>2229.43</ele>
        <time>2019-07-08T10:51:12Z</time>
      </trkpt>
      <trkpt lat="42.4884306919" lon="19.8955488950">
        <ele>2227.99</ele>
        <time>2019-07-08T10:51:16Z</time>
      </trkpt>
      <trkpt lat="42.4884362239" lon="19.8955416866">
        <ele>2227.99</ele>
        <time>2019-07-08T10:51:17Z</time>
      </trkpt>
      <trkpt lat="42.4885358848" lon="19.8955266830">
        <ele>2226.55</ele>
        <time>2019-07-08T10:51:25Z</time>
      </trkpt>
      <trkpt lat="42.4885680713" lon="19.8955202289">
        <ele>2226.55</ele>
        <time>2019-07-08T10:51:27Z</time>
      </trkpt>
      <trkpt lat="42.4887839053" lon="19.8954227474">
        <ele>2226.55</ele>
        <time>2019-07-08T10:51:46Z</time>
      </trkpt>
      <trkpt lat="42.4887368828" lon="19.8952973541">
        <ele>2226.07</ele>
        <time>2019-07-08T10:51:58Z</time>
      </trkpt>
      <trkpt lat="42.4886824004" lon="19.8952177260">
        <ele>2223.67</ele>
        <time>2019-07-08T10:52:14Z</time>
      </trkpt>
      <trkpt lat="42.4886896089" lon="19.8952203244">
        <ele>2223.19</ele>
        <time>2019-07-08T10:52:17Z</time>
      </trkpt>
      <trkpt lat="42.4887123238" lon="19.8952509183">
        <ele>2223.19</ele>
        <time>2019-07-08T10:52:21Z</time>
      </trkpt>
      <trkpt lat="42.4889971409" lon="19.8955967557">
        <ele>2223.19</ele>
        <time>2019-07-08T10:52:39Z</time>
      </trkpt>
      <trkpt lat="42.4890162516" lon="19.8956350610">
        <ele>2223.19</ele>
        <time>2019-07-08T10:52:41Z</time>
      </trkpt>
      <trkpt lat="42.4890446663" lon="19.8956560157">
        <ele>2223.19</ele>
        <time>2019-07-08T10:52:43Z</time>
      </trkpt>
      <trkpt lat="42.4891336821" lon="19.8957426846">
        <ele>2222.71</ele>
        <time>2019-07-08T10:52:56Z</time>
      </trkpt>
      <trkpt lat="42.4890156649" lon="19.8955400102">
        <ele>2222.22</ele>
        <time>2019-07-08T10:53:34Z</time>
      </trkpt>
      <trkpt lat="42.4890612625" lon="19.8956005275">
        <ele>2222.22</ele>
        <time>2019-07-08T10:53:45Z</time>
      </trkpt>
      <trkpt lat="42.4891161639" lon="19.8956361506">
        <ele>2218.86</ele>
        <time>2019-07-08T10:53:57Z</time>
      </trkpt>
      <trkpt lat="42.4890516233" lon="19.8956028745">
        <ele>2215.98</ele>
        <time>2019-07-08T10:54:11Z</time>
      </trkpt>
      <trkpt lat="42.4890433252" lon="19.8956003599">
        <ele>2215.50</ele>
        <time>2019-07-08T10:54:12Z</time>
      </trkpt>
      <trkpt lat="42.4889544770" lon="19.8955970071">
        <ele>2212.61</ele>
        <time>2019-07-08T10:54:23Z</time>
      </trkpt>
      <trkpt lat="42.4889024254" lon="19.8955905531">
        <ele>2210.69</ele>
        <time>2019-07-08T10:54:33Z</time>
      </trkpt>
      <trkpt lat="42.4888424110" lon="19.8955602944">
        <ele>2207.32</ele>
        <time>2019-07-08T10:54:43Z</time>
      </trkpt>
      <trkpt lat="42.4887725897" lon="19.8955764715">
        <ele>2205.40</ele>
        <time>2019-07-08T10:54:55Z</time>
      </trkpt>
      <trkpt lat="42.4887192808" lon="19.8955714423">
        <ele>2203.96</ele>
        <time>2019-07-08T10:55:02Z</time>
      </trkpt>
      <trkpt lat="42.4887497909" lon="19.8955577798">
        <ele>2201.56</ele>
        <time>2019-07-08T10:55:15Z</time>
      </trkpt>
      <trkpt lat="42.4887659680" lon="19.8954977654">
        <ele>2199.15</ele>
        <time>2019-07-08T10:55:29Z</time>
      </trkpt>
      <trkpt lat="42.4887559935" lon="19.8954124376">
        <ele>2195.79</ele>
        <time>2019-07-08T10:55:38Z</time>
      </trkpt>
      <trkpt lat="42.4888108112" lon="19.8953711987">
        <ele>2193.39</ele>
        <time>2019-07-08T10:55:45Z</time>
      </trkpt>
      <trkpt lat="42.4888460152" lon="19.8953281157">
        <ele>2191.94</ele>
        <time>2019-07-08T10:55:51Z</time>
      </trkpt>
      <trkpt lat="42.4888812192" lon="19.8952952586">
        <ele>2191.46</ele>
        <time>2019-07-08T10:55:55Z</time>
      </trkpt>
      <trkpt lat="42.4889787845" lon="19.8952106852">
        <ele>2190.98</ele>
        <time>2019-07-08T10:56:06Z</time>
      </trkpt>
      <trkpt lat="42.4890325125" lon="19.8951637466">
        <ele>2190.02</ele>
        <time>2019-07-08T10:56:12Z</time>
      </trkpt>
      <trkpt lat="42.4891791120" lon="19.8950507585">
        <ele>2187.62</ele>
        <time>2019-07-08T10:56:25Z</time>
      </trkpt>
      <trkpt lat="42.4893193413" lon="19.8949398659">
        <ele>2186.66</ele>
        <time>2019-07-08T10:56:37Z</time>
      </trkpt>
      <trkpt lat="42.4893321656" lon="19.8949318193">
        <ele>2186.66</ele>
        <time>2019-07-08T10:56:38Z</time>
      </trkpt>
      <trkpt lat="42.4893740751" lon="19.8949069250">
        <ele>2186.18</ele>
        <time>2019-07-08T10:56:42Z</time>
      </trkpt>
      <trkpt lat="42.4893899169" lon="19.8948878143">
        <ele>2185.69</ele>
        <time>2019-07-08T10:56:44Z</time>
      </trkpt>
      <trkpt lat="42.4894739874" lon="19.8947879020">
        <ele>2183.77</ele>
        <time>2019-07-08T10:56:58Z</time>
      </trkpt>
      <trkpt lat="42.4894780945" lon="19.8947785143">
        <ele>2183.77</ele>
        <time>2019-07-08T10:56:59Z</time>
      </trkpt>
      <trkpt lat="42.4895552918" lon="19.8946739081">
        <ele>2181.85</ele>
        <time>2019-07-08T10:57:10Z</time>
      </trkpt>
      <trkpt lat="42.4895830359" lon="19.8946231138">
        <ele>2180.41</ele>
        <time>2019-07-08T10:57:23Z</time>
      </trkpt>
      <trkpt lat="42.4895971175" lon="19.8945506942">
        <ele>2177.52</ele>
        <time>2019-07-08T10:57:37Z</time>
      </trkpt>
      <trkpt lat="42.4895811919" lon="19.8945004027">
        <ele>2176.08</ele>
        <time>2019-07-08T10:57:44Z</time>
      </trkpt>
      <trkpt lat="42.4895990454" lon="19.8944874946">
        <ele>2173.68</ele>
        <time>2019-07-08T10:57:55Z</time>
      </trkpt>
      <trkpt lat="42.4896275438" lon="19.8944885843">
        <ele>2171.76</ele>
        <time>2019-07-08T10:58:05Z</time>
      </trkpt>
      <trkpt lat="42.4896187428" lon="19.8944341857">
        <ele>2169.35</ele>
        <time>2019-07-08T10:58:15Z</time>
      </trkpt>
      <trkpt lat="42.4896140490" lon="19.8943900969">
        <ele>2166.95</ele>
        <time>2019-07-08T10:58:25Z</time>
      </trkpt>
      <trkpt lat="42.4896371830" lon="19.8943687230">
        <ele>2164.06</ele>
        <time>2019-07-08T10:58:37Z</time>
      </trkpt>
      <trkpt lat="42.4896159768" lon="19.8943164200">
        <ele>2161.18</ele>
        <time>2019-07-08T10:58:44Z</time>
      </trkpt>
      <trkpt lat="42.4896254484" lon="19.8942957167">
        <ele>2160.70</ele>
        <time>2019-07-08T10:58:46Z</time>
      </trkpt>
      <trkpt lat="42.4896417093" lon="19.8942639492">
        <ele>2159.74</ele>
        <time>2019-07-08T10:58:49Z</time>
      </trkpt>
      <trkpt lat="42.4896390270" lon="19.8942538071">
        <ele>2159.74</ele>
        <time>2019-07-08T10:58:50Z</time>
      </trkpt>
      <trkpt lat="42.4896293879" lon="19.8941724189">
        <ele>2157.82</ele>
        <time>2019-07-08T10:58:58Z</time>
      </trkpt>
      <trkpt lat="42.4896238558" lon="19.8940937966">
        <ele>2156.37</ele>
        <time>2019-07-08T10:59:04Z</time>
      </trkpt>
      <trkpt lat="42.4896080978" lon="19.8940507136">
        <ele>2155.41</ele>
        <time>2019-07-08T10:59:07Z</time>
      </trkpt>
      <trkpt lat="42.4896515999" lon="19.8938717600">
        <ele>2153.01</ele>
        <time>2019-07-08T10:59:19Z</time>
      </trkpt>
      <trkpt lat="42.4896166474" lon="19.8938378971">
        <ele>2150.61</ele>
        <time>2019-07-08T10:59:27Z</time>
      </trkpt>
      <trkpt lat="42.4896055833" lon="19.8938202113">
        <ele>2150.13</ele>
        <time>2019-07-08T10:59:29Z</time>
      </trkpt>
      <trkpt lat="42.4895043299" lon="19.8936020304">
        <ele>2149.65</ele>
        <time>2019-07-08T10:59:41Z</time>
      </trkpt>
      <trkpt lat="42.4894972052" lon="19.8935958277">
        <ele>2149.65</ele>
        <time>2019-07-08T10:59:42Z</time>
      </trkpt>
      <trkpt lat="42.4894674495" lon="19.8933239188">
        <ele>2149.16</ele>
        <time>2019-07-08T10:59:46Z</time>
      </trkpt>
      <trkpt lat="42.4894171581" lon="19.8932521697">
        <ele>2149.16</ele>
        <time>2019-07-08T10:59:55Z</time>
      </trkpt>
      <trkpt lat="42.4894068483" lon="19.8933295347">
        <ele>2149.16</ele>
        <time>2019-07-08T10:59:57Z</time>
      </trkpt>
      <trkpt lat="42.4893474206" lon="19.8934637289">
        <ele>2151.09</ele>
        <time>2019-07-08T11:00:05Z</time>
      </trkpt>
      <trkpt lat="42.4893370271" lon="19.8934572749">
        <ele>2151.09</ele>
        <time>2019-07-08T11:00:07Z</time>
      </trkpt>
      <trkpt lat="42.4893117975" lon="19.8935474642">
        <ele>2149.65</ele>
        <time>2019-07-08T11:00:12Z</time>
      </trkpt>
      <trkpt lat="42.4893147312" lon="19.8935364839">
        <ele>2148.68</ele>
        <time>2019-07-08T11:00:17Z</time>
      </trkpt>
      <trkpt lat="42.4892202672" lon="19.8934034631">
        <ele>2148.20</ele>
        <time>2019-07-08T11:00:31Z</time>
      </trkpt>
      <trkpt lat="42.4892175011" lon="19.8932900559">
        <ele>2146.76</ele>
        <time>2019-07-08T11:00:42Z</time>
      </trkpt>
      <trkpt lat="42.4892092869" lon="19.8932504933">
        <ele>2145.80</ele>
        <time>2019-07-08T11:00:48Z</time>
      </trkpt>
      <trkpt lat="42.4891620968" lon="19.8931308836">
        <ele>2143.88</ele>
        <time>2019-07-08T11:01:01Z</time>
      </trkpt>
      <trkpt lat="42.4891311675" lon="19.8930852860">
        <ele>2143.40</ele>
        <time>2019-07-08T11:01:07Z</time>
      </trkpt>
      <trkpt lat="42.4891056027" lon="19.8930229247">
        <ele>2143.40</ele>
        <time>2019-07-08T11:01:17Z</time>
      </trkpt>
      <trkpt lat="42.4890885875" lon="19.8929424584">
        <ele>2142.92</ele>
        <time>2019-07-08T11:01:26Z</time>
      </trkpt>
      <trkpt lat="42.4890298303" lon="19.8928418756">
        <ele>2140.99</ele>
        <time>2019-07-08T11:01:36Z</time>
      </trkpt>
      <trkpt lat="42.4890251365" lon="19.8927589785">
        <ele>2138.59</ele>
        <time>2019-07-08T11:01:47Z</time>
      </trkpt>
      <trkpt lat="42.4890516233" lon="19.8926528636">
        <ele>2137.15</ele>
        <time>2019-07-08T11:02:06Z</time>
      </trkpt>
      <trkpt lat="42.4890477676" lon="19.8926163185">
        <ele>2135.71</ele>
        <time>2019-07-08T11:02:09Z</time>
      </trkpt>
      <trkpt lat="42.4890478514" lon="19.8925760854">
        <ele>2134.74</ele>
        <time>2019-07-08T11:02:11Z</time>
      </trkpt>
      <trkpt lat="42.4891110510" lon="19.8924945295">
        <ele>2132.82</ele>
        <time>2019-07-08T11:02:18Z</time>
      </trkpt>
      <trkpt lat="42.4891412258" lon="19.8923977185">
        <ele>2130.90</ele>
        <time>2019-07-08T11:02:28Z</time>
      </trkpt>
      <trkpt lat="42.4891404714" lon="19.8923102953">
        <ele>2128.02</ele>
        <time>2019-07-08T11:02:35Z</time>
      </trkpt>
      <trkpt lat="42.4891384598" lon="19.8922583275">
        <ele>2126.57</ele>
        <time>2019-07-08T11:02:41Z</time>
      </trkpt>
      <trkpt lat="42.4891048484" lon="19.8922092933">
        <ele>2125.61</ele>
        <time>2019-07-08T11:02:53Z</time>
      </trkpt>
      <trkpt lat="42.4890978914" lon="19.8921284918">
        <ele>2123.21</ele>
        <time>2019-07-08T11:03:05Z</time>
      </trkpt>
      <trkpt lat="42.4891048484" lon="19.8920745961">
        <ele>2122.25</ele>
        <time>2019-07-08T11:03:10Z</time>
      </trkpt>
      <trkpt lat="42.4891288206" lon="19.8920055293">
        <ele>2119.84</ele>
        <time>2019-07-08T11:03:21Z</time>
      </trkpt>
      <trkpt lat="42.4891398847" lon="19.8919944651">
        <ele>2119.84</ele>
        <time>2019-07-08T11:03:27Z</time>
      </trkpt>
      <trkpt lat="42.4891521223" lon="19.8918813094">
        <ele>2116.48</ele>
        <time>2019-07-08T11:03:37Z</time>
      </trkpt>
      <trkpt lat="42.4891558941" lon="19.8918750230">
        <ele>2116.48</ele>
        <time>2019-07-08T11:03:38Z</time>
      </trkpt>
      <trkpt lat="42.4891579896" lon="19.8918031901">
        <ele>2114.08</ele>
        <time>2019-07-08T11:03:49Z</time>
      </trkpt>
      <trkpt lat="42.4891266413" lon="19.8917337880">
        <ele>2110.71</ele>
        <time>2019-07-08T11:04:02Z</time>
      </trkpt>
      <trkpt lat="42.4891763460" lon="19.8916773777">
        <ele>2107.35</ele>
        <time>2019-07-08T11:04:13Z</time>
      </trkpt>
      <trkpt lat="42.4891320057" lon="19.8916171957">
        <ele>2106.39</ele>
        <time>2019-07-08T11:04:21Z</time>
      </trkpt>
      <trkpt lat="42.4891368672" lon="19.8915499728">
        <ele>2103.02</ele>
        <time>2019-07-08T11:04:33Z</time>
      </trkpt>
      <trkpt lat="42.4891546369" lon="19.8915214743">
        <ele>2099.66</ele>
        <time>2019-07-08T11:04:42Z</time>
      </trkpt>
      <trkpt lat="42.4891566485" lon="19.8914296925">
        <ele>2097.25</ele>
        <time>2019-07-08T11:04:52Z</time>
      </trkpt>
      <trkpt lat="42.4892015755" lon="19.8913460411">
        <ele>2094.37</ele>
        <time>2019-07-08T11:05:05Z</time>
      </trkpt>
      <trkpt lat="42.4892258830" lon="19.8912436981">
        <ele>2091.97</ele>
        <time>2019-07-08T11:05:17Z</time>
      </trkpt>
      <trkpt lat="42.4892620929" lon="19.8911571968">
        <ele>2089.56</ele>
        <time>2019-07-08T11:05:31Z</time>
      </trkpt>
      <trkpt lat="42.4892615061" lon="19.8911250103">
        <ele>2088.60</ele>
        <time>2019-07-08T11:05:42Z</time>
      </trkpt>
      <trkpt lat="42.4892897531" lon="19.8910782393">
        <ele>2085.72</ele>
        <time>2019-07-08T11:05:52Z</time>
      </trkpt>
      <trkpt lat="42.4892944470" lon="19.8910525069">
        <ele>2083.79</ele>
        <time>2019-07-08T11:06:05Z</time>
      </trkpt>
      <trkpt lat="42.4893209338" lon="19.8910328932">
        <ele>2082.35</ele>
        <time>2019-07-08T11:06:09Z</time>
      </trkpt>
      <trkpt lat="42.4893615860" lon="19.8909783270">
        <ele>2081.39</ele>
        <time>2019-07-08T11:06:15Z</time>
      </trkpt>
      <trkpt lat="42.4894285575" lon="19.8909356631">
        <ele>2079.95</ele>
        <time>2019-07-08T11:06:22Z</time>
      </trkpt>
      <trkpt lat="42.4894748256" lon="19.8908883054">
        <ele>2078.51</ele>
        <time>2019-07-08T11:06:26Z</time>
      </trkpt>
      <trkpt lat="42.4894780945" lon="19.8908404447">
        <ele>2078.03</ele>
        <time>2019-07-08T11:06:30Z</time>
      </trkpt>
      <trkpt lat="42.4894638453" lon="19.8907648399">
        <ele>2076.59</ele>
        <time>2019-07-08T11:06:42Z</time>
      </trkpt>
      <trkpt lat="42.4894887395" lon="19.8907391913">
        <ele>2073.22</ele>
        <time>2019-07-08T11:06:52Z</time>
      </trkpt>
      <trkpt lat="42.4895362649" lon="19.8907183204">
        <ele>2070.34</ele>
        <time>2019-07-08T11:07:09Z</time>
      </trkpt>
      <trkpt lat="42.4895411264" lon="19.8906502593">
        <ele>2067.93</ele>
        <time>2019-07-08T11:07:20Z</time>
      </trkpt>
      <trkpt lat="42.4895629194" lon="19.8906366806">
        <ele>2067.45</ele>
        <time>2019-07-08T11:07:24Z</time>
      </trkpt>
      <trkpt lat="42.4895969499" lon="19.8905793484">
        <ele>2063.61</ele>
        <time>2019-07-08T11:07:37Z</time>
      </trkpt>
      <trkpt lat="42.4895991292" lon="19.8905754089">
        <ele>2063.61</ele>
        <time>2019-07-08T11:07:38Z</time>
      </trkpt>
      <trkpt lat="42.4896399491" lon="19.8905253690">
        <ele>2061.20</ele>
        <time>2019-07-08T11:07:50Z</time>
      </trkpt>
      <trkpt lat="42.4896384403" lon="19.8904319108">
        <ele>2059.76</ele>
        <time>2019-07-08T11:08:01Z</time>
      </trkpt>
      <trkpt lat="42.4896507617" lon="19.8904187512">
        <ele>2057.84</ele>
        <time>2019-07-08T11:08:06Z</time>
      </trkpt>
      <trkpt lat="42.4896682799" lon="19.8903735727">
        <ele>2055.44</ele>
        <time>2019-07-08T11:08:17Z</time>
      </trkpt>
      <trkpt lat="42.4897072557" lon="19.8903339263">
        <ele>2053.03</ele>
        <time>2019-07-08T11:08:29Z</time>
      </trkpt>
      <trkpt lat="42.4897354189" lon="19.8903060146">
        <ele>2050.15</ele>
        <time>2019-07-08T11:08:42Z</time>
      </trkpt>
      <trkpt lat="42.4897905719" lon="19.8902913462">
        <ele>2048.71</ele>
        <time>2019-07-08T11:08:56Z</time>
      </trkpt>
      <trkpt lat="42.4897441361" lon="19.8902796116">
        <ele>2048.23</ele>
        <time>2019-07-08T11:09:10Z</time>
      </trkpt>
      <trkpt lat="42.4897542782" lon="19.8902683798">
        <ele>2048.23</ele>
        <time>2019-07-08T11:09:39Z</time>
      </trkpt>
      <trkpt lat="42.4897808488" lon="19.8902971298">
        <ele>2047.75</ele>
        <time>2019-07-08T11:10:01Z</time>
      </trkpt>
      <trkpt lat="42.4897526857" lon="19.8902713135">
        <ele>2047.75</ele>
        <time>2019-07-08T11:10:28Z</time>
      </trkpt>
      <trkpt lat="42.4897531886" lon="19.8902638536">
        <ele>2047.26</ele>
        <time>2019-07-08T11:10:52Z</time>
      </trkpt>
      <trkpt lat="42.4897643365" lon="19.8902764264">
        <ele>2046.78</ele>
        <time>2019-07-08T11:11:16Z</time>
      </trkpt>
      <trkpt lat="42.4897624925" lon="19.8902700562">
        <ele>2046.78</ele>
        <time>2019-07-08T11:11:41Z</time>
      </trkpt>
      <trkpt lat="42.4897781666" lon="19.8902809527">
        <ele>2048.23</ele>
        <time>2019-07-08T11:12:00Z</time>
      </trkpt>
      <trkpt lat="42.4897811003" lon="19.8902818747">
        <ele>2048.23</ele>
        <time>2019-07-08T11:12:01Z</time>
      </trkpt>
      <trkpt lat="42.4897986185" lon="19.8902808689">
        <ele>2048.23</ele>
        <time>2019-07-08T11:12:22Z</time>
      </trkpt>
      <trkpt lat="42.4897986185" lon="19.8902848922">
        <ele>2047.75</ele>
        <time>2019-07-08T11:12:41Z</time>
      </trkpt>
      <trkpt lat="42.4897866324" lon="19.8902802821">
        <ele>2048.23</ele>
        <time>2019-07-08T11:13:13Z</time>
      </trkpt>
      <trkpt lat="42.4897784181" lon="19.8902763426">
        <ele>2046.78</ele>
        <time>2019-07-08T11:13:21Z</time>
      </trkpt>
      <trkpt lat="42.4897697009" lon="19.8902827129">
        <ele>2046.30</ele>
        <time>2019-07-08T11:13:48Z</time>
      </trkpt>
      <trkpt lat="42.4897833634" lon="19.8902606685">
        <ele>2046.30</ele>
        <time>2019-07-08T11:14:08Z</time>
      </trkpt>
      <trkpt lat="42.4897914939" lon="19.8902834672">
        <ele>2046.30</ele>
        <time>2019-07-08T11:14:18Z</time>
      </trkpt>
      <trkpt lat="42.4897779152" lon="19.8902732413">
        <ele>2045.82</ele>
        <time>2019-07-08T11:14:43Z</time>
      </trkpt>
      <trkpt lat="42.4897745624" lon="19.8902330920">
        <ele>2045.82</ele>
        <time>2019-07-08T11:15:11Z</time>
      </trkpt>
      <trkpt lat="42.4898127001" lon="19.8902147356">
        <ele>2045.82</ele>
        <time>2019-07-08T11:15:25Z</time>
      </trkpt>
      <trkpt lat="42.4898080900" lon="19.8901630193">
        <ele>2045.34</ele>
        <time>2019-07-08T11:15:36Z</time>
      </trkpt>
      <trkpt lat="42.4897720478" lon="19.8900885042">
        <ele>2046.30</ele>
        <time>2019-07-08T11:15:48Z</time>
      </trkpt>
      <trkpt lat="42.4897627439" lon="19.8900020029">
        <ele>2044.86</ele>
        <time>2019-07-08T11:16:00Z</time>
      </trkpt>
      <trkpt lat="42.4898030609" lon="19.8899035994">
        <ele>2041.98</ele>
        <time>2019-07-08T11:16:14Z</time>
      </trkpt>
      <trkpt lat="42.4898617342" lon="19.8897767812">
        <ele>2039.09</ele>
        <time>2019-07-08T11:16:28Z</time>
      </trkpt>
      <trkpt lat="42.4898757320" lon="19.8896890227">
        <ele>2036.69</ele>
        <time>2019-07-08T11:16:39Z</time>
      </trkpt>
      <trkpt lat="42.4899312202" lon="19.8896069638">
        <ele>2035.25</ele>
        <time>2019-07-08T11:16:50Z</time>
      </trkpt>
      <trkpt lat="42.4899455532" lon="19.8895626236">
        <ele>2035.25</ele>
        <time>2019-07-08T11:16:54Z</time>
      </trkpt>
      <trkpt lat="42.4899574555" lon="19.8895424232">
        <ele>2035.25</ele>
        <time>2019-07-08T11:16:56Z</time>
      </trkpt>
      <trkpt lat="42.4900364131" lon="19.8895380646">
        <ele>2032.84</ele>
        <time>2019-07-08T11:17:10Z</time>
      </trkpt>
      <trkpt lat="42.4900722038" lon="19.8895728495">
        <ele>2031.40</ele>
        <time>2019-07-08T11:17:22Z</time>
      </trkpt>
      <trkpt lat="42.4900823459" lon="19.8896273319">
        <ele>2028.04</ele>
        <time>2019-07-08T11:17:32Z</time>
      </trkpt>
      <trkpt lat="42.4900913145" lon="19.8896195367">
        <ele>2027.56</ele>
        <time>2019-07-08T11:17:33Z</time>
      </trkpt>
      <trkpt lat="42.4901547655" lon="19.8895974923">
        <ele>2026.60</ele>
        <time>2019-07-08T11:17:40Z</time>
      </trkpt>
      <trkpt lat="42.4902686756" lon="19.8894881085">
        <ele>2027.56</ele>
        <time>2019-07-08T11:17:55Z</time>
      </trkpt>
      <trkpt lat="42.4902952462" lon="19.8894075584">
        <ele>2027.56</ele>
        <time>2019-07-08T11:18:03Z</time>
      </trkpt>
      <trkpt lat="42.4903564341" lon="19.8893217277">
        <ele>2027.56</ele>
        <time>2019-07-08T11:18:17Z</time>
      </trkpt>
      <trkpt lat="42.4903638102" lon="19.8893239908">
        <ele>2027.08</ele>
        <time>2019-07-08T11:18:18Z</time>
      </trkpt>
      <trkpt lat="42.4904168677" lon="19.8893098254">
        <ele>2027.56</ele>
        <time>2019-07-08T11:18:25Z</time>
      </trkpt>
      <trkpt lat="42.4904861022" lon="19.8892349750">
        <ele>2026.60</ele>
        <time>2019-07-08T11:18:37Z</time>
      </trkpt>
      <trkpt lat="42.4904943164" lon="19.8892334662">
        <ele>2026.60</ele>
        <time>2019-07-08T11:18:38Z</time>
      </trkpt>
      <trkpt lat="42.4905805662" lon="19.8891819175">
        <ele>2024.19</ele>
        <time>2019-07-08T11:18:48Z</time>
      </trkpt>
      <trkpt lat="42.4906542432" lon="19.8891752120">
        <ele>2022.27</ele>
        <time>2019-07-08T11:18:55Z</time>
      </trkpt>
      <trkpt lat="42.4907090608" lon="19.8891416006">
        <ele>2021.79</ele>
        <time>2019-07-08T11:19:01Z</time>
      </trkpt>
      <trkpt lat="42.4907955620" lon="19.8891491443">
        <ele>2019.39</ele>
        <time>2019-07-08T11:19:11Z</time>
      </trkpt>
      <trkpt lat="42.4908090569" lon="19.8891567718">
        <ele>2019.39</ele>
        <time>2019-07-08T11:19:12Z</time>
      </trkpt>
      <trkpt lat="42.4908929598" lon="19.8891498987">
        <ele>2016.98</ele>
        <time>2019-07-08T11:19:20Z</time>
      </trkpt>
      <trkpt lat="42.4910310935" lon="19.8891552631">
        <ele>2014.10</ele>
        <time>2019-07-08T11:19:34Z</time>
      </trkpt>
      <trkpt lat="42.4910807982" lon="19.8891902156">
        <ele>2013.14</ele>
        <time>2019-07-08T11:19:38Z</time>
      </trkpt>
      <trkpt lat="42.4911412317" lon="19.8892006092">
        <ele>2010.25</ele>
        <time>2019-07-08T11:19:44Z</time>
      </trkpt>
      <trkpt lat="42.4912103824" lon="19.8892130144">
        <ele>2008.81</ele>
        <time>2019-07-08T11:19:53Z</time>
      </trkpt>
      <trkpt lat="42.4912449159" lon="19.8892241623">
        <ele>2007.85</ele>
        <time>2019-07-08T11:19:56Z</time>
      </trkpt>
      <trkpt lat="42.4913481809" lon="19.8892222345">
        <ele>2004.49</ele>
        <time>2019-07-08T11:20:05Z</time>
      </trkpt>
      <trkpt lat="42.4913562275" lon="19.8892197199">
        <ele>2004.49</ele>
        <time>2019-07-08T11:20:06Z</time>
      </trkpt>
      <trkpt lat="42.4914289825" lon="19.8892014474">
        <ele>2003.52</ele>
        <time>2019-07-08T11:20:14Z</time>
      </trkpt>
      <trkpt lat="42.4914740771" lon="19.8892110027">
        <ele>2002.56</ele>
        <time>2019-07-08T11:20:19Z</time>
      </trkpt>
      <trkpt lat="42.4914907571" lon="19.8892189655">
        <ele>2002.08</ele>
        <time>2019-07-08T11:20:21Z</time>
      </trkpt>
      <trkpt lat="42.4915122148" lon="19.8892186303">
        <ele>2002.08</ele>
        <time>2019-07-08T11:20:23Z</time>
      </trkpt>
      <trkpt lat="42.4915495142" lon="19.8892235756">
        <ele>2002.08</ele>
        <time>2019-07-08T11:20:27Z</time>
      </trkpt>
      <trkpt lat="42.4916993827" lon="19.8892592825">
        <ele>1999.68</ele>
        <time>2019-07-08T11:20:43Z</time>
      </trkpt>
      <trkpt lat="42.4917046633" lon="19.8892581929">
        <ele>1999.68</ele>
        <time>2019-07-08T11:20:44Z</time>
      </trkpt>
      <trkpt lat="42.4917315692" lon="19.8892559297">
        <ele>1998.72</ele>
        <time>2019-07-08T11:20:47Z</time>
      </trkpt>
      <trkpt lat="42.4919055775" lon="19.8892482184">
        <ele>1997.28</ele>
        <time>2019-07-08T11:21:02Z</time>
      </trkpt>
      <trkpt lat="42.4920513388" lon="19.8892369866">
        <ele>1995.83</ele>
        <time>2019-07-08T11:21:17Z</time>
      </trkpt>
      <trkpt lat="42.4920401908" lon="19.8892343044">
        <ele>1995.83</ele>
        <time>2019-07-08T11:21:33Z</time>
      </trkpt>
      <trkpt lat="42.4921373371" lon="19.8892415129">
        <ele>1994.87</ele>
        <time>2019-07-08T11:21:45Z</time>
      </trkpt>
      <trkpt lat="42.4921666738" lon="19.8892484698">
        <ele>1993.91</ele>
        <time>2019-07-08T11:21:48Z</time>
      </trkpt>
      <trkpt lat="42.4921965133" lon="19.8892566841">
        <ele>1993.91</ele>
        <time>2019-07-08T11:21:51Z</time>
      </trkpt>
      <trkpt lat="42.4922338966" lon="19.8892859370">
        <ele>1993.91</ele>
        <time>2019-07-08T11:21:54Z</time>
      </trkpt>
      <trkpt lat="42.4923717789" lon="19.8893063888">
        <ele>1993.43</ele>
        <time>2019-07-08T11:22:07Z</time>
      </trkpt>
      <trkpt lat="42.4925184622" lon="19.8893271759">
        <ele>1991.51</ele>
        <time>2019-07-08T11:22:21Z</time>
      </trkpt>
      <trkpt lat="42.4922217429" lon="19.8899434973">
        <ele>1991.51</ele>
        <time>2019-07-08T11:22:34Z</time>
      </trkpt>
      <trkpt lat="42.4919100199" lon="19.8899652902">
        <ele>1990.07</ele>
        <time>2019-07-08T11:22:46Z</time>
      </trkpt>
      <trkpt lat="42.4919924140" lon="19.8899123166">
        <ele>1989.59</ele>
        <time>2019-07-08T11:22:58Z</time>
      </trkpt>
      <trkpt lat="42.4920429569" lon="19.8899139930">
        <ele>1990.55</ele>
        <time>2019-07-08T11:23:04Z</time>
      </trkpt>
      <trkpt lat="42.4920613132" lon="19.8899174295">
        <ele>1991.03</ele>
        <time>2019-07-08T11:23:08Z</time>
      </trkpt>
      <trkpt lat="42.4921924900" lon="19.8899480235">
        <ele>1991.03</ele>
        <time>2019-07-08T11:23:22Z</time>
      </trkpt>
      <trkpt lat="42.4922791589" lon="19.8899729177">
        <ele>1991.03</ele>
        <time>2019-07-08T11:23:31Z</time>
      </trkpt>
      <trkpt lat="42.4923022930" lon="19.8899687268">
        <ele>1991.03</ele>
        <time>2019-07-08T11:23:33Z</time>
      </trkpt>
      <trkpt lat="42.4923982657" lon="19.8900154978">
        <ele>1991.03</ele>
        <time>2019-07-08T11:23:42Z</time>
      </trkpt>
      <trkpt lat="42.4925716035" lon="19.8900790326">
        <ele>1990.07</ele>
        <time>2019-07-08T11:23:59Z</time>
      </trkpt>
      <trkpt lat="42.4925819132" lon="19.8900867440">
        <ele>1990.07</ele>
        <time>2019-07-08T11:24:00Z</time>
      </trkpt>
      <trkpt lat="42.4927348830" lon="19.8901866563">
        <ele>1989.59</ele>
        <time>2019-07-08T11:24:15Z</time>
      </trkpt>
      <trkpt lat="42.4927569274" lon="19.8902031686">
        <ele>1990.07</ele>
        <time>2019-07-08T11:24:18Z</time>
      </trkpt>
      <trkpt lat="42.4927762896" lon="19.8902355228">
        <ele>1991.03</ele>
        <time>2019-07-08T11:24:20Z</time>
      </trkpt>
      <trkpt lat="42.4927979987" lon="19.8902434018">
        <ele>1991.03</ele>
        <time>2019-07-08T11:24:22Z</time>
      </trkpt>
      <trkpt lat="42.4929123279" lon="19.8902796116">
        <ele>1989.59</ele>
        <time>2019-07-08T11:24:34Z</time>
      </trkpt>
      <trkpt lat="42.4930282496" lon="19.8903336748">
        <ele>1988.62</ele>
        <time>2019-07-08T11:24:45Z</time>
      </trkpt>
      <trkpt lat="42.4930494558" lon="19.8903393745">
        <ele>1988.62</ele>
        <time>2019-07-08T11:24:47Z</time>
      </trkpt>
      <trkpt lat="42.4932063650" lon="19.8903913423">
        <ele>1987.18</ele>
        <time>2019-07-08T11:24:59Z</time>
      </trkpt>
      <trkpt lat="42.4932548963" lon="19.8904392868">
        <ele>1987.18</ele>
        <time>2019-07-08T11:25:03Z</time>
      </trkpt>
      <trkpt lat="42.4934023339" lon="19.8905257042">
        <ele>1986.22</ele>
        <time>2019-07-08T11:25:17Z</time>
      </trkpt>
      <trkpt lat="42.4934198521" lon="19.8905290570">
        <ele>1986.22</ele>
        <time>2019-07-08T11:25:19Z</time>
      </trkpt>
      <trkpt lat="42.4935379531" lon="19.8904475849">
        <ele>1983.82</ele>
        <time>2019-07-08T11:25:30Z</time>
      </trkpt>
      <trkpt lat="42.4937364366" lon="19.8904188350">
        <ele>1984.78</ele>
        <time>2019-07-08T11:25:42Z</time>
      </trkpt>
      <trkpt lat="42.4937654380" lon="19.8904099502">
        <ele>1985.74</ele>
        <time>2019-07-08T11:25:47Z</time>
      </trkpt>
      <trkpt lat="42.4938500952" lon="19.8904215172">
        <ele>1987.66</ele>
        <time>2019-07-08T11:25:59Z</time>
      </trkpt>
      <trkpt lat="42.4938689545" lon="19.8904192541">
        <ele>1988.62</ele>
        <time>2019-07-08T11:26:02Z</time>
      </trkpt>
      <trkpt lat="42.4939927552" lon="19.8903464153">
        <ele>1988.62</ele>
        <time>2019-07-08T11:26:11Z</time>
      </trkpt>
      <trkpt lat="42.4941339903" lon="19.8903642688">
        <ele>1989.10</ele>
        <time>2019-07-08T11:26:25Z</time>
      </trkpt>
      <trkpt lat="42.4941968545" lon="19.8903870676">
        <ele>1988.62</ele>
        <time>2019-07-08T11:26:31Z</time>
      </trkpt>
      <trkpt lat="42.4942204077" lon="19.8903752491">
        <ele>1989.10</ele>
        <time>2019-07-08T11:26:33Z</time>
      </trkpt>
      <trkpt lat="42.4942519236" lon="19.8903965391">
        <ele>1989.59</ele>
        <time>2019-07-08T11:26:36Z</time>
      </trkpt>
      <trkpt lat="42.4944679253" lon="19.8903909232">
        <ele>1988.62</ele>
        <time>2019-07-08T11:26:49Z</time>
      </trkpt>
      <trkpt lat="42.4945559353" lon="19.8904889915">
        <ele>1988.62</ele>
        <time>2019-07-08T11:27:00Z</time>
      </trkpt>
      <trkpt lat="42.4947083183" lon="19.8905653507">
        <ele>1988.14</ele>
        <time>2019-07-08T11:27:12Z</time>
      </trkpt>
      <trkpt lat="42.4947064742" lon="19.8905914184">
        <ele>1985.26</ele>
        <time>2019-07-08T11:27:23Z</time>
      </trkpt>
      <trkpt lat="42.4947059713" lon="19.8906267062">
        <ele>1983.82</ele>
        <time>2019-07-08T11:27:28Z</time>
      </trkpt>
      <trkpt lat="42.4947082344" lon="19.8906326573">
        <ele>1983.34</ele>
        <time>2019-07-08T11:27:29Z</time>
      </trkpt>
      <trkpt lat="42.4947723560" lon="19.8906979524">
        <ele>1980.45</ele>
        <time>2019-07-08T11:27:41Z</time>
      </trkpt>
      <trkpt lat="42.4948283471" lon="19.8908149637">
        <ele>1977.09</ele>
        <time>2019-07-08T11:27:53Z</time>
      </trkpt>
      <trkpt lat="42.4948234018" lon="19.8908681888">
        <ele>1975.17</ele>
        <time>2019-07-08T11:27:58Z</time>
      </trkpt>
      <trkpt lat="42.4948538281" lon="19.8909689393">
        <ele>1974.20</ele>
        <time>2019-07-08T11:28:12Z</time>
      </trkpt>
      <trkpt lat="42.4949075561" lon="19.8910717852">
        <ele>1971.80</ele>
        <time>2019-07-08T11:28:23Z</time>
      </trkpt>
      <trkpt lat="42.4949565902" lon="19.8911665846">
        <ele>1970.84</ele>
        <time>2019-07-08T11:28:34Z</time>
      </trkpt>
      <trkpt lat="42.4949941412" lon="19.8912225757">
        <ele>1968.44</ele>
        <time>2019-07-08T11:28:45Z</time>
      </trkpt>
      <trkpt lat="42.4948144332" lon="19.8910872079">
        <ele>1968.44</ele>
        <time>2019-07-08T11:28:59Z</time>
      </trkpt>
      <trkpt lat="42.4953140784" lon="19.8910371680">
        <ele>1967.48</ele>
        <time>2019-07-08T11:29:15Z</time>
      </trkpt>
      <trkpt lat="42.4955526274" lon="19.8910331447">
        <ele>1967.48</ele>
        <time>2019-07-08T11:29:30Z</time>
      </trkpt>
      <trkpt lat="42.4956360273" lon="19.8910862021">
        <ele>1968.92</ele>
        <time>2019-07-08T11:29:37Z</time>
      </trkpt>
      <trkpt lat="42.4957204331" lon="19.8910126928">
        <ele>1969.40</ele>
        <time>2019-07-08T11:29:52Z</time>
      </trkpt>
      <trkpt lat="42.4958109576" lon="19.8909771536">
        <ele>1969.88</ele>
        <time>2019-07-08T11:30:12Z</time>
      </trkpt>
      <trkpt lat="42.4958578125" lon="19.8911030497">
        <ele>1968.44</ele>
        <time>2019-07-08T11:30:29Z</time>
      </trkpt>
      <trkpt lat="42.4959218502" lon="19.8912049737">
        <ele>1968.44</ele>
        <time>2019-07-08T11:30:58Z</time>
      </trkpt>
      <trkpt lat="42.4959474150" lon="19.8910836037">
        <ele>1968.44</ele>
        <time>2019-07-08T11:31:28Z</time>
      </trkpt>
      <trkpt lat="42.4959490914" lon="19.8909066617">
        <ele>1968.44</ele>
        <time>2019-07-08T11:31:59Z</time>
      </trkpt>
      <trkpt lat="42.4959503487" lon="19.8909681011">
        <ele>1967.96</ele>
        <time>2019-07-08T11:32:26Z</time>
      </trkpt>
      <trkpt lat="42.4959537853" lon="19.8910529260">
        <ele>1967.96</ele>
        <time>2019-07-08T11:32:50Z</time>
      </trkpt>
      <trkpt lat="42.4959815294" lon="19.8911210708">
        <ele>1967.48</ele>
        <time>2019-07-08T11:33:19Z</time>
      </trkpt>
      <trkpt lat="42.4959775060" lon="19.8911407683">
        <ele>1966.99</ele>
        <time>2019-07-08T11:33:55Z</time>
      </trkpt>
      <trkpt lat="42.4960169848" lon="19.8912109248">
        <ele>1966.51</ele>
        <time>2019-07-08T11:34:25Z</time>
      </trkpt>
      <trkpt lat="42.4960267916" lon="19.8911056481">
        <ele>1965.07</ele>
        <time>2019-07-08T11:35:01Z</time>
      </trkpt>
      <trkpt lat="42.4960525241" lon="19.8910700250">
        <ele>1964.59</ele>
        <time>2019-07-08T11:35:36Z</time>
      </trkpt>
      <trkpt lat="42.4960424658" lon="19.8909626529">
        <ele>1964.11</ele>
        <time>2019-07-08T11:36:10Z</time>
      </trkpt>
      <trkpt lat="42.4960651807" lon="19.8910872079">
        <ele>1963.15</ele>
        <time>2019-07-08T11:36:38Z</time>
      </trkpt>
      <trkpt lat="42.4960739817" lon="19.8910447117">
        <ele>1962.67</ele>
        <time>2019-07-08T11:37:08Z</time>
      </trkpt>
      <trkpt lat="42.4960630015" lon="19.8911535926">
        <ele>1962.67</ele>
        <time>2019-07-08T11:37:46Z</time>
      </trkpt>
      <trkpt lat="42.4960852135" lon="19.8910381738">
        <ele>1961.71</ele>
        <time>2019-07-08T11:38:17Z</time>
      </trkpt>
      <trkpt lat="42.4960806035" lon="19.8910933267">
        <ele>1960.75</ele>
        <time>2019-07-08T11:38:49Z</time>
      </trkpt>
      <trkpt lat="42.4960850459" lon="19.8910168000">
        <ele>1959.78</ele>
        <time>2019-07-08T11:39:25Z</time>
      </trkpt>
      <trkpt lat="42.4960654322" lon="19.8909732979">
        <ele>1959.30</ele>
        <time>2019-07-08T11:39:55Z</time>
      </trkpt>
      <trkpt lat="42.4960526917" lon="19.8910470586">
        <ele>1958.82</ele>
        <time>2019-07-08T11:40:25Z</time>
      </trkpt>
      <trkpt lat="42.4960357603" lon="19.8910476454">
        <ele>1957.86</ele>
        <time>2019-07-08T11:41:00Z</time>
      </trkpt>
      <trkpt lat="42.4960288033" lon="19.8910484836">
        <ele>1957.38</ele>
        <time>2019-07-08T11:41:36Z</time>
      </trkpt>
      <trkpt lat="42.4960373528" lon="19.8910734616">
        <ele>1956.42</ele>
        <time>2019-07-08T11:42:01Z</time>
      </trkpt>
      <trkpt lat="42.4960407056" lon="19.8910483159">
        <ele>1955.94</ele>
        <time>2019-07-08T11:42:33Z</time>
      </trkpt>
      <trkpt lat="42.4960157275" lon="19.8911168799">
        <ele>1954.98</ele>
        <time>2019-07-08T11:43:04Z</time>
      </trkpt>
      <trkpt lat="42.4960194994" lon="19.8910906445">
        <ele>1954.50</ele>
        <time>2019-07-08T11:43:33Z</time>
      </trkpt>
      <trkpt lat="42.4960294738" lon="19.8910941649">
        <ele>1954.02</ele>
        <time>2019-07-08T11:44:07Z</time>
      </trkpt>
      <trkpt lat="42.4960362632" lon="19.8910693545">
        <ele>1953.54</ele>
        <time>2019-07-08T11:44:40Z</time>
      </trkpt>
      <trkpt lat="42.4960443098" lon="19.8910965957">
        <ele>1953.06</ele>
        <time>2019-07-08T11:45:12Z</time>
      </trkpt>
      <trkpt lat="42.4960258696" lon="19.8911130242">
        <ele>1952.57</ele>
        <time>2019-07-08T11:45:47Z</time>
      </trkpt>
      <trkpt lat="42.4960344192" lon="19.8910563625">
        <ele>1951.61</ele>
        <time>2019-07-08T11:46:17Z</time>
      </trkpt>
      <trkpt lat="42.4960283004" lon="19.8910002876">
        <ele>1951.13</ele>
        <time>2019-07-08T11:46:51Z</time>
      </trkpt>
      <trkpt lat="42.4960489199" lon="19.8910399340">
        <ele>1951.13</ele>
        <time>2019-07-08T11:47:22Z</time>
      </trkpt>
      <trkpt lat="42.4960303959" lon="19.8912355676">
        <ele>1950.65</ele>
        <time>2019-07-08T11:47:44Z</time>
      </trkpt>
      <trkpt lat="42.4961093534" lon="19.8912585340">
        <ele>1950.65</ele>
        <time>2019-07-08T11:48:09Z</time>
      </trkpt>
      <trkpt lat="42.4960552063" lon="19.8911431991">
        <ele>1950.17</ele>
        <time>2019-07-08T11:48:34Z</time>
      </trkpt>
      <trkpt lat="42.4960987084" lon="19.8909469787">
        <ele>1949.69</ele>
        <time>2019-07-08T11:49:01Z</time>
      </trkpt>
      <trkpt lat="42.4960889854" lon="19.8908954300">
        <ele>1949.69</ele>
        <time>2019-07-08T11:49:23Z</time>
      </trkpt>
      <trkpt lat="42.4960825313" lon="19.8909853678">
        <ele>1948.73</ele>
        <time>2019-07-08T11:49:35Z</time>
      </trkpt>
      <trkpt lat="42.4961378518" lon="19.8910006229">
        <ele>1948.73</ele>
        <time>2019-07-08T11:49:56Z</time>
      </trkpt>
      <trkpt lat="42.4962277059" lon="19.8911724519">
        <ele>1948.73</ele>
        <time>2019-07-08T11:50:26Z</time>
      </trkpt>
      <trkpt lat="42.4960335810" lon="19.8911172152">
        <ele>1948.73</ele>
        <time>2019-07-08T11:50:57Z</time>
      </trkpt>
      <trkpt lat="42.4959725607" lon="19.8909796681">
        <ele>1948.73</ele>
        <time>2019-07-08T11:51:25Z</time>
      </trkpt>
      <trkpt lat="42.4959129654" lon="19.8909763992">
        <ele>1948.25</ele>
        <time>2019-07-08T11:51:53Z</time>
      </trkpt>
      <trkpt lat="42.4959456548" lon="19.8911550175">
        <ele>1948.25</ele>
        <time>2019-07-08T11:52:17Z</time>
      </trkpt>
      <trkpt lat="42.4958195910" lon="19.8912120983">
        <ele>1948.25</ele>
        <time>2019-07-08T11:52:48Z</time>
      </trkpt>
      <trkpt lat="42.4956561439" lon="19.8911258485">
        <ele>1948.25</ele>
        <time>2019-07-08T11:53:15Z</time>
      </trkpt>
      <trkpt lat="42.4956698064" lon="19.8910696898">
        <ele>1948.73</ele>
        <time>2019-07-08T11:53:47Z</time>
      </trkpt>
      <trkpt lat="42.4956153240" lon="19.8911103420">
        <ele>1948.73</ele>
        <time>2019-07-08T11:54:12Z</time>
      </trkpt>
      <trkpt lat="42.4956076965" lon="19.8911048099">
        <ele>1948.73</ele>
        <time>2019-07-08T11:54:36Z</time>
      </trkpt>
      <trkpt lat="42.4956166651" lon="19.8910841905">
        <ele>1948.73</ele>
        <time>2019-07-08T11:55:00Z</time>
      </trkpt>
      <trkpt lat="42.4956598319" lon="19.8911838513">
        <ele>1949.21</ele>
        <time>2019-07-08T11:55:28Z</time>
      </trkpt>
      <trkpt lat="42.4956227839" lon="19.8910732940">
        <ele>1949.69</ele>
        <time>2019-07-08T11:55:47Z</time>
      </trkpt>
      <trkpt lat="42.4956444092" lon="19.8910217453">
        <ele>1950.17</ele>
        <time>2019-07-08T11:56:08Z</time>
      </trkpt>
      <trkpt lat="42.4956893362" lon="19.8910502438">
        <ele>1950.65</ele>
        <time>2019-07-08T11:56:36Z</time>
      </trkpt>
      <trkpt lat="42.4955328461" lon="19.8910353240">
        <ele>1951.61</ele>
        <time>2019-07-08T11:57:03Z</time>
      </trkpt>
      <trkpt lat="42.4955959618" lon="19.8909927439">
        <ele>1952.09</ele>
        <time>2019-07-08T11:57:33Z</time>
      </trkpt>
      <trkpt lat="42.4956369493" lon="19.8910506628">
        <ele>1952.57</ele>
        <time>2019-07-08T11:58:02Z</time>
      </trkpt>
      <trkpt lat="42.4957696348" lon="19.8911663331">
        <ele>1953.54</ele>
        <time>2019-07-08T11:58:35Z</time>
      </trkpt>
      <trkpt lat="42.4957224447" lon="19.8911493178">
        <ele>1953.54</ele>
        <time>2019-07-08T11:59:06Z</time>
      </trkpt>
      <trkpt lat="42.4958013184" lon="19.8910862859">
        <ele>1954.50</ele>
        <time>2019-07-08T11:59:33Z</time>
      </trkpt>
      <trkpt lat="42.4957883265" lon="19.8911856953">
        <ele>1954.50</ele>
        <time>2019-07-08T11:59:58Z</time>
      </trkpt>
      <trkpt lat="42.4958262127" lon="19.8911236692">
        <ele>1954.50</ele>
        <time>2019-07-08T12:00:24Z</time>
      </trkpt>
      <trkpt lat="42.4959605746" lon="19.8911148682">
        <ele>1955.94</ele>
        <time>2019-07-08T12:00:57Z</time>
      </trkpt>
      <trkpt lat="42.4958343431" lon="19.8910934106">
        <ele>1955.94</ele>
        <time>2019-07-08T12:01:23Z</time>
      </trkpt>
      <trkpt lat="42.4957069382" lon="19.8913182132">
        <ele>1955.94</ele>
        <time>2019-07-08T12:01:46Z</time>
      </trkpt>
      <trkpt lat="42.4955548067" lon="19.8915447760">
        <ele>1956.42</ele>
        <time>2019-07-08T12:02:00Z</time>
      </trkpt>
      <trkpt lat="42.4955277331" lon="19.8913203087">
        <ele>1956.90</ele>
        <time>2019-07-08T12:02:13Z</time>
      </trkpt>
      <trkpt lat="42.4955726601" lon="19.8911370803">
        <ele>1956.90</ele>
        <time>2019-07-08T12:02:26Z</time>
      </trkpt>
      <trkpt lat="42.4957103748" lon="19.8911423609">
        <ele>1957.86</ele>
        <time>2019-07-08T12:02:44Z</time>
      </trkpt>
      <trkpt lat="42.4957544636" lon="19.8911784030">
        <ele>1959.78</ele>
        <time>2019-07-08T12:02:54Z</time>
      </trkpt>
      <trkpt lat="42.4958324153" lon="19.8912074044">
        <ele>1962.19</ele>
        <time>2019-07-08T12:03:06Z</time>
      </trkpt>
      <trkpt lat="42.4960323237" lon="19.8912828416">
        <ele>1963.63</ele>
        <time>2019-07-08T12:03:17Z</time>
      </trkpt>
      <trkpt lat="42.4960963614" lon="19.8913116753">
        <ele>1965.07</ele>
        <time>2019-07-08T12:03:28Z</time>
      </trkpt>
      <trkpt lat="42.4961383548" lon="19.8913586978">
        <ele>1966.51</ele>
        <time>2019-07-08T12:03:40Z</time>
      </trkpt>
      <trkpt lat="42.4961667694" lon="19.8914591130">
        <ele>1967.48</ele>
        <time>2019-07-08T12:03:53Z</time>
      </trkpt>
      <trkpt lat="42.4961877242" lon="19.8915633839">
        <ele>1968.44</ele>
        <time>2019-07-08T12:04:08Z</time>
      </trkpt>
      <trkpt lat="42.4962234311" lon="19.8916064668">
        <ele>1968.92</ele>
        <time>2019-07-08T12:04:16Z</time>
      </trkpt>
      <trkpt lat="42.4962831941" lon="19.8915880267">
        <ele>1968.92</ele>
        <time>2019-07-08T12:04:22Z</time>
      </trkpt>
      <trkpt lat="42.4963362515" lon="19.8915961571">
        <ele>1969.40</ele>
        <time>2019-07-08T12:04:36Z</time>
      </trkpt>
      <trkpt lat="42.4963971879" lon="19.8916258290">
        <ele>1966.51</ele>
        <time>2019-07-08T12:04:48Z</time>
      </trkpt>
      <trkpt lat="42.4964800850" lon="19.8916285113">
        <ele>1964.11</ele>
        <time>2019-07-08T12:05:02Z</time>
      </trkpt>
      <trkpt lat="42.4965148699" lon="19.8916378152">
        <ele>1962.67</ele>
        <time>2019-07-08T12:05:07Z</time>
      </trkpt>
      <trkpt lat="42.4966229964" lon="19.8916688282">
        <ele>1960.75</ele>
        <time>2019-07-08T12:05:22Z</time>
      </trkpt>
      <trkpt lat="42.4966886267" lon="19.8917535692">
        <ele>1958.82</ele>
        <time>2019-07-08T12:05:33Z</time>
      </trkpt>
      <trkpt lat="42.4967302848" lon="19.8917857558">
        <ele>1954.98</ele>
        <time>2019-07-08T12:05:44Z</time>
      </trkpt>
      <trkpt lat="42.4967474677" lon="19.8918017652">
        <ele>1954.02</ele>
        <time>2019-07-08T12:05:58Z</time>
      </trkpt>
      <trkpt lat="42.4967604596" lon="19.8918924574">
        <ele>1951.61</ele>
        <time>2019-07-08T12:06:11Z</time>
      </trkpt>
      <trkpt lat="42.4967618007" lon="19.8919218779">
        <ele>1950.65</ele>
        <time>2019-07-08T12:06:19Z</time>
      </trkpt>
      <trkpt lat="42.4968078174" lon="19.8920288309">
        <ele>1947.77</ele>
        <time>2019-07-08T12:06:30Z</time>
      </trkpt>
      <trkpt lat="42.4968187977" lon="19.8920672201">
        <ele>1946.33</ele>
        <time>2019-07-08T12:06:33Z</time>
      </trkpt>
      <trkpt lat="42.4968620483" lon="19.8921615165">
        <ele>1942.96</ele>
        <time>2019-07-08T12:06:44Z</time>
      </trkpt>
      <trkpt lat="42.4969480466" lon="19.8922133166">
        <ele>1940.56</ele>
        <time>2019-07-08T12:06:57Z</time>
      </trkpt>
      <trkpt lat="42.4969938118" lon="19.8922259733">
        <ele>1940.08</ele>
        <time>2019-07-08T12:07:00Z</time>
      </trkpt>
      <trkpt lat="42.4971288443" lon="19.8923381232">
        <ele>1939.12</ele>
        <time>2019-07-08T12:07:16Z</time>
      </trkpt>
      <trkpt lat="42.4972470291" lon="19.8923588265">
        <ele>1939.12</ele>
        <time>2019-07-08T12:07:28Z</time>
      </trkpt>
      <trkpt lat="42.4972744379" lon="19.8922983930">
        <ele>1936.23</ele>
        <time>2019-07-08T12:07:40Z</time>
      </trkpt>
      <trkpt lat="42.4973084684" lon="19.8922224529">
        <ele>1933.35</ele>
        <time>2019-07-08T12:07:52Z</time>
      </trkpt>
      <trkpt lat="42.4973140005" lon="19.8922262248">
        <ele>1933.35</ele>
        <time>2019-07-08T12:07:53Z</time>
      </trkpt>
      <trkpt lat="42.4973664712" lon="19.8921568226">
        <ele>1929.98</ele>
        <time>2019-07-08T12:08:06Z</time>
      </trkpt>
      <trkpt lat="42.4973969813" lon="19.8920679744">
        <ele>1927.58</ele>
        <time>2019-07-08T12:08:19Z</time>
      </trkpt>
      <trkpt lat="42.4974226300" lon="19.8920422420">
        <ele>1926.14</ele>
        <time>2019-07-08T12:08:25Z</time>
      </trkpt>
      <trkpt lat="42.4974747654" lon="19.8919735942">
        <ele>1924.70</ele>
        <time>2019-07-08T12:08:33Z</time>
      </trkpt>
      <trkpt lat="42.4975633621" lon="19.8918693233">
        <ele>1923.25</ele>
        <time>2019-07-08T12:08:46Z</time>
      </trkpt>
      <trkpt lat="42.4976249691" lon="19.8918396514">
        <ele>1922.29</ele>
        <time>2019-07-08T12:08:53Z</time>
      </trkpt>
      <trkpt lat="42.4977519549" lon="19.8918149248">
        <ele>1918.93</ele>
        <time>2019-07-08T12:09:08Z</time>
      </trkpt>
      <trkpt lat="42.4977754243" lon="19.8918216303">
        <ele>1918.93</ele>
        <time>2019-07-08T12:09:10Z</time>
      </trkpt>
      <trkpt lat="42.4979117140" lon="19.8919222131">
        <ele>1916.53</ele>
        <time>2019-07-08T12:09:24Z</time>
      </trkpt>
      <trkpt lat="42.4979362730" lon="19.8919413239">
        <ele>1916.04</ele>
        <time>2019-07-08T12:09:26Z</time>
      </trkpt>
      <trkpt lat="42.4979988858" lon="19.8920800444">
        <ele>1914.12</ele>
        <time>2019-07-08T12:09:38Z</time>
      </trkpt>
      <trkpt lat="42.4981055036" lon="19.8921431601">
        <ele>1912.20</ele>
        <time>2019-07-08T12:09:51Z</time>
      </trkpt>
      <trkpt lat="42.4981329124" lon="19.8922977224">
        <ele>1911.24</ele>
        <time>2019-07-08T12:10:04Z</time>
      </trkpt>
      <trkpt lat="42.4981485028" lon="19.8923422303">
        <ele>1911.24</ele>
        <time>2019-07-08T12:10:09Z</time>
      </trkpt>
      <trkpt lat="42.4981857184" lon="19.8923823796">
        <ele>1911.24</ele>
        <time>2019-07-08T12:10:15Z</time>
      </trkpt>
      <trkpt lat="42.4982307293" lon="19.8925213516">
        <ele>1911.24</ele>
        <time>2019-07-08T12:10:29Z</time>
      </trkpt>
      <trkpt lat="42.4982721359" lon="19.8926461581">
        <ele>1911.24</ele>
        <time>2019-07-08T12:10:41Z</time>
      </trkpt>
      <trkpt lat="42.4983089324" lon="19.8927336652">
        <ele>1910.76</ele>
        <time>2019-07-08T12:10:49Z</time>
      </trkpt>
      <trkpt lat="42.4983914942" lon="19.8927951045">
        <ele>1909.80</ele>
        <time>2019-07-08T12:11:01Z</time>
      </trkpt>
      <trkpt lat="42.4984481558" lon="19.8928459827">
        <ele>1911.24</ele>
        <time>2019-07-08T12:11:11Z</time>
      </trkpt>
      <trkpt lat="42.4984655064" lon="19.8929253593">
        <ele>1912.68</ele>
        <time>2019-07-08T12:11:25Z</time>
      </trkpt>
      <trkpt lat="42.4984877184" lon="19.8929752316">
        <ele>1914.12</ele>
        <time>2019-07-08T12:11:42Z</time>
      </trkpt>
      <trkpt lat="42.4984746426" lon="19.8930146266">
        <ele>1916.04</ele>
        <time>2019-07-08T12:11:54Z</time>
      </trkpt>
      <trkpt lat="42.4984747265" lon="19.8930883035">
        <ele>1918.45</ele>
        <time>2019-07-08T12:12:06Z</time>
      </trkpt>
      <trkpt lat="42.4985416979" lon="19.8931349907">
        <ele>1920.85</ele>
        <time>2019-07-08T12:12:19Z</time>
      </trkpt>
      <trkpt lat="42.4985719565" lon="19.8931800015">
        <ele>1921.81</ele>
        <time>2019-07-08T12:12:28Z</time>
      </trkpt>
      <trkpt lat="42.4986226670" lon="19.8932457995">
        <ele>1923.25</ele>
        <time>2019-07-08T12:12:40Z</time>
      </trkpt>
      <trkpt lat="42.4986805860" lon="19.8932803329">
        <ele>1924.70</ele>
        <time>2019-07-08T12:12:52Z</time>
      </trkpt>
      <trkpt lat="42.4987471383" lon="19.8933332227">
        <ele>1925.18</ele>
        <time>2019-07-08T12:13:06Z</time>
      </trkpt>
      <trkpt lat="42.4987525027" lon="19.8933392577">
        <ele>1923.74</ele>
        <time>2019-07-08T12:13:09Z</time>
      </trkpt>
      <trkpt lat="42.4987799954" lon="19.8933434486">
        <ele>1921.81</ele>
        <time>2019-07-08T12:13:20Z</time>
      </trkpt>
      <trkpt lat="42.4987971783" lon="19.8933831789">
        <ele>1919.41</ele>
        <time>2019-07-08T12:13:32Z</time>
      </trkpt>
      <trkpt lat="42.4988105893" lon="19.8934540898">
        <ele>1919.89</ele>
        <time>2019-07-08T12:13:41Z</time>
      </trkpt>
      <trkpt lat="42.4988405127" lon="19.8936445266">
        <ele>1918.93</ele>
        <time>2019-07-08T12:13:58Z</time>
      </trkpt>
      <trkpt lat="42.4988141097" lon="19.8937945627">
        <ele>1917.49</ele>
        <time>2019-07-08T12:14:10Z</time>
      </trkpt>
      <trkpt lat="42.4988170434" lon="19.8938127514">
        <ele>1917.01</ele>
        <time>2019-07-08T12:14:13Z</time>
      </trkpt>
      <trkpt lat="42.4988995213" lon="19.8939396534">
        <ele>1916.53</ele>
        <time>2019-07-08T12:14:25Z</time>
      </trkpt>
      <trkpt lat="42.4989369046" lon="19.8939738516">
        <ele>1916.53</ele>
        <time>2019-07-08T12:14:30Z</time>
      </trkpt>
      <trkpt lat="42.4989854358" lon="19.8939970694">
        <ele>1916.04</ele>
        <time>2019-07-08T12:14:35Z</time>
      </trkpt>
      <trkpt lat="42.4990658183" lon="19.8940159287">
        <ele>1915.56</ele>
        <time>2019-07-08T12:14:44Z</time>
      </trkpt>
      <trkpt lat="42.4990766309" lon="19.8940228019">
        <ele>1915.56</ele>
        <time>2019-07-08T12:14:45Z</time>
      </trkpt>
      <trkpt lat="42.4992263317" lon="19.8940508813">
        <ele>1915.08</ele>
        <time>2019-07-08T12:14:59Z</time>
      </trkpt>
      <trkpt lat="42.4992625415" lon="19.8940570839">
        <ele>1916.53</ele>
        <time>2019-07-08T12:15:03Z</time>
      </trkpt>
      <trkpt lat="42.4993021041" lon="19.8940989934">
        <ele>1915.08</ele>
        <time>2019-07-08T12:15:17Z</time>
      </trkpt>
      <trkpt lat="42.4993143417" lon="19.8941128235">
        <ele>1915.08</ele>
        <time>2019-07-08T12:15:19Z</time>
      </trkpt>
      <trkpt lat="42.4993844144" lon="19.8941733409">
        <ele>1914.60</ele>
        <time>2019-07-08T12:15:27Z</time>
      </trkpt>
      <trkpt lat="42.4994782917" lon="19.8942116462">
        <ele>1915.56</ele>
        <time>2019-07-08T12:15:38Z</time>
      </trkpt>
      <trkpt lat="42.4995675590" lon="19.8942354508">
        <ele>1917.97</ele>
        <time>2019-07-08T12:15:50Z</time>
      </trkpt>
      <trkpt lat="42.4996681418" lon="19.8941647913">
        <ele>1918.45</ele>
        <time>2019-07-08T12:16:02Z</time>
      </trkpt>
      <trkpt lat="42.4997111410" lon="19.8941436689">
        <ele>1918.45</ele>
        <time>2019-07-08T12:16:09Z</time>
      </trkpt>
      <trkpt lat="42.4997610971" lon="19.8940904438">
        <ele>1917.01</ele>
        <time>2019-07-08T12:16:16Z</time>
      </trkpt>
      <trkpt lat="42.4998298287" lon="19.8940452654">
        <ele>1915.08</ele>
        <time>2019-07-08T12:16:29Z</time>
      </trkpt>
      <trkpt lat="42.4998669606" lon="19.8940790445">
        <ele>1913.64</ele>
        <time>2019-07-08T12:16:36Z</time>
      </trkpt>
      <trkpt lat="42.4998821318" lon="19.8940860853">
        <ele>1912.68</ele>
        <time>2019-07-08T12:16:38Z</time>
      </trkpt>
      <trkpt lat="42.4999651127" lon="19.8940808885">
        <ele>1911.72</ele>
        <time>2019-07-08T12:16:47Z</time>
      </trkpt>
      <trkpt lat="42.5000740774" lon="19.8940528929">
        <ele>1910.28</ele>
        <time>2019-07-08T12:16:59Z</time>
      </trkpt>
      <trkpt lat="42.5001233630" lon="19.8940031044">
        <ele>1909.80</ele>
        <time>2019-07-08T12:17:10Z</time>
      </trkpt>
      <trkpt lat="42.5001560524" lon="19.8939728457">
        <ele>1911.24</ele>
        <time>2019-07-08T12:17:18Z</time>
      </trkpt>
      <trkpt lat="42.5001873169" lon="19.8939730972">
        <ele>1909.32</ele>
        <time>2019-07-08T12:17:24Z</time>
      </trkpt>
      <trkpt lat="42.5002408773" lon="19.8939486220">
        <ele>1907.87</ele>
        <time>2019-07-08T12:17:36Z</time>
      </trkpt>
      <trkpt lat="42.5002723094" lon="19.8939418327">
        <ele>1908.83</ele>
        <time>2019-07-08T12:17:43Z</time>
      </trkpt>
      <trkpt lat="42.5002756622" lon="19.8939327803">
        <ele>1908.83</ele>
        <time>2019-07-08T12:17:49Z</time>
      </trkpt>
      <trkpt lat="42.5003531110" lon="19.8939120770">
        <ele>1905.95</ele>
        <time>2019-07-08T12:18:01Z</time>
      </trkpt>
      <trkpt lat="42.5003946852" lon="19.8939006776">
        <ele>1904.99</ele>
        <time>2019-07-08T12:18:15Z</time>
      </trkpt>
      <trkpt lat="42.5004539452" lon="19.8938289285">
        <ele>1902.59</ele>
        <time>2019-07-08T12:18:28Z</time>
      </trkpt>
      <trkpt lat="42.5004886463" lon="19.8937968258">
        <ele>1901.14</ele>
        <time>2019-07-08T12:18:43Z</time>
      </trkpt>
      <trkpt lat="42.5004862156" lon="19.8938197084">
        <ele>1899.22</ele>
        <time>2019-07-08T12:18:54Z</time>
      </trkpt>
      <trkpt lat="42.5005007163" lon="19.8938555829">
        <ele>1896.82</ele>
        <time>2019-07-08T12:19:05Z</time>
      </trkpt>
      <trkpt lat="42.5004925020" lon="19.8939488735">
        <ele>1895.38</ele>
        <time>2019-07-08T12:19:17Z</time>
      </trkpt>
      <trkpt lat="42.5005762372" lon="19.8939896934">
        <ele>1892.97</ele>
        <time>2019-07-08T12:19:32Z</time>
      </trkpt>
      <trkpt lat="42.5006135367" lon="19.8939541541">
        <ele>1891.05</ele>
        <time>2019-07-08T12:19:44Z</time>
      </trkpt>
      <trkpt lat="42.5006447174" lon="19.8939426709">
        <ele>1889.13</ele>
        <time>2019-07-08T12:19:52Z</time>
      </trkpt>
      <trkpt lat="42.5006697793" lon="19.8939488735">
        <ele>1888.17</ele>
        <time>2019-07-08T12:19:55Z</time>
      </trkpt>
      <trkpt lat="42.5006904826" lon="19.8939575069">
        <ele>1887.69</ele>
        <time>2019-07-08T12:19:58Z</time>
      </trkpt>
      <trkpt lat="42.5007266086" lon="19.8939818982">
        <ele>1886.72</ele>
        <time>2019-07-08T12:20:03Z</time>
      </trkpt>
      <trkpt lat="42.5007822644" lon="19.8940114863">
        <ele>1884.80</ele>
        <time>2019-07-08T12:20:14Z</time>
      </trkpt>
      <trkpt lat="42.5008404348" lon="19.8940284178">
        <ele>1882.40</ele>
        <time>2019-07-08T12:20:26Z</time>
      </trkpt>
      <trkpt lat="42.5008769799" lon="19.8940336145">
        <ele>1880.96</ele>
        <time>2019-07-08T12:20:35Z</time>
      </trkpt>
      <trkpt lat="42.5009883754" lon="19.8940802179">
        <ele>1878.55</ele>
        <time>2019-07-08T12:20:50Z</time>
      </trkpt>
      <trkpt lat="42.5010609627" lon="19.8941446748">
        <ele>1876.63</ele>
        <time>2019-07-08T12:21:02Z</time>
      </trkpt>
      <trkpt lat="42.5011375733" lon="19.8941810522">
        <ele>1875.19</ele>
        <time>2019-07-08T12:21:13Z</time>
      </trkpt>
      <trkpt lat="42.5012021977" lon="19.8942258954">
        <ele>1875.67</ele>
        <time>2019-07-08T12:21:24Z</time>
      </trkpt>
      <trkpt lat="42.5012316182" lon="19.8941267375">
        <ele>1874.23</ele>
        <time>2019-07-08T12:21:36Z</time>
      </trkpt>
      <trkpt lat="42.5012908783" lon="19.8941408191">
        <ele>1874.23</ele>
        <time>2019-07-08T12:21:46Z</time>
      </trkpt>
      <trkpt lat="42.5013459474" lon="19.8941925354">
        <ele>1872.79</ele>
        <time>2019-07-08T12:22:00Z</time>
      </trkpt>
      <trkpt lat="42.5013499707" lon="19.8941903561">
        <ele>1872.79</ele>
        <time>2019-07-08T12:22:01Z</time>
      </trkpt>
      <trkpt lat="42.5014301855" lon="19.8942009173">
        <ele>1870.86</ele>
        <time>2019-07-08T12:22:13Z</time>
      </trkpt>
      <trkpt lat="42.5014616176" lon="19.8942126520">
        <ele>1870.86</ele>
        <time>2019-07-08T12:22:18Z</time>
      </trkpt>
      <trkpt lat="42.5015475322" lon="19.8941870872">
        <ele>1867.98</ele>
        <time>2019-07-08T12:22:31Z</time>
      </trkpt>
      <trkpt lat="42.5016294234" lon="19.8941017594">
        <ele>1865.58</ele>
        <time>2019-07-08T12:22:47Z</time>
      </trkpt>
      <trkpt lat="42.5016523059" lon="19.8940616101">
        <ele>1865.09</ele>
        <time>2019-07-08T12:22:52Z</time>
      </trkpt>
      <trkpt lat="42.5017240550" lon="19.8940416612">
        <ele>1863.65</ele>
        <time>2019-07-08T12:23:05Z</time>
      </trkpt>
      <trkpt lat="42.5017523859" lon="19.8940493725">
        <ele>1862.69</ele>
        <time>2019-07-08T12:23:18Z</time>
      </trkpt>
      <trkpt lat="42.5017747656" lon="19.8939959798">
        <ele>1860.29</ele>
        <time>2019-07-08T12:23:32Z</time>
      </trkpt>
      <trkpt lat="42.5017743465" lon="19.8939456884">
        <ele>1857.40</ele>
        <time>2019-07-08T12:23:43Z</time>
      </trkpt>
      <trkpt lat="42.5018224586" lon="19.8939293437">
        <ele>1855.48</ele>
        <time>2019-07-08T12:23:55Z</time>
      </trkpt>
      <trkpt lat="42.5018635299" lon="19.8938435968">
        <ele>1852.12</ele>
        <time>2019-07-08T12:24:07Z</time>
      </trkpt>
      <trkpt lat="42.5018643681" lon="19.8938358016">
        <ele>1852.12</ele>
        <time>2019-07-08T12:24:08Z</time>
      </trkpt>
      <trkpt lat="42.5018932857" lon="19.8937877733">
        <ele>1849.71</ele>
        <time>2019-07-08T12:24:21Z</time>
      </trkpt>
      <trkpt lat="42.5019332673" lon="19.8938357178">
        <ele>1847.31</ele>
        <time>2019-07-08T12:24:35Z</time>
      </trkpt>
      <trkpt lat="42.5019750930" lon="19.8938772921">
        <ele>1845.39</ele>
        <time>2019-07-08T12:24:45Z</time>
      </trkpt>
      <trkpt lat="42.5020034239" lon="19.8939002585">
        <ele>1844.43</ele>
        <time>2019-07-08T12:24:54Z</time>
      </trkpt>
      <trkpt lat="42.5020362809" lon="19.8938712571">
        <ele>1842.98</ele>
        <time>2019-07-08T12:25:05Z</time>
      </trkpt>
      <trkpt lat="42.5020825490" lon="19.8937954009">
        <ele>1841.54</ele>
        <time>2019-07-08T12:25:18Z</time>
      </trkpt>
      <trkpt lat="42.5021091197" lon="19.8937578499">
        <ele>1839.14</ele>
        <time>2019-07-08T12:25:30Z</time>
      </trkpt>
      <trkpt lat="42.5021310803" lon="19.8938379809">
        <ele>1836.74</ele>
        <time>2019-07-08T12:25:43Z</time>
      </trkpt>
      <trkpt lat="42.5021197647" lon="19.8938994203">
        <ele>1834.81</ele>
        <time>2019-07-08T12:25:56Z</time>
      </trkpt>
      <trkpt lat="42.5021216925" lon="19.8939956445">
        <ele>1831.93</ele>
        <time>2019-07-08T12:26:11Z</time>
      </trkpt>
      <trkpt lat="42.5021095388" lon="19.8940763623">
        <ele>1831.45</ele>
        <time>2019-07-08T12:26:25Z</time>
      </trkpt>
      <trkpt lat="42.5021505263" lon="19.8941334430">
        <ele>1829.53</ele>
        <time>2019-07-08T12:26:39Z</time>
      </trkpt>
      <trkpt lat="42.5021314994" lon="19.8942531366">
        <ele>1828.56</ele>
        <time>2019-07-08T12:26:52Z</time>
      </trkpt>
      <trkpt lat="42.5021237042" lon="19.8943687230">
        <ele>1827.60</ele>
        <time>2019-07-08T12:27:06Z</time>
      </trkpt>
      <trkpt lat="42.5021057669" lon="19.8944429029">
        <ele>1824.24</ele>
        <time>2019-07-08T12:27:19Z</time>
      </trkpt>
      <trkpt lat="42.5020952895" lon="19.8944910150">
        <ele>1822.80</ele>
        <time>2019-07-08T12:27:24Z</time>
      </trkpt>
      <trkpt lat="42.5021318346" lon="19.8946173303">
        <ele>1820.87</ele>
        <time>2019-07-08T12:27:37Z</time>
      </trkpt>
      <trkpt lat="42.5022053439" lon="19.8945874069">
        <ele>1817.99</ele>
        <time>2019-07-08T12:27:48Z</time>
      </trkpt>
      <trkpt lat="42.5022558030" lon="19.8946446553">
        <ele>1815.11</ele>
        <time>2019-07-08T12:28:00Z</time>
      </trkpt>
      <trkpt lat="42.5022875704" lon="19.8946783505">
        <ele>1812.70</ele>
        <time>2019-07-08T12:28:13Z</time>
      </trkpt>
      <trkpt lat="42.5023059268" lon="19.8947741557">
        <ele>1809.82</ele>
        <time>2019-07-08T12:28:25Z</time>
      </trkpt>
      <trkpt lat="42.5023282226" lon="19.8948390316">
        <ele>1807.90</ele>
        <time>2019-07-08T12:28:34Z</time>
      </trkpt>
      <trkpt lat="42.5023330003" lon="19.8948982917">
        <ele>1806.94</ele>
        <time>2019-07-08T12:28:39Z</time>
      </trkpt>
      <trkpt lat="42.5023658574" lon="19.8950001318">
        <ele>1805.97</ele>
        <time>2019-07-08T12:28:48Z</time>
      </trkpt>
      <trkpt lat="42.5024776720" lon="19.8950862978">
        <ele>1805.97</ele>
        <time>2019-07-08T12:29:03Z</time>
      </trkpt>
      <trkpt lat="42.5024962798" lon="19.8951011337">
        <ele>1807.90</ele>
        <time>2019-07-08T12:29:06Z</time>
      </trkpt>
      <trkpt lat="42.5025560427" lon="19.8951740563">
        <ele>1809.82</ele>
        <time>2019-07-08T12:29:16Z</time>
      </trkpt>
      <trkpt lat="42.5026005507" lon="19.8952732980">
        <ele>1810.30</ele>
        <time>2019-07-08T12:29:29Z</time>
      </trkpt>
      <trkpt lat="42.5026165601" lon="19.8952893075">
        <ele>1810.30</ele>
        <time>2019-07-08T12:29:31Z</time>
      </trkpt>
      <trkpt lat="42.5027025584" lon="19.8954664171">
        <ele>1810.30</ele>
        <time>2019-07-08T12:29:49Z</time>
      </trkpt>
      <trkpt lat="42.5027080905" lon="19.8955248389">
        <ele>1809.34</ele>
        <time>2019-07-08T12:29:53Z</time>
      </trkpt>
      <trkpt lat="42.5027290452" lon="19.8956372403">
        <ele>1807.90</ele>
        <time>2019-07-08T12:30:05Z</time>
      </trkpt>
      <trkpt lat="42.5027613156" lon="19.8957168683">
        <ele>1806.94</ele>
        <time>2019-07-08T12:30:15Z</time>
      </trkpt>
      <trkpt lat="42.5027761515" lon="19.8958547506">
        <ele>1804.53</ele>
        <time>2019-07-08T12:30:28Z</time>
      </trkpt>
      <trkpt lat="42.5028275326" lon="19.8959847540">
        <ele>1804.53</ele>
        <time>2019-07-08T12:30:42Z</time>
      </trkpt>
      <trkpt lat="42.5028534327" lon="19.8960347939">
        <ele>1804.53</ele>
        <time>2019-07-08T12:30:49Z</time>
      </trkpt>
      <trkpt lat="42.5029027183" lon="19.8961900268">
        <ele>1804.05</ele>
        <time>2019-07-08T12:31:03Z</time>
      </trkpt>
      <trkpt lat="42.5028871279" lon="19.8962481972">
        <ele>1804.05</ele>
        <time>2019-07-08T12:31:17Z</time>
      </trkpt>
      <trkpt lat="42.5028995331" lon="19.8962578364">
        <ele>1803.57</ele>
        <time>2019-07-08T12:31:38Z</time>
      </trkpt>
      <trkpt lat="42.5029026344" lon="19.8962285835">
        <ele>1803.57</ele>
        <time>2019-07-08T12:32:07Z</time>
      </trkpt>
      <trkpt lat="42.5029119384" lon="19.8962163460">
        <ele>1803.09</ele>
        <time>2019-07-08T12:32:45Z</time>
      </trkpt>
      <trkpt lat="42.5028927438" lon="19.8962248955">
        <ele>1803.09</ele>
        <time>2019-07-08T12:33:09Z</time>
      </trkpt>
      <trkpt lat="42.5029180571" lon="19.8962101433">
        <ele>1802.61</ele>
        <time>2019-07-08T12:33:34Z</time>
      </trkpt>
      <trkpt lat="42.5029173866" lon="19.8961756099">
        <ele>1802.61</ele>
        <time>2019-07-08T12:33:57Z</time>
      </trkpt>
      <trkpt lat="42.5029335637" lon="19.8962231353">
        <ele>1802.13</ele>
        <time>2019-07-08T12:34:09Z</time>
      </trkpt>
      <trkpt lat="42.5029423647" lon="19.8963128217">
        <ele>1802.13</ele>
        <time>2019-07-08T12:34:23Z</time>
      </trkpt>
      <trkpt lat="42.5029500760" lon="19.8965190165">
        <ele>1802.13</ele>
        <time>2019-07-08T12:34:37Z</time>
      </trkpt>
      <trkpt lat="42.5029586256" lon="19.8965690564">
        <ele>1803.57</ele>
        <time>2019-07-08T12:34:40Z</time>
      </trkpt>
      <trkpt lat="42.5029672589" lon="19.8966028355">
        <ele>1803.09</ele>
        <time>2019-07-08T12:34:42Z</time>
      </trkpt>
      <trkpt lat="42.5029786583" lon="19.8967387062">
        <ele>1803.57</ele>
        <time>2019-07-08T12:34:51Z</time>
      </trkpt>
      <trkpt lat="42.5030201487" lon="19.8969369382">
        <ele>1803.57</ele>
        <time>2019-07-08T12:35:05Z</time>
      </trkpt>
      <trkpt lat="42.5030223280" lon="19.8971384391">
        <ele>1803.57</ele>
        <time>2019-07-08T12:35:20Z</time>
      </trkpt>
      <trkpt lat="42.5030448753" lon="19.8972121999">
        <ele>1803.57</ele>
        <time>2019-07-08T12:35:26Z</time>
      </trkpt>
      <trkpt lat="42.5031190552" lon="19.8973582964">
        <ele>1804.05</ele>
        <time>2019-07-08T12:35:39Z</time>
      </trkpt>
      <trkpt lat="42.5031367410" lon="19.8975451291">
        <ele>1804.05</ele>
        <time>2019-07-08T12:35:53Z</time>
      </trkpt>
      <trkpt lat="42.5031691790" lon="19.8976665828">
        <ele>1804.05</ele>
        <time>2019-07-08T12:36:03Z</time>
      </trkpt>
      <trkpt lat="42.5031932350" lon="19.8978112545">
        <ele>1803.57</ele>
        <time>2019-07-08T12:36:15Z</time>
      </trkpt>
      <trkpt lat="42.5031656586" lon="19.8979296070">
        <ele>1805.01</ele>
        <time>2019-07-08T12:36:27Z</time>
      </trkpt>
      <trkpt lat="42.5031320471" lon="19.8979960755">
        <ele>1806.45</ele>
        <time>2019-07-08T12:36:38Z</time>
      </trkpt>
      <trkpt lat="42.5031566899" lon="19.8980385717">
        <ele>1806.94</ele>
        <time>2019-07-08T12:36:44Z</time>
      </trkpt>
      <trkpt lat="42.5031965878" lon="19.8981085606">
        <ele>1808.38</ele>
        <time>2019-07-08T12:36:57Z</time>
      </trkpt>
      <trkpt lat="42.5031430274" lon="19.8981337063">
        <ele>1810.30</ele>
        <time>2019-07-08T12:37:12Z</time>
      </trkpt>
      <trkpt lat="42.5031566899" lon="19.8981990013">
        <ele>1812.22</ele>
        <time>2019-07-08T12:37:25Z</time>
      </trkpt>
      <trkpt lat="42.5031596236" lon="19.8982589319">
        <ele>1814.15</ele>
        <time>2019-07-08T12:37:39Z</time>
      </trkpt>
      <trkpt lat="42.5031043869" lon="19.8982910346">
        <ele>1815.59</ele>
        <time>2019-07-08T12:37:51Z</time>
      </trkpt>
      <trkpt lat="42.5030825939" lon="19.8984382208">
        <ele>1815.59</ele>
        <time>2019-07-08T12:38:05Z</time>
      </trkpt>
      <trkpt lat="42.5030727871" lon="19.8984730057">
        <ele>1816.07</ele>
        <time>2019-07-08T12:38:09Z</time>
      </trkpt>
      <trkpt lat="42.5030852761" lon="19.8985971417">
        <ele>1817.51</ele>
        <time>2019-07-08T12:38:22Z</time>
      </trkpt>
      <trkpt lat="42.5030609686" lon="19.8987121414">
        <ele>1818.47</ele>
        <time>2019-07-08T12:38:34Z</time>
      </trkpt>
      <trkpt lat="42.5030450430" lon="19.8987731617">
        <ele>1818.47</ele>
        <time>2019-07-08T12:38:41Z</time>
      </trkpt>
      <trkpt lat="42.5030412711" lon="19.8989524506">
        <ele>1818.95</ele>
        <time>2019-07-08T12:38:55Z</time>
      </trkpt>
      <trkpt lat="42.5030427799" lon="19.8989642691">
        <ele>1818.95</ele>
        <time>2019-07-08T12:38:56Z</time>
      </trkpt>
      <trkpt lat="42.5030491501" lon="19.8991500959">
        <ele>1820.39</ele>
        <time>2019-07-08T12:39:10Z</time>
      </trkpt>
      <trkpt lat="42.5030481443" lon="19.8992300592">
        <ele>1820.39</ele>
        <time>2019-07-08T12:39:16Z</time>
      </trkpt>
      <trkpt lat="42.5030152872" lon="19.8992938455">
        <ele>1820.39</ele>
        <time>2019-07-08T12:39:22Z</time>
      </trkpt>
      <trkpt lat="42.5030038040" lon="19.8993090168">
        <ele>1820.87</ele>
        <time>2019-07-08T12:39:24Z</time>
      </trkpt>
      <trkpt lat="42.5029279478" lon="19.8994139582">
        <ele>1821.35</ele>
        <time>2019-07-08T12:39:35Z</time>
      </trkpt>
      <trkpt lat="42.5028504990" lon="19.8995570373">
        <ele>1821.35</ele>
        <time>2019-07-08T12:39:47Z</time>
      </trkpt>
      <trkpt lat="42.5027595554" lon="19.8996842746">
        <ele>1822.80</ele>
        <time>2019-07-08T12:40:01Z</time>
      </trkpt>
      <trkpt lat="42.5026831124" lon="19.8997740448">
        <ele>1823.28</ele>
        <time>2019-07-08T12:40:11Z</time>
      </trkpt>
      <trkpt lat="42.5025904085" lon="19.8999291100">
        <ele>1823.76</ele>
        <time>2019-07-08T12:40:25Z</time>
      </trkpt>
      <trkpt lat="42.5025790092" lon="19.9000841752">
        <ele>1824.72</ele>
        <time>2019-07-08T12:40:37Z</time>
      </trkpt>
      <trkpt lat="42.5025583897" lon="19.9002153520">
        <ele>1824.24</ele>
        <time>2019-07-08T12:40:47Z</time>
      </trkpt>
      <trkpt lat="42.5024995487" lon="19.9003316928">
        <ele>1825.20</ele>
        <time>2019-07-08T12:40:57Z</time>
      </trkpt>
      <trkpt lat="42.5024270453" lon="19.9004994147">
        <ele>1826.16</ele>
        <time>2019-07-08T12:41:12Z</time>
      </trkpt>
      <trkpt lat="42.5023550447" lon="19.9006429128">
        <ele>1827.12</ele>
        <time>2019-07-08T12:41:25Z</time>
      </trkpt>
      <trkpt lat="42.5022649392" lon="19.9008168373">
        <ele>1828.08</ele>
        <time>2019-07-08T12:41:41Z</time>
      </trkpt>
      <trkpt lat="42.5021936093" lon="19.9009380396">
        <ele>1828.08</ele>
        <time>2019-07-08T12:41:53Z</time>
      </trkpt>
      <trkpt lat="42.5021751691" lon="19.9009499419">
        <ele>1828.08</ele>
        <time>2019-07-08T12:41:56Z</time>
      </trkpt>
      <trkpt lat="42.5021012407" lon="19.9010657798">
        <ele>1830.01</ele>
        <time>2019-07-08T12:42:09Z</time>
      </trkpt>
      <trkpt lat="42.5020525418" lon="19.9012004770">
        <ele>1830.97</ele>
        <time>2019-07-08T12:42:22Z</time>
      </trkpt>
      <trkpt lat="42.5019960478" lon="19.9013469089">
        <ele>1831.45</ele>
        <time>2019-07-08T12:42:34Z</time>
      </trkpt>
      <trkpt lat="42.5019885041" lon="19.9013686180">
        <ele>1831.93</ele>
        <time>2019-07-08T12:42:36Z</time>
      </trkpt>
      <trkpt lat="42.5019582454" lon="19.9014687818">
        <ele>1832.41</ele>
        <time>2019-07-08T12:42:45Z</time>
      </trkpt>
      <trkpt lat="42.5019045174" lon="19.9016040657">
        <ele>1833.37</ele>
        <time>2019-07-08T12:42:57Z</time>
      </trkpt>
      <trkpt lat="42.5018656254" lon="19.9017384276">
        <ele>1834.33</ele>
        <time>2019-07-08T12:43:09Z</time>
      </trkpt>
      <trkpt lat="42.5018465985" lon="19.9017886352">
        <ele>1834.81</ele>
        <time>2019-07-08T12:43:13Z</time>
      </trkpt>
      <trkpt lat="42.5017974805" lon="19.9019504897">
        <ele>1835.77</ele>
        <time>2019-07-08T12:43:26Z</time>
      </trkpt>
      <trkpt lat="42.5017356221" lon="19.9020772241">
        <ele>1837.70</ele>
        <time>2019-07-08T12:43:40Z</time>
      </trkpt>
      <trkpt lat="42.5017016754" lon="19.9021643959">
        <ele>1838.66</ele>
        <time>2019-07-08T12:43:49Z</time>
      </trkpt>
      <trkpt lat="42.5016824808" lon="19.9022600334">
        <ele>1839.62</ele>
        <time>2019-07-08T12:43:58Z</time>
      </trkpt>
      <trkpt lat="42.5016821455" lon="19.9023206346">
        <ele>1840.10</ele>
        <time>2019-07-08T12:44:04Z</time>
      </trkpt>
      <trkpt lat="42.5016508810" lon="19.9024554156">
        <ele>1842.50</ele>
        <time>2019-07-08T12:44:18Z</time>
      </trkpt>
      <trkpt lat="42.5016227178" lon="19.9025669787">
        <ele>1844.43</ele>
        <time>2019-07-08T12:44:30Z</time>
      </trkpt>
      <trkpt lat="42.5015905313" lon="19.9027228821">
        <ele>1846.83</ele>
        <time>2019-07-08T12:44:45Z</time>
      </trkpt>
      <trkpt lat="42.5015742704" lon="19.9028371274">
        <ele>1847.79</ele>
        <time>2019-07-08T12:44:57Z</time>
      </trkpt>
      <trkpt lat="42.5015335344" lon="19.9029983114">
        <ele>1849.71</ele>
        <time>2019-07-08T12:45:13Z</time>
      </trkpt>
      <trkpt lat="42.5015100650" lon="19.9031478446">
        <ele>1852.12</ele>
        <time>2019-07-08T12:45:27Z</time>
      </trkpt>
      <trkpt lat="42.5015119929" lon="19.9032946117">
        <ele>1853.08</ele>
        <time>2019-07-08T12:45:40Z</time>
      </trkpt>
      <trkpt lat="42.5015142560" lon="19.9033681210">
        <ele>1854.04</ele>
        <time>2019-07-08T12:45:46Z</time>
      </trkpt>
      <trkpt lat="42.5015035272" lon="19.9034318235">
        <ele>1854.52</ele>
        <time>2019-07-08T12:45:51Z</time>
      </trkpt>
      <trkpt lat="42.5015019346" lon="19.9034707155">
        <ele>1855.48</ele>
        <time>2019-07-08T12:45:54Z</time>
      </trkpt>
      <trkpt lat="42.5014780462" lon="19.9035952706">
        <ele>1856.92</ele>
        <time>2019-07-08T12:46:06Z</time>
      </trkpt>
      <trkpt lat="42.5014682394" lon="19.9036489986">
        <ele>1856.92</ele>
        <time>2019-07-08T12:46:10Z</time>
      </trkpt>
      <trkpt lat="42.5014256593" lon="19.9037634116">
        <ele>1857.89</ele>
        <time>2019-07-08T12:46:25Z</time>
      </trkpt>
      <trkpt lat="42.5014377292" lon="19.9038177263">
        <ele>1858.37</ele>
        <time>2019-07-08T12:46:37Z</time>
      </trkpt>
      <trkpt lat="42.5014576782" lon="19.9038020521">
        <ele>1857.89</ele>
        <time>2019-07-08T12:47:05Z</time>
      </trkpt>
      <trkpt lat="42.5014496315" lon="19.9038326461">
        <ele>1857.89</ele>
        <time>2019-07-08T12:47:40Z</time>
      </trkpt>
      <trkpt lat="42.5014464464" lon="19.9038273655">
        <ele>1857.89</ele>
        <time>2019-07-08T12:47:58Z</time>
      </trkpt>
      <trkpt lat="42.5014400762" lon="19.9038519245">
        <ele>1857.89</ele>
        <time>2019-07-08T12:48:00Z</time>
      </trkpt>
      <trkpt lat="42.5014120806" lon="19.9039782397">
        <ele>1856.44</ele>
        <time>2019-07-08T12:48:10Z</time>
      </trkpt>
      <trkpt lat="42.5013964064" lon="19.9041829258">
        <ele>1855.96</ele>
        <time>2019-07-08T12:48:24Z</time>
      </trkpt>
      <trkpt lat="42.5013995077" lon="19.9042254221">
        <ele>1855.48</ele>
        <time>2019-07-08T12:48:27Z</time>
      </trkpt>
      <trkpt lat="42.5013704225" lon="19.9044690002">
        <ele>1853.08</ele>
        <time>2019-07-08T12:48:43Z</time>
      </trkpt>
      <trkpt lat="42.5013343804" lon="19.9047049507">
        <ele>1850.19</ele>
        <time>2019-07-08T12:48:57Z</time>
      </trkpt>
      <trkpt lat="42.5012583565" lon="19.9049237184">
        <ele>1848.27</ele>
        <time>2019-07-08T12:49:11Z</time>
      </trkpt>
      <trkpt lat="42.5012322050" lon="19.9051776901">
        <ele>1846.83</ele>
        <time>2019-07-08T12:49:28Z</time>
      </trkpt>
      <trkpt lat="42.5012401678" lon="19.9051874131">
        <ele>1846.83</ele>
        <time>2019-07-08T12:49:36Z</time>
      </trkpt>
      <trkpt lat="42.5012295227" lon="19.9052935280">
        <ele>1845.87</ele>
        <time>2019-07-08T12:49:43Z</time>
      </trkpt>
      <trkpt lat="42.5012775511" lon="19.9055519421">
        <ele>1843.47</ele>
        <time>2019-07-08T12:50:00Z</time>
      </trkpt>
      <trkpt lat="42.5012969133" lon="19.9057132099">
        <ele>1842.50</ele>
        <time>2019-07-08T12:50:12Z</time>
      </trkpt>
      <trkpt lat="42.5013004337" lon="19.9057307281">
        <ele>1842.50</ele>
        <time>2019-07-08T12:50:27Z</time>
      </trkpt>
      <trkpt lat="42.5013158564" lon="19.9057810195">
        <ele>1842.02</ele>
        <time>2019-07-08T12:50:46Z</time>
      </trkpt>
      <trkpt lat="42.5013201311" lon="19.9058161397">
        <ele>1841.06</ele>
        <time>2019-07-08T12:50:49Z</time>
      </trkpt>
      <trkpt lat="42.5013465341" lon="19.9058408663">
        <ele>1840.58</ele>
        <time>2019-07-08T12:50:52Z</time>
      </trkpt>
      <trkpt lat="42.5013557542" lon="19.9059613980">
        <ele>1836.74</ele>
        <time>2019-07-08T12:51:05Z</time>
      </trkpt>
      <trkpt lat="42.5013647228" lon="19.9061061535">
        <ele>1833.85</ele>
        <time>2019-07-08T12:51:18Z</time>
      </trkpt>
      <trkpt lat="42.5013693329" lon="19.9062424432">
        <ele>1830.49</ele>
        <time>2019-07-08T12:51:30Z</time>
      </trkpt>
      <trkpt lat="42.5013864320" lon="19.9062909745">
        <ele>1828.56</ele>
        <time>2019-07-08T12:51:43Z</time>
      </trkpt>
      <trkpt lat="42.5014167745" lon="19.9063113425">
        <ele>1827.60</ele>
        <time>2019-07-08T12:51:49Z</time>
      </trkpt>
      <trkpt lat="42.5014459435" lon="19.9064368196">
        <ele>1823.76</ele>
        <time>2019-07-08T12:52:00Z</time>
      </trkpt>
      <trkpt lat="42.5014183670" lon="19.9065439403">
        <ele>1820.39</ele>
        <time>2019-07-08T12:52:10Z</time>
      </trkpt>
      <trkpt lat="42.5014206301" lon="19.9065679125">
        <ele>1820.39</ele>
        <time>2019-07-08T12:52:12Z</time>
      </trkpt>
      <trkpt lat="42.5014021900" lon="19.9067171104">
        <ele>1817.03</ele>
        <time>2019-07-08T12:52:23Z</time>
      </trkpt>
      <trkpt lat="42.5013684109" lon="19.9069036916">
        <ele>1813.66</ele>
        <time>2019-07-08T12:52:34Z</time>
      </trkpt>
      <trkpt lat="42.5013425946" lon="19.9070144165">
        <ele>1811.26</ele>
        <time>2019-07-08T12:52:44Z</time>
      </trkpt>
      <trkpt lat="42.5013116654" lon="19.9071560707">
        <ele>1808.38</ele>
        <time>2019-07-08T12:52:53Z</time>
      </trkpt>
      <trkpt lat="42.5013111625" lon="19.9071962200">
        <ele>1807.42</ele>
        <time>2019-07-08T12:52:55Z</time>
      </trkpt>
      <trkpt lat="42.5013063010" lon="19.9072685558">
        <ele>1806.45</ele>
        <time>2019-07-08T12:52:59Z</time>
      </trkpt>
      <trkpt lat="42.5012778025" lon="19.9073405564">
        <ele>1804.53</ele>
        <time>2019-07-08T12:53:04Z</time>
      </trkpt>
      <trkpt lat="42.5012686662" lon="19.9073963799">
        <ele>1803.57</ele>
        <time>2019-07-08T12:53:08Z</time>
      </trkpt>
      <trkpt lat="42.5012508966" lon="19.9075351004">
        <ele>1801.17</ele>
        <time>2019-07-08T12:53:17Z</time>
      </trkpt>
      <trkpt lat="42.5012543332" lon="19.9075608328">
        <ele>1801.17</ele>
        <time>2019-07-08T12:53:19Z</time>
      </trkpt>
      <trkpt lat="42.5012512319" lon="19.9076697975">
        <ele>1800.69</ele>
        <time>2019-07-08T12:53:28Z</time>
      </trkpt>
      <trkpt lat="42.5012349710" lon="19.9078779202">
        <ele>1799.24</ele>
        <time>2019-07-08T12:53:39Z</time>
      </trkpt>
      <trkpt lat="42.5012311153" lon="19.9080323149">
        <ele>1798.76</ele>
        <time>2019-07-08T12:53:48Z</time>
      </trkpt>
      <trkpt lat="42.5011726934" lon="19.9082066584">
        <ele>1797.80</ele>
        <time>2019-07-08T12:54:03Z</time>
      </trkpt>
      <trkpt lat="42.5011703465" lon="19.9082398508">
        <ele>1796.36</ele>
        <time>2019-07-08T12:54:05Z</time>
      </trkpt>
      <trkpt lat="42.5011711009" lon="19.9083562754">
        <ele>1795.88</ele>
        <time>2019-07-08T12:54:15Z</time>
      </trkpt>
      <trkpt lat="42.5011374056" lon="19.9084824231">
        <ele>1794.44</ele>
        <time>2019-07-08T12:54:24Z</time>
      </trkpt>
      <trkpt lat="42.5011463743" lon="19.9085144419">
        <ele>1794.44</ele>
        <time>2019-07-08T12:54:26Z</time>
      </trkpt>
      <trkpt lat="42.5011428539" lon="19.9087587744">
        <ele>1793.00</ele>
        <time>2019-07-08T12:54:40Z</time>
      </trkpt>
      <trkpt lat="42.5011512358" lon="19.9088234827">
        <ele>1792.03</ele>
        <time>2019-07-08T12:54:44Z</time>
      </trkpt>
      <trkpt lat="42.5011454523" lon="19.9088579323">
        <ele>1791.55</ele>
        <time>2019-07-08T12:54:46Z</time>
      </trkpt>
      <trkpt lat="42.5011804048" lon="19.9089751951">
        <ele>1791.07</ele>
        <time>2019-07-08T12:54:54Z</time>
      </trkpt>
      <trkpt lat="42.5011724420" lon="19.9092010036">
        <ele>1789.15</ele>
        <time>2019-07-08T12:55:07Z</time>
      </trkpt>
      <trkpt lat="42.5011882000" lon="19.9092119839">
        <ele>1789.15</ele>
        <time>2019-07-08T12:55:09Z</time>
      </trkpt>
      <trkpt lat="42.5011711009" lon="19.9093395565">
        <ele>1788.67</ele>
        <time>2019-07-08T12:55:16Z</time>
      </trkpt>
      <trkpt lat="42.5011804886" lon="19.9093790352">
        <ele>1788.67</ele>
        <time>2019-07-08T12:55:19Z</time>
      </trkpt>
      <trkpt lat="42.5011657365" lon="19.9095379561">
        <ele>1786.27</ele>
        <time>2019-07-08T12:55:29Z</time>
      </trkpt>
      <trkpt lat="42.5011699274" lon="19.9095657002">
        <ele>1785.79</ele>
        <time>2019-07-08T12:55:31Z</time>
      </trkpt>
      <trkpt lat="42.5011630543" lon="19.9096309114">
        <ele>1785.31</ele>
        <time>2019-07-08T12:55:35Z</time>
      </trkpt>
      <trkpt lat="42.5011586957" lon="19.9096670374">
        <ele>1785.31</ele>
        <time>2019-07-08T12:55:37Z</time>
      </trkpt>
      <trkpt lat="42.5011413451" lon="19.9098460749">
        <ele>1783.38</ele>
        <time>2019-07-08T12:55:50Z</time>
      </trkpt>
      <trkpt lat="42.5011383276" lon="19.9098788481">
        <ele>1782.90</ele>
        <time>2019-07-08T12:55:52Z</time>
      </trkpt>
      <trkpt lat="42.5011492241" lon="19.9099894054">
        <ele>1780.50</ele>
        <time>2019-07-08T12:56:00Z</time>
      </trkpt>
      <trkpt lat="42.5011825003" lon="19.9100785051">
        <ele>1779.06</ele>
        <time>2019-07-08T12:56:08Z</time>
      </trkpt>
      <trkpt lat="42.5011979230" lon="19.9101021420">
        <ele>1779.06</ele>
        <time>2019-07-08T12:56:11Z</time>
      </trkpt>
      <trkpt lat="42.5012025330" lon="19.9101132061">
        <ele>1778.10</ele>
        <time>2019-07-08T12:56:12Z</time>
      </trkpt>
      <trkpt lat="42.5012043770" lon="19.9101395253">
        <ele>1778.10</ele>
        <time>2019-07-08T12:56:14Z</time>
      </trkpt>
      <trkpt lat="42.5011493079" lon="19.9102383479">
        <ele>1776.65</ele>
        <time>2019-07-08T12:56:21Z</time>
      </trkpt>
      <trkpt lat="42.5011380762" lon="19.9103076663">
        <ele>1776.65</ele>
        <time>2019-07-08T12:56:25Z</time>
      </trkpt>
      <trkpt lat="42.5011037104" lon="19.9104673415">
        <ele>1774.73</ele>
        <time>2019-07-08T12:56:39Z</time>
      </trkpt>
      <trkpt lat="42.5011200551" lon="19.9105353188">
        <ele>1774.73</ele>
        <time>2019-07-08T12:56:55Z</time>
      </trkpt>
      <trkpt lat="42.5011143554" lon="19.9105218239">
        <ele>1774.25</ele>
        <time>2019-07-08T12:57:13Z</time>
      </trkpt>
      <trkpt lat="42.5011599530" lon="19.9104486499">
        <ele>1774.25</ele>
        <time>2019-07-08T12:57:38Z</time>
      </trkpt>
      <trkpt lat="42.5010928977" lon="19.9105085805">
        <ele>1773.77</ele>
        <time>2019-07-08T12:57:55Z</time>
      </trkpt>
      <trkpt lat="42.5010595378" lon="19.9105432816">
        <ele>1773.77</ele>
        <time>2019-07-08T12:58:22Z</time>
      </trkpt>
      <trkpt lat="42.5010963343" lon="19.9105072394">
        <ele>1773.77</ele>
        <time>2019-07-08T12:58:50Z</time>
      </trkpt>
      <trkpt lat="42.5010732841" lon="19.9105640687">
        <ele>1773.77</ele>
        <time>2019-07-08T12:59:07Z</time>
      </trkpt>
      <trkpt lat="42.5010709371" lon="19.9105150346">
        <ele>1773.77</ele>
        <time>2019-07-08T12:59:32Z</time>
      </trkpt>
      <trkpt lat="42.5011220668" lon="19.9104603007">
        <ele>1773.77</ele>
        <time>2019-07-08T12:59:54Z</time>
      </trkpt>
      <trkpt lat="42.5011615455" lon="19.9104513321">
        <ele>1773.29</ele>
        <time>2019-07-08T13:00:20Z</time>
      </trkpt>
      <trkpt lat="42.5011295266" lon="19.9105069879">
        <ele>1773.29</ele>
        <time>2019-07-08T13:00:40Z</time>
      </trkpt>
      <trkpt lat="42.5011516549" lon="19.9104453810">
        <ele>1773.29</ele>
        <time>2019-07-08T13:00:57Z</time>
      </trkpt>
      <trkpt lat="42.5011586118" lon="19.9104743823">
        <ele>1773.29</ele>
        <time>2019-07-08T13:01:31Z</time>
      </trkpt>
      <trkpt lat="42.5011420995" lon="19.9104859494">
        <ele>1773.29</ele>
        <time>2019-07-08T13:01:53Z</time>
      </trkpt>
      <trkpt lat="42.5011435244" lon="19.9104065727">
        <ele>1774.25</ele>
        <time>2019-07-08T13:02:01Z</time>
      </trkpt>
      <trkpt lat="42.5011589471" lon="19.9102915730">
        <ele>1774.73</ele>
        <time>2019-07-08T13:02:15Z</time>
      </trkpt>
      <trkpt lat="42.5012021139" lon="19.9100888148">
        <ele>1776.65</ele>
        <time>2019-07-08T13:02:30Z</time>
      </trkpt>
      <trkpt lat="42.5011628866" lon="19.9099656008">
        <ele>1779.06</ele>
        <time>2019-07-08T13:02:43Z</time>
      </trkpt>
      <trkpt lat="42.5011419319" lon="19.9098935165">
        <ele>1780.50</ele>
        <time>2019-07-08T13:02:50Z</time>
      </trkpt>
      <trkpt lat="42.5011418480" lon="19.9097243696">
        <ele>1781.46</ele>
        <time>2019-07-08T13:03:04Z</time>
      </trkpt>
      <trkpt lat="42.5011458714" lon="19.9095815420">
        <ele>1781.46</ele>
        <time>2019-07-08T13:03:16Z</time>
      </trkpt>
      <trkpt lat="42.5011660717" lon="19.9095044285">
        <ele>1782.90</ele>
        <time>2019-07-08T13:03:24Z</time>
      </trkpt>
      <trkpt lat="42.5011625513" lon="19.9093565717">
        <ele>1783.86</ele>
        <time>2019-07-08T13:03:36Z</time>
      </trkpt>
      <trkpt lat="42.5011719391" lon="19.9092816375">
        <ele>1785.31</ele>
        <time>2019-07-08T13:03:43Z</time>
      </trkpt>
      <trkpt lat="42.5011923909" lon="19.9091578368">
        <ele>1786.27</ele>
        <time>2019-07-08T13:03:53Z</time>
      </trkpt>
      <trkpt lat="42.5011938997" lon="19.9091446772">
        <ele>1786.27</ele>
        <time>2019-07-08T13:03:54Z</time>
      </trkpt>
      <trkpt lat="42.5011928100" lon="19.9091168493">
        <ele>1786.75</ele>
        <time>2019-07-08T13:03:56Z</time>
      </trkpt>
      <trkpt lat="42.5012168661" lon="19.9089953955">
        <ele>1788.19</ele>
        <time>2019-07-08T13:04:07Z</time>
      </trkpt>
      <trkpt lat="42.5012027845" lon="19.9089225568">
        <ele>1788.67</ele>
        <time>2019-07-08T13:04:14Z</time>
      </trkpt>
      <trkpt lat="42.5011840090" lon="19.9088689126">
        <ele>1788.67</ele>
        <time>2019-07-08T13:04:18Z</time>
      </trkpt>
      <trkpt lat="42.5011817459" lon="19.9088446051">
        <ele>1788.67</ele>
        <time>2019-07-08T13:04:20Z</time>
      </trkpt>
      <trkpt lat="42.5011844281" lon="19.9088201299">
        <ele>1789.15</ele>
        <time>2019-07-08T13:04:22Z</time>
      </trkpt>
      <trkpt lat="42.5011859369" lon="19.9085979257">
        <ele>1790.59</ele>
        <time>2019-07-08T13:04:38Z</time>
      </trkpt>
      <trkpt lat="42.5012019463" lon="19.9083924014">
        <ele>1792.03</ele>
        <time>2019-07-08T13:04:53Z</time>
      </trkpt>
      <trkpt lat="42.5012425985" lon="19.9082986917">
        <ele>1793.00</ele>
        <time>2019-07-08T13:05:05Z</time>
      </trkpt>
      <trkpt lat="42.5012454484" lon="19.9082604703">
        <ele>1793.48</ele>
        <time>2019-07-08T13:05:20Z</time>
      </trkpt>
      <trkpt lat="42.5012278464" lon="19.9082311336">
        <ele>1793.48</ele>
        <time>2019-07-08T13:05:36Z</time>
      </trkpt>
      <trkpt lat="42.5012420956" lon="19.9081727117">
        <ele>1793.48</ele>
        <time>2019-07-08T13:05:57Z</time>
      </trkpt>
      <trkpt lat="42.5012534112" lon="19.9082147889">
        <ele>1793.48</ele>
        <time>2019-07-08T13:06:23Z</time>
      </trkpt>
      <trkpt lat="42.5012223143" lon="19.9081872124">
        <ele>1792.52</ele>
        <time>2019-07-08T13:06:50Z</time>
      </trkpt>
      <trkpt lat="42.5012458675" lon="19.9081847817">
        <ele>1792.52</ele>
        <time>2019-07-08T13:07:14Z</time>
      </trkpt>
      <trkpt lat="42.5012269244" lon="19.9081479013">
        <ele>1792.52</ele>
        <time>2019-07-08T13:07:37Z</time>
      </trkpt>
      <trkpt lat="42.5012082327" lon="19.9081517570">
        <ele>1793.00</ele>
        <time>2019-07-08T13:08:17Z</time>
      </trkpt>
      <trkpt lat="42.5012013596" lon="19.9081833567">
        <ele>1793.00</ele>
        <time>2019-07-08T13:08:58Z</time>
      </trkpt>
      <trkpt lat="42.5012195483" lon="19.9081772380">
        <ele>1793.00</ele>
        <time>2019-07-08T13:09:24Z</time>
      </trkpt>
      <trkpt lat="42.5012070592" lon="19.9081489071">
        <ele>1793.00</ele>
        <time>2019-07-08T13:09:50Z</time>
      </trkpt>
      <trkpt lat="42.5011826679" lon="19.9081734661">
        <ele>1794.44</ele>
        <time>2019-07-08T13:10:00Z</time>
      </trkpt>
      <trkpt lat="42.5012213923" lon="19.9081519246">
        <ele>1793.00</ele>
        <time>2019-07-08T13:10:11Z</time>
      </trkpt>
      <trkpt lat="42.5012230687" lon="19.9082094245">
        <ele>1794.44</ele>
        <time>2019-07-08T13:10:25Z</time>
      </trkpt>
      <trkpt lat="42.5012377370" lon="19.9082012102">
        <ele>1794.44</ele>
        <time>2019-07-08T13:10:43Z</time>
      </trkpt>
      <trkpt lat="42.5011864398" lon="19.9080988672">
        <ele>1794.92</ele>
        <time>2019-07-08T13:10:57Z</time>
      </trkpt>
      <trkpt lat="42.5012473762" lon="19.9080486596">
        <ele>1795.88</ele>
        <time>2019-07-08T13:11:08Z</time>
      </trkpt>
      <trkpt lat="42.5012655649" lon="19.9080340751">
        <ele>1796.36</ele>
        <time>2019-07-08T13:11:10Z</time>
      </trkpt>
      <trkpt lat="42.5012819935" lon="19.9079834484">
        <ele>1796.36</ele>
        <time>2019-07-08T13:11:14Z</time>
      </trkpt>
      <trkpt lat="42.5012838375" lon="19.9078848772">
        <ele>1796.84</ele>
        <time>2019-07-08T13:11:21Z</time>
      </trkpt>
      <trkpt lat="42.5013169460" lon="19.9077650160">
        <ele>1798.76</ele>
        <time>2019-07-08T13:11:34Z</time>
      </trkpt>
      <trkpt lat="42.5013653096" lon="19.9076371919">
        <ele>1800.69</ele>
        <time>2019-07-08T13:11:48Z</time>
      </trkpt>
      <trkpt lat="42.5014134217" lon="19.9075345974">
        <ele>1803.09</ele>
        <time>2019-07-08T13:12:01Z</time>
      </trkpt>
      <trkpt lat="42.5014508050" lon="19.9074426480">
        <ele>1804.05</ele>
        <time>2019-07-08T13:12:12Z</time>
      </trkpt>
      <trkpt lat="42.5014652219" lon="19.9073218647">
        <ele>1805.97</ele>
        <time>2019-07-08T13:12:24Z</time>
      </trkpt>
      <trkpt lat="42.5014663115" lon="19.9071790371">
        <ele>1807.90</ele>
        <time>2019-07-08T13:12:37Z</time>
      </trkpt>
      <trkpt lat="42.5014428422" lon="19.9070684798">
        <ele>1809.34</ele>
        <time>2019-07-08T13:12:49Z</time>
      </trkpt>
      <trkpt lat="42.5014360528" lon="19.9069756921">
        <ele>1811.74</ele>
        <time>2019-07-08T13:13:00Z</time>
      </trkpt>
      <trkpt lat="42.5014492124" lon="19.9069368839">
        <ele>1812.70</ele>
        <time>2019-07-08T13:13:12Z</time>
      </trkpt>
      <trkpt lat="42.5014575105" lon="19.9069273286">
        <ele>1812.70</ele>
        <time>2019-07-08T13:13:33Z</time>
      </trkpt>
      <trkpt lat="42.5014674012" lon="19.9068799708">
        <ele>1812.70</ele>
        <time>2019-07-08T13:13:46Z</time>
      </trkpt>
      <trkpt lat="42.5014611147" lon="19.9068049528">
        <ele>1814.15</ele>
        <time>2019-07-08T13:14:00Z</time>
      </trkpt>
      <trkpt lat="42.5014595222" lon="19.9068745226">
        <ele>1814.15</ele>
        <time>2019-07-08T13:14:19Z</time>
      </trkpt>
      <trkpt lat="42.5014525652" lon="19.9068181124">
        <ele>1814.15</ele>
        <time>2019-07-08T13:14:44Z</time>
      </trkpt>
      <trkpt lat="42.5014618691" lon="19.9067171104">
        <ele>1814.15</ele>
        <time>2019-07-08T13:14:56Z</time>
      </trkpt>
      <trkpt lat="42.5014563370" lon="19.9066060502">
        <ele>1814.63</ele>
        <time>2019-07-08T13:15:08Z</time>
      </trkpt>
      <trkpt lat="42.5014517270" lon="19.9064975884">
        <ele>1817.03</ele>
        <time>2019-07-08T13:15:21Z</time>
      </trkpt>
      <trkpt lat="42.5014929660" lon="19.9064217322">
        <ele>1819.91</ele>
        <time>2019-07-08T13:15:35Z</time>
      </trkpt>
      <trkpt lat="42.5014882721" lon="19.9063695967">
        <ele>1820.87</ele>
        <time>2019-07-08T13:15:47Z</time>
      </trkpt>
      <trkpt lat="42.5014406629" lon="19.9062682595">
        <ele>1823.76</ele>
        <time>2019-07-08T13:16:01Z</time>
      </trkpt>
      <trkpt lat="42.5014215522" lon="19.9062061496">
        <ele>1825.68</ele>
        <time>2019-07-08T13:16:12Z</time>
      </trkpt>
      <trkpt lat="42.5014031120" lon="19.9061198998">
        <ele>1828.56</ele>
        <time>2019-07-08T13:16:24Z</time>
      </trkpt>
      <trkpt lat="42.5014056265" lon="19.9060168024">
        <ele>1830.49</ele>
        <time>2019-07-08T13:16:34Z</time>
      </trkpt>
      <trkpt lat="42.5014081411" lon="19.9059317261">
        <ele>1832.41</ele>
        <time>2019-07-08T13:16:47Z</time>
      </trkpt>
      <trkpt lat="42.5014026929" lon="19.9058656767">
        <ele>1834.33</ele>
        <time>2019-07-08T13:16:56Z</time>
      </trkpt>
      <trkpt lat="42.5013783015" lon="19.9057811871">
        <ele>1836.74</ele>
        <time>2019-07-08T13:17:06Z</time>
      </trkpt>
      <trkpt lat="42.5013481267" lon="19.9057432171">
        <ele>1839.14</ele>
        <time>2019-07-08T13:17:20Z</time>
      </trkpt>
      <trkpt lat="42.5013197120" lon="19.9056403711">
        <ele>1839.14</ele>
        <time>2019-07-08T13:17:32Z</time>
      </trkpt>
      <trkpt lat="42.5012974162" lon="19.9055196717">
        <ele>1839.62</ele>
        <time>2019-07-08T13:17:43Z</time>
      </trkpt>
      <trkpt lat="42.5012810715" lon="19.9053328391">
        <ele>1841.06</ele>
        <time>2019-07-08T13:17:57Z</time>
      </trkpt>
      <trkpt lat="42.5013154373" lon="19.9052356090">
        <ele>1842.98</ele>
        <time>2019-07-08T13:18:10Z</time>
      </trkpt>
      <trkpt lat="42.5013876893" lon="19.9051798694">
        <ele>1845.39</ele>
        <time>2019-07-08T13:18:22Z</time>
      </trkpt>
      <trkpt lat="42.5014184508" lon="19.9051926937">
        <ele>1846.83</ele>
        <time>2019-07-08T13:18:32Z</time>
      </trkpt>
      <trkpt lat="42.5013914611" lon="19.9052688852">
        <ele>1846.83</ele>
        <time>2019-07-08T13:18:37Z</time>
      </trkpt>
      <trkpt lat="42.5013799779" lon="19.9055020697">
        <ele>1844.91</ele>
        <time>2019-07-08T13:18:51Z</time>
      </trkpt>
      <trkpt lat="42.5013876893" lon="19.9055814464">
        <ele>1844.91</ele>
        <time>2019-07-08T13:18:56Z</time>
      </trkpt>
      <trkpt lat="42.5014171936" lon="19.9056706298">
        <ele>1846.35</ele>
        <time>2019-07-08T13:19:06Z</time>
      </trkpt>
      <trkpt lat="42.5014133379" lon="19.9055698793">
        <ele>1846.35</ele>
        <time>2019-07-08T13:19:21Z</time>
      </trkpt>
      <trkpt lat="42.5013954006" lon="19.9055087753">
        <ele>1846.35</ele>
        <time>2019-07-08T13:19:47Z</time>
      </trkpt>
      <trkpt lat="42.5014254078" lon="19.9056508485">
        <ele>1845.39</ele>
        <time>2019-07-08T13:20:11Z</time>
      </trkpt>
      <trkpt lat="42.5015047844" lon="19.9058211688">
        <ele>1845.39</ele>
        <time>2019-07-08T13:20:24Z</time>
      </trkpt>
      <trkpt lat="42.5015928783" lon="19.9059277866">
        <ele>1845.39</ele>
        <time>2019-07-08T13:20:39Z</time>
      </trkpt>
      <trkpt lat="42.5016233046" lon="19.9059497472">
        <ele>1845.39</ele>
        <time>2019-07-08T13:20:47Z</time>
      </trkpt>
      <trkpt lat="42.5016621128" lon="19.9059923273">
        <ele>1845.39</ele>
        <time>2019-07-08T13:20:51Z</time>
      </trkpt>
      <trkpt lat="42.5017419923" lon="19.9060997833">
        <ele>1844.43</ele>
        <time>2019-07-08T13:21:02Z</time>
      </trkpt>
      <trkpt lat="42.5017367117" lon="19.9061461352">
        <ele>1844.91</ele>
        <time>2019-07-08T13:21:05Z</time>
      </trkpt>
      <trkpt lat="42.5017478596" lon="19.9062177166">
        <ele>1845.87</ele>
        <time>2019-07-08T13:21:13Z</time>
      </trkpt>
      <trkpt lat="42.5017995760" lon="19.9063729495">
        <ele>1845.87</ele>
        <time>2019-07-08T13:21:26Z</time>
      </trkpt>
      <trkpt lat="42.5018647034" lon="19.9065426830">
        <ele>1845.87</ele>
        <time>2019-07-08T13:21:39Z</time>
      </trkpt>
      <trkpt lat="42.5019445829" lon="19.9066303577">
        <ele>1844.91</ele>
        <time>2019-07-08T13:21:48Z</time>
      </trkpt>
      <trkpt lat="42.5019807927" lon="19.9067103211">
        <ele>1844.91</ele>
        <time>2019-07-08T13:21:55Z</time>
      </trkpt>
      <trkpt lat="42.5020198524" lon="19.9068751931">
        <ele>1844.43</ele>
        <time>2019-07-08T13:22:08Z</time>
      </trkpt>
      <trkpt lat="42.5020544697" lon="19.9069369677">
        <ele>1843.95</ele>
        <time>2019-07-08T13:22:13Z</time>
      </trkpt>
      <trkpt lat="42.5021141488" lon="19.9070387240">
        <ele>1842.98</ele>
        <time>2019-07-08T13:22:21Z</time>
      </trkpt>
      <trkpt lat="42.5021280628" lon="19.9070902728">
        <ele>1842.02</ele>
        <time>2019-07-08T13:22:25Z</time>
      </trkpt>
      <trkpt lat="42.5021466706" lon="19.9071561545">
        <ele>1841.54</ele>
        <time>2019-07-08T13:22:30Z</time>
      </trkpt>
      <trkpt lat="42.5021662842" lon="19.9072409794">
        <ele>1841.06</ele>
        <time>2019-07-08T13:22:36Z</time>
      </trkpt>
      <trkpt lat="42.5022144802" lon="19.9073001556">
        <ele>1839.62</ele>
        <time>2019-07-08T13:22:44Z</time>
      </trkpt>
      <trkpt lat="42.5022403803" lon="19.9073470943">
        <ele>1839.14</ele>
        <time>2019-07-08T13:22:48Z</time>
      </trkpt>
      <trkpt lat="42.5022703875" lon="19.9074011575">
        <ele>1838.66</ele>
        <time>2019-07-08T13:22:53Z</time>
      </trkpt>
      <trkpt lat="42.5022801943" lon="19.9075162411">
        <ele>1841.06</ele>
        <time>2019-07-08T13:23:05Z</time>
      </trkpt>
      <trkpt lat="42.5022710580" lon="19.9075763393">
        <ele>1842.02</ele>
        <time>2019-07-08T13:23:11Z</time>
      </trkpt>
      <trkpt lat="42.5023278873" lon="19.9076827895">
        <ele>1842.98</ele>
        <time>2019-07-08T13:23:22Z</time>
      </trkpt>
      <trkpt lat="42.5024272129" lon="19.9077987112">
        <ele>1843.47</ele>
        <time>2019-07-08T13:23:36Z</time>
      </trkpt>
      <trkpt lat="42.5025374349" lon="19.9079229310">
        <ele>1843.47</ele>
        <time>2019-07-08T13:23:49Z</time>
      </trkpt>
      <trkpt lat="42.5026256125" lon="19.9079303071">
        <ele>1843.95</ele>
        <time>2019-07-08T13:24:03Z</time>
      </trkpt>
      <trkpt lat="42.5026210025" lon="19.9079758208">
        <ele>1843.95</ele>
        <time>2019-07-08T13:24:09Z</time>
      </trkpt>
      <trkpt lat="42.5025452301" lon="19.9081183132">
        <ele>1844.43</ele>
        <time>2019-07-08T13:24:21Z</time>
      </trkpt>
      <trkpt lat="42.5025327411" lon="19.9081466440">
        <ele>1844.91</ele>
        <time>2019-07-08T13:24:22Z</time>
      </trkpt>
      <trkpt lat="42.5025150552" lon="19.9082795810">
        <ele>1846.35</ele>
        <time>2019-07-08T13:24:34Z</time>
      </trkpt>
      <trkpt lat="42.5025194976" lon="19.9082929920">
        <ele>1846.35</ele>
        <time>2019-07-08T13:24:35Z</time>
      </trkpt>
      <trkpt lat="42.5025736447" lon="19.9084559362">
        <ele>1847.31</ele>
        <time>2019-07-08T13:24:48Z</time>
      </trkpt>
      <trkpt lat="42.5025541987" lon="19.9086614605">
        <ele>1848.75</ele>
        <time>2019-07-08T13:25:04Z</time>
      </trkpt>
      <trkpt lat="42.5025759917" lon="19.9088485446">
        <ele>1849.71</ele>
        <time>2019-07-08T13:25:18Z</time>
      </trkpt>
      <trkpt lat="42.5025468227" lon="19.9090243131">
        <ele>1851.64</ele>
        <time>2019-07-08T13:25:33Z</time>
      </trkpt>
      <trkpt lat="42.5025450625" lon="19.9090358801">
        <ele>1851.64</ele>
        <time>2019-07-08T13:25:34Z</time>
      </trkpt>
      <trkpt lat="42.5025713816" lon="19.9091384746">
        <ele>1852.12</ele>
        <time>2019-07-08T13:25:46Z</time>
      </trkpt>
      <trkpt lat="42.5025992934" lon="19.9093072861">
        <ele>1854.52</ele>
        <time>2019-07-08T13:26:00Z</time>
      </trkpt>
      <trkpt lat="42.5026026461" lon="19.9094347749">
        <ele>1854.04</ele>
        <time>2019-07-08T13:26:10Z</time>
      </trkpt>
      <trkpt lat="42.5026711263" lon="19.9095211923">
        <ele>1855.48</ele>
        <time>2019-07-08T13:26:26Z</time>
      </trkpt>
      <trkpt lat="42.5026717130" lon="19.9095277302">
        <ele>1855.48</ele>
        <time>2019-07-08T13:26:43Z</time>
      </trkpt>
      <trkpt lat="42.5026675221" lon="19.9094504490">
        <ele>1856.44</ele>
        <time>2019-07-08T13:27:03Z</time>
      </trkpt>
      <trkpt lat="42.5027308892" lon="19.9094175082">
        <ele>1857.40</ele>
        <time>2019-07-08T13:27:15Z</time>
      </trkpt>
      <trkpt lat="42.5027451385" lon="19.9094293267">
        <ele>1857.40</ele>
        <time>2019-07-08T13:27:23Z</time>
      </trkpt>
      <trkpt lat="42.5028435420" lon="19.9094144069">
        <ele>1859.33</ele>
        <time>2019-07-08T13:27:35Z</time>
      </trkpt>
      <trkpt lat="42.5028646644" lon="19.9094016664">
        <ele>1859.81</ele>
        <time>2019-07-08T13:27:54Z</time>
      </trkpt>
      <trkpt lat="42.5028602220" lon="19.9093496986">
        <ele>1859.33</ele>
        <time>2019-07-08T13:28:20Z</time>
      </trkpt>
      <trkpt lat="42.5028515887" lon="19.9093889259">
        <ele>1859.33</ele>
        <time>2019-07-08T13:28:32Z</time>
      </trkpt>
      <trkpt lat="42.5028261077" lon="19.9093852378">
        <ele>1859.81</ele>
        <time>2019-07-08T13:28:47Z</time>
      </trkpt>
      <trkpt lat="42.5028080028" lon="19.9093850702">
        <ele>1859.81</ele>
        <time>2019-07-08T13:28:49Z</time>
      </trkpt>
      <trkpt lat="42.5027828570" lon="19.9093766045">
        <ele>1858.37</ele>
        <time>2019-07-08T13:28:51Z</time>
      </trkpt>
      <trkpt lat="42.5027665962" lon="19.9093865789">
        <ele>1857.40</ele>
        <time>2019-07-08T13:28:53Z</time>
      </trkpt>
      <trkpt lat="42.5027436297" lon="19.9094244651">
        <ele>1856.44</ele>
        <time>2019-07-08T13:28:56Z</time>
      </trkpt>
      <trkpt lat="42.5026697852" lon="19.9095048476">
        <ele>1855.48</ele>
        <time>2019-07-08T13:29:10Z</time>
      </trkpt>
      <trkpt lat="42.5026817713" lon="19.9095098767">
        <ele>1855.00</ele>
        <time>2019-07-08T13:29:22Z</time>
      </trkpt>
      <trkpt lat="42.5027009659" lon="19.9095782731">
        <ele>1854.52</ele>
        <time>2019-07-08T13:29:35Z</time>
      </trkpt>
      <trkpt lat="42.5027220044" lon="19.9096049275">
        <ele>1854.52</ele>
        <time>2019-07-08T13:29:38Z</time>
      </trkpt>
      <trkpt lat="42.5027930830" lon="19.9097714759">
        <ele>1853.08</ele>
        <time>2019-07-08T13:29:52Z</time>
      </trkpt>
      <trkpt lat="42.5028057396" lon="19.9098350946">
        <ele>1852.60</ele>
        <time>2019-07-08T13:29:56Z</time>
      </trkpt>
      <trkpt lat="42.5028195698" lon="19.9098731484">
        <ele>1852.60</ele>
        <time>2019-07-08T13:29:59Z</time>
      </trkpt>
      <trkpt lat="42.5028951745" lon="19.9100322369">
        <ele>1851.64</ele>
        <time>2019-07-08T13:30:12Z</time>
      </trkpt>
      <trkpt lat="42.5029888004" lon="19.9101247732">
        <ele>1850.68</ele>
        <time>2019-07-08T13:30:23Z</time>
      </trkpt>
      <trkpt lat="42.5030249264" lon="19.9102003779">
        <ele>1850.68</ele>
        <time>2019-07-08T13:30:41Z</time>
      </trkpt>
      <trkpt lat="42.5030209869" lon="19.9101877213">
        <ele>1850.68</ele>
        <time>2019-07-08T13:31:03Z</time>
      </trkpt>
      <trkpt lat="42.5030184723" lon="19.9101641681">
        <ele>1850.68</ele>
        <time>2019-07-08T13:31:16Z</time>
      </trkpt>
      <trkpt lat="42.5030260161" lon="19.9101624917">
        <ele>1850.68</ele>
        <time>2019-07-08T13:31:38Z</time>
      </trkpt>
      <trkpt lat="42.5030178018" lon="19.9101881403">
        <ele>1850.68</ele>
        <time>2019-07-08T13:32:11Z</time>
      </trkpt>
      <trkpt lat="42.5030411873" lon="19.9101648387">
        <ele>1850.68</ele>
        <time>2019-07-08T13:32:38Z</time>
      </trkpt>
      <trkpt lat="42.5030291174" lon="19.9101303052">
        <ele>1850.68</ele>
        <time>2019-07-08T13:33:12Z</time>
      </trkpt>
      <trkpt lat="42.5030108448" lon="19.9101644196">
        <ele>1850.68</ele>
        <time>2019-07-08T13:33:37Z</time>
      </trkpt>
      <trkpt lat="42.5030066539" lon="19.9102520943">
        <ele>1850.68</ele>
        <time>2019-07-08T13:33:49Z</time>
      </trkpt>
      <trkpt lat="42.5030014571" lon="19.9102727976">
        <ele>1850.68</ele>
        <time>2019-07-08T13:33:51Z</time>
      </trkpt>
      <trkpt lat="42.5030203164" lon="19.9103233404">
        <ele>1850.19</ele>
        <time>2019-07-08T13:33:55Z</time>
      </trkpt>
      <trkpt lat="42.5030533411" lon="19.9103937484">
        <ele>1850.19</ele>
        <time>2019-07-08T13:34:01Z</time>
      </trkpt>
      <trkpt lat="42.5030476414" lon="19.9105618894">
        <ele>1850.19</ele>
        <time>2019-07-08T13:34:14Z</time>
      </trkpt>
      <trkpt lat="42.5030766428" lon="19.9107587803">
        <ele>1852.60</ele>
        <time>2019-07-08T13:34:30Z</time>
      </trkpt>
      <trkpt lat="42.5030978490" lon="19.9108999316">
        <ele>1853.56</ele>
        <time>2019-07-08T13:34:42Z</time>
      </trkpt>
      <trkpt lat="42.5031138584" lon="19.9109495524">
        <ele>1853.56</ele>
        <time>2019-07-08T13:34:58Z</time>
      </trkpt>
      <trkpt lat="42.5031652395" lon="19.9111075513">
        <ele>1855.48</ele>
        <time>2019-07-08T13:35:13Z</time>
      </trkpt>
      <trkpt lat="42.5032173749" lon="19.9112607725">
        <ele>1855.48</ele>
        <time>2019-07-08T13:35:26Z</time>
      </trkpt>
      <trkpt lat="42.5032839272" lon="19.9114077073">
        <ele>1855.48</ele>
        <time>2019-07-08T13:35:40Z</time>
      </trkpt>
      <trkpt lat="42.5033617951" lon="19.9115396384">
        <ele>1856.44</ele>
        <time>2019-07-08T13:35:54Z</time>
      </trkpt>
      <trkpt lat="42.5033934787" lon="19.9117024988">
        <ele>1856.92</ele>
        <time>2019-07-08T13:36:06Z</time>
      </trkpt>
      <trkpt lat="42.5034086499" lon="19.9118496012">
        <ele>1856.92</ele>
        <time>2019-07-08T13:36:15Z</time>
      </trkpt>
      <trkpt lat="42.5034968276" lon="19.9120005593">
        <ele>1856.92</ele>
        <time>2019-07-08T13:36:29Z</time>
      </trkpt>
      <trkpt lat="42.5035534054" lon="19.9121085182">
        <ele>1856.92</ele>
        <time>2019-07-08T13:36:38Z</time>
      </trkpt>
      <trkpt lat="42.5036016852" lon="19.9121637549">
        <ele>1856.92</ele>
        <time>2019-07-08T13:36:44Z</time>
      </trkpt>
      <trkpt lat="42.5036875997" lon="19.9123028945">
        <ele>1857.89</ele>
        <time>2019-07-08T13:36:57Z</time>
      </trkpt>
      <trkpt lat="42.5037331134" lon="19.9124510866">
        <ele>1857.89</ele>
        <time>2019-07-08T13:37:09Z</time>
      </trkpt>
      <trkpt lat="42.5038051140" lon="19.9125499930">
        <ele>1858.37</ele>
        <time>2019-07-08T13:37:21Z</time>
      </trkpt>
      <trkpt lat="42.5038373005" lon="19.9126026314">
        <ele>1858.85</ele>
        <time>2019-07-08T13:37:25Z</time>
      </trkpt>
      <trkpt lat="42.5038797967" lon="19.9126827624">
        <ele>1858.85</ele>
        <time>2019-07-08T13:37:32Z</time>
      </trkpt>
      <trkpt lat="42.5039695669" lon="19.9129260890">
        <ele>1857.89</ele>
        <time>2019-07-08T13:37:47Z</time>
      </trkpt>
      <trkpt lat="42.5040544756" lon="19.9130181223">
        <ele>1858.85</ele>
        <time>2019-07-08T13:38:00Z</time>
      </trkpt>
      <trkpt lat="42.5041166693" lon="19.9131454434">
        <ele>1859.33</ele>
        <time>2019-07-08T13:38:14Z</time>
      </trkpt>
      <trkpt lat="42.5042076968" lon="19.9133246485">
        <ele>1857.89</ele>
        <time>2019-07-08T13:38:29Z</time>
      </trkpt>
      <trkpt lat="42.5042125583" lon="19.9133370537">
        <ele>1857.89</ele>
        <time>2019-07-08T13:38:30Z</time>
      </trkpt>
      <trkpt lat="42.5042466726" lon="19.9133736826">
        <ele>1857.89</ele>
        <time>2019-07-08T13:38:34Z</time>
      </trkpt>
      <trkpt lat="42.5043494347" lon="19.9134859163">
        <ele>1857.40</ele>
        <time>2019-07-08T13:38:48Z</time>
      </trkpt>
      <trkpt lat="42.5044003129" lon="19.9136064481">
        <ele>1857.40</ele>
        <time>2019-07-08T13:39:01Z</time>
      </trkpt>
      <trkpt lat="42.5044093654" lon="19.9136147462">
        <ele>1857.40</ele>
        <time>2019-07-08T13:39:02Z</time>
      </trkpt>
      <trkpt lat="42.5045126304" lon="19.9137215316">
        <ele>1857.40</ele>
        <time>2019-07-08T13:39:16Z</time>
      </trkpt>
      <trkpt lat="42.5045827031" lon="19.9137847312">
        <ele>1857.40</ele>
        <time>2019-07-08T13:39:28Z</time>
      </trkpt>
      <trkpt lat="42.5046640914" lon="19.9138763454">
        <ele>1858.37</ele>
        <time>2019-07-08T13:39:40Z</time>
      </trkpt>
      <trkpt lat="42.5047772471" lon="19.9139657803">
        <ele>1858.37</ele>
        <time>2019-07-08T13:39:54Z</time>
      </trkpt>
      <trkpt lat="42.5048451405" lon="19.9140247889">
        <ele>1857.40</ele>
        <time>2019-07-08T13:40:01Z</time>
      </trkpt>
      <trkpt lat="42.5049347430" lon="19.9141950253">
        <ele>1855.48</ele>
        <time>2019-07-08T13:40:14Z</time>
      </trkpt>
      <trkpt lat="42.5050147902" lon="19.9142819457">
        <ele>1855.00</ele>
        <time>2019-07-08T13:40:23Z</time>
      </trkpt>
      <trkpt lat="42.5050796662" lon="19.9143897370">
        <ele>1853.56</ele>
        <time>2019-07-08T13:40:32Z</time>
      </trkpt>
      <trkpt lat="42.5050945859" lon="19.9144032318">
        <ele>1853.56</ele>
        <time>2019-07-08T13:40:33Z</time>
      </trkpt>
      <trkpt lat="42.5051088352" lon="19.9144381844">
        <ele>1853.08</ele>
        <time>2019-07-08T13:40:35Z</time>
      </trkpt>
      <trkpt lat="42.5051955879" lon="19.9146354105">
        <ele>1851.16</ele>
        <time>2019-07-08T13:40:48Z</time>
      </trkpt>
      <trkpt lat="42.5052661635" lon="19.9146468099">
        <ele>1850.68</ele>
        <time>2019-07-08T13:41:00Z</time>
      </trkpt>
      <trkpt lat="42.5052768923" lon="19.9146657530">
        <ele>1850.68</ele>
        <time>2019-07-08T13:41:02Z</time>
      </trkpt>
      <trkpt lat="42.5052825082" lon="19.9146872945">
        <ele>1852.12</ele>
        <time>2019-07-08T13:41:04Z</time>
      </trkpt>
      <trkpt lat="42.5053338055" lon="19.9147885479">
        <ele>1853.08</ele>
        <time>2019-07-08T13:41:13Z</time>
      </trkpt>
      <trkpt lat="42.5054353103" lon="19.9149116781">
        <ele>1853.08</ele>
        <time>2019-07-08T13:41:27Z</time>
      </trkpt>
      <trkpt lat="42.5055349711" lon="19.9150094111">
        <ele>1853.08</ele>
        <time>2019-07-08T13:41:40Z</time>
      </trkpt>
      <trkpt lat="42.5055956561" lon="19.9150892906">
        <ele>1851.64</ele>
        <time>2019-07-08T13:41:49Z</time>
      </trkpt>
      <trkpt lat="42.5056919642" lon="19.9152180366">
        <ele>1851.64</ele>
        <time>2019-07-08T13:42:03Z</time>
      </trkpt>
      <trkpt lat="42.5057816505" lon="19.9153621215">
        <ele>1851.64</ele>
        <time>2019-07-08T13:42:16Z</time>
      </trkpt>
      <trkpt lat="42.5058337860" lon="19.9155098945">
        <ele>1851.64</ele>
        <time>2019-07-08T13:42:27Z</time>
      </trkpt>
      <trkpt lat="42.5058887713" lon="19.9155825656">
        <ele>1852.60</ele>
        <time>2019-07-08T13:42:39Z</time>
      </trkpt>
      <trkpt lat="42.5059108995" lon="19.9156694859">
        <ele>1853.08</ele>
        <time>2019-07-08T13:42:53Z</time>
      </trkpt>
      <trkpt lat="42.5058865920" lon="19.9157833122">
        <ele>1850.19</ele>
        <time>2019-07-08T13:43:06Z</time>
      </trkpt>
      <trkpt lat="42.5058939680" lon="19.9157936219">
        <ele>1850.19</ele>
        <time>2019-07-08T13:43:07Z</time>
      </trkpt>
      <trkpt lat="42.5059764460" lon="19.9158615153">
        <ele>1848.75</ele>
        <time>2019-07-08T13:43:21Z</time>
      </trkpt>
      <trkpt lat="42.5059808046" lon="19.9158755131">
        <ele>1848.27</ele>
        <time>2019-07-08T13:43:24Z</time>
      </trkpt>
      <trkpt lat="42.5060174335" lon="19.9159253016">
        <ele>1846.35</ele>
        <time>2019-07-08T13:43:31Z</time>
      </trkpt>
      <trkpt lat="42.5061106402" lon="19.9160426483">
        <ele>1844.91</ele>
        <time>2019-07-08T13:43:46Z</time>
      </trkpt>
      <trkpt lat="42.5061263982" lon="19.9160563946">
        <ele>1844.91</ele>
        <time>2019-07-08T13:43:48Z</time>
      </trkpt>
      <trkpt lat="42.5061067846" lon="19.9161749985">
        <ele>1844.91</ele>
        <time>2019-07-08T13:43:57Z</time>
      </trkpt>
      <trkpt lat="42.5060875900" lon="19.9163308181">
        <ele>1844.91</ele>
        <time>2019-07-08T13:44:10Z</time>
      </trkpt>
      <trkpt lat="42.5061350316" lon="19.9164637551">
        <ele>1844.91</ele>
        <time>2019-07-08T13:44:21Z</time>
      </trkpt>
      <trkpt lat="42.5061442517" lon="19.9166318960">
        <ele>1842.02</ele>
        <time>2019-07-08T13:44:33Z</time>
      </trkpt>
      <trkpt lat="42.5061684754" lon="19.9168232549">
        <ele>1840.58</ele>
        <time>2019-07-08T13:44:47Z</time>
      </trkpt>
      <trkpt lat="42.5061678886" lon="19.9169481453">
        <ele>1840.10</ele>
        <time>2019-07-08T13:44:58Z</time>
      </trkpt>
      <trkpt lat="42.5061820541" lon="19.9170398433">
        <ele>1839.14</ele>
        <time>2019-07-08T13:45:05Z</time>
      </trkpt>
      <trkpt lat="42.5062030088" lon="19.9170918111">
        <ele>1839.14</ele>
        <time>2019-07-08T13:45:09Z</time>
      </trkpt>
      <trkpt lat="42.5062087085" lon="19.9172071461">
        <ele>1839.14</ele>
        <time>2019-07-08T13:45:21Z</time>
      </trkpt>
      <trkpt lat="42.5061766896" lon="19.9173048791">
        <ele>1838.66</ele>
        <time>2019-07-08T13:45:26Z</time>
      </trkpt>
      <trkpt lat="42.5060778670" lon="19.9175977428">
        <ele>1836.74</ele>
        <time>2019-07-08T13:45:41Z</time>
      </trkpt>
      <trkpt lat="42.5061156694" lon="19.9177284166">
        <ele>1836.26</ele>
        <time>2019-07-08T13:45:54Z</time>
      </trkpt>
      <trkpt lat="42.5061725825" lon="19.9178177677">
        <ele>1834.81</ele>
        <time>2019-07-08T13:46:07Z</time>
      </trkpt>
      <trkpt lat="42.5062060263" lon="19.9178944621">
        <ele>1833.85</ele>
        <time>2019-07-08T13:46:16Z</time>
      </trkpt>
      <trkpt lat="42.5062299147" lon="19.9179191049">
        <ele>1833.37</ele>
        <time>2019-07-08T13:46:19Z</time>
      </trkpt>
      <trkpt lat="42.5062718242" lon="19.9179496150">
        <ele>1833.37</ele>
        <time>2019-07-08T13:46:24Z</time>
      </trkpt>
      <trkpt lat="42.5062875822" lon="19.9179481901">
        <ele>1833.37</ele>
        <time>2019-07-08T13:46:26Z</time>
      </trkpt>
      <trkpt lat="42.5063156616" lon="19.9181635212">
        <ele>1832.89</ele>
        <time>2019-07-08T13:46:40Z</time>
      </trkpt>
      <trkpt lat="42.5063028373" lon="19.9183292314">
        <ele>1832.41</ele>
        <time>2019-07-08T13:46:51Z</time>
      </trkpt>
      <trkpt lat="42.5062717404" lon="19.9184851348">
        <ele>1831.93</ele>
        <time>2019-07-08T13:47:02Z</time>
      </trkpt>
      <trkpt lat="42.5062450022" lon="19.9185247812">
        <ele>1831.93</ele>
        <time>2019-07-08T13:47:05Z</time>
      </trkpt>
      <trkpt lat="42.5062186830" lon="19.9185908306">
        <ele>1831.93</ele>
        <time>2019-07-08T13:47:10Z</time>
      </trkpt>
      <trkpt lat="42.5061625242" lon="19.9188279547">
        <ele>1831.93</ele>
        <time>2019-07-08T13:47:27Z</time>
      </trkpt>
      <trkpt lat="42.5060959719" lon="19.9190076627">
        <ele>1832.89</ele>
        <time>2019-07-08T13:47:40Z</time>
      </trkpt>
      <trkpt lat="42.5060609356" lon="19.9191382527">
        <ele>1833.85</ele>
        <time>2019-07-08T13:47:55Z</time>
      </trkpt>
      <trkpt lat="42.5060628634" lon="19.9193434417">
        <ele>1834.33</ele>
        <time>2019-07-08T13:48:10Z</time>
      </trkpt>
      <trkpt lat="42.5060573313" lon="19.9193558469">
        <ele>1834.33</ele>
        <time>2019-07-08T13:48:11Z</time>
      </trkpt>
      <trkpt lat="42.5059994124" lon="19.9195032846">
        <ele>1835.29</ele>
        <time>2019-07-08T13:48:24Z</time>
      </trkpt>
      <trkpt lat="42.5059777871" lon="19.9196710903">
        <ele>1836.26</ele>
        <time>2019-07-08T13:48:36Z</time>
      </trkpt>
      <trkpt lat="42.5059698243" lon="19.9197069649">
        <ele>1836.26</ele>
        <time>2019-07-08T13:48:43Z</time>
      </trkpt>
      <trkpt lat="42.5058913697" lon="19.9198940489">
        <ele>1835.29</ele>
        <time>2019-07-08T13:48:56Z</time>
      </trkpt>
      <trkpt lat="42.5058577582" lon="19.9199210387">
        <ele>1835.29</ele>
        <time>2019-07-08T13:49:01Z</time>
      </trkpt>
      <trkpt lat="42.5057995040" lon="19.9201380461">
        <ele>1836.26</ele>
        <time>2019-07-08T13:49:14Z</time>
      </trkpt>
      <trkpt lat="42.5058280863" lon="19.9203240406">
        <ele>1837.22</ele>
        <time>2019-07-08T13:49:26Z</time>
      </trkpt>
      <trkpt lat="42.5058164354" lon="19.9203846417">
        <ele>1837.70</ele>
        <time>2019-07-08T13:49:35Z</time>
      </trkpt>
      <trkpt lat="42.5057569239" lon="19.9205811135">
        <ele>1838.66</ele>
        <time>2019-07-08T13:49:48Z</time>
      </trkpt>
      <trkpt lat="42.5057418365" lon="19.9206467438">
        <ele>1839.14</ele>
        <time>2019-07-08T13:49:54Z</time>
      </trkpt>
      <trkpt lat="42.5057065487" lon="19.9208399467">
        <ele>1840.10</ele>
        <time>2019-07-08T13:50:06Z</time>
      </trkpt>
      <trkpt lat="42.5056902878" lon="19.9210040644">
        <ele>1840.58</ele>
        <time>2019-07-08T13:50:19Z</time>
      </trkpt>
      <trkpt lat="42.5057247374" lon="19.9211960938">
        <ele>1841.06</ele>
        <time>2019-07-08T13:50:32Z</time>
      </trkpt>
      <trkpt lat="42.5057663955" lon="19.9212832656">
        <ele>1841.06</ele>
        <time>2019-07-08T13:50:44Z</time>
      </trkpt>
      <trkpt lat="42.5057783816" lon="19.9212956708">
        <ele>1841.06</ele>
        <time>2019-07-08T13:50:45Z</time>
      </trkpt>
      <trkpt lat="42.5057933852" lon="19.9213585351">
        <ele>1839.62</ele>
        <time>2019-07-08T13:50:48Z</time>
      </trkpt>
      <trkpt lat="42.5058171060" lon="19.9213911407">
        <ele>1839.14</ele>
        <time>2019-07-08T13:50:51Z</time>
      </trkpt>
      <trkpt lat="42.5058670621" lon="19.9214977585">
        <ele>1838.18</ele>
        <time>2019-07-08T13:50:59Z</time>
      </trkpt>
      <trkpt lat="42.5058855023" lon="19.9215239938">
        <ele>1838.18</ele>
        <time>2019-07-08T13:51:00Z</time>
      </trkpt>
      <trkpt lat="42.5059751049" lon="19.9217230640">
        <ele>1835.77</ele>
        <time>2019-07-08T13:51:14Z</time>
      </trkpt>
      <trkpt lat="42.5060290843" lon="19.9218474515">
        <ele>1832.41</ele>
        <time>2019-07-08T13:51:22Z</time>
      </trkpt>
      <trkpt lat="42.5061191898" lon="19.9219192844">
        <ele>1830.49</ele>
        <time>2019-07-08T13:51:30Z</time>
      </trkpt>
      <trkpt lat="42.5062612630" lon="19.9221020937">
        <ele>1829.05</ele>
        <time>2019-07-08T13:51:44Z</time>
      </trkpt>
      <trkpt lat="42.5062962994" lon="19.9221991561">
        <ele>1828.56</ele>
        <time>2019-07-08T13:51:54Z</time>
      </trkpt>
      <trkpt lat="42.5063620973" lon="19.9222079571">
        <ele>1830.01</ele>
        <time>2019-07-08T13:52:03Z</time>
      </trkpt>
      <trkpt lat="42.5063413102" lon="19.9222494476">
        <ele>1830.01</ele>
        <time>2019-07-08T13:52:12Z</time>
      </trkpt>
      <trkpt lat="42.5063196849" lon="19.9223208614">
        <ele>1828.56</ele>
        <time>2019-07-08T13:52:18Z</time>
      </trkpt>
      <trkpt lat="42.5063322578" lon="19.9223636091">
        <ele>1828.08</ele>
        <time>2019-07-08T13:52:21Z</time>
      </trkpt>
      <trkpt lat="42.5063465908" lon="19.9223784450">
        <ele>1827.60</ele>
        <time>2019-07-08T13:52:23Z</time>
      </trkpt>
      <trkpt lat="42.5064139813" lon="19.9224192649">
        <ele>1827.12</ele>
        <time>2019-07-08T13:52:31Z</time>
      </trkpt>
      <trkpt lat="42.5064663682" lon="19.9224716518">
        <ele>1827.12</ele>
        <time>2019-07-08T13:52:38Z</time>
      </trkpt>
      <trkpt lat="42.5065200962" lon="19.9225567281">
        <ele>1826.64</ele>
        <time>2019-07-08T13:52:48Z</time>
      </trkpt>
      <trkpt lat="42.5065421406" lon="19.9225838017">
        <ele>1826.64</ele>
        <time>2019-07-08T13:52:51Z</time>
      </trkpt>
      <trkpt lat="42.5066659413" lon="19.9227311555">
        <ele>1826.64</ele>
        <time>2019-07-08T13:53:06Z</time>
      </trkpt>
      <trkpt lat="42.5067417976" lon="19.9228178244">
        <ele>1828.08</ele>
        <time>2019-07-08T13:53:14Z</time>
      </trkpt>
      <trkpt lat="42.5067797676" lon="19.9229119532">
        <ele>1829.05</ele>
        <time>2019-07-08T13:53:21Z</time>
      </trkpt>
      <trkpt lat="42.5069195777" lon="19.9229945149">
        <ele>1828.08</ele>
        <time>2019-07-08T13:53:34Z</time>
      </trkpt>
      <trkpt lat="42.5069333240" lon="19.9229973648">
        <ele>1828.08</ele>
        <time>2019-07-08T13:53:36Z</time>
      </trkpt>
      <trkpt lat="42.5069507584" lon="19.9230057467">
        <ele>1828.08</ele>
        <time>2019-07-08T13:53:38Z</time>
      </trkpt>
      <trkpt lat="42.5070491619" lon="19.9230526015">
        <ele>1827.12</ele>
        <time>2019-07-08T13:53:50Z</time>
      </trkpt>
      <trkpt lat="42.5071722921" lon="19.9231670983">
        <ele>1825.20</ele>
        <time>2019-07-08T13:54:00Z</time>
      </trkpt>
      <trkpt lat="42.5071897265" lon="19.9231955130">
        <ele>1824.24</ele>
        <time>2019-07-08T13:54:04Z</time>
      </trkpt>
      <trkpt lat="42.5072432868" lon="19.9232414458">
        <ele>1823.28</ele>
        <time>2019-07-08T13:54:09Z</time>
      </trkpt>
      <trkpt lat="42.5073364098" lon="19.9233115185">
        <ele>1822.32</ele>
        <time>2019-07-08T13:54:18Z</time>
      </trkpt>
      <trkpt lat="42.5073675904" lon="19.9233290367">
        <ele>1822.32</ele>
        <time>2019-07-08T13:54:21Z</time>
      </trkpt>
      <trkpt lat="42.5075632241" lon="19.9233584572">
        <ele>1821.35</ele>
        <time>2019-07-08T13:54:35Z</time>
      </trkpt>
      <trkpt lat="42.5076923892" lon="19.9233965948">
        <ele>1820.39</ele>
        <time>2019-07-08T13:54:47Z</time>
      </trkpt>
      <trkpt lat="42.5077487156" lon="19.9234209862">
        <ele>1820.39</ele>
        <time>2019-07-08T13:54:54Z</time>
      </trkpt>
      <trkpt lat="42.5078327861" lon="19.9234583694">
        <ele>1820.39</ele>
        <time>2019-07-08T13:55:03Z</time>
      </trkpt>
      <trkpt lat="42.5079296809" lon="19.9235146958">
        <ele>1820.39</ele>
        <time>2019-07-08T13:55:14Z</time>
      </trkpt>
      <trkpt lat="42.5079953112" lon="19.9236286897">
        <ele>1819.91</ele>
        <time>2019-07-08T13:55:26Z</time>
      </trkpt>
      <trkpt lat="42.5080259051" lon="19.9237032048">
        <ele>1821.35</ele>
        <time>2019-07-08T13:55:35Z</time>
      </trkpt>
      <trkpt lat="42.5080412440" lon="19.9237303622">
        <ele>1821.35</ele>
        <time>2019-07-08T13:55:40Z</time>
      </trkpt>
      <trkpt lat="42.5080804713" lon="19.9238321185">
        <ele>1822.80</ele>
        <time>2019-07-08T13:55:52Z</time>
      </trkpt>
      <trkpt lat="42.5080951396" lon="19.9239078071">
        <ele>1823.28</ele>
        <time>2019-07-08T13:56:07Z</time>
      </trkpt>
      <trkpt lat="42.5080880988" lon="19.9239307735">
        <ele>1823.28</ele>
        <time>2019-07-08T13:56:18Z</time>
      </trkpt>
      <trkpt lat="42.5081042759" lon="19.9239829089">
        <ele>1823.28</ele>
        <time>2019-07-08T13:56:29Z</time>
      </trkpt>
      <trkpt lat="42.5080982409" lon="19.9240578432">
        <ele>1823.28</ele>
        <time>2019-07-08T13:56:40Z</time>
      </trkpt>
      <trkpt lat="42.5080957264" lon="19.9241309334">
        <ele>1824.24</ele>
        <time>2019-07-08T13:56:56Z</time>
      </trkpt>
      <trkpt lat="42.5081155915" lon="19.9242294207">
        <ele>1824.72</ele>
        <time>2019-07-08T13:57:12Z</time>
      </trkpt>
      <trkpt lat="42.5081472751" lon="19.9243806303">
        <ele>1825.20</ele>
        <time>2019-07-08T13:57:26Z</time>
      </trkpt>
      <trkpt lat="42.5081159268" lon="19.9244767707">
        <ele>1825.20</ele>
        <time>2019-07-08T13:57:41Z</time>
      </trkpt>
      <trkpt lat="42.5081087183" lon="19.9244928639">
        <ele>1824.24</ele>
        <time>2019-07-08T13:57:46Z</time>
      </trkpt>
      <trkpt lat="42.5081003364" lon="19.9245710671">
        <ele>1823.28</ele>
        <time>2019-07-08T13:58:00Z</time>
      </trkpt>
      <trkpt lat="42.5080820639" lon="19.9246770982">
        <ele>1822.32</ele>
        <time>2019-07-08T13:58:16Z</time>
      </trkpt>
      <trkpt lat="42.5081323553" lon="19.9248365220">
        <ele>1822.32</ele>
        <time>2019-07-08T13:58:30Z</time>
      </trkpt>
      <trkpt lat="42.5081897713" lon="19.9249314889">
        <ele>1822.32</ele>
        <time>2019-07-08T13:58:46Z</time>
      </trkpt>
      <trkpt lat="42.5081961416" lon="19.9249417149">
        <ele>1821.84</ele>
        <time>2019-07-08T13:59:07Z</time>
      </trkpt>
      <trkpt lat="42.5082139112" lon="19.9249478336">
        <ele>1823.28</ele>
        <time>2019-07-08T13:59:20Z</time>
      </trkpt>
      <trkpt lat="42.5083107222" lon="19.9249019846">
        <ele>1825.20</ele>
        <time>2019-07-08T13:59:35Z</time>
      </trkpt>
      <trkpt lat="42.5084100477" lon="19.9249464925">
        <ele>1827.60</ele>
        <time>2019-07-08T13:59:53Z</time>
      </trkpt>
      <trkpt lat="42.5084638596" lon="19.9249866419">
        <ele>1829.05</ele>
        <time>2019-07-08T14:00:13Z</time>
      </trkpt>
      <trkpt lat="42.5085366145" lon="19.9250036571">
        <ele>1830.49</ele>
        <time>2019-07-08T14:00:29Z</time>
      </trkpt>
      <trkpt lat="42.5086153205" lon="19.9250056688">
        <ele>1832.41</ele>
        <time>2019-07-08T14:00:42Z</time>
      </trkpt>
      <trkpt lat="42.5087283086" lon="19.9250009749">
        <ele>1834.81</ele>
        <time>2019-07-08T14:00:58Z</time>
      </trkpt>
      <trkpt lat="42.5087767560" lon="19.9250307307">
        <ele>1837.70</ele>
        <time>2019-07-08T14:01:11Z</time>
      </trkpt>
      <trkpt lat="42.5088237785" lon="19.9251271226">
        <ele>1837.70</ele>
        <time>2019-07-08T14:01:25Z</time>
      </trkpt>
      <trkpt lat="42.5088508520" lon="19.9251679424">
        <ele>1837.70</ele>
        <time>2019-07-08T14:01:29Z</time>
      </trkpt>
      <trkpt lat="42.5089067593" lon="19.9252358358">
        <ele>1838.18</ele>
        <time>2019-07-08T14:01:36Z</time>
      </trkpt>
      <trkpt lat="42.5089641754" lon="19.9254284520">
        <ele>1839.62</ele>
        <time>2019-07-08T14:01:50Z</time>
      </trkpt>
      <trkpt lat="42.5090333261" lon="19.9256422743">
        <ele>1840.10</ele>
        <time>2019-07-08T14:02:04Z</time>
      </trkpt>
      <trkpt lat="42.5090983696" lon="19.9257313740">
        <ele>1840.10</ele>
        <time>2019-07-08T14:02:12Z</time>
      </trkpt>
      <trkpt lat="42.5091688614" lon="19.9257794023">
        <ele>1838.66</ele>
        <time>2019-07-08T14:02:20Z</time>
      </trkpt>
      <trkpt lat="42.5092766527" lon="19.9257374089">
        <ele>1836.26</ele>
        <time>2019-07-08T14:02:31Z</time>
      </trkpt>
      <trkpt lat="42.5093315542" lon="19.9257066473">
        <ele>1834.33</ele>
        <time>2019-07-08T14:02:38Z</time>
      </trkpt>
      <trkpt lat="42.5093354098" lon="19.9257223215">
        <ele>1833.37</ele>
        <time>2019-07-08T14:02:40Z</time>
      </trkpt>
      <trkpt lat="42.5093681831" lon="19.9258063082">
        <ele>1834.81</ele>
        <time>2019-07-08T14:02:48Z</time>
      </trkpt>
      <trkpt lat="42.5093919039" lon="19.9260297697">
        <ele>1835.29</ele>
        <time>2019-07-08T14:03:03Z</time>
      </trkpt>
      <trkpt lat="42.5094765611" lon="19.9261588510">
        <ele>1835.29</ele>
        <time>2019-07-08T14:03:17Z</time>
      </trkpt>
      <trkpt lat="42.5095115975" lon="19.9263151735">
        <ele>1835.29</ele>
        <time>2019-07-08T14:03:27Z</time>
      </trkpt>
      <trkpt lat="42.5095381681" lon="19.9264541455">
        <ele>1835.29</ele>
        <time>2019-07-08T14:03:40Z</time>
      </trkpt>
      <trkpt lat="42.5095459633" lon="19.9264748488">
        <ele>1833.85</ele>
        <time>2019-07-08T14:03:42Z</time>
      </trkpt>
      <trkpt lat="42.5095758028" lon="19.9266358651">
        <ele>1831.93</ele>
        <time>2019-07-08T14:03:55Z</time>
      </trkpt>
      <trkpt lat="42.5096509885" lon="19.9268331751">
        <ele>1830.97</ele>
        <time>2019-07-08T14:04:10Z</time>
      </trkpt>
      <trkpt lat="42.5097560976" lon="19.9270966183">
        <ele>1830.97</ele>
        <time>2019-07-08T14:04:23Z</time>
      </trkpt>
      <trkpt lat="42.5098312832" lon="19.9272124562">
        <ele>1830.97</ele>
        <time>2019-07-08T14:04:35Z</time>
      </trkpt>
      <trkpt lat="42.5099617895" lon="19.9272780865">
        <ele>1830.97</ele>
        <time>2019-07-08T14:04:47Z</time>
      </trkpt>
      <trkpt lat="42.5101371389" lon="19.9272435531">
        <ele>1830.49</ele>
        <time>2019-07-08T14:05:02Z</time>
      </trkpt>
      <trkpt lat="42.5101548247" lon="19.9272421282">
        <ele>1830.49</ele>
        <time>2019-07-08T14:05:04Z</time>
      </trkpt>
      <trkpt lat="42.5101709180" lon="19.9272708781">
        <ele>1830.49</ele>
        <time>2019-07-08T14:05:10Z</time>
      </trkpt>
      <trkpt lat="42.5101596024" lon="19.9273565412">
        <ele>1831.93</ele>
        <time>2019-07-08T14:05:18Z</time>
      </trkpt>
      <trkpt lat="42.5101606920" lon="19.9274454731">
        <ele>1833.37</ele>
        <time>2019-07-08T14:05:32Z</time>
      </trkpt>
      <trkpt lat="42.5101593509" lon="19.9274472333">
        <ele>1833.37</ele>
        <time>2019-07-08T14:05:47Z</time>
      </trkpt>
      <trkpt lat="42.5101679005" lon="19.9274638295">
        <ele>1833.37</ele>
        <time>2019-07-08T14:06:09Z</time>
      </trkpt>
      <trkpt lat="42.5101744384" lon="19.9274583813">
        <ele>1833.37</ele>
        <time>2019-07-08T14:06:48Z</time>
      </trkpt>
      <trkpt lat="42.5101720914" lon="19.9274374265">
        <ele>1833.37</ele>
        <time>2019-07-08T14:07:09Z</time>
      </trkpt>
      <trkpt lat="42.5101559144" lon="19.9274510890">
        <ele>1833.37</ele>
        <time>2019-07-08T14:07:34Z</time>
      </trkpt>
      <trkpt lat="42.5101562496" lon="19.9274552800">
        <ele>1834.33</ele>
        <time>2019-07-08T14:08:07Z</time>
      </trkpt>
      <trkpt lat="42.5101533998" lon="19.9274865445">
        <ele>1834.33</ele>
        <time>2019-07-08T14:08:25Z</time>
      </trkpt>
      <trkpt lat="42.5101775397" lon="19.9275527615">
        <ele>1834.33</ele>
        <time>2019-07-08T14:08:31Z</time>
      </trkpt>
      <trkpt lat="42.5102766138" lon="19.9277816713">
        <ele>1834.33</ele>
        <time>2019-07-08T14:08:47Z</time>
      </trkpt>
      <trkpt lat="42.5102854148" lon="19.9278142769">
        <ele>1832.89</ele>
        <time>2019-07-08T14:08:49Z</time>
      </trkpt>
      <trkpt lat="42.5102947187" lon="19.9278600421">
        <ele>1832.41</ele>
        <time>2019-07-08T14:08:52Z</time>
      </trkpt>
      <trkpt lat="42.5102366321" lon="19.9280719366">
        <ele>1831.45</ele>
        <time>2019-07-08T14:09:07Z</time>
      </trkpt>
      <trkpt lat="42.5102050323" lon="19.9282295164">
        <ele>1829.53</ele>
        <time>2019-07-08T14:09:19Z</time>
      </trkpt>
      <trkpt lat="42.5102673937" lon="19.9284481164">
        <ele>1828.08</ele>
        <time>2019-07-08T14:09:33Z</time>
      </trkpt>
      <trkpt lat="42.5103413220" lon="19.9286189396">
        <ele>1827.12</ele>
        <time>2019-07-08T14:09:48Z</time>
      </trkpt>
      <trkpt lat="42.5103374664" lon="19.9286301713">
        <ele>1827.12</ele>
        <time>2019-07-08T14:10:04Z</time>
      </trkpt>
      <trkpt lat="42.5103858300" lon="19.9287818838">
        <ele>1826.16</ele>
        <time>2019-07-08T14:10:18Z</time>
      </trkpt>
      <trkpt lat="42.5104365405" lon="19.9288781080">
        <ele>1824.72</ele>
        <time>2019-07-08T14:10:24Z</time>
      </trkpt>
      <trkpt lat="42.5104432460" lon="19.9289801996">
        <ele>1824.72</ele>
        <time>2019-07-08T14:10:32Z</time>
      </trkpt>
      <trkpt lat="42.5104588363" lon="19.9290452432">
        <ele>1823.76</ele>
        <time>2019-07-08T14:10:42Z</time>
      </trkpt>
      <trkpt lat="42.5104402285" lon="19.9291303195">
        <ele>1823.28</ele>
        <time>2019-07-08T14:10:49Z</time>
      </trkpt>
      <trkpt lat="42.5104656257" lon="19.9293779209">
        <ele>1821.84</ele>
        <time>2019-07-08T14:11:04Z</time>
      </trkpt>
      <trkpt lat="42.5104899332" lon="19.9295054097">
        <ele>1821.84</ele>
        <time>2019-07-08T14:11:14Z</time>
      </trkpt>
      <trkpt lat="42.5105078705" lon="19.9295154680">
        <ele>1821.84</ele>
        <time>2019-07-08T14:11:16Z</time>
      </trkpt>
      <trkpt lat="42.5105402246" lon="19.9296459742">
        <ele>1821.84</ele>
        <time>2019-07-08T14:11:22Z</time>
      </trkpt>
      <trkpt lat="42.5105776079" lon="19.9296998698">
        <ele>1820.87</ele>
        <time>2019-07-08T14:11:26Z</time>
      </trkpt>
      <trkpt lat="42.5106125604" lon="19.9297769833">
        <ele>1819.91</ele>
        <time>2019-07-08T14:11:31Z</time>
      </trkpt>
      <trkpt lat="42.5106458366" lon="19.9300529994">
        <ele>1818.47</ele>
        <time>2019-07-08T14:11:46Z</time>
      </trkpt>
      <trkpt lat="42.5106413104" lon="19.9302918836">
        <ele>1817.03</ele>
        <time>2019-07-08T14:11:59Z</time>
      </trkpt>
      <trkpt lat="42.5106550567" lon="19.9305265769">
        <ele>1813.66</ele>
        <time>2019-07-08T14:12:14Z</time>
      </trkpt>
      <trkpt lat="42.5106596667" lon="19.9306841567">
        <ele>1813.18</ele>
        <time>2019-07-08T14:12:27Z</time>
      </trkpt>
      <trkpt lat="42.5106278993" lon="19.9308781978">
        <ele>1812.70</ele>
        <time>2019-07-08T14:12:36Z</time>
      </trkpt>
      <trkpt lat="42.5105460081" lon="19.9310669582">
        <ele>1812.70</ele>
        <time>2019-07-08T14:12:48Z</time>
      </trkpt>
      <trkpt lat="42.5104403961" lon="19.9312651064">
        <ele>1811.74</ele>
        <time>2019-07-08T14:13:02Z</time>
      </trkpt>
      <trkpt lat="42.5103641208" lon="19.9314448982">
        <ele>1810.78</ele>
        <time>2019-07-08T14:13:13Z</time>
      </trkpt>
      <trkpt lat="42.5103366282" lon="19.9316368438">
        <ele>1809.82</ele>
        <time>2019-07-08T14:13:25Z</time>
      </trkpt>
      <trkpt lat="42.5103482790" lon="19.9318375904">
        <ele>1808.38</ele>
        <time>2019-07-08T14:13:36Z</time>
      </trkpt>
      <trkpt lat="42.5102803018" lon="19.9320794083">
        <ele>1806.45</ele>
        <time>2019-07-08T14:13:49Z</time>
      </trkpt>
      <trkpt lat="42.5102655496" lon="19.9322100822">
        <ele>1805.01</ele>
        <time>2019-07-08T14:13:57Z</time>
      </trkpt>
      <trkpt lat="42.5102716684" lon="19.9322405923">
        <ele>1805.01</ele>
        <time>2019-07-08T14:13:59Z</time>
      </trkpt>
      <trkpt lat="42.5102822296" lon="19.9325005151">
        <ele>1802.13</ele>
        <time>2019-07-08T14:14:13Z</time>
      </trkpt>
      <trkpt lat="42.5102772843" lon="19.9325357191">
        <ele>1801.65</ele>
        <time>2019-07-08T14:14:15Z</time>
      </trkpt>
      <trkpt lat="42.5102136657" lon="19.9328020122">
        <ele>1800.21</ele>
        <time>2019-07-08T14:14:31Z</time>
      </trkpt>
      <trkpt lat="42.5102237239" lon="19.9330763519">
        <ele>1798.76</ele>
        <time>2019-07-08T14:14:47Z</time>
      </trkpt>
      <trkpt lat="42.5102291722" lon="19.9330934510">
        <ele>1798.76</ele>
        <time>2019-07-08T14:14:48Z</time>
      </trkpt>
      <trkpt lat="42.5102532282" lon="19.9331653677">
        <ele>1798.76</ele>
        <time>2019-07-08T14:14:53Z</time>
      </trkpt>
      <trkpt lat="42.5102553237" lon="19.9334081914">
        <ele>1800.21</ele>
        <time>2019-07-08T14:15:07Z</time>
      </trkpt>
      <trkpt lat="42.5102671422" lon="19.9334636796">
        <ele>1800.21</ele>
        <time>2019-07-08T14:15:23Z</time>
      </trkpt>
      <trkpt lat="42.5102830678" lon="19.9335082714">
        <ele>1800.21</ele>
        <time>2019-07-08T14:15:30Z</time>
      </trkpt>
      <trkpt lat="42.5103564095" lon="19.9336863030">
        <ele>1797.80</ele>
        <time>2019-07-08T14:15:44Z</time>
      </trkpt>
      <trkpt lat="42.5103594270" lon="19.9337021448">
        <ele>1797.32</ele>
        <time>2019-07-08T14:15:45Z</time>
      </trkpt>
      <trkpt lat="42.5103364605" lon="19.9339179788">
        <ele>1797.32</ele>
        <time>2019-07-08T14:15:59Z</time>
      </trkpt>
      <trkpt lat="42.5103269890" lon="19.9340361636">
        <ele>1797.32</ele>
        <time>2019-07-08T14:16:09Z</time>
      </trkpt>
      <trkpt lat="42.5103538111" lon="19.9342344794">
        <ele>1796.84</ele>
        <time>2019-07-08T14:16:23Z</time>
      </trkpt>
      <trkpt lat="42.5103666354" lon="19.9342680071">
        <ele>1796.84</ele>
        <time>2019-07-08T14:16:35Z</time>
      </trkpt>
      <trkpt lat="42.5104003306" lon="19.9342970084">
        <ele>1796.84</ele>
        <time>2019-07-08T14:16:49Z</time>
      </trkpt>
      <trkpt lat="42.5104253925" lon="19.9342889618">
        <ele>1798.28</ele>
        <time>2019-07-08T14:16:53Z</time>
      </trkpt>
      <trkpt lat="42.5103711616" lon="19.9342836812">
        <ele>1798.28</ele>
        <time>2019-07-08T14:17:05Z</time>
      </trkpt>
      <trkpt lat="42.5103481114" lon="19.9342866149">
        <ele>1796.84</ele>
        <time>2019-07-08T14:17:08Z</time>
      </trkpt>
      <trkpt lat="42.5103547331" lon="19.9343405943">
        <ele>1796.84</ele>
        <time>2019-07-08T14:17:22Z</time>
      </trkpt>
      <trkpt lat="42.5103538949" lon="19.9344825838">
        <ele>1795.40</ele>
        <time>2019-07-08T14:17:35Z</time>
      </trkpt>
      <trkpt lat="42.5103529729" lon="19.9344992638">
        <ele>1794.92</ele>
        <time>2019-07-08T14:17:38Z</time>
      </trkpt>
      <trkpt lat="42.5103641208" lon="19.9346582685">
        <ele>1793.00</ele>
        <time>2019-07-08T14:17:49Z</time>
      </trkpt>
      <trkpt lat="42.5103880093" lon="19.9346976634">
        <ele>1792.52</ele>
        <time>2019-07-08T14:17:53Z</time>
      </trkpt>
      <trkpt lat="42.5104193576" lon="19.9348247331">
        <ele>1791.55</ele>
        <time>2019-07-08T14:18:04Z</time>
      </trkpt>
      <trkpt lat="42.5104294159" lon="19.9350464344">
        <ele>1791.55</ele>
        <time>2019-07-08T14:18:20Z</time>
      </trkpt>
      <trkpt lat="42.5104709063" lon="19.9352272321">
        <ele>1791.55</ele>
        <time>2019-07-08T14:18:34Z</time>
      </trkpt>
      <trkpt lat="42.5104783662" lon="19.9353224505">
        <ele>1793.00</ele>
        <time>2019-07-08T14:18:41Z</time>
      </trkpt>
      <trkpt lat="42.5104495324" lon="19.9354569800">
        <ele>1793.96</ele>
        <time>2019-07-08T14:18:51Z</time>
      </trkpt>
      <trkpt lat="42.5104631949" lon="19.9356276356">
        <ele>1795.40</ele>
        <time>2019-07-08T14:19:04Z</time>
      </trkpt>
      <trkpt lat="42.5104158372" lon="19.9357734807">
        <ele>1795.40</ele>
        <time>2019-07-08T14:19:19Z</time>
      </trkpt>
      <trkpt lat="42.5104410667" lon="19.9358556233">
        <ele>1795.88</ele>
        <time>2019-07-08T14:19:29Z</time>
      </trkpt>
      <trkpt lat="42.5104512088" lon="19.9360034801">
        <ele>1795.88</ele>
        <time>2019-07-08T14:19:40Z</time>
      </trkpt>
      <trkpt lat="42.5104606804" lon="19.9360817671">
        <ele>1796.36</ele>
        <time>2019-07-08T14:19:48Z</time>
      </trkpt>
      <trkpt lat="42.5104536396" lon="19.9361782428">
        <ele>1796.84</ele>
        <time>2019-07-08T14:20:00Z</time>
      </trkpt>
      <trkpt lat="42.5104590040" lon="19.9361944199">
        <ele>1796.84</ele>
        <time>2019-07-08T14:20:17Z</time>
      </trkpt>
      <trkpt lat="42.5104538072" lon="19.9361950904">
        <ele>1796.84</ele>
        <time>2019-07-08T14:20:45Z</time>
      </trkpt>
      <trkpt lat="42.5104449224" lon="19.9361826014">
        <ele>1796.84</ele>
        <time>2019-07-08T14:21:13Z</time>
      </trkpt>
      <trkpt lat="42.5104584172" lon="19.9361755606">
        <ele>1796.84</ele>
        <time>2019-07-08T14:21:37Z</time>
      </trkpt>
      <trkpt lat="42.5104384683" lon="19.9361496605">
        <ele>1796.84</ele>
        <time>2019-07-08T14:22:03Z</time>
      </trkpt>
      <trkpt lat="42.5104606804" lon="19.9361709505">
        <ele>1796.84</ele>
        <time>2019-07-08T14:22:31Z</time>
      </trkpt>
      <trkpt lat="42.5104392227" lon="19.9361799192">
        <ele>1796.84</ele>
        <time>2019-07-08T14:22:52Z</time>
      </trkpt>
      <trkpt lat="42.5104315113" lon="19.9362359103">
        <ele>1796.84</ele>
        <time>2019-07-08T14:22:56Z</time>
      </trkpt>
      <trkpt lat="42.5104473531" lon="19.9363976810">
        <ele>1796.84</ele>
        <time>2019-07-08T14:23:06Z</time>
      </trkpt>
      <trkpt lat="42.5104599260" lon="19.9364586174">
        <ele>1796.84</ele>
        <time>2019-07-08T14:23:10Z</time>
      </trkpt>
      <trkpt lat="42.5104815513" lon="19.9366753735">
        <ele>1796.84</ele>
        <time>2019-07-08T14:23:25Z</time>
      </trkpt>
      <trkpt lat="42.5104925316" lon="19.9368399102">
        <ele>1797.80</ele>
        <time>2019-07-08T14:23:40Z</time>
      </trkpt>
      <trkpt lat="42.5104857422" lon="19.9368666485">
        <ele>1797.80</ele>
        <time>2019-07-08T14:23:42Z</time>
      </trkpt>
      <trkpt lat="42.5105060264" lon="19.9370601866">
        <ele>1797.80</ele>
        <time>2019-07-08T14:23:59Z</time>
      </trkpt>
      <trkpt lat="42.5104831439" lon="19.9371107295">
        <ele>1797.80</ele>
        <time>2019-07-08T14:24:14Z</time>
      </trkpt>
      <trkpt lat="42.5104851555" lon="19.9370897748">
        <ele>1797.80</ele>
        <time>2019-07-08T14:24:31Z</time>
      </trkpt>
      <trkpt lat="42.5104858261" lon="19.9370980728">
        <ele>1797.80</ele>
        <time>2019-07-08T14:25:07Z</time>
      </trkpt>
      <trkpt lat="42.5104907714" lon="19.9371064547">
        <ele>1797.80</ele>
        <time>2019-07-08T14:25:30Z</time>
      </trkpt>
      <trkpt lat="42.5105063617" lon="19.9371138308">
        <ele>1797.80</ele>
        <time>2019-07-08T14:25:54Z</time>
      </trkpt>
      <trkpt lat="42.5105206110" lon="19.9371131603">
        <ele>1797.80</ele>
        <time>2019-07-08T14:26:10Z</time>
      </trkpt>
      <trkpt lat="42.5106464233" lon="19.9371694028">
        <ele>1798.76</ele>
        <time>2019-07-08T14:26:26Z</time>
      </trkpt>
      <trkpt lat="42.5106768496" lon="19.9371952191">
        <ele>1800.21</ele>
        <time>2019-07-08T14:26:37Z</time>
      </trkpt>
      <trkpt lat="42.5106921885" lon="19.9372429121">
        <ele>1800.21</ele>
        <time>2019-07-08T14:26:49Z</time>
      </trkpt>
      <trkpt lat="42.5107405521" lon="19.9373013340">
        <ele>1801.17</ele>
        <time>2019-07-08T14:27:04Z</time>
      </trkpt>
      <trkpt lat="42.5107627641" lon="19.9374195188">
        <ele>1802.13</ele>
        <time>2019-07-08T14:27:14Z</time>
      </trkpt>
      <trkpt lat="42.5107910112" lon="19.9375652801">
        <ele>1803.57</ele>
        <time>2019-07-08T14:27:27Z</time>
      </trkpt>
      <trkpt lat="42.5108248740" lon="19.9376340955">
        <ele>1805.49</ele>
        <time>2019-07-08T14:27:40Z</time>
      </trkpt>
      <trkpt lat="42.5108454097" lon="19.9377568066">
        <ele>1806.45</ele>
        <time>2019-07-08T14:27:52Z</time>
      </trkpt>
      <trkpt lat="42.5108563900" lon="19.9377744086">
        <ele>1806.45</ele>
        <time>2019-07-08T14:27:54Z</time>
      </trkpt>
      <trkpt lat="42.5109563023" lon="19.9377625901">
        <ele>1810.30</ele>
        <time>2019-07-08T14:28:08Z</time>
      </trkpt>
      <trkpt lat="42.5110046659" lon="19.9377620034">
        <ele>1812.70</ele>
        <time>2019-07-08T14:28:19Z</time>
      </trkpt>
      <trkpt lat="42.5109889917" lon="19.9377975427">
        <ele>1812.70</ele>
        <time>2019-07-08T14:28:22Z</time>
      </trkpt>
      <trkpt lat="42.5109039992" lon="19.9379294738">
        <ele>1813.18</ele>
        <time>2019-07-08T14:28:34Z</time>
      </trkpt>
      <trkpt lat="42.5108859781" lon="19.9380223453">
        <ele>1813.66</ele>
        <time>2019-07-08T14:28:41Z</time>
      </trkpt>
      <trkpt lat="42.5109182484" lon="19.9381687772">
        <ele>1815.11</ele>
        <time>2019-07-08T14:28:55Z</time>
      </trkpt>
      <trkpt lat="42.5109267980" lon="19.9382053223">
        <ele>1815.11</ele>
        <time>2019-07-08T14:28:59Z</time>
      </trkpt>
      <trkpt lat="42.5109190028" lon="19.9382774066">
        <ele>1815.11</ele>
        <time>2019-07-08T14:29:04Z</time>
      </trkpt>
      <trkpt lat="42.5109363534" lon="19.9383675959">
        <ele>1815.11</ele>
        <time>2019-07-08T14:29:11Z</time>
      </trkpt>
      <trkpt lat="42.5109270494" lon="19.9385256786">
        <ele>1817.03</ele>
        <time>2019-07-08T14:29:26Z</time>
      </trkpt>
      <trkpt lat="42.5109624211" lon="19.9386443663">
        <ele>1815.59</ele>
        <time>2019-07-08T14:29:40Z</time>
      </trkpt>
      <trkpt lat="42.5109639298" lon="19.9386447854">
        <ele>1815.59</ele>
        <time>2019-07-08T14:29:43Z</time>
      </trkpt>
      <trkpt lat="42.5109050889" lon="19.9388439395">
        <ele>1812.70</ele>
        <time>2019-07-08T14:29:56Z</time>
      </trkpt>
      <trkpt lat="42.5108548813" lon="19.9389855098">
        <ele>1811.26</ele>
        <time>2019-07-08T14:30:06Z</time>
      </trkpt>
      <trkpt lat="42.5108642690" lon="19.9391124956">
        <ele>1809.82</ele>
        <time>2019-07-08T14:30:24Z</time>
      </trkpt>
      <trkpt lat="42.5108651072" lon="19.9391174410">
        <ele>1809.82</ele>
        <time>2019-07-08T14:30:39Z</time>
      </trkpt>
      <trkpt lat="42.5109137222" lon="19.9391816463">
        <ele>1809.82</ele>
        <time>2019-07-08T14:30:54Z</time>
      </trkpt>
      <trkpt lat="42.5109237805" lon="19.9392231368">
        <ele>1809.82</ele>
        <time>2019-07-08T14:31:10Z</time>
      </trkpt>
      <trkpt lat="42.5109416340" lon="19.9393157568">
        <ele>1810.78</ele>
        <time>2019-07-08T14:31:18Z</time>
      </trkpt>
      <trkpt lat="42.5109905005" lon="19.9394678045">
        <ele>1812.22</ele>
        <time>2019-07-08T14:31:31Z</time>
      </trkpt>
      <trkpt lat="42.5110058393" lon="19.9395228736">
        <ele>1812.22</ele>
        <time>2019-07-08T14:31:35Z</time>
      </trkpt>
      <trkpt lat="42.5110841263" lon="19.9396424834">
        <ele>1815.11</ele>
        <time>2019-07-08T14:31:49Z</time>
      </trkpt>
      <trkpt lat="42.5111803506" lon="19.9397184234">
        <ele>1817.03</ele>
        <time>2019-07-08T14:32:02Z</time>
      </trkpt>
      <trkpt lat="42.5112345815" lon="19.9398211855">
        <ele>1818.47</ele>
        <time>2019-07-08T14:32:14Z</time>
      </trkpt>
      <trkpt lat="42.5113590527" lon="19.9397951178">
        <ele>1819.91</ele>
        <time>2019-07-08T14:32:29Z</time>
      </trkpt>
      <trkpt lat="42.5113936700" lon="19.9397879932">
        <ele>1819.91</ele>
        <time>2019-07-08T14:32:32Z</time>
      </trkpt>
      <trkpt lat="42.5114668440" lon="19.9397439044">
        <ele>1821.84</ele>
        <time>2019-07-08T14:32:42Z</time>
      </trkpt>
      <trkpt lat="42.5116276089" lon="19.9397380371">
        <ele>1822.32</ele>
        <time>2019-07-08T14:32:54Z</time>
      </trkpt>
      <trkpt lat="42.5117650721" lon="19.9397445749">
        <ele>1824.24</ele>
        <time>2019-07-08T14:33:08Z</time>
      </trkpt>
      <trkpt lat="42.5119003560" lon="19.9397515319">
        <ele>1824.72</ele>
        <time>2019-07-08T14:33:21Z</time>
      </trkpt>
      <trkpt lat="42.5120481290" lon="19.9396973010">
        <ele>1824.72</ele>
        <time>2019-07-08T14:33:34Z</time>
      </trkpt>
      <trkpt lat="42.5121202972" lon="19.9396273121">
        <ele>1825.20</ele>
        <time>2019-07-08T14:33:41Z</time>
      </trkpt>
      <trkpt lat="42.5121902861" lon="19.9395556469">
        <ele>1823.76</ele>
        <time>2019-07-08T14:33:48Z</time>
      </trkpt>
      <trkpt lat="42.5122802239" lon="19.9395009130">
        <ele>1820.87</ele>
        <time>2019-07-08T14:33:58Z</time>
      </trkpt>
      <trkpt lat="42.5123640429" lon="19.9394738395">
        <ele>1818.47</ele>
        <time>2019-07-08T14:34:06Z</time>
      </trkpt>
      <trkpt lat="42.5124056172" lon="19.9394446705">
        <ele>1817.03</ele>
        <time>2019-07-08T14:34:11Z</time>
      </trkpt>
      <trkpt lat="42.5124290027" lon="19.9394533038">
        <ele>1816.55</ele>
        <time>2019-07-08T14:34:13Z</time>
      </trkpt>
      <trkpt lat="42.5124760251" lon="19.9394526333">
        <ele>1815.59</ele>
        <time>2019-07-08T14:34:17Z</time>
      </trkpt>
      <trkpt lat="42.5126092136" lon="19.9394702353">
        <ele>1812.70</ele>
        <time>2019-07-08T14:34:28Z</time>
      </trkpt>
      <trkpt lat="42.5126695633" lon="19.9394758511">
        <ele>1811.74</ele>
        <time>2019-07-08T14:34:34Z</time>
      </trkpt>
      <trkpt lat="42.5127441622" lon="19.9394486938">
        <ele>1810.30</ele>
        <time>2019-07-08T14:34:39Z</time>
      </trkpt>
      <trkpt lat="42.5127926935" lon="19.9394709058">
        <ele>1809.82</ele>
        <time>2019-07-08T14:34:43Z</time>
      </trkpt>
      <trkpt lat="42.5128277298" lon="19.9394864962">
        <ele>1808.86</ele>
        <time>2019-07-08T14:34:46Z</time>
      </trkpt>
      <trkpt lat="42.5129352696" lon="19.9394782819">
        <ele>1805.49</ele>
        <time>2019-07-08T14:34:56Z</time>
      </trkpt>
      <trkpt lat="42.5130323321" lon="19.9394806288">
        <ele>1803.57</ele>
        <time>2019-07-08T14:35:09Z</time>
      </trkpt>
      <trkpt lat="42.5130596571" lon="19.9395636097">
        <ele>1805.01</ele>
        <time>2019-07-08T14:35:19Z</time>
      </trkpt>
      <trkpt lat="42.5130918436" lon="19.9396853149">
        <ele>1805.97</ele>
        <time>2019-07-08T14:35:33Z</time>
      </trkpt>
      <trkpt lat="42.5130807795" lon="19.9398341775">
        <ele>1807.42</ele>
        <time>2019-07-08T14:35:46Z</time>
      </trkpt>
      <trkpt lat="42.5130724814" lon="19.9398660287">
        <ele>1807.42</ele>
        <time>2019-07-08T14:35:50Z</time>
      </trkpt>
      <trkpt lat="42.5131324120" lon="19.9400421325">
        <ele>1805.97</ele>
        <time>2019-07-08T14:36:04Z</time>
      </trkpt>
      <trkpt lat="42.5131185818" lon="19.9400990456">
        <ele>1807.42</ele>
        <time>2019-07-08T14:36:17Z</time>
      </trkpt>
      <trkpt lat="42.5131362677" lon="19.9402168114">
        <ele>1808.86</ele>
        <time>2019-07-08T14:36:28Z</time>
      </trkpt>
      <trkpt lat="42.5131305680" lon="19.9402806815">
        <ele>1808.86</ele>
        <time>2019-07-08T14:36:32Z</time>
      </trkpt>
      <trkpt lat="42.5131115410" lon="19.9404981080">
        <ele>1807.42</ele>
        <time>2019-07-08T14:36:46Z</time>
      </trkpt>
      <trkpt lat="42.5131417997" lon="19.9406854436">
        <ele>1806.45</ele>
        <time>2019-07-08T14:36:59Z</time>
      </trkpt>
      <trkpt lat="42.5131735671" lon="19.9408680853">
        <ele>1803.57</ele>
        <time>2019-07-08T14:37:11Z</time>
      </trkpt>
      <trkpt lat="42.5132570509" lon="19.9410507269">
        <ele>1801.17</ele>
        <time>2019-07-08T14:37:25Z</time>
      </trkpt>
      <trkpt lat="42.5133286323" lon="19.9411763716">
        <ele>1797.80</ele>
        <time>2019-07-08T14:37:38Z</time>
      </trkpt>
      <trkpt lat="42.5133861322" lon="19.9412402418">
        <ele>1796.36</ele>
        <time>2019-07-08T14:37:44Z</time>
      </trkpt>
      <trkpt lat="42.5134210847" lon="19.9412919581">
        <ele>1795.40</ele>
        <time>2019-07-08T14:37:48Z</time>
      </trkpt>
      <trkpt lat="42.5135299657" lon="19.9414468557">
        <ele>1792.03</ele>
        <time>2019-07-08T14:38:02Z</time>
      </trkpt>
      <trkpt lat="42.5136104319" lon="19.9415978137">
        <ele>1790.11</ele>
        <time>2019-07-08T14:38:17Z</time>
      </trkpt>
      <trkpt lat="42.5136732124" lon="19.9416396394">
        <ele>1787.71</ele>
        <time>2019-07-08T14:38:32Z</time>
      </trkpt>
      <trkpt lat="42.5137463864" lon="19.9417592492">
        <ele>1787.71</ele>
        <time>2019-07-08T14:38:45Z</time>
      </trkpt>
      <trkpt lat="42.5137549359" lon="19.9418671243">
        <ele>1785.79</ele>
        <time>2019-07-08T14:38:53Z</time>
      </trkpt>
      <trkpt lat="42.5137735438" lon="19.9418791104">
        <ele>1784.82</ele>
        <time>2019-07-08T14:38:55Z</time>
      </trkpt>
      <trkpt lat="42.5137652457" lon="19.9419729039">
        <ele>1784.34</ele>
        <time>2019-07-08T14:39:06Z</time>
      </trkpt>
      <trkpt lat="42.5137220789" lon="19.9420300685">
        <ele>1785.79</ele>
        <time>2019-07-08T14:39:13Z</time>
      </trkpt>
      <trkpt lat="42.5137027167" lon="19.9420696311">
        <ele>1786.27</ele>
        <time>2019-07-08T14:39:17Z</time>
      </trkpt>
      <trkpt lat="42.5136376731" lon="19.9421702977">
        <ele>1784.34</ele>
        <time>2019-07-08T14:39:28Z</time>
      </trkpt>
      <trkpt lat="42.5136234239" lon="19.9422735628">
        <ele>1784.34</ele>
        <time>2019-07-08T14:39:36Z</time>
      </trkpt>
      <trkpt lat="42.5135608111" lon="19.9425111059">
        <ele>1783.86</ele>
        <time>2019-07-08T14:39:52Z</time>
      </trkpt>
      <trkpt lat="42.5135517586" lon="19.9425341561">
        <ele>1785.31</ele>
        <time>2019-07-08T14:39:54Z</time>
      </trkpt>
      <trkpt lat="42.5134935882" lon="19.9427427817">
        <ele>1785.31</ele>
        <time>2019-07-08T14:40:08Z</time>
      </trkpt>
      <trkpt lat="42.5134816859" lon="19.9427753035">
        <ele>1783.86</ele>
        <time>2019-07-08T14:40:11Z</time>
      </trkpt>
      <trkpt lat="42.5133976154" lon="19.9430114217">
        <ele>1780.98</ele>
        <time>2019-07-08T14:40:27Z</time>
      </trkpt>
      <trkpt lat="42.5133941788" lon="19.9430235755">
        <ele>1780.50</ele>
        <time>2019-07-08T14:40:28Z</time>
      </trkpt>
      <trkpt lat="42.5133488327" lon="19.9431872740">
        <ele>1778.10</ele>
        <time>2019-07-08T14:40:40Z</time>
      </trkpt>
      <trkpt lat="42.5133152213" lon="19.9433797225">
        <ele>1776.17</ele>
        <time>2019-07-08T14:40:55Z</time>
      </trkpt>
      <trkpt lat="42.5133273751" lon="19.9434452690">
        <ele>1775.21</ele>
        <time>2019-07-08T14:41:11Z</time>
      </trkpt>
      <trkpt lat="42.5133163109" lon="19.9436043575">
        <ele>1774.25</ele>
        <time>2019-07-08T14:41:24Z</time>
      </trkpt>
      <trkpt lat="42.5133127905" lon="19.9437296670">
        <ele>1774.25</ele>
        <time>2019-07-08T14:41:36Z</time>
      </trkpt>
      <trkpt lat="42.5133170653" lon="19.9438971374">
        <ele>1773.29</ele>
        <time>2019-07-08T14:41:51Z</time>
      </trkpt>
      <trkpt lat="42.5133211724" lon="19.9440527894">
        <ele>1773.29</ele>
        <time>2019-07-08T14:42:05Z</time>
      </trkpt>
      <trkpt lat="42.5132960267" lon="19.9442265462">
        <ele>1772.81</ele>
        <time>2019-07-08T14:42:21Z</time>
      </trkpt>
      <trkpt lat="42.5132674444" lon="19.9443526100">
        <ele>1772.81</ele>
        <time>2019-07-08T14:42:36Z</time>
      </trkpt>
      <trkpt lat="42.5132760778" lon="19.9443356786">
        <ele>1772.81</ele>
        <time>2019-07-08T14:42:53Z</time>
      </trkpt>
      <trkpt lat="42.5132715516" lon="19.9443623330">
        <ele>1772.33</ele>
        <time>2019-07-08T14:43:23Z</time>
      </trkpt>
      <trkpt lat="42.5132550392" lon="19.9443811085">
        <ele>1772.33</ele>
        <time>2019-07-08T14:43:44Z</time>
      </trkpt>
      <trkpt lat="42.5132630020" lon="19.9443550408">
        <ele>1773.29</ele>
        <time>2019-07-08T14:44:16Z</time>
      </trkpt>
      <trkpt lat="42.5133031514" lon="19.9443588965">
        <ele>1773.77</ele>
        <time>2019-07-08T14:44:30Z</time>
      </trkpt>
      <trkpt lat="42.5133862160" lon="19.9443652667">
        <ele>1775.69</ele>
        <time>2019-07-08T14:44:42Z</time>
      </trkpt>
      <trkpt lat="42.5134630781" lon="19.9444198329">
        <ele>1777.13</ele>
        <time>2019-07-08T14:44:55Z</time>
      </trkpt>
      <trkpt lat="42.5134842005" lon="19.9444515165">
        <ele>1778.58</ele>
        <time>2019-07-08T14:45:10Z</time>
      </trkpt>
      <trkpt lat="42.5134988688" lon="19.9444899894">
        <ele>1777.61</ele>
        <time>2019-07-08T14:45:26Z</time>
      </trkpt>
      <trkpt lat="42.5135133695" lon="19.9445048254">
        <ele>1777.61</ele>
        <time>2019-07-08T14:45:28Z</time>
      </trkpt>
      <trkpt lat="42.5135459751" lon="19.9445823580">
        <ele>1776.65</ele>
        <time>2019-07-08T14:45:42Z</time>
      </trkpt>
      <trkpt lat="42.5134801771" lon="19.9446321465">
        <ele>1777.61</ele>
        <time>2019-07-08T14:45:52Z</time>
      </trkpt>
      <trkpt lat="42.5134041533" lon="19.9446763191">
        <ele>1779.06</ele>
        <time>2019-07-08T14:46:01Z</time>
      </trkpt>
      <trkpt lat="42.5133096054" lon="19.9447806738">
        <ele>1780.02</ele>
        <time>2019-07-08T14:46:13Z</time>
      </trkpt>
      <trkpt lat="42.5132977869" lon="19.9448111840">
        <ele>1780.02</ele>
        <time>2019-07-08T14:46:15Z</time>
      </trkpt>
      <trkpt lat="42.5132861361" lon="19.9448932428">
        <ele>1779.54</ele>
        <time>2019-07-08T14:46:22Z</time>
      </trkpt>
      <trkpt lat="42.5132454000" lon="19.9449307099">
        <ele>1778.10</ele>
        <time>2019-07-08T14:46:26Z</time>
      </trkpt>
      <trkpt lat="42.5130986329" lon="19.9450361542">
        <ele>1775.21</ele>
        <time>2019-07-08T14:46:44Z</time>
      </trkpt>
      <trkpt lat="42.5130202621" lon="19.9451017007">
        <ele>1773.77</ele>
        <time>2019-07-08T14:46:57Z</time>
      </trkpt>
      <trkpt lat="42.5128761772" lon="19.9451747071">
        <ele>1771.85</ele>
        <time>2019-07-08T14:47:11Z</time>
      </trkpt>
      <trkpt lat="42.5127341878" lon="19.9452638905">
        <ele>1771.37</ele>
        <time>2019-07-08T14:47:24Z</time>
      </trkpt>
      <trkpt lat="42.5125947129" lon="19.9453438539">
        <ele>1770.89</ele>
        <time>2019-07-08T14:47:37Z</time>
      </trkpt>
      <trkpt lat="42.5125179347" lon="19.9454192072">
        <ele>1769.44</ele>
        <time>2019-07-08T14:47:46Z</time>
      </trkpt>
      <trkpt lat="42.5124410726" lon="19.9455480371">
        <ele>1768.96</ele>
        <time>2019-07-08T14:47:59Z</time>
      </trkpt>
      <trkpt lat="42.5123386458" lon="19.9456539843">
        <ele>1768.96</ele>
        <time>2019-07-08T14:48:10Z</time>
      </trkpt>
      <trkpt lat="42.5123307668" lon="19.9456617795">
        <ele>1768.96</ele>
        <time>2019-07-08T14:48:11Z</time>
      </trkpt>
      <trkpt lat="42.5122414995" lon="19.9457137473">
        <ele>1768.00</ele>
        <time>2019-07-08T14:48:18Z</time>
      </trkpt>
      <trkpt lat="42.5121409167" lon="19.9457375519">
        <ele>1767.04</ele>
        <time>2019-07-08T14:48:25Z</time>
      </trkpt>
      <trkpt lat="42.5120836683" lon="19.9457858317">
        <ele>1766.56</ele>
        <time>2019-07-08T14:48:33Z</time>
      </trkpt>
      <trkpt lat="42.5120253302" lon="19.9458164256">
        <ele>1766.56</ele>
        <time>2019-07-08T14:48:38Z</time>
      </trkpt>
      <trkpt lat="42.5119301118" lon="19.9459268991">
        <ele>1766.08</ele>
        <time>2019-07-08T14:48:52Z</time>
      </trkpt>
      <trkpt lat="42.5118658226" lon="19.9459902663">
        <ele>1765.12</ele>
        <time>2019-07-08T14:49:06Z</time>
      </trkpt>
      <trkpt lat="42.5118109211" lon="19.9460420664">
        <ele>1765.12</ele>
        <time>2019-07-08T14:49:21Z</time>
      </trkpt>
      <trkpt lat="42.5117819197" lon="19.9460589979">
        <ele>1765.60</ele>
        <time>2019-07-08T14:49:45Z</time>
      </trkpt>
      <trkpt lat="42.5117711071" lon="19.9461051822">
        <ele>1765.60</ele>
        <time>2019-07-08T14:50:06Z</time>
      </trkpt>
      <trkpt lat="42.5117216539" lon="19.9461591616">
        <ele>1765.12</ele>
        <time>2019-07-08T14:50:21Z</time>
      </trkpt>
      <trkpt lat="42.5117028784" lon="19.9461938627">
        <ele>1765.12</ele>
        <time>2019-07-08T14:50:29Z</time>
      </trkpt>
      <trkpt lat="42.5116928201" lon="19.9462926853">
        <ele>1764.64</ele>
        <time>2019-07-08T14:50:44Z</time>
      </trkpt>
      <trkpt lat="42.5116696022" lon="19.9463076051">
        <ele>1764.64</ele>
        <time>2019-07-08T14:51:01Z</time>
      </trkpt>
      <trkpt lat="42.5116696861" lon="19.9463186692">
        <ele>1764.64</ele>
        <time>2019-07-08T14:51:19Z</time>
      </trkpt>
      <trkpt lat="42.5116322190" lon="19.9463803601">
        <ele>1764.64</ele>
        <time>2019-07-08T14:51:44Z</time>
      </trkpt>
      <trkpt lat="42.5116646569" lon="19.9463605788">
        <ele>1766.08</ele>
        <time>2019-07-08T14:52:00Z</time>
      </trkpt>
      <trkpt lat="42.5116365775" lon="19.9464231916">
        <ele>1766.08</ele>
        <time>2019-07-08T14:52:15Z</time>
      </trkpt>
      <trkpt lat="42.5116255973" lon="19.9465035740">
        <ele>1766.08</ele>
        <time>2019-07-08T14:52:28Z</time>
      </trkpt>
      <trkpt lat="42.5116750505" lon="19.9466053303">
        <ele>1766.56</ele>
        <time>2019-07-08T14:52:43Z</time>
      </trkpt>
      <trkpt lat="42.5117136911" lon="19.9466672726">
        <ele>1767.04</ele>
        <time>2019-07-08T14:53:00Z</time>
      </trkpt>
      <trkpt lat="42.5117319636" lon="19.9467632454">
        <ele>1768.00</ele>
        <time>2019-07-08T14:53:15Z</time>
      </trkpt>
      <trkpt lat="42.5117055606" lon="19.9468085915">
        <ele>1768.48</ele>
        <time>2019-07-08T14:53:31Z</time>
      </trkpt>
      <trkpt lat="42.5116702728" lon="19.9468457233">
        <ele>1767.04</ele>
        <time>2019-07-08T14:53:47Z</time>
      </trkpt>
      <trkpt lat="42.5116357394" lon="19.9469539337">
        <ele>1764.64</ele>
        <time>2019-07-08T14:54:01Z</time>
      </trkpt>
      <trkpt lat="42.5116558559" lon="19.9470450450">
        <ele>1763.20</ele>
        <time>2019-07-08T14:54:19Z</time>
      </trkpt>
      <trkpt lat="42.5116009545" lon="19.9470734596">
        <ele>1763.20</ele>
        <time>2019-07-08T14:54:32Z</time>
      </trkpt>
      <trkpt lat="42.5115324743" lon="19.9471364915">
        <ele>1761.27</ele>
        <time>2019-07-08T14:54:46Z</time>
      </trkpt>
      <trkpt lat="42.5114853680" lon="19.9471117649">
        <ele>1758.39</ele>
        <time>2019-07-08T14:54:59Z</time>
      </trkpt>
      <trkpt lat="42.5114196539" lon="19.9470973480">
        <ele>1755.02</ele>
        <time>2019-07-08T14:55:10Z</time>
      </trkpt>
      <trkpt lat="42.5113891438" lon="19.9470470566">
        <ele>1753.58</ele>
        <time>2019-07-08T14:55:22Z</time>
      </trkpt>
      <trkpt lat="42.5113502517" lon="19.9470438715">
        <ele>1752.14</ele>
        <time>2019-07-08T14:55:33Z</time>
      </trkpt>
      <trkpt lat="42.5113257766" lon="19.9470676761">
        <ele>1752.14</ele>
        <time>2019-07-08T14:55:55Z</time>
      </trkpt>
      <trkpt lat="42.5112831965" lon="19.9470095895">
        <ele>1752.62</ele>
        <time>2019-07-08T14:56:19Z</time>
      </trkpt>
      <trkpt lat="42.5112692825" lon="19.9471077416">
        <ele>1750.70</ele>
        <time>2019-07-08T14:56:35Z</time>
      </trkpt>
      <trkpt lat="42.5112781674" lon="19.9471685942">
        <ele>1750.70</ele>
        <time>2019-07-08T14:56:48Z</time>
      </trkpt>
      <trkpt lat="42.5112686120" lon="19.9471631460">
        <ele>1751.66</ele>
        <time>2019-07-08T14:56:50Z</time>
      </trkpt>
      <trkpt lat="42.5112002995" lon="19.9471403472">
        <ele>1753.10</ele>
        <time>2019-07-08T14:57:02Z</time>
      </trkpt>
      <trkpt lat="42.5111350045" lon="19.9471370783">
        <ele>1753.58</ele>
        <time>2019-07-08T14:57:10Z</time>
      </trkpt>
      <trkpt lat="42.5110439770" lon="19.9471607991">
        <ele>1754.06</ele>
        <time>2019-07-08T14:57:20Z</time>
      </trkpt>
      <trkpt lat="42.5108659454" lon="19.9471112620">
        <ele>1754.06</ele>
        <time>2019-07-08T14:57:35Z</time>
      </trkpt>
      <trkpt lat="42.5108038355" lon="19.9471089151">
        <ele>1754.06</ele>
        <time>2019-07-08T14:57:40Z</time>
      </trkpt>
      <trkpt lat="42.5106776878" lon="19.9471012875">
        <ele>1754.06</ele>
        <time>2019-07-08T14:57:54Z</time>
      </trkpt>
      <trkpt lat="42.5106525421" lon="19.9470950849">
        <ele>1752.62</ele>
        <time>2019-07-08T14:57:56Z</time>
      </trkpt>
      <trkpt lat="42.5105399732" lon="19.9470999464">
        <ele>1750.70</ele>
        <time>2019-07-08T14:58:09Z</time>
      </trkpt>
      <trkpt lat="42.5105031766" lon="19.9471618049">
        <ele>1748.29</ele>
        <time>2019-07-08T14:58:20Z</time>
      </trkpt>
      <trkpt lat="42.5104080420" lon="19.9471115973">
        <ele>1747.33</ele>
        <time>2019-07-08T14:58:33Z</time>
      </trkpt>
      <trkpt lat="42.5103725027" lon="19.9470884632">
        <ele>1748.78</ele>
        <time>2019-07-08T14:58:39Z</time>
      </trkpt>
      <trkpt lat="42.5103149191" lon="19.9470507447">
        <ele>1749.74</ele>
        <time>2019-07-08T14:58:50Z</time>
      </trkpt>
      <trkpt lat="42.5101881847" lon="19.9470257666">
        <ele>1749.74</ele>
        <time>2019-07-08T14:59:02Z</time>
      </trkpt>
      <trkpt lat="42.5101684872" lon="19.9470349029">
        <ele>1749.74</ele>
        <time>2019-07-08T14:59:04Z</time>
      </trkpt>
      <trkpt lat="42.5100063812" lon="19.9471321329">
        <ele>1748.78</ele>
        <time>2019-07-08T14:59:18Z</time>
      </trkpt>
      <trkpt lat="42.5099955685" lon="19.9471333902">
        <ele>1748.78</ele>
        <time>2019-07-08T14:59:19Z</time>
      </trkpt>
      <trkpt lat="42.5098769646" lon="19.9471527524">
        <ele>1748.78</ele>
        <time>2019-07-08T14:59:29Z</time>
      </trkpt>
      <trkpt lat="42.5096913893" lon="19.9471494835">
        <ele>1746.37</ele>
        <time>2019-07-08T14:59:43Z</time>
      </trkpt>
      <trkpt lat="42.5095311273" lon="19.9472319614">
        <ele>1744.93</ele>
        <time>2019-07-08T14:59:57Z</time>
      </trkpt>
      <trkpt lat="42.5094644912" lon="19.9473482184">
        <ele>1744.93</ele>
        <time>2019-07-08T15:00:09Z</time>
      </trkpt>
      <trkpt lat="42.5094554387" lon="19.9473761301">
        <ele>1746.37</ele>
        <time>2019-07-08T15:00:12Z</time>
      </trkpt>
      <trkpt lat="42.5093593821" lon="19.9474997632">
        <ele>1746.37</ele>
        <time>2019-07-08T15:00:24Z</time>
      </trkpt>
      <trkpt lat="42.5093407743" lon="19.9475160241">
        <ele>1746.37</ele>
        <time>2019-07-08T15:00:26Z</time>
      </trkpt>
      <trkpt lat="42.5091905706" lon="19.9476394057">
        <ele>1746.37</ele>
        <time>2019-07-08T15:00:41Z</time>
      </trkpt>
      <trkpt lat="42.5090576336" lon="19.9477060419">
        <ele>1746.37</ele>
        <time>2019-07-08T15:00:54Z</time>
      </trkpt>
      <trkpt lat="42.5089563802" lon="19.9477523100">
        <ele>1744.45</ele>
        <time>2019-07-08T15:01:07Z</time>
      </trkpt>
      <trkpt lat="42.5089240260" lon="19.9477855861">
        <ele>1743.97</ele>
        <time>2019-07-08T15:01:10Z</time>
      </trkpt>
      <trkpt lat="42.5088599045" lon="19.9478412420">
        <ele>1743.49</ele>
        <time>2019-07-08T15:01:17Z</time>
      </trkpt>
      <trkpt lat="42.5087192561" lon="19.9478910305">
        <ele>1742.53</ele>
        <time>2019-07-08T15:01:27Z</time>
      </trkpt>
      <trkpt lat="42.5086616725" lon="19.9479263183">
        <ele>1742.05</ele>
        <time>2019-07-08T15:01:32Z</time>
      </trkpt>
      <trkpt lat="42.5085548870" lon="19.9479978159">
        <ele>1740.60</ele>
        <time>2019-07-08T15:01:45Z</time>
      </trkpt>
      <trkpt lat="42.5085235387" lon="19.9480049405">
        <ele>1739.16</ele>
        <time>2019-07-08T15:01:48Z</time>
      </trkpt>
      <trkpt lat="42.5085083675" lon="19.9480113108">
        <ele>1738.68</ele>
        <time>2019-07-08T15:01:49Z</time>
      </trkpt>
      <trkpt lat="42.5083678868" lon="19.9481372070">
        <ele>1736.28</ele>
        <time>2019-07-08T15:02:03Z</time>
      </trkpt>
      <trkpt lat="42.5083219539" lon="19.9482371192">
        <ele>1734.84</ele>
        <time>2019-07-08T15:02:15Z</time>
      </trkpt>
      <trkpt lat="42.5082531385" lon="19.9482794479">
        <ele>1735.80</ele>
        <time>2019-07-08T15:02:28Z</time>
      </trkpt>
      <trkpt lat="42.5081502087" lon="19.9483166635">
        <ele>1735.32</ele>
        <time>2019-07-08T15:02:41Z</time>
      </trkpt>
      <trkpt lat="42.5080435071" lon="19.9483641051">
        <ele>1733.88</ele>
        <time>2019-07-08T15:02:55Z</time>
      </trkpt>
      <trkpt lat="42.5079573411" lon="19.9483341817">
        <ele>1730.51</ele>
        <time>2019-07-08T15:03:07Z</time>
      </trkpt>
      <trkpt lat="42.5078953151" lon="19.9483001512">
        <ele>1730.03</ele>
        <time>2019-07-08T15:03:13Z</time>
      </trkpt>
      <trkpt lat="42.5077160262" lon="19.9482299108">
        <ele>1729.07</ele>
        <time>2019-07-08T15:03:28Z</time>
      </trkpt>
      <trkpt lat="42.5076847617" lon="19.9482256360">
        <ele>1729.07</ele>
        <time>2019-07-08T15:03:31Z</time>
      </trkpt>
      <trkpt lat="42.5075645652" lon="19.9482400529">
        <ele>1727.63</ele>
        <time>2019-07-08T15:03:43Z</time>
      </trkpt>
      <trkpt lat="42.5075338036" lon="19.9482669588">
        <ele>1727.63</ele>
        <time>2019-07-08T15:03:47Z</time>
      </trkpt>
      <trkpt lat="42.5073937420" lon="19.9482931104">
        <ele>1727.63</ele>
        <time>2019-07-08T15:04:00Z</time>
      </trkpt>
      <trkpt lat="42.5072912313" lon="19.9483788572">
        <ele>1727.63</ele>
        <time>2019-07-08T15:04:12Z</time>
      </trkpt>
      <trkpt lat="42.5072308816" lon="19.9483853951">
        <ele>1727.63</ele>
        <time>2019-07-08T15:04:17Z</time>
      </trkpt>
      <trkpt lat="42.5070479047" lon="19.9483993091">
        <ele>1724.26</ele>
        <time>2019-07-08T15:04:31Z</time>
      </trkpt>
      <trkpt lat="42.5069563743" lon="19.9484047573">
        <ele>1722.34</ele>
        <time>2019-07-08T15:04:44Z</time>
      </trkpt>
      <trkpt lat="42.5069181528" lon="19.9484000634">
        <ele>1722.34</ele>
        <time>2019-07-08T15:05:06Z</time>
      </trkpt>
      <trkpt lat="42.5068946835" lon="19.9483941961">
        <ele>1721.86</ele>
        <time>2019-07-08T15:05:23Z</time>
      </trkpt>
      <trkpt lat="42.5068212580" lon="19.9483745825">
        <ele>1721.38</ele>
        <time>2019-07-08T15:05:53Z</time>
      </trkpt>
      <trkpt lat="42.5068441406" lon="19.9483883288">
        <ele>1721.38</ele>
        <time>2019-07-08T15:06:27Z</time>
      </trkpt>
      <trkpt lat="42.5068590604" lon="19.9483912624">
        <ele>1721.38</ele>
        <time>2019-07-08T15:06:43Z</time>
      </trkpt>
      <trkpt lat="42.5068287179" lon="19.9484169949">
        <ele>1720.90</ele>
        <time>2019-07-08T15:07:01Z</time>
      </trkpt>
      <trkpt lat="42.5068293884" lon="19.9483311642">
        <ele>1718.97</ele>
        <time>2019-07-08T15:07:16Z</time>
      </trkpt>
      <trkpt lat="42.5067821145" lon="19.9483480118">
        <ele>1717.05</ele>
        <time>2019-07-08T15:07:30Z</time>
      </trkpt>
      <trkpt lat="42.5067655183" lon="19.9482989777">
        <ele>1716.57</ele>
        <time>2019-07-08T15:07:35Z</time>
      </trkpt>
      <trkpt lat="42.5067251176" lon="19.9482277315">
        <ele>1715.61</ele>
        <time>2019-07-08T15:07:50Z</time>
      </trkpt>
      <trkpt lat="42.5067414623" lon="19.9482396338">
        <ele>1715.13</ele>
        <time>2019-07-08T15:08:04Z</time>
      </trkpt>
      <trkpt lat="42.5067742355" lon="19.9483651947">
        <ele>1716.57</ele>
        <time>2019-07-08T15:08:19Z</time>
      </trkpt>
      <trkpt lat="42.5068117864" lon="19.9484520312">
        <ele>1716.57</ele>
        <time>2019-07-08T15:08:34Z</time>
      </trkpt>
      <trkpt lat="42.5068377703" lon="19.9483874068">
        <ele>1718.49</ele>
        <time>2019-07-08T15:08:48Z</time>
      </trkpt>
      <trkpt lat="42.5068425480" lon="19.9483965430">
        <ele>1718.49</ele>
        <time>2019-07-08T15:09:19Z</time>
      </trkpt>
      <trkpt lat="42.5068920013" lon="19.9484203476">
        <ele>1719.94</ele>
        <time>2019-07-08T15:09:47Z</time>
      </trkpt>
      <trkpt lat="42.5069147162" lon="19.9484551325">
        <ele>1721.38</ele>
        <time>2019-07-08T15:09:59Z</time>
      </trkpt>
      <trkpt lat="42.5069184043" lon="19.9484474212">
        <ele>1721.86</ele>
        <time>2019-07-08T15:10:21Z</time>
      </trkpt>
      <trkpt lat="42.5068996288" lon="19.9484143127">
        <ele>1721.86</ele>
        <time>2019-07-08T15:10:50Z</time>
      </trkpt>
      <trkpt lat="42.5068993773" lon="19.9484008178">
        <ele>1721.86</ele>
        <time>2019-07-08T15:11:16Z</time>
      </trkpt>
      <trkpt lat="42.5069098547" lon="19.9484386202">
        <ele>1721.86</ele>
        <time>2019-07-08T15:11:42Z</time>
      </trkpt>
      <trkpt lat="42.5069058314" lon="19.9484536238">
        <ele>1720.90</ele>
        <time>2019-07-08T15:12:14Z</time>
      </trkpt>
      <trkpt lat="42.5068873074" lon="19.9484246224">
        <ele>1720.90</ele>
        <time>2019-07-08T15:12:51Z</time>
      </trkpt>
      <trkpt lat="42.5069436338" lon="19.9484707229">
        <ele>1720.90</ele>
        <time>2019-07-08T15:13:30Z</time>
      </trkpt>
      <trkpt lat="42.5069178175" lon="19.9484351836">
        <ele>1720.42</ele>
        <time>2019-07-08T15:14:10Z</time>
      </trkpt>
      <trkpt lat="42.5069310609" lon="19.9484122172">
        <ele>1720.42</ele>
        <time>2019-07-08T15:14:44Z</time>
      </trkpt>
      <trkpt lat="42.5069336593" lon="19.9484223593">
        <ele>1720.42</ele>
        <time>2019-07-08T15:15:15Z</time>
      </trkpt>
      <trkpt lat="42.5068967789" lon="19.9484205153">
        <ele>1720.90</ele>
        <time>2019-07-08T15:15:53Z</time>
      </trkpt>
      <trkpt lat="42.5069119502" lon="19.9484218564">
        <ele>1720.90</ele>
        <time>2019-07-08T15:16:12Z</time>
      </trkpt>
      <trkpt lat="42.5069301389" lon="19.9485067651">
        <ele>1720.90</ele>
        <time>2019-07-08T15:16:33Z</time>
      </trkpt>
      <trkpt lat="42.5069417059" lon="19.9484692141">
        <ele>1722.34</ele>
        <time>2019-07-08T15:17:02Z</time>
      </trkpt>
      <trkpt lat="42.5069465674" lon="19.9484369438">
        <ele>1722.34</ele>
        <time>2019-07-08T15:17:21Z</time>
      </trkpt>
      <trkpt lat="42.5069664326" lon="19.9483973812">
        <ele>1722.82</ele>
        <time>2019-07-08T15:17:44Z</time>
      </trkpt>
      <trkpt lat="42.5069961045" lon="19.9484377820">
        <ele>1723.30</ele>
        <time>2019-07-08T15:18:10Z</time>
      </trkpt>
      <trkpt lat="42.5070360862" lon="19.9484567251">
        <ele>1726.67</ele>
        <time>2019-07-08T15:18:24Z</time>
      </trkpt>
      <trkpt lat="42.5070439652" lon="19.9484944437">
        <ele>1728.59</ele>
        <time>2019-07-08T15:18:36Z</time>
      </trkpt>
      <trkpt lat="42.5070992857" lon="19.9485225230">
        <ele>1731.47</ele>
        <time>2019-07-08T15:18:50Z</time>
      </trkpt>
      <trkpt lat="42.5071731303" lon="19.9485101178">
        <ele>1733.88</ele>
        <time>2019-07-08T15:19:03Z</time>
      </trkpt>
      <trkpt lat="42.5072410237" lon="19.9485675339">
        <ele>1735.80</ele>
        <time>2019-07-08T15:19:19Z</time>
      </trkpt>
      <trkpt lat="42.5073060673" lon="19.9485918414">
        <ele>1738.20</ele>
        <time>2019-07-08T15:19:34Z</time>
      </trkpt>
      <trkpt lat="42.5073319674" lon="19.9486455694">
        <ele>1740.12</ele>
        <time>2019-07-08T15:19:47Z</time>
      </trkpt>
      <trkpt lat="42.5074038841" lon="19.9487075955">
        <ele>1742.53</ele>
        <time>2019-07-08T15:20:02Z</time>
      </trkpt>
      <trkpt lat="42.5074608810" lon="19.9486904964">
        <ele>1744.45</ele>
        <time>2019-07-08T15:20:17Z</time>
      </trkpt>
      <trkpt lat="42.5075218175" lon="19.9486963637">
        <ele>1746.37</ele>
        <time>2019-07-08T15:20:31Z</time>
      </trkpt>
      <trkpt lat="42.5075874478" lon="19.9487095233">
        <ele>1749.26</ele>
        <time>2019-07-08T15:20:49Z</time>
      </trkpt>
      <trkpt lat="42.5076420978" lon="19.9487399496">
        <ele>1751.18</ele>
        <time>2019-07-08T15:21:04Z</time>
      </trkpt>
      <trkpt lat="42.5077094045" lon="19.9487787578">
        <ele>1753.58</ele>
        <time>2019-07-08T15:21:19Z</time>
      </trkpt>
      <trkpt lat="42.5077855121" lon="19.9488332402">
        <ele>1755.50</ele>
        <time>2019-07-08T15:21:32Z</time>
      </trkpt>
      <trkpt lat="42.5078502204" lon="19.9488580506">
        <ele>1756.95</ele>
        <time>2019-07-08T15:21:47Z</time>
      </trkpt>
      <trkpt lat="42.5079212151" lon="19.9488857947">
        <ele>1757.43</ele>
        <time>2019-07-08T15:22:03Z</time>
      </trkpt>
      <trkpt lat="42.5079490431" lon="19.9489002954">
        <ele>1758.87</ele>
        <time>2019-07-08T15:22:15Z</time>
      </trkpt>
      <trkpt lat="42.5079675671" lon="19.9489363376">
        <ele>1760.31</ele>
        <time>2019-07-08T15:22:30Z</time>
      </trkpt>
      <trkpt lat="42.5079946406" lon="19.9489420373">
        <ele>1761.27</ele>
        <time>2019-07-08T15:22:42Z</time>
      </trkpt>
      <trkpt lat="42.5080103148" lon="19.9489583820">
        <ele>1763.20</ele>
        <time>2019-07-08T15:22:55Z</time>
      </trkpt>
      <trkpt lat="42.5080508832" lon="19.9489860423">
        <ele>1765.60</ele>
        <time>2019-07-08T15:23:13Z</time>
      </trkpt>
      <trkpt lat="42.5081036892" lon="19.9490026385">
        <ele>1767.04</ele>
        <time>2019-07-08T15:23:27Z</time>
      </trkpt>
      <trkpt lat="42.5081502926" lon="19.9490131158">
        <ele>1770.41</ele>
        <time>2019-07-08T15:23:42Z</time>
      </trkpt>
      <trkpt lat="42.5081919506" lon="19.9490543548">
        <ele>1771.37</ele>
        <time>2019-07-08T15:23:54Z</time>
      </trkpt>
      <trkpt lat="42.5082077924" lon="19.9491209071">
        <ele>1774.73</ele>
        <time>2019-07-08T15:24:11Z</time>
      </trkpt>
      <trkpt lat="42.5082461815" lon="19.9491843581">
        <ele>1777.13</ele>
        <time>2019-07-08T15:24:27Z</time>
      </trkpt>
      <trkpt lat="42.5082955509" lon="19.9492074084">
        <ele>1779.06</ele>
        <time>2019-07-08T15:24:40Z</time>
      </trkpt>
      <trkpt lat="42.5083460938" lon="19.9492564425">
        <ele>1781.94</ele>
        <time>2019-07-08T15:24:54Z</time>
      </trkpt>
      <trkpt lat="42.5083836447" lon="19.9492812529">
        <ele>1784.34</ele>
        <time>2019-07-08T15:25:06Z</time>
      </trkpt>
      <trkpt lat="42.5084149931" lon="19.9493042193">
        <ele>1786.75</ele>
        <time>2019-07-08T15:25:21Z</time>
      </trkpt>
      <trkpt lat="42.5084473472" lon="19.9493566900">
        <ele>1789.15</ele>
        <time>2019-07-08T15:25:36Z</time>
      </trkpt>
      <trkpt lat="42.5084753428" lon="19.9494171236">
        <ele>1791.55</ele>
        <time>2019-07-08T15:25:52Z</time>
      </trkpt>
      <trkpt lat="42.5084450003" lon="19.9494320434">
        <ele>1793.96</ele>
        <time>2019-07-08T15:26:05Z</time>
      </trkpt>
      <trkpt lat="42.5084054377" lon="19.9494571052">
        <ele>1796.36</ele>
        <time>2019-07-08T15:26:20Z</time>
      </trkpt>
      <trkpt lat="42.5083699822" lon="19.9494719412">
        <ele>1798.76</ele>
        <time>2019-07-08T15:26:34Z</time>
      </trkpt>
      <trkpt lat="42.5083026756" lon="19.9495312851">
        <ele>1801.17</ele>
        <time>2019-07-08T15:26:48Z</time>
      </trkpt>
      <trkpt lat="42.5083154999" lon="19.9496089853">
        <ele>1803.57</ele>
        <time>2019-07-08T15:27:01Z</time>
      </trkpt>
      <trkpt lat="42.5083391368" lon="19.9496698380">
        <ele>1805.97</ele>
        <time>2019-07-08T15:27:14Z</time>
      </trkpt>
      <trkpt lat="42.5084148254" lon="19.9497802276">
        <ele>1806.94</ele>
        <time>2019-07-08T15:27:28Z</time>
      </trkpt>
      <trkpt lat="42.5084686372" lon="19.9498273339">
        <ele>1808.86</ele>
        <time>2019-07-08T15:27:41Z</time>
      </trkpt>
      <trkpt lat="42.5084755104" lon="19.9498637114">
        <ele>1809.82</ele>
        <time>2019-07-08T15:27:57Z</time>
      </trkpt>
      <trkpt lat="42.5085508637" lon="19.9498772901">
        <ele>1811.74</ele>
        <time>2019-07-08T15:28:14Z</time>
      </trkpt>
      <trkpt lat="42.5086275581" lon="19.9499180261">
        <ele>1814.15</ele>
        <time>2019-07-08T15:28:27Z</time>
      </trkpt>
      <trkpt lat="42.5086885784" lon="19.9499540683">
        <ele>1816.55</ele>
        <time>2019-07-08T15:28:41Z</time>
      </trkpt>
      <trkpt lat="42.5087479223" lon="19.9499927089">
        <ele>1818.47</ele>
        <time>2019-07-08T15:28:54Z</time>
      </trkpt>
      <trkpt lat="42.5088019017" lon="19.9500193633">
        <ele>1820.87</ele>
        <time>2019-07-08T15:29:08Z</time>
      </trkpt>
      <trkpt lat="42.5088592339" lon="19.9500633683">
        <ele>1824.24</ele>
        <time>2019-07-08T15:29:23Z</time>
      </trkpt>
      <trkpt lat="42.5089411251" lon="19.9500775337">
        <ele>1826.64</ele>
        <time>2019-07-08T15:29:38Z</time>
      </trkpt>
      <trkpt lat="42.5090108626" lon="19.9500620272">
        <ele>1829.05</ele>
        <time>2019-07-08T15:29:53Z</time>
      </trkpt>
      <trkpt lat="42.5090463180" lon="19.9501294177">
        <ele>1831.93</ele>
        <time>2019-07-08T15:30:08Z</time>
      </trkpt>
      <trkpt lat="42.5090694521" lon="19.9501968082">
        <ele>1834.33</ele>
        <time>2019-07-08T15:30:21Z</time>
      </trkpt>
      <trkpt lat="42.5091241859" lon="19.9502248038">
        <ele>1835.77</ele>
        <time>2019-07-08T15:30:34Z</time>
      </trkpt>
      <trkpt lat="42.5091997907" lon="19.9502092134">
        <ele>1839.14</ele>
        <time>2019-07-08T15:30:48Z</time>
      </trkpt>
      <trkpt lat="42.5092090946" lon="19.9502310064">
        <ele>1839.62</ele>
        <time>2019-07-08T15:31:00Z</time>
      </trkpt>
      <trkpt lat="42.5092012156" lon="19.9502113927">
        <ele>1840.10</ele>
        <time>2019-07-08T15:31:23Z</time>
      </trkpt>
      <trkpt lat="42.5092632417" lon="19.9502221216">
        <ele>1841.54</ele>
        <time>2019-07-08T15:31:44Z</time>
      </trkpt>
      <trkpt lat="42.5093106832" lon="19.9502325989">
        <ele>1844.43</ele>
        <time>2019-07-08T15:31:56Z</time>
      </trkpt>
      <trkpt lat="42.5093840249" lon="19.9502565712">
        <ele>1846.83</ele>
        <time>2019-07-08T15:32:12Z</time>
      </trkpt>
      <trkpt lat="42.5094183907" lon="19.9503051862">
        <ele>1849.23</ele>
        <time>2019-07-08T15:32:27Z</time>
      </trkpt>
      <trkpt lat="42.5094616413" lon="19.9503735825">
        <ele>1851.16</ele>
        <time>2019-07-08T15:32:40Z</time>
      </trkpt>
      <trkpt lat="42.5095169619" lon="19.9504693039">
        <ele>1853.08</ele>
        <time>2019-07-08T15:32:55Z</time>
      </trkpt>
      <trkpt lat="42.5095701031" lon="19.9505349342">
        <ele>1855.00</ele>
        <time>2019-07-08T15:33:07Z</time>
      </trkpt>
      <trkpt lat="42.5096223224" lon="19.9506117124">
        <ele>1857.40</ele>
        <time>2019-07-08T15:33:22Z</time>
      </trkpt>
      <trkpt lat="42.5096835941" lon="19.9506744929">
        <ele>1859.33</ele>
        <time>2019-07-08T15:33:38Z</time>
      </trkpt>
      <trkpt lat="42.5097393338" lon="19.9507712200">
        <ele>1861.25</ele>
        <time>2019-07-08T15:33:54Z</time>
      </trkpt>
      <trkpt lat="42.5097747054" lon="19.9508149736">
        <ele>1863.17</ele>
        <time>2019-07-08T15:34:10Z</time>
      </trkpt>
      <trkpt lat="42.5097956602" lon="19.9508101959">
        <ele>1863.17</ele>
        <time>2019-07-08T15:34:35Z</time>
      </trkpt>
      <trkpt lat="42.5098039582" lon="19.9508202542">
        <ele>1863.17</ele>
        <time>2019-07-08T15:34:51Z</time>
      </trkpt>
      <trkpt lat="42.5097938161" lon="19.9509020615">
        <ele>1863.65</ele>
        <time>2019-07-08T15:35:10Z</time>
      </trkpt>
      <trkpt lat="42.5098041259" lon="19.9510113616">
        <ele>1865.58</ele>
        <time>2019-07-08T15:35:24Z</time>
      </trkpt>
      <trkpt lat="42.5098213926" lon="19.9511093460">
        <ele>1867.50</ele>
        <time>2019-07-08T15:35:39Z</time>
      </trkpt>
      <trkpt lat="42.5098348036" lon="19.9511322286">
        <ele>1868.94</ele>
        <time>2019-07-08T15:35:52Z</time>
      </trkpt>
      <trkpt lat="42.5098373182" lon="19.9511566199">
        <ele>1868.94</ele>
        <time>2019-07-08T15:36:07Z</time>
      </trkpt>
      <trkpt lat="42.5098446943" lon="19.9511466455">
        <ele>1869.42</ele>
        <time>2019-07-08T15:36:30Z</time>
      </trkpt>
      <trkpt lat="42.5097896252" lon="19.9512678478">
        <ele>1867.50</ele>
        <time>2019-07-08T15:36:47Z</time>
      </trkpt>
      <trkpt lat="42.5097749569" lon="19.9513175525">
        <ele>1867.02</ele>
        <time>2019-07-08T15:36:51Z</time>
      </trkpt>
      <trkpt lat="42.5097677484" lon="19.9514996074">
        <ele>1865.58</ele>
        <time>2019-07-08T15:37:06Z</time>
      </trkpt>
      <trkpt lat="42.5097760465" lon="19.9517418444">
        <ele>1864.13</ele>
        <time>2019-07-08T15:37:21Z</time>
      </trkpt>
      <trkpt lat="42.5097715203" lon="19.9520604406">
        <ele>1864.13</ele>
        <time>2019-07-08T15:37:38Z</time>
      </trkpt>
      <trkpt lat="42.5097851828" lon="19.9522276595">
        <ele>1864.13</ele>
        <time>2019-07-08T15:37:50Z</time>
      </trkpt>
      <trkpt lat="42.5097903796" lon="19.9524633586">
        <ele>1863.65</ele>
        <time>2019-07-08T15:38:06Z</time>
      </trkpt>
      <trkpt lat="42.5097745378" lon="19.9526392110">
        <ele>1862.69</ele>
        <time>2019-07-08T15:38:19Z</time>
      </trkpt>
      <trkpt lat="42.5098006055" lon="19.9528763350">
        <ele>1862.21</ele>
        <time>2019-07-08T15:38:34Z</time>
      </trkpt>
      <trkpt lat="42.5098359771" lon="19.9530702084">
        <ele>1861.73</ele>
        <time>2019-07-08T15:38:47Z</time>
      </trkpt>
      <trkpt lat="42.5098827481" lon="19.9533267785">
        <ele>1859.81</ele>
        <time>2019-07-08T15:39:05Z</time>
      </trkpt>
      <trkpt lat="42.5099379849" lon="19.9535387568">
        <ele>1858.37</ele>
        <time>2019-07-08T15:39:20Z</time>
      </trkpt>
      <trkpt lat="42.5099863485" lon="19.9536177982">
        <ele>1857.89</ele>
        <time>2019-07-08T15:39:32Z</time>
      </trkpt>
      <trkpt lat="42.5099888630" lon="19.9536710232">
        <ele>1857.89</ele>
        <time>2019-07-08T15:39:35Z</time>
      </trkpt>
      <trkpt lat="42.5099952333" lon="19.9537203927">
        <ele>1857.40</ele>
        <time>2019-07-08T15:39:38Z</time>
      </trkpt>
      <trkpt lat="42.5100302696" lon="19.9538917188">
        <ele>1856.44</ele>
        <time>2019-07-08T15:39:51Z</time>
      </trkpt>
      <trkpt lat="42.5100516435" lon="19.9541631248">
        <ele>1854.52</ele>
        <time>2019-07-08T15:40:07Z</time>
      </trkpt>
      <trkpt lat="42.5100465305" lon="19.9541902822">
        <ele>1854.04</ele>
        <time>2019-07-08T15:40:09Z</time>
      </trkpt>
      <trkpt lat="42.5100266654" lon="19.9542666413">
        <ele>1853.08</ele>
        <time>2019-07-08T15:40:14Z</time>
      </trkpt>
      <trkpt lat="42.5100108236" lon="19.9543996621">
        <ele>1851.16</ele>
        <time>2019-07-08T15:40:28Z</time>
      </trkpt>
      <trkpt lat="42.5099887792" lon="19.9545714073">
        <ele>1848.27</ele>
        <time>2019-07-08T15:40:42Z</time>
      </trkpt>
      <trkpt lat="42.5099582691" lon="19.9547021650">
        <ele>1845.87</ele>
        <time>2019-07-08T15:40:53Z</time>
      </trkpt>
      <trkpt lat="42.5099494681" lon="19.9547735788">
        <ele>1844.91</ele>
        <time>2019-07-08T15:40:58Z</time>
      </trkpt>
      <trkpt lat="42.5099275913" lon="19.9549095333">
        <ele>1843.95</ele>
        <time>2019-07-08T15:41:11Z</time>
      </trkpt>
      <trkpt lat="42.5098850951" lon="19.9551345035">
        <ele>1841.54</ele>
        <time>2019-07-08T15:41:27Z</time>
      </trkpt>
      <trkpt lat="42.5098634697" lon="19.9552460667">
        <ele>1841.06</ele>
        <time>2019-07-08T15:41:37Z</time>
      </trkpt>
      <trkpt lat="42.5098569319" lon="19.9552758224">
        <ele>1840.58</ele>
        <time>2019-07-08T15:41:39Z</time>
      </trkpt>
      <trkpt lat="42.5098073110" lon="19.9554998707">
        <ele>1838.66</ele>
        <time>2019-07-08T15:41:54Z</time>
      </trkpt>
      <trkpt lat="42.5097793993" lon="19.9556580372">
        <ele>1837.22</ele>
        <time>2019-07-08T15:42:08Z</time>
      </trkpt>
      <trkpt lat="42.5097498111" lon="19.9557838496">
        <ele>1835.77</ele>
        <time>2019-07-08T15:42:20Z</time>
      </trkpt>
      <trkpt lat="42.5096848514" lon="19.9559555110">
        <ele>1832.89</ele>
        <time>2019-07-08T15:42:34Z</time>
      </trkpt>
      <trkpt lat="42.5096246693" lon="19.9560727738">
        <ele>1829.53</ele>
        <time>2019-07-08T15:42:45Z</time>
      </trkpt>
      <trkpt lat="42.5095698517" lon="19.9562748615">
        <ele>1827.60</ele>
        <time>2019-07-08T15:43:00Z</time>
      </trkpt>
      <trkpt lat="42.5095147826" lon="19.9564156774">
        <ele>1825.20</ele>
        <time>2019-07-08T15:43:12Z</time>
      </trkpt>
      <trkpt lat="42.5094634853" lon="19.9565378856">
        <ele>1824.24</ele>
        <time>2019-07-08T15:43:26Z</time>
      </trkpt>
      <trkpt lat="42.5094646588" lon="19.9566068687">
        <ele>1823.28</ele>
        <time>2019-07-08T15:43:49Z</time>
      </trkpt>
      <trkpt lat="42.5094812550" lon="19.9567123130">
        <ele>1822.80</ele>
        <time>2019-07-08T15:44:03Z</time>
      </trkpt>
      <trkpt lat="42.5095233321" lon="19.9567865767">
        <ele>1822.80</ele>
        <time>2019-07-08T15:44:17Z</time>
      </trkpt>
      <trkpt lat="42.5095049758" lon="19.9567425717">
        <ele>1822.80</ele>
        <time>2019-07-08T15:44:39Z</time>
      </trkpt>
      <trkpt lat="42.5094730407" lon="19.9566732533">
        <ele>1822.80</ele>
        <time>2019-07-08T15:44:56Z</time>
      </trkpt>
      <trkpt lat="42.5094665866" lon="19.9565802142">
        <ele>1822.80</ele>
        <time>2019-07-08T15:45:15Z</time>
      </trkpt>
      <trkpt lat="42.5094660837" lon="19.9565356225">
        <ele>1824.24</ele>
        <time>2019-07-08T15:45:20Z</time>
      </trkpt>
      <trkpt lat="42.5094712805" lon="19.9565760233">
        <ele>1824.24</ele>
        <time>2019-07-08T15:45:40Z</time>
      </trkpt>
      <trkpt lat="42.5094802491" lon="19.9566724151">
        <ele>1823.28</ele>
        <time>2019-07-08T15:45:52Z</time>
      </trkpt>
      <trkpt lat="42.5094662514" lon="19.9566928670">
        <ele>1823.28</ele>
        <time>2019-07-08T15:46:12Z</time>
      </trkpt>
      <trkpt lat="42.5094968453" lon="19.9567430746">
        <ele>1823.28</ele>
        <time>2019-07-08T15:46:18Z</time>
      </trkpt>
      <trkpt lat="42.5095646549" lon="19.9568225350">
        <ele>1823.28</ele>
        <time>2019-07-08T15:46:31Z</time>
      </trkpt>
      <trkpt lat="42.5096379127" lon="19.9569185078">
        <ele>1822.80</ele>
        <time>2019-07-08T15:46:45Z</time>
      </trkpt>
      <trkpt lat="42.5096699316" lon="19.9570208509">
        <ele>1822.80</ele>
        <time>2019-07-08T15:47:00Z</time>
      </trkpt>
      <trkpt lat="42.5096874498" lon="19.9570304900">
        <ele>1823.76</ele>
        <time>2019-07-08T15:47:03Z</time>
      </trkpt>
      <trkpt lat="42.5097561814" lon="19.9570843857">
        <ele>1826.16</ele>
        <time>2019-07-08T15:47:17Z</time>
      </trkpt>
      <trkpt lat="42.5098244939" lon="19.9571065977">
        <ele>1828.08</ele>
        <time>2019-07-08T15:47:30Z</time>
      </trkpt>
      <trkpt lat="42.5098897889" lon="19.9571241997">
        <ele>1829.53</ele>
        <time>2019-07-08T15:47:44Z</time>
      </trkpt>
      <trkpt lat="42.5099172816" lon="19.9571556319">
        <ele>1829.53</ele>
        <time>2019-07-08T15:47:48Z</time>
      </trkpt>
      <trkpt lat="42.5099786371" lon="19.9572213460">
        <ele>1829.53</ele>
        <time>2019-07-08T15:47:57Z</time>
      </trkpt>
      <trkpt lat="42.5100576784" lon="19.9573110323">
        <ele>1827.60</ele>
        <time>2019-07-08T15:48:10Z</time>
      </trkpt>
      <trkpt lat="42.5101435091" lon="19.9573966116">
        <ele>1826.64</ele>
        <time>2019-07-08T15:48:26Z</time>
      </trkpt>
      <trkpt lat="42.5101727620" lon="19.9574277923">
        <ele>1828.08</ele>
        <time>2019-07-08T15:48:31Z</time>
      </trkpt>
      <trkpt lat="42.5102577545" lon="19.9575534370">
        <ele>1827.60</ele>
        <time>2019-07-08T15:48:43Z</time>
      </trkpt>
      <trkpt lat="42.5103295036" lon="19.9576810934">
        <ele>1827.60</ele>
        <time>2019-07-08T15:48:57Z</time>
      </trkpt>
      <trkpt lat="42.5103859976" lon="19.9577761441">
        <ele>1827.60</ele>
        <time>2019-07-08T15:49:10Z</time>
      </trkpt>
      <trkpt lat="42.5104358699" lon="19.9578566942">
        <ele>1828.08</ele>
        <time>2019-07-08T15:49:24Z</time>
      </trkpt>
      <trkpt lat="42.5104845688" lon="19.9579530861">
        <ele>1828.08</ele>
        <time>2019-07-08T15:49:42Z</time>
      </trkpt>
      <trkpt lat="42.5105544738" lon="19.9580700137">
        <ele>1828.08</ele>
        <time>2019-07-08T15:49:57Z</time>
      </trkpt>
      <trkpt lat="42.5106033403" lon="19.9581818283">
        <ele>1829.05</ele>
        <time>2019-07-08T15:50:10Z</time>
      </trkpt>
      <trkpt lat="42.5106224511" lon="19.9582892843">
        <ele>1829.05</ele>
        <time>2019-07-08T15:50:24Z</time>
      </trkpt>
      <trkpt lat="42.5106171705" lon="19.9583058804">
        <ele>1827.60</ele>
        <time>2019-07-08T15:50:26Z</time>
      </trkpt>
      <trkpt lat="42.5106447469" lon="19.9583777133">
        <ele>1827.12</ele>
        <time>2019-07-08T15:50:36Z</time>
      </trkpt>
      <trkpt lat="42.5106538832" lon="19.9584005959">
        <ele>1827.12</ele>
        <time>2019-07-08T15:50:39Z</time>
      </trkpt>
      <trkpt lat="42.5107231177" lon="19.9585096445">
        <ele>1827.12</ele>
        <time>2019-07-08T15:50:51Z</time>
      </trkpt>
      <trkpt lat="42.5107665360" lon="19.9586403184">
        <ele>1827.12</ele>
        <time>2019-07-08T15:51:03Z</time>
      </trkpt>
      <trkpt lat="42.5108005665" lon="19.9587101396">
        <ele>1827.12</ele>
        <time>2019-07-08T15:51:10Z</time>
      </trkpt>
      <trkpt lat="42.5108613353" lon="19.9588018376">
        <ele>1825.68</ele>
        <time>2019-07-08T15:51:23Z</time>
      </trkpt>
      <trkpt lat="42.5108839665" lon="19.9588512909">
        <ele>1825.68</ele>
        <time>2019-07-08T15:51:29Z</time>
      </trkpt>
      <trkpt lat="42.5109014846" lon="19.9589367863">
        <ele>1825.20</ele>
        <time>2019-07-08T15:51:35Z</time>
      </trkpt>
      <trkpt lat="42.5109652709" lon="19.9590399675">
        <ele>1823.76</ele>
        <time>2019-07-08T15:51:48Z</time>
      </trkpt>
      <trkpt lat="42.5110443961" lon="19.9591317493">
        <ele>1823.28</ele>
        <time>2019-07-08T15:52:01Z</time>
      </trkpt>
      <trkpt lat="42.5111143850" lon="19.9592296500">
        <ele>1823.28</ele>
        <time>2019-07-08T15:52:16Z</time>
      </trkpt>
      <trkpt lat="42.5111783389" lon="19.9593375251">
        <ele>1824.24</ele>
        <time>2019-07-08T15:52:30Z</time>
      </trkpt>
      <trkpt lat="42.5111866370" lon="19.9593992997">
        <ele>1822.32</ele>
        <time>2019-07-08T15:52:43Z</time>
      </trkpt>
      <trkpt lat="42.5112322345" lon="19.9595278781">
        <ele>1819.91</ele>
        <time>2019-07-08T15:52:56Z</time>
      </trkpt>
      <trkpt lat="42.5112375151" lon="19.9595358409">
        <ele>1819.43</ele>
        <time>2019-07-08T15:52:57Z</time>
      </trkpt>
      <trkpt lat="42.5112775806" lon="19.9597490765">
        <ele>1817.99</ele>
        <time>2019-07-08T15:53:13Z</time>
      </trkpt>
      <trkpt lat="42.5112783350" lon="19.9598209932">
        <ele>1817.51</ele>
        <time>2019-07-08T15:53:26Z</time>
      </trkpt>
      <trkpt lat="42.5112833641" lon="19.9597997870">
        <ele>1817.51</ele>
        <time>2019-07-08T15:53:52Z</time>
      </trkpt>
      <trkpt lat="42.5112614874" lon="19.9597933330">
        <ele>1817.51</ele>
        <time>2019-07-08T15:54:23Z</time>
      </trkpt>
      <trkpt lat="42.5112858787" lon="19.9599194806">
        <ele>1817.51</ele>
        <time>2019-07-08T15:54:40Z</time>
      </trkpt>
      <trkpt lat="42.5113044027" lon="19.9601147790">
        <ele>1816.07</ele>
        <time>2019-07-08T15:54:52Z</time>
      </trkpt>
      <trkpt lat="42.5113064144" lon="19.9602504820">
        <ele>1816.07</ele>
        <time>2019-07-08T15:55:03Z</time>
      </trkpt>
      <trkpt lat="42.5113417022" lon="19.9603821617">
        <ele>1817.03</ele>
        <time>2019-07-08T15:55:14Z</time>
      </trkpt>
      <trkpt lat="42.5114027224" lon="19.9605162721">
        <ele>1817.03</ele>
        <time>2019-07-08T15:55:31Z</time>
      </trkpt>
      <trkpt lat="42.5114634074" lon="19.9606306013">
        <ele>1817.99</ele>
        <time>2019-07-08T15:55:44Z</time>
      </trkpt>
      <trkpt lat="42.5114922412" lon="19.9607298430">
        <ele>1817.99</ele>
        <time>2019-07-08T15:55:56Z</time>
      </trkpt>
      <trkpt lat="42.5114776567" lon="19.9608084653">
        <ele>1816.55</ele>
        <time>2019-07-08T15:56:06Z</time>
      </trkpt>
      <trkpt lat="42.5114314724" lon="19.9609093834">
        <ele>1814.63</ele>
        <time>2019-07-08T15:56:20Z</time>
      </trkpt>
      <trkpt lat="42.5113513414" lon="19.9609571602">
        <ele>1812.22</ele>
        <time>2019-07-08T15:56:34Z</time>
      </trkpt>
      <trkpt lat="42.5113284588" lon="19.9610500317">
        <ele>1809.82</ele>
        <time>2019-07-08T15:56:48Z</time>
      </trkpt>
      <trkpt lat="42.5113205798" lon="19.9611522071">
        <ele>1807.42</ele>
        <time>2019-07-08T15:57:03Z</time>
      </trkpt>
      <trkpt lat="42.5113166403" lon="19.9612573162">
        <ele>1805.01</ele>
        <time>2019-07-08T15:57:16Z</time>
      </trkpt>
      <trkpt lat="42.5113345776" lon="19.9613715615">
        <ele>1801.65</ele>
        <time>2019-07-08T15:57:31Z</time>
      </trkpt>
      <trkpt lat="42.5112994574" lon="19.9615130480">
        <ele>1798.76</ele>
        <time>2019-07-08T15:57:46Z</time>
      </trkpt>
      <trkpt lat="42.5112604816" lon="19.9616460688">
        <ele>1795.88</ele>
        <time>2019-07-08T15:58:00Z</time>
      </trkpt>
      <trkpt lat="42.5112646725" lon="19.9616779201">
        <ele>1794.92</ele>
        <time>2019-07-08T15:58:03Z</time>
      </trkpt>
      <trkpt lat="42.5112496689" lon="19.9618047383">
        <ele>1792.03</ele>
        <time>2019-07-08T15:58:19Z</time>
      </trkpt>
      <trkpt lat="42.5112402812" lon="19.9618493300">
        <ele>1791.55</ele>
        <time>2019-07-08T15:58:32Z</time>
      </trkpt>
      <trkpt lat="42.5111651793" lon="19.9619324785">
        <ele>1789.63</ele>
        <time>2019-07-08T15:58:49Z</time>
      </trkpt>
      <trkpt lat="42.5110770855" lon="19.9620007072">
        <ele>1787.71</ele>
        <time>2019-07-08T15:59:03Z</time>
      </trkpt>
      <trkpt lat="42.5110006426" lon="19.9620700255">
        <ele>1786.75</ele>
        <time>2019-07-08T15:59:15Z</time>
      </trkpt>
      <trkpt lat="42.5109198410" lon="19.9621204846">
        <ele>1785.31</ele>
        <time>2019-07-08T15:59:31Z</time>
      </trkpt>
      <trkpt lat="42.5108912587" lon="19.9622190557">
        <ele>1782.90</ele>
        <time>2019-07-08T15:59:48Z</time>
      </trkpt>
      <trkpt lat="42.5108761713" lon="19.9622936547">
        <ele>1781.94</ele>
        <time>2019-07-08T16:00:04Z</time>
      </trkpt>
      <trkpt lat="42.5108697172" lon="19.9622991029">
        <ele>1780.98</ele>
        <time>2019-07-08T16:00:20Z</time>
      </trkpt>
      <trkpt lat="42.5108893309" lon="19.9623714387">
        <ele>1778.10</ele>
        <time>2019-07-08T16:00:36Z</time>
      </trkpt>
      <trkpt lat="42.5109050050" lon="19.9624314532">
        <ele>1776.17</ele>
        <time>2019-07-08T16:00:50Z</time>
      </trkpt>
      <trkpt lat="42.5108948629" lon="19.9625080638">
        <ele>1774.25</ele>
        <time>2019-07-08T16:01:03Z</time>
      </trkpt>
      <trkpt lat="42.5108554680" lon="19.9625887815">
        <ele>1773.29</ele>
        <time>2019-07-08T16:01:17Z</time>
      </trkpt>
      <trkpt lat="42.5107750017" lon="19.9626943935">
        <ele>1773.29</ele>
        <time>2019-07-08T16:01:30Z</time>
      </trkpt>
      <trkpt lat="42.5107019953" lon="19.9628948048">
        <ele>1771.85</ele>
        <time>2019-07-08T16:01:46Z</time>
      </trkpt>
      <trkpt lat="42.5106686354" lon="19.9631020054">
        <ele>1770.41</ele>
        <time>2019-07-08T16:02:00Z</time>
      </trkpt>
      <trkpt lat="42.5105965510" lon="19.9632810429">
        <ele>1771.37</ele>
        <time>2019-07-08T16:02:15Z</time>
      </trkpt>
      <trkpt lat="42.5105708186" lon="19.9634008203">
        <ele>1771.85</ele>
        <time>2019-07-08T16:02:28Z</time>
      </trkpt>
      <trkpt lat="42.5105170906" lon="19.9635105394">
        <ele>1771.85</ele>
        <time>2019-07-08T16:02:41Z</time>
      </trkpt>
      <trkpt lat="42.5104579143" lon="19.9636024889">
        <ele>1770.41</ele>
        <time>2019-07-08T16:02:51Z</time>
      </trkpt>
      <trkpt lat="42.5104284100" lon="19.9637635890">
        <ele>1768.96</ele>
        <time>2019-07-08T16:03:04Z</time>
      </trkpt>
      <trkpt lat="42.5104169268" lon="19.9637932610">
        <ele>1768.96</ele>
        <time>2019-07-08T16:03:06Z</time>
      </trkpt>
      <trkpt lat="42.5104111433" lon="19.9638394453">
        <ele>1768.00</ele>
        <time>2019-07-08T16:03:09Z</time>
      </trkpt>
      <trkpt lat="42.5103970617" lon="19.9640846997">
        <ele>1766.08</ele>
        <time>2019-07-08T16:03:24Z</time>
      </trkpt>
      <trkpt lat="42.5103796273" lon="19.9641540181">
        <ele>1765.60</ele>
        <time>2019-07-08T16:03:28Z</time>
      </trkpt>
      <trkpt lat="42.5103445910" lon="19.9643880408">
        <ele>1764.16</ele>
        <time>2019-07-08T16:03:45Z</time>
      </trkpt>
      <trkpt lat="42.5103010889" lon="19.9645663239">
        <ele>1762.23</ele>
        <time>2019-07-08T16:03:58Z</time>
      </trkpt>
      <trkpt lat="42.5102418289" lon="19.9647239037">
        <ele>1761.75</ele>
        <time>2019-07-08T16:04:10Z</time>
      </trkpt>
      <trkpt lat="42.5102582574" lon="19.9649057910">
        <ele>1762.71</ele>
        <time>2019-07-08T16:04:26Z</time>
      </trkpt>
      <trkpt lat="42.5102711655" lon="19.9649823178">
        <ele>1763.20</ele>
        <time>2019-07-08T16:04:40Z</time>
      </trkpt>
      <trkpt lat="42.5102756917" lon="19.9650059547">
        <ele>1763.20</ele>
        <time>2019-07-08T16:04:42Z</time>
      </trkpt>
      <trkpt lat="42.5102689862" lon="19.9650983233">
        <ele>1762.23</ele>
        <time>2019-07-08T16:04:48Z</time>
      </trkpt>
      <trkpt lat="42.5102687348" lon="19.9652283266">
        <ele>1758.87</ele>
        <time>2019-07-08T16:04:58Z</time>
      </trkpt>
      <trkpt lat="42.5102345366" lon="19.9652960524">
        <ele>1755.99</ele>
        <time>2019-07-08T16:05:06Z</time>
      </trkpt>
      <trkpt lat="42.5102099776" lon="19.9653654546">
        <ele>1752.62</ele>
        <time>2019-07-08T16:05:13Z</time>
      </trkpt>
      <trkpt lat="42.5101931300" lon="19.9654287379">
        <ele>1751.18</ele>
        <time>2019-07-08T16:05:19Z</time>
      </trkpt>
      <trkpt lat="42.5101693254" lon="19.9654569849">
        <ele>1750.70</ele>
        <time>2019-07-08T16:05:23Z</time>
      </trkpt>
      <trkpt lat="42.5101500470" lon="19.9654683005">
        <ele>1749.26</ele>
        <time>2019-07-08T16:05:25Z</time>
      </trkpt>
      <trkpt lat="42.5101437606" lon="19.9655194301">
        <ele>1748.78</ele>
        <time>2019-07-08T16:05:29Z</time>
      </trkpt>
      <trkpt lat="42.5101509690" lon="19.9655584060">
        <ele>1748.78</ele>
        <time>2019-07-08T16:05:32Z</time>
      </trkpt>
      <trkpt lat="42.5101417489" lon="19.9657604937">
        <ele>1744.45</ele>
        <time>2019-07-08T16:05:47Z</time>
      </trkpt>
      <trkpt lat="42.5101171061" lon="19.9658329133">
        <ele>1744.45</ele>
        <time>2019-07-08T16:05:52Z</time>
      </trkpt>
      <trkpt lat="42.5101306848" lon="19.9658999685">
        <ele>1743.97</ele>
        <time>2019-07-08T16:05:57Z</time>
      </trkpt>
      <trkpt lat="42.5101201236" lon="19.9660676066">
        <ele>1742.53</ele>
        <time>2019-07-08T16:06:08Z</time>
      </trkpt>
      <trkpt lat="42.5101443473" lon="19.9661481567">
        <ele>1742.05</ele>
        <time>2019-07-08T16:06:13Z</time>
      </trkpt>
      <trkpt lat="42.5101506338" lon="19.9662150443">
        <ele>1741.08</ele>
        <time>2019-07-08T16:06:17Z</time>
      </trkpt>
      <trkpt lat="42.5101819821" lon="19.9664831813">
        <ele>1737.72</ele>
        <time>2019-07-08T16:06:33Z</time>
      </trkpt>
      <trkpt lat="42.5102290884" lon="19.9667495582">
        <ele>1735.32</ele>
        <time>2019-07-08T16:06:48Z</time>
      </trkpt>
      <trkpt lat="42.5102554914" lon="19.9668507278">
        <ele>1734.84</ele>
        <time>2019-07-08T16:06:54Z</time>
      </trkpt>
      <trkpt lat="42.5103148352" lon="19.9669799767">
        <ele>1734.36</ele>
        <time>2019-07-08T16:07:03Z</time>
      </trkpt>
      <trkpt lat="42.5103535596" lon="19.9670997541">
        <ele>1732.91</ele>
        <time>2019-07-08T16:07:11Z</time>
      </trkpt>
      <trkpt lat="42.5103589240" lon="19.9672192801">
        <ele>1730.99</ele>
        <time>2019-07-08T16:07:18Z</time>
      </trkpt>
      <trkpt lat="42.5104632787" lon="19.9674485251">
        <ele>1728.11</ele>
        <time>2019-07-08T16:07:35Z</time>
      </trkpt>
      <trkpt lat="42.5105290767" lon="19.9674843159">
        <ele>1727.15</ele>
        <time>2019-07-08T16:07:41Z</time>
      </trkpt>
      <trkpt lat="42.5105676334" lon="19.9675536342">
        <ele>1726.67</ele>
        <time>2019-07-08T16:07:46Z</time>
      </trkpt>
      <trkpt lat="42.5106399693" lon="19.9678179994">
        <ele>1724.26</ele>
        <time>2019-07-08T16:08:01Z</time>
      </trkpt>
      <trkpt lat="42.5106812082" lon="19.9679605756">
        <ele>1722.82</ele>
        <time>2019-07-08T16:08:09Z</time>
      </trkpt>
      <trkpt lat="42.5107027497" lon="19.9680251162">
        <ele>1722.34</ele>
        <time>2019-07-08T16:08:13Z</time>
      </trkpt>
      <trkpt lat="42.5107524544" lon="19.9682435486">
        <ele>1719.46</ele>
        <time>2019-07-08T16:08:26Z</time>
      </trkpt>
      <trkpt lat="42.5107987225" lon="19.9684655014">
        <ele>1718.49</ele>
        <time>2019-07-08T16:08:39Z</time>
      </trkpt>
      <trkpt lat="42.5108613353" lon="19.9686552677">
        <ele>1716.57</ele>
        <time>2019-07-08T16:08:53Z</time>
      </trkpt>
      <trkpt lat="42.5108729862" lon="19.9686913937">
        <ele>1716.57</ele>
        <time>2019-07-08T16:08:56Z</time>
      </trkpt>
      <trkpt lat="42.5108822901" lon="19.9687271845">
        <ele>1716.57</ele>
        <time>2019-07-08T16:08:59Z</time>
      </trkpt>
      <trkpt lat="42.5109461602" lon="19.9689590279">
        <ele>1716.57</ele>
        <time>2019-07-08T16:09:16Z</time>
      </trkpt>
      <trkpt lat="42.5110157300" lon="19.9691132549">
        <ele>1716.57</ele>
        <time>2019-07-08T16:09:29Z</time>
      </trkpt>
      <trkpt lat="42.5110764150" lon="19.9693456013">
        <ele>1716.09</ele>
        <time>2019-07-08T16:09:45Z</time>
      </trkpt>
      <trkpt lat="42.5110812765" lon="19.9693901092">
        <ele>1715.13</ele>
        <time>2019-07-08T16:09:48Z</time>
      </trkpt>
      <trkpt lat="42.5111312326" lon="19.9695185199">
        <ele>1714.65</ele>
        <time>2019-07-08T16:09:57Z</time>
      </trkpt>
      <trkpt lat="42.5111737289" lon="19.9695973098">
        <ele>1714.17</ele>
        <time>2019-07-08T16:10:05Z</time>
      </trkpt>
      <trkpt lat="42.5112883933" lon="19.9698219448">
        <ele>1714.17</ele>
        <time>2019-07-08T16:10:22Z</time>
      </trkpt>
      <trkpt lat="42.5113531854" lon="19.9699375313">
        <ele>1713.69</ele>
        <time>2019-07-08T16:10:32Z</time>
      </trkpt>
      <trkpt lat="42.5113971066" lon="19.9701545388">
        <ele>1713.21</ele>
        <time>2019-07-08T16:10:47Z</time>
      </trkpt>
      <trkpt lat="42.5114440452" lon="19.9703168124">
        <ele>1711.28</ele>
        <time>2019-07-08T16:11:00Z</time>
      </trkpt>
      <trkpt lat="42.5113989506" lon="19.9704175629">
        <ele>1709.36</ele>
        <time>2019-07-08T16:11:13Z</time>
      </trkpt>
      <trkpt lat="42.5114207435" lon="19.9705022201">
        <ele>1708.40</ele>
        <time>2019-07-08T16:11:24Z</time>
      </trkpt>
      <trkpt lat="42.5114593003" lon="19.9705586303">
        <ele>1707.44</ele>
        <time>2019-07-08T16:11:30Z</time>
      </trkpt>
      <trkpt lat="42.5114702806" lon="19.9705803394">
        <ele>1707.44</ele>
        <time>2019-07-08T16:11:32Z</time>
      </trkpt>
      <trkpt lat="42.5114465598" lon="19.9706875440">
        <ele>1705.52</ele>
        <time>2019-07-08T16:11:40Z</time>
      </trkpt>
      <trkpt lat="42.5114683527" lon="19.9708369933">
        <ele>1704.07</ele>
        <time>2019-07-08T16:11:49Z</time>
      </trkpt>
      <trkpt lat="42.5114732143" lon="19.9709172081">
        <ele>1703.11</ele>
        <time>2019-07-08T16:12:02Z</time>
      </trkpt>
      <trkpt lat="42.5114808418" lon="19.9710367341">
        <ele>1703.11</ele>
        <time>2019-07-08T16:12:16Z</time>
      </trkpt>
      <trkpt lat="42.5114846136" lon="19.9710519891">
        <ele>1702.63</ele>
        <time>2019-07-08T16:12:34Z</time>
      </trkpt>
      <trkpt lat="42.5114971865" lon="19.9710909650">
        <ele>1702.63</ele>
        <time>2019-07-08T16:12:51Z</time>
      </trkpt>
      <trkpt lat="42.5114979409" lon="19.9712198786">
        <ele>1702.15</ele>
        <time>2019-07-08T16:13:01Z</time>
      </trkpt>
      <trkpt lat="42.5115841068" lon="19.9713719264">
        <ele>1701.67</ele>
        <time>2019-07-08T16:13:16Z</time>
      </trkpt>
      <trkpt lat="42.5115872920" lon="19.9713972397">
        <ele>1701.67</ele>
        <time>2019-07-08T16:13:18Z</time>
      </trkpt>
      <trkpt lat="42.5115747191" lon="19.9714608584">
        <ele>1701.67</ele>
        <time>2019-07-08T16:13:23Z</time>
      </trkpt>
      <trkpt lat="42.5115480646" lon="19.9715352897">
        <ele>1701.19</ele>
        <time>2019-07-08T16:13:30Z</time>
      </trkpt>
      <trkpt lat="42.5115848612" lon="19.9716905225">
        <ele>1699.27</ele>
        <time>2019-07-08T16:13:44Z</time>
      </trkpt>
      <trkpt lat="42.5116482284" lon="19.9716773629">
        <ele>1698.79</ele>
        <time>2019-07-08T16:13:58Z</time>
      </trkpt>
      <trkpt lat="42.5117283594" lon="19.9716517981">
        <ele>1698.79</ele>
        <time>2019-07-08T16:14:12Z</time>
      </trkpt>
      <trkpt lat="42.5117813330" lon="19.9716578331">
        <ele>1700.23</ele>
        <time>2019-07-08T16:14:19Z</time>
      </trkpt>
      <trkpt lat="42.5118379109" lon="19.9716815539">
        <ele>1700.23</ele>
        <time>2019-07-08T16:14:32Z</time>
      </trkpt>
      <trkpt lat="42.5119061396" lon="19.9716228805">
        <ele>1701.19</ele>
        <time>2019-07-08T16:14:46Z</time>
      </trkpt>
      <trkpt lat="42.5119886175" lon="19.9716703221">
        <ele>1703.11</ele>
        <time>2019-07-08T16:15:04Z</time>
      </trkpt>
      <trkpt lat="42.5120214745" lon="19.9717518780">
        <ele>1701.67</ele>
        <time>2019-07-08T16:15:14Z</time>
      </trkpt>
      <trkpt lat="42.5120601989" lon="19.9718914367">
        <ele>1703.11</ele>
        <time>2019-07-08T16:15:27Z</time>
      </trkpt>
      <trkpt lat="42.5120632164" lon="19.9719033390">
        <ele>1703.11</ele>
        <time>2019-07-08T16:15:28Z</time>
      </trkpt>
      <trkpt lat="42.5121247396" lon="19.9720382039">
        <ele>1705.04</ele>
        <time>2019-07-08T16:15:44Z</time>
      </trkpt>
      <trkpt lat="42.5121591054" lon="19.9720889982">
        <ele>1706.96</ele>
        <time>2019-07-08T16:16:01Z</time>
      </trkpt>
      <trkpt lat="42.5121692475" lon="19.9721708056">
        <ele>1707.44</ele>
        <time>2019-07-08T16:16:13Z</time>
      </trkpt>
      <trkpt lat="42.5122112408" lon="19.9722652696">
        <ele>1707.44</ele>
        <time>2019-07-08T16:16:26Z</time>
      </trkpt>
      <trkpt lat="42.5122113246" lon="19.9723201711">
        <ele>1706.00</ele>
        <time>2019-07-08T16:16:32Z</time>
      </trkpt>
      <trkpt lat="42.5121673197" lon="19.9724604003">
        <ele>1704.07</ele>
        <time>2019-07-08T16:16:46Z</time>
      </trkpt>
      <trkpt lat="42.5121921301" lon="19.9725574628">
        <ele>1701.67</ele>
        <time>2019-07-08T16:16:58Z</time>
      </trkpt>
      <trkpt lat="42.5122159347" lon="19.9727057386">
        <ele>1698.79</ele>
        <time>2019-07-08T16:17:12Z</time>
      </trkpt>
      <trkpt lat="42.5121964049" lon="19.9728197325">
        <ele>1696.38</ele>
        <time>2019-07-08T16:17:24Z</time>
      </trkpt>
      <trkpt lat="42.5121668167" lon="19.9729405995">
        <ele>1694.46</ele>
        <time>2019-07-08T16:17:36Z</time>
      </trkpt>
      <trkpt lat="42.5121859275" lon="19.9731729459">
        <ele>1694.46</ele>
        <time>2019-07-08T16:17:53Z</time>
      </trkpt>
      <trkpt lat="42.5121792220" lon="19.9733363092">
        <ele>1693.02</ele>
        <time>2019-07-08T16:18:08Z</time>
      </trkpt>
      <trkpt lat="42.5121811498" lon="19.9734474532">
        <ele>1692.06</ele>
        <time>2019-07-08T16:18:21Z</time>
      </trkpt>
      <trkpt lat="42.5122019369" lon="19.9735821504">
        <ele>1691.10</ele>
        <time>2019-07-08T16:18:34Z</time>
      </trkpt>
      <trkpt lat="42.5122011825" lon="19.9737463519">
        <ele>1690.14</ele>
        <time>2019-07-08T16:18:46Z</time>
      </trkpt>
      <trkpt lat="42.5121878553" lon="19.9739126489">
        <ele>1689.17</ele>
        <time>2019-07-08T16:19:02Z</time>
      </trkpt>
      <trkpt lat="42.5121617876" lon="19.9740068614">
        <ele>1689.17</ele>
        <time>2019-07-08T16:19:12Z</time>
      </trkpt>
      <trkpt lat="42.5121015217" lon="19.9741989747">
        <ele>1688.69</ele>
        <time>2019-07-08T16:19:27Z</time>
      </trkpt>
      <trkpt lat="42.5120489672" lon="19.9743304867">
        <ele>1687.25</ele>
        <time>2019-07-08T16:19:42Z</time>
      </trkpt>
      <trkpt lat="42.5120435189" lon="19.9744852167">
        <ele>1687.25</ele>
        <time>2019-07-08T16:19:55Z</time>
      </trkpt>
      <trkpt lat="42.5120778009" lon="19.9745496735">
        <ele>1688.69</ele>
        <time>2019-07-08T16:20:02Z</time>
      </trkpt>
      <trkpt lat="42.5121221412" lon="19.9747040682">
        <ele>1691.10</ele>
        <time>2019-07-08T16:20:18Z</time>
      </trkpt>
      <trkpt lat="42.5122119114" lon="19.9747703690">
        <ele>1693.98</ele>
        <time>2019-07-08T16:20:34Z</time>
      </trkpt>
      <trkpt lat="42.5122585148" lon="19.9748053215">
        <ele>1695.42</ele>
        <time>2019-07-08T16:20:45Z</time>
      </trkpt>
      <trkpt lat="42.5122960657" lon="19.9749199022">
        <ele>1696.38</ele>
        <time>2019-07-08T16:21:03Z</time>
      </trkpt>
      <trkpt lat="42.5122930482" lon="19.9749809224">
        <ele>1697.83</ele>
        <time>2019-07-08T16:21:17Z</time>
      </trkpt>
      <trkpt lat="42.5123058725" lon="19.9750563595">
        <ele>1699.75</ele>
        <time>2019-07-08T16:21:32Z</time>
      </trkpt>
      <trkpt lat="42.5123325270" lon="19.9751130212">
        <ele>1701.19</ele>
        <time>2019-07-08T16:21:48Z</time>
      </trkpt>
      <trkpt lat="42.5123083871" lon="19.9752058927">
        <ele>1701.67</ele>
        <time>2019-07-08T16:22:04Z</time>
      </trkpt>
      <trkpt lat="42.5123082194" lon="19.9752280209">
        <ele>1700.23</ele>
        <time>2019-07-08T16:22:06Z</time>
      </trkpt>
      <trkpt lat="42.5123108178" lon="19.9753590301">
        <ele>1699.75</ele>
        <time>2019-07-08T16:22:18Z</time>
      </trkpt>
      <trkpt lat="42.5123721734" lon="19.9754712638">
        <ele>1701.19</ele>
        <time>2019-07-08T16:22:32Z</time>
      </trkpt>
      <trkpt lat="42.5124366302" lon="19.9755530711">
        <ele>1703.11</ele>
        <time>2019-07-08T16:22:47Z</time>
      </trkpt>
      <trkpt lat="42.5124443416" lon="19.9755770434">
        <ele>1701.67</ele>
        <time>2019-07-08T16:22:56Z</time>
      </trkpt>
      <trkpt lat="42.5124329422" lon="19.9757595174">
        <ele>1700.23</ele>
        <time>2019-07-08T16:23:10Z</time>
      </trkpt>
      <trkpt lat="42.5123921223" lon="19.9759155046">
        <ele>1698.79</ele>
        <time>2019-07-08T16:23:24Z</time>
      </trkpt>
      <trkpt lat="42.5123811420" lon="19.9760516267">
        <ele>1697.83</ele>
        <time>2019-07-08T16:23:38Z</time>
      </trkpt>
      <trkpt lat="42.5123608578" lon="19.9761602562">
        <ele>1696.38</ele>
        <time>2019-07-08T16:23:50Z</time>
      </trkpt>
      <trkpt lat="42.5124089699" lon="19.9762953725">
        <ele>1693.02</ele>
        <time>2019-07-08T16:24:05Z</time>
      </trkpt>
      <trkpt lat="42.5124236383" lon="19.9763252959">
        <ele>1693.02</ele>
        <time>2019-07-08T16:24:07Z</time>
      </trkpt>
      <trkpt lat="42.5124898553" lon="19.9763215240">
        <ele>1693.02</ele>
        <time>2019-07-08T16:24:18Z</time>
      </trkpt>
      <trkpt lat="42.5125842355" lon="19.9763706420">
        <ele>1693.98</ele>
        <time>2019-07-08T16:24:35Z</time>
      </trkpt>
      <trkpt lat="42.5126733351" lon="19.9763707258">
        <ele>1697.34</ele>
        <time>2019-07-08T16:24:50Z</time>
      </trkpt>
      <trkpt lat="42.5127105508" lon="19.9764497671">
        <ele>1697.83</ele>
        <time>2019-07-08T16:25:03Z</time>
      </trkpt>
      <trkpt lat="42.5126613490" lon="19.9765283894">
        <ele>1696.38</ele>
        <time>2019-07-08T16:25:16Z</time>
      </trkpt>
      <trkpt lat="42.5126719940" lon="19.9766283855">
        <ele>1695.42</ele>
        <time>2019-07-08T16:25:32Z</time>
      </trkpt>
      <trkpt lat="42.5127034262" lon="19.9767480791">
        <ele>1695.42</ele>
        <time>2019-07-08T16:25:51Z</time>
      </trkpt>
      <trkpt lat="42.5127253868" lon="19.9767797627">
        <ele>1696.86</ele>
        <time>2019-07-08T16:25:56Z</time>
      </trkpt>
      <trkpt lat="42.5127831381" lon="19.9768727180">
        <ele>1699.27</ele>
        <time>2019-07-08T16:26:11Z</time>
      </trkpt>
      <trkpt lat="42.5128121395" lon="19.9769998714">
        <ele>1697.34</ele>
        <time>2019-07-08T16:26:24Z</time>
      </trkpt>
      <trkpt lat="42.5128242094" lon="19.9770874623">
        <ele>1695.90</ele>
        <time>2019-07-08T16:26:36Z</time>
      </trkpt>
      <trkpt lat="42.5127830543" lon="19.9771508295">
        <ele>1693.02</ele>
        <time>2019-07-08T16:26:50Z</time>
      </trkpt>
      <trkpt lat="42.5127793662" lon="19.9771808367">
        <ele>1692.06</ele>
        <time>2019-07-08T16:27:04Z</time>
      </trkpt>
      <trkpt lat="42.5127723254" lon="19.9772121850">
        <ele>1691.10</ele>
        <time>2019-07-08T16:27:21Z</time>
      </trkpt>
      <trkpt lat="42.5127382949" lon="19.9772820063">
        <ele>1687.73</ele>
        <time>2019-07-08T16:27:34Z</time>
      </trkpt>
      <trkpt lat="42.5127076171" lon="19.9774141889">
        <ele>1685.33</ele>
        <time>2019-07-08T16:27:47Z</time>
      </trkpt>
      <trkpt lat="42.5126820523" lon="19.9775339663">
        <ele>1685.33</ele>
        <time>2019-07-08T16:28:02Z</time>
      </trkpt>
      <trkpt lat="42.5126812980" lon="19.9776255805">
        <ele>1685.33</ele>
        <time>2019-07-08T16:28:14Z</time>
      </trkpt>
      <trkpt lat="42.5126389693" lon="19.9777218886">
        <ele>1683.89</ele>
        <time>2019-07-08T16:28:28Z</time>
      </trkpt>
      <trkpt lat="42.5126033463" lon="19.9778655544">
        <ele>1682.93</ele>
        <time>2019-07-08T16:28:44Z</time>
      </trkpt>
      <trkpt lat="42.5126429088" lon="19.9780797120">
        <ele>1682.93</ele>
        <time>2019-07-08T16:29:00Z</time>
      </trkpt>
      <trkpt lat="42.5126338564" lon="19.9782040995">
        <ele>1682.93</ele>
        <time>2019-07-08T16:29:14Z</time>
      </trkpt>
      <trkpt lat="42.5126276538" lon="19.9783987273">
        <ele>1683.89</ele>
        <time>2019-07-08T16:29:31Z</time>
      </trkpt>
      <trkpt lat="42.5126183499" lon="19.9785696343">
        <ele>1684.37</ele>
        <time>2019-07-08T16:29:45Z</time>
      </trkpt>
      <trkpt lat="42.5126366224" lon="19.9787022360">
        <ele>1686.29</ele>
        <time>2019-07-08T16:29:58Z</time>
      </trkpt>
      <trkpt lat="42.5126578286" lon="19.9788469076">
        <ele>1686.29</ele>
        <time>2019-07-08T16:30:12Z</time>
      </trkpt>
      <trkpt lat="42.5126725808" lon="19.9789395276">
        <ele>1686.77</ele>
        <time>2019-07-08T16:30:26Z</time>
      </trkpt>
      <trkpt lat="42.5127230398" lon="19.9790686928">
        <ele>1687.25</ele>
        <time>2019-07-08T16:30:42Z</time>
      </trkpt>
      <trkpt lat="42.5127942022" lon="19.9791691918">
        <ele>1689.17</ele>
        <time>2019-07-08T16:31:00Z</time>
      </trkpt>
      <trkpt lat="42.5128377043" lon="19.9792437907">
        <ele>1690.62</ele>
        <time>2019-07-08T16:31:15Z</time>
      </trkpt>
      <trkpt lat="42.5128844753" lon="19.9792345706">
        <ele>1691.58</ele>
        <time>2019-07-08T16:31:33Z</time>
      </trkpt>
      <trkpt lat="42.5129040051" lon="19.9792735465">
        <ele>1693.50</ele>
        <time>2019-07-08T16:31:47Z</time>
      </trkpt>
      <trkpt lat="42.5129169133" lon="19.9793774821">
        <ele>1693.50</ele>
        <time>2019-07-08T16:32:03Z</time>
      </trkpt>
      <trkpt lat="42.5129475072" lon="19.9794623908">
        <ele>1694.94</ele>
        <time>2019-07-08T16:32:18Z</time>
      </trkpt>
      <trkpt lat="42.5130274706" lon="19.9795555137">
        <ele>1696.86</ele>
        <time>2019-07-08T16:32:35Z</time>
      </trkpt>
      <trkpt lat="42.5130833779" lon="19.9796275143">
        <ele>1697.83</ele>
        <time>2019-07-08T16:32:50Z</time>
      </trkpt>
      <trkpt lat="42.5130905863" lon="19.9796055537">
        <ele>1697.83</ele>
        <time>2019-07-08T16:33:12Z</time>
      </trkpt>
      <trkpt lat="42.5130956154" lon="19.9797862675">
        <ele>1698.79</ele>
        <time>2019-07-08T16:33:32Z</time>
      </trkpt>
      <trkpt lat="42.5130554661" lon="19.9799655564">
        <ele>1699.27</ele>
        <time>2019-07-08T16:33:48Z</time>
      </trkpt>
      <trkpt lat="42.5130505208" lon="19.9800574221">
        <ele>1701.19</ele>
        <time>2019-07-08T16:34:04Z</time>
      </trkpt>
      <trkpt lat="42.5130638480" lon="19.9801072106">
        <ele>1702.63</ele>
        <time>2019-07-08T16:34:20Z</time>
      </trkpt>
      <trkpt lat="42.5131111220" lon="19.9801910296">
        <ele>1705.04</ele>
        <time>2019-07-08T16:34:38Z</time>
      </trkpt>
      <trkpt lat="42.5131547917" lon="19.9802560732">
        <ele>1708.40</ele>
        <time>2019-07-08T16:34:56Z</time>
      </trkpt>
      <trkpt lat="42.5132289715" lon="19.9803713243">
        <ele>1710.80</ele>
        <time>2019-07-08T16:35:12Z</time>
      </trkpt>
      <trkpt lat="42.5132568832" lon="19.9805009086">
        <ele>1712.73</ele>
        <time>2019-07-08T16:35:29Z</time>
      </trkpt>
      <trkpt lat="42.5133177359" lon="19.9805799499">
        <ele>1715.13</ele>
        <time>2019-07-08T16:35:44Z</time>
      </trkpt>
      <trkpt lat="42.5133443065" lon="19.9806964584">
        <ele>1715.13</ele>
        <time>2019-07-08T16:35:58Z</time>
      </trkpt>
      <trkpt lat="42.5133441389" lon="19.9807198439">
        <ele>1713.69</ele>
        <time>2019-07-08T16:36:01Z</time>
      </trkpt>
      <trkpt lat="42.5133120362" lon="19.9807907548">
        <ele>1712.25</ele>
        <time>2019-07-08T16:36:15Z</time>
      </trkpt>
      <trkpt lat="42.5133688655" lon="19.9808327481">
        <ele>1712.25</ele>
        <time>2019-07-08T16:36:29Z</time>
      </trkpt>
      <trkpt lat="42.5133876409" lon="19.9808669463">
        <ele>1712.25</ele>
        <time>2019-07-08T16:36:42Z</time>
      </trkpt>
      <trkpt lat="42.5133997109" lon="19.9809222668">
        <ele>1710.80</ele>
        <time>2019-07-08T16:36:58Z</time>
      </trkpt>
      <trkpt lat="42.5134622399" lon="19.9809956923">
        <ele>1708.40</ele>
        <time>2019-07-08T16:37:12Z</time>
      </trkpt>
      <trkpt lat="42.5134826917" lon="19.9810970295">
        <ele>1708.40</ele>
        <time>2019-07-08T16:37:28Z</time>
      </trkpt>
      <trkpt lat="42.5134872179" lon="19.9811860453">
        <ele>1707.92</ele>
        <time>2019-07-08T16:37:43Z</time>
      </trkpt>
      <trkpt lat="42.5134311430" lon="19.9812714569">
        <ele>1706.48</ele>
        <time>2019-07-08T16:38:00Z</time>
      </trkpt>
      <trkpt lat="42.5133961905" lon="19.9814430345">
        <ele>1705.04</ele>
        <time>2019-07-08T16:38:14Z</time>
      </trkpt>
      <trkpt lat="42.5133980345" lon="19.9816622213">
        <ele>1702.63</ele>
        <time>2019-07-08T16:38:30Z</time>
      </trkpt>
      <trkpt lat="42.5133474078" lon="19.9817888718">
        <ele>1700.23</ele>
        <time>2019-07-08T16:38:44Z</time>
      </trkpt>
      <trkpt lat="42.5133251958" lon="19.9818851799">
        <ele>1696.86</ele>
        <time>2019-07-08T16:38:58Z</time>
      </trkpt>
      <trkpt lat="42.5133224297" lon="19.9820689950">
        <ele>1694.46</ele>
        <time>2019-07-08T16:39:12Z</time>
      </trkpt>
      <trkpt lat="42.5133376010" lon="19.9821427558">
        <ele>1693.02</ele>
        <time>2019-07-08T16:39:23Z</time>
      </trkpt>
      <trkpt lat="42.5133862998" lon="19.9821972381">
        <ele>1692.06</ele>
        <time>2019-07-08T16:39:38Z</time>
      </trkpt>
      <trkpt lat="42.5134266168" lon="19.9823060352">
        <ele>1689.17</ele>
        <time>2019-07-08T16:39:49Z</time>
      </trkpt>
      <trkpt lat="42.5134410337" lon="19.9823786225">
        <ele>1685.81</ele>
        <time>2019-07-08T16:39:59Z</time>
      </trkpt>
      <trkpt lat="42.5134621561" lon="19.9824976455">
        <ele>1683.41</ele>
        <time>2019-07-08T16:40:10Z</time>
      </trkpt>
      <trkpt lat="42.5134657603" lon="19.9825264793">
        <ele>1682.44</ele>
        <time>2019-07-08T16:40:13Z</time>
      </trkpt>
      <trkpt lat="42.5134681910" lon="19.9826014973">
        <ele>1679.08</ele>
        <time>2019-07-08T16:40:22Z</time>
      </trkpt>
      <trkpt lat="42.5134524330" lon="19.9826885015">
        <ele>1677.64</ele>
        <time>2019-07-08T16:40:38Z</time>
      </trkpt>
      <trkpt lat="42.5134681910" lon="19.9827032536">
        <ele>1676.68</ele>
        <time>2019-07-08T16:40:54Z</time>
      </trkpt>
      <trkpt lat="42.5134722143" lon="19.9827523716">
        <ele>1674.27</ele>
        <time>2019-07-08T16:41:13Z</time>
      </trkpt>
      <trkpt lat="42.5134717114" lon="19.9828330893">
        <ele>1670.91</ele>
        <time>2019-07-08T16:41:23Z</time>
      </trkpt>
      <trkpt lat="42.5135338213" lon="19.9828932714">
        <ele>1667.54</ele>
        <time>2019-07-08T16:41:34Z</time>
      </trkpt>
      <trkpt lat="42.5135453884" lon="19.9829853885">
        <ele>1664.18</ele>
        <time>2019-07-08T16:41:43Z</time>
      </trkpt>
      <trkpt lat="42.5135829393" lon="19.9830550421">
        <ele>1660.81</ele>
        <time>2019-07-08T16:41:56Z</time>
      </trkpt>
      <trkpt lat="42.5136954244" lon="19.9830915872">
        <ele>1658.89</ele>
        <time>2019-07-08T16:42:09Z</time>
      </trkpt>
      <trkpt lat="42.5137326401" lon="19.9831807707">
        <ele>1655.53</ele>
        <time>2019-07-08T16:42:20Z</time>
      </trkpt>
      <trkpt lat="42.5137763098" lon="19.9831961934">
        <ele>1653.60</ele>
        <time>2019-07-08T16:42:33Z</time>
      </trkpt>
      <trkpt lat="42.5137867033" lon="19.9832629133">
        <ele>1650.72</ele>
        <time>2019-07-08T16:42:49Z</time>
      </trkpt>
      <trkpt lat="42.5137945823" lon="19.9832663499">
        <ele>1650.72</ele>
        <time>2019-07-08T16:42:50Z</time>
      </trkpt>
      <trkpt lat="42.5138367433" lon="19.9833381828">
        <ele>1647.36</ele>
        <time>2019-07-08T16:43:01Z</time>
      </trkpt>
      <trkpt lat="42.5138789043" lon="19.9833992869">
        <ele>1644.47</ele>
        <time>2019-07-08T16:43:14Z</time>
      </trkpt>
      <trkpt lat="42.5139466301" lon="19.9834711198">
        <ele>1641.11</ele>
        <time>2019-07-08T16:43:26Z</time>
      </trkpt>
      <trkpt lat="42.5139431097" lon="19.9835383426">
        <ele>1637.74</ele>
        <time>2019-07-08T16:43:38Z</time>
      </trkpt>
      <trkpt lat="42.5140004419" lon="19.9835892208">
        <ele>1634.38</ele>
        <time>2019-07-08T16:43:50Z</time>
      </trkpt>
      <trkpt lat="42.5140455365" lon="19.9836991914">
        <ele>1631.01</ele>
        <time>2019-07-08T16:44:00Z</time>
      </trkpt>
      <trkpt lat="42.5140678324" lon="19.9837608822">
        <ele>1628.13</ele>
        <time>2019-07-08T16:44:16Z</time>
      </trkpt>
      <trkpt lat="42.5141298585" lon="19.9839108344">
        <ele>1624.77</ele>
        <time>2019-07-08T16:44:30Z</time>
      </trkpt>
      <trkpt lat="42.5141648948" lon="19.9839861039">
        <ele>1622.36</ele>
        <time>2019-07-08T16:44:46Z</time>
      </trkpt>
      <trkpt lat="42.5141850114" lon="19.9840748683">
        <ele>1620.44</ele>
        <time>2019-07-08T16:45:03Z</time>
      </trkpt>
      <trkpt lat="42.5141414255" lon="19.9840549193">
        <ele>1619.96</ele>
        <time>2019-07-08T16:45:24Z</time>
      </trkpt>
      <trkpt lat="42.5141095743" lon="19.9841472879">
        <ele>1618.04</ele>
        <time>2019-07-08T16:45:39Z</time>
      </trkpt>
      <trkpt lat="42.5141200516" lon="19.9842238147">
        <ele>1614.19</ele>
        <time>2019-07-08T16:45:54Z</time>
      </trkpt>
      <trkpt lat="42.5141032040" lon="19.9843030237">
        <ele>1612.27</ele>
        <time>2019-07-08T16:46:07Z</time>
      </trkpt>
      <trkpt lat="42.5140292756" lon="19.9843448494">
        <ele>1611.79</ele>
        <time>2019-07-08T16:46:20Z</time>
      </trkpt>
      <trkpt lat="42.5139229931" lon="19.9843533989">
        <ele>1611.31</ele>
        <time>2019-07-08T16:46:32Z</time>
      </trkpt>
      <trkpt lat="42.5137981027" lon="19.9843572546">
        <ele>1610.83</ele>
        <time>2019-07-08T16:46:46Z</time>
      </trkpt>
      <trkpt lat="42.5137511641" lon="19.9843677320">
        <ele>1610.83</ele>
        <time>2019-07-08T16:47:00Z</time>
      </trkpt>
      <trkpt lat="42.5136789959" lon="19.9843506329">
        <ele>1611.79</ele>
        <time>2019-07-08T16:47:17Z</time>
      </trkpt>
      <trkpt lat="42.5135935005" lon="19.9843137525">
        <ele>1612.75</ele>
        <time>2019-07-08T16:47:31Z</time>
      </trkpt>
      <trkpt lat="42.5135754794" lon="19.9842710048">
        <ele>1613.23</ele>
        <time>2019-07-08T16:47:57Z</time>
      </trkpt>
      <trkpt lat="42.5135546084" lon="19.9842746090">
        <ele>1613.23</ele>
        <time>2019-07-08T16:48:08Z</time>
      </trkpt>
      <trkpt lat="42.5134523492" lon="19.9842156842">
        <ele>1614.19</ele>
        <time>2019-07-08T16:48:22Z</time>
      </trkpt>
      <trkpt lat="42.5134194084" lon="19.9842023570">
        <ele>1614.19</ele>
        <time>2019-07-08T16:48:26Z</time>
      </trkpt>
      <trkpt lat="42.5133930054" lon="19.9841829110">
        <ele>1614.19</ele>
        <time>2019-07-08T16:48:30Z</time>
      </trkpt>
      <trkpt lat="42.5132672768" lon="19.9841460306">
        <ele>1614.67</ele>
        <time>2019-07-08T16:48:45Z</time>
      </trkpt>
      <trkpt lat="42.5131875649" lon="19.9841342960">
        <ele>1615.15</ele>
        <time>2019-07-08T16:48:55Z</time>
      </trkpt>
      <trkpt lat="42.5131614972" lon="19.9841194600">
        <ele>1615.15</ele>
        <time>2019-07-08T16:48:58Z</time>
      </trkpt>
      <trkpt lat="42.5130605791" lon="19.9840851780">
        <ele>1617.07</ele>
        <time>2019-07-08T16:49:12Z</time>
      </trkpt>
      <trkpt lat="42.5129450765" lon="19.9840612896">
        <ele>1618.52</ele>
        <time>2019-07-08T16:49:25Z</time>
      </trkpt>
      <trkpt lat="42.5128303282" lon="19.9840358086">
        <ele>1619.96</ele>
        <time>2019-07-08T16:49:38Z</time>
      </trkpt>
      <trkpt lat="42.5128047634" lon="19.9840340484">
        <ele>1620.44</ele>
        <time>2019-07-08T16:49:41Z</time>
      </trkpt>
      <trkpt lat="42.5126850698" lon="19.9839999340">
        <ele>1621.40</ele>
        <time>2019-07-08T16:49:54Z</time>
      </trkpt>
      <trkpt lat="42.5125622749" lon="19.9839653168">
        <ele>1623.32</ele>
        <time>2019-07-08T16:50:08Z</time>
      </trkpt>
      <trkpt lat="42.5124853291" lon="19.9839254189">
        <ele>1625.25</ele>
        <time>2019-07-08T16:50:19Z</time>
      </trkpt>
      <trkpt lat="42.5124210399" lon="19.9838742055">
        <ele>1627.17</ele>
        <time>2019-07-08T16:50:33Z</time>
      </trkpt>
      <trkpt lat="42.5124066230" lon="19.9838501494">
        <ele>1627.17</ele>
        <time>2019-07-08T16:50:36Z</time>
      </trkpt>
      <trkpt lat="42.5123233907" lon="19.9837050587">
        <ele>1628.13</ele>
        <time>2019-07-08T16:50:50Z</time>
      </trkpt>
      <trkpt lat="42.5122365542" lon="19.9835767318">
        <ele>1628.13</ele>
        <time>2019-07-08T16:51:03Z</time>
      </trkpt>
      <trkpt lat="42.5122280046" lon="19.9835699424">
        <ele>1628.13</ele>
        <time>2019-07-08T16:51:04Z</time>
      </trkpt>
      <trkpt lat="42.5122033618" lon="19.9835718703">
        <ele>1628.13</ele>
        <time>2019-07-08T16:51:07Z</time>
      </trkpt>
      <trkpt lat="42.5121711753" lon="19.9836268555">
        <ele>1628.13</ele>
        <time>2019-07-08T16:51:21Z</time>
      </trkpt>
      <trkpt lat="42.5121622067" lon="19.9836705253">
        <ele>1628.13</ele>
        <time>2019-07-08T16:51:41Z</time>
      </trkpt>
      <trkpt lat="42.5121681578" lon="19.9836714473">
        <ele>1628.13</ele>
        <time>2019-07-08T16:52:02Z</time>
      </trkpt>
      <trkpt lat="42.5121506397" lon="19.9836748838">
        <ele>1628.13</ele>
        <time>2019-07-08T16:52:24Z</time>
      </trkpt>
      <trkpt lat="42.5121617038" lon="19.9836733751">
        <ele>1626.69</ele>
        <time>2019-07-08T16:52:36Z</time>
      </trkpt>
      <trkpt lat="42.5121675711" lon="19.9836266879">
        <ele>1626.21</ele>
        <time>2019-07-08T16:52:56Z</time>
      </trkpt>
      <trkpt lat="42.5121713430" lon="19.9836487323">
        <ele>1626.21</ele>
        <time>2019-07-08T16:53:33Z</time>
      </trkpt>
      <trkpt lat="42.5121750310" lon="19.9835895561">
        <ele>1626.69</ele>
        <time>2019-07-08T16:54:08Z</time>
      </trkpt>
      <trkpt lat="42.5121484604" lon="19.9836503249">
        <ele>1626.21</ele>
        <time>2019-07-08T16:54:51Z</time>
      </trkpt>
      <trkpt lat="42.5121332053" lon="19.9836618919">
        <ele>1626.21</ele>
        <time>2019-07-08T16:55:23Z</time>
      </trkpt>
      <trkpt lat="42.5121325348" lon="19.9836297054">
        <ele>1626.21</ele>
        <time>2019-07-08T16:55:53Z</time>
      </trkpt>
      <trkpt lat="42.5121795572" lon="19.9836506601">
        <ele>1626.69</ele>
        <time>2019-07-08T16:56:29Z</time>
      </trkpt>
      <trkpt lat="42.5121575966" lon="19.9836476427">
        <ele>1626.69</ele>
        <time>2019-07-08T16:56:49Z</time>
      </trkpt>
      <trkpt lat="42.5121559203" lon="19.9836286996">
        <ele>1626.21</ele>
        <time>2019-07-08T16:57:21Z</time>
      </trkpt>
      <trkpt lat="42.5121614523" lon="19.9836437870">
        <ele>1627.65</ele>
        <time>2019-07-08T16:57:33Z</time>
      </trkpt>
      <trkpt lat="42.5121625420" lon="19.9836418591">
        <ele>1626.69</ele>
        <time>2019-07-08T16:57:35Z</time>
      </trkpt>
      <trkpt lat="42.5121685769" lon="19.9836343154">
        <ele>1626.21</ele>
        <time>2019-07-08T16:58:01Z</time>
      </trkpt>
      <trkpt lat="42.5121693313" lon="19.9836256821">
        <ele>1626.21</ele>
        <time>2019-07-08T16:58:39Z</time>
      </trkpt>
      <trkpt lat="42.5121694990" lon="19.9836184736">
        <ele>1626.21</ele>
        <time>2019-07-08T16:59:10Z</time>
      </trkpt>
      <trkpt lat="42.5121866819" lon="19.9836281966">
        <ele>1626.21</ele>
        <time>2019-07-08T16:59:35Z</time>
      </trkpt>
      <trkpt lat="42.5121674873" lon="19.9836297892">
        <ele>1626.21</ele>
        <time>2019-07-08T17:00:03Z</time>
      </trkpt>
      <trkpt lat="42.5121909566" lon="19.9836542644">
        <ele>1626.21</ele>
        <time>2019-07-08T17:00:49Z</time>
      </trkpt>
      <trkpt lat="42.5122086424" lon="19.9836328905">
        <ele>1626.21</ele>
        <time>2019-07-08T17:01:35Z</time>
      </trkpt>
      <trkpt lat="42.5121901184" lon="19.9836352374">
        <ele>1626.21</ele>
        <time>2019-07-08T17:02:03Z</time>
      </trkpt>
      <trkpt lat="42.5121765397" lon="19.9836440384">
        <ele>1625.73</ele>
        <time>2019-07-08T17:02:36Z</time>
      </trkpt>
      <trkpt lat="42.5121893641" lon="19.9836285319">
        <ele>1625.73</ele>
        <time>2019-07-08T17:03:05Z</time>
      </trkpt>
      <trkpt lat="42.5121947285" lon="19.9835997820">
        <ele>1625.73</ele>
        <time>2019-07-08T17:03:28Z</time>
      </trkpt>
      <trkpt lat="42.5121959019" lon="19.9836229160">
        <ele>1625.25</ele>
        <time>2019-07-08T17:03:50Z</time>
      </trkpt>
      <trkpt lat="42.5121861789" lon="19.9836394284">
        <ele>1625.73</ele>
        <time>2019-07-08T17:04:20Z</time>
      </trkpt>
      <trkpt lat="42.5121974107" lon="19.9836447090">
        <ele>1625.73</ele>
        <time>2019-07-08T17:04:51Z</time>
      </trkpt>
      <trkpt lat="42.5121910404" lon="19.9836079124">
        <ele>1625.73</ele>
        <time>2019-07-08T17:05:18Z</time>
      </trkpt>
      <trkpt lat="42.5121839996" lon="19.9836506601">
        <ele>1625.73</ele>
        <time>2019-07-08T17:05:52Z</time>
      </trkpt>
      <trkpt lat="42.5121827424" lon="19.9836330581">
        <ele>1625.73</ele>
        <time>2019-07-08T17:06:18Z</time>
      </trkpt>
      <trkpt lat="42.5121540762" lon="19.9836399313">
        <ele>1625.73</ele>
        <time>2019-07-08T17:06:44Z</time>
      </trkpt>
      <trkpt lat="42.5122422539" lon="19.9836128578">
        <ele>1625.25</ele>
        <time>2019-07-08T17:07:22Z</time>
      </trkpt>
      <trkpt lat="42.5122082233" lon="19.9836232513">
        <ele>1625.25</ele>
        <time>2019-07-08T17:07:51Z</time>
      </trkpt>
      <trkpt lat="42.5121869333" lon="19.9836483132">
        <ele>1625.25</ele>
        <time>2019-07-08T17:08:12Z</time>
      </trkpt>
      <trkpt lat="42.5121908728" lon="19.9836273585">
        <ele>1624.77</ele>
        <time>2019-07-08T17:08:46Z</time>
      </trkpt>
      <trkpt lat="42.5121748634" lon="19.9836396798">
        <ele>1624.77</ele>
        <time>2019-07-08T17:09:24Z</time>
      </trkpt>
      <trkpt lat="42.5121694151" lon="19.9836351536">
        <ele>1624.77</ele>
        <time>2019-07-08T17:09:51Z</time>
      </trkpt>
      <trkpt lat="42.5121829100" lon="19.9836446252">
        <ele>1624.77</ele>
        <time>2019-07-08T17:10:28Z</time>
      </trkpt>
      <trkpt lat="42.5121813174" lon="19.9836297054">
        <ele>1624.77</ele>
        <time>2019-07-08T17:10:52Z</time>
      </trkpt>
      <trkpt lat="42.5121866819" lon="19.9836453795">
        <ele>1625.25</ele>
        <time>2019-07-08T17:11:16Z</time>
      </trkpt>
      <trkpt lat="42.5121955667" lon="19.9836020451">
        <ele>1625.25</ele>
        <time>2019-07-08T17:11:40Z</time>
      </trkpt>
      <trkpt lat="42.5121800601" lon="19.9836230837">
        <ele>1625.25</ele>
        <time>2019-07-08T17:12:12Z</time>
      </trkpt>
      <trkpt lat="42.5121953990" lon="19.9836343993">
        <ele>1625.25</ele>
        <time>2019-07-08T17:12:43Z</time>
      </trkpt>
      <trkpt lat="42.5121933036" lon="19.9836149532">
        <ele>1625.25</ele>
        <time>2019-07-08T17:13:07Z</time>
      </trkpt>
      <trkpt lat="42.5122040324" lon="19.9836220779">
        <ele>1625.73</ele>
        <time>2019-07-08T17:13:46Z</time>
      </trkpt>
      <trkpt lat="42.5121698342" lon="19.9836229160">
        <ele>1625.73</ele>
        <time>2019-07-08T17:14:25Z</time>
      </trkpt>
      <trkpt lat="42.5121746957" lon="19.9836234190">
        <ele>1625.73</ele>
        <time>2019-07-08T17:14:54Z</time>
      </trkpt>
      <trkpt lat="42.5121612009" lon="19.9836108461">
        <ele>1627.17</ele>
        <time>2019-07-08T17:15:13Z</time>
      </trkpt>
      <trkpt lat="42.5121817365" lon="19.9836415239">
        <ele>1627.17</ele>
        <time>2019-07-08T17:15:37Z</time>
      </trkpt>
      <trkpt lat="42.5121843349" lon="19.9836485647">
        <ele>1627.17</ele>
        <time>2019-07-08T17:16:05Z</time>
      </trkpt>
      <trkpt lat="42.5121854246" lon="19.9836370815">
        <ele>1627.17</ele>
        <time>2019-07-08T17:16:25Z</time>
      </trkpt>
      <trkpt lat="42.5121974945" lon="19.9836392608">
        <ele>1627.17</ele>
        <time>2019-07-08T17:16:50Z</time>
      </trkpt>
      <trkpt lat="42.5121788867" lon="19.9836148694">
        <ele>1627.17</ele>
        <time>2019-07-08T17:17:18Z</time>
      </trkpt>
      <trkpt lat="42.5121850893" lon="19.9836134445">
        <ele>1627.17</ele>
        <time>2019-07-08T17:17:55Z</time>
      </trkpt>
      <trkpt lat="42.5121956505" lon="19.9836151209">
        <ele>1627.17</ele>
        <time>2019-07-08T17:18:19Z</time>
      </trkpt>
      <trkpt lat="42.5121843349" lon="19.9836232513">
        <ele>1627.65</ele>
        <time>2019-07-08T17:18:42Z</time>
      </trkpt>
      <trkpt lat="42.5121751148" lon="19.9836438708">
        <ele>1627.17</ele>
        <time>2019-07-08T17:19:07Z</time>
      </trkpt>
      <trkpt lat="42.5121787190" lon="19.9836271070">
        <ele>1627.65</ele>
        <time>2019-07-08T17:19:38Z</time>
      </trkpt>
      <trkpt lat="42.5121745281" lon="19.9835901428">
        <ele>1627.65</ele>
        <time>2019-07-08T17:20:01Z</time>
      </trkpt>
      <trkpt lat="42.5121847540" lon="19.9836048950">
        <ele>1627.65</ele>
        <time>2019-07-08T17:20:23Z</time>
      </trkpt>
      <trkpt lat="42.5121920463" lon="19.9836133607">
        <ele>1627.65</ele>
        <time>2019-07-08T17:20:51Z</time>
      </trkpt>
      <trkpt lat="42.5121946447" lon="19.9836183898">
        <ele>1627.65</ele>
        <time>2019-07-08T17:21:12Z</time>
      </trkpt>
      <trkpt lat="42.5121796411" lon="19.9836264364">
        <ele>1627.65</ele>
        <time>2019-07-08T17:21:37Z</time>
      </trkpt>
      <trkpt lat="42.5121757016" lon="19.9836173002">
        <ele>1627.65</ele>
        <time>2019-07-08T17:21:58Z</time>
      </trkpt>
      <trkpt lat="42.5121880230" lon="19.9836312141">
        <ele>1627.65</ele>
        <time>2019-07-08T17:22:29Z</time>
      </trkpt>
      <trkpt lat="42.5121916272" lon="19.9836501572">
        <ele>1627.65</ele>
        <time>2019-07-08T17:22:47Z</time>
      </trkpt>
      <trkpt lat="42.5121563394" lon="19.9836482294">
        <ele>1627.65</ele>
        <time>2019-07-08T17:23:11Z</time>
      </trkpt>
      <trkpt lat="42.5121780485" lon="19.9836338125">
        <ele>1627.65</ele>
        <time>2019-07-08T17:23:32Z</time>
      </trkpt>
      <trkpt lat="42.5121737737" lon="19.9836203177">
        <ele>1627.65</ele>
        <time>2019-07-08T17:24:04Z</time>
      </trkpt>
      <trkpt lat="42.5121880230" lon="19.9836383387">
        <ele>1627.65</ele>
        <time>2019-07-08T17:24:28Z</time>
      </trkpt>
      <trkpt lat="42.5121656433" lon="19.9836345669">
        <ele>1627.65</ele>
        <time>2019-07-08T17:24:44Z</time>
      </trkpt>
      <trkpt lat="42.5121648051" lon="19.9836692680">
        <ele>1627.65</ele>
        <time>2019-07-08T17:25:07Z</time>
      </trkpt>
      <trkpt lat="42.5121736061" lon="19.9836459663">
        <ele>1627.65</ele>
        <time>2019-07-08T17:25:32Z</time>
      </trkpt>
      <trkpt lat="42.5121747795" lon="19.9836120196">
        <ele>1627.65</ele>
        <time>2019-07-08T17:25:57Z</time>
      </trkpt>
      <trkpt lat="42.5121906213" lon="19.9836011231">
        <ele>1627.65</ele>
        <time>2019-07-08T17:26:20Z</time>
      </trkpt>
      <trkpt lat="42.5121659786" lon="19.9836406857">
        <ele>1627.65</ele>
        <time>2019-07-08T17:26:45Z</time>
      </trkpt>
      <trkpt lat="42.5121856760" lon="19.9835995305">
        <ele>1628.13</ele>
        <time>2019-07-08T17:27:18Z</time>
      </trkpt>
      <trkpt lat="42.5121891126" lon="19.9836086668">
        <ele>1628.13</ele>
        <time>2019-07-08T17:27:44Z</time>
      </trkpt>
      <trkpt lat="42.5121917948" lon="19.9836166296">
        <ele>1628.13</ele>
        <time>2019-07-08T17:28:08Z</time>
      </trkpt>
      <trkpt lat="42.5121753663" lon="19.9836498220">
        <ele>1628.13</ele>
        <time>2019-07-08T17:28:35Z</time>
      </trkpt>
      <trkpt lat="42.5121928845" lon="19.9836078286">
        <ele>1628.13</ele>
        <time>2019-07-08T17:28:52Z</time>
      </trkpt>
      <trkpt lat="42.5122157671" lon="19.9836316332">
        <ele>1628.13</ele>
        <time>2019-07-08T17:29:17Z</time>
      </trkpt>
      <trkpt lat="42.5122066308" lon="19.9836068228">
        <ele>1628.13</ele>
        <time>2019-07-08T17:29:39Z</time>
      </trkpt>
      <trkpt lat="42.5121589378" lon="19.9836078286">
        <ele>1628.13</ele>
        <time>2019-07-08T17:30:06Z</time>
      </trkpt>
      <trkpt lat="42.5121743605" lon="19.9836215749">
        <ele>1628.13</ele>
        <time>2019-07-08T17:30:34Z</time>
      </trkpt>
      <trkpt lat="42.5121746119" lon="19.9836027157">
        <ele>1628.13</ele>
        <time>2019-07-08T17:31:04Z</time>
      </trkpt>
      <trkpt lat="42.5121918786" lon="19.9836179707">
        <ele>1628.13</ele>
        <time>2019-07-08T17:31:38Z</time>
      </trkpt>
      <trkpt lat="42.5121767912" lon="19.9836116843">
        <ele>1628.13</ele>
        <time>2019-07-08T17:32:14Z</time>
      </trkpt>
      <trkpt lat="42.5121659786" lon="19.9836162943">
        <ele>1628.13</ele>
        <time>2019-07-08T17:32:37Z</time>
      </trkpt>
      <trkpt lat="42.5121679064" lon="19.9836229160">
        <ele>1628.13</ele>
        <time>2019-07-08T17:33:10Z</time>
      </trkpt>
      <trkpt lat="42.5121741928" lon="19.9836211558">
        <ele>1628.13</ele>
        <time>2019-07-08T17:33:50Z</time>
      </trkpt>
      <trkpt lat="42.5121700019" lon="19.9836126063">
        <ele>1628.13</ele>
        <time>2019-07-08T17:34:29Z</time>
      </trkpt>
      <trkpt lat="42.5121872686" lon="19.9836116843">
        <ele>1628.13</ele>
        <time>2019-07-08T17:34:56Z</time>
      </trkpt>
      <trkpt lat="42.5121878553" lon="19.9836186413">
        <ele>1628.13</ele>
        <time>2019-07-08T17:35:24Z</time>
      </trkpt>
      <trkpt lat="42.5121817365" lon="19.9836027995">
        <ele>1628.13</ele>
        <time>2019-07-08T17:35:57Z</time>
      </trkpt>
      <trkpt lat="42.5121624582" lon="19.9835880473">
        <ele>1628.13</ele>
        <time>2019-07-08T17:36:28Z</time>
      </trkpt>
      <trkpt lat="42.5121711753" lon="19.9836498220">
        <ele>1627.65</ele>
        <time>2019-07-08T17:37:06Z</time>
      </trkpt>
      <trkpt lat="42.5121607818" lon="19.9836456310">
        <ele>1627.65</ele>
        <time>2019-07-08T17:37:31Z</time>
      </trkpt>
      <trkpt lat="42.5121709239" lon="19.9836499058">
        <ele>1628.13</ele>
        <time>2019-07-08T17:38:06Z</time>
      </trkpt>
      <trkpt lat="42.5121700019" lon="19.9836492352">
        <ele>1628.13</ele>
        <time>2019-07-08T17:38:27Z</time>
      </trkpt>
      <trkpt lat="42.5121656433" lon="19.9836479779">
        <ele>1628.13</ele>
        <time>2019-07-08T17:39:05Z</time>
      </trkpt>
      <trkpt lat="42.5121765397" lon="19.9836394284">
        <ele>1628.13</ele>
        <time>2019-07-08T17:39:44Z</time>
      </trkpt>
      <trkpt lat="42.5121600274" lon="19.9836282805">
        <ele>1628.13</ele>
        <time>2019-07-08T17:40:12Z</time>
      </trkpt>
      <trkpt lat="42.5121707562" lon="19.9836311303">
        <ele>1628.13</ele>
        <time>2019-07-08T17:40:57Z</time>
      </trkpt>
      <trkpt lat="42.5121787190" lon="19.9836253468">
        <ele>1628.13</ele>
        <time>2019-07-08T17:41:35Z</time>
      </trkpt>
      <trkpt lat="42.5121692475" lon="19.9836477265">
        <ele>1628.13</ele>
        <time>2019-07-08T17:42:06Z</time>
      </trkpt>
      <trkpt lat="42.5121704210" lon="19.9836504925">
        <ele>1628.13</ele>
        <time>2019-07-08T17:42:40Z</time>
      </trkpt>
      <trkpt lat="42.5121645536" lon="19.9836273585">
        <ele>1628.13</ele>
        <time>2019-07-08T17:43:13Z</time>
      </trkpt>
      <trkpt lat="42.5121526513" lon="19.9836668372">
        <ele>1628.13</ele>
        <time>2019-07-08T17:43:52Z</time>
      </trkpt>
      <trkpt lat="42.5121699180" lon="19.9836733751">
        <ele>1628.13</ele>
        <time>2019-07-08T17:44:31Z</time>
      </trkpt>
      <trkpt lat="42.5121726841" lon="19.9836494867">
        <ele>1628.13</ele>
        <time>2019-07-08T17:45:01Z</time>
      </trkpt>
      <trkpt lat="42.5121754501" lon="19.9836244248">
        <ele>1629.57</ele>
        <time>2019-07-08T17:45:27Z</time>
      </trkpt>
      <trkpt lat="42.5121564232" lon="19.9836153723">
        <ele>1629.57</ele>
        <time>2019-07-08T17:45:52Z</time>
      </trkpt>
      <trkpt lat="42.5121858437" lon="19.9836350698">
        <ele>1629.57</ele>
        <time>2019-07-08T17:46:21Z</time>
      </trkpt>
      <trkpt lat="42.5121701695" lon="19.9836278614">
        <ele>1629.57</ele>
        <time>2019-07-08T17:47:05Z</time>
      </trkpt>
      <trkpt lat="42.5121667329" lon="19.9835831858">
        <ele>1629.57</ele>
        <time>2019-07-08T17:47:40Z</time>
      </trkpt>
      <trkpt lat="42.5121669844" lon="19.9835856166">
        <ele>1630.05</ele>
        <time>2019-07-08T17:47:57Z</time>
      </trkpt>
      <trkpt lat="42.5121527351" lon="19.9837050587">
        <ele>1599.29</ele>
        <time>2019-07-09T06:34:47Z</time>
      </trkpt>
      <trkpt lat="42.5121399947" lon="19.9837437831">
        <ele>1599.29</ele>
        <time>2019-07-09T06:35:09Z</time>
      </trkpt>
      <trkpt lat="42.5122007634" lon="19.9836033024">
        <ele>1619.96</ele>
        <time>2019-07-09T06:35:55Z</time>
      </trkpt>
      <trkpt lat="42.5122099835" lon="19.9836062361">
        <ele>1622.84</ele>
        <time>2019-07-09T06:36:06Z</time>
      </trkpt>
      <trkpt lat="42.5122095644" lon="19.9836074933">
        <ele>1622.84</ele>
        <time>2019-07-09T06:36:07Z</time>
      </trkpt>
      <trkpt lat="42.5122050382" lon="19.9835973512">
        <ele>1625.25</ele>
        <time>2019-07-09T06:36:31Z</time>
      </trkpt>
      <trkpt lat="42.5122041162" lon="19.9835598003">
        <ele>1625.73</ele>
        <time>2019-07-09T06:36:36Z</time>
      </trkpt>
      <trkpt lat="42.5122658908" lon="19.9836036377">
        <ele>1625.73</ele>
        <time>2019-07-09T06:36:46Z</time>
      </trkpt>
      <trkpt lat="42.5123216305" lon="19.9837058969">
        <ele>1625.73</ele>
        <time>2019-07-09T06:36:59Z</time>
      </trkpt>
      <trkpt lat="42.5123910327" lon="19.9838096648">
        <ele>1625.73</ele>
        <time>2019-07-09T06:37:12Z</time>
      </trkpt>
      <trkpt lat="42.5124071259" lon="19.9838408455">
        <ele>1625.73</ele>
        <time>2019-07-09T06:37:16Z</time>
      </trkpt>
      <trkpt lat="42.5124730915" lon="19.9839643948">
        <ele>1623.80</ele>
        <time>2019-07-09T06:37:30Z</time>
      </trkpt>
      <trkpt lat="42.5125785358" lon="19.9841335416">
        <ele>1622.36</ele>
        <time>2019-07-09T06:37:48Z</time>
      </trkpt>
      <trkpt lat="42.5126167573" lon="19.9841928016">
        <ele>1622.36</ele>
        <time>2019-07-09T06:38:00Z</time>
      </trkpt>
      <trkpt lat="42.5126766879" lon="19.9842927977">
        <ele>1621.40</ele>
        <time>2019-07-09T06:38:13Z</time>
      </trkpt>
      <trkpt lat="42.5127951242" lon="19.9844085518">
        <ele>1620.92</ele>
        <time>2019-07-09T06:38:25Z</time>
      </trkpt>
      <trkpt lat="42.5128864031" lon="19.9846040178">
        <ele>1620.44</ele>
        <time>2019-07-09T06:38:41Z</time>
      </trkpt>
      <trkpt lat="42.5129713956" lon="19.9847516231">
        <ele>1620.44</ele>
        <time>2019-07-09T06:38:56Z</time>
      </trkpt>
      <trkpt lat="42.5130550470" lon="19.9848726578">
        <ele>1620.44</ele>
        <time>2019-07-09T06:39:08Z</time>
      </trkpt>
      <trkpt lat="42.5132023171" lon="19.9850840494">
        <ele>1621.40</ele>
        <time>2019-07-09T06:39:23Z</time>
      </trkpt>
      <trkpt lat="42.5132899918" lon="19.9853314832">
        <ele>1622.36</ele>
        <time>2019-07-09T06:39:40Z</time>
      </trkpt>
      <trkpt lat="42.5133096054" lon="19.9855082575">
        <ele>1624.28</ele>
        <time>2019-07-09T06:39:54Z</time>
      </trkpt>
      <trkpt lat="42.5133008044" lon="19.9856818467">
        <ele>1626.21</ele>
        <time>2019-07-09T06:40:07Z</time>
      </trkpt>
      <trkpt lat="42.5133031514" lon="19.9858227465">
        <ele>1626.69</ele>
        <time>2019-07-09T06:40:18Z</time>
      </trkpt>
      <trkpt lat="42.5133057497" lon="19.9858623929">
        <ele>1626.69</ele>
        <time>2019-07-09T06:40:22Z</time>
      </trkpt>
      <trkpt lat="42.5133039895" lon="19.9860593677">
        <ele>1627.65</ele>
        <time>2019-07-09T06:40:36Z</time>
      </trkpt>
      <trkpt lat="42.5132617448" lon="19.9862218089">
        <ele>1629.57</ele>
        <time>2019-07-09T06:40:50Z</time>
      </trkpt>
      <trkpt lat="42.5132787600" lon="19.9863426760">
        <ele>1630.05</ele>
        <time>2019-07-09T06:41:03Z</time>
      </trkpt>
      <trkpt lat="42.5132443104" lon="19.9864659738">
        <ele>1631.49</ele>
        <time>2019-07-09T06:41:13Z</time>
      </trkpt>
      <trkpt lat="42.5132408738" lon="19.9864765350">
        <ele>1631.98</ele>
        <time>2019-07-09T06:41:14Z</time>
      </trkpt>
      <trkpt lat="42.5132126268" lon="19.9866854958">
        <ele>1633.42</ele>
        <time>2019-07-09T06:41:27Z</time>
      </trkpt>
      <trkpt lat="42.5132032391" lon="19.9868039321">
        <ele>1634.38</ele>
        <time>2019-07-09T06:41:37Z</time>
      </trkpt>
      <trkpt lat="42.5131845474" lon="19.9870065227">
        <ele>1636.78</ele>
        <time>2019-07-09T06:41:52Z</time>
      </trkpt>
      <trkpt lat="42.5131362677" lon="19.9870976340">
        <ele>1637.74</ele>
        <time>2019-07-09T06:42:02Z</time>
      </trkpt>
      <trkpt lat="42.5131008122" lon="19.9871684611">
        <ele>1638.70</ele>
        <time>2019-07-09T06:42:08Z</time>
      </trkpt>
      <trkpt lat="42.5131000578" lon="19.9873198383">
        <ele>1640.15</ele>
        <time>2019-07-09T06:42:21Z</time>
      </trkpt>
      <trkpt lat="42.5131107029" lon="19.9873462413">
        <ele>1640.15</ele>
        <time>2019-07-09T06:42:23Z</time>
      </trkpt>
      <trkpt lat="42.5131522771" lon="19.9874764960">
        <ele>1641.59</ele>
        <time>2019-07-09T06:42:37Z</time>
      </trkpt>
      <trkpt lat="42.5132409576" lon="19.9876090139">
        <ele>1642.55</ele>
        <time>2019-07-09T06:42:49Z</time>
      </trkpt>
      <trkpt lat="42.5133328233" lon="19.9877282884">
        <ele>1644.47</ele>
        <time>2019-07-09T06:43:01Z</time>
      </trkpt>
      <trkpt lat="42.5134140439" lon="19.9878290389">
        <ele>1646.88</ele>
        <time>2019-07-09T06:43:13Z</time>
      </trkpt>
      <trkpt lat="42.5134346634" lon="19.9878545199">
        <ele>1647.36</ele>
        <time>2019-07-09T06:43:17Z</time>
      </trkpt>
      <trkpt lat="42.5135085080" lon="19.9879097566">
        <ele>1650.24</ele>
        <time>2019-07-09T06:43:29Z</time>
      </trkpt>
      <trkpt lat="42.5135919079" lon="19.9880307075">
        <ele>1652.64</ele>
        <time>2019-07-09T06:43:45Z</time>
      </trkpt>
      <trkpt lat="42.5136496592" lon="19.9881158676">
        <ele>1653.12</ele>
        <time>2019-07-09T06:44:00Z</time>
      </trkpt>
      <trkpt lat="42.5136834383" lon="19.9881719425">
        <ele>1654.57</ele>
        <time>2019-07-09T06:44:14Z</time>
      </trkpt>
      <trkpt lat="42.5137352385" lon="19.9882621318">
        <ele>1656.97</ele>
        <time>2019-07-09T06:44:27Z</time>
      </trkpt>
      <trkpt lat="42.5138093345" lon="19.9883659836">
        <ele>1658.89</ele>
        <time>2019-07-09T06:44:41Z</time>
      </trkpt>
      <trkpt lat="42.5139041338" lon="19.9884262495">
        <ele>1661.78</ele>
        <time>2019-07-09T06:44:54Z</time>
      </trkpt>
      <trkpt lat="42.5140346400" lon="19.9884799775">
        <ele>1664.66</ele>
        <time>2019-07-09T06:45:09Z</time>
      </trkpt>
      <trkpt lat="42.5141310319" lon="19.9885070510">
        <ele>1667.06</ele>
        <time>2019-07-09T06:45:24Z</time>
      </trkpt>
      <trkpt lat="42.5142297707" lon="19.9885487929">
        <ele>1668.51</ele>
        <time>2019-07-09T06:45:37Z</time>
      </trkpt>
      <trkpt lat="42.5143133383" lon="19.9886220507">
        <ele>1670.91</ele>
        <time>2019-07-09T06:45:51Z</time>
      </trkpt>
      <trkpt lat="42.5142863486" lon="19.9887289200">
        <ele>1671.87</ele>
        <time>2019-07-09T06:46:08Z</time>
      </trkpt>
      <trkpt lat="42.5141771324" lon="19.9888056982">
        <ele>1672.83</ele>
        <time>2019-07-09T06:46:23Z</time>
      </trkpt>
      <trkpt lat="42.5141132623" lon="19.9889573269">
        <ele>1673.79</ele>
        <time>2019-07-09T06:46:37Z</time>
      </trkpt>
      <trkpt lat="42.5141653139" lon="19.9891311675">
        <ele>1673.79</ele>
        <time>2019-07-09T06:46:50Z</time>
      </trkpt>
      <trkpt lat="42.5141928904" lon="19.9892506935">
        <ele>1674.27</ele>
        <time>2019-07-09T06:46:58Z</time>
      </trkpt>
      <trkpt lat="42.5142054632" lon="19.9894480035">
        <ele>1675.23</ele>
        <time>2019-07-09T06:47:12Z</time>
      </trkpt>
      <trkpt lat="42.5142467022" lon="19.9896610714">
        <ele>1676.68</ele>
        <time>2019-07-09T06:47:26Z</time>
      </trkpt>
      <trkpt lat="42.5143124163" lon="19.9898407795">
        <ele>1679.56</ele>
        <time>2019-07-09T06:47:40Z</time>
      </trkpt>
      <trkpt lat="42.5143075548" lon="19.9899599701">
        <ele>1681.48</ele>
        <time>2019-07-09T06:47:53Z</time>
      </trkpt>
      <trkpt lat="42.5143390708" lon="19.9900776520">
        <ele>1683.89</ele>
        <time>2019-07-09T06:48:05Z</time>
      </trkpt>
      <trkpt lat="42.5143624563" lon="19.9901701882">
        <ele>1685.33</ele>
        <time>2019-07-09T06:48:20Z</time>
      </trkpt>
      <trkpt lat="42.5144196209" lon="19.9903426040">
        <ele>1687.73</ele>
        <time>2019-07-09T06:48:34Z</time>
      </trkpt>
      <trkpt lat="42.5144505501" lon="19.9905198812">
        <ele>1690.62</ele>
        <time>2019-07-09T06:48:49Z</time>
      </trkpt>
      <trkpt lat="42.5144938007" lon="19.9906360544">
        <ele>1693.50</ele>
        <time>2019-07-09T06:49:03Z</time>
      </trkpt>
      <trkpt lat="42.5145188626" lon="19.9907484557">
        <ele>1695.90</ele>
        <time>2019-07-09T06:49:17Z</time>
      </trkpt>
      <trkpt lat="42.5145458523" lon="19.9908936303">
        <ele>1698.79</ele>
        <time>2019-07-09T06:49:33Z</time>
      </trkpt>
      <trkpt lat="42.5146025140" lon="19.9910304230">
        <ele>1701.19</ele>
        <time>2019-07-09T06:49:46Z</time>
      </trkpt>
      <trkpt lat="42.5146098901" lon="19.9911849014">
        <ele>1703.11</ele>
        <time>2019-07-09T06:50:01Z</time>
      </trkpt>
      <trkpt lat="42.5146324374" lon="19.9912981410">
        <ele>1705.04</ele>
        <time>2019-07-09T06:50:12Z</time>
      </trkpt>
      <trkpt lat="42.5146691501" lon="19.9914122187">
        <ele>1706.96</ele>
        <time>2019-07-09T06:50:27Z</time>
      </trkpt>
      <trkpt lat="42.5146347005" lon="19.9914768431">
        <ele>1709.36</ele>
        <time>2019-07-09T06:50:40Z</time>
      </trkpt>
      <trkpt lat="42.5145445112" lon="19.9914576486">
        <ele>1710.80</ele>
        <time>2019-07-09T06:50:51Z</time>
      </trkpt>
      <trkpt lat="42.5145263225" lon="19.9914516974">
        <ele>1710.80</ele>
        <time>2019-07-09T06:50:53Z</time>
      </trkpt>
      <trkpt lat="42.5144404080" lon="19.9914416391">
        <ele>1713.21</ele>
        <time>2019-07-09T06:51:07Z</time>
      </trkpt>
      <trkpt lat="42.5144645479" lon="19.9916089419">
        <ele>1715.13</ele>
        <time>2019-07-09T06:51:21Z</time>
      </trkpt>
      <trkpt lat="42.5145119894" lon="19.9917465728">
        <ele>1717.53</ele>
        <time>2019-07-09T06:51:35Z</time>
      </trkpt>
      <trkpt lat="42.5145755243" lon="19.9918714631">
        <ele>1719.94</ele>
        <time>2019-07-09T06:51:49Z</time>
      </trkpt>
      <trkpt lat="42.5146338623" lon="19.9919454753">
        <ele>1722.82</ele>
        <time>2019-07-09T06:52:02Z</time>
      </trkpt>
      <trkpt lat="42.5146933738" lon="19.9920240976">
        <ele>1724.74</ele>
        <time>2019-07-09T06:52:14Z</time>
      </trkpt>
      <trkpt lat="42.5147129875" lon="19.9920598045">
        <ele>1726.18</ele>
        <time>2019-07-09T06:52:26Z</time>
      </trkpt>
      <trkpt lat="42.5147052761" lon="19.9921320565">
        <ele>1728.11</ele>
        <time>2019-07-09T06:52:38Z</time>
      </trkpt>
      <trkpt lat="42.5147282425" lon="19.9921910651">
        <ele>1730.99</ele>
        <time>2019-07-09T06:52:50Z</time>
      </trkpt>
      <trkpt lat="42.5147316791" lon="19.9922970124">
        <ele>1732.91</ele>
        <time>2019-07-09T06:53:03Z</time>
      </trkpt>
      <trkpt lat="42.5147549808" lon="19.9923978467">
        <ele>1735.80</ele>
        <time>2019-07-09T06:53:16Z</time>
      </trkpt>
      <trkpt lat="42.5147909392" lon="19.9924856890">
        <ele>1737.72</ele>
        <time>2019-07-09T06:53:30Z</time>
      </trkpt>
      <trkpt lat="42.5148080382" lon="19.9925850984">
        <ele>1739.16</ele>
        <time>2019-07-09T06:53:41Z</time>
      </trkpt>
      <trkpt lat="42.5148027577" lon="19.9926452804">
        <ele>1741.08</ele>
        <time>2019-07-09T06:53:53Z</time>
      </trkpt>
      <trkpt lat="42.5148154143" lon="19.9927244894">
        <ele>1743.01</ele>
        <time>2019-07-09T06:54:06Z</time>
      </trkpt>
      <trkpt lat="42.5148492772" lon="19.9927776307">
        <ele>1744.93</ele>
        <time>2019-07-09T06:54:17Z</time>
      </trkpt>
      <trkpt lat="42.5148780271" lon="19.9928946421">
        <ele>1747.33</ele>
        <time>2019-07-09T06:54:34Z</time>
      </trkpt>
      <trkpt lat="42.5149327610" lon="19.9930188619">
        <ele>1749.26</ele>
        <time>2019-07-09T06:54:49Z</time>
      </trkpt>
      <trkpt lat="42.5149332639" lon="19.9930917006">
        <ele>1751.66</ele>
        <time>2019-07-09T06:55:01Z</time>
      </trkpt>
      <trkpt lat="42.5149572361" lon="19.9931745138">
        <ele>1753.58</ele>
        <time>2019-07-09T06:55:12Z</time>
      </trkpt>
      <trkpt lat="42.5149089564" lon="19.9932311755">
        <ele>1755.02</ele>
        <time>2019-07-09T06:55:23Z</time>
      </trkpt>
      <trkpt lat="42.5148747582" lon="19.9933416490">
        <ele>1756.95</ele>
        <time>2019-07-09T06:55:36Z</time>
      </trkpt>
      <trkpt lat="42.5148650352" lon="19.9934714008">
        <ele>1758.87</ele>
        <time>2019-07-09T06:55:50Z</time>
      </trkpt>
      <trkpt lat="42.5148750097" lon="19.9934920203">
        <ele>1759.35</ele>
        <time>2019-07-09T06:55:53Z</time>
      </trkpt>
      <trkpt lat="42.5149149913" lon="19.9935025815">
        <ele>1760.31</ele>
        <time>2019-07-09T06:55:59Z</time>
      </trkpt>
      <trkpt lat="42.5150052644" lon="19.9935609195">
        <ele>1761.75</ele>
        <time>2019-07-09T06:56:13Z</time>
      </trkpt>
      <trkpt lat="42.5150765106" lon="19.9936284777">
        <ele>1763.68</ele>
        <time>2019-07-09T06:56:27Z</time>
      </trkpt>
      <trkpt lat="42.5151734892" lon="19.9937107041">
        <ele>1765.12</ele>
        <time>2019-07-09T06:56:40Z</time>
      </trkpt>
      <trkpt lat="42.5152725633" lon="19.9937064294">
        <ele>1767.04</ele>
        <time>2019-07-09T06:56:53Z</time>
      </trkpt>
      <trkpt lat="42.5153747387" lon="19.9936755002">
        <ele>1768.96</ele>
        <time>2019-07-09T06:57:06Z</time>
      </trkpt>
      <trkpt lat="42.5154960249" lon="19.9936178327">
        <ele>1771.37</ele>
        <time>2019-07-09T06:57:22Z</time>
      </trkpt>
      <trkpt lat="42.5155757368" lon="19.9935393780">
        <ele>1773.77</ele>
        <time>2019-07-09T06:57:35Z</time>
      </trkpt>
      <trkpt lat="42.5156490784" lon="19.9934598338">
        <ele>1775.69</ele>
        <time>2019-07-09T06:57:49Z</time>
      </trkpt>
      <trkpt lat="42.5157328136" lon="19.9933894258">
        <ele>1778.10</ele>
        <time>2019-07-09T06:58:03Z</time>
      </trkpt>
      <trkpt lat="42.5157869607" lon="19.9933236279">
        <ele>1780.02</ele>
        <time>2019-07-09T06:58:15Z</time>
      </trkpt>
      <trkpt lat="42.5158530939" lon="19.9932326004">
        <ele>1781.94</ele>
        <time>2019-07-09T06:58:28Z</time>
      </trkpt>
      <trkpt lat="42.5159250107" lon="19.9931754358">
        <ele>1784.34</ele>
        <time>2019-07-09T06:58:40Z</time>
      </trkpt>
      <trkpt lat="42.5160084944" lon="19.9931512959">
        <ele>1786.75</ele>
        <time>2019-07-09T06:58:53Z</time>
      </trkpt>
      <trkpt lat="42.5161098316" lon="19.9931302574">
        <ele>1788.67</ele>
        <time>2019-07-09T06:59:06Z</time>
      </trkpt>
      <trkpt lat="42.5161882024" lon="19.9931937922">
        <ele>1790.11</ele>
        <time>2019-07-09T06:59:19Z</time>
      </trkpt>
      <trkpt lat="42.5162394159" lon="19.9933294952">
        <ele>1792.03</ele>
        <time>2019-07-09T06:59:33Z</time>
      </trkpt>
      <trkpt lat="42.5162833370" lon="19.9935178366">
        <ele>1794.44</ele>
        <time>2019-07-09T06:59:50Z</time>
      </trkpt>
      <trkpt lat="42.5162936468" lon="19.9935988896">
        <ele>1795.40</ele>
        <time>2019-07-09T06:59:56Z</time>
      </trkpt>
      <trkpt lat="42.5163270067" lon="19.9937649351">
        <ele>1795.88</ele>
        <time>2019-07-09T07:00:09Z</time>
      </trkpt>
      <trkpt lat="42.5163481291" lon="19.9939572159">
        <ele>1797.32</ele>
        <time>2019-07-09T07:00:26Z</time>
      </trkpt>
      <trkpt lat="42.5163322873" lon="19.9939690344">
        <ele>1798.28</ele>
        <time>2019-07-09T07:00:28Z</time>
      </trkpt>
      <trkpt lat="42.5162359793" lon="19.9941070843">
        <ele>1799.24</ele>
        <time>2019-07-09T07:00:43Z</time>
      </trkpt>
      <trkpt lat="42.5161959138" lon="19.9943279475">
        <ele>1800.69</ele>
        <time>2019-07-09T07:00:59Z</time>
      </trkpt>
      <trkpt lat="42.5161153637" lon="19.9944647402">
        <ele>1802.13</ele>
        <time>2019-07-09T07:01:12Z</time>
      </trkpt>
      <trkpt lat="42.5160884578" lon="19.9945013691">
        <ele>1802.13</ele>
        <time>2019-07-09T07:01:16Z</time>
      </trkpt>
      <trkpt lat="42.5160675030" lon="19.9945146963">
        <ele>1802.13</ele>
        <time>2019-07-09T07:01:18Z</time>
      </trkpt>
      <trkpt lat="42.5158934109" lon="19.9946791492">
        <ele>1803.09</ele>
        <time>2019-07-09T07:01:36Z</time>
      </trkpt>
      <trkpt lat="42.5157786626" lon="19.9948759563">
        <ele>1803.09</ele>
        <time>2019-07-09T07:01:52Z</time>
      </trkpt>
      <trkpt lat="42.5157498289" lon="19.9951025192">
        <ele>1801.65</ele>
        <time>2019-07-09T07:02:08Z</time>
      </trkpt>
      <trkpt lat="42.5157266948" lon="19.9952157587">
        <ele>1801.65</ele>
        <time>2019-07-09T07:02:17Z</time>
      </trkpt>
      <trkpt lat="42.5156137906" lon="19.9953732546">
        <ele>1802.13</ele>
        <time>2019-07-09T07:02:32Z</time>
      </trkpt>
      <trkpt lat="42.5155956019" lon="19.9953990709">
        <ele>1801.65</ele>
        <time>2019-07-09T07:02:36Z</time>
      </trkpt>
      <trkpt lat="42.5155614037" lon="19.9954380468">
        <ele>1803.09</ele>
        <time>2019-07-09T07:02:40Z</time>
      </trkpt>
      <trkpt lat="42.5155286305" lon="19.9954859074">
        <ele>1803.09</ele>
        <time>2019-07-09T07:02:44Z</time>
      </trkpt>
      <trkpt lat="42.5154360104" lon="19.9956191797">
        <ele>1804.05</ele>
        <time>2019-07-09T07:02:55Z</time>
      </trkpt>
      <trkpt lat="42.5153476652" lon="19.9956978858">
        <ele>1804.05</ele>
        <time>2019-07-09T07:03:05Z</time>
      </trkpt>
      <trkpt lat="42.5153326616" lon="19.9957287312">
        <ele>1804.05</ele>
        <time>2019-07-09T07:03:07Z</time>
      </trkpt>
      <trkpt lat="42.5152737368" lon="19.9957966246">
        <ele>1804.53</ele>
        <time>2019-07-09T07:03:12Z</time>
      </trkpt>
      <trkpt lat="42.5152230263" lon="19.9958469160">
        <ele>1805.01</ele>
        <time>2019-07-09T07:03:17Z</time>
      </trkpt>
      <trkpt lat="42.5150988065" lon="19.9960067589">
        <ele>1806.45</ele>
        <time>2019-07-09T07:03:32Z</time>
      </trkpt>
      <trkpt lat="42.5150067732" lon="19.9960563798">
        <ele>1807.42</ele>
        <time>2019-07-09T07:03:41Z</time>
      </trkpt>
      <trkpt lat="42.5149676297" lon="19.9960781727">
        <ele>1807.42</ele>
        <time>2019-07-09T07:03:44Z</time>
      </trkpt>
      <trkpt lat="42.5148033444" lon="19.9962013867">
        <ele>1808.86</ele>
        <time>2019-07-09T07:04:00Z</time>
      </trkpt>
      <trkpt lat="42.5146452617" lon="19.9962519296">
        <ele>1809.82</ele>
        <time>2019-07-09T07:04:16Z</time>
      </trkpt>
      <trkpt lat="42.5146350358" lon="19.9962480739">
        <ele>1809.82</ele>
        <time>2019-07-09T07:04:19Z</time>
      </trkpt>
      <trkpt lat="42.5145852473" lon="19.9962930009">
        <ele>1810.30</ele>
        <time>2019-07-09T07:04:25Z</time>
      </trkpt>
      <trkpt lat="42.5145475287" lon="19.9963373411">
        <ele>1810.78</ele>
        <time>2019-07-09T07:04:28Z</time>
      </trkpt>
      <trkpt lat="42.5144663919" lon="19.9964880478">
        <ele>1810.78</ele>
        <time>2019-07-09T07:04:40Z</time>
      </trkpt>
      <trkpt lat="42.5144510530" lon="19.9965797458">
        <ele>1810.78</ele>
        <time>2019-07-09T07:04:46Z</time>
      </trkpt>
      <trkpt lat="42.5144371390" lon="19.9967078213">
        <ele>1811.26</ele>
        <time>2019-07-09T07:04:55Z</time>
      </trkpt>
      <trkpt lat="42.5142907072" lon="19.9968563486">
        <ele>1810.30</ele>
        <time>2019-07-09T07:05:09Z</time>
      </trkpt>
      <trkpt lat="42.5142581854" lon="19.9968936481">
        <ele>1810.30</ele>
        <time>2019-07-09T07:05:13Z</time>
      </trkpt>
      <trkpt lat="42.5142385717" lon="19.9969094060">
        <ele>1809.82</ele>
        <time>2019-07-09T07:05:15Z</time>
      </trkpt>
      <trkpt lat="42.5142334588" lon="19.9969647266">
        <ele>1809.82</ele>
        <time>2019-07-09T07:05:19Z</time>
      </trkpt>
      <trkpt lat="42.5141824968" lon="19.9970687460">
        <ele>1811.26</ele>
        <time>2019-07-09T07:05:28Z</time>
      </trkpt>
      <trkpt lat="42.5140265934" lon="19.9971876852">
        <ele>1812.70</ele>
        <time>2019-07-09T07:05:43Z</time>
      </trkpt>
      <trkpt lat="42.5140089914" lon="19.9971938878">
        <ele>1812.70</ele>
        <time>2019-07-09T07:05:44Z</time>
      </trkpt>
      <trkpt lat="42.5140032917" lon="19.9972092267">
        <ele>1812.70</ele>
        <time>2019-07-09T07:05:45Z</time>
      </trkpt>
      <trkpt lat="42.5139533356" lon="19.9973460194">
        <ele>1814.63</ele>
        <time>2019-07-09T07:05:57Z</time>
      </trkpt>
      <trkpt lat="42.5138953328" lon="19.9974002503">
        <ele>1816.07</ele>
        <time>2019-07-09T07:06:04Z</time>
      </trkpt>
      <trkpt lat="42.5138298701" lon="19.9974414054">
        <ele>1816.07</ele>
        <time>2019-07-09T07:06:11Z</time>
      </trkpt>
      <trkpt lat="42.5137505773" lon="19.9975215364">
        <ele>1816.07</ele>
        <time>2019-07-09T07:06:19Z</time>
      </trkpt>
      <trkpt lat="42.5137095898" lon="19.9976528808">
        <ele>1813.66</ele>
        <time>2019-07-09T07:06:33Z</time>
      </trkpt>
      <trkpt lat="42.5137157086" lon="19.9976587482">
        <ele>1813.66</ele>
        <time>2019-07-09T07:06:34Z</time>
      </trkpt>
      <trkpt lat="42.5138016231" lon="19.9977183435">
        <ele>1814.63</ele>
        <time>2019-07-09T07:06:43Z</time>
      </trkpt>
      <trkpt lat="42.5138485618" lon="19.9978233688">
        <ele>1816.55</ele>
        <time>2019-07-09T07:06:53Z</time>
      </trkpt>
      <trkpt lat="42.5138724502" lon="19.9979018234">
        <ele>1818.47</ele>
        <time>2019-07-09T07:07:00Z</time>
      </trkpt>
      <trkpt lat="42.5139467139" lon="19.9980190862">
        <ele>1818.47</ele>
        <time>2019-07-09T07:07:10Z</time>
      </trkpt>
      <trkpt lat="42.5141055509" lon="19.9979959521">
        <ele>1819.43</ele>
        <time>2019-07-09T07:07:23Z</time>
      </trkpt>
      <trkpt lat="42.5142807327" lon="19.9980084412">
        <ele>1820.39</ele>
        <time>2019-07-09T07:07:37Z</time>
      </trkpt>
      <trkpt lat="42.5144492090" lon="19.9979028292">
        <ele>1822.32</ele>
        <time>2019-07-09T07:07:53Z</time>
      </trkpt>
      <trkpt lat="42.5145558268" lon="19.9978941958">
        <ele>1823.28</ele>
        <time>2019-07-09T07:08:08Z</time>
      </trkpt>
      <trkpt lat="42.5146725029" lon="19.9979788531">
        <ele>1823.76</ele>
        <time>2019-07-09T07:08:22Z</time>
      </trkpt>
      <trkpt lat="42.5147379655" lon="19.9980543740">
        <ele>1825.20</ele>
        <time>2019-07-09T07:08:29Z</time>
      </trkpt>
      <trkpt lat="42.5148156658" lon="19.9981949385">
        <ele>1827.12</ele>
        <time>2019-07-09T07:08:43Z</time>
      </trkpt>
      <trkpt lat="42.5148174260" lon="19.9981789291">
        <ele>1827.12</ele>
        <time>2019-07-09T07:08:59Z</time>
      </trkpt>
      <trkpt lat="42.5148180965" lon="19.9981850479">
        <ele>1827.60</ele>
        <time>2019-07-09T07:09:23Z</time>
      </trkpt>
      <trkpt lat="42.5148062780" lon="19.9982155580">
        <ele>1827.60</ele>
        <time>2019-07-09T07:10:00Z</time>
      </trkpt>
      <trkpt lat="42.5148192700" lon="19.9982348364">
        <ele>1828.08</ele>
        <time>2019-07-09T07:10:42Z</time>
      </trkpt>
      <trkpt lat="42.5147978961" lon="19.9982319865">
        <ele>1828.56</ele>
        <time>2019-07-09T07:11:31Z</time>
      </trkpt>
      <trkpt lat="42.5148727465" lon="19.9981749058">
        <ele>1828.56</ele>
        <time>2019-07-09T07:12:08Z</time>
      </trkpt>
      <trkpt lat="42.5148548931" lon="19.9981452338">
        <ele>1828.56</ele>
        <time>2019-07-09T07:12:28Z</time>
      </trkpt>
      <trkpt lat="42.5148266461" lon="19.9981876463">
        <ele>1829.05</ele>
        <time>2019-07-09T07:12:48Z</time>
      </trkpt>
      <trkpt lat="42.5148238800" lon="19.9982248619">
        <ele>1829.05</ele>
        <time>2019-07-09T07:13:07Z</time>
      </trkpt>
      <trkpt lat="42.5147778634" lon="19.9982403684">
        <ele>1829.05</ele>
        <time>2019-07-09T07:13:32Z</time>
      </trkpt>
      <trkpt lat="42.5147481076" lon="19.9982106965">
        <ele>1829.53</ele>
        <time>2019-07-09T07:14:00Z</time>
      </trkpt>
      <trkpt lat="42.5147720799" lon="19.9982223473">
        <ele>1830.01</ele>
        <time>2019-07-09T07:14:33Z</time>
      </trkpt>
      <trkpt lat="42.5147618540" lon="19.9982200004">
        <ele>1830.01</ele>
        <time>2019-07-09T07:14:50Z</time>
      </trkpt>
      <trkpt lat="42.5147361215" lon="19.9982181564">
        <ele>1830.49</ele>
        <time>2019-07-09T07:15:08Z</time>
      </trkpt>
      <trkpt lat="42.5147849880" lon="19.9982393626">
        <ele>1830.97</ele>
        <time>2019-07-09T07:15:32Z</time>
      </trkpt>
      <trkpt lat="42.5148284901" lon="19.9982189946">
        <ele>1831.45</ele>
        <time>2019-07-09T07:16:04Z</time>
      </trkpt>
      <trkpt lat="42.5148211140" lon="19.9982379377">
        <ele>1831.45</ele>
        <time>2019-07-09T07:16:33Z</time>
      </trkpt>
      <trkpt lat="42.5147967227" lon="19.9982655980">
        <ele>1832.41</ele>
        <time>2019-07-09T07:17:02Z</time>
      </trkpt>
      <trkpt lat="42.5147870835" lon="19.9982844573">
        <ele>1832.41</ele>
        <time>2019-07-09T07:17:19Z</time>
      </trkpt>
      <trkpt lat="42.5147793721" lon="19.9982862175">
        <ele>1832.41</ele>
        <time>2019-07-09T07:17:23Z</time>
      </trkpt>
      <trkpt lat="42.5148491096" lon="19.9983957689">
        <ele>1833.37</ele>
        <time>2019-07-09T07:17:35Z</time>
      </trkpt>
      <trkpt lat="42.5148705672" lon="19.9985251017">
        <ele>1834.33</ele>
        <time>2019-07-09T07:17:46Z</time>
      </trkpt>
      <trkpt lat="42.5148679689" lon="19.9986219965">
        <ele>1835.29</ele>
        <time>2019-07-09T07:17:57Z</time>
      </trkpt>
      <trkpt lat="42.5148797873" lon="19.9986351561">
        <ele>1835.29</ele>
        <time>2019-07-09T07:17:58Z</time>
      </trkpt>
      <trkpt lat="42.5149315037" lon="19.9987117667">
        <ele>1835.77</ele>
        <time>2019-07-09T07:18:04Z</time>
      </trkpt>
      <trkpt lat="42.5149852317" lon="19.9988717772">
        <ele>1836.26</ele>
        <time>2019-07-09T07:18:16Z</time>
      </trkpt>
      <trkpt lat="42.5149549730" lon="19.9990185443">
        <ele>1838.66</ele>
        <time>2019-07-09T07:18:27Z</time>
      </trkpt>
      <trkpt lat="42.5149449985" lon="19.9991470389">
        <ele>1840.58</ele>
        <time>2019-07-09T07:18:38Z</time>
      </trkpt>
      <trkpt lat="42.5149416458" lon="19.9991975818">
        <ele>1840.58</ele>
        <time>2019-07-09T07:18:41Z</time>
      </trkpt>
      <trkpt lat="42.5149254687" lon="19.9992471188">
        <ele>1841.54</ele>
        <time>2019-07-09T07:18:45Z</time>
      </trkpt>
      <trkpt lat="42.5149261393" lon="19.9994151760">
        <ele>1842.50</ele>
        <time>2019-07-09T07:18:58Z</time>
      </trkpt>
      <trkpt lat="42.5149386283" lon="19.9994350411">
        <ele>1843.47</ele>
        <time>2019-07-09T07:19:00Z</time>
      </trkpt>
      <trkpt lat="42.5149272289" lon="19.9995972309">
        <ele>1843.95</ele>
        <time>2019-07-09T07:19:11Z</time>
      </trkpt>
      <trkpt lat="42.5149117224" lon="19.9996310938">
        <ele>1843.95</ele>
        <time>2019-07-09T07:19:13Z</time>
      </trkpt>
      <trkpt lat="42.5149272289" lon="19.9998128135">
        <ele>1846.35</ele>
        <time>2019-07-09T07:19:26Z</time>
      </trkpt>
      <trkpt lat="42.5149857346" lon="20.0000123028">
        <ele>1847.79</ele>
        <time>2019-07-09T07:19:39Z</time>
      </trkpt>
      <trkpt lat="42.5150325894" lon="20.0001163222">
        <ele>1849.23</ele>
        <time>2019-07-09T07:19:51Z</time>
      </trkpt>
      <trkpt lat="42.5150613394" lon="20.0001750793">
        <ele>1849.71</ele>
        <time>2019-07-09T07:19:55Z</time>
      </trkpt>
      <trkpt lat="42.5150870718" lon="20.0002537854">
        <ele>1850.19</ele>
        <time>2019-07-09T07:20:00Z</time>
      </trkpt>
      <trkpt lat="42.5151012372" lon="20.0003200863">
        <ele>1850.68</ele>
        <time>2019-07-09T07:20:04Z</time>
      </trkpt>
      <trkpt lat="42.5150929391" lon="20.0005009677">
        <ele>1852.12</ele>
        <time>2019-07-09T07:20:15Z</time>
      </trkpt>
      <trkpt lat="42.5151057635" lon="20.0005265325">
        <ele>1852.60</ele>
        <time>2019-07-09T07:20:17Z</time>
      </trkpt>
      <trkpt lat="42.5151821226" lon="20.0006442145">
        <ele>1853.56</ele>
        <time>2019-07-09T07:20:27Z</time>
      </trkpt>
      <trkpt lat="42.5152214337" lon="20.0007380918">
        <ele>1854.52</ele>
        <time>2019-07-09T07:20:36Z</time>
      </trkpt>
      <trkpt lat="42.5152145606" lon="20.0008535106">
        <ele>1855.00</ele>
        <time>2019-07-09T07:20:44Z</time>
      </trkpt>
      <trkpt lat="42.5152115431" lon="20.0008662511">
        <ele>1855.00</ele>
        <time>2019-07-09T07:20:45Z</time>
      </trkpt>
      <trkpt lat="42.5152530335" lon="20.0010585319">
        <ele>1855.96</ele>
        <time>2019-07-09T07:20:57Z</time>
      </trkpt>
      <trkpt lat="42.5152330007" lon="20.0012295227">
        <ele>1857.40</ele>
        <time>2019-07-09T07:21:07Z</time>
      </trkpt>
      <trkpt lat="42.5152200926" lon="20.0012739468">
        <ele>1857.89</ele>
        <time>2019-07-09T07:21:10Z</time>
      </trkpt>
      <trkpt lat="42.5152148120" lon="20.0013738591">
        <ele>1858.37</ele>
        <time>2019-07-09T07:21:18Z</time>
      </trkpt>
      <trkpt lat="42.5151092000" lon="20.0015486218">
        <ele>1860.29</ele>
        <time>2019-07-09T07:21:32Z</time>
      </trkpt>
      <trkpt lat="42.5150308292" lon="20.0015704986">
        <ele>1860.77</ele>
        <time>2019-07-09T07:21:39Z</time>
      </trkpt>
      <trkpt lat="42.5148955453" lon="20.0015395693">
        <ele>1862.69</ele>
        <time>2019-07-09T07:21:53Z</time>
      </trkpt>
      <trkpt lat="42.5148830563" lon="20.0015377253">
        <ele>1862.69</ele>
        <time>2019-07-09T07:21:54Z</time>
      </trkpt>
      <trkpt lat="42.5147574954" lon="20.0015406590">
        <ele>1862.21</ele>
        <time>2019-07-09T07:22:07Z</time>
      </trkpt>
      <trkpt lat="42.5147426594" lon="20.0015607756">
        <ele>1863.17</ele>
        <time>2019-07-09T07:22:09Z</time>
      </trkpt>
      <trkpt lat="42.5147066172" lon="20.0016384758">
        <ele>1863.65</ele>
        <time>2019-07-09T07:22:15Z</time>
      </trkpt>
      <trkpt lat="42.5147051923" lon="20.0016661361">
        <ele>1863.65</ele>
        <time>2019-07-09T07:22:17Z</time>
      </trkpt>
      <trkpt lat="42.5146435015" lon="20.0018787850">
        <ele>1864.61</ele>
        <time>2019-07-09T07:22:31Z</time>
      </trkpt>
      <trkpt lat="42.5145432539" lon="20.0020117220">
        <ele>1865.58</ele>
        <time>2019-07-09T07:22:45Z</time>
      </trkpt>
      <trkpt lat="42.5145331956" lon="20.0020387955">
        <ele>1865.58</ele>
        <time>2019-07-09T07:22:48Z</time>
      </trkpt>
      <trkpt lat="42.5144745223" lon="20.0021195970">
        <ele>1866.06</ele>
        <time>2019-07-09T07:22:55Z</time>
      </trkpt>
      <trkpt lat="42.5144437607" lon="20.0022177491">
        <ele>1867.02</ele>
        <time>2019-07-09T07:23:01Z</time>
      </trkpt>
      <trkpt lat="42.5144162681" lon="20.0022910070">
        <ele>1867.02</ele>
        <time>2019-07-09T07:23:06Z</time>
      </trkpt>
      <trkpt lat="42.5143697485" lon="20.0024798512">
        <ele>1868.94</ele>
        <time>2019-07-09T07:23:20Z</time>
      </trkpt>
      <trkpt lat="42.5143536553" lon="20.0025861338">
        <ele>1869.42</ele>
        <time>2019-07-09T07:23:25Z</time>
      </trkpt>
      <trkpt lat="42.5143418368" lon="20.0026320666">
        <ele>1869.42</ele>
        <time>2019-07-09T07:23:28Z</time>
      </trkpt>
      <trkpt lat="42.5142713450" lon="20.0027577113">
        <ele>1869.90</ele>
        <time>2019-07-09T07:23:40Z</time>
      </trkpt>
      <trkpt lat="42.5142544974" lon="20.0029698573">
        <ele>1871.82</ele>
        <time>2019-07-09T07:23:55Z</time>
      </trkpt>
      <trkpt lat="42.5142512284" lon="20.0030091684">
        <ele>1872.30</ele>
        <time>2019-07-09T07:23:58Z</time>
      </trkpt>
      <trkpt lat="42.5142598618" lon="20.0032021198">
        <ele>1870.86</ele>
        <time>2019-07-09T07:24:12Z</time>
      </trkpt>
      <trkpt lat="42.5142497197" lon="20.0032741204">
        <ele>1870.38</ele>
        <time>2019-07-09T07:24:17Z</time>
      </trkpt>
      <trkpt lat="42.5142564252" lon="20.0033155270">
        <ele>1869.90</ele>
        <time>2019-07-09T07:24:19Z</time>
      </trkpt>
      <trkpt lat="42.5142406672" lon="20.0034751184">
        <ele>1868.94</ele>
        <time>2019-07-09T07:24:30Z</time>
      </trkpt>
      <trkpt lat="42.5142479595" lon="20.0035404135">
        <ele>1868.94</ele>
        <time>2019-07-09T07:24:34Z</time>
      </trkpt>
      <trkpt lat="42.5142344646" lon="20.0036010984">
        <ele>1868.94</ele>
        <time>2019-07-09T07:24:38Z</time>
      </trkpt>
      <trkpt lat="42.5142465346" lon="20.0038370490">
        <ele>1868.94</ele>
        <time>2019-07-09T07:24:53Z</time>
      </trkpt>
      <trkpt lat="42.5142594427" lon="20.0039664656">
        <ele>1868.94</ele>
        <time>2019-07-09T07:25:01Z</time>
      </trkpt>
      <trkpt lat="42.5143047888" lon="20.0041589979">
        <ele>1871.34</ele>
        <time>2019-07-09T07:25:15Z</time>
      </trkpt>
      <trkpt lat="42.5143338740" lon="20.0043518655">
        <ele>1872.79</ele>
        <time>2019-07-09T07:25:29Z</time>
      </trkpt>
      <trkpt lat="42.5143410824" lon="20.0043794420">
        <ele>1872.79</ele>
        <time>2019-07-09T07:25:31Z</time>
      </trkpt>
      <trkpt lat="42.5143348798" lon="20.0044946093">
        <ele>1874.23</ele>
        <time>2019-07-09T07:25:39Z</time>
      </trkpt>
      <trkpt lat="42.5143139251" lon="20.0046161469">
        <ele>1873.75</ele>
        <time>2019-07-09T07:25:52Z</time>
      </trkpt>
      <trkpt lat="42.5143176131" lon="20.0046236906">
        <ele>1873.75</ele>
        <time>2019-07-09T07:25:53Z</time>
      </trkpt>
      <trkpt lat="42.5143368915" lon="20.0046474952">
        <ele>1873.75</ele>
        <time>2019-07-09T07:25:55Z</time>
      </trkpt>
      <trkpt lat="42.5144572556" lon="20.0047100242">
        <ele>1875.19</ele>
        <time>2019-07-09T07:26:09Z</time>
      </trkpt>
      <trkpt lat="42.5146269891" lon="20.0047723856">
        <ele>1877.11</ele>
        <time>2019-07-09T07:26:25Z</time>
      </trkpt>
      <trkpt lat="42.5147230458" lon="20.0048471522">
        <ele>1877.59</ele>
        <time>2019-07-09T07:26:34Z</time>
      </trkpt>
      <trkpt lat="42.5147553999" lon="20.0050231721">
        <ele>1878.07</ele>
        <time>2019-07-09T07:26:49Z</time>
      </trkpt>
      <trkpt lat="42.5147501193" lon="20.0050291233">
        <ele>1878.07</ele>
        <time>2019-07-09T07:26:50Z</time>
      </trkpt>
      <trkpt lat="42.5146943796" lon="20.0052136090">
        <ele>1879.03</ele>
        <time>2019-07-09T07:27:05Z</time>
      </trkpt>
      <trkpt lat="42.5146721676" lon="20.0052967574">
        <ele>1880.00</ele>
        <time>2019-07-09T07:27:11Z</time>
      </trkpt>
      <trkpt lat="42.5146101415" lon="20.0054279342">
        <ele>1880.48</ele>
        <time>2019-07-09T07:27:25Z</time>
      </trkpt>
      <trkpt lat="42.5146720838" lon="20.0054524932">
        <ele>1880.96</ele>
        <time>2019-07-09T07:27:37Z</time>
      </trkpt>
      <trkpt lat="42.5148261432" lon="20.0054409262">
        <ele>1882.40</ele>
        <time>2019-07-09T07:27:52Z</time>
      </trkpt>
      <trkpt lat="42.5149495248" lon="20.0055318698">
        <ele>1883.84</ele>
        <time>2019-07-09T07:28:06Z</time>
      </trkpt>
      <trkpt lat="42.5150491856" lon="20.0056422595">
        <ele>1884.32</ele>
        <time>2019-07-09T07:28:19Z</time>
      </trkpt>
      <trkpt lat="42.5150678772" lon="20.0057451054">
        <ele>1884.80</ele>
        <time>2019-07-09T07:28:24Z</time>
      </trkpt>
      <trkpt lat="42.5151523668" lon="20.0059266575">
        <ele>1885.76</ele>
        <time>2019-07-09T07:28:39Z</time>
      </trkpt>
      <trkpt lat="42.5153178256" lon="20.0059860852">
        <ele>1886.72</ele>
        <time>2019-07-09T07:28:53Z</time>
      </trkpt>
      <trkpt lat="42.5153517723" lon="20.0061506219">
        <ele>1889.13</ele>
        <time>2019-07-09T07:29:07Z</time>
      </trkpt>
      <trkpt lat="42.5153280515" lon="20.0062028412">
        <ele>1889.13</ele>
        <time>2019-07-09T07:29:13Z</time>
      </trkpt>
      <trkpt lat="42.5152736530" lon="20.0062959641">
        <ele>1889.61</ele>
        <time>2019-07-09T07:29:21Z</time>
      </trkpt>
      <trkpt lat="42.5152418856" lon="20.0063804537">
        <ele>1889.61</ele>
        <time>2019-07-09T07:29:26Z</time>
      </trkpt>
      <trkpt lat="42.5152449030" lon="20.0064145681">
        <ele>1890.09</ele>
        <time>2019-07-09T07:29:29Z</time>
      </trkpt>
      <trkpt lat="42.5152434781" lon="20.0064712297">
        <ele>1890.57</ele>
        <time>2019-07-09T07:29:33Z</time>
      </trkpt>
      <trkpt lat="42.5152491778" lon="20.0066744909">
        <ele>1891.53</ele>
        <time>2019-07-09T07:29:45Z</time>
      </trkpt>
      <trkpt lat="42.5152363535" lon="20.0067997165">
        <ele>1892.01</ele>
        <time>2019-07-09T07:29:56Z</time>
      </trkpt>
      <trkpt lat="42.5152078550" lon="20.0069480762">
        <ele>1892.01</ele>
        <time>2019-07-09T07:30:08Z</time>
      </trkpt>
      <trkpt lat="42.5152821187" lon="20.0069901533">
        <ele>1892.49</ele>
        <time>2019-07-09T07:30:17Z</time>
      </trkpt>
      <trkpt lat="42.5153674465" lon="20.0071444642">
        <ele>1892.97</ele>
        <time>2019-07-09T07:30:32Z</time>
      </trkpt>
      <trkpt lat="42.5154442247" lon="20.0072600506">
        <ele>1894.42</ele>
        <time>2019-07-09T07:30:41Z</time>
      </trkpt>
      <trkpt lat="42.5154723879" lon="20.0074076559">
        <ele>1895.86</ele>
        <time>2019-07-09T07:30:54Z</time>
      </trkpt>
      <trkpt lat="42.5153960288" lon="20.0075151958">
        <ele>1897.30</ele>
        <time>2019-07-09T07:31:07Z</time>
      </trkpt>
      <trkpt lat="42.5153770018" lon="20.0076426007">
        <ele>1898.74</ele>
        <time>2019-07-09T07:31:20Z</time>
      </trkpt>
      <trkpt lat="42.5153786782" lon="20.0077648088">
        <ele>1901.14</ele>
        <time>2019-07-09T07:31:31Z</time>
      </trkpt>
      <trkpt lat="42.5154103618" lon="20.0078959018">
        <ele>1903.07</ele>
        <time>2019-07-09T07:31:44Z</time>
      </trkpt>
      <trkpt lat="42.5153653510" lon="20.0080371369">
        <ele>1904.03</ele>
        <time>2019-07-09T07:31:54Z</time>
      </trkpt>
      <trkpt lat="42.5153272972" lon="20.0082363747">
        <ele>1905.95</ele>
        <time>2019-07-09T07:32:10Z</time>
      </trkpt>
      <trkpt lat="42.5153088570" lon="20.0083319284">
        <ele>1906.91</ele>
        <time>2019-07-09T07:32:18Z</time>
      </trkpt>
      <trkpt lat="42.5152899977" lon="20.0085138157">
        <ele>1909.32</ele>
        <time>2019-07-09T07:32:33Z</time>
      </trkpt>
      <trkpt lat="42.5152846333" lon="20.0085396320">
        <ele>1910.28</ele>
        <time>2019-07-09T07:32:36Z</time>
      </trkpt>
      <trkpt lat="42.5152953621" lon="20.0086543802">
        <ele>1911.72</ele>
        <time>2019-07-09T07:32:49Z</time>
      </trkpt>
      <trkpt lat="42.5153280515" lon="20.0086946134">
        <ele>1911.72</ele>
        <time>2019-07-09T07:33:06Z</time>
      </trkpt>
      <trkpt lat="42.5153357629" lon="20.0087097008">
        <ele>1912.68</ele>
        <time>2019-07-09T07:33:20Z</time>
      </trkpt>
      <trkpt lat="42.5153439771" lon="20.0087149814">
        <ele>1912.68</ele>
        <time>2019-07-09T07:33:40Z</time>
      </trkpt>
      <trkpt lat="42.5153645966" lon="20.0087398756">
        <ele>1912.68</ele>
        <time>2019-07-09T07:33:48Z</time>
      </trkpt>
      <trkpt lat="42.5154458173" lon="20.0088114571">
        <ele>1913.64</ele>
        <time>2019-07-09T07:34:01Z</time>
      </trkpt>
      <trkpt lat="42.5154972821" lon="20.0088642631">
        <ele>1912.20</ele>
        <time>2019-07-09T07:34:07Z</time>
      </trkpt>
      <trkpt lat="42.5156020559" lon="20.0089691207">
        <ele>1909.80</ele>
        <time>2019-07-09T07:34:20Z</time>
      </trkpt>
      <trkpt lat="42.5156706199" lon="20.0090900715">
        <ele>1907.87</ele>
        <time>2019-07-09T07:34:30Z</time>
      </trkpt>
      <trkpt lat="42.5157233421" lon="20.0091786683">
        <ele>1907.39</ele>
        <time>2019-07-09T07:34:37Z</time>
      </trkpt>
      <trkpt lat="42.5158340670" lon="20.0093876291">
        <ele>1905.95</ele>
        <time>2019-07-09T07:34:53Z</time>
      </trkpt>
      <trkpt lat="42.5159191433" lon="20.0094923191">
        <ele>1905.47</ele>
        <time>2019-07-09T07:35:05Z</time>
      </trkpt>
      <trkpt lat="42.5160402618" lon="20.0096297823">
        <ele>1905.95</ele>
        <time>2019-07-09T07:35:20Z</time>
      </trkpt>
      <trkpt lat="42.5161303673" lon="20.0097591989">
        <ele>1906.91</ele>
        <time>2019-07-09T07:35:32Z</time>
      </trkpt>
      <trkpt lat="42.5161984283" lon="20.0098939799">
        <ele>1907.39</ele>
        <time>2019-07-09T07:35:42Z</time>
      </trkpt>
      <trkpt lat="42.5162651483" lon="20.0100184511">
        <ele>1907.39</ele>
        <time>2019-07-09T07:35:51Z</time>
      </trkpt>
      <trkpt lat="42.5163404178" lon="20.0101015158">
        <ele>1907.39</ele>
        <time>2019-07-09T07:35:59Z</time>
      </trkpt>
      <trkpt lat="42.5164016895" lon="20.0101780426">
        <ele>1907.39</ele>
        <time>2019-07-09T07:36:06Z</time>
      </trkpt>
      <trkpt lat="42.5164964888" lon="20.0102606881">
        <ele>1907.39</ele>
        <time>2019-07-09T07:36:16Z</time>
      </trkpt>
      <trkpt lat="42.5165796373" lon="20.0103176013">
        <ele>1905.95</ele>
        <time>2019-07-09T07:36:24Z</time>
      </trkpt>
      <trkpt lat="42.5166196190" lon="20.0103601813">
        <ele>1905.47</ele>
        <time>2019-07-09T07:36:28Z</time>
      </trkpt>
      <trkpt lat="42.5167393964" lon="20.0104719121">
        <ele>1905.47</ele>
        <time>2019-07-09T07:36:41Z</time>
      </trkpt>
      <trkpt lat="42.5167586748" lon="20.0104786176">
        <ele>1905.47</ele>
        <time>2019-07-09T07:36:43Z</time>
      </trkpt>
      <trkpt lat="42.5169143267" lon="20.0106076151">
        <ele>1907.87</ele>
        <time>2019-07-09T07:37:00Z</time>
      </trkpt>
      <trkpt lat="42.5169772748" lon="20.0106701441">
        <ele>1907.87</ele>
        <time>2019-07-09T07:37:07Z</time>
      </trkpt>
      <trkpt lat="42.5170177594" lon="20.0107030012">
        <ele>1907.87</ele>
        <time>2019-07-09T07:37:11Z</time>
      </trkpt>
      <trkpt lat="42.5171141513" lon="20.0107579026">
        <ele>1907.87</ele>
        <time>2019-07-09T07:37:21Z</time>
      </trkpt>
      <trkpt lat="42.5172354374" lon="20.0108660292">
        <ele>1907.87</ele>
        <time>2019-07-09T07:37:34Z</time>
      </trkpt>
      <trkpt lat="42.5173421390" lon="20.0109677855">
        <ele>1908.83</ele>
        <time>2019-07-09T07:37:48Z</time>
      </trkpt>
      <trkpt lat="42.5174606591" lon="20.0110756606">
        <ele>1909.80</ele>
        <time>2019-07-09T07:38:02Z</time>
      </trkpt>
      <trkpt lat="42.5175537821" lon="20.0111929234">
        <ele>1912.20</ele>
        <time>2019-07-09T07:38:15Z</time>
      </trkpt>
      <trkpt lat="42.5176193286" lon="20.0112764910">
        <ele>1914.12</ele>
        <time>2019-07-09T07:38:26Z</time>
      </trkpt>
      <trkpt lat="42.5176856294" lon="20.0113577116">
        <ele>1915.08</ele>
        <time>2019-07-09T07:38:38Z</time>
      </trkpt>
      <trkpt lat="42.5177017227" lon="20.0114626531">
        <ele>1916.04</ele>
        <time>2019-07-09T07:38:47Z</time>
      </trkpt>
      <trkpt lat="42.5177924987" lon="20.0116121024">
        <ele>1917.49</ele>
        <time>2019-07-09T07:39:00Z</time>
      </trkpt>
      <trkpt lat="42.5179393496" lon="20.0117627252">
        <ele>1915.56</ele>
        <time>2019-07-09T07:39:15Z</time>
      </trkpt>
      <trkpt lat="42.5180053152" lon="20.0119106658">
        <ele>1916.53</ele>
        <time>2019-07-09T07:39:27Z</time>
      </trkpt>
      <trkpt lat="42.5180081651" lon="20.0119274296">
        <ele>1916.53</ele>
        <time>2019-07-09T07:39:28Z</time>
      </trkpt>
      <trkpt lat="42.5180768967" lon="20.0120837521">
        <ele>1917.49</ele>
        <time>2019-07-09T07:39:42Z</time>
      </trkpt>
      <trkpt lat="42.5180978514" lon="20.0120910443">
        <ele>1917.49</ele>
        <time>2019-07-09T07:39:44Z</time>
      </trkpt>
      <trkpt lat="42.5182079896" lon="20.0121668167">
        <ele>1917.97</ele>
        <time>2019-07-09T07:39:56Z</time>
      </trkpt>
      <trkpt lat="42.5182643160" lon="20.0121888611">
        <ele>1917.97</ele>
        <time>2019-07-09T07:40:01Z</time>
      </trkpt>
      <trkpt lat="42.5184238236" lon="20.0122868456">
        <ele>1916.04</ele>
        <time>2019-07-09T07:40:14Z</time>
      </trkpt>
      <trkpt lat="42.5184710976" lon="20.0123071298">
        <ele>1915.56</ele>
        <time>2019-07-09T07:40:19Z</time>
      </trkpt>
      <trkpt lat="42.5185479596" lon="20.0123076327">
        <ele>1915.08</ele>
        <time>2019-07-09T07:40:24Z</time>
      </trkpt>
      <trkpt lat="42.5185796432" lon="20.0123106502">
        <ele>1914.60</ele>
        <time>2019-07-09T07:40:26Z</time>
      </trkpt>
      <trkpt lat="42.5186290964" lon="20.0122974906">
        <ele>1914.12</ele>
        <time>2019-07-09T07:40:31Z</time>
      </trkpt>
      <trkpt lat="42.5187336188" lon="20.0123094767">
        <ele>1912.68</ele>
        <time>2019-07-09T07:40:38Z</time>
      </trkpt>
      <trkpt lat="42.5188421644" lon="20.0122256577">
        <ele>1911.24</ele>
        <time>2019-07-09T07:40:50Z</time>
      </trkpt>
      <trkpt lat="42.5189785380" lon="20.0121763721">
        <ele>1909.32</ele>
        <time>2019-07-09T07:41:01Z</time>
      </trkpt>
      <trkpt lat="42.5190557353" lon="20.0121974107">
        <ele>1907.87</ele>
        <time>2019-07-09T07:41:10Z</time>
      </trkpt>
      <trkpt lat="42.5191200245" lon="20.0122137554">
        <ele>1907.87</ele>
        <time>2019-07-09T07:41:15Z</time>
      </trkpt>
      <trkpt lat="42.5191678014" lon="20.0122193713">
        <ele>1907.87</ele>
        <time>2019-07-09T07:41:18Z</time>
      </trkpt>
      <trkpt lat="42.5193064380" lon="20.0122293457">
        <ele>1907.39</ele>
        <time>2019-07-09T07:41:31Z</time>
      </trkpt>
      <trkpt lat="42.5193375349" lon="20.0122518092">
        <ele>1906.43</ele>
        <time>2019-07-09T07:41:35Z</time>
      </trkpt>
      <trkpt lat="42.5194746628" lon="20.0123058725">
        <ele>1905.47</ele>
        <time>2019-07-09T07:41:48Z</time>
      </trkpt>
      <trkpt lat="42.5196121261" lon="20.0123820640">
        <ele>1906.91</ele>
        <time>2019-07-09T07:42:01Z</time>
      </trkpt>
      <trkpt lat="42.5197308138" lon="20.0123663060">
        <ele>1907.39</ele>
        <time>2019-07-09T07:42:13Z</time>
      </trkpt>
      <trkpt lat="42.5197418779" lon="20.0123499613">
        <ele>1905.95</ele>
        <time>2019-07-09T07:42:15Z</time>
      </trkpt>
      <trkpt lat="42.5197723042" lon="20.0123156793">
        <ele>1904.99</ele>
        <time>2019-07-09T07:42:18Z</time>
      </trkpt>
      <trkpt lat="42.5199073367" lon="20.0121936388">
        <ele>1903.55</ele>
        <time>2019-07-09T07:42:31Z</time>
      </trkpt>
      <trkpt lat="42.5199364219" lon="20.0121831615">
        <ele>1904.99</ele>
        <time>2019-07-09T07:42:33Z</time>
      </trkpt>
      <trkpt lat="42.5199515931" lon="20.0121739414">
        <ele>1904.99</ele>
        <time>2019-07-09T07:42:35Z</time>
      </trkpt>
      <trkpt lat="42.5200085063" lon="20.0121683255">
        <ele>1905.95</ele>
        <time>2019-07-09T07:42:43Z</time>
      </trkpt>
      <trkpt lat="42.5200365018" lon="20.0122373924">
        <ele>1907.39</ele>
        <time>2019-07-09T07:42:55Z</time>
      </trkpt>
      <trkpt lat="42.5201530103" lon="20.0122928806">
        <ele>1907.39</ele>
        <time>2019-07-09T07:43:08Z</time>
      </trkpt>
      <trkpt lat="42.5201919023" lon="20.0123082194">
        <ele>1905.95</ele>
        <time>2019-07-09T07:43:11Z</time>
      </trkpt>
      <trkpt lat="42.5202727877" lon="20.0123494584">
        <ele>1905.47</ele>
        <time>2019-07-09T07:43:20Z</time>
      </trkpt>
      <trkpt lat="42.5203674193" lon="20.0124113169">
        <ele>1905.47</ele>
        <time>2019-07-09T07:43:28Z</time>
      </trkpt>
      <trkpt lat="42.5204175431" lon="20.0125937071">
        <ele>1904.99</ele>
        <time>2019-07-09T07:43:41Z</time>
      </trkpt>
      <trkpt lat="42.5204190519" lon="20.0128130615">
        <ele>1904.99</ele>
        <time>2019-07-09T07:43:53Z</time>
      </trkpt>
      <trkpt lat="42.5204814132" lon="20.0129318330">
        <ele>1906.43</ele>
        <time>2019-07-09T07:44:06Z</time>
      </trkpt>
      <trkpt lat="42.5204851851" lon="20.0129421428">
        <ele>1906.43</ele>
        <time>2019-07-09T07:44:07Z</time>
      </trkpt>
      <trkpt lat="42.5205028709" lon="20.0129916798">
        <ele>1906.91</ele>
        <time>2019-07-09T07:44:11Z</time>
      </trkpt>
      <trkpt lat="42.5205196347" lon="20.0130589865">
        <ele>1907.39</ele>
        <time>2019-07-09T07:44:26Z</time>
      </trkpt>
      <trkpt lat="42.5205177907" lon="20.0130983815">
        <ele>1907.39</ele>
        <time>2019-07-09T07:44:36Z</time>
      </trkpt>
      <trkpt lat="42.5205742847" lon="20.0132386107">
        <ele>1908.83</ele>
        <time>2019-07-09T07:44:50Z</time>
      </trkpt>
      <trkpt lat="42.5206074771" lon="20.0133101922">
        <ele>1910.28</ele>
        <time>2019-07-09T07:44:59Z</time>
      </trkpt>
      <trkpt lat="42.5206260849" lon="20.0133737270">
        <ele>1910.28</ele>
        <time>2019-07-09T07:45:04Z</time>
      </trkpt>
      <trkpt lat="42.5206664018" lon="20.0134650059">
        <ele>1911.24</ele>
        <time>2019-07-09T07:45:11Z</time>
      </trkpt>
      <trkpt lat="42.5206860155" lon="20.0135277864">
        <ele>1911.72</ele>
        <time>2019-07-09T07:45:16Z</time>
      </trkpt>
      <trkpt lat="42.5207130052" lon="20.0136190653">
        <ele>1911.72</ele>
        <time>2019-07-09T07:45:22Z</time>
      </trkpt>
      <trkpt lat="42.5207885262" lon="20.0137457158">
        <ele>1912.68</ele>
        <time>2019-07-09T07:45:35Z</time>
      </trkpt>
      <trkpt lat="42.5208943058" lon="20.0138266850">
        <ele>1911.72</ele>
        <time>2019-07-09T07:45:46Z</time>
      </trkpt>
      <trkpt lat="42.5210422464" lon="20.0138831791">
        <ele>1911.72</ele>
        <time>2019-07-09T07:46:03Z</time>
      </trkpt>
      <trkpt lat="42.5211110618" lon="20.0139466301">
        <ele>1913.16</ele>
        <time>2019-07-09T07:46:08Z</time>
      </trkpt>
      <trkpt lat="42.5212377962" lon="20.0140442792">
        <ele>1914.12</ele>
        <time>2019-07-09T07:46:20Z</time>
      </trkpt>
      <trkpt lat="42.5212445855" lon="20.0140510686">
        <ele>1914.12</ele>
        <time>2019-07-09T07:46:21Z</time>
      </trkpt>
      <trkpt lat="42.5212583318" lon="20.0140819140">
        <ele>1914.12</ele>
        <time>2019-07-09T07:46:23Z</time>
      </trkpt>
      <trkpt lat="42.5212606788" lon="20.0141362287">
        <ele>1914.12</ele>
        <time>2019-07-09T07:46:26Z</time>
      </trkpt>
      <trkpt lat="42.5212649535" lon="20.0141483825">
        <ele>1914.12</ele>
        <time>2019-07-09T07:46:27Z</time>
      </trkpt>
      <trkpt lat="42.5212696474" lon="20.0142326206">
        <ele>1912.20</ele>
        <time>2019-07-09T07:46:34Z</time>
      </trkpt>
      <trkpt lat="42.5213140715" lon="20.0143557508">
        <ele>1911.24</ele>
        <time>2019-07-09T07:46:46Z</time>
      </trkpt>
      <trkpt lat="42.5213549752" lon="20.0144464429">
        <ele>1911.24</ele>
        <time>2019-07-09T07:46:52Z</time>
      </trkpt>
      <trkpt lat="42.5213605911" lon="20.0145232212">
        <ele>1910.76</ele>
        <time>2019-07-09T07:46:58Z</time>
      </trkpt>
      <trkpt lat="42.5214172527" lon="20.0145953894">
        <ele>1909.32</ele>
        <time>2019-07-09T07:47:04Z</time>
      </trkpt>
      <trkpt lat="42.5214959588" lon="20.0146767776">
        <ele>1908.35</ele>
        <time>2019-07-09T07:47:14Z</time>
      </trkpt>
      <trkpt lat="42.5215042569" lon="20.0146956369">
        <ele>1907.87</ele>
        <time>2019-07-09T07:47:15Z</time>
      </trkpt>
      <trkpt lat="42.5215870701" lon="20.0148781948">
        <ele>1905.95</ele>
        <time>2019-07-09T07:47:28Z</time>
      </trkpt>
      <trkpt lat="42.5216120481" lon="20.0149007421">
        <ele>1905.47</ele>
        <time>2019-07-09T07:47:30Z</time>
      </trkpt>
      <trkpt lat="42.5216213521" lon="20.0149234571">
        <ele>1905.47</ele>
        <time>2019-07-09T07:47:31Z</time>
      </trkpt>
      <trkpt lat="42.5216447376" lon="20.0150400493">
        <ele>1903.55</ele>
        <time>2019-07-09T07:47:39Z</time>
      </trkpt>
      <trkpt lat="42.5216673687" lon="20.0150656141">
        <ele>1903.55</ele>
        <time>2019-07-09T07:47:42Z</time>
      </trkpt>
      <trkpt lat="42.5217102002" lon="20.0152708031">
        <ele>1902.11</ele>
        <time>2019-07-09T07:47:57Z</time>
      </trkpt>
      <trkpt lat="42.5217153970" lon="20.0152848009">
        <ele>1902.11</ele>
        <time>2019-07-09T07:47:58Z</time>
      </trkpt>
      <trkpt lat="42.5218188297" lon="20.0154441409">
        <ele>1900.66</ele>
        <time>2019-07-09T07:48:12Z</time>
      </trkpt>
      <trkpt lat="42.5218230207" lon="20.0154606532">
        <ele>1900.66</ele>
        <time>2019-07-09T07:48:13Z</time>
      </trkpt>
      <trkpt lat="42.5218372699" lon="20.0155154709">
        <ele>1900.18</ele>
        <time>2019-07-09T07:48:16Z</time>
      </trkpt>
      <trkpt lat="42.5219376851" lon="20.0156611484">
        <ele>1899.22</ele>
        <time>2019-07-09T07:48:31Z</time>
      </trkpt>
      <trkpt lat="42.5220053270" lon="20.0157606415">
        <ele>1899.22</ele>
        <time>2019-07-09T07:48:39Z</time>
      </trkpt>
      <trkpt lat="42.5220766570" lon="20.0158572849">
        <ele>1902.11</ele>
        <time>2019-07-09T07:48:51Z</time>
      </trkpt>
      <trkpt lat="42.5220956840" lon="20.0159256812">
        <ele>1902.59</ele>
        <time>2019-07-09T07:48:56Z</time>
      </trkpt>
      <trkpt lat="42.5221413653" lon="20.0160667486">
        <ele>1901.14</ele>
        <time>2019-07-09T07:49:06Z</time>
      </trkpt>
      <trkpt lat="42.5222397689" lon="20.0162163656">
        <ele>1898.74</ele>
        <time>2019-07-09T07:49:19Z</time>
      </trkpt>
      <trkpt lat="42.5222960953" lon="20.0162971672">
        <ele>1898.74</ele>
        <time>2019-07-09T07:49:27Z</time>
      </trkpt>
      <trkpt lat="42.5224311277" lon="20.0163762923">
        <ele>1900.18</ele>
        <time>2019-07-09T07:49:41Z</time>
      </trkpt>
      <trkpt lat="42.5225693453" lon="20.0164648052">
        <ele>1898.74</ele>
        <time>2019-07-09T07:49:54Z</time>
      </trkpt>
      <trkpt lat="42.5226666592" lon="20.0165281724">
        <ele>1898.74</ele>
        <time>2019-07-09T07:50:04Z</time>
      </trkpt>
      <trkpt lat="42.5227627996" lon="20.0165812299">
        <ele>1897.78</ele>
        <time>2019-07-09T07:50:14Z</time>
      </trkpt>
      <trkpt lat="42.5228257477" lon="20.0166125782">
        <ele>1896.34</ele>
        <time>2019-07-09T07:50:20Z</time>
      </trkpt>
      <trkpt lat="42.5229117461" lon="20.0166549906">
        <ele>1894.90</ele>
        <time>2019-07-09T07:50:27Z</time>
      </trkpt>
      <trkpt lat="42.5230712537" lon="20.0167803001">
        <ele>1892.01</ele>
        <time>2019-07-09T07:50:39Z</time>
      </trkpt>
      <trkpt lat="42.5232005026" lon="20.0168072898">
        <ele>1889.61</ele>
        <time>2019-07-09T07:50:53Z</time>
      </trkpt>
      <trkpt lat="42.5232538953" lon="20.0168389734">
        <ele>1888.65</ele>
        <time>2019-07-09T07:50:58Z</time>
      </trkpt>
      <trkpt lat="42.5232842378" lon="20.0168607663">
        <ele>1888.65</ele>
        <time>2019-07-09T07:51:01Z</time>
      </trkpt>
      <trkpt lat="42.5234103855" lon="20.0170348585">
        <ele>1887.69</ele>
        <time>2019-07-09T07:51:15Z</time>
      </trkpt>
      <trkpt lat="42.5234586652" lon="20.0172129739">
        <ele>1886.72</ele>
        <time>2019-07-09T07:51:27Z</time>
      </trkpt>
      <trkpt lat="42.5235872436" lon="20.0173083600">
        <ele>1884.80</ele>
        <time>2019-07-09T07:51:40Z</time>
      </trkpt>
      <trkpt lat="42.5236256327" lon="20.0173542090">
        <ele>1882.88</ele>
        <time>2019-07-09T07:51:47Z</time>
      </trkpt>
      <trkpt lat="42.5236061867" lon="20.0174392015">
        <ele>1882.40</ele>
        <time>2019-07-09T07:51:55Z</time>
      </trkpt>
      <trkpt lat="42.5236114673" lon="20.0174885709">
        <ele>1883.84</ele>
        <time>2019-07-09T07:52:00Z</time>
      </trkpt>
      <trkpt lat="42.5236128084" lon="20.0175225176">
        <ele>1883.84</ele>
        <time>2019-07-09T07:52:02Z</time>
      </trkpt>
      <trkpt lat="42.5235738326" lon="20.0176154729">
        <ele>1882.40</ele>
        <time>2019-07-09T07:52:08Z</time>
      </trkpt>
      <trkpt lat="42.5235978886" lon="20.0179015473">
        <ele>1879.51</ele>
        <time>2019-07-09T07:52:24Z</time>
      </trkpt>
      <trkpt lat="42.5236879103" lon="20.0180411059">
        <ele>1877.59</ele>
        <time>2019-07-09T07:52:35Z</time>
      </trkpt>
      <trkpt lat="42.5237732381" lon="20.0183012802">
        <ele>1876.15</ele>
        <time>2019-07-09T07:52:51Z</time>
      </trkpt>
      <trkpt lat="42.5238029938" lon="20.0184789766">
        <ele>1873.27</ele>
        <time>2019-07-09T07:53:03Z</time>
      </trkpt>
      <trkpt lat="42.5238059275" lon="20.0185623765">
        <ele>1871.82</ele>
        <time>2019-07-09T07:53:08Z</time>
      </trkpt>
      <trkpt lat="42.5238177460" lon="20.0186082255">
        <ele>1870.38</ele>
        <time>2019-07-09T07:53:13Z</time>
      </trkpt>
      <trkpt lat="42.5237936899" lon="20.0188227184">
        <ele>1867.50</ele>
        <time>2019-07-09T07:53:28Z</time>
      </trkpt>
      <trkpt lat="42.5237628445" lon="20.0189963914">
        <ele>1864.61</ele>
        <time>2019-07-09T07:53:40Z</time>
      </trkpt>
      <trkpt lat="42.5237875711" lon="20.0190843176">
        <ele>1863.17</ele>
        <time>2019-07-09T07:53:48Z</time>
      </trkpt>
      <trkpt lat="42.5238278881" lon="20.0192920212">
        <ele>1863.17</ele>
        <time>2019-07-09T07:54:01Z</time>
      </trkpt>
      <trkpt lat="42.5238057598" lon="20.0194484275">
        <ele>1863.17</ele>
        <time>2019-07-09T07:54:12Z</time>
      </trkpt>
      <trkpt lat="42.5238100346" lon="20.0194984674">
        <ele>1863.17</ele>
        <time>2019-07-09T07:54:15Z</time>
      </trkpt>
      <trkpt lat="42.5238051731" lon="20.0197622459">
        <ele>1861.73</ele>
        <time>2019-07-09T07:54:29Z</time>
      </trkpt>
      <trkpt lat="42.5237920135" lon="20.0200007949">
        <ele>1861.25</ele>
        <time>2019-07-09T07:54:43Z</time>
      </trkpt>
      <trkpt lat="42.5238076877" lon="20.0201535132">
        <ele>1861.25</ele>
        <time>2019-07-09T07:54:52Z</time>
      </trkpt>
      <trkpt lat="42.5238713901" lon="20.0203732867">
        <ele>1860.77</ele>
        <time>2019-07-09T07:55:05Z</time>
      </trkpt>
      <trkpt lat="42.5239060912" lon="20.0204546750">
        <ele>1860.29</ele>
        <time>2019-07-09T07:55:10Z</time>
      </trkpt>
      <trkpt lat="42.5239871442" lon="20.0206001010">
        <ele>1859.33</ele>
        <time>2019-07-09T07:55:23Z</time>
      </trkpt>
      <trkpt lat="42.5241027307" lon="20.0207597762">
        <ele>1858.85</ele>
        <time>2019-07-09T07:55:37Z</time>
      </trkpt>
      <trkpt lat="42.5241430476" lon="20.0208168570">
        <ele>1858.37</ele>
        <time>2019-07-09T07:55:42Z</time>
      </trkpt>
      <trkpt lat="42.5242261961" lon="20.0208602753">
        <ele>1855.96</ele>
        <time>2019-07-09T07:55:48Z</time>
      </trkpt>
      <trkpt lat="42.5242955144" lon="20.0208904501">
        <ele>1855.48</ele>
        <time>2019-07-09T07:55:53Z</time>
      </trkpt>
      <trkpt lat="42.5244599674" lon="20.0209023524">
        <ele>1854.52</ele>
        <time>2019-07-09T07:56:08Z</time>
      </trkpt>
      <trkpt lat="42.5246028788" lon="20.0208985806">
        <ele>1852.12</ele>
        <time>2019-07-09T07:56:21Z</time>
      </trkpt>
      <trkpt lat="42.5246682577" lon="20.0208984967">
        <ele>1850.68</ele>
        <time>2019-07-09T07:56:30Z</time>
      </trkpt>
      <trkpt lat="42.5247961655" lon="20.0209012628">
        <ele>1848.27</ele>
        <time>2019-07-09T07:56:42Z</time>
      </trkpt>
      <trkpt lat="42.5249130931" lon="20.0208984967">
        <ele>1845.39</ele>
        <time>2019-07-09T07:56:55Z</time>
      </trkpt>
      <trkpt lat="42.5249270909" lon="20.0208975747">
        <ele>1844.91</ele>
        <time>2019-07-09T07:56:57Z</time>
      </trkpt>
      <trkpt lat="42.5250499696" lon="20.0209026877">
        <ele>1843.95</ele>
        <time>2019-07-09T07:57:05Z</time>
      </trkpt>
      <trkpt lat="42.5251161028" lon="20.0209462736">
        <ele>1843.95</ele>
        <time>2019-07-09T07:57:11Z</time>
      </trkpt>
      <trkpt lat="42.5252461899" lon="20.0211661309">
        <ele>1843.95</ele>
        <time>2019-07-09T07:57:28Z</time>
      </trkpt>
      <trkpt lat="42.5253182743" lon="20.0213145744">
        <ele>1843.95</ele>
        <time>2019-07-09T07:57:41Z</time>
      </trkpt>
      <trkpt lat="42.5253545679" lon="20.0213544723">
        <ele>1843.95</ele>
        <time>2019-07-09T07:57:46Z</time>
      </trkpt>
      <trkpt lat="42.5255042687" lon="20.0214274786">
        <ele>1842.98</ele>
        <time>2019-07-09T07:58:01Z</time>
      </trkpt>
      <trkpt lat="42.5256270636" lon="20.0215427298">
        <ele>1842.98</ele>
        <time>2019-07-09T07:58:15Z</time>
      </trkpt>
      <trkpt lat="42.5256398879" lon="20.0215547159">
        <ele>1842.98</ele>
        <time>2019-07-09T07:58:17Z</time>
      </trkpt>
      <trkpt lat="42.5257402193" lon="20.0217157323">
        <ele>1842.98</ele>
        <time>2019-07-09T07:58:31Z</time>
      </trkpt>
      <trkpt lat="42.5257978030" lon="20.0218310673">
        <ele>1842.98</ele>
        <time>2019-07-09T07:58:44Z</time>
      </trkpt>
      <trkpt lat="42.5258274749" lon="20.0218886510">
        <ele>1842.98</ele>
        <time>2019-07-09T07:58:57Z</time>
      </trkpt>
      <trkpt lat="42.5258866511" lon="20.0220195763">
        <ele>1844.43</ele>
        <time>2019-07-09T07:59:07Z</time>
      </trkpt>
      <trkpt lat="42.5259277225" lon="20.0221106876">
        <ele>1844.91</ele>
        <time>2019-07-09T07:59:20Z</time>
      </trkpt>
      <trkpt lat="42.5259426422" lon="20.0221342407">
        <ele>1844.91</ele>
        <time>2019-07-09T07:59:37Z</time>
      </trkpt>
      <trkpt lat="42.5260323286" lon="20.0222707819">
        <ele>1845.87</ele>
        <time>2019-07-09T07:59:51Z</time>
      </trkpt>
      <trkpt lat="42.5261542853" lon="20.0224294513">
        <ele>1845.87</ele>
        <time>2019-07-09T08:00:06Z</time>
      </trkpt>
      <trkpt lat="42.5263023935" lon="20.0225831755">
        <ele>1844.43</ele>
        <time>2019-07-09T08:00:22Z</time>
      </trkpt>
      <trkpt lat="42.5264000427" lon="20.0228130072">
        <ele>1843.95</ele>
        <time>2019-07-09T08:00:38Z</time>
      </trkpt>
      <trkpt lat="42.5264025573" lon="20.0228814874">
        <ele>1843.95</ele>
        <time>2019-07-09T08:00:43Z</time>
      </trkpt>
      <trkpt lat="42.5263805129" lon="20.0229941402">
        <ele>1843.95</ele>
        <time>2019-07-09T08:00:51Z</time>
      </trkpt>
      <trkpt lat="42.5263300538" lon="20.0231884327">
        <ele>1841.54</ele>
        <time>2019-07-09T08:01:05Z</time>
      </trkpt>
      <trkpt lat="42.5263267849" lon="20.0232235529">
        <ele>1841.06</ele>
        <time>2019-07-09T08:01:09Z</time>
      </trkpt>
      <trkpt lat="42.5263086800" lon="20.0233384687">
        <ele>1839.14</ele>
        <time>2019-07-09T08:01:16Z</time>
      </trkpt>
      <trkpt lat="42.5263646711" lon="20.0234986469">
        <ele>1835.77</ele>
        <time>2019-07-09T08:01:30Z</time>
      </trkpt>
      <trkpt lat="42.5263730530" lon="20.0235196017">
        <ele>1834.81</ele>
        <time>2019-07-09T08:01:43Z</time>
      </trkpt>
      <trkpt lat="42.5263726339" lon="20.0236304104">
        <ele>1832.89</ele>
        <time>2019-07-09T08:02:08Z</time>
      </trkpt>
      <trkpt lat="42.5264182314" lon="20.0237145647">
        <ele>1831.93</ele>
        <time>2019-07-09T08:02:16Z</time>
      </trkpt>
      <trkpt lat="42.5264520105" lon="20.0237656105">
        <ele>1830.97</ele>
        <time>2019-07-09T08:02:21Z</time>
      </trkpt>
      <trkpt lat="42.5264721271" lon="20.0237805303">
        <ele>1830.49</ele>
        <time>2019-07-09T08:02:23Z</time>
      </trkpt>
      <trkpt lat="42.5266172178" lon="20.0238669477">
        <ele>1827.60</ele>
        <time>2019-07-09T08:02:37Z</time>
      </trkpt>
      <trkpt lat="42.5266678445" lon="20.0239804387">
        <ele>1825.68</ele>
        <time>2019-07-09T08:02:46Z</time>
      </trkpt>
      <trkpt lat="42.5266286172" lon="20.0240697898">
        <ele>1823.28</ele>
        <time>2019-07-09T08:03:02Z</time>
      </trkpt>
      <trkpt lat="42.5266297907" lon="20.0240854640">
        <ele>1823.28</ele>
        <time>2019-07-09T08:03:24Z</time>
      </trkpt>
      <trkpt lat="42.5266392622" lon="20.0240763277">
        <ele>1823.28</ele>
        <time>2019-07-09T08:03:51Z</time>
      </trkpt>
      <trkpt lat="42.5266353227" lon="20.0240840390">
        <ele>1823.28</ele>
        <time>2019-07-09T08:04:17Z</time>
      </trkpt>
      <trkpt lat="42.5265914854" lon="20.0241777487">
        <ele>1821.35</ele>
        <time>2019-07-09T08:04:27Z</time>
      </trkpt>
      <trkpt lat="42.5265843607" lon="20.0243183970">
        <ele>1818.47</ele>
        <time>2019-07-09T08:04:40Z</time>
      </trkpt>
      <trkpt lat="42.5266657490" lon="20.0245035533">
        <ele>1815.11</ele>
        <time>2019-07-09T08:04:55Z</time>
      </trkpt>
      <trkpt lat="42.5266978517" lon="20.0245616399">
        <ele>1814.15</ele>
        <time>2019-07-09T08:05:00Z</time>
      </trkpt>
      <trkpt lat="42.5267051440" lon="20.0246235821">
        <ele>1813.66</ele>
        <time>2019-07-09T08:05:04Z</time>
      </trkpt>
      <trkpt lat="42.5267162081" lon="20.0246580318">
        <ele>1812.70</ele>
        <time>2019-07-09T08:05:06Z</time>
      </trkpt>
      <trkpt lat="42.5267123524" lon="20.0247716065">
        <ele>1810.30</ele>
        <time>2019-07-09T08:05:14Z</time>
      </trkpt>
      <trkpt lat="42.5266861171" lon="20.0249513146">
        <ele>1807.90</ele>
        <time>2019-07-09T08:05:29Z</time>
      </trkpt>
      <trkpt lat="42.5266803335" lon="20.0249593612">
        <ele>1806.94</ele>
        <time>2019-07-09T08:05:30Z</time>
      </trkpt>
      <trkpt lat="42.5266297068" lon="20.0250886101">
        <ele>1804.53</ele>
        <time>2019-07-09T08:05:45Z</time>
      </trkpt>
      <trkpt lat="42.5266317185" lon="20.0250844192">
        <ele>1805.49</ele>
        <time>2019-07-09T08:05:58Z</time>
      </trkpt>
      <trkpt lat="42.5266705267" lon="20.0250474550">
        <ele>1805.49</ele>
        <time>2019-07-09T08:06:20Z</time>
      </trkpt>
      <trkpt lat="42.5267041381" lon="20.0251425058">
        <ele>1806.45</ele>
        <time>2019-07-09T08:06:32Z</time>
      </trkpt>
      <trkpt lat="42.5267148670" lon="20.0251716748">
        <ele>1807.42</ele>
        <time>2019-07-09T08:06:36Z</time>
      </trkpt>
      <trkpt lat="42.5267710257" lon="20.0252641272">
        <ele>1809.34</ele>
        <time>2019-07-09T08:06:48Z</time>
      </trkpt>
      <trkpt lat="42.5268120132" lon="20.0253916159">
        <ele>1810.78</ele>
        <time>2019-07-09T08:07:01Z</time>
      </trkpt>
      <trkpt lat="42.5268674176" lon="20.0255035982">
        <ele>1812.70</ele>
        <time>2019-07-09T08:07:15Z</time>
      </trkpt>
      <trkpt lat="42.5268690102" lon="20.0255433284">
        <ele>1814.15</ele>
        <time>2019-07-09T08:07:19Z</time>
      </trkpt>
      <trkpt lat="42.5268804096" lon="20.0256652851">
        <ele>1815.59</ele>
        <time>2019-07-09T08:07:33Z</time>
      </trkpt>
      <trkpt lat="42.5268783141" lon="20.0257804524">
        <ele>1817.03</ele>
        <time>2019-07-09T08:07:47Z</time>
      </trkpt>
      <trkpt lat="42.5268930662" lon="20.0258964580">
        <ele>1818.47</ele>
        <time>2019-07-09T08:08:01Z</time>
      </trkpt>
      <trkpt lat="42.5269157812" lon="20.0260172412">
        <ele>1820.87</ele>
        <time>2019-07-09T08:08:14Z</time>
      </trkpt>
      <trkpt lat="42.5269780587" lon="20.0260999706">
        <ele>1822.32</ele>
        <time>2019-07-09T08:08:26Z</time>
      </trkpt>
      <trkpt lat="42.5269946549" lon="20.0261288881">
        <ele>1823.28</ele>
        <time>2019-07-09T08:08:30Z</time>
      </trkpt>
      <trkpt lat="42.5270296074" lon="20.0261743180">
        <ele>1823.76</ele>
        <time>2019-07-09T08:08:35Z</time>
      </trkpt>
      <trkpt lat="42.5271337107" lon="20.0262938440">
        <ele>1824.72</ele>
        <time>2019-07-09T08:08:49Z</time>
      </trkpt>
      <trkpt lat="42.5271906238" lon="20.0264050718">
        <ele>1826.64</ele>
        <time>2019-07-09T08:09:01Z</time>
      </trkpt>
      <trkpt lat="42.5272720959" lon="20.0265101809">
        <ele>1829.05</ele>
        <time>2019-07-09T08:09:15Z</time>
      </trkpt>
      <trkpt lat="42.5273426715" lon="20.0266495720">
        <ele>1831.45</ele>
        <time>2019-07-09T08:09:30Z</time>
      </trkpt>
      <trkpt lat="42.5274201203" lon="20.0267794915">
        <ele>1832.89</ele>
        <time>2019-07-09T08:09:46Z</time>
      </trkpt>
      <trkpt lat="42.5275476091" lon="20.0268813316">
        <ele>1834.33</ele>
        <time>2019-07-09T08:10:02Z</time>
      </trkpt>
      <trkpt lat="42.5275959726" lon="20.0269427709">
        <ele>1836.26</ele>
        <time>2019-07-09T08:10:11Z</time>
      </trkpt>
      <trkpt lat="42.5276755169" lon="20.0270251650">
        <ele>1837.70</ele>
        <time>2019-07-09T08:10:24Z</time>
      </trkpt>
      <trkpt lat="42.5276824739" lon="20.0270332955">
        <ele>1837.70</ele>
        <time>2019-07-09T08:10:25Z</time>
      </trkpt>
      <trkpt lat="42.5277807936" lon="20.0271159410">
        <ele>1840.10</ele>
        <time>2019-07-09T08:10:38Z</time>
      </trkpt>
      <trkpt lat="42.5278677978" lon="20.0272387359">
        <ele>1841.06</ele>
        <time>2019-07-09T08:10:52Z</time>
      </trkpt>
      <trkpt lat="42.5279242918" lon="20.0273236446">
        <ele>1843.47</ele>
        <time>2019-07-09T08:11:03Z</time>
      </trkpt>
      <trkpt lat="42.5279447436" lon="20.0273590162">
        <ele>1843.95</ele>
        <time>2019-07-09T08:11:08Z</time>
      </trkpt>
      <trkpt lat="42.5279786903" lon="20.0273880176">
        <ele>1843.95</ele>
        <time>2019-07-09T08:11:12Z</time>
      </trkpt>
      <trkpt lat="42.5280097034" lon="20.0274141692">
        <ele>1843.95</ele>
        <time>2019-07-09T08:11:15Z</time>
      </trkpt>
      <trkpt lat="42.5281454902" lon="20.0274870917">
        <ele>1845.87</ele>
        <time>2019-07-09T08:11:29Z</time>
      </trkpt>
      <trkpt lat="42.5281998888" lon="20.0275528897">
        <ele>1846.83</ele>
        <time>2019-07-09T08:11:38Z</time>
      </trkpt>
      <trkpt lat="42.5282568019" lon="20.0276357867">
        <ele>1847.79</ele>
        <time>2019-07-09T08:11:50Z</time>
      </trkpt>
      <trkpt lat="42.5283772498" lon="20.0277354475">
        <ele>1848.27</ele>
        <time>2019-07-09T08:12:03Z</time>
      </trkpt>
      <trkpt lat="42.5284893997" lon="20.0277875829">
        <ele>1848.75</ele>
        <time>2019-07-09T08:12:15Z</time>
      </trkpt>
      <trkpt lat="42.5285669323" lon="20.0278071128">
        <ele>1850.19</ele>
        <time>2019-07-09T08:12:24Z</time>
      </trkpt>
      <trkpt lat="42.5287046470" lon="20.0278304983">
        <ele>1851.16</ele>
        <time>2019-07-09T08:12:41Z</time>
      </trkpt>
      <trkpt lat="42.5288062356" lon="20.0278737489">
        <ele>1850.19</ele>
        <time>2019-07-09T08:12:54Z</time>
      </trkpt>
      <trkpt lat="42.5289327186" lon="20.0278993137">
        <ele>1850.68</ele>
        <time>2019-07-09T08:13:06Z</time>
      </trkpt>
      <trkpt lat="42.5289609656" lon="20.0279009063">
        <ele>1851.64</ele>
        <time>2019-07-09T08:13:09Z</time>
      </trkpt>
      <trkpt lat="42.5290504005" lon="20.0279824622">
        <ele>1850.19</ele>
        <time>2019-07-09T08:13:20Z</time>
      </trkpt>
      <trkpt lat="42.5291207246" lon="20.0280169956">
        <ele>1848.75</ele>
        <time>2019-07-09T08:13:30Z</time>
      </trkpt>
      <trkpt lat="42.5291669089" lon="20.0280563906">
        <ele>1847.31</ele>
        <time>2019-07-09T08:13:38Z</time>
      </trkpt>
      <trkpt lat="42.5291897077" lon="20.0280603301">
        <ele>1847.31</ele>
        <time>2019-07-09T08:13:40Z</time>
      </trkpt>
      <trkpt lat="42.5293159392" lon="20.0281122979">
        <ele>1846.83</ele>
        <time>2019-07-09T08:13:53Z</time>
      </trkpt>
      <trkpt lat="42.5294005126" lon="20.0281858072">
        <ele>1846.83</ele>
        <time>2019-07-09T08:14:07Z</time>
      </trkpt>
      <trkpt lat="42.5294265803" lon="20.0281558838">
        <ele>1848.27</ele>
        <time>2019-07-09T08:14:23Z</time>
      </trkpt>
      <trkpt lat="42.5293982495" lon="20.0282205921">
        <ele>1848.27</ele>
        <time>2019-07-09T08:14:54Z</time>
      </trkpt>
      <trkpt lat="42.5294028595" lon="20.0281980447">
        <ele>1847.79</ele>
        <time>2019-07-09T08:15:29Z</time>
      </trkpt>
      <trkpt lat="42.5293951482" lon="20.0282152276">
        <ele>1847.79</ele>
        <time>2019-07-09T08:16:05Z</time>
      </trkpt>
      <trkpt lat="42.5293705892" lon="20.0282363500">
        <ele>1848.27</ele>
        <time>2019-07-09T08:16:45Z</time>
      </trkpt>
      <trkpt lat="42.5294128340" lon="20.0282064267">
        <ele>1846.83</ele>
        <time>2019-07-09T08:17:21Z</time>
      </trkpt>
      <trkpt lat="42.5294323638" lon="20.0282298960">
        <ele>1847.31</ele>
        <time>2019-07-09T08:17:51Z</time>
      </trkpt>
      <trkpt lat="42.5294310227" lon="20.0281679537">
        <ele>1847.31</ele>
        <time>2019-07-09T08:18:21Z</time>
      </trkpt>
      <trkpt lat="42.5294596888" lon="20.0282251183">
        <ele>1847.31</ele>
        <time>2019-07-09T08:18:55Z</time>
      </trkpt>
      <trkpt lat="42.5294779614" lon="20.0281806104">
        <ele>1847.79</ele>
        <time>2019-07-09T08:19:32Z</time>
      </trkpt>
      <trkpt lat="42.5294706691" lon="20.0282003917">
        <ele>1847.79</ele>
        <time>2019-07-09T08:19:52Z</time>
      </trkpt>
      <trkpt lat="42.5294284243" lon="20.0281969551">
        <ele>1848.75</ele>
        <time>2019-07-09T08:20:25Z</time>
      </trkpt>
      <trkpt lat="42.5294284243" lon="20.0283081830">
        <ele>1848.75</ele>
        <time>2019-07-09T08:21:02Z</time>
      </trkpt>
      <trkpt lat="42.5295044482" lon="20.0282728951">
        <ele>1848.75</ele>
        <time>2019-07-09T08:21:32Z</time>
      </trkpt>
      <trkpt lat="42.5294933002" lon="20.0282532815">
        <ele>1848.75</ele>
        <time>2019-07-09T08:22:01Z</time>
      </trkpt>
      <trkpt lat="42.5294811465" lon="20.0282950234">
        <ele>1849.23</ele>
        <time>2019-07-09T08:22:30Z</time>
      </trkpt>
      <trkpt lat="42.5294276699" lon="20.0282892399">
        <ele>1849.23</ele>
        <time>2019-07-09T08:22:59Z</time>
      </trkpt>
      <trkpt lat="42.5293632969" lon="20.0283195823">
        <ele>1849.71</ele>
        <time>2019-07-09T08:23:38Z</time>
      </trkpt>
      <trkpt lat="42.5293971598" lon="20.0283309817">
        <ele>1848.75</ele>
        <time>2019-07-09T08:24:13Z</time>
      </trkpt>
      <trkpt lat="42.5294410810" lon="20.0282764994">
        <ele>1849.23</ele>
        <time>2019-07-09T08:24:44Z</time>
      </trkpt>
      <trkpt lat="42.5294142589" lon="20.0282295607">
        <ele>1849.23</ele>
        <time>2019-07-09T08:25:18Z</time>
      </trkpt>
      <trkpt lat="42.5294306874" lon="20.0282930117">
        <ele>1848.75</ele>
        <time>2019-07-09T08:25:50Z</time>
      </trkpt>
      <trkpt lat="42.5294029433" lon="20.0282653514">
        <ele>1849.23</ele>
        <time>2019-07-09T08:26:19Z</time>
      </trkpt>
      <trkpt lat="42.5293826591" lon="20.0283015613">
        <ele>1849.23</ele>
        <time>2019-07-09T08:26:58Z</time>
      </trkpt>
      <trkpt lat="42.5293570105" lon="20.0282498449">
        <ele>1849.71</ele>
        <time>2019-07-09T08:27:33Z</time>
      </trkpt>
      <trkpt lat="42.5292974152" lon="20.0282339193">
        <ele>1849.71</ele>
        <time>2019-07-09T08:28:05Z</time>
      </trkpt>
      <trkpt lat="42.5293560047" lon="20.0282966997">
        <ele>1850.19</ele>
        <time>2019-07-09T08:28:34Z</time>
      </trkpt>
      <trkpt lat="42.5294030271" lon="20.0282605737">
        <ele>1851.64</ele>
        <time>2019-07-09T08:28:54Z</time>
      </trkpt>
      <trkpt lat="42.5294142589" lon="20.0282127131">
        <ele>1851.64</ele>
        <time>2019-07-09T08:29:10Z</time>
      </trkpt>
      <trkpt lat="42.5293598603" lon="20.0281863101">
        <ele>1852.12</ele>
        <time>2019-07-09T08:29:42Z</time>
      </trkpt>
      <trkpt lat="42.5294113252" lon="20.0281926803">
        <ele>1852.12</ele>
        <time>2019-07-09T08:30:13Z</time>
      </trkpt>
      <trkpt lat="42.5294749439" lon="20.0282075163">
        <ele>1852.12</ele>
        <time>2019-07-09T08:30:39Z</time>
      </trkpt>
      <trkpt lat="42.5294671487" lon="20.0281848013">
        <ele>1853.08</ele>
        <time>2019-07-09T08:30:53Z</time>
      </trkpt>
      <trkpt lat="42.5295078848" lon="20.0281938538">
        <ele>1853.08</ele>
        <time>2019-07-09T08:31:14Z</time>
      </trkpt>
      <trkpt lat="42.5295951404" lon="20.0281760842">
        <ele>1853.56</ele>
        <time>2019-07-09T08:31:27Z</time>
      </trkpt>
      <trkpt lat="42.5297344476" lon="20.0281770062">
        <ele>1854.52</ele>
        <time>2019-07-09T08:31:42Z</time>
      </trkpt>
      <trkpt lat="42.5298414845" lon="20.0281444006">
        <ele>1856.44</ele>
        <time>2019-07-09T08:31:55Z</time>
      </trkpt>
      <trkpt lat="42.5299242977" lon="20.0280987192">
        <ele>1858.85</ele>
        <time>2019-07-09T08:32:09Z</time>
      </trkpt>
      <trkpt lat="42.5299421512" lon="20.0280946959">
        <ele>1858.85</ele>
        <time>2019-07-09T08:32:12Z</time>
      </trkpt>
      <trkpt lat="42.5300038420" lon="20.0280720647">
        <ele>1860.77</ele>
        <time>2019-07-09T08:32:24Z</time>
      </trkpt>
      <trkpt lat="42.5300408062" lon="20.0280884933">
        <ele>1862.21</ele>
        <time>2019-07-09T08:32:32Z</time>
      </trkpt>
      <trkpt lat="42.5300985575" lon="20.0280998088">
        <ele>1862.69</ele>
        <time>2019-07-09T08:32:40Z</time>
      </trkpt>
      <trkpt lat="42.5302475877" lon="20.0281019043">
        <ele>1865.09</ele>
        <time>2019-07-09T08:32:53Z</time>
      </trkpt>
      <trkpt lat="42.5303429738" lon="20.0280675385">
        <ele>1866.06</ele>
        <time>2019-07-09T08:33:06Z</time>
      </trkpt>
      <trkpt lat="42.5303875655" lon="20.0280465838">
        <ele>1867.02</ele>
        <time>2019-07-09T08:33:12Z</time>
      </trkpt>
      <trkpt lat="42.5304888189" lon="20.0280120503">
        <ele>1868.94</ele>
        <time>2019-07-09T08:33:25Z</time>
      </trkpt>
      <trkpt lat="42.5305935089" lon="20.0280003995">
        <ele>1869.90</ele>
        <time>2019-07-09T08:33:37Z</time>
      </trkpt>
      <trkpt lat="42.5306210853" lon="20.0280423928">
        <ele>1870.38</ele>
        <time>2019-07-09T08:33:41Z</time>
      </trkpt>
      <trkpt lat="42.5306522660" lon="20.0280673709">
        <ele>1870.38</ele>
        <time>2019-07-09T08:33:43Z</time>
      </trkpt>
      <trkpt lat="42.5307562016" lon="20.0281915907">
        <ele>1870.86</ele>
        <time>2019-07-09T08:33:55Z</time>
      </trkpt>
      <trkpt lat="42.5308277830" lon="20.0282443967">
        <ele>1871.82</ele>
        <time>2019-07-09T08:34:06Z</time>
      </trkpt>
      <trkpt lat="42.5309980195" lon="20.0283242762">
        <ele>1872.79</ele>
        <time>2019-07-09T08:34:20Z</time>
      </trkpt>
      <trkpt lat="42.5310592074" lon="20.0283655152">
        <ele>1873.27</ele>
        <time>2019-07-09T08:34:28Z</time>
      </trkpt>
      <trkpt lat="42.5311141089" lon="20.0283851288">
        <ele>1874.71</ele>
        <time>2019-07-09T08:34:37Z</time>
      </trkpt>
      <trkpt lat="42.5311416015" lon="20.0284198299">
        <ele>1875.19</ele>
        <time>2019-07-09T08:34:41Z</time>
      </trkpt>
      <trkpt lat="42.5312868599" lon="20.0284795929">
        <ele>1877.11</ele>
        <time>2019-07-09T08:34:56Z</time>
      </trkpt>
      <trkpt lat="42.5313826650" lon="20.0285837799">
        <ele>1878.55</ele>
        <time>2019-07-09T08:35:09Z</time>
      </trkpt>
      <trkpt lat="42.5315114949" lon="20.0286477339">
        <ele>1878.55</ele>
        <time>2019-07-09T08:35:22Z</time>
      </trkpt>
      <trkpt lat="42.5316385645" lon="20.0287097599">
        <ele>1878.55</ele>
        <time>2019-07-09T08:35:35Z</time>
      </trkpt>
      <trkpt lat="42.5316668116" lon="20.0287274458">
        <ele>1877.59</ele>
        <time>2019-07-09T08:35:38Z</time>
      </trkpt>
      <trkpt lat="42.5317322742" lon="20.0287503283">
        <ele>1877.11</ele>
        <time>2019-07-09T08:35:45Z</time>
      </trkpt>
      <trkpt lat="42.5318629481" lon="20.0287862029">
        <ele>1876.15</ele>
        <time>2019-07-09T08:35:56Z</time>
      </trkpt>
      <trkpt lat="42.5319460128" lon="20.0288838521">
        <ele>1878.55</ele>
        <time>2019-07-09T08:36:08Z</time>
      </trkpt>
      <trkpt lat="42.5320364535" lon="20.0289842673">
        <ele>1879.51</ele>
        <time>2019-07-09T08:36:19Z</time>
      </trkpt>
      <trkpt lat="42.5321635231" lon="20.0290486403">
        <ele>1880.48</ele>
        <time>2019-07-09T08:36:31Z</time>
      </trkpt>
      <trkpt lat="42.5322919339" lon="20.0290287752">
        <ele>1880.96</ele>
        <time>2019-07-09T08:36:43Z</time>
      </trkpt>
      <trkpt lat="42.5323054288" lon="20.0290364865">
        <ele>1880.96</ele>
        <time>2019-07-09T08:36:45Z</time>
      </trkpt>
      <trkpt lat="42.5324396230" lon="20.0291475467">
        <ele>1881.92</ele>
        <time>2019-07-09T08:36:59Z</time>
      </trkpt>
      <trkpt lat="42.5324779283" lon="20.0291436911">
        <ele>1882.88</ele>
        <time>2019-07-09T08:37:05Z</time>
      </trkpt>
      <trkpt lat="42.5326627493" lon="20.0292068906">
        <ele>1883.36</ele>
        <time>2019-07-09T08:37:19Z</time>
      </trkpt>
      <trkpt lat="42.5327801798" lon="20.0292672403">
        <ele>1884.32</ele>
        <time>2019-07-09T08:37:31Z</time>
      </trkpt>
      <trkpt lat="42.5327909086" lon="20.0292718504">
        <ele>1884.32</ele>
        <time>2019-07-09T08:37:32Z</time>
      </trkpt>
      <trkpt lat="42.5329302996" lon="20.0292850100">
        <ele>1885.76</ele>
        <time>2019-07-09T08:37:47Z</time>
      </trkpt>
      <trkpt lat="42.5329986960" lon="20.0292990077">
        <ele>1886.24</ele>
        <time>2019-07-09T08:37:54Z</time>
      </trkpt>
      <trkpt lat="42.5330598839" lon="20.0293324515">
        <ele>1886.72</ele>
        <time>2019-07-09T08:37:59Z</time>
      </trkpt>
      <trkpt lat="42.5331771467" lon="20.0293334574">
        <ele>1887.69</ele>
        <time>2019-07-09T08:38:11Z</time>
      </trkpt>
      <trkpt lat="42.5331920665" lon="20.0293420907">
        <ele>1887.69</ele>
        <time>2019-07-09T08:38:14Z</time>
      </trkpt>
      <trkpt lat="42.5332377478" lon="20.0293669850">
        <ele>1887.69</ele>
        <time>2019-07-09T08:38:18Z</time>
      </trkpt>
      <trkpt lat="42.5333524961" lon="20.0294215512">
        <ele>1888.17</ele>
        <time>2019-07-09T08:38:32Z</time>
      </trkpt>
      <trkpt lat="42.5334189646" lon="20.0293902867">
        <ele>1888.65</ele>
        <time>2019-07-09T08:38:42Z</time>
      </trkpt>
      <trkpt lat="42.5334337167" lon="20.0293297693">
        <ele>1888.65</ele>
        <time>2019-07-09T08:38:46Z</time>
      </trkpt>
      <trkpt lat="42.5334747881" lon="20.0290923100">
        <ele>1889.61</ele>
        <time>2019-07-09T08:39:02Z</time>
      </trkpt>
      <trkpt lat="42.5335529912" lon="20.0289162900">
        <ele>1889.13</ele>
        <time>2019-07-09T08:39:15Z</time>
      </trkpt>
      <trkpt lat="42.5335596967" lon="20.0289007835">
        <ele>1889.61</ele>
        <time>2019-07-09T08:39:16Z</time>
      </trkpt>
      <trkpt lat="42.5335845910" lon="20.0288372487">
        <ele>1888.17</ele>
        <time>2019-07-09T08:39:21Z</time>
      </trkpt>
      <trkpt lat="42.5336373132" lon="20.0286713708">
        <ele>1888.17</ele>
        <time>2019-07-09T08:39:33Z</time>
      </trkpt>
      <trkpt lat="42.5336653925" lon="20.0285413675">
        <ele>1888.17</ele>
        <time>2019-07-09T08:39:43Z</time>
      </trkpt>
      <trkpt lat="42.5337209646" lon="20.0284122862">
        <ele>1888.17</ele>
        <time>2019-07-09T08:39:53Z</time>
      </trkpt>
      <trkpt lat="42.5337703340" lon="20.0283368491">
        <ele>1888.17</ele>
        <time>2019-07-09T08:39:59Z</time>
      </trkpt>
      <trkpt lat="42.5337811466" lon="20.0282122102">
        <ele>1886.72</ele>
        <time>2019-07-09T08:40:12Z</time>
      </trkpt>
      <trkpt lat="42.5337644666" lon="20.0281672832">
        <ele>1886.24</ele>
        <time>2019-07-09T08:40:15Z</time>
      </trkpt>
      <trkpt lat="42.5337677356" lon="20.0279090367">
        <ele>1885.28</ele>
        <time>2019-07-09T08:40:30Z</time>
      </trkpt>
      <trkpt lat="42.5337808114" lon="20.0276351161">
        <ele>1884.32</ele>
        <time>2019-07-09T08:40:44Z</time>
      </trkpt>
      <trkpt lat="42.5338347908" lon="20.0275709946">
        <ele>1884.32</ele>
        <time>2019-07-09T08:40:53Z</time>
      </trkpt>
      <trkpt lat="42.5339561608" lon="20.0275046099">
        <ele>1884.32</ele>
        <time>2019-07-09T08:41:07Z</time>
      </trkpt>
      <trkpt lat="42.5340660475" lon="20.0274575874">
        <ele>1884.32</ele>
        <time>2019-07-09T08:41:19Z</time>
      </trkpt>
      <trkpt lat="42.5342124794" lon="20.0273547415">
        <ele>1883.36</ele>
        <time>2019-07-09T08:41:33Z</time>
      </trkpt>
      <trkpt lat="42.5344448257" lon="20.0273207109">
        <ele>1884.80</ele>
        <time>2019-07-09T08:41:50Z</time>
      </trkpt>
      <trkpt lat="42.5345921796" lon="20.0272874348">
        <ele>1885.76</ele>
        <time>2019-07-09T08:42:03Z</time>
      </trkpt>
      <trkpt lat="42.5347480830" lon="20.0271533243">
        <ele>1885.28</ele>
        <time>2019-07-09T08:42:18Z</time>
      </trkpt>
      <trkpt lat="42.5348289683" lon="20.0270457845">
        <ele>1885.28</ele>
        <time>2019-07-09T08:42:28Z</time>
      </trkpt>
      <trkpt lat="42.5348437205" lon="20.0269954931">
        <ele>1885.28</ele>
        <time>2019-07-09T08:42:31Z</time>
      </trkpt>
      <trkpt lat="42.5348661840" lon="20.0269193016">
        <ele>1885.28</ele>
        <time>2019-07-09T08:42:36Z</time>
      </trkpt>
      <trkpt lat="42.5349587202" lon="20.0267383363">
        <ele>1884.32</ele>
        <time>2019-07-09T08:42:51Z</time>
      </trkpt>
      <trkpt lat="42.5349992048" lon="20.0266566966">
        <ele>1882.40</ele>
        <time>2019-07-09T08:42:57Z</time>
      </trkpt>
      <trkpt lat="42.5350147113" lon="20.0265525095">
        <ele>1881.44</ele>
        <time>2019-07-09T08:43:05Z</time>
      </trkpt>
      <trkpt lat="42.5350135379" lon="20.0265072472">
        <ele>1880.48</ele>
        <time>2019-07-09T08:43:08Z</time>
      </trkpt>
      <trkpt lat="42.5350733008" lon="20.0263291318">
        <ele>1880.00</ele>
        <time>2019-07-09T08:43:19Z</time>
      </trkpt>
      <trkpt lat="42.5350826047" lon="20.0262347516">
        <ele>1880.00</ele>
        <time>2019-07-09T08:43:27Z</time>
      </trkpt>
      <trkpt lat="42.5350686908" lon="20.0261259545">
        <ele>1877.59</ele>
        <time>2019-07-09T08:43:39Z</time>
      </trkpt>
      <trkpt lat="42.5350421201" lon="20.0260378607">
        <ele>1876.15</ele>
        <time>2019-07-09T08:43:49Z</time>
      </trkpt>
      <trkpt lat="42.5349660125" lon="20.0259465817">
        <ele>1874.71</ele>
        <time>2019-07-09T08:43:58Z</time>
      </trkpt>
      <trkpt lat="42.5349422079" lon="20.0259071868">
        <ele>1874.23</ele>
        <time>2019-07-09T08:44:01Z</time>
      </trkpt>
      <trkpt lat="42.5348583888" lon="20.0256784447">
        <ele>1873.27</ele>
        <time>2019-07-09T08:44:14Z</time>
      </trkpt>
      <trkpt lat="42.5348441396" lon="20.0255106390">
        <ele>1872.79</ele>
        <time>2019-07-09T08:44:28Z</time>
      </trkpt>
      <trkpt lat="42.5348238554" lon="20.0253981538">
        <ele>1874.71</ele>
        <time>2019-07-09T08:44:39Z</time>
      </trkpt>
      <trkpt lat="42.5348445587" lon="20.0253224652">
        <ele>1877.11</ele>
        <time>2019-07-09T08:44:52Z</time>
      </trkpt>
      <trkpt lat="42.5348600652" lon="20.0253408216">
        <ele>1878.07</ele>
        <time>2019-07-09T08:44:56Z</time>
      </trkpt>
      <trkpt lat="42.5348717999" lon="20.0253562443">
        <ele>1878.55</ele>
        <time>2019-07-09T08:44:58Z</time>
      </trkpt>
      <trkpt lat="42.5349573791" lon="20.0253599323">
        <ele>1880.00</ele>
        <time>2019-07-09T08:45:11Z</time>
      </trkpt>
      <trkpt lat="42.5350101013" lon="20.0253913645">
        <ele>1880.48</ele>
        <time>2019-07-09T08:45:17Z</time>
      </trkpt>
      <trkpt lat="42.5351365842" lon="20.0254488643">
        <ele>1882.40</ele>
        <time>2019-07-09T08:45:31Z</time>
      </trkpt>
      <trkpt lat="42.5351871271" lon="20.0254782010">
        <ele>1883.36</ele>
        <time>2019-07-09T08:45:38Z</time>
      </trkpt>
      <trkpt lat="42.5352167990" lon="20.0254865829">
        <ele>1883.84</ele>
        <time>2019-07-09T08:45:42Z</time>
      </trkpt>
      <trkpt lat="42.5353035517" lon="20.0255462620">
        <ele>1884.32</ele>
        <time>2019-07-09T08:45:53Z</time>
      </trkpt>
      <trkpt lat="42.5353199802" lon="20.0255374610">
        <ele>1884.32</ele>
        <time>2019-07-09T08:45:55Z</time>
      </trkpt>
      <trkpt lat="42.5354297832" lon="20.0254994910">
        <ele>1885.76</ele>
        <time>2019-07-09T08:46:08Z</time>
      </trkpt>
      <trkpt lat="42.5354623888" lon="20.0254890975">
        <ele>1885.76</ele>
        <time>2019-07-09T08:46:12Z</time>
      </trkpt>
      <trkpt lat="42.5354910549" lon="20.0254687294">
        <ele>1886.24</ele>
        <time>2019-07-09T08:46:15Z</time>
      </trkpt>
      <trkpt lat="42.5355498958" lon="20.0254255626">
        <ele>1887.69</ele>
        <time>2019-07-09T08:46:23Z</time>
      </trkpt>
      <trkpt lat="42.5357232336" lon="20.0254129060">
        <ele>1888.65</ele>
        <time>2019-07-09T08:46:39Z</time>
      </trkpt>
      <trkpt lat="42.5358118303" lon="20.0253763609">
        <ele>1887.69</ele>
        <time>2019-07-09T08:46:49Z</time>
      </trkpt>
      <trkpt lat="42.5358683243" lon="20.0253472757">
        <ele>1885.28</ele>
        <time>2019-07-09T08:46:58Z</time>
      </trkpt>
      <trkpt lat="42.5359637104" lon="20.0254005007">
        <ele>1882.40</ele>
        <time>2019-07-09T08:47:10Z</time>
      </trkpt>
      <trkpt lat="42.5359882694" lon="20.0253923703">
        <ele>1883.36</ele>
        <time>2019-07-09T08:47:26Z</time>
      </trkpt>
      <trkpt lat="42.5359376427" lon="20.0253841560">
        <ele>1883.84</ele>
        <time>2019-07-09T08:47:44Z</time>
      </trkpt>
      <trkpt lat="42.5359003432" lon="20.0252670608">
        <ele>1885.76</ele>
        <time>2019-07-09T08:47:58Z</time>
      </trkpt>
      <trkpt lat="42.5359140057" lon="20.0252456032">
        <ele>1885.76</ele>
        <time>2019-07-09T08:48:00Z</time>
      </trkpt>
      <trkpt lat="42.5359118264" lon="20.0251941383">
        <ele>1886.72</ele>
        <time>2019-07-09T08:48:04Z</time>
      </trkpt>
      <trkpt lat="42.5359170232" lon="20.0251439307">
        <ele>1887.69</ele>
        <time>2019-07-09T08:48:08Z</time>
      </trkpt>
      <trkpt lat="42.5359168556" lon="20.0250114128">
        <ele>1888.65</ele>
        <time>2019-07-09T08:48:20Z</time>
      </trkpt>
      <trkpt lat="42.5359568372" lon="20.0249369815">
        <ele>1890.09</ele>
        <time>2019-07-09T08:48:29Z</time>
      </trkpt>
      <trkpt lat="42.5360410754" lon="20.0248160306">
        <ele>1890.57</ele>
        <time>2019-07-09T08:48:43Z</time>
      </trkpt>
      <trkpt lat="42.5360375550" lon="20.0247851852">
        <ele>1889.13</ele>
        <time>2019-07-09T08:48:46Z</time>
      </trkpt>
      <trkpt lat="42.5360332802" lon="20.0247202255">
        <ele>1887.21</ele>
        <time>2019-07-09T08:48:52Z</time>
      </trkpt>
      <trkpt lat="42.5359755289" lon="20.0245960057">
        <ele>1886.24</ele>
        <time>2019-07-09T08:49:00Z</time>
      </trkpt>
      <trkpt lat="42.5358755328" lon="20.0244362466">
        <ele>1885.28</ele>
        <time>2019-07-09T08:49:10Z</time>
      </trkpt>
      <trkpt lat="42.5358504709" lon="20.0242770743">
        <ele>1885.76</ele>
        <time>2019-07-09T08:49:19Z</time>
      </trkpt>
      <trkpt lat="42.5358948950" lon="20.0241576321">
        <ele>1887.21</ele>
        <time>2019-07-09T08:49:27Z</time>
      </trkpt>
      <trkpt lat="42.5360451825" lon="20.0240644254">
        <ele>1887.69</ele>
        <time>2019-07-09T08:49:42Z</time>
      </trkpt>
      <trkpt lat="42.5360601023" lon="20.0240302272">
        <ele>1887.69</ele>
        <time>2019-07-09T08:49:57Z</time>
      </trkpt>
      <trkpt lat="42.5361129921" lon="20.0239967834">
        <ele>1888.17</ele>
        <time>2019-07-09T08:50:02Z</time>
      </trkpt>
      <trkpt lat="42.5363082904" lon="20.0239616632">
        <ele>1887.69</ele>
        <time>2019-07-09T08:50:17Z</time>
      </trkpt>
      <trkpt lat="42.5364864897" lon="20.0238677021">
        <ele>1885.28</ele>
        <time>2019-07-09T08:50:32Z</time>
      </trkpt>
      <trkpt lat="42.5366464164" lon="20.0238130521">
        <ele>1881.92</ele>
        <time>2019-07-09T08:50:46Z</time>
      </trkpt>
      <trkpt lat="42.5367699657" lon="20.0238316599">
        <ele>1880.00</ele>
        <time>2019-07-09T08:50:57Z</time>
      </trkpt>
      <trkpt lat="42.5369613245" lon="20.0238640141">
        <ele>1877.11</ele>
        <time>2019-07-09T08:51:12Z</time>
      </trkpt>
      <trkpt lat="42.5371810980" lon="20.0239692908">
        <ele>1874.23</ele>
        <time>2019-07-09T08:51:30Z</time>
      </trkpt>
      <trkpt lat="42.5373522565" lon="20.0240813568">
        <ele>1872.79</ele>
        <time>2019-07-09T08:51:45Z</time>
      </trkpt>
      <trkpt lat="42.5374535937" lon="20.0241620746">
        <ele>1871.82</ele>
        <time>2019-07-09T08:51:54Z</time>
      </trkpt>
      <trkpt lat="42.5375090819" lon="20.0242075045">
        <ele>1871.82</ele>
        <time>2019-07-09T08:52:00Z</time>
      </trkpt>
      <trkpt lat="42.5376918074" lon="20.0243417826">
        <ele>1869.90</ele>
        <time>2019-07-09T08:52:17Z</time>
      </trkpt>
      <trkpt lat="42.5378271751" lon="20.0244450476">
        <ele>1868.46</ele>
        <time>2019-07-09T08:52:31Z</time>
      </trkpt>
      <trkpt lat="42.5378925540" lon="20.0245043077">
        <ele>1868.46</ele>
        <time>2019-07-09T08:52:39Z</time>
      </trkpt>
      <trkpt lat="42.5380583480" lon="20.0245977659">
        <ele>1866.54</ele>
        <time>2019-07-09T08:52:55Z</time>
      </trkpt>
      <trkpt lat="42.5381419994" lon="20.0246822555">
        <ele>1866.54</ele>
        <time>2019-07-09T08:53:04Z</time>
      </trkpt>
      <trkpt lat="42.5383096375" lon="20.0248524919">
        <ele>1866.06</ele>
        <time>2019-07-09T08:53:20Z</time>
      </trkpt>
      <trkpt lat="42.5384082086" lon="20.0250285119">
        <ele>1864.61</ele>
        <time>2019-07-09T08:53:35Z</time>
      </trkpt>
      <trkpt lat="42.5384048559" lon="20.0250390731">
        <ele>1864.61</ele>
        <time>2019-07-09T08:53:36Z</time>
      </trkpt>
      <trkpt lat="42.5383955520" lon="20.0250762049">
        <ele>1863.65</ele>
        <time>2019-07-09T08:53:42Z</time>
      </trkpt>
      <trkpt lat="42.5384429935" lon="20.0250684097">
        <ele>1862.21</ele>
        <time>2019-07-09T08:53:50Z</time>
      </trkpt>
      <trkpt lat="42.5385188498" lon="20.0251155999">
        <ele>1860.29</ele>
        <time>2019-07-09T08:54:01Z</time>
      </trkpt>
      <trkpt lat="42.5385353621" lon="20.0251689926">
        <ele>1858.85</ele>
        <time>2019-07-09T08:54:06Z</time>
      </trkpt>
      <trkpt lat="42.5385399722" lon="20.0252145901">
        <ele>1857.40</ele>
        <time>2019-07-09T08:54:09Z</time>
      </trkpt>
      <trkpt lat="42.5385598373" lon="20.0252490398">
        <ele>1856.44</ele>
        <time>2019-07-09T08:54:12Z</time>
      </trkpt>
      <trkpt lat="42.5386513676" lon="20.0253367145">
        <ele>1852.60</ele>
        <time>2019-07-09T08:54:24Z</time>
      </trkpt>
      <trkpt lat="42.5387064368" lon="20.0254077930">
        <ele>1849.23</ele>
        <time>2019-07-09T08:54:37Z</time>
      </trkpt>
      <trkpt lat="42.5387126394" lon="20.0254869182">
        <ele>1845.87</ele>
        <time>2019-07-09T08:54:49Z</time>
      </trkpt>
      <trkpt lat="42.5387089513" lon="20.0254984014">
        <ele>1845.87</ele>
        <time>2019-07-09T08:54:50Z</time>
      </trkpt>
      <trkpt lat="42.5387341809" lon="20.0255442504">
        <ele>1843.95</ele>
        <time>2019-07-09T08:54:54Z</time>
      </trkpt>
      <trkpt lat="42.5388093665" lon="20.0256201904">
        <ele>1841.06</ele>
        <time>2019-07-09T08:55:06Z</time>
      </trkpt>
      <trkpt lat="42.5389159005" lon="20.0256596692">
        <ele>1837.70</ele>
        <time>2019-07-09T08:55:18Z</time>
      </trkpt>
      <trkpt lat="42.5389925949" lon="20.0257265568">
        <ele>1834.33</ele>
        <time>2019-07-09T08:55:30Z</time>
      </trkpt>
      <trkpt lat="42.5389894936" lon="20.0257597491">
        <ele>1833.37</ele>
        <time>2019-07-09T08:55:33Z</time>
      </trkpt>
      <trkpt lat="42.5389614142" lon="20.0258299895">
        <ele>1830.97</ele>
        <time>2019-07-09T08:55:39Z</time>
      </trkpt>
      <trkpt lat="42.5390218478" lon="20.0259409659">
        <ele>1828.08</ele>
        <time>2019-07-09T08:55:47Z</time>
      </trkpt>
      <trkpt lat="42.5390703790" lon="20.0260873977">
        <ele>1824.72</ele>
        <time>2019-07-09T08:55:56Z</time>
      </trkpt>
      <trkpt lat="42.5391316507" lon="20.0263585523">
        <ele>1821.84</ele>
        <time>2019-07-09T08:56:11Z</time>
      </trkpt>
      <trkpt lat="42.5391910784" lon="20.0265602209">
        <ele>1820.39</ele>
        <time>2019-07-09T08:56:23Z</time>
      </trkpt>
      <trkpt lat="42.5392171461" lon="20.0265801698">
        <ele>1820.39</ele>
        <time>2019-07-09T08:56:28Z</time>
      </trkpt>
      <trkpt lat="42.5392469857" lon="20.0266624801">
        <ele>1819.91</ele>
        <time>2019-07-09T08:56:34Z</time>
      </trkpt>
      <trkpt lat="42.5393008813" lon="20.0267265178">
        <ele>1819.43</ele>
        <time>2019-07-09T08:56:40Z</time>
      </trkpt>
      <trkpt lat="42.5393494964" lon="20.0267875381">
        <ele>1818.95</ele>
        <time>2019-07-09T08:56:45Z</time>
      </trkpt>
      <trkpt lat="42.5393714570" lon="20.0267819222">
        <ele>1818.95</ele>
        <time>2019-07-09T08:56:47Z</time>
      </trkpt>
      <trkpt lat="42.5393861253" lon="20.0267307926">
        <ele>1817.99</ele>
        <time>2019-07-09T08:56:50Z</time>
      </trkpt>
      <trkpt lat="42.5393380970" lon="20.0265814271">
        <ele>1816.55</ele>
        <time>2019-07-09T08:57:01Z</time>
      </trkpt>
      <trkpt lat="42.5393297989" lon="20.0265507493">
        <ele>1815.11</ele>
        <time>2019-07-09T08:57:03Z</time>
      </trkpt>
      <trkpt lat="42.5393189024" lon="20.0264057424">
        <ele>1814.15</ele>
        <time>2019-07-09T08:57:13Z</time>
      </trkpt>
      <trkpt lat="42.5393329840" lon="20.0263861287">
        <ele>1813.18</ele>
        <time>2019-07-09T08:57:16Z</time>
      </trkpt>
      <trkpt lat="42.5393636618" lon="20.0263606478">
        <ele>1812.22</ele>
        <time>2019-07-09T08:57:20Z</time>
      </trkpt>
      <trkpt lat="42.5393983629" lon="20.0263802614">
        <ele>1810.78</ele>
        <time>2019-07-09T08:57:31Z</time>
      </trkpt>
      <trkpt lat="42.5394986942" lon="20.0265039783">
        <ele>1809.34</ele>
        <time>2019-07-09T08:57:44Z</time>
      </trkpt>
      <trkpt lat="42.5396152865" lon="20.0265976880">
        <ele>1807.42</ele>
        <time>2019-07-09T08:57:57Z</time>
      </trkpt>
      <trkpt lat="42.5396323856" lon="20.0266152900">
        <ele>1807.42</ele>
        <time>2019-07-09T08:58:00Z</time>
      </trkpt>
      <trkpt lat="42.5397100858" lon="20.0267324690">
        <ele>1807.42</ele>
        <time>2019-07-09T08:58:13Z</time>
      </trkpt>
      <trkpt lat="42.5397500675" lon="20.0269103330">
        <ele>1806.94</ele>
        <time>2019-07-09T08:58:28Z</time>
      </trkpt>
      <trkpt lat="42.5397664122" lon="20.0270804018">
        <ele>1808.86</ele>
        <time>2019-07-09T08:58:41Z</time>
      </trkpt>
      <trkpt lat="42.5398322102" lon="20.0272317789">
        <ele>1808.38</ele>
        <time>2019-07-09T08:58:54Z</time>
      </trkpt>
      <trkpt lat="42.5398040470" lon="20.0273782946">
        <ele>1810.30</ele>
        <time>2019-07-09T08:59:07Z</time>
      </trkpt>
      <trkpt lat="42.5397858582" lon="20.0274464395">
        <ele>1809.82</ele>
        <time>2019-07-09T08:59:11Z</time>
      </trkpt>
      <trkpt lat="42.5398248341" lon="20.0276164245">
        <ele>1808.86</ele>
        <time>2019-07-09T08:59:25Z</time>
      </trkpt>
      <trkpt lat="42.5398281869" lon="20.0276262313">
        <ele>1808.86</ele>
        <time>2019-07-09T08:59:26Z</time>
      </trkpt>
      <trkpt lat="42.5398162846" lon="20.0277329329">
        <ele>1810.30</ele>
        <time>2019-07-09T08:59:34Z</time>
      </trkpt>
      <trkpt lat="42.5397846848" lon="20.0278873276">
        <ele>1812.22</ele>
        <time>2019-07-09T08:59:49Z</time>
      </trkpt>
      <trkpt lat="42.5397863612" lon="20.0280475896">
        <ele>1812.22</ele>
        <time>2019-07-09T09:00:00Z</time>
      </trkpt>
      <trkpt lat="42.5397358183" lon="20.0282750744">
        <ele>1810.78</ele>
        <time>2019-07-09T09:00:14Z</time>
      </trkpt>
      <trkpt lat="42.5397300348" lon="20.0284313131">
        <ele>1808.86</ele>
        <time>2019-07-09T09:00:26Z</time>
      </trkpt>
      <trkpt lat="42.5397187192" lon="20.0285086781">
        <ele>1808.38</ele>
        <time>2019-07-09T09:00:32Z</time>
      </trkpt>
      <trkpt lat="42.5396763068" lon="20.0286971033">
        <ele>1807.90</ele>
        <time>2019-07-09T09:00:46Z</time>
      </trkpt>
      <trkpt lat="42.5396628957" lon="20.0288467202">
        <ele>1806.94</ele>
        <time>2019-07-09T09:00:57Z</time>
      </trkpt>
      <trkpt lat="42.5396345649" lon="20.0289213192">
        <ele>1806.45</ele>
        <time>2019-07-09T09:01:03Z</time>
      </trkpt>
      <trkpt lat="42.5395610556" lon="20.0291480497">
        <ele>1806.45</ele>
        <time>2019-07-09T09:01:15Z</time>
      </trkpt>
      <trkpt lat="42.5395555235" lon="20.0291939825">
        <ele>1806.45</ele>
        <time>2019-07-09T09:01:18Z</time>
      </trkpt>
      <trkpt lat="42.5395416096" lon="20.0292847585">
        <ele>1805.49</ele>
        <time>2019-07-09T09:01:24Z</time>
      </trkpt>
      <trkpt lat="42.5395290367" lon="20.0293173641">
        <ele>1805.49</ele>
        <time>2019-07-09T09:01:25Z</time>
      </trkpt>
      <trkpt lat="42.5395199843" lon="20.0293461140">
        <ele>1805.01</ele>
        <time>2019-07-09T09:01:27Z</time>
      </trkpt>
      <trkpt lat="42.5395163801" lon="20.0295376405">
        <ele>1805.01</ele>
        <time>2019-07-09T09:01:40Z</time>
      </trkpt>
      <trkpt lat="42.5395142846" lon="20.0295864232">
        <ele>1806.45</ele>
        <time>2019-07-09T09:01:43Z</time>
      </trkpt>
      <trkpt lat="42.5395385083" lon="20.0297507923">
        <ele>1805.97</ele>
        <time>2019-07-09T09:01:55Z</time>
      </trkpt>
      <trkpt lat="42.5395361613" lon="20.0297605153">
        <ele>1805.97</ele>
        <time>2019-07-09T09:01:56Z</time>
      </trkpt>
      <trkpt lat="42.5395333115" lon="20.0299779419">
        <ele>1804.53</ele>
        <time>2019-07-09T09:02:08Z</time>
      </trkpt>
      <trkpt lat="42.5395338982" lon="20.0300099608">
        <ele>1804.53</ele>
        <time>2019-07-09T09:02:10Z</time>
      </trkpt>
      <trkpt lat="42.5395373348" lon="20.0301569793">
        <ele>1804.05</ele>
        <time>2019-07-09T09:02:24Z</time>
      </trkpt>
      <trkpt lat="42.5395605527" lon="20.0303247012">
        <ele>1804.05</ele>
        <time>2019-07-09T09:02:37Z</time>
      </trkpt>
      <trkpt lat="42.5395596307" lon="20.0303387828">
        <ele>1804.05</ele>
        <time>2019-07-09T09:02:38Z</time>
      </trkpt>
      <trkpt lat="42.5395660847" lon="20.0304932613">
        <ele>1803.57</ele>
        <time>2019-07-09T09:02:51Z</time>
      </trkpt>
      <trkpt lat="42.5395525899" lon="20.0305709615">
        <ele>1803.57</ele>
        <time>2019-07-09T09:02:56Z</time>
      </trkpt>
      <trkpt lat="42.5395675097" lon="20.0307712052">
        <ele>1803.57</ele>
        <time>2019-07-09T09:03:09Z</time>
      </trkpt>
      <trkpt lat="42.5395603850" lon="20.0309991930">
        <ele>1803.57</ele>
        <time>2019-07-09T09:03:22Z</time>
      </trkpt>
      <trkpt lat="42.5395493209" lon="20.0310948305">
        <ele>1805.01</ele>
        <time>2019-07-09T09:03:27Z</time>
      </trkpt>
      <trkpt lat="42.5395571161" lon="20.0311432779">
        <ele>1805.01</ele>
        <time>2019-07-09T09:03:30Z</time>
      </trkpt>
      <trkpt lat="42.5395808369" lon="20.0312451180">
        <ele>1803.57</ele>
        <time>2019-07-09T09:03:36Z</time>
      </trkpt>
      <trkpt lat="42.5396519993" lon="20.0314328726">
        <ele>1804.05</ele>
        <time>2019-07-09T09:03:51Z</time>
      </trkpt>
      <trkpt lat="42.5396926515" lon="20.0315915421">
        <ele>1802.61</ele>
        <time>2019-07-09T09:04:03Z</time>
      </trkpt>
      <trkpt lat="42.5396915618" lon="20.0316050369">
        <ele>1802.61</ele>
        <time>2019-07-09T09:04:04Z</time>
      </trkpt>
      <trkpt lat="42.5396968424" lon="20.0317620300">
        <ele>1801.17</ele>
        <time>2019-07-09T09:04:15Z</time>
      </trkpt>
      <trkpt lat="42.5397815835" lon="20.0318734255">
        <ele>1802.13</ele>
        <time>2019-07-09T09:04:28Z</time>
      </trkpt>
      <trkpt lat="42.5398067292" lon="20.0319252256">
        <ele>1802.13</ele>
        <time>2019-07-09T09:04:32Z</time>
      </trkpt>
      <trkpt lat="42.5398595352" lon="20.0321384612">
        <ele>1801.17</ele>
        <time>2019-07-09T09:04:47Z</time>
      </trkpt>
      <trkpt lat="42.5398637261" lon="20.0321554765">
        <ele>1801.17</ele>
        <time>2019-07-09T09:04:49Z</time>
      </trkpt>
      <trkpt lat="42.5398597866" lon="20.0323133916">
        <ele>1802.13</ele>
        <time>2019-07-09T09:05:03Z</time>
      </trkpt>
      <trkpt lat="42.5398739520" lon="20.0324206799">
        <ele>1803.57</ele>
        <time>2019-07-09T09:05:15Z</time>
      </trkpt>
      <trkpt lat="42.5398684200" lon="20.0325657707">
        <ele>1804.05</ele>
        <time>2019-07-09T09:05:26Z</time>
      </trkpt>
      <trkpt lat="42.5398790650" lon="20.0326253660">
        <ele>1804.05</ele>
        <time>2019-07-09T09:05:30Z</time>
      </trkpt>
      <trkpt lat="42.5399224833" lon="20.0327578001">
        <ele>1803.57</ele>
        <time>2019-07-09T09:05:42Z</time>
      </trkpt>
      <trkpt lat="42.5399333797" lon="20.0328780804">
        <ele>1803.57</ele>
        <time>2019-07-09T09:05:48Z</time>
      </trkpt>
      <trkpt lat="42.5399351399" lon="20.0329820998">
        <ele>1803.57</ele>
        <time>2019-07-09T09:05:54Z</time>
      </trkpt>
      <trkpt lat="42.5399129279" lon="20.0330668408">
        <ele>1803.57</ele>
        <time>2019-07-09T09:06:00Z</time>
      </trkpt>
      <trkpt lat="42.5399164483" lon="20.0331201497">
        <ele>1802.61</ele>
        <time>2019-07-09T09:06:03Z</time>
      </trkpt>
      <trkpt lat="42.5399550050" lon="20.0333042163">
        <ele>1802.61</ele>
        <time>2019-07-09T09:06:15Z</time>
      </trkpt>
      <trkpt lat="42.5399574358" lon="20.0333333854">
        <ele>1802.61</ele>
        <time>2019-07-09T09:06:17Z</time>
      </trkpt>
      <trkpt lat="42.5399711821" lon="20.0333748758">
        <ele>1804.05</ele>
        <time>2019-07-09T09:06:20Z</time>
      </trkpt>
      <trkpt lat="42.5399998482" lon="20.0335942302">
        <ele>1804.53</ele>
        <time>2019-07-09T09:06:35Z</time>
      </trkpt>
      <trkpt lat="42.5400789734" lon="20.0337520614">
        <ele>1805.01</ele>
        <time>2019-07-09T09:06:47Z</time>
      </trkpt>
      <trkpt lat="42.5400993414" lon="20.0339079648">
        <ele>1805.01</ele>
        <time>2019-07-09T09:06:57Z</time>
      </trkpt>
      <trkpt lat="42.5401000120" lon="20.0339644589">
        <ele>1803.57</ele>
        <time>2019-07-09T09:07:00Z</time>
      </trkpt>
      <trkpt lat="42.5401130877" lon="20.0340373814">
        <ele>1801.65</ele>
        <time>2019-07-09T09:07:06Z</time>
      </trkpt>
      <trkpt lat="42.5401920453" lon="20.0341835618">
        <ele>1801.17</ele>
        <time>2019-07-09T09:07:19Z</time>
      </trkpt>
      <trkpt lat="42.5403030217" lon="20.0343648624">
        <ele>1802.13</ele>
        <time>2019-07-09T09:07:34Z</time>
      </trkpt>
      <trkpt lat="42.5404189434" lon="20.0344349351">
        <ele>1800.69</ele>
        <time>2019-07-09T09:07:44Z</time>
      </trkpt>
      <trkpt lat="42.5404564943" lon="20.0344791915">
        <ele>1800.69</ele>
        <time>2019-07-09T09:07:48Z</time>
      </trkpt>
      <trkpt lat="42.5404800475" lon="20.0345067680">
        <ele>1800.69</ele>
        <time>2019-07-09T09:07:51Z</time>
      </trkpt>
      <trkpt lat="42.5406340230" lon="20.0346340891">
        <ele>1800.69</ele>
        <time>2019-07-09T09:08:07Z</time>
      </trkpt>
      <trkpt lat="42.5407994818" lon="20.0347481668">
        <ele>1799.73</ele>
        <time>2019-07-09T09:08:21Z</time>
      </trkpt>
      <trkpt lat="42.5409552176" lon="20.0348111149">
        <ele>1798.28</ele>
        <time>2019-07-09T09:08:35Z</time>
      </trkpt>
      <trkpt lat="42.5410872325" lon="20.0348435529">
        <ele>1797.32</ele>
        <time>2019-07-09T09:08:46Z</time>
      </trkpt>
      <trkpt lat="42.5411143061" lon="20.0348355062">
        <ele>1797.32</ele>
        <time>2019-07-09T09:08:49Z</time>
      </trkpt>
      <trkpt lat="42.5411340035" lon="20.0348381884">
        <ele>1797.32</ele>
        <time>2019-07-09T09:08:51Z</time>
      </trkpt>
      <trkpt lat="42.5412453152" lon="20.0348619092">
        <ele>1796.84</ele>
        <time>2019-07-09T09:09:00Z</time>
      </trkpt>
      <trkpt lat="42.5413057487" lon="20.0348789245">
        <ele>1795.88</ele>
        <time>2019-07-09T09:09:11Z</time>
      </trkpt>
      <trkpt lat="42.5413269550" lon="20.0348883122">
        <ele>1795.88</ele>
        <time>2019-07-09T09:09:38Z</time>
      </trkpt>
      <trkpt lat="42.5413207524" lon="20.0349500868">
        <ele>1795.88</ele>
        <time>2019-07-09T09:10:09Z</time>
      </trkpt>
      <trkpt lat="42.5412797648" lon="20.0349519309">
        <ele>1795.88</ele>
        <time>2019-07-09T09:10:45Z</time>
      </trkpt>
      <trkpt lat="42.5413100235" lon="20.0349426270">
        <ele>1795.88</ele>
        <time>2019-07-09T09:11:12Z</time>
      </trkpt>
      <trkpt lat="42.5413083471" lon="20.0349141285">
        <ele>1797.32</ele>
        <time>2019-07-09T09:11:31Z</time>
      </trkpt>
      <trkpt lat="42.5413512625" lon="20.0348939281">
        <ele>1797.32</ele>
        <time>2019-07-09T09:11:47Z</time>
      </trkpt>
      <trkpt lat="42.5413446408" lon="20.0348981190">
        <ele>1797.32</ele>
        <time>2019-07-09T09:12:02Z</time>
      </trkpt>
      <trkpt lat="42.5413272902" lon="20.0349264499">
        <ele>1797.32</ele>
        <time>2019-07-09T09:12:23Z</time>
      </trkpt>
      <trkpt lat="42.5413437188" lon="20.0349111948">
        <ele>1797.32</ele>
        <time>2019-07-09T09:12:42Z</time>
      </trkpt>
      <trkpt lat="42.5413358398" lon="20.0348897371">
        <ele>1797.32</ele>
        <time>2019-07-09T09:13:09Z</time>
      </trkpt>
      <trkpt lat="42.5413739774" lon="20.0349115301">
        <ele>1797.32</ele>
        <time>2019-07-09T09:13:36Z</time>
      </trkpt>
      <trkpt lat="42.5413624942" lon="20.0348822773">
        <ele>1797.32</ele>
        <time>2019-07-09T09:14:01Z</time>
      </trkpt>
      <trkpt lat="42.5414152164" lon="20.0348982029">
        <ele>1797.80</ele>
        <time>2019-07-09T09:14:31Z</time>
      </trkpt>
      <trkpt lat="42.5414717942" lon="20.0349557865">
        <ele>1797.80</ele>
        <time>2019-07-09T09:14:43Z</time>
      </trkpt>
      <trkpt lat="42.5415052380" lon="20.0350042339">
        <ele>1797.80</ele>
        <time>2019-07-09T09:14:48Z</time>
      </trkpt>
      <trkpt lat="42.5415137038" lon="20.0350534357">
        <ele>1797.80</ele>
        <time>2019-07-09T09:14:52Z</time>
      </trkpt>
      <trkpt lat="42.5414981134" lon="20.0352174696">
        <ele>1797.80</ele>
        <time>2019-07-09T09:15:08Z</time>
      </trkpt>
      <trkpt lat="42.5415330660" lon="20.0353394262">
        <ele>1797.80</ele>
        <time>2019-07-09T09:15:17Z</time>
      </trkpt>
      <trkpt lat="42.5415378436" lon="20.0354077388">
        <ele>1798.28</ele>
        <time>2019-07-09T09:15:33Z</time>
      </trkpt>
      <trkpt lat="42.5415669288" lon="20.0355119258">
        <ele>1798.28</ele>
        <time>2019-07-09T09:15:45Z</time>
      </trkpt>
      <trkpt lat="42.5416036416" lon="20.0356198847">
        <ele>1798.28</ele>
        <time>2019-07-09T09:15:53Z</time>
      </trkpt>
      <trkpt lat="42.5415971875" lon="20.0357680768">
        <ele>1797.32</ele>
        <time>2019-07-09T09:16:02Z</time>
      </trkpt>
      <trkpt lat="42.5415952597" lon="20.0357819907">
        <ele>1796.84</ele>
        <time>2019-07-09T09:16:03Z</time>
      </trkpt>
      <trkpt lat="42.5415617321" lon="20.0360360462">
        <ele>1793.96</ele>
        <time>2019-07-09T09:16:20Z</time>
      </trkpt>
      <trkpt lat="42.5415634923" lon="20.0360532291">
        <ele>1793.96</ele>
        <time>2019-07-09T09:16:21Z</time>
      </trkpt>
      <trkpt lat="42.5415516738" lon="20.0363009982">
        <ele>1790.11</ele>
        <time>2019-07-09T09:16:36Z</time>
      </trkpt>
      <trkpt lat="42.5415763166" lon="20.0365446601">
        <ele>1787.71</ele>
        <time>2019-07-09T09:16:51Z</time>
      </trkpt>
      <trkpt lat="42.5417154562" lon="20.0367366895">
        <ele>1784.34</ele>
        <time>2019-07-09T09:17:05Z</time>
      </trkpt>
      <trkpt lat="42.5417524204" lon="20.0367918424">
        <ele>1783.38</ele>
        <time>2019-07-09T09:17:09Z</time>
      </trkpt>
      <trkpt lat="42.5417886302" lon="20.0368052535">
        <ele>1782.42</ele>
        <time>2019-07-09T09:17:12Z</time>
      </trkpt>
      <trkpt lat="42.5418998580" lon="20.0369457342">
        <ele>1779.06</ele>
        <time>2019-07-09T09:17:24Z</time>
      </trkpt>
      <trkpt lat="42.5419322960" lon="20.0370026473">
        <ele>1778.58</ele>
        <time>2019-07-09T09:17:28Z</time>
      </trkpt>
      <trkpt lat="42.5419681706" lon="20.0370300561">
        <ele>1777.61</ele>
        <time>2019-07-09T09:17:32Z</time>
      </trkpt>
      <trkpt lat="42.5420185458" lon="20.0370567106">
        <ele>1776.17</ele>
        <time>2019-07-09T09:17:36Z</time>
      </trkpt>
      <trkpt lat="42.5420489721" lon="20.0370899029">
        <ele>1775.69</ele>
        <time>2019-07-09T09:17:39Z</time>
      </trkpt>
      <trkpt lat="42.5420648139" lon="20.0371535216">
        <ele>1774.25</ele>
        <time>2019-07-09T09:17:43Z</time>
      </trkpt>
      <trkpt lat="42.5420242455" lon="20.0373691041">
        <ele>1772.33</ele>
        <time>2019-07-09T09:17:57Z</time>
      </trkpt>
      <trkpt lat="42.5421160273" lon="20.0375163741">
        <ele>1768.96</ele>
        <time>2019-07-09T09:18:08Z</time>
      </trkpt>
      <trkpt lat="42.5421403348" lon="20.0375578646">
        <ele>1768.48</ele>
        <time>2019-07-09T09:18:11Z</time>
      </trkpt>
      <trkpt lat="42.5421760418" lon="20.0376866944">
        <ele>1765.12</ele>
        <time>2019-07-09T09:18:20Z</time>
      </trkpt>
      <trkpt lat="42.5421508960" lon="20.0377809070">
        <ele>1763.20</ele>
        <time>2019-07-09T09:18:27Z</time>
      </trkpt>
      <trkpt lat="42.5421413407" lon="20.0379198790">
        <ele>1759.83</ele>
        <time>2019-07-09T09:18:36Z</time>
      </trkpt>
      <trkpt lat="42.5421193801" lon="20.0379985012">
        <ele>1757.91</ele>
        <time>2019-07-09T09:18:41Z</time>
      </trkpt>
      <trkpt lat="42.5421890337" lon="20.0381055381">
        <ele>1756.47</ele>
        <time>2019-07-09T09:18:53Z</time>
      </trkpt>
      <trkpt lat="42.5422196276" lon="20.0382121559">
        <ele>1753.58</ele>
        <time>2019-07-09T09:19:02Z</time>
      </trkpt>
      <trkpt lat="42.5422019418" lon="20.0382394809">
        <ele>1753.58</ele>
        <time>2019-07-09T09:19:05Z</time>
      </trkpt>
      <trkpt lat="42.5421757903" lon="20.0383173488">
        <ele>1752.14</ele>
        <time>2019-07-09T09:19:10Z</time>
      </trkpt>
      <trkpt lat="42.5421812385" lon="20.0383455958">
        <ele>1751.18</ele>
        <time>2019-07-09T09:19:12Z</time>
      </trkpt>
      <trkpt lat="42.5421998464" lon="20.0383574143">
        <ele>1750.70</ele>
        <time>2019-07-09T09:19:14Z</time>
      </trkpt>
      <trkpt lat="42.5422370620" lon="20.0383725855">
        <ele>1750.22</ele>
        <time>2019-07-09T09:19:19Z</time>
      </trkpt>
      <trkpt lat="42.5422373135" lon="20.0384368747">
        <ele>1748.29</ele>
        <time>2019-07-09T09:19:24Z</time>
      </trkpt>
      <trkpt lat="42.5422676560" lon="20.0384742580">
        <ele>1747.33</ele>
        <time>2019-07-09T09:19:28Z</time>
      </trkpt>
      <trkpt lat="42.5422641356" lon="20.0385346916">
        <ele>1746.85</ele>
        <time>2019-07-09T09:19:32Z</time>
      </trkpt>
      <trkpt lat="42.5422835816" lon="20.0386795308">
        <ele>1743.49</ele>
        <time>2019-07-09T09:19:46Z</time>
      </trkpt>
      <trkpt lat="42.5423259102" lon="20.0387493521">
        <ele>1741.57</ele>
        <time>2019-07-09T09:19:53Z</time>
      </trkpt>
      <trkpt lat="42.5423219707" lon="20.0388573948">
        <ele>1739.64</ele>
        <time>2019-07-09T09:19:59Z</time>
      </trkpt>
      <trkpt lat="42.5423150137" lon="20.0390576385">
        <ele>1736.76</ele>
        <time>2019-07-09T09:20:13Z</time>
      </trkpt>
      <trkpt lat="42.5423218030" lon="20.0390785933">
        <ele>1736.28</ele>
        <time>2019-07-09T09:20:15Z</time>
      </trkpt>
      <trkpt lat="42.5423386507" lon="20.0390982907">
        <ele>1735.32</ele>
        <time>2019-07-09T09:20:17Z</time>
      </trkpt>
      <trkpt lat="42.5423497148" lon="20.0391263701">
        <ele>1734.84</ele>
        <time>2019-07-09T09:20:19Z</time>
      </trkpt>
      <trkpt lat="42.5424142554" lon="20.0392168108">
        <ele>1731.95</ele>
        <time>2019-07-09T09:20:27Z</time>
      </trkpt>
      <trkpt lat="42.5424185302" lon="20.0393600576">
        <ele>1730.03</ele>
        <time>2019-07-09T09:20:40Z</time>
      </trkpt>
      <trkpt lat="42.5424041133" lon="20.0393846165">
        <ele>1730.03</ele>
        <time>2019-07-09T09:20:42Z</time>
      </trkpt>
      <trkpt lat="42.5423818175" lon="20.0394776557">
        <ele>1729.55</ele>
        <time>2019-07-09T09:20:47Z</time>
      </trkpt>
      <trkpt lat="42.5423762854" lon="20.0397585332">
        <ele>1726.67</ele>
        <time>2019-07-09T09:21:02Z</time>
      </trkpt>
      <trkpt lat="42.5424363837" lon="20.0399513170">
        <ele>1723.30</ele>
        <time>2019-07-09T09:21:13Z</time>
      </trkpt>
      <trkpt lat="42.5424542371" lon="20.0400356390">
        <ele>1721.38</ele>
        <time>2019-07-09T09:21:18Z</time>
      </trkpt>
      <trkpt lat="42.5425518863" lon="20.0400871038">
        <ele>1718.97</ele>
        <time>2019-07-09T09:21:28Z</time>
      </trkpt>
      <trkpt lat="42.5425626989" lon="20.0401213020">
        <ele>1718.01</ele>
        <time>2019-07-09T09:21:30Z</time>
      </trkpt>
      <trkpt lat="42.5425453484" lon="20.0402713381">
        <ele>1715.61</ele>
        <time>2019-07-09T09:21:41Z</time>
      </trkpt>
      <trkpt lat="42.5425478630" lon="20.0403045304">
        <ele>1715.13</ele>
        <time>2019-07-09T09:21:43Z</time>
      </trkpt>
      <trkpt lat="42.5425274950" lon="20.0404184405">
        <ele>1713.21</ele>
        <time>2019-07-09T09:21:50Z</time>
      </trkpt>
      <trkpt lat="42.5424883515" lon="20.0405322667">
        <ele>1710.32</ele>
        <time>2019-07-09T09:21:59Z</time>
      </trkpt>
      <trkpt lat="42.5424819812" lon="20.0405412354">
        <ele>1710.32</ele>
        <time>2019-07-09T09:22:00Z</time>
      </trkpt>
      <trkpt lat="42.5424388982" lon="20.0406097155">
        <ele>1706.96</ele>
        <time>2019-07-09T09:22:10Z</time>
      </trkpt>
      <trkpt lat="42.5423995033" lon="20.0407270622">
        <ele>1703.11</ele>
        <time>2019-07-09T09:22:22Z</time>
      </trkpt>
      <trkpt lat="42.5423893612" lon="20.0407496933">
        <ele>1702.63</ele>
        <time>2019-07-09T09:22:24Z</time>
      </trkpt>
      <trkpt lat="42.5424157642" lon="20.0408817921">
        <ele>1700.23</ele>
        <time>2019-07-09T09:22:33Z</time>
      </trkpt>
      <trkpt lat="42.5424362160" lon="20.0409399625">
        <ele>1699.75</ele>
        <time>2019-07-09T09:22:37Z</time>
      </trkpt>
      <trkpt lat="42.5424759462" lon="20.0410581473">
        <ele>1696.86</ele>
        <time>2019-07-09T09:22:44Z</time>
      </trkpt>
      <trkpt lat="42.5425896887" lon="20.0411666092">
        <ele>1693.50</ele>
        <time>2019-07-09T09:22:57Z</time>
      </trkpt>
      <trkpt lat="42.5426384714" lon="20.0412097760">
        <ele>1692.06</ele>
        <time>2019-07-09T09:23:02Z</time>
      </trkpt>
      <trkpt lat="42.5427046046" lon="20.0412589777">
        <ele>1690.14</ele>
        <time>2019-07-09T09:23:12Z</time>
      </trkpt>
      <trkpt lat="42.5427257270" lon="20.0414053258">
        <ele>1688.21</ele>
        <time>2019-07-09T09:23:21Z</time>
      </trkpt>
      <trkpt lat="42.5427204464" lon="20.0416353252">
        <ele>1685.33</ele>
        <time>2019-07-09T09:23:35Z</time>
      </trkpt>
      <trkpt lat="42.5427086279" lon="20.0418456271">
        <ele>1681.96</ele>
        <time>2019-07-09T09:23:47Z</time>
      </trkpt>
      <trkpt lat="42.5427516270" lon="20.0420498941">
        <ele>1679.08</ele>
        <time>2019-07-09T09:23:59Z</time>
      </trkpt>
      <trkpt lat="42.5427897647" lon="20.0422050431">
        <ele>1676.20</ele>
        <time>2019-07-09T09:24:09Z</time>
      </trkpt>
      <trkpt lat="42.5427533034" lon="20.0421978347">
        <ele>1674.75</ele>
        <time>2019-07-09T09:24:14Z</time>
      </trkpt>
      <trkpt lat="42.5427252240" lon="20.0421949010">
        <ele>1673.79</ele>
        <time>2019-07-09T09:24:17Z</time>
      </trkpt>
      <trkpt lat="42.5427203625" lon="20.0422646385">
        <ele>1671.87</ele>
        <time>2019-07-09T09:24:22Z</time>
      </trkpt>
      <trkpt lat="42.5427846517" lon="20.0423095655">
        <ele>1669.95</ele>
        <time>2019-07-09T09:24:31Z</time>
      </trkpt>
      <trkpt lat="42.5428393856" lon="20.0423489604">
        <ele>1667.06</ele>
        <time>2019-07-09T09:24:40Z</time>
      </trkpt>
      <trkpt lat="42.5429293234" lon="20.0424350426">
        <ele>1665.14</ele>
        <time>2019-07-09T09:24:51Z</time>
      </trkpt>
      <trkpt lat="42.5429500267" lon="20.0425532274">
        <ele>1664.66</ele>
        <time>2019-07-09T09:25:03Z</time>
      </trkpt>
      <trkpt lat="42.5429628510" lon="20.0425889343">
        <ele>1664.66</ele>
        <time>2019-07-09T09:25:07Z</time>
      </trkpt>
      <trkpt lat="42.5429662038" lon="20.0428178441">
        <ele>1663.22</ele>
        <time>2019-07-09T09:25:21Z</time>
      </trkpt>
      <trkpt lat="42.5429601688" lon="20.0430173334">
        <ele>1660.81</ele>
        <time>2019-07-09T09:25:32Z</time>
      </trkpt>
      <trkpt lat="42.5429488532" lon="20.0431682076">
        <ele>1659.37</ele>
        <time>2019-07-09T09:25:44Z</time>
      </trkpt>
      <trkpt lat="42.5429404713" lon="20.0433854666">
        <ele>1658.89</ele>
        <time>2019-07-09T09:25:57Z</time>
      </trkpt>
      <trkpt lat="42.5429353584" lon="20.0435322337">
        <ele>1657.93</ele>
        <time>2019-07-09T09:26:05Z</time>
      </trkpt>
      <trkpt lat="42.5429333467" lon="20.0436105207">
        <ele>1657.93</ele>
        <time>2019-07-09T09:26:09Z</time>
      </trkpt>
      <trkpt lat="42.5429561455" lon="20.0438722875">
        <ele>1657.45</ele>
        <time>2019-07-09T09:26:25Z</time>
      </trkpt>
      <trkpt lat="42.5429940317" lon="20.0439995248">
        <ele>1659.37</ele>
        <time>2019-07-09T09:26:37Z</time>
      </trkpt>
      <trkpt lat="42.5430377852" lon="20.0441449508">
        <ele>1659.85</ele>
        <time>2019-07-09T09:26:48Z</time>
      </trkpt>
      <trkpt lat="42.5430889986" lon="20.0441813283">
        <ele>1658.41</ele>
        <time>2019-07-09T09:26:53Z</time>
      </trkpt>
      <trkpt lat="42.5431392062" lon="20.0441940688">
        <ele>1659.85</ele>
        <time>2019-07-09T09:27:02Z</time>
      </trkpt>
      <trkpt lat="42.5431445707" lon="20.0442358106">
        <ele>1659.85</ele>
        <time>2019-07-09T09:27:06Z</time>
      </trkpt>
      <trkpt lat="42.5431150664" lon="20.0442997646">
        <ele>1660.33</ele>
        <time>2019-07-09T09:27:11Z</time>
      </trkpt>
      <trkpt lat="42.5431414694" lon="20.0445136707">
        <ele>1661.30</ele>
        <time>2019-07-09T09:27:27Z</time>
      </trkpt>
      <trkpt lat="42.5431511924" lon="20.0446170196">
        <ele>1662.26</ele>
        <time>2019-07-09T09:27:35Z</time>
      </trkpt>
      <trkpt lat="42.5431728177" lon="20.0448475219">
        <ele>1662.74</ele>
        <time>2019-07-09T09:27:51Z</time>
      </trkpt>
      <trkpt lat="42.5432247017" lon="20.0450449996">
        <ele>1664.66</ele>
        <time>2019-07-09T09:28:06Z</time>
      </trkpt>
      <trkpt lat="42.5432808604" lon="20.0452465005">
        <ele>1666.10</ele>
        <time>2019-07-09T09:28:21Z</time>
      </trkpt>
      <trkpt lat="42.5433276314" lon="20.0453646854">
        <ele>1667.06</ele>
        <time>2019-07-09T09:28:32Z</time>
      </trkpt>
      <trkpt lat="42.5434187427" lon="20.0455255341">
        <ele>1667.54</ele>
        <time>2019-07-09T09:28:47Z</time>
      </trkpt>
      <trkpt lat="42.5434287172" lon="20.0455471594">
        <ele>1667.54</ele>
        <time>2019-07-09T09:28:49Z</time>
      </trkpt>
      <trkpt lat="42.5434522703" lon="20.0456334092">
        <ele>1668.02</ele>
        <time>2019-07-09T09:28:54Z</time>
      </trkpt>
      <trkpt lat="42.5434612390" lon="20.0457226764">
        <ele>1668.51</ele>
        <time>2019-07-09T09:29:08Z</time>
      </trkpt>
      <trkpt lat="42.5433922559" lon="20.0457617361">
        <ele>1668.51</ele>
        <time>2019-07-09T09:29:16Z</time>
      </trkpt>
      <trkpt lat="42.5433970336" lon="20.0459451322">
        <ele>1669.95</ele>
        <time>2019-07-09T09:29:31Z</time>
      </trkpt>
      <trkpt lat="42.5434266217" lon="20.0461694319">
        <ele>1669.95</ele>
        <time>2019-07-09T09:29:45Z</time>
      </trkpt>
      <trkpt lat="42.5434444752" lon="20.0463522412">
        <ele>1668.99</ele>
        <time>2019-07-09T09:29:59Z</time>
      </trkpt>
      <trkpt lat="42.5434648432" lon="20.0464963261">
        <ele>1668.99</ele>
        <time>2019-07-09T09:30:10Z</time>
      </trkpt>
      <trkpt lat="42.5434646755" lon="20.0465441030">
        <ele>1669.95</ele>
        <time>2019-07-09T09:30:14Z</time>
      </trkpt>
      <trkpt lat="42.5434720516" lon="20.0466928817">
        <ele>1669.95</ele>
        <time>2019-07-09T09:30:24Z</time>
      </trkpt>
      <trkpt lat="42.5434610713" lon="20.0468389783">
        <ele>1668.99</ele>
        <time>2019-07-09T09:30:34Z</time>
      </trkpt>
      <trkpt lat="42.5434831996" lon="20.0469577499">
        <ele>1666.10</ele>
        <time>2019-07-09T09:30:49Z</time>
      </trkpt>
      <trkpt lat="42.5435137097" lon="20.0470184349">
        <ele>1662.74</ele>
        <time>2019-07-09T09:30:57Z</time>
      </trkpt>
      <trkpt lat="42.5435500033" lon="20.0470180158">
        <ele>1661.78</ele>
        <time>2019-07-09T09:31:02Z</time>
      </trkpt>
      <trkpt lat="42.5435950141" lon="20.0470722467">
        <ele>1660.81</ele>
        <time>2019-07-09T09:31:09Z</time>
      </trkpt>
      <trkpt lat="42.5435583014" lon="20.0471720751">
        <ele>1660.33</ele>
        <time>2019-07-09T09:31:17Z</time>
      </trkpt>
      <trkpt lat="42.5435039029" lon="20.0472643599">
        <ele>1662.26</ele>
        <time>2019-07-09T09:31:29Z</time>
      </trkpt>
      <trkpt lat="42.5434777513" lon="20.0473527052">
        <ele>1664.18</ele>
        <time>2019-07-09T09:31:42Z</time>
      </trkpt>
      <trkpt lat="42.5434473250" lon="20.0474421401">
        <ele>1666.10</ele>
        <time>2019-07-09T09:31:53Z</time>
      </trkpt>
      <trkpt lat="42.5434417930" lon="20.0475102011">
        <ele>1668.02</ele>
        <time>2019-07-09T09:32:01Z</time>
      </trkpt>
      <trkpt lat="42.5433921721" lon="20.0476825330">
        <ele>1667.54</ele>
        <time>2019-07-09T09:32:15Z</time>
      </trkpt>
      <trkpt lat="42.5433870591" lon="20.0477105286">
        <ele>1667.54</ele>
        <time>2019-07-09T09:32:17Z</time>
      </trkpt>
      <trkpt lat="42.5433899928" lon="20.0478678569">
        <ele>1669.95</ele>
        <time>2019-07-09T09:32:29Z</time>
      </trkpt>
      <trkpt lat="42.5433936808" lon="20.0478818547">
        <ele>1669.95</ele>
        <time>2019-07-09T09:32:31Z</time>
      </trkpt>
      <trkpt lat="42.5434125401" lon="20.0479994528">
        <ele>1671.87</ele>
        <time>2019-07-09T09:32:43Z</time>
      </trkpt>
      <trkpt lat="42.5434417930" lon="20.0480348244">
        <ele>1671.87</ele>
        <time>2019-07-09T09:32:47Z</time>
      </trkpt>
      <trkpt lat="42.5433979556" lon="20.0481797475">
        <ele>1671.87</ele>
        <time>2019-07-09T09:33:00Z</time>
      </trkpt>
      <trkpt lat="42.5434074271" lon="20.0482394267">
        <ele>1671.87</ele>
        <time>2019-07-09T09:33:05Z</time>
      </trkpt>
      <trkpt lat="42.5434691180" lon="20.0483799074">
        <ele>1672.35</ele>
        <time>2019-07-09T09:33:16Z</time>
      </trkpt>
      <trkpt lat="42.5434493367" lon="20.0485118385">
        <ele>1673.79</ele>
        <time>2019-07-09T09:33:27Z</time>
      </trkpt>
      <trkpt lat="42.5434464030" lon="20.0486239884">
        <ele>1675.72</ele>
        <time>2019-07-09T09:33:40Z</time>
      </trkpt>
      <trkpt lat="42.5434397813" lon="20.0488160178">
        <ele>1677.64</ele>
        <time>2019-07-09T09:33:55Z</time>
      </trkpt>
      <trkpt lat="42.5434371829" lon="20.0488477014">
        <ele>1677.64</ele>
        <time>2019-07-09T09:33:57Z</time>
      </trkpt>
      <trkpt lat="42.5434874743" lon="20.0489945523">
        <ele>1678.60</ele>
        <time>2019-07-09T09:34:09Z</time>
      </trkpt>
      <trkpt lat="42.5434949342" lon="20.0490540639">
        <ele>1677.16</ele>
        <time>2019-07-09T09:34:15Z</time>
      </trkpt>
      <trkpt lat="42.5434883125" lon="20.0491436664">
        <ele>1676.68</ele>
        <time>2019-07-09T09:34:20Z</time>
      </trkpt>
      <trkpt lat="42.5434774160" lon="20.0491832290">
        <ele>1676.68</ele>
        <time>2019-07-09T09:34:22Z</time>
      </trkpt>
      <trkpt lat="42.5434894022" lon="20.0494009070">
        <ele>1677.64</ele>
        <time>2019-07-09T09:34:35Z</time>
      </trkpt>
      <trkpt lat="42.5434982870" lon="20.0494210236">
        <ele>1677.64</ele>
        <time>2019-07-09T09:34:37Z</time>
      </trkpt>
      <trkpt lat="42.5435425434" lon="20.0495405495">
        <ele>1676.20</ele>
        <time>2019-07-09T09:34:48Z</time>
      </trkpt>
      <trkpt lat="42.5434249453" lon="20.0496789347">
        <ele>1676.20</ele>
        <time>2019-07-09T09:35:03Z</time>
      </trkpt>
      <trkpt lat="42.5433804374" lon="20.0496857241">
        <ele>1677.64</ele>
        <time>2019-07-09T09:35:09Z</time>
      </trkpt>
      <trkpt lat="42.5433398690" lon="20.0498299766">
        <ele>1678.60</ele>
        <time>2019-07-09T09:35:23Z</time>
      </trkpt>
      <trkpt lat="42.5433502626" lon="20.0499333255">
        <ele>1681.48</ele>
        <time>2019-07-09T09:35:36Z</time>
      </trkpt>
      <trkpt lat="42.5433392823" lon="20.0500228442">
        <ele>1683.89</ele>
        <time>2019-07-09T09:35:46Z</time>
      </trkpt>
      <trkpt lat="42.5433659367" lon="20.0500354171">
        <ele>1684.85</ele>
        <time>2019-07-09T09:35:57Z</time>
      </trkpt>
      <trkpt lat="42.5433932617" lon="20.0500582159">
        <ele>1687.25</ele>
        <time>2019-07-09T09:36:10Z</time>
      </trkpt>
      <trkpt lat="42.5433712173" lon="20.0501724612">
        <ele>1688.69</ele>
        <time>2019-07-09T09:36:22Z</time>
      </trkpt>
      <trkpt lat="42.5433912501" lon="20.0502925739">
        <ele>1690.62</ele>
        <time>2019-07-09T09:36:35Z</time>
      </trkpt>
      <trkpt lat="42.5434070081" lon="20.0503912289">
        <ele>1692.06</ele>
        <time>2019-07-09T09:36:48Z</time>
      </trkpt>
      <trkpt lat="42.5434221793" lon="20.0505190529">
        <ele>1693.98</ele>
        <time>2019-07-09T09:37:02Z</time>
      </trkpt>
      <trkpt lat="42.5434200838" lon="20.0505794026">
        <ele>1693.98</ele>
        <time>2019-07-09T09:37:07Z</time>
      </trkpt>
      <trkpt lat="42.5434400328" lon="20.0507308636">
        <ele>1694.94</ele>
        <time>2019-07-09T09:37:22Z</time>
      </trkpt>
      <trkpt lat="42.5434584729" lon="20.0508689974">
        <ele>1697.34</ele>
        <time>2019-07-09T09:37:35Z</time>
      </trkpt>
      <trkpt lat="42.5434977002" lon="20.0509425905">
        <ele>1699.27</ele>
        <time>2019-07-09T09:37:48Z</time>
      </trkpt>
      <trkpt lat="42.5435311440" lon="20.0510176085">
        <ele>1701.19</ele>
        <time>2019-07-09T09:38:00Z</time>
      </trkpt>
      <trkpt lat="42.5435474049" lon="20.0511714164">
        <ele>1701.67</ele>
        <time>2019-07-09T09:38:12Z</time>
      </trkpt>
      <trkpt lat="42.5435629953" lon="20.0512186904">
        <ele>1702.63</ele>
        <time>2019-07-09T09:38:17Z</time>
      </trkpt>
      <trkpt lat="42.5435921643" lon="20.0513533875">
        <ele>1704.07</ele>
        <time>2019-07-09T09:38:30Z</time>
      </trkpt>
      <trkpt lat="42.5436306372" lon="20.0513911061">
        <ele>1704.55</ele>
        <time>2019-07-09T09:38:36Z</time>
      </trkpt>
      <trkpt lat="42.5436808448" lon="20.0514300819">
        <ele>1705.04</ele>
        <time>2019-07-09T09:38:47Z</time>
      </trkpt>
      <trkpt lat="42.5436512567" lon="20.0515035912">
        <ele>1706.96</ele>
        <time>2019-07-09T09:38:58Z</time>
      </trkpt>
      <trkpt lat="42.5436110236" lon="20.0515990611">
        <ele>1708.88</ele>
        <time>2019-07-09T09:39:11Z</time>
      </trkpt>
      <trkpt lat="42.5435879733" lon="20.0516882446">
        <ele>1711.28</ele>
        <time>2019-07-09T09:39:25Z</time>
      </trkpt>
      <trkpt lat="42.5436385162" lon="20.0517157372">
        <ele>1713.69</ele>
        <time>2019-07-09T09:39:37Z</time>
      </trkpt>
      <trkpt lat="42.5436546095" lon="20.0517158210">
        <ele>1715.13</ele>
        <time>2019-07-09T09:39:50Z</time>
      </trkpt>
      <trkpt lat="42.5436939206" lon="20.0517915934">
        <ele>1717.05</ele>
        <time>2019-07-09T09:40:02Z</time>
      </trkpt>
      <trkpt lat="42.5437055714" lon="20.0518464949">
        <ele>1718.49</ele>
        <time>2019-07-09T09:40:12Z</time>
      </trkpt>
      <trkpt lat="42.5437185634" lon="20.0519341696">
        <ele>1719.94</ele>
        <time>2019-07-09T09:40:26Z</time>
      </trkpt>
      <trkpt lat="42.5437367521" lon="20.0519803539">
        <ele>1719.94</ele>
        <time>2019-07-09T09:40:39Z</time>
      </trkpt>
      <trkpt lat="42.5437186472" lon="20.0520341657">
        <ele>1720.42</ele>
        <time>2019-07-09T09:40:50Z</time>
      </trkpt>
      <trkpt lat="42.5436549447" lon="20.0520489179">
        <ele>1719.94</ele>
        <time>2019-07-09T09:41:15Z</time>
      </trkpt>
      <trkpt lat="42.5436091796" lon="20.0520432182">
        <ele>1719.46</ele>
        <time>2019-07-09T09:41:43Z</time>
      </trkpt>
      <trkpt lat="42.5436743908" lon="20.0520376861">
        <ele>1718.49</ele>
        <time>2019-07-09T09:42:15Z</time>
      </trkpt>
      <trkpt lat="42.5436442159" lon="20.0520678610">
        <ele>1717.53</ele>
        <time>2019-07-09T09:42:44Z</time>
      </trkpt>
      <trkpt lat="42.5436705351" lon="20.0520718005">
        <ele>1717.05</ele>
        <time>2019-07-09T09:43:24Z</time>
      </trkpt>
      <trkpt lat="42.5436841976" lon="20.0520616584">
        <ele>1716.09</ele>
        <time>2019-07-09T09:44:03Z</time>
      </trkpt>
      <trkpt lat="42.5437050685" lon="20.0521043222">
        <ele>1716.09</ele>
        <time>2019-07-09T09:44:36Z</time>
      </trkpt>
      <trkpt lat="42.5436766539" lon="20.0520749018">
        <ele>1715.61</ele>
        <time>2019-07-09T09:45:09Z</time>
      </trkpt>
      <trkpt lat="42.5436915737" lon="20.0520766620">
        <ele>1715.13</ele>
        <time>2019-07-09T09:45:44Z</time>
      </trkpt>
      <trkpt lat="42.5437184796" lon="20.0521535240">
        <ele>1713.21</ele>
        <time>2019-07-09T09:46:21Z</time>
      </trkpt>
      <trkpt lat="42.5437027216" lon="20.0521174818">
        <ele>1712.73</ele>
        <time>2019-07-09T09:47:00Z</time>
      </trkpt>
      <trkpt lat="42.5436710380" lon="20.0520486664">
        <ele>1711.76</ele>
        <time>2019-07-09T09:47:34Z</time>
      </trkpt>
      <trkpt lat="42.5436811801" lon="20.0520412065">
        <ele>1712.73</ele>
        <time>2019-07-09T09:48:01Z</time>
      </trkpt>
      <trkpt lat="42.5436601415" lon="20.0520600658">
        <ele>1712.73</ele>
        <time>2019-07-09T09:48:35Z</time>
      </trkpt>
      <trkpt lat="42.5436534360" lon="20.0520437211">
        <ele>1711.76</ele>
        <time>2019-07-09T09:49:14Z</time>
      </trkpt>
      <trkpt lat="42.5436508376" lon="20.0520421285">
        <ele>1711.76</ele>
        <time>2019-07-09T09:49:15Z</time>
      </trkpt>
      <trkpt lat="42.5437176414" lon="20.0521070044">
        <ele>1711.28</ele>
        <time>2019-07-09T09:49:55Z</time>
      </trkpt>
      <trkpt lat="42.5436779950" lon="20.0520520192">
        <ele>1712.25</ele>
        <time>2019-07-09T09:50:32Z</time>
      </trkpt>
      <trkpt lat="42.5436472334" lon="20.0520712137">
        <ele>1711.76</ele>
        <time>2019-07-09T09:51:11Z</time>
      </trkpt>
      <trkpt lat="42.5436417013" lon="20.0520365126">
        <ele>1712.25</ele>
        <time>2019-07-09T09:51:39Z</time>
      </trkpt>
      <trkpt lat="42.5436839461" lon="20.0520179886">
        <ele>1712.73</ele>
        <time>2019-07-09T09:52:03Z</time>
      </trkpt>
      <trkpt lat="42.5436865445" lon="20.0520335790">
        <ele>1712.25</ele>
        <time>2019-07-09T09:52:21Z</time>
      </trkpt>
      <trkpt lat="42.5436754804" lon="20.0520400330">
        <ele>1712.25</ele>
        <time>2019-07-09T09:52:45Z</time>
      </trkpt>
      <trkpt lat="42.5436876342" lon="20.0521056633">
        <ele>1713.21</ele>
        <time>2019-07-09T09:52:59Z</time>
      </trkpt>
      <trkpt lat="42.5436492451" lon="20.0521733053">
        <ele>1715.13</ele>
        <time>2019-07-09T09:53:13Z</time>
      </trkpt>
      <trkpt lat="42.5436375942" lon="20.0522490777">
        <ele>1717.05</ele>
        <time>2019-07-09T09:53:26Z</time>
      </trkpt>
      <trkpt lat="42.5436308887" lon="20.0523397699">
        <ele>1719.46</ele>
        <time>2019-07-09T09:53:40Z</time>
      </trkpt>
      <trkpt lat="42.5435983669" lon="20.0524380058">
        <ele>1721.86</ele>
        <time>2019-07-09T09:53:52Z</time>
      </trkpt>
      <trkpt lat="42.5435604807" lon="20.0524706114">
        <ele>1721.86</ele>
        <time>2019-07-09T09:53:57Z</time>
      </trkpt>
      <trkpt lat="42.5435145479" lon="20.0525621418">
        <ele>1724.26</ele>
        <time>2019-07-09T09:54:10Z</time>
      </trkpt>
      <trkpt lat="42.5434899889" lon="20.0526219886">
        <ele>1725.70</ele>
        <time>2019-07-09T09:54:23Z</time>
      </trkpt>
      <trkpt lat="42.5434492528" lon="20.0527172908">
        <ele>1728.11</ele>
        <time>2019-07-09T09:54:37Z</time>
      </trkpt>
      <trkpt lat="42.5434441399" lon="20.0527342223">
        <ele>1728.11</ele>
        <time>2019-07-09T09:54:40Z</time>
      </trkpt>
      <trkpt lat="42.5433961116" lon="20.0528167002">
        <ele>1730.03</ele>
        <time>2019-07-09T09:54:54Z</time>
      </trkpt>
      <trkpt lat="42.5433561299" lon="20.0528804027">
        <ele>1731.95</ele>
        <time>2019-07-09T09:55:08Z</time>
      </trkpt>
      <trkpt lat="42.5433342531" lon="20.0529993419">
        <ele>1733.39</ele>
        <time>2019-07-09T09:55:23Z</time>
      </trkpt>
      <trkpt lat="42.5433196686" lon="20.0530308578">
        <ele>1733.88</ele>
        <time>2019-07-09T09:55:27Z</time>
      </trkpt>
      <trkpt lat="42.5432802737" lon="20.0531376433">
        <ele>1735.80</ele>
        <time>2019-07-09T09:55:39Z</time>
      </trkpt>
      <trkpt lat="42.5432102848" lon="20.0532204565">
        <ele>1737.24</ele>
        <time>2019-07-09T09:55:52Z</time>
      </trkpt>
      <trkpt lat="42.5431315787" lon="20.0532101467">
        <ele>1739.64</ele>
        <time>2019-07-09T09:56:05Z</time>
      </trkpt>
      <trkpt lat="42.5430570636" lon="20.0531591009">
        <ele>1741.57</ele>
        <time>2019-07-09T09:56:17Z</time>
      </trkpt>
      <trkpt lat="42.5430265535" lon="20.0530316122">
        <ele>1743.49</ele>
        <time>2019-07-09T09:56:29Z</time>
      </trkpt>
      <trkpt lat="42.5430227816" lon="20.0530273374">
        <ele>1743.49</ele>
        <time>2019-07-09T09:56:30Z</time>
      </trkpt>
      <trkpt lat="42.5429472607" lon="20.0530197937">
        <ele>1745.41</ele>
        <time>2019-07-09T09:56:43Z</time>
      </trkpt>
      <trkpt lat="42.5428708177" lon="20.0530552492">
        <ele>1746.37</ele>
        <time>2019-07-09T09:56:54Z</time>
      </trkpt>
      <trkpt lat="42.5428516231" lon="20.0532256532">
        <ele>1747.81</ele>
        <time>2019-07-09T09:57:09Z</time>
      </trkpt>
      <trkpt lat="42.5428611785" lon="20.0533730071">
        <ele>1750.22</ele>
        <time>2019-07-09T09:57:26Z</time>
      </trkpt>
      <trkpt lat="42.5428628549" lon="20.0534978975">
        <ele>1752.14</ele>
        <time>2019-07-09T09:57:39Z</time>
      </trkpt>
      <trkpt lat="42.5428677164" lon="20.0536134839">
        <ele>1755.02</ele>
        <time>2019-07-09T09:57:53Z</time>
      </trkpt>
      <trkpt lat="42.5428263098" lon="20.0536967162">
        <ele>1756.95</ele>
        <time>2019-07-09T09:58:05Z</time>
      </trkpt>
      <trkpt lat="42.5428112224" lon="20.0538116321">
        <ele>1757.43</ele>
        <time>2019-07-09T09:58:15Z</time>
      </trkpt>
      <trkpt lat="42.5428124797" lon="20.0539182499">
        <ele>1757.43</ele>
        <time>2019-07-09T09:58:27Z</time>
      </trkpt>
      <trkpt lat="42.5428067800" lon="20.0539238658">
        <ele>1757.43</ele>
        <time>2019-07-09T09:58:28Z</time>
      </trkpt>
      <trkpt lat="42.5428029243" lon="20.0540074334">
        <ele>1754.06</ele>
        <time>2019-07-09T09:58:35Z</time>
      </trkpt>
      <trkpt lat="42.5428020023" lon="20.0541762449">
        <ele>1751.66</ele>
        <time>2019-07-09T09:58:47Z</time>
      </trkpt>
      <trkpt lat="42.5428198557" lon="20.0543526839">
        <ele>1750.70</ele>
        <time>2019-07-09T09:58:59Z</time>
      </trkpt>
      <trkpt lat="42.5428186823" lon="20.0544804242">
        <ele>1750.22</ele>
        <time>2019-07-09T09:59:08Z</time>
      </trkpt>
      <trkpt lat="42.5428333506" lon="20.0545515865">
        <ele>1751.66</ele>
        <time>2019-07-09T09:59:14Z</time>
      </trkpt>
      <trkpt lat="42.5428729132" lon="20.0546878763">
        <ele>1754.06</ele>
        <time>2019-07-09T09:59:28Z</time>
      </trkpt>
      <trkpt lat="42.5428713206" lon="20.0547415204">
        <ele>1755.02</ele>
        <time>2019-07-09T09:59:36Z</time>
      </trkpt>
      <trkpt lat="42.5428931974" lon="20.0549307000">
        <ele>1755.99</ele>
        <time>2019-07-09T09:59:51Z</time>
      </trkpt>
      <trkpt lat="42.5429098774" lon="20.0549936481">
        <ele>1757.43</ele>
        <time>2019-07-09T09:59:58Z</time>
      </trkpt>
      <trkpt lat="42.5429268926" lon="20.0551849231">
        <ele>1758.39</ele>
        <time>2019-07-09T10:00:12Z</time>
      </trkpt>
      <trkpt lat="42.5429786928" lon="20.0553334504">
        <ele>1759.83</ele>
        <time>2019-07-09T10:00:26Z</time>
      </trkpt>
      <trkpt lat="42.5430366118" lon="20.0554587599">
        <ele>1761.75</ele>
        <time>2019-07-09T10:00:39Z</time>
      </trkpt>
      <trkpt lat="42.5431109592" lon="20.0555570796">
        <ele>1762.71</ele>
        <time>2019-07-09T10:00:51Z</time>
      </trkpt>
      <trkpt lat="42.5431840494" lon="20.0556603447">
        <ele>1764.16</ele>
        <time>2019-07-09T10:01:03Z</time>
      </trkpt>
      <trkpt lat="42.5432358496" lon="20.0557371229">
        <ele>1765.60</ele>
        <time>2019-07-09T10:01:12Z</time>
      </trkpt>
      <trkpt lat="42.5432728976" lon="20.0558102131">
        <ele>1765.60</ele>
        <time>2019-07-09T10:01:18Z</time>
      </trkpt>
      <trkpt lat="42.5433319900" lon="20.0559853949">
        <ele>1767.52</ele>
        <time>2019-07-09T10:01:32Z</time>
      </trkpt>
      <trkpt lat="42.5434078462" lon="20.0561438128">
        <ele>1765.60</ele>
        <time>2019-07-09T10:01:47Z</time>
      </trkpt>
      <trkpt lat="42.5434868876" lon="20.0562421326">
        <ele>1765.12</ele>
        <time>2019-07-09T10:02:01Z</time>
      </trkpt>
      <trkpt lat="42.5436035637" lon="20.0563764106">
        <ele>1764.16</ele>
        <time>2019-07-09T10:02:16Z</time>
      </trkpt>
      <trkpt lat="42.5437489897" lon="20.0565119460">
        <ele>1762.71</ele>
        <time>2019-07-09T10:02:31Z</time>
      </trkpt>
      <trkpt lat="42.5439137779" lon="20.0566530973">
        <ele>1760.79</ele>
        <time>2019-07-09T10:02:47Z</time>
      </trkpt>
      <trkpt lat="42.5440483913" lon="20.0567980204">
        <ele>1759.35</ele>
        <time>2019-07-09T10:03:01Z</time>
      </trkpt>
      <trkpt lat="42.5441493094" lon="20.0569599587">
        <ele>1758.39</ele>
        <time>2019-07-09T10:03:14Z</time>
      </trkpt>
      <trkpt lat="42.5442633871" lon="20.0571470428">
        <ele>1757.43</ele>
        <time>2019-07-09T10:03:28Z</time>
      </trkpt>
      <trkpt lat="42.5443515647" lon="20.0573203806">
        <ele>1756.47</ele>
        <time>2019-07-09T10:03:42Z</time>
      </trkpt>
      <trkpt lat="42.5444606133" lon="20.0574219692">
        <ele>1754.54</ele>
        <time>2019-07-09T10:03:52Z</time>
      </trkpt>
      <trkpt lat="42.5444906205" lon="20.0574627053">
        <ele>1754.54</ele>
        <time>2019-07-09T10:03:56Z</time>
      </trkpt>
      <trkpt lat="42.5446109846" lon="20.0576041918">
        <ele>1754.54</ele>
        <time>2019-07-09T10:04:11Z</time>
      </trkpt>
      <trkpt lat="42.5447162613" lon="20.0577243883">
        <ele>1753.10</ele>
        <time>2019-07-09T10:04:23Z</time>
      </trkpt>
      <trkpt lat="42.5448774453" lon="20.0579109695">
        <ele>1751.66</ele>
        <time>2019-07-09T10:04:39Z</time>
      </trkpt>
      <trkpt lat="42.5449931994" lon="20.0580751710">
        <ele>1751.18</ele>
        <time>2019-07-09T10:04:53Z</time>
      </trkpt>
      <trkpt lat="42.5451042596" lon="20.0582415517">
        <ele>1752.62</ele>
        <time>2019-07-09T10:05:07Z</time>
      </trkpt>
      <trkpt lat="42.5451986399" lon="20.0584197510">
        <ele>1752.62</ele>
        <time>2019-07-09T10:05:22Z</time>
      </trkpt>
      <trkpt lat="42.5452418905" lon="20.0584763288">
        <ele>1751.18</ele>
        <time>2019-07-09T10:05:28Z</time>
      </trkpt>
      <trkpt lat="42.5453242008" lon="20.0586236827">
        <ele>1750.22</ele>
        <time>2019-07-09T10:05:42Z</time>
      </trkpt>
      <trkpt lat="42.5453936029" lon="20.0587561168">
        <ele>1750.22</ele>
        <time>2019-07-09T10:05:53Z</time>
      </trkpt>
      <trkpt lat="42.5454638433" lon="20.0589076616">
        <ele>1748.78</ele>
        <time>2019-07-09T10:06:06Z</time>
      </trkpt>
      <trkpt lat="42.5454916712" lon="20.0589742977">
        <ele>1750.22</ele>
        <time>2019-07-09T10:06:21Z</time>
      </trkpt>
      <trkpt lat="42.5455104467" lon="20.0589753874">
        <ele>1750.22</ele>
        <time>2019-07-09T10:06:36Z</time>
      </trkpt>
      <trkpt lat="42.5455398671" lon="20.0590421073">
        <ele>1749.74</ele>
        <time>2019-07-09T10:06:41Z</time>
      </trkpt>
      <trkpt lat="42.5456689484" lon="20.0592704304">
        <ele>1748.29</ele>
        <time>2019-07-09T10:06:58Z</time>
      </trkpt>
      <trkpt lat="42.5456888136" lon="20.0593089871">
        <ele>1748.29</ele>
        <time>2019-07-09T10:07:01Z</time>
      </trkpt>
      <trkpt lat="42.5456994586" lon="20.0593417604">
        <ele>1748.29</ele>
        <time>2019-07-09T10:07:04Z</time>
      </trkpt>
      <trkpt lat="42.5457892288" lon="20.0594997592">
        <ele>1748.29</ele>
        <time>2019-07-09T10:07:18Z</time>
      </trkpt>
      <trkpt lat="42.5458036456" lon="20.0595537387">
        <ele>1749.74</ele>
        <time>2019-07-09T10:07:22Z</time>
      </trkpt>
      <trkpt lat="42.5458193198" lon="20.0596146751">
        <ele>1748.29</ele>
        <time>2019-07-09T10:07:26Z</time>
      </trkpt>
      <trkpt lat="42.5458473153" lon="20.0596512202">
        <ele>1748.29</ele>
        <time>2019-07-09T10:07:29Z</time>
      </trkpt>
      <trkpt lat="42.5459270272" lon="20.0598767772">
        <ele>1747.33</ele>
        <time>2019-07-09T10:07:46Z</time>
      </trkpt>
      <trkpt lat="42.5459647458" lon="20.0599676371">
        <ele>1747.81</ele>
        <time>2019-07-09T10:07:54Z</time>
      </trkpt>
      <trkpt lat="42.5459898915" lon="20.0600338541">
        <ele>1747.81</ele>
        <time>2019-07-09T10:07:59Z</time>
      </trkpt>
      <trkpt lat="42.5460271072" lon="20.0601256359">
        <ele>1748.78</ele>
        <time>2019-07-09T10:08:08Z</time>
      </trkpt>
      <trkpt lat="42.5460400991" lon="20.0601403043">
        <ele>1749.26</ele>
        <time>2019-07-09T10:08:10Z</time>
      </trkpt>
      <trkpt lat="42.5461143628" lon="20.0602365285">
        <ele>1751.18</ele>
        <time>2019-07-09T10:08:22Z</time>
      </trkpt>
      <trkpt lat="42.5461456273" lon="20.0603202637">
        <ele>1751.66</ele>
        <time>2019-07-09T10:08:36Z</time>
      </trkpt>
      <trkpt lat="42.5461530033" lon="20.0603250414">
        <ele>1751.66</ele>
        <time>2019-07-09T10:08:56Z</time>
      </trkpt>
      <trkpt lat="42.5461765565" lon="20.0605131313">
        <ele>1753.10</ele>
        <time>2019-07-09T10:09:07Z</time>
      </trkpt>
      <trkpt lat="42.5462152809" lon="20.0605800189">
        <ele>1753.10</ele>
        <time>2019-07-09T10:09:13Z</time>
      </trkpt>
      <trkpt lat="42.5462087430" lon="20.0608101860">
        <ele>1752.14</ele>
        <time>2019-07-09T10:09:29Z</time>
      </trkpt>
      <trkpt lat="42.5462026242" lon="20.0608419534">
        <ele>1750.70</ele>
        <time>2019-07-09T10:09:31Z</time>
      </trkpt>
      <trkpt lat="42.5462182146" lon="20.0610812567">
        <ele>1750.22</ele>
        <time>2019-07-09T10:09:46Z</time>
      </trkpt>
      <trkpt lat="42.5462176278" lon="20.0611011218">
        <ele>1751.66</ele>
        <time>2019-07-09T10:09:51Z</time>
      </trkpt>
      <trkpt lat="42.5462199748" lon="20.0611224957">
        <ele>1751.66</ele>
        <time>2019-07-09T10:09:54Z</time>
      </trkpt>
      <trkpt lat="42.5462760497" lon="20.0611456297">
        <ele>1750.22</ele>
        <time>2019-07-09T10:09:59Z</time>
      </trkpt>
      <trkpt lat="42.5464039575" lon="20.0612752140">
        <ele>1747.33</ele>
        <time>2019-07-09T10:10:12Z</time>
      </trkpt>
      <trkpt lat="42.5464125909" lon="20.0612955820">
        <ele>1747.33</ele>
        <time>2019-07-09T10:10:14Z</time>
      </trkpt>
      <trkpt lat="42.5464391615" lon="20.0614887848">
        <ele>1746.37</ele>
        <time>2019-07-09T10:10:28Z</time>
      </trkpt>
      <trkpt lat="42.5464144349" lon="20.0616522320">
        <ele>1745.41</ele>
        <time>2019-07-09T10:10:39Z</time>
      </trkpt>
      <trkpt lat="42.5464377366" lon="20.0617457740">
        <ele>1745.41</ele>
        <time>2019-07-09T10:10:45Z</time>
      </trkpt>
      <trkpt lat="42.5464907102" lon="20.0618995819">
        <ele>1745.41</ele>
        <time>2019-07-09T10:10:58Z</time>
      </trkpt>
      <trkpt lat="42.5464767963" lon="20.0620081276">
        <ele>1744.45</ele>
        <time>2019-07-09T10:11:08Z</time>
      </trkpt>
      <trkpt lat="42.5464317016" lon="20.0620416552">
        <ele>1743.97</ele>
        <time>2019-07-09T10:11:13Z</time>
      </trkpt>
      <trkpt lat="42.5463804044" lon="20.0620880909">
        <ele>1745.41</ele>
        <time>2019-07-09T10:11:23Z</time>
      </trkpt>
      <trkpt lat="42.5463479664" lon="20.0622238778">
        <ele>1747.33</ele>
        <time>2019-07-09T10:11:37Z</time>
      </trkpt>
      <trkpt lat="42.5463503134" lon="20.0623242930">
        <ele>1748.78</ele>
        <time>2019-07-09T10:11:50Z</time>
      </trkpt>
      <trkpt lat="42.5463757943" lon="20.0624240376">
        <ele>1750.22</ele>
        <time>2019-07-09T10:12:02Z</time>
      </trkpt>
      <trkpt lat="42.5464127585" lon="20.0624801125">
        <ele>1751.66</ele>
        <time>2019-07-09T10:12:13Z</time>
      </trkpt>
      <trkpt lat="42.5464635529" lon="20.0625372771">
        <ele>1753.58</ele>
        <time>2019-07-09T10:12:28Z</time>
      </trkpt>
      <trkpt lat="42.5465311948" lon="20.0625909213">
        <ele>1754.06</ele>
        <time>2019-07-09T10:12:42Z</time>
      </trkpt>
      <trkpt lat="42.5465506408" lon="20.0626087748">
        <ele>1755.02</ele>
        <time>2019-07-09T10:13:00Z</time>
      </trkpt>
      <trkpt lat="42.5465956517" lon="20.0626684539">
        <ele>1755.02</ele>
        <time>2019-07-09T10:13:17Z</time>
      </trkpt>
      <trkpt lat="42.5466145109" lon="20.0627164822">
        <ele>1755.50</ele>
        <time>2019-07-09T10:13:23Z</time>
      </trkpt>
      <trkpt lat="42.5466570910" lon="20.0627995469">
        <ele>1755.99</ele>
        <time>2019-07-09T10:13:31Z</time>
      </trkpt>
      <trkpt lat="42.5467235595" lon="20.0629440509">
        <ele>1757.43</ele>
        <time>2019-07-09T10:13:45Z</time>
      </trkpt>
      <trkpt lat="42.5467937160" lon="20.0630949251">
        <ele>1757.91</ele>
        <time>2019-07-09T10:14:01Z</time>
      </trkpt>
      <trkpt lat="42.5468497910" lon="20.0632313825">
        <ele>1759.35</ele>
        <time>2019-07-09T10:14:16Z</time>
      </trkpt>
      <trkpt lat="42.5469857454" lon="20.0637998432">
        <ele>1760.31</ele>
        <time>2019-07-09T10:15:26Z</time>
      </trkpt>
      <trkpt lat="42.5469894335" lon="20.0638114940">
        <ele>1760.31</ele>
        <time>2019-07-09T10:15:27Z</time>
      </trkpt>
      <trkpt lat="42.5470258109" lon="20.0639629550">
        <ele>1761.75</ele>
        <time>2019-07-09T10:15:42Z</time>
      </trkpt>
      <trkpt lat="42.5470517110" lon="20.0640870072">
        <ele>1763.68</ele>
        <time>2019-07-09T10:15:57Z</time>
      </trkpt>
      <trkpt lat="42.5470359530" lon="20.0642141607">
        <ele>1764.16</ele>
        <time>2019-07-09T10:16:11Z</time>
      </trkpt>
      <trkpt lat="42.5470430776" lon="20.0643612631">
        <ele>1765.60</ele>
        <time>2019-07-09T10:16:26Z</time>
      </trkpt>
      <trkpt lat="42.5471672136" lon="20.0644905120">
        <ele>1769.44</ele>
        <time>2019-07-09T10:16:39Z</time>
      </trkpt>
      <trkpt lat="42.5471676327" lon="20.0644980557">
        <ele>1769.44</ele>
        <time>2019-07-09T10:16:40Z</time>
      </trkpt>
      <trkpt lat="42.5472020824" lon="20.0646273885">
        <ele>1771.85</ele>
        <time>2019-07-09T10:16:52Z</time>
      </trkpt>
      <trkpt lat="42.5472019985" lon="20.0646981318">
        <ele>1772.81</ele>
        <time>2019-07-09T10:16:59Z</time>
      </trkpt>
      <trkpt lat="42.5472152419" lon="20.0648311526">
        <ele>1774.73</ele>
        <time>2019-07-09T10:17:12Z</time>
      </trkpt>
      <trkpt lat="42.5472076144" lon="20.0648804381">
        <ele>1775.69</ele>
        <time>2019-07-09T10:17:18Z</time>
      </trkpt>
      <trkpt lat="42.5471851509" lon="20.0650204159">
        <ele>1777.13</ele>
        <time>2019-07-09T10:17:32Z</time>
      </trkpt>
      <trkpt lat="42.5471962150" lon="20.0651327334">
        <ele>1778.58</ele>
        <time>2019-07-09T10:17:44Z</time>
      </trkpt>
      <trkpt lat="42.5471854862" lon="20.0652459729">
        <ele>1780.50</ele>
        <time>2019-07-09T10:17:55Z</time>
      </trkpt>
      <trkpt lat="42.5471749250" lon="20.0653310493">
        <ele>1783.38</ele>
        <time>2019-07-09T10:18:05Z</time>
      </trkpt>
      <trkpt lat="42.5471728295" lon="20.0653368328">
        <ele>1783.38</ele>
        <time>2019-07-09T10:18:06Z</time>
      </trkpt>
      <trkpt lat="42.5471683033" lon="20.0654561911">
        <ele>1783.86</ele>
        <time>2019-07-09T10:18:20Z</time>
      </trkpt>
      <trkpt lat="42.5471437443" lon="20.0655656587">
        <ele>1785.79</ele>
        <time>2019-07-09T10:18:32Z</time>
      </trkpt>
      <trkpt lat="42.5471398886" lon="20.0657189637">
        <ele>1785.31</ele>
        <time>2019-07-09T10:18:46Z</time>
      </trkpt>
      <trkpt lat="42.5471181795" lon="20.0657415111">
        <ele>1784.34</ele>
        <time>2019-07-09T10:18:53Z</time>
      </trkpt>
      <trkpt lat="42.5470994040" lon="20.0657517370">
        <ele>1783.86</ele>
        <time>2019-07-09T10:18:56Z</time>
      </trkpt>
      <trkpt lat="42.5470175967" lon="20.0657538325">
        <ele>1786.75</ele>
        <time>2019-07-09T10:19:08Z</time>
      </trkpt>
      <trkpt lat="42.5469699036" lon="20.0657207239">
        <ele>1786.27</ele>
        <time>2019-07-09T10:19:15Z</time>
      </trkpt>
      <trkpt lat="42.5469150022" lon="20.0657069776">
        <ele>1785.79</ele>
        <time>2019-07-09T10:19:22Z</time>
      </trkpt>
      <trkpt lat="42.5468590111" lon="20.0656918902">
        <ele>1787.23</ele>
        <time>2019-07-09T10:19:36Z</time>
      </trkpt>
      <trkpt lat="42.5467913691" lon="20.0656362344">
        <ele>1787.71</ele>
        <time>2019-07-09T10:19:48Z</time>
      </trkpt>
      <trkpt lat="42.5467720907" lon="20.0656217337">
        <ele>1786.27</ele>
        <time>2019-07-09T10:19:52Z</time>
      </trkpt>
      <trkpt lat="42.5467705820" lon="20.0656234100">
        <ele>1787.71</ele>
        <time>2019-07-09T10:19:54Z</time>
      </trkpt>
      <trkpt lat="42.5467793830" lon="20.0656565186">
        <ele>1788.67</ele>
        <time>2019-07-09T10:20:12Z</time>
      </trkpt>
      <trkpt lat="42.5467659719" lon="20.0656444486">
        <ele>1787.23</ele>
        <time>2019-07-09T10:20:38Z</time>
      </trkpt>
      <trkpt lat="42.5467689056" lon="20.0656490587">
        <ele>1786.75</ele>
        <time>2019-07-09T10:20:54Z</time>
      </trkpt>
      <trkpt lat="42.5467822328" lon="20.0656456221">
        <ele>1788.19</ele>
        <time>2019-07-09T10:21:11Z</time>
      </trkpt>
      <trkpt lat="42.5468074623" lon="20.0656313729">
        <ele>1788.19</ele>
        <time>2019-07-09T10:21:36Z</time>
      </trkpt>
      <trkpt lat="42.5468254834" lon="20.0656592846">
        <ele>1790.11</ele>
        <time>2019-07-09T10:21:51Z</time>
      </trkpt>
      <trkpt lat="42.5468350388" lon="20.0656699296">
        <ele>1788.67</ele>
        <time>2019-07-09T10:21:53Z</time>
      </trkpt>
      <trkpt lat="42.5468441751" lon="20.0656821672">
        <ele>1788.67</ele>
        <time>2019-07-09T10:21:55Z</time>
      </trkpt>
      <trkpt lat="42.5469098054" lon="20.0657446962">
        <ele>1788.19</ele>
        <time>2019-07-09T10:22:12Z</time>
      </trkpt>
      <trkpt lat="42.5469729211" lon="20.0657352246">
        <ele>1788.19</ele>
        <time>2019-07-09T10:22:25Z</time>
      </trkpt>
      <trkpt lat="42.5470600091" lon="20.0657591131">
        <ele>1786.75</ele>
        <time>2019-07-09T10:22:38Z</time>
      </trkpt>
      <trkpt lat="42.5471394695" lon="20.0657077320">
        <ele>1786.27</ele>
        <time>2019-07-09T10:22:48Z</time>
      </trkpt>
      <trkpt lat="42.5471532159" lon="20.0654927362">
        <ele>1786.75</ele>
        <time>2019-07-09T10:23:03Z</time>
      </trkpt>
      <trkpt lat="42.5471692253" lon="20.0653376710">
        <ele>1785.31</ele>
        <time>2019-07-09T10:23:16Z</time>
      </trkpt>
      <trkpt lat="42.5471830554" lon="20.0652588811">
        <ele>1784.34</ele>
        <time>2019-07-09T10:23:24Z</time>
      </trkpt>
      <trkpt lat="42.5471619330" lon="20.0650703721">
        <ele>1781.94</ele>
        <time>2019-07-09T10:23:38Z</time>
      </trkpt>
      <trkpt lat="42.5471794512" lon="20.0648876466">
        <ele>1779.06</ele>
        <time>2019-07-09T10:23:52Z</time>
      </trkpt>
      <trkpt lat="42.5471960474" lon="20.0647280551">
        <ele>1776.65</ele>
        <time>2019-07-09T10:24:05Z</time>
      </trkpt>
      <trkpt lat="42.5471575744" lon="20.0644991454">
        <ele>1774.25</ele>
        <time>2019-07-09T10:24:20Z</time>
      </trkpt>
      <trkpt lat="42.5471328478" lon="20.0643787812">
        <ele>1772.81</ele>
        <time>2019-07-09T10:24:29Z</time>
      </trkpt>
      <trkpt lat="42.5471040141" lon="20.0642819703">
        <ele>1771.37</ele>
        <time>2019-07-09T10:24:36Z</time>
      </trkpt>
      <trkpt lat="42.5467948057" lon="20.0622872449">
        <ele>1760.79</ele>
        <time>2019-07-09T11:03:28Z</time>
      </trkpt>
      <trkpt lat="42.5468160119" lon="20.0623078644">
        <ele>1762.23</ele>
        <time>2019-07-09T11:04:07Z</time>
      </trkpt>
      <trkpt lat="42.5468204543" lon="20.0623138994">
        <ele>1762.71</ele>
        <time>2019-07-09T11:04:51Z</time>
      </trkpt>
      <trkpt lat="42.5468388107" lon="20.0623445772">
        <ele>1763.68</ele>
        <time>2019-07-09T11:05:40Z</time>
      </trkpt>
      <trkpt lat="42.5468279142" lon="20.0623465888">
        <ele>1763.68</ele>
        <time>2019-07-09T11:06:13Z</time>
      </trkpt>
      <trkpt lat="42.5468264893" lon="20.0623486843">
        <ele>1763.68</ele>
        <time>2019-07-09T11:06:55Z</time>
      </trkpt>
      <trkpt lat="42.5468140841" lon="20.0623474270">
        <ele>1764.64</ele>
        <time>2019-07-09T11:07:37Z</time>
      </trkpt>
      <trkpt lat="42.5468309317" lon="20.0623390451">
        <ele>1765.12</ele>
        <time>2019-07-09T11:07:59Z</time>
      </trkpt>
      <trkpt lat="42.5468117371" lon="20.0623627659">
        <ele>1765.12</ele>
        <time>2019-07-09T11:08:26Z</time>
      </trkpt>
      <trkpt lat="42.5468020141" lon="20.0623935275">
        <ele>1765.12</ele>
        <time>2019-07-09T11:08:58Z</time>
      </trkpt>
      <trkpt lat="42.5468006730" lon="20.0623864029">
        <ele>1764.16</ele>
        <time>2019-07-09T11:09:08Z</time>
      </trkpt>
      <trkpt lat="42.5467973202" lon="20.0621984806">
        <ele>1757.43</ele>
        <time>2019-07-10T05:17:25Z</time>
      </trkpt>
      <trkpt lat="42.5467894413" lon="20.0621942896">
        <ele>1757.43</ele>
        <time>2019-07-10T05:17:26Z</time>
      </trkpt>
      <trkpt lat="42.5467464421" lon="20.0621966366">
        <ele>1757.43</ele>
        <time>2019-07-10T05:17:40Z</time>
      </trkpt>
      <trkpt lat="42.5467358809" lon="20.0621828903">
        <ele>1756.47</ele>
        <time>2019-07-10T05:17:49Z</time>
      </trkpt>
      <trkpt lat="42.5467367191" lon="20.0622181781">
        <ele>1756.47</ele>
        <time>2019-07-10T05:17:52Z</time>
      </trkpt>
      <trkpt lat="42.5467643794" lon="20.0622374564">
        <ele>1756.47</ele>
        <time>2019-07-10T05:17:55Z</time>
      </trkpt>
      <trkpt lat="42.5468764454" lon="20.0622591656">
        <ele>1757.91</ele>
        <time>2019-07-10T05:18:03Z</time>
      </trkpt>
      <trkpt lat="42.5469954684" lon="20.0621703174">
        <ele>1758.39</ele>
        <time>2019-07-10T05:18:17Z</time>
      </trkpt>
      <trkpt lat="42.5470878370" lon="20.0622159988">
        <ele>1758.39</ele>
        <time>2019-07-10T05:18:27Z</time>
      </trkpt>
      <trkpt lat="42.5470850710" lon="20.0622274820">
        <ele>1756.47</ele>
        <time>2019-07-10T05:18:35Z</time>
      </trkpt>
      <trkpt lat="42.5470733363" lon="20.0622372050">
        <ele>1753.58</ele>
        <time>2019-07-10T05:18:54Z</time>
      </trkpt>
      <trkpt lat="42.5470383838" lon="20.0622115564">
        <ele>1752.62</ele>
        <time>2019-07-10T05:19:21Z</time>
      </trkpt>
      <trkpt lat="42.5470171776" lon="20.0622983929">
        <ele>1751.66</ele>
        <time>2019-07-10T05:19:44Z</time>
      </trkpt>
      <trkpt lat="42.5470281579" lon="20.0622926932">
        <ele>1752.14</ele>
        <time>2019-07-10T05:20:23Z</time>
      </trkpt>
      <trkpt lat="42.5470100529" lon="20.0623101275">
        <ele>1752.14</ele>
        <time>2019-07-10T05:21:04Z</time>
      </trkpt>
      <trkpt lat="42.5470037665" lon="20.0623107143">
        <ele>1752.62</ele>
        <time>2019-07-10T05:21:31Z</time>
      </trkpt>
      <trkpt lat="42.5470086280" lon="20.0623105466">
        <ele>1752.62</ele>
        <time>2019-07-10T05:21:57Z</time>
      </trkpt>
      <trkpt lat="42.5470232125" lon="20.0623064395">
        <ele>1753.10</ele>
        <time>2019-07-10T05:22:22Z</time>
      </trkpt>
      <trkpt lat="42.5470288284" lon="20.0622976385">
        <ele>1753.10</ele>
        <time>2019-07-10T05:22:54Z</time>
      </trkpt>
      <trkpt lat="42.5470237993" lon="20.0623033382">
        <ele>1753.58</ele>
        <time>2019-07-10T05:23:26Z</time>
      </trkpt>
      <trkpt lat="42.5470362883" lon="20.0623127259">
        <ele>1753.58</ele>
        <time>2019-07-10T05:24:02Z</time>
      </trkpt>
      <trkpt lat="42.5470307563" lon="20.0623073615">
        <ele>1754.06</ele>
        <time>2019-07-10T05:24:26Z</time>
      </trkpt>
      <trkpt lat="42.5470276549" lon="20.0623269752">
        <ele>1754.06</ele>
        <time>2019-07-10T05:24:48Z</time>
      </trkpt>
      <trkpt lat="42.5470276549" lon="20.0623234548">
        <ele>1754.54</ele>
        <time>2019-07-10T05:25:20Z</time>
      </trkpt>
      <trkpt lat="42.5470298342" lon="20.0622856524">
        <ele>1754.54</ele>
        <time>2019-07-10T05:25:45Z</time>
      </trkpt>
      <trkpt lat="42.5470239669" lon="20.0623128098">
        <ele>1755.02</ele>
        <time>2019-07-10T05:26:15Z</time>
      </trkpt>
      <trkpt lat="42.5470257271" lon="20.0623111334">
        <ele>1755.02</ele>
        <time>2019-07-10T05:26:35Z</time>
      </trkpt>
      <trkpt lat="42.5470279064" lon="20.0623506121">
        <ele>1755.02</ele>
        <time>2019-07-10T05:27:04Z</time>
      </trkpt>
      <trkpt lat="42.5470248889" lon="20.0623275619">
        <ele>1755.50</ele>
        <time>2019-07-10T05:27:36Z</time>
      </trkpt>
      <trkpt lat="42.5470272359" lon="20.0623204373">
        <ele>1755.50</ele>
        <time>2019-07-10T05:28:08Z</time>
      </trkpt>
      <trkpt lat="42.5470351148" lon="20.0623206049">
        <ele>1757.91</ele>
        <time>2019-07-10T05:28:22Z</time>
      </trkpt>
      <trkpt lat="42.5470607635" lon="20.0622793660">
        <ele>1757.91</ele>
        <time>2019-07-10T05:29:05Z</time>
      </trkpt>
      <trkpt lat="42.5470818859" lon="20.0623588264">
        <ele>1757.91</ele>
        <time>2019-07-10T05:29:21Z</time>
      </trkpt>
      <trkpt lat="42.5470869150" lon="20.0623611733">
        <ele>1757.91</ele>
        <time>2019-07-10T05:29:22Z</time>
      </trkpt>
      <trkpt lat="42.5471745897" lon="20.0623503607">
        <ele>1759.35</ele>
        <time>2019-07-10T05:29:34Z</time>
      </trkpt>
      <trkpt lat="42.5472380407" lon="20.0623470917">
        <ele>1759.83</ele>
        <time>2019-07-10T05:29:47Z</time>
      </trkpt>
      <trkpt lat="42.5472241268" lon="20.0623388775">
        <ele>1759.83</ele>
        <time>2019-07-10T05:29:55Z</time>
      </trkpt>
      <trkpt lat="42.5471880008" lon="20.0623454992">
        <ele>1759.83</ele>
        <time>2019-07-10T05:29:58Z</time>
      </trkpt>
      <trkpt lat="42.5471512880" lon="20.0623781048">
        <ele>1759.83</ele>
        <time>2019-07-10T05:30:02Z</time>
      </trkpt>
      <trkpt lat="42.5470786169" lon="20.0624100398">
        <ele>1759.83</ele>
        <time>2019-07-10T05:30:09Z</time>
      </trkpt>
      <trkpt lat="42.5470273197" lon="20.0624423940">
        <ele>1758.39</ele>
        <time>2019-07-10T05:30:14Z</time>
      </trkpt>
      <trkpt lat="42.5468827318" lon="20.0625796057">
        <ele>1758.39</ele>
        <time>2019-07-10T05:30:30Z</time>
      </trkpt>
      <trkpt lat="42.5468530599" lon="20.0626266282">
        <ele>1758.39</ele>
        <time>2019-07-10T05:30:44Z</time>
      </trkpt>
      <trkpt lat="42.5468444265" lon="20.0626524445">
        <ele>1758.39</ele>
        <time>2019-07-10T05:30:56Z</time>
      </trkpt>
      <trkpt lat="42.5468387268" lon="20.0626743212">
        <ele>1758.39</ele>
        <time>2019-07-10T05:30:58Z</time>
      </trkpt>
      <trkpt lat="42.5468071271" lon="20.0628851261">
        <ele>1758.39</ele>
        <time>2019-07-10T05:31:12Z</time>
      </trkpt>
      <trkpt lat="42.5468071271" lon="20.0629274547">
        <ele>1758.39</ele>
        <time>2019-07-10T05:31:15Z</time>
      </trkpt>
      <trkpt lat="42.5468379725" lon="20.0631549396">
        <ele>1760.79</ele>
        <time>2019-07-10T05:31:29Z</time>
      </trkpt>
      <trkpt lat="42.5468742661" lon="20.0632632338">
        <ele>1762.23</ele>
        <time>2019-07-10T05:31:37Z</time>
      </trkpt>
      <trkpt lat="42.5469218753" lon="20.0633776467">
        <ele>1764.16</ele>
        <time>2019-07-10T05:31:48Z</time>
      </trkpt>
      <trkpt lat="42.5469408184" lon="20.0634448696">
        <ele>1764.64</ele>
        <time>2019-07-10T05:31:54Z</time>
      </trkpt>
      <trkpt lat="42.5469668023" lon="20.0635416806">
        <ele>1765.60</ele>
        <time>2019-07-10T05:32:01Z</time>
      </trkpt>
      <trkpt lat="42.5470108073" lon="20.0636845920">
        <ele>1767.52</ele>
        <time>2019-07-10T05:32:13Z</time>
      </trkpt>
      <trkpt lat="42.5470196921" lon="20.0637248252">
        <ele>1767.52</ele>
        <time>2019-07-10T05:32:16Z</time>
      </trkpt>
      <trkpt lat="42.5470878370" lon="20.0639079697">
        <ele>1769.44</ele>
        <time>2019-07-10T05:32:31Z</time>
      </trkpt>
      <trkpt lat="42.5471142400" lon="20.0640740991">
        <ele>1772.33</ele>
        <time>2019-07-10T05:32:47Z</time>
      </trkpt>
      <trkpt lat="42.5471165869" lon="20.0642154180">
        <ele>1773.77</ele>
        <time>2019-07-10T05:33:00Z</time>
      </trkpt>
      <trkpt lat="42.5471359491" lon="20.0643974729">
        <ele>1775.21</ele>
        <time>2019-07-10T05:33:16Z</time>
      </trkpt>
      <trkpt lat="42.5471477676" lon="20.0644537993">
        <ele>1776.17</ele>
        <time>2019-07-10T05:33:22Z</time>
      </trkpt>
      <trkpt lat="42.5471982267" lon="20.0646150671">
        <ele>1778.10</ele>
        <time>2019-07-10T05:33:36Z</time>
      </trkpt>
      <trkpt lat="42.5472161639" lon="20.0647286419">
        <ele>1780.50</ele>
        <time>2019-07-10T05:33:49Z</time>
      </trkpt>
      <trkpt lat="42.5472047646" lon="20.0648586452">
        <ele>1781.94</ele>
        <time>2019-07-10T05:34:01Z</time>
      </trkpt>
      <trkpt lat="42.5471929461" lon="20.0650344975">
        <ele>1783.86</ele>
        <time>2019-07-10T05:34:16Z</time>
      </trkpt>
      <trkpt lat="42.5471895933" lon="20.0651808456">
        <ele>1785.79</ele>
        <time>2019-07-10T05:34:29Z</time>
      </trkpt>
      <trkpt lat="42.5471786968" lon="20.0652983598">
        <ele>1788.19</ele>
        <time>2019-07-10T05:34:42Z</time>
      </trkpt>
      <trkpt lat="42.5471411459" lon="20.0654546823">
        <ele>1790.11</ele>
        <time>2019-07-10T05:34:57Z</time>
      </trkpt>
      <trkpt lat="42.5471213646" lon="20.0655721966">
        <ele>1791.55</ele>
        <time>2019-07-10T05:35:08Z</time>
      </trkpt>
      <trkpt lat="42.5471178442" lon="20.0657324586">
        <ele>1792.52</ele>
        <time>2019-07-10T05:35:21Z</time>
      </trkpt>
      <trkpt lat="42.5470917765" lon="20.0657806545">
        <ele>1793.48</ele>
        <time>2019-07-10T05:35:28Z</time>
      </trkpt>
      <trkpt lat="42.5470706541" lon="20.0657990947">
        <ele>1793.96</ele>
        <time>2019-07-10T05:35:31Z</time>
      </trkpt>
      <trkpt lat="42.5470151659" lon="20.0658583548">
        <ele>1794.44</ele>
        <time>2019-07-10T05:35:39Z</time>
      </trkpt>
      <trkpt lat="42.5469574146" lon="20.0660092290">
        <ele>1795.40</ele>
        <time>2019-07-10T05:35:53Z</time>
      </trkpt>
      <trkpt lat="42.5469484460" lon="20.0660591014">
        <ele>1795.88</ele>
        <time>2019-07-10T05:35:57Z</time>
      </trkpt>
      <trkpt lat="42.5469592586" lon="20.0661195349">
        <ele>1796.84</ele>
        <time>2019-07-10T05:36:02Z</time>
      </trkpt>
      <trkpt lat="42.5469911937" lon="20.0662222970">
        <ele>1797.80</ele>
        <time>2019-07-10T05:36:11Z</time>
      </trkpt>
      <trkpt lat="42.5470731687" lon="20.0663419906">
        <ele>1800.21</ele>
        <time>2019-07-10T05:36:26Z</time>
      </trkpt>
      <trkpt lat="42.5470755156" lon="20.0663522165">
        <ele>1800.21</ele>
        <time>2019-07-10T05:36:27Z</time>
      </trkpt>
      <trkpt lat="42.5470666308" lon="20.0665242970">
        <ele>1801.65</ele>
        <time>2019-07-10T05:36:41Z</time>
      </trkpt>
      <trkpt lat="42.5470748451" lon="20.0666641910">
        <ele>1802.61</ele>
        <time>2019-07-10T05:36:53Z</time>
      </trkpt>
      <trkpt lat="42.5470649544" lon="20.0667144824">
        <ele>1803.57</ele>
        <time>2019-07-10T05:36:57Z</time>
      </trkpt>
      <trkpt lat="42.5470585003" lon="20.0668900833">
        <ele>1805.01</ele>
        <time>2019-07-10T05:37:10Z</time>
      </trkpt>
      <trkpt lat="42.5470820535" lon="20.0669533666">
        <ele>1805.01</ele>
        <time>2019-07-10T05:37:14Z</time>
      </trkpt>
      <trkpt lat="42.5471534673" lon="20.0671128742">
        <ele>1805.49</ele>
        <time>2019-07-10T05:37:27Z</time>
      </trkpt>
      <trkpt lat="42.5471577421" lon="20.0672579650">
        <ele>1805.49</ele>
        <time>2019-07-10T05:37:37Z</time>
      </trkpt>
      <trkpt lat="42.5471780263" lon="20.0674838573">
        <ele>1805.49</ele>
        <time>2019-07-10T05:37:52Z</time>
      </trkpt>
      <trkpt lat="42.5472123921" lon="20.0676599611">
        <ele>1806.94</ele>
        <time>2019-07-10T05:38:05Z</time>
      </trkpt>
      <trkpt lat="42.5472097937" lon="20.0676914770">
        <ele>1807.42</ele>
        <time>2019-07-10T05:38:07Z</time>
      </trkpt>
      <trkpt lat="42.5471926946" lon="20.0677447859">
        <ele>1807.90</ele>
        <time>2019-07-10T05:38:11Z</time>
      </trkpt>
      <trkpt lat="42.5470509566" lon="20.0678935647">
        <ele>1808.86</ele>
        <time>2019-07-10T05:38:27Z</time>
      </trkpt>
      <trkpt lat="42.5470311753" lon="20.0679260027">
        <ele>1809.34</ele>
        <time>2019-07-10T05:38:30Z</time>
      </trkpt>
      <trkpt lat="42.5470155850" lon="20.0679495558">
        <ele>1809.34</ele>
        <time>2019-07-10T05:38:32Z</time>
      </trkpt>
      <trkpt lat="42.5470156688" lon="20.0679783057">
        <ele>1809.34</ele>
        <time>2019-07-10T05:38:34Z</time>
      </trkpt>
      <trkpt lat="42.5470198598" lon="20.0682013482">
        <ele>1810.30</ele>
        <time>2019-07-10T05:38:50Z</time>
      </trkpt>
      <trkpt lat="42.5470042694" lon="20.0683244783">
        <ele>1811.26</ele>
        <time>2019-07-10T05:39:03Z</time>
      </trkpt>
      <trkpt lat="42.5469999947" lon="20.0685828086">
        <ele>1811.26</ele>
        <time>2019-07-10T05:39:19Z</time>
      </trkpt>
      <trkpt lat="42.5469873380" lon="20.0687942002">
        <ele>1811.74</ele>
        <time>2019-07-10T05:39:32Z</time>
      </trkpt>
      <trkpt lat="42.5469682273" lon="20.0689117983">
        <ele>1810.30</ele>
        <time>2019-07-10T05:39:40Z</time>
      </trkpt>
      <trkpt lat="42.5469755195" lon="20.0690569729">
        <ele>1809.34</ele>
        <time>2019-07-10T05:39:50Z</time>
      </trkpt>
      <trkpt lat="42.5471213646" lon="20.0692829490">
        <ele>1809.34</ele>
        <time>2019-07-10T05:40:10Z</time>
      </trkpt>
      <trkpt lat="42.5471398048" lon="20.0692873076">
        <ele>1810.78</ele>
        <time>2019-07-10T05:40:14Z</time>
      </trkpt>
      <trkpt lat="42.5471532997" lon="20.0692995451">
        <ele>1810.78</ele>
        <time>2019-07-10T05:40:16Z</time>
      </trkpt>
      <trkpt lat="42.5471580774" lon="20.0693169795">
        <ele>1810.78</ele>
        <time>2019-07-10T05:40:18Z</time>
      </trkpt>
      <trkpt lat="42.5471983943" lon="20.0694108568">
        <ele>1811.74</ele>
        <time>2019-07-10T05:40:26Z</time>
      </trkpt>
      <trkpt lat="42.5472338498" lon="20.0694827735">
        <ele>1812.22</ele>
        <time>2019-07-10T05:40:34Z</time>
      </trkpt>
      <trkpt lat="42.5472722389" lon="20.0695423689">
        <ele>1812.70</ele>
        <time>2019-07-10T05:40:40Z</time>
      </trkpt>
      <trkpt lat="42.5472865719" lon="20.0695608091">
        <ele>1813.18</ele>
        <time>2019-07-10T05:40:42Z</time>
      </trkpt>
      <trkpt lat="42.5473868195" lon="20.0697007030">
        <ele>1815.11</ele>
        <time>2019-07-10T05:40:57Z</time>
      </trkpt>
      <trkpt lat="42.5474671181" lon="20.0698077399">
        <ele>1817.03</ele>
        <time>2019-07-10T05:41:10Z</time>
      </trkpt>
      <trkpt lat="42.5475565530" lon="20.0698987674">
        <ele>1817.99</ele>
        <time>2019-07-10T05:41:22Z</time>
      </trkpt>
      <trkpt lat="42.5476650149" lon="20.0699541718">
        <ele>1819.43</ele>
        <time>2019-07-10T05:41:36Z</time>
      </trkpt>
      <trkpt lat="42.5477742311" lon="20.0700143538">
        <ele>1821.84</ele>
        <time>2019-07-10T05:41:50Z</time>
      </trkpt>
      <trkpt lat="42.5478640012" lon="20.0700814091">
        <ele>1823.76</ele>
        <time>2019-07-10T05:42:03Z</time>
      </trkpt>
      <trkpt lat="42.5479406957" lon="20.0701508950">
        <ele>1826.16</ele>
        <time>2019-07-10T05:42:15Z</time>
      </trkpt>
      <trkpt lat="42.5480561983" lon="20.0701760408">
        <ele>1828.08</ele>
        <time>2019-07-10T05:42:29Z</time>
      </trkpt>
      <trkpt lat="42.5481489021" lon="20.0702327862">
        <ele>1830.01</ele>
        <time>2019-07-10T05:42:43Z</time>
      </trkpt>
      <trkpt lat="42.5482333917" lon="20.0703090616">
        <ele>1831.93</ele>
        <time>2019-07-10T05:42:56Z</time>
      </trkpt>
      <trkpt lat="42.5483010337" lon="20.0703860074">
        <ele>1833.85</ele>
        <time>2019-07-10T05:43:07Z</time>
      </trkpt>
      <trkpt lat="42.5483867805" lon="20.0704386458">
        <ele>1835.77</ele>
        <time>2019-07-10T05:43:19Z</time>
      </trkpt>
      <trkpt lat="42.5484662410" lon="20.0705466047">
        <ele>1838.18</ele>
        <time>2019-07-10T05:43:33Z</time>
      </trkpt>
      <trkpt lat="42.5485512335" lon="20.0706447568">
        <ele>1840.10</ele>
        <time>2019-07-10T05:43:48Z</time>
      </trkpt>
      <trkpt lat="42.5486309454" lon="20.0707084592">
        <ele>1842.50</ele>
        <time>2019-07-10T05:44:02Z</time>
      </trkpt>
      <trkpt lat="42.5486939773" lon="20.0707537215">
        <ele>1844.43</ele>
        <time>2019-07-10T05:44:13Z</time>
      </trkpt>
      <trkpt lat="42.5487788022" lon="20.0708161667">
        <ele>1846.83</ele>
        <time>2019-07-10T05:44:27Z</time>
      </trkpt>
      <trkpt lat="42.5488219690" lon="20.0709035899">
        <ele>1848.27</ele>
        <time>2019-07-10T05:44:39Z</time>
      </trkpt>
      <trkpt lat="42.5488927122" lon="20.0710052624">
        <ele>1850.19</ele>
        <time>2019-07-10T05:44:52Z</time>
      </trkpt>
      <trkpt lat="42.5489567500" lon="20.0711127184">
        <ele>1852.12</ele>
        <time>2019-07-10T05:45:06Z</time>
      </trkpt>
      <trkpt lat="42.5490189437" lon="20.0712151453">
        <ele>1854.52</ele>
        <time>2019-07-10T05:45:20Z</time>
      </trkpt>
      <trkpt lat="42.5490944646" lon="20.0712685380">
        <ele>1856.44</ele>
        <time>2019-07-10T05:45:33Z</time>
      </trkpt>
      <trkpt lat="42.5492162537" lon="20.0713399518">
        <ele>1858.37</ele>
        <time>2019-07-10T05:45:50Z</time>
      </trkpt>
      <trkpt lat="42.5492894277" lon="20.0714180712">
        <ele>1860.29</ele>
        <time>2019-07-10T05:46:03Z</time>
      </trkpt>
      <trkpt lat="42.5493868254" lon="20.0714611541">
        <ele>1862.21</ele>
        <time>2019-07-10T05:46:17Z</time>
      </trkpt>
      <trkpt lat="42.5494615920" lon="20.0715477392">
        <ele>1864.13</ele>
        <time>2019-07-10T05:46:30Z</time>
      </trkpt>
      <trkpt lat="42.5495164096" lon="20.0716309715">
        <ele>1866.54</ele>
        <time>2019-07-10T05:46:44Z</time>
      </trkpt>
      <trkpt lat="42.5495692156" lon="20.0717121921">
        <ele>1868.94</ele>
        <time>2019-07-10T05:46:57Z</time>
      </trkpt>
      <trkpt lat="42.5496126339" lon="20.0718132779">
        <ele>1871.82</ele>
        <time>2019-07-10T05:47:12Z</time>
      </trkpt>
      <trkpt lat="42.5496467482" lon="20.0719146989">
        <ele>1873.75</ele>
        <time>2019-07-10T05:47:24Z</time>
      </trkpt>
      <trkpt lat="42.5497001410" lon="20.0719749648">
        <ele>1875.19</ele>
        <time>2019-07-10T05:47:37Z</time>
      </trkpt>
      <trkpt lat="42.5497631729" lon="20.0720486417">
        <ele>1878.07</ele>
        <time>2019-07-10T05:47:51Z</time>
      </trkpt>
      <trkpt lat="42.5497833733" lon="20.0720461272">
        <ele>1878.55</ele>
        <time>2019-07-10T05:47:54Z</time>
      </trkpt>
      <trkpt lat="42.5498733111" lon="20.0720540062">
        <ele>1880.00</ele>
        <time>2019-07-10T05:48:06Z</time>
      </trkpt>
      <trkpt lat="42.5499453116" lon="20.0720374938">
        <ele>1882.40</ele>
        <time>2019-07-10T05:48:18Z</time>
      </trkpt>
      <trkpt lat="42.5499963574" lon="20.0720265135">
        <ele>1883.84</ele>
        <time>2019-07-10T05:48:28Z</time>
      </trkpt>
      <trkpt lat="42.5500811823" lon="20.0719841011">
        <ele>1885.76</ele>
        <time>2019-07-10T05:48:41Z</time>
      </trkpt>
      <trkpt lat="42.5501513388" lon="20.0719432812">
        <ele>1888.17</ele>
        <time>2019-07-10T05:48:52Z</time>
      </trkpt>
      <trkpt lat="42.5502239261" lon="20.0719128549">
        <ele>1890.57</ele>
        <time>2019-07-10T05:49:05Z</time>
      </trkpt>
      <trkpt lat="42.5502936635" lon="20.0718893856">
        <ele>1892.49</ele>
        <time>2019-07-10T05:49:17Z</time>
      </trkpt>
      <trkpt lat="42.5503324717" lon="20.0718549360">
        <ele>1894.42</ele>
        <time>2019-07-10T05:49:28Z</time>
      </trkpt>
      <trkpt lat="42.5504076574" lon="20.0718470570">
        <ele>1895.86</ele>
        <time>2019-07-10T05:49:39Z</time>
      </trkpt>
      <trkpt lat="42.5504360721" lon="20.0718887988">
        <ele>1897.78</ele>
        <time>2019-07-10T05:49:50Z</time>
      </trkpt>
      <trkpt lat="42.5504701026" lon="20.0719740428">
        <ele>1899.22</ele>
        <time>2019-07-10T05:50:02Z</time>
      </trkpt>
      <trkpt lat="42.5504935719" lon="20.0720885396">
        <ele>1901.14</ele>
        <time>2019-07-10T05:50:14Z</time>
      </trkpt>
      <trkpt lat="42.5504804123" lon="20.0722521544">
        <ele>1903.55</ele>
        <time>2019-07-10T05:50:29Z</time>
      </trkpt>
      <trkpt lat="42.5504571106" lon="20.0723993406">
        <ele>1904.99</ele>
        <time>2019-07-10T05:50:42Z</time>
      </trkpt>
      <trkpt lat="42.5504314620" lon="20.0725465268">
        <ele>1906.91</ele>
        <time>2019-07-10T05:50:57Z</time>
      </trkpt>
      <trkpt lat="42.5504089147" lon="20.0726926234">
        <ele>1908.83</ele>
        <time>2019-07-10T05:51:12Z</time>
      </trkpt>
      <trkpt lat="42.5504220743" lon="20.0727026816">
        <ele>1909.32</ele>
        <time>2019-07-10T05:51:29Z</time>
      </trkpt>
      <trkpt lat="42.5504174642" lon="20.0728009176">
        <ele>1909.80</ele>
        <time>2019-07-10T05:51:47Z</time>
      </trkpt>
      <trkpt lat="42.5504251756" lon="20.0728376303">
        <ele>1910.28</ele>
        <time>2019-07-10T05:52:02Z</time>
      </trkpt>
      <trkpt lat="42.5504243374" lon="20.0728403125">
        <ele>1910.28</ele>
        <time>2019-07-10T05:52:07Z</time>
      </trkpt>
      <trkpt lat="42.5504335575" lon="20.0728630275">
        <ele>1910.76</ele>
        <time>2019-07-10T05:52:09Z</time>
      </trkpt>
      <trkpt lat="42.5504398439" lon="20.0730165839">
        <ele>1910.76</ele>
        <time>2019-07-10T05:52:22Z</time>
      </trkpt>
      <trkpt lat="42.5504059810" lon="20.0731922686">
        <ele>1912.68</ele>
        <time>2019-07-10T05:52:35Z</time>
      </trkpt>
      <trkpt lat="42.5504139438" lon="20.0732504390">
        <ele>1913.64</ele>
        <time>2019-07-10T05:52:40Z</time>
      </trkpt>
      <trkpt lat="42.5504391734" lon="20.0734484196">
        <ele>1915.08</ele>
        <time>2019-07-10T05:52:56Z</time>
      </trkpt>
      <trkpt lat="42.5504502375" lon="20.0735624135">
        <ele>1917.01</ele>
        <time>2019-07-10T05:53:09Z</time>
      </trkpt>
      <trkpt lat="42.5504830945" lon="20.0736535247">
        <ele>1917.97</ele>
        <time>2019-07-10T05:53:22Z</time>
      </trkpt>
      <trkpt lat="42.5504991040" lon="20.0736488309">
        <ele>1918.45</ele>
        <time>2019-07-10T05:53:25Z</time>
      </trkpt>
      <trkpt lat="42.5505331345" lon="20.0735676941">
        <ele>1918.45</ele>
        <time>2019-07-10T05:53:33Z</time>
      </trkpt>
      <trkpt lat="42.5505462941" lon="20.0735416263">
        <ele>1919.41</ele>
        <time>2019-07-10T05:53:36Z</time>
      </trkpt>
      <trkpt lat="42.5506387465" lon="20.0734622497">
        <ele>1921.81</ele>
        <time>2019-07-10T05:53:51Z</time>
      </trkpt>
      <trkpt lat="42.5506836735" lon="20.0733620860">
        <ele>1923.25</ele>
        <time>2019-07-10T05:54:02Z</time>
      </trkpt>
      <trkpt lat="42.5507327914" lon="20.0733098667">
        <ele>1924.22</ele>
        <time>2019-07-10T05:54:09Z</time>
      </trkpt>
      <trkpt lat="42.5508022774" lon="20.0731949508">
        <ele>1925.18</ele>
        <time>2019-07-10T05:54:23Z</time>
      </trkpt>
      <trkpt lat="42.5508544128" lon="20.0731361099">
        <ele>1927.58</ele>
        <time>2019-07-10T05:54:36Z</time>
      </trkpt>
      <trkpt lat="42.5509110745" lon="20.0731348526">
        <ele>1929.98</ele>
        <time>2019-07-10T05:54:48Z</time>
      </trkpt>
      <trkpt lat="42.5509731006" lon="20.0731456652">
        <ele>1930.95</ele>
        <time>2019-07-10T05:54:59Z</time>
      </trkpt>
      <trkpt lat="42.5510334503" lon="20.0731335953">
        <ele>1934.31</ele>
        <time>2019-07-10T05:55:11Z</time>
      </trkpt>
      <trkpt lat="42.5510778744" lon="20.0730776042">
        <ele>1935.75</ele>
        <time>2019-07-10T05:55:23Z</time>
      </trkpt>
      <trkpt lat="42.5511097256" lon="20.0730128959">
        <ele>1938.16</ele>
        <time>2019-07-10T05:55:37Z</time>
      </trkpt>
      <trkpt lat="42.5511720870" lon="20.0730650313">
        <ele>1941.04</ele>
        <time>2019-07-10T05:55:50Z</time>
      </trkpt>
      <trkpt lat="42.5512202829" lon="20.0730404723">
        <ele>1943.44</ele>
        <time>2019-07-10T05:56:00Z</time>
      </trkpt>
      <trkpt lat="42.5512880087" lon="20.0730191823">
        <ele>1946.33</ele>
        <time>2019-07-10T05:56:13Z</time>
      </trkpt>
      <trkpt lat="42.5513272360" lon="20.0729163364">
        <ele>1948.25</ele>
        <time>2019-07-10T05:56:26Z</time>
      </trkpt>
      <trkpt lat="42.5513999071" lon="20.0729019195">
        <ele>1950.65</ele>
        <time>2019-07-10T05:56:40Z</time>
      </trkpt>
      <trkpt lat="42.5514518749" lon="20.0729497802">
        <ele>1953.06</ele>
        <time>2019-07-10T05:56:54Z</time>
      </trkpt>
      <trkpt lat="42.5514985621" lon="20.0730216131">
        <ele>1954.98</ele>
        <time>2019-07-10T05:57:06Z</time>
      </trkpt>
      <trkpt lat="42.5515547208" lon="20.0729859900">
        <ele>1956.90</ele>
        <time>2019-07-10T05:57:18Z</time>
      </trkpt>
      <trkpt lat="42.5516114663" lon="20.0729979761">
        <ele>1958.82</ele>
        <time>2019-07-10T05:57:30Z</time>
      </trkpt>
      <trkpt lat="42.5516438205" lon="20.0730767660">
        <ele>1961.23</ele>
        <time>2019-07-10T05:57:42Z</time>
      </trkpt>
      <trkpt lat="42.5516883284" lon="20.0730307493">
        <ele>1963.15</ele>
        <time>2019-07-10T05:57:53Z</time>
      </trkpt>
      <trkpt lat="42.5517349318" lon="20.0730475970">
        <ele>1965.07</ele>
        <time>2019-07-10T05:58:05Z</time>
      </trkpt>
      <trkpt lat="42.5517396256" lon="20.0731408037">
        <ele>1966.99</ele>
        <time>2019-07-10T05:58:17Z</time>
      </trkpt>
      <trkpt lat="42.5517597422" lon="20.0731946994">
        <ele>1969.40</ele>
        <time>2019-07-10T05:58:29Z</time>
      </trkpt>
      <trkpt lat="42.5518196728" lon="20.0732004829">
        <ele>1971.32</ele>
        <time>2019-07-10T05:58:40Z</time>
      </trkpt>
      <trkpt lat="42.5519017316" lon="20.0731418096">
        <ele>1974.20</ele>
        <time>2019-07-10T05:58:54Z</time>
      </trkpt>
      <trkpt lat="42.5519686192" lon="20.0731233694">
        <ele>1976.13</ele>
        <time>2019-07-10T05:59:07Z</time>
      </trkpt>
      <trkpt lat="42.5520266220" lon="20.0730698928">
        <ele>1978.05</ele>
        <time>2019-07-10T05:59:21Z</time>
      </trkpt>
      <trkpt lat="42.5520538632" lon="20.0730496086">
        <ele>1979.97</ele>
        <time>2019-07-10T05:59:29Z</time>
      </trkpt>
      <trkpt lat="42.5521328207" lon="20.0729952101">
        <ele>1981.90</ele>
        <time>2019-07-10T05:59:44Z</time>
      </trkpt>
      <trkpt lat="42.5521420408" lon="20.0729919411">
        <ele>1982.86</ele>
        <time>2019-07-10T05:59:46Z</time>
      </trkpt>
      <trkpt lat="42.5522038992" lon="20.0729126483">
        <ele>1984.78</ele>
        <time>2019-07-10T05:59:59Z</time>
      </trkpt>
      <trkpt lat="42.5522459764" lon="20.0728516281">
        <ele>1987.18</ele>
        <time>2019-07-10T06:00:12Z</time>
      </trkpt>
      <trkpt lat="42.5523105171" lon="20.0728015881">
        <ele>1989.59</ele>
        <time>2019-07-10T06:00:24Z</time>
      </trkpt>
      <trkpt lat="42.5523357466" lon="20.0728622731">
        <ele>1991.99</ele>
        <time>2019-07-10T06:00:37Z</time>
      </trkpt>
      <trkpt lat="42.5523541868" lon="20.0729325972">
        <ele>1993.91</ele>
        <time>2019-07-10T06:00:47Z</time>
      </trkpt>
      <trkpt lat="42.5523811765" lon="20.0730161648">
        <ele>1996.32</ele>
        <time>2019-07-10T06:00:59Z</time>
      </trkpt>
      <trkpt lat="42.5523581263" lon="20.0730998162">
        <ele>1999.20</ele>
        <time>2019-07-10T06:01:13Z</time>
      </trkpt>
      <trkpt lat="42.5523731299" lon="20.0731677096">
        <ele>2001.60</ele>
        <time>2019-07-10T06:01:26Z</time>
      </trkpt>
      <trkpt lat="42.5523527618" lon="20.0732564740">
        <ele>2003.52</ele>
        <time>2019-07-10T06:01:39Z</time>
      </trkpt>
      <trkpt lat="42.5523785781" lon="20.0733166561">
        <ele>2006.41</ele>
        <time>2019-07-10T06:01:52Z</time>
      </trkpt>
      <trkpt lat="42.5524491537" lon="20.0732978806">
        <ele>2008.33</ele>
        <time>2019-07-10T06:02:04Z</time>
      </trkpt>
      <trkpt lat="42.5524748024" lon="20.0733498484">
        <ele>2009.29</ele>
        <time>2019-07-10T06:02:14Z</time>
      </trkpt>
      <trkpt lat="42.5524779875" lon="20.0734283030">
        <ele>2012.18</ele>
        <time>2019-07-10T06:02:26Z</time>
      </trkpt>
      <trkpt lat="42.5524704438" lon="20.0735197496">
        <ele>2014.10</ele>
        <time>2019-07-10T06:02:39Z</time>
      </trkpt>
      <trkpt lat="42.5524992775" lon="20.0736037362">
        <ele>2016.02</ele>
        <time>2019-07-10T06:02:52Z</time>
      </trkpt>
      <trkpt lat="42.5525511615" lon="20.0736014731">
        <ele>2017.94</ele>
        <time>2019-07-10T06:03:06Z</time>
      </trkpt>
      <trkpt lat="42.5526130199" lon="20.0735324062">
        <ele>2020.35</ele>
        <time>2019-07-10T06:03:19Z</time>
      </trkpt>
      <trkpt lat="42.5526592880" lon="20.0734672789">
        <ele>2022.75</ele>
        <time>2019-07-10T06:03:31Z</time>
      </trkpt>
      <trkpt lat="42.5527217332" lon="20.0734189991">
        <ele>2025.64</ele>
        <time>2019-07-10T06:03:44Z</time>
      </trkpt>
      <trkpt lat="42.5527664926" lon="20.0733957812">
        <ele>2027.08</ele>
        <time>2019-07-10T06:03:56Z</time>
      </trkpt>
      <trkpt lat="42.5528218970" lon="20.0733568054">
        <ele>2029.96</ele>
        <time>2019-07-10T06:04:09Z</time>
      </trkpt>
      <trkpt lat="42.5528701767" lon="20.0733317435">
        <ele>2031.40</ele>
        <time>2019-07-10T06:04:20Z</time>
      </trkpt>
      <trkpt lat="42.5529187918" lon="20.0733002275">
        <ele>2033.33</ele>
        <time>2019-07-10T06:04:31Z</time>
      </trkpt>
      <trkpt lat="42.5529131759" lon="20.0733618345">
        <ele>2034.77</ele>
        <time>2019-07-10T06:04:42Z</time>
      </trkpt>
      <trkpt lat="42.5529151037" lon="20.0734537840">
        <ele>2036.69</ele>
        <time>2019-07-10T06:04:55Z</time>
      </trkpt>
      <trkpt lat="42.5529519003" lon="20.0734855514">
        <ele>2039.09</ele>
        <time>2019-07-10T06:05:07Z</time>
      </trkpt>
      <trkpt lat="42.5530084781" lon="20.0734082703">
        <ele>2041.98</ele>
        <time>2019-07-10T06:05:22Z</time>
      </trkpt>
      <trkpt lat="42.5530412514" lon="20.0733650196">
        <ele>2043.42</ele>
        <time>2019-07-10T06:05:34Z</time>
      </trkpt>
      <trkpt lat="42.5530932192" lon="20.0733525306">
        <ele>2046.30</ele>
        <time>2019-07-10T06:05:46Z</time>
      </trkpt>
      <trkpt lat="42.5531526469" lon="20.0733045023">
        <ele>2048.23</ele>
        <time>2019-07-10T06:05:59Z</time>
      </trkpt>
      <trkpt lat="42.5531976577" lon="20.0732722320">
        <ele>2050.15</ele>
        <time>2019-07-10T06:06:09Z</time>
      </trkpt>
      <trkpt lat="42.5532347895" lon="20.0732475054">
        <ele>2052.07</ele>
        <time>2019-07-10T06:06:20Z</time>
      </trkpt>
      <trkpt lat="42.5532595161" lon="20.0732807815">
        <ele>2054.47</ele>
        <time>2019-07-10T06:06:32Z</time>
      </trkpt>
      <trkpt lat="42.5532559957" lon="20.0733576436">
        <ele>2056.88</ele>
        <time>2019-07-10T06:06:46Z</time>
      </trkpt>
      <trkpt lat="42.5532690715" lon="20.0734327454">
        <ele>2059.28</ele>
        <time>2019-07-10T06:06:58Z</time>
      </trkpt>
      <trkpt lat="42.5533120707" lon="20.0734231062">
        <ele>2061.20</ele>
        <time>2019-07-10T06:07:10Z</time>
      </trkpt>
      <trkpt lat="42.5533780362" lon="20.0733791012">
        <ele>2063.61</ele>
        <time>2019-07-10T06:07:23Z</time>
      </trkpt>
      <trkpt lat="42.5534033496" lon="20.0733853038">
        <ele>2065.53</ele>
        <time>2019-07-10T06:07:34Z</time>
      </trkpt>
      <trkpt lat="42.5533972308" lon="20.0734530296">
        <ele>2067.93</ele>
        <time>2019-07-10T06:07:47Z</time>
      </trkpt>
      <trkpt lat="42.5534049422" lon="20.0734815281">
        <ele>2068.41</ele>
        <time>2019-07-10T06:07:52Z</time>
      </trkpt>
      <trkpt lat="42.5533833168" lon="20.0735494215">
        <ele>2070.82</ele>
        <time>2019-07-10T06:08:03Z</time>
      </trkpt>
      <trkpt lat="42.5533960573" lon="20.0736225117">
        <ele>2072.74</ele>
        <time>2019-07-10T06:08:15Z</time>
      </trkpt>
      <trkpt lat="42.5533945486" lon="20.0737108570">
        <ele>2074.66</ele>
        <time>2019-07-10T06:08:29Z</time>
      </trkpt>
      <trkpt lat="42.5534722488" lon="20.0736827776">
        <ele>2077.07</ele>
        <time>2019-07-10T06:08:42Z</time>
      </trkpt>
      <trkpt lat="42.5535390526" lon="20.0736585539">
        <ele>2078.99</ele>
        <time>2019-07-10T06:08:55Z</time>
      </trkpt>
      <trkpt lat="42.5535921101" lon="20.0736118667">
        <ele>2080.91</ele>
        <time>2019-07-10T06:09:07Z</time>
      </trkpt>
      <trkpt lat="42.5536462571" lon="20.0735707954">
        <ele>2082.83</ele>
        <time>2019-07-10T06:09:20Z</time>
      </trkpt>
      <trkpt lat="42.5536675472" lon="20.0736131240">
        <ele>2085.24</ele>
        <time>2019-07-10T06:09:34Z</time>
      </trkpt>
      <trkpt lat="42.5536537170" lon="20.0736899022">
        <ele>2088.12</ele>
        <time>2019-07-10T06:09:46Z</time>
      </trkpt>
      <trkpt lat="42.5536996499" lon="20.0736715458">
        <ele>2090.04</ele>
        <time>2019-07-10T06:09:57Z</time>
      </trkpt>
      <trkpt lat="42.5537621789" lon="20.0736413710">
        <ele>2091.97</ele>
        <time>2019-07-10T06:10:10Z</time>
      </trkpt>
      <trkpt lat="42.5538208522" lon="20.0736469869">
        <ele>2094.85</ele>
        <time>2019-07-10T06:10:24Z</time>
      </trkpt>
      <trkpt lat="42.5538795255" lon="20.0736077596">
        <ele>2097.25</ele>
        <time>2019-07-10T06:10:35Z</time>
      </trkpt>
      <trkpt lat="42.5539373606" lon="20.0735411234">
        <ele>2099.66</ele>
        <time>2019-07-10T06:10:49Z</time>
      </trkpt>
      <trkpt lat="42.5539848022" lon="20.0734825339">
        <ele>2100.62</ele>
        <time>2019-07-10T06:11:00Z</time>
      </trkpt>
      <trkpt lat="42.5540061761" lon="20.0735303108">
        <ele>2102.54</ele>
        <time>2019-07-10T06:11:13Z</time>
      </trkpt>
      <trkpt lat="42.5540507678" lon="20.0735686161">
        <ele>2105.91</ele>
        <time>2019-07-10T06:11:28Z</time>
      </trkpt>
      <trkpt lat="42.5540622510" lon="20.0736319833">
        <ele>2107.83</ele>
        <time>2019-07-10T06:11:40Z</time>
      </trkpt>
      <trkpt lat="42.5541032385" lon="20.0736299716">
        <ele>2110.23</ele>
        <time>2019-07-10T06:11:52Z</time>
      </trkpt>
      <trkpt lat="42.5540972874" lon="20.0737235975">
        <ele>2112.15</ele>
        <time>2019-07-10T06:12:07Z</time>
      </trkpt>
      <trkpt lat="42.5541500095" lon="20.0737222563">
        <ele>2114.56</ele>
        <time>2019-07-10T06:12:20Z</time>
      </trkpt>
      <trkpt lat="42.5542266201" lon="20.0736967754">
        <ele>2116.96</ele>
        <time>2019-07-10T06:12:34Z</time>
      </trkpt>
      <trkpt lat="42.5542819407" lon="20.0736835320">
        <ele>2119.36</ele>
        <time>2019-07-10T06:12:47Z</time>
      </trkpt>
      <trkpt lat="42.5543160550" lon="20.0736864656">
        <ele>2120.81</ele>
        <time>2019-07-10T06:12:59Z</time>
      </trkpt>
      <trkpt lat="42.5543787517" lon="20.0736435503">
        <ele>2123.69</ele>
        <time>2019-07-10T06:13:13Z</time>
      </trkpt>
      <trkpt lat="42.5544354971" lon="20.0736105256">
        <ele>2126.09</ele>
        <time>2019-07-10T06:13:26Z</time>
      </trkpt>
      <trkpt lat="42.5544798374" lon="20.0735709630">
        <ele>2128.50</ele>
        <time>2019-07-10T06:13:39Z</time>
      </trkpt>
      <trkpt lat="42.5545221660" lon="20.0734867249">
        <ele>2130.90</ele>
        <time>2019-07-10T06:13:53Z</time>
      </trkpt>
      <trkpt lat="42.5545538496" lon="20.0734802708">
        <ele>2132.82</ele>
        <time>2019-07-10T06:14:07Z</time>
      </trkpt>
      <trkpt lat="42.5545646623" lon="20.0735733937">
        <ele>2135.23</ele>
        <time>2019-07-10T06:14:21Z</time>
      </trkpt>
      <trkpt lat="42.5545831025" lon="20.0736563746">
        <ele>2137.63</ele>
        <time>2019-07-10T06:14:34Z</time>
      </trkpt>
      <trkpt lat="42.5545882992" lon="20.0737256929">
        <ele>2140.03</ele>
        <time>2019-07-10T06:14:46Z</time>
      </trkpt>
      <trkpt lat="42.5546265207" lon="20.0737926643">
        <ele>2142.92</ele>
        <time>2019-07-10T06:15:01Z</time>
      </trkpt>
      <trkpt lat="42.5546415243" lon="20.0738620665">
        <ele>2145.80</ele>
        <time>2019-07-10T06:15:14Z</time>
      </trkpt>
      <trkpt lat="42.5546691846" lon="20.0739128608">
        <ele>2147.72</ele>
        <time>2019-07-10T06:15:25Z</time>
      </trkpt>
      <trkpt lat="42.5547002815" lon="20.0739602186">
        <ele>2150.61</ele>
        <time>2019-07-10T06:15:37Z</time>
      </trkpt>
      <trkpt lat="42.5547614694" lon="20.0739941653">
        <ele>2153.01</ele>
        <time>2019-07-10T06:15:51Z</time>
      </trkpt>
      <trkpt lat="42.5547223259" lon="20.0740696862">
        <ele>2154.93</ele>
        <time>2019-07-10T06:16:03Z</time>
      </trkpt>
      <trkpt lat="42.5545980223" lon="20.0741470512">
        <ele>2156.86</ele>
        <time>2019-07-10T06:16:19Z</time>
      </trkpt>
      <trkpt lat="42.5546198990" lon="20.0742069818">
        <ele>2158.30</ele>
        <time>2019-07-10T06:16:29Z</time>
      </trkpt>
      <trkpt lat="42.5546630658" lon="20.0742328819">
        <ele>2160.22</ele>
        <time>2019-07-10T06:16:39Z</time>
      </trkpt>
      <trkpt lat="42.5546525046" lon="20.0742664095">
        <ele>2160.70</ele>
        <time>2019-07-10T06:16:44Z</time>
      </trkpt>
      <trkpt lat="42.5546989404" lon="20.0742757134">
        <ele>2163.10</ele>
        <time>2019-07-10T06:16:57Z</time>
      </trkpt>
      <trkpt lat="42.5547779817" lon="20.0743035413">
        <ele>2165.51</ele>
        <time>2019-07-10T06:17:12Z</time>
      </trkpt>
      <trkpt lat="42.5548576098" lon="20.0743151084">
        <ele>2167.91</ele>
        <time>2019-07-10T06:17:24Z</time>
      </trkpt>
      <trkpt lat="42.5549430214" lon="20.0743029546">
        <ele>2169.83</ele>
        <time>2019-07-10T06:17:36Z</time>
      </trkpt>
      <trkpt lat="42.5550245773" lon="20.0742493942">
        <ele>2171.27</ele>
        <time>2019-07-10T06:17:47Z</time>
      </trkpt>
      <trkpt lat="42.5550964940" lon="20.0741789024">
        <ele>2173.68</ele>
        <time>2019-07-10T06:17:59Z</time>
      </trkpt>
      <trkpt lat="42.5551501382" lon="20.0740761403">
        <ele>2174.64</ele>
        <time>2019-07-10T06:18:11Z</time>
      </trkpt>
      <trkpt lat="42.5552100688" lon="20.0739821792">
        <ele>2177.04</ele>
        <time>2019-07-10T06:18:25Z</time>
      </trkpt>
      <trkpt lat="42.5552696642" lon="20.0738575403">
        <ele>2178.97</ele>
        <time>2019-07-10T06:18:41Z</time>
      </trkpt>
      <trkpt lat="42.5553279184" lon="20.0737503357">
        <ele>2180.89</ele>
        <time>2019-07-10T06:18:54Z</time>
      </trkpt>
      <trkpt lat="42.5553820655" lon="20.0736190751">
        <ele>2183.29</ele>
        <time>2019-07-10T06:19:08Z</time>
      </trkpt>
      <trkpt lat="42.5554137491" lon="20.0734803546">
        <ele>2185.69</ele>
        <time>2019-07-10T06:19:22Z</time>
      </trkpt>
      <trkpt lat="42.5554599334" lon="20.0734248664">
        <ele>2187.14</ele>
        <time>2019-07-10T06:19:37Z</time>
      </trkpt>
      <trkpt lat="42.5554548204" lon="20.0734262075">
        <ele>2188.10</ele>
        <time>2019-07-10T06:20:04Z</time>
      </trkpt>
      <trkpt lat="42.5554516353" lon="20.0733900815">
        <ele>2186.66</ele>
        <time>2019-07-10T06:20:15Z</time>
      </trkpt>
      <trkpt lat="42.5554278307" lon="20.0734060071">
        <ele>2186.18</ele>
        <time>2019-07-10T06:20:36Z</time>
      </trkpt>
      <trkpt lat="42.5554276630" lon="20.0733922608">
        <ele>2185.69</ele>
        <time>2019-07-10T06:21:08Z</time>
      </trkpt>
      <trkpt lat="42.5554155093" lon="20.0734101143">
        <ele>2185.69</ele>
        <time>2019-07-10T06:21:37Z</time>
      </trkpt>
      <trkpt lat="42.5554217957" lon="20.0733928476">
        <ele>2186.18</ele>
        <time>2019-07-10T06:21:55Z</time>
      </trkpt>
      <trkpt lat="42.5554144196" lon="20.0733868964">
        <ele>2186.18</ele>
        <time>2019-07-10T06:22:27Z</time>
      </trkpt>
      <trkpt lat="42.5554232206" lon="20.0733929314">
        <ele>2187.62</ele>
        <time>2019-07-10T06:22:56Z</time>
      </trkpt>
      <trkpt lat="42.5554248970" lon="20.0733925961">
        <ele>2187.62</ele>
        <time>2019-07-10T06:22:57Z</time>
      </trkpt>
      <trkpt lat="42.5554362126" lon="20.0734379422">
        <ele>2189.06</ele>
        <time>2019-07-10T06:23:09Z</time>
      </trkpt>
      <trkpt lat="42.5554813910" lon="20.0736075919">
        <ele>2190.98</ele>
        <time>2019-07-10T06:23:23Z</time>
      </trkpt>
      <trkpt lat="42.5555165112" lon="20.0737586338">
        <ele>2193.39</ele>
        <time>2019-07-10T06:23:36Z</time>
      </trkpt>
      <trkpt lat="42.5555408187" lon="20.0738157984">
        <ele>2195.31</ele>
        <time>2019-07-10T06:23:42Z</time>
      </trkpt>
      <trkpt lat="42.5555754360" lon="20.0739799999">
        <ele>2198.67</ele>
        <time>2019-07-10T06:23:56Z</time>
      </trkpt>
      <trkpt lat="42.5556306727" lon="20.0741431955">
        <ele>2201.56</ele>
        <time>2019-07-10T06:24:11Z</time>
      </trkpt>
      <trkpt lat="42.5556811318" lon="20.0742996857">
        <ele>2205.40</ele>
        <time>2019-07-10T06:24:26Z</time>
      </trkpt>
      <trkpt lat="42.5557094626" lon="20.0744254980">
        <ele>2208.29</ele>
        <time>2019-07-10T06:24:38Z</time>
      </trkpt>
      <trkpt lat="42.5557232928" lon="20.0745270029">
        <ele>2211.65</ele>
        <time>2019-07-10T06:24:49Z</time>
      </trkpt>
      <trkpt lat="42.5557307526" lon="20.0746456906">
        <ele>2214.53</ele>
        <time>2019-07-10T06:25:00Z</time>
      </trkpt>
      <trkpt lat="42.5557122286" lon="20.0747243967">
        <ele>2217.42</ele>
        <time>2019-07-10T06:25:09Z</time>
      </trkpt>
      <trkpt lat="42.5556747615" lon="20.0748502929">
        <ele>2220.78</ele>
        <time>2019-07-10T06:25:21Z</time>
      </trkpt>
      <trkpt lat="42.5557483546" lon="20.0749713276">
        <ele>2222.71</ele>
        <time>2019-07-10T06:25:35Z</time>
      </trkpt>
      <trkpt lat="42.5557916891" lon="20.0749999937">
        <ele>2223.19</ele>
        <time>2019-07-10T06:25:41Z</time>
      </trkpt>
      <trkpt lat="42.5558147393" lon="20.0750486087">
        <ele>2223.67</ele>
        <time>2019-07-10T06:25:46Z</time>
      </trkpt>
      <trkpt lat="42.5559017435" lon="20.0750950444">
        <ele>2226.07</ele>
        <time>2019-07-10T06:25:57Z</time>
      </trkpt>
      <trkpt lat="42.5559155736" lon="20.0751349423">
        <ele>2226.07</ele>
        <time>2019-07-10T06:26:00Z</time>
      </trkpt>
      <trkpt lat="42.5560551323" lon="20.0751912687">
        <ele>2228.47</ele>
        <time>2019-07-10T06:26:14Z</time>
      </trkpt>
      <trkpt lat="42.5560893305" lon="20.0752148218">
        <ele>2228.95</ele>
        <time>2019-07-10T06:26:18Z</time>
      </trkpt>
      <trkpt lat="42.5561032444" lon="20.0752292387">
        <ele>2229.43</ele>
        <time>2019-07-10T06:26:20Z</time>
      </trkpt>
      <trkpt lat="42.5562201720" lon="20.0752914324">
        <ele>2232.32</ele>
        <time>2019-07-10T06:26:34Z</time>
      </trkpt>
      <trkpt lat="42.5562377740" lon="20.0753079448">
        <ele>2232.32</ele>
        <time>2019-07-10T06:26:36Z</time>
      </trkpt>
      <trkpt lat="42.5562599860" lon="20.0753123034">
        <ele>2233.28</ele>
        <time>2019-07-10T06:26:38Z</time>
      </trkpt>
      <trkpt lat="42.5563679449" lon="20.0753962900">
        <ele>2236.16</ele>
        <time>2019-07-10T06:26:52Z</time>
      </trkpt>
      <trkpt lat="42.5564313121" lon="20.0754541252">
        <ele>2239.53</ele>
        <time>2019-07-10T06:27:02Z</time>
      </trkpt>
      <trkpt lat="42.5564511772" lon="20.0755198393">
        <ele>2242.89</ele>
        <time>2019-07-10T06:27:14Z</time>
      </trkpt>
      <trkpt lat="42.5564867165" lon="20.0755516905">
        <ele>2245.78</ele>
        <time>2019-07-10T06:27:21Z</time>
      </trkpt>
      <trkpt lat="42.5564944278" lon="20.0755636767">
        <ele>2247.22</ele>
        <time>2019-07-10T06:27:23Z</time>
      </trkpt>
      <trkpt lat="42.5565891434" lon="20.0756184105">
        <ele>2250.58</ele>
        <time>2019-07-10T06:27:35Z</time>
      </trkpt>
      <trkpt lat="42.5565924123" lon="20.0756760780">
        <ele>2252.51</ele>
        <time>2019-07-10T06:27:46Z</time>
      </trkpt>
      <trkpt lat="42.5565427914" lon="20.0758661795">
        <ele>2255.87</ele>
        <time>2019-07-10T06:28:03Z</time>
      </trkpt>
      <trkpt lat="42.5565344933" lon="20.0759529322">
        <ele>2259.72</ele>
        <time>2019-07-10T06:28:14Z</time>
      </trkpt>
      <trkpt lat="42.5565330684" lon="20.0759525131">
        <ele>2259.72</ele>
        <time>2019-07-10T06:28:15Z</time>
      </trkpt>
      <trkpt lat="42.5565124489" lon="20.0759266969">
        <ele>2260.20</ele>
        <time>2019-07-10T06:28:19Z</time>
      </trkpt>
      <trkpt lat="42.5564893987" lon="20.0759008806">
        <ele>2262.12</ele>
        <time>2019-07-10T06:28:24Z</time>
      </trkpt>
      <trkpt lat="42.5564537756" lon="20.0758538581">
        <ele>2264.04</ele>
        <time>2019-07-10T06:28:32Z</time>
      </trkpt>
      <trkpt lat="42.5563526060" lon="20.0758538581">
        <ele>2266.45</ele>
        <time>2019-07-10T06:28:46Z</time>
      </trkpt>
      <trkpt lat="42.5563069247" lon="20.0758898165">
        <ele>2269.81</ele>
        <time>2019-07-10T06:28:57Z</time>
      </trkpt>
      <trkpt lat="42.5562303141" lon="20.0758891460">
        <ele>2273.17</ele>
        <time>2019-07-10T06:29:10Z</time>
      </trkpt>
      <trkpt lat="42.5561650191" lon="20.0758949295">
        <ele>2276.54</ele>
        <time>2019-07-10T06:29:20Z</time>
      </trkpt>
      <trkpt lat="42.5561044179" lon="20.0759721268">
        <ele>2278.94</ele>
        <time>2019-07-10T06:29:35Z</time>
      </trkpt>
      <trkpt lat="42.5560650229" lon="20.0760453846">
        <ele>2281.83</ele>
        <time>2019-07-10T06:29:50Z</time>
      </trkpt>
      <trkpt lat="42.5560272206" lon="20.0761067402">
        <ele>2285.19</ele>
        <time>2019-07-10T06:30:04Z</time>
      </trkpt>
      <trkpt lat="42.5559432339" lon="20.0761152059">
        <ele>2287.59</ele>
        <time>2019-07-10T06:30:15Z</time>
      </trkpt>
      <trkpt lat="42.5558663718" lon="20.0761725381">
        <ele>2289.04</ele>
        <time>2019-07-10T06:30:27Z</time>
      </trkpt>
      <trkpt lat="42.5558327604" lon="20.0762437005">
        <ele>2291.44</ele>
        <time>2019-07-10T06:30:40Z</time>
      </trkpt>
      <trkpt lat="42.5558262225" lon="20.0763058104">
        <ele>2294.32</ele>
        <time>2019-07-10T06:30:53Z</time>
      </trkpt>
      <trkpt lat="42.5558332633" lon="20.0763548445">
        <ele>2297.69</ele>
        <time>2019-07-10T06:31:06Z</time>
      </trkpt>
      <trkpt lat="42.5558111351" lon="20.0764138531">
        <ele>2300.57</ele>
        <time>2019-07-10T06:31:19Z</time>
      </trkpt>
      <trkpt lat="42.5558057707" lon="20.0764691737">
        <ele>2303.46</ele>
        <time>2019-07-10T06:31:29Z</time>
      </trkpt>
      <trkpt lat="42.5558079500" lon="20.0764747895">
        <ele>2303.94</ele>
        <time>2019-07-10T06:31:30Z</time>
      </trkpt>
      <trkpt lat="42.5558369514" lon="20.0765099935">
        <ele>2306.82</ele>
        <time>2019-07-10T06:31:41Z</time>
      </trkpt>
      <trkpt lat="42.5558643602" lon="20.0765479635">
        <ele>2308.26</ele>
        <time>2019-07-10T06:31:53Z</time>
      </trkpt>
      <trkpt lat="42.5558779389" lon="20.0765826646">
        <ele>2311.15</ele>
        <time>2019-07-10T06:31:59Z</time>
      </trkpt>
      <trkpt lat="42.5558874942" lon="20.0766276754">
        <ele>2314.51</ele>
        <time>2019-07-10T06:32:08Z</time>
      </trkpt>
      <trkpt lat="42.5558988936" lon="20.0766798947">
        <ele>2317.88</ele>
        <time>2019-07-10T06:32:17Z</time>
      </trkpt>
      <trkpt lat="42.5559295714" lon="20.0767321140">
        <ele>2321.24</ele>
        <time>2019-07-10T06:32:28Z</time>
      </trkpt>
      <trkpt lat="42.5559387915" lon="20.0767856743">
        <ele>2324.61</ele>
        <time>2019-07-10T06:32:40Z</time>
      </trkpt>
      <trkpt lat="42.5559423957" lon="20.0767921284">
        <ele>2324.61</ele>
        <time>2019-07-10T06:32:41Z</time>
      </trkpt>
      <trkpt lat="42.5559327565" lon="20.0768365525">
        <ele>2326.53</ele>
        <time>2019-07-10T06:32:51Z</time>
      </trkpt>
      <trkpt lat="42.5559300743" lon="20.0768859219">
        <ele>2327.49</ele>
        <time>2019-07-10T06:32:58Z</time>
      </trkpt>
      <trkpt lat="42.5559238717" lon="20.0769212935">
        <ele>2329.41</ele>
        <time>2019-07-10T06:33:02Z</time>
      </trkpt>
      <trkpt lat="42.5559227820" lon="20.0769472774">
        <ele>2331.33</ele>
        <time>2019-07-10T06:33:06Z</time>
      </trkpt>
      <trkpt lat="42.5559206028" lon="20.0769873429">
        <ele>2332.78</ele>
        <time>2019-07-10T06:33:11Z</time>
      </trkpt>
      <trkpt lat="42.5559140649" lon="20.0770088006">
        <ele>2331.33</ele>
        <time>2019-07-10T06:33:14Z</time>
      </trkpt>
      <trkpt lat="42.5559111312" lon="20.0770327728">
        <ele>2334.70</ele>
        <time>2019-07-10T06:33:17Z</time>
      </trkpt>
      <trkpt lat="42.5559161603" lon="20.0770391431">
        <ele>2335.18</ele>
        <time>2019-07-10T06:33:19Z</time>
      </trkpt>
      <trkpt lat="42.5559021626" lon="20.0770819746">
        <ele>2337.10</ele>
        <time>2019-07-10T06:33:26Z</time>
      </trkpt>
      <trkpt lat="42.5558996480" lon="20.0771263987">
        <ele>2338.06</ele>
        <time>2019-07-10T06:33:32Z</time>
      </trkpt>
      <trkpt lat="42.5559040904" lon="20.0771362055">
        <ele>2339.51</ele>
        <time>2019-07-10T06:33:34Z</time>
      </trkpt>
      <trkpt lat="42.5559074432" lon="20.0771933701">
        <ele>2341.91</ele>
        <time>2019-07-10T06:33:42Z</time>
      </trkpt>
      <trkpt lat="42.5559006538" lon="20.0772217009">
        <ele>2341.91</ele>
        <time>2019-07-10T06:33:45Z</time>
      </trkpt>
      <trkpt lat="42.5559040904" lon="20.0772724953">
        <ele>2343.35</ele>
        <time>2019-07-10T06:33:50Z</time>
      </trkpt>
      <trkpt lat="42.5559144001" lon="20.0773291569">
        <ele>2342.39</ele>
        <time>2019-07-10T06:34:00Z</time>
      </trkpt>
      <trkpt lat="42.5559117179" lon="20.0773316715">
        <ele>2344.79</ele>
        <time>2019-07-10T06:34:02Z</time>
      </trkpt>
      <trkpt lat="42.5559067726" lon="20.0773393828">
        <ele>2346.23</ele>
        <time>2019-07-10T06:34:16Z</time>
      </trkpt>
      <trkpt lat="42.5559177529" lon="20.0773450825">
        <ele>2344.31</ele>
        <time>2019-07-10T06:34:23Z</time>
      </trkpt>
      <trkpt lat="42.5559112150" lon="20.0773793645">
        <ele>2346.23</ele>
        <time>2019-07-10T06:34:50Z</time>
      </trkpt>
      <trkpt lat="42.5559044257" lon="20.0774208549">
        <ele>2344.79</ele>
        <time>2019-07-10T06:34:53Z</time>
      </trkpt>
      <trkpt lat="42.5558984745" lon="20.0774614234">
        <ele>2347.20</ele>
        <time>2019-07-10T06:34:56Z</time>
      </trkpt>
      <trkpt lat="42.5558905955" lon="20.0775235333">
        <ele>2347.20</ele>
        <time>2019-07-10T06:35:02Z</time>
      </trkpt>
      <trkpt lat="42.5558878295" lon="20.0775508583">
        <ele>2344.31</ele>
        <time>2019-07-10T06:35:04Z</time>
      </trkpt>
      <trkpt lat="42.5559114665" lon="20.0776288938">
        <ele>2342.87</ele>
        <time>2019-07-10T06:35:10Z</time>
      </trkpt>
      <trkpt lat="42.5559192616" lon="20.0776850525">
        <ele>2339.99</ele>
        <time>2019-07-10T06:35:18Z</time>
      </trkpt>
      <trkpt lat="42.5559570640" lon="20.0777284708">
        <ele>2339.02</ele>
        <time>2019-07-10T06:35:22Z</time>
      </trkpt>
      <trkpt lat="42.5559765100" lon="20.0777747389">
        <ele>2338.06</ele>
        <time>2019-07-10T06:35:28Z</time>
      </trkpt>
      <trkpt lat="42.5559990574" lon="20.0778633356">
        <ele>2335.66</ele>
        <time>2019-07-10T06:35:34Z</time>
      </trkpt>
      <trkpt lat="42.5559659488" lon="20.0779515132">
        <ele>2334.70</ele>
        <time>2019-07-10T06:35:38Z</time>
      </trkpt>
      <trkpt lat="42.5559186749" lon="20.0780928321">
        <ele>2335.18</ele>
        <time>2019-07-10T06:35:42Z</time>
      </trkpt>
      <trkpt lat="42.5558635220" lon="20.0782554410">
        <ele>2336.62</ele>
        <time>2019-07-10T06:35:47Z</time>
      </trkpt>
      <trkpt lat="42.5558068603" lon="20.0785094127">
        <ele>2337.58</ele>
        <time>2019-07-10T06:35:58Z</time>
      </trkpt>
      <trkpt lat="42.5558113027" lon="20.0785560999">
        <ele>2339.02</ele>
        <time>2019-07-10T06:36:01Z</time>
      </trkpt>
      <trkpt lat="42.5558154099" lon="20.0786011107">
        <ele>2339.02</ele>
        <time>2019-07-10T06:36:05Z</time>
      </trkpt>
      <trkpt lat="42.5557908509" lon="20.0787217263">
        <ele>2339.51</ele>
        <time>2019-07-10T06:36:15Z</time>
      </trkpt>
      <trkpt lat="42.5557724945" lon="20.0787554216">
        <ele>2341.91</ele>
        <time>2019-07-10T06:36:18Z</time>
      </trkpt>
      <trkpt lat="42.5557424035" lon="20.0788381509">
        <ele>2344.79</ele>
        <time>2019-07-10T06:36:24Z</time>
      </trkpt>
      <trkpt lat="42.5556849875" lon="20.0789495464">
        <ele>2346.23</ele>
        <time>2019-07-10T06:36:35Z</time>
      </trkpt>
      <trkpt lat="42.5556714088" lon="20.0789627898">
        <ele>2350.56</ele>
        <time>2019-07-10T06:36:37Z</time>
      </trkpt>
      <trkpt lat="42.5556576625" lon="20.0789513905">
        <ele>2352.00</ele>
        <time>2019-07-10T06:36:39Z</time>
      </trkpt>
      <trkpt lat="42.5556030963" lon="20.0789555814">
        <ele>2346.72</ele>
        <time>2019-07-10T06:36:47Z</time>
      </trkpt>
      <trkpt lat="42.5555957202" lon="20.0789652206">
        <ele>2346.72</ele>
        <time>2019-07-10T06:36:48Z</time>
      </trkpt>
      <trkpt lat="42.5555920321" lon="20.0789777096">
        <ele>2350.56</ele>
        <time>2019-07-10T06:36:49Z</time>
      </trkpt>
      <trkpt lat="42.5555925351" lon="20.0789996702">
        <ele>2352.48</ele>
        <time>2019-07-10T06:36:51Z</time>
      </trkpt>
      <trkpt lat="42.5555630308" lon="20.0791134965">
        <ele>2355.37</ele>
        <time>2019-07-10T06:37:03Z</time>
      </trkpt>
      <trkpt lat="42.5555471890" lon="20.0790991634">
        <ele>2357.77</ele>
        <time>2019-07-10T06:37:06Z</time>
      </trkpt>
      <trkpt lat="42.5555121526" lon="20.0791071262">
        <ele>2355.37</ele>
        <time>2019-07-10T06:37:11Z</time>
      </trkpt>
      <trkpt lat="42.5555026811" lon="20.0791290030">
        <ele>2356.81</ele>
        <time>2019-07-10T06:37:14Z</time>
      </trkpt>
      <trkpt lat="42.5554757752" lon="20.0791637879">
        <ele>2358.25</ele>
        <time>2019-07-10T06:37:19Z</time>
      </trkpt>
      <trkpt lat="42.5554574188" lon="20.0791602675">
        <ele>2359.21</ele>
        <time>2019-07-10T06:37:21Z</time>
      </trkpt>
      <trkpt lat="42.5554665551" lon="20.0791269913">
        <ele>2359.69</ele>
        <time>2019-07-10T06:37:27Z</time>
      </trkpt>
      <trkpt lat="42.5554639567" lon="20.0791461859">
        <ele>2358.25</ele>
        <time>2019-07-10T06:37:33Z</time>
      </trkpt>
      <trkpt lat="42.5554752722" lon="20.0791433360">
        <ele>2359.69</ele>
        <time>2019-07-10T06:37:36Z</time>
      </trkpt>
      <trkpt lat="42.5554812234" lon="20.0791569985">
        <ele>2361.14</ele>
        <time>2019-07-10T06:37:39Z</time>
      </trkpt>
      <trkpt lat="42.5554753561" lon="20.0791712478">
        <ele>2359.69</ele>
        <time>2019-07-10T06:37:45Z</time>
      </trkpt>
      <trkpt lat="42.5554639567" lon="20.0791595131">
        <ele>2359.69</ele>
        <time>2019-07-10T06:37:57Z</time>
      </trkpt>
      <trkpt lat="42.5554626156" lon="20.0791784562">
        <ele>2358.25</ele>
        <time>2019-07-10T06:38:17Z</time>
      </trkpt>
      <trkpt lat="42.5554548204" lon="20.0791533105">
        <ele>2358.73</ele>
        <time>2019-07-10T06:38:32Z</time>
      </trkpt>
      <trkpt lat="42.5554535631" lon="20.0791383907">
        <ele>2359.21</ele>
        <time>2019-07-10T06:38:52Z</time>
      </trkpt>
      <trkpt lat="42.5554581732" lon="20.0791244768">
        <ele>2359.21</ele>
        <time>2019-07-10T06:39:00Z</time>
      </trkpt>
      <trkpt lat="42.5554558262" lon="20.0791279133">
        <ele>2359.69</ele>
        <time>2019-07-10T06:39:15Z</time>
      </trkpt>
      <trkpt lat="42.5554498751" lon="20.0791703258">
        <ele>2359.69</ele>
        <time>2019-07-10T06:39:28Z</time>
      </trkpt>
      <trkpt lat="42.5554471090" lon="20.0791721698">
        <ele>2359.21</ele>
        <time>2019-07-10T06:39:33Z</time>
      </trkpt>
      <trkpt lat="42.5554528926" lon="20.0791725051">
        <ele>2357.29</ele>
        <time>2019-07-10T06:39:39Z</time>
      </trkpt>
      <trkpt lat="42.5554590952" lon="20.0791632012">
        <ele>2356.81</ele>
        <time>2019-07-10T06:39:54Z</time>
      </trkpt>
      <trkpt lat="42.5554469414" lon="20.0791575015">
        <ele>2360.17</ele>
        <time>2019-07-10T06:40:03Z</time>
      </trkpt>
      <trkpt lat="42.5554502103" lon="20.0791502092">
        <ele>2361.62</ele>
        <time>2019-07-10T06:40:08Z</time>
      </trkpt>
      <trkpt lat="42.5554530602" lon="20.0791500416">
        <ele>2357.77</ele>
        <time>2019-07-10T06:40:09Z</time>
      </trkpt>
      <trkpt lat="42.5554464385" lon="20.0791487843">
        <ele>2361.62</ele>
        <time>2019-07-10T06:40:12Z</time>
      </trkpt>
      <trkpt lat="42.5554553233" lon="20.0791642908">
        <ele>2360.65</ele>
        <time>2019-07-10T06:40:26Z</time>
      </trkpt>
      <trkpt lat="42.5554724224" lon="20.0791626982">
        <ele>2357.29</ele>
        <time>2019-07-10T06:40:40Z</time>
      </trkpt>
      <trkpt lat="42.5554603525" lon="20.0791866705">
        <ele>2360.65</ele>
        <time>2019-07-10T06:40:49Z</time>
      </trkpt>
      <trkpt lat="42.5554585923" lon="20.0791884307">
        <ele>2360.65</ele>
        <time>2019-07-10T06:40:50Z</time>
      </trkpt>
      <trkpt lat="42.5554630347" lon="20.0791580882">
        <ele>2361.62</ele>
        <time>2019-07-10T06:41:08Z</time>
      </trkpt>
      <trkpt lat="42.5554786250" lon="20.0791500416">
        <ele>2362.58</ele>
        <time>2019-07-10T06:41:10Z</time>
      </trkpt>
      <trkpt lat="42.5554859173" lon="20.0791416597">
        <ele>2362.58</ele>
        <time>2019-07-10T06:41:11Z</time>
      </trkpt>
      <trkpt lat="42.5555165112" lon="20.0790207926">
        <ele>2359.69</ele>
        <time>2019-07-10T06:41:20Z</time>
      </trkpt>
      <trkpt lat="42.5555103086" lon="20.0789743569">
        <ele>2357.77</ele>
        <time>2019-07-10T06:41:23Z</time>
      </trkpt>
      <trkpt lat="42.5555117335" lon="20.0789513066">
        <ele>2354.41</ele>
        <time>2019-07-10T06:41:25Z</time>
      </trkpt>
      <trkpt lat="42.5555175170" lon="20.0789522287">
        <ele>2354.41</ele>
        <time>2019-07-10T06:41:26Z</time>
      </trkpt>
      <trkpt lat="42.5555512123" lon="20.0789507199">
        <ele>2352.48</ele>
        <time>2019-07-10T06:41:29Z</time>
      </trkpt>
      <trkpt lat="42.5556338578" lon="20.0789546594">
        <ele>2351.04</ele>
        <time>2019-07-10T06:41:35Z</time>
      </trkpt>
      <trkpt lat="42.5556691457" lon="20.0789503008">
        <ele>2350.08</ele>
        <time>2019-07-10T06:41:37Z</time>
      </trkpt>
      <trkpt lat="42.5557012483" lon="20.0789375603">
        <ele>2350.08</ele>
        <time>2019-07-10T06:41:39Z</time>
      </trkpt>
      <trkpt lat="42.5557974726" lon="20.0787166134">
        <ele>2345.75</ele>
        <time>2019-07-10T06:41:47Z</time>
      </trkpt>
      <trkpt lat="42.5558096264" lon="20.0785715226">
        <ele>2343.35</ele>
        <time>2019-07-10T06:41:51Z</time>
      </trkpt>
      <trkpt lat="42.5558135659" lon="20.0784302037">
        <ele>2339.99</ele>
        <time>2019-07-10T06:41:55Z</time>
      </trkpt>
      <trkpt lat="42.5559328403" lon="20.0781831890">
        <ele>2338.54</ele>
        <time>2019-07-10T06:42:08Z</time>
      </trkpt>
      <trkpt lat="42.5559411384" lon="20.0781674311">
        <ele>2338.54</ele>
        <time>2019-07-10T06:42:09Z</time>
      </trkpt>
      <trkpt lat="42.5560123846" lon="20.0778615754">
        <ele>2337.10</ele>
        <time>2019-07-10T06:42:24Z</time>
      </trkpt>
      <trkpt lat="42.5560164079" lon="20.0778150558">
        <ele>2338.54</ele>
        <time>2019-07-10T06:42:27Z</time>
      </trkpt>
      <trkpt lat="42.5560083613" lon="20.0777948555">
        <ele>2339.02</ele>
        <time>2019-07-10T06:42:29Z</time>
      </trkpt>
      <trkpt lat="42.5559900887" lon="20.0777412951">
        <ele>2340.95</ele>
        <time>2019-07-10T06:42:35Z</time>
      </trkpt>
      <trkpt lat="42.5559376180" lon="20.0776428916">
        <ele>2343.83</ele>
        <time>2019-07-10T06:42:48Z</time>
      </trkpt>
      <trkpt lat="42.5559203513" lon="20.0775972102">
        <ele>2344.79</ele>
        <time>2019-07-10T06:42:53Z</time>
      </trkpt>
      <trkpt lat="42.5559229497" lon="20.0775273889">
        <ele>2347.68</ele>
        <time>2019-07-10T06:43:01Z</time>
      </trkpt>
      <trkpt lat="42.5559293199" lon="20.0774711464">
        <ele>2349.12</ele>
        <time>2019-07-10T06:43:05Z</time>
      </trkpt>
      <trkpt lat="42.5559378695" lon="20.0774221122">
        <ele>2349.60</ele>
        <time>2019-07-10T06:43:08Z</time>
      </trkpt>
      <trkpt lat="42.5559349358" lon="20.0773774367">
        <ele>2347.68</ele>
        <time>2019-07-10T06:43:11Z</time>
      </trkpt>
      <trkpt lat="42.5559256319" lon="20.0772677176">
        <ele>2346.72</ele>
        <time>2019-07-10T06:43:25Z</time>
      </trkpt>
      <trkpt lat="42.5559275597" lon="20.0771822222">
        <ele>2348.64</ele>
        <time>2019-07-10T06:43:32Z</time>
      </trkpt>
      <trkpt lat="42.5559361093" lon="20.0771600101">
        <ele>2345.27</ele>
        <time>2019-07-10T06:43:35Z</time>
      </trkpt>
      <trkpt lat="42.5559174176" lon="20.0771113113">
        <ele>2342.39</ele>
        <time>2019-07-10T06:43:41Z</time>
      </trkpt>
      <trkpt lat="42.5559473410" lon="20.0770728383">
        <ele>2338.54</ele>
        <time>2019-07-10T06:43:47Z</time>
      </trkpt>
      <trkpt lat="42.5559566449" lon="20.0770677254">
        <ele>2338.54</ele>
        <time>2019-07-10T06:43:49Z</time>
      </trkpt>
      <trkpt lat="42.5559556391" lon="20.0769476127">
        <ele>2334.22</ele>
        <time>2019-07-10T06:43:59Z</time>
      </trkpt>
      <trkpt lat="42.5559636857" lon="20.0768926274">
        <ele>2330.37</ele>
        <time>2019-07-10T06:44:07Z</time>
      </trkpt>
      <trkpt lat="42.5559522025" lon="20.0768690743">
        <ele>2329.41</ele>
        <time>2019-07-10T06:44:09Z</time>
      </trkpt>
      <trkpt lat="42.5559575669" lon="20.0768348761">
        <ele>2327.01</ele>
        <time>2019-07-10T06:44:13Z</time>
      </trkpt>
      <trkpt lat="42.5559663679" lon="20.0767649710">
        <ele>2323.64</ele>
        <time>2019-07-10T06:44:23Z</time>
      </trkpt>
      <trkpt lat="42.5559667032" lon="20.0767547451">
        <ele>2323.64</ele>
        <time>2019-07-10T06:44:24Z</time>
      </trkpt>
      <trkpt lat="42.5559371151" lon="20.0767090637">
        <ele>2320.76</ele>
        <time>2019-07-10T06:44:30Z</time>
      </trkpt>
      <trkpt lat="42.5559276436" lon="20.0767082255">
        <ele>2320.76</ele>
        <time>2019-07-10T06:44:31Z</time>
      </trkpt>
      <trkpt lat="42.5559056830" lon="20.0766565092">
        <ele>2317.40</ele>
        <time>2019-07-10T06:44:39Z</time>
      </trkpt>
      <trkpt lat="42.5558996480" lon="20.0766301062">
        <ele>2315.95</ele>
        <time>2019-07-10T06:44:43Z</time>
      </trkpt>
      <trkpt lat="42.5558682159" lon="20.0765723549">
        <ele>2311.63</ele>
        <time>2019-07-10T06:44:51Z</time>
      </trkpt>
      <trkpt lat="42.5558198523" lon="20.0765207224">
        <ele>2308.74</ele>
        <time>2019-07-10T06:45:00Z</time>
      </trkpt>
      <trkpt lat="42.5558699761" lon="20.0764419325">
        <ele>2305.38</ele>
        <time>2019-07-10T06:45:12Z</time>
      </trkpt>
      <trkpt lat="42.5558743346" lon="20.0763954129">
        <ele>2303.46</ele>
        <time>2019-07-10T06:45:20Z</time>
      </trkpt>
      <trkpt lat="42.5559154898" lon="20.0763478875">
        <ele>2301.05</ele>
        <time>2019-07-10T06:45:27Z</time>
      </trkpt>
      <trkpt lat="42.5559568126" lon="20.0763120968">
        <ele>2297.69</ele>
        <time>2019-07-10T06:45:32Z</time>
      </trkpt>
      <trkpt lat="42.5559695531" lon="20.0762785692">
        <ele>2297.21</ele>
        <time>2019-07-10T06:45:35Z</time>
      </trkpt>
      <trkpt lat="42.5559547171" lon="20.0762233324">
        <ele>2294.80</ele>
        <time>2019-07-10T06:45:39Z</time>
      </trkpt>
      <trkpt lat="42.5559496880" lon="20.0761830155">
        <ele>2293.36</ele>
        <time>2019-07-10T06:45:42Z</time>
      </trkpt>
      <trkpt lat="42.5559909269" lon="20.0761410221">
        <ele>2290.48</ele>
        <time>2019-07-10T06:45:49Z</time>
      </trkpt>
      <trkpt lat="42.5560101215" lon="20.0761302933">
        <ele>2289.52</ele>
        <time>2019-07-10T06:45:51Z</time>
      </trkpt>
      <trkpt lat="42.5560537912" lon="20.0761147030">
        <ele>2288.08</ele>
        <time>2019-07-10T06:45:55Z</time>
      </trkpt>
      <trkpt lat="42.5560785178" lon="20.0761123560">
        <ele>2287.59</ele>
        <time>2019-07-10T06:45:57Z</time>
      </trkpt>
      <trkpt lat="42.5560993887" lon="20.0760027207">
        <ele>2285.67</ele>
        <time>2019-07-10T06:46:03Z</time>
      </trkpt>
      <trkpt lat="42.5561352633" lon="20.0759548601">
        <ele>2284.23</ele>
        <time>2019-07-10T06:46:07Z</time>
      </trkpt>
      <trkpt lat="42.5561821181" lon="20.0759022217">
        <ele>2281.35</ele>
        <time>2019-07-10T06:46:11Z</time>
      </trkpt>
      <trkpt lat="42.5562642608" lon="20.0758809317">
        <ele>2278.46</ele>
        <time>2019-07-10T06:46:17Z</time>
      </trkpt>
      <trkpt lat="42.5563138817" lon="20.0758883916">
        <ele>2277.02</ele>
        <time>2019-07-10T06:46:20Z</time>
      </trkpt>
      <trkpt lat="42.5563500077" lon="20.0758760702">
        <ele>2274.14</ele>
        <time>2019-07-10T06:46:23Z</time>
      </trkpt>
      <trkpt lat="42.5564318150" lon="20.0759256911">
        <ele>2270.77</ele>
        <time>2019-07-10T06:46:29Z</time>
      </trkpt>
      <trkpt lat="42.5564635824" lon="20.0759341568">
        <ele>2268.85</ele>
        <time>2019-07-10T06:46:31Z</time>
      </trkpt>
      <trkpt lat="42.5564867165" lon="20.0759441312">
        <ele>2267.89</ele>
        <time>2019-07-10T06:46:33Z</time>
      </trkpt>
      <trkpt lat="42.5565413665" lon="20.0759619009">
        <ele>2265.48</ele>
        <time>2019-07-10T06:46:37Z</time>
      </trkpt>
      <trkpt lat="42.5565665122" lon="20.0759116933">
        <ele>2263.56</ele>
        <time>2019-07-10T06:46:40Z</time>
      </trkpt>
      <trkpt lat="42.5565654226" lon="20.0758845359">
        <ele>2263.56</ele>
        <time>2019-07-10T06:46:41Z</time>
      </trkpt>
      <trkpt lat="42.5566309690" lon="20.0756617449">
        <ele>2258.75</ele>
        <time>2019-07-10T06:46:50Z</time>
      </trkpt>
      <trkpt lat="42.5566425361" lon="20.0756424665">
        <ele>2258.27</ele>
        <time>2019-07-10T06:46:51Z</time>
      </trkpt>
      <trkpt lat="42.5566558633" lon="20.0755982101">
        <ele>2257.31</ele>
        <time>2019-07-10T06:46:53Z</time>
      </trkpt>
      <trkpt lat="42.5566335674" lon="20.0755702984">
        <ele>2257.31</ele>
        <time>2019-07-10T06:46:55Z</time>
      </trkpt>
      <trkpt lat="42.5565966032" lon="20.0755545404">
        <ele>2255.39</ele>
        <time>2019-07-10T06:46:58Z</time>
      </trkpt>
      <trkpt lat="42.5565453898" lon="20.0755354296">
        <ele>2252.03</ele>
        <time>2019-07-10T06:47:04Z</time>
      </trkpt>
      <trkpt lat="42.5565359183" lon="20.0755307358">
        <ele>2252.03</ele>
        <time>2019-07-10T06:47:05Z</time>
      </trkpt>
      <trkpt lat="42.5565013848" lon="20.0755003933">
        <ele>2249.62</ele>
        <time>2019-07-10T06:47:12Z</time>
      </trkpt>
      <trkpt lat="42.5564733893" lon="20.0754723977">
        <ele>2248.18</ele>
        <time>2019-07-10T06:47:19Z</time>
      </trkpt>
      <trkpt lat="42.5564374309" lon="20.0754484255">
        <ele>2247.70</ele>
        <time>2019-07-10T06:47:23Z</time>
      </trkpt>
      <trkpt lat="42.5564235169" lon="20.0754179154">
        <ele>2247.22</ele>
        <time>2019-07-10T06:47:26Z</time>
      </trkpt>
      <trkpt lat="42.5563959405" lon="20.0754027441">
        <ele>2246.26</ele>
        <time>2019-07-10T06:47:31Z</time>
      </trkpt>
      <trkpt lat="42.5563709624" lon="20.0753419753">
        <ele>2243.85</ele>
        <time>2019-07-10T06:47:37Z</time>
      </trkpt>
      <trkpt lat="42.5563519355" lon="20.0752844755">
        <ele>2242.41</ele>
        <time>2019-07-10T06:47:40Z</time>
      </trkpt>
      <trkpt lat="42.5562469941" lon="20.0751803722">
        <ele>2240.01</ele>
        <time>2019-07-10T06:47:49Z</time>
      </trkpt>
      <trkpt lat="42.5560609996" lon="20.0751259737">
        <ele>2236.64</ele>
        <time>2019-07-10T06:48:01Z</time>
      </trkpt>
      <trkpt lat="42.5559516158" lon="20.0750846509">
        <ele>2234.72</ele>
        <time>2019-07-10T06:48:08Z</time>
      </trkpt>
      <trkpt lat="42.5559211057" lon="20.0750456750">
        <ele>2233.76</ele>
        <time>2019-07-10T06:48:10Z</time>
      </trkpt>
      <trkpt lat="42.5558858179" lon="20.0750288274">
        <ele>2233.76</ele>
        <time>2019-07-10T06:48:13Z</time>
      </trkpt>
      <trkpt lat="42.5558248814" lon="20.0750216190">
        <ele>2232.80</ele>
        <time>2019-07-10T06:48:17Z</time>
      </trkpt>
      <trkpt lat="42.5557924435" lon="20.0749406498">
        <ele>2231.36</ele>
        <time>2019-07-10T06:48:24Z</time>
      </trkpt>
      <trkpt lat="42.5556833111" lon="20.0748435874">
        <ele>2229.92</ele>
        <time>2019-07-10T06:48:35Z</time>
      </trkpt>
      <trkpt lat="42.5556800421" lon="20.0747963134">
        <ele>2228.95</ele>
        <time>2019-07-10T06:48:37Z</time>
      </trkpt>
      <trkpt lat="42.5557180122" lon="20.0746974070">
        <ele>2227.03</ele>
        <time>2019-07-10T06:48:42Z</time>
      </trkpt>
      <trkpt lat="42.5557473488" lon="20.0745995902">
        <ele>2223.67</ele>
        <time>2019-07-10T06:48:46Z</time>
      </trkpt>
      <trkpt lat="42.5557595026" lon="20.0744943973">
        <ele>2220.30</ele>
        <time>2019-07-10T06:48:50Z</time>
      </trkpt>
      <trkpt lat="42.5557403080" lon="20.0743838400">
        <ele>2216.46</ele>
        <time>2019-07-10T06:48:54Z</time>
      </trkpt>
      <trkpt lat="42.5557117257" lon="20.0742659904">
        <ele>2214.05</ele>
        <time>2019-07-10T06:48:58Z</time>
      </trkpt>
      <trkpt lat="42.5557062775" lon="20.0742298644">
        <ele>2212.61</ele>
        <time>2019-07-10T06:48:59Z</time>
      </trkpt>
      <trkpt lat="42.5556731690" lon="20.0741482247">
        <ele>2211.17</ele>
        <time>2019-07-10T06:49:02Z</time>
      </trkpt>
      <trkpt lat="42.5556116458" lon="20.0739786588">
        <ele>2207.32</ele>
        <time>2019-07-10T06:49:09Z</time>
      </trkpt>
      <trkpt lat="42.5555652939" lon="20.0738188997">
        <ele>2203.96</ele>
        <time>2019-07-10T06:49:16Z</time>
      </trkpt>
      <trkpt lat="42.5555617735" lon="20.0737799238">
        <ele>2203.00</ele>
        <time>2019-07-10T06:49:18Z</time>
      </trkpt>
      <trkpt lat="42.5555072073" lon="20.0735429674">
        <ele>2198.67</ele>
        <time>2019-07-10T06:49:27Z</time>
      </trkpt>
      <trkpt lat="42.5554283336" lon="20.0733967870">
        <ele>2195.79</ele>
        <time>2019-07-10T06:49:38Z</time>
      </trkpt>
      <trkpt lat="42.5554165151" lon="20.0733533688">
        <ele>2195.79</ele>
        <time>2019-07-10T06:49:49Z</time>
      </trkpt>
      <trkpt lat="42.5554001704" lon="20.0733542908">
        <ele>2195.31</ele>
        <time>2019-07-10T06:50:07Z</time>
      </trkpt>
      <trkpt lat="42.5553855021" lon="20.0733505189">
        <ele>2195.31</ele>
        <time>2019-07-10T06:50:39Z</time>
      </trkpt>
      <trkpt lat="42.5554075465" lon="20.0733805262">
        <ele>2196.75</ele>
        <time>2019-07-10T06:51:00Z</time>
      </trkpt>
      <trkpt lat="42.5554325245" lon="20.0734327454">
        <ele>2197.71</ele>
        <time>2019-07-10T06:51:14Z</time>
      </trkpt>
      <trkpt lat="42.5554257352" lon="20.0734262913">
        <ele>2197.71</ele>
        <time>2019-07-10T06:51:49Z</time>
      </trkpt>
      <trkpt lat="42.5554374699" lon="20.0734349247">
        <ele>2196.27</ele>
        <time>2019-07-10T06:52:04Z</time>
      </trkpt>
      <trkpt lat="42.5554419123" lon="20.0734117907">
        <ele>2195.79</ele>
        <time>2019-07-10T06:52:32Z</time>
      </trkpt>
      <trkpt lat="42.5554218795" lon="20.0734019838">
        <ele>2195.79</ele>
        <time>2019-07-10T06:53:00Z</time>
      </trkpt>
      <trkpt lat="42.5554118212" lon="20.0734018162">
        <ele>2195.79</ele>
        <time>2019-07-10T06:53:26Z</time>
      </trkpt>
      <trkpt lat="42.5554325245" lon="20.0734102819">
        <ele>2195.79</ele>
        <time>2019-07-10T06:53:46Z</time>
      </trkpt>
      <trkpt lat="42.5554251485" lon="20.0734218489">
        <ele>2197.23</ele>
        <time>2019-07-10T06:53:51Z</time>
      </trkpt>
      <trkpt lat="42.5554269925" lon="20.0734240282">
        <ele>2197.23</ele>
        <time>2019-07-10T06:54:04Z</time>
      </trkpt>
      <trkpt lat="42.5554426666" lon="20.0734331645">
        <ele>2197.23</ele>
        <time>2019-07-10T06:54:17Z</time>
      </trkpt>
      <trkpt lat="42.5554625317" lon="20.0734360144">
        <ele>2197.23</ele>
        <time>2019-07-10T06:54:22Z</time>
      </trkpt>
      <trkpt lat="42.5554760266" lon="20.0734498445">
        <ele>2197.23</ele>
        <time>2019-07-10T06:54:24Z</time>
      </trkpt>
      <trkpt lat="42.5556044374" lon="20.0735619105">
        <ele>2197.23</ele>
        <time>2019-07-10T06:54:40Z</time>
      </trkpt>
      <trkpt lat="42.5557313394" lon="20.0737057440">
        <ele>2198.19</ele>
        <time>2019-07-10T06:54:56Z</time>
      </trkpt>
      <trkpt lat="42.5558254682" lon="20.0738431234">
        <ele>2200.11</ele>
        <time>2019-07-10T06:55:12Z</time>
      </trkpt>
      <trkpt lat="42.5558196008" lon="20.0738766510">
        <ele>2201.08</ele>
        <time>2019-07-10T06:55:27Z</time>
      </trkpt>
      <trkpt lat="42.5557758473" lon="20.0739310496">
        <ele>2203.48</ele>
        <time>2019-07-10T06:55:39Z</time>
      </trkpt>
      <trkpt lat="42.5557507854" lon="20.0740009546">
        <ele>2205.88</ele>
        <time>2019-07-10T06:55:51Z</time>
      </trkpt>
      <trkpt lat="42.5557473488" lon="20.0740823429">
        <ele>2208.29</ele>
        <time>2019-07-10T06:56:02Z</time>
      </trkpt>
      <trkpt lat="42.5557501148" lon="20.0741441175">
        <ele>2210.21</ele>
        <time>2019-07-10T06:56:15Z</time>
      </trkpt>
      <trkpt lat="42.5557268970" lon="20.0742384139">
        <ele>2212.13</ele>
        <time>2019-07-10T06:56:28Z</time>
      </trkpt>
      <trkpt lat="42.5556890946" lon="20.0742933992">
        <ele>2214.05</ele>
        <time>2019-07-10T06:56:41Z</time>
      </trkpt>
      <trkpt lat="42.5557087082" lon="20.0743778888">
        <ele>2215.98</ele>
        <time>2019-07-10T06:56:51Z</time>
      </trkpt>
      <trkpt lat="42.5557322614" lon="20.0744910445">
        <ele>2218.86</ele>
        <time>2019-07-10T06:57:05Z</time>
      </trkpt>
      <trkpt lat="42.5557289086" lon="20.0745917950">
        <ele>2221.26</ele>
        <time>2019-07-10T06:57:19Z</time>
      </trkpt>
      <trkpt lat="42.5557171740" lon="20.0746822357">
        <ele>2224.15</ele>
        <time>2019-07-10T06:57:34Z</time>
      </trkpt>
      <trkpt lat="42.5556805450" lon="20.0747515541">
        <ele>2227.03</ele>
        <time>2019-07-10T06:57:48Z</time>
      </trkpt>
      <trkpt lat="42.5556732528" lon="20.0748649612">
        <ele>2229.43</ele>
        <time>2019-07-10T06:58:03Z</time>
      </trkpt>
      <trkpt lat="42.5557247177" lon="20.0749602634">
        <ele>2231.36</ele>
        <time>2019-07-10T06:58:15Z</time>
      </trkpt>
      <trkpt lat="42.5557933655" lon="20.0749746803">
        <ele>2232.32</ele>
        <time>2019-07-10T06:58:25Z</time>
      </trkpt>
      <trkpt lat="42.5558703952" lon="20.0750537217">
        <ele>2234.24</ele>
        <time>2019-07-10T06:58:37Z</time>
      </trkpt>
      <trkpt lat="42.5559470057" lon="20.0751196034">
        <ele>2235.68</ele>
        <time>2019-07-10T06:58:48Z</time>
      </trkpt>
      <trkpt lat="42.5560511090" lon="20.0751519576">
        <ele>2238.57</ele>
        <time>2019-07-10T06:59:00Z</time>
      </trkpt>
      <trkpt lat="42.5560915936" lon="20.0751616806">
        <ele>2237.13</ele>
        <time>2019-07-10T06:59:04Z</time>
      </trkpt>
      <trkpt lat="42.5561086927" lon="20.0751702301">
        <ele>2239.05</ele>
        <time>2019-07-10T06:59:06Z</time>
      </trkpt>
      <trkpt lat="42.5562532805" lon="20.0752139837">
        <ele>2240.01</ele>
        <time>2019-07-10T06:59:25Z</time>
      </trkpt>
      <trkpt lat="42.5563244428" lon="20.0752821285">
        <ele>2242.89</ele>
        <time>2019-07-10T06:59:36Z</time>
      </trkpt>
      <trkpt lat="42.5564292166" lon="20.0753294863">
        <ele>2243.85</ele>
        <time>2019-07-10T06:59:49Z</time>
      </trkpt>
      <trkpt lat="42.5564622413" lon="20.0753414724">
        <ele>2243.85</ele>
        <time>2019-07-10T06:59:53Z</time>
      </trkpt>
      <trkpt lat="42.5565640815" lon="20.0753604155">
        <ele>2246.26</ele>
        <time>2019-07-10T07:00:05Z</time>
      </trkpt>
      <trkpt lat="42.5566756446" lon="20.0753247924">
        <ele>2248.66</ele>
        <time>2019-07-10T07:00:18Z</time>
      </trkpt>
      <trkpt lat="42.5568000320" lon="20.0753170811">
        <ele>2250.58</ele>
        <time>2019-07-10T07:00:34Z</time>
      </trkpt>
      <trkpt lat="42.5568272732" lon="20.0753114652">
        <ele>2252.03</ele>
        <time>2019-07-10T07:00:42Z</time>
      </trkpt>
      <trkpt lat="42.5568246748" lon="20.0753804483">
        <ele>2252.03</ele>
        <time>2019-07-10T07:00:46Z</time>
      </trkpt>
      <trkpt lat="42.5568387564" lon="20.0755687896">
        <ele>2249.62</ele>
        <time>2019-07-10T07:01:00Z</time>
      </trkpt>
      <trkpt lat="42.5568438694" lon="20.0756600685">
        <ele>2247.22</ele>
        <time>2019-07-10T07:01:12Z</time>
      </trkpt>
      <trkpt lat="42.5568534248" lon="20.0757135451">
        <ele>2246.74</ele>
        <time>2019-07-10T07:01:16Z</time>
      </trkpt>
      <trkpt lat="42.5568613876" lon="20.0757927541">
        <ele>2246.74</ele>
        <time>2019-07-10T07:01:23Z</time>
      </trkpt>
      <trkpt lat="42.5568760559" lon="20.0758518465">
        <ele>2247.70</ele>
        <time>2019-07-10T07:01:29Z</time>
      </trkpt>
      <trkpt lat="42.5568883773" lon="20.0759608950">
        <ele>2248.18</ele>
        <time>2019-07-10T07:01:41Z</time>
      </trkpt>
      <trkpt lat="42.5568880420" lon="20.0760100968">
        <ele>2246.74</ele>
        <time>2019-07-10T07:01:48Z</time>
      </trkpt>
      <trkpt lat="42.5569085777" lon="20.0761287007">
        <ele>2245.78</ele>
        <time>2019-07-10T07:01:59Z</time>
      </trkpt>
      <trkpt lat="42.5569688436" lon="20.0762537587">
        <ele>2244.33</ele>
        <time>2019-07-10T07:02:12Z</time>
      </trkpt>
      <trkpt lat="42.5569703523" lon="20.0762768090">
        <ele>2243.85</ele>
        <time>2019-07-10T07:02:14Z</time>
      </trkpt>
      <trkpt lat="42.5570112560" lon="20.0763916411">
        <ele>2241.93</ele>
        <time>2019-07-10T07:02:26Z</time>
      </trkpt>
      <trkpt lat="42.5570582785" lon="20.0765056349">
        <ele>2240.97</ele>
        <time>2019-07-10T07:02:39Z</time>
      </trkpt>
      <trkpt lat="42.5571214780" lon="20.0766302738">
        <ele>2238.09</ele>
        <time>2019-07-10T07:02:54Z</time>
      </trkpt>
      <trkpt lat="42.5571702607" lon="20.0767351314">
        <ele>2237.13</ele>
        <time>2019-07-10T07:03:05Z</time>
      </trkpt>
      <trkpt lat="42.5572202168" lon="20.0768145081">
        <ele>2235.68</ele>
        <time>2019-07-10T07:03:13Z</time>
      </trkpt>
      <trkpt lat="42.5572876073" lon="20.0769804697">
        <ele>2235.68</ele>
        <time>2019-07-10T07:03:27Z</time>
      </trkpt>
      <trkpt lat="42.5573424250" lon="20.0770700723">
        <ele>2235.68</ele>
        <time>2019-07-10T07:03:36Z</time>
      </trkpt>
      <trkpt lat="42.5574473664" lon="20.0771869998">
        <ele>2234.24</ele>
        <time>2019-07-10T07:03:50Z</time>
      </trkpt>
      <trkpt lat="42.5575336162" lon="20.0772782788">
        <ele>2232.32</ele>
        <time>2019-07-10T07:04:02Z</time>
      </trkpt>
      <trkpt lat="42.5575605221" lon="20.0773253851">
        <ele>2231.84</ele>
        <time>2019-07-10T07:04:07Z</time>
      </trkpt>
      <trkpt lat="42.5576500408" lon="20.0774588250">
        <ele>2229.92</ele>
        <time>2019-07-10T07:04:19Z</time>
      </trkpt>
      <trkpt lat="42.5577833969" lon="20.0775787700">
        <ele>2227.03</ele>
        <time>2019-07-10T07:04:33Z</time>
      </trkpt>
      <trkpt lat="42.5577901024" lon="20.0775867328">
        <ele>2227.03</ele>
        <time>2019-07-10T07:04:34Z</time>
      </trkpt>
      <trkpt lat="42.5578431599" lon="20.0776637625">
        <ele>2225.59</ele>
        <time>2019-07-10T07:04:42Z</time>
      </trkpt>
      <trkpt lat="42.5579626020" lon="20.0777941849">
        <ele>2224.15</ele>
        <time>2019-07-10T07:04:55Z</time>
      </trkpt>
      <trkpt lat="42.5580705609" lon="20.0779161416">
        <ele>2224.15</ele>
        <time>2019-07-10T07:05:09Z</time>
      </trkpt>
      <trkpt lat="42.5581959542" lon="20.0780055765">
        <ele>2224.15</ele>
        <time>2019-07-10T07:05:22Z</time>
      </trkpt>
      <trkpt lat="42.5582633447" lon="20.0780536886">
        <ele>2225.59</ele>
        <time>2019-07-10T07:05:29Z</time>
      </trkpt>
      <trkpt lat="42.5583345070" lon="20.0781138707">
        <ele>2226.07</ele>
        <time>2019-07-10T07:05:37Z</time>
      </trkpt>
      <trkpt lat="42.5584518537" lon="20.0781665090">
        <ele>2226.55</ele>
        <time>2019-07-10T07:05:49Z</time>
      </trkpt>
      <trkpt lat="42.5585597288" lon="20.0781830214">
        <ele>2227.03</ele>
        <time>2019-07-10T07:06:01Z</time>
      </trkpt>
      <trkpt lat="42.5586694479" lon="20.0782759767">
        <ele>2227.99</ele>
        <time>2019-07-10T07:06:12Z</time>
      </trkpt>
      <trkpt lat="42.5586969405" lon="20.0783322193">
        <ele>2227.99</ele>
        <time>2019-07-10T07:06:16Z</time>
      </trkpt>
      <trkpt lat="42.5588237587" lon="20.0784764718">
        <ele>2227.99</ele>
        <time>2019-07-10T07:06:30Z</time>
      </trkpt>
      <trkpt lat="42.5589545164" lon="20.0785462093">
        <ele>2230.40</ele>
        <time>2019-07-10T07:06:44Z</time>
      </trkpt>
      <trkpt lat="42.5590602122" lon="20.0786235742">
        <ele>2233.28</ele>
        <time>2019-07-10T07:06:56Z</time>
      </trkpt>
      <trkpt lat="42.5592019502" lon="20.0787383225">
        <ele>2235.20</ele>
        <time>2019-07-10T07:07:11Z</time>
      </trkpt>
      <trkpt lat="42.5592895411" lon="20.0788778812">
        <ele>2238.57</ele>
        <time>2019-07-10T07:07:24Z</time>
      </trkpt>
      <trkpt lat="42.5593274273" lon="20.0789337046">
        <ele>2239.53</ele>
        <time>2019-07-10T07:07:40Z</time>
      </trkpt>
      <trkpt lat="42.5593359768" lon="20.0789469481">
        <ele>2240.01</ele>
        <time>2019-07-10T07:07:53Z</time>
      </trkpt>
      <trkpt lat="42.5593376532" lon="20.0789496303">
        <ele>2240.97</ele>
        <time>2019-07-10T07:08:18Z</time>
      </trkpt>
      <trkpt lat="42.5593408383" lon="20.0789545756">
        <ele>2240.97</ele>
        <time>2019-07-10T07:08:34Z</time>
      </trkpt>
      <trkpt lat="42.5593431853" lon="20.0789674837">
        <ele>2241.45</ele>
        <time>2019-07-10T07:08:38Z</time>
      </trkpt>
      <trkpt lat="42.5593392458" lon="20.0790092256">
        <ele>2239.05</ele>
        <time>2019-07-10T07:08:42Z</time>
      </trkpt>
      <trkpt lat="42.5593401678" lon="20.0790377241">
        <ele>2238.09</ele>
        <time>2019-07-10T07:08:47Z</time>
      </trkpt>
      <trkpt lat="42.5593679957" lon="20.0790955592">
        <ele>2235.20</ele>
        <time>2019-07-10T07:08:51Z</time>
      </trkpt>
      <trkpt lat="42.5595128350" lon="20.0792450085">
        <ele>2232.32</ele>
        <time>2019-07-10T07:09:04Z</time>
      </trkpt>
      <trkpt lat="42.5595342088" lon="20.0792546477">
        <ele>2232.32</ele>
        <time>2019-07-10T07:09:06Z</time>
      </trkpt>
      <trkpt lat="42.5596720912" lon="20.0792970601">
        <ele>2232.32</ele>
        <time>2019-07-10T07:09:18Z</time>
      </trkpt>
      <trkpt lat="42.5596929621" lon="20.0793015864">
        <ele>2232.32</ele>
        <time>2019-07-10T07:09:20Z</time>
      </trkpt>
      <trkpt lat="42.5598410703" lon="20.0793394726">
        <ele>2233.28</ele>
        <time>2019-07-10T07:09:34Z</time>
      </trkpt>
      <trkpt lat="42.5599300861" lon="20.0793732516">
        <ele>2234.72</ele>
        <time>2019-07-10T07:09:46Z</time>
      </trkpt>
      <trkpt lat="42.5599656254" lon="20.0793843158">
        <ele>2235.20</ele>
        <time>2019-07-10T07:09:50Z</time>
      </trkpt>
      <trkpt lat="42.5600535516" lon="20.0793931168">
        <ele>2236.64</ele>
        <time>2019-07-10T07:10:01Z</time>
      </trkpt>
      <trkpt lat="42.5602024142" lon="20.0795280654">
        <ele>2236.64</ele>
        <time>2019-07-10T07:10:16Z</time>
      </trkpt>
      <trkpt lat="42.5602141488" lon="20.0795386266">
        <ele>2237.13</ele>
        <time>2019-07-10T07:10:17Z</time>
      </trkpt>
      <trkpt lat="42.5602343492" lon="20.0795496907">
        <ele>2237.13</ele>
        <time>2019-07-10T07:10:19Z</time>
      </trkpt>
      <trkpt lat="42.5603828765" lon="20.0796761736">
        <ele>2237.61</ele>
        <time>2019-07-10T07:10:34Z</time>
      </trkpt>
      <trkpt lat="42.5603921805" lon="20.0796757545">
        <ele>2237.61</ele>
        <time>2019-07-10T07:10:35Z</time>
      </trkpt>
      <trkpt lat="42.5604770053" lon="20.0797589868">
        <ele>2238.09</ele>
        <time>2019-07-10T07:10:44Z</time>
      </trkpt>
      <trkpt lat="42.5605006423" lon="20.0797809474">
        <ele>2237.13</ele>
        <time>2019-07-10T07:10:46Z</time>
      </trkpt>
      <trkpt lat="42.5605890714" lon="20.0798267126">
        <ele>2238.09</ele>
        <time>2019-07-10T07:10:55Z</time>
      </trkpt>
      <trkpt lat="42.5607070047" lon="20.0798759144">
        <ele>2239.53</ele>
        <time>2019-07-10T07:11:08Z</time>
      </trkpt>
      <trkpt lat="42.5607692823" lon="20.0799066760">
        <ele>2240.01</ele>
        <time>2019-07-10T07:11:15Z</time>
      </trkpt>
      <trkpt lat="42.5608147122" lon="20.0799359288">
        <ele>2240.97</ele>
        <time>2019-07-10T07:11:20Z</time>
      </trkpt>
      <trkpt lat="42.5608775765" lon="20.0800002180">
        <ele>2241.93</ele>
        <time>2019-07-10T07:11:26Z</time>
      </trkpt>
      <trkpt lat="42.5609945878" lon="20.0800358411">
        <ele>2242.89</ele>
        <time>2019-07-10T07:11:37Z</time>
      </trkpt>
      <trkpt lat="42.5611738767" lon="20.0801002141">
        <ele>2241.45</ele>
        <time>2019-07-10T07:11:51Z</time>
      </trkpt>
      <trkpt lat="42.5612615515" lon="20.0801340770">
        <ele>2239.53</ele>
        <time>2019-07-10T07:11:57Z</time>
      </trkpt>
      <trkpt lat="42.5613225717" lon="20.0801486615">
        <ele>2238.09</ele>
        <time>2019-07-10T07:12:01Z</time>
      </trkpt>
      <trkpt lat="42.5614590291" lon="20.0801717117">
        <ele>2234.72</ele>
        <time>2019-07-10T07:12:10Z</time>
      </trkpt>
      <trkpt lat="42.5616501365" lon="20.0802221708">
        <ele>2231.36</ele>
        <time>2019-07-10T07:12:22Z</time>
      </trkpt>
      <trkpt lat="42.5618271623" lon="20.0803034753">
        <ele>2227.99</ele>
        <time>2019-07-10T07:12:35Z</time>
      </trkpt>
      <trkpt lat="42.5619535614" lon="20.0803509168">
        <ele>2226.07</ele>
        <time>2019-07-10T07:12:43Z</time>
      </trkpt>
      <trkpt lat="42.5621681381" lon="20.0804266054">
        <ele>2224.15</ele>
        <time>2019-07-10T07:12:57Z</time>
      </trkpt>
      <trkpt lat="42.5624104589" lon="20.0805914775">
        <ele>2221.74</ele>
        <time>2019-07-10T07:13:15Z</time>
      </trkpt>
      <trkpt lat="42.5626490917" lon="20.0807004422">
        <ele>2219.34</ele>
        <time>2019-07-10T07:13:31Z</time>
      </trkpt>
      <trkpt lat="42.5628353376" lon="20.0808255002">
        <ele>2217.42</ele>
        <time>2019-07-10T07:13:45Z</time>
      </trkpt>
      <trkpt lat="42.5630577095" lon="20.0808829162">
        <ele>2216.46</ele>
        <time>2019-07-10T07:14:00Z</time>
      </trkpt>
      <trkpt lat="42.5632483140" lon="20.0809947308">
        <ele>2213.09</ele>
        <time>2019-07-10T07:14:15Z</time>
      </trkpt>
      <trkpt lat="42.5634056423" lon="20.0811098982">
        <ele>2213.09</ele>
        <time>2019-07-10T07:14:28Z</time>
      </trkpt>
      <trkpt lat="42.5634279381" lon="20.0811483711">
        <ele>2213.09</ele>
        <time>2019-07-10T07:14:31Z</time>
      </trkpt>
      <trkpt lat="42.5634490605" lon="20.0811721757">
        <ele>2214.53</ele>
        <time>2019-07-10T07:14:33Z</time>
      </trkpt>
      <trkpt lat="42.5636117533" lon="20.0812977366">
        <ele>2214.05</ele>
        <time>2019-07-10T07:14:47Z</time>
      </trkpt>
      <trkpt lat="42.5637878571" lon="20.0813549850">
        <ele>2212.61</ele>
        <time>2019-07-10T07:15:00Z</time>
      </trkpt>
      <trkpt lat="42.5639850833" lon="20.0814502873">
        <ele>2210.69</ele>
        <time>2019-07-10T07:15:14Z</time>
      </trkpt>
      <trkpt lat="42.5641859137" lon="20.0816216134">
        <ele>2207.81</ele>
        <time>2019-07-10T07:15:30Z</time>
      </trkpt>
      <trkpt lat="42.5643571559" lon="20.0817227829">
        <ele>2205.40</ele>
        <time>2019-07-10T07:15:44Z</time>
      </trkpt>
      <trkpt lat="42.5645274762" lon="20.0818377826">
        <ele>2203.48</ele>
        <time>2019-07-10T07:15:57Z</time>
      </trkpt>
      <trkpt lat="42.5646826252" lon="20.0819275528">
        <ele>2200.59</ele>
        <time>2019-07-10T07:16:08Z</time>
      </trkpt>
      <trkpt lat="42.5647289772" lon="20.0819515251">
        <ele>2199.63</ele>
        <time>2019-07-10T07:16:10Z</time>
      </trkpt>
      <trkpt lat="42.5648837909" lon="20.0820448156">
        <ele>2196.27</ele>
        <time>2019-07-10T07:16:19Z</time>
      </trkpt>
      <trkpt lat="42.5650411192" lon="20.0821548700">
        <ele>2192.90</ele>
        <time>2019-07-10T07:16:30Z</time>
      </trkpt>
      <trkpt lat="42.5652075000" lon="20.0822531898">
        <ele>2190.02</ele>
        <time>2019-07-10T07:16:42Z</time>
      </trkpt>
      <trkpt lat="42.5653613918" lon="20.0823763199">
        <ele>2186.66</ele>
        <time>2019-07-10T07:16:55Z</time>
      </trkpt>
      <trkpt lat="42.5655143615" lon="20.0824820995">
        <ele>2183.77</ele>
        <time>2019-07-10T07:17:08Z</time>
      </trkpt>
      <trkpt lat="42.5657037925" lon="20.0825497415">
        <ele>2181.37</ele>
        <time>2019-07-10T07:17:21Z</time>
      </trkpt>
      <trkpt lat="42.5659049582" lon="20.0825900584">
        <ele>2179.45</ele>
        <time>2019-07-10T07:17:34Z</time>
      </trkpt>
      <trkpt lat="42.5660891086" lon="20.0826516654">
        <ele>2178.97</ele>
        <time>2019-07-10T07:17:48Z</time>
      </trkpt>
      <trkpt lat="42.5662738457" lon="20.0827328023">
        <ele>2179.93</ele>
        <time>2019-07-10T07:18:03Z</time>
      </trkpt>
      <trkpt lat="42.5663310941" lon="20.0827720296">
        <ele>2179.93</ele>
        <time>2019-07-10T07:18:08Z</time>
      </trkpt>
      <trkpt lat="42.5665100478" lon="20.0828723609">
        <ele>2181.37</ele>
        <time>2019-07-10T07:18:22Z</time>
      </trkpt>
      <trkpt lat="42.5665488560" lon="20.0828984287">
        <ele>2181.85</ele>
        <time>2019-07-10T07:18:25Z</time>
      </trkpt>
      <trkpt lat="42.5667838007" lon="20.0828860234">
        <ele>2182.33</ele>
        <time>2019-07-10T07:18:42Z</time>
      </trkpt>
      <trkpt lat="42.5670035742" lon="20.0829493068">
        <ele>2182.81</ele>
        <time>2019-07-10T07:18:59Z</time>
      </trkpt>
      <trkpt lat="42.5672649220" lon="20.0829662383">
        <ele>2183.29</ele>
        <time>2019-07-10T07:19:17Z</time>
      </trkpt>
      <trkpt lat="42.5674860366" lon="20.0829523243">
        <ele>2183.77</ele>
        <time>2019-07-10T07:19:33Z</time>
      </trkpt>
      <trkpt lat="42.5677064806" lon="20.0829306152">
        <ele>2184.73</ele>
        <time>2019-07-10T07:19:50Z</time>
      </trkpt>
      <trkpt lat="42.5679610390" lon="20.0829181261">
        <ele>2185.21</ele>
        <time>2019-07-10T07:20:07Z</time>
      </trkpt>
      <trkpt lat="42.5681488775" lon="20.0829497259">
        <ele>2185.69</ele>
        <time>2019-07-10T07:20:21Z</time>
      </trkpt>
      <trkpt lat="42.5682849158" lon="20.0829869416">
        <ele>2186.18</ele>
        <time>2019-07-10T07:20:31Z</time>
      </trkpt>
      <trkpt lat="42.5685244706" lon="20.0830186252">
        <ele>2184.73</ele>
        <time>2019-07-10T07:20:48Z</time>
      </trkpt>
      <trkpt lat="42.5687605049" lon="20.0831285957">
        <ele>2183.77</ele>
        <time>2019-07-10T07:21:04Z</time>
      </trkpt>
      <trkpt lat="42.5688144844" lon="20.0831567589">
        <ele>2183.77</ele>
        <time>2019-07-10T07:21:08Z</time>
      </trkpt>
      <trkpt lat="42.5690200925" lon="20.0831939746">
        <ele>2180.89</ele>
        <time>2019-07-10T07:21:22Z</time>
      </trkpt>
      <trkpt lat="42.5692525227" lon="20.0832525641">
        <ele>2178.48</ele>
        <time>2019-07-10T07:21:38Z</time>
      </trkpt>
      <trkpt lat="42.5694090128" lon="20.0833521411">
        <ele>2177.52</ele>
        <time>2019-07-10T07:21:50Z</time>
      </trkpt>
      <trkpt lat="42.5696050655" lon="20.0835183542">
        <ele>2177.04</ele>
        <time>2019-07-10T07:22:05Z</time>
      </trkpt>
      <trkpt lat="42.5697703566" lon="20.0836583320">
        <ele>2175.60</ele>
        <time>2019-07-10T07:22:19Z</time>
      </trkpt>
      <trkpt lat="42.5699758809" lon="20.0837940350">
        <ele>2172.72</ele>
        <time>2019-07-10T07:22:34Z</time>
      </trkpt>
      <trkpt lat="42.5701518171" lon="20.0838536303">
        <ele>2169.35</ele>
        <time>2019-07-10T07:22:46Z</time>
      </trkpt>
      <trkpt lat="42.5703036133" lon="20.0838900078">
        <ele>2165.99</ele>
        <time>2019-07-10T07:22:56Z</time>
      </trkpt>
      <trkpt lat="42.5703639630" lon="20.0838937797">
        <ele>2165.03</ele>
        <time>2019-07-10T07:23:00Z</time>
      </trkpt>
      <trkpt lat="42.5704167690" lon="20.0839745812">
        <ele>2163.10</ele>
        <time>2019-07-10T07:23:05Z</time>
      </trkpt>
      <trkpt lat="42.5705389772" lon="20.0840935204">
        <ele>2159.74</ele>
        <time>2019-07-10T07:23:19Z</time>
      </trkpt>
      <trkpt lat="42.5705395639" lon="20.0840993878">
        <ele>2158.78</ele>
        <time>2019-07-10T07:23:35Z</time>
      </trkpt>
      <trkpt lat="42.5705377199" lon="20.0840905868">
        <ele>2158.30</ele>
        <time>2019-07-10T07:24:02Z</time>
      </trkpt>
      <trkpt lat="42.5705352891" lon="20.0840789359">
        <ele>2159.26</ele>
        <time>2019-07-10T07:24:31Z</time>
      </trkpt>
      <trkpt lat="42.5705099758" lon="20.0840631779">
        <ele>2159.26</ele>
        <time>2019-07-10T07:24:46Z</time>
      </trkpt>
      <trkpt lat="42.5705094729" lon="20.0840744097">
        <ele>2159.26</ele>
        <time>2019-07-10T07:24:58Z</time>
      </trkpt>
      <trkpt lat="42.5705056172" lon="20.0840614177">
        <ele>2159.26</ele>
        <time>2019-07-10T07:25:13Z</time>
      </trkpt>
      <trkpt lat="42.5704991631" lon="20.0840740744">
        <ele>2159.26</ele>
        <time>2019-07-10T07:25:32Z</time>
      </trkpt>
      <trkpt lat="42.5705176871" lon="20.0840890780">
        <ele>2159.74</ele>
        <time>2019-07-10T07:25:56Z</time>
      </trkpt>
      <trkpt lat="42.5705396477" lon="20.0841139723">
        <ele>2160.22</ele>
        <time>2019-07-10T07:26:14Z</time>
      </trkpt>
      <trkpt lat="42.5706078764" lon="20.0841314904">
        <ele>2157.82</ele>
        <time>2019-07-10T07:26:25Z</time>
      </trkpt>
      <trkpt lat="42.5706108939" lon="20.0841315743">
        <ele>2157.82</ele>
        <time>2019-07-10T07:26:27Z</time>
      </trkpt>
      <trkpt lat="42.5706634484" lon="20.0841042493">
        <ele>2156.86</ele>
        <time>2019-07-10T07:26:32Z</time>
      </trkpt>
      <trkpt lat="42.5706989877" lon="20.0840931013">
        <ele>2155.41</ele>
        <time>2019-07-10T07:26:35Z</time>
      </trkpt>
      <trkpt lat="42.5708166696" lon="20.0841045845">
        <ele>2153.49</ele>
        <time>2019-07-10T07:26:48Z</time>
      </trkpt>
      <trkpt lat="42.5710096210" lon="20.0841694605">
        <ele>2149.65</ele>
        <time>2019-07-10T07:27:03Z</time>
      </trkpt>
      <trkpt lat="42.5711495988" lon="20.0842044130">
        <ele>2146.76</ele>
        <time>2019-07-10T07:27:13Z</time>
      </trkpt>
      <trkpt lat="42.5712021533" lon="20.0841594860">
        <ele>2145.80</ele>
        <time>2019-07-10T07:27:18Z</time>
      </trkpt>
      <trkpt lat="42.5712205935" lon="20.0841727294">
        <ele>2144.84</ele>
        <time>2019-07-10T07:27:20Z</time>
      </trkpt>
      <trkpt lat="42.5712369382" lon="20.0843256153">
        <ele>2140.51</ele>
        <time>2019-07-10T07:27:30Z</time>
      </trkpt>
      <trkpt lat="42.5712645985" lon="20.0843444746">
        <ele>2139.07</ele>
        <time>2019-07-10T07:27:34Z</time>
      </trkpt>
      <trkpt lat="42.5712624192" lon="20.0844031479">
        <ele>2137.15</ele>
        <time>2019-07-10T07:27:39Z</time>
      </trkpt>
      <trkpt lat="42.5712469127" lon="20.0844535232">
        <ele>2136.19</ele>
        <time>2019-07-10T07:27:43Z</time>
      </trkpt>
      <trkpt lat="42.5713101961" lon="20.0844726339">
        <ele>2133.30</ele>
        <time>2019-07-10T07:27:50Z</time>
      </trkpt>
      <trkpt lat="42.5713456515" lon="20.0844763219">
        <ele>2132.34</ele>
        <time>2019-07-10T07:27:55Z</time>
      </trkpt>
      <trkpt lat="42.5713429693" lon="20.0845142081">
        <ele>2130.90</ele>
        <time>2019-07-10T07:27:58Z</time>
      </trkpt>
      <trkpt lat="42.5713198353" lon="20.0845650025">
        <ele>2129.94</ele>
        <time>2019-07-10T07:28:03Z</time>
      </trkpt>
      <trkpt lat="42.5713138003" lon="20.0846318062">
        <ele>2127.53</ele>
        <time>2019-07-10T07:28:08Z</time>
      </trkpt>
      <trkpt lat="42.5713303126" lon="20.0846481510">
        <ele>2127.53</ele>
        <time>2019-07-10T07:28:10Z</time>
      </trkpt>
      <trkpt lat="42.5713793468" lon="20.0846483186">
        <ele>2126.09</ele>
        <time>2019-07-10T07:28:15Z</time>
      </trkpt>
      <trkpt lat="42.5714339130" lon="20.0846718717">
        <ele>2124.17</ele>
        <time>2019-07-10T07:28:20Z</time>
      </trkpt>
      <trkpt lat="42.5714771636" lon="20.0846985262">
        <ele>2122.73</ele>
        <time>2019-07-10T07:28:26Z</time>
      </trkpt>
      <trkpt lat="42.5714759901" lon="20.0847247615">
        <ele>2122.25</ele>
        <time>2019-07-10T07:28:28Z</time>
      </trkpt>
      <trkpt lat="42.5714990404" lon="20.0847896375">
        <ele>2120.81</ele>
        <time>2019-07-10T07:28:32Z</time>
      </trkpt>
      <trkpt lat="42.5716070831" lon="20.0849716924">
        <ele>2117.44</ele>
        <time>2019-07-10T07:28:45Z</time>
      </trkpt>
      <trkpt lat="42.5717052352" lon="20.0852463674">
        <ele>2115.04</ele>
        <time>2019-07-10T07:29:01Z</time>
      </trkpt>
      <trkpt lat="42.5717271119" lon="20.0852737762">
        <ele>2114.56</ele>
        <time>2019-07-10T07:29:03Z</time>
      </trkpt>
      <trkpt lat="42.5718523376" lon="20.0854637101">
        <ele>2112.63</ele>
        <time>2019-07-10T07:29:16Z</time>
      </trkpt>
      <trkpt lat="42.5719176326" lon="20.0856413227">
        <ele>2109.75</ele>
        <time>2019-07-10T07:29:25Z</time>
      </trkpt>
      <trkpt lat="42.5720716082" lon="20.0858545583">
        <ele>2108.31</ele>
        <time>2019-07-10T07:29:40Z</time>
      </trkpt>
      <trkpt lat="42.5722601172" lon="20.0861325022">
        <ele>2110.23</ele>
        <time>2019-07-10T07:30:01Z</time>
      </trkpt>
      <trkpt lat="42.5722810719" lon="20.0861570612">
        <ele>2110.23</ele>
        <time>2019-07-10T07:30:03Z</time>
      </trkpt>
      <trkpt lat="42.5723714288" lon="20.0863128807">
        <ele>2110.71</ele>
        <time>2019-07-10T07:30:15Z</time>
      </trkpt>
      <trkpt lat="42.5724169426" lon="20.0863766670">
        <ele>2111.67</ele>
        <time>2019-07-10T07:30:20Z</time>
      </trkpt>
      <trkpt lat="42.5724793039" lon="20.0864535291">
        <ele>2112.15</ele>
        <time>2019-07-10T07:30:26Z</time>
      </trkpt>
      <trkpt lat="42.5725887716" lon="20.0865583029">
        <ele>2112.63</ele>
        <time>2019-07-10T07:30:36Z</time>
      </trkpt>
      <trkpt lat="42.5726085529" lon="20.0865772460">
        <ele>2113.12</ele>
        <time>2019-07-10T07:30:38Z</time>
      </trkpt>
      <trkpt lat="42.5726709981" lon="20.0866405293">
        <ele>2113.60</ele>
        <time>2019-07-10T07:30:44Z</time>
      </trkpt>
      <trkpt lat="42.5727288332" lon="20.0866997894">
        <ele>2114.08</ele>
        <time>2019-07-10T07:30:50Z</time>
      </trkpt>
      <trkpt lat="42.5727460999" lon="20.0867294613">
        <ele>2114.56</ele>
        <time>2019-07-10T07:30:52Z</time>
      </trkpt>
      <trkpt lat="42.5728427432" lon="20.0868221652">
        <ele>2115.52</ele>
        <time>2019-07-10T07:31:01Z</time>
      </trkpt>
      <trkpt lat="42.5729740877" lon="20.0869189762">
        <ele>2117.44</ele>
        <time>2019-07-10T07:31:14Z</time>
      </trkpt>
      <trkpt lat="42.5730577391" lon="20.0869607180">
        <ele>2117.92</ele>
        <time>2019-07-10T07:31:23Z</time>
      </trkpt>
      <trkpt lat="42.5731584895" lon="20.0869773980">
        <ele>2119.36</ele>
        <time>2019-07-10T07:31:35Z</time>
      </trkpt>
      <trkpt lat="42.5732858106" lon="20.0870084949">
        <ele>2120.32</ele>
        <time>2019-07-10T07:31:47Z</time>
      </trkpt>
      <trkpt lat="42.5733888242" lon="20.0870628096">
        <ele>2120.81</ele>
        <time>2019-07-10T07:31:56Z</time>
      </trkpt>
      <trkpt lat="42.5734574720" lon="20.0870872848">
        <ele>2121.29</ele>
        <time>2019-07-10T07:32:02Z</time>
      </trkpt>
      <trkpt lat="42.5736119505" lon="20.0870571937">
        <ele>2122.25</ele>
        <time>2019-07-10T07:32:16Z</time>
      </trkpt>
      <trkpt lat="42.5737515930" lon="20.0869917311">
        <ele>2123.21</ele>
        <time>2019-07-10T07:32:30Z</time>
      </trkpt>
      <trkpt lat="42.5739075802" lon="20.0868830178">
        <ele>2124.17</ele>
        <time>2019-07-10T07:32:45Z</time>
      </trkpt>
      <trkpt lat="42.5739528425" lon="20.0868473109">
        <ele>2123.69</ele>
        <time>2019-07-10T07:32:50Z</time>
      </trkpt>
      <trkpt lat="42.5739875436" lon="20.0868320558">
        <ele>2124.17</ele>
        <time>2019-07-10T07:32:53Z</time>
      </trkpt>
      <trkpt lat="42.5740455464" lon="20.0868822634">
        <ele>2126.09</ele>
        <time>2019-07-10T07:33:02Z</time>
      </trkpt>
      <trkpt lat="42.5739829335" lon="20.0869469717">
        <ele>2127.05</ele>
        <time>2019-07-10T07:33:10Z</time>
      </trkpt>
      <trkpt lat="42.5739614759" lon="20.0869701896">
        <ele>2127.05</ele>
        <time>2019-07-10T07:33:13Z</time>
      </trkpt>
      <trkpt lat="42.5737948436" lon="20.0870921463">
        <ele>2128.02</ele>
        <time>2019-07-10T07:33:30Z</time>
      </trkpt>
      <trkpt lat="42.5735937618" lon="20.0872548390">
        <ele>2129.46</ele>
        <time>2019-07-10T07:33:48Z</time>
      </trkpt>
      <trkpt lat="42.5735007226" lon="20.0873682462">
        <ele>2129.94</ele>
        <time>2019-07-10T07:33:59Z</time>
      </trkpt>
      <trkpt lat="42.5735102780" lon="20.0874466170">
        <ele>2131.38</ele>
        <time>2019-07-10T07:34:06Z</time>
      </trkpt>
      <trkpt lat="42.5735268742" lon="20.0874575134">
        <ele>2131.86</ele>
        <time>2019-07-10T07:34:08Z</time>
      </trkpt>
      <trkpt lat="42.5735536125" lon="20.0874529872">
        <ele>2132.82</ele>
        <time>2019-07-10T07:34:11Z</time>
      </trkpt>
      <trkpt lat="42.5737122819" lon="20.0873607025">
        <ele>2134.26</ele>
        <time>2019-07-10T07:34:26Z</time>
      </trkpt>
      <trkpt lat="42.5738777407" lon="20.0872835889">
        <ele>2134.74</ele>
        <time>2019-07-10T07:34:41Z</time>
      </trkpt>
      <trkpt lat="42.5740418583" lon="20.0872172881">
        <ele>2135.23</ele>
        <time>2019-07-10T07:34:55Z</time>
      </trkpt>
      <trkpt lat="42.5742073171" lon="20.0871239137">
        <ele>2137.63</ele>
        <time>2019-07-10T07:35:10Z</time>
      </trkpt>
      <trkpt lat="42.5743429363" lon="20.0870083272">
        <ele>2139.07</ele>
        <time>2019-07-10T07:35:25Z</time>
      </trkpt>
      <trkpt lat="42.5744076446" lon="20.0869753864">
        <ele>2140.03</ele>
        <time>2019-07-10T07:35:32Z</time>
      </trkpt>
      <trkpt lat="42.5745106582" lon="20.0869680103">
        <ele>2141.95</ele>
        <time>2019-07-10T07:35:43Z</time>
      </trkpt>
      <trkpt lat="42.5745338760" lon="20.0869627297">
        <ele>2143.40</ele>
        <time>2019-07-10T07:35:45Z</time>
      </trkpt>
      <trkpt lat="42.5745818205" lon="20.0869322196">
        <ele>2140.99</ele>
        <time>2019-07-10T07:35:50Z</time>
      </trkpt>
      <trkpt lat="42.5746119116" lon="20.0869141147">
        <ele>2142.44</ele>
        <time>2019-07-10T07:35:53Z</time>
      </trkpt>
      <trkpt lat="42.5746648852" lon="20.0868742168">
        <ele>2142.44</ele>
        <time>2019-07-10T07:35:59Z</time>
      </trkpt>
      <trkpt lat="42.5746907014" lon="20.0868567824">
        <ele>2142.44</ele>
        <time>2019-07-10T07:36:02Z</time>
      </trkpt>
      <trkpt lat="42.5747684855" lon="20.0867687725">
        <ele>2143.40</ele>
        <time>2019-07-10T07:36:12Z</time>
      </trkpt>
      <trkpt lat="42.5747900270" lon="20.0867517572">
        <ele>2143.88</ele>
        <time>2019-07-10T07:36:14Z</time>
      </trkpt>
      <trkpt lat="42.5748208724" lon="20.0866671000">
        <ele>2143.40</ele>
        <time>2019-07-10T07:36:21Z</time>
      </trkpt>
      <trkpt lat="42.5748404860" lon="20.0866265316">
        <ele>2146.76</ele>
        <time>2019-07-10T07:36:25Z</time>
      </trkpt>
      <trkpt lat="42.5748468563" lon="20.0866154674">
        <ele>2147.24</ele>
        <time>2019-07-10T07:36:26Z</time>
      </trkpt>
      <trkpt lat="42.5749148335" lon="20.0864921696">
        <ele>2147.72</ele>
        <time>2019-07-10T07:36:37Z</time>
      </trkpt>
      <trkpt lat="42.5749450922" lon="20.0864687003">
        <ele>2146.28</ele>
        <time>2019-07-10T07:36:40Z</time>
      </trkpt>
      <trkpt lat="42.5749781169" lon="20.0864348374">
        <ele>2147.72</ele>
        <time>2019-07-10T07:36:44Z</time>
      </trkpt>
      <trkpt lat="42.5750229601" lon="20.0863961969">
        <ele>2150.61</ele>
        <time>2019-07-10T07:36:49Z</time>
      </trkpt>
      <trkpt lat="42.5750427414" lon="20.0863860548">
        <ele>2149.16</ele>
        <time>2019-07-10T07:36:51Z</time>
      </trkpt>
      <trkpt lat="42.5751015823" lon="20.0863164850">
        <ele>2150.61</ele>
        <time>2019-07-10T07:36:59Z</time>
      </trkpt>
      <trkpt lat="42.5751803722" lon="20.0862051733">
        <ele>2150.61</ele>
        <time>2019-07-10T07:37:10Z</time>
      </trkpt>
      <trkpt lat="42.5751917716" lon="20.0861852244">
        <ele>2150.61</ele>
        <time>2019-07-10T07:37:12Z</time>
      </trkpt>
      <trkpt lat="42.5753087830" lon="20.0860306621">
        <ele>2153.49</ele>
        <time>2019-07-10T07:37:27Z</time>
      </trkpt>
      <trkpt lat="42.5753548834" lon="20.0859496929">
        <ele>2156.86</ele>
        <time>2019-07-10T07:37:34Z</time>
      </trkpt>
      <trkpt lat="42.5753659476" lon="20.0859286543">
        <ele>2156.86</ele>
        <time>2019-07-10T07:37:36Z</time>
      </trkpt>
      <trkpt lat="42.5754357688" lon="20.0858833920">
        <ele>2156.86</ele>
        <time>2019-07-10T07:37:44Z</time>
      </trkpt>
      <trkpt lat="42.5754644349" lon="20.0858673826">
        <ele>2157.34</ele>
        <time>2019-07-10T07:37:47Z</time>
      </trkpt>
      <trkpt lat="42.5754941069" lon="20.0858671311">
        <ele>2157.34</ele>
        <time>2019-07-10T07:37:50Z</time>
      </trkpt>
      <trkpt lat="42.5755612459" lon="20.0858745072">
        <ele>2157.34</ele>
        <time>2019-07-10T07:37:57Z</time>
      </trkpt>
      <trkpt lat="42.5755890738" lon="20.0858888403">
        <ele>2157.34</ele>
        <time>2019-07-10T07:38:00Z</time>
      </trkpt>
      <trkpt lat="42.5756431371" lon="20.0859065261">
        <ele>2157.34</ele>
        <time>2019-07-10T07:38:05Z</time>
      </trkpt>
      <trkpt lat="42.5757394452" lon="20.0859511178">
        <ele>2155.89</ele>
        <time>2019-07-10T07:38:13Z</time>
      </trkpt>
      <trkpt lat="42.5758694485" lon="20.0859972183">
        <ele>2154.45</ele>
        <time>2019-07-10T07:38:26Z</time>
      </trkpt>
      <trkpt lat="42.5758753158" lon="20.0860009063">
        <ele>2154.45</ele>
        <time>2019-07-10T07:38:27Z</time>
      </trkpt>
      <trkpt lat="42.5759236794" lon="20.0860463362">
        <ele>2153.01</ele>
        <time>2019-07-10T07:38:33Z</time>
      </trkpt>
      <trkpt lat="42.5759770721" lon="20.0860797800">
        <ele>2153.01</ele>
        <time>2019-07-10T07:38:39Z</time>
      </trkpt>
      <trkpt lat="42.5760087557" lon="20.0860845577">
        <ele>2154.45</ele>
        <time>2019-07-10T07:38:42Z</time>
      </trkpt>
      <trkpt lat="42.5761573669" lon="20.0861004833">
        <ele>2156.37</ele>
        <time>2019-07-10T07:38:53Z</time>
      </trkpt>
      <trkpt lat="42.5762405992" lon="20.0860708114">
        <ele>2156.86</ele>
        <time>2019-07-10T07:39:01Z</time>
      </trkpt>
      <trkpt lat="42.5763953291" lon="20.0859769341">
        <ele>2159.26</ele>
        <time>2019-07-10T07:39:17Z</time>
      </trkpt>
      <trkpt lat="42.5764645636" lon="20.0859811250">
        <ele>2160.70</ele>
        <time>2019-07-10T07:39:24Z</time>
      </trkpt>
      <trkpt lat="42.5765477121" lon="20.0859999005">
        <ele>2161.66</ele>
        <time>2019-07-10T07:39:32Z</time>
      </trkpt>
      <trkpt lat="42.5766896177" lon="20.0861101225">
        <ele>2163.10</ele>
        <time>2019-07-10T07:39:46Z</time>
      </trkpt>
      <trkpt lat="42.5767575949" lon="20.0862019882">
        <ele>2163.58</ele>
        <time>2019-07-10T07:39:54Z</time>
      </trkpt>
      <trkpt lat="42.5767864287" lon="20.0862429757">
        <ele>2164.06</ele>
        <time>2019-07-10T07:39:58Z</time>
      </trkpt>
      <trkpt lat="42.5768108200" lon="20.0862846337">
        <ele>2164.55</ele>
        <time>2019-07-10T07:40:01Z</time>
      </trkpt>
      <trkpt lat="42.5768296793" lon="20.0862998050">
        <ele>2164.55</ele>
        <time>2019-07-10T07:40:03Z</time>
      </trkpt>
      <trkpt lat="42.5768578425" lon="20.0863300636">
        <ele>2165.03</ele>
        <time>2019-07-10T07:40:06Z</time>
      </trkpt>
      <trkpt lat="42.5769871753" lon="20.0864333287">
        <ele>2165.99</ele>
        <time>2019-07-10T07:40:18Z</time>
      </trkpt>
      <trkpt lat="42.5770578347" lon="20.0864780881">
        <ele>2166.95</ele>
        <time>2019-07-10T07:40:25Z</time>
      </trkpt>
      <trkpt lat="42.5770734251" lon="20.0864905771">
        <ele>2166.95</ele>
        <time>2019-07-10T07:40:27Z</time>
      </trkpt>
      <trkpt lat="42.5772981439" lon="20.0865380187">
        <ele>2167.43</ele>
        <time>2019-07-10T07:40:42Z</time>
      </trkpt>
      <trkpt lat="42.5774671230" lon="20.0865779165">
        <ele>2168.39</ele>
        <time>2019-07-10T07:40:55Z</time>
      </trkpt>
      <trkpt lat="42.5776335876" lon="20.0865634158">
        <ele>2169.35</ele>
        <time>2019-07-10T07:41:09Z</time>
      </trkpt>
      <trkpt lat="42.5777424686" lon="20.0865222607">
        <ele>2170.31</ele>
        <time>2019-07-10T07:41:18Z</time>
      </trkpt>
      <trkpt lat="42.5779562909" lon="20.0865370128">
        <ele>2171.27</ele>
        <time>2019-07-10T07:41:34Z</time>
      </trkpt>
      <trkpt lat="42.5781083386" lon="20.0865529384">
        <ele>2171.76</ele>
        <time>2019-07-10T07:41:45Z</time>
      </trkpt>
      <trkpt lat="42.5782872085" lon="20.0865017250">
        <ele>2172.72</ele>
        <time>2019-07-10T07:42:00Z</time>
      </trkpt>
      <trkpt lat="42.5784286112" lon="20.0863889046">
        <ele>2173.20</ele>
        <time>2019-07-10T07:42:14Z</time>
      </trkpt>
      <trkpt lat="42.5785060599" lon="20.0862630084">
        <ele>2173.20</ele>
        <time>2019-07-10T07:42:27Z</time>
      </trkpt>
      <trkpt lat="42.5786069781" lon="20.0862117112">
        <ele>2173.20</ele>
        <time>2019-07-10T07:42:40Z</time>
      </trkpt>
      <trkpt lat="42.5787715148" lon="20.0861765910">
        <ele>2173.20</ele>
        <time>2019-07-10T07:42:54Z</time>
      </trkpt>
      <trkpt lat="42.5789631251" lon="20.0861995574">
        <ele>2173.20</ele>
        <time>2019-07-10T07:43:08Z</time>
      </trkpt>
      <trkpt lat="42.5790797174" lon="20.0862358510">
        <ele>2173.20</ele>
        <time>2019-07-10T07:43:17Z</time>
      </trkpt>
      <trkpt lat="42.5792448409" lon="20.0863054208">
        <ele>2173.68</ele>
        <time>2019-07-10T07:43:30Z</time>
      </trkpt>
      <trkpt lat="42.5793177634" lon="20.0863562990">
        <ele>2174.64</ele>
        <time>2019-07-10T07:43:37Z</time>
      </trkpt>
      <trkpt lat="42.5794385467" lon="20.0864188280">
        <ele>2175.12</ele>
        <time>2019-07-10T07:43:47Z</time>
      </trkpt>
      <trkpt lat="42.5794953760" lon="20.0864588935">
        <ele>2174.64</ele>
        <time>2019-07-10T07:43:52Z</time>
      </trkpt>
      <trkpt lat="42.5795543846" lon="20.0864800159">
        <ele>2175.12</ele>
        <time>2019-07-10T07:43:56Z</time>
      </trkpt>
      <trkpt lat="42.5797405466" lon="20.0865638349">
        <ele>2175.60</ele>
        <time>2019-07-10T07:44:10Z</time>
      </trkpt>
      <trkpt lat="42.5798000582" lon="20.0865893997">
        <ele>2176.56</ele>
        <time>2019-07-10T07:44:15Z</time>
      </trkpt>
      <trkpt lat="42.5799037423" lon="20.0866403617">
        <ele>2177.52</ele>
        <time>2019-07-10T07:44:26Z</time>
      </trkpt>
      <trkpt lat="42.5799410418" lon="20.0866489951">
        <ele>2178.48</ele>
        <time>2019-07-10T07:44:31Z</time>
      </trkpt>
      <trkpt lat="42.5799617451" lon="20.0866619870">
        <ele>2178.97</ele>
        <time>2019-07-10T07:44:33Z</time>
      </trkpt>
      <trkpt lat="42.5800060853" lon="20.0866797566">
        <ele>2179.45</ele>
        <time>2019-07-10T07:44:37Z</time>
      </trkpt>
      <trkpt lat="42.5800725538" lon="20.0867187325">
        <ele>2180.89</ele>
        <time>2019-07-10T07:44:44Z</time>
      </trkpt>
      <trkpt lat="42.5801155530" lon="20.0867308024">
        <ele>2181.37</ele>
        <time>2019-07-10T07:44:48Z</time>
      </trkpt>
      <trkpt lat="42.5801830273" lon="20.0867633242">
        <ele>2182.81</ele>
        <time>2019-07-10T07:44:55Z</time>
      </trkpt>
      <trkpt lat="42.5802556984" lon="20.0868126936">
        <ele>2183.77</ele>
        <time>2019-07-10T07:45:03Z</time>
      </trkpt>
      <trkpt lat="42.5802754797" lon="20.0868185610">
        <ele>2183.77</ele>
        <time>2019-07-10T07:45:05Z</time>
      </trkpt>
      <trkpt lat="42.5803332310" lon="20.0868343189">
        <ele>2184.25</ele>
        <time>2019-07-10T07:45:10Z</time>
      </trkpt>
      <trkpt lat="42.5804472249" lon="20.0868629850">
        <ele>2186.18</ele>
        <time>2019-07-10T07:45:20Z</time>
      </trkpt>
      <trkpt lat="42.5806240831" lon="20.0868012104">
        <ele>2188.10</ele>
        <time>2019-07-10T07:45:36Z</time>
      </trkpt>
      <trkpt lat="42.5807804056" lon="20.0867878832">
        <ele>2189.54</ele>
        <time>2019-07-10T07:45:50Z</time>
      </trkpt>
      <trkpt lat="42.5807890389" lon="20.0867898110">
        <ele>2189.54</ele>
        <time>2019-07-10T07:45:51Z</time>
      </trkpt>
      <trkpt lat="42.5809114147" lon="20.0868009590">
        <ele>2191.46</ele>
        <time>2019-07-10T07:46:04Z</time>
      </trkpt>
      <trkpt lat="42.5810767058" lon="20.0868040603">
        <ele>2192.42</ele>
        <time>2019-07-10T07:46:17Z</time>
      </trkpt>
      <trkpt lat="42.5811528973" lon="20.0868310500">
        <ele>2192.90</ele>
        <time>2019-07-10T07:46:23Z</time>
      </trkpt>
      <trkpt lat="42.5813387241" lon="20.0869370811">
        <ele>2193.87</ele>
        <time>2019-07-10T07:46:38Z</time>
      </trkpt>
      <trkpt lat="42.5813843217" lon="20.0869735423">
        <ele>2194.35</ele>
        <time>2019-07-10T07:46:42Z</time>
      </trkpt>
      <trkpt lat="42.5815489423" lon="20.0871111732">
        <ele>2194.83</ele>
        <time>2019-07-10T07:46:57Z</time>
      </trkpt>
      <trkpt lat="42.5817579031" lon="20.0871954113">
        <ele>2193.39</ele>
        <time>2019-07-10T07:47:13Z</time>
      </trkpt>
      <trkpt lat="42.5820107851" lon="20.0872186292">
        <ele>2191.46</ele>
        <time>2019-07-10T07:47:32Z</time>
      </trkpt>
      <trkpt lat="42.5821832009" lon="20.0872049667">
        <ele>2190.98</ele>
        <time>2019-07-10T07:47:46Z</time>
      </trkpt>
      <trkpt lat="42.5824042317" lon="20.0871338043">
        <ele>2189.06</ele>
        <time>2019-07-10T07:48:03Z</time>
      </trkpt>
      <trkpt lat="42.5826178025" lon="20.0870472193">
        <ele>2188.10</ele>
        <time>2019-07-10T07:48:19Z</time>
      </trkpt>
      <trkpt lat="42.5828036293" lon="20.0869535096">
        <ele>2186.66</ele>
        <time>2019-07-10T07:48:34Z</time>
      </trkpt>
      <trkpt lat="42.5830002688" lon="20.0868807547">
        <ele>2185.69</ele>
        <time>2019-07-10T07:48:49Z</time>
      </trkpt>
      <trkpt lat="42.5832028594" lon="20.0868776534">
        <ele>2185.69</ele>
        <time>2019-07-10T07:49:04Z</time>
      </trkpt>
      <trkpt lat="42.5833452679" lon="20.0869119354">
        <ele>2184.73</ele>
        <time>2019-07-10T07:49:16Z</time>
      </trkpt>
      <trkpt lat="42.5834665541" lon="20.0869306270">
        <ele>2184.25</ele>
        <time>2019-07-10T07:49:28Z</time>
      </trkpt>
      <trkpt lat="42.5834650453" lon="20.0869378354">
        <ele>2184.25</ele>
        <time>2019-07-10T07:49:47Z</time>
      </trkpt>
      <trkpt lat="42.5834555738" lon="20.0869435351">
        <ele>2183.29</ele>
        <time>2019-07-10T07:50:06Z</time>
      </trkpt>
      <trkpt lat="42.5834421627" lon="20.0869324710">
        <ele>2183.29</ele>
        <time>2019-07-10T07:50:27Z</time>
      </trkpt>
      <trkpt lat="42.5834523886" lon="20.0869189762">
        <ele>2183.29</ele>
        <time>2019-07-10T07:50:46Z</time>
      </trkpt>
      <trkpt lat="42.5834556576" lon="20.0869152043">
        <ele>2182.81</ele>
        <time>2019-07-10T07:51:02Z</time>
      </trkpt>
      <trkpt lat="42.5834544841" lon="20.0869304594">
        <ele>2181.37</ele>
        <time>2019-07-10T07:51:15Z</time>
      </trkpt>
      <trkpt lat="42.5834529754" lon="20.0869337283">
        <ele>2181.37</ele>
        <time>2019-07-10T07:51:31Z</time>
      </trkpt>
      <trkpt lat="42.5834523886" lon="20.0869191438">
        <ele>2183.29</ele>
        <time>2019-07-10T07:51:54Z</time>
      </trkpt>
      <trkpt lat="42.5834487844" lon="20.0869230833">
        <ele>2183.77</ele>
        <time>2019-07-10T07:52:12Z</time>
      </trkpt>
      <trkpt lat="42.5834591780" lon="20.0869544316">
        <ele>2183.77</ele>
        <time>2019-07-10T07:52:24Z</time>
      </trkpt>
      <trkpt lat="42.5834993273" lon="20.0869827624">
        <ele>2183.77</ele>
        <time>2019-07-10T07:52:46Z</time>
      </trkpt>
      <trkpt lat="42.5835034344" lon="20.0869712792">
        <ele>2181.37</ele>
        <time>2019-07-10T07:52:59Z</time>
      </trkpt>
      <trkpt lat="42.5835010037" lon="20.0869677588">
        <ele>2183.29</ele>
        <time>2019-07-10T07:53:02Z</time>
      </trkpt>
      <trkpt lat="42.5834705774" lon="20.0869224966">
        <ele>2183.29</ele>
        <time>2019-07-10T07:53:21Z</time>
      </trkpt>
      <trkpt lat="42.5835652091" lon="20.0869104266">
        <ele>2183.77</ele>
        <time>2019-07-10T07:53:34Z</time>
      </trkpt>
      <trkpt lat="42.5837291591" lon="20.0869080797">
        <ele>2184.25</ele>
        <time>2019-07-10T07:53:48Z</time>
      </trkpt>
      <trkpt lat="42.5839358568" lon="20.0869218260">
        <ele>2184.73</ele>
        <time>2019-07-10T07:54:05Z</time>
      </trkpt>
      <trkpt lat="42.5839619245" lon="20.0869197305">
        <ele>2183.29</ele>
        <time>2019-07-10T07:54:07Z</time>
      </trkpt>
      <trkpt lat="42.5842100289" lon="20.0869238377">
        <ele>2183.29</ele>
        <time>2019-07-10T07:54:25Z</time>
      </trkpt>
      <trkpt lat="42.5842765812" lon="20.0869369972">
        <ele>2184.73</ele>
        <time>2019-07-10T07:54:30Z</time>
      </trkpt>
      <trkpt lat="42.5844935048" lon="20.0870441180">
        <ele>2185.21</ele>
        <time>2019-07-10T07:54:48Z</time>
      </trkpt>
      <trkpt lat="42.5846713688" lon="20.0871544238">
        <ele>2185.69</ele>
        <time>2019-07-10T07:55:03Z</time>
      </trkpt>
      <trkpt lat="42.5848312955" lon="20.0872396678">
        <ele>2185.69</ele>
        <time>2019-07-10T07:55:17Z</time>
      </trkpt>
      <trkpt lat="42.5849583652" lon="20.0873172842">
        <ele>2186.66</ele>
        <time>2019-07-10T07:55:29Z</time>
      </trkpt>
      <trkpt lat="42.5849711057" lon="20.0873410888">
        <ele>2186.66</ele>
        <time>2019-07-10T07:55:31Z</time>
      </trkpt>
      <trkpt lat="42.5850251690" lon="20.0874542445">
        <ele>2187.62</ele>
        <time>2019-07-10T07:55:39Z</time>
      </trkpt>
      <trkpt lat="42.5850525778" lon="20.0874922983">
        <ele>2188.10</ele>
        <time>2019-07-10T07:55:42Z</time>
      </trkpt>
      <trkpt lat="42.5851056352" lon="20.0875741895">
        <ele>2189.06</ele>
        <time>2019-07-10T07:55:49Z</time>
      </trkpt>
      <trkpt lat="42.5852208864" lon="20.0877388939">
        <ele>2190.98</ele>
        <time>2019-07-10T07:56:03Z</time>
      </trkpt>
      <trkpt lat="42.5852312800" lon="20.0877598487">
        <ele>2190.98</ele>
        <time>2019-07-10T07:56:05Z</time>
      </trkpt>
      <trkpt lat="42.5852321181" lon="20.0877878442">
        <ele>2190.98</ele>
        <time>2019-07-10T07:56:07Z</time>
      </trkpt>
      <trkpt lat="42.5853478722" lon="20.0879636966">
        <ele>2191.94</ele>
        <time>2019-07-10T07:56:24Z</time>
      </trkpt>
      <trkpt lat="42.5854885206" lon="20.0881558936">
        <ele>2191.94</ele>
        <time>2019-07-10T07:56:40Z</time>
      </trkpt>
      <trkpt lat="42.5855835713" lon="20.0883090310">
        <ele>2191.94</ele>
        <time>2019-07-10T07:56:53Z</time>
      </trkpt>
      <trkpt lat="42.5855991617" lon="20.0883227773">
        <ele>2191.94</ele>
        <time>2019-07-10T07:56:55Z</time>
      </trkpt>
      <trkpt lat="42.5856152549" lon="20.0883375295">
        <ele>2191.94</ele>
        <time>2019-07-10T07:56:57Z</time>
      </trkpt>
      <trkpt lat="42.5856550690" lon="20.0883774273">
        <ele>2192.42</ele>
        <time>2019-07-10T07:57:01Z</time>
      </trkpt>
      <trkpt lat="42.5857098028" lon="20.0884722266">
        <ele>2192.42</ele>
        <time>2019-07-10T07:57:08Z</time>
      </trkpt>
      <trkpt lat="42.5858679693" lon="20.0886623282">
        <ele>2192.90</ele>
        <time>2019-07-10T07:57:26Z</time>
      </trkpt>
      <trkpt lat="42.5860066060" lon="20.0887680240">
        <ele>2193.87</ele>
        <time>2019-07-10T07:57:39Z</time>
      </trkpt>
      <trkpt lat="42.5860863179" lon="20.0888486579">
        <ele>2193.87</ele>
        <time>2019-07-10T07:57:47Z</time>
      </trkpt>
      <trkpt lat="42.5862401258" lon="20.0889979396">
        <ele>2194.35</ele>
        <time>2019-07-10T07:58:03Z</time>
      </trkpt>
      <trkpt lat="42.5864195824" lon="20.0891275238">
        <ele>2195.31</ele>
        <time>2019-07-10T07:58:20Z</time>
      </trkpt>
      <trkpt lat="42.5864706282" lon="20.0891417731">
        <ele>2195.31</ele>
        <time>2019-07-10T07:58:24Z</time>
      </trkpt>
      <trkpt lat="42.5865258649" lon="20.0891727023">
        <ele>2194.35</ele>
        <time>2019-07-10T07:58:28Z</time>
      </trkpt>
      <trkpt lat="42.5866459776" lon="20.0892625563">
        <ele>2194.83</ele>
        <time>2019-07-10T07:58:41Z</time>
      </trkpt>
      <trkpt lat="42.5866930839" lon="20.0893138535">
        <ele>2195.79</ele>
        <time>2019-07-10T07:58:47Z</time>
      </trkpt>
      <trkpt lat="42.5867755618" lon="20.0894411746">
        <ele>2196.75</ele>
        <time>2019-07-10T07:58:59Z</time>
      </trkpt>
      <trkpt lat="42.5869437028" lon="20.0895291846">
        <ele>2198.67</ele>
        <time>2019-07-10T07:59:16Z</time>
      </trkpt>
      <trkpt lat="42.5870701019" lon="20.0895933900">
        <ele>2199.63</ele>
        <time>2019-07-10T07:59:28Z</time>
      </trkpt>
      <trkpt lat="42.5872450322" lon="20.0896684080">
        <ele>2200.11</ele>
        <time>2019-07-10T07:59:44Z</time>
      </trkpt>
      <trkpt lat="42.5874456111" lon="20.0897292607">
        <ele>2200.59</ele>
        <time>2019-07-10T08:00:01Z</time>
      </trkpt>
      <trkpt lat="42.5876448490" lon="20.0898797996">
        <ele>2201.08</ele>
        <time>2019-07-10T08:00:19Z</time>
      </trkpt>
      <trkpt lat="42.5878120679" lon="20.0899492018">
        <ele>2202.04</ele>
        <time>2019-07-10T08:00:33Z</time>
      </trkpt>
      <trkpt lat="42.5879960507" lon="20.0900147483">
        <ele>2202.52</ele>
        <time>2019-07-10T08:00:50Z</time>
      </trkpt>
      <trkpt lat="42.5880429894" lon="20.0900244713">
        <ele>2202.52</ele>
        <time>2019-07-10T08:01:04Z</time>
      </trkpt>
      <trkpt lat="42.5880774390" lon="20.0900174305">
        <ele>2201.08</ele>
        <time>2019-07-10T08:01:07Z</time>
      </trkpt>
      <trkpt lat="42.5881869067" lon="20.0898715016">
        <ele>2197.71</ele>
        <time>2019-07-10T08:01:20Z</time>
      </trkpt>
      <trkpt lat="42.5882062688" lon="20.0898326933">
        <ele>2197.71</ele>
        <time>2019-07-10T08:01:23Z</time>
      </trkpt>
      <trkpt lat="42.5882448256" lon="20.0897649676">
        <ele>2196.75</ele>
        <time>2019-07-10T08:01:35Z</time>
      </trkpt>
      <trkpt lat="42.5882880762" lon="20.0896035321">
        <ele>2195.31</ele>
        <time>2019-07-10T08:01:42Z</time>
      </trkpt>
      <trkpt lat="42.5882781856" lon="20.0894785579">
        <ele>2192.90</ele>
        <time>2019-07-10T08:01:46Z</time>
      </trkpt>
      <trkpt lat="42.5883286446" lon="20.0894056354">
        <ele>2190.50</ele>
        <time>2019-07-10T08:01:50Z</time>
      </trkpt>
      <trkpt lat="42.5884493440" lon="20.0894089043">
        <ele>2186.18</ele>
        <time>2019-07-10T08:01:57Z</time>
      </trkpt>
      <trkpt lat="42.5885026529" lon="20.0893907994">
        <ele>2183.77</ele>
        <time>2019-07-10T08:02:02Z</time>
      </trkpt>
      <trkpt lat="42.5885821972" lon="20.0893205591">
        <ele>2180.41</ele>
        <time>2019-07-10T08:02:08Z</time>
      </trkpt>
      <trkpt lat="42.5886362605" lon="20.0892277714">
        <ele>2177.52</ele>
        <time>2019-07-10T08:02:14Z</time>
      </trkpt>
      <trkpt lat="42.5886463188" lon="20.0892121810">
        <ele>2177.04</ele>
        <time>2019-07-10T08:02:15Z</time>
      </trkpt>
      <trkpt lat="42.5887210015" lon="20.0891507417">
        <ele>2174.64</ele>
        <time>2019-07-10T08:02:21Z</time>
      </trkpt>
      <trkpt lat="42.5888015516" lon="20.0890310481">
        <ele>2172.24</ele>
        <time>2019-07-10T08:02:28Z</time>
      </trkpt>
      <trkpt lat="42.5888227578" lon="20.0889517553">
        <ele>2170.31</ele>
        <time>2019-07-10T08:02:32Z</time>
      </trkpt>
      <trkpt lat="42.5889266096" lon="20.0887142960">
        <ele>2167.91</ele>
        <time>2019-07-10T08:02:46Z</time>
      </trkpt>
      <trkpt lat="42.5890214089" lon="20.0885247812">
        <ele>2167.43</ele>
        <time>2019-07-10T08:02:59Z</time>
      </trkpt>
      <trkpt lat="42.5892421883" lon="20.0885289721">
        <ele>2165.99</ele>
        <time>2019-07-10T08:03:15Z</time>
      </trkpt>
      <trkpt lat="42.5893776398" lon="20.0885091070">
        <ele>2163.58</ele>
        <time>2019-07-10T08:03:25Z</time>
      </trkpt>
      <trkpt lat="42.5894364808" lon="20.0885470770">
        <ele>2162.14</ele>
        <time>2019-07-10T08:03:30Z</time>
      </trkpt>
      <trkpt lat="42.5895893667" lon="20.0885651819">
        <ele>2159.74</ele>
        <time>2019-07-10T08:03:43Z</time>
      </trkpt>
      <trkpt lat="42.5896111596" lon="20.0885569677">
        <ele>2158.78</ele>
        <time>2019-07-10T08:03:45Z</time>
      </trkpt>
      <trkpt lat="42.5896557514" lon="20.0885811076">
        <ele>2158.30</ele>
        <time>2019-07-10T08:03:49Z</time>
      </trkpt>
      <trkpt lat="42.5897732656" lon="20.0885695405">
        <ele>2155.41</ele>
        <time>2019-07-10T08:03:59Z</time>
      </trkpt>
      <trkpt lat="42.5898994133" lon="20.0887085125">
        <ele>2152.53</ele>
        <time>2019-07-10T08:04:11Z</time>
      </trkpt>
      <trkpt lat="42.5900184363" lon="20.0887588877">
        <ele>2150.61</ele>
        <time>2019-07-10T08:04:21Z</time>
      </trkpt>
      <trkpt lat="42.5900476053" lon="20.0887552835">
        <ele>2150.13</ele>
        <time>2019-07-10T08:04:24Z</time>
      </trkpt>
      <trkpt lat="42.5900461804" lon="20.0886284653">
        <ele>2148.68</ele>
        <time>2019-07-10T08:04:33Z</time>
      </trkpt>
      <trkpt lat="42.5900648721" lon="20.0885287207">
        <ele>2148.20</ele>
        <time>2019-07-10T08:04:40Z</time>
      </trkpt>
      <trkpt lat="42.5900600106" lon="20.0884880684">
        <ele>2147.24</ele>
        <time>2019-07-10T08:04:43Z</time>
      </trkpt>
      <trkpt lat="42.5901735015" lon="20.0884998869">
        <ele>2144.36</ele>
        <time>2019-07-10T08:04:55Z</time>
      </trkpt>
      <trkpt lat="42.5901895948" lon="20.0885029044">
        <ele>2143.88</ele>
        <time>2019-07-10T08:04:57Z</time>
      </trkpt>
      <trkpt lat="42.5902924407" lon="20.0885276310">
        <ele>2141.95</ele>
        <time>2019-07-10T08:05:05Z</time>
      </trkpt>
      <trkpt lat="42.5903474260" lon="20.0885053352">
        <ele>2140.99</ele>
        <time>2019-07-10T08:05:09Z</time>
      </trkpt>
      <trkpt lat="42.5904582348" lon="20.0883242022">
        <ele>2138.11</ele>
        <time>2019-07-10T08:05:23Z</time>
      </trkpt>
      <trkpt lat="42.5905547943" lon="20.0882579852">
        <ele>2135.71</ele>
        <time>2019-07-10T08:05:33Z</time>
      </trkpt>
      <trkpt lat="42.5906253699" lon="20.0882029161">
        <ele>2134.26</ele>
        <time>2019-07-10T08:05:41Z</time>
      </trkpt>
      <trkpt lat="42.5906546228" lon="20.0881882478">
        <ele>2132.82</ele>
        <time>2019-07-10T08:05:44Z</time>
      </trkpt>
      <trkpt lat="42.5906827860" lon="20.0881501939">
        <ele>2132.34</ele>
        <time>2019-07-10T08:05:47Z</time>
      </trkpt>
      <trkpt lat="42.5907054171" lon="20.0881398004">
        <ele>2132.34</ele>
        <time>2019-07-10T08:05:49Z</time>
      </trkpt>
      <trkpt lat="42.5907246955" lon="20.0881545525">
        <ele>2131.86</ele>
        <time>2019-07-10T08:05:51Z</time>
      </trkpt>
      <trkpt lat="42.5907566305" lon="20.0881609228">
        <ele>2130.90</ele>
        <time>2019-07-10T08:05:54Z</time>
      </trkpt>
      <trkpt lat="42.5908689480" lon="20.0880630221">
        <ele>2128.02</ele>
        <time>2019-07-10T08:06:06Z</time>
      </trkpt>
      <trkpt lat="42.5910018850" lon="20.0879616011">
        <ele>2124.65</ele>
        <time>2019-07-10T08:06:20Z</time>
      </trkpt>
      <trkpt lat="42.5910603069" lon="20.0879159197">
        <ele>2123.21</ele>
        <time>2019-07-10T08:06:27Z</time>
      </trkpt>
      <trkpt lat="42.5911047310" lon="20.0878636166">
        <ele>2122.25</ele>
        <time>2019-07-10T08:06:31Z</time>
      </trkpt>
      <trkpt lat="42.5912215747" lon="20.0877341162">
        <ele>2117.92</ele>
        <time>2019-07-10T08:06:43Z</time>
      </trkpt>
      <trkpt lat="42.5912613049" lon="20.0876893569">
        <ele>2116.48</ele>
        <time>2019-07-10T08:06:54Z</time>
      </trkpt>
      <trkpt lat="42.5913379155" lon="20.0875736866">
        <ele>2114.08</ele>
        <time>2019-07-10T08:07:08Z</time>
      </trkpt>
      <trkpt lat="42.5913860276" lon="20.0874933880">
        <ele>2112.63</ele>
        <time>2019-07-10T08:07:14Z</time>
      </trkpt>
      <trkpt lat="42.5914907176" lon="20.0873748679">
        <ele>2109.27</ele>
        <time>2019-07-10T08:07:24Z</time>
      </trkpt>
      <trkpt lat="42.5916363113" lon="20.0872470438">
        <ele>2107.83</ele>
        <time>2019-07-10T08:07:38Z</time>
      </trkpt>
      <trkpt lat="42.5917025283" lon="20.0871456228">
        <ele>2106.87</ele>
        <time>2019-07-10T08:07:46Z</time>
      </trkpt>
      <trkpt lat="42.5917028636" lon="20.0871205609">
        <ele>2106.87</ele>
        <time>2019-07-10T08:07:48Z</time>
      </trkpt>
      <trkpt lat="42.5917522330" lon="20.0870634802">
        <ele>2106.87</ele>
        <time>2019-07-10T08:07:56Z</time>
      </trkpt>
      <trkpt lat="42.5917806476" lon="20.0870576967">
        <ele>2108.31</ele>
        <time>2019-07-10T08:07:58Z</time>
      </trkpt>
      <trkpt lat="42.5918747764" lon="20.0870136917">
        <ele>2108.79</ele>
        <time>2019-07-10T08:08:09Z</time>
      </trkpt>
      <trkpt lat="42.5919721741" lon="20.0869827624">
        <ele>2108.79</ele>
        <time>2019-07-10T08:08:23Z</time>
      </trkpt>
      <trkpt lat="42.5920761097" lon="20.0869017094">
        <ele>2108.79</ele>
        <time>2019-07-10T08:08:35Z</time>
      </trkpt>
      <trkpt lat="42.5921867508" lon="20.0868325587">
        <ele>2109.75</ele>
        <time>2019-07-10T08:08:47Z</time>
      </trkpt>
      <trkpt lat="42.5922445022" lon="20.0867660902">
        <ele>2111.19</ele>
        <time>2019-07-10T08:08:58Z</time>
      </trkpt>
      <trkpt lat="42.5923267286" lon="20.0867245998">
        <ele>2112.63</ele>
        <time>2019-07-10T08:09:10Z</time>
      </trkpt>
      <trkpt lat="42.5924234558" lon="20.0867111050">
        <ele>2114.56</ele>
        <time>2019-07-10T08:09:22Z</time>
      </trkpt>
      <trkpt lat="42.5924789440" lon="20.0867018849">
        <ele>2115.52</ele>
        <time>2019-07-10T08:09:32Z</time>
      </trkpt>
      <trkpt lat="42.5925057661" lon="20.0866993703">
        <ele>2116.48</ele>
        <time>2019-07-10T08:09:36Z</time>
      </trkpt>
      <trkpt lat="42.5925731566" lon="20.0867029745">
        <ele>2116.96</ele>
        <time>2019-07-10T08:09:43Z</time>
      </trkpt>
      <trkpt lat="42.5925946143" lon="20.0867203251">
        <ele>2117.44</ele>
        <time>2019-07-10T08:09:46Z</time>
      </trkpt>
      <trkpt lat="42.5927557983" lon="20.0867135357">
        <ele>2118.40</ele>
        <time>2019-07-10T08:10:00Z</time>
      </trkpt>
      <trkpt lat="42.5928573031" lon="20.0867080875">
        <ele>2119.84</ele>
        <time>2019-07-10T08:10:11Z</time>
      </trkpt>
      <trkpt lat="42.5929596461" lon="20.0867748074">
        <ele>2121.77</ele>
        <time>2019-07-10T08:10:24Z</time>
      </trkpt>
      <trkpt lat="42.5930127036" lon="20.0867972709">
        <ele>2123.69</ele>
        <time>2019-07-10T08:10:40Z</time>
      </trkpt>
      <trkpt lat="42.5930707902" lon="20.0868240930">
        <ele>2125.13</ele>
        <time>2019-07-10T08:10:50Z</time>
      </trkpt>
      <trkpt lat="42.5931399409" lon="20.0868033059">
        <ele>2128.02</ele>
        <time>2019-07-10T08:11:02Z</time>
      </trkpt>
      <trkpt lat="42.5931490771" lon="20.0868924893">
        <ele>2130.42</ele>
        <time>2019-07-10T08:11:15Z</time>
      </trkpt>
      <trkpt lat="42.5931626558" lon="20.0868672598">
        <ele>2130.42</ele>
        <time>2019-07-10T08:11:34Z</time>
      </trkpt>
      <trkpt lat="42.5932016317" lon="20.0869086664">
        <ele>2130.90</ele>
        <time>2019-07-10T08:11:53Z</time>
      </trkpt>
      <trkpt lat="42.5932182278" lon="20.0868944172">
        <ele>2130.90</ele>
        <time>2019-07-10T08:11:55Z</time>
      </trkpt>
      <trkpt lat="42.5933196489" lon="20.0868221652">
        <ele>2133.30</ele>
        <time>2019-07-10T08:12:09Z</time>
      </trkpt>
      <trkpt lat="42.5933272764" lon="20.0868180580">
        <ele>2133.30</ele>
        <time>2019-07-10T08:12:10Z</time>
      </trkpt>
      <trkpt lat="42.5933540985" lon="20.0867458060">
        <ele>2135.23</ele>
        <time>2019-07-10T08:12:17Z</time>
      </trkpt>
      <trkpt lat="42.5933476444" lon="20.0867079198">
        <ele>2135.71</ele>
        <time>2019-07-10T08:12:20Z</time>
      </trkpt>
      <trkpt lat="42.5933552720" lon="20.0866847858">
        <ele>2136.19</ele>
        <time>2019-07-10T08:12:22Z</time>
      </trkpt>
      <trkpt lat="42.5933031365" lon="20.0866039842">
        <ele>2137.63</ele>
        <time>2019-07-10T08:12:33Z</time>
      </trkpt>
      <trkpt lat="42.5932296272" lon="20.0865852088">
        <ele>2139.55</ele>
        <time>2019-07-10T08:12:43Z</time>
      </trkpt>
      <trkpt lat="42.5932326447" lon="20.0865106098">
        <ele>2140.99</ele>
        <time>2019-07-10T08:12:54Z</time>
      </trkpt>
      <trkpt lat="42.5933447946" lon="20.0864536967">
        <ele>2143.40</ele>
        <time>2019-07-10T08:13:08Z</time>
      </trkpt>
      <trkpt lat="42.5934158731" lon="20.0863974541">
        <ele>2145.32</ele>
        <time>2019-07-10T08:13:19Z</time>
      </trkpt>
      <trkpt lat="42.5934470538" lon="20.0863733981">
        <ele>2145.80</ele>
        <time>2019-07-10T08:13:23Z</time>
      </trkpt>
      <trkpt lat="42.5935199764" lon="20.0863115396">
        <ele>2147.72</ele>
        <time>2019-07-10T08:13:34Z</time>
      </trkpt>
      <trkpt lat="42.5935268495" lon="20.0862999726">
        <ele>2148.68</ele>
        <time>2019-07-10T08:13:36Z</time>
      </trkpt>
      <trkpt lat="42.5935792364" lon="20.0862399582">
        <ele>2151.09</ele>
        <time>2019-07-10T08:13:47Z</time>
      </trkpt>
      <trkpt lat="42.5936467946" lon="20.0862011500">
        <ele>2151.57</ele>
        <time>2019-07-10T08:14:00Z</time>
      </trkpt>
      <trkpt lat="42.5936809089" lon="20.0861850567">
        <ele>2153.01</ele>
        <time>2019-07-10T08:14:04Z</time>
      </trkpt>
      <trkpt lat="42.5937115029" lon="20.0861480925">
        <ele>2153.49</ele>
        <time>2019-07-10T08:14:11Z</time>
      </trkpt>
      <trkpt lat="42.5937885325" lon="20.0861069374">
        <ele>2154.45</ele>
        <time>2019-07-10T08:14:19Z</time>
      </trkpt>
      <trkpt lat="42.5938096549" lon="20.0861052610">
        <ele>2154.45</ele>
        <time>2019-07-10T08:14:21Z</time>
      </trkpt>
      <trkpt lat="42.5938453618" lon="20.0861003157">
        <ele>2154.45</ele>
        <time>2019-07-10T08:14:24Z</time>
      </trkpt>
      <trkpt lat="42.5939722639" lon="20.0860385410">
        <ele>2155.41</ele>
        <time>2019-07-10T08:14:38Z</time>
      </trkpt>
      <trkpt lat="42.5940427557" lon="20.0859894231">
        <ele>2156.86</ele>
        <time>2019-07-10T08:14:48Z</time>
      </trkpt>
      <trkpt lat="42.5940799713" lon="20.0859798677">
        <ele>2158.30</ele>
        <time>2019-07-10T08:14:53Z</time>
      </trkpt>
      <trkpt lat="42.5941489544" lon="20.0859843940">
        <ele>2158.78</ele>
        <time>2019-07-10T08:15:00Z</time>
      </trkpt>
      <trkpt lat="42.5942513812" lon="20.0859587453">
        <ele>2160.22</ele>
        <time>2019-07-10T08:15:15Z</time>
      </trkpt>
      <trkpt lat="42.5943802111" lon="20.0859598350">
        <ele>2160.70</ele>
        <time>2019-07-10T08:15:28Z</time>
      </trkpt>
      <trkpt lat="42.5945170037" lon="20.0859623495">
        <ele>2161.66</ele>
        <time>2019-07-10T08:15:40Z</time>
      </trkpt>
      <trkpt lat="42.5946506951" lon="20.0859351084">
        <ele>2162.14</ele>
        <time>2019-07-10T08:15:54Z</time>
      </trkpt>
      <trkpt lat="42.5947532896" lon="20.0858967192">
        <ele>2163.58</ele>
        <time>2019-07-10T08:16:04Z</time>
      </trkpt>
      <trkpt lat="42.5948631763" lon="20.0857829768">
        <ele>2165.03</ele>
        <time>2019-07-10T08:16:18Z</time>
      </trkpt>
      <trkpt lat="42.5948822033" lon="20.0857281592">
        <ele>2165.51</ele>
        <time>2019-07-10T08:16:24Z</time>
      </trkpt>
      <trkpt lat="42.5948911719" lon="20.0856689829">
        <ele>2166.47</ele>
        <time>2019-07-10T08:16:28Z</time>
      </trkpt>
      <trkpt lat="42.5949059241" lon="20.0856317673">
        <ele>2166.47</ele>
        <time>2019-07-10T08:16:31Z</time>
      </trkpt>
      <trkpt lat="42.5949583948" lon="20.0853839144">
        <ele>2166.95</ele>
        <time>2019-07-10T08:16:47Z</time>
      </trkpt>
      <trkpt lat="42.5950480811" lon="20.0851927232">
        <ele>2165.51</ele>
        <time>2019-07-10T08:17:00Z</time>
      </trkpt>
      <trkpt lat="42.5951787550" lon="20.0850467104">
        <ele>2166.95</ele>
        <time>2019-07-10T08:17:14Z</time>
      </trkpt>
      <trkpt lat="42.5952676032" lon="20.0849678367">
        <ele>2167.91</ele>
        <time>2019-07-10T08:17:26Z</time>
      </trkpt>
      <trkpt lat="42.5953841116" lon="20.0849271845">
        <ele>2169.83</ele>
        <time>2019-07-10T08:17:37Z</time>
      </trkpt>
      <trkpt lat="42.5953920744" lon="20.0849173777">
        <ele>2169.83</ele>
        <time>2019-07-10T08:17:38Z</time>
      </trkpt>
      <trkpt lat="42.5954308826" lon="20.0848087482">
        <ele>2167.43</ele>
        <time>2019-07-10T08:17:46Z</time>
      </trkpt>
      <trkpt lat="42.5954507478" lon="20.0847609714">
        <ele>2168.87</ele>
        <time>2019-07-10T08:17:50Z</time>
      </trkpt>
      <trkpt lat="42.5954966806" lon="20.0846820977">
        <ele>2169.35</ele>
        <time>2019-07-10T08:18:00Z</time>
      </trkpt>
      <trkpt lat="42.5955382548" lon="20.0847306289">
        <ele>2169.35</ele>
        <time>2019-07-10T08:18:06Z</time>
      </trkpt>
      <trkpt lat="42.5955644064" lon="20.0847783219">
        <ele>2169.35</ele>
        <time>2019-07-10T08:18:10Z</time>
      </trkpt>
      <trkpt lat="42.5957695115" lon="20.0848471373">
        <ele>2170.79</ele>
        <time>2019-07-10T08:18:28Z</time>
      </trkpt>
      <trkpt lat="42.5958576053" lon="20.0848342292">
        <ele>2171.27</ele>
        <time>2019-07-10T08:18:36Z</time>
      </trkpt>
      <trkpt lat="42.5958970003" lon="20.0848561060">
        <ele>2171.27</ele>
        <time>2019-07-10T08:18:40Z</time>
      </trkpt>
      <trkpt lat="42.5960789714" lon="20.0848936569">
        <ele>2172.24</ele>
        <time>2019-07-10T08:18:56Z</time>
      </trkpt>
      <trkpt lat="42.5962136686" lon="20.0849628076">
        <ele>2173.68</ele>
        <time>2019-07-10T08:19:10Z</time>
      </trkpt>
      <trkpt lat="42.5963505451" lon="20.0849934015">
        <ele>2175.12</ele>
        <time>2019-07-10T08:19:24Z</time>
      </trkpt>
      <trkpt lat="42.5964252278" lon="20.0849958323">
        <ele>2176.56</ele>
        <time>2019-07-10T08:19:32Z</time>
      </trkpt>
      <trkpt lat="42.5964409858" lon="20.0850049686">
        <ele>2176.56</ele>
        <time>2019-07-10T08:19:34Z</time>
      </trkpt>
      <trkpt lat="42.5965930335" lon="20.0850190502">
        <ele>2179.45</ele>
        <time>2019-07-10T08:19:50Z</time>
      </trkpt>
      <trkpt lat="42.5967037585" lon="20.0850222353">
        <ele>2180.89</ele>
        <time>2019-07-10T08:20:01Z</time>
      </trkpt>
      <trkpt lat="42.5968352705" lon="20.0849142764">
        <ele>2181.37</ele>
        <time>2019-07-10T08:20:16Z</time>
      </trkpt>
      <trkpt lat="42.5969213527" lon="20.0848561898">
        <ele>2181.37</ele>
        <time>2019-07-10T08:20:27Z</time>
      </trkpt>
      <trkpt lat="42.5969319139" lon="20.0848317146">
        <ele>2181.85</ele>
        <time>2019-07-10T08:20:39Z</time>
      </trkpt>
      <trkpt lat="42.5969382841" lon="20.0848281104">
        <ele>2181.85</ele>
        <time>2019-07-10T08:20:57Z</time>
      </trkpt>
      <trkpt lat="42.5969439000" lon="20.0848313794">
        <ele>2181.85</ele>
        <time>2019-07-10T08:21:00Z</time>
      </trkpt>
      <trkpt lat="42.5969503541" lon="20.0848051440">
        <ele>2181.85</ele>
        <time>2019-07-10T08:21:15Z</time>
      </trkpt>
      <trkpt lat="42.5969709735" lon="20.0848141126">
        <ele>2181.85</ele>
        <time>2019-07-10T08:21:36Z</time>
      </trkpt>
      <trkpt lat="42.5969980471" lon="20.0847949181">
        <ele>2181.85</ele>
        <time>2019-07-10T08:21:42Z</time>
      </trkpt>
      <trkpt lat="42.5970480032" lon="20.0847636536">
        <ele>2181.85</ele>
        <time>2019-07-10T08:21:47Z</time>
      </trkpt>
      <trkpt lat="42.5970675331" lon="20.0847528409">
        <ele>2181.85</ele>
        <time>2019-07-10T08:21:49Z</time>
      </trkpt>
      <trkpt lat="42.5971192494" lon="20.0847449619">
        <ele>2181.85</ele>
        <time>2019-07-10T08:21:54Z</time>
      </trkpt>
      <trkpt lat="42.5971784256" lon="20.0847563613">
        <ele>2181.85</ele>
        <time>2019-07-10T08:21:59Z</time>
      </trkpt>
      <trkpt lat="42.5973684434" lon="20.0848217402">
        <ele>2181.85</ele>
        <time>2019-07-10T08:22:16Z</time>
      </trkpt>
      <trkpt lat="42.5975867081" lon="20.0847835187">
        <ele>2181.85</ele>
        <time>2019-07-10T08:22:33Z</time>
      </trkpt>
      <trkpt lat="42.5977574475" lon="20.0847252645">
        <ele>2182.81</ele>
        <time>2019-07-10T08:22:48Z</time>
      </trkpt>
      <trkpt lat="42.5978884567" lon="20.0847647432">
        <ele>2183.77</ele>
        <time>2019-07-10T08:23:01Z</time>
      </trkpt>
      <trkpt lat="42.5980107486" lon="20.0846771523">
        <ele>2187.14</ele>
        <time>2019-07-10T08:23:15Z</time>
      </trkpt>
      <trkpt lat="42.5981221441" lon="20.0846251007">
        <ele>2189.06</ele>
        <time>2019-07-10T08:23:29Z</time>
      </trkpt>
      <trkpt lat="42.5981423445" lon="20.0845879689">
        <ele>2189.06</ele>
        <time>2019-07-10T08:23:33Z</time>
      </trkpt>
      <trkpt lat="42.5981768779" lon="20.0845407788">
        <ele>2190.02</ele>
        <time>2019-07-10T08:23:38Z</time>
      </trkpt>
      <trkpt lat="42.5982491300" lon="20.0844850391">
        <ele>2191.94</ele>
        <time>2019-07-10T08:23:49Z</time>
      </trkpt>
      <trkpt lat="42.5983457733" lon="20.0844389386">
        <ele>2194.83</ele>
        <time>2019-07-10T08:24:00Z</time>
      </trkpt>
      <trkpt lat="42.5983912032" lon="20.0844096858">
        <ele>2195.31</ele>
        <time>2019-07-10T08:24:06Z</time>
      </trkpt>
      <trkpt lat="42.5984621141" lon="20.0843300577">
        <ele>2195.31</ele>
        <time>2019-07-10T08:24:16Z</time>
      </trkpt>
      <trkpt lat="42.5984710827" lon="20.0843005534">
        <ele>2196.27</ele>
        <time>2019-07-10T08:24:19Z</time>
      </trkpt>
      <trkpt lat="42.5985379703" lon="20.0842311513">
        <ele>2198.67</ele>
        <time>2019-07-10T08:24:31Z</time>
      </trkpt>
      <trkpt lat="42.5985736772" lon="20.0842303131">
        <ele>2200.59</ele>
        <time>2019-07-10T08:24:37Z</time>
      </trkpt>
      <trkpt lat="42.5986403972" lon="20.0842242781">
        <ele>2201.56</ele>
        <time>2019-07-10T08:24:46Z</time>
      </trkpt>
      <trkpt lat="42.5986710750" lon="20.0841977913">
        <ele>2201.56</ele>
        <time>2019-07-10T08:24:50Z</time>
      </trkpt>
      <trkpt lat="42.5986901019" lon="20.0841818657">
        <ele>2202.52</ele>
        <time>2019-07-10T08:24:52Z</time>
      </trkpt>
      <trkpt lat="42.5987070333" lon="20.0841203425">
        <ele>2204.92</ele>
        <time>2019-07-10T08:24:58Z</time>
      </trkpt>
      <trkpt lat="42.5987327658" lon="20.0840332545">
        <ele>2205.88</ele>
        <time>2019-07-10T08:25:07Z</time>
      </trkpt>
      <trkpt lat="42.5987691432" lon="20.0839468371">
        <ele>2207.32</ele>
        <time>2019-07-10T08:25:19Z</time>
      </trkpt>
      <trkpt lat="42.5988478493" lon="20.0838171691">
        <ele>2209.73</ele>
        <time>2019-07-10T08:25:33Z</time>
      </trkpt>
      <trkpt lat="42.5989062712" lon="20.0837395526">
        <ele>2209.25</ele>
        <time>2019-07-10T08:25:41Z</time>
      </trkpt>
      <trkpt lat="42.5989553053" lon="20.0836943742">
        <ele>2209.73</ele>
        <time>2019-07-10T08:25:47Z</time>
      </trkpt>
      <trkpt lat="42.5991072692" lon="20.0835826434">
        <ele>2209.73</ele>
        <time>2019-07-10T08:26:01Z</time>
      </trkpt>
      <trkpt lat="42.5991350971" lon="20.0834784564">
        <ele>2208.29</ele>
        <time>2019-07-10T08:26:10Z</time>
      </trkpt>
      <trkpt lat="42.5991538726" lon="20.0834694877">
        <ele>2208.29</ele>
        <time>2019-07-10T08:26:12Z</time>
      </trkpt>
      <trkpt lat="42.5992387813" lon="20.0834786240">
        <ele>2208.29</ele>
        <time>2019-07-10T08:26:19Z</time>
      </trkpt>
      <trkpt lat="42.5993005559" lon="20.0834542327">
        <ele>2209.25</ele>
        <time>2019-07-10T08:26:26Z</time>
      </trkpt>
      <trkpt lat="42.5994238537" lon="20.0834438391">
        <ele>2210.21</ele>
        <time>2019-07-10T08:26:37Z</time>
      </trkpt>
      <trkpt lat="42.5995234307" lon="20.0833851658">
        <ele>2213.09</ele>
        <time>2019-07-10T08:26:49Z</time>
      </trkpt>
      <trkpt lat="42.5995486602" lon="20.0833747722">
        <ele>2211.17</ele>
        <time>2019-07-10T08:26:51Z</time>
      </trkpt>
      <trkpt lat="42.5996554457" lon="20.0833451003">
        <ele>2212.13</ele>
        <time>2019-07-10T08:27:00Z</time>
      </trkpt>
      <trkpt lat="42.5996921584" lon="20.0833310187">
        <ele>2213.57</ele>
        <time>2019-07-10T08:27:04Z</time>
      </trkpt>
      <trkpt lat="42.5998468883" lon="20.0832538214">
        <ele>2215.01</ele>
        <time>2019-07-10T08:27:20Z</time>
      </trkpt>
      <trkpt lat="42.5999592058" lon="20.0831184536">
        <ele>2215.50</ele>
        <time>2019-07-10T08:27:34Z</time>
      </trkpt>
      <trkpt lat="42.6001027878" lon="20.0830212235">
        <ele>2216.46</ele>
        <time>2019-07-10T08:27:49Z</time>
      </trkpt>
      <trkpt lat="42.6002141833" lon="20.0828817487">
        <ele>2218.86</ele>
        <time>2019-07-10T08:28:03Z</time>
      </trkpt>
      <trkpt lat="42.6003646385" lon="20.0827793218">
        <ele>2219.34</ele>
        <time>2019-07-10T08:28:17Z</time>
      </trkpt>
      <trkpt lat="42.6005202904" lon="20.0828338042">
        <ele>2221.26</ele>
        <time>2019-07-10T08:28:33Z</time>
      </trkpt>
      <trkpt lat="42.6005824003" lon="20.0828787312">
        <ele>2221.74</ele>
        <time>2019-07-10T08:28:40Z</time>
      </trkpt>
      <trkpt lat="42.6006325241" lon="20.0829758774">
        <ele>2222.71</ele>
        <time>2019-07-10T08:28:48Z</time>
      </trkpt>
      <trkpt lat="42.6006609388" lon="20.0830598641">
        <ele>2223.67</ele>
        <time>2019-07-10T08:28:54Z</time>
      </trkpt>
      <trkpt lat="42.6006958075" lon="20.0831024442">
        <ele>2224.15</ele>
        <time>2019-07-10T08:28:59Z</time>
      </trkpt>
      <trkpt lat="42.6007837337" lon="20.0832389016">
        <ele>2226.55</ele>
        <time>2019-07-10T08:29:13Z</time>
      </trkpt>
      <trkpt lat="42.6008578297" lon="20.0833657198">
        <ele>2227.99</ele>
        <time>2019-07-10T08:29:28Z</time>
      </trkpt>
      <trkpt lat="42.6008879207" lon="20.0834494550">
        <ele>2229.92</ele>
        <time>2019-07-10T08:29:37Z</time>
      </trkpt>
      <trkpt lat="42.6009556465" lon="20.0835958030">
        <ele>2231.36</ele>
        <time>2019-07-10T08:29:50Z</time>
      </trkpt>
      <trkpt lat="42.6009628549" lon="20.0836022571">
        <ele>2231.36</ele>
        <time>2019-07-10T08:29:51Z</time>
      </trkpt>
      <trkpt lat="42.6010088716" lon="20.0836591702">
        <ele>2233.28</ele>
        <time>2019-07-10T08:29:59Z</time>
      </trkpt>
      <trkpt lat="42.6010621805" lon="20.0837320928">
        <ele>2235.68</ele>
        <time>2019-07-10T08:30:12Z</time>
      </trkpt>
      <trkpt lat="42.6011106279" lon="20.0838201866">
        <ele>2237.61</ele>
        <time>2019-07-10T08:30:23Z</time>
      </trkpt>
      <trkpt lat="42.6011377852" lon="20.0838605035">
        <ele>2238.09</ele>
        <time>2019-07-10T08:30:28Z</time>
      </trkpt>
      <trkpt lat="42.6011550520" lon="20.0839079451">
        <ele>2238.57</ele>
        <time>2019-07-10T08:30:32Z</time>
      </trkpt>
      <trkpt lat="42.6011946145" lon="20.0840278901">
        <ele>2240.01</ele>
        <time>2019-07-10T08:30:42Z</time>
      </trkpt>
      <trkpt lat="42.6012501866" lon="20.0841081049">
        <ele>2242.41</ele>
        <time>2019-07-10T08:30:56Z</time>
      </trkpt>
      <trkpt lat="42.6012584846" lon="20.0841321610">
        <ele>2242.41</ele>
        <time>2019-07-10T08:30:58Z</time>
      </trkpt>
      <trkpt lat="42.6013361011" lon="20.0842704624">
        <ele>2243.37</ele>
        <time>2019-07-10T08:31:11Z</time>
      </trkpt>
      <trkpt lat="42.6013489254" lon="20.0843023974">
        <ele>2243.37</ele>
        <time>2019-07-10T08:31:13Z</time>
      </trkpt>
      <trkpt lat="42.6013964508" lon="20.0843347516">
        <ele>2244.33</ele>
        <time>2019-07-10T08:31:20Z</time>
      </trkpt>
      <trkpt lat="42.6014769170" lon="20.0844588876">
        <ele>2245.30</ele>
        <time>2019-07-10T08:31:34Z</time>
      </trkpt>
      <trkpt lat="42.6015530247" lon="20.0845308043">
        <ele>2246.74</ele>
        <time>2019-07-10T08:31:46Z</time>
      </trkpt>
      <trkpt lat="42.6016674377" lon="20.0845842808">
        <ele>2249.14</ele>
        <time>2019-07-10T08:32:01Z</time>
      </trkpt>
      <trkpt lat="42.6016741432" lon="20.0845025573">
        <ele>2251.06</ele>
        <time>2019-07-10T08:32:13Z</time>
      </trkpt>
      <trkpt lat="42.6016750652" lon="20.0844993722">
        <ele>2251.06</ele>
        <time>2019-07-10T08:32:35Z</time>
      </trkpt>
      <trkpt lat="42.6016816869" lon="20.0845269486">
        <ele>2251.06</ele>
        <time>2019-07-10T08:33:01Z</time>
      </trkpt>
      <trkpt lat="42.6016997918" lon="20.0845198240">
        <ele>2251.06</ele>
        <time>2019-07-10T08:33:16Z</time>
      </trkpt>
      <trkpt lat="42.6017044857" lon="20.0845653377">
        <ele>2251.06</ele>
        <time>2019-07-10T08:33:29Z</time>
      </trkpt>
      <trkpt lat="42.6017033961" lon="20.0845327321">
        <ele>2251.06</ele>
        <time>2019-07-10T08:33:32Z</time>
      </trkpt>
      <trkpt lat="42.6017128676" lon="20.0843830314">
        <ele>2252.03</ele>
        <time>2019-07-10T08:33:46Z</time>
      </trkpt>
      <trkpt lat="42.6017095987" lon="20.0842125434">
        <ele>2251.06</ele>
        <time>2019-07-10T08:34:01Z</time>
      </trkpt>
      <trkpt lat="42.6017364208" lon="20.0841890741">
        <ele>2252.51</ele>
        <time>2019-07-10T08:34:05Z</time>
      </trkpt>
      <trkpt lat="42.6017769054" lon="20.0840894133">
        <ele>2254.43</ele>
        <time>2019-07-10T08:34:16Z</time>
      </trkpt>
      <trkpt lat="42.6017746422" lon="20.0840563886">
        <ele>2254.43</ele>
        <time>2019-07-10T08:34:19Z</time>
      </trkpt>
      <trkpt lat="42.6017326489" lon="20.0838798657">
        <ele>2255.87</ele>
        <time>2019-07-10T08:34:36Z</time>
      </trkpt>
      <trkpt lat="42.6017297991" lon="20.0838620123">
        <ele>2257.79</ele>
        <time>2019-07-10T08:34:52Z</time>
      </trkpt>
      <trkpt lat="42.6017256919" lon="20.0838642754">
        <ele>2256.35</ele>
        <time>2019-07-10T08:34:57Z</time>
      </trkpt>
      <trkpt lat="42.6017326489" lon="20.0838807039">
        <ele>2256.35</ele>
        <time>2019-07-10T08:35:23Z</time>
      </trkpt>
      <trkpt lat="42.6017354149" lon="20.0838652812">
        <ele>2256.35</ele>
        <time>2019-07-10T08:35:40Z</time>
      </trkpt>
      <trkpt lat="42.6017262787" lon="20.0838666223">
        <ele>2255.87</ele>
        <time>2019-07-10T08:36:00Z</time>
      </trkpt>
      <trkpt lat="42.6017317269" lon="20.0838701427">
        <ele>2257.79</ele>
        <time>2019-07-10T08:36:22Z</time>
      </trkpt>
      <trkpt lat="42.6017401088" lon="20.0838684663">
        <ele>2258.27</ele>
        <time>2019-07-10T08:36:43Z</time>
      </trkpt>
      <trkpt lat="42.6017358340" lon="20.0838587433">
        <ele>2256.35</ele>
        <time>2019-07-10T08:36:59Z</time>
      </trkpt>
      <trkpt lat="42.6017228421" lon="20.0838489365">
        <ele>2256.35</ele>
        <time>2019-07-10T08:37:25Z</time>
      </trkpt>
      <trkpt lat="42.6017112751" lon="20.0838678796">
        <ele>2257.79</ele>
        <time>2019-07-10T08:37:35Z</time>
      </trkpt>
      <trkpt lat="42.6017025579" lon="20.0838507805">
        <ele>2256.35</ele>
        <time>2019-07-10T08:37:55Z</time>
      </trkpt>
      <trkpt lat="42.6017323975" lon="20.0838198513">
        <ele>2255.87</ele>
        <time>2019-07-10T08:38:16Z</time>
      </trkpt>
      <trkpt lat="42.6017453056" lon="20.0838198513">
        <ele>2255.87</ele>
        <time>2019-07-10T08:38:18Z</time>
      </trkpt>
      <trkpt lat="42.6017822698" lon="20.0837981422">
        <ele>2252.51</ele>
        <time>2019-07-10T08:38:27Z</time>
      </trkpt>
      <trkpt lat="42.6017846167" lon="20.0837721583">
        <ele>2252.03</ele>
        <time>2019-07-10T08:38:34Z</time>
      </trkpt>
      <trkpt lat="42.6018347405" lon="20.0837576576">
        <ele>2249.62</ele>
        <time>2019-07-10T08:38:39Z</time>
      </trkpt>
      <trkpt lat="42.6018517558" lon="20.0837329309">
        <ele>2248.18</ele>
        <time>2019-07-10T08:38:42Z</time>
      </trkpt>
      <trkpt lat="42.6018366683" lon="20.0836895965">
        <ele>2246.74</ele>
        <time>2019-07-10T08:38:45Z</time>
      </trkpt>
      <trkpt lat="42.6018152945" lon="20.0836013351">
        <ele>2245.30</ele>
        <time>2019-07-10T08:38:51Z</time>
      </trkpt>
      <trkpt lat="42.6018044818" lon="20.0835364591">
        <ele>2243.85</ele>
        <time>2019-07-10T08:38:55Z</time>
      </trkpt>
      <trkpt lat="42.6017907355" lon="20.0835001655">
        <ele>2243.37</ele>
        <time>2019-07-10T08:38:58Z</time>
      </trkpt>
      <trkpt lat="42.6018122770" lon="20.0834393129">
        <ele>2241.45</ele>
        <time>2019-07-10T08:39:02Z</time>
      </trkpt>
      <trkpt lat="42.6017995365" lon="20.0833620317">
        <ele>2239.05</ele>
        <time>2019-07-10T08:39:07Z</time>
      </trkpt>
      <trkpt lat="42.6018002909" lon="20.0832770392">
        <ele>2236.64</ele>
        <time>2019-07-10T08:39:13Z</time>
      </trkpt>
      <trkpt lat="42.6017883886" lon="20.0832341239">
        <ele>2235.20</ele>
        <time>2019-07-10T08:39:16Z</time>
      </trkpt>
      <trkpt lat="42.6018577069" lon="20.0830296054">
        <ele>2231.84</ele>
        <time>2019-07-10T08:39:30Z</time>
      </trkpt>
      <trkpt lat="42.6018878818" lon="20.0829234067">
        <ele>2230.40</ele>
        <time>2019-07-10T08:39:37Z</time>
      </trkpt>
      <trkpt lat="42.6019970141" lon="20.0827797409">
        <ele>2227.03</ele>
        <time>2019-07-10T08:39:51Z</time>
      </trkpt>
      <trkpt lat="42.6020467188" lon="20.0827072375">
        <ele>2224.63</ele>
        <time>2019-07-10T08:40:01Z</time>
      </trkpt>
      <trkpt lat="42.6020431984" lon="20.0826139469">
        <ele>2224.15</ele>
        <time>2019-07-10T08:40:09Z</time>
      </trkpt>
      <trkpt lat="42.6021135226" lon="20.0824738014">
        <ele>2220.78</ele>
        <time>2019-07-10T08:40:19Z</time>
      </trkpt>
      <trkpt lat="42.6022120938" lon="20.0822767429">
        <ele>2217.90</ele>
        <time>2019-07-10T08:40:35Z</time>
      </trkpt>
      <trkpt lat="42.6023380738" lon="20.0821104459">
        <ele>2214.53</ele>
        <time>2019-07-10T08:40:49Z</time>
      </trkpt>
      <trkpt lat="42.6023474615" lon="20.0820990466">
        <ele>2215.01</ele>
        <time>2019-07-10T08:40:50Z</time>
      </trkpt>
      <trkpt lat="42.6023631357" lon="20.0820525270">
        <ele>2214.53</ele>
        <time>2019-07-10T08:40:53Z</time>
      </trkpt>
      <trkpt lat="42.6023791451" lon="20.0820296444">
        <ele>2214.05</ele>
        <time>2019-07-10T08:40:55Z</time>
      </trkpt>
      <trkpt lat="42.6024079788" lon="20.0819807779">
        <ele>2213.09</ele>
        <time>2019-07-10T08:40:59Z</time>
      </trkpt>
      <trkpt lat="42.6024027821" lon="20.0819367729">
        <ele>2211.65</ele>
        <time>2019-07-10T08:41:02Z</time>
      </trkpt>
      <trkpt lat="42.6023545023" lon="20.0817686319">
        <ele>2211.17</ele>
        <time>2019-07-10T08:41:13Z</time>
      </trkpt>
      <trkpt lat="42.6023546699" lon="20.0817006547">
        <ele>2210.21</ele>
        <time>2019-07-10T08:41:17Z</time>
      </trkpt>
      <trkpt lat="42.6023824140" lon="20.0815361179">
        <ele>2207.32</ele>
        <time>2019-07-10T08:41:32Z</time>
      </trkpt>
      <trkpt lat="42.6024200488" lon="20.0816292409">
        <ele>2204.92</ele>
        <time>2019-07-10T08:41:45Z</time>
      </trkpt>
      <trkpt lat="42.6024330407" lon="20.0816487707">
        <ele>2204.44</ele>
        <time>2019-07-10T08:41:47Z</time>
      </trkpt>
      <trkpt lat="42.6024962403" lon="20.0816248823">
        <ele>2202.04</ele>
        <time>2019-07-10T08:41:54Z</time>
      </trkpt>
      <trkpt lat="42.6025199611" lon="20.0816360302">
        <ele>2201.08</ele>
        <time>2019-07-10T08:41:57Z</time>
      </trkpt>
      <trkpt lat="42.6025933027" lon="20.0817306619">
        <ele>2199.15</ele>
        <time>2019-07-10T08:42:06Z</time>
      </trkpt>
      <trkpt lat="42.6026767027" lon="20.0817353558">
        <ele>2197.23</ele>
        <time>2019-07-10T08:42:13Z</time>
      </trkpt>
      <trkpt lat="42.6027106494" lon="20.0817473419">
        <ele>2195.79</ele>
        <time>2019-07-10T08:42:16Z</time>
      </trkpt>
      <trkpt lat="42.6027450990" lon="20.0817004032">
        <ele>2195.31</ele>
        <time>2019-07-10T08:42:20Z</time>
      </trkpt>
      <trkpt lat="42.6027756091" lon="20.0817037560">
        <ele>2193.87</ele>
        <time>2019-07-10T08:42:24Z</time>
      </trkpt>
      <trkpt lat="42.6027927082" lon="20.0817407202">
        <ele>2192.90</ele>
        <time>2019-07-10T08:42:28Z</time>
      </trkpt>
      <trkpt lat="42.6028360426" lon="20.0817737449">
        <ele>2191.94</ele>
        <time>2019-07-10T08:42:32Z</time>
      </trkpt>
      <trkpt lat="42.6028667204" lon="20.0818266347">
        <ele>2190.50</ele>
        <time>2019-07-10T08:42:36Z</time>
      </trkpt>
      <trkpt lat="42.6029155031" lon="20.0817926880">
        <ele>2189.54</ele>
        <time>2019-07-10T08:42:41Z</time>
      </trkpt>
      <trkpt lat="42.6029250585" lon="20.0817214418">
        <ele>2189.06</ele>
        <time>2019-07-10T08:42:46Z</time>
      </trkpt>
      <trkpt lat="42.6030037645" lon="20.0815470144">
        <ele>2185.69</ele>
        <time>2019-07-10T08:42:59Z</time>
      </trkpt>
      <trkpt lat="42.6030279882" lon="20.0815300830">
        <ele>2184.73</ele>
        <time>2019-07-10T08:43:01Z</time>
      </trkpt>
      <trkpt lat="42.6030620188" lon="20.0814394746">
        <ele>2182.81</ele>
        <time>2019-07-10T08:43:07Z</time>
      </trkpt>
      <trkpt lat="42.6030449197" lon="20.0813459326">
        <ele>2181.85</ele>
        <time>2019-07-10T08:43:13Z</time>
      </trkpt>
      <trkpt lat="42.6030559000" lon="20.0812507141">
        <ele>2179.93</ele>
        <time>2019-07-10T08:43:19Z</time>
      </trkpt>
      <trkpt lat="42.6029783674" lon="20.0809647236">
        <ele>2178.97</ele>
        <time>2019-07-10T08:43:36Z</time>
      </trkpt>
      <trkpt lat="42.6029085461" lon="20.0807043817">
        <ele>2177.04</ele>
        <time>2019-07-10T08:43:50Z</time>
      </trkpt>
      <trkpt lat="42.6029716618" lon="20.0804353226">
        <ele>2175.12</ele>
        <time>2019-07-10T08:44:05Z</time>
      </trkpt>
      <trkpt lat="42.6030194387" lon="20.0802623201">
        <ele>2174.16</ele>
        <time>2019-07-10T08:44:17Z</time>
      </trkpt>
      <trkpt lat="42.6032281481" lon="20.0801198278">
        <ele>2172.24</ele>
        <time>2019-07-10T08:44:34Z</time>
      </trkpt>
      <trkpt lat="42.6033290662" lon="20.0799125433">
        <ele>2169.83</ele>
        <time>2019-07-10T08:44:47Z</time>
      </trkpt>
      <trkpt lat="42.6033638511" lon="20.0798477512">
        <ele>2168.87</ele>
        <time>2019-07-10T08:44:51Z</time>
      </trkpt>
      <trkpt lat="42.6034447365" lon="20.0795918517">
        <ele>2166.95</ele>
        <time>2019-07-10T08:45:07Z</time>
      </trkpt>
      <trkpt lat="42.6034817845" lon="20.0794835575">
        <ele>2165.51</ele>
        <time>2019-07-10T08:45:14Z</time>
      </trkpt>
      <trkpt lat="42.6035498455" lon="20.0792558212">
        <ele>2163.58</ele>
        <time>2019-07-10T08:45:28Z</time>
      </trkpt>
      <trkpt lat="42.6035573054" lon="20.0792284124">
        <ele>2162.14</ele>
        <time>2019-07-10T08:45:30Z</time>
      </trkpt>
      <trkpt lat="42.6035656035" lon="20.0790953077">
        <ele>2158.78</ele>
        <time>2019-07-10T08:45:39Z</time>
      </trkpt>
      <trkpt lat="42.6035541203" lon="20.0790683180">
        <ele>2157.82</ele>
        <time>2019-07-10T08:45:41Z</time>
      </trkpt>
      <trkpt lat="42.6035187487" lon="20.0789907854">
        <ele>2156.37</ele>
        <time>2019-07-10T08:45:46Z</time>
      </trkpt>
      <trkpt lat="42.6034970395" lon="20.0789331179">
        <ele>2155.89</ele>
        <time>2019-07-10T08:45:51Z</time>
      </trkpt>
      <trkpt lat="42.6035303995" lon="20.0788892806">
        <ele>2157.34</ele>
        <time>2019-07-10T08:45:59Z</time>
      </trkpt>
      <trkpt lat="42.6035180781" lon="20.0789323635">
        <ele>2157.34</ele>
        <time>2019-07-10T08:46:05Z</time>
      </trkpt>
      <trkpt lat="42.6035847981" lon="20.0790331140">
        <ele>2155.89</ele>
        <time>2019-07-10T08:46:13Z</time>
      </trkpt>
      <trkpt lat="42.6036155596" lon="20.0790928770">
        <ele>2155.89</ele>
        <time>2019-07-10T08:46:22Z</time>
      </trkpt>
      <trkpt lat="42.6036495063" lon="20.0791427493">
        <ele>2155.89</ele>
        <time>2019-07-10T08:46:26Z</time>
      </trkpt>
      <trkpt lat="42.6036921702" lon="20.0792774465">
        <ele>2155.41</ele>
        <time>2019-07-10T08:46:35Z</time>
      </trkpt>
      <trkpt lat="42.6037508436" lon="20.0794975553">
        <ele>2153.49</ele>
        <time>2019-07-10T08:46:49Z</time>
      </trkpt>
      <trkpt lat="42.6037530228" lon="20.0795179233">
        <ele>2153.01</ele>
        <time>2019-07-10T08:46:51Z</time>
      </trkpt>
      <trkpt lat="42.6037627459" lon="20.0795440748">
        <ele>2152.53</ele>
        <time>2019-07-10T08:46:53Z</time>
      </trkpt>
      <trkpt lat="42.6038414519" lon="20.0795649458">
        <ele>2151.09</ele>
        <time>2019-07-10T08:47:00Z</time>
      </trkpt>
      <trkpt lat="42.6039064955" lon="20.0798127148">
        <ele>2150.61</ele>
        <time>2019-07-10T08:47:16Z</time>
      </trkpt>
      <trkpt lat="42.6040243451" lon="20.0800199993">
        <ele>2147.72</ele>
        <time>2019-07-10T08:47:30Z</time>
      </trkpt>
      <trkpt lat="42.6041416079" lon="20.0801230129">
        <ele>2144.36</ele>
        <time>2019-07-10T08:47:40Z</time>
      </trkpt>
      <trkpt lat="42.6043213997" lon="20.0801548641">
        <ele>2142.92</ele>
        <time>2019-07-10T08:47:53Z</time>
      </trkpt>
      <trkpt lat="42.6043875329" lon="20.0801878888">
        <ele>2141.47</ele>
        <time>2019-07-10T08:47:58Z</time>
      </trkpt>
      <trkpt lat="42.6045277622" lon="20.0802876335">
        <ele>2138.11</ele>
        <time>2019-07-10T08:48:09Z</time>
      </trkpt>
      <trkpt lat="42.6047118288" lon="20.0804837700">
        <ele>2135.71</ele>
        <time>2019-07-10T08:48:26Z</time>
      </trkpt>
      <trkpt lat="42.6048235595" lon="20.0806130189">
        <ele>2134.26</ele>
        <time>2019-07-10T08:48:36Z</time>
      </trkpt>
      <trkpt lat="42.6048842445" lon="20.0806319620">
        <ele>2132.34</ele>
        <time>2019-07-10T08:48:41Z</time>
      </trkpt>
      <trkpt lat="42.6050073747" lon="20.0807343051">
        <ele>2128.50</ele>
        <time>2019-07-10T08:48:51Z</time>
      </trkpt>
      <trkpt lat="42.6050272398" lon="20.0807623845">
        <ele>2127.53</ele>
        <time>2019-07-10T08:48:53Z</time>
      </trkpt>
      <trkpt lat="42.6051268168" lon="20.0808563456">
        <ele>2124.17</ele>
        <time>2019-07-10T08:49:02Z</time>
      </trkpt>
      <trkpt lat="42.6052346081" lon="20.0809191260">
        <ele>2120.81</ele>
        <time>2019-07-10T08:49:12Z</time>
      </trkpt>
      <trkpt lat="42.6052455045" lon="20.0809244905">
        <ele>2120.32</ele>
        <time>2019-07-10T08:49:13Z</time>
      </trkpt>
      <trkpt lat="42.6052703988" lon="20.0809455290">
        <ele>2120.32</ele>
        <time>2019-07-10T08:49:15Z</time>
      </trkpt>
      <trkpt lat="42.6053134818" lon="20.0810033642">
        <ele>2118.88</ele>
        <time>2019-07-10T08:49:19Z</time>
      </trkpt>
      <trkpt lat="42.6054249611" lon="20.0810673181">
        <ele>2115.52</ele>
        <time>2019-07-10T08:49:28Z</time>
      </trkpt>
      <trkpt lat="42.6055799425" lon="20.0812213775">
        <ele>2112.15</ele>
        <time>2019-07-10T08:49:41Z</time>
      </trkpt>
      <trkpt lat="42.6057604887" lon="20.0813595951">
        <ele>2108.79</ele>
        <time>2019-07-10T08:49:55Z</time>
      </trkpt>
      <trkpt lat="42.6059467345" lon="20.0814924482">
        <ele>2104.94</ele>
        <time>2019-07-10T08:50:09Z</time>
      </trkpt>
      <trkpt lat="42.6061316393" lon="20.0815234613">
        <ele>2101.58</ele>
        <time>2019-07-10T08:50:21Z</time>
      </trkpt>
      <trkpt lat="42.6063553523" lon="20.0815662928">
        <ele>2099.18</ele>
        <time>2019-07-10T08:50:36Z</time>
      </trkpt>
      <trkpt lat="42.6064447034" lon="20.0815902650">
        <ele>2098.21</ele>
        <time>2019-07-10T08:50:48Z</time>
      </trkpt>
      <trkpt lat="42.6064630598" lon="20.0815609284">
        <ele>2098.21</ele>
        <time>2019-07-10T08:50:59Z</time>
      </trkpt>
      <trkpt lat="42.6065819152" lon="20.0814742595">
        <ele>2096.77</ele>
        <time>2019-07-10T08:51:16Z</time>
      </trkpt>
      <trkpt lat="42.6065855194" lon="20.0814845692">
        <ele>2096.29</ele>
        <time>2019-07-10T08:51:27Z</time>
      </trkpt>
      <trkpt lat="42.6066151913" lon="20.0815554801">
        <ele>2095.81</ele>
        <time>2019-07-10T08:51:32Z</time>
      </trkpt>
      <trkpt lat="42.6066871081" lon="20.0816996489">
        <ele>2093.41</ele>
        <time>2019-07-10T08:51:42Z</time>
      </trkpt>
      <trkpt lat="42.6068586018" lon="20.0818110444">
        <ele>2090.04</ele>
        <time>2019-07-10T08:51:56Z</time>
      </trkpt>
      <trkpt lat="42.6069995854" lon="20.0818930194">
        <ele>2087.16</ele>
        <time>2019-07-10T08:52:07Z</time>
      </trkpt>
      <trkpt lat="42.6071513817" lon="20.0819734018">
        <ele>2083.79</ele>
        <time>2019-07-10T08:52:19Z</time>
      </trkpt>
      <trkpt lat="42.6071760245" lon="20.0819785986">
        <ele>2083.79</ele>
        <time>2019-07-10T08:52:21Z</time>
      </trkpt>
      <trkpt lat="42.6072286628" lon="20.0820052531">
        <ele>2082.83</ele>
        <time>2019-07-10T08:52:25Z</time>
      </trkpt>
      <trkpt lat="42.6074049342" lon="20.0819783472">
        <ele>2079.47</ele>
        <time>2019-07-10T08:52:39Z</time>
      </trkpt>
      <trkpt lat="42.6075353567" lon="20.0820011459">
        <ele>2075.62</ele>
        <time>2019-07-10T08:52:50Z</time>
      </trkpt>
      <trkpt lat="42.6075558923" lon="20.0819880702">
        <ele>2075.14</ele>
        <time>2019-07-10T08:52:52Z</time>
      </trkpt>
      <trkpt lat="42.6076769270" lon="20.0819530338">
        <ele>2072.74</ele>
        <time>2019-07-10T08:53:02Z</time>
      </trkpt>
      <trkpt lat="42.6077982131" lon="20.0821088534">
        <ele>2068.41</ele>
        <time>2019-07-10T08:53:14Z</time>
      </trkpt>
      <trkpt lat="42.6079408731" lon="20.0822536089">
        <ele>2065.53</ele>
        <time>2019-07-10T08:53:25Z</time>
      </trkpt>
      <trkpt lat="42.6080992911" lon="20.0823227596">
        <ele>2062.17</ele>
        <time>2019-07-10T08:53:36Z</time>
      </trkpt>
      <trkpt lat="42.6082841121" lon="20.0823629089">
        <ele>2058.80</ele>
        <time>2019-07-10T08:53:49Z</time>
      </trkpt>
      <trkpt lat="42.6084930729" lon="20.0824024715">
        <ele>2056.88</ele>
        <time>2019-07-10T08:54:04Z</time>
      </trkpt>
      <trkpt lat="42.6086639799" lon="20.0824252702">
        <ele>2053.51</ele>
        <time>2019-07-10T08:54:16Z</time>
      </trkpt>
      <trkpt lat="42.6088125911" lon="20.0824365020">
        <ele>2050.63</ele>
        <time>2019-07-10T08:54:27Z</time>
      </trkpt>
      <trkpt lat="42.6089572627" lon="20.0824521761">
        <ele>2047.75</ele>
        <time>2019-07-10T08:54:38Z</time>
      </trkpt>
      <trkpt lat="42.6091361325" lon="20.0824665930">
        <ele>2043.90</ele>
        <time>2019-07-10T08:54:52Z</time>
      </trkpt>
      <trkpt lat="42.6091932133" lon="20.0825257692">
        <ele>2043.90</ele>
        <time>2019-07-10T08:55:02Z</time>
      </trkpt>
      <trkpt lat="42.6094122324" lon="20.0825143699">
        <ele>2043.42</ele>
        <time>2019-07-10T08:55:21Z</time>
      </trkpt>
      <trkpt lat="42.6095659565" lon="20.0825688522">
        <ele>2043.42</ele>
        <time>2019-07-10T08:55:33Z</time>
      </trkpt>
      <trkpt lat="42.6095861569" lon="20.0825940818">
        <ele>2042.94</ele>
        <time>2019-07-10T08:55:36Z</time>
      </trkpt>
      <trkpt lat="42.6096014958" lon="20.0826215744">
        <ele>2042.46</ele>
        <time>2019-07-10T08:55:39Z</time>
      </trkpt>
      <trkpt lat="42.6098577306" lon="20.0826846063">
        <ele>2039.57</ele>
        <time>2019-07-10T08:55:57Z</time>
      </trkpt>
      <trkpt lat="42.6100671105" lon="20.0827709399">
        <ele>2036.21</ele>
        <time>2019-07-10T08:56:12Z</time>
      </trkpt>
      <trkpt lat="42.6101550367" lon="20.0827996898">
        <ele>2034.77</ele>
        <time>2019-07-10T08:56:21Z</time>
      </trkpt>
      <trkpt lat="42.6103755645" lon="20.0827633962">
        <ele>2031.40</ele>
        <time>2019-07-10T08:56:37Z</time>
      </trkpt>
      <trkpt lat="42.6105541829" lon="20.0827865303">
        <ele>2029.00</ele>
        <time>2019-07-10T08:56:50Z</time>
      </trkpt>
      <trkpt lat="42.6105654147" lon="20.0828117598">
        <ele>2029.00</ele>
        <time>2019-07-10T08:56:52Z</time>
      </trkpt>
      <trkpt lat="42.6107230783" lon="20.0828868616">
        <ele>2028.04</ele>
        <time>2019-07-10T08:57:05Z</time>
      </trkpt>
      <trkpt lat="42.6107302867" lon="20.0828933157">
        <ele>2027.56</ele>
        <time>2019-07-10T08:57:06Z</time>
      </trkpt>
      <trkpt lat="42.6108785626" lon="20.0829270110">
        <ele>2026.12</ele>
        <time>2019-07-10T08:57:18Z</time>
      </trkpt>
      <trkpt lat="42.6110639703" lon="20.0829799846">
        <ele>2023.23</ele>
        <time>2019-07-10T08:57:32Z</time>
      </trkpt>
      <trkpt lat="42.6112557482" lon="20.0829705968">
        <ele>2020.35</ele>
        <time>2019-07-10T08:57:46Z</time>
      </trkpt>
      <trkpt lat="42.6114336960" lon="20.0829433557">
        <ele>2017.46</ele>
        <time>2019-07-10T08:57:58Z</time>
      </trkpt>
      <trkpt lat="42.6116491947" lon="20.0829170365">
        <ele>2015.54</ele>
        <time>2019-07-10T08:58:13Z</time>
      </trkpt>
      <trkpt lat="42.6118572336" lon="20.0829035416">
        <ele>2012.18</ele>
        <time>2019-07-10T08:58:27Z</time>
      </trkpt>
      <trkpt lat="42.6120895799" lon="20.0829441939">
        <ele>2009.29</ele>
        <time>2019-07-10T08:58:44Z</time>
      </trkpt>
      <trkpt lat="42.6122479979" lon="20.0830444414">
        <ele>2007.37</ele>
        <time>2019-07-10T08:58:57Z</time>
      </trkpt>
      <trkpt lat="42.6123515144" lon="20.0830924697">
        <ele>2006.89</ele>
        <time>2019-07-10T08:59:05Z</time>
      </trkpt>
      <trkpt lat="42.6125716232" lon="20.0831715111">
        <ele>2004.97</ele>
        <time>2019-07-10T08:59:21Z</time>
      </trkpt>
      <trkpt lat="42.6127726212" lon="20.0832037814">
        <ele>2001.60</ele>
        <time>2019-07-10T08:59:36Z</time>
      </trkpt>
      <trkpt lat="42.6129997708" lon="20.0832058769">
        <ele>1998.72</ele>
        <time>2019-07-10T08:59:52Z</time>
      </trkpt>
      <trkpt lat="42.6131747849" lon="20.0832517259">
        <ele>1996.80</ele>
        <time>2019-07-10T09:00:05Z</time>
      </trkpt>
      <trkpt lat="42.6132374816" lon="20.0832923781">
        <ele>1995.35</ele>
        <time>2019-07-10T09:00:10Z</time>
      </trkpt>
      <trkpt lat="42.6133544091" lon="20.0834196154">
        <ele>1991.99</ele>
        <time>2019-07-10T09:00:23Z</time>
      </trkpt>
      <trkpt lat="42.6133932173" lon="20.0834409893">
        <ele>1991.51</ele>
        <time>2019-07-10T09:00:28Z</time>
      </trkpt>
      <trkpt lat="42.6135907788" lon="20.0835403986">
        <ele>1990.55</ele>
        <time>2019-07-10T09:00:44Z</time>
      </trkpt>
      <trkpt lat="42.6137600932" lon="20.0836144947">
        <ele>1988.14</ele>
        <time>2019-07-10T09:00:56Z</time>
      </trkpt>
      <trkpt lat="42.6139475964" lon="20.0837035105">
        <ele>1985.74</ele>
        <time>2019-07-10T09:01:10Z</time>
      </trkpt>
      <trkpt lat="42.6141496841" lon="20.0837708171">
        <ele>1983.34</ele>
        <time>2019-07-10T09:01:25Z</time>
      </trkpt>
      <trkpt lat="42.6142879017" lon="20.0839148182">
        <ele>1981.41</ele>
        <time>2019-07-10T09:01:38Z</time>
      </trkpt>
      <trkpt lat="42.6144298073" lon="20.0840270519">
        <ele>1979.97</ele>
        <time>2019-07-10T09:01:51Z</time>
      </trkpt>
      <trkpt lat="42.6146122813" lon="20.0841562171">
        <ele>1977.57</ele>
        <time>2019-07-10T09:02:06Z</time>
      </trkpt>
      <trkpt lat="42.6146480720" lon="20.0841772556">
        <ele>1976.61</ele>
        <time>2019-07-10T09:02:09Z</time>
      </trkpt>
      <trkpt lat="42.6147841103" lon="20.0843172334">
        <ele>1975.17</ele>
        <time>2019-07-10T09:02:22Z</time>
      </trkpt>
      <trkpt lat="42.6148478128" lon="20.0843990408">
        <ele>1973.72</ele>
        <time>2019-07-10T09:02:29Z</time>
      </trkpt>
      <trkpt lat="42.6149129402" lon="20.0844267849">
        <ele>1974.20</ele>
        <time>2019-07-10T09:02:34Z</time>
      </trkpt>
      <trkpt lat="42.6151017006" lon="20.0845262781">
        <ele>1971.32</ele>
        <time>2019-07-10T09:02:48Z</time>
      </trkpt>
      <trkpt lat="42.6152705122" lon="20.0846264418">
        <ele>1968.44</ele>
        <time>2019-07-10T09:03:02Z</time>
      </trkpt>
      <trkpt lat="42.6154457778" lon="20.0847328920">
        <ele>1965.07</ele>
        <time>2019-07-10T09:03:16Z</time>
      </trkpt>
      <trkpt lat="42.6154761203" lon="20.0847794116">
        <ele>1964.59</ele>
        <time>2019-07-10T09:03:20Z</time>
      </trkpt>
      <trkpt lat="42.6155344583" lon="20.0847908948">
        <ele>1964.59</ele>
        <time>2019-07-10T09:03:26Z</time>
      </trkpt>
      <trkpt lat="42.6157275774" lon="20.0848183874">
        <ele>1962.19</ele>
        <time>2019-07-10T09:03:41Z</time>
      </trkpt>
      <trkpt lat="42.6158868335" lon="20.0849173777">
        <ele>1960.27</ele>
        <time>2019-07-10T09:03:54Z</time>
      </trkpt>
      <trkpt lat="42.6160403062" lon="20.0849642325">
        <ele>1958.34</ele>
        <time>2019-07-10T09:04:07Z</time>
      </trkpt>
      <trkpt lat="42.6162221096" lon="20.0850829203">
        <ele>1955.46</ele>
        <time>2019-07-10T09:04:22Z</time>
      </trkpt>
      <trkpt lat="42.6164532825" lon="20.0852029491">
        <ele>1952.57</ele>
        <time>2019-07-10T09:04:39Z</time>
      </trkpt>
      <trkpt lat="42.6166265365" lon="20.0852751173">
        <ele>1950.17</ele>
        <time>2019-07-10T09:04:52Z</time>
      </trkpt>
      <trkpt lat="42.6168023050" lon="20.0853728503">
        <ele>1947.29</ele>
        <time>2019-07-10T09:05:06Z</time>
      </trkpt>
      <trkpt lat="42.6169113535" lon="20.0854735170">
        <ele>1945.36</ele>
        <time>2019-07-10T09:05:16Z</time>
      </trkpt>
      <trkpt lat="42.6169736311" lon="20.0855154265">
        <ele>1943.92</ele>
        <time>2019-07-10T09:05:21Z</time>
      </trkpt>
      <trkpt lat="42.6170044765" lon="20.0855476130">
        <ele>1943.44</ele>
        <time>2019-07-10T09:05:24Z</time>
      </trkpt>
      <trkpt lat="42.6170530077" lon="20.0855756085">
        <ele>1942.00</ele>
        <time>2019-07-10T09:05:28Z</time>
      </trkpt>
      <trkpt lat="42.6170893852" lon="20.0856685638">
        <ele>1940.56</ele>
        <time>2019-07-10T09:05:34Z</time>
      </trkpt>
      <trkpt lat="42.6171146147" lon="20.0857368764">
        <ele>1939.60</ele>
        <time>2019-07-10T09:05:38Z</time>
      </trkpt>
      <trkpt lat="42.6172017027" lon="20.0857631955">
        <ele>1938.64</ele>
        <time>2019-07-10T09:05:44Z</time>
      </trkpt>
      <trkpt lat="42.6173053030" lon="20.0858046860">
        <ele>1937.19</ele>
        <time>2019-07-10T09:05:52Z</time>
      </trkpt>
      <trkpt lat="42.6173419319" lon="20.0858279876">
        <ele>1936.71</ele>
        <time>2019-07-10T09:05:56Z</time>
      </trkpt>
      <trkpt lat="42.6173844282" lon="20.0858879182">
        <ele>1935.75</ele>
        <time>2019-07-10T09:06:11Z</time>
      </trkpt>
      <trkpt lat="42.6173706818" lon="20.0858260598">
        <ele>1935.27</ele>
        <time>2019-07-10T09:06:48Z</time>
      </trkpt>
      <trkpt lat="42.6174396649" lon="20.0859469268">
        <ele>1934.79</ele>
        <time>2019-07-10T09:07:00Z</time>
      </trkpt>
      <trkpt lat="42.6175807323" lon="20.0860409718">
        <ele>1932.87</ele>
        <time>2019-07-10T09:07:13Z</time>
      </trkpt>
      <trkpt lat="42.6177007612" lon="20.0861551333">
        <ele>1929.98</ele>
        <time>2019-07-10T09:07:27Z</time>
      </trkpt>
      <trkpt lat="42.6177181955" lon="20.0861957017">
        <ele>1929.50</ele>
        <time>2019-07-10T09:07:30Z</time>
      </trkpt>
      <trkpt lat="42.6177513879" lon="20.0862583145">
        <ele>1929.02</ele>
        <time>2019-07-10T09:07:34Z</time>
      </trkpt>
      <trkpt lat="42.6177798864" lon="20.0863237772">
        <ele>1928.06</ele>
        <time>2019-07-10T09:07:38Z</time>
      </trkpt>
      <trkpt lat="42.6179006696" lon="20.0865191594">
        <ele>1924.22</ele>
        <time>2019-07-10T09:07:52Z</time>
      </trkpt>
      <trkpt lat="42.6180327684" lon="20.0866275374">
        <ele>1921.81</ele>
        <time>2019-07-10T09:08:03Z</time>
      </trkpt>
      <trkpt lat="42.6181125641" lon="20.0867173076">
        <ele>1919.89</ele>
        <time>2019-07-10T09:08:10Z</time>
      </trkpt>
      <trkpt lat="42.6182232052" lon="20.0868802518">
        <ele>1917.49</ele>
        <time>2019-07-10T09:08:24Z</time>
      </trkpt>
      <trkpt lat="42.6182362810" lon="20.0869100913">
        <ele>1917.01</ele>
        <time>2019-07-10T09:08:26Z</time>
      </trkpt>
      <trkpt lat="42.6182532124" lon="20.0869358238">
        <ele>1916.04</ele>
        <time>2019-07-10T09:08:28Z</time>
      </trkpt>
      <trkpt lat="42.6183499396" lon="20.0871043839">
        <ele>1912.68</ele>
        <time>2019-07-10T09:08:42Z</time>
      </trkpt>
      <trkpt lat="42.6183571480" lon="20.0871341396">
        <ele>1912.20</ele>
        <time>2019-07-10T09:08:44Z</time>
      </trkpt>
      <trkpt lat="42.6183592435" lon="20.0872656517">
        <ele>1911.24</ele>
        <time>2019-07-10T09:08:53Z</time>
      </trkpt>
      <trkpt lat="42.6183959562" lon="20.0873120874">
        <ele>1910.28</ele>
        <time>2019-07-10T09:09:11Z</time>
      </trkpt>
      <trkpt lat="42.6184071880" lon="20.0873024482">
        <ele>1909.80</ele>
        <time>2019-07-10T09:09:38Z</time>
      </trkpt>
      <trkpt lat="42.6183938608" lon="20.0873078965">
        <ele>1909.80</ele>
        <time>2019-07-10T09:10:03Z</time>
      </trkpt>
      <trkpt lat="42.6184481755" lon="20.0873535778">
        <ele>1909.32</ele>
        <time>2019-07-10T09:10:27Z</time>
      </trkpt>
      <trkpt lat="42.6185257081" lon="20.0874277577">
        <ele>1909.32</ele>
        <time>2019-07-10T09:10:39Z</time>
      </trkpt>
      <trkpt lat="42.6185920089" lon="20.0874993391">
        <ele>1907.39</ele>
        <time>2019-07-10T09:10:53Z</time>
      </trkpt>
      <trkpt lat="42.6185924280" lon="20.0875099003">
        <ele>1907.39</ele>
        <time>2019-07-10T09:11:09Z</time>
      </trkpt>
      <trkpt lat="42.6186362654" lon="20.0874986686">
        <ele>1907.39</ele>
        <time>2019-07-10T09:11:39Z</time>
      </trkpt>
      <trkpt lat="42.6185899973" lon="20.0874675717">
        <ele>1906.91</ele>
        <time>2019-07-10T09:12:09Z</time>
      </trkpt>
      <trkpt lat="42.6186053362" lon="20.0874893647">
        <ele>1906.91</ele>
        <time>2019-07-10T09:12:30Z</time>
      </trkpt>
      <trkpt lat="42.6185563020" lon="20.0874821562">
        <ele>1906.91</ele>
        <time>2019-07-10T09:13:04Z</time>
      </trkpt>
      <trkpt lat="42.6185922604" lon="20.0874953996">
        <ele>1906.91</ele>
        <time>2019-07-10T09:13:32Z</time>
      </trkpt>
      <trkpt lat="42.6185967866" lon="20.0875026081">
        <ele>1906.91</ele>
        <time>2019-07-10T09:13:46Z</time>
      </trkpt>
      <trkpt lat="42.6186624169" lon="20.0876198709">
        <ele>1905.47</ele>
        <time>2019-07-10T09:14:02Z</time>
      </trkpt>
      <trkpt lat="42.6187170669" lon="20.0877725892">
        <ele>1904.03</ele>
        <time>2019-07-10T09:14:16Z</time>
      </trkpt>
      <trkpt lat="42.6187384408" lon="20.0877906941">
        <ele>1904.03</ele>
        <time>2019-07-10T09:14:18Z</time>
      </trkpt>
      <trkpt lat="42.6188610680" lon="20.0879285764">
        <ele>1901.14</ele>
        <time>2019-07-10T09:14:33Z</time>
      </trkpt>
      <trkpt lat="42.6189210825" lon="20.0879567396">
        <ele>1898.74</ele>
        <time>2019-07-10T09:14:42Z</time>
      </trkpt>
      <trkpt lat="42.6190414466" lon="20.0880310871">
        <ele>1894.90</ele>
        <time>2019-07-10T09:14:56Z</time>
      </trkpt>
      <trkpt lat="42.6191334799" lon="20.0881208573">
        <ele>1892.01</ele>
        <time>2019-07-10T09:15:07Z</time>
      </trkpt>
      <trkpt lat="42.6191797480" lon="20.0881774351">
        <ele>1889.61</ele>
        <time>2019-07-10T09:15:15Z</time>
      </trkpt>
      <trkpt lat="42.6191976015" lon="20.0882010721">
        <ele>1889.13</ele>
        <time>2019-07-10T09:15:17Z</time>
      </trkpt>
      <trkpt lat="42.6192644052" lon="20.0882092863">
        <ele>1886.72</ele>
        <time>2019-07-10T09:15:24Z</time>
      </trkpt>
      <trkpt lat="42.6192922331" lon="20.0882191770">
        <ele>1886.24</ele>
        <time>2019-07-10T09:15:26Z</time>
      </trkpt>
      <trkpt lat="42.6193178818" lon="20.0882527884">
        <ele>1885.76</ele>
        <time>2019-07-10T09:15:29Z</time>
      </trkpt>
      <trkpt lat="42.6193529181" lon="20.0882724021">
        <ele>1883.84</ele>
        <time>2019-07-10T09:15:33Z</time>
      </trkpt>
      <trkpt lat="42.6193985995" lon="20.0883532874">
        <ele>1882.88</ele>
        <time>2019-07-10T09:15:39Z</time>
      </trkpt>
      <trkpt lat="42.6194167882" lon="20.0883789361">
        <ele>1881.92</ele>
        <time>2019-07-10T09:15:41Z</time>
      </trkpt>
      <trkpt lat="42.6194246672" lon="20.0884500984">
        <ele>1880.48</ele>
        <time>2019-07-10T09:15:55Z</time>
      </trkpt>
      <trkpt lat="42.6194387488" lon="20.0884813629">
        <ele>1879.51</ele>
        <time>2019-07-10T09:16:11Z</time>
      </trkpt>
      <trkpt lat="42.6194530819" lon="20.0885442272">
        <ele>1879.03</ele>
        <time>2019-07-10T09:16:26Z</time>
      </trkpt>
      <trkpt lat="42.6194550097" lon="20.0885586441">
        <ele>1878.07</ele>
        <time>2019-07-10T09:16:27Z</time>
      </trkpt>
      <trkpt lat="42.6195604540" lon="20.0886634178">
        <ele>1874.71</ele>
        <time>2019-07-10T09:16:38Z</time>
      </trkpt>
      <trkpt lat="42.6195899583" lon="20.0887349993">
        <ele>1873.27</ele>
        <time>2019-07-10T09:16:43Z</time>
      </trkpt>
      <trkpt lat="42.6196917146" lon="20.0888640806">
        <ele>1871.34</ele>
        <time>2019-07-10T09:16:54Z</time>
      </trkpt>
      <trkpt lat="42.6197151840" lon="20.0889285374">
        <ele>1869.90</ele>
        <time>2019-07-10T09:16:58Z</time>
      </trkpt>
      <trkpt lat="42.6198379789" lon="20.0890775677">
        <ele>1867.98</ele>
        <time>2019-07-10T09:17:10Z</time>
      </trkpt>
      <trkpt lat="42.6199105661" lon="20.0891355705">
        <ele>1866.06</ele>
        <time>2019-07-10T09:17:17Z</time>
      </trkpt>
      <trkpt lat="42.6199760288" lon="20.0891776476">
        <ele>1865.09</ele>
        <time>2019-07-10T09:17:22Z</time>
      </trkpt>
      <trkpt lat="42.6200149208" lon="20.0891967583">
        <ele>1864.13</ele>
        <time>2019-07-10T09:17:26Z</time>
      </trkpt>
      <trkpt lat="42.6199926250" lon="20.0891902205">
        <ele>1864.61</ele>
        <time>2019-07-10T09:17:34Z</time>
      </trkpt>
      <trkpt lat="42.6200801320" lon="20.0892360695">
        <ele>1862.69</ele>
        <time>2019-07-10T09:17:41Z</time>
      </trkpt>
      <trkpt lat="42.6201727521" lon="20.0892939884">
        <ele>1861.25</ele>
        <time>2019-07-10T09:17:50Z</time>
      </trkpt>
      <trkpt lat="42.6202468481" lon="20.0893491413">
        <ele>1859.33</ele>
        <time>2019-07-10T09:17:58Z</time>
      </trkpt>
      <trkpt lat="42.6202673838" lon="20.0893940683">
        <ele>1858.37</ele>
        <time>2019-07-10T09:18:01Z</time>
      </trkpt>
      <trkpt lat="42.6202870812" lon="20.0894141011">
        <ele>1857.89</ele>
        <time>2019-07-10T09:18:03Z</time>
      </trkpt>
      <trkpt lat="42.6204636879" lon="20.0895001832">
        <ele>1854.04</ele>
        <time>2019-07-10T09:18:18Z</time>
      </trkpt>
      <trkpt lat="42.6205822919" lon="20.0896430947">
        <ele>1851.16</ele>
        <time>2019-07-10T09:18:31Z</time>
      </trkpt>
      <trkpt lat="42.6207221858" lon="20.0897738524">
        <ele>1848.27</ele>
        <time>2019-07-10T09:18:44Z</time>
      </trkpt>
      <trkpt lat="42.6207814459" lon="20.0897982437">
        <ele>1847.31</ele>
        <time>2019-07-10T09:18:48Z</time>
      </trkpt>
      <trkpt lat="42.6209538616" lon="20.0899411552">
        <ele>1843.47</ele>
        <time>2019-07-10T09:19:03Z</time>
      </trkpt>
      <trkpt lat="42.6211077534" lon="20.0900481921">
        <ele>1841.06</ele>
        <time>2019-07-10T09:19:16Z</time>
      </trkpt>
      <trkpt lat="42.6212837733" lon="20.0901569054">
        <ele>1838.66</ele>
        <time>2019-07-10T09:19:31Z</time>
      </trkpt>
      <trkpt lat="42.6213345677" lon="20.0901776925">
        <ele>1838.18</ele>
        <time>2019-07-10T09:19:35Z</time>
      </trkpt>
      <trkpt lat="42.6213943306" lon="20.0902346894">
        <ele>1837.22</ele>
        <time>2019-07-10T09:19:41Z</time>
      </trkpt>
      <trkpt lat="42.6215262618" lon="20.0904122181">
        <ele>1835.29</ele>
        <time>2019-07-10T09:19:56Z</time>
      </trkpt>
      <trkpt lat="42.6216266770" lon="20.0905738212">
        <ele>1831.93</ele>
        <time>2019-07-10T09:20:08Z</time>
      </trkpt>
      <trkpt lat="42.6216951571" lon="20.0906877313">
        <ele>1829.53</ele>
        <time>2019-07-10T09:20:17Z</time>
      </trkpt>
      <trkpt lat="42.6217168663" lon="20.0907435548">
        <ele>1828.56</ele>
        <time>2019-07-10T09:20:20Z</time>
      </trkpt>
      <trkpt lat="42.6217330433" lon="20.0907650962">
        <ele>1827.60</ele>
        <time>2019-07-10T09:20:22Z</time>
      </trkpt>
      <trkpt lat="42.6218192093" lon="20.0908233505">
        <ele>1824.24</ele>
        <time>2019-07-10T09:20:32Z</time>
      </trkpt>
      <trkpt lat="42.6218842529" lon="20.0909102708">
        <ele>1820.87</ele>
        <time>2019-07-10T09:20:39Z</time>
      </trkpt>
      <trkpt lat="42.6220344566" lon="20.0909379311">
        <ele>1818.47</ele>
        <time>2019-07-10T09:20:50Z</time>
      </trkpt>
      <trkpt lat="42.6221725065" lon="20.0910699461">
        <ele>1815.11</ele>
        <time>2019-07-10T09:21:02Z</time>
      </trkpt>
      <trkpt lat="42.6221825648" lon="20.0910942536">
        <ele>1814.63</ele>
        <time>2019-07-10T09:21:04Z</time>
      </trkpt>
      <trkpt lat="42.6222185232" lon="20.0911230035">
        <ele>1814.63</ele>
        <time>2019-07-10T09:21:08Z</time>
      </trkpt>
      <trkpt lat="42.6222851593" lon="20.0911312178">
        <ele>1812.70</ele>
        <time>2019-07-10T09:21:20Z</time>
      </trkpt>
      <trkpt lat="42.6223106403" lon="20.0911440421">
        <ele>1811.74</ele>
        <time>2019-07-10T09:21:23Z</time>
      </trkpt>
      <trkpt lat="42.6223141607" lon="20.0911613926">
        <ele>1810.30</ele>
        <time>2019-07-10T09:21:34Z</time>
      </trkpt>
      <trkpt lat="42.6223123167" lon="20.0911790784">
        <ele>1809.82</ele>
        <time>2019-07-10T09:21:47Z</time>
      </trkpt>
      <trkpt lat="42.6222582534" lon="20.0912335608">
        <ele>1809.82</ele>
        <time>2019-07-10T09:21:58Z</time>
      </trkpt>
      <trkpt lat="42.6222481113" lon="20.0912514143">
        <ele>1809.82</ele>
        <time>2019-07-10T09:22:00Z</time>
      </trkpt>
      <trkpt lat="42.6222067047" lon="20.0913249236">
        <ele>1811.74</ele>
        <time>2019-07-10T09:22:09Z</time>
      </trkpt>
      <trkpt lat="42.6222375501" lon="20.0913724490">
        <ele>1811.74</ele>
        <time>2019-07-10T09:22:14Z</time>
      </trkpt>
      <trkpt lat="42.6222366281" lon="20.0914591178">
        <ele>1811.74</ele>
        <time>2019-07-10T09:22:22Z</time>
      </trkpt>
      <trkpt lat="42.6222627796" lon="20.0915454514">
        <ele>1810.30</ele>
        <time>2019-07-10T09:22:28Z</time>
      </trkpt>
      <trkpt lat="42.6222652942" lon="20.0915722735">
        <ele>1810.30</ele>
        <time>2019-07-10T09:22:30Z</time>
      </trkpt>
      <trkpt lat="42.6222594269" lon="20.0916431844">
        <ele>1810.30</ele>
        <time>2019-07-10T09:22:34Z</time>
      </trkpt>
      <trkpt lat="42.6222891826" lon="20.0917771272">
        <ele>1810.30</ele>
        <time>2019-07-10T09:22:48Z</time>
      </trkpt>
      <trkpt lat="42.6222816389" lon="20.0917560048">
        <ele>1811.26</ele>
        <time>2019-07-10T09:22:58Z</time>
      </trkpt>
      <trkpt lat="42.6222885121" lon="20.0917283446">
        <ele>1811.26</ele>
        <time>2019-07-10T09:23:00Z</time>
      </trkpt>
      <trkpt lat="42.6222871710" lon="20.0916928891">
        <ele>1809.82</ele>
        <time>2019-07-10T09:23:02Z</time>
      </trkpt>
      <trkpt lat="42.6222929545" lon="20.0916614570">
        <ele>1809.34</ele>
        <time>2019-07-10T09:23:04Z</time>
      </trkpt>
      <trkpt lat="42.6222854108" lon="20.0915513188">
        <ele>1809.34</ele>
        <time>2019-07-10T09:23:11Z</time>
      </trkpt>
      <trkpt lat="42.6222863328" lon="20.0913845189">
        <ele>1809.34</ele>
        <time>2019-07-10T09:23:24Z</time>
      </trkpt>
      <trkpt lat="42.6223003305" lon="20.0913479738">
        <ele>1810.30</ele>
        <time>2019-07-10T09:23:28Z</time>
      </trkpt>
      <trkpt lat="42.6223030128" lon="20.0913169608">
        <ele>1809.34</ele>
        <time>2019-07-10T09:23:30Z</time>
      </trkpt>
      <trkpt lat="42.6223281585" lon="20.0912088342">
        <ele>1809.34</ele>
        <time>2019-07-10T09:23:40Z</time>
      </trkpt>
      <trkpt lat="42.6223861612" lon="20.0912115164">
        <ele>1807.90</ele>
        <time>2019-07-10T09:23:52Z</time>
      </trkpt>
      <trkpt lat="42.6224037632" lon="20.0912226643">
        <ele>1807.90</ele>
        <time>2019-07-10T09:23:58Z</time>
      </trkpt>
      <trkpt lat="42.6224486902" lon="20.0912422780">
        <ele>1807.42</ele>
        <time>2019-07-10T09:24:12Z</time>
      </trkpt>
      <trkpt lat="42.6224614307" lon="20.0912977662">
        <ele>1807.42</ele>
        <time>2019-07-10T09:24:22Z</time>
      </trkpt>
      <trkpt lat="42.6224997360" lon="20.0912886299">
        <ele>1809.82</ele>
        <time>2019-07-10T09:24:30Z</time>
      </trkpt>
      <trkpt lat="42.6225086208" lon="20.0913225766">
        <ele>1810.30</ele>
        <time>2019-07-10T09:24:33Z</time>
      </trkpt>
      <trkpt lat="42.6225253846" lon="20.0913552660">
        <ele>1810.78</ele>
        <time>2019-07-10T09:24:37Z</time>
      </trkpt>
      <trkpt lat="42.6225429028" lon="20.0914519094">
        <ele>1811.26</ele>
        <time>2019-07-10T09:24:45Z</time>
      </trkpt>
      <trkpt lat="42.6225932781" lon="20.0915866066">
        <ele>1812.70</ele>
        <time>2019-07-10T09:24:58Z</time>
      </trkpt>
      <trkpt lat="42.6226169989" lon="20.0916156080">
        <ele>1813.18</ele>
        <time>2019-07-10T09:25:04Z</time>
      </trkpt>
      <trkpt lat="42.6226464193" lon="20.0916627143">
        <ele>1813.18</ele>
        <time>2019-07-10T09:25:08Z</time>
      </trkpt>
      <trkpt lat="42.6227122173" lon="20.0918258261">
        <ele>1813.18</ele>
        <time>2019-07-10T09:25:21Z</time>
      </trkpt>
      <trkpt lat="42.6227221917" lon="20.0918581802">
        <ele>1813.18</ele>
        <time>2019-07-10T09:25:23Z</time>
      </trkpt>
      <trkpt lat="42.6227833796" lon="20.0919452682">
        <ele>1812.70</ele>
        <time>2019-07-10T09:25:35Z</time>
      </trkpt>
      <trkpt lat="42.6227912586" lon="20.0919106510">
        <ele>1813.18</ele>
        <time>2019-07-10T09:25:52Z</time>
      </trkpt>
      <trkpt lat="42.6228037477" lon="20.0918968208">
        <ele>1813.18</ele>
        <time>2019-07-10T09:26:07Z</time>
      </trkpt>
      <trkpt lat="42.6228223555" lon="20.0918952283">
        <ele>1813.66</ele>
        <time>2019-07-10T09:26:26Z</time>
      </trkpt>
      <trkpt lat="42.6228016522" lon="20.0918644667">
        <ele>1813.66</ele>
        <time>2019-07-10T09:26:34Z</time>
      </trkpt>
      <trkpt lat="42.6227275562" lon="20.0917776302">
        <ele>1813.66</ele>
        <time>2019-07-10T09:26:43Z</time>
      </trkpt>
      <trkpt lat="42.6227245387" lon="20.0917484611">
        <ele>1813.66</ele>
        <time>2019-07-10T09:26:45Z</time>
      </trkpt>
      <trkpt lat="42.6226515323" lon="20.0916109979">
        <ele>1813.18</ele>
        <time>2019-07-10T09:26:59Z</time>
      </trkpt>
      <trkpt lat="42.6226312481" lon="20.0915906299">
        <ele>1813.18</ele>
        <time>2019-07-10T09:27:01Z</time>
      </trkpt>
      <trkpt lat="42.6225527097" lon="20.0914354809">
        <ele>1811.74</ele>
        <time>2019-07-10T09:27:14Z</time>
      </trkpt>
      <trkpt lat="42.6224904321" lon="20.0912815053">
        <ele>1809.34</ele>
        <time>2019-07-10T09:27:28Z</time>
      </trkpt>
      <trkpt lat="42.6224608440" lon="20.0912380870">
        <ele>1807.42</ele>
        <time>2019-07-10T09:27:41Z</time>
      </trkpt>
      <trkpt lat="42.6224298310" lon="20.0911721215">
        <ele>1806.45</ele>
        <time>2019-07-10T09:27:55Z</time>
      </trkpt>
      <trkpt lat="42.6224145759" lon="20.0911593810">
        <ele>1806.45</ele>
        <time>2019-07-10T09:27:57Z</time>
      </trkpt>
      <trkpt lat="42.6223897655" lon="20.0911566149">
        <ele>1807.90</ele>
        <time>2019-07-10T09:27:59Z</time>
      </trkpt>
      <trkpt lat="42.6223368756" lon="20.0911966804">
        <ele>1808.38</ele>
        <time>2019-07-10T09:28:05Z</time>
      </trkpt>
      <trkpt lat="42.6223097183" lon="20.0912498217">
        <ele>1808.38</ele>
        <time>2019-07-10T09:28:10Z</time>
      </trkpt>
      <trkpt lat="42.6222523022" lon="20.0913749635">
        <ele>1809.34</ele>
        <time>2019-07-10T09:28:22Z</time>
      </trkpt>
      <trkpt lat="42.6222587563" lon="20.0914369896">
        <ele>1809.34</ele>
        <time>2019-07-10T09:28:27Z</time>
      </trkpt>
      <trkpt lat="42.6222734246" lon="20.0915832538">
        <ele>1809.34</ele>
        <time>2019-07-10T09:28:36Z</time>
      </trkpt>
      <trkpt lat="42.6222730055" lon="20.0916132610">
        <ele>1809.34</ele>
        <time>2019-07-10T09:28:38Z</time>
      </trkpt>
      <trkpt lat="42.6222818904" lon="20.0916803163">
        <ele>1809.34</ele>
        <time>2019-07-10T09:28:42Z</time>
      </trkpt>
      <trkpt lat="42.6222911105" lon="20.0917343795">
        <ele>1809.34</ele>
        <time>2019-07-10T09:28:46Z</time>
      </trkpt>
      <trkpt lat="42.6223358698" lon="20.0918753631">
        <ele>1809.82</ele>
        <time>2019-07-10T09:28:57Z</time>
      </trkpt>
      <trkpt lat="42.6223465987" lon="20.0920906942">
        <ele>1809.34</ele>
        <time>2019-07-10T09:29:10Z</time>
      </trkpt>
      <trkpt lat="42.6223401446" lon="20.0921040215">
        <ele>1809.34</ele>
        <time>2019-07-10T09:29:11Z</time>
      </trkpt>
      <trkpt lat="42.6223336905" lon="20.0921716634">
        <ele>1809.34</ele>
        <time>2019-07-10T09:29:15Z</time>
      </trkpt>
      <trkpt lat="42.6223336067" lon="20.0922066160">
        <ele>1809.34</ele>
        <time>2019-07-10T09:29:17Z</time>
      </trkpt>
      <trkpt lat="42.6223251410" lon="20.0922814663">
        <ele>1809.34</ele>
        <time>2019-07-10T09:29:21Z</time>
      </trkpt>
      <trkpt lat="42.6223129872" lon="20.0923427381">
        <ele>1809.34</ele>
        <time>2019-07-10T09:29:27Z</time>
      </trkpt>
      <trkpt lat="42.6223496161" lon="20.0924232043">
        <ele>1808.38</ele>
        <time>2019-07-10T09:29:32Z</time>
      </trkpt>
      <trkpt lat="42.6223585010" lon="20.0925316662">
        <ele>1806.94</ele>
        <time>2019-07-10T09:29:38Z</time>
      </trkpt>
      <trkpt lat="42.6223529689" lon="20.0925870705">
        <ele>1806.94</ele>
        <time>2019-07-10T09:29:41Z</time>
      </trkpt>
      <trkpt lat="42.6223637816" lon="20.0926688779">
        <ele>1806.94</ele>
        <time>2019-07-10T09:29:46Z</time>
      </trkpt>
      <trkpt lat="42.6223472692" lon="20.0928974524">
        <ele>1805.97</ele>
        <time>2019-07-10T09:30:00Z</time>
      </trkpt>
      <trkpt lat="42.6223078743" lon="20.0930776633">
        <ele>1805.49</ele>
        <time>2019-07-10T09:30:12Z</time>
      </trkpt>
      <trkpt lat="42.6222850755" lon="20.0931396056">
        <ele>1805.01</ele>
        <time>2019-07-10T09:30:17Z</time>
      </trkpt>
      <trkpt lat="42.6223025098" lon="20.0932867080">
        <ele>1804.05</ele>
        <time>2019-07-10T09:30:27Z</time>
      </trkpt>
      <trkpt lat="42.6223893464" lon="20.0934260152">
        <ele>1802.61</ele>
        <time>2019-07-10T09:30:39Z</time>
      </trkpt>
      <trkpt lat="42.6224342734" lon="20.0935439486">
        <ele>1802.13</ele>
        <time>2019-07-10T09:30:49Z</time>
      </trkpt>
      <trkpt lat="42.6225068606" lon="20.0936496444">
        <ele>1799.73</ele>
        <time>2019-07-10T09:31:00Z</time>
      </trkpt>
      <trkpt lat="42.6225882489" lon="20.0937186275">
        <ele>1798.28</ele>
        <time>2019-07-10T09:31:06Z</time>
      </trkpt>
      <trkpt lat="42.6226765104" lon="20.0937440246">
        <ele>1795.88</ele>
        <time>2019-07-10T09:31:12Z</time>
      </trkpt>
      <trkpt lat="42.6227027457" lon="20.0937545020">
        <ele>1795.40</ele>
        <time>2019-07-10T09:31:14Z</time>
      </trkpt>
      <trkpt lat="42.6227485947" lon="20.0938124210">
        <ele>1794.92</ele>
        <time>2019-07-10T09:31:19Z</time>
      </trkpt>
      <trkpt lat="42.6228219364" lon="20.0939678214">
        <ele>1793.96</ele>
        <time>2019-07-10T09:31:29Z</time>
      </trkpt>
      <trkpt lat="42.6228210982" lon="20.0941665564">
        <ele>1793.00</ele>
        <time>2019-07-10T09:31:40Z</time>
      </trkpt>
      <trkpt lat="42.6228364371" lon="20.0942614395">
        <ele>1793.00</ele>
        <time>2019-07-10T09:31:45Z</time>
      </trkpt>
      <trkpt lat="42.6228731498" lon="20.0943564065">
        <ele>1793.00</ele>
        <time>2019-07-10T09:31:51Z</time>
      </trkpt>
      <trkpt lat="42.6228974573" lon="20.0944612641">
        <ele>1792.52</ele>
        <time>2019-07-10T09:31:57Z</time>
      </trkpt>
      <trkpt lat="42.6229610760" lon="20.0945316721">
        <ele>1792.03</ele>
        <time>2019-07-10T09:32:03Z</time>
      </trkpt>
      <trkpt lat="42.6229992136" lon="20.0945738330">
        <ele>1792.03</ele>
        <time>2019-07-10T09:32:07Z</time>
      </trkpt>
      <trkpt lat="42.6231267862" lon="20.0947685447">
        <ele>1790.59</ele>
        <time>2019-07-10T09:32:22Z</time>
      </trkpt>
      <trkpt lat="42.6231778320" lon="20.0948461611">
        <ele>1790.11</ele>
        <time>2019-07-10T09:32:28Z</time>
      </trkpt>
      <trkpt lat="42.6232547779" lon="20.0950477459">
        <ele>1789.15</ele>
        <time>2019-07-10T09:32:42Z</time>
      </trkpt>
      <trkpt lat="42.6233455539" lon="20.0952084269">
        <ele>1785.79</ele>
        <time>2019-07-10T09:32:55Z</time>
      </trkpt>
      <trkpt lat="42.6234779041" lon="20.0953671802">
        <ele>1782.42</ele>
        <time>2019-07-10T09:33:07Z</time>
      </trkpt>
      <trkpt lat="42.6235689316" lon="20.0955310464">
        <ele>1780.02</ele>
        <time>2019-07-10T09:33:21Z</time>
      </trkpt>
      <trkpt lat="42.6236029621" lon="20.0955974311">
        <ele>1778.58</ele>
        <time>2019-07-10T09:33:27Z</time>
      </trkpt>
      <trkpt lat="42.6236061472" lon="20.0957295299">
        <ele>1777.13</ele>
        <time>2019-07-10T09:33:38Z</time>
      </trkpt>
      <trkpt lat="42.6236414351" lon="20.0958731119">
        <ele>1776.17</ele>
        <time>2019-07-10T09:33:50Z</time>
      </trkpt>
      <trkpt lat="42.6236724481" lon="20.0960116647">
        <ele>1775.69</ele>
        <time>2019-07-10T09:34:02Z</time>
      </trkpt>
      <trkpt lat="42.6236980967" lon="20.0960450247">
        <ele>1775.21</ele>
        <time>2019-07-10T09:34:07Z</time>
      </trkpt>
      <trkpt lat="42.6237183809" lon="20.0960650574">
        <ele>1774.73</ele>
        <time>2019-07-10T09:34:10Z</time>
      </trkpt>
      <trkpt lat="42.6237550937" lon="20.0961331185">
        <ele>1773.77</ele>
        <time>2019-07-10T09:34:14Z</time>
      </trkpt>
      <trkpt lat="42.6238055527" lon="20.0961850025">
        <ele>1772.81</ele>
        <time>2019-07-10T09:34:20Z</time>
      </trkpt>
      <trkpt lat="42.6239000168" lon="20.0963319372">
        <ele>1770.89</ele>
        <time>2019-07-10T09:34:32Z</time>
      </trkpt>
      <trkpt lat="42.6238999330" lon="20.0965740066">
        <ele>1768.96</ele>
        <time>2019-07-10T09:34:47Z</time>
      </trkpt>
      <trkpt lat="42.6238977537" lon="20.0965873338">
        <ele>1768.96</ele>
        <time>2019-07-10T09:34:48Z</time>
      </trkpt>
      <trkpt lat="42.6239487994" lon="20.0967415608">
        <ele>1767.52</ele>
        <time>2019-07-10T09:34:59Z</time>
      </trkpt>
      <trkpt lat="42.6240318641" lon="20.0968900882">
        <ele>1766.56</ele>
        <time>2019-07-10T09:35:14Z</time>
      </trkpt>
      <trkpt lat="42.6240404136" lon="20.0969147310">
        <ele>1766.56</ele>
        <time>2019-07-10T09:35:16Z</time>
      </trkpt>
      <trkpt lat="42.6240895316" lon="20.0971065927">
        <ele>1765.12</ele>
        <time>2019-07-10T09:35:30Z</time>
      </trkpt>
      <trkpt lat="42.6241601072" lon="20.0972072594">
        <ele>1764.16</ele>
        <time>2019-07-10T09:35:39Z</time>
      </trkpt>
      <trkpt lat="42.6242398191" lon="20.0973745622">
        <ele>1762.23</ele>
        <time>2019-07-10T09:35:53Z</time>
      </trkpt>
      <trkpt lat="42.6242660545" lon="20.0974142924">
        <ele>1761.27</ele>
        <time>2019-07-10T09:35:57Z</time>
      </trkpt>
      <trkpt lat="42.6242855005" lon="20.0975268614">
        <ele>1760.31</ele>
        <time>2019-07-10T09:36:04Z</time>
      </trkpt>
      <trkpt lat="42.6243233029" lon="20.0976945832">
        <ele>1759.35</ele>
        <time>2019-07-10T09:36:15Z</time>
      </trkpt>
      <trkpt lat="42.6243694033" lon="20.0979203079">
        <ele>1758.39</ele>
        <time>2019-07-10T09:36:28Z</time>
      </trkpt>
      <trkpt lat="42.6243730914" lon="20.0979569368">
        <ele>1757.43</ele>
        <time>2019-07-10T09:36:30Z</time>
      </trkpt>
      <trkpt lat="42.6244215388" lon="20.0981518161">
        <ele>1756.47</ele>
        <time>2019-07-10T09:36:41Z</time>
      </trkpt>
      <trkpt lat="42.6244295016" lon="20.0981917139">
        <ele>1755.99</ele>
        <time>2019-07-10T09:36:43Z</time>
      </trkpt>
      <trkpt lat="42.6244631968" lon="20.0983579271">
        <ele>1755.02</ele>
        <time>2019-07-10T09:36:53Z</time>
      </trkpt>
      <trkpt lat="42.6244975626" lon="20.0984275807">
        <ele>1755.02</ele>
        <time>2019-07-10T09:37:00Z</time>
      </trkpt>
      <trkpt lat="42.6245230436" lon="20.0984729268">
        <ele>1755.02</ele>
        <time>2019-07-10T09:37:04Z</time>
      </trkpt>
      <trkpt lat="42.6245824713" lon="20.0985924527">
        <ele>1755.02</ele>
        <time>2019-07-10T09:37:16Z</time>
      </trkpt>
      <trkpt lat="42.6246351097" lon="20.0987457577">
        <ele>1754.54</ele>
        <time>2019-07-10T09:37:28Z</time>
      </trkpt>
      <trkpt lat="42.6247429010" lon="20.0988604221">
        <ele>1752.14</ele>
        <time>2019-07-10T09:37:40Z</time>
      </trkpt>
      <trkpt lat="42.6247580722" lon="20.0988812093">
        <ele>1752.14</ele>
        <time>2019-07-10T09:37:42Z</time>
      </trkpt>
      <trkpt lat="42.6247850619" lon="20.0989681296">
        <ele>1752.14</ele>
        <time>2019-07-10T09:37:48Z</time>
      </trkpt>
      <trkpt lat="42.6248815376" lon="20.0990920980">
        <ele>1749.26</ele>
        <time>2019-07-10T09:38:02Z</time>
      </trkpt>
      <trkpt lat="42.6249123830" lon="20.0991860591">
        <ele>1749.26</ele>
        <time>2019-07-10T09:38:10Z</time>
      </trkpt>
      <trkpt lat="42.6249773428" lon="20.0992749073">
        <ele>1746.85</ele>
        <time>2019-07-10T09:38:23Z</time>
      </trkpt>
      <trkpt lat="42.6250177436" lon="20.0993242767">
        <ele>1745.89</ele>
        <time>2019-07-10T09:38:33Z</time>
      </trkpt>
      <trkpt lat="42.6251670253" lon="20.0994236022">
        <ele>1742.05</ele>
        <time>2019-07-10T09:38:49Z</time>
      </trkpt>
      <trkpt lat="42.6252716314" lon="20.0994867180">
        <ele>1739.16</ele>
        <time>2019-07-10T09:39:01Z</time>
      </trkpt>
      <trkpt lat="42.6253586356" lon="20.0995691121">
        <ele>1737.72</ele>
        <time>2019-07-10T09:39:11Z</time>
      </trkpt>
      <trkpt lat="42.6253807638" lon="20.0995796733">
        <ele>1736.76</ele>
        <time>2019-07-10T09:39:13Z</time>
      </trkpt>
      <trkpt lat="42.6255152933" lon="20.0997152925">
        <ele>1735.32</ele>
        <time>2019-07-10T09:39:26Z</time>
      </trkpt>
      <trkpt lat="42.6256325562" lon="20.0997422822">
        <ele>1733.39</ele>
        <time>2019-07-10T09:39:38Z</time>
      </trkpt>
      <trkpt lat="42.6256530918" lon="20.0997401867">
        <ele>1732.91</ele>
        <time>2019-07-10T09:39:40Z</time>
      </trkpt>
      <trkpt lat="42.6257136930" lon="20.0997985248">
        <ele>1731.47</ele>
        <time>2019-07-10T09:39:50Z</time>
      </trkpt>
      <trkpt lat="42.6257818379" lon="20.0999113452">
        <ele>1731.47</ele>
        <time>2019-07-10T09:40:02Z</time>
      </trkpt>
      <trkpt lat="42.6258196402" lon="20.0999338087">
        <ele>1732.43</ele>
        <time>2019-07-10T09:40:06Z</time>
      </trkpt>
      <trkpt lat="42.6258864440" lon="20.0999796577">
        <ele>1732.43</ele>
        <time>2019-07-10T09:40:12Z</time>
      </trkpt>
      <trkpt lat="42.6259070635" lon="20.1000150293">
        <ele>1732.91</ele>
        <time>2019-07-10T09:40:15Z</time>
      </trkpt>
      <trkpt lat="42.6259275153" lon="20.1000306197">
        <ele>1732.91</ele>
        <time>2019-07-10T09:40:17Z</time>
      </trkpt>
      <trkpt lat="42.6260477956" lon="20.1001752075">
        <ele>1733.88</ele>
        <time>2019-07-10T09:40:32Z</time>
      </trkpt>
      <trkpt lat="42.6260628831" lon="20.1001901273">
        <ele>1734.36</ele>
        <time>2019-07-10T09:40:34Z</time>
      </trkpt>
      <trkpt lat="42.6260806527" lon="20.1002229843">
        <ele>1734.84</ele>
        <time>2019-07-10T09:40:37Z</time>
      </trkpt>
      <trkpt lat="42.6261199638" lon="20.1003021933">
        <ele>1734.84</ele>
        <time>2019-07-10T09:40:47Z</time>
      </trkpt>
      <trkpt lat="42.6261954010" lon="20.1003644709">
        <ele>1735.80</ele>
        <time>2019-07-10T09:41:00Z</time>
      </trkpt>
      <trkpt lat="42.6262746938" lon="20.1004591864">
        <ele>1734.36</ele>
        <time>2019-07-10T09:41:10Z</time>
      </trkpt>
      <trkpt lat="42.6263475325" lon="20.1005204581">
        <ele>1734.36</ele>
        <time>2019-07-10T09:41:21Z</time>
      </trkpt>
      <trkpt lat="42.6264462713" lon="20.1005780417">
        <ele>1735.32</ele>
        <time>2019-07-10T09:41:33Z</time>
      </trkpt>
      <trkpt lat="42.6264590956" lon="20.1005973201">
        <ele>1735.32</ele>
        <time>2019-07-10T09:41:35Z</time>
      </trkpt>
      <trkpt lat="42.6265190262" lon="20.1006335299">
        <ele>1735.80</ele>
        <time>2019-07-10T09:41:41Z</time>
      </trkpt>
      <trkpt lat="42.6265793759" lon="20.1006424986">
        <ele>1736.28</ele>
        <time>2019-07-10T09:41:47Z</time>
      </trkpt>
      <trkpt lat="42.6266574115" lon="20.1006880123">
        <ele>1735.80</ele>
        <time>2019-07-10T09:41:58Z</time>
      </trkpt>
      <trkpt lat="42.6266976446" lon="20.1007235516">
        <ele>1736.76</ele>
        <time>2019-07-10T09:42:03Z</time>
      </trkpt>
      <trkpt lat="42.6267347764" lon="20.1008028444">
        <ele>1737.24</ele>
        <time>2019-07-10T09:42:08Z</time>
      </trkpt>
      <trkpt lat="42.6268300787" lon="20.1009011641">
        <ele>1736.76</ele>
        <time>2019-07-10T09:42:18Z</time>
      </trkpt>
      <trkpt lat="42.6269035880" lon="20.1010082010">
        <ele>1736.76</ele>
        <time>2019-07-10T09:42:26Z</time>
      </trkpt>
      <trkpt lat="42.6269326732" lon="20.1010513678">
        <ele>1735.80</ele>
        <time>2019-07-10T09:42:29Z</time>
      </trkpt>
      <trkpt lat="42.6269713137" lon="20.1011261344">
        <ele>1734.84</ele>
        <time>2019-07-10T09:42:34Z</time>
      </trkpt>
      <trkpt lat="42.6270003151" lon="20.1011713967">
        <ele>1734.36</ele>
        <time>2019-07-10T09:42:37Z</time>
      </trkpt>
      <trkpt lat="42.6270340104" lon="20.1012079418">
        <ele>1733.39</ele>
        <time>2019-07-10T09:42:41Z</time>
      </trkpt>
      <trkpt lat="42.6271031611" lon="20.1012025774">
        <ele>1733.39</ele>
        <time>2019-07-10T09:42:46Z</time>
      </trkpt>
      <trkpt lat="42.6271284744" lon="20.1012263820">
        <ele>1732.91</ele>
        <time>2019-07-10T09:42:49Z</time>
      </trkpt>
      <trkpt lat="42.6271684561" lon="20.1012799423">
        <ele>1733.39</ele>
        <time>2019-07-10T09:42:53Z</time>
      </trkpt>
      <trkpt lat="42.6271825377" lon="20.1013131347">
        <ele>1733.39</ele>
        <time>2019-07-10T09:42:55Z</time>
      </trkpt>
      <trkpt lat="42.6273454819" lon="20.1014438085">
        <ele>1732.91</ele>
        <time>2019-07-10T09:43:10Z</time>
      </trkpt>
      <trkpt lat="42.6274078432" lon="20.1014857180">
        <ele>1734.36</ele>
        <time>2019-07-10T09:43:15Z</time>
      </trkpt>
      <trkpt lat="42.6274196617" lon="20.1014941838">
        <ele>1734.36</ele>
        <time>2019-07-10T09:43:16Z</time>
      </trkpt>
      <trkpt lat="42.6274915785" lon="20.1016059984">
        <ele>1734.84</ele>
        <time>2019-07-10T09:43:24Z</time>
      </trkpt>
      <trkpt lat="42.6276165526" lon="20.1017541066">
        <ele>1734.84</ele>
        <time>2019-07-10T09:43:36Z</time>
      </trkpt>
      <trkpt lat="42.6276489906" lon="20.1017914899">
        <ele>1734.84</ele>
        <time>2019-07-10T09:43:39Z</time>
      </trkpt>
      <trkpt lat="42.6277030539" lon="20.1018528454">
        <ele>1734.84</ele>
        <time>2019-07-10T09:43:44Z</time>
      </trkpt>
      <trkpt lat="42.6278025471" lon="20.1019135304">
        <ele>1732.91</ele>
        <time>2019-07-10T09:43:53Z</time>
      </trkpt>
      <trkpt lat="42.6279312931" lon="20.1020109281">
        <ele>1732.91</ele>
        <time>2019-07-10T09:44:05Z</time>
      </trkpt>
      <trkpt lat="42.6280528307" lon="20.1021357346">
        <ele>1731.95</ele>
        <time>2019-07-10T09:44:17Z</time>
      </trkpt>
      <trkpt lat="42.6280822512" lon="20.1021631435">
        <ele>1731.95</ele>
        <time>2019-07-10T09:44:20Z</time>
      </trkpt>
      <trkpt lat="42.6281643938" lon="20.1021908876">
        <ele>1731.47</ele>
        <time>2019-07-10T09:44:30Z</time>
      </trkpt>
      <trkpt lat="42.6282417588" lon="20.1022586133">
        <ele>1730.99</ele>
        <time>2019-07-10T09:44:37Z</time>
      </trkpt>
      <trkpt lat="42.6282794774" lon="20.1022825018">
        <ele>1730.51</ele>
        <time>2019-07-10T09:44:41Z</time>
      </trkpt>
      <trkpt lat="42.6282953192" lon="20.1022968348">
        <ele>1730.03</ele>
        <time>2019-07-10T09:44:42Z</time>
      </trkpt>
      <trkpt lat="42.6283464488" lon="20.1023368165">
        <ele>1729.55</ele>
        <time>2019-07-10T09:44:46Z</time>
      </trkpt>
      <trkpt lat="42.6283967402" lon="20.1023726072">
        <ele>1729.55</ele>
        <time>2019-07-10T09:44:50Z</time>
      </trkpt>
      <trkpt lat="42.6284206286" lon="20.1023776364">
        <ele>1728.59</ele>
        <time>2019-07-10T09:44:52Z</time>
      </trkpt>
      <trkpt lat="42.6285926253" lon="20.1024978328">
        <ele>1727.15</ele>
        <time>2019-07-10T09:45:06Z</time>
      </trkpt>
      <trkpt lat="42.6286472753" lon="20.1025237329">
        <ele>1725.70</ele>
        <time>2019-07-10T09:45:11Z</time>
      </trkpt>
      <trkpt lat="42.6287359558" lon="20.1026138384">
        <ele>1725.22</ele>
        <time>2019-07-10T09:45:19Z</time>
      </trkpt>
      <trkpt lat="42.6287574973" lon="20.1026397385">
        <ele>1724.26</ele>
        <time>2019-07-10T09:45:21Z</time>
      </trkpt>
      <trkpt lat="42.6288342755" lon="20.1026590168">
        <ele>1723.78</ele>
        <time>2019-07-10T09:45:26Z</time>
      </trkpt>
      <trkpt lat="42.6288906019" lon="20.1027008425">
        <ele>1722.82</ele>
        <time>2019-07-10T09:45:30Z</time>
      </trkpt>
      <trkpt lat="42.6291082799" lon="20.1028101426">
        <ele>1720.42</ele>
        <time>2019-07-10T09:45:48Z</time>
      </trkpt>
      <trkpt lat="42.6292397920" lon="20.1029208675">
        <ele>1718.97</ele>
        <time>2019-07-10T09:45:59Z</time>
      </trkpt>
      <trkpt lat="42.6293074340" lon="20.1029797085">
        <ele>1716.57</ele>
        <time>2019-07-10T09:46:11Z</time>
      </trkpt>
      <trkpt lat="42.6293500140" lon="20.1030411478">
        <ele>1716.09</ele>
        <time>2019-07-10T09:46:25Z</time>
      </trkpt>
      <trkpt lat="42.6293304004" lon="20.1030793693">
        <ele>1715.13</ele>
        <time>2019-07-10T09:46:36Z</time>
      </trkpt>
      <trkpt lat="42.6293744892" lon="20.1031627692">
        <ele>1712.73</ele>
        <time>2019-07-10T09:46:48Z</time>
      </trkpt>
      <trkpt lat="42.6293689571" lon="20.1032123063">
        <ele>1711.76</ele>
        <time>2019-07-10T09:47:05Z</time>
      </trkpt>
      <trkpt lat="42.6293639280" lon="20.1032324228">
        <ele>1711.28</ele>
        <time>2019-07-10T09:47:06Z</time>
      </trkpt>
      <trkpt lat="42.6293663587" lon="20.1033409685">
        <ele>1707.92</ele>
        <time>2019-07-10T09:47:16Z</time>
      </trkpt>
      <trkpt lat="42.6294166502" lon="20.1033958700">
        <ele>1706.48</ele>
        <time>2019-07-10T09:47:28Z</time>
      </trkpt>
      <trkpt lat="42.6294795144" lon="20.1033950318">
        <ele>1705.04</ele>
        <time>2019-07-10T09:47:41Z</time>
      </trkpt>
      <trkpt lat="42.6295053307" lon="20.1034144778">
        <ele>1705.04</ele>
        <time>2019-07-10T09:47:58Z</time>
      </trkpt>
      <trkpt lat="42.6295215078" lon="20.1034149807">
        <ele>1705.04</ele>
        <time>2019-07-10T09:48:09Z</time>
      </trkpt>
      <trkpt lat="42.6295522694" lon="20.1034361869">
        <ele>1704.07</ele>
        <time>2019-07-10T09:48:13Z</time>
      </trkpt>
      <trkpt lat="42.6296879724" lon="20.1034791023">
        <ele>1701.67</ele>
        <time>2019-07-10T09:48:27Z</time>
      </trkpt>
      <trkpt lat="42.6297500823" lon="20.1035464928">
        <ele>1700.23</ele>
        <time>2019-07-10T09:48:34Z</time>
      </trkpt>
      <trkpt lat="42.6297998708" lon="20.1036006398">
        <ele>1699.27</ele>
        <time>2019-07-10T09:48:39Z</time>
      </trkpt>
      <trkpt lat="42.6298424508" lon="20.1036692038">
        <ele>1698.31</ele>
        <time>2019-07-10T09:48:44Z</time>
      </trkpt>
      <trkpt lat="42.6299480628" lon="20.1037833653">
        <ele>1694.94</ele>
        <time>2019-07-10T09:48:56Z</time>
      </trkpt>
      <trkpt lat="42.6301031280" lon="20.1039630733">
        <ele>1691.58</ele>
        <time>2019-07-10T09:49:11Z</time>
      </trkpt>
      <trkpt lat="42.6301450375" lon="20.1040207408">
        <ele>1690.62</ele>
        <time>2019-07-10T09:49:15Z</time>
      </trkpt>
      <trkpt lat="42.6302559301" lon="20.1042077411">
        <ele>1687.73</ele>
        <time>2019-07-10T09:49:28Z</time>
      </trkpt>
      <trkpt lat="42.6302741189" lon="20.1042321324">
        <ele>1686.77</ele>
        <time>2019-07-10T09:49:30Z</time>
      </trkpt>
      <trkpt lat="42.6303289365" lon="20.1042975951">
        <ele>1685.33</ele>
        <time>2019-07-10T09:49:36Z</time>
      </trkpt>
      <trkpt lat="42.6303406712" lon="20.1043264288">
        <ele>1684.37</ele>
        <time>2019-07-10T09:49:38Z</time>
      </trkpt>
      <trkpt lat="42.6304142643" lon="20.1044103317">
        <ele>1682.44</ele>
        <time>2019-07-10T09:49:51Z</time>
      </trkpt>
      <trkpt lat="42.6304161921" lon="20.1044973359">
        <ele>1681.00</ele>
        <time>2019-07-10T09:50:02Z</time>
      </trkpt>
      <trkpt lat="42.6304228138" lon="20.1045162790">
        <ele>1681.00</ele>
        <time>2019-07-10T09:50:04Z</time>
      </trkpt>
      <trkpt lat="42.6303483825" lon="20.1046380680">
        <ele>1677.64</ele>
        <time>2019-07-10T09:50:17Z</time>
      </trkpt>
      <trkpt lat="42.6304222271" lon="20.1047057938">
        <ele>1674.75</ele>
        <time>2019-07-10T09:50:30Z</time>
      </trkpt>
      <trkpt lat="42.6304213051" lon="20.1046989206">
        <ele>1674.75</ele>
        <time>2019-07-10T09:50:36Z</time>
      </trkpt>
      <trkpt lat="42.6303843409" lon="20.1046770439">
        <ele>1675.72</ele>
        <time>2019-07-10T09:50:43Z</time>
      </trkpt>
      <trkpt lat="42.6303358935" lon="20.1046144310">
        <ele>1677.16</ele>
        <time>2019-07-10T09:50:55Z</time>
      </trkpt>
      <trkpt lat="42.6302860212" lon="20.1045929734">
        <ele>1678.12</ele>
        <time>2019-07-10T09:51:04Z</time>
      </trkpt>
      <trkpt lat="42.6302566007" lon="20.1045877766">
        <ele>1676.68</ele>
        <time>2019-07-10T09:51:06Z</time>
      </trkpt>
      <trkpt lat="42.6301955804" lon="20.1045560092">
        <ele>1675.72</ele>
        <time>2019-07-10T09:51:20Z</time>
      </trkpt>
      <trkpt lat="42.6301880367" lon="20.1045576017">
        <ele>1675.72</ele>
        <time>2019-07-10T09:51:21Z</time>
      </trkpt>
      <trkpt lat="42.6303236559" lon="20.1046850905">
        <ele>1677.64</ele>
        <time>2019-07-10T09:51:35Z</time>
      </trkpt>
      <trkpt lat="42.6303576864" lon="20.1047207136">
        <ele>1676.68</ele>
        <time>2019-07-10T09:51:39Z</time>
      </trkpt>
      <trkpt lat="42.6303836703" lon="20.1047605276">
        <ele>1674.75</ele>
        <time>2019-07-10T09:51:44Z</time>
      </trkpt>
      <trkpt lat="42.6304316986" lon="20.1047337055">
        <ele>1673.79</ele>
        <time>2019-07-10T09:51:50Z</time>
      </trkpt>
      <trkpt lat="42.6304883603" lon="20.1047572587">
        <ele>1671.87</ele>
        <time>2019-07-10T09:51:56Z</time>
      </trkpt>
      <trkpt lat="42.6305556670" lon="20.1048521418">
        <ele>1668.51</ele>
        <time>2019-07-10T09:52:07Z</time>
      </trkpt>
      <trkpt lat="42.6305948105" lon="20.1049229689">
        <ele>1666.10</ele>
        <time>2019-07-10T09:52:19Z</time>
      </trkpt>
      <trkpt lat="42.6306805573" lon="20.1049326081">
        <ele>1664.66</ele>
        <time>2019-07-10T09:52:32Z</time>
      </trkpt>
      <trkpt lat="42.6307336148" lon="20.1049569994">
        <ele>1662.74</ele>
        <time>2019-07-10T09:52:38Z</time>
      </trkpt>
      <trkpt lat="42.6307688188" lon="20.1050196122">
        <ele>1660.33</ele>
        <time>2019-07-10T09:52:49Z</time>
      </trkpt>
      <trkpt lat="42.6307817269" lon="20.1050150022">
        <ele>1659.85</ele>
        <time>2019-07-10T09:52:51Z</time>
      </trkpt>
      <trkpt lat="42.6308859140" lon="20.1050379686">
        <ele>1657.45</ele>
        <time>2019-07-10T09:53:02Z</time>
      </trkpt>
      <trkpt lat="42.6308893505" lon="20.1050984859">
        <ele>1654.09</ele>
        <time>2019-07-10T09:53:11Z</time>
      </trkpt>
      <trkpt lat="42.6308197808" lon="20.1051513758">
        <ele>1650.72</ele>
        <time>2019-07-10T09:53:19Z</time>
      </trkpt>
      <trkpt lat="42.6307984907" lon="20.1051609311">
        <ele>1650.24</ele>
        <time>2019-07-10T09:53:21Z</time>
      </trkpt>
      <trkpt lat="42.6307762787" lon="20.1052391343">
        <ele>1648.80</ele>
        <time>2019-07-10T09:53:27Z</time>
      </trkpt>
      <trkpt lat="42.6308030169" lon="20.1053327601">
        <ele>1646.88</ele>
        <time>2019-07-10T09:53:36Z</time>
      </trkpt>
      <trkpt lat="42.6308378018" lon="20.1053517032">
        <ele>1646.88</ele>
        <time>2019-07-10T09:53:39Z</time>
      </trkpt>
      <trkpt lat="42.6308642887" lon="20.1053844765">
        <ele>1646.40</ele>
        <time>2019-07-10T09:53:42Z</time>
      </trkpt>
      <trkpt lat="42.6309219562" lon="20.1054433174">
        <ele>1644.95</ele>
        <time>2019-07-10T09:53:48Z</time>
      </trkpt>
      <trkpt lat="42.6310099661" lon="20.1055840496">
        <ele>1644.47</ele>
        <time>2019-07-10T09:54:01Z</time>
      </trkpt>
      <trkpt lat="42.6310222875" lon="20.1056027412">
        <ele>1643.99</ele>
        <time>2019-07-10T09:54:03Z</time>
      </trkpt>
      <trkpt lat="42.6310403924" lon="20.1056226902">
        <ele>1643.99</ele>
        <time>2019-07-10T09:54:05Z</time>
      </trkpt>
      <trkpt lat="42.6311417297" lon="20.1057273801">
        <ele>1643.03</ele>
        <time>2019-07-10T09:54:20Z</time>
      </trkpt>
      <trkpt lat="42.6311509497" lon="20.1057423837">
        <ele>1642.55</ele>
        <time>2019-07-10T09:54:31Z</time>
      </trkpt>
      <trkpt lat="42.6311113872" lon="20.1058329921">
        <ele>1642.55</ele>
        <time>2019-07-10T09:54:42Z</time>
      </trkpt>
      <trkpt lat="42.6310990658" lon="20.1059149671">
        <ele>1642.07</ele>
        <time>2019-07-10T09:55:00Z</time>
      </trkpt>
      <trkpt lat="42.6311236247" lon="20.1059498359">
        <ele>1641.59</ele>
        <time>2019-07-10T09:55:12Z</time>
      </trkpt>
      <trkpt lat="42.6311568171" lon="20.1059465669">
        <ele>1641.59</ele>
        <time>2019-07-10T09:55:21Z</time>
      </trkpt>
      <trkpt lat="42.6311756764" lon="20.1059845369">
        <ele>1641.59</ele>
        <time>2019-07-10T09:55:28Z</time>
      </trkpt>
      <trkpt lat="42.6312190108" lon="20.1060078386">
        <ele>1641.11</ele>
        <time>2019-07-10T09:55:31Z</time>
      </trkpt>
      <trkpt lat="42.6313161571" lon="20.1060872991">
        <ele>1641.11</ele>
        <time>2019-07-10T09:55:42Z</time>
      </trkpt>
      <trkpt lat="42.6313983835" lon="20.1061236765">
        <ele>1640.63</ele>
        <time>2019-07-10T09:55:54Z</time>
      </trkpt>
      <trkpt lat="42.6314104535" lon="20.1061348245">
        <ele>1642.07</ele>
        <time>2019-07-10T09:55:56Z</time>
      </trkpt>
      <trkpt lat="42.6314429753" lon="20.1061526779">
        <ele>1642.55</ele>
        <time>2019-07-10T09:56:00Z</time>
      </trkpt>
      <trkpt lat="42.6315979566" lon="20.1063078269">
        <ele>1642.55</ele>
        <time>2019-07-10T09:56:13Z</time>
      </trkpt>
      <trkpt lat="42.6316626649" lon="20.1063994411">
        <ele>1641.11</ele>
        <time>2019-07-10T09:56:19Z</time>
      </trkpt>
      <trkpt lat="42.6318344101" lon="20.1065618824">
        <ele>1640.15</ele>
        <time>2019-07-10T09:56:34Z</time>
      </trkpt>
      <trkpt lat="42.6318623219" lon="20.1065785624">
        <ele>1639.67</ele>
        <time>2019-07-10T09:56:36Z</time>
      </trkpt>
      <trkpt lat="42.6319152117" lon="20.1066086534">
        <ele>1639.67</ele>
        <time>2019-07-10T09:56:40Z</time>
      </trkpt>
      <trkpt lat="42.6320340671" lon="20.1067122538">
        <ele>1638.22</ele>
        <time>2019-07-10T09:56:51Z</time>
      </trkpt>
      <trkpt lat="42.6320950873" lon="20.1068317797">
        <ele>1638.22</ele>
        <time>2019-07-10T09:56:58Z</time>
      </trkpt>
      <trkpt lat="42.6321199816" lon="20.1068921294">
        <ele>1637.74</ele>
        <time>2019-07-10T09:57:02Z</time>
      </trkpt>
      <trkpt lat="42.6322362386" lon="20.1069672313">
        <ele>1637.74</ele>
        <time>2019-07-10T09:57:14Z</time>
      </trkpt>
      <trkpt lat="42.6322713587" lon="20.1069874316">
        <ele>1637.74</ele>
        <time>2019-07-10T09:57:17Z</time>
      </trkpt>
      <trkpt lat="42.6323836762" lon="20.1070747711">
        <ele>1636.30</ele>
        <time>2019-07-10T09:57:28Z</time>
      </trkpt>
      <trkpt lat="42.6324119233" lon="20.1070725918">
        <ele>1636.30</ele>
        <time>2019-07-10T09:57:30Z</time>
      </trkpt>
      <trkpt lat="42.6326053776" lon="20.1071508788">
        <ele>1635.82</ele>
        <time>2019-07-10T09:57:46Z</time>
      </trkpt>
      <trkpt lat="42.6327216346" lon="20.1071963925">
        <ele>1635.34</ele>
        <time>2019-07-10T09:57:56Z</time>
      </trkpt>
      <trkpt lat="42.6328929607" lon="20.1072782837">
        <ele>1635.34</ele>
        <time>2019-07-10T09:58:13Z</time>
      </trkpt>
      <trkpt lat="42.6330053620" lon="20.1073461771">
        <ele>1636.78</ele>
        <time>2019-07-10T09:58:24Z</time>
      </trkpt>
      <trkpt lat="42.6330477744" lon="20.1073680539">
        <ele>1635.82</ele>
        <time>2019-07-10T09:58:27Z</time>
      </trkpt>
      <trkpt lat="42.6331697311" lon="20.1074524596">
        <ele>1635.34</ele>
        <time>2019-07-10T09:58:38Z</time>
      </trkpt>
      <trkpt lat="42.6332191844" lon="20.1074647810">
        <ele>1634.86</ele>
        <time>2019-07-10T09:58:42Z</time>
      </trkpt>
      <trkpt lat="42.6332365349" lon="20.1074780244">
        <ele>1634.86</ele>
        <time>2019-07-10T09:58:44Z</time>
      </trkpt>
      <trkpt lat="42.6333777700" lon="20.1075499412">
        <ele>1634.86</ele>
        <time>2019-07-10T09:58:56Z</time>
      </trkpt>
      <trkpt lat="42.6334194280" lon="20.1075699739">
        <ele>1634.86</ele>
        <time>2019-07-10T09:58:59Z</time>
      </trkpt>
      <trkpt lat="42.6335311588" lon="20.1076801959">
        <ele>1634.38</ele>
        <time>2019-07-10T09:59:11Z</time>
      </trkpt>
      <trkpt lat="42.6335397083" lon="20.1076937746">
        <ele>1634.38</ele>
        <time>2019-07-10T09:59:12Z</time>
      </trkpt>
      <trkpt lat="42.6336224377" lon="20.1077799406">
        <ele>1635.82</ele>
        <time>2019-07-10T09:59:21Z</time>
      </trkpt>
      <trkpt lat="42.6337305643" lon="20.1079222653">
        <ele>1634.38</ele>
        <time>2019-07-10T09:59:33Z</time>
      </trkpt>
      <trkpt lat="42.6337717194" lon="20.1080385223">
        <ele>1633.90</ele>
        <time>2019-07-10T09:59:41Z</time>
      </trkpt>
      <trkpt lat="42.6339058299" lon="20.1081575453">
        <ele>1633.90</ele>
        <time>2019-07-10T09:59:54Z</time>
      </trkpt>
      <trkpt lat="42.6340404432" lon="20.1082665939">
        <ele>1633.42</ele>
        <time>2019-07-10T10:00:06Z</time>
      </trkpt>
      <trkpt lat="42.6341249328" lon="20.1083680149">
        <ele>1633.42</ele>
        <time>2019-07-10T10:00:17Z</time>
      </trkpt>
      <trkpt lat="42.6341614779" lon="20.1084216591">
        <ele>1633.42</ele>
        <time>2019-07-10T10:00:23Z</time>
      </trkpt>
      <trkpt lat="42.6342168823" lon="20.1084784046">
        <ele>1633.42</ele>
        <time>2019-07-10T10:00:28Z</time>
      </trkpt>
      <trkpt lat="42.6342587918" lon="20.1085060649">
        <ele>1633.42</ele>
        <time>2019-07-10T10:00:31Z</time>
      </trkpt>
      <trkpt lat="42.6343862806" lon="20.1085696835">
        <ele>1632.46</ele>
        <time>2019-07-10T10:00:43Z</time>
      </trkpt>
      <trkpt lat="42.6344310399" lon="20.1086125989">
        <ele>1631.98</ele>
        <time>2019-07-10T10:00:53Z</time>
      </trkpt>
      <trkpt lat="42.6344326325" lon="20.1086733676">
        <ele>1631.98</ele>
        <time>2019-07-10T10:01:15Z</time>
      </trkpt>
      <trkpt lat="42.6344296988" lon="20.1086618844">
        <ele>1631.49</ele>
        <time>2019-07-10T10:01:34Z</time>
      </trkpt>
      <trkpt lat="42.6344439480" lon="20.1086614653">
        <ele>1631.01</ele>
        <time>2019-07-10T10:02:05Z</time>
      </trkpt>
      <trkpt lat="42.6344307885" lon="20.1086726971">
        <ele>1631.01</ele>
        <time>2019-07-10T10:02:43Z</time>
      </trkpt>
      <trkpt lat="42.6344043855" lon="20.1087678317">
        <ele>1631.01</ele>
        <time>2019-07-10T10:03:25Z</time>
      </trkpt>
      <trkpt lat="42.6344158687" lon="20.1086753793">
        <ele>1630.53</ele>
        <time>2019-07-10T10:04:05Z</time>
      </trkpt>
      <trkpt lat="42.6344358176" lon="20.1087214798">
        <ele>1630.53</ele>
        <time>2019-07-10T10:04:28Z</time>
      </trkpt>
      <trkpt lat="42.6344217360" lon="20.1087286882">
        <ele>1630.05</ele>
        <time>2019-07-10T10:04:53Z</time>
      </trkpt>
      <trkpt lat="42.6344265975" lon="20.1087548397">
        <ele>1629.57</ele>
        <time>2019-07-10T10:05:23Z</time>
      </trkpt>
      <trkpt lat="42.6344414335" lon="20.1087624673">
        <ele>1629.57</ele>
        <time>2019-07-10T10:05:56Z</time>
      </trkpt>
      <trkpt lat="42.6343887113" lon="20.1086896285">
        <ele>1629.57</ele>
        <time>2019-07-10T10:06:39Z</time>
      </trkpt>
      <trkpt lat="42.6344142761" lon="20.1086915564">
        <ele>1629.09</ele>
        <time>2019-07-10T10:07:18Z</time>
      </trkpt>
      <trkpt lat="42.6345127635" lon="20.1085495669">
        <ele>1630.05</ele>
        <time>2019-07-10T10:07:48Z</time>
      </trkpt>
      <trkpt lat="42.6345643122" lon="20.1086276863">
        <ele>1630.05</ele>
        <time>2019-07-10T10:08:15Z</time>
      </trkpt>
      <trkpt lat="42.6344788168" lon="20.1086094137">
        <ele>1630.53</ele>
        <time>2019-07-10T10:08:44Z</time>
      </trkpt>
      <trkpt lat="42.6344531681" lon="20.1086902153">
        <ele>1630.53</ele>
        <time>2019-07-10T10:09:12Z</time>
      </trkpt>
      <trkpt lat="42.6343996078" lon="20.1087074820">
        <ele>1631.01</ele>
        <time>2019-07-10T10:09:46Z</time>
      </trkpt>
      <trkpt lat="42.6343732048" lon="20.1088588592">
        <ele>1631.49</ele>
        <time>2019-07-10T10:10:14Z</time>
      </trkpt>
      <trkpt lat="42.6341430377" lon="20.1088632178">
        <ele>1631.49</ele>
        <time>2019-07-10T10:10:49Z</time>
      </trkpt>
      <trkpt lat="42.6341807563" lon="20.1089331228">
        <ele>1632.46</ele>
        <time>2019-07-10T10:11:16Z</time>
      </trkpt>
      <trkpt lat="42.6344307046" lon="20.1087565161">
        <ele>1633.42</ele>
        <time>2019-07-10T10:11:47Z</time>
      </trkpt>
      <trkpt lat="42.6343846880" lon="20.1086602919">
        <ele>1633.90</ele>
        <time>2019-07-10T10:12:15Z</time>
      </trkpt>
      <trkpt lat="42.6343922317" lon="20.1087292749">
        <ele>1633.90</ele>
        <time>2019-07-10T10:12:47Z</time>
      </trkpt>
      <trkpt lat="42.6343229972" lon="20.1087694243">
        <ele>1633.90</ele>
        <time>2019-07-10T10:13:22Z</time>
      </trkpt>
      <trkpt lat="42.6342149545" lon="20.1088724378">
        <ele>1634.38</ele>
        <time>2019-07-10T10:13:53Z</time>
      </trkpt>
      <trkpt lat="42.6342240069" lon="20.1087876130">
        <ele>1633.90</ele>
        <time>2019-07-10T10:14:22Z</time>
      </trkpt>
      <trkpt lat="42.6343798265" lon="20.1088804845">
        <ele>1634.38</ele>
        <time>2019-07-10T10:14:57Z</time>
      </trkpt>
      <trkpt lat="42.6344736200" lon="20.1088443585">
        <ele>1635.34</ele>
        <time>2019-07-10T10:15:37Z</time>
      </trkpt>
      <trkpt lat="42.6344638132" lon="20.1086633932">
        <ele>1635.82</ele>
        <time>2019-07-10T10:16:04Z</time>
      </trkpt>
      <trkpt lat="42.6345614623" lon="20.1087643113">
        <ele>1636.30</ele>
        <time>2019-07-10T10:16:40Z</time>
      </trkpt>
      <trkpt lat="42.6345193014" lon="20.1087204739">
        <ele>1636.78</ele>
        <time>2019-07-10T10:17:04Z</time>
      </trkpt>
      <trkpt lat="42.6343044732" lon="20.1088055503">
        <ele>1637.26</ele>
        <time>2019-07-10T10:17:32Z</time>
      </trkpt>
      <trkpt lat="42.6343622245" lon="20.1087877806">
        <ele>1636.78</ele>
        <time>2019-07-10T10:18:00Z</time>
      </trkpt>
      <trkpt lat="42.6343562733" lon="20.1085961703">
        <ele>1635.82</ele>
        <time>2019-07-10T10:18:39Z</time>
      </trkpt>
      <trkpt lat="42.6342727896" lon="20.1087725256">
        <ele>1634.38</ele>
        <time>2019-07-10T10:19:13Z</time>
      </trkpt>
      <trkpt lat="42.6342287008" lon="20.1088373177">
        <ele>1633.42</ele>
        <time>2019-07-10T10:19:39Z</time>
      </trkpt>
      <trkpt lat="42.6344635617" lon="20.1085548475">
        <ele>1632.94</ele>
        <time>2019-07-10T10:20:10Z</time>
      </trkpt>
      <trkpt lat="42.6345072314" lon="20.1086007804">
        <ele>1632.46</ele>
        <time>2019-07-10T10:20:36Z</time>
      </trkpt>
      <trkpt lat="42.6345790643" lon="20.1086645667">
        <ele>1632.46</ele>
        <time>2019-07-10T10:21:04Z</time>
      </trkpt>
      <trkpt lat="42.6344820019" lon="20.1087517384">
        <ele>1631.98</ele>
        <time>2019-07-10T10:21:33Z</time>
      </trkpt>
      <trkpt lat="42.6345144399" lon="20.1087561809">
        <ele>1631.49</ele>
        <time>2019-07-10T10:22:03Z</time>
      </trkpt>
      <trkpt lat="42.6345162001" lon="20.1085750479">
        <ele>1631.49</ele>
        <time>2019-07-10T10:22:28Z</time>
      </trkpt>
      <trkpt lat="42.6344815828" lon="20.1085186377">
        <ele>1631.49</ele>
        <time>2019-07-10T10:23:00Z</time>
      </trkpt>
      <trkpt lat="42.6343872864" lon="20.1086517423">
        <ele>1631.01</ele>
        <time>2019-07-10T10:23:34Z</time>
      </trkpt>
      <trkpt lat="42.6342570316" lon="20.1087659039">
        <ele>1631.01</ele>
        <time>2019-07-10T10:24:02Z</time>
      </trkpt>
      <trkpt lat="42.6342851110" lon="20.1087691728">
        <ele>1630.53</ele>
        <time>2019-07-10T10:24:28Z</time>
      </trkpt>
      <trkpt lat="42.6343153697" lon="20.1087668259">
        <ele>1630.53</ele>
        <time>2019-07-10T10:24:59Z</time>
      </trkpt>
      <trkpt lat="42.6343584526" lon="20.1087562647">
        <ele>1630.05</ele>
        <time>2019-07-10T10:25:37Z</time>
      </trkpt>
      <trkpt lat="42.6344130188" lon="20.1086830068">
        <ele>1630.05</ele>
        <time>2019-07-10T10:26:08Z</time>
      </trkpt>
      <trkpt lat="42.6344934013" lon="20.1085949130">
        <ele>1630.05</ele>
        <time>2019-07-10T10:26:45Z</time>
      </trkpt>
      <trkpt lat="42.6344478875" lon="20.1086137723">
        <ele>1629.57</ele>
        <time>2019-07-10T10:27:23Z</time>
      </trkpt>
      <trkpt lat="42.6344082411" lon="20.1087039616">
        <ele>1629.57</ele>
        <time>2019-07-10T10:28:00Z</time>
      </trkpt>
      <trkpt lat="42.6345509849" lon="20.1087195519">
        <ele>1630.05</ele>
        <time>2019-07-10T10:28:23Z</time>
      </trkpt>
      <trkpt lat="42.6344297826" lon="20.1087239105">
        <ele>1630.05</ele>
        <time>2019-07-10T10:28:56Z</time>
      </trkpt>
      <trkpt lat="42.6344115939" lon="20.1086423546">
        <ele>1630.53</ele>
        <time>2019-07-10T10:29:31Z</time>
      </trkpt>
      <trkpt lat="42.6344653219" lon="20.1085761376">
        <ele>1631.01</ele>
        <time>2019-07-10T10:30:01Z</time>
      </trkpt>
      <trkpt lat="42.6344381645" lon="20.1085716952">
        <ele>1631.01</ele>
        <time>2019-07-10T10:30:35Z</time>
      </trkpt>
      <trkpt lat="42.6344340574" lon="20.1087183785">
        <ele>1631.01</ele>
        <time>2019-07-10T10:31:10Z</time>
      </trkpt>
      <trkpt lat="42.6344371587" lon="20.1088166144">
        <ele>1631.01</ele>
        <time>2019-07-10T10:31:33Z</time>
      </trkpt>
      <trkpt lat="42.6343297027" lon="20.1087934803">
        <ele>1631.01</ele>
        <time>2019-07-10T10:32:04Z</time>
      </trkpt>
      <trkpt lat="42.6344407629" lon="20.1087327115">
        <ele>1630.53</ele>
        <time>2019-07-10T10:32:36Z</time>
      </trkpt>
      <trkpt lat="42.6343344804" lon="20.1087819133">
        <ele>1630.53</ele>
        <time>2019-07-10T10:33:11Z</time>
      </trkpt>
      <trkpt lat="42.6343657449" lon="20.1086667459">
        <ele>1630.53</ele>
        <time>2019-07-10T10:33:42Z</time>
      </trkpt>
      <trkpt lat="42.6342426986" lon="20.1088067237">
        <ele>1630.53</ele>
        <time>2019-07-10T10:34:16Z</time>
      </trkpt>
      <trkpt lat="42.6343190577" lon="20.1086904667">
        <ele>1630.53</ele>
        <time>2019-07-10T10:34:38Z</time>
      </trkpt>
      <trkpt lat="42.6343511604" lon="20.1086244173">
        <ele>1631.98</ele>
        <time>2019-07-10T10:34:55Z</time>
      </trkpt>
      <trkpt lat="42.6343372464" lon="20.1085973438">
        <ele>1632.46</ele>
        <time>2019-07-10T10:35:13Z</time>
      </trkpt>
      <trkpt lat="42.6343598776" lon="20.1086076535">
        <ele>1632.94</ele>
        <time>2019-07-10T10:35:31Z</time>
      </trkpt>
      <trkpt lat="42.6343872864" lon="20.1086383313">
        <ele>1633.42</ele>
        <time>2019-07-10T10:35:56Z</time>
      </trkpt>
      <trkpt lat="42.6342996955" lon="20.1086634770">
        <ele>1633.42</ele>
        <time>2019-07-10T10:36:11Z</time>
      </trkpt>
      <trkpt lat="42.6342832670" lon="20.1086128503">
        <ele>1633.42</ele>
        <time>2019-07-10T10:36:15Z</time>
      </trkpt>
      <trkpt lat="42.6343314629" lon="20.1086305361">
        <ele>1634.38</ele>
        <time>2019-07-10T10:36:28Z</time>
      </trkpt>
      <trkpt lat="42.6343598776" lon="20.1086476352">
        <ele>1634.38</ele>
        <time>2019-07-10T10:36:30Z</time>
      </trkpt>
      <trkpt lat="42.6344763022" lon="20.1087795664">
        <ele>1634.38</ele>
        <time>2019-07-10T10:36:43Z</time>
      </trkpt>
      <trkpt lat="42.6344797388" lon="20.1087924745">
        <ele>1634.38</ele>
        <time>2019-07-10T10:36:44Z</time>
      </trkpt>
      <trkpt lat="42.6345099136" lon="20.1088766288">
        <ele>1634.38</ele>
        <time>2019-07-10T10:36:50Z</time>
      </trkpt>
      <trkpt lat="42.6345880330" lon="20.1090001781">
        <ele>1632.94</ele>
        <time>2019-07-10T10:37:00Z</time>
      </trkpt>
      <trkpt lat="42.6346183755" lon="20.1090432610">
        <ele>1632.94</ele>
        <time>2019-07-10T10:37:04Z</time>
      </trkpt>
      <trkpt lat="42.6347244903" lon="20.1092228852">
        <ele>1632.46</ele>
        <time>2019-07-10T10:37:19Z</time>
      </trkpt>
      <trkpt lat="42.6347621251" lon="20.1092882641">
        <ele>1632.46</ele>
        <time>2019-07-10T10:37:25Z</time>
      </trkpt>
      <trkpt lat="42.6349011809" lon="20.1095021702">
        <ele>1632.46</ele>
        <time>2019-07-10T10:37:39Z</time>
      </trkpt>
      <trkpt lat="42.6350233052" lon="20.1096783578">
        <ele>1632.46</ele>
        <time>2019-07-10T10:37:53Z</time>
      </trkpt>
      <trkpt lat="42.6349932142" lon="20.1097831316">
        <ele>1633.42</ele>
        <time>2019-07-10T10:38:08Z</time>
      </trkpt>
      <trkpt lat="42.6350884326" lon="20.1098073553">
        <ele>1633.42</ele>
        <time>2019-07-10T10:38:43Z</time>
      </trkpt>
      <trkpt lat="42.6351099741" lon="20.1099747419">
        <ele>1633.42</ele>
        <time>2019-07-10T10:38:58Z</time>
      </trkpt>
      <trkpt lat="42.6351269055" lon="20.1100274641">
        <ele>1632.46</ele>
        <time>2019-07-10T10:39:01Z</time>
      </trkpt>
      <trkpt lat="42.6351897698" lon="20.1101965271">
        <ele>1631.49</ele>
        <time>2019-07-10T10:39:14Z</time>
      </trkpt>
      <trkpt lat="42.6352720801" lon="20.1104030572">
        <ele>1630.05</ele>
        <time>2019-07-10T10:39:27Z</time>
      </trkpt>
      <trkpt lat="42.6353835594" lon="20.1106578670">
        <ele>1628.61</ele>
        <time>2019-07-10T10:39:42Z</time>
      </trkpt>
      <trkpt lat="42.6354083698" lon="20.1109214779">
        <ele>1628.61</ele>
        <time>2019-07-10T10:39:56Z</time>
      </trkpt>
      <trkpt lat="42.6353958808" lon="20.1110943127">
        <ele>1627.17</ele>
        <time>2019-07-10T10:40:07Z</time>
      </trkpt>
      <trkpt lat="42.6363079157" lon="20.1380658522">
        <ele>1643.03</ele>
        <time>2019-07-11T05:51:08Z</time>
      </trkpt>
      <trkpt lat="42.6363070775" lon="20.1380383596">
        <ele>1643.03</ele>
        <time>2019-07-11T05:51:11Z</time>
      </trkpt>
      <trkpt lat="42.6363081671" lon="20.1379894931">
        <ele>1643.03</ele>
        <time>2019-07-11T05:51:14Z</time>
      </trkpt>
      <trkpt lat="42.6363570336" lon="20.1378542930">
        <ele>1643.03</ele>
        <time>2019-07-11T05:51:31Z</time>
      </trkpt>
      <trkpt lat="42.6364249270" lon="20.1377417240">
        <ele>1643.03</ele>
        <time>2019-07-11T05:51:43Z</time>
      </trkpt>
      <trkpt lat="42.6365330536" lon="20.1375905145">
        <ele>1642.55</ele>
        <time>2019-07-11T05:51:57Z</time>
      </trkpt>
      <trkpt lat="42.6364848576" lon="20.1374516264">
        <ele>1644.95</ele>
        <time>2019-07-11T05:52:08Z</time>
      </trkpt>
      <trkpt lat="42.6363499928" lon="20.1373536419">
        <ele>1644.95</ele>
        <time>2019-07-11T05:52:24Z</time>
      </trkpt>
      <trkpt lat="42.6362686884" lon="20.1373238862">
        <ele>1645.91</ele>
        <time>2019-07-11T05:52:33Z</time>
      </trkpt>
      <trkpt lat="42.6362244319" lon="20.1372976508">
        <ele>1650.24</ele>
        <time>2019-07-11T05:52:38Z</time>
      </trkpt>
      <trkpt lat="42.6361995377" lon="20.1372775342">
        <ele>1653.12</ele>
        <time>2019-07-11T05:52:42Z</time>
      </trkpt>
      <trkpt lat="42.6361726318" lon="20.1372526400">
        <ele>1656.49</ele>
        <time>2019-07-11T05:52:46Z</time>
      </trkpt>
      <trkpt lat="42.6361486595" lon="20.1372155920">
        <ele>1658.89</ele>
        <time>2019-07-11T05:52:50Z</time>
      </trkpt>
      <trkpt lat="42.6361036487" lon="20.1371621992">
        <ele>1662.74</ele>
        <time>2019-07-11T05:52:57Z</time>
      </trkpt>
      <trkpt lat="42.6360705402" lon="20.1370829064">
        <ele>1666.58</ele>
        <time>2019-07-11T05:53:04Z</time>
      </trkpt>
      <trkpt lat="42.6360515133" lon="20.1370576769">
        <ele>1669.47</ele>
        <time>2019-07-11T05:53:10Z</time>
      </trkpt>
      <trkpt lat="42.6360186562" lon="20.1370365545">
        <ele>1670.91</ele>
        <time>2019-07-11T05:53:15Z</time>
      </trkpt>
      <trkpt lat="42.6360072568" lon="20.1370162703">
        <ele>1671.39</ele>
        <time>2019-07-11T05:53:17Z</time>
      </trkpt>
      <trkpt lat="42.6360250264" lon="20.1369670685">
        <ele>1673.79</ele>
        <time>2019-07-11T05:53:25Z</time>
      </trkpt>
      <trkpt lat="42.6360494178" lon="20.1369373966">
        <ele>1675.72</ele>
        <time>2019-07-11T05:53:41Z</time>
      </trkpt>
      <trkpt lat="42.6360351685" lon="20.1368866023">
        <ele>1675.72</ele>
        <time>2019-07-11T05:54:02Z</time>
      </trkpt>
      <trkpt lat="42.6360743120" lon="20.1368786395">
        <ele>1676.20</ele>
        <time>2019-07-11T05:54:23Z</time>
      </trkpt>
      <trkpt lat="42.6360780839" lon="20.1368956547">
        <ele>1676.20</ele>
        <time>2019-07-11T05:54:32Z</time>
      </trkpt>
      <trkpt lat="42.6361173950" lon="20.1369177829">
        <ele>1676.20</ele>
        <time>2019-07-11T05:54:50Z</time>
      </trkpt>
      <trkpt lat="42.6362072490" lon="20.1368834171">
        <ele>1676.20</ele>
        <time>2019-07-11T05:55:04Z</time>
      </trkpt>
      <trkpt lat="42.6363525912" lon="20.1367929764">
        <ele>1676.68</ele>
        <time>2019-07-11T05:55:21Z</time>
      </trkpt>
      <trkpt lat="42.6363699418" lon="20.1367855165">
        <ele>1676.68</ele>
        <time>2019-07-11T05:55:23Z</time>
      </trkpt>
      <trkpt lat="42.6365333050" lon="20.1368145179">
        <ele>1677.64</ele>
        <time>2019-07-11T05:55:39Z</time>
      </trkpt>
      <trkpt lat="42.6366619673" lon="20.1369096525">
        <ele>1679.08</ele>
        <time>2019-07-11T05:55:53Z</time>
      </trkpt>
      <trkpt lat="42.6366711035" lon="20.1369118318">
        <ele>1679.08</ele>
        <time>2019-07-11T05:55:54Z</time>
      </trkpt>
      <trkpt lat="42.6367130969" lon="20.1369280927">
        <ele>1679.56</ele>
        <time>2019-07-11T05:55:58Z</time>
      </trkpt>
      <trkpt lat="42.6368140150" lon="20.1369291823">
        <ele>1681.48</ele>
        <time>2019-07-11T05:56:08Z</time>
      </trkpt>
      <trkpt lat="42.6369814016" lon="20.1368831657">
        <ele>1682.44</ele>
        <time>2019-07-11T05:56:24Z</time>
      </trkpt>
      <trkpt lat="42.6371396519" lon="20.1368671563">
        <ele>1684.37</ele>
        <time>2019-07-11T05:56:40Z</time>
      </trkpt>
      <trkpt lat="42.6372832339" lon="20.1368454471">
        <ele>1685.33</ele>
        <time>2019-07-11T05:56:54Z</time>
      </trkpt>
      <trkpt lat="42.6373849902" lon="20.1367990114">
        <ele>1687.25</ele>
        <time>2019-07-11T05:57:05Z</time>
      </trkpt>
      <trkpt lat="42.6374004129" lon="20.1367835887">
        <ele>1687.25</ele>
        <time>2019-07-11T05:57:07Z</time>
      </trkpt>
      <trkpt lat="42.6374195237" lon="20.1367751230">
        <ele>1687.25</ele>
        <time>2019-07-11T05:57:09Z</time>
      </trkpt>
      <trkpt lat="42.6374662109" lon="20.1367079839">
        <ele>1688.69</ele>
        <time>2019-07-11T05:57:16Z</time>
      </trkpt>
      <trkpt lat="42.6375780255" lon="20.1366102509">
        <ele>1689.65</ele>
        <time>2019-07-11T05:57:28Z</time>
      </trkpt>
      <trkpt lat="42.6377430651" lon="20.1365391724">
        <ele>1690.62</ele>
        <time>2019-07-11T05:57:44Z</time>
      </trkpt>
      <trkpt lat="42.6378987171" lon="20.1364818402">
        <ele>1692.06</ele>
        <time>2019-07-11T05:57:58Z</time>
      </trkpt>
      <trkpt lat="42.6380345039" lon="20.1364072412">
        <ele>1692.54</ele>
        <time>2019-07-11T05:58:11Z</time>
      </trkpt>
      <trkpt lat="42.6380821131" lon="20.1363763120">
        <ele>1692.54</ele>
        <time>2019-07-11T05:58:16Z</time>
      </trkpt>
      <trkpt lat="42.6381130423" lon="20.1363197342">
        <ele>1691.10</ele>
        <time>2019-07-11T05:58:22Z</time>
      </trkpt>
      <trkpt lat="42.6381948497" lon="20.1362310536">
        <ele>1691.10</ele>
        <time>2019-07-11T05:58:31Z</time>
      </trkpt>
      <trkpt lat="42.6383360010" lon="20.1360549498">
        <ele>1691.10</ele>
        <time>2019-07-11T05:58:47Z</time>
      </trkpt>
      <trkpt lat="42.6383550279" lon="20.1360312290">
        <ele>1691.10</ele>
        <time>2019-07-11T05:58:49Z</time>
      </trkpt>
      <trkpt lat="42.6383840293" lon="20.1359733101">
        <ele>1691.10</ele>
        <time>2019-07-11T05:58:53Z</time>
      </trkpt>
      <trkpt lat="42.6384466421" lon="20.1358310692">
        <ele>1691.10</ele>
        <time>2019-07-11T05:59:03Z</time>
      </trkpt>
      <trkpt lat="42.6385297906" lon="20.1357069332">
        <ele>1691.10</ele>
        <time>2019-07-11T05:59:16Z</time>
      </trkpt>
      <trkpt lat="42.6385467220" lon="20.1356979646">
        <ele>1692.06</ele>
        <time>2019-07-11T05:59:18Z</time>
      </trkpt>
      <trkpt lat="42.6385820936" lon="20.1356693823">
        <ele>1692.06</ele>
        <time>2019-07-11T05:59:21Z</time>
      </trkpt>
      <trkpt lat="42.6386753842" lon="20.1356029138">
        <ele>1692.06</ele>
        <time>2019-07-11T05:59:29Z</time>
      </trkpt>
      <trkpt lat="42.6387222391" lon="20.1355800312">
        <ele>1692.06</ele>
        <time>2019-07-11T05:59:33Z</time>
      </trkpt>
      <trkpt lat="42.6387659088" lon="20.1355310809">
        <ele>1690.62</ele>
        <time>2019-07-11T05:59:38Z</time>
      </trkpt>
      <trkpt lat="42.6388832554" lon="20.1354046818">
        <ele>1690.14</ele>
        <time>2019-07-11T05:59:51Z</time>
      </trkpt>
      <trkpt lat="42.6389027014" lon="20.1353928633">
        <ele>1690.14</ele>
        <time>2019-07-11T05:59:53Z</time>
      </trkpt>
      <trkpt lat="42.6390235685" lon="20.1353478525">
        <ele>1690.14</ele>
        <time>2019-07-11T06:00:02Z</time>
      </trkpt>
      <trkpt lat="42.6390453614" lon="20.1350777876">
        <ele>1687.25</ele>
        <time>2019-07-11T06:00:16Z</time>
      </trkpt>
      <trkpt lat="42.6391231455" lon="20.1348942239">
        <ele>1685.33</ele>
        <time>2019-07-11T06:00:29Z</time>
      </trkpt>
      <trkpt lat="42.6391709223" lon="20.1348006818">
        <ele>1683.89</ele>
        <time>2019-07-11T06:00:36Z</time>
      </trkpt>
      <trkpt lat="42.6392465271" lon="20.1346257515">
        <ele>1682.44</ele>
        <time>2019-07-11T06:00:49Z</time>
      </trkpt>
      <trkpt lat="42.6393217128" lon="20.1345963310">
        <ele>1682.44</ele>
        <time>2019-07-11T06:00:55Z</time>
      </trkpt>
      <trkpt lat="42.6394051965" lon="20.1346751209">
        <ele>1682.44</ele>
        <time>2019-07-11T06:01:02Z</time>
      </trkpt>
      <trkpt lat="42.6394746825" lon="20.1346865203">
        <ele>1684.37</ele>
        <time>2019-07-11T06:01:08Z</time>
      </trkpt>
      <trkpt lat="42.6394984871" lon="20.1346439403">
        <ele>1684.85</ele>
        <time>2019-07-11T06:01:12Z</time>
      </trkpt>
      <trkpt lat="42.6395206153" lon="20.1345928945">
        <ele>1685.81</ele>
        <time>2019-07-11T06:01:17Z</time>
      </trkpt>
      <trkpt lat="42.6395344455" lon="20.1345230732">
        <ele>1686.77</ele>
        <time>2019-07-11T06:01:22Z</time>
      </trkpt>
      <trkpt lat="42.6395408157" lon="20.1344071515">
        <ele>1688.21</ele>
        <time>2019-07-11T06:01:31Z</time>
      </trkpt>
      <trkpt lat="42.6396115590" lon="20.1342928223">
        <ele>1689.65</ele>
        <time>2019-07-11T06:01:41Z</time>
      </trkpt>
      <trkpt lat="42.6396607608" lon="20.1342375856">
        <ele>1690.62</ele>
        <time>2019-07-11T06:01:47Z</time>
      </trkpt>
      <trkpt lat="42.6396790333" lon="20.1342167985">
        <ele>1691.10</ele>
        <time>2019-07-11T06:01:49Z</time>
      </trkpt>
      <trkpt lat="42.6398133952" lon="20.1341555268">
        <ele>1693.02</ele>
        <time>2019-07-11T06:02:03Z</time>
      </trkpt>
      <trkpt lat="42.6398993935" lon="20.1341226697">
        <ele>1694.46</ele>
        <time>2019-07-11T06:02:14Z</time>
      </trkpt>
      <trkpt lat="42.6399067696" lon="20.1341173053">
        <ele>1694.46</ele>
        <time>2019-07-11T06:02:15Z</time>
      </trkpt>
      <trkpt lat="42.6400081068" lon="20.1340725459">
        <ele>1696.38</ele>
        <time>2019-07-11T06:02:28Z</time>
      </trkpt>
      <trkpt lat="42.6401317399" lon="20.1340764016">
        <ele>1698.79</ele>
        <time>2019-07-11T06:02:41Z</time>
      </trkpt>
      <trkpt lat="42.6402531937" lon="20.1341305487">
        <ele>1701.19</ele>
        <time>2019-07-11T06:02:54Z</time>
      </trkpt>
      <trkpt lat="42.6402863022" lon="20.1341529284">
        <ele>1701.67</ele>
        <time>2019-07-11T06:02:58Z</time>
      </trkpt>
      <trkpt lat="42.6403168961" lon="20.1341789961">
        <ele>1702.15</ele>
        <time>2019-07-11T06:03:02Z</time>
      </trkpt>
      <trkpt lat="42.6404132042" lon="20.1342887990">
        <ele>1704.07</ele>
        <time>2019-07-11T06:03:16Z</time>
      </trkpt>
      <trkpt lat="42.6404492464" lon="20.1343018748">
        <ele>1704.07</ele>
        <time>2019-07-11T06:03:21Z</time>
      </trkpt>
      <trkpt lat="42.6404899824" lon="20.1342946663">
        <ele>1704.07</ele>
        <time>2019-07-11T06:03:25Z</time>
      </trkpt>
      <trkpt lat="42.6405190676" lon="20.1342249289">
        <ele>1704.07</ele>
        <time>2019-07-11T06:03:31Z</time>
      </trkpt>
      <trkpt lat="42.6404821035" lon="20.1340209134">
        <ele>1706.00</ele>
        <time>2019-07-11T06:03:46Z</time>
      </trkpt>
      <trkpt lat="42.6404584665" lon="20.1338077616">
        <ele>1706.48</ele>
        <time>2019-07-11T06:04:01Z</time>
      </trkpt>
      <trkpt lat="42.6404125337" lon="20.1335807797">
        <ele>1707.44</ele>
        <time>2019-07-11T06:04:16Z</time>
      </trkpt>
      <trkpt lat="42.6404204126" lon="20.1334839687">
        <ele>1707.92</ele>
        <time>2019-07-11T06:04:23Z</time>
      </trkpt>
      <trkpt lat="42.6404394396" lon="20.1334473398">
        <ele>1707.92</ele>
        <time>2019-07-11T06:04:26Z</time>
      </trkpt>
      <trkpt lat="42.6404624898" lon="20.1333945338">
        <ele>1708.40</ele>
        <time>2019-07-11T06:04:30Z</time>
      </trkpt>
      <trkpt lat="42.6405791659" lon="20.1333376206">
        <ele>1710.32</ele>
        <time>2019-07-11T06:04:42Z</time>
      </trkpt>
      <trkpt lat="42.6406784914" lon="20.1333864871">
        <ele>1712.73</ele>
        <time>2019-07-11T06:04:55Z</time>
      </trkpt>
      <trkpt lat="42.6407560240" lon="20.1334356889">
        <ele>1714.65</ele>
        <time>2019-07-11T06:05:06Z</time>
      </trkpt>
      <trkpt lat="42.6408397593" lon="20.1335222740">
        <ele>1716.09</ele>
        <time>2019-07-11T06:05:18Z</time>
      </trkpt>
      <trkpt lat="42.6409564354" lon="20.1335700508">
        <ele>1718.01</ele>
        <time>2019-07-11T06:05:31Z</time>
      </trkpt>
      <trkpt lat="42.6410385780" lon="20.1336085238">
        <ele>1719.46</ele>
        <time>2019-07-11T06:05:42Z</time>
      </trkpt>
      <trkpt lat="42.6411372330" lon="20.1336335856">
        <ele>1721.86</ele>
        <time>2019-07-11T06:05:54Z</time>
      </trkpt>
      <trkpt lat="42.6412423421" lon="20.1336862240">
        <ele>1723.78</ele>
        <time>2019-07-11T06:06:08Z</time>
      </trkpt>
      <trkpt lat="42.6413437631" lon="20.1337361801">
        <ele>1725.22</ele>
        <time>2019-07-11T06:06:20Z</time>
      </trkpt>
      <trkpt lat="42.6414079685" lon="20.1338453125">
        <ele>1726.67</ele>
        <time>2019-07-11T06:06:33Z</time>
      </trkpt>
      <trkpt lat="42.6414596848" lon="20.1339458115">
        <ele>1729.07</ele>
        <time>2019-07-11T06:06:45Z</time>
      </trkpt>
      <trkpt lat="42.6415173523" lon="20.1340681035">
        <ele>1730.99</ele>
        <time>2019-07-11T06:06:57Z</time>
      </trkpt>
      <trkpt lat="42.6415837370" lon="20.1341863722">
        <ele>1731.95</ele>
        <time>2019-07-11T06:07:08Z</time>
      </trkpt>
      <trkpt lat="42.6415909454" lon="20.1341972686">
        <ele>1732.43</ele>
        <time>2019-07-11T06:07:09Z</time>
      </trkpt>
      <trkpt lat="42.6416433323" lon="20.1342623960">
        <ele>1732.43</ele>
        <time>2019-07-11T06:07:16Z</time>
      </trkpt>
      <trkpt lat="42.6416457631" lon="20.1343281940">
        <ele>1732.91</ele>
        <time>2019-07-11T06:07:21Z</time>
      </trkpt>
      <trkpt lat="42.6415697392" lon="20.1344469655">
        <ele>1734.36</ele>
        <time>2019-07-11T06:07:36Z</time>
      </trkpt>
      <trkpt lat="42.6415304281" lon="20.1345409267">
        <ele>1735.32</ele>
        <time>2019-07-11T06:07:49Z</time>
      </trkpt>
      <trkpt lat="42.6415193640" lon="20.1345915534">
        <ele>1735.80</ele>
        <time>2019-07-11T06:07:55Z</time>
      </trkpt>
      <trkpt lat="42.6415124070" lon="20.1346119214">
        <ele>1736.28</ele>
        <time>2019-07-11T06:07:57Z</time>
      </trkpt>
      <trkpt lat="42.6414831541" lon="20.1347697526">
        <ele>1737.72</ele>
        <time>2019-07-11T06:08:09Z</time>
      </trkpt>
      <trkpt lat="42.6414701622" lon="20.1349233929">
        <ele>1739.64</ele>
        <time>2019-07-11T06:08:22Z</time>
      </trkpt>
      <trkpt lat="42.6414465252" lon="20.1350434218">
        <ele>1741.57</ele>
        <time>2019-07-11T06:08:33Z</time>
      </trkpt>
      <trkpt lat="42.6414192840" lon="20.1351435017">
        <ele>1742.53</ele>
        <time>2019-07-11T06:08:42Z</time>
      </trkpt>
      <trkpt lat="42.6413762011" lon="20.1352787018">
        <ele>1744.45</ele>
        <time>2019-07-11T06:08:56Z</time>
      </trkpt>
      <trkpt lat="42.6413372252" lon="20.1354255527">
        <ele>1747.33</ele>
        <time>2019-07-11T06:09:10Z</time>
      </trkpt>
      <trkpt lat="42.6412824914" lon="20.1355636865">
        <ele>1749.26</ele>
        <time>2019-07-11T06:09:24Z</time>
      </trkpt>
      <trkpt lat="42.6412397437" lon="20.1357124653">
        <ele>1750.70</ele>
        <time>2019-07-11T06:09:38Z</time>
      </trkpt>
      <trkpt lat="42.6412299369" lon="20.1358662732">
        <ele>1752.62</ele>
        <time>2019-07-11T06:09:50Z</time>
      </trkpt>
      <trkpt lat="42.6412114128" lon="20.1359661855">
        <ele>1753.10</ele>
        <time>2019-07-11T06:09:58Z</time>
      </trkpt>
      <trkpt lat="42.6411990914" lon="20.1361088455">
        <ele>1755.02</ele>
        <time>2019-07-11T06:10:10Z</time>
      </trkpt>
      <trkpt lat="42.6411854289" lon="20.1362440456">
        <ele>1757.91</ele>
        <time>2019-07-11T06:10:23Z</time>
      </trkpt>
      <trkpt lat="42.6411659829" lon="20.1363322232">
        <ele>1758.87</ele>
        <time>2019-07-11T06:10:32Z</time>
      </trkpt>
      <trkpt lat="42.6411413401" lon="20.1364507433">
        <ele>1760.79</ele>
        <time>2019-07-11T06:10:45Z</time>
      </trkpt>
      <trkpt lat="42.6411150210" lon="20.1365568582">
        <ele>1763.20</ele>
        <time>2019-07-11T06:10:57Z</time>
      </trkpt>
      <trkpt lat="42.6411056332" lon="20.1365846861">
        <ele>1763.68</ele>
        <time>2019-07-11T06:11:00Z</time>
      </trkpt>
      <trkpt lat="42.6410863549" lon="20.1367479656">
        <ele>1765.60</ele>
        <time>2019-07-11T06:11:15Z</time>
      </trkpt>
      <trkpt lat="42.6410812419" lon="20.1367721893">
        <ele>1766.08</ele>
        <time>2019-07-11T06:11:17Z</time>
      </trkpt>
      <trkpt lat="42.6410349738" lon="20.1369503886">
        <ele>1768.00</ele>
        <time>2019-07-11T06:11:32Z</time>
      </trkpt>
      <trkpt lat="42.6410151087" lon="20.1370721776">
        <ele>1769.44</ele>
        <time>2019-07-11T06:11:43Z</time>
      </trkpt>
      <trkpt lat="42.6410129294" lon="20.1371954754">
        <ele>1771.85</ele>
        <time>2019-07-11T06:11:55Z</time>
      </trkpt>
      <trkpt lat="42.6410171203" lon="20.1373196114">
        <ele>1773.29</ele>
        <time>2019-07-11T06:12:07Z</time>
      </trkpt>
      <trkpt lat="42.6410055533" lon="20.1373895165">
        <ele>1774.73</ele>
        <time>2019-07-11T06:12:13Z</time>
      </trkpt>
      <trkpt lat="42.6409471314" lon="20.1375223696">
        <ele>1776.65</ele>
        <time>2019-07-11T06:12:28Z</time>
      </trkpt>
      <trkpt lat="42.6409477182" lon="20.1375543047">
        <ele>1777.13</ele>
        <time>2019-07-11T06:12:31Z</time>
      </trkpt>
      <trkpt lat="42.6409263443" lon="20.1376240421">
        <ele>1778.10</ele>
        <time>2019-07-11T06:12:38Z</time>
      </trkpt>
      <trkpt lat="42.6409300324" lon="20.1377543807">
        <ele>1780.02</ele>
        <time>2019-07-11T06:12:49Z</time>
      </trkpt>
      <trkpt lat="42.6408948284" lon="20.1378666144">
        <ele>1781.94</ele>
        <time>2019-07-11T06:13:01Z</time>
      </trkpt>
      <trkpt lat="42.6408625580" lon="20.1379953604">
        <ele>1783.38</ele>
        <time>2019-07-11T06:13:13Z</time>
      </trkpt>
      <trkpt lat="42.6408535056" lon="20.1380183268">
        <ele>1783.86</ele>
        <time>2019-07-11T06:13:15Z</time>
      </trkpt>
      <trkpt lat="42.6408084109" lon="20.1382406149">
        <ele>1783.86</ele>
        <time>2019-07-11T06:13:29Z</time>
      </trkpt>
      <trkpt lat="42.6407789066" lon="20.1384548564">
        <ele>1783.86</ele>
        <time>2019-07-11T06:13:43Z</time>
      </trkpt>
      <trkpt lat="42.6407445408" lon="20.1386628114">
        <ele>1783.86</ele>
        <time>2019-07-11T06:13:56Z</time>
      </trkpt>
      <trkpt lat="42.6406989433" lon="20.1388915535">
        <ele>1784.34</ele>
        <time>2019-07-11T06:14:11Z</time>
      </trkpt>
      <trkpt lat="42.6406776533" lon="20.1391122490">
        <ele>1784.82</ele>
        <time>2019-07-11T06:14:26Z</time>
      </trkpt>
      <trkpt lat="42.6406790782" lon="20.1392634585">
        <ele>1785.79</ele>
        <time>2019-07-11T06:14:38Z</time>
      </trkpt>
      <trkpt lat="42.6406763121" lon="20.1392504666">
        <ele>1786.27</ele>
        <time>2019-07-11T06:14:57Z</time>
      </trkpt>
      <trkpt lat="42.6406856999" lon="20.1392625365">
        <ele>1786.27</ele>
        <time>2019-07-11T06:15:21Z</time>
      </trkpt>
      <trkpt lat="42.6406934112" lon="20.1392818149">
        <ele>1786.27</ele>
        <time>2019-07-11T06:15:49Z</time>
      </trkpt>
      <trkpt lat="42.6407010388" lon="20.1392509695">
        <ele>1786.27</ele>
        <time>2019-07-11T06:16:14Z</time>
      </trkpt>
      <trkpt lat="42.6406859513" lon="20.1392951421">
        <ele>1786.75</ele>
        <time>2019-07-11T06:16:38Z</time>
      </trkpt>
      <trkpt lat="42.6406735461" lon="20.1394613553">
        <ele>1786.75</ele>
        <time>2019-07-11T06:16:51Z</time>
      </trkpt>
      <trkpt lat="42.6406504959" lon="20.1396620180">
        <ele>1787.23</ele>
        <time>2019-07-11T06:17:06Z</time>
      </trkpt>
      <trkpt lat="42.6406464726" lon="20.1397024188">
        <ele>1787.23</ele>
        <time>2019-07-11T06:17:09Z</time>
      </trkpt>
      <trkpt lat="42.6406048145" lon="20.1398224477">
        <ele>1787.23</ele>
        <time>2019-07-11T06:17:18Z</time>
      </trkpt>
      <trkpt lat="42.6406105980" lon="20.1398790255">
        <ele>1786.27</ele>
        <time>2019-07-11T06:17:22Z</time>
      </trkpt>
      <trkpt lat="42.6405309699" lon="20.1401039120">
        <ele>1786.27</ele>
        <time>2019-07-11T06:17:39Z</time>
      </trkpt>
      <trkpt lat="42.6405201573" lon="20.1401381101">
        <ele>1787.23</ele>
        <time>2019-07-11T06:17:42Z</time>
      </trkpt>
      <trkpt lat="42.6405229233" lon="20.1401865575">
        <ele>1787.23</ele>
        <time>2019-07-11T06:17:47Z</time>
      </trkpt>
      <trkpt lat="42.6407162100" lon="20.1402039919">
        <ele>1784.82</ele>
        <time>2019-07-11T06:18:02Z</time>
      </trkpt>
      <trkpt lat="42.6407571975" lon="20.1402170677">
        <ele>1784.82</ele>
        <time>2019-07-11T06:18:06Z</time>
      </trkpt>
      <trkpt lat="42.6407969277" lon="20.1402671076">
        <ele>1784.82</ele>
        <time>2019-07-11T06:18:11Z</time>
      </trkpt>
      <trkpt lat="42.6408079080" lon="20.1403045747">
        <ele>1784.34</ele>
        <time>2019-07-11T06:18:14Z</time>
      </trkpt>
      <trkpt lat="42.6408162061" lon="20.1403682772">
        <ele>1784.34</ele>
        <time>2019-07-11T06:18:18Z</time>
      </trkpt>
      <trkpt lat="42.6408451237" lon="20.1406564470">
        <ele>1782.90</ele>
        <time>2019-07-11T06:18:35Z</time>
      </trkpt>
      <trkpt lat="42.6408638991" lon="20.1408755500">
        <ele>1781.46</ele>
        <time>2019-07-11T06:18:48Z</time>
      </trkpt>
      <trkpt lat="42.6409152802" lon="20.1411268394">
        <ele>1780.02</ele>
        <time>2019-07-11T06:19:03Z</time>
      </trkpt>
      <trkpt lat="42.6409716066" lon="20.1414041128">
        <ele>1777.61</ele>
        <time>2019-07-11T06:19:18Z</time>
      </trkpt>
      <trkpt lat="42.6410042960" lon="20.1416195277">
        <ele>1777.13</ele>
        <time>2019-07-11T06:19:30Z</time>
      </trkpt>
      <trkpt lat="42.6410555933" lon="20.1418724097">
        <ele>1775.69</ele>
        <time>2019-07-11T06:19:45Z</time>
      </trkpt>
      <trkpt lat="42.6411214750" lon="20.1420962065">
        <ele>1774.25</ele>
        <time>2019-07-11T06:19:59Z</time>
      </trkpt>
      <trkpt lat="42.6411306113" lon="20.1422412973">
        <ele>1773.29</ele>
        <time>2019-07-11T06:20:07Z</time>
      </trkpt>
      <trkpt lat="42.6410989277" lon="20.1425392739">
        <ele>1770.41</ele>
        <time>2019-07-11T06:20:24Z</time>
      </trkpt>
      <trkpt lat="42.6410643104" lon="20.1428046450">
        <ele>1768.48</ele>
        <time>2019-07-11T06:20:39Z</time>
      </trkpt>
      <trkpt lat="42.6410313696" lon="20.1430941559">
        <ele>1766.56</ele>
        <time>2019-07-11T06:20:56Z</time>
      </trkpt>
      <trkpt lat="42.6410371531" lon="20.1433784701">
        <ele>1764.64</ele>
        <time>2019-07-11T06:21:12Z</time>
      </trkpt>
      <trkpt lat="42.6410411764" lon="20.1436287537">
        <ele>1763.68</ele>
        <time>2019-07-11T06:21:26Z</time>
      </trkpt>
      <trkpt lat="42.6409779768" lon="20.1438379660">
        <ele>1762.23</ele>
        <time>2019-07-11T06:21:40Z</time>
      </trkpt>
      <trkpt lat="42.6409581956" lon="20.1439394709">
        <ele>1760.79</ele>
        <time>2019-07-11T06:21:46Z</time>
      </trkpt>
      <trkpt lat="42.6409313735" lon="20.1440154109">
        <ele>1760.31</ele>
        <time>2019-07-11T06:21:51Z</time>
      </trkpt>
      <trkpt lat="42.6409272663" lon="20.1442506071">
        <ele>1756.95</ele>
        <time>2019-07-11T06:22:04Z</time>
      </trkpt>
      <trkpt lat="42.6409185492" lon="20.1445490867">
        <ele>1754.54</ele>
        <time>2019-07-11T06:22:21Z</time>
      </trkpt>
      <trkpt lat="42.6409311220" lon="20.1447597239">
        <ele>1751.66</ele>
        <time>2019-07-11T06:22:33Z</time>
      </trkpt>
      <trkpt lat="42.6409332175" lon="20.1449778210">
        <ele>1748.78</ele>
        <time>2019-07-11T06:22:45Z</time>
      </trkpt>
      <trkpt lat="42.6409343071" lon="20.1451427769">
        <ele>1746.37</ele>
        <time>2019-07-11T06:22:55Z</time>
      </trkpt>
      <trkpt lat="42.6409238297" lon="20.1453679986">
        <ele>1743.01</ele>
        <time>2019-07-11T06:23:07Z</time>
      </trkpt>
      <trkpt lat="42.6408982649" lon="20.1455705054">
        <ele>1739.64</ele>
        <time>2019-07-11T06:23:19Z</time>
      </trkpt>
      <trkpt lat="42.6408947445" lon="20.1456098165">
        <ele>1738.68</ele>
        <time>2019-07-11T06:23:21Z</time>
      </trkpt>
      <trkpt lat="42.6408783160" lon="20.1458524726">
        <ele>1736.28</ele>
        <time>2019-07-11T06:23:35Z</time>
      </trkpt>
      <trkpt lat="42.6408848539" lon="20.1459563244">
        <ele>1734.84</ele>
        <time>2019-07-11T06:23:41Z</time>
      </trkpt>
      <trkpt lat="42.6408874523" lon="20.1460745092">
        <ele>1732.43</ele>
        <time>2019-07-11T06:23:47Z</time>
      </trkpt>
      <trkpt lat="42.6409046352" lon="20.1462364476">
        <ele>1730.51</ele>
        <time>2019-07-11T06:23:56Z</time>
      </trkpt>
      <trkpt lat="42.6408597920" lon="20.1465091109">
        <ele>1730.03</ele>
        <time>2019-07-11T06:24:14Z</time>
      </trkpt>
      <trkpt lat="42.6408249233" lon="20.1466697082">
        <ele>1729.07</ele>
        <time>2019-07-11T06:24:24Z</time>
      </trkpt>
      <trkpt lat="42.6408648212" lon="20.1468834467">
        <ele>1726.67</ele>
        <time>2019-07-11T06:24:38Z</time>
      </trkpt>
      <trkpt lat="42.6407359075" lon="20.1471367478">
        <ele>1726.18</ele>
        <time>2019-07-11T06:24:55Z</time>
      </trkpt>
      <trkpt lat="42.6406950038" lon="20.1472419407">
        <ele>1725.70</ele>
        <time>2019-07-11T06:25:11Z</time>
      </trkpt>
      <trkpt lat="42.6406762283" lon="20.1472919807">
        <ele>1725.22</ele>
        <time>2019-07-11T06:25:20Z</time>
      </trkpt>
      <trkpt lat="42.6406228356" lon="20.1475642249">
        <ele>1723.78</ele>
        <time>2019-07-11T06:25:36Z</time>
      </trkpt>
      <trkpt lat="42.6405909844" lon="20.1477960683">
        <ele>1722.34</ele>
        <time>2019-07-11T06:25:49Z</time>
      </trkpt>
      <trkpt lat="42.6405201573" lon="20.1480336953">
        <ele>1722.34</ele>
        <time>2019-07-11T06:26:04Z</time>
      </trkpt>
      <trkpt lat="42.6404821873" lon="20.1483203564">
        <ele>1721.86</ele>
        <time>2019-07-11T06:26:20Z</time>
      </trkpt>
      <trkpt lat="42.6404615678" lon="20.1486391202">
        <ele>1720.90</ele>
        <time>2019-07-11T06:26:38Z</time>
      </trkpt>
      <trkpt lat="42.6404327340" lon="20.1488398667">
        <ele>1719.94</ele>
        <time>2019-07-11T06:26:52Z</time>
      </trkpt>
      <trkpt lat="42.6403780840" lon="20.1490391046">
        <ele>1719.46</ele>
        <time>2019-07-11T06:27:04Z</time>
      </trkpt>
      <trkpt lat="42.6403308939" lon="20.1493898034">
        <ele>1718.01</ele>
        <time>2019-07-11T06:27:23Z</time>
      </trkpt>
      <trkpt lat="42.6403403655" lon="20.1494426094">
        <ele>1717.05</ele>
        <time>2019-07-11T06:27:26Z</time>
      </trkpt>
      <trkpt lat="42.6402847096" lon="20.1496134326">
        <ele>1716.57</ele>
        <time>2019-07-11T06:27:37Z</time>
      </trkpt>
      <trkpt lat="42.6402274612" lon="20.1498701703">
        <ele>1714.17</ele>
        <time>2019-07-11T06:27:51Z</time>
      </trkpt>
      <trkpt lat="42.6402086020" lon="20.1500982419">
        <ele>1712.25</ele>
        <time>2019-07-11T06:28:04Z</time>
      </trkpt>
      <trkpt lat="42.6401961129" lon="20.1503185183">
        <ele>1710.80</ele>
        <time>2019-07-11T06:28:15Z</time>
      </trkpt>
      <trkpt lat="42.6401830371" lon="20.1503846515">
        <ele>1709.36</ele>
        <time>2019-07-11T06:28:19Z</time>
      </trkpt>
      <trkpt lat="42.6401647646" lon="20.1507043373">
        <ele>1708.40</ele>
        <time>2019-07-11T06:28:36Z</time>
      </trkpt>
      <trkpt lat="42.6401326619" lon="20.1509246137">
        <ele>1706.48</ele>
        <time>2019-07-11T06:28:48Z</time>
      </trkpt>
      <trkpt lat="42.6400565542" lon="20.1511629112">
        <ele>1705.52</ele>
        <time>2019-07-11T06:29:03Z</time>
      </trkpt>
      <trkpt lat="42.6399680413" lon="20.1513588801">
        <ele>1704.55</ele>
        <time>2019-07-11T06:29:16Z</time>
      </trkpt>
      <trkpt lat="42.6398539636" lon="20.1516241673">
        <ele>1704.55</ele>
        <time>2019-07-11T06:29:34Z</time>
      </trkpt>
      <trkpt lat="42.6397434063" lon="20.1518656500">
        <ele>1702.63</ele>
        <time>2019-07-11T06:29:50Z</time>
      </trkpt>
      <trkpt lat="42.6396203600" lon="20.1521490421">
        <ele>1700.23</ele>
        <time>2019-07-11T06:30:07Z</time>
      </trkpt>
      <trkpt lat="42.6395596750" lon="20.1524219569">
        <ele>1699.75</ele>
        <time>2019-07-11T06:30:23Z</time>
      </trkpt>
      <trkpt lat="42.6394916140" lon="20.1526833046">
        <ele>1699.27</ele>
        <time>2019-07-11T06:30:39Z</time>
      </trkpt>
      <trkpt lat="42.6394365449" lon="20.1529622544">
        <ele>1698.31</ele>
        <time>2019-07-11T06:30:55Z</time>
      </trkpt>
      <trkpt lat="42.6394470222" lon="20.1530645136">
        <ele>1698.31</ele>
        <time>2019-07-11T06:31:02Z</time>
      </trkpt>
      <trkpt lat="42.6394474413" lon="20.1530941017">
        <ele>1698.31</ele>
        <time>2019-07-11T06:31:04Z</time>
      </trkpt>
      <trkpt lat="42.6394594274" lon="20.1531857997">
        <ele>1698.31</ele>
        <time>2019-07-11T06:31:11Z</time>
      </trkpt>
      <trkpt lat="42.6394309290" lon="20.1532241050">
        <ele>1698.31</ele>
        <time>2019-07-11T06:31:21Z</time>
      </trkpt>
      <trkpt lat="42.6393806376" lon="20.1531564631">
        <ele>1698.31</ele>
        <time>2019-07-11T06:31:28Z</time>
      </trkpt>
      <trkpt lat="42.6392502990" lon="20.1532718819">
        <ele>1698.31</ele>
        <time>2019-07-11T06:31:42Z</time>
      </trkpt>
      <trkpt lat="42.6391307730" lon="20.1534212474">
        <ele>1699.27</ele>
        <time>2019-07-11T06:31:55Z</time>
      </trkpt>
      <trkpt lat="42.6391400769" lon="20.1535066590">
        <ele>1698.31</ele>
        <time>2019-07-11T06:32:08Z</time>
      </trkpt>
      <trkpt lat="42.6391372271" lon="20.1535045635">
        <ele>1698.31</ele>
        <time>2019-07-11T06:32:25Z</time>
      </trkpt>
      <trkpt lat="42.6391109079" lon="20.1534990314">
        <ele>1697.83</ele>
        <time>2019-07-11T06:32:36Z</time>
      </trkpt>
      <trkpt lat="42.6390664838" lon="20.1535647456">
        <ele>1697.83</ele>
        <time>2019-07-11T06:32:43Z</time>
      </trkpt>
      <trkpt lat="42.6390509773" lon="20.1535980217">
        <ele>1697.83</ele>
        <time>2019-07-11T06:32:46Z</time>
      </trkpt>
      <trkpt lat="42.6389871072" lon="20.1537720300">
        <ele>1697.83</ele>
        <time>2019-07-11T06:32:59Z</time>
      </trkpt>
      <trkpt lat="42.6389147714" lon="20.1539604552">
        <ele>1697.83</ele>
        <time>2019-07-11T06:33:12Z</time>
      </trkpt>
      <trkpt lat="42.6388975885" lon="20.1540291868">
        <ele>1697.83</ele>
        <time>2019-07-11T06:33:17Z</time>
      </trkpt>
      <trkpt lat="42.6389043778" lon="20.1540971640">
        <ele>1697.83</ele>
        <time>2019-07-11T06:33:21Z</time>
      </trkpt>
      <trkpt lat="42.6388776395" lon="20.1543266606">
        <ele>1697.83</ele>
        <time>2019-07-11T06:33:36Z</time>
      </trkpt>
      <trkpt lat="42.6388733648" lon="20.1546029281">
        <ele>1697.83</ele>
        <time>2019-07-11T06:33:52Z</time>
      </trkpt>
      <trkpt lat="42.6389446110" lon="20.1549060177">
        <ele>1697.83</ele>
        <time>2019-07-11T06:34:09Z</time>
      </trkpt>
      <trkpt lat="42.6389845926" lon="20.1549874898">
        <ele>1697.34</ele>
        <time>2019-07-11T06:34:14Z</time>
      </trkpt>
      <trkpt lat="42.6390597783" lon="20.1551169064">
        <ele>1696.86</ele>
        <time>2019-07-11T06:34:23Z</time>
      </trkpt>
      <trkpt lat="42.6390975807" lon="20.1552364323">
        <ele>1696.86</ele>
        <time>2019-07-11T06:34:30Z</time>
      </trkpt>
      <trkpt lat="42.6391539071" lon="20.1554144640">
        <ele>1697.34</ele>
        <time>2019-07-11T06:34:41Z</time>
      </trkpt>
      <trkpt lat="42.6391761191" lon="20.1555643324">
        <ele>1696.86</ele>
        <time>2019-07-11T06:34:56Z</time>
      </trkpt>
      <trkpt lat="42.6392104011" lon="20.1555271167">
        <ele>1696.86</ele>
        <time>2019-07-11T06:35:14Z</time>
      </trkpt>
      <trkpt lat="42.6392320264" lon="20.1554853749">
        <ele>1697.83</ele>
        <time>2019-07-11T06:35:21Z</time>
      </trkpt>
      <trkpt lat="42.6392394025" lon="20.1553721353">
        <ele>1699.75</ele>
        <time>2019-07-11T06:35:34Z</time>
      </trkpt>
      <trkpt lat="42.6392467786" lon="20.1552599855">
        <ele>1702.63</ele>
        <time>2019-07-11T06:35:46Z</time>
      </trkpt>
      <trkpt lat="42.6392901968" lon="20.1551459916">
        <ele>1705.04</ele>
        <time>2019-07-11T06:35:59Z</time>
      </trkpt>
      <trkpt lat="42.6393378899" lon="20.1551178284">
        <ele>1707.44</ele>
        <time>2019-07-11T06:36:12Z</time>
      </trkpt>
      <trkpt lat="42.6394293364" lon="20.1550884079">
        <ele>1709.36</ele>
        <time>2019-07-11T06:36:26Z</time>
      </trkpt>
      <trkpt lat="42.6395129040" lon="20.1550725661">
        <ele>1711.76</ele>
        <time>2019-07-11T06:36:40Z</time>
      </trkpt>
      <trkpt lat="42.6395356189" lon="20.1550657768">
        <ele>1712.25</ele>
        <time>2019-07-11T06:36:43Z</time>
      </trkpt>
      <trkpt lat="42.6396533847" lon="20.1550163236">
        <ele>1715.13</ele>
        <time>2019-07-11T06:36:58Z</time>
      </trkpt>
      <trkpt lat="42.6397344377" lon="20.1549935248">
        <ele>1717.53</ele>
        <time>2019-07-11T06:37:11Z</time>
      </trkpt>
      <trkpt lat="42.6398105454" lon="20.1549734082">
        <ele>1719.46</ele>
        <time>2019-07-11T06:37:26Z</time>
      </trkpt>
      <trkpt lat="42.6399047580" lon="20.1549624279">
        <ele>1721.86</ele>
        <time>2019-07-11T06:37:39Z</time>
      </trkpt>
      <trkpt lat="42.6400023233" lon="20.1549424790">
        <ele>1724.74</ele>
        <time>2019-07-11T06:37:53Z</time>
      </trkpt>
      <trkpt lat="42.6400898304" lon="20.1549278945">
        <ele>1727.63</ele>
        <time>2019-07-11T06:38:06Z</time>
      </trkpt>
      <trkpt lat="42.6401508506" lon="20.1549843885">
        <ele>1730.51</ele>
        <time>2019-07-11T06:38:20Z</time>
      </trkpt>
      <trkpt lat="42.6402055845" lon="20.1549964584">
        <ele>1732.43</ele>
        <time>2019-07-11T06:38:33Z</time>
      </trkpt>
      <trkpt lat="42.6402688678" lon="20.1550134737">
        <ele>1734.84</ele>
        <time>2019-07-11T06:38:46Z</time>
      </trkpt>
      <trkpt lat="42.6403231826" lon="20.1550728176">
        <ele>1735.80</ele>
        <time>2019-07-11T06:38:57Z</time>
      </trkpt>
      <trkpt lat="42.6403931715" lon="20.1551239472">
        <ele>1738.20</ele>
        <time>2019-07-11T06:39:09Z</time>
      </trkpt>
      <trkpt lat="42.6404339075" lon="20.1552095264">
        <ele>1740.60</ele>
        <time>2019-07-11T06:39:22Z</time>
      </trkpt>
      <trkpt lat="42.6404988673" lon="20.1552266255">
        <ele>1743.49</ele>
        <time>2019-07-11T06:39:36Z</time>
      </trkpt>
      <trkpt lat="42.6405043993" lon="20.1552650146">
        <ele>1743.97</ele>
        <time>2019-07-11T06:39:41Z</time>
      </trkpt>
      <trkpt lat="42.6404832769" lon="20.1553814393">
        <ele>1746.85</ele>
        <time>2019-07-11T06:39:54Z</time>
      </trkpt>
      <trkpt lat="42.6405050699" lon="20.1554283779">
        <ele>1748.78</ele>
        <time>2019-07-11T06:40:09Z</time>
      </trkpt>
      <trkpt lat="42.6405244321" lon="20.1554600615">
        <ele>1749.74</ele>
        <time>2019-07-11T06:40:14Z</time>
      </trkpt>
      <trkpt lat="42.6405770704" lon="20.1555559505">
        <ele>1751.66</ele>
        <time>2019-07-11T06:40:27Z</time>
      </trkpt>
      <trkpt lat="42.6406362467" lon="20.1556571200">
        <ele>1754.06</ele>
        <time>2019-07-11T06:40:41Z</time>
      </trkpt>
      <trkpt lat="42.6407129411" lon="20.1556986105">
        <ele>1755.99</ele>
        <time>2019-07-11T06:40:52Z</time>
      </trkpt>
      <trkpt lat="42.6407737937" lon="20.1557680126">
        <ele>1759.83</ele>
        <time>2019-07-11T06:41:05Z</time>
      </trkpt>
      <trkpt lat="42.6407755539" lon="20.1557729580">
        <ele>1759.83</ele>
        <time>2019-07-11T06:41:06Z</time>
      </trkpt>
      <trkpt lat="42.6408255938" lon="20.1559036318">
        <ele>1760.79</ele>
        <time>2019-07-11T06:41:20Z</time>
      </trkpt>
      <trkpt lat="42.6408335567" lon="20.1559172105">
        <ele>1762.71</ele>
        <time>2019-07-11T06:41:28Z</time>
      </trkpt>
      <trkpt lat="42.6408387534" lon="20.1559126843">
        <ele>1761.75</ele>
        <time>2019-07-11T06:41:32Z</time>
      </trkpt>
      <trkpt lat="42.6408480573" lon="20.1558981836">
        <ele>1761.75</ele>
        <time>2019-07-11T06:41:55Z</time>
      </trkpt>
      <trkpt lat="42.6408509072" lon="20.1559032965">
        <ele>1761.75</ele>
        <time>2019-07-11T06:42:17Z</time>
      </trkpt>
      <trkpt lat="42.6408600435" lon="20.1558887120">
        <ele>1761.75</ele>
        <time>2019-07-11T06:42:30Z</time>
      </trkpt>
      <trkpt lat="42.6408496499" lon="20.1559001114">
        <ele>1761.75</ele>
        <time>2019-07-11T06:42:54Z</time>
      </trkpt>
      <trkpt lat="42.6408300363" lon="20.1559021231">
        <ele>1761.75</ele>
        <time>2019-07-11T06:43:22Z</time>
      </trkpt>
      <trkpt lat="42.6408278570" lon="20.1558997761">
        <ele>1761.75</ele>
        <time>2019-07-11T06:43:43Z</time>
      </trkpt>
      <trkpt lat="42.6408204809" lon="20.1559261791">
        <ele>1761.75</ele>
        <time>2019-07-11T06:43:59Z</time>
      </trkpt>
      <trkpt lat="42.6408210676" lon="20.1559197251">
        <ele>1761.75</ele>
        <time>2019-07-11T06:44:14Z</time>
      </trkpt>
      <trkpt lat="42.6408416871" lon="20.1559144445">
        <ele>1761.27</ele>
        <time>2019-07-11T06:44:36Z</time>
      </trkpt>
      <trkpt lat="42.6408501528" lon="20.1559006982">
        <ele>1762.23</ele>
        <time>2019-07-11T06:44:39Z</time>
      </trkpt>
      <trkpt lat="42.6408556011" lon="20.1558949985">
        <ele>1762.71</ele>
        <time>2019-07-11T06:44:53Z</time>
      </trkpt>
      <trkpt lat="42.6408369094" lon="20.1559085771">
        <ele>1762.71</ele>
        <time>2019-07-11T06:45:08Z</time>
      </trkpt>
      <trkpt lat="42.6408357359" lon="20.1559184678">
        <ele>1761.75</ele>
        <time>2019-07-11T06:45:19Z</time>
      </trkpt>
      <trkpt lat="42.6408450399" lon="20.1559050567">
        <ele>1761.75</ele>
        <time>2019-07-11T06:45:28Z</time>
      </trkpt>
      <trkpt lat="42.6408550981" lon="20.1559094153">
        <ele>1763.20</ele>
        <time>2019-07-11T06:45:32Z</time>
      </trkpt>
      <trkpt lat="42.6409196388" lon="20.1558904722">
        <ele>1763.20</ele>
        <time>2019-07-11T06:45:46Z</time>
      </trkpt>
      <trkpt lat="42.6410042960" lon="20.1559244189">
        <ele>1765.12</ele>
        <time>2019-07-11T06:46:00Z</time>
      </trkpt>
      <trkpt lat="42.6410799846" lon="20.1559108403">
        <ele>1767.52</ele>
        <time>2019-07-11T06:46:14Z</time>
      </trkpt>
      <trkpt lat="42.6411203854" lon="20.1559023745">
        <ele>1768.48</ele>
        <time>2019-07-11T06:46:21Z</time>
      </trkpt>
      <trkpt lat="42.6411571819" lon="20.1559043862">
        <ele>1769.92</ele>
        <time>2019-07-11T06:46:27Z</time>
      </trkpt>
      <trkpt lat="42.6412458625" lon="20.1558263507">
        <ele>1771.85</ele>
        <time>2019-07-11T06:46:42Z</time>
      </trkpt>
      <trkpt lat="42.6413134206" lon="20.1557291206">
        <ele>1774.25</ele>
        <time>2019-07-11T06:46:55Z</time>
      </trkpt>
      <trkpt lat="42.6413691603" lon="20.1556822658">
        <ele>1775.69</ele>
        <time>2019-07-11T06:47:07Z</time>
      </trkpt>
      <trkpt lat="42.6414533984" lon="20.1556903124">
        <ele>1778.58</ele>
        <time>2019-07-11T06:47:21Z</time>
      </trkpt>
      <trkpt lat="42.6414627861" lon="20.1556885522">
        <ele>1779.54</ele>
        <time>2019-07-11T06:47:23Z</time>
      </trkpt>
      <trkpt lat="42.6415209565" lon="20.1556877140">
        <ele>1782.42</ele>
        <time>2019-07-11T06:47:34Z</time>
      </trkpt>
      <trkpt lat="42.6415517181" lon="20.1556774043">
        <ele>1780.50</ele>
        <time>2019-07-11T06:47:41Z</time>
      </trkpt>
      <trkpt lat="42.6416295860" lon="20.1556387637">
        <ele>1781.94</ele>
        <time>2019-07-11T06:47:56Z</time>
      </trkpt>
      <trkpt lat="42.6417079568" lon="20.1556431223">
        <ele>1785.31</ele>
        <time>2019-07-11T06:48:09Z</time>
      </trkpt>
      <trkpt lat="42.6418027561" lon="20.1556515880">
        <ele>1788.19</ele>
        <time>2019-07-11T06:48:25Z</time>
      </trkpt>
      <trkpt lat="42.6418608427" lon="20.1556493249">
        <ele>1790.59</ele>
        <time>2019-07-11T06:48:35Z</time>
      </trkpt>
      <trkpt lat="42.6419485174" lon="20.1556222513">
        <ele>1792.52</ele>
        <time>2019-07-11T06:48:52Z</time>
      </trkpt>
      <trkpt lat="42.6420066040" lon="20.1555984467">
        <ele>1794.92</ele>
        <time>2019-07-11T06:49:03Z</time>
      </trkpt>
      <trkpt lat="42.6420831308" lon="20.1555999555">
        <ele>1797.32</ele>
        <time>2019-07-11T06:49:19Z</time>
      </trkpt>
      <trkpt lat="42.6421581488" lon="20.1555436291">
        <ele>1800.21</ele>
        <time>2019-07-11T06:49:33Z</time>
      </trkpt>
      <trkpt lat="42.6422162354" lon="20.1555194054">
        <ele>1803.09</ele>
        <time>2019-07-11T06:49:47Z</time>
      </trkpt>
      <trkpt lat="42.6422864757" lon="20.1554638334">
        <ele>1804.05</ele>
        <time>2019-07-11T06:49:59Z</time>
      </trkpt>
      <trkpt lat="42.6423526928" lon="20.1554138772">
        <ele>1805.97</ele>
        <time>2019-07-11T06:50:13Z</time>
      </trkpt>
      <trkpt lat="42.6424362604" lon="20.1553448103">
        <ele>1808.38</ele>
        <time>2019-07-11T06:50:28Z</time>
      </trkpt>
      <trkpt lat="42.6425090153" lon="20.1553238556">
        <ele>1810.30</ele>
        <time>2019-07-11T06:50:41Z</time>
      </trkpt>
      <trkpt lat="42.6425805967" lon="20.1552614104">
        <ele>1813.18</ele>
        <time>2019-07-11T06:50:57Z</time>
      </trkpt>
      <trkpt lat="42.6426437125" lon="20.1552795991">
        <ele>1815.59</ele>
        <time>2019-07-11T06:51:11Z</time>
      </trkpt>
      <trkpt lat="42.6427141204" lon="20.1552602369">
        <ele>1817.99</ele>
        <time>2019-07-11T06:51:26Z</time>
      </trkpt>
      <trkpt lat="42.6427728776" lon="20.1552567165">
        <ele>1820.87</ele>
        <time>2019-07-11T06:51:36Z</time>
      </trkpt>
      <trkpt lat="42.6428390946" lon="20.1552856341">
        <ele>1822.32</ele>
        <time>2019-07-11T06:51:50Z</time>
      </trkpt>
      <trkpt lat="42.6428944990" lon="20.1553351711">
        <ele>1825.68</ele>
        <time>2019-07-11T06:52:02Z</time>
      </trkpt>
      <trkpt lat="42.6429511607" lon="20.1553979516">
        <ele>1827.12</ele>
        <time>2019-07-11T06:52:16Z</time>
      </trkpt>
      <trkpt lat="42.6430087443" lon="20.1554586366">
        <ele>1830.01</ele>
        <time>2019-07-11T06:52:31Z</time>
      </trkpt>
      <trkpt lat="42.6430555154" lon="20.1554862969">
        <ele>1832.41</ele>
        <time>2019-07-11T06:52:44Z</time>
      </trkpt>
      <trkpt lat="42.6430656575" lon="20.1554245222">
        <ele>1833.85</ele>
        <time>2019-07-11T06:52:56Z</time>
      </trkpt>
      <trkpt lat="42.6431008615" lon="20.1553489175">
        <ele>1836.74</ele>
        <time>2019-07-11T06:53:09Z</time>
      </trkpt>
      <trkpt lat="42.6431286056" lon="20.1552764140">
        <ele>1838.18</ele>
        <time>2019-07-11T06:53:21Z</time>
      </trkpt>
      <trkpt lat="42.6431728620" lon="20.1552387793">
        <ele>1839.62</ele>
        <time>2019-07-11T06:53:33Z</time>
      </trkpt>
      <trkpt lat="42.6432119217" lon="20.1551884878">
        <ele>1841.54</ele>
        <time>2019-07-11T06:53:45Z</time>
      </trkpt>
      <trkpt lat="42.6432377379" lon="20.1551703829">
        <ele>1842.98</ele>
        <time>2019-07-11T06:53:57Z</time>
      </trkpt>
      <trkpt lat="42.6432770491" lon="20.1551681198">
        <ele>1846.35</ele>
        <time>2019-07-11T06:54:10Z</time>
      </trkpt>
      <trkpt lat="42.6433266699" lon="20.1551151462">
        <ele>1847.79</ele>
        <time>2019-07-11T06:54:24Z</time>
      </trkpt>
      <trkpt lat="42.6433430985" lon="20.1550911739">
        <ele>1848.27</ele>
        <time>2019-07-11T06:54:42Z</time>
      </trkpt>
      <trkpt lat="42.6433339622" lon="20.1550527848">
        <ele>1848.27</ele>
        <time>2019-07-11T06:54:46Z</time>
      </trkpt>
      <trkpt lat="42.6433608681" lon="20.1549537107">
        <ele>1848.75</ele>
        <time>2019-07-11T06:54:59Z</time>
      </trkpt>
      <trkpt lat="42.6434079744" lon="20.1549770962">
        <ele>1851.16</ele>
        <time>2019-07-11T06:55:11Z</time>
      </trkpt>
      <trkpt lat="42.6434695814" lon="20.1549876574">
        <ele>1853.08</ele>
        <time>2019-07-11T06:55:24Z</time>
      </trkpt>
      <trkpt lat="42.6435294282" lon="20.1550034992">
        <ele>1855.48</ele>
        <time>2019-07-11T06:55:38Z</time>
      </trkpt>
      <trkpt lat="42.6435740199" lon="20.1550843846">
        <ele>1856.92</ele>
        <time>2019-07-11T06:55:52Z</time>
      </trkpt>
      <trkpt lat="42.6436118223" lon="20.1551948581">
        <ele>1859.33</ele>
        <time>2019-07-11T06:56:08Z</time>
      </trkpt>
      <trkpt lat="42.6436404046" lon="20.1552749053">
        <ele>1860.77</ele>
        <time>2019-07-11T06:56:20Z</time>
      </trkpt>
      <trkpt lat="42.6436600182" lon="20.1552940160">
        <ele>1861.73</ele>
        <time>2019-07-11T06:56:26Z</time>
      </trkpt>
      <trkpt lat="42.6436621975" lon="20.1553510968">
        <ele>1861.25</ele>
        <time>2019-07-11T06:56:31Z</time>
      </trkpt>
      <trkpt lat="42.6437206194" lon="20.1554785017">
        <ele>1863.17</ele>
        <time>2019-07-11T06:56:47Z</time>
      </trkpt>
      <trkpt lat="42.6437204517" lon="20.1554627437">
        <ele>1863.65</ele>
        <time>2019-07-11T06:57:07Z</time>
      </trkpt>
      <trkpt lat="42.6437324379" lon="20.1554651745">
        <ele>1863.65</ele>
        <time>2019-07-11T06:57:34Z</time>
      </trkpt>
      <trkpt lat="42.6438036002" lon="20.1553914975">
        <ele>1866.54</ele>
        <time>2019-07-11T06:57:48Z</time>
      </trkpt>
      <trkpt lat="42.6438551489" lon="20.1552854665">
        <ele>1868.46</ele>
        <time>2019-07-11T06:58:04Z</time>
      </trkpt>
      <trkpt lat="42.6439108048" lon="20.1552500110">
        <ele>1869.90</ele>
        <time>2019-07-11T06:58:16Z</time>
      </trkpt>
      <trkpt lat="42.6439468469" lon="20.1551913377">
        <ele>1871.34</ele>
        <time>2019-07-11T06:58:27Z</time>
      </trkpt>
      <trkpt lat="42.6439899299" lon="20.1551069319">
        <ele>1872.79</ele>
        <time>2019-07-11T06:58:40Z</time>
      </trkpt>
      <trkpt lat="42.6440172549" lon="20.1550484262">
        <ele>1874.71</ele>
        <time>2019-07-11T06:58:54Z</time>
      </trkpt>
      <trkpt lat="42.6440558955" lon="20.1549822930">
        <ele>1876.63</ele>
        <time>2019-07-11T06:59:06Z</time>
      </trkpt>
      <trkpt lat="42.6440753415" lon="20.1549300738">
        <ele>1877.59</ele>
        <time>2019-07-11T06:59:20Z</time>
      </trkpt>
      <trkpt lat="42.6440771017" lon="20.1548849791">
        <ele>1878.07</ele>
        <time>2019-07-11T06:59:29Z</time>
      </trkpt>
      <trkpt lat="42.6441077795" lon="20.1548441593">
        <ele>1879.03</ele>
        <time>2019-07-11T06:59:41Z</time>
      </trkpt>
      <trkpt lat="42.6441401336" lon="20.1547714043">
        <ele>1880.48</ele>
        <time>2019-07-11T06:59:54Z</time>
      </trkpt>
      <trkpt lat="42.6441671234" lon="20.1547203586">
        <ele>1881.92</ele>
        <time>2019-07-11T07:00:08Z</time>
      </trkpt>
      <trkpt lat="42.6441806182" lon="20.1546311751">
        <ele>1882.88</ele>
        <time>2019-07-11T07:00:21Z</time>
      </trkpt>
      <trkpt lat="42.6442056801" lon="20.1545467693">
        <ele>1882.88</ele>
        <time>2019-07-11T07:00:36Z</time>
      </trkpt>
      <trkpt lat="42.6442216057" lon="20.1544902753">
        <ele>1883.36</ele>
        <time>2019-07-11T07:00:53Z</time>
      </trkpt>
      <trkpt lat="42.6442250423" lon="20.1543772873">
        <ele>1883.36</ele>
        <time>2019-07-11T07:01:05Z</time>
      </trkpt>
      <trkpt lat="42.6442362741" lon="20.1542760339">
        <ele>1882.40</ele>
        <time>2019-07-11T07:01:14Z</time>
      </trkpt>
      <trkpt lat="42.6442420576" lon="20.1542497147">
        <ele>1882.40</ele>
        <time>2019-07-11T07:01:16Z</time>
      </trkpt>
      <trkpt lat="42.6442650240" lon="20.1541442703">
        <ele>1883.84</ele>
        <time>2019-07-11T07:01:25Z</time>
      </trkpt>
      <trkpt lat="42.6443221048" lon="20.1540738624">
        <ele>1885.76</ele>
        <time>2019-07-11T07:01:38Z</time>
      </trkpt>
      <trkpt lat="42.6443472505" lon="20.1539446972">
        <ele>1887.21</ele>
        <time>2019-07-11T07:01:50Z</time>
      </trkpt>
      <trkpt lat="42.6443831250" lon="20.1538567711">
        <ele>1889.61</ele>
        <time>2019-07-11T07:02:01Z</time>
      </trkpt>
      <trkpt lat="42.6444284711" lon="20.1537985168">
        <ele>1892.01</ele>
        <time>2019-07-11T07:02:13Z</time>
      </trkpt>
      <trkpt lat="42.6444319915" lon="20.1537944935">
        <ele>1892.01</ele>
        <time>2019-07-11T07:02:14Z</time>
      </trkpt>
      <trkpt lat="42.6444745716" lon="20.1536954194">
        <ele>1893.93</ele>
        <time>2019-07-11T07:02:27Z</time>
      </trkpt>
      <trkpt lat="42.6444972865" lon="20.1537263487">
        <ele>1895.38</ele>
        <time>2019-07-11T07:02:32Z</time>
      </trkpt>
      <trkpt lat="42.6445541997" lon="20.1536836848">
        <ele>1896.82</ele>
        <time>2019-07-11T07:02:46Z</time>
      </trkpt>
      <trkpt lat="42.6445772499" lon="20.1536034700">
        <ele>1898.74</ele>
        <time>2019-07-11T07:02:57Z</time>
      </trkpt>
      <trkpt lat="42.6446012221" lon="20.1535286196">
        <ele>1899.22</ele>
        <time>2019-07-11T07:03:06Z</time>
      </trkpt>
      <trkpt lat="42.6446257811" lon="20.1534285396">
        <ele>1900.66</ele>
        <time>2019-07-11T07:03:17Z</time>
      </trkpt>
      <trkpt lat="42.6446617395" lon="20.1533157192">
        <ele>1903.07</ele>
        <time>2019-07-11T07:03:31Z</time>
      </trkpt>
      <trkpt lat="42.6447278727" lon="20.1532820240">
        <ele>1905.47</ele>
        <time>2019-07-11T07:03:44Z</time>
      </trkpt>
      <trkpt lat="42.6447302196" lon="20.1532739773">
        <ele>1905.95</ele>
        <time>2019-07-11T07:03:45Z</time>
      </trkpt>
      <trkpt lat="42.6447705366" lon="20.1531856321">
        <ele>1907.87</ele>
        <time>2019-07-11T07:03:58Z</time>
      </trkpt>
      <trkpt lat="42.6448085904" lon="20.1530840434">
        <ele>1910.28</ele>
        <time>2019-07-11T07:04:10Z</time>
      </trkpt>
      <trkpt lat="42.6448069140" lon="20.1529726479">
        <ele>1912.20</ele>
        <time>2019-07-11T07:04:22Z</time>
      </trkpt>
      <trkpt lat="42.6448084228" lon="20.1529477537">
        <ele>1912.68</ele>
        <time>2019-07-11T07:04:25Z</time>
      </trkpt>
      <trkpt lat="42.6448628213" lon="20.1528723165">
        <ele>1915.08</ele>
        <time>2019-07-11T07:04:37Z</time>
      </trkpt>
      <trkpt lat="42.6448696107" lon="20.1527658664">
        <ele>1917.01</ele>
        <time>2019-07-11T07:04:50Z</time>
      </trkpt>
      <trkpt lat="42.6448910683" lon="20.1526444964">
        <ele>1918.93</ele>
        <time>2019-07-11T07:05:03Z</time>
      </trkpt>
      <trkpt lat="42.6449062396" lon="20.1525198575">
        <ele>1920.85</ele>
        <time>2019-07-11T07:05:16Z</time>
      </trkpt>
      <trkpt lat="42.6449231710" lon="20.1523738448">
        <ele>1922.29</ele>
        <time>2019-07-11T07:05:31Z</time>
      </trkpt>
      <trkpt lat="42.6449254341" lon="20.1522478648">
        <ele>1923.74</ele>
        <time>2019-07-11T07:05:45Z</time>
      </trkpt>
      <trkpt lat="42.6449409407" lon="20.1521516405">
        <ele>1926.14</ele>
        <time>2019-07-11T07:05:59Z</time>
      </trkpt>
      <trkpt lat="42.6449512504" lon="20.1520399097">
        <ele>1928.06</ele>
        <time>2019-07-11T07:06:14Z</time>
      </trkpt>
      <trkpt lat="42.6449602190" lon="20.1519069728">
        <ele>1930.46</ele>
        <time>2019-07-11T07:06:29Z</time>
      </trkpt>
      <trkpt lat="42.6449448802" lon="20.1517648995">
        <ele>1931.43</ele>
        <time>2019-07-11T07:06:43Z</time>
      </trkpt>
      <trkpt lat="42.6449538488" lon="20.1516187191">
        <ele>1933.35</ele>
        <time>2019-07-11T07:06:57Z</time>
      </trkpt>
      <trkpt lat="42.6449623145" lon="20.1514918171">
        <ele>1935.75</ele>
        <time>2019-07-11T07:07:09Z</time>
      </trkpt>
      <trkpt lat="42.6449681818" lon="20.1513730455">
        <ele>1937.67</ele>
        <time>2019-07-11T07:07:22Z</time>
      </trkpt>
      <trkpt lat="42.6449624822" lon="20.1513499115">
        <ele>1937.67</ele>
        <time>2019-07-11T07:07:24Z</time>
      </trkpt>
      <trkpt lat="42.6449281164" lon="20.1511710417">
        <ele>1937.67</ele>
        <time>2019-07-11T07:07:38Z</time>
      </trkpt>
      <trkpt lat="42.6449226681" lon="20.1510023139">
        <ele>1939.12</ele>
        <time>2019-07-11T07:07:51Z</time>
      </trkpt>
      <trkpt lat="42.6449202374" lon="20.1509907469">
        <ele>1939.12</ele>
        <time>2019-07-11T07:07:52Z</time>
      </trkpt>
      <trkpt lat="42.6448816806" lon="20.1508544572">
        <ele>1941.04</ele>
        <time>2019-07-11T07:08:06Z</time>
      </trkpt>
      <trkpt lat="42.6448481530" lon="20.1507272199">
        <ele>1942.96</ele>
        <time>2019-07-11T07:08:19Z</time>
      </trkpt>
      <trkpt lat="42.6448276173" lon="20.1506060176">
        <ele>1944.88</ele>
        <time>2019-07-11T07:08:34Z</time>
      </trkpt>
      <trkpt lat="42.6448152959" lon="20.1505668741">
        <ele>1944.88</ele>
        <time>2019-07-11T07:08:38Z</time>
      </trkpt>
      <trkpt lat="42.6448377594" lon="20.1504057739">
        <ele>1946.81</ele>
        <time>2019-07-11T07:08:53Z</time>
      </trkpt>
      <trkpt lat="42.6448322274" lon="20.1502768602">
        <ele>1948.73</ele>
        <time>2019-07-11T07:09:05Z</time>
      </trkpt>
      <trkpt lat="42.6448344905" lon="20.1501798816">
        <ele>1950.65</ele>
        <time>2019-07-11T07:09:15Z</time>
      </trkpt>
      <trkpt lat="42.6448340714" lon="20.1501460187">
        <ele>1951.13</ele>
        <time>2019-07-11T07:09:18Z</time>
      </trkpt>
      <trkpt lat="42.6448386814" lon="20.1501034386">
        <ele>1951.61</ele>
        <time>2019-07-11T07:09:22Z</time>
      </trkpt>
      <trkpt lat="42.6448858716" lon="20.1499245688">
        <ele>1953.54</ele>
        <time>2019-07-11T07:09:37Z</time>
      </trkpt>
      <trkpt lat="42.6449477300" lon="20.1498129219">
        <ele>1955.46</ele>
        <time>2019-07-11T07:09:50Z</time>
      </trkpt>
      <trkpt lat="42.6449647453" lon="20.1497166976">
        <ele>1958.34</ele>
        <time>2019-07-11T07:10:02Z</time>
      </trkpt>
      <trkpt lat="42.6449676789" lon="20.1496953238">
        <ele>1958.82</ele>
        <time>2019-07-11T07:10:04Z</time>
      </trkpt>
      <trkpt lat="42.6450172160" lon="20.1497099921">
        <ele>1960.27</ele>
        <time>2019-07-11T07:10:16Z</time>
      </trkpt>
      <trkpt lat="42.6450909767" lon="20.1497774664">
        <ele>1962.19</ele>
        <time>2019-07-11T07:10:28Z</time>
      </trkpt>
      <trkpt lat="42.6451569423" lon="20.1497988403">
        <ele>1964.11</ele>
        <time>2019-07-11T07:10:40Z</time>
      </trkpt>
      <trkpt lat="42.6452369895" lon="20.1498216391">
        <ele>1966.51</ele>
        <time>2019-07-11T07:10:53Z</time>
      </trkpt>
      <trkpt lat="42.6453105826" lon="20.1498432644">
        <ele>1968.44</ele>
        <time>2019-07-11T07:11:06Z</time>
      </trkpt>
      <trkpt lat="42.6453944016" lon="20.1498591062">
        <ele>1970.84</ele>
        <time>2019-07-11T07:11:19Z</time>
      </trkpt>
      <trkpt lat="42.6454719342" lon="20.1498704217">
        <ele>1973.72</ele>
        <time>2019-07-11T07:11:31Z</time>
      </trkpt>
      <trkpt lat="42.6455113292" lon="20.1499174442">
        <ele>1976.61</ele>
        <time>2019-07-11T07:11:43Z</time>
      </trkpt>
      <trkpt lat="42.6455828268" lon="20.1498768758">
        <ele>1978.05</ele>
        <time>2019-07-11T07:11:56Z</time>
      </trkpt>
      <trkpt lat="42.6456522290" lon="20.1498700865">
        <ele>1981.41</ele>
        <time>2019-07-11T07:12:10Z</time>
      </trkpt>
      <trkpt lat="42.6457284205" lon="20.1499364711">
        <ele>1983.82</ele>
        <time>2019-07-11T07:12:24Z</time>
      </trkpt>
      <trkpt lat="42.6457409095" lon="20.1499595214">
        <ele>1983.82</ele>
        <time>2019-07-11T07:12:27Z</time>
      </trkpt>
      <trkpt lat="42.6457440108" lon="20.1499937195">
        <ele>1984.30</ele>
        <time>2019-07-11T07:12:30Z</time>
      </trkpt>
      <trkpt lat="42.6458150055" lon="20.1500506327">
        <ele>1986.70</ele>
        <time>2019-07-11T07:12:41Z</time>
      </trkpt>
      <trkpt lat="42.6458865870" lon="20.1500827353">
        <ele>1988.62</ele>
        <time>2019-07-11T07:12:54Z</time>
      </trkpt>
      <trkpt lat="42.6458867546" lon="20.1500906982">
        <ele>1988.62</ele>
        <time>2019-07-11T07:12:55Z</time>
      </trkpt>
      <trkpt lat="42.6459690649" lon="20.1501474436">
        <ele>1991.03</ele>
        <time>2019-07-11T07:13:08Z</time>
      </trkpt>
      <trkpt lat="42.6460544765" lon="20.1501614414">
        <ele>1993.43</ele>
        <time>2019-07-11T07:13:23Z</time>
      </trkpt>
      <trkpt lat="42.6461074501" lon="20.1502076257">
        <ele>1995.35</ele>
        <time>2019-07-11T07:13:35Z</time>
      </trkpt>
      <trkpt lat="42.6461507846" lon="20.1502827276">
        <ele>1997.76</ele>
        <time>2019-07-11T07:13:48Z</time>
      </trkpt>
      <trkpt lat="42.6462335140" lon="20.1502798777">
        <ele>2000.64</ele>
        <time>2019-07-11T07:14:00Z</time>
      </trkpt>
      <trkpt lat="42.6463138964" lon="20.1502670534">
        <ele>2003.04</ele>
        <time>2019-07-11T07:14:11Z</time>
      </trkpt>
      <trkpt lat="42.6463847235" lon="20.1502557378">
        <ele>2004.49</ele>
        <time>2019-07-11T07:14:22Z</time>
      </trkpt>
      <trkpt lat="42.6464584842" lon="20.1502685621">
        <ele>2006.89</ele>
        <time>2019-07-11T07:14:34Z</time>
      </trkpt>
      <trkpt lat="42.6465162355" lon="20.1502959710">
        <ele>2008.33</ele>
        <time>2019-07-11T07:14:44Z</time>
      </trkpt>
      <trkpt lat="42.6465973724" lon="20.1502056140">
        <ele>2010.25</ele>
        <time>2019-07-11T07:14:58Z</time>
      </trkpt>
      <trkpt lat="42.6466217637" lon="20.1501658838">
        <ele>2010.73</ele>
        <time>2019-07-11T07:15:02Z</time>
      </trkpt>
      <trkpt lat="42.6467106957" lon="20.1500580087">
        <ele>2013.14</ele>
        <time>2019-07-11T07:15:18Z</time>
      </trkpt>
      <trkpt lat="42.6467333268" lon="20.1501279138">
        <ele>2015.06</ele>
        <time>2019-07-11T07:15:31Z</time>
      </trkpt>
      <trkpt lat="42.6467887312" lon="20.1501384750">
        <ele>2017.94</ele>
        <time>2019-07-11T07:15:45Z</time>
      </trkpt>
      <trkpt lat="42.6468726341" lon="20.1500763651">
        <ele>2020.35</ele>
        <time>2019-07-11T07:16:00Z</time>
      </trkpt>
      <trkpt lat="42.6469290443" lon="20.1500275824">
        <ele>2022.27</ele>
        <time>2019-07-11T07:16:11Z</time>
      </trkpt>
      <trkpt lat="42.6470131148" lon="20.1499579288">
        <ele>2024.67</ele>
        <time>2019-07-11T07:16:25Z</time>
      </trkpt>
      <trkpt lat="42.6470855344" lon="20.1499000937">
        <ele>2026.60</ele>
        <time>2019-07-11T07:16:37Z</time>
      </trkpt>
      <trkpt lat="42.6471732091" lon="20.1498556696">
        <ele>2028.04</ele>
        <time>2019-07-11T07:16:51Z</time>
      </trkpt>
      <trkpt lat="42.6472414378" lon="20.1498754509">
        <ele>2031.88</ele>
        <time>2019-07-11T07:17:05Z</time>
      </trkpt>
      <trkpt lat="42.6473039668" lon="20.1499014348">
        <ele>2034.29</ele>
        <time>2019-07-11T07:17:18Z</time>
      </trkpt>
      <trkpt lat="42.6473123487" lon="20.1499834098">
        <ele>2036.69</ele>
        <time>2019-07-11T07:17:31Z</time>
      </trkpt>
      <trkpt lat="42.6473937370" lon="20.1499350462">
        <ele>2039.09</ele>
        <time>2019-07-11T07:17:44Z</time>
      </trkpt>
      <trkpt lat="42.6474669948" lon="20.1499045361">
        <ele>2041.50</ele>
        <time>2019-07-11T07:17:57Z</time>
      </trkpt>
      <trkpt lat="42.6475379895" lon="20.1498694159">
        <ele>2043.90</ele>
        <time>2019-07-11T07:18:09Z</time>
      </trkpt>
      <trkpt lat="42.6475931425" lon="20.1498244051">
        <ele>2045.82</ele>
        <time>2019-07-11T07:18:21Z</time>
      </trkpt>
      <trkpt lat="42.6476644725" lon="20.1498010196">
        <ele>2048.71</ele>
        <time>2019-07-11T07:18:34Z</time>
      </trkpt>
      <trkpt lat="42.6477358863" lon="20.1497640554">
        <ele>2051.11</ele>
        <time>2019-07-11T07:18:49Z</time>
      </trkpt>
      <trkpt lat="42.6478014328" lon="20.1497076452">
        <ele>2053.03</ele>
        <time>2019-07-11T07:19:01Z</time>
      </trkpt>
      <trkpt lat="42.6478596870" lon="20.1496585272">
        <ele>2055.92</ele>
        <time>2019-07-11T07:19:14Z</time>
      </trkpt>
      <trkpt lat="42.6479115710" lon="20.1496440265">
        <ele>2057.84</ele>
        <time>2019-07-11T07:19:26Z</time>
      </trkpt>
      <trkpt lat="42.6479514688" lon="20.1495839283">
        <ele>2060.24</ele>
        <time>2019-07-11T07:19:38Z</time>
      </trkpt>
      <trkpt lat="42.6479994133" lon="20.1494621392">
        <ele>2062.65</ele>
        <time>2019-07-11T07:19:53Z</time>
      </trkpt>
      <trkpt lat="42.6480523031" lon="20.1494167093">
        <ele>2065.53</ele>
        <time>2019-07-11T07:20:07Z</time>
      </trkpt>
      <trkpt lat="42.6481039356" lon="20.1493769791">
        <ele>2067.93</ele>
        <time>2019-07-11T07:20:19Z</time>
      </trkpt>
      <trkpt lat="42.6481564902" lon="20.1493861992">
        <ele>2070.82</ele>
        <time>2019-07-11T07:20:32Z</time>
      </trkpt>
      <trkpt lat="42.6481861621" lon="20.1494009513">
        <ele>2073.70</ele>
        <time>2019-07-11T07:20:41Z</time>
      </trkpt>
      <trkpt lat="42.6482233778" lon="20.1494483929">
        <ele>2076.59</ele>
        <time>2019-07-11T07:21:00Z</time>
      </trkpt>
      <trkpt lat="42.6482632756" lon="20.1494837645">
        <ele>2078.99</ele>
        <time>2019-07-11T07:21:12Z</time>
      </trkpt>
      <trkpt lat="42.6482734177" lon="20.1495530829">
        <ele>2084.76</ele>
        <time>2019-07-11T07:21:25Z</time>
      </trkpt>
      <trkpt lat="42.6482854038" lon="20.1496239938">
        <ele>2085.24</ele>
        <time>2019-07-11T07:21:38Z</time>
      </trkpt>
      <trkpt lat="42.6483282354" lon="20.1496612933">
        <ele>2087.64</ele>
        <time>2019-07-11T07:21:51Z</time>
      </trkpt>
      <trkpt lat="42.6483460050" lon="20.1497353893">
        <ele>2090.04</ele>
        <time>2019-07-11T07:22:04Z</time>
      </trkpt>
      <trkpt lat="42.6483512018" lon="20.1498233993">
        <ele>2092.45</ele>
        <time>2019-07-11T07:22:16Z</time>
      </trkpt>
      <trkpt lat="42.6484201849" lon="20.1497912966">
        <ele>2094.37</ele>
        <time>2019-07-11T07:22:29Z</time>
      </trkpt>
      <trkpt lat="42.6484568138" lon="20.1498231478">
        <ele>2096.77</ele>
        <time>2019-07-11T07:22:40Z</time>
      </trkpt>
      <trkpt lat="42.6485037524" lon="20.1498289313">
        <ele>2098.21</ele>
        <time>2019-07-11T07:22:54Z</time>
      </trkpt>
      <trkpt lat="42.6485387888" lon="20.1498829108">
        <ele>2101.10</ele>
        <time>2019-07-11T07:23:07Z</time>
      </trkpt>
      <trkpt lat="42.6485784352" lon="20.1499285921">
        <ele>2103.98</ele>
        <time>2019-07-11T07:23:21Z</time>
      </trkpt>
      <trkpt lat="42.6486226916" lon="20.1500467770">
        <ele>2105.91</ele>
        <time>2019-07-11T07:23:35Z</time>
      </trkpt>
      <trkpt lat="42.6486638468" lon="20.1501449291">
        <ele>2108.79</ele>
        <time>2019-07-11T07:23:48Z</time>
      </trkpt>
      <trkpt lat="42.6486620866" lon="20.1502873376">
        <ele>2111.67</ele>
        <time>2019-07-11T07:24:01Z</time>
      </trkpt>
      <trkpt lat="42.6487090252" lon="20.1503712405">
        <ele>2113.60</ele>
        <time>2019-07-11T07:24:14Z</time>
      </trkpt>
      <trkpt lat="42.6487286389" lon="20.1503913570">
        <ele>2114.56</ele>
        <time>2019-07-11T07:24:18Z</time>
      </trkpt>
      <trkpt lat="42.6487743203" lon="20.1504783612">
        <ele>2116.48</ele>
        <time>2019-07-11T07:24:32Z</time>
      </trkpt>
      <trkpt lat="42.6487982925" lon="20.1505702268">
        <ele>2118.88</ele>
        <time>2019-07-11T07:24:44Z</time>
      </trkpt>
      <trkpt lat="42.6488223486" lon="20.1506365277">
        <ele>2119.36</ele>
        <time>2019-07-11T07:24:54Z</time>
      </trkpt>
      <trkpt lat="42.6488658506" lon="20.1507303212">
        <ele>2120.81</ele>
        <time>2019-07-11T07:25:10Z</time>
      </trkpt>
      <trkpt lat="42.6488702092" lon="20.1507448219">
        <ele>2120.81</ele>
        <time>2019-07-11T07:25:11Z</time>
      </trkpt>
      <trkpt lat="42.6489243563" lon="20.1508897450">
        <ele>2122.73</ele>
        <time>2019-07-11T07:25:23Z</time>
      </trkpt>
      <trkpt lat="42.6489370968" lon="20.1509209257">
        <ele>2123.21</ele>
        <time>2019-07-11T07:25:26Z</time>
      </trkpt>
      <trkpt lat="42.6490057446" lon="20.1510386076">
        <ele>2125.13</ele>
        <time>2019-07-11T07:25:39Z</time>
      </trkpt>
      <trkpt lat="42.6490676031" lon="20.1511531044">
        <ele>2126.09</ele>
        <time>2019-07-11T07:25:54Z</time>
      </trkpt>
      <trkpt lat="42.6490710396" lon="20.1511303894">
        <ele>2125.13</ele>
        <time>2019-07-11T07:26:07Z</time>
      </trkpt>
      <trkpt lat="42.6490821037" lon="20.1511108596">
        <ele>2124.65</ele>
        <time>2019-07-11T07:26:46Z</time>
      </trkpt>
      <trkpt lat="42.6491095964" lon="20.1511185709">
        <ele>2125.13</ele>
        <time>2019-07-11T07:27:34Z</time>
      </trkpt>
      <trkpt lat="42.6491075847" lon="20.1511241030">
        <ele>2125.13</ele>
        <time>2019-07-11T07:28:07Z</time>
      </trkpt>
      <trkpt lat="42.6490908209" lon="20.1511217561">
        <ele>2125.13</ele>
        <time>2019-07-11T07:28:51Z</time>
      </trkpt>
      <trkpt lat="42.6490849536" lon="20.1511182357">
        <ele>2125.13</ele>
        <time>2019-07-11T07:29:20Z</time>
      </trkpt>
      <trkpt lat="42.6490614004" lon="20.1511400286">
        <ele>2124.65</ele>
        <time>2019-07-11T07:30:09Z</time>
      </trkpt>
      <trkpt lat="42.6490562875" lon="20.1511327364">
        <ele>2125.13</ele>
        <time>2019-07-11T07:30:52Z</time>
      </trkpt>
      <trkpt lat="42.6490523480" lon="20.1511498354">
        <ele>2124.65</ele>
        <time>2019-07-11T07:31:33Z</time>
      </trkpt>
      <trkpt lat="42.6490868814" lon="20.1511360053">
        <ele>2124.65</ele>
        <time>2019-07-11T07:32:14Z</time>
      </trkpt>
      <trkpt lat="42.6490772422" lon="20.1511382684">
        <ele>2124.65</ele>
        <time>2019-07-11T07:32:48Z</time>
      </trkpt>
      <trkpt lat="42.6490742248" lon="20.1511348318">
        <ele>2124.65</ele>
        <time>2019-07-11T07:33:27Z</time>
      </trkpt>
      <trkpt lat="42.6490706205" lon="20.1511469018">
        <ele>2125.13</ele>
        <time>2019-07-11T07:34:14Z</time>
      </trkpt>
      <trkpt lat="42.6490910724" lon="20.1511526853">
        <ele>2125.13</ele>
        <time>2019-07-11T07:35:01Z</time>
      </trkpt>
      <trkpt lat="42.6490947604" lon="20.1511350833">
        <ele>2125.13</ele>
        <time>2019-07-11T07:35:34Z</time>
      </trkpt>
      <trkpt lat="42.6490731351" lon="20.1511223428">
        <ele>2125.13</ele>
        <time>2019-07-11T07:36:15Z</time>
      </trkpt>
      <trkpt lat="42.6490688603" lon="20.1511091832">
        <ele>2126.57</ele>
        <time>2019-07-11T07:36:19Z</time>
      </trkpt>
      <trkpt lat="42.6490810141" lon="20.1511078421">
        <ele>2126.57</ele>
        <time>2019-07-11T07:36:31Z</time>
      </trkpt>
      <trkpt lat="42.6490931679" lon="20.1511118654">
        <ele>2126.57</ele>
        <time>2019-07-11T07:36:34Z</time>
      </trkpt>
      <trkpt lat="42.6491174754" lon="20.1511282939">
        <ele>2126.57</ele>
        <time>2019-07-11T07:36:37Z</time>
      </trkpt>
      <trkpt lat="42.6491427887" lon="20.1511625759">
        <ele>2126.57</ele>
        <time>2019-07-11T07:36:41Z</time>
      </trkpt>
      <trkpt lat="42.6492761448" lon="20.1511118654">
        <ele>2124.65</ele>
        <time>2019-07-11T07:36:55Z</time>
      </trkpt>
      <trkpt lat="42.6493700221" lon="20.1509667747">
        <ele>2124.17</ele>
        <time>2019-07-11T07:37:08Z</time>
      </trkpt>
      <trkpt lat="42.6494268514" lon="20.1509373542">
        <ele>2122.73</ele>
        <time>2019-07-11T07:37:22Z</time>
      </trkpt>
      <trkpt lat="42.6495003607" lon="20.1508631743">
        <ele>2122.25</ele>
        <time>2019-07-11T07:37:36Z</time>
      </trkpt>
      <trkpt lat="42.6495435275" lon="20.1508025732">
        <ele>2121.77</ele>
        <time>2019-07-11T07:37:43Z</time>
      </trkpt>
      <trkpt lat="42.6495470479" lon="20.1507754996">
        <ele>2121.77</ele>
        <time>2019-07-11T07:37:45Z</time>
      </trkpt>
      <trkpt lat="42.6495763008" lon="20.1506179199">
        <ele>2118.88</ele>
        <time>2019-07-11T07:37:58Z</time>
      </trkpt>
      <trkpt lat="42.6496046316" lon="20.1504917722">
        <ele>2118.40</ele>
        <time>2019-07-11T07:38:06Z</time>
      </trkpt>
      <trkpt lat="42.6496093255" lon="20.1504051033">
        <ele>2118.40</ele>
        <time>2019-07-11T07:38:13Z</time>
      </trkpt>
      <trkpt lat="42.6495781448" lon="20.1502992399">
        <ele>2118.40</ele>
        <time>2019-07-11T07:38:21Z</time>
      </trkpt>
      <trkpt lat="42.6495958306" lon="20.1502038538">
        <ele>2117.92</ele>
        <time>2019-07-11T07:38:28Z</time>
      </trkpt>
      <trkpt lat="42.6495915558" lon="20.1501185261">
        <ele>2116.96</ele>
        <time>2019-07-11T07:38:34Z</time>
      </trkpt>
      <trkpt lat="42.6496348064" lon="20.1500098128">
        <ele>2116.48</ele>
        <time>2019-07-11T07:38:42Z</time>
      </trkpt>
      <trkpt lat="42.6496627182" lon="20.1498704217">
        <ele>2116.48</ele>
        <time>2019-07-11T07:38:54Z</time>
      </trkpt>
      <trkpt lat="42.6496703457" lon="20.1498805638">
        <ele>2117.44</ele>
        <time>2019-07-11T07:39:10Z</time>
      </trkpt>
      <trkpt lat="42.6496581919" lon="20.1499016024">
        <ele>2117.92</ele>
        <time>2019-07-11T07:39:33Z</time>
      </trkpt>
      <trkpt lat="42.6496498939" lon="20.1498193759">
        <ele>2117.92</ele>
        <time>2019-07-11T07:39:41Z</time>
      </trkpt>
      <trkpt lat="42.6496371534" lon="20.1497832499">
        <ele>2117.92</ele>
        <time>2019-07-11T07:39:44Z</time>
      </trkpt>
      <trkpt lat="42.6496216469" lon="20.1497159433">
        <ele>2117.92</ele>
        <time>2019-07-11T07:39:50Z</time>
      </trkpt>
      <trkpt lat="42.6496430207" lon="20.1495552622">
        <ele>2117.92</ele>
        <time>2019-07-11T07:40:03Z</time>
      </trkpt>
      <trkpt lat="42.6497089025" lon="20.1493716147">
        <ele>2118.88</ele>
        <time>2019-07-11T07:40:18Z</time>
      </trkpt>
      <trkpt lat="42.6498057134" lon="20.1493046433">
        <ele>2119.84</ele>
        <time>2019-07-11T07:40:29Z</time>
      </trkpt>
      <trkpt lat="42.6498967409" lon="20.1492596325">
        <ele>2120.32</ele>
        <time>2019-07-11T07:40:42Z</time>
      </trkpt>
      <trkpt lat="42.6499746926" lon="20.1491513383">
        <ele>2122.73</ele>
        <time>2019-07-11T07:40:55Z</time>
      </trkpt>
      <trkpt lat="42.6500831544" lon="20.1490976941">
        <ele>2122.73</ele>
        <time>2019-07-11T07:41:07Z</time>
      </trkpt>
      <trkpt lat="42.6500948053" lon="20.1490946766">
        <ele>2121.29</ele>
        <time>2019-07-11T07:41:08Z</time>
      </trkpt>
      <trkpt lat="42.6502253953" lon="20.1490146294">
        <ele>2120.81</ele>
        <time>2019-07-11T07:41:21Z</time>
      </trkpt>
      <trkpt lat="42.6503369585" lon="20.1489303913">
        <ele>2119.36</ele>
        <time>2019-07-11T07:41:34Z</time>
      </trkpt>
      <trkpt lat="42.6504113898" lon="20.1489199139">
        <ele>2118.40</ele>
        <time>2019-07-11T07:41:42Z</time>
      </trkpt>
      <trkpt lat="42.6505098771" lon="20.1488798484">
        <ele>2116.96</ele>
        <time>2019-07-11T07:41:52Z</time>
      </trkpt>
      <trkpt lat="42.6505577378" lon="20.1488544513">
        <ele>2116.48</ele>
        <time>2019-07-11T07:41:59Z</time>
      </trkpt>
      <trkpt lat="42.6506512798" lon="20.1487864740">
        <ele>2115.52</ele>
        <time>2019-07-11T07:42:10Z</time>
      </trkpt>
      <trkpt lat="42.6507045049" lon="20.1487906650">
        <ele>2115.52</ele>
        <time>2019-07-11T07:42:14Z</time>
      </trkpt>
      <trkpt lat="42.6508091111" lon="20.1488070935">
        <ele>2115.04</ele>
        <time>2019-07-11T07:42:24Z</time>
      </trkpt>
      <trkpt lat="42.6508657727" lon="20.1488529425">
        <ele>2114.56</ele>
        <time>2019-07-11T07:42:31Z</time>
      </trkpt>
      <trkpt lat="42.6509533636" lon="20.1488735620">
        <ele>2113.60</ele>
        <time>2019-07-11T07:42:45Z</time>
      </trkpt>
      <trkpt lat="42.6509698760" lon="20.1488975342">
        <ele>2112.63</ele>
        <time>2019-07-11T07:42:49Z</time>
      </trkpt>
      <trkpt lat="42.6509940997" lon="20.1489505079">
        <ele>2112.63</ele>
        <time>2019-07-11T07:43:04Z</time>
      </trkpt>
      <trkpt lat="42.6510340814" lon="20.1489166450">
        <ele>2112.63</ele>
        <time>2019-07-11T07:43:18Z</time>
      </trkpt>
      <trkpt lat="42.6510638371" lon="20.1488912478">
        <ele>2112.15</ele>
        <time>2019-07-11T07:43:23Z</time>
      </trkpt>
      <trkpt lat="42.6511480752" lon="20.1488936786">
        <ele>2112.15</ele>
        <time>2019-07-11T07:43:38Z</time>
      </trkpt>
      <trkpt lat="42.6511612348" lon="20.1488980372">
        <ele>2112.15</ele>
        <time>2019-07-11T07:43:40Z</time>
      </trkpt>
      <trkpt lat="42.6511865482" lon="20.1489023119">
        <ele>2112.15</ele>
        <time>2019-07-11T07:43:43Z</time>
      </trkpt>
      <trkpt lat="42.6512156334" lon="20.1488899905">
        <ele>2112.15</ele>
        <time>2019-07-11T07:43:46Z</time>
      </trkpt>
      <trkpt lat="42.6512821857" lon="20.1489013899">
        <ele>2110.23</ele>
        <time>2019-07-11T07:43:55Z</time>
      </trkpt>
      <trkpt lat="42.6513663400" lon="20.1489358395">
        <ele>2109.75</ele>
        <time>2019-07-11T07:44:03Z</time>
      </trkpt>
      <trkpt lat="42.6514502428" lon="20.1489557885">
        <ele>2108.31</ele>
        <time>2019-07-11T07:44:13Z</time>
      </trkpt>
      <trkpt lat="42.6515203994" lon="20.1489967760">
        <ele>2106.39</ele>
        <time>2019-07-11T07:44:20Z</time>
      </trkpt>
      <trkpt lat="42.6515402645" lon="20.1490076724">
        <ele>2106.39</ele>
        <time>2019-07-11T07:44:22Z</time>
      </trkpt>
      <trkpt lat="42.6515975129" lon="20.1490194909">
        <ele>2104.94</ele>
        <time>2019-07-11T07:44:29Z</time>
      </trkpt>
      <trkpt lat="42.6516954135" lon="20.1490172278">
        <ele>2103.50</ele>
        <time>2019-07-11T07:44:38Z</time>
      </trkpt>
      <trkpt lat="42.6517797355" lon="20.1490502525">
        <ele>2102.54</ele>
        <time>2019-07-11T07:44:46Z</time>
      </trkpt>
      <trkpt lat="42.6518247463" lon="20.1490376797">
        <ele>2102.06</ele>
        <time>2019-07-11T07:44:51Z</time>
      </trkpt>
      <trkpt lat="42.6518914662" lon="20.1490256935">
        <ele>2099.18</ele>
        <time>2019-07-11T07:45:03Z</time>
      </trkpt>
      <trkpt lat="42.6519103255" lon="20.1488909125">
        <ele>2096.29</ele>
        <time>2019-07-11T07:45:15Z</time>
      </trkpt>
      <trkpt lat="42.6519231498" lon="20.1488904096">
        <ele>2096.29</ele>
        <time>2019-07-11T07:45:17Z</time>
      </trkpt>
      <trkpt lat="42.6520067174" lon="20.1489278767">
        <ele>2091.97</ele>
        <time>2019-07-11T07:45:27Z</time>
      </trkpt>
      <trkpt lat="42.6520626247" lon="20.1489667688">
        <ele>2089.08</ele>
        <time>2019-07-11T07:45:35Z</time>
      </trkpt>
      <trkpt lat="42.6521411631" lon="20.1490248553">
        <ele>2086.20</ele>
        <time>2019-07-11T07:45:46Z</time>
      </trkpt>
      <trkpt lat="42.6522182766" lon="20.1489967760">
        <ele>2083.31</ele>
        <time>2019-07-11T07:45:57Z</time>
      </trkpt>
      <trkpt lat="42.6523339469" lon="20.1490289625">
        <ele>2080.43</ele>
        <time>2019-07-11T07:46:08Z</time>
      </trkpt>
      <trkpt lat="42.6525072847" lon="20.1490396913">
        <ele>2078.03</ele>
        <time>2019-07-11T07:46:22Z</time>
      </trkpt>
      <trkpt lat="42.6526542194" lon="20.1490060799">
        <ele>2075.14</ele>
        <time>2019-07-11T07:46:34Z</time>
      </trkpt>
      <trkpt lat="42.6527831331" lon="20.1489385217">
        <ele>2073.70</ele>
        <time>2019-07-11T07:46:45Z</time>
      </trkpt>
      <trkpt lat="42.6528406329" lon="20.1489365101">
        <ele>2073.22</ele>
        <time>2019-07-11T07:46:51Z</time>
      </trkpt>
      <trkpt lat="42.6529565547" lon="20.1489727199">
        <ele>2071.30</ele>
        <time>2019-07-11T07:47:04Z</time>
      </trkpt>
      <trkpt lat="42.6530340035" lon="20.1489240211">
        <ele>2070.82</ele>
        <time>2019-07-11T07:47:14Z</time>
      </trkpt>
      <trkpt lat="42.6530609094" lon="20.1489221770">
        <ele>2070.34</ele>
        <time>2019-07-11T07:47:17Z</time>
      </trkpt>
      <trkpt lat="42.6531163137" lon="20.1488760766">
        <ele>2069.86</ele>
        <time>2019-07-11T07:47:23Z</time>
      </trkpt>
      <trkpt lat="42.6532257814" lon="20.1488400344">
        <ele>2069.38</ele>
        <time>2019-07-11T07:47:37Z</time>
      </trkpt>
      <trkpt lat="42.6532521844" lon="20.1488633361">
        <ele>2067.45</ele>
        <time>2019-07-11T07:47:50Z</time>
      </trkpt>
      <trkpt lat="42.6533126179" lon="20.1488734782">
        <ele>2064.57</ele>
        <time>2019-07-11T07:47:58Z</time>
      </trkpt>
      <trkpt lat="42.6534493268" lon="20.1489258651">
        <ele>2062.17</ele>
        <time>2019-07-11T07:48:11Z</time>
      </trkpt>
      <trkpt lat="42.6535233390" lon="20.1489060838">
        <ele>2061.20</ele>
        <time>2019-07-11T07:48:17Z</time>
      </trkpt>
      <trkpt lat="42.6535884663" lon="20.1489050779">
        <ele>2059.28</ele>
        <time>2019-07-11T07:48:22Z</time>
      </trkpt>
      <trkpt lat="42.6536955871" lon="20.1488855481">
        <ele>2060.72</ele>
        <time>2019-07-11T07:48:34Z</time>
      </trkpt>
      <trkpt lat="42.6537254266" lon="20.1488890685">
        <ele>2062.17</ele>
        <time>2019-07-11T07:48:37Z</time>
      </trkpt>
      <trkpt lat="42.6537896320" lon="20.1488886494">
        <ele>2064.09</ele>
        <time>2019-07-11T07:48:48Z</time>
      </trkpt>
      <trkpt lat="42.6538457908" lon="20.1488443092">
        <ele>2066.01</ele>
        <time>2019-07-11T07:48:58Z</time>
      </trkpt>
      <trkpt lat="42.6538653206" lon="20.1488661021">
        <ele>2066.49</ele>
        <time>2019-07-11T07:49:01Z</time>
      </trkpt>
      <trkpt lat="42.6538938191" lon="20.1488896552">
        <ele>2066.97</ele>
        <time>2019-07-11T07:49:04Z</time>
      </trkpt>
      <trkpt lat="42.6540365629" lon="20.1488982886">
        <ele>2066.97</ele>
        <time>2019-07-11T07:49:17Z</time>
      </trkpt>
      <trkpt lat="42.6540742815" lon="20.1488924213">
        <ele>2067.45</ele>
        <time>2019-07-11T07:49:21Z</time>
      </trkpt>
      <trkpt lat="42.6542219706" lon="20.1487982087">
        <ele>2067.93</ele>
        <time>2019-07-11T07:49:37Z</time>
      </trkpt>
      <trkpt lat="42.6542677358" lon="20.1487639267">
        <ele>2067.93</ele>
        <time>2019-07-11T07:49:42Z</time>
      </trkpt>
      <trkpt lat="42.6544227172" lon="20.1487283036">
        <ele>2068.89</ele>
        <time>2019-07-11T07:49:56Z</time>
      </trkpt>
      <trkpt lat="42.6544398163" lon="20.1487172395">
        <ele>2068.89</ele>
        <time>2019-07-11T07:49:58Z</time>
      </trkpt>
      <trkpt lat="42.6545343641" lon="20.1487366017">
        <ele>2067.45</ele>
        <time>2019-07-11T07:50:07Z</time>
      </trkpt>
      <trkpt lat="42.6546129026" lon="20.1487621665">
        <ele>2066.97</ele>
        <time>2019-07-11T07:50:17Z</time>
      </trkpt>
      <trkpt lat="42.6547101326" lon="20.1489811856">
        <ele>2064.57</ele>
        <time>2019-07-11T07:50:32Z</time>
      </trkpt>
      <trkpt lat="42.6548009086" lon="20.1490738057">
        <ele>2066.49</ele>
        <time>2019-07-11T07:50:43Z</time>
      </trkpt>
      <trkpt lat="42.6550041698" lon="20.1491510868">
        <ele>2065.05</ele>
        <time>2019-07-11T07:51:01Z</time>
      </trkpt>
      <trkpt lat="42.6551530324" lon="20.1492399350">
        <ele>2066.01</ele>
        <time>2019-07-11T07:51:15Z</time>
      </trkpt>
      <trkpt lat="42.6552000549" lon="20.1494788192">
        <ele>2066.01</ele>
        <time>2019-07-11T07:51:30Z</time>
      </trkpt>
      <trkpt lat="42.6552382763" lon="20.1495405100">
        <ele>2066.01</ele>
        <time>2019-07-11T07:51:35Z</time>
      </trkpt>
      <trkpt lat="42.6553628314" lon="20.1497086510">
        <ele>2067.45</ele>
        <time>2019-07-11T07:51:50Z</time>
      </trkpt>
      <trkpt lat="42.6554018911" lon="20.1497543324">
        <ele>2067.93</ele>
        <time>2019-07-11T07:51:56Z</time>
      </trkpt>
      <trkpt lat="42.6554258633" lon="20.1497999299">
        <ele>2068.89</ele>
        <time>2019-07-11T07:52:00Z</time>
      </trkpt>
      <trkpt lat="42.6555164717" lon="20.1499993354">
        <ele>2069.38</ele>
        <time>2019-07-11T07:52:15Z</time>
      </trkpt>
      <trkpt lat="42.6555665117" lon="20.1502726693">
        <ele>2069.38</ele>
        <time>2019-07-11T07:52:33Z</time>
      </trkpt>
      <trkpt lat="42.6555683557" lon="20.1503748447">
        <ele>2069.38</ele>
        <time>2019-07-11T07:52:40Z</time>
      </trkpt>
      <trkpt lat="42.6555653382" lon="20.1506499387">
        <ele>2069.38</ele>
        <time>2019-07-11T07:52:57Z</time>
      </trkpt>
      <trkpt lat="42.6555629075" lon="20.1508998871">
        <ele>2069.38</ele>
        <time>2019-07-11T07:53:13Z</time>
      </trkpt>
      <trkpt lat="42.6555321459" lon="20.1511159725">
        <ele>2070.34</ele>
        <time>2019-07-11T07:53:28Z</time>
      </trkpt>
      <trkpt lat="42.6555306371" lon="20.1513834391">
        <ele>2071.30</ele>
        <time>2019-07-11T07:53:44Z</time>
      </trkpt>
      <trkpt lat="42.6555520948" lon="20.1515927352">
        <ele>2071.78</ele>
        <time>2019-07-11T07:53:57Z</time>
      </trkpt>
      <trkpt lat="42.6555710379" lon="20.1518134307">
        <ele>2072.74</ele>
        <time>2019-07-11T07:54:11Z</time>
      </trkpt>
      <trkpt lat="42.6556074154" lon="20.1520371437">
        <ele>2073.22</ele>
        <time>2019-07-11T07:54:25Z</time>
      </trkpt>
      <trkpt lat="42.6556638256" lon="20.1523103938">
        <ele>2073.22</ele>
        <time>2019-07-11T07:54:41Z</time>
      </trkpt>
      <trkpt lat="42.6557666715" lon="20.1525046863">
        <ele>2073.70</ele>
        <time>2019-07-11T07:54:55Z</time>
      </trkpt>
      <trkpt lat="42.6558747143" lon="20.1527347695">
        <ele>2074.18</ele>
        <time>2019-07-11T07:55:11Z</time>
      </trkpt>
      <trkpt lat="42.6559950784" lon="20.1528833807">
        <ele>2074.66</ele>
        <time>2019-07-11T07:55:24Z</time>
      </trkpt>
      <trkpt lat="42.6561037078" lon="20.1530846301">
        <ele>2075.62</ele>
        <time>2019-07-11T07:55:40Z</time>
      </trkpt>
      <trkpt lat="42.6561674103" lon="20.1532629970">
        <ele>2077.07</ele>
        <time>2019-07-11T07:55:54Z</time>
      </trkpt>
      <trkpt lat="42.6562326215" lon="20.1534227561">
        <ele>2077.55</ele>
        <time>2019-07-11T07:56:07Z</time>
      </trkpt>
      <trkpt lat="42.6562709268" lon="20.1535968482">
        <ele>2077.55</ele>
        <time>2019-07-11T07:56:19Z</time>
      </trkpt>
      <trkpt lat="42.6563307736" lon="20.1537334733">
        <ele>2078.03</ele>
        <time>2019-07-11T07:56:32Z</time>
      </trkpt>
      <trkpt lat="42.6563441847" lon="20.1538120955">
        <ele>2078.03</ele>
        <time>2019-07-11T07:56:37Z</time>
      </trkpt>
      <trkpt lat="42.6563771255" lon="20.1540295221">
        <ele>2079.47</ele>
        <time>2019-07-11T07:56:54Z</time>
      </trkpt>
      <trkpt lat="42.6563837472" lon="20.1540392451">
        <ele>2079.47</ele>
        <time>2019-07-11T07:56:55Z</time>
      </trkpt>
      <trkpt lat="42.6565219648" lon="20.1542087272">
        <ele>2079.95</ele>
        <time>2019-07-11T07:57:12Z</time>
      </trkpt>
      <trkpt lat="42.6565581746" lon="20.1542758662">
        <ele>2079.95</ele>
        <time>2019-07-11T07:57:18Z</time>
      </trkpt>
      <trkpt lat="42.6565922890" lon="20.1544538978">
        <ele>2079.95</ele>
        <time>2019-07-11T07:57:31Z</time>
      </trkpt>
      <trkpt lat="42.6566019282" lon="20.1546330191">
        <ele>2081.87</ele>
        <time>2019-07-11T07:57:47Z</time>
      </trkpt>
      <trkpt lat="42.6566046942" lon="20.1548589952">
        <ele>2082.83</ele>
        <time>2019-07-11T07:58:03Z</time>
      </trkpt>
      <trkpt lat="42.6565914508" lon="20.1550541259">
        <ele>2083.79</ele>
        <time>2019-07-11T07:58:17Z</time>
      </trkpt>
      <trkpt lat="42.6565595996" lon="20.1552901603">
        <ele>2085.24</ele>
        <time>2019-07-11T07:58:34Z</time>
      </trkpt>
      <trkpt lat="42.6565253176" lon="20.1555429585">
        <ele>2085.72</ele>
        <time>2019-07-11T07:58:52Z</time>
      </trkpt>
      <trkpt lat="42.6564969029" lon="20.1557048131">
        <ele>2086.68</ele>
        <time>2019-07-11T07:59:04Z</time>
      </trkpt>
      <trkpt lat="42.6564492099" lon="20.1559288613">
        <ele>2088.12</ele>
        <time>2019-07-11T07:59:20Z</time>
      </trkpt>
      <trkpt lat="42.6564076357" lon="20.1561157778">
        <ele>2089.08</ele>
        <time>2019-07-11T07:59:34Z</time>
      </trkpt>
      <trkpt lat="42.6563854236" lon="20.1561841741">
        <ele>2089.08</ele>
        <time>2019-07-11T07:59:39Z</time>
      </trkpt>
      <trkpt lat="42.6562912110" lon="20.1564083900">
        <ele>2089.56</ele>
        <time>2019-07-11T07:59:56Z</time>
      </trkpt>
      <trkpt lat="42.6562521514" lon="20.1565138344">
        <ele>2090.52</ele>
        <time>2019-07-11T08:00:04Z</time>
      </trkpt>
      <trkpt lat="42.6562404167" lon="20.1565368008">
        <ele>2090.52</ele>
        <time>2019-07-11T08:00:06Z</time>
      </trkpt>
      <trkpt lat="42.6561821625" lon="20.1567650400">
        <ele>2091.49</ele>
        <time>2019-07-11T08:00:23Z</time>
      </trkpt>
      <trkpt lat="42.6561576035" lon="20.1570056845">
        <ele>2092.45</ele>
        <time>2019-07-11T08:00:39Z</time>
      </trkpt>
      <trkpt lat="42.6561829168" lon="20.1572597399">
        <ele>2093.41</ele>
        <time>2019-07-11T08:00:56Z</time>
      </trkpt>
      <trkpt lat="42.6561943162" lon="20.1572999731">
        <ele>2093.89</ele>
        <time>2019-07-11T08:00:59Z</time>
      </trkpt>
      <trkpt lat="42.6561884489" lon="20.1574085187">
        <ele>2093.89</ele>
        <time>2019-07-11T08:01:06Z</time>
      </trkpt>
      <trkpt lat="42.6561975013" lon="20.1574992109">
        <ele>2094.37</ele>
        <time>2019-07-11T08:01:12Z</time>
      </trkpt>
      <trkpt lat="42.6562052127" lon="20.1577043999">
        <ele>2095.33</ele>
        <time>2019-07-11T08:01:26Z</time>
      </trkpt>
      <trkpt lat="42.6562078111" lon="20.1579157915">
        <ele>2096.29</ele>
        <time>2019-07-11T08:01:40Z</time>
      </trkpt>
      <trkpt lat="42.6562216412" lon="20.1580996905">
        <ele>2097.25</ele>
        <time>2019-07-11T08:01:53Z</time>
      </trkpt>
      <trkpt lat="42.6562439371" lon="20.1582517382">
        <ele>2098.70</ele>
        <time>2019-07-11T08:02:05Z</time>
      </trkpt>
      <trkpt lat="42.6562500559" lon="20.1583764609">
        <ele>2099.66</ele>
        <time>2019-07-11T08:02:14Z</time>
      </trkpt>
      <trkpt lat="42.6563243195" lon="20.1584544126">
        <ele>2100.62</ele>
        <time>2019-07-11T08:02:25Z</time>
      </trkpt>
      <trkpt lat="42.6563891117" lon="20.1584627945">
        <ele>2101.58</ele>
        <time>2019-07-11T08:02:33Z</time>
      </trkpt>
      <trkpt lat="42.6564601064" lon="20.1584745292">
        <ele>2101.58</ele>
        <time>2019-07-11T08:02:40Z</time>
      </trkpt>
      <trkpt lat="42.6565013453" lon="20.1584836654">
        <ele>2100.14</ele>
        <time>2019-07-11T08:02:44Z</time>
      </trkpt>
      <trkpt lat="42.6566466875" lon="20.1585372258">
        <ele>2099.66</ele>
        <time>2019-07-11T08:02:59Z</time>
      </trkpt>
      <trkpt lat="42.6567069534" lon="20.1585488766">
        <ele>2098.21</ele>
        <time>2019-07-11T08:03:04Z</time>
      </trkpt>
      <trkpt lat="42.6568278205" lon="20.1586201228">
        <ele>2095.81</ele>
        <time>2019-07-11T08:03:15Z</time>
      </trkpt>
      <trkpt lat="42.6568576600" lon="20.1586414129">
        <ele>2095.81</ele>
        <time>2019-07-11T08:03:18Z</time>
      </trkpt>
      <trkpt lat="42.6570190955" lon="20.1587434206">
        <ele>2091.97</ele>
        <time>2019-07-11T08:03:34Z</time>
      </trkpt>
      <trkpt lat="42.6571597438" lon="20.1588591747">
        <ele>2089.08</ele>
        <time>2019-07-11T08:03:46Z</time>
      </trkpt>
      <trkpt lat="42.6573242806" lon="20.1589610148">
        <ele>2085.72</ele>
        <time>2019-07-11T08:04:00Z</time>
      </trkpt>
      <trkpt lat="42.6574111171" lon="20.1589729171">
        <ele>2083.31</ele>
        <time>2019-07-11T08:04:08Z</time>
      </trkpt>
      <trkpt lat="42.6574266236" lon="20.1589652058">
        <ele>2082.35</ele>
        <time>2019-07-11T08:04:10Z</time>
      </trkpt>
      <trkpt lat="42.6574519370" lon="20.1589753479">
        <ele>2081.87</ele>
        <time>2019-07-11T08:04:13Z</time>
      </trkpt>
      <trkpt lat="42.6575237699" lon="20.1589802932">
        <ele>2078.51</ele>
        <time>2019-07-11T08:04:21Z</time>
      </trkpt>
      <trkpt lat="42.6575758215" lon="20.1589631103">
        <ele>2076.59</ele>
        <time>2019-07-11T08:04:26Z</time>
      </trkpt>
      <trkpt lat="42.6576774102" lon="20.1589331869">
        <ele>2073.70</ele>
        <time>2019-07-11T08:04:36Z</time>
      </trkpt>
      <trkpt lat="42.6577758975" lon="20.1589147467">
        <ele>2070.82</ele>
        <time>2019-07-11T08:04:45Z</time>
      </trkpt>
      <trkpt lat="42.6579130255" lon="20.1588671375">
        <ele>2067.45</ele>
        <time>2019-07-11T08:04:58Z</time>
      </trkpt>
      <trkpt lat="42.6579245925" lon="20.1588658802">
        <ele>2066.49</ele>
        <time>2019-07-11T08:04:59Z</time>
      </trkpt>
      <trkpt lat="42.6580484770" lon="20.1588425785">
        <ele>2063.61</ele>
        <time>2019-07-11T08:05:10Z</time>
      </trkpt>
      <trkpt lat="42.6582136843" lon="20.1588302571">
        <ele>2060.72</ele>
        <time>2019-07-11T08:05:23Z</time>
      </trkpt>
      <trkpt lat="42.6583027840" lon="20.1588189416">
        <ele>2058.80</ele>
        <time>2019-07-11T08:05:30Z</time>
      </trkpt>
      <trkpt lat="42.6584903710" lon="20.1587358769">
        <ele>2055.92</ele>
        <time>2019-07-11T08:05:45Z</time>
      </trkpt>
      <trkpt lat="42.6586344559" lon="20.1586645469">
        <ele>2054.96</ele>
        <time>2019-07-11T08:05:56Z</time>
      </trkpt>
      <trkpt lat="42.6588419918" lon="20.1586088073">
        <ele>2054.96</ele>
        <time>2019-07-11T08:06:11Z</time>
      </trkpt>
      <trkpt lat="42.6590205263" lon="20.1585681550">
        <ele>2053.03</ele>
        <time>2019-07-11T08:06:27Z</time>
      </trkpt>
      <trkpt lat="42.6590476837" lon="20.1585533191">
        <ele>2053.51</ele>
        <time>2019-07-11T08:06:42Z</time>
      </trkpt>
      <trkpt lat="42.6590348594" lon="20.1585129183">
        <ele>2053.51</ele>
        <time>2019-07-11T08:06:57Z</time>
      </trkpt>
      <trkpt lat="42.6590523776" lon="20.1584904548">
        <ele>2053.51</ele>
        <time>2019-07-11T08:07:09Z</time>
      </trkpt>
      <trkpt lat="42.6590724941" lon="20.1584763732">
        <ele>2053.03</ele>
        <time>2019-07-11T08:07:16Z</time>
      </trkpt>
      <trkpt lat="42.6591417287" lon="20.1585322805">
        <ele>2052.07</ele>
        <time>2019-07-11T08:07:28Z</time>
      </trkpt>
      <trkpt lat="42.6591508649" lon="20.1585466973">
        <ele>2052.07</ele>
        <time>2019-07-11T08:07:53Z</time>
      </trkpt>
      <trkpt lat="42.6591629349" lon="20.1585156843">
        <ele>2051.59</ele>
        <time>2019-07-11T08:08:08Z</time>
      </trkpt>
      <trkpt lat="42.6591972169" lon="20.1584841684">
        <ele>2051.59</ele>
        <time>2019-07-11T08:08:12Z</time>
      </trkpt>
      <trkpt lat="42.6592562255" lon="20.1584933046">
        <ele>2053.03</ele>
        <time>2019-07-11T08:08:19Z</time>
      </trkpt>
      <trkpt lat="42.6593452413" lon="20.1584676560">
        <ele>2053.03</ele>
        <time>2019-07-11T08:08:27Z</time>
      </trkpt>
      <trkpt lat="42.6595122088" lon="20.1585617848">
        <ele>2053.51</ele>
        <time>2019-07-11T08:08:43Z</time>
      </trkpt>
      <trkpt lat="42.6597131230" lon="20.1585955638">
        <ele>2053.99</ele>
        <time>2019-07-11T08:08:59Z</time>
      </trkpt>
      <trkpt lat="42.6598515920" lon="20.1586109027">
        <ele>2054.96</ele>
        <time>2019-07-11T08:09:12Z</time>
      </trkpt>
      <trkpt lat="42.6599818468" lon="20.1586376410">
        <ele>2056.88</ele>
        <time>2019-07-11T08:09:25Z</time>
      </trkpt>
      <trkpt lat="42.6600750536" lon="20.1586589310">
        <ele>2058.32</ele>
        <time>2019-07-11T08:09:35Z</time>
      </trkpt>
      <trkpt lat="42.6601269376" lon="20.1586618647">
        <ele>2059.28</ele>
        <time>2019-07-11T08:09:41Z</time>
      </trkpt>
      <trkpt lat="42.6602474693" lon="20.1586992480">
        <ele>2061.68</ele>
        <time>2019-07-11T08:09:55Z</time>
      </trkpt>
      <trkpt lat="42.6603328809" lon="20.1587501261">
        <ele>2063.61</ele>
        <time>2019-07-11T08:10:06Z</time>
      </trkpt>
      <trkpt lat="42.6604319550" lon="20.1588001661">
        <ele>2066.01</ele>
        <time>2019-07-11T08:10:19Z</time>
      </trkpt>
      <trkpt lat="42.6605363935" lon="20.1588476077">
        <ele>2067.93</ele>
        <time>2019-07-11T08:10:32Z</time>
      </trkpt>
      <trkpt lat="42.6606438495" lon="20.1588867512">
        <ele>2069.86</ele>
        <time>2019-07-11T08:10:43Z</time>
      </trkpt>
      <trkpt lat="42.6607545745" lon="20.1588999946">
        <ele>2071.78</ele>
        <time>2019-07-11T08:10:55Z</time>
      </trkpt>
      <trkpt lat="42.6608259883" lon="20.1589056943">
        <ele>2072.26</ele>
        <time>2019-07-11T08:11:02Z</time>
      </trkpt>
      <trkpt lat="42.6609749347" lon="20.1589320134">
        <ele>2073.70</ele>
        <time>2019-07-11T08:11:16Z</time>
      </trkpt>
      <trkpt lat="42.6611160859" lon="20.1589379646">
        <ele>2072.26</ele>
        <time>2019-07-11T08:11:28Z</time>
      </trkpt>
      <trkpt lat="42.6612821314" lon="20.1588831469">
        <ele>2069.38</ele>
        <time>2019-07-11T08:11:42Z</time>
      </trkpt>
      <trkpt lat="42.6614391245" lon="20.1588101406">
        <ele>2066.97</ele>
        <time>2019-07-11T08:11:56Z</time>
      </trkpt>
      <trkpt lat="42.6616019011" lon="20.1587358769">
        <ele>2063.61</ele>
        <time>2019-07-11T08:12:08Z</time>
      </trkpt>
      <trkpt lat="42.6617766637" lon="20.1586584281">
        <ele>2060.24</ele>
        <time>2019-07-11T08:12:20Z</time>
      </trkpt>
      <trkpt lat="42.6619742252" lon="20.1585036982">
        <ele>2057.84</ele>
        <time>2019-07-11T08:12:37Z</time>
      </trkpt>
      <trkpt lat="42.6621642429" lon="20.1583307795">
        <ele>2057.36</ele>
        <time>2019-07-11T08:12:54Z</time>
      </trkpt>
      <trkpt lat="42.6622349024" lon="20.1582267601">
        <ele>2057.36</ele>
        <time>2019-07-11T08:13:03Z</time>
      </trkpt>
      <trkpt lat="42.6623696834" lon="20.1580214035">
        <ele>2057.36</ele>
        <time>2019-07-11T08:13:20Z</time>
      </trkpt>
      <trkpt lat="42.6625484694" lon="20.1577971876">
        <ele>2057.36</ele>
        <time>2019-07-11T08:13:39Z</time>
      </trkpt>
      <trkpt lat="42.6626816578" lon="20.1575683616">
        <ele>2055.92</ele>
        <time>2019-07-11T08:13:55Z</time>
      </trkpt>
      <trkpt lat="42.6626911294" lon="20.1575344987">
        <ele>2055.44</ele>
        <time>2019-07-11T08:13:57Z</time>
      </trkpt>
      <trkpt lat="42.6627394091" lon="20.1572660264">
        <ele>2052.07</ele>
        <time>2019-07-11T08:14:13Z</time>
      </trkpt>
      <trkpt lat="42.6627083123" lon="20.1570641901">
        <ele>2048.71</ele>
        <time>2019-07-11T08:14:25Z</time>
      </trkpt>
      <trkpt lat="42.6627047081" lon="20.1570296567">
        <ele>2047.75</ele>
        <time>2019-07-11T08:14:27Z</time>
      </trkpt>
      <trkpt lat="42.6626789756" lon="20.1568368729">
        <ele>2044.38</ele>
        <time>2019-07-11T08:14:39Z</time>
      </trkpt>
      <trkpt lat="42.6627246570" lon="20.1566662174">
        <ele>2041.50</ele>
        <time>2019-07-11T08:14:50Z</time>
      </trkpt>
      <trkpt lat="42.6627409179" lon="20.1564559992">
        <ele>2038.13</ele>
        <time>2019-07-11T08:15:02Z</time>
      </trkpt>
      <trkpt lat="42.6627641357" lon="20.1561830007">
        <ele>2036.21</ele>
        <time>2019-07-11T08:15:17Z</time>
      </trkpt>
      <trkpt lat="42.6628425904" lon="20.1559092477">
        <ele>2034.77</ele>
        <time>2019-07-11T08:15:34Z</time>
      </trkpt>
      <trkpt lat="42.6628757827" lon="20.1557580382">
        <ele>2032.84</ele>
        <time>2019-07-11T08:15:43Z</time>
      </trkpt>
      <trkpt lat="42.6628660597" lon="20.1555147953">
        <ele>2029.48</ele>
        <time>2019-07-11T08:15:56Z</time>
      </trkpt>
      <trkpt lat="42.6628602762" lon="20.1554965228">
        <ele>2029.48</ele>
        <time>2019-07-11T08:15:57Z</time>
      </trkpt>
      <trkpt lat="42.6628711727" lon="20.1553899888">
        <ele>2028.52</ele>
        <time>2019-07-11T08:16:03Z</time>
      </trkpt>
      <trkpt lat="42.6628677361" lon="20.1551610790">
        <ele>2026.12</ele>
        <time>2019-07-11T08:16:17Z</time>
      </trkpt>
      <trkpt lat="42.6628922112" lon="20.1550491806">
        <ele>2025.15</ele>
        <time>2019-07-11T08:16:24Z</time>
      </trkpt>
      <trkpt lat="42.6629792992" lon="20.1549843047">
        <ele>2022.27</ele>
        <time>2019-07-11T08:16:34Z</time>
      </trkpt>
      <trkpt lat="42.6630310155" lon="20.1549539622">
        <ele>2019.87</ele>
        <time>2019-07-11T08:16:41Z</time>
      </trkpt>
      <trkpt lat="42.6630488690" lon="20.1549561415">
        <ele>2019.39</ele>
        <time>2019-07-11T08:16:43Z</time>
      </trkpt>
      <trkpt lat="42.6630973164" lon="20.1548346039">
        <ele>2016.02</ele>
        <time>2019-07-11T08:16:52Z</time>
      </trkpt>
      <trkpt lat="42.6631194446" lon="20.1548019983">
        <ele>2015.06</ele>
        <time>2019-07-11T08:16:55Z</time>
      </trkpt>
      <trkpt lat="42.6632539742" lon="20.1546844840">
        <ele>2012.18</ele>
        <time>2019-07-11T08:17:08Z</time>
      </trkpt>
      <trkpt lat="42.6633625198" lon="20.1546565723">
        <ele>2009.29</ele>
        <time>2019-07-11T08:17:19Z</time>
      </trkpt>
      <trkpt lat="42.6634489372" lon="20.1547062770">
        <ele>2005.93</ele>
        <time>2019-07-11T08:17:31Z</time>
      </trkpt>
      <trkpt lat="42.6634856500" lon="20.1547736675">
        <ele>2003.04</ele>
        <time>2019-07-11T08:17:43Z</time>
      </trkpt>
      <trkpt lat="42.6635331754" lon="20.1548634376">
        <ele>2000.16</ele>
        <time>2019-07-11T08:17:56Z</time>
      </trkpt>
      <trkpt lat="42.6635972131" lon="20.1549106278">
        <ele>1997.76</ele>
        <time>2019-07-11T08:18:07Z</time>
      </trkpt>
      <trkpt lat="42.6636463311" lon="20.1549814548">
        <ele>1995.35</ele>
        <time>2019-07-11T08:18:21Z</time>
      </trkpt>
      <trkpt lat="42.6636981312" lon="20.1550246216">
        <ele>1991.99</ele>
        <time>2019-07-11T08:18:33Z</time>
      </trkpt>
      <trkpt lat="42.6637387834" lon="20.1550731529">
        <ele>1990.07</ele>
        <time>2019-07-11T08:18:44Z</time>
      </trkpt>
      <trkpt lat="42.6638008095" lon="20.1551475842">
        <ele>1986.70</ele>
        <time>2019-07-11T08:18:57Z</time>
      </trkpt>
      <trkpt lat="42.6638972014" lon="20.1551956963">
        <ele>1983.34</ele>
        <time>2019-07-11T08:19:09Z</time>
      </trkpt>
      <trkpt lat="42.6639848761" lon="20.1551571395">
        <ele>1980.45</ele>
        <time>2019-07-11T08:19:21Z</time>
      </trkpt>
      <trkpt lat="42.6640417892" lon="20.1552110352">
        <ele>1977.57</ele>
        <time>2019-07-11T08:19:34Z</time>
      </trkpt>
      <trkpt lat="42.6640956011" lon="20.1552895736">
        <ele>1974.69</ele>
        <time>2019-07-11T08:19:49Z</time>
      </trkpt>
      <trkpt lat="42.6641734689" lon="20.1553399488">
        <ele>1971.32</ele>
        <time>2019-07-11T08:20:00Z</time>
      </trkpt>
      <trkpt lat="42.6642368361" lon="20.1553731412">
        <ele>1968.44</ele>
        <time>2019-07-11T08:20:12Z</time>
      </trkpt>
      <trkpt lat="42.6642639935" lon="20.1553848758">
        <ele>1966.99</ele>
        <time>2019-07-11T08:20:18Z</time>
      </trkpt>
      <trkpt lat="42.6643053163" lon="20.1553999633">
        <ele>1965.55</ele>
        <time>2019-07-11T08:20:24Z</time>
      </trkpt>
      <trkpt lat="42.6644205675" lon="20.1554605644">
        <ele>1962.67</ele>
        <time>2019-07-11T08:20:38Z</time>
      </trkpt>
      <trkpt lat="42.6644294523" lon="20.1554676052">
        <ele>1962.19</ele>
        <time>2019-07-11T08:20:40Z</time>
      </trkpt>
      <trkpt lat="42.6644662488" lon="20.1555293798">
        <ele>1959.78</ele>
        <time>2019-07-11T08:20:51Z</time>
      </trkpt>
      <trkpt lat="42.6644966751" lon="20.1555140410">
        <ele>1957.38</ele>
        <time>2019-07-11T08:21:01Z</time>
      </trkpt>
      <trkpt lat="42.6645455416" lon="20.1554454770">
        <ele>1954.50</ele>
        <time>2019-07-11T08:21:11Z</time>
      </trkpt>
      <trkpt lat="42.6645516604" lon="20.1554521825">
        <ele>1954.50</ele>
        <time>2019-07-11T08:21:12Z</time>
      </trkpt>
      <trkpt lat="42.6645952463" lon="20.1555126999">
        <ele>1952.57</ele>
        <time>2019-07-11T08:21:19Z</time>
      </trkpt>
      <trkpt lat="42.6646798197" lon="20.1554844528">
        <ele>1949.21</ele>
        <time>2019-07-11T08:21:31Z</time>
      </trkpt>
      <trkpt lat="42.6646936499" lon="20.1554720476">
        <ele>1947.77</ele>
        <time>2019-07-11T08:21:34Z</time>
      </trkpt>
      <trkpt lat="42.6647094078" lon="20.1554742269">
        <ele>1947.77</ele>
        <time>2019-07-11T08:21:35Z</time>
      </trkpt>
      <trkpt lat="42.6648006868" lon="20.1555215847">
        <ele>1944.40</ele>
        <time>2019-07-11T08:21:48Z</time>
      </trkpt>
      <trkpt lat="42.6648085658" lon="20.1555248536">
        <ele>1943.92</ele>
        <time>2019-07-11T08:21:49Z</time>
      </trkpt>
      <trkpt lat="42.6648613717" lon="20.1555719599">
        <ele>1942.48</ele>
        <time>2019-07-11T08:21:55Z</time>
      </trkpt>
      <trkpt lat="42.6649857592" lon="20.1556043141">
        <ele>1939.60</ele>
        <time>2019-07-11T08:22:07Z</time>
      </trkpt>
      <trkpt lat="42.6650057081" lon="20.1555263624">
        <ele>1937.19</ele>
        <time>2019-07-11T08:22:17Z</time>
      </trkpt>
      <trkpt lat="42.6650522277" lon="20.1555023063">
        <ele>1933.83</ele>
        <time>2019-07-11T08:22:28Z</time>
      </trkpt>
      <trkpt lat="42.6650728472" lon="20.1554879732">
        <ele>1931.43</ele>
        <time>2019-07-11T08:22:36Z</time>
      </trkpt>
      <trkpt lat="42.6650825702" lon="20.1554830279">
        <ele>1930.46</ele>
        <time>2019-07-11T08:22:38Z</time>
      </trkpt>
      <trkpt lat="42.6651388966" lon="20.1554588042">
        <ele>1927.10</ele>
        <time>2019-07-11T08:22:48Z</time>
      </trkpt>
      <trkpt lat="42.6652015932" lon="20.1554416213">
        <ele>1924.22</ele>
        <time>2019-07-11T08:22:58Z</time>
      </trkpt>
      <trkpt lat="42.6652440056" lon="20.1554246899">
        <ele>1921.33</ele>
        <time>2019-07-11T08:23:09Z</time>
      </trkpt>
      <trkpt lat="42.6652453467" lon="20.1554282103">
        <ele>1921.33</ele>
        <time>2019-07-11T08:23:10Z</time>
      </trkpt>
      <trkpt lat="42.6653082110" lon="20.1554114465">
        <ele>1917.97</ele>
        <time>2019-07-11T08:23:22Z</time>
      </trkpt>
      <trkpt lat="42.6653166767" lon="20.1553987898">
        <ele>1917.01</ele>
        <time>2019-07-11T08:23:25Z</time>
      </trkpt>
      <trkpt lat="42.6653963048" lon="20.1554505900">
        <ele>1914.12</ele>
        <time>2019-07-11T08:23:37Z</time>
      </trkpt>
      <trkpt lat="42.6654323470" lon="20.1554535236">
        <ele>1911.72</ele>
        <time>2019-07-11T08:23:48Z</time>
      </trkpt>
      <trkpt lat="42.6654580794" lon="20.1554366760">
        <ele>1910.28</ele>
        <time>2019-07-11T08:23:52Z</time>
      </trkpt>
      <trkpt lat="42.6654812973" lon="20.1554389391">
        <ele>1909.32</ele>
        <time>2019-07-11T08:23:54Z</time>
      </trkpt>
      <trkpt lat="42.6655612607" lon="20.1554288808">
        <ele>1905.95</ele>
        <time>2019-07-11T08:24:02Z</time>
      </trkpt>
      <trkpt lat="42.6656143181" lon="20.1554429624">
        <ele>1903.55</ele>
        <time>2019-07-11T08:24:13Z</time>
      </trkpt>
      <trkpt lat="42.6656415593" lon="20.1554540265">
        <ele>1903.07</ele>
        <time>2019-07-11T08:24:16Z</time>
      </trkpt>
      <trkpt lat="42.6657065190" lon="20.1554696169">
        <ele>1899.70</ele>
        <time>2019-07-11T08:24:25Z</time>
      </trkpt>
      <trkpt lat="42.6657587383" lon="20.1554153021">
        <ele>1896.82</ele>
        <time>2019-07-11T08:24:35Z</time>
      </trkpt>
      <trkpt lat="42.6658100355" lon="20.1554409508">
        <ele>1894.90</ele>
        <time>2019-07-11T08:24:45Z</time>
      </trkpt>
      <trkpt lat="42.6658650208" lon="20.1554515120">
        <ele>1891.53</ele>
        <time>2019-07-11T08:24:56Z</time>
      </trkpt>
      <trkpt lat="42.6658886578" lon="20.1554591395">
        <ele>1890.57</ele>
        <time>2019-07-11T08:25:01Z</time>
      </trkpt>
      <trkpt lat="42.6659846306" lon="20.1554759033">
        <ele>1887.21</ele>
        <time>2019-07-11T08:25:13Z</time>
      </trkpt>
      <trkpt lat="42.6660552062" lon="20.1554972772">
        <ele>1884.80</ele>
        <time>2019-07-11T08:25:25Z</time>
      </trkpt>
      <trkpt lat="42.6660655160" lon="20.1555109397">
        <ele>1884.32</ele>
        <time>2019-07-11T08:25:42Z</time>
      </trkpt>
      <trkpt lat="42.6660556253" lon="20.1555169746">
        <ele>1884.32</ele>
        <time>2019-07-11T08:26:03Z</time>
      </trkpt>
      <trkpt lat="42.6660171524" lon="20.1555103529">
        <ele>1884.32</ele>
        <time>2019-07-11T08:26:27Z</time>
      </trkpt>
      <trkpt lat="42.6659959462" lon="20.1555136219">
        <ele>1883.84</ele>
        <time>2019-07-11T08:26:49Z</time>
      </trkpt>
      <trkpt lat="42.6659445651" lon="20.1555221714">
        <ele>1883.84</ele>
        <time>2019-07-11T08:27:10Z</time>
      </trkpt>
      <trkpt lat="42.6659376081" lon="20.1555035636">
        <ele>1883.84</ele>
        <time>2019-07-11T08:27:34Z</time>
      </trkpt>
      <trkpt lat="42.6659740694" lon="20.1555092633">
        <ele>1883.84</ele>
        <time>2019-07-11T08:27:57Z</time>
      </trkpt>
      <trkpt lat="42.6660068426" lon="20.1555494964">
        <ele>1883.84</ele>
        <time>2019-07-11T08:28:17Z</time>
      </trkpt>
      <trkpt lat="42.6659853011" lon="20.1556154620">
        <ele>1881.92</ele>
        <time>2019-07-11T08:28:28Z</time>
      </trkpt>
      <trkpt lat="42.6660263725" lon="20.1556665916">
        <ele>1879.51</ele>
        <time>2019-07-11T08:28:39Z</time>
      </trkpt>
      <trkpt lat="42.6660756581" lon="20.1557227504">
        <ele>1877.11</ele>
        <time>2019-07-11T08:28:50Z</time>
      </trkpt>
      <trkpt lat="42.6661227643" lon="20.1556927431">
        <ele>1875.19</ele>
        <time>2019-07-11T08:29:01Z</time>
      </trkpt>
      <trkpt lat="42.6662096009" lon="20.1557013765">
        <ele>1872.30</ele>
        <time>2019-07-11T08:29:13Z</time>
      </trkpt>
      <trkpt lat="42.6663156319" lon="20.1556919049">
        <ele>1868.94</ele>
        <time>2019-07-11T08:29:29Z</time>
      </trkpt>
      <trkpt lat="42.6663405262" lon="20.1556937490">
        <ele>1867.50</ele>
        <time>2019-07-11T08:29:34Z</time>
      </trkpt>
      <trkpt lat="42.6663740538" lon="20.1556994487">
        <ele>1866.54</ele>
        <time>2019-07-11T08:29:39Z</time>
      </trkpt>
      <trkpt lat="42.6663966011" lon="20.1557043102">
        <ele>1866.06</ele>
        <time>2019-07-11T08:29:41Z</time>
      </trkpt>
      <trkpt lat="42.6664670091" lon="20.1557012089">
        <ele>1864.61</ele>
        <time>2019-07-11T08:29:49Z</time>
      </trkpt>
      <trkpt lat="42.6665922347" lon="20.1556913182">
        <ele>1861.25</ele>
        <time>2019-07-11T08:30:03Z</time>
      </trkpt>
      <trkpt lat="42.6666815020" lon="20.1556624006">
        <ele>1858.37</ele>
        <time>2019-07-11T08:30:16Z</time>
      </trkpt>
      <trkpt lat="42.6667830069" lon="20.1556947548">
        <ele>1855.00</ele>
        <time>2019-07-11T08:30:28Z</time>
      </trkpt>
      <trkpt lat="42.6667930651" lon="20.1556985267">
        <ele>1855.00</ele>
        <time>2019-07-11T08:30:29Z</time>
      </trkpt>
      <trkpt lat="42.6668710168" lon="20.1557702757">
        <ele>1852.12</ele>
        <time>2019-07-11T08:30:41Z</time>
      </trkpt>
      <trkpt lat="42.6669195481" lon="20.1557128597">
        <ele>1850.68</ele>
        <time>2019-07-11T08:30:49Z</time>
      </trkpt>
      <trkpt lat="42.6669549197" lon="20.1557247620">
        <ele>1849.23</ele>
        <time>2019-07-11T08:30:54Z</time>
      </trkpt>
      <trkpt lat="42.6670526527" lon="20.1557589602">
        <ele>1847.31</ele>
        <time>2019-07-11T08:31:05Z</time>
      </trkpt>
      <trkpt lat="42.6671658084" lon="20.1557561941">
        <ele>1843.47</ele>
        <time>2019-07-11T08:31:18Z</time>
      </trkpt>
      <trkpt lat="42.6671992522" lon="20.1558722835">
        <ele>1841.54</ele>
        <time>2019-07-11T08:31:32Z</time>
      </trkpt>
      <trkpt lat="42.6672419161" lon="20.1559207309">
        <ele>1839.62</ele>
        <time>2019-07-11T08:31:43Z</time>
      </trkpt>
      <trkpt lat="42.6673427504" lon="20.1560392510">
        <ele>1838.66</ele>
        <time>2019-07-11T08:31:58Z</time>
      </trkpt>
      <trkpt lat="42.6673542336" lon="20.1560641453">
        <ele>1838.66</ele>
        <time>2019-07-11T08:32:01Z</time>
      </trkpt>
      <trkpt lat="42.6674408186" lon="20.1560975052">
        <ele>1835.77</ele>
        <time>2019-07-11T08:32:12Z</time>
      </trkpt>
      <trkpt lat="42.6675386354" lon="20.1561568491">
        <ele>1832.89</ele>
        <time>2019-07-11T08:32:23Z</time>
      </trkpt>
      <trkpt lat="42.6675517112" lon="20.1561665721">
        <ele>1832.89</ele>
        <time>2019-07-11T08:32:25Z</time>
      </trkpt>
      <trkpt lat="42.6675725821" lon="20.1561786421">
        <ele>1831.93</ele>
        <time>2019-07-11T08:32:27Z</time>
      </trkpt>
      <trkpt lat="42.6676655374" lon="20.1562534925">
        <ele>1830.01</ele>
        <time>2019-07-11T08:32:39Z</time>
      </trkpt>
      <trkpt lat="42.6677365322" lon="20.1563082263">
        <ele>1826.64</ele>
        <time>2019-07-11T08:32:50Z</time>
      </trkpt>
      <trkpt lat="42.6677861530" lon="20.1563073043">
        <ele>1824.72</ele>
        <time>2019-07-11T08:32:58Z</time>
      </trkpt>
      <trkpt lat="42.6678942796" lon="20.1562748663">
        <ele>1820.87</ele>
        <time>2019-07-11T08:33:10Z</time>
      </trkpt>
      <trkpt lat="42.6679665316" lon="20.1562295202">
        <ele>1817.51</ele>
        <time>2019-07-11T08:33:23Z</time>
      </trkpt>
      <trkpt lat="42.6680072676" lon="20.1561794803">
        <ele>1815.11</ele>
        <time>2019-07-11T08:33:34Z</time>
      </trkpt>
      <trkpt lat="42.6680383645" lon="20.1561696734">
        <ele>1812.22</ele>
        <time>2019-07-11T08:33:45Z</time>
      </trkpt>
      <trkpt lat="42.6681039110" lon="20.1561863534">
        <ele>1808.86</ele>
        <time>2019-07-11T08:33:55Z</time>
      </trkpt>
      <trkpt lat="42.6681770850" lon="20.1561617106">
        <ele>1805.97</ele>
        <time>2019-07-11T08:34:06Z</time>
      </trkpt>
      <trkpt lat="42.6682385243" lon="20.1561721880">
        <ele>1803.09</ele>
        <time>2019-07-11T08:34:16Z</time>
      </trkpt>
      <trkpt lat="42.6682639215" lon="20.1561862696">
        <ele>1802.61</ele>
        <time>2019-07-11T08:34:19Z</time>
      </trkpt>
      <trkpt lat="42.6683322340" lon="20.1561371516">
        <ele>1799.73</ele>
        <time>2019-07-11T08:34:31Z</time>
      </trkpt>
      <trkpt lat="42.6683120336" lon="20.1560914703">
        <ele>1797.80</ele>
        <time>2019-07-11T08:34:36Z</time>
      </trkpt>
      <trkpt lat="42.6682946831" lon="20.1560742036">
        <ele>1797.80</ele>
        <time>2019-07-11T08:34:38Z</time>
      </trkpt>
      <trkpt lat="42.6682888996" lon="20.1560544223">
        <ele>1797.32</ele>
        <time>2019-07-11T08:34:40Z</time>
      </trkpt>
      <trkpt lat="42.6682719681" lon="20.1560096629">
        <ele>1794.92</ele>
        <time>2019-07-11T08:34:49Z</time>
      </trkpt>
      <trkpt lat="42.6684091799" lon="20.1560306177">
        <ele>1792.03</ele>
        <time>2019-07-11T08:35:02Z</time>
      </trkpt>
      <trkpt lat="42.6684444677" lon="20.1559790689">
        <ele>1788.67</ele>
        <time>2019-07-11T08:35:12Z</time>
      </trkpt>
      <trkpt lat="42.6685339026" lon="20.1559174620">
        <ele>1785.31</ele>
        <time>2019-07-11T08:35:24Z</time>
      </trkpt>
      <trkpt lat="42.6685651671" lon="20.1558930706">
        <ele>1783.86</ele>
        <time>2019-07-11T08:35:28Z</time>
      </trkpt>
      <trkpt lat="42.6686654147" lon="20.1558386721">
        <ele>1780.50</ele>
        <time>2019-07-11T08:35:39Z</time>
      </trkpt>
      <trkpt lat="42.6686738804" lon="20.1558388397">
        <ele>1780.02</ele>
        <time>2019-07-11T08:35:40Z</time>
      </trkpt>
      <trkpt lat="42.6687645726" lon="20.1557834353">
        <ele>1776.65</ele>
        <time>2019-07-11T08:35:49Z</time>
      </trkpt>
      <trkpt lat="42.6689047180" lon="20.1557569485">
        <ele>1773.77</ele>
        <time>2019-07-11T08:36:00Z</time>
      </trkpt>
      <trkpt lat="42.6689549256" lon="20.1557409391">
        <ele>1772.33</ele>
        <time>2019-07-11T08:36:10Z</time>
      </trkpt>
      <trkpt lat="42.6689587813" lon="20.1557375025">
        <ele>1771.37</ele>
        <time>2019-07-11T08:36:11Z</time>
      </trkpt>
      <trkpt lat="42.6690062229" lon="20.1557468902">
        <ele>1770.41</ele>
        <time>2019-07-11T08:36:15Z</time>
      </trkpt>
      <trkpt lat="42.6690530777" lon="20.1557509974">
        <ele>1768.96</ele>
        <time>2019-07-11T08:36:21Z</time>
      </trkpt>
      <trkpt lat="42.6691923849" lon="20.1557538472">
        <ele>1767.04</ele>
        <time>2019-07-11T08:36:35Z</time>
      </trkpt>
      <trkpt lat="42.6692477055" lon="20.1557735447">
        <ele>1764.64</ele>
        <time>2019-07-11T08:36:45Z</time>
      </trkpt>
      <trkpt lat="42.6693199575" lon="20.1557797473">
        <ele>1761.75</ele>
        <time>2019-07-11T08:36:58Z</time>
      </trkpt>
      <trkpt lat="42.6693808939" lon="20.1558258478">
        <ele>1758.87</ele>
        <time>2019-07-11T08:37:10Z</time>
      </trkpt>
      <trkpt lat="42.6694541518" lon="20.1558494847">
        <ele>1755.50</ele>
        <time>2019-07-11T08:37:21Z</time>
      </trkpt>
      <trkpt lat="42.6695048623" lon="20.1558322180">
        <ele>1753.10</ele>
        <time>2019-07-11T08:37:30Z</time>
      </trkpt>
      <trkpt lat="42.6695583388" lon="20.1558144484">
        <ele>1751.18</ele>
        <time>2019-07-11T08:37:40Z</time>
      </trkpt>
      <trkpt lat="42.6696072891" lon="20.1557810046">
        <ele>1748.29</ele>
        <time>2019-07-11T08:37:51Z</time>
      </trkpt>
      <trkpt lat="42.6696421579" lon="20.1557571162">
        <ele>1746.85</ele>
        <time>2019-07-11T08:38:01Z</time>
      </trkpt>
      <trkpt lat="42.6697129011" lon="20.1557494048">
        <ele>1744.45</ele>
        <time>2019-07-11T08:38:12Z</time>
      </trkpt>
      <trkpt lat="42.6697615162" lon="20.1557084173">
        <ele>1742.05</ele>
        <time>2019-07-11T08:38:27Z</time>
      </trkpt>
      <trkpt lat="42.6697996538" lon="20.1556723751">
        <ele>1740.12</ele>
        <time>2019-07-11T08:38:38Z</time>
      </trkpt>
      <trkpt lat="42.6698216144" lon="20.1556446310">
        <ele>1739.64</ele>
        <time>2019-07-11T08:38:49Z</time>
      </trkpt>
      <trkpt lat="42.6698658708" lon="20.1556293759">
        <ele>1736.76</ele>
        <time>2019-07-11T08:39:03Z</time>
      </trkpt>
      <trkpt lat="42.6699168328" lon="20.1556226704">
        <ele>1734.36</ele>
        <time>2019-07-11T08:39:15Z</time>
      </trkpt>
      <trkpt lat="42.6699443255" lon="20.1556264423">
        <ele>1733.39</ele>
        <time>2019-07-11T08:39:20Z</time>
      </trkpt>
      <trkpt lat="42.6700102072" lon="20.1556549408">
        <ele>1730.03</ele>
        <time>2019-07-11T08:39:33Z</time>
      </trkpt>
      <trkpt lat="42.6700614206" lon="20.1556583773">
        <ele>1727.15</ele>
        <time>2019-07-11T08:39:44Z</time>
      </trkpt>
      <trkpt lat="42.6700943615" lon="20.1556496602">
        <ele>1726.18</ele>
        <time>2019-07-11T08:39:49Z</time>
      </trkpt>
      <trkpt lat="42.6701965369" lon="20.1556952577">
        <ele>1723.30</ele>
        <time>2019-07-11T08:40:01Z</time>
      </trkpt>
      <trkpt lat="42.6702884864" lon="20.1557036396">
        <ele>1720.42</ele>
        <time>2019-07-11T08:40:14Z</time>
      </trkpt>
      <trkpt lat="42.6703296416" lon="20.1556836069">
        <ele>1719.46</ele>
        <time>2019-07-11T08:40:19Z</time>
      </trkpt>
      <trkpt lat="42.6704172324" lon="20.1556459721">
        <ele>1717.05</ele>
        <time>2019-07-11T08:40:31Z</time>
      </trkpt>
      <trkpt lat="42.6704290509" lon="20.1556535158">
        <ele>1716.57</ele>
        <time>2019-07-11T08:40:32Z</time>
      </trkpt>
      <trkpt lat="42.6705047395" lon="20.1556644123">
        <ele>1714.65</ele>
        <time>2019-07-11T08:40:43Z</time>
      </trkpt>
      <trkpt lat="42.6705191564" lon="20.1556829363">
        <ele>1713.69</ele>
        <time>2019-07-11T08:40:52Z</time>
      </trkpt>
      <trkpt lat="42.6705997065" lon="20.1557467226">
        <ele>1711.76</ele>
        <time>2019-07-11T08:41:06Z</time>
      </trkpt>
      <trkpt lat="42.6706180628" lon="20.1557435375">
        <ele>1710.32</ele>
        <time>2019-07-11T08:41:09Z</time>
      </trkpt>
      <trkpt lat="42.6707082521" lon="20.1557310484">
        <ele>1707.92</ele>
        <time>2019-07-11T08:41:20Z</time>
      </trkpt>
      <trkpt lat="42.6707375888" lon="20.1557877939">
        <ele>1706.00</ele>
        <time>2019-07-11T08:41:32Z</time>
      </trkpt>
      <trkpt lat="42.6707428694" lon="20.1557908114">
        <ele>1706.00</ele>
        <time>2019-07-11T08:41:33Z</time>
      </trkpt>
      <trkpt lat="42.6708538458" lon="20.1557896379">
        <ele>1703.59</ele>
        <time>2019-07-11T08:41:45Z</time>
      </trkpt>
      <trkpt lat="42.6709741261" lon="20.1557986066">
        <ele>1699.75</ele>
        <time>2019-07-11T08:41:58Z</time>
      </trkpt>
      <trkpt lat="42.6711046323" lon="20.1558136102">
        <ele>1696.86</ele>
        <time>2019-07-11T08:42:10Z</time>
      </trkpt>
      <trkpt lat="42.6711417641" lon="20.1558366604">
        <ele>1695.90</ele>
        <time>2019-07-11T08:42:14Z</time>
      </trkpt>
      <trkpt lat="42.6712761261" lon="20.1559415180">
        <ele>1692.06</ele>
        <time>2019-07-11T08:42:27Z</time>
      </trkpt>
      <trkpt lat="42.6713971607" lon="20.1560029574">
        <ele>1688.21</ele>
        <time>2019-07-11T08:42:39Z</time>
      </trkpt>
      <trkpt lat="42.6714026090" lon="20.1560037117">
        <ele>1688.21</ele>
        <time>2019-07-11T08:42:40Z</time>
      </trkpt>
      <trkpt lat="42.6714728493" lon="20.1560815796">
        <ele>1685.33</ele>
        <time>2019-07-11T08:42:48Z</time>
      </trkpt>
      <trkpt lat="42.6715750247" lon="20.1561781392">
        <ele>1682.44</ele>
        <time>2019-07-11T08:43:01Z</time>
      </trkpt>
      <trkpt lat="42.6715980750" lon="20.1561878622">
        <ele>1681.48</ele>
        <time>2019-07-11T08:43:03Z</time>
      </trkpt>
      <trkpt lat="42.6717039384" lon="20.1562699210">
        <ele>1678.60</ele>
        <time>2019-07-11T08:43:15Z</time>
      </trkpt>
      <trkpt lat="42.6717971452" lon="20.1564042829">
        <ele>1675.23</ele>
        <time>2019-07-11T08:43:26Z</time>
      </trkpt>
      <trkpt lat="42.6718286611" lon="20.1564423367">
        <ele>1674.75</ele>
        <time>2019-07-11T08:43:29Z</time>
      </trkpt>
      <trkpt lat="42.6719367877" lon="20.1565526426">
        <ele>1672.83</ele>
        <time>2019-07-11T08:43:41Z</time>
      </trkpt>
      <trkpt lat="42.6719583292" lon="20.1566393953">
        <ele>1669.47</ele>
        <time>2019-07-11T08:43:56Z</time>
      </trkpt>
      <trkpt lat="42.6719776075" lon="20.1566836517">
        <ele>1666.58</ele>
        <time>2019-07-11T08:44:08Z</time>
      </trkpt>
      <trkpt lat="42.6720006578" lon="20.1567336917">
        <ele>1664.66</ele>
        <time>2019-07-11T08:44:20Z</time>
      </trkpt>
      <trkpt lat="42.6720425673" lon="20.1567579154">
        <ele>1661.30</ele>
        <time>2019-07-11T08:44:29Z</time>
      </trkpt>
      <trkpt lat="42.6720615104" lon="20.1568266470">
        <ele>1658.41</ele>
        <time>2019-07-11T08:44:40Z</time>
      </trkpt>
      <trkpt lat="42.6720897574" lon="20.1568607613">
        <ele>1655.05</ele>
        <time>2019-07-11T08:44:50Z</time>
      </trkpt>
      <trkpt lat="42.6721092872" lon="20.1568589173">
        <ele>1654.09</ele>
        <time>2019-07-11T08:44:53Z</time>
      </trkpt>
      <trkpt lat="42.6722003985" lon="20.1569199376">
        <ele>1650.72</ele>
        <time>2019-07-11T08:45:05Z</time>
      </trkpt>
      <trkpt lat="42.6722798590" lon="20.1568708196">
        <ele>1647.84</ele>
        <time>2019-07-11T08:45:16Z</time>
      </trkpt>
      <trkpt lat="42.6723212656" lon="20.1568660419">
        <ele>1645.91</ele>
        <time>2019-07-11T08:45:22Z</time>
      </trkpt>
      <trkpt lat="42.6723512728" lon="20.1568911038">
        <ele>1644.95</ele>
        <time>2019-07-11T08:45:25Z</time>
      </trkpt>
      <trkpt lat="42.6724468265" lon="20.1569741685">
        <ele>1641.11</ele>
        <time>2019-07-11T08:45:38Z</time>
      </trkpt>
      <trkpt lat="42.6725064218" lon="20.1569626015">
        <ele>1639.19</ele>
        <time>2019-07-11T08:45:45Z</time>
      </trkpt>
      <trkpt lat="42.6726118661" lon="20.1569478493">
        <ele>1636.30</ele>
        <time>2019-07-11T08:45:55Z</time>
      </trkpt>
      <trkpt lat="42.6726624090" lon="20.1569715701">
        <ele>1634.86</ele>
        <time>2019-07-11T08:46:00Z</time>
      </trkpt>
      <trkpt lat="42.6727661770" lon="20.1569980569">
        <ele>1631.49</ele>
        <time>2019-07-11T08:46:09Z</time>
      </trkpt>
      <trkpt lat="42.6727759838" lon="20.1570003200">
        <ele>1631.49</ele>
        <time>2019-07-11T08:46:10Z</time>
      </trkpt>
      <trkpt lat="42.6728072483" lon="20.1570056845">
        <ele>1630.53</ele>
        <time>2019-07-11T08:46:14Z</time>
      </trkpt>
      <trkpt lat="42.6728253532" lon="20.1570081990">
        <ele>1630.53</ele>
        <time>2019-07-11T08:46:16Z</time>
      </trkpt>
      <trkpt lat="42.6729381736" lon="20.1570701413">
        <ele>1627.17</ele>
        <time>2019-07-11T08:46:29Z</time>
      </trkpt>
      <trkpt lat="42.6730029657" lon="20.1571013220">
        <ele>1626.21</ele>
        <time>2019-07-11T08:46:35Z</time>
      </trkpt>
      <trkpt lat="42.6730530895" lon="20.1571501885">
        <ele>1624.77</ele>
        <time>2019-07-11T08:46:41Z</time>
      </trkpt>
      <trkpt lat="42.6731432788" lon="20.1571134757">
        <ele>1621.88</ele>
        <time>2019-07-11T08:46:52Z</time>
      </trkpt>
      <trkpt lat="42.6731918100" lon="20.1571292337">
        <ele>1620.92</ele>
        <time>2019-07-11T08:46:57Z</time>
      </trkpt>
      <trkpt lat="42.6732520759" lon="20.1571899187">
        <ele>1618.04</ele>
        <time>2019-07-11T08:47:04Z</time>
      </trkpt>
      <trkpt lat="42.6733109169" lon="20.1572917588">
        <ele>1615.15</ele>
        <time>2019-07-11T08:47:17Z</time>
      </trkpt>
      <trkpt lat="42.6733563468" lon="20.1573209278">
        <ele>1611.79</ele>
        <time>2019-07-11T08:47:29Z</time>
      </trkpt>
      <trkpt lat="42.6733888686" lon="20.1573419664">
        <ele>1610.83</ele>
        <time>2019-07-11T08:47:32Z</time>
      </trkpt>
      <trkpt lat="42.6734736096" lon="20.1573535334">
        <ele>1607.46</ele>
        <time>2019-07-11T08:47:44Z</time>
      </trkpt>
      <trkpt lat="42.6734793931" lon="20.1573521923">
        <ele>1606.50</ele>
        <time>2019-07-11T08:47:45Z</time>
      </trkpt>
      <trkpt lat="42.6735544950" lon="20.1573403738">
        <ele>1603.14</ele>
        <time>2019-07-11T08:47:55Z</time>
      </trkpt>
      <trkpt lat="42.6735895313" lon="20.1573492587">
        <ele>1601.69</ele>
        <time>2019-07-11T08:48:00Z</time>
      </trkpt>
      <trkpt lat="42.6736293454" lon="20.1573562156">
        <ele>1600.25</ele>
        <time>2019-07-11T08:48:04Z</time>
      </trkpt>
      <trkpt lat="42.6736938022" lon="20.1573906653">
        <ele>1597.85</ele>
        <time>2019-07-11T08:48:12Z</time>
      </trkpt>
      <trkpt lat="42.6737294253" lon="20.1573977061">
        <ele>1595.93</ele>
        <time>2019-07-11T08:48:18Z</time>
      </trkpt>
      <trkpt lat="42.6737787947" lon="20.1574058365">
        <ele>1594.96</ele>
        <time>2019-07-11T08:48:22Z</time>
      </trkpt>
      <trkpt lat="42.6738704927" lon="20.1574460696">
        <ele>1592.56</ele>
        <time>2019-07-11T08:48:34Z</time>
      </trkpt>
      <trkpt lat="42.6738768630" lon="20.1574488357">
        <ele>1591.60</ele>
        <time>2019-07-11T08:48:35Z</time>
      </trkpt>
      <trkpt lat="42.6739657111" lon="20.1574636716">
        <ele>1589.20</ele>
        <time>2019-07-11T08:48:44Z</time>
      </trkpt>
      <trkpt lat="42.6740794536" lon="20.1575439703">
        <ele>1585.35</ele>
        <time>2019-07-11T08:48:57Z</time>
      </trkpt>
      <trkpt lat="42.6741250511" lon="20.1575782523">
        <ele>1584.39</ele>
        <time>2019-07-11T08:49:03Z</time>
      </trkpt>
      <trkpt lat="42.6742133964" lon="20.1576434635">
        <ele>1580.06</ele>
        <time>2019-07-11T08:49:14Z</time>
      </trkpt>
      <trkpt lat="42.6743330061" lon="20.1576551143">
        <ele>1577.18</ele>
        <time>2019-07-11T08:49:28Z</time>
      </trkpt>
      <trkpt lat="42.6743685454" lon="20.1576703694">
        <ele>1576.22</ele>
        <time>2019-07-11T08:49:33Z</time>
      </trkpt>
      <trkpt lat="42.6744019892" lon="20.1576880552">
        <ele>1574.30</ele>
        <time>2019-07-11T08:49:37Z</time>
      </trkpt>
      <trkpt lat="42.6744836289" lon="20.1577499136">
        <ele>1571.89</ele>
        <time>2019-07-11T08:49:47Z</time>
      </trkpt>
      <trkpt lat="42.6745821163" lon="20.1578116883">
        <ele>1568.53</ele>
        <time>2019-07-11T08:49:58Z</time>
      </trkpt>
      <trkpt lat="42.6746320724" lon="20.1578338165">
        <ele>1566.61</ele>
        <time>2019-07-11T08:50:04Z</time>
      </trkpt>
      <trkpt lat="42.6746873930" lon="20.1578769833">
        <ele>1564.68</ele>
        <time>2019-07-11T08:50:10Z</time>
      </trkpt>
      <trkpt lat="42.6746939309" lon="20.1578959264">
        <ele>1564.20</ele>
        <time>2019-07-11T08:50:11Z</time>
      </trkpt>
      <trkpt lat="42.6747319847" lon="20.1579110976">
        <ele>1563.24</ele>
        <time>2019-07-11T08:50:15Z</time>
      </trkpt>
      <trkpt lat="42.6748440508" lon="20.1578538492">
        <ele>1559.40</ele>
        <time>2019-07-11T08:50:27Z</time>
      </trkpt>
      <trkpt lat="42.6749555301" lon="20.1578707807">
        <ele>1556.03</ele>
        <time>2019-07-11T08:50:38Z</time>
      </trkpt>
      <trkpt lat="42.6750518382" lon="20.1578864548">
        <ele>1553.15</ele>
        <time>2019-07-11T08:50:49Z</time>
      </trkpt>
      <trkpt lat="42.6751290355" lon="20.1578932442">
        <ele>1549.78</ele>
        <time>2019-07-11T08:50:59Z</time>
      </trkpt>
      <trkpt lat="42.6752468850" lon="20.1578587946">
        <ele>1546.42</ele>
        <time>2019-07-11T08:51:10Z</time>
      </trkpt>
      <trkpt lat="42.6752763055" lon="20.1578499936">
        <ele>1545.46</ele>
        <time>2019-07-11T08:51:13Z</time>
      </trkpt>
      <trkpt lat="42.6753938198" lon="20.1578843594">
        <ele>1541.61</ele>
        <time>2019-07-11T08:51:23Z</time>
      </trkpt>
      <trkpt lat="42.6755086519" lon="20.1579333097">
        <ele>1538.25</ele>
        <time>2019-07-11T08:51:34Z</time>
      </trkpt>
      <trkpt lat="42.6755306963" lon="20.1579442061">
        <ele>1537.77</ele>
        <time>2019-07-11T08:51:37Z</time>
      </trkpt>
      <trkpt lat="42.6755532436" lon="20.1579356566">
        <ele>1536.80</ele>
        <time>2019-07-11T08:51:39Z</time>
      </trkpt>
      <trkpt lat="42.6755621284" lon="20.1579392608">
        <ele>1536.32</ele>
        <time>2019-07-11T08:51:40Z</time>
      </trkpt>
      <trkpt lat="42.6756186225" lon="20.1579359081">
        <ele>1534.40</ele>
        <time>2019-07-11T08:51:45Z</time>
      </trkpt>
      <trkpt lat="42.6757408306" lon="20.1579029672">
        <ele>1530.56</ele>
        <time>2019-07-11T08:51:58Z</time>
      </trkpt>
      <trkpt lat="42.6758345403" lon="20.1579653285">
        <ele>1527.19</ele>
        <time>2019-07-11T08:52:10Z</time>
      </trkpt>
      <trkpt lat="42.6758394018" lon="20.1579772308">
        <ele>1527.19</ele>
        <time>2019-07-11T08:52:11Z</time>
      </trkpt>
      <trkpt lat="42.6758756954" lon="20.1580391731">
        <ele>1526.23</ele>
        <time>2019-07-11T08:52:16Z</time>
      </trkpt>
      <trkpt lat="42.6759034395" lon="20.1580895483">
        <ele>1525.75</ele>
        <time>2019-07-11T08:52:21Z</time>
      </trkpt>
      <trkpt lat="42.6759472769" lon="20.1581095811">
        <ele>1524.79</ele>
        <time>2019-07-11T08:52:26Z</time>
      </trkpt>
      <trkpt lat="42.6759646274" lon="20.1580882911">
        <ele>1523.83</ele>
        <time>2019-07-11T08:52:28Z</time>
      </trkpt>
      <trkpt lat="42.6760342810" lon="20.1580005325">
        <ele>1521.42</ele>
        <time>2019-07-11T08:52:39Z</time>
      </trkpt>
      <trkpt lat="42.6760608517" lon="20.1579846907">
        <ele>1520.46</ele>
        <time>2019-07-11T08:52:42Z</time>
      </trkpt>
      <trkpt lat="42.6760784537" lon="20.1579705253">
        <ele>1520.46</ele>
        <time>2019-07-11T08:52:44Z</time>
      </trkpt>
      <trkpt lat="42.6761171781" lon="20.1579377521">
        <ele>1518.06</ele>
        <time>2019-07-11T08:52:50Z</time>
      </trkpt>
      <trkpt lat="42.6761609316" lon="20.1579457987">
        <ele>1517.10</ele>
        <time>2019-07-11T08:52:56Z</time>
      </trkpt>
      <trkpt lat="42.6762194373" lon="20.1579577848">
        <ele>1515.18</ele>
        <time>2019-07-11T08:53:01Z</time>
      </trkpt>
      <trkpt lat="42.6763422322" lon="20.1579100080">
        <ele>1512.29</ele>
        <time>2019-07-11T08:53:13Z</time>
      </trkpt>
      <trkpt lat="42.6764004026" lon="20.1579167135">
        <ele>1510.85</ele>
        <time>2019-07-11T08:53:24Z</time>
      </trkpt>
      <trkpt lat="42.6764042582" lon="20.1579177193">
        <ele>1510.85</ele>
        <time>2019-07-11T08:53:25Z</time>
      </trkpt>
      <trkpt lat="42.6765295677" lon="20.1579235028">
        <ele>1507.00</ele>
        <time>2019-07-11T08:53:37Z</time>
      </trkpt>
      <trkpt lat="42.6766109560" lon="20.1578832697">
        <ele>1503.64</ele>
        <time>2019-07-11T08:53:48Z</time>
      </trkpt>
      <trkpt lat="42.6767125446" lon="20.1578420307">
        <ele>1501.72</ele>
        <time>2019-07-11T08:54:00Z</time>
      </trkpt>
      <trkpt lat="42.6767283026" lon="20.1578425337">
        <ele>1501.24</ele>
        <time>2019-07-11T08:54:01Z</time>
      </trkpt>
      <trkpt lat="42.6767803542" lon="20.1577770710">
        <ele>1499.79</ele>
        <time>2019-07-11T08:54:08Z</time>
      </trkpt>
      <trkpt lat="42.6768994611" lon="20.1577862073">
        <ele>1496.43</ele>
        <time>2019-07-11T08:54:21Z</time>
      </trkpt>
      <trkpt lat="42.6769997925" lon="20.1578229200">
        <ele>1493.06</ele>
        <time>2019-07-11T08:54:34Z</time>
      </trkpt>
      <trkpt lat="42.6770771574" lon="20.1579037216">
        <ele>1490.66</ele>
        <time>2019-07-11T08:54:46Z</time>
      </trkpt>
      <trkpt lat="42.6771866251" lon="20.1578857005">
        <ele>1486.82</ele>
        <time>2019-07-11T08:54:59Z</time>
      </trkpt>
      <trkpt lat="42.6772647444" lon="20.1578517538">
        <ele>1483.93</ele>
        <time>2019-07-11T08:55:11Z</time>
      </trkpt>
      <trkpt lat="42.6773564424" lon="20.1577893924">
        <ele>1480.57</ele>
        <time>2019-07-11T08:55:23Z</time>
      </trkpt>
      <trkpt lat="42.6775032934" lon="20.1577137038">
        <ele>1478.16</ele>
        <time>2019-07-11T08:55:38Z</time>
      </trkpt>
      <trkpt lat="42.6776022837" lon="20.1576792542">
        <ele>1474.80</ele>
        <time>2019-07-11T08:55:50Z</time>
      </trkpt>
      <trkpt lat="42.6776353084" lon="20.1576842833">
        <ele>1473.36</ele>
        <time>2019-07-11T08:56:06Z</time>
      </trkpt>
      <trkpt lat="42.6776427682" lon="20.1576859597">
        <ele>1473.36</ele>
        <time>2019-07-11T08:56:32Z</time>
      </trkpt>
      <trkpt lat="42.6776512340" lon="20.1576732192">
        <ele>1473.36</ele>
        <time>2019-07-11T08:56:54Z</time>
      </trkpt>
      <trkpt lat="42.6776562631" lon="20.1576576289">
        <ele>1473.36</ele>
        <time>2019-07-11T08:57:18Z</time>
      </trkpt>
      <trkpt lat="42.6776265074" lon="20.1576964371">
        <ele>1473.36</ele>
        <time>2019-07-11T08:57:44Z</time>
      </trkpt>
      <trkpt lat="42.6776278485" lon="20.1576857083">
        <ele>1473.36</ele>
        <time>2019-07-11T08:58:03Z</time>
      </trkpt>
      <trkpt lat="42.6776255015" lon="20.1577074174">
        <ele>1473.36</ele>
        <time>2019-07-11T08:58:31Z</time>
      </trkpt>
      <trkpt lat="42.6776548382" lon="20.1576936711">
        <ele>1473.36</ele>
        <time>2019-07-11T08:58:47Z</time>
      </trkpt>
      <trkpt lat="42.6777883619" lon="20.1576756500">
        <ele>1470.47</ele>
        <time>2019-07-11T08:59:00Z</time>
      </trkpt>
      <trkpt lat="42.6778664812" lon="20.1577059925">
        <ele>1466.63</ele>
        <time>2019-07-11T08:59:10Z</time>
      </trkpt>
      <trkpt lat="42.6778892800" lon="20.1577365026">
        <ele>1465.67</ele>
        <time>2019-07-11T08:59:14Z</time>
      </trkpt>
      <trkpt lat="42.6779105701" lon="20.1577833574">
        <ele>1464.23</ele>
        <time>2019-07-11T08:59:18Z</time>
      </trkpt>
      <trkpt lat="42.6779234782" lon="20.1578649972">
        <ele>1461.82</ele>
        <time>2019-07-11T08:59:26Z</time>
      </trkpt>
      <trkpt lat="42.6779482048" lon="20.1579079125">
        <ele>1460.86</ele>
        <time>2019-07-11T08:59:31Z</time>
      </trkpt>
      <trkpt lat="42.6779685728" lon="20.1580154523">
        <ele>1458.94</ele>
        <time>2019-07-11T08:59:39Z</time>
      </trkpt>
      <trkpt lat="42.6779698301" lon="20.1581051387">
        <ele>1456.53</ele>
        <time>2019-07-11T08:59:48Z</time>
      </trkpt>
      <trkpt lat="42.6779857557" lon="20.1581459586">
        <ele>1455.57</ele>
        <time>2019-07-11T08:59:51Z</time>
      </trkpt>
      <trkpt lat="42.6780166849" lon="20.1582376566">
        <ele>1453.65</ele>
        <time>2019-07-11T08:59:58Z</time>
      </trkpt>
      <trkpt lat="42.6781191956" lon="20.1583281811">
        <ele>1450.77</ele>
        <time>2019-07-11T09:00:10Z</time>
      </trkpt>
      <trkpt lat="42.6781678945" lon="20.1584083121">
        <ele>1448.84</ele>
        <time>2019-07-11T09:00:18Z</time>
      </trkpt>
      <trkpt lat="42.6782990713" lon="20.1584132574">
        <ele>1445.00</ele>
        <time>2019-07-11T09:00:30Z</time>
      </trkpt>
      <trkpt lat="42.6784071978" lon="20.1584006846">
        <ele>1441.63</ele>
        <time>2019-07-11T09:00:41Z</time>
      </trkpt>
      <trkpt lat="42.6784527954" lon="20.1583830826">
        <ele>1441.15</ele>
        <time>2019-07-11T09:00:46Z</time>
      </trkpt>
      <trkpt lat="42.6785706449" lon="20.1583473757">
        <ele>1437.79</ele>
        <time>2019-07-11T09:00:59Z</time>
      </trkpt>
      <trkpt lat="42.6786355209" lon="20.1583391614">
        <ele>1434.91</ele>
        <time>2019-07-11T09:01:11Z</time>
      </trkpt>
      <trkpt lat="42.6786989719" lon="20.1583218947">
        <ele>1432.98</ele>
        <time>2019-07-11T09:01:17Z</time>
      </trkpt>
      <trkpt lat="42.6788108703" lon="20.1583424304">
        <ele>1430.58</ele>
        <time>2019-07-11T09:01:27Z</time>
      </trkpt>
      <trkpt lat="42.6788700465" lon="20.1583792269">
        <ele>1429.14</ele>
        <time>2019-07-11T09:01:33Z</time>
      </trkpt>
      <trkpt lat="42.6789885666" lon="20.1583539136">
        <ele>1425.77</ele>
        <time>2019-07-11T09:01:46Z</time>
      </trkpt>
      <trkpt lat="42.6790770795" lon="20.1583154406">
        <ele>1422.41</ele>
        <time>2019-07-11T09:01:56Z</time>
      </trkpt>
      <trkpt lat="42.6791442186" lon="20.1583039574">
        <ele>1419.52</ele>
        <time>2019-07-11T09:02:06Z</time>
      </trkpt>
      <trkpt lat="42.6791723818" lon="20.1583049633">
        <ele>1419.04</ele>
        <time>2019-07-11T09:02:08Z</time>
      </trkpt>
      <trkpt lat="42.6792776585" lon="20.1583093219">
        <ele>1415.68</ele>
        <time>2019-07-11T09:02:17Z</time>
      </trkpt>
      <trkpt lat="42.6794281974" lon="20.1583320368">
        <ele>1412.31</ele>
        <time>2019-07-11T09:02:30Z</time>
      </trkpt>
      <trkpt lat="42.6794647425" lon="20.1583298575">
        <ele>1411.83</ele>
        <time>2019-07-11T09:02:34Z</time>
      </trkpt>
      <trkpt lat="42.6795659959" lon="20.1583234034">
        <ele>1408.47</ele>
        <time>2019-07-11T09:02:47Z</time>
      </trkpt>
      <trkpt lat="42.6796592865" lon="20.1582775544">
        <ele>1405.10</ele>
        <time>2019-07-11T09:02:57Z</time>
      </trkpt>
      <trkpt lat="42.6797466259" lon="20.1582708489">
        <ele>1401.74</ele>
        <time>2019-07-11T09:03:09Z</time>
      </trkpt>
      <trkpt lat="42.6797763817" lon="20.1582603715">
        <ele>1400.78</ele>
        <time>2019-07-11T09:03:12Z</time>
      </trkpt>
      <trkpt lat="42.6798995119" lon="20.1582040451">
        <ele>1396.93</ele>
        <time>2019-07-11T09:03:25Z</time>
      </trkpt>
      <trkpt lat="42.6799412537" lon="20.1581775583">
        <ele>1395.97</ele>
        <time>2019-07-11T09:03:30Z</time>
      </trkpt>
      <trkpt lat="42.6799926348" lon="20.1581386663">
        <ele>1394.53</ele>
        <time>2019-07-11T09:03:35Z</time>
      </trkpt>
      <trkpt lat="42.6801394857" lon="20.1582113374">
        <ele>1391.17</ele>
        <time>2019-07-11T09:03:49Z</time>
      </trkpt>
      <trkpt lat="42.6802708302" lon="20.1582653169">
        <ele>1387.80</ele>
        <time>2019-07-11T09:04:00Z</time>
      </trkpt>
      <trkpt lat="42.6803661324" lon="20.1582979225">
        <ele>1384.44</ele>
        <time>2019-07-11T09:04:10Z</time>
      </trkpt>
      <trkpt lat="42.6804967225" lon="20.1583109982">
        <ele>1381.07</ele>
        <time>2019-07-11T09:04:21Z</time>
      </trkpt>
      <trkpt lat="42.6806185115" lon="20.1582742017">
        <ele>1377.71</ele>
        <time>2019-07-11T09:04:32Z</time>
      </trkpt>
      <trkpt lat="42.6807531249" lon="20.1582519058">
        <ele>1374.34</ele>
        <time>2019-07-11T09:04:42Z</time>
      </trkpt>
      <trkpt lat="42.6809034962" lon="20.1582390815">
        <ele>1370.98</ele>
        <time>2019-07-11T09:04:53Z</time>
      </trkpt>
      <trkpt lat="42.6810516044" lon="20.1582440268">
        <ele>1367.61</ele>
        <time>2019-07-11T09:05:05Z</time>
      </trkpt>
      <trkpt lat="42.6811202522" lon="20.1582612935">
        <ele>1366.17</ele>
        <time>2019-07-11T09:05:11Z</time>
      </trkpt>
      <trkpt lat="42.6812525187" lon="20.1582776383">
        <ele>1363.77</ele>
        <time>2019-07-11T09:05:22Z</time>
      </trkpt>
      <trkpt lat="42.6813042350" lon="20.1582690887">
        <ele>1362.33</ele>
        <time>2019-07-11T09:05:27Z</time>
      </trkpt>
      <trkpt lat="42.6814232580" lon="20.1583021134">
        <ele>1358.48</ele>
        <time>2019-07-11T09:05:39Z</time>
      </trkpt>
      <trkpt lat="42.6814951748" lon="20.1583166979">
        <ele>1356.08</ele>
        <time>2019-07-11T09:05:46Z</time>
      </trkpt>
      <trkpt lat="42.6815566979" lon="20.1583580207">
        <ele>1354.63</ele>
        <time>2019-07-11T09:05:53Z</time>
      </trkpt>
      <trkpt lat="42.6816400979" lon="20.1583471242">
        <ele>1352.71</ele>
        <time>2019-07-11T09:06:01Z</time>
      </trkpt>
      <trkpt lat="42.6818488911" lon="20.1583075617">
        <ele>1350.31</ele>
        <time>2019-07-11T09:06:18Z</time>
      </trkpt>
      <trkpt lat="42.6818527468" lon="20.1583145186">
        <ele>1349.83</ele>
        <time>2019-07-11T09:06:32Z</time>
      </trkpt>
      <trkpt lat="42.6818718575" lon="20.1583016943">
        <ele>1349.83</ele>
        <time>2019-07-11T09:06:57Z</time>
      </trkpt>
      <trkpt lat="42.6818669960" lon="20.1582553424">
        <ele>1349.83</ele>
        <time>2019-07-11T09:07:28Z</time>
      </trkpt>
      <trkpt lat="42.6818674989" lon="20.1582795661">
        <ele>1349.83</ele>
        <time>2019-07-11T09:08:04Z</time>
      </trkpt>
      <trkpt lat="42.6818563510" lon="20.1582741179">
        <ele>1348.87</ele>
        <time>2019-07-11T09:08:32Z</time>
      </trkpt>
      <trkpt lat="42.6818149444" lon="20.1582765486">
        <ele>1348.87</ele>
        <time>2019-07-11T09:09:02Z</time>
      </trkpt>
      <trkpt lat="42.6818261761" lon="20.1582868584">
        <ele>1348.87</ele>
        <time>2019-07-11T09:09:36Z</time>
      </trkpt>
      <trkpt lat="42.6818456221" lon="20.1582688373">
        <ele>1348.87</ele>
        <time>2019-07-11T09:09:59Z</time>
      </trkpt>
      <trkpt lat="42.6818507351" lon="20.1583043765">
        <ele>1348.87</ele>
        <time>2019-07-11T09:10:13Z</time>
      </trkpt>
      <trkpt lat="42.6819007751" lon="20.1583317015">
        <ele>1348.87</ele>
        <time>2019-07-11T09:10:33Z</time>
      </trkpt>
      <trkpt lat="42.6819990948" lon="20.1583805680">
        <ele>1347.43</ele>
        <time>2019-07-11T09:10:46Z</time>
      </trkpt>
      <trkpt lat="42.6821423415" lon="20.1584065519">
        <ele>1346.94</ele>
        <time>2019-07-11T09:10:58Z</time>
      </trkpt>
      <trkpt lat="42.6822054572" lon="20.1584410854">
        <ele>1346.46</ele>
        <time>2019-07-11T09:11:03Z</time>
      </trkpt>
      <trkpt lat="42.6823720895" lon="20.1585057098">
        <ele>1345.02</ele>
        <time>2019-07-11T09:11:17Z</time>
      </trkpt>
      <trkpt lat="42.6824688166" lon="20.1585337054">
        <ele>1343.10</ele>
        <time>2019-07-11T09:11:26Z</time>
      </trkpt>
      <trkpt lat="42.6826084591" lon="20.1586347912">
        <ele>1340.22</ele>
        <time>2019-07-11T09:11:39Z</time>
      </trkpt>
      <trkpt lat="42.6827156637" lon="20.1587744337">
        <ele>1336.85</ele>
        <time>2019-07-11T09:11:52Z</time>
      </trkpt>
      <trkpt lat="42.6827410609" lon="20.1588119846">
        <ele>1336.37</ele>
        <time>2019-07-11T09:11:55Z</time>
      </trkpt>
      <trkpt lat="42.6828379557" lon="20.1588583365">
        <ele>1333.49</ele>
        <time>2019-07-11T09:12:03Z</time>
      </trkpt>
      <trkpt lat="42.6829787716" lon="20.1587749366">
        <ele>1332.52</ele>
        <time>2019-07-11T09:12:16Z</time>
      </trkpt>
      <trkpt lat="42.6831454877" lon="20.1587243099">
        <ele>1332.52</ele>
        <time>2019-07-11T09:12:29Z</time>
      </trkpt>
      <trkpt lat="42.6833040733" lon="20.1586662233">
        <ele>1330.60</ele>
        <time>2019-07-11T09:12:42Z</time>
      </trkpt>
      <trkpt lat="42.6834924985" lon="20.1586037781">
        <ele>1330.12</ele>
        <time>2019-07-11T09:12:56Z</time>
      </trkpt>
      <trkpt lat="42.6836766489" lon="20.1584860962">
        <ele>1329.64</ele>
        <time>2019-07-11T09:13:12Z</time>
      </trkpt>
      <trkpt lat="42.6837807521" lon="20.1582688373">
        <ele>1328.68</ele>
        <time>2019-07-11T09:13:26Z</time>
      </trkpt>
      <trkpt lat="42.6838427782" lon="20.1581478864">
        <ele>1328.20</ele>
        <time>2019-07-11T09:13:34Z</time>
      </trkpt>
      <trkpt lat="42.6839617174" lon="20.1580054779">
        <ele>1327.72</ele>
        <time>2019-07-11T09:13:47Z</time>
      </trkpt>
      <trkpt lat="42.6841094904" lon="20.1579169650">
        <ele>1327.72</ele>
        <time>2019-07-11T09:14:01Z</time>
      </trkpt>
      <trkpt lat="42.6842841692" lon="20.1578978542">
        <ele>1327.24</ele>
        <time>2019-07-11T09:14:14Z</time>
      </trkpt>
      <trkpt lat="42.6843498833" lon="20.1578926574">
        <ele>1326.76</ele>
        <time>2019-07-11T09:14:20Z</time>
      </trkpt>
      <trkpt lat="42.6844642125" lon="20.1578981895">
        <ele>1326.76</ele>
        <time>2019-07-11T09:14:30Z</time>
      </trkpt>
      <trkpt lat="42.6845394820" lon="20.1578773186">
        <ele>1326.76</ele>
        <time>2019-07-11T09:14:36Z</time>
      </trkpt>
      <trkpt lat="42.6847439166" lon="20.1578038931">
        <ele>1325.80</ele>
        <time>2019-07-11T09:14:52Z</time>
      </trkpt>
      <trkpt lat="42.6848664600" lon="20.1577863749">
        <ele>1324.83</ele>
        <time>2019-07-11T09:15:03Z</time>
      </trkpt>
      <trkpt lat="42.6850175858" lon="20.1577696949">
        <ele>1324.83</ele>
        <time>2019-07-11T09:15:17Z</time>
      </trkpt>
      <trkpt lat="42.6851288974" lon="20.1578049827">
        <ele>1324.35</ele>
        <time>2019-07-11T09:15:25Z</time>
      </trkpt>
      <trkpt lat="42.6851929352" lon="20.1578221656">
        <ele>1323.87</ele>
        <time>2019-07-11T09:15:28Z</time>
      </trkpt>
      <trkpt lat="42.6854082663" lon="20.1578007918">
        <ele>1321.95</ele>
        <time>2019-07-11T09:15:42Z</time>
      </trkpt>
      <trkpt lat="42.6855941769" lon="20.1576821040">
        <ele>1319.07</ele>
        <time>2019-07-11T09:15:57Z</time>
      </trkpt>
      <trkpt lat="42.6857512537" lon="20.1575775817">
        <ele>1317.14</ele>
        <time>2019-07-11T09:16:09Z</time>
      </trkpt>
      <trkpt lat="42.6859234180" lon="20.1574064232">
        <ele>1315.22</ele>
        <time>2019-07-11T09:16:23Z</time>
      </trkpt>
      <trkpt lat="42.6860509068" lon="20.1572469994">
        <ele>1314.74</ele>
        <time>2019-07-11T09:16:37Z</time>
      </trkpt>
      <trkpt lat="42.6861517411" lon="20.1571652759">
        <ele>1313.78</ele>
        <time>2019-07-11T09:16:46Z</time>
      </trkpt>
      <trkpt lat="42.6862260047" lon="20.1571225282">
        <ele>1313.78</ele>
        <time>2019-07-11T09:16:53Z</time>
      </trkpt>
      <trkpt lat="42.6863037050" lon="20.1571078598">
        <ele>1312.34</ele>
        <time>2019-07-11T09:17:01Z</time>
      </trkpt>
      <trkpt lat="42.6865481213" lon="20.1570584066">
        <ele>1309.45</ele>
        <time>2019-07-11T09:17:14Z</time>
      </trkpt>
      <trkpt lat="42.6866013464" lon="20.1570512820">
        <ele>1308.97</ele>
        <time>2019-07-11T09:17:17Z</time>
      </trkpt>
      <trkpt lat="42.6866897754" lon="20.1570366137">
        <ele>1307.53</ele>
        <time>2019-07-11T09:17:22Z</time>
      </trkpt>
      <trkpt lat="42.6869082917" lon="20.1570058521">
        <ele>1304.65</ele>
        <time>2019-07-11T09:17:36Z</time>
      </trkpt>
      <trkpt lat="42.6869460102" lon="20.1570121385">
        <ele>1304.65</ele>
        <time>2019-07-11T09:17:39Z</time>
      </trkpt>
      <trkpt lat="42.6870122273" lon="20.1569959614">
        <ele>1304.65</ele>
        <time>2019-07-11T09:17:44Z</time>
      </trkpt>
      <trkpt lat="42.6870453358" lon="20.1570024155">
        <ele>1304.65</ele>
        <time>2019-07-11T09:17:46Z</time>
      </trkpt>
      <trkpt lat="42.6872220263" lon="20.1570137311">
        <ele>1303.69</ele>
        <time>2019-07-11T09:17:59Z</time>
      </trkpt>
      <trkpt lat="42.6872977987" lon="20.1570057683">
        <ele>1302.24</ele>
        <time>2019-07-11T09:18:04Z</time>
      </trkpt>
      <trkpt lat="42.6873936038" lon="20.1570173353">
        <ele>1301.28</ele>
        <time>2019-07-11T09:18:10Z</time>
      </trkpt>
      <trkpt lat="42.6875963621" lon="20.1569855679">
        <ele>1299.84</ele>
        <time>2019-07-11T09:18:24Z</time>
      </trkpt>
      <trkpt lat="42.6876944304" lon="20.1569918543">
        <ele>1298.40</ele>
        <time>2019-07-11T09:18:32Z</time>
      </trkpt>
      <trkpt lat="42.6878505852" lon="20.1569913514">
        <ele>1297.44</ele>
        <time>2019-07-11T09:18:43Z</time>
      </trkpt>
      <trkpt lat="42.6878802571" lon="20.1569983922">
        <ele>1297.44</ele>
        <time>2019-07-11T09:18:45Z</time>
      </trkpt>
      <trkpt lat="42.6879595499" lon="20.1570062712">
        <ele>1296.48</ele>
        <time>2019-07-11T09:18:50Z</time>
      </trkpt>
      <trkpt lat="42.6879887190" lon="20.1570080314">
        <ele>1295.99</ele>
        <time>2019-07-11T09:18:52Z</time>
      </trkpt>
      <trkpt lat="42.6882006973" lon="20.1570593286">
        <ele>1294.07</ele>
        <time>2019-07-11T09:19:06Z</time>
      </trkpt>
      <trkpt lat="42.6883928105" lon="20.1571395434">
        <ele>1291.19</ele>
        <time>2019-07-11T09:19:19Z</time>
      </trkpt>
      <trkpt lat="42.6886054594" lon="20.1572208479">
        <ele>1287.82</ele>
        <time>2019-07-11T09:19:34Z</time>
      </trkpt>
      <trkpt lat="42.6886819862" lon="20.1572133880">
        <ele>1286.86</ele>
        <time>2019-07-11T09:19:40Z</time>
      </trkpt>
      <trkpt lat="42.6887207944" lon="20.1572085265">
        <ele>1286.38</ele>
        <time>2019-07-11T09:19:54Z</time>
      </trkpt>
      <trkpt lat="42.6888837386" lon="20.1573180780">
        <ele>1283.98</ele>
        <time>2019-07-11T09:20:08Z</time>
      </trkpt>
      <trkpt lat="42.6890196092" lon="20.1573843788">
        <ele>1283.02</ele>
        <time>2019-07-11T09:20:21Z</time>
      </trkpt>
      <trkpt lat="42.6891601738" lon="20.1574801002">
        <ele>1279.65</ele>
        <time>2019-07-11T09:20:32Z</time>
      </trkpt>
      <trkpt lat="42.6891717408" lon="20.1574877277">
        <ele>1279.65</ele>
        <time>2019-07-11T09:20:33Z</time>
      </trkpt>
      <trkpt lat="42.6892225351" lon="20.1575028989">
        <ele>1279.17</ele>
        <time>2019-07-11T09:20:37Z</time>
      </trkpt>
      <trkpt lat="42.6894290652" lon="20.1576178987">
        <ele>1275.81</ele>
        <time>2019-07-11T09:20:53Z</time>
      </trkpt>
      <trkpt lat="42.6895796042" lon="20.1577370055">
        <ele>1275.81</ele>
        <time>2019-07-11T09:21:07Z</time>
      </trkpt>
      <trkpt lat="42.6897713821" lon="20.1578850299">
        <ele>1274.36</ele>
        <time>2019-07-11T09:21:24Z</time>
      </trkpt>
      <trkpt lat="42.6898854598" lon="20.1579449605">
        <ele>1271.48</ele>
        <time>2019-07-11T09:21:34Z</time>
      </trkpt>
      <trkpt lat="42.6899769902" lon="20.1579749677">
        <ele>1268.60</ele>
        <time>2019-07-11T09:21:45Z</time>
      </trkpt>
      <trkpt lat="42.6900586300" lon="20.1580539253">
        <ele>1267.64</ele>
        <time>2019-07-11T09:21:53Z</time>
      </trkpt>
      <trkpt lat="42.6901649125" lon="20.1581332181">
        <ele>1264.27</ele>
        <time>2019-07-11T09:22:03Z</time>
      </trkpt>
      <trkpt lat="42.6901885495" lon="20.1581557654">
        <ele>1264.27</ele>
        <time>2019-07-11T09:22:05Z</time>
      </trkpt>
      <trkpt lat="42.6903213188" lon="20.1582525764">
        <ele>1260.91</ele>
        <time>2019-07-11T09:22:18Z</time>
      </trkpt>
      <trkpt lat="42.6904352289" lon="20.1583187934">
        <ele>1258.98</ele>
        <time>2019-07-11T09:22:30Z</time>
      </trkpt>
      <trkpt lat="42.6904949080" lon="20.1583783887">
        <ele>1255.14</ele>
        <time>2019-07-11T09:22:39Z</time>
      </trkpt>
      <trkpt lat="42.6905467920" lon="20.1584605314">
        <ele>1251.77</ele>
        <time>2019-07-11T09:22:47Z</time>
      </trkpt>
      <trkpt lat="42.6906187925" lon="20.1585415006">
        <ele>1247.45</ele>
        <time>2019-07-11T09:22:58Z</time>
      </trkpt>
      <trkpt lat="42.6907064673" lon="20.1585891098">
        <ele>1244.56</ele>
        <time>2019-07-11T09:23:07Z</time>
      </trkpt>
      <trkpt lat="42.6907536574" lon="20.1586114895">
        <ele>1243.12</ele>
        <time>2019-07-11T09:23:11Z</time>
      </trkpt>
      <trkpt lat="42.6908945572" lon="20.1587368827">
        <ele>1240.24</ele>
        <time>2019-07-11T09:23:26Z</time>
      </trkpt>
      <trkpt lat="42.6909654681" lon="20.1588109788">
        <ele>1237.83</ele>
        <time>2019-07-11T09:23:34Z</time>
      </trkpt>
      <trkpt lat="42.6910316851" lon="20.1588997431">
        <ele>1233.99</ele>
        <time>2019-07-11T09:23:42Z</time>
      </trkpt>
      <trkpt lat="42.6910845749" lon="20.1589896809">
        <ele>1231.11</ele>
        <time>2019-07-11T09:23:51Z</time>
      </trkpt>
      <trkpt lat="42.6910940465" lon="20.1589991525">
        <ele>1231.11</ele>
        <time>2019-07-11T09:23:54Z</time>
      </trkpt>
      <trkpt lat="42.6911471039" lon="20.1591008250">
        <ele>1227.26</ele>
        <time>2019-07-11T09:24:02Z</time>
      </trkpt>
      <trkpt lat="42.6911993232" lon="20.1592173334">
        <ele>1223.42</ele>
        <time>2019-07-11T09:24:10Z</time>
      </trkpt>
      <trkpt lat="42.6912489440" lon="20.1593034994">
        <ele>1220.53</ele>
        <time>2019-07-11T09:24:18Z</time>
      </trkpt>
      <trkpt lat="42.6912481058" lon="20.1593197603">
        <ele>1220.05</ele>
        <time>2019-07-11T09:24:19Z</time>
      </trkpt>
      <trkpt lat="42.6912771072" lon="20.1594143081">
        <ele>1217.65</ele>
        <time>2019-07-11T09:24:25Z</time>
      </trkpt>
      <trkpt lat="42.6913009956" lon="20.1595023181">
        <ele>1215.24</ele>
        <time>2019-07-11T09:24:29Z</time>
      </trkpt>
      <trkpt lat="42.6913344394" lon="20.1596366800">
        <ele>1211.88</ele>
        <time>2019-07-11T09:24:38Z</time>
      </trkpt>
      <trkpt lat="42.6913580764" lon="20.1596785057">
        <ele>1210.44</ele>
        <time>2019-07-11T09:24:42Z</time>
      </trkpt>
      <trkpt lat="42.6914006565" lon="20.1596988738">
        <ele>1209.00</ele>
        <time>2019-07-11T09:24:47Z</time>
      </trkpt>
      <trkpt lat="42.6914406382" lon="20.1598122809">
        <ele>1206.11</ele>
        <time>2019-07-11T09:24:53Z</time>
      </trkpt>
      <trkpt lat="42.6914473437" lon="20.1598790009">
        <ele>1204.67</ele>
        <time>2019-07-11T09:24:59Z</time>
      </trkpt>
      <trkpt lat="42.6915067714" lon="20.1599599700">
        <ele>1201.30</ele>
        <time>2019-07-11T09:25:10Z</time>
      </trkpt>
      <trkpt lat="42.6915435679" lon="20.1600323897">
        <ele>1198.42</ele>
        <time>2019-07-11T09:25:23Z</time>
      </trkpt>
      <trkpt lat="42.6915315818" lon="20.1601181366">
        <ele>1196.50</ele>
        <time>2019-07-11T09:25:31Z</time>
      </trkpt>
      <trkpt lat="42.6915547997" lon="20.1601614710">
        <ele>1195.06</ele>
        <time>2019-07-11T09:25:35Z</time>
      </trkpt>
      <trkpt lat="42.6916149817" lon="20.1602886245">
        <ele>1190.73</ele>
        <time>2019-07-11T09:25:47Z</time>
      </trkpt>
      <trkpt lat="42.6916853059" lon="20.1602640655">
        <ele>1187.85</ele>
        <time>2019-07-11T09:25:56Z</time>
      </trkpt>
      <trkpt lat="42.6917250361" lon="20.1603258401">
        <ele>1184.48</ele>
        <time>2019-07-11T09:26:05Z</time>
      </trkpt>
      <trkpt lat="42.6917459071" lon="20.1604292728">
        <ele>1181.60</ele>
        <time>2019-07-11T09:26:17Z</time>
      </trkpt>
      <trkpt lat="42.6917908341" lon="20.1604959927">
        <ele>1178.23</ele>
        <time>2019-07-11T09:26:27Z</time>
      </trkpt>
      <trkpt lat="42.6917942706" lon="20.1605595276">
        <ele>1175.83</ele>
        <time>2019-07-11T09:26:33Z</time>
      </trkpt>
      <trkpt lat="42.6917816978" lon="20.1606135070">
        <ele>1174.39</ele>
        <time>2019-07-11T09:26:37Z</time>
      </trkpt>
      <trkpt lat="42.6918231882" lon="20.1606415026">
        <ele>1171.50</ele>
        <time>2019-07-11T09:26:44Z</time>
      </trkpt>
      <trkpt lat="42.6918143034" lon="20.1607037801">
        <ele>1169.10</ele>
        <time>2019-07-11T09:26:50Z</time>
      </trkpt>
      <trkpt lat="42.6918461546" lon="20.1607285906">
        <ele>1168.62</ele>
        <time>2019-07-11T09:26:53Z</time>
      </trkpt>
      <trkpt lat="42.6918775029" lon="20.1607444324">
        <ele>1166.70</ele>
        <time>2019-07-11T09:26:57Z</time>
      </trkpt>
      <trkpt lat="42.6919498388" lon="20.1608000044">
        <ele>1162.85</ele>
        <time>2019-07-11T09:27:07Z</time>
      </trkpt>
      <trkpt lat="42.6920007169" lon="20.1609358750">
        <ele>1159.49</ele>
        <time>2019-07-11T09:27:16Z</time>
      </trkpt>
      <trkpt lat="42.6920867991" lon="20.1609337796">
        <ele>1156.60</ele>
        <time>2019-07-11T09:27:28Z</time>
      </trkpt>
      <trkpt lat="42.6920852065" lon="20.1609530579">
        <ele>1155.64</ele>
        <time>2019-07-11T09:27:29Z</time>
      </trkpt>
      <trkpt lat="42.6920940913" lon="20.1610144135">
        <ele>1154.20</ele>
        <time>2019-07-11T09:27:33Z</time>
      </trkpt>
      <trkpt lat="42.6921189018" lon="20.1610959694">
        <ele>1151.32</ele>
        <time>2019-07-11T09:27:41Z</time>
      </trkpt>
      <trkpt lat="42.6921696961" lon="20.1611149125">
        <ele>1147.95</ele>
        <time>2019-07-11T09:27:51Z</time>
      </trkpt>
      <trkpt lat="42.6921949256" lon="20.1611109730">
        <ele>1146.99</ele>
        <time>2019-07-11T09:27:54Z</time>
      </trkpt>
      <trkpt lat="42.6922384277" lon="20.1611726638">
        <ele>1143.14</ele>
        <time>2019-07-11T09:28:05Z</time>
      </trkpt>
      <trkpt lat="42.6922660042" lon="20.1612469275">
        <ele>1140.26</ele>
        <time>2019-07-11T09:28:12Z</time>
      </trkpt>
      <trkpt lat="42.6922812592" lon="20.1613101270">
        <ele>1138.34</ele>
        <time>2019-07-11T09:28:17Z</time>
      </trkpt>
      <trkpt lat="42.6923395973" lon="20.1612974703">
        <ele>1134.97</ele>
        <time>2019-07-11T09:28:26Z</time>
      </trkpt>
      <trkpt lat="42.6923801657" lon="20.1612617634">
        <ele>1134.01</ele>
        <time>2019-07-11T09:28:31Z</time>
      </trkpt>
      <trkpt lat="42.6924026292" lon="20.1612874959">
        <ele>1132.09</ele>
        <time>2019-07-11T09:28:34Z</time>
      </trkpt>
      <trkpt lat="42.6924034674" lon="20.1612949558">
        <ele>1131.61</ele>
        <time>2019-07-11T09:28:35Z</time>
      </trkpt>
      <trkpt lat="42.6924284454" lon="20.1614454947">
        <ele>1128.24</ele>
        <time>2019-07-11T09:28:43Z</time>
      </trkpt>
      <trkpt lat="42.6924430300" lon="20.1615384500">
        <ele>1125.84</ele>
        <time>2019-07-11T09:28:50Z</time>
      </trkpt>
      <trkpt lat="42.6924889628" lon="20.1615929324">
        <ele>1122.48</ele>
        <time>2019-07-11T09:29:00Z</time>
      </trkpt>
      <trkpt lat="42.6925687585" lon="20.1616282202">
        <ele>1119.59</ele>
        <time>2019-07-11T09:29:11Z</time>
      </trkpt>
      <trkpt lat="42.6925823372" lon="20.1616364345">
        <ele>1118.63</ele>
        <time>2019-07-11T09:29:13Z</time>
      </trkpt>
      <trkpt lat="42.6926456206" lon="20.1616530307">
        <ele>1115.27</ele>
        <time>2019-07-11T09:29:22Z</time>
      </trkpt>
      <trkpt lat="42.6926996838" lon="20.1617397834">
        <ele>1111.90</ele>
        <time>2019-07-11T09:29:31Z</time>
      </trkpt>
      <trkpt lat="42.6927546691" lon="20.1617933437">
        <ele>1108.54</ele>
        <time>2019-07-11T09:29:41Z</time>
      </trkpt>
      <trkpt lat="42.6928057149" lon="20.1617998816">
        <ele>1105.17</ele>
        <time>2019-07-11T09:29:50Z</time>
      </trkpt>
      <trkpt lat="42.6928167790" lon="20.1618153043">
        <ele>1105.17</ele>
        <time>2019-07-11T09:29:51Z</time>
      </trkpt>
      <trkpt lat="42.6928764582" lon="20.1618940942">
        <ele>1102.29</ele>
        <time>2019-07-11T09:29:58Z</time>
      </trkpt>
      <trkpt lat="42.6929009333" lon="20.1619173121">
        <ele>1100.85</ele>
        <time>2019-07-11T09:30:01Z</time>
      </trkpt>
      <trkpt lat="42.6929526497" lon="20.1619120315">
        <ele>1097.96</ele>
        <time>2019-07-11T09:30:10Z</time>
      </trkpt>
      <trkpt lat="42.6930115744" lon="20.1619645022">
        <ele>1094.60</ele>
        <time>2019-07-11T09:30:18Z</time>
      </trkpt>
      <trkpt lat="42.6930195373" lon="20.1619691961">
        <ele>1094.60</ele>
        <time>2019-07-11T09:30:19Z</time>
      </trkpt>
      <trkpt lat="42.6930436771" lon="20.1619728841">
        <ele>1092.68</ele>
        <time>2019-07-11T09:30:23Z</time>
      </trkpt>
      <trkpt lat="42.6930775400" lon="20.1619936712">
        <ele>1089.31</ele>
        <time>2019-07-11T09:30:32Z</time>
      </trkpt>
      <trkpt lat="42.6930778753" lon="20.1619877201">
        <ele>1088.83</ele>
        <time>2019-07-11T09:30:33Z</time>
      </trkpt>
      <trkpt lat="42.6931362972" lon="20.1620408613">
        <ele>1085.95</ele>
        <time>2019-07-11T09:30:43Z</time>
      </trkpt>
      <trkpt lat="42.6931610238" lon="20.1621277817">
        <ele>1082.58</ele>
        <time>2019-07-11T09:30:52Z</time>
      </trkpt>
      <trkpt lat="42.6931844093" lon="20.1621690206">
        <ele>1080.66</ele>
        <time>2019-07-11T09:30:57Z</time>
      </trkpt>
      <trkpt lat="42.6932166796" lon="20.1622846909">
        <ele>1077.78</ele>
        <time>2019-07-11T09:31:06Z</time>
      </trkpt>
      <trkpt lat="42.6932325214" lon="20.1623314619">
        <ele>1074.89</ele>
        <time>2019-07-11T09:31:11Z</time>
      </trkpt>
      <trkpt lat="42.6932386402" lon="20.1623877883">
        <ele>1073.93</ele>
        <time>2019-07-11T09:31:15Z</time>
      </trkpt>
      <trkpt lat="42.6932891831" lon="20.1624536701">
        <ele>1069.60</ele>
        <time>2019-07-11T09:31:25Z</time>
      </trkpt>
      <trkpt lat="42.6932774484" lon="20.1625716034">
        <ele>1066.24</ele>
        <time>2019-07-11T09:31:34Z</time>
      </trkpt>
      <trkpt lat="42.6932885963" lon="20.1625951566">
        <ele>1065.28</ele>
        <time>2019-07-11T09:31:36Z</time>
      </trkpt>
      <trkpt lat="42.6933098026" lon="20.1626446936">
        <ele>1063.84</ele>
        <time>2019-07-11T09:31:40Z</time>
      </trkpt>
      <trkpt lat="42.6933573280" lon="20.1626787242">
        <ele>1061.43</ele>
        <time>2019-07-11T09:31:47Z</time>
      </trkpt>
      <trkpt lat="42.6933785342" lon="20.1626603678">
        <ele>1061.43</ele>
        <time>2019-07-11T09:31:49Z</time>
      </trkpt>
      <trkpt lat="42.6934957970" lon="20.1625871100">
        <ele>1058.55</ele>
        <time>2019-07-11T09:32:00Z</time>
      </trkpt>
      <trkpt lat="42.6935642771" lon="20.1624984294">
        <ele>1056.15</ele>
        <time>2019-07-11T09:32:09Z</time>
      </trkpt>
      <trkpt lat="42.6935988944" lon="20.1624462102">
        <ele>1054.70</ele>
        <time>2019-07-11T09:32:13Z</time>
      </trkpt>
      <trkpt lat="42.6936203521" lon="20.1624172088">
        <ele>1053.74</ele>
        <time>2019-07-11T09:32:15Z</time>
      </trkpt>
      <trkpt lat="42.6936983876" lon="20.1622913126">
        <ele>1050.38</ele>
        <time>2019-07-11T09:32:25Z</time>
      </trkpt>
      <trkpt lat="42.6937249582" lon="20.1622214075">
        <ele>1047.01</ele>
        <time>2019-07-11T09:32:33Z</time>
      </trkpt>
      <trkpt lat="42.6937350165" lon="20.1622152049">
        <ele>1047.01</ele>
        <time>2019-07-11T09:32:34Z</time>
      </trkpt>
      <trkpt lat="42.6937790215" lon="20.1621269435">
        <ele>1043.65</ele>
        <time>2019-07-11T09:32:41Z</time>
      </trkpt>
      <trkpt lat="42.6938543748" lon="20.1620442141">
        <ele>1041.25</ele>
        <time>2019-07-11T09:32:52Z</time>
      </trkpt>
      <trkpt lat="42.6938607451" lon="20.1620090939">
        <ele>1040.28</ele>
        <time>2019-07-11T09:32:54Z</time>
      </trkpt>
      <trkpt lat="42.6938748267" lon="20.1619668491">
        <ele>1037.88</ele>
        <time>2019-07-11T09:32:59Z</time>
      </trkpt>
      <trkpt lat="42.6938931830" lon="20.1619241852">
        <ele>1036.44</ele>
        <time>2019-07-11T09:33:02Z</time>
      </trkpt>
      <trkpt lat="42.6939361822" lon="20.1617101952">
        <ele>1033.55</ele>
        <time>2019-07-11T09:33:12Z</time>
      </trkpt>
      <trkpt lat="42.6939519402" lon="20.1615874004">
        <ele>1032.11</ele>
        <time>2019-07-11T09:33:17Z</time>
      </trkpt>
      <trkpt lat="42.6939600706" lon="20.1614441536">
        <ele>1030.67</ele>
        <time>2019-07-11T09:33:27Z</time>
      </trkpt>
      <trkpt lat="42.6939824503" lon="20.1613090374">
        <ele>1026.83</ele>
        <time>2019-07-11T09:33:38Z</time>
      </trkpt>
      <trkpt lat="42.6939931791" lon="20.1612491906">
        <ele>1025.38</ele>
        <time>2019-07-11T09:33:44Z</time>
      </trkpt>
      <trkpt lat="42.6940016448" lon="20.1612122264">
        <ele>1024.90</ele>
        <time>2019-07-11T09:33:46Z</time>
      </trkpt>
      <trkpt lat="42.6940514334" lon="20.1610813849">
        <ele>1022.50</ele>
        <time>2019-07-11T09:33:53Z</time>
      </trkpt>
      <trkpt lat="42.6941350847" lon="20.1610211190">
        <ele>1017.69</ele>
        <time>2019-07-11T09:34:04Z</time>
      </trkpt>
      <trkpt lat="42.6941441372" lon="20.1610369608">
        <ele>1017.69</ele>
        <time>2019-07-11T09:34:05Z</time>
      </trkpt>
      <trkpt lat="42.6942053251" lon="20.1611237973">
        <ele>1013.85</ele>
        <time>2019-07-11T09:34:13Z</time>
      </trkpt>
      <trkpt lat="42.6942170598" lon="20.1612881664">
        <ele>1010.48</ele>
        <time>2019-07-11T09:34:22Z</time>
      </trkpt>
      <trkpt lat="42.6942391042" lon="20.1614808664">
        <ele>1007.60</ele>
        <time>2019-07-11T09:34:33Z</time>
      </trkpt>
      <trkpt lat="42.6942878868" lon="20.1615641825">
        <ele>1004.72</ele>
        <time>2019-07-11T09:34:42Z</time>
      </trkpt>
      <trkpt lat="42.6943173073" lon="20.1615791861">
        <ele>1003.75</ele>
        <time>2019-07-11T09:34:44Z</time>
      </trkpt>
      <trkpt lat="42.6944184769" lon="20.1617134642">
        <ele>1001.35</ele>
        <time>2019-07-11T09:34:56Z</time>
      </trkpt>
      <trkpt lat="42.6944917347" lon="20.1617236901">
        <ele>997.99</ele>
        <time>2019-07-11T09:35:05Z</time>
      </trkpt>
      <trkpt lat="42.6944965124" lon="20.1617238577">
        <ele>997.99</ele>
        <time>2019-07-11T09:35:06Z</time>
      </trkpt>
      <trkpt lat="42.6945903059" lon="20.1616376918">
        <ele>993.66</ele>
        <time>2019-07-11T09:35:18Z</time>
      </trkpt>
      <trkpt lat="42.6946933195" lon="20.1615021564">
        <ele>991.74</ele>
        <time>2019-07-11T09:35:31Z</time>
      </trkpt>
      <trkpt lat="42.6947759651" lon="20.1614174154">
        <ele>988.37</ele>
        <time>2019-07-11T09:35:40Z</time>
      </trkpt>
      <trkpt lat="42.6947802398" lon="20.1614124700">
        <ele>988.37</ele>
        <time>2019-07-11T09:35:41Z</time>
      </trkpt>
      <trkpt lat="42.6948665734" lon="20.1612912677">
        <ele>985.01</ele>
        <time>2019-07-11T09:35:53Z</time>
      </trkpt>
      <trkpt lat="42.6949338801" lon="20.1612288225">
        <ele>982.12</ele>
        <time>2019-07-11T09:36:05Z</time>
      </trkpt>
      <trkpt lat="42.6950112451" lon="20.1611228753">
        <ele>979.72</ele>
        <time>2019-07-11T09:36:19Z</time>
      </trkpt>
      <trkpt lat="42.6950591896" lon="20.1610809658">
        <ele>976.84</ele>
        <time>2019-07-11T09:36:28Z</time>
      </trkpt>
      <trkpt lat="42.6950798929" lon="20.1610554848">
        <ele>975.88</ele>
        <time>2019-07-11T09:36:30Z</time>
      </trkpt>
      <trkpt lat="42.6951100677" lon="20.1608895231">
        <ele>972.51</ele>
        <time>2019-07-11T09:36:43Z</time>
      </trkpt>
      <trkpt lat="42.6951709203" lon="20.1608430035">
        <ele>968.67</ele>
        <time>2019-07-11T09:36:52Z</time>
      </trkpt>
      <trkpt lat="42.6951694116" lon="20.1608323585">
        <ele>968.67</ele>
        <time>2019-07-11T09:36:53Z</time>
      </trkpt>
      <trkpt lat="42.6951703336" lon="20.1607774571">
        <ele>967.22</ele>
        <time>2019-07-11T09:36:57Z</time>
      </trkpt>
      <trkpt lat="42.6952025201" lon="20.1606673189">
        <ele>963.86</ele>
        <time>2019-07-11T09:37:04Z</time>
      </trkpt>
      <trkpt lat="42.6951964851" lon="20.1606103219">
        <ele>962.42</ele>
        <time>2019-07-11T09:37:08Z</time>
      </trkpt>
      <trkpt lat="42.6952108182" lon="20.1605088171">
        <ele>959.05</ele>
        <time>2019-07-11T09:37:15Z</time>
      </trkpt>
      <trkpt lat="42.6951982453" lon="20.1604120061">
        <ele>955.69</ele>
        <time>2019-07-11T09:37:25Z</time>
      </trkpt>
      <trkpt lat="42.6951856725" lon="20.1603726950">
        <ele>955.21</ele>
        <time>2019-07-11T09:37:30Z</time>
      </trkpt>
      <trkpt lat="42.6951954793" lon="20.1602896303">
        <ele>951.84</ele>
        <time>2019-07-11T09:37:37Z</time>
      </trkpt>
      <trkpt lat="42.6952297613" lon="20.1602294482">
        <ele>948.48</ele>
        <time>2019-07-11T09:37:46Z</time>
      </trkpt>
      <trkpt lat="42.6952342037" lon="20.1601544302">
        <ele>947.04</ele>
        <time>2019-07-11T09:37:55Z</time>
      </trkpt>
      <trkpt lat="42.6952503808" lon="20.1600849442">
        <ele>944.15</ele>
        <time>2019-07-11T09:38:00Z</time>
      </trkpt>
      <trkpt lat="42.6952546556" lon="20.1599490736">
        <ele>940.79</ele>
        <time>2019-07-11T09:38:09Z</time>
      </trkpt>
      <trkpt lat="42.6952927932" lon="20.1599449664">
        <ele>937.42</ele>
        <time>2019-07-11T09:38:16Z</time>
      </trkpt>
      <trkpt lat="42.6953930408" lon="20.1600502431">
        <ele>934.06</ele>
        <time>2019-07-11T09:38:27Z</time>
      </trkpt>
      <trkpt lat="42.6954155043" lon="20.1600539312">
        <ele>933.10</ele>
        <time>2019-07-11T09:38:31Z</time>
      </trkpt>
      <trkpt lat="42.6954600122" lon="20.1601292845">
        <ele>930.69</ele>
        <time>2019-07-11T09:38:46Z</time>
      </trkpt>
      <trkpt lat="42.6955037657" lon="20.1601879578">
        <ele>928.29</ele>
        <time>2019-07-11T09:38:59Z</time>
      </trkpt>
      <trkpt lat="42.6955617685" lon="20.1602560189">
        <ele>926.37</ele>
        <time>2019-07-11T09:39:11Z</time>
      </trkpt>
      <trkpt lat="42.6955740899" lon="20.1602805778">
        <ele>925.41</ele>
        <time>2019-07-11T09:39:14Z</time>
      </trkpt>
      <trkpt lat="42.6956210285" lon="20.1604012772">
        <ele>922.52</ele>
        <time>2019-07-11T09:39:25Z</time>
      </trkpt>
      <trkpt lat="42.6956582442" lon="20.1604642253">
        <ele>919.64</ele>
        <time>2019-07-11T09:39:37Z</time>
      </trkpt>
      <trkpt lat="42.6957261376" lon="20.1604688354">
        <ele>916.75</ele>
        <time>2019-07-11T09:39:52Z</time>
      </trkpt>
      <trkpt lat="42.6957553066" lon="20.1605055481">
        <ele>916.75</ele>
        <time>2019-07-11T09:40:05Z</time>
      </trkpt>
      <trkpt lat="42.6958133094" lon="20.1605309453">
        <ele>916.75</ele>
        <time>2019-07-11T09:40:21Z</time>
      </trkpt>
      <trkpt lat="42.6959221903" lon="20.1605879422">
        <ele>916.75</ele>
        <time>2019-07-11T09:40:37Z</time>
      </trkpt>
      <trkpt lat="42.6959485933" lon="20.1607176103">
        <ele>916.75</ele>
        <time>2019-07-11T09:40:52Z</time>
      </trkpt>
      <trkpt lat="42.6960232761" lon="20.1607808936">
        <ele>916.27</ele>
        <time>2019-07-11T09:41:05Z</time>
      </trkpt>
      <trkpt lat="42.6960575581" lon="20.1607980765">
        <ele>916.27</ele>
        <time>2019-07-11T09:41:23Z</time>
      </trkpt>
      <trkpt lat="42.6960949413" lon="20.1608108170">
        <ele>915.31</ele>
        <time>2019-07-11T09:41:39Z</time>
      </trkpt>
      <trkpt lat="42.6960731484" lon="20.1607911196">
        <ele>915.31</ele>
        <time>2019-07-11T09:42:03Z</time>
      </trkpt>
      <trkpt lat="42.6960558817" lon="20.1607764512">
        <ele>915.31</ele>
        <time>2019-07-11T09:42:26Z</time>
      </trkpt>
      <trkpt lat="42.6959988009" lon="20.1608283352">
        <ele>915.31</ele>
        <time>2019-07-11T09:42:56Z</time>
      </trkpt>
      <trkpt lat="42.6960386988" lon="20.1608154271">
        <ele>914.83</ele>
        <time>2019-07-11T09:43:29Z</time>
      </trkpt>
      <trkpt lat="42.6960399561" lon="20.1607910357">
        <ele>914.83</ele>
        <time>2019-07-11T09:44:08Z</time>
      </trkpt>
      <trkpt lat="42.6960643474" lon="20.1607958972">
        <ele>914.35</ele>
        <time>2019-07-11T09:44:42Z</time>
      </trkpt>
      <trkpt lat="42.6960703824" lon="20.1607978251">
        <ele>914.35</ele>
        <time>2019-07-11T09:45:12Z</time>
      </trkpt>
      <trkpt lat="42.6961095259" lon="20.1607933827">
        <ele>913.87</ele>
        <time>2019-07-11T09:45:45Z</time>
      </trkpt>
      <trkpt lat="42.6961083524" lon="20.1607767865">
        <ele>913.87</ele>
        <time>2019-07-11T09:46:18Z</time>
      </trkpt>
      <trkpt lat="42.6960713882" lon="20.1608100627">
        <ele>913.39</ele>
        <time>2019-07-11T09:46:51Z</time>
      </trkpt>
      <trkpt lat="42.6960486732" lon="20.1607895270">
        <ele>913.39</ele>
        <time>2019-07-11T09:47:26Z</time>
      </trkpt>
      <trkpt lat="42.6960606594" lon="20.1608213782">
        <ele>912.91</ele>
        <time>2019-07-11T09:48:01Z</time>
      </trkpt>
      <trkpt lat="42.6960286405" lon="20.1607955620">
        <ele>912.43</ele>
        <time>2019-07-11T09:48:37Z</time>
      </trkpt>
      <trkpt lat="42.6961249486" lon="20.1609062031">
        <ele>912.43</ele>
        <time>2019-07-11T09:49:13Z</time>
      </trkpt>
      <trkpt lat="42.6960953604" lon="20.1608356275">
        <ele>912.43</ele>
        <time>2019-07-11T09:49:52Z</time>
      </trkpt>
      <trkpt lat="42.6960614976" lon="20.1607746072">
        <ele>911.95</ele>
        <time>2019-07-11T09:50:27Z</time>
      </trkpt>
      <trkpt lat="42.6960397884" lon="20.1608262397">
        <ele>911.95</ele>
        <time>2019-07-11T09:51:07Z</time>
      </trkpt>
      <trkpt lat="42.6960237790" lon="20.1607958972">
        <ele>912.43</ele>
        <time>2019-07-11T09:51:37Z</time>
      </trkpt>
      <trkpt lat="42.6960310712" lon="20.1608043630">
        <ele>912.43</ele>
        <time>2019-07-11T09:52:11Z</time>
      </trkpt>
      <trkpt lat="42.6960279699" lon="20.1607825700">
        <ele>912.43</ele>
        <time>2019-07-11T09:52:49Z</time>
      </trkpt>
      <trkpt lat="42.6960577257" lon="20.1608023513">
        <ele>912.43</ele>
        <time>2019-07-11T09:53:28Z</time>
      </trkpt>
      <trkpt lat="42.6959420554" lon="20.1607635431">
        <ele>912.43</ele>
        <time>2019-07-11T09:54:03Z</time>
      </trkpt>
      <trkpt lat="42.6959607471" lon="20.1607736014">
        <ele>912.43</ele>
        <time>2019-07-11T09:54:31Z</time>
      </trkpt>
      <trkpt lat="42.6960202586" lon="20.1607921254">
        <ele>912.43</ele>
        <time>2019-07-11T09:55:14Z</time>
      </trkpt>
      <trkpt lat="42.6960578095" lon="20.1608045306">
        <ele>913.87</ele>
        <time>2019-07-11T09:55:52Z</time>
      </trkpt>
      <trkpt lat="42.6961026527" lon="20.1608420815">
        <ele>913.87</ele>
        <time>2019-07-11T09:56:21Z</time>
      </trkpt>
      <trkpt lat="42.6960374415" lon="20.1607703324">
        <ele>913.87</ele>
        <time>2019-07-11T09:57:01Z</time>
      </trkpt>
      <trkpt lat="42.6960645150" lon="20.1607868448">
        <ele>913.39</ele>
        <time>2019-07-11T09:57:37Z</time>
      </trkpt>
      <trkpt lat="42.6960024051" lon="20.1607563347">
        <ele>913.39</ele>
        <time>2019-07-11T09:58:07Z</time>
      </trkpt>
      <trkpt lat="42.6960284729" lon="20.1607453544">
        <ele>913.39</ele>
        <time>2019-07-11T09:58:37Z</time>
      </trkpt>
      <trkpt lat="42.6960332505" lon="20.1607417502">
        <ele>913.39</ele>
        <time>2019-07-11T09:59:18Z</time>
      </trkpt>
      <trkpt lat="42.6960775070" lon="20.1607786305">
        <ele>913.39</ele>
        <time>2019-07-11T09:59:52Z</time>
      </trkpt>
      <trkpt lat="42.6960597374" lon="20.1607926283">
        <ele>913.39</ele>
        <time>2019-07-11T10:00:20Z</time>
      </trkpt>
      <trkpt lat="42.6960859727" lon="20.1608173549">
        <ele>913.39</ele>
        <time>2019-07-11T10:00:51Z</time>
      </trkpt>
      <trkpt lat="42.6960950252" lon="20.1608050335">
        <ele>912.91</ele>
        <time>2019-07-11T10:01:26Z</time>
      </trkpt>
      <trkpt lat="42.6960941032" lon="20.1607790496">
        <ele>912.91</ele>
        <time>2019-07-11T10:02:02Z</time>
      </trkpt>
      <trkpt lat="42.6961209252" lon="20.1607744396">
        <ele>912.91</ele>
        <time>2019-07-11T10:02:40Z</time>
      </trkpt>
      <trkpt lat="42.6961357612" lon="20.1607868448">
        <ele>913.39</ele>
        <time>2019-07-11T10:03:06Z</time>
      </trkpt>
      <trkpt lat="42.6960899122" lon="20.1607844140">
        <ele>913.87</ele>
        <time>2019-07-11T10:03:35Z</time>
      </trkpt>
      <trkpt lat="42.6961048320" lon="20.1607893594">
        <ele>913.87</ele>
        <time>2019-07-11T10:04:10Z</time>
      </trkpt>
      <trkpt lat="42.6961206738" lon="20.1607901137">
        <ele>913.39</ele>
        <time>2019-07-11T10:04:41Z</time>
      </trkpt>
      <trkpt lat="42.6961509325" lon="20.1607298478">
        <ele>913.39</ele>
        <time>2019-07-11T10:05:14Z</time>
      </trkpt>
      <trkpt lat="42.6961365994" lon="20.1607142575">
        <ele>914.35</ele>
        <time>2019-07-11T10:05:50Z</time>
      </trkpt>
      <trkpt lat="42.6961664390" lon="20.1606614515">
        <ele>914.35</ele>
        <time>2019-07-11T10:06:26Z</time>
      </trkpt>
      <trkpt lat="42.6961399522" lon="20.1606814004">
        <ele>914.35</ele>
        <time>2019-07-11T10:06:55Z</time>
      </trkpt>
      <trkpt lat="42.6961585600" lon="20.1606784668">
        <ele>914.83</ele>
        <time>2019-07-11T10:07:24Z</time>
      </trkpt>
      <trkpt lat="42.6961798500" lon="20.1607842464">
        <ele>915.31</ele>
        <time>2019-07-11T10:07:54Z</time>
      </trkpt>
      <trkpt lat="42.6961275470" lon="20.1607436780">
        <ele>915.31</ele>
        <time>2019-07-11T10:08:34Z</time>
      </trkpt>
      <trkpt lat="42.6961462386" lon="20.1607474498">
        <ele>915.31</ele>
        <time>2019-07-11T10:09:08Z</time>
      </trkpt>
      <trkpt lat="42.6961331628" lon="20.1607906166">
        <ele>915.31</ele>
        <time>2019-07-11T10:09:42Z</time>
      </trkpt>
      <trkpt lat="42.6961023174" lon="20.1608108170">
        <ele>915.79</ele>
        <time>2019-07-11T10:10:27Z</time>
      </trkpt>
      <trkpt lat="42.6960936002" lon="20.1607851684">
        <ele>916.27</ele>
        <time>2019-07-11T10:11:03Z</time>
      </trkpt>
      <trkpt lat="42.6961233560" lon="20.1608191989">
        <ele>916.27</ele>
        <time>2019-07-11T10:11:34Z</time>
      </trkpt>
      <trkpt lat="42.6961280499" lon="20.1607741881">
        <ele>915.79</ele>
        <time>2019-07-11T10:12:01Z</time>
      </trkpt>
      <trkpt lat="42.6961241942" lon="20.1608129125">
        <ele>915.79</ele>
        <time>2019-07-11T10:12:35Z</time>
      </trkpt>
      <trkpt lat="42.6961083524" lon="20.1607889403">
        <ele>915.79</ele>
        <time>2019-07-11T10:13:01Z</time>
      </trkpt>
      <trkpt lat="42.6961277984" lon="20.1607967354">
        <ele>915.79</ele>
        <time>2019-07-11T10:13:34Z</time>
      </trkpt>
      <trkpt lat="42.6961060893" lon="20.1607789658">
        <ele>915.79</ele>
        <time>2019-07-11T10:14:10Z</time>
      </trkpt>
      <trkpt lat="42.6961100288" lon="20.1607773732">
        <ele>915.79</ele>
        <time>2019-07-11T10:14:34Z</time>
      </trkpt>
      <trkpt lat="42.6961283851" lon="20.1607933827">
        <ele>915.79</ele>
        <time>2019-07-11T10:15:06Z</time>
      </trkpt>
      <trkpt lat="42.6961453166" lon="20.1608174387">
        <ele>915.79</ele>
        <time>2019-07-11T10:15:29Z</time>
      </trkpt>
      <trkpt lat="42.6961751562" lon="20.1607653871">
        <ele>915.79</ele>
        <time>2019-07-11T10:16:01Z</time>
      </trkpt>
      <trkpt lat="42.6961518545" lon="20.1607642975">
        <ele>915.79</ele>
        <time>2019-07-11T10:16:44Z</time>
      </trkpt>
      <trkpt lat="42.6961283013" lon="20.1607684046">
        <ele>915.79</ele>
        <time>2019-07-11T10:17:10Z</time>
      </trkpt>
      <trkpt lat="42.6961166505" lon="20.1607702486">
        <ele>915.79</ele>
        <time>2019-07-11T10:17:37Z</time>
      </trkpt>
      <trkpt lat="42.6961267926" lon="20.1607725117">
        <ele>915.79</ele>
        <time>2019-07-11T10:18:13Z</time>
      </trkpt>
      <trkpt lat="42.6961386111" lon="20.1608056203">
        <ele>915.79</ele>
        <time>2019-07-11T10:18:37Z</time>
      </trkpt>
      <trkpt lat="42.6961722225" lon="20.1608788781">
        <ele>915.79</ele>
        <time>2019-07-11T10:19:08Z</time>
      </trkpt>
      <trkpt lat="42.6961396169" lon="20.1608254015">
        <ele>916.27</ele>
        <time>2019-07-11T10:19:32Z</time>
      </trkpt>
      <trkpt lat="42.6961446460" lon="20.1608311851">
        <ele>916.27</ele>
        <time>2019-07-11T10:20:02Z</time>
      </trkpt>
      <trkpt lat="42.6961480826" lon="20.1608000882">
        <ele>916.27</ele>
        <time>2019-07-11T10:20:37Z</time>
      </trkpt>
      <trkpt lat="42.6961324923" lon="20.1607345417">
        <ele>916.27</ele>
        <time>2019-07-11T10:21:04Z</time>
      </trkpt>
      <trkpt lat="42.6961456519" lon="20.1607231423">
        <ele>916.75</ele>
        <time>2019-07-11T10:21:42Z</time>
      </trkpt>
      <trkpt lat="42.6962119527" lon="20.1607943047">
        <ele>916.75</ele>
        <time>2019-07-11T10:22:17Z</time>
      </trkpt>
      <trkpt lat="42.6962127071" lon="20.1608103979">
        <ele>917.24</ele>
        <time>2019-07-11T10:22:39Z</time>
      </trkpt>
      <trkpt lat="42.6961812750" lon="20.1607870124">
        <ele>917.72</ele>
        <time>2019-07-11T10:23:11Z</time>
      </trkpt>
      <trkpt lat="42.6961776707" lon="20.1607728470">
        <ele>917.72</ele>
        <time>2019-07-11T10:23:38Z</time>
      </trkpt>
      <trkpt lat="42.6961666904" lon="20.1607888564">
        <ele>918.20</ele>
        <time>2019-07-11T10:24:04Z</time>
      </trkpt>
      <trkpt lat="42.6962184906" lon="20.1608224679">
        <ele>918.20</ele>
        <time>2019-07-11T10:24:37Z</time>
      </trkpt>
      <trkpt lat="42.6961754076" lon="20.1608217135">
        <ele>918.68</ele>
        <time>2019-07-11T10:25:01Z</time>
      </trkpt>
      <trkpt lat="42.6961812750" lon="20.1607710868">
        <ele>918.68</ele>
        <time>2019-07-11T10:25:24Z</time>
      </trkpt>
      <trkpt lat="42.6962098572" lon="20.1607836597">
        <ele>918.68</ele>
        <time>2019-07-11T10:25:42Z</time>
      </trkpt>
      <trkpt lat="42.6962345839" lon="20.1608212106">
        <ele>918.68</ele>
        <time>2019-07-11T10:26:11Z</time>
      </trkpt>
      <trkpt lat="42.6962064207" lon="20.1607849170">
        <ele>918.68</ele>
        <time>2019-07-11T10:26:42Z</time>
      </trkpt>
      <trkpt lat="42.6961713005" lon="20.1607676502">
        <ele>918.68</ele>
        <time>2019-07-11T10:27:15Z</time>
      </trkpt>
      <trkpt lat="42.6961364318" lon="20.1607539039">
        <ele>918.68</ele>
        <time>2019-07-11T10:27:50Z</time>
      </trkpt>
      <trkpt lat="42.6961558778" lon="20.1607845817">
        <ele>919.16</ele>
        <time>2019-07-11T10:28:20Z</time>
      </trkpt>
      <trkpt lat="42.6962450612" lon="20.1608489547">
        <ele>919.16</ele>
        <time>2019-07-11T10:28:53Z</time>
      </trkpt>
      <trkpt lat="42.6966735441" lon="20.1609459333">
        <ele>919.64</ele>
        <time>2019-07-11T10:29:22Z</time>
      </trkpt>
      <trkpt lat="42.6967126038" lon="20.1609707437">
        <ele>920.12</ele>
        <time>2019-07-11T10:29:50Z</time>
      </trkpt>
      <trkpt lat="42.6966714486" lon="20.1609081309">
        <ele>920.60</ele>
        <time>2019-07-11T10:30:20Z</time>
      </trkpt>
      <trkpt lat="42.6966465544" lon="20.1609331928">
        <ele>921.56</ele>
        <time>2019-07-11T10:30:48Z</time>
      </trkpt>
      <trkpt lat="42.6966675930" lon="20.1608668920">
        <ele>922.04</ele>
        <time>2019-07-11T10:31:20Z</time>
      </trkpt>
      <trkpt lat="42.6966974325" lon="20.1608407404">
        <ele>922.52</ele>
        <time>2019-07-11T10:31:47Z</time>
      </trkpt>
      <trkpt lat="42.6967141125" lon="20.1608039439">
        <ele>923.00</ele>
        <time>2019-07-11T10:32:19Z</time>
      </trkpt>
      <trkpt lat="42.6967072394" lon="20.1609041076">
        <ele>923.96</ele>
        <time>2019-07-11T10:32:46Z</time>
      </trkpt>
      <trkpt lat="42.6967135258" lon="20.1608298440">
        <ele>925.41</ele>
        <time>2019-07-11T10:33:21Z</time>
      </trkpt>
      <trkpt lat="42.6968458761" lon="20.1609180216">
        <ele>926.37</ele>
        <time>2019-07-11T10:33:55Z</time>
      </trkpt>
      <trkpt lat="42.6968983468" lon="20.1609266549">
        <ele>926.85</ele>
        <time>2019-07-11T10:34:16Z</time>
      </trkpt>
      <trkpt lat="42.6969683357" lon="20.1609366294">
        <ele>927.81</ele>
        <time>2019-07-11T10:34:41Z</time>
      </trkpt>
      <trkpt lat="42.6969576906" lon="20.1608677302">
        <ele>929.25</ele>
        <time>2019-07-11T10:35:16Z</time>
      </trkpt>
      <trkpt lat="42.6969518233" lon="20.1609489508">
        <ele>930.69</ele>
        <time>2019-07-11T10:35:47Z</time>
      </trkpt>
      <trkpt lat="42.6969682518" lon="20.1609701570">
        <ele>931.17</ele>
        <time>2019-07-11T10:36:16Z</time>
      </trkpt>
      <trkpt lat="42.6969119254" lon="20.1610104740">
        <ele>931.17</ele>
        <time>2019-07-11T10:36:44Z</time>
      </trkpt>
      <trkpt lat="42.6968291122" lon="20.1609495375">
        <ele>931.17</ele>
        <time>2019-07-11T10:37:12Z</time>
      </trkpt>
      <trkpt lat="42.6968573593" lon="20.1608880982">
        <ele>932.14</ele>
        <time>2019-07-11T10:37:42Z</time>
      </trkpt>
      <trkpt lat="42.6968515757" lon="20.1607745234">
        <ele>932.14</ele>
        <time>2019-07-11T10:38:11Z</time>
      </trkpt>
      <trkpt lat="42.6968801580" lon="20.1608195342">
        <ele>932.62</ele>
        <time>2019-07-11T10:38:38Z</time>
      </trkpt>
      <trkpt lat="42.6970528252" lon="20.1610304229">
        <ele>934.06</ele>
        <time>2019-07-11T10:39:05Z</time>
      </trkpt>
      <trkpt lat="42.6971382368" lon="20.1610728353">
        <ele>934.54</ele>
        <time>2019-07-11T10:39:36Z</time>
      </trkpt>
      <trkpt lat="42.6971191261" lon="20.1611352805">
        <ele>936.46</ele>
        <time>2019-07-11T10:40:12Z</time>
      </trkpt>
      <trkpt lat="42.6971125882" lon="20.1611170080">
        <ele>937.90</ele>
        <time>2019-07-11T10:40:44Z</time>
      </trkpt>
      <trkpt lat="42.6970943995" lon="20.1610225439">
        <ele>938.38</ele>
        <time>2019-07-11T10:41:23Z</time>
      </trkpt>
      <trkpt lat="42.6971177850" lon="20.1610796247">
        <ele>938.86</ele>
        <time>2019-07-11T10:41:47Z</time>
      </trkpt>
      <trkpt lat="42.6972311083" lon="20.1612016652">
        <ele>940.31</ele>
        <time>2019-07-11T10:42:24Z</time>
      </trkpt>
      <trkpt lat="42.6972580981" lon="20.1612293255">
        <ele>941.75</ele>
        <time>2019-07-11T10:42:55Z</time>
      </trkpt>
      <trkpt lat="42.6972844172" lon="20.1612237096">
        <ele>944.15</ele>
        <time>2019-07-11T10:43:39Z</time>
      </trkpt>
      <trkpt lat="42.6973517239" lon="20.1612851489">
        <ele>946.07</ele>
        <time>2019-07-11T10:44:13Z</time>
      </trkpt>
      <trkpt lat="42.6973645482" lon="20.1612431556">
        <ele>948.48</ele>
        <time>2019-07-11T10:44:51Z</time>
      </trkpt>
      <trkpt lat="42.6972808130" lon="20.1612089574">
        <ele>949.92</ele>
        <time>2019-07-11T10:45:34Z</time>
      </trkpt>
      <trkpt lat="42.6973197889" lon="20.1612579916">
        <ele>950.88</ele>
        <time>2019-07-11T10:46:05Z</time>
      </trkpt>
      <trkpt lat="42.6973912865" lon="20.1612605900">
        <ele>951.84</ele>
        <time>2019-07-11T10:46:31Z</time>
      </trkpt>
      <trkpt lat="42.6972503867" lon="20.1612097956">
        <ele>953.28</ele>
        <time>2019-07-11T10:47:01Z</time>
      </trkpt>
      <trkpt lat="42.6971083973" lon="20.1611707360">
        <ele>954.73</ele>
        <time>2019-07-11T10:47:29Z</time>
      </trkpt>
      <trkpt lat="42.6969586965" lon="20.1608975697">
        <ele>955.69</ele>
        <time>2019-07-11T10:47:52Z</time>
      </trkpt>
      <trkpt lat="42.6968677528" lon="20.1608723402">
        <ele>957.61</ele>
        <time>2019-07-11T10:48:30Z</time>
      </trkpt>
      <trkpt lat="42.6968792360" lon="20.1611356158">
        <ele>958.57</ele>
        <time>2019-07-11T10:48:57Z</time>
      </trkpt>
      <trkpt lat="42.6968177967" lon="20.1611134037">
        <ele>959.53</ele>
        <time>2019-07-11T10:49:21Z</time>
      </trkpt>
      <trkpt lat="42.6968528330" lon="20.1610916108">
        <ele>960.49</ele>
        <time>2019-07-11T10:49:46Z</time>
      </trkpt>
      <trkpt lat="42.6969880331" lon="20.1610456780">
        <ele>961.94</ele>
        <time>2019-07-11T10:50:21Z</time>
      </trkpt>
      <trkpt lat="42.6969607919" lon="20.1609950513">
        <ele>962.90</ele>
        <time>2019-07-11T10:50:52Z</time>
      </trkpt>
      <trkpt lat="42.6968989335" lon="20.1609227154">
        <ele>963.86</ele>
        <time>2019-07-11T10:51:16Z</time>
      </trkpt>
      <trkpt lat="42.6967420243" lon="20.1608056203">
        <ele>964.82</ele>
        <time>2019-07-11T10:51:48Z</time>
      </trkpt>
      <trkpt lat="42.6966755558" lon="20.1607353799">
        <ele>965.78</ele>
        <time>2019-07-11T10:52:10Z</time>
      </trkpt>
      <trkpt lat="42.6966017112" lon="20.1605238207">
        <ele>966.74</ele>
        <time>2019-07-11T10:52:36Z</time>
      </trkpt>
      <trkpt lat="42.6965339854" lon="20.1605218090">
        <ele>966.74</ele>
        <time>2019-07-11T10:52:54Z</time>
      </trkpt>
      <trkpt lat="42.6966169663" lon="20.1605590247">
        <ele>968.18</ele>
        <time>2019-07-11T10:53:21Z</time>
      </trkpt>
      <trkpt lat="42.6966183074" lon="20.1605646405">
        <ele>968.18</ele>
        <time>2019-07-11T10:53:44Z</time>
      </trkpt>
      <trkpt lat="42.6965678483" lon="20.1605917979">
        <ele>968.67</ele>
        <time>2019-07-11T10:54:04Z</time>
      </trkpt>
      <trkpt lat="42.6962667704" lon="20.1607972383">
        <ele>968.67</ele>
        <time>2019-07-11T10:54:38Z</time>
      </trkpt>
      <trkpt lat="42.6962262858" lon="20.1607593521">
        <ele>968.67</ele>
        <time>2019-07-11T10:55:00Z</time>
      </trkpt>
      <trkpt lat="42.6962211728" lon="20.1607189514">
        <ele>968.67</ele>
        <time>2019-07-11T10:55:27Z</time>
      </trkpt>
      <trkpt lat="42.6962013915" lon="20.1607171912">
        <ele>968.18</ele>
        <time>2019-07-11T10:55:45Z</time>
      </trkpt>
      <trkpt lat="42.6961547043" lon="20.1607275009">
        <ele>967.70</ele>
        <time>2019-07-11T10:56:11Z</time>
      </trkpt>
      <trkpt lat="42.6961227693" lon="20.1607658900">
        <ele>967.70</ele>
        <time>2019-07-11T10:56:27Z</time>
      </trkpt>
      <trkpt lat="42.6961365156" lon="20.1607901137">
        <ele>967.22</ele>
        <time>2019-07-11T10:56:57Z</time>
      </trkpt>
      <trkpt lat="42.6961294748" lon="20.1607931312">
        <ele>966.26</ele>
        <time>2019-07-11T10:57:28Z</time>
      </trkpt>
      <trkpt lat="42.6961145550" lon="20.1608344540">
        <ele>965.78</ele>
        <time>2019-07-11T10:57:54Z</time>
      </trkpt>
      <trkpt lat="42.6961334981" lon="20.1607591007">
        <ele>964.82</ele>
        <time>2019-07-11T10:58:27Z</time>
      </trkpt>
      <trkpt lat="42.6960811950" lon="20.1607534848">
        <ele>963.86</ele>
        <time>2019-07-11T10:58:56Z</time>
      </trkpt>
      <trkpt lat="42.6960732322" lon="20.1607623696">
        <ele>962.90</ele>
        <time>2019-07-11T10:59:19Z</time>
      </trkpt>
      <trkpt lat="42.6960629225" lon="20.1607473660">
        <ele>962.42</ele>
        <time>2019-07-11T10:59:41Z</time>
      </trkpt>
      <trkpt lat="42.6960858051" lon="20.1607705001">
        <ele>961.94</ele>
        <time>2019-07-11T11:00:12Z</time>
      </trkpt>
      <trkpt lat="42.6960934326" lon="20.1607176103">
        <ele>961.46</ele>
        <time>2019-07-11T11:00:40Z</time>
      </trkpt>
      <trkpt lat="42.6960964501" lon="20.1607434265">
        <ele>960.49</ele>
        <time>2019-07-11T11:01:09Z</time>
      </trkpt>
      <trkpt lat="42.6961147226" lon="20.1607892755">
        <ele>960.01</ele>
        <time>2019-07-11T11:01:32Z</time>
      </trkpt>
      <trkpt lat="42.6961006410" lon="20.1607276686">
        <ele>959.53</ele>
        <time>2019-07-11T11:02:04Z</time>
      </trkpt>
      <trkpt lat="42.6961324923" lon="20.1607573405">
        <ele>959.05</ele>
        <time>2019-07-11T11:02:31Z</time>
      </trkpt>
      <trkpt lat="42.6961272955" lon="20.1607210469">
        <ele>958.57</ele>
        <time>2019-07-11T11:02:51Z</time>
      </trkpt>
      <trkpt lat="42.6961333305" lon="20.1607529819">
        <ele>958.09</ele>
        <time>2019-07-11T11:03:16Z</time>
      </trkpt>
      <trkpt lat="42.6961330790" lon="20.1607684884">
        <ele>957.61</ele>
        <time>2019-07-11T11:03:44Z</time>
      </trkpt>
      <trkpt lat="42.6961304806" lon="20.1607601903">
        <ele>957.13</ele>
        <time>2019-07-11T11:04:16Z</time>
      </trkpt>
      <trkpt lat="42.6960820332" lon="20.1608308498">
        <ele>956.65</ele>
        <time>2019-07-11T11:04:35Z</time>
      </trkpt>
      <trkpt lat="42.6961021498" lon="20.1607873477">
        <ele>956.17</ele>
        <time>2019-07-11T11:05:00Z</time>
      </trkpt>
      <trkpt lat="42.6960826200" lon="20.1608098112">
        <ele>955.69</ele>
        <time>2019-07-11T11:05:37Z</time>
      </trkpt>
      <trkpt lat="42.6960665267" lon="20.1608077157">
        <ele>955.21</ele>
        <time>2019-07-11T11:06:04Z</time>
      </trkpt>
      <trkpt lat="42.6961010601" lon="20.1607855037">
        <ele>954.73</ele>
        <time>2019-07-11T11:06:24Z</time>
      </trkpt>
      <trkpt lat="42.6961003058" lon="20.1606901176">
        <ele>954.25</ele>
        <time>2019-07-11T11:06:51Z</time>
      </trkpt>
      <trkpt lat="42.6960850507" lon="20.1607074682">
        <ele>953.77</ele>
        <time>2019-07-11T11:07:14Z</time>
      </trkpt>
      <trkpt lat="42.6961031556" lon="20.1607929636">
        <ele>953.28</ele>
        <time>2019-07-11T11:07:37Z</time>
      </trkpt>
      <trkpt lat="42.6960857213" lon="20.1608089730">
        <ele>952.80</ele>
        <time>2019-07-11T11:08:04Z</time>
      </trkpt>
      <trkpt lat="42.6961045805" lon="20.1608556602">
        <ele>952.32</ele>
        <time>2019-07-11T11:08:24Z</time>
      </trkpt>
      <trkpt lat="42.6961046644" lon="20.1608112361">
        <ele>951.84</ele>
        <time>2019-07-11T11:08:44Z</time>
      </trkpt>
      <trkpt lat="42.6960937679" lon="20.1608146727">
        <ele>951.36</ele>
        <time>2019-07-11T11:09:00Z</time>
      </trkpt>
      <trkpt lat="42.6960890740" lon="20.1607769541">
        <ele>951.36</ele>
        <time>2019-07-11T11:09:25Z</time>
      </trkpt>
      <trkpt lat="42.6960706338" lon="20.1607415825">
        <ele>951.36</ele>
        <time>2019-07-11T11:09:30Z</time>
      </trkpt>
      <trkpt lat="42.6960462425" lon="20.1607674826">
        <ele>951.36</ele>
        <time>2019-07-11T11:09:45Z</time>
      </trkpt>
      <trkpt lat="42.6961077657" lon="20.1608498767">
        <ele>950.88</ele>
        <time>2019-07-11T11:10:15Z</time>
      </trkpt>
      <trkpt lat="42.6960397046" lon="20.1608490385">
        <ele>950.88</ele>
        <time>2019-07-11T11:10:30Z</time>
      </trkpt>
      <trkpt lat="42.6960226055" lon="20.1607912872">
        <ele>950.40</ele>
        <time>2019-07-11T11:10:53Z</time>
      </trkpt>
      <trkpt lat="42.6960118767" lon="20.1607813127">
        <ele>949.92</ele>
        <time>2019-07-11T11:11:17Z</time>
      </trkpt>
      <trkpt lat="42.6959972084" lon="20.1607036125">
        <ele>949.44</ele>
        <time>2019-07-11T11:11:45Z</time>
      </trkpt>
      <trkpt lat="42.6960181631" lon="20.1607483719">
        <ele>948.96</ele>
        <time>2019-07-11T11:12:11Z</time>
      </trkpt>
      <trkpt lat="42.6960376091" lon="20.1607713383">
        <ele>948.48</ele>
        <time>2019-07-11T11:12:34Z</time>
      </trkpt>
      <trkpt lat="42.6960669458" lon="20.1608257368">
        <ele>948.00</ele>
        <time>2019-07-11T11:13:07Z</time>
      </trkpt>
      <trkpt lat="42.6960252877" lon="20.1608058717">
        <ele>947.52</ele>
        <time>2019-07-11T11:13:29Z</time>
      </trkpt>
      <trkpt lat="42.6959768403" lon="20.1608042791">
        <ele>947.04</ele>
        <time>2019-07-11T11:14:01Z</time>
      </trkpt>
      <trkpt lat="42.6959113777" lon="20.1608254854">
        <ele>946.56</ele>
        <time>2019-07-11T11:14:34Z</time>
      </trkpt>
      <trkpt lat="42.6958869863" lon="20.1607283391">
        <ele>946.07</ele>
        <time>2019-07-11T11:15:12Z</time>
      </trkpt>
      <trkpt lat="42.6958957873" lon="20.1606664807">
        <ele>946.07</ele>
        <time>2019-07-11T11:15:53Z</time>
      </trkpt>
      <trkpt lat="42.6958911773" lon="20.1607618667">
        <ele>946.07</ele>
        <time>2019-07-11T11:16:26Z</time>
      </trkpt>
      <trkpt lat="42.6959153172" lon="20.1607352123">
        <ele>945.59</ele>
        <time>2019-07-11T11:16:58Z</time>
      </trkpt>
      <trkpt lat="42.6959105395" lon="20.1606968231">
        <ele>945.59</ele>
        <time>2019-07-11T11:17:37Z</time>
      </trkpt>
      <trkpt lat="42.6959734038" lon="20.1606544945">
        <ele>944.63</ele>
        <time>2019-07-11T11:18:17Z</time>
      </trkpt>
      <trkpt lat="42.6959521137" lon="20.1607184485">
        <ele>944.15</ele>
        <time>2019-07-11T11:18:54Z</time>
      </trkpt>
      <trkpt lat="42.6960033271" lon="20.1607346255">
        <ele>943.19</ele>
        <time>2019-07-11T11:19:28Z</time>
      </trkpt>
      <trkpt lat="42.6960241143" lon="20.1607798878">
        <ele>943.19</ele>
        <time>2019-07-11T11:19:53Z</time>
      </trkpt>
      <trkpt lat="42.6960635930" lon="20.1608028542">
        <ele>942.71</ele>
        <time>2019-07-11T11:20:22Z</time>
      </trkpt>
      <trkpt lat="42.6959885750" lon="20.1607713383">
        <ele>942.23</ele>
        <time>2019-07-11T11:20:41Z</time>
      </trkpt>
      <trkpt lat="42.6959817018" lon="20.1608369686">
        <ele>941.75</ele>
        <time>2019-07-11T11:21:20Z</time>
      </trkpt>
      <trkpt lat="42.6959647704" lon="20.1608392317">
        <ele>941.27</ele>
        <time>2019-07-11T11:21:47Z</time>
      </trkpt>
      <trkpt lat="42.6958875731" lon="20.1606897824">
        <ele>940.79</ele>
        <time>2019-07-11T11:22:25Z</time>
      </trkpt>
      <trkpt lat="42.6959252916" lon="20.1607403252">
        <ele>940.31</ele>
        <time>2019-07-11T11:22:58Z</time>
      </trkpt>
      <trkpt lat="42.6958877407" lon="20.1606875192">
        <ele>939.83</ele>
        <time>2019-07-11T11:23:39Z</time>
      </trkpt>
      <trkpt lat="42.6959952805" lon="20.1607598551">
        <ele>939.83</ele>
        <time>2019-07-11T11:24:13Z</time>
      </trkpt>
      <trkpt lat="42.6960411295" lon="20.1607875992">
        <ele>939.35</ele>
        <time>2019-07-11T11:24:54Z</time>
      </trkpt>
      <trkpt lat="42.6959878206" lon="20.1607047021">
        <ele>938.86</ele>
        <time>2019-07-11T11:25:33Z</time>
      </trkpt>
      <trkpt lat="42.6959962025" lon="20.1606912911">
        <ele>938.38</ele>
        <time>2019-07-11T11:26:15Z</time>
      </trkpt>
      <trkpt lat="42.6959791034" lon="20.1606962364">
        <ele>937.90</ele>
        <time>2019-07-11T11:26:51Z</time>
      </trkpt>
      <trkpt lat="42.6959724817" lon="20.1606650557">
        <ele>937.42</ele>
        <time>2019-07-11T11:27:25Z</time>
      </trkpt>
      <trkpt lat="42.6959568076" lon="20.1607030258">
        <ele>936.94</ele>
        <time>2019-07-11T11:28:05Z</time>
      </trkpt>
      <trkpt lat="42.6960091107" lon="20.1607397385">
        <ele>936.94</ele>
        <time>2019-07-11T11:28:41Z</time>
      </trkpt>
      <trkpt lat="42.6959811151" lon="20.1606905367">
        <ele>935.98</ele>
        <time>2019-07-11T11:29:24Z</time>
      </trkpt>
      <trkpt lat="42.6959938556" lon="20.1607664768">
        <ele>935.98</ele>
        <time>2019-07-11T11:30:06Z</time>
      </trkpt>
      <trkpt lat="42.6959918439" lon="20.1607711706">
        <ele>935.50</ele>
        <time>2019-07-11T11:30:41Z</time>
      </trkpt>
      <trkpt lat="42.6960268803" lon="20.1607759483">
        <ele>935.02</ele>
        <time>2019-07-11T11:31:01Z</time>
      </trkpt>
      <trkpt lat="42.6960239466" lon="20.1607523952">
        <ele>935.98</ele>
        <time>2019-07-11T11:31:18Z</time>
      </trkpt>
      <trkpt lat="42.6960218512" lon="20.1607720088">
        <ele>935.50</ele>
        <time>2019-07-11T11:32:10Z</time>
      </trkpt>
      <trkpt lat="42.6959839649" lon="20.1607223880">
        <ele>935.02</ele>
        <time>2019-07-11T11:32:29Z</time>
      </trkpt>
      <trkpt lat="42.6959743258" lon="20.1606990863">
        <ele>935.02</ele>
        <time>2019-07-11T11:32:31Z</time>
      </trkpt>
      <trkpt lat="42.6959352661" lon="20.1607041154">
        <ele>935.02</ele>
        <time>2019-07-11T11:32:46Z</time>
      </trkpt>
      <trkpt lat="42.6959029119" lon="20.1607526466">
        <ele>935.02</ele>
        <time>2019-07-11T11:32:58Z</time>
      </trkpt>
      <trkpt lat="42.6958969608" lon="20.1607750263">
        <ele>934.54</ele>
        <time>2019-07-11T11:33:17Z</time>
      </trkpt>
      <trkpt lat="42.6959190890" lon="20.1607169397">
        <ele>934.54</ele>
        <time>2019-07-11T11:33:29Z</time>
      </trkpt>
      <trkpt lat="42.6959216036" lon="20.1606974099">
        <ele>934.06</ele>
        <time>2019-07-11T11:33:49Z</time>
      </trkpt>
      <trkpt lat="42.6959270518" lon="20.1606177818">
        <ele>934.06</ele>
        <time>2019-07-11T11:34:01Z</time>
      </trkpt>
      <trkpt lat="42.6959350985" lon="20.1606109925">
        <ele>933.58</ele>
        <time>2019-07-11T11:34:18Z</time>
      </trkpt>
      <trkpt lat="42.6959142275" lon="20.1605385728">
        <ele>933.58</ele>
        <time>2019-07-11T11:34:26Z</time>
      </trkpt>
      <trkpt lat="42.6958801970" lon="20.1604986750">
        <ele>933.58</ele>
        <time>2019-07-11T11:34:31Z</time>
      </trkpt>
      <trkpt lat="42.6958485972" lon="20.1604872756">
        <ele>933.58</ele>
        <time>2019-07-11T11:34:34Z</time>
      </trkpt>
      <trkpt lat="42.6958015747" lon="20.1604281832">
        <ele>933.10</ele>
        <time>2019-07-11T11:34:40Z</time>
      </trkpt>
      <trkpt lat="42.6957185101" lon="20.1602482237">
        <ele>933.10</ele>
        <time>2019-07-11T11:34:54Z</time>
      </trkpt>
      <trkpt lat="42.6956316736" lon="20.1600468904">
        <ele>933.10</ele>
        <time>2019-07-11T11:35:09Z</time>
      </trkpt>
      <trkpt lat="42.6955797896" lon="20.1598995365">
        <ele>932.62</ele>
        <time>2019-07-11T11:35:18Z</time>
      </trkpt>
      <trkpt lat="42.6954961382" lon="20.1596977841">
        <ele>932.62</ele>
        <time>2019-07-11T11:35:33Z</time>
      </trkpt>
      <trkpt lat="42.6954942103" lon="20.1596600655">
        <ele>931.17</ele>
        <time>2019-07-11T11:35:35Z</time>
      </trkpt>
      <trkpt lat="42.6955171768" lon="20.1595246140">
        <ele>930.21</ele>
        <time>2019-07-11T11:35:43Z</time>
      </trkpt>
      <trkpt lat="42.6955769397" lon="20.1593690459">
        <ele>930.21</ele>
        <time>2019-07-11T11:35:54Z</time>
      </trkpt>
      <trkpt lat="42.6955854893" lon="20.1593444031">
        <ele>930.21</ele>
        <time>2019-07-11T11:35:56Z</time>
      </trkpt>
      <trkpt lat="42.6956214476" lon="20.1592765097">
        <ele>930.21</ele>
        <time>2019-07-11T11:36:00Z</time>
      </trkpt>
      <trkpt lat="42.6956339367" lon="20.1592386235">
        <ele>929.73</ele>
        <time>2019-07-11T11:36:03Z</time>
      </trkpt>
      <trkpt lat="42.6956595853" lon="20.1591928583">
        <ele>929.73</ele>
        <time>2019-07-11T11:36:07Z</time>
      </trkpt>
      <trkpt lat="42.6956504490" lon="20.1589217037">
        <ele>929.73</ele>
        <time>2019-07-11T11:36:21Z</time>
      </trkpt>
      <trkpt lat="42.6956450846" lon="20.1587020140">
        <ele>929.73</ele>
        <time>2019-07-11T11:36:37Z</time>
      </trkpt>
      <trkpt lat="42.6956509519" lon="20.1586048678">
        <ele>930.69</ele>
        <time>2019-07-11T11:36:44Z</time>
      </trkpt>
      <trkpt lat="42.6956452522" lon="20.1584447734">
        <ele>932.14</ele>
        <time>2019-07-11T11:36:56Z</time>
      </trkpt>
      <trkpt lat="42.6956377923" lon="20.1583030354">
        <ele>933.10</ele>
        <time>2019-07-11T11:37:06Z</time>
      </trkpt>
      <trkpt lat="42.6956293266" lon="20.1581538375">
        <ele>934.54</ele>
        <time>2019-07-11T11:37:16Z</time>
      </trkpt>
      <trkpt lat="42.6956158318" lon="20.1579509955">
        <ele>936.46</ele>
        <time>2019-07-11T11:37:32Z</time>
      </trkpt>
      <trkpt lat="42.6956140716" lon="20.1579382550">
        <ele>936.46</ele>
        <time>2019-07-11T11:37:33Z</time>
      </trkpt>
      <trkpt lat="42.6956108864" lon="20.1577806752">
        <ele>937.90</ele>
        <time>2019-07-11T11:37:45Z</time>
      </trkpt>
      <trkpt lat="42.6956170052" lon="20.1577508356">
        <ele>938.38</ele>
        <time>2019-07-11T11:37:47Z</time>
      </trkpt>
      <trkpt lat="42.6956352778" lon="20.1576769911">
        <ele>937.90</ele>
        <time>2019-07-11T11:37:52Z</time>
      </trkpt>
      <trkpt lat="42.6956907660" lon="20.1574621629">
        <ele>938.86</ele>
        <time>2019-07-11T11:38:08Z</time>
      </trkpt>
      <trkpt lat="42.6957465056" lon="20.1572944410">
        <ele>940.79</ele>
        <time>2019-07-11T11:38:22Z</time>
      </trkpt>
      <trkpt lat="42.6958041731" lon="20.1571421418">
        <ele>942.23</ele>
        <time>2019-07-11T11:38:36Z</time>
      </trkpt>
      <trkpt lat="42.6958444901" lon="20.1569879986">
        <ele>943.67</ele>
        <time>2019-07-11T11:38:49Z</time>
      </trkpt>
      <trkpt lat="42.6959173288" lon="20.1568054408">
        <ele>944.63</ele>
        <time>2019-07-11T11:39:04Z</time>
      </trkpt>
      <trkpt lat="42.6960267127" lon="20.1566178538">
        <ele>945.11</ele>
        <time>2019-07-11T11:39:19Z</time>
      </trkpt>
      <trkpt lat="42.6961310674" lon="20.1564217173">
        <ele>946.07</ele>
        <time>2019-07-11T11:39:34Z</time>
      </trkpt>
      <trkpt lat="42.6961536147" lon="20.1563981641">
        <ele>946.07</ele>
        <time>2019-07-11T11:39:37Z</time>
      </trkpt>
      <trkpt lat="42.6962583885" lon="20.1562659815">
        <ele>946.56</ele>
        <time>2019-07-11T11:39:49Z</time>
      </trkpt>
      <trkpt lat="42.6962635852" lon="20.1562539116">
        <ele>946.56</ele>
        <time>2019-07-11T11:39:50Z</time>
      </trkpt>
      <trkpt lat="42.6963753160" lon="20.1561384089">
        <ele>946.56</ele>
        <time>2019-07-11T11:40:03Z</time>
      </trkpt>
      <trkpt lat="42.6964642480" lon="20.1559555158">
        <ele>947.04</ele>
        <time>2019-07-11T11:40:16Z</time>
      </trkpt>
      <trkpt lat="42.6965770684" lon="20.1557739638">
        <ele>947.52</ele>
        <time>2019-07-11T11:40:30Z</time>
      </trkpt>
      <trkpt lat="42.6966701914" lon="20.1556339022">
        <ele>948.48</ele>
        <time>2019-07-11T11:40:41Z</time>
      </trkpt>
      <trkpt lat="42.6967115141" lon="20.1555308048">
        <ele>948.48</ele>
        <time>2019-07-11T11:40:49Z</time>
      </trkpt>
      <trkpt lat="42.6967469696" lon="20.1554681081">
        <ele>948.96</ele>
        <time>2019-07-11T11:40:53Z</time>
      </trkpt>
      <trkpt lat="42.6967808325" lon="20.1553910784">
        <ele>948.96</ele>
        <time>2019-07-11T11:40:59Z</time>
      </trkpt>
      <trkpt lat="42.6969120931" lon="20.1552048326">
        <ele>950.40</ele>
        <time>2019-07-11T11:41:15Z</time>
      </trkpt>
      <trkpt lat="42.6969711855" lon="20.1551184990">
        <ele>950.40</ele>
        <time>2019-07-11T11:41:21Z</time>
      </trkpt>
      <trkpt lat="42.6969771367" lon="20.1551022381">
        <ele>950.40</ele>
        <time>2019-07-11T11:41:22Z</time>
      </trkpt>
      <trkpt lat="42.6969867758" lon="20.1550940238">
        <ele>950.40</ele>
        <time>2019-07-11T11:41:23Z</time>
      </trkpt>
      <trkpt lat="42.6969938166" lon="20.1550801937">
        <ele>950.40</ele>
        <time>2019-07-11T11:41:24Z</time>
      </trkpt>
      <trkpt lat="42.6971113309" lon="20.1549224462">
        <ele>951.36</ele>
        <time>2019-07-11T11:41:38Z</time>
      </trkpt>
      <trkpt lat="42.6971789729" lon="20.1548215281">
        <ele>951.84</ele>
        <time>2019-07-11T11:41:47Z</time>
      </trkpt>
      <trkpt lat="42.6972000115" lon="20.1547886711">
        <ele>951.84</ele>
        <time>2019-07-11T11:41:49Z</time>
      </trkpt>
      <trkpt lat="42.6972132549" lon="20.1547646150">
        <ele>951.84</ele>
        <time>2019-07-11T11:41:51Z</time>
      </trkpt>
      <trkpt lat="42.6972299349" lon="20.1547409780">
        <ele>952.32</ele>
        <time>2019-07-11T11:41:53Z</time>
      </trkpt>
      <trkpt lat="42.6972493809" lon="20.1547172572">
        <ele>952.32</ele>
        <time>2019-07-11T11:41:55Z</time>
      </trkpt>
      <trkpt lat="42.6973511372" lon="20.1546650380">
        <ele>952.32</ele>
        <time>2019-07-11T11:42:03Z</time>
      </trkpt>
      <trkpt lat="42.6975425798" lon="20.1545944624">
        <ele>952.80</ele>
        <time>2019-07-11T11:42:16Z</time>
      </trkpt>
      <trkpt lat="42.6975699887" lon="20.1545764413">
        <ele>953.28</ele>
        <time>2019-07-11T11:42:18Z</time>
      </trkpt>
      <trkpt lat="42.6976516284" lon="20.1544693206">
        <ele>953.77</ele>
        <time>2019-07-11T11:42:28Z</time>
      </trkpt>
      <trkpt lat="42.6976838987" lon="20.1544262376">
        <ele>954.25</ele>
        <time>2019-07-11T11:42:31Z</time>
      </trkpt>
      <trkpt lat="42.6977605931" lon="20.1542424224">
        <ele>954.25</ele>
        <time>2019-07-11T11:42:43Z</time>
      </trkpt>
      <trkpt lat="42.6977901813" lon="20.1541025285">
        <ele>955.21</ele>
        <time>2019-07-11T11:42:52Z</time>
      </trkpt>
      <trkpt lat="42.6977865770" lon="20.1540303603">
        <ele>955.21</ele>
        <time>2019-07-11T11:42:56Z</time>
      </trkpt>
      <trkpt lat="42.6978476811" lon="20.1537638158">
        <ele>955.69</ele>
        <time>2019-07-11T11:43:11Z</time>
      </trkpt>
      <trkpt lat="42.6978529617" lon="20.1537170447">
        <ele>955.69</ele>
        <time>2019-07-11T11:43:14Z</time>
      </trkpt>
      <trkpt lat="42.6978680491" lon="20.1534935832">
        <ele>956.65</ele>
        <time>2019-07-11T11:43:26Z</time>
      </trkpt>
      <trkpt lat="42.6979794446" lon="20.1531315688">
        <ele>957.13</ele>
        <time>2019-07-11T11:43:40Z</time>
      </trkpt>
      <trkpt lat="42.6979832165" lon="20.1531189959">
        <ele>957.13</ele>
        <time>2019-07-11T11:43:41Z</time>
      </trkpt>
      <trkpt lat="42.6980251260" lon="20.1528907567">
        <ele>957.13</ele>
        <time>2019-07-11T11:43:56Z</time>
      </trkpt>
      <trkpt lat="42.6980486792" lon="20.1526343543">
        <ele>957.13</ele>
        <time>2019-07-11T11:44:11Z</time>
      </trkpt>
      <trkpt lat="42.6980454102" lon="20.1524885092">
        <ele>957.13</ele>
        <time>2019-07-11T11:44:20Z</time>
      </trkpt>
      <trkpt lat="42.6980325859" lon="20.1521771215">
        <ele>957.13</ele>
        <time>2019-07-11T11:44:37Z</time>
      </trkpt>
      <trkpt lat="42.6980368607" lon="20.1520933863">
        <ele>956.65</ele>
        <time>2019-07-11T11:44:42Z</time>
      </trkpt>
      <trkpt lat="42.6981347613" lon="20.1519158576">
        <ele>957.13</ele>
        <time>2019-07-11T11:44:57Z</time>
      </trkpt>
      <trkpt lat="42.6980994735" lon="20.1519011892">
        <ele>957.13</ele>
        <time>2019-07-11T11:45:08Z</time>
      </trkpt>
      <trkpt lat="42.6980880741" lon="20.1519097388">
        <ele>957.13</ele>
        <time>2019-07-11T11:45:11Z</time>
      </trkpt>
      <trkpt lat="42.6980613358" lon="20.1518990938">
        <ele>956.65</ele>
        <time>2019-07-11T11:45:14Z</time>
      </trkpt>
      <trkpt lat="42.6980153192" lon="20.1518378220">
        <ele>956.65</ele>
        <time>2019-07-11T11:45:20Z</time>
      </trkpt>
      <trkpt lat="42.6979977172" lon="20.1515794918">
        <ele>956.65</ele>
        <time>2019-07-11T11:45:37Z</time>
      </trkpt>
      <trkpt lat="42.6980003156" lon="20.1515104249">
        <ele>956.65</ele>
        <time>2019-07-11T11:45:41Z</time>
      </trkpt>
      <trkpt lat="42.6980354358" lon="20.1512690261">
        <ele>956.17</ele>
        <time>2019-07-11T11:45:57Z</time>
      </trkpt>
      <trkpt lat="42.6981223561" lon="20.1510451455">
        <ele>956.17</ele>
        <time>2019-07-11T11:46:12Z</time>
      </trkpt>
      <trkpt lat="42.6981768385" lon="20.1509081852">
        <ele>956.17</ele>
        <time>2019-07-11T11:46:22Z</time>
      </trkpt>
      <trkpt lat="42.6982739009" lon="20.1507780142">
        <ele>955.69</ele>
        <time>2019-07-11T11:46:35Z</time>
      </trkpt>
      <trkpt lat="42.6985020563" lon="20.1505290717">
        <ele>956.17</ele>
        <time>2019-07-11T11:46:52Z</time>
      </trkpt>
      <trkpt lat="42.6986025553" lon="20.1503647026">
        <ele>956.17</ele>
        <time>2019-07-11T11:47:03Z</time>
      </trkpt>
      <trkpt lat="42.6986252703" lon="20.1502761897">
        <ele>956.17</ele>
        <time>2019-07-11T11:47:09Z</time>
      </trkpt>
      <trkpt lat="42.6986697782" lon="20.1500761975">
        <ele>956.17</ele>
        <time>2019-07-11T11:47:22Z</time>
      </trkpt>
      <trkpt lat="42.6987053175" lon="20.1498831622">
        <ele>956.17</ele>
        <time>2019-07-11T11:47:34Z</time>
      </trkpt>
      <trkpt lat="42.6987711154" lon="20.1496892050">
        <ele>956.17</ele>
        <time>2019-07-11T11:47:45Z</time>
      </trkpt>
      <trkpt lat="42.6988285314" lon="20.1494850218">
        <ele>956.65</ele>
        <time>2019-07-11T11:47:58Z</time>
      </trkpt>
      <trkpt lat="42.6988333929" lon="20.1494142786">
        <ele>956.65</ele>
        <time>2019-07-11T11:48:02Z</time>
      </trkpt>
      <trkpt lat="42.6988597121" lon="20.1492820121">
        <ele>957.13</ele>
        <time>2019-07-11T11:48:10Z</time>
      </trkpt>
      <trkpt lat="42.6988733746" lon="20.1492349897">
        <ele>956.65</ele>
        <time>2019-07-11T11:48:13Z</time>
      </trkpt>
      <trkpt lat="42.6988890488" lon="20.1489558723">
        <ele>957.61</ele>
        <time>2019-07-11T11:48:29Z</time>
      </trkpt>
      <trkpt lat="42.6988971792" lon="20.1489116997">
        <ele>957.61</ele>
        <time>2019-07-11T11:48:32Z</time>
      </trkpt>
      <trkpt lat="42.6988987718" lon="20.1488645934">
        <ele>957.61</ele>
        <time>2019-07-11T11:48:35Z</time>
      </trkpt>
      <trkpt lat="42.6988720335" lon="20.1485906728">
        <ele>958.57</ele>
        <time>2019-07-11T11:48:51Z</time>
      </trkpt>
      <trkpt lat="42.6988711953" lon="20.1483906806">
        <ele>959.05</ele>
        <time>2019-07-11T11:49:04Z</time>
      </trkpt>
      <trkpt lat="42.6988760568" lon="20.1483770180">
        <ele>959.05</ele>
        <time>2019-07-11T11:49:06Z</time>
      </trkpt>
      <trkpt lat="42.6988478098" lon="20.1482027583">
        <ele>959.53</ele>
        <time>2019-07-11T11:49:15Z</time>
      </trkpt>
      <trkpt lat="42.6988485642" lon="20.1481870841">
        <ele>959.53</ele>
        <time>2019-07-11T11:49:16Z</time>
      </trkpt>
      <trkpt lat="42.6987895556" lon="20.1479193661">
        <ele>960.01</ele>
        <time>2019-07-11T11:49:31Z</time>
      </trkpt>
      <trkpt lat="42.6987880468" lon="20.1478692424">
        <ele>960.01</ele>
        <time>2019-07-11T11:49:34Z</time>
      </trkpt>
      <trkpt lat="42.6987752225" lon="20.1476331241">
        <ele>960.01</ele>
        <time>2019-07-11T11:49:48Z</time>
      </trkpt>
      <trkpt lat="42.6987507474" lon="20.1473560184">
        <ele>960.49</ele>
        <time>2019-07-11T11:50:02Z</time>
      </trkpt>
      <trkpt lat="42.6987486519" lon="20.1472519990">
        <ele>960.49</ele>
        <time>2019-07-11T11:50:09Z</time>
      </trkpt>
      <trkpt lat="42.6987499930" lon="20.1472356543">
        <ele>960.49</ele>
        <time>2019-07-11T11:50:10Z</time>
      </trkpt>
      <trkpt lat="42.6987509988" lon="20.1472160406">
        <ele>960.49</ele>
        <time>2019-07-11T11:50:11Z</time>
      </trkpt>
      <trkpt lat="42.6987475622" lon="20.1470752247">
        <ele>960.49</ele>
        <time>2019-07-11T11:50:19Z</time>
      </trkpt>
      <trkpt lat="42.6988033019" lon="20.1468677726">
        <ele>960.49</ele>
        <time>2019-07-11T11:50:32Z</time>
      </trkpt>
      <trkpt lat="42.6988980174" lon="20.1466334146">
        <ele>960.98</ele>
        <time>2019-07-11T11:50:47Z</time>
      </trkpt>
      <trkpt lat="42.6989284437" lon="20.1465939358">
        <ele>961.46</ele>
        <time>2019-07-11T11:50:50Z</time>
      </trkpt>
      <trkpt lat="42.6990331337" lon="20.1463808678">
        <ele>961.94</ele>
        <time>2019-07-11T11:51:04Z</time>
      </trkpt>
      <trkpt lat="42.6991317887" lon="20.1462100446">
        <ele>962.42</ele>
        <time>2019-07-11T11:51:12Z</time>
      </trkpt>
      <trkpt lat="42.6991573535" lon="20.1460942067">
        <ele>962.42</ele>
        <time>2019-07-11T11:51:20Z</time>
      </trkpt>
      <trkpt lat="42.6991561800" lon="20.1460237149">
        <ele>962.90</ele>
        <time>2019-07-11T11:51:25Z</time>
      </trkpt>
      <trkpt lat="42.6991782244" lon="20.1459336933">
        <ele>962.42</ele>
        <time>2019-07-11T11:51:30Z</time>
      </trkpt>
      <trkpt lat="42.6991750393" lon="20.1459194440">
        <ele>962.42</ele>
        <time>2019-07-11T11:51:31Z</time>
      </trkpt>
      <trkpt lat="42.6991992630" lon="20.1456399076">
        <ele>962.42</ele>
        <time>2019-07-11T11:51:47Z</time>
      </trkpt>
      <trkpt lat="42.6992113329" lon="20.1455467008">
        <ele>962.42</ele>
        <time>2019-07-11T11:51:53Z</time>
      </trkpt>
      <trkpt lat="42.6991665736" lon="20.1452586148">
        <ele>963.38</ele>
        <time>2019-07-11T11:52:09Z</time>
      </trkpt>
      <trkpt lat="42.6991550066" lon="20.1450218260">
        <ele>963.86</ele>
        <time>2019-07-11T11:52:23Z</time>
      </trkpt>
      <trkpt lat="42.6991642267" lon="20.1448130328">
        <ele>964.82</ele>
        <time>2019-07-11T11:52:35Z</time>
      </trkpt>
      <trkpt lat="42.6992234867" lon="20.1445632521">
        <ele>964.82</ele>
        <time>2019-07-11T11:52:51Z</time>
      </trkpt>
      <trkpt lat="42.6993101556" lon="20.1443628408">
        <ele>964.82</ele>
        <time>2019-07-11T11:53:05Z</time>
      </trkpt>
      <trkpt lat="42.6993538253" lon="20.1442812849">
        <ele>965.30</ele>
        <time>2019-07-11T11:53:11Z</time>
      </trkpt>
      <trkpt lat="42.6994463615" lon="20.1441010740">
        <ele>965.30</ele>
        <time>2019-07-11T11:53:22Z</time>
      </trkpt>
      <trkpt lat="42.6994606946" lon="20.1440574042">
        <ele>965.30</ele>
        <time>2019-07-11T11:53:25Z</time>
      </trkpt>
      <trkpt lat="42.6995180268" lon="20.1438060310">
        <ele>965.30</ele>
        <time>2019-07-11T11:53:40Z</time>
      </trkpt>
      <trkpt lat="42.6996015944" lon="20.1436018478">
        <ele>965.30</ele>
        <time>2019-07-11T11:53:53Z</time>
      </trkpt>
      <trkpt lat="42.6996856648" lon="20.1434425078">
        <ele>965.30</ele>
        <time>2019-07-11T11:54:06Z</time>
      </trkpt>
      <trkpt lat="42.6997124869" lon="20.1434009336">
        <ele>965.78</ele>
        <time>2019-07-11T11:54:10Z</time>
      </trkpt>
      <trkpt lat="42.6998281572" lon="20.1431716047">
        <ele>965.30</ele>
        <time>2019-07-11T11:54:26Z</time>
      </trkpt>
      <trkpt lat="42.6999616809" lon="20.1429543458">
        <ele>965.78</ele>
        <time>2019-07-11T11:54:42Z</time>
      </trkpt>
      <trkpt lat="42.6999838091" lon="20.1429001987">
        <ele>966.26</ele>
        <time>2019-07-11T11:54:47Z</time>
      </trkpt>
      <trkpt lat="42.7001118846" lon="20.1429150347">
        <ele>966.26</ele>
        <time>2019-07-11T11:54:59Z</time>
      </trkpt>
      <trkpt lat="42.7001656126" lon="20.1429386716">
        <ele>964.82</ele>
        <time>2019-07-11T11:55:04Z</time>
      </trkpt>
      <trkpt lat="42.7003365196" lon="20.1429809164">
        <ele>964.82</ele>
        <time>2019-07-11T11:55:18Z</time>
      </trkpt>
      <trkpt lat="42.7004650980" lon="20.1431381609">
        <ele>964.82</ele>
        <time>2019-07-11T11:55:32Z</time>
      </trkpt>
      <trkpt lat="42.7005082648" lon="20.1434075553">
        <ele>966.26</ele>
        <time>2019-07-11T11:55:49Z</time>
      </trkpt>
      <trkpt lat="42.7005346678" lon="20.1434779633">
        <ele>967.22</ele>
        <time>2019-07-11T11:56:01Z</time>
      </trkpt>
      <trkpt lat="42.7005404513" lon="20.1434816513">
        <ele>967.22</ele>
        <time>2019-07-11T11:56:24Z</time>
      </trkpt>
      <trkpt lat="42.7005291358" lon="20.1435026899">
        <ele>967.22</ele>
        <time>2019-07-11T11:56:38Z</time>
      </trkpt>
      <trkpt lat="42.7005400322" lon="20.1435106527">
        <ele>967.22</ele>
        <time>2019-07-11T11:56:39Z</time>
      </trkpt>
      <trkpt lat="42.7006929182" lon="20.1435839944">
        <ele>967.70</ele>
        <time>2019-07-11T11:56:51Z</time>
      </trkpt>
      <trkpt lat="42.7007509209" lon="20.1435827371">
        <ele>967.70</ele>
        <time>2019-07-11T11:56:55Z</time>
      </trkpt>
      <trkpt lat="42.7008720394" lon="20.1435093116">
        <ele>968.67</ele>
        <time>2019-07-11T11:57:04Z</time>
      </trkpt>
      <trkpt lat="42.7010392584" lon="20.1433509775">
        <ele>970.59</ele>
        <time>2019-07-11T11:57:19Z</time>
      </trkpt>
      <trkpt lat="42.7011925634" lon="20.1432268415">
        <ele>971.07</ele>
        <time>2019-07-11T11:57:33Z</time>
      </trkpt>
      <trkpt lat="42.7013448626" lon="20.1431159489">
        <ele>972.03</ele>
        <time>2019-07-11T11:57:46Z</time>
      </trkpt>
      <trkpt lat="42.7013570163" lon="20.1431072317">
        <ele>972.03</ele>
        <time>2019-07-11T11:57:47Z</time>
      </trkpt>
      <trkpt lat="42.7015095670" lon="20.1429732889">
        <ele>972.99</ele>
        <time>2019-07-11T11:58:02Z</time>
      </trkpt>
      <trkpt lat="42.7016192023" lon="20.1429016236">
        <ele>973.95</ele>
        <time>2019-07-11T11:58:13Z</time>
      </trkpt>
      <trkpt lat="42.7017181925" lon="20.1428659167">
        <ele>974.43</ele>
        <time>2019-07-11T11:58:20Z</time>
      </trkpt>
      <trkpt lat="42.7017612755" lon="20.1428671740">
        <ele>974.91</ele>
        <time>2019-07-11T11:58:23Z</time>
      </trkpt>
      <trkpt lat="42.7019849047" lon="20.1428326406">
        <ele>975.39</ele>
        <time>2019-07-11T11:58:39Z</time>
      </trkpt>
      <trkpt lat="42.7021736652" lon="20.1429124363">
        <ele>976.84</ele>
        <time>2019-07-11T11:58:54Z</time>
      </trkpt>
      <trkpt lat="42.7021826338" lon="20.1429200638">
        <ele>976.84</ele>
        <time>2019-07-11T11:58:55Z</time>
      </trkpt>
      <trkpt lat="42.7023849729" lon="20.1430223230">
        <ele>977.80</ele>
        <time>2019-07-11T11:59:11Z</time>
      </trkpt>
      <trkpt lat="42.7024679538" lon="20.1430706028">
        <ele>978.28</ele>
        <time>2019-07-11T11:59:18Z</time>
      </trkpt>
      <trkpt lat="42.7026617434" lon="20.1431562658">
        <ele>978.76</ele>
        <time>2019-07-11T11:59:34Z</time>
      </trkpt>
      <trkpt lat="42.7028428763" lon="20.1431955770">
        <ele>979.72</ele>
        <time>2019-07-11T11:59:48Z</time>
      </trkpt>
      <trkpt lat="42.7030368336" lon="20.1432129275">
        <ele>981.16</ele>
        <time>2019-07-11T12:00:03Z</time>
      </trkpt>
      <trkpt lat="42.7031664178" lon="20.1432374027">
        <ele>982.60</ele>
        <time>2019-07-11T12:00:15Z</time>
      </trkpt>
      <trkpt lat="42.7032898832" lon="20.1432910468">
        <ele>984.05</ele>
        <time>2019-07-11T12:00:26Z</time>
      </trkpt>
      <trkpt lat="42.7033943217" lon="20.1434309408">
        <ele>985.49</ele>
        <time>2019-07-11T12:00:40Z</time>
      </trkpt>
      <trkpt lat="42.7034068946" lon="20.1434554998">
        <ele>985.49</ele>
        <time>2019-07-11T12:00:42Z</time>
      </trkpt>
      <trkpt lat="42.7034450322" lon="20.1434955653">
        <ele>985.97</ele>
        <time>2019-07-11T12:00:45Z</time>
      </trkpt>
      <trkpt lat="42.7035160270" lon="20.1436326094">
        <ele>986.93</ele>
        <time>2019-07-11T12:00:56Z</time>
      </trkpt>
      <trkpt lat="42.7035536617" lon="20.1437135786">
        <ele>987.89</ele>
        <time>2019-07-11T12:01:02Z</time>
      </trkpt>
      <trkpt lat="42.7035590261" lon="20.1437383052">
        <ele>987.89</ele>
        <time>2019-07-11T12:01:03Z</time>
      </trkpt>
      <trkpt lat="42.7035684139" lon="20.1437640376">
        <ele>987.89</ele>
        <time>2019-07-11T12:01:05Z</time>
      </trkpt>
      <trkpt lat="42.7035889495" lon="20.1438404806">
        <ele>988.37</ele>
        <time>2019-07-11T12:01:09Z</time>
      </trkpt>
      <trkpt lat="42.7036855090" lon="20.1440138184">
        <ele>989.33</ele>
        <time>2019-07-11T12:01:20Z</time>
      </trkpt>
      <trkpt lat="42.7037461940" lon="20.1440694742">
        <ele>989.33</ele>
        <time>2019-07-11T12:01:27Z</time>
      </trkpt>
      <trkpt lat="42.7037651371" lon="20.1440869924">
        <ele>989.81</ele>
        <time>2019-07-11T12:01:29Z</time>
      </trkpt>
      <trkpt lat="42.7038169373" lon="20.1441539638">
        <ele>989.81</ele>
        <time>2019-07-11T12:01:35Z</time>
      </trkpt>
      <trkpt lat="42.7038932964" lon="20.1442325022">
        <ele>990.30</ele>
        <time>2019-07-11T12:01:44Z</time>
      </trkpt>
      <trkpt lat="42.7039012592" lon="20.1442480925">
        <ele>990.30</ele>
        <time>2019-07-11T12:01:45Z</time>
      </trkpt>
      <trkpt lat="42.7039769478" lon="20.1443639304">
        <ele>990.78</ele>
        <time>2019-07-11T12:01:55Z</time>
      </trkpt>
      <trkpt lat="42.7039899398" lon="20.1443671156">
        <ele>991.26</ele>
        <time>2019-07-11T12:01:56Z</time>
      </trkpt>
      <trkpt lat="42.7040623594" lon="20.1444941852">
        <ele>991.74</ele>
        <time>2019-07-11T12:02:04Z</time>
      </trkpt>
      <trkpt lat="42.7040683944" lon="20.1445111167">
        <ele>991.74</ele>
        <time>2019-07-11T12:02:05Z</time>
      </trkpt>
      <trkpt lat="42.7042191848" lon="20.1447059959">
        <ele>993.18</ele>
        <time>2019-07-11T12:02:21Z</time>
      </trkpt>
      <trkpt lat="42.7042577416" lon="20.1447567903">
        <ele>993.66</ele>
        <time>2019-07-11T12:02:24Z</time>
      </trkpt>
      <trkpt lat="42.7043141518" lon="20.1448841114">
        <ele>994.14</ele>
        <time>2019-07-11T12:02:33Z</time>
      </trkpt>
      <trkpt lat="42.7044129744" lon="20.1450168807">
        <ele>994.62</ele>
        <time>2019-07-11T12:02:43Z</time>
      </trkpt>
      <trkpt lat="42.7044303250" lon="20.1450214069">
        <ele>994.62</ele>
        <time>2019-07-11T12:02:44Z</time>
      </trkpt>
      <trkpt lat="42.7045909222" lon="20.1451015379">
        <ele>996.54</ele>
        <time>2019-07-11T12:02:59Z</time>
      </trkpt>
      <trkpt lat="42.7047458198" lon="20.1450805832">
        <ele>997.99</ele>
        <time>2019-07-11T12:03:11Z</time>
      </trkpt>
      <trkpt lat="42.7048561256" lon="20.1450509951">
        <ele>999.43</ele>
        <time>2019-07-11T12:03:20Z</time>
      </trkpt>
      <trkpt lat="42.7050289605" lon="20.1449889690">
        <ele>1000.87</ele>
        <time>2019-07-11T12:03:34Z</time>
      </trkpt>
      <trkpt lat="42.7050838619" lon="20.1449785754">
        <ele>1000.87</ele>
        <time>2019-07-11T12:03:38Z</time>
      </trkpt>
      <trkpt lat="42.7051152103" lon="20.1449767314">
        <ele>1001.35</ele>
        <time>2019-07-11T12:03:41Z</time>
      </trkpt>
      <trkpt lat="42.7051867079" lon="20.1449774019">
        <ele>1001.83</ele>
        <time>2019-07-11T12:03:47Z</time>
      </trkpt>
      <trkpt lat="42.7053678408" lon="20.1449834369">
        <ele>1003.27</ele>
        <time>2019-07-11T12:04:01Z</time>
      </trkpt>
      <trkpt lat="42.7054533362" lon="20.1449906453">
        <ele>1003.75</ele>
        <time>2019-07-11T12:04:08Z</time>
      </trkpt>
      <trkpt lat="42.7056368999" lon="20.1449843589">
        <ele>1004.72</ele>
        <time>2019-07-11T12:04:22Z</time>
      </trkpt>
      <trkpt lat="42.7056682482" lon="20.1449856162">
        <ele>1005.20</ele>
        <time>2019-07-11T12:04:25Z</time>
      </trkpt>
      <trkpt lat="42.7058083098" lon="20.1450663339">
        <ele>1006.64</ele>
        <time>2019-07-11T12:04:37Z</time>
      </trkpt>
      <trkpt lat="42.7059527300" lon="20.1451150328">
        <ele>1007.60</ele>
        <time>2019-07-11T12:04:50Z</time>
      </trkpt>
      <trkpt lat="42.7061205357" lon="20.1451467164">
        <ele>1009.04</ele>
        <time>2019-07-11T12:05:03Z</time>
      </trkpt>
      <trkpt lat="42.7062148321" lon="20.1451432798">
        <ele>1010.00</ele>
        <time>2019-07-11T12:05:11Z</time>
      </trkpt>
      <trkpt lat="42.7063616831" lon="20.1451086625">
        <ele>1011.93</ele>
        <time>2019-07-11T12:05:26Z</time>
      </trkpt>
      <trkpt lat="42.7063947916" lon="20.1450803317">
        <ele>1011.93</ele>
        <time>2019-07-11T12:05:30Z</time>
      </trkpt>
      <trkpt lat="42.7065691352" lon="20.1450529229">
        <ele>1014.33</ele>
        <time>2019-07-11T12:05:44Z</time>
      </trkpt>
      <trkpt lat="42.7066049259" lon="20.1450535934">
        <ele>1014.33</ele>
        <time>2019-07-11T12:05:47Z</time>
      </trkpt>
      <trkpt lat="42.7066154033" lon="20.1450509951">
        <ele>1014.33</ele>
        <time>2019-07-11T12:05:48Z</time>
      </trkpt>
      <trkpt lat="42.7067284752" lon="20.1450509951">
        <ele>1015.77</ele>
        <time>2019-07-11T12:05:59Z</time>
      </trkpt>
      <trkpt lat="42.7067832090" lon="20.1450611372">
        <ele>1016.25</ele>
        <time>2019-07-11T12:06:03Z</time>
      </trkpt>
      <trkpt lat="42.7068597358" lon="20.1451006997">
        <ele>1017.69</ele>
        <time>2019-07-11T12:06:10Z</time>
      </trkpt>
      <trkpt lat="42.7068764996" lon="20.1451071538">
        <ele>1018.17</ele>
        <time>2019-07-11T12:06:11Z</time>
      </trkpt>
      <trkpt lat="42.7069098596" lon="20.1451365743">
        <ele>1018.17</ele>
        <time>2019-07-11T12:06:14Z</time>
      </trkpt>
      <trkpt lat="42.7069349214" lon="20.1451991871">
        <ele>1018.65</ele>
        <time>2019-07-11T12:06:18Z</time>
      </trkpt>
      <trkpt lat="42.7069847938" lon="20.1452653203">
        <ele>1019.13</ele>
        <time>2019-07-11T12:06:24Z</time>
      </trkpt>
      <trkpt lat="42.7070335764" lon="20.1453015301">
        <ele>1020.10</ele>
        <time>2019-07-11T12:06:29Z</time>
      </trkpt>
      <trkpt lat="42.7071135398" lon="20.1454177871">
        <ele>1021.54</ele>
        <time>2019-07-11T12:06:40Z</time>
      </trkpt>
      <trkpt lat="42.7071606461" lon="20.1454549190">
        <ele>1022.98</ele>
        <time>2019-07-11T12:06:46Z</time>
      </trkpt>
      <trkpt lat="42.7072124463" lon="20.1454869378">
        <ele>1023.46</ele>
        <time>2019-07-11T12:06:51Z</time>
      </trkpt>
      <trkpt lat="42.7072199062" lon="20.1455057971">
        <ele>1023.94</ele>
        <time>2019-07-11T12:06:52Z</time>
      </trkpt>
      <trkpt lat="42.7072451357" lon="20.1455244888">
        <ele>1023.94</ele>
        <time>2019-07-11T12:06:54Z</time>
      </trkpt>
      <trkpt lat="42.7072682697" lon="20.1455517299">
        <ele>1024.90</ele>
        <time>2019-07-11T12:06:57Z</time>
      </trkpt>
      <trkpt lat="42.7072843630" lon="20.1455731038">
        <ele>1024.90</ele>
        <time>2019-07-11T12:06:59Z</time>
      </trkpt>
      <trkpt lat="42.7073050663" lon="20.1455984171">
        <ele>1025.38</ele>
        <time>2019-07-11T12:07:02Z</time>
      </trkpt>
      <trkpt lat="42.7073355764" lon="20.1456190366">
        <ele>1025.86</ele>
        <time>2019-07-11T12:07:05Z</time>
      </trkpt>
      <trkpt lat="42.7074235026" lon="20.1457659714">
        <ele>1027.79</ele>
        <time>2019-07-11T12:07:18Z</time>
      </trkpt>
      <trkpt lat="42.7074607182" lon="20.1459660474">
        <ele>1028.75</ele>
        <time>2019-07-11T12:07:27Z</time>
      </trkpt>
      <trkpt lat="42.7075419389" lon="20.1461487729">
        <ele>1029.71</ele>
        <time>2019-07-11T12:07:41Z</time>
      </trkpt>
      <trkpt lat="42.7076210640" lon="20.1461905148">
        <ele>1030.67</ele>
        <time>2019-07-11T12:07:48Z</time>
      </trkpt>
      <trkpt lat="42.7077405062" lon="20.1462703105">
        <ele>1032.11</ele>
        <time>2019-07-11T12:08:00Z</time>
      </trkpt>
      <trkpt lat="42.7078458667" lon="20.1463565603">
        <ele>1034.04</ele>
        <time>2019-07-11T12:08:11Z</time>
      </trkpt>
      <trkpt lat="42.7079438511" lon="20.1464159042">
        <ele>1035.00</ele>
        <time>2019-07-11T12:08:21Z</time>
      </trkpt>
      <trkpt lat="42.7080983296" lon="20.1464825403">
        <ele>1036.44</ele>
        <time>2019-07-11T12:08:34Z</time>
      </trkpt>
      <trkpt lat="42.7081899438" lon="20.1465075184">
        <ele>1036.92</ele>
        <time>2019-07-11T12:08:43Z</time>
      </trkpt>
      <trkpt lat="42.7082630340" lon="20.1465367712">
        <ele>1037.88</ele>
        <time>2019-07-11T12:08:50Z</time>
      </trkpt>
      <trkpt lat="42.7082780376" lon="20.1465546247">
        <ele>1037.88</ele>
        <time>2019-07-11T12:08:52Z</time>
      </trkpt>
      <trkpt lat="42.7083431650" lon="20.1466060057">
        <ele>1038.84</ele>
        <time>2019-07-11T12:08:58Z</time>
      </trkpt>
      <trkpt lat="42.7084669657" lon="20.1466868073">
        <ele>1040.76</ele>
        <time>2019-07-11T12:09:10Z</time>
      </trkpt>
      <trkpt lat="42.7085518744" lon="20.1468714606">
        <ele>1042.69</ele>
        <time>2019-07-11T12:09:24Z</time>
      </trkpt>
      <trkpt lat="42.7085493598" lon="20.1469047368">
        <ele>1042.69</ele>
        <time>2019-07-11T12:09:26Z</time>
      </trkpt>
      <trkpt lat="42.7085354459" lon="20.1470254362">
        <ele>1043.65</ele>
        <time>2019-07-11T12:09:33Z</time>
      </trkpt>
      <trkpt lat="42.7084967215" lon="20.1472319663">
        <ele>1046.05</ele>
        <time>2019-07-11T12:09:47Z</time>
      </trkpt>
      <trkpt lat="42.7084298339" lon="20.1474524941">
        <ele>1047.49</ele>
        <time>2019-07-11T12:10:01Z</time>
      </trkpt>
      <trkpt lat="42.7083925344" lon="20.1475587767">
        <ele>1049.42</ele>
        <time>2019-07-11T12:10:10Z</time>
      </trkpt>
      <trkpt lat="42.7083440870" lon="20.1477882732">
        <ele>1051.34</ele>
        <time>2019-07-11T12:10:24Z</time>
      </trkpt>
      <trkpt lat="42.7083208691" lon="20.1479396503">
        <ele>1052.78</ele>
        <time>2019-07-11T12:10:35Z</time>
      </trkpt>
      <trkpt lat="42.7083077934" lon="20.1480583381">
        <ele>1054.22</ele>
        <time>2019-07-11T12:10:44Z</time>
      </trkpt>
      <trkpt lat="42.7083116490" lon="20.1482838113">
        <ele>1056.15</ele>
        <time>2019-07-11T12:10:59Z</time>
      </trkpt>
      <trkpt lat="42.7083344478" lon="20.1484403852">
        <ele>1058.55</ele>
        <time>2019-07-11T12:11:10Z</time>
      </trkpt>
      <trkpt lat="42.7083562408" lon="20.1486302353">
        <ele>1060.95</ele>
        <time>2019-07-11T12:11:22Z</time>
      </trkpt>
      <trkpt lat="42.7083704062" lon="20.1486658584">
        <ele>1061.43</ele>
        <time>2019-07-11T12:11:25Z</time>
      </trkpt>
      <trkpt lat="42.7083791234" lon="20.1486747433">
        <ele>1061.43</ele>
        <time>2019-07-11T12:11:26Z</time>
      </trkpt>
      <trkpt lat="42.7084302530" lon="20.1488475781">
        <ele>1063.84</ele>
        <time>2019-07-11T12:11:38Z</time>
      </trkpt>
      <trkpt lat="42.7084525488" lon="20.1488683652">
        <ele>1063.84</ele>
        <time>2019-07-11T12:11:41Z</time>
      </trkpt>
      <trkpt lat="42.7084874175" lon="20.1488868892">
        <ele>1064.80</ele>
        <time>2019-07-11T12:11:45Z</time>
      </trkpt>
      <trkpt lat="42.7085238788" lon="20.1489370130">
        <ele>1065.28</ele>
        <time>2019-07-11T12:11:49Z</time>
      </trkpt>
      <trkpt lat="42.7085910179" lon="20.1490132883">
        <ele>1066.72</ele>
        <time>2019-07-11T12:11:58Z</time>
      </trkpt>
      <trkpt lat="42.7086201031" lon="20.1490630768">
        <ele>1067.20</ele>
        <time>2019-07-11T12:12:03Z</time>
      </trkpt>
      <trkpt lat="42.7086432371" lon="20.1490712073">
        <ele>1067.20</ele>
        <time>2019-07-11T12:12:05Z</time>
      </trkpt>
      <trkpt lat="42.7086652815" lon="20.1490774937">
        <ele>1067.20</ele>
        <time>2019-07-11T12:12:07Z</time>
      </trkpt>
      <trkpt lat="42.7088138089" lon="20.1491274498">
        <ele>1067.68</ele>
        <time>2019-07-11T12:12:19Z</time>
      </trkpt>
      <trkpt lat="42.7089676168" lon="20.1492587943">
        <ele>1068.64</ele>
        <time>2019-07-11T12:12:33Z</time>
      </trkpt>
      <trkpt lat="42.7089956123" lon="20.1492712833">
        <ele>1068.64</ele>
        <time>2019-07-11T12:12:36Z</time>
      </trkpt>
      <trkpt lat="42.7090150584" lon="20.1492929924">
        <ele>1068.64</ele>
        <time>2019-07-11T12:12:38Z</time>
      </trkpt>
      <trkpt lat="42.7090230212" lon="20.1493105106">
        <ele>1068.64</ele>
        <time>2019-07-11T12:12:39Z</time>
      </trkpt>
      <trkpt lat="42.7091142163" lon="20.1494086627">
        <ele>1069.60</ele>
        <time>2019-07-11T12:12:49Z</time>
      </trkpt>
      <trkpt lat="42.7091951855" lon="20.1494680066">
        <ele>1070.08</ele>
        <time>2019-07-11T12:12:57Z</time>
      </trkpt>
      <trkpt lat="42.7092444710" lon="20.1495058928">
        <ele>1070.57</ele>
        <time>2019-07-11T12:13:02Z</time>
      </trkpt>
      <trkpt lat="42.7093458083" lon="20.1496022847">
        <ele>1071.05</ele>
        <time>2019-07-11T12:13:11Z</time>
      </trkpt>
      <trkpt lat="42.7093639132" lon="20.1496467926">
        <ele>1071.53</ele>
        <time>2019-07-11T12:13:14Z</time>
      </trkpt>
      <trkpt lat="42.7094185632" lon="20.1497047115">
        <ele>1072.01</ele>
        <time>2019-07-11T12:13:20Z</time>
      </trkpt>
      <trkpt lat="42.7094802540" lon="20.1497642230">
        <ele>1072.49</ele>
        <time>2019-07-11T12:13:26Z</time>
      </trkpt>
      <trkpt lat="42.7095311321" lon="20.1497603673">
        <ele>1072.49</ele>
        <time>2019-07-11T12:13:29Z</time>
      </trkpt>
      <trkpt lat="42.7095418610" lon="20.1497705095">
        <ele>1072.97</ele>
        <time>2019-07-11T12:13:30Z</time>
      </trkpt>
      <trkpt lat="42.7095780708" lon="20.1497821603">
        <ele>1072.97</ele>
        <time>2019-07-11T12:13:33Z</time>
      </trkpt>
      <trkpt lat="42.7097314596" lon="20.1497311983">
        <ele>1073.45</ele>
        <time>2019-07-11T12:13:48Z</time>
      </trkpt>
      <trkpt lat="42.7097721957" lon="20.1496542525">
        <ele>1073.45</ele>
        <time>2019-07-11T12:13:52Z</time>
      </trkpt>
      <trkpt lat="42.7099296078" lon="20.1494307071">
        <ele>1073.45</ele>
        <time>2019-07-11T12:14:07Z</time>
      </trkpt>
      <trkpt lat="42.7100799792" lon="20.1493457146">
        <ele>1073.93</ele>
        <time>2019-07-11T12:14:20Z</time>
      </trkpt>
      <trkpt lat="42.7102155145" lon="20.1493558567">
        <ele>1074.89</ele>
        <time>2019-07-11T12:14:31Z</time>
      </trkpt>
      <trkpt lat="42.7103985753" lon="20.1494424418">
        <ele>1076.81</ele>
        <time>2019-07-11T12:14:48Z</time>
      </trkpt>
      <trkpt lat="42.7105641179" lon="20.1493642386">
        <ele>1078.26</ele>
        <time>2019-07-11T12:15:02Z</time>
      </trkpt>
      <trkpt lat="42.7106376272" lon="20.1493016258">
        <ele>1079.70</ele>
        <time>2019-07-11T12:15:10Z</time>
      </trkpt>
      <trkpt lat="42.7106758486" lon="20.1492693555">
        <ele>1080.18</ele>
        <time>2019-07-11T12:15:14Z</time>
      </trkpt>
      <trkpt lat="42.7106899302" lon="20.1492599677">
        <ele>1080.18</ele>
        <time>2019-07-11T12:15:15Z</time>
      </trkpt>
      <trkpt lat="42.7107685525" lon="20.1491857879">
        <ele>1081.14</ele>
        <time>2019-07-11T12:15:24Z</time>
      </trkpt>
      <trkpt lat="42.7108728234" lon="20.1490598079">
        <ele>1083.06</ele>
        <time>2019-07-11T12:15:37Z</time>
      </trkpt>
      <trkpt lat="42.7109776810" lon="20.1489550341">
        <ele>1084.50</ele>
        <time>2019-07-11T12:15:50Z</time>
      </trkpt>
      <trkpt lat="42.7109794412" lon="20.1489481609">
        <ele>1084.50</ele>
        <time>2019-07-11T12:15:51Z</time>
      </trkpt>
      <trkpt lat="42.7111261245" lon="20.1488975342">
        <ele>1086.43</ele>
        <time>2019-07-11T12:16:04Z</time>
      </trkpt>
      <trkpt lat="42.7112729754" lon="20.1488925051">
        <ele>1087.39</ele>
        <time>2019-07-11T12:16:17Z</time>
      </trkpt>
      <trkpt lat="42.7112804353" lon="20.1488868892">
        <ele>1087.39</ele>
        <time>2019-07-11T12:16:18Z</time>
      </trkpt>
      <trkpt lat="42.7114002965" lon="20.1488835365">
        <ele>1088.35</ele>
        <time>2019-07-11T12:16:25Z</time>
      </trkpt>
      <trkpt lat="42.7115710359" lon="20.1488813572">
        <ele>1088.83</ele>
        <time>2019-07-11T12:16:38Z</time>
      </trkpt>
      <trkpt lat="42.7117580362" lon="20.1488578040">
        <ele>1089.79</ele>
        <time>2019-07-11T12:16:51Z</time>
      </trkpt>
      <trkpt lat="42.7119092457" lon="20.1488349214">
        <ele>1090.27</ele>
        <time>2019-07-11T12:17:03Z</time>
      </trkpt>
      <trkpt lat="42.7119606268" lon="20.1488263719">
        <ele>1090.75</ele>
        <time>2019-07-11T12:17:07Z</time>
      </trkpt>
      <trkpt lat="42.7121987566" lon="20.1487952750">
        <ele>1091.71</ele>
        <time>2019-07-11T12:17:25Z</time>
      </trkpt>
      <trkpt lat="42.7123748604" lon="20.1488020644">
        <ele>1093.64</ele>
        <time>2019-07-11T12:17:39Z</time>
      </trkpt>
      <trkpt lat="42.7125336137" lon="20.1488536969">
        <ele>1094.12</ele>
        <time>2019-07-11T12:17:53Z</time>
      </trkpt>
      <trkpt lat="42.7125720028" lon="20.1488936786">
        <ele>1094.12</ele>
        <time>2019-07-11T12:17:56Z</time>
      </trkpt>
      <trkpt lat="42.7126455959" lon="20.1489671040">
        <ele>1095.08</ele>
        <time>2019-07-11T12:18:02Z</time>
      </trkpt>
      <trkpt lat="42.7127454244" lon="20.1491577923">
        <ele>1096.04</ele>
        <time>2019-07-11T12:18:15Z</time>
      </trkpt>
      <trkpt lat="42.7127855737" lon="20.1492094249">
        <ele>1096.52</ele>
        <time>2019-07-11T12:18:20Z</time>
      </trkpt>
      <trkpt lat="42.7128836419" lon="20.1494120155">
        <ele>1097.48</ele>
        <time>2019-07-11T12:18:34Z</time>
      </trkpt>
      <trkpt lat="42.7129848953" lon="20.1495763846">
        <ele>1098.92</ele>
        <time>2019-07-11T12:18:47Z</time>
      </trkpt>
      <trkpt lat="42.7130057663" lon="20.1496064756">
        <ele>1098.92</ele>
        <time>2019-07-11T12:18:50Z</time>
      </trkpt>
      <trkpt lat="42.7131144796" lon="20.1497908775">
        <ele>1100.37</ele>
        <time>2019-07-11T12:19:04Z</time>
      </trkpt>
      <trkpt lat="42.7132041659" lon="20.1499631256">
        <ele>1101.33</ele>
        <time>2019-07-11T12:19:17Z</time>
      </trkpt>
      <trkpt lat="42.7132273000" lon="20.1500472799">
        <ele>1101.81</ele>
        <time>2019-07-11T12:19:22Z</time>
      </trkpt>
      <trkpt lat="42.7132709697" lon="20.1501678955">
        <ele>1102.77</ele>
        <time>2019-07-11T12:19:30Z</time>
      </trkpt>
      <trkpt lat="42.7132756636" lon="20.1502039377">
        <ele>1102.77</ele>
        <time>2019-07-11T12:19:32Z</time>
      </trkpt>
      <trkpt lat="42.7132917568" lon="20.1502476074">
        <ele>1103.25</ele>
        <time>2019-07-11T12:19:35Z</time>
      </trkpt>
      <trkpt lat="42.7132943552" lon="20.1502801292">
        <ele>1103.25</ele>
        <time>2019-07-11T12:19:37Z</time>
      </trkpt>
      <trkpt lat="42.7133937646" lon="20.1504005771">
        <ele>1104.69</ele>
        <time>2019-07-11T12:19:49Z</time>
      </trkpt>
      <trkpt lat="42.7135013044" lon="20.1505380403">
        <ele>1106.13</ele>
        <time>2019-07-11T12:20:02Z</time>
      </trkpt>
      <trkpt lat="42.7136121970" lon="20.1507066004">
        <ele>1107.58</ele>
        <time>2019-07-11T12:20:16Z</time>
      </trkpt>
      <trkpt lat="42.7136819344" lon="20.1507947780">
        <ele>1109.02</ele>
        <time>2019-07-11T12:20:24Z</time>
      </trkpt>
      <trkpt lat="42.7138458844" lon="20.1508413814">
        <ele>1109.50</ele>
        <time>2019-07-11T12:20:37Z</time>
      </trkpt>
      <trkpt lat="42.7140405122" lon="20.1508891582">
        <ele>1109.50</ele>
        <time>2019-07-11T12:20:53Z</time>
      </trkpt>
      <trkpt lat="42.7141963318" lon="20.1510677766">
        <ele>1109.50</ele>
        <time>2019-07-11T12:21:07Z</time>
      </trkpt>
      <trkpt lat="42.7142207231" lon="20.1511800941">
        <ele>1109.50</ele>
        <time>2019-07-11T12:21:13Z</time>
      </trkpt>
      <trkpt lat="42.7142705955" lon="20.1512545254">
        <ele>1109.50</ele>
        <time>2019-07-11T12:21:19Z</time>
      </trkpt>
      <trkpt lat="42.7142876107" lon="20.1512699481">
        <ele>1109.50</ele>
        <time>2019-07-11T12:21:20Z</time>
      </trkpt>
      <trkpt lat="42.7144020237" lon="20.1514351554">
        <ele>1108.06</ele>
        <time>2019-07-11T12:21:35Z</time>
      </trkpt>
      <trkpt lat="42.7144779637" lon="20.1515774801">
        <ele>1109.50</ele>
        <time>2019-07-11T12:21:47Z</time>
      </trkpt>
      <trkpt lat="42.7145335358" lon="20.1515618898">
        <ele>1109.98</ele>
        <time>2019-07-11T12:22:06Z</time>
      </trkpt>
      <trkpt lat="42.7145420015" lon="20.1514070760">
        <ele>1109.98</ele>
        <time>2019-07-11T12:22:19Z</time>
      </trkpt>
      <trkpt lat="42.7145867608" lon="20.1514045615">
        <ele>1110.46</ele>
        <time>2019-07-11T12:22:33Z</time>
      </trkpt>
      <trkpt lat="42.7146044467" lon="20.1514025498">
        <ele>1110.46</ele>
        <time>2019-07-11T12:22:35Z</time>
      </trkpt>
      <trkpt lat="42.7146896906" lon="20.1513600536">
        <ele>1111.90</ele>
        <time>2019-07-11T12:22:50Z</time>
      </trkpt>
      <trkpt lat="42.7147966437" lon="20.1513440441">
        <ele>1113.34</ele>
        <time>2019-07-11T12:23:03Z</time>
      </trkpt>
      <trkpt lat="42.7148490306" lon="20.1513644122">
        <ele>1114.31</ele>
        <time>2019-07-11T12:23:08Z</time>
      </trkpt>
      <trkpt lat="42.7149063628" lon="20.1513996162">
        <ele>1114.79</ele>
        <time>2019-07-11T12:23:14Z</time>
      </trkpt>
      <trkpt lat="42.7149470989" lon="20.1514616422">
        <ele>1115.27</ele>
        <time>2019-07-11T12:23:20Z</time>
      </trkpt>
      <trkpt lat="42.7150092926" lon="20.1515488140">
        <ele>1115.75</ele>
        <time>2019-07-11T12:23:24Z</time>
      </trkpt>
      <trkpt lat="42.7150139865" lon="20.1515833475">
        <ele>1115.75</ele>
        <time>2019-07-11T12:23:27Z</time>
      </trkpt>
      <trkpt lat="42.7149747591" lon="20.1516112592">
        <ele>1116.71</ele>
        <time>2019-07-11T12:23:34Z</time>
      </trkpt>
      <trkpt lat="42.7149190195" lon="20.1516330522">
        <ele>1117.19</ele>
        <time>2019-07-11T12:23:41Z</time>
      </trkpt>
      <trkpt lat="42.7148511261" lon="20.1517011970">
        <ele>1118.63</ele>
        <time>2019-07-11T12:23:48Z</time>
      </trkpt>
      <trkpt lat="42.7148197778" lon="20.1517314557">
        <ele>1118.63</ele>
        <time>2019-07-11T12:23:52Z</time>
      </trkpt>
      <trkpt lat="42.7147492021" lon="20.1517752092">
        <ele>1119.11</ele>
        <time>2019-07-11T12:23:59Z</time>
      </trkpt>
      <trkpt lat="42.7147037722" lon="20.1517932303">
        <ele>1119.59</ele>
        <time>2019-07-11T12:24:04Z</time>
      </trkpt>
      <trkpt lat="42.7146888524" lon="20.1517903805">
        <ele>1119.59</ele>
        <time>2019-07-11T12:24:05Z</time>
      </trkpt>
      <trkpt lat="42.7146425843" lon="20.1518374030">
        <ele>1120.07</ele>
        <time>2019-07-11T12:24:10Z</time>
      </trkpt>
      <trkpt lat="42.7146172710" lon="20.1518705115">
        <ele>1120.07</ele>
        <time>2019-07-11T12:24:13Z</time>
      </trkpt>
      <trkpt lat="42.7145549096" lon="20.1519244071">
        <ele>1121.52</ele>
        <time>2019-07-11T12:24:20Z</time>
      </trkpt>
      <trkpt lat="42.7144523989" lon="20.1519847568">
        <ele>1123.92</ele>
        <time>2019-07-11T12:24:32Z</time>
      </trkpt>
      <trkpt lat="42.7144093998" lon="20.1519937254">
        <ele>1124.40</ele>
        <time>2019-07-11T12:24:37Z</time>
      </trkpt>
      <trkpt lat="42.7143572643" lon="20.1520241518">
        <ele>1125.84</ele>
        <time>2019-07-11T12:24:43Z</time>
      </trkpt>
      <trkpt lat="42.7142690029" lon="20.1520652231">
        <ele>1127.76</ele>
        <time>2019-07-11T12:24:56Z</time>
      </trkpt>
      <trkpt lat="42.7142667398" lon="20.1520649716">
        <ele>1128.24</ele>
        <time>2019-07-11T12:24:57Z</time>
      </trkpt>
      <trkpt lat="42.7142676618" lon="20.1520905364">
        <ele>1128.73</ele>
        <time>2019-07-11T12:25:00Z</time>
      </trkpt>
      <trkpt lat="42.7143518161" lon="20.1521416660">
        <ele>1130.65</ele>
        <time>2019-07-11T12:25:14Z</time>
      </trkpt>
      <trkpt lat="42.7143862657" lon="20.1521467790">
        <ele>1130.65</ele>
        <time>2019-07-11T12:25:18Z</time>
      </trkpt>
      <trkpt lat="42.7144073881" lon="20.1521581784">
        <ele>1131.13</ele>
        <time>2019-07-11T12:25:21Z</time>
      </trkpt>
      <trkpt lat="42.7144253254" lon="20.1521577593">
        <ele>1131.13</ele>
        <time>2019-07-11T12:25:23Z</time>
      </trkpt>
      <trkpt lat="42.7145084739" lon="20.1521793846">
        <ele>1132.57</ele>
        <time>2019-07-11T12:25:33Z</time>
      </trkpt>
      <trkpt lat="42.7145156823" lon="20.1521807257">
        <ele>1132.57</ele>
        <time>2019-07-11T12:25:34Z</time>
      </trkpt>
      <trkpt lat="42.7146505471" lon="20.1522476971">
        <ele>1134.01</ele>
        <time>2019-07-11T12:25:49Z</time>
      </trkpt>
      <trkpt lat="42.7148370445" lon="20.1523560751">
        <ele>1134.97</ele>
        <time>2019-07-11T12:26:02Z</time>
      </trkpt>
      <trkpt lat="42.7148522157" lon="20.1523648761">
        <ele>1134.97</ele>
        <time>2019-07-11T12:26:04Z</time>
      </trkpt>
      <trkpt lat="42.7149315923" lon="20.1524083782">
        <ele>1135.45</ele>
        <time>2019-07-11T12:26:11Z</time>
      </trkpt>
      <trkpt lat="42.7149681374" lon="20.1524341945">
        <ele>1135.94</ele>
        <time>2019-07-11T12:26:15Z</time>
      </trkpt>
      <trkpt lat="42.7149835601" lon="20.1524401456">
        <ele>1136.42</ele>
        <time>2019-07-11T12:26:16Z</time>
      </trkpt>
      <trkpt lat="42.7151106298" lon="20.1524888445">
        <ele>1136.90</ele>
        <time>2019-07-11T12:26:27Z</time>
      </trkpt>
      <trkpt lat="42.7151768468" lon="20.1525310054">
        <ele>1137.38</ele>
        <time>2019-07-11T12:26:34Z</time>
      </trkpt>
      <trkpt lat="42.7152525354" lon="20.1526095439">
        <ele>1137.86</ele>
        <time>2019-07-11T12:26:40Z</time>
      </trkpt>
      <trkpt lat="42.7152605820" lon="20.1526217815">
        <ele>1137.86</ele>
        <time>2019-07-11T12:26:41Z</time>
      </trkpt>
      <trkpt lat="42.7153271344" lon="20.1526848972">
        <ele>1138.82</ele>
        <time>2019-07-11T12:26:47Z</time>
      </trkpt>
      <trkpt lat="42.7154392004" lon="20.1528076082">
        <ele>1140.74</ele>
        <time>2019-07-11T12:27:02Z</time>
      </trkpt>
      <trkpt lat="42.7155170683" lon="20.1529314090">
        <ele>1142.18</ele>
        <time>2019-07-11T12:27:13Z</time>
      </trkpt>
      <trkpt lat="42.7155305631" lon="20.1529447362">
        <ele>1142.18</ele>
        <time>2019-07-11T12:27:15Z</time>
      </trkpt>
      <trkpt lat="42.7155631687" lon="20.1529628411">
        <ele>1142.66</ele>
        <time>2019-07-11T12:27:19Z</time>
      </trkpt>
      <trkpt lat="42.7155746520" lon="20.1529749110">
        <ele>1142.66</ele>
        <time>2019-07-11T12:27:20Z</time>
      </trkpt>
      <trkpt lat="42.7156319842" lon="20.1530008949">
        <ele>1143.14</ele>
        <time>2019-07-11T12:27:26Z</time>
      </trkpt>
      <trkpt lat="42.7157932520" lon="20.1530397031">
        <ele>1144.59</ele>
        <time>2019-07-11T12:27:39Z</time>
      </trkpt>
      <trkpt lat="42.7159290388" lon="20.1530782599">
        <ele>1145.55</ele>
        <time>2019-07-11T12:27:51Z</time>
      </trkpt>
      <trkpt lat="42.7160722855" lon="20.1531294733">
        <ele>1148.43</ele>
        <time>2019-07-11T12:28:05Z</time>
      </trkpt>
      <trkpt lat="42.7161038015" lon="20.1531315688">
        <ele>1148.91</ele>
        <time>2019-07-11T12:28:08Z</time>
      </trkpt>
      <trkpt lat="42.7162112575" lon="20.1532016415">
        <ele>1149.87</ele>
        <time>2019-07-11T12:28:18Z</time>
      </trkpt>
      <trkpt lat="42.7162270155" lon="20.1532224286">
        <ele>1150.35</ele>
        <time>2019-07-11T12:28:20Z</time>
      </trkpt>
      <trkpt lat="42.7163161989" lon="20.1533269510">
        <ele>1151.80</ele>
        <time>2019-07-11T12:28:33Z</time>
      </trkpt>
      <trkpt lat="42.7163386624" lon="20.1533952635">
        <ele>1152.28</ele>
        <time>2019-07-11T12:28:39Z</time>
      </trkpt>
      <trkpt lat="42.7163446136" lon="20.1535143703">
        <ele>1152.28</ele>
        <time>2019-07-11T12:28:47Z</time>
      </trkpt>
      <trkpt lat="42.7164116688" lon="20.1537359040">
        <ele>1152.28</ele>
        <time>2019-07-11T12:29:02Z</time>
      </trkpt>
      <trkpt lat="42.7164657321" lon="20.1539290231">
        <ele>1152.76</ele>
        <time>2019-07-11T12:29:15Z</time>
      </trkpt>
      <trkpt lat="42.7165018581" lon="20.1541467849">
        <ele>1152.76</ele>
        <time>2019-07-11T12:29:30Z</time>
      </trkpt>
      <trkpt lat="42.7165255789" lon="20.1541881915">
        <ele>1152.76</ele>
        <time>2019-07-11T12:29:42Z</time>
      </trkpt>
      <trkpt lat="42.7165061329" lon="20.1543570869">
        <ele>1152.76</ele>
        <time>2019-07-11T12:30:05Z</time>
      </trkpt>
      <trkpt lat="42.7164976671" lon="20.1542196237">
        <ele>1152.28</ele>
        <time>2019-07-11T12:30:35Z</time>
      </trkpt>
      <trkpt lat="42.7165664826" lon="20.1543502137">
        <ele>1152.28</ele>
        <time>2019-07-11T12:30:55Z</time>
      </trkpt>
      <trkpt lat="42.7166259103" lon="20.1544983219">
        <ele>1151.80</ele>
        <time>2019-07-11T12:31:02Z</time>
      </trkpt>
      <trkpt lat="42.7167803049" lon="20.1547718234">
        <ele>1151.80</ele>
        <time>2019-07-11T12:31:20Z</time>
      </trkpt>
      <trkpt lat="42.7170450054" lon="20.1552101132">
        <ele>1153.72</ele>
        <time>2019-07-11T12:31:35Z</time>
      </trkpt>
      <trkpt lat="42.7171310876" lon="20.1553988736">
        <ele>1154.68</ele>
        <time>2019-07-11T12:31:39Z</time>
      </trkpt>
      <trkpt lat="42.7172408905" lon="20.1556287892">
        <ele>1157.56</ele>
        <time>2019-07-11T12:31:45Z</time>
      </trkpt>
      <trkpt lat="42.7174604964" lon="20.1557413582">
        <ele>1159.49</ele>
        <time>2019-07-11T12:31:51Z</time>
      </trkpt>
      <trkpt lat="42.7179749776" lon="20.1557144523">
        <ele>1161.89</ele>
        <time>2019-07-11T12:32:03Z</time>
      </trkpt>
      <trkpt lat="42.7182930708" lon="20.1556686871">
        <ele>1164.29</ele>
        <time>2019-07-11T12:32:08Z</time>
      </trkpt>
      <trkpt lat="42.7187320311" lon="20.1557577029">
        <ele>1168.14</ele>
        <time>2019-07-11T12:32:14Z</time>
      </trkpt>
      <trkpt lat="42.7188052051" lon="20.1557851955">
        <ele>1168.62</ele>
        <time>2019-07-11T12:32:15Z</time>
      </trkpt>
      <trkpt lat="42.7188855875" lon="20.1558264345">
        <ele>1169.58</ele>
        <time>2019-07-11T12:32:16Z</time>
      </trkpt>
      <trkpt lat="42.7190811373" lon="20.1562155224">
        <ele>1173.43</ele>
        <time>2019-07-11T12:32:21Z</time>
      </trkpt>
      <trkpt lat="42.7192922775" lon="20.1565972343">
        <ele>1176.31</ele>
        <time>2019-07-11T12:32:25Z</time>
      </trkpt>
      <trkpt lat="42.7194894198" lon="20.1568333525">
        <ele>1179.19</ele>
        <time>2019-07-11T12:32:28Z</time>
      </trkpt>
      <trkpt lat="42.7197924256" lon="20.1574196666">
        <ele>1183.04</ele>
        <time>2019-07-11T12:32:34Z</time>
      </trkpt>
      <trkpt lat="42.7199077606" lon="20.1576215029">
        <ele>1183.52</ele>
        <time>2019-07-11T12:32:36Z</time>
      </trkpt>
      <trkpt lat="42.7202477306" lon="20.1578717865">
        <ele>1185.92</ele>
        <time>2019-07-11T12:32:41Z</time>
      </trkpt>
      <trkpt lat="42.7204385865" lon="20.1579524204">
        <ele>1187.37</ele>
        <time>2019-07-11T12:32:49Z</time>
      </trkpt>
      <trkpt lat="42.7204706054" lon="20.1579750516">
        <ele>1186.88</ele>
        <time>2019-07-11T12:33:10Z</time>
      </trkpt>
      <trkpt lat="42.7207693364" lon="20.1581479702">
        <ele>1190.25</ele>
        <time>2019-07-11T12:33:17Z</time>
      </trkpt>
      <trkpt lat="42.7208253276" lon="20.1581840962">
        <ele>1190.25</ele>
        <time>2019-07-11T12:33:18Z</time>
      </trkpt>
      <trkpt lat="42.7208831627" lon="20.1582260896">
        <ele>1190.73</ele>
        <time>2019-07-11T12:33:19Z</time>
      </trkpt>
      <trkpt lat="42.7210433409" lon="20.1586573385">
        <ele>1194.09</ele>
        <time>2019-07-11T12:33:24Z</time>
      </trkpt>
      <trkpt lat="42.7211083006" lon="20.1589817181">
        <ele>1196.98</ele>
        <time>2019-07-11T12:33:27Z</time>
      </trkpt>
      <trkpt lat="42.7212668024" lon="20.1592860650">
        <ele>1199.38</ele>
        <time>2019-07-11T12:33:30Z</time>
      </trkpt>
      <trkpt lat="42.7214628551" lon="20.1596977841">
        <ele>1203.71</ele>
        <time>2019-07-11T12:33:34Z</time>
      </trkpt>
      <trkpt lat="42.7215079498" lon="20.1597914100">
        <ele>1204.67</ele>
        <time>2019-07-11T12:33:35Z</time>
      </trkpt>
      <trkpt lat="42.7219974529" lon="20.1599976886">
        <ele>1209.48</ele>
        <time>2019-07-11T12:33:41Z</time>
      </trkpt>
      <trkpt lat="42.7220907435" lon="20.1599759795">
        <ele>1210.92</ele>
        <time>2019-07-11T12:33:42Z</time>
      </trkpt>
      <trkpt lat="42.7224422805" lon="20.1602042187">
        <ele>1214.28</ele>
        <time>2019-07-11T12:33:47Z</time>
      </trkpt>
      <trkpt lat="42.7228185441" lon="20.1604861021">
        <ele>1220.53</ele>
        <time>2019-07-11T12:33:52Z</time>
      </trkpt>
      <trkpt lat="42.7231688239" lon="20.1607278362">
        <ele>1223.90</ele>
        <time>2019-07-11T12:33:56Z</time>
      </trkpt>
      <trkpt lat="42.7234517969" lon="20.1610543951">
        <ele>1229.18</ele>
        <time>2019-07-11T12:34:00Z</time>
      </trkpt>
      <trkpt lat="42.7237660345" lon="20.1612916868">
        <ele>1234.47</ele>
        <time>2019-07-11T12:34:04Z</time>
      </trkpt>
      <trkpt lat="42.7240000572" lon="20.1614344306">
        <ele>1237.83</ele>
        <time>2019-07-11T12:34:07Z</time>
      </trkpt>
      <trkpt lat="42.7242816053" lon="20.1617454831">
        <ele>1241.68</ele>
        <time>2019-07-11T12:34:11Z</time>
      </trkpt>
      <trkpt lat="42.7243420389" lon="20.1618194114">
        <ele>1242.64</ele>
        <time>2019-07-11T12:34:12Z</time>
      </trkpt>
      <trkpt lat="42.7245616447" lon="20.1619301364">
        <ele>1245.53</ele>
        <time>2019-07-11T12:34:15Z</time>
      </trkpt>
      <trkpt lat="42.7246258501" lon="20.1619271189">
        <ele>1246.97</ele>
        <time>2019-07-11T12:34:16Z</time>
      </trkpt>
      <trkpt lat="42.7248985972" lon="20.1619601436">
        <ele>1248.41</ele>
        <time>2019-07-11T12:34:24Z</time>
      </trkpt>
      <trkpt lat="42.7248914726" lon="20.1619350817">
        <ele>1248.41</ele>
        <time>2019-07-11T12:34:39Z</time>
      </trkpt>
      <trkpt lat="42.7249003574" lon="20.1619772427">
        <ele>1247.93</ele>
        <time>2019-07-11T12:34:54Z</time>
      </trkpt>
      <trkpt lat="42.7248843480" lon="20.1619358361">
        <ele>1247.93</ele>
        <time>2019-07-11T12:35:10Z</time>
      </trkpt>
      <trkpt lat="42.7249177918" lon="20.1618706249">
        <ele>1247.93</ele>
        <time>2019-07-11T12:35:27Z</time>
      </trkpt>
      <trkpt lat="42.7249236591" lon="20.1618579682">
        <ele>1247.45</ele>
        <time>2019-07-11T12:35:45Z</time>
      </trkpt>
      <trkpt lat="42.7250213921" lon="20.1618126221">
        <ele>1247.93</ele>
        <time>2019-07-11T12:36:00Z</time>
      </trkpt>
      <trkpt lat="42.7250712644" lon="20.1618044917">
        <ele>1248.89</ele>
        <time>2019-07-11T12:36:06Z</time>
      </trkpt>
      <trkpt lat="42.7251011040" lon="20.1618079282">
        <ele>1249.37</ele>
        <time>2019-07-11T12:36:10Z</time>
      </trkpt>
      <trkpt lat="42.7252583485" lon="20.1618868019">
        <ele>1249.85</ele>
        <time>2019-07-11T12:36:26Z</time>
      </trkpt>
      <trkpt lat="42.7252866793" lon="20.1619034819">
        <ele>1250.33</ele>
        <time>2019-07-11T12:36:29Z</time>
      </trkpt>
      <trkpt lat="42.7253359649" lon="20.1619734708">
        <ele>1251.29</ele>
        <time>2019-07-11T12:36:38Z</time>
      </trkpt>
      <trkpt lat="42.7253564168" lon="20.1619834453">
        <ele>1251.29</ele>
        <time>2019-07-11T12:36:40Z</time>
      </trkpt>
      <trkpt lat="42.7255304251" lon="20.1620026398">
        <ele>1253.22</ele>
        <time>2019-07-11T12:36:54Z</time>
      </trkpt>
      <trkpt lat="42.7256854903" lon="20.1619566232">
        <ele>1255.62</ele>
        <time>2019-07-11T12:37:10Z</time>
      </trkpt>
      <trkpt lat="42.7258045133" lon="20.1618990395">
        <ele>1257.06</ele>
        <time>2019-07-11T12:37:23Z</time>
      </trkpt>
      <trkpt lat="42.7258192655" lon="20.1618709601">
        <ele>1257.06</ele>
        <time>2019-07-11T12:37:27Z</time>
      </trkpt>
      <trkpt lat="42.7259322535" lon="20.1617907453">
        <ele>1257.54</ele>
        <time>2019-07-11T12:37:38Z</time>
      </trkpt>
      <trkpt lat="42.7260367759" lon="20.1616854686">
        <ele>1258.50</ele>
        <time>2019-07-11T12:37:50Z</time>
      </trkpt>
      <trkpt lat="42.7260433976" lon="20.1616768353">
        <ele>1258.02</ele>
        <time>2019-07-11T12:37:51Z</time>
      </trkpt>
      <trkpt lat="42.7261115424" lon="20.1616561320">
        <ele>1258.50</ele>
        <time>2019-07-11T12:37:56Z</time>
      </trkpt>
      <trkpt lat="42.7262261230" lon="20.1615861431">
        <ele>1259.94</ele>
        <time>2019-07-11T12:38:09Z</time>
      </trkpt>
      <trkpt lat="42.7263347525" lon="20.1615376957">
        <ele>1260.43</ele>
        <time>2019-07-11T12:38:20Z</time>
      </trkpt>
      <trkpt lat="42.7263570484" lon="20.1615407132">
        <ele>1260.91</ele>
        <time>2019-07-11T12:38:23Z</time>
      </trkpt>
      <trkpt lat="42.7264267858" lon="20.1615528669">
        <ele>1261.87</ele>
        <time>2019-07-11T12:38:28Z</time>
      </trkpt>
      <trkpt lat="42.7264728863" lon="20.1615708042">
        <ele>1262.35</ele>
        <time>2019-07-11T12:38:32Z</time>
      </trkpt>
      <trkpt lat="42.7265130356" lon="20.1616081037">
        <ele>1262.35</ele>
        <time>2019-07-11T12:38:37Z</time>
      </trkpt>
      <trkpt lat="42.7265790012" lon="20.1616704650">
        <ele>1263.31</ele>
        <time>2019-07-11T12:38:43Z</time>
      </trkpt>
      <trkpt lat="42.7267437056" lon="20.1617009751">
        <ele>1265.23</ele>
        <time>2019-07-11T12:38:57Z</time>
      </trkpt>
      <trkpt lat="42.7267656662" lon="20.1617061719">
        <ele>1265.23</ele>
        <time>2019-07-11T12:38:59Z</time>
      </trkpt>
      <trkpt lat="42.7268468030" lon="20.1617698744">
        <ele>1266.67</ele>
        <time>2019-07-11T12:39:09Z</time>
      </trkpt>
      <trkpt lat="42.7268907242" lon="20.1618872210">
        <ele>1269.08</ele>
        <time>2019-07-11T12:39:20Z</time>
      </trkpt>
      <trkpt lat="42.7269035485" lon="20.1619136240">
        <ele>1269.08</ele>
        <time>2019-07-11T12:39:23Z</time>
      </trkpt>
      <trkpt lat="42.7269348130" lon="20.1619591378">
        <ele>1269.56</ele>
        <time>2019-07-11T12:39:26Z</time>
      </trkpt>
      <trkpt lat="42.7270374075" lon="20.1620025560">
        <ele>1271.48</ele>
        <time>2019-07-11T12:39:37Z</time>
      </trkpt>
      <trkpt lat="42.7271569334" lon="20.1620205771">
        <ele>1273.88</ele>
        <time>2019-07-11T12:39:51Z</time>
      </trkpt>
      <trkpt lat="42.7271810733" lon="20.1620240137">
        <ele>1273.88</ele>
        <time>2019-07-11T12:39:53Z</time>
      </trkpt>
      <trkpt lat="42.7272502240" lon="20.1619743928">
        <ele>1275.33</ele>
        <time>2019-07-11T12:40:02Z</time>
      </trkpt>
      <trkpt lat="42.7272591088" lon="20.1619685255">
        <ele>1275.33</ele>
        <time>2019-07-11T12:40:03Z</time>
      </trkpt>
      <trkpt lat="42.7273537405" lon="20.1619292144">
        <ele>1276.77</ele>
        <time>2019-07-11T12:40:13Z</time>
      </trkpt>
      <trkpt lat="42.7273811493" lon="20.1619044039">
        <ele>1277.73</ele>
        <time>2019-07-11T12:40:16Z</time>
      </trkpt>
      <trkpt lat="42.7274827380" lon="20.1617878117">
        <ele>1279.65</ele>
        <time>2019-07-11T12:40:28Z</time>
      </trkpt>
      <trkpt lat="42.7275248989" lon="20.1616057567">
        <ele>1280.61</ele>
        <time>2019-07-11T12:40:40Z</time>
      </trkpt>
      <trkpt lat="42.7275399864" lon="20.1614539605">
        <ele>1282.06</ele>
        <time>2019-07-11T12:40:49Z</time>
      </trkpt>
      <trkpt lat="42.7275463566" lon="20.1614027470">
        <ele>1282.54</ele>
        <time>2019-07-11T12:40:52Z</time>
      </trkpt>
      <trkpt lat="42.7275710832" lon="20.1612069458">
        <ele>1283.98</ele>
        <time>2019-07-11T12:41:07Z</time>
      </trkpt>
      <trkpt lat="42.7275769506" lon="20.1611859072">
        <ele>1284.46</ele>
        <time>2019-07-11T12:41:09Z</time>
      </trkpt>
      <trkpt lat="42.7276028506" lon="20.1610708237">
        <ele>1286.38</ele>
        <time>2019-07-11T12:41:19Z</time>
      </trkpt>
      <trkpt lat="42.7276559081" lon="20.1610037684">
        <ele>1287.82</ele>
        <time>2019-07-11T12:41:29Z</time>
      </trkpt>
      <trkpt lat="42.7276895195" lon="20.1609716658">
        <ele>1288.30</ele>
        <time>2019-07-11T12:41:33Z</time>
      </trkpt>
      <trkpt lat="42.7277004160" lon="20.1609659661">
        <ele>1288.30</ele>
        <time>2019-07-11T12:41:34Z</time>
      </trkpt>
      <trkpt lat="42.7278428245" lon="20.1609119866">
        <ele>1291.19</ele>
        <time>2019-07-11T12:41:49Z</time>
      </trkpt>
      <trkpt lat="42.7279546391" lon="20.1608821470">
        <ele>1292.63</ele>
        <time>2019-07-11T12:42:00Z</time>
      </trkpt>
      <trkpt lat="42.7279833890" lon="20.1608764473">
        <ele>1293.59</ele>
        <time>2019-07-11T12:42:03Z</time>
      </trkpt>
      <trkpt lat="42.7280579880" lon="20.1608290896">
        <ele>1294.07</ele>
        <time>2019-07-11T12:42:12Z</time>
      </trkpt>
      <trkpt lat="42.7281321678" lon="20.1607572567">
        <ele>1296.48</ele>
        <time>2019-07-11T12:42:21Z</time>
      </trkpt>
      <trkpt lat="42.7281395439" lon="20.1607467793">
        <ele>1296.48</ele>
        <time>2019-07-11T12:42:22Z</time>
      </trkpt>
      <trkpt lat="42.7281995583" lon="20.1606407482">
        <ele>1297.44</ele>
        <time>2019-07-11T12:42:32Z</time>
      </trkpt>
      <trkpt lat="42.7281966247" lon="20.1605956536">
        <ele>1297.44</ele>
        <time>2019-07-11T12:42:35Z</time>
      </trkpt>
      <trkpt lat="42.7281370293" lon="20.1605368126">
        <ele>1298.40</ele>
        <time>2019-07-11T12:42:42Z</time>
      </trkpt>
      <trkpt lat="42.7280620113" lon="20.1605517324">
        <ele>1299.84</ele>
        <time>2019-07-11T12:42:49Z</time>
      </trkpt>
      <trkpt lat="42.7280476782" lon="20.1605614554">
        <ele>1299.84</ele>
        <time>2019-07-11T12:42:51Z</time>
      </trkpt>
      <trkpt lat="42.7280115522" lon="20.1605689153">
        <ele>1300.32</ele>
        <time>2019-07-11T12:42:56Z</time>
      </trkpt>
      <trkpt lat="42.7279148251" lon="20.1605036203">
        <ele>1301.28</ele>
        <time>2019-07-11T12:43:09Z</time>
      </trkpt>
      <trkpt lat="42.7279020846" lon="20.1604826655">
        <ele>1301.76</ele>
        <time>2019-07-11T12:43:10Z</time>
      </trkpt>
      <trkpt lat="42.7277811337" lon="20.1604398340">
        <ele>1302.72</ele>
        <time>2019-07-11T12:43:23Z</time>
      </trkpt>
      <trkpt lat="42.7276931237" lon="20.1604484674">
        <ele>1304.65</ele>
        <time>2019-07-11T12:43:33Z</time>
      </trkpt>
      <trkpt lat="42.7276523877" lon="20.1604334638">
        <ele>1305.61</ele>
        <time>2019-07-11T12:43:38Z</time>
      </trkpt>
      <trkpt lat="42.7276365459" lon="20.1603941526">
        <ele>1306.57</ele>
        <time>2019-07-11T12:43:42Z</time>
      </trkpt>
      <trkpt lat="42.7276486158" lon="20.1602672506">
        <ele>1308.01</ele>
        <time>2019-07-11T12:43:51Z</time>
      </trkpt>
      <trkpt lat="42.7276505437" lon="20.1601810008">
        <ele>1308.97</ele>
        <time>2019-07-11T12:43:55Z</time>
      </trkpt>
      <trkpt lat="42.7276984043" lon="20.1600952540">
        <ele>1310.41</ele>
        <time>2019-07-11T12:44:03Z</time>
      </trkpt>
      <trkpt lat="42.7277222089" lon="20.1601066533">
        <ele>1310.41</ele>
        <time>2019-07-11T12:44:05Z</time>
      </trkpt>
      <trkpt lat="42.7278106380" lon="20.1600503270">
        <ele>1312.34</ele>
        <time>2019-07-11T12:44:17Z</time>
      </trkpt>
      <trkpt lat="42.7279134840" lon="20.1600053161">
        <ele>1315.22</ele>
        <time>2019-07-11T12:44:32Z</time>
      </trkpt>
      <trkpt lat="42.7280209400" lon="20.1599671785">
        <ele>1317.62</ele>
        <time>2019-07-11T12:44:46Z</time>
      </trkpt>
      <trkpt lat="42.7281423099" lon="20.1599572878">
        <ele>1319.55</ele>
        <time>2019-07-11T12:45:01Z</time>
      </trkpt>
      <trkpt lat="42.7281483449" lon="20.1599555276">
        <ele>1320.51</ele>
        <time>2019-07-11T12:45:02Z</time>
      </trkpt>
      <trkpt lat="42.7282270510" lon="20.1599365007">
        <ele>1320.99</ele>
        <time>2019-07-11T12:45:10Z</time>
      </trkpt>
      <trkpt lat="42.7283269633" lon="20.1599028055">
        <ele>1323.39</ele>
        <time>2019-07-11T12:45:20Z</time>
      </trkpt>
      <trkpt lat="42.7283757459" lon="20.1598376781">
        <ele>1323.87</ele>
        <time>2019-07-11T12:45:26Z</time>
      </trkpt>
      <trkpt lat="42.7284073457" lon="20.1597519312">
        <ele>1325.31</ele>
        <time>2019-07-11T12:45:33Z</time>
      </trkpt>
      <trkpt lat="42.7284293063" lon="20.1596940961">
        <ele>1326.28</ele>
        <time>2019-07-11T12:45:38Z</time>
      </trkpt>
      <trkpt lat="42.7285205014" lon="20.1596189942">
        <ele>1326.76</ele>
        <time>2019-07-11T12:45:49Z</time>
      </trkpt>
      <trkpt lat="42.7286510915" lon="20.1596064214">
        <ele>1328.20</ele>
        <time>2019-07-11T12:46:03Z</time>
      </trkpt>
      <trkpt lat="42.7287773229" lon="20.1596287172">
        <ele>1329.64</ele>
        <time>2019-07-11T12:46:16Z</time>
      </trkpt>
      <trkpt lat="42.7288375050" lon="20.1596640889">
        <ele>1330.60</ele>
        <time>2019-07-11T12:46:26Z</time>
      </trkpt>
      <trkpt lat="42.7288762294" lon="20.1596238557">
        <ele>1331.56</ele>
        <time>2019-07-11T12:46:40Z</time>
      </trkpt>
      <trkpt lat="42.7288502455" lon="20.1596490853">
        <ele>1331.56</ele>
        <time>2019-07-11T12:46:59Z</time>
      </trkpt>
      <trkpt lat="42.7288308833" lon="20.1596324053">
        <ele>1330.12</ele>
        <time>2019-07-11T12:47:26Z</time>
      </trkpt>
      <trkpt lat="42.7288317215" lon="20.1596319024">
        <ele>1330.12</ele>
        <time>2019-07-11T12:47:29Z</time>
      </trkpt>
      <trkpt lat="42.7286602277" lon="20.1595843770">
        <ele>1327.72</ele>
        <time>2019-07-11T12:47:44Z</time>
      </trkpt>
      <trkpt lat="42.7284933440" lon="20.1595907472">
        <ele>1326.76</ele>
        <time>2019-07-11T12:47:59Z</time>
      </trkpt>
      <trkpt lat="42.7284532785" lon="20.1596145518">
        <ele>1326.28</ele>
        <time>2019-07-11T12:48:03Z</time>
      </trkpt>
      <trkpt lat="42.7284183260" lon="20.1596629992">
        <ele>1326.28</ele>
        <time>2019-07-11T12:48:07Z</time>
      </trkpt>
      <trkpt lat="42.7283490915" lon="20.1598335709">
        <ele>1324.35</ele>
        <time>2019-07-11T12:48:21Z</time>
      </trkpt>
      <trkpt lat="42.7283234429" lon="20.1598554477">
        <ele>1323.39</ele>
        <time>2019-07-11T12:48:24Z</time>
      </trkpt>
      <trkpt lat="42.7282354329" lon="20.1599081699">
        <ele>1321.47</ele>
        <time>2019-07-11T12:48:33Z</time>
      </trkpt>
      <trkpt lat="42.7281180862" lon="20.1599261072">
        <ele>1319.07</ele>
        <time>2019-07-11T12:48:47Z</time>
      </trkpt>
      <trkpt lat="42.7280670404" lon="20.1599282026">
        <ele>1318.10</ele>
        <time>2019-07-11T12:48:57Z</time>
      </trkpt>
      <trkpt lat="42.7279142383" lon="20.1599597186">
        <ele>1315.70</ele>
        <time>2019-07-11T12:49:10Z</time>
      </trkpt>
      <trkpt lat="42.7278433274" lon="20.1599858701">
        <ele>1313.30</ele>
        <time>2019-07-11T12:49:17Z</time>
      </trkpt>
      <trkpt lat="42.7277690638" lon="20.1600390114">
        <ele>1311.86</ele>
        <time>2019-07-11T12:49:29Z</time>
      </trkpt>
      <trkpt lat="42.7277568262" lon="20.1600515004">
        <ele>1311.86</ele>
        <time>2019-07-11T12:49:34Z</time>
      </trkpt>
      <trkpt lat="42.7277295850" lon="20.1600762270">
        <ele>1310.90</ele>
        <time>2019-07-11T12:49:50Z</time>
      </trkpt>
      <trkpt lat="42.7277497854" lon="20.1600577030">
        <ele>1310.90</ele>
        <time>2019-07-11T12:50:09Z</time>
      </trkpt>
      <trkpt lat="42.7276431676" lon="20.1601302903">
        <ele>1308.49</ele>
        <time>2019-07-11T12:50:24Z</time>
      </trkpt>
      <trkpt lat="42.7275184449" lon="20.1602693461">
        <ele>1306.57</ele>
        <time>2019-07-11T12:50:37Z</time>
      </trkpt>
      <trkpt lat="42.7273596916" lon="20.1603526622">
        <ele>1306.57</ele>
        <time>2019-07-11T12:50:52Z</time>
      </trkpt>
      <trkpt lat="42.7271719370" lon="20.1604146883">
        <ele>1306.09</ele>
        <time>2019-07-11T12:51:08Z</time>
      </trkpt>
      <trkpt lat="42.7271065582" lon="20.1604240760">
        <ele>1306.09</ele>
        <time>2019-07-11T12:51:13Z</time>
      </trkpt>
      <trkpt lat="42.7270565182" lon="20.1604255009">
        <ele>1305.61</ele>
        <time>2019-07-11T12:51:17Z</time>
      </trkpt>
      <trkpt lat="42.7270167042" lon="20.1604269259">
        <ele>1305.61</ele>
        <time>2019-07-11T12:51:20Z</time>
      </trkpt>
      <trkpt lat="42.7269504033" lon="20.1603796519">
        <ele>1305.13</ele>
        <time>2019-07-11T12:51:27Z</time>
      </trkpt>
      <trkpt lat="42.7268749662" lon="20.1601535082">
        <ele>1305.13</ele>
        <time>2019-07-11T12:51:43Z</time>
      </trkpt>
      <trkpt lat="42.7267970983" lon="20.1599671785">
        <ele>1306.57</ele>
        <time>2019-07-11T12:51:56Z</time>
      </trkpt>
      <trkpt lat="42.7267586254" lon="20.1598809287">
        <ele>1305.13</ele>
        <time>2019-07-11T12:52:03Z</time>
      </trkpt>
      <trkpt lat="42.7266860381" lon="20.1597141288">
        <ele>1304.17</ele>
        <time>2019-07-11T12:52:16Z</time>
      </trkpt>
      <trkpt lat="42.7266100142" lon="20.1594715565">
        <ele>1303.69</ele>
        <time>2019-07-11T12:52:31Z</time>
      </trkpt>
      <trkpt lat="42.7264935058" lon="20.1592386235">
        <ele>1302.72</ele>
        <time>2019-07-11T12:52:45Z</time>
      </trkpt>
      <trkpt lat="42.7264841180" lon="20.1591153257">
        <ele>1301.28</ele>
        <time>2019-07-11T12:53:01Z</time>
      </trkpt>
      <trkpt lat="42.7265005466" lon="20.1591001544">
        <ele>1301.28</ele>
        <time>2019-07-11T12:53:05Z</time>
      </trkpt>
      <trkpt lat="42.7266543545" lon="20.1590763498">
        <ele>1301.28</ele>
        <time>2019-07-11T12:53:19Z</time>
      </trkpt>
      <trkpt lat="42.7269015368" lon="20.1590701472">
        <ele>1300.80</ele>
        <time>2019-07-11T12:53:37Z</time>
      </trkpt>
      <trkpt lat="42.7270726953" lon="20.1590866596">
        <ele>1300.80</ele>
        <time>2019-07-11T12:53:51Z</time>
      </trkpt>
      <trkpt lat="42.7272828296" lon="20.1590635255">
        <ele>1302.24</ele>
        <time>2019-07-11T12:54:08Z</time>
      </trkpt>
      <trkpt lat="42.7274107374" lon="20.1589942072">
        <ele>1302.72</ele>
        <time>2019-07-11T12:54:20Z</time>
      </trkpt>
      <trkpt lat="42.7274842467" lon="20.1588714961">
        <ele>1301.28</ele>
        <time>2019-07-11T12:54:28Z</time>
      </trkpt>
      <trkpt lat="42.7275077160" lon="20.1588256471">
        <ele>1300.80</ele>
        <time>2019-07-11T12:54:31Z</time>
      </trkpt>
      <trkpt lat="42.7275263239" lon="20.1587824803">
        <ele>1300.32</ele>
        <time>2019-07-11T12:54:34Z</time>
      </trkpt>
      <trkpt lat="42.7276380546" lon="20.1585621201">
        <ele>1298.40</ele>
        <time>2019-07-11T12:54:49Z</time>
      </trkpt>
      <trkpt lat="42.7276146691" lon="20.1582902111">
        <ele>1298.40</ele>
        <time>2019-07-11T12:55:05Z</time>
      </trkpt>
      <trkpt lat="42.7275801357" lon="20.1580690965">
        <ele>1298.40</ele>
        <time>2019-07-11T12:55:20Z</time>
      </trkpt>
      <trkpt lat="42.7275790460" lon="20.1580497343">
        <ele>1298.40</ele>
        <time>2019-07-11T12:55:21Z</time>
      </trkpt>
      <trkpt lat="42.7275432553" lon="20.1577769034">
        <ele>1297.92</ele>
        <time>2019-07-11T12:55:37Z</time>
      </trkpt>
      <trkpt lat="42.7275295928" lon="20.1575137954">
        <ele>1297.92</ele>
        <time>2019-07-11T12:55:53Z</time>
      </trkpt>
      <trkpt lat="42.7275417466" lon="20.1573098637">
        <ele>1299.36</ele>
        <time>2019-07-11T12:56:07Z</time>
      </trkpt>
      <trkpt lat="42.7275123261" lon="20.1571871527">
        <ele>1300.32</ele>
        <time>2019-07-11T12:56:17Z</time>
      </trkpt>
      <trkpt lat="42.7275141701" lon="20.1571051776">
        <ele>1300.80</ele>
        <time>2019-07-11T12:56:29Z</time>
      </trkpt>
      <trkpt lat="42.7275077999" lon="20.1571084466">
        <ele>1300.80</ele>
        <time>2019-07-11T12:56:51Z</time>
      </trkpt>
      <trkpt lat="42.7274764515" lon="20.1571513619">
        <ele>1300.80</ele>
        <time>2019-07-11T12:57:16Z</time>
      </trkpt>
      <trkpt lat="42.7275005914" lon="20.1571107097">
        <ele>1300.80</ele>
        <time>2019-07-11T12:57:42Z</time>
      </trkpt>
      <trkpt lat="42.7274907846" lon="20.1571207680">
        <ele>1300.80</ele>
        <time>2019-07-11T12:58:07Z</time>
      </trkpt>
      <trkpt lat="42.7274702489" lon="20.1570744161">
        <ele>1301.28</ele>
        <time>2019-07-11T12:58:31Z</time>
      </trkpt>
      <trkpt lat="42.7273982484" lon="20.1569914352">
        <ele>1302.24</ele>
        <time>2019-07-11T12:58:44Z</time>
      </trkpt>
      <trkpt lat="42.7273180336" lon="20.1568929479">
        <ele>1303.69</ele>
        <time>2019-07-11T12:58:58Z</time>
      </trkpt>
      <trkpt lat="42.7273187879" lon="20.1568172593">
        <ele>1305.61</ele>
        <time>2019-07-11T12:59:10Z</time>
      </trkpt>
      <trkpt lat="42.7273859270" lon="20.1567683090">
        <ele>1307.05</ele>
        <time>2019-07-11T12:59:21Z</time>
      </trkpt>
      <trkpt lat="42.7274748590" lon="20.1567025110">
        <ele>1309.93</ele>
        <time>2019-07-11T12:59:34Z</time>
      </trkpt>
      <trkpt lat="42.7274919581" lon="20.1566550694">
        <ele>1310.41</ele>
        <time>2019-07-11T12:59:50Z</time>
      </trkpt>
      <trkpt lat="42.7274735179" lon="20.1566594280">
        <ele>1310.41</ele>
        <time>2019-07-11T13:00:02Z</time>
      </trkpt>
      <trkpt lat="42.7274833247" lon="20.1566673908">
        <ele>1310.41</ele>
        <time>2019-07-11T13:00:17Z</time>
      </trkpt>
      <trkpt lat="42.7274979930" lon="20.1566768624">
        <ele>1310.41</ele>
        <time>2019-07-11T13:00:19Z</time>
      </trkpt>
      <trkpt lat="42.7276390605" lon="20.1567402296">
        <ele>1310.41</ele>
        <time>2019-07-11T13:00:34Z</time>
      </trkpt>
      <trkpt lat="42.7276909444" lon="20.1567352843">
        <ele>1310.41</ele>
        <time>2019-07-11T13:00:47Z</time>
      </trkpt>
      <trkpt lat="42.7277424932" lon="20.1566914469">
        <ele>1310.41</ele>
        <time>2019-07-11T13:01:06Z</time>
      </trkpt>
      <trkpt lat="42.7277464326" lon="20.1566551533">
        <ele>1310.90</ele>
        <time>2019-07-11T13:01:20Z</time>
      </trkpt>
      <trkpt lat="42.7278004959" lon="20.1566068735">
        <ele>1312.82</ele>
        <time>2019-07-11T13:01:33Z</time>
      </trkpt>
      <trkpt lat="42.7278529666" lon="20.1565488707">
        <ele>1314.74</ele>
        <time>2019-07-11T13:01:46Z</time>
      </trkpt>
      <trkpt lat="42.7278940380" lon="20.1564957295">
        <ele>1317.14</ele>
        <time>2019-07-11T13:01:59Z</time>
      </trkpt>
      <trkpt lat="42.7278866619" lon="20.1564574242">
        <ele>1318.10</ele>
        <time>2019-07-11T13:02:10Z</time>
      </trkpt>
      <trkpt lat="42.7278153319" lon="20.1563918777">
        <ele>1319.07</ele>
        <time>2019-07-11T13:02:23Z</time>
      </trkpt>
      <trkpt lat="42.7277561557" lon="20.1563270856">
        <ele>1321.47</ele>
        <time>2019-07-11T13:02:35Z</time>
      </trkpt>
      <trkpt lat="42.7276981529" lon="20.1562354714">
        <ele>1323.87</ele>
        <time>2019-07-11T13:02:49Z</time>
      </trkpt>
      <trkpt lat="42.7276794612" lon="20.1561344694">
        <ele>1325.80</ele>
        <time>2019-07-11T13:03:01Z</time>
      </trkpt>
      <trkpt lat="42.7276712470" lon="20.1560395863">
        <ele>1327.24</ele>
        <time>2019-07-11T13:03:14Z</time>
      </trkpt>
      <trkpt lat="42.7276743483" lon="20.1559794880">
        <ele>1328.68</ele>
        <time>2019-07-11T13:03:26Z</time>
      </trkpt>
      <trkpt lat="42.7276994102" lon="20.1559250895">
        <ele>1330.12</ele>
        <time>2019-07-11T13:03:38Z</time>
      </trkpt>
      <trkpt lat="42.7277380507" lon="20.1558459643">
        <ele>1333.01</ele>
        <time>2019-07-11T13:03:52Z</time>
      </trkpt>
      <trkpt lat="42.7277639508" lon="20.1557538472">
        <ele>1334.93</ele>
        <time>2019-07-11T13:04:03Z</time>
      </trkpt>
      <trkpt lat="42.7277683094" lon="20.1556276157">
        <ele>1337.33</ele>
        <time>2019-07-11T13:04:17Z</time>
      </trkpt>
      <trkpt lat="42.7277528029" lon="20.1555294637">
        <ele>1338.77</ele>
        <time>2019-07-11T13:04:29Z</time>
      </trkpt>
      <trkpt lat="42.7277398109" lon="20.1554755680">
        <ele>1338.77</ele>
        <time>2019-07-11T13:04:42Z</time>
      </trkpt>
      <trkpt lat="42.7276939619" lon="20.1553758234">
        <ele>1341.18</ele>
        <time>2019-07-11T13:04:54Z</time>
      </trkpt>
      <trkpt lat="42.7276652958" lon="20.1552451495">
        <ele>1342.62</ele>
        <time>2019-07-11T13:05:05Z</time>
      </trkpt>
      <trkpt lat="42.7276604343" lon="20.1552223507">
        <ele>1342.62</ele>
        <time>2019-07-11T13:05:07Z</time>
      </trkpt>
      <trkpt lat="42.7276414912" lon="20.1550474204">
        <ele>1344.06</ele>
        <time>2019-07-11T13:05:21Z</time>
      </trkpt>
      <trkpt lat="42.7276277449" lon="20.1549138129">
        <ele>1345.50</ele>
        <time>2019-07-11T13:05:34Z</time>
      </trkpt>
      <trkpt lat="42.7276250627" lon="20.1547880005">
        <ele>1347.91</ele>
        <time>2019-07-11T13:05:47Z</time>
      </trkpt>
      <trkpt lat="42.7276260685" lon="20.1546896808">
        <ele>1349.83</ele>
        <time>2019-07-11T13:06:01Z</time>
      </trkpt>
      <trkpt lat="42.7276694030" lon="20.1545807999">
        <ele>1352.71</ele>
        <time>2019-07-11T13:06:15Z</time>
      </trkpt>
      <trkpt lat="42.7276798803" lon="20.1544709969">
        <ele>1355.12</ele>
        <time>2019-07-11T13:06:29Z</time>
      </trkpt>
      <trkpt lat="42.7276938781" lon="20.1543888543">
        <ele>1357.04</ele>
        <time>2019-07-11T13:06:43Z</time>
      </trkpt>
      <trkpt lat="42.7277321834" lon="20.1543460228">
        <ele>1358.96</ele>
        <time>2019-07-11T13:06:58Z</time>
      </trkpt>
      <trkpt lat="42.7278137393" lon="20.1543744374">
        <ele>1361.36</ele>
        <time>2019-07-11T13:07:10Z</time>
      </trkpt>
      <trkpt lat="42.7279262245" lon="20.1544279978">
        <ele>1363.77</ele>
        <time>2019-07-11T13:07:25Z</time>
      </trkpt>
      <trkpt lat="42.7280510310" lon="20.1544854138">
        <ele>1364.25</ele>
        <time>2019-07-11T13:07:40Z</time>
      </trkpt>
      <trkpt lat="42.7281541284" lon="20.1545276586">
        <ele>1364.73</ele>
        <time>2019-07-11T13:07:53Z</time>
      </trkpt>
      <trkpt lat="42.7282251231" lon="20.1544855814">
        <ele>1366.65</ele>
        <time>2019-07-11T13:08:08Z</time>
      </trkpt>
      <trkpt lat="42.7282611653" lon="20.1544345357">
        <ele>1368.57</ele>
        <time>2019-07-11T13:08:19Z</time>
      </trkpt>
      <trkpt lat="42.7282946091" lon="20.1543649659">
        <ele>1371.94</ele>
        <time>2019-07-11T13:08:32Z</time>
      </trkpt>
      <trkpt lat="42.7283308189" lon="20.1543240622">
        <ele>1373.86</ele>
        <time>2019-07-11T13:08:43Z</time>
      </trkpt>
      <trkpt lat="42.7283550426" lon="20.1542449370">
        <ele>1375.30</ele>
        <time>2019-07-11T13:08:54Z</time>
      </trkpt>
      <trkpt lat="42.7283975389" lon="20.1542096492">
        <ele>1377.71</ele>
        <time>2019-07-11T13:09:06Z</time>
      </trkpt>
      <trkpt lat="42.7284543682" lon="20.1541528199">
        <ele>1379.63</ele>
        <time>2019-07-11T13:09:18Z</time>
      </trkpt>
      <trkpt lat="42.7284828667" lon="20.1540879440">
        <ele>1382.03</ele>
        <time>2019-07-11T13:09:30Z</time>
      </trkpt>
      <trkpt lat="42.7285122033" lon="20.1540132612">
        <ele>1383.96</ele>
        <time>2019-07-11T13:09:42Z</time>
      </trkpt>
      <trkpt lat="42.7285491675" lon="20.1539146900">
        <ele>1386.84</ele>
        <time>2019-07-11T13:09:57Z</time>
      </trkpt>
      <trkpt lat="42.7285628300" lon="20.1538644824">
        <ele>1389.24</ele>
        <time>2019-07-11T13:10:08Z</time>
      </trkpt>
      <trkpt lat="42.7285659313" lon="20.1537771430">
        <ele>1392.13</ele>
        <time>2019-07-11T13:10:22Z</time>
      </trkpt>
      <trkpt lat="42.7285124548" lon="20.1536650769">
        <ele>1394.05</ele>
        <time>2019-07-11T13:10:36Z</time>
      </trkpt>
      <trkpt lat="42.7285544481" lon="20.1536316331">
        <ele>1395.97</ele>
        <time>2019-07-11T13:10:46Z</time>
      </trkpt>
      <trkpt lat="42.7286243532" lon="20.1536188927">
        <ele>1397.41</ele>
        <time>2019-07-11T13:10:57Z</time>
      </trkpt>
      <trkpt lat="42.7286059968" lon="20.1535348222">
        <ele>1398.86</ele>
        <time>2019-07-11T13:11:08Z</time>
      </trkpt>
      <trkpt lat="42.7286370937" lon="20.1534985285">
        <ele>1400.30</ele>
        <time>2019-07-11T13:11:18Z</time>
      </trkpt>
      <trkpt lat="42.7287006285" lon="20.1534922421">
        <ele>1401.26</ele>
        <time>2019-07-11T13:11:28Z</time>
      </trkpt>
      <trkpt lat="42.7287815139" lon="20.1535174716">
        <ele>1402.70</ele>
        <time>2019-07-11T13:11:38Z</time>
      </trkpt>
      <trkpt lat="42.7288629860" lon="20.1535079163">
        <ele>1405.10</ele>
        <time>2019-07-11T13:11:53Z</time>
      </trkpt>
      <trkpt lat="42.7288855333" lon="20.1534920745">
        <ele>1405.58</ele>
        <time>2019-07-11T13:11:56Z</time>
      </trkpt>
      <trkpt lat="42.7289444581" lon="20.1534400228">
        <ele>1407.51</ele>
        <time>2019-07-11T13:12:07Z</time>
      </trkpt>
      <trkpt lat="42.7290226612" lon="20.1534112729">
        <ele>1409.91</ele>
        <time>2019-07-11T13:12:19Z</time>
      </trkpt>
      <trkpt lat="42.7290928178" lon="20.1533663459">
        <ele>1411.83</ele>
        <time>2019-07-11T13:12:34Z</time>
      </trkpt>
      <trkpt lat="42.7291653212" lon="20.1533438824">
        <ele>1414.24</ele>
        <time>2019-07-11T13:12:48Z</time>
      </trkpt>
      <trkpt lat="42.7292653173" lon="20.1533896476">
        <ele>1414.72</ele>
        <time>2019-07-11T13:13:02Z</time>
      </trkpt>
      <trkpt lat="42.7292988449" lon="20.1533127856">
        <ele>1416.16</ele>
        <time>2019-07-11T13:13:13Z</time>
      </trkpt>
      <trkpt lat="42.7293524053" lon="20.1532638352">
        <ele>1418.08</ele>
        <time>2019-07-11T13:13:25Z</time>
      </trkpt>
      <trkpt lat="42.7294436842" lon="20.1532980334">
        <ele>1420.00</ele>
        <time>2019-07-11T13:13:38Z</time>
      </trkpt>
      <trkpt lat="42.7295732684" lon="20.1533868816">
        <ele>1422.89</ele>
        <time>2019-07-11T13:13:56Z</time>
      </trkpt>
      <trkpt lat="42.7296599373" lon="20.1534496620">
        <ele>1424.81</ele>
        <time>2019-07-11T13:14:07Z</time>
      </trkpt>
      <trkpt lat="42.7297447622" lon="20.1535156276">
        <ele>1426.25</ele>
        <time>2019-07-11T13:14:20Z</time>
      </trkpt>
      <trkpt lat="42.7298278268" lon="20.1535561122">
        <ele>1428.18</ele>
        <time>2019-07-11T13:14:34Z</time>
      </trkpt>
      <trkpt lat="42.7299423236" lon="20.1536116842">
        <ele>1429.62</ele>
        <time>2019-07-11T13:14:49Z</time>
      </trkpt>
      <trkpt lat="42.7300346084" lon="20.1536754705">
        <ele>1431.06</ele>
        <time>2019-07-11T13:15:01Z</time>
      </trkpt>
      <trkpt lat="42.7300760150" lon="20.1537701860">
        <ele>1432.98</ele>
        <time>2019-07-11T13:15:12Z</time>
      </trkpt>
      <trkpt lat="42.7301384602" lon="20.1538390014">
        <ele>1434.91</ele>
        <time>2019-07-11T13:15:26Z</time>
      </trkpt>
      <trkpt lat="42.7302005701" lon="20.1539332978">
        <ele>1436.83</ele>
        <time>2019-07-11T13:15:40Z</time>
      </trkpt>
      <trkpt lat="42.7303058468" lon="20.1539565157">
        <ele>1438.75</ele>
        <time>2019-07-11T13:15:52Z</time>
      </trkpt>
      <trkpt lat="42.7303694654" lon="20.1538771391">
        <ele>1440.67</ele>
        <time>2019-07-11T13:16:03Z</time>
      </trkpt>
      <trkpt lat="42.7304381132" lon="20.1537805796">
        <ele>1443.08</ele>
        <time>2019-07-11T13:16:16Z</time>
      </trkpt>
      <trkpt lat="42.7304998878" lon="20.1536981855">
        <ele>1444.52</ele>
        <time>2019-07-11T13:16:27Z</time>
      </trkpt>
      <trkpt lat="42.7305234410" lon="20.1536270231">
        <ele>1445.96</ele>
        <time>2019-07-11T13:16:34Z</time>
      </trkpt>
      <trkpt lat="42.7305329964" lon="20.1535815932">
        <ele>1446.44</ele>
        <time>2019-07-11T13:16:39Z</time>
      </trkpt>
      <trkpt lat="42.7305541188" lon="20.1534961816">
        <ele>1448.36</ele>
        <time>2019-07-11T13:16:48Z</time>
      </trkpt>
      <trkpt lat="42.7305319905" lon="20.1533918269">
        <ele>1449.81</ele>
        <time>2019-07-11T13:17:01Z</time>
      </trkpt>
      <trkpt lat="42.7305260394" lon="20.1532743964">
        <ele>1451.73</ele>
        <time>2019-07-11T13:17:14Z</time>
      </trkpt>
      <trkpt lat="42.7305069286" lon="20.1531668566">
        <ele>1454.13</ele>
        <time>2019-07-11T13:17:27Z</time>
      </trkpt>
      <trkpt lat="42.7305044979" lon="20.1531170681">
        <ele>1455.09</ele>
        <time>2019-07-11T13:17:34Z</time>
      </trkpt>
      <trkpt lat="42.7304843813" lon="20.1529658586">
        <ele>1457.02</ele>
        <time>2019-07-11T13:17:49Z</time>
      </trkpt>
      <trkpt lat="42.7304871473" lon="20.1529279724">
        <ele>1458.46</ele>
        <time>2019-07-11T13:17:54Z</time>
      </trkpt>
      <trkpt lat="42.7304765023" lon="20.1528175827">
        <ele>1460.86</ele>
        <time>2019-07-11T13:18:06Z</time>
      </trkpt>
      <trkpt lat="42.7304809447" lon="20.1527120546">
        <ele>1463.74</ele>
        <time>2019-07-11T13:18:20Z</time>
      </trkpt>
      <trkpt lat="42.7304879855" lon="20.1526082866">
        <ele>1465.19</ele>
        <time>2019-07-11T13:18:33Z</time>
      </trkpt>
      <trkpt lat="42.7304838784" lon="20.1524837315">
        <ele>1467.59</ele>
        <time>2019-07-11T13:18:47Z</time>
      </trkpt>
      <trkpt lat="42.7304890752" lon="20.1523977332">
        <ele>1470.47</ele>
        <time>2019-07-11T13:19:00Z</time>
      </trkpt>
      <trkpt lat="42.7304902487" lon="20.1522901934">
        <ele>1473.36</ele>
        <time>2019-07-11T13:19:15Z</time>
      </trkpt>
      <trkpt lat="42.7304838784" lon="20.1521742716">
        <ele>1475.76</ele>
        <time>2019-07-11T13:19:30Z</time>
      </trkpt>
      <trkpt lat="42.7304708865" lon="20.1520712581">
        <ele>1478.65</ele>
        <time>2019-07-11T13:19:43Z</time>
      </trkpt>
      <trkpt lat="42.7304761671" lon="20.1519503910">
        <ele>1481.05</ele>
        <time>2019-07-11T13:19:57Z</time>
      </trkpt>
      <trkpt lat="42.7304750774" lon="20.1518219803">
        <ele>1483.45</ele>
        <time>2019-07-11T13:20:11Z</time>
      </trkpt>
      <trkpt lat="42.7304686233" lon="20.1517727785">
        <ele>1484.41</ele>
        <time>2019-07-11T13:20:16Z</time>
      </trkpt>
      <trkpt lat="42.7304921765" lon="20.1516629755">
        <ele>1486.34</ele>
        <time>2019-07-11T13:20:30Z</time>
      </trkpt>
      <trkpt lat="42.7305341698" lon="20.1516042184">
        <ele>1486.34</ele>
        <time>2019-07-11T13:20:40Z</time>
      </trkpt>
      <trkpt lat="42.7305485867" lon="20.1514669228">
        <ele>1488.26</ele>
        <time>2019-07-11T13:20:54Z</time>
      </trkpt>
      <trkpt lat="42.7305484191" lon="20.1513546892">
        <ele>1489.22</ele>
        <time>2019-07-11T13:21:05Z</time>
      </trkpt>
      <trkpt lat="42.7305475809" lon="20.1512393542">
        <ele>1492.10</ele>
        <time>2019-07-11T13:21:18Z</time>
      </trkpt>
      <trkpt lat="42.7305476647" lon="20.1511417888">
        <ele>1494.03</ele>
        <time>2019-07-11T13:21:30Z</time>
      </trkpt>
      <trkpt lat="42.7305477485" lon="20.1511049923">
        <ele>1494.99</ele>
        <time>2019-07-11T13:21:36Z</time>
      </trkpt>
      <trkpt lat="42.7306000516" lon="20.1509916689">
        <ele>1496.91</ele>
        <time>2019-07-11T13:21:49Z</time>
      </trkpt>
      <trkpt lat="42.7306482475" lon="20.1508928463">
        <ele>1498.83</ele>
        <time>2019-07-11T13:22:01Z</time>
      </trkpt>
      <trkpt lat="42.7306968626" lon="20.1507863961">
        <ele>1500.76</ele>
        <time>2019-07-11T13:22:13Z</time>
      </trkpt>
      <trkpt lat="42.7307602298" lon="20.1506906748">
        <ele>1502.20</ele>
        <time>2019-07-11T13:22:24Z</time>
      </trkpt>
      <trkpt lat="42.7308348287" lon="20.1505592465">
        <ele>1504.12</ele>
        <time>2019-07-11T13:22:38Z</time>
      </trkpt>
      <trkpt lat="42.7308653388" lon="20.1504494436">
        <ele>1505.08</ele>
        <time>2019-07-11T13:22:50Z</time>
      </trkpt>
      <trkpt lat="42.7308909874" lon="20.1503237151">
        <ele>1506.04</ele>
        <time>2019-07-11T13:23:00Z</time>
      </trkpt>
      <trkpt lat="42.7309066616" lon="20.1502987370">
        <ele>1506.52</ele>
        <time>2019-07-11T13:23:02Z</time>
      </trkpt>
      <trkpt lat="42.7309305500" lon="20.1502790395">
        <ele>1507.00</ele>
        <time>2019-07-11T13:23:05Z</time>
      </trkpt>
      <trkpt lat="42.7309352439" lon="20.1501446776">
        <ele>1509.89</ele>
        <time>2019-07-11T13:23:17Z</time>
      </trkpt>
      <trkpt lat="42.7309304662" lon="20.1500168536">
        <ele>1511.33</ele>
        <time>2019-07-11T13:23:28Z</time>
      </trkpt>
      <trkpt lat="42.7309468947" lon="20.1498960704">
        <ele>1513.25</ele>
        <time>2019-07-11T13:23:42Z</time>
      </trkpt>
      <trkpt lat="42.7310018800" lon="20.1497927215">
        <ele>1515.66</ele>
        <time>2019-07-11T13:23:55Z</time>
      </trkpt>
      <trkpt lat="42.7310547698" lon="20.1497575175">
        <ele>1517.10</ele>
        <time>2019-07-11T13:24:02Z</time>
      </trkpt>
      <trkpt lat="42.7311070729" lon="20.1497319527">
        <ele>1518.54</ele>
        <time>2019-07-11T13:24:12Z</time>
      </trkpt>
      <trkpt lat="42.7310732938" lon="20.1496790629">
        <ele>1518.54</ele>
        <time>2019-07-11T13:24:29Z</time>
      </trkpt>
      <trkpt lat="42.7310664207" lon="20.1496510673">
        <ele>1518.54</ele>
        <time>2019-07-11T13:24:45Z</time>
      </trkpt>
      <trkpt lat="42.7310675941" lon="20.1496856846">
        <ele>1519.02</ele>
        <time>2019-07-11T13:25:08Z</time>
      </trkpt>
      <trkpt lat="42.7310841903" lon="20.1496291906">
        <ele>1519.02</ele>
        <time>2019-07-11T13:25:39Z</time>
      </trkpt>
      <trkpt lat="42.7311120182" lon="20.1496418472">
        <ele>1519.02</ele>
        <time>2019-07-11T13:26:22Z</time>
      </trkpt>
      <trkpt lat="42.7311257645" lon="20.1496625505">
        <ele>1519.02</ele>
        <time>2019-07-11T13:26:58Z</time>
      </trkpt>
      <trkpt lat="42.7310637385" lon="20.1495312061">
        <ele>1519.50</ele>
        <time>2019-07-11T13:27:23Z</time>
      </trkpt>
      <trkpt lat="42.7309965994" lon="20.1495803241">
        <ele>1519.50</ele>
        <time>2019-07-11T13:27:51Z</time>
      </trkpt>
      <trkpt lat="42.7310016286" lon="20.1496701781">
        <ele>1519.98</ele>
        <time>2019-07-11T13:28:26Z</time>
      </trkpt>
      <trkpt lat="42.7310209069" lon="20.1495954953">
        <ele>1519.98</ele>
        <time>2019-07-11T13:28:56Z</time>
      </trkpt>
      <trkpt lat="42.7309453860" lon="20.1495413482">
        <ele>1520.46</ele>
        <time>2019-07-11T13:29:16Z</time>
      </trkpt>
      <trkpt lat="42.7309142053" lon="20.1494664140">
        <ele>1520.46</ele>
        <time>2019-07-11T13:29:49Z</time>
      </trkpt>
      <trkpt lat="42.7309649158" lon="20.1494888775">
        <ele>1520.46</ele>
        <time>2019-07-11T13:30:24Z</time>
      </trkpt>
      <trkpt lat="42.7309540194" lon="20.1494793221">
        <ele>1520.46</ele>
        <time>2019-07-11T13:30:53Z</time>
      </trkpt>
      <trkpt lat="42.7309934981" lon="20.1495229080">
        <ele>1520.46</ele>
        <time>2019-07-11T13:31:36Z</time>
      </trkpt>
      <trkpt lat="42.7310197335" lon="20.1496900432">
        <ele>1520.46</ele>
        <time>2019-07-11T13:32:09Z</time>
      </trkpt>
      <trkpt lat="42.7310001198" lon="20.1496645622">
        <ele>1520.94</ele>
        <time>2019-07-11T13:32:38Z</time>
      </trkpt>
      <trkpt lat="42.7309907321" lon="20.1497592777">
        <ele>1520.94</ele>
        <time>2019-07-11T13:33:05Z</time>
      </trkpt>
      <trkpt lat="42.7309820987" lon="20.1497352216">
        <ele>1521.42</ele>
        <time>2019-07-11T13:33:39Z</time>
      </trkpt>
      <trkpt lat="42.7309883852" lon="20.1497780532">
        <ele>1521.42</ele>
        <time>2019-07-11T13:34:15Z</time>
      </trkpt>
      <trkpt lat="42.7309686039" lon="20.1497871894">
        <ele>1521.90</ele>
        <time>2019-07-11T13:34:54Z</time>
      </trkpt>
      <trkpt lat="42.7309718728" lon="20.1497793104">
        <ele>1521.90</ele>
        <time>2019-07-11T13:35:05Z</time>
      </trkpt>
      <trkpt lat="42.7309926599" lon="20.1497712638">
        <ele>1521.90</ele>
        <time>2019-07-11T13:35:22Z</time>
      </trkpt>
      <trkpt lat="42.7310209069" lon="20.1497529913">
        <ele>1522.39</ele>
        <time>2019-07-11T13:35:35Z</time>
      </trkpt>
      <trkpt lat="42.7310605533" lon="20.1497586071">
        <ele>1522.87</ele>
        <time>2019-07-11T13:35:51Z</time>
      </trkpt>
      <trkpt lat="42.7310629003" lon="20.1496894564">
        <ele>1522.87</ele>
        <time>2019-07-11T13:36:04Z</time>
      </trkpt>
      <trkpt lat="42.7310629003" lon="20.1496076491">
        <ele>1524.31</ele>
        <time>2019-07-11T13:36:15Z</time>
      </trkpt>
      <trkpt lat="42.7310674265" lon="20.1495086588">
        <ele>1525.27</ele>
        <time>2019-07-11T13:36:26Z</time>
      </trkpt>
      <trkpt lat="42.7310939133" lon="20.1494462136">
        <ele>1526.71</ele>
        <time>2019-07-11T13:36:33Z</time>
      </trkpt>
      <trkpt lat="42.7311752178" lon="20.1493830141">
        <ele>1527.19</ele>
        <time>2019-07-11T13:36:44Z</time>
      </trkpt>
      <trkpt lat="42.7312054764" lon="20.1493297890">
        <ele>1528.63</ele>
        <time>2019-07-11T13:36:51Z</time>
      </trkpt>
      <trkpt lat="42.7312807459" lon="20.1492514182">
        <ele>1530.56</ele>
        <time>2019-07-11T13:37:03Z</time>
      </trkpt>
      <trkpt lat="42.7313115913" lon="20.1491645817">
        <ele>1532.00</ele>
        <time>2019-07-11T13:37:15Z</time>
      </trkpt>
      <trkpt lat="42.7313365694" lon="20.1492068265">
        <ele>1532.48</ele>
        <time>2019-07-11T13:37:29Z</time>
      </trkpt>
      <trkpt lat="42.7313250024" lon="20.1492255181">
        <ele>1531.04</ele>
        <time>2019-07-11T13:37:31Z</time>
      </trkpt>
      <trkpt lat="42.7313106693" lon="20.1493076608">
        <ele>1529.59</ele>
        <time>2019-07-11T13:37:46Z</time>
      </trkpt>
      <trkpt lat="42.7312932350" lon="20.1493090857">
        <ele>1529.59</ele>
        <time>2019-07-11T13:37:57Z</time>
      </trkpt>
      <trkpt lat="42.7312768064" lon="20.1492857002">
        <ele>1529.59</ele>
        <time>2019-07-11T13:38:09Z</time>
      </trkpt>
      <trkpt lat="42.7312658262" lon="20.1492875442">
        <ele>1529.59</ele>
        <time>2019-07-11T13:38:14Z</time>
      </trkpt>
      <trkpt lat="42.7312161215" lon="20.1492757257">
        <ele>1529.59</ele>
        <time>2019-07-11T13:38:18Z</time>
      </trkpt>
      <trkpt lat="42.7311327215" lon="20.1491467282">
        <ele>1531.04</ele>
        <time>2019-07-11T13:38:32Z</time>
      </trkpt>
      <trkpt lat="42.7310883813" lon="20.1490515936">
        <ele>1532.00</ele>
        <time>2019-07-11T13:38:46Z</time>
      </trkpt>
      <trkpt lat="42.7310059033" lon="20.1489193272">
        <ele>1532.96</ele>
        <time>2019-07-11T13:38:59Z</time>
      </trkpt>
      <trkpt lat="42.7308985312" lon="20.1488443092">
        <ele>1535.36</ele>
        <time>2019-07-11T13:39:13Z</time>
      </trkpt>
      <trkpt lat="42.7308867127" lon="20.1488411240">
        <ele>1535.84</ele>
        <time>2019-07-11T13:39:15Z</time>
      </trkpt>
      <trkpt lat="42.7308307216" lon="20.1487163175">
        <ele>1538.25</ele>
        <time>2019-07-11T13:39:29Z</time>
      </trkpt>
      <trkpt lat="42.7308492456" lon="20.1485869009">
        <ele>1539.69</ele>
        <time>2019-07-11T13:39:43Z</time>
      </trkpt>
      <trkpt lat="42.7308576275" lon="20.1485649403">
        <ele>1539.69</ele>
        <time>2019-07-11T13:39:45Z</time>
      </trkpt>
      <trkpt lat="42.7308616508" lon="20.1485272218">
        <ele>1540.17</ele>
        <time>2019-07-11T13:39:48Z</time>
      </trkpt>
      <trkpt lat="42.7308718767" lon="20.1484683808">
        <ele>1540.65</ele>
        <time>2019-07-11T13:39:53Z</time>
      </trkpt>
      <trkpt lat="42.7308608964" lon="20.1483974699">
        <ele>1540.65</ele>
        <time>2019-07-11T13:39:58Z</time>
      </trkpt>
      <trkpt lat="42.7308685239" lon="20.1481895149">
        <ele>1542.09</ele>
        <time>2019-07-11T13:40:12Z</time>
      </trkpt>
      <trkpt lat="42.7308932506" lon="20.1480218768">
        <ele>1544.01</ele>
        <time>2019-07-11T13:40:26Z</time>
      </trkpt>
      <trkpt lat="42.7309295442" lon="20.1478896942">
        <ele>1544.98</ele>
        <time>2019-07-11T13:40:36Z</time>
      </trkpt>
      <trkpt lat="42.7309368365" lon="20.1477865130">
        <ele>1545.94</ele>
        <time>2019-07-11T13:40:44Z</time>
      </trkpt>
      <trkpt lat="42.7309431229" lon="20.1477116626">
        <ele>1546.42</ele>
        <time>2019-07-11T13:40:49Z</time>
      </trkpt>
      <trkpt lat="42.7310054842" lon="20.1476036198">
        <ele>1548.34</ele>
        <time>2019-07-11T13:41:02Z</time>
      </trkpt>
      <trkpt lat="42.7310844418" lon="20.1475806534">
        <ele>1550.26</ele>
        <time>2019-07-11T13:41:14Z</time>
      </trkpt>
      <trkpt lat="42.7311462164" lon="20.1475667395">
        <ele>1551.71</ele>
        <time>2019-07-11T13:41:22Z</time>
      </trkpt>
      <trkpt lat="42.7312282752" lon="20.1475326251">
        <ele>1554.11</ele>
        <time>2019-07-11T13:41:35Z</time>
      </trkpt>
      <trkpt lat="42.7313193865" lon="20.1474923082">
        <ele>1556.03</ele>
        <time>2019-07-11T13:41:46Z</time>
      </trkpt>
      <trkpt lat="42.7314394992" lon="20.1474741194">
        <ele>1557.47</ele>
        <time>2019-07-11T13:41:58Z</time>
      </trkpt>
      <trkpt lat="42.7315138467" lon="20.1474875305">
        <ele>1559.40</ele>
        <time>2019-07-11T13:42:08Z</time>
      </trkpt>
      <trkpt lat="42.7315280959" lon="20.1474916376">
        <ele>1559.40</ele>
        <time>2019-07-11T13:42:10Z</time>
      </trkpt>
      <trkpt lat="42.7316397429" lon="20.1474421006">
        <ele>1561.80</ele>
        <time>2019-07-11T13:42:22Z</time>
      </trkpt>
      <trkpt lat="42.7316919621" lon="20.1473769732">
        <ele>1562.76</ele>
        <time>2019-07-11T13:42:30Z</time>
      </trkpt>
      <trkpt lat="42.7317571733" lon="20.1472883765">
        <ele>1565.16</ele>
        <time>2019-07-11T13:42:41Z</time>
      </trkpt>
      <trkpt lat="42.7318318561" lon="20.1472355705">
        <ele>1566.61</ele>
        <time>2019-07-11T13:42:54Z</time>
      </trkpt>
      <trkpt lat="42.7318979893" lon="20.1472291164">
        <ele>1568.53</ele>
        <time>2019-07-11T13:43:04Z</time>
      </trkpt>
      <trkpt lat="42.7319772821" lon="20.1472023781">
        <ele>1569.97</ele>
        <time>2019-07-11T13:43:14Z</time>
      </trkpt>
      <trkpt lat="42.7319906931" lon="20.1471771486">
        <ele>1570.45</ele>
        <time>2019-07-11T13:43:19Z</time>
      </trkpt>
      <trkpt lat="42.7320809662" lon="20.1470996998">
        <ele>1572.85</ele>
        <time>2019-07-11T13:43:29Z</time>
      </trkpt>
      <trkpt lat="42.7320936229" lon="20.1470822655">
        <ele>1572.85</ele>
        <time>2019-07-11T13:43:31Z</time>
      </trkpt>
      <trkpt lat="42.7321481053" lon="20.1470327284">
        <ele>1573.82</ele>
        <time>2019-07-11T13:43:39Z</time>
      </trkpt>
      <trkpt lat="42.7322335169" lon="20.1469720434">
        <ele>1575.74</ele>
        <time>2019-07-11T13:43:51Z</time>
      </trkpt>
      <trkpt lat="42.7322552260" lon="20.1469745580">
        <ele>1576.70</ele>
        <time>2019-07-11T13:43:54Z</time>
      </trkpt>
      <trkpt lat="42.7322978899" lon="20.1469768211">
        <ele>1577.18</ele>
        <time>2019-07-11T13:43:58Z</time>
      </trkpt>
      <trkpt lat="42.7323343512" lon="20.1469898131">
        <ele>1577.66</ele>
        <time>2019-07-11T13:44:02Z</time>
      </trkpt>
      <trkpt lat="42.7323768474" lon="20.1469697803">
        <ele>1578.62</ele>
        <time>2019-07-11T13:44:09Z</time>
      </trkpt>
      <trkpt lat="42.7323955391" lon="20.1469612308">
        <ele>1578.62</ele>
        <time>2019-07-11T13:44:11Z</time>
      </trkpt>
      <trkpt lat="42.7325072698" lon="20.1469440479">
        <ele>1580.54</ele>
        <time>2019-07-11T13:44:25Z</time>
      </trkpt>
      <trkpt lat="42.7326154802" lon="20.1469803415">
        <ele>1581.51</ele>
        <time>2019-07-11T13:44:37Z</time>
      </trkpt>
      <trkpt lat="42.7327122912" lon="20.1469686069">
        <ele>1583.43</ele>
        <time>2019-07-11T13:44:48Z</time>
      </trkpt>
      <trkpt lat="42.7328060847" lon="20.1469792519">
        <ele>1585.35</ele>
        <time>2019-07-11T13:45:00Z</time>
      </trkpt>
      <trkpt lat="42.7328629140" lon="20.1469981112">
        <ele>1586.79</ele>
        <time>2019-07-11T13:45:10Z</time>
      </trkpt>
      <trkpt lat="42.7329298016" lon="20.1470126119">
        <ele>1588.72</ele>
        <time>2019-07-11T13:45:23Z</time>
      </trkpt>
      <trkpt lat="42.7330179792" lon="20.1470462233">
        <ele>1590.16</ele>
        <time>2019-07-11T13:45:34Z</time>
      </trkpt>
      <trkpt lat="42.7330804244" lon="20.1470330637">
        <ele>1592.08</ele>
        <time>2019-07-11T13:45:43Z</time>
      </trkpt>
      <trkpt lat="42.7331484854" lon="20.1470052358">
        <ele>1594.00</ele>
        <time>2019-07-11T13:45:53Z</time>
      </trkpt>
      <trkpt lat="42.7331915684" lon="20.1468983665">
        <ele>1596.89</ele>
        <time>2019-07-11T13:46:06Z</time>
      </trkpt>
      <trkpt lat="42.7332362439" lon="20.1468341611">
        <ele>1599.77</ele>
        <time>2019-07-11T13:46:20Z</time>
      </trkpt>
      <trkpt lat="42.7333129384" lon="20.1467645913">
        <ele>1601.69</ele>
        <time>2019-07-11T13:46:33Z</time>
      </trkpt>
      <trkpt lat="42.7333574463" lon="20.1467250288">
        <ele>1603.14</ele>
        <time>2019-07-11T13:46:42Z</time>
      </trkpt>
      <trkpt lat="42.7334185503" lon="20.1466741506">
        <ele>1605.54</ele>
        <time>2019-07-11T13:46:54Z</time>
      </trkpt>
      <trkpt lat="42.7334427740" lon="20.1466503460">
        <ele>1606.02</ele>
        <time>2019-07-11T13:46:57Z</time>
      </trkpt>
      <trkpt lat="42.7335312869" lon="20.1466012280">
        <ele>1607.94</ele>
        <time>2019-07-11T13:47:07Z</time>
      </trkpt>
      <trkpt lat="42.7335550077" lon="20.1465903316">
        <ele>1607.94</ele>
        <time>2019-07-11T13:47:10Z</time>
      </trkpt>
      <trkpt lat="42.7336366475" lon="20.1465351786">
        <ele>1609.38</ele>
        <time>2019-07-11T13:47:21Z</time>
      </trkpt>
      <trkpt lat="42.7337101568" lon="20.1464584004">
        <ele>1611.31</ele>
        <time>2019-07-11T13:47:31Z</time>
      </trkpt>
      <trkpt lat="42.7338099852" lon="20.1464327518">
        <ele>1613.23</ele>
        <time>2019-07-11T13:47:42Z</time>
      </trkpt>
      <trkpt lat="42.7339037787" lon="20.1464344282">
        <ele>1614.67</ele>
        <time>2019-07-11T13:47:54Z</time>
      </trkpt>
      <trkpt lat="42.7340200357" lon="20.1464980468">
        <ele>1616.11</ele>
        <time>2019-07-11T13:48:07Z</time>
      </trkpt>
      <trkpt lat="42.7341188584" lon="20.1464912575">
        <ele>1617.56</ele>
        <time>2019-07-11T13:48:19Z</time>
      </trkpt>
      <trkpt lat="42.7341267373" lon="20.1464848872">
        <ele>1618.04</ele>
        <time>2019-07-11T13:48:21Z</time>
      </trkpt>
      <trkpt lat="42.7342263982" lon="20.1464383677">
        <ele>1619.48</ele>
        <time>2019-07-11T13:48:32Z</time>
      </trkpt>
      <trkpt lat="42.7343315072" lon="20.1463994756">
        <ele>1621.40</ele>
        <time>2019-07-11T13:48:45Z</time>
      </trkpt>
      <trkpt lat="42.7343771048" lon="20.1464071870">
        <ele>1621.88</ele>
        <time>2019-07-11T13:48:51Z</time>
      </trkpt>
      <trkpt lat="42.7345284820" lon="20.1464428101">
        <ele>1625.25</ele>
        <time>2019-07-11T13:49:07Z</time>
      </trkpt>
      <trkpt lat="42.7346505225" lon="20.1464642677">
        <ele>1626.69</ele>
        <time>2019-07-11T13:49:20Z</time>
      </trkpt>
      <trkpt lat="42.7347523626" lon="20.1465197559">
        <ele>1628.13</ele>
        <time>2019-07-11T13:49:33Z</time>
      </trkpt>
      <trkpt lat="42.7347795200" lon="20.1465195883">
        <ele>1628.61</ele>
        <time>2019-07-11T13:49:37Z</time>
      </trkpt>
      <trkpt lat="42.7348485868" lon="20.1465134695">
        <ele>1630.53</ele>
        <time>2019-07-11T13:49:46Z</time>
      </trkpt>
      <trkpt lat="42.7349474933" lon="20.1465107035">
        <ele>1631.98</ele>
        <time>2019-07-11T13:49:58Z</time>
      </trkpt>
      <trkpt lat="42.7350579668" lon="20.1465236116">
        <ele>1634.38</ele>
        <time>2019-07-11T13:50:11Z</time>
      </trkpt>
      <trkpt lat="42.7350718807" lon="20.1465250365">
        <ele>1634.38</ele>
        <time>2019-07-11T13:50:13Z</time>
      </trkpt>
      <trkpt lat="42.7351364214" lon="20.1465588156">
        <ele>1636.30</ele>
        <time>2019-07-11T13:50:24Z</time>
      </trkpt>
      <trkpt lat="42.7352023870" lon="20.1465529483">
        <ele>1638.22</ele>
        <time>2019-07-11T13:50:32Z</time>
      </trkpt>
      <trkpt lat="42.7352249343" lon="20.1465501823">
        <ele>1638.70</ele>
        <time>2019-07-11T13:50:34Z</time>
      </trkpt>
      <trkpt lat="42.7353530936" lon="20.1465555467">
        <ele>1641.11</ele>
        <time>2019-07-11T13:50:48Z</time>
      </trkpt>
      <trkpt lat="42.7354367450" lon="20.1465741545">
        <ele>1642.55</ele>
        <time>2019-07-11T13:51:00Z</time>
      </trkpt>
      <trkpt lat="42.7355549298" lon="20.1466055028">
        <ele>1644.95</ele>
        <time>2019-07-11T13:51:15Z</time>
      </trkpt>
      <trkpt lat="42.7355813328" lon="20.1466058381">
        <ele>1645.43</ele>
        <time>2019-07-11T13:51:19Z</time>
      </trkpt>
      <trkpt lat="42.7356764674" lon="20.1465897448">
        <ele>1647.36</ele>
        <time>2019-07-11T13:51:31Z</time>
      </trkpt>
      <trkpt lat="42.7357494738" lon="20.1465886552">
        <ele>1649.28</ele>
        <time>2019-07-11T13:51:42Z</time>
      </trkpt>
      <trkpt lat="42.7358361427" lon="20.1465797704">
        <ele>1651.68</ele>
        <time>2019-07-11T13:51:54Z</time>
      </trkpt>
      <trkpt lat="42.7359101549" lon="20.1465505175">
        <ele>1653.12</ele>
        <time>2019-07-11T13:52:04Z</time>
      </trkpt>
      <trkpt lat="42.7359454427" lon="20.1464797743">
        <ele>1654.57</ele>
        <time>2019-07-11T13:52:14Z</time>
      </trkpt>
      <trkpt lat="42.7359466162" lon="20.1464409661">
        <ele>1655.05</ele>
        <time>2019-07-11T13:52:17Z</time>
      </trkpt>
      <trkpt lat="42.7359872684" lon="20.1463610027">
        <ele>1656.49</ele>
        <time>2019-07-11T13:52:26Z</time>
      </trkpt>
      <trkpt lat="42.7360109054" lon="20.1462916005">
        <ele>1658.41</ele>
        <time>2019-07-11T13:52:35Z</time>
      </trkpt>
      <trkpt lat="42.7360333689" lon="20.1462035067">
        <ele>1660.81</ele>
        <time>2019-07-11T13:52:47Z</time>
      </trkpt>
      <trkpt lat="42.7360635437" lon="20.1460868306">
        <ele>1662.26</ele>
        <time>2019-07-11T13:52:57Z</time>
      </trkpt>
      <trkpt lat="42.7360969875" lon="20.1460066158">
        <ele>1664.18</ele>
        <time>2019-07-11T13:53:07Z</time>
      </trkpt>
      <trkpt lat="42.7361709997" lon="20.1459787879">
        <ele>1666.58</ele>
        <time>2019-07-11T13:53:19Z</time>
      </trkpt>
      <trkpt lat="42.7362300921" lon="20.1459175162">
        <ele>1668.51</ele>
        <time>2019-07-11T13:53:32Z</time>
      </trkpt>
      <trkpt lat="42.7362685651" lon="20.1458228845">
        <ele>1669.95</ele>
        <time>2019-07-11T13:53:40Z</time>
      </trkpt>
      <trkpt lat="42.7363270707" lon="20.1457201224">
        <ele>1671.87</ele>
        <time>2019-07-11T13:53:51Z</time>
      </trkpt>
      <trkpt lat="42.7364113927" lon="20.1456643827">
        <ele>1673.31</ele>
        <time>2019-07-11T13:54:00Z</time>
      </trkpt>
      <trkpt lat="42.7364389692" lon="20.1455938909">
        <ele>1674.27</ele>
        <time>2019-07-11T13:54:06Z</time>
      </trkpt>
      <trkpt lat="42.7364512067" lon="20.1454901230">
        <ele>1674.75</ele>
        <time>2019-07-11T13:54:14Z</time>
      </trkpt>
      <trkpt lat="42.7364491113" lon="20.1454358920">
        <ele>1674.75</ele>
        <time>2019-07-11T13:54:18Z</time>
      </trkpt>
      <trkpt lat="42.7364546433" lon="20.1453573536">
        <ele>1675.23</ele>
        <time>2019-07-11T13:54:24Z</time>
      </trkpt>
      <trkpt lat="42.7365023363" lon="20.1452665776">
        <ele>1677.16</ele>
        <time>2019-07-11T13:54:34Z</time>
      </trkpt>
      <trkpt lat="42.7365411445" lon="20.1451797411">
        <ele>1678.60</ele>
        <time>2019-07-11T13:54:44Z</time>
      </trkpt>
      <trkpt lat="42.7365999855" lon="20.1451175474">
        <ele>1681.48</ele>
        <time>2019-07-11T13:54:55Z</time>
      </trkpt>
      <trkpt lat="42.7366573177" lon="20.1451143622">
        <ele>1683.89</ele>
        <time>2019-07-11T13:55:06Z</time>
      </trkpt>
      <trkpt lat="42.7367193438" lon="20.1451111771">
        <ele>1685.81</ele>
        <time>2019-07-11T13:55:17Z</time>
      </trkpt>
      <trkpt lat="42.7367952000" lon="20.1450995263">
        <ele>1688.21</ele>
        <time>2019-07-11T13:55:29Z</time>
      </trkpt>
      <trkpt lat="42.7368409652" lon="20.1450967602">
        <ele>1691.10</ele>
        <time>2019-07-11T13:55:39Z</time>
      </trkpt>
      <trkpt lat="42.7368464973" lon="20.1450966764">
        <ele>1691.10</ele>
        <time>2019-07-11T13:55:40Z</time>
      </trkpt>
      <trkpt lat="42.7369517740" lon="20.1451416034">
        <ele>1693.98</ele>
        <time>2019-07-11T13:55:56Z</time>
      </trkpt>
      <trkpt lat="42.7370106988" lon="20.1451552659">
        <ele>1696.38</ele>
        <time>2019-07-11T13:56:07Z</time>
      </trkpt>
      <trkpt lat="42.7371059172" lon="20.1452151127">
        <ele>1698.79</ele>
        <time>2019-07-11T13:56:22Z</time>
      </trkpt>
      <trkpt lat="42.7371947654" lon="20.1452587824">
        <ele>1700.71</ele>
        <time>2019-07-11T13:56:35Z</time>
      </trkpt>
      <trkpt lat="42.7372687776" lon="20.1452431083">
        <ele>1703.59</ele>
        <time>2019-07-11T13:56:47Z</time>
      </trkpt>
      <trkpt lat="42.7372780815" lon="20.1452366542">
        <ele>1704.07</ele>
        <time>2019-07-11T13:56:49Z</time>
      </trkpt>
      <trkpt lat="42.7373437118" lon="20.1452159509">
        <ele>1706.48</ele>
        <time>2019-07-11T13:57:00Z</time>
      </trkpt>
      <trkpt lat="42.7374162152" lon="20.1451889612">
        <ele>1709.36</ele>
        <time>2019-07-11T13:57:13Z</time>
      </trkpt>
      <trkpt lat="42.7374832705" lon="20.1451847702">
        <ele>1711.76</ele>
        <time>2019-07-11T13:57:25Z</time>
      </trkpt>
      <trkpt lat="42.7375753038" lon="20.1451747119">
        <ele>1714.17</ele>
        <time>2019-07-11T13:57:38Z</time>
      </trkpt>
      <trkpt lat="42.7376355696" lon="20.1451504044">
        <ele>1717.05</ele>
        <time>2019-07-11T13:57:49Z</time>
      </trkpt>
      <trkpt lat="42.7376974281" lon="20.1451168768">
        <ele>1718.97</ele>
        <time>2019-07-11T13:57:59Z</time>
      </trkpt>
      <trkpt lat="42.7377301175" lon="20.1450851932">
        <ele>1720.42</ele>
        <time>2019-07-11T13:58:06Z</time>
      </trkpt>
      <trkpt lat="42.7377594542" lon="20.1450443733">
        <ele>1721.86</ele>
        <time>2019-07-11T13:58:16Z</time>
      </trkpt>
      <trkpt lat="42.7378028724" lon="20.1450091694">
        <ele>1724.74</ele>
        <time>2019-07-11T13:58:27Z</time>
      </trkpt>
      <trkpt lat="42.7378701791" lon="20.1449916512">
        <ele>1727.15</ele>
        <time>2019-07-11T13:58:40Z</time>
      </trkpt>
      <trkpt lat="42.7379283495" lon="20.1450143661">
        <ele>1729.07</ele>
        <time>2019-07-11T13:58:50Z</time>
      </trkpt>
      <trkpt lat="42.7379813232" lon="20.1450262684">
        <ele>1730.51</ele>
        <time>2019-07-11T13:58:58Z</time>
      </trkpt>
      <trkpt lat="42.7380427625" lon="20.1449858677">
        <ele>1732.91</ele>
        <time>2019-07-11T13:59:09Z</time>
      </trkpt>
      <trkpt lat="42.7381160203" lon="20.1449927408">
        <ele>1735.32</ele>
        <time>2019-07-11T13:59:21Z</time>
      </trkpt>
      <trkpt lat="42.7382063773" lon="20.1449695230">
        <ele>1737.72</ele>
        <time>2019-07-11T13:59:34Z</time>
      </trkpt>
      <trkpt lat="42.7382701635" lon="20.1449377555">
        <ele>1740.12</ele>
        <time>2019-07-11T13:59:45Z</time>
      </trkpt>
      <trkpt lat="42.7383359615" lon="20.1449236739">
        <ele>1742.05</ele>
        <time>2019-07-11T13:59:56Z</time>
      </trkpt>
      <trkpt lat="42.7384149190" lon="20.1449402701">
        <ele>1744.45</ele>
        <time>2019-07-11T14:00:08Z</time>
      </trkpt>
      <trkpt lat="42.7385137416" lon="20.1449493226">
        <ele>1747.33</ele>
        <time>2019-07-11T14:00:24Z</time>
      </trkpt>
      <trkpt lat="42.7385825571" lon="20.1449359115">
        <ele>1749.74</ele>
        <time>2019-07-11T14:00:35Z</time>
      </trkpt>
      <trkpt lat="42.7386588324" lon="20.1449603029">
        <ele>1751.66</ele>
        <time>2019-07-11T14:00:45Z</time>
      </trkpt>
      <trkpt lat="42.7387307491" lon="20.1450419426">
        <ele>1754.06</ele>
        <time>2019-07-11T14:00:58Z</time>
      </trkpt>
      <trkpt lat="42.7387713175" lon="20.1451096684">
        <ele>1755.50</ele>
        <time>2019-07-11T14:01:09Z</time>
      </trkpt>
      <trkpt lat="42.7388692182" lon="20.1451571938">
        <ele>1757.43</ele>
        <time>2019-07-11T14:01:21Z</time>
      </trkpt>
      <trkpt lat="42.7389119659" lon="20.1451773103">
        <ele>1758.39</ele>
        <time>2019-07-11T14:01:25Z</time>
      </trkpt>
      <trkpt lat="42.7390352637" lon="20.1452317927">
        <ele>1760.79</ele>
        <time>2019-07-11T14:01:39Z</time>
      </trkpt>
      <trkpt lat="42.7390669473" lon="20.1452545915">
        <ele>1761.27</ele>
        <time>2019-07-11T14:01:43Z</time>
      </trkpt>
      <trkpt lat="42.7390775923" lon="20.1452699304">
        <ele>1761.75</ele>
        <time>2019-07-11T14:01:45Z</time>
      </trkpt>
      <trkpt lat="42.7391008940" lon="20.1453011110">
        <ele>1762.23</ele>
        <time>2019-07-11T14:01:49Z</time>
      </trkpt>
      <trkpt lat="42.7391685359" lon="20.1454041246">
        <ele>1763.68</ele>
        <time>2019-07-11T14:02:02Z</time>
      </trkpt>
      <trkpt lat="42.7392655984" lon="20.1455586031">
        <ele>1765.12</ele>
        <time>2019-07-11T14:02:15Z</time>
      </trkpt>
      <trkpt lat="42.7393910754" lon="20.1456810627">
        <ele>1765.60</ele>
        <time>2019-07-11T14:02:30Z</time>
      </trkpt>
      <trkpt lat="42.7395137027" lon="20.1457710844">
        <ele>1766.08</ele>
        <time>2019-07-11T14:02:43Z</time>
      </trkpt>
      <trkpt lat="42.7396848612" lon="20.1459067035">
        <ele>1767.52</ele>
        <time>2019-07-11T14:03:01Z</time>
      </trkpt>
      <trkpt lat="42.7397982683" lon="20.1459687296">
        <ele>1768.48</ele>
        <time>2019-07-11T14:03:13Z</time>
      </trkpt>
      <trkpt lat="42.7399302833" lon="20.1460508723">
        <ele>1770.41</ele>
        <time>2019-07-11T14:03:28Z</time>
      </trkpt>
      <trkpt lat="42.7400585264" lon="20.1460946258">
        <ele>1770.89</ele>
        <time>2019-07-11T14:03:42Z</time>
      </trkpt>
      <trkpt lat="42.7403089777" lon="20.1460305881">
        <ele>1770.89</ele>
        <time>2019-07-11T14:04:06Z</time>
      </trkpt>
      <trkpt lat="42.7403376438" lon="20.1460211165">
        <ele>1769.44</ele>
        <time>2019-07-11T14:04:08Z</time>
      </trkpt>
      <trkpt lat="42.7405042760" lon="20.1459677238">
        <ele>1769.44</ele>
        <time>2019-07-11T14:04:23Z</time>
      </trkpt>
      <trkpt lat="42.7406617720" lon="20.1458613575">
        <ele>1769.44</ele>
        <time>2019-07-11T14:04:38Z</time>
      </trkpt>
      <trkpt lat="42.7408137359" lon="20.1457644626">
        <ele>1769.44</ele>
        <time>2019-07-11T14:04:51Z</time>
      </trkpt>
      <trkpt lat="42.7408716548" lon="20.1457323600">
        <ele>1770.41</ele>
        <time>2019-07-11T14:04:58Z</time>
      </trkpt>
      <trkpt lat="42.7409760933" lon="20.1456947252">
        <ele>1773.29</ele>
        <time>2019-07-11T14:05:11Z</time>
      </trkpt>
      <trkpt lat="42.7410766762" lon="20.1456595212">
        <ele>1773.77</ele>
        <time>2019-07-11T14:05:21Z</time>
      </trkpt>
      <trkpt lat="42.7411825396" lon="20.1456377283">
        <ele>1775.69</ele>
        <time>2019-07-11T14:05:33Z</time>
      </trkpt>
      <trkpt lat="42.7412884030" lon="20.1456207130">
        <ele>1778.10</ele>
        <time>2019-07-11T14:05:45Z</time>
      </trkpt>
      <trkpt lat="42.7414152212" lon="20.1455987524">
        <ele>1778.58</ele>
        <time>2019-07-11T14:05:59Z</time>
      </trkpt>
      <trkpt lat="42.7415427938" lon="20.1455820724">
        <ele>1780.50</ele>
        <time>2019-07-11T14:06:13Z</time>
      </trkpt>
      <trkpt lat="42.7416650858" lon="20.1455733553">
        <ele>1782.42</ele>
        <time>2019-07-11T14:06:27Z</time>
      </trkpt>
      <trkpt lat="42.7417868748" lon="20.1455529034">
        <ele>1784.82</ele>
        <time>2019-07-11T14:06:42Z</time>
      </trkpt>
      <trkpt lat="42.7419217397" lon="20.1455093175">
        <ele>1786.27</ele>
        <time>2019-07-11T14:06:57Z</time>
      </trkpt>
      <trkpt lat="42.7420497313" lon="20.1455106586">
        <ele>1787.71</ele>
        <time>2019-07-11T14:07:11Z</time>
      </trkpt>
      <trkpt lat="42.7421213128" lon="20.1455217227">
        <ele>1789.15</ele>
        <time>2019-07-11T14:07:19Z</time>
      </trkpt>
      <trkpt lat="42.7422088198" lon="20.1455109939">
        <ele>1791.07</ele>
        <time>2019-07-11T14:07:30Z</time>
      </trkpt>
      <trkpt lat="42.7422723547" lon="20.1454798970">
        <ele>1792.03</ele>
        <time>2019-07-11T14:07:40Z</time>
      </trkpt>
      <trkpt lat="42.7423409186" lon="20.1454128418">
        <ele>1793.96</ele>
        <time>2019-07-11T14:07:52Z</time>
      </trkpt>
      <trkpt lat="42.7424033638" lon="20.1453694236">
        <ele>1795.88</ele>
        <time>2019-07-11T14:08:07Z</time>
      </trkpt>
      <trkpt lat="42.7424583491" lon="20.1454229839">
        <ele>1797.32</ele>
        <time>2019-07-11T14:08:20Z</time>
      </trkpt>
      <trkpt lat="42.7425239794" lon="20.1454454474">
        <ele>1799.73</ele>
        <time>2019-07-11T14:08:33Z</time>
      </trkpt>
      <trkpt lat="42.7425834071" lon="20.1455280930">
        <ele>1801.65</ele>
        <time>2019-07-11T14:08:46Z</time>
      </trkpt>
      <trkpt lat="42.7426339500" lon="20.1456036977">
        <ele>1803.57</ele>
        <time>2019-07-11T14:08:58Z</time>
      </trkpt>
      <trkpt lat="42.7426387277" lon="20.1456149295">
        <ele>1803.57</ele>
        <time>2019-07-11T14:08:59Z</time>
      </trkpt>
      <trkpt lat="42.7427129075" lon="20.1458107308">
        <ele>1804.53</ele>
        <time>2019-07-11T14:09:14Z</time>
      </trkpt>
      <trkpt lat="42.7427342813" lon="20.1458436716">
        <ele>1805.01</ele>
        <time>2019-07-11T14:09:17Z</time>
      </trkpt>
      <trkpt lat="42.7428274881" lon="20.1459993236">
        <ele>1805.97</ele>
        <time>2019-07-11T14:09:32Z</time>
      </trkpt>
      <trkpt lat="42.7429132350" lon="20.1461326797">
        <ele>1807.90</ele>
        <time>2019-07-11T14:09:45Z</time>
      </trkpt>
      <trkpt lat="42.7429885883" lon="20.1462387107">
        <ele>1808.86</ele>
        <time>2019-07-11T14:09:58Z</time>
      </trkpt>
      <trkpt lat="42.7429946233" lon="20.1462489367">
        <ele>1808.86</ele>
        <time>2019-07-11T14:10:01Z</time>
      </trkpt>
      <trkpt lat="42.7430726588" lon="20.1463600807">
        <ele>1809.34</ele>
        <time>2019-07-11T14:10:17Z</time>
      </trkpt>
      <trkpt lat="42.7430658694" lon="20.1463687979">
        <ele>1809.34</ele>
        <time>2019-07-11T14:10:33Z</time>
      </trkpt>
      <trkpt lat="42.7430697251" lon="20.1463758387">
        <ele>1809.34</ele>
        <time>2019-07-11T14:10:50Z</time>
      </trkpt>
      <trkpt lat="42.7430757601" lon="20.1463722344">
        <ele>1809.82</ele>
        <time>2019-07-11T14:11:29Z</time>
      </trkpt>
      <trkpt lat="42.7430665400" lon="20.1463801973">
        <ele>1808.86</ele>
        <time>2019-07-11T14:11:57Z</time>
      </trkpt>
      <trkpt lat="42.7430584095" lon="20.1463627629">
        <ele>1808.86</ele>
        <time>2019-07-11T14:12:26Z</time>
      </trkpt>
      <trkpt lat="42.7430669591" lon="20.1463754196">
        <ele>1808.86</ele>
        <time>2019-07-11T14:13:06Z</time>
      </trkpt>
      <trkpt lat="42.7430701442" lon="20.1463651098">
        <ele>1809.34</ele>
        <time>2019-07-11T14:13:27Z</time>
      </trkpt>
      <trkpt lat="42.7430639416" lon="20.1463564765">
        <ele>1808.86</ele>
        <time>2019-07-11T14:13:59Z</time>
      </trkpt>
      <trkpt lat="42.7430621814" lon="20.1463573985">
        <ele>1808.86</ele>
        <time>2019-07-11T14:14:25Z</time>
      </trkpt>
      <trkpt lat="42.7430718206" lon="20.1463836338">
        <ele>1809.34</ele>
        <time>2019-07-11T14:14:57Z</time>
      </trkpt>
      <trkpt lat="42.7430596668" lon="20.1463743299">
        <ele>1809.34</ele>
        <time>2019-07-11T14:15:30Z</time>
      </trkpt>
      <trkpt lat="42.7430820465" lon="20.1463741623">
        <ele>1808.86</ele>
        <time>2019-07-11T14:16:00Z</time>
      </trkpt>
      <trkpt lat="42.7430626005" lon="20.1463714801">
        <ele>1809.34</ele>
        <time>2019-07-11T14:16:39Z</time>
      </trkpt>
      <trkpt lat="42.7430505306" lon="20.1463693008">
        <ele>1809.34</ele>
        <time>2019-07-11T14:17:12Z</time>
      </trkpt>
      <trkpt lat="42.7430568170" lon="20.1463504415">
        <ele>1809.34</ele>
        <time>2019-07-11T14:17:40Z</time>
      </trkpt>
      <trkpt lat="42.7430722397" lon="20.1463676244">
        <ele>1809.82</ele>
        <time>2019-07-11T14:18:23Z</time>
      </trkpt>
      <trkpt lat="42.7430586610" lon="20.1463683788">
        <ele>1809.82</ele>
        <time>2019-07-11T14:18:57Z</time>
      </trkpt>
      <trkpt lat="42.7430595830" lon="20.1463667862">
        <ele>1810.30</ele>
        <time>2019-07-11T14:19:36Z</time>
      </trkpt>
      <trkpt lat="42.7430426516" lon="20.1463674568">
        <ele>1810.30</ele>
        <time>2019-07-11T14:20:16Z</time>
      </trkpt>
      <trkpt lat="42.7430387959" lon="20.1463728212">
        <ele>1810.30</ele>
        <time>2019-07-11T14:20:44Z</time>
      </trkpt>
      <trkpt lat="42.7430785261" lon="20.1463743299">
        <ele>1810.30</ele>
        <time>2019-07-11T14:21:23Z</time>
      </trkpt>
      <trkpt lat="42.7430698089" lon="20.1463734917">
        <ele>1810.78</ele>
        <time>2019-07-11T14:21:56Z</time>
      </trkpt>
      <trkpt lat="42.7430630196" lon="20.1463789400">
        <ele>1810.78</ele>
        <time>2019-07-11T14:22:35Z</time>
      </trkpt>
      <trkpt lat="42.7430621814" lon="20.1463844720">
        <ele>1810.78</ele>
        <time>2019-07-11T14:23:18Z</time>
      </trkpt>
      <trkpt lat="42.7430616785" lon="20.1463715639">
        <ele>1811.26</ele>
        <time>2019-07-11T14:23:56Z</time>
      </trkpt>
      <trkpt lat="42.7430639416" lon="20.1463766769">
        <ele>1811.26</ele>
        <time>2019-07-11T14:24:34Z</time>
      </trkpt>
      <trkpt lat="42.7430707309" lon="20.1463648584">
        <ele>1811.26</ele>
        <time>2019-07-11T14:25:19Z</time>
      </trkpt>
      <trkpt lat="42.7430520393" lon="20.1463739946">
        <ele>1811.74</ele>
        <time>2019-07-11T14:25:55Z</time>
      </trkpt>
      <trkpt lat="42.7430653665" lon="20.1463631820">
        <ele>1811.74</ele>
        <time>2019-07-11T14:26:27Z</time>
      </trkpt>
      <trkpt lat="42.7430677135" lon="20.1463565603">
        <ele>1811.74</ele>
        <time>2019-07-11T14:27:06Z</time>
      </trkpt>
      <trkpt lat="42.7430737484" lon="20.1463732403">
        <ele>1812.22</ele>
        <time>2019-07-11T14:27:49Z</time>
      </trkpt>
      <trkpt lat="42.7430776041" lon="20.1463623438">
        <ele>1812.22</ele>
        <time>2019-07-11T14:28:21Z</time>
      </trkpt>
      <trkpt lat="42.7430695575" lon="20.1463578176">
        <ele>1812.22</ele>
        <time>2019-07-11T14:28:56Z</time>
      </trkpt>
      <trkpt lat="42.7430769335" lon="20.1463604160">
        <ele>1812.70</ele>
        <time>2019-07-11T14:29:30Z</time>
      </trkpt>
      <trkpt lat="42.7430827171" lon="20.1463779341">
        <ele>1812.70</ele>
        <time>2019-07-11T14:30:11Z</time>
      </trkpt>
      <trkpt lat="42.7430827171" lon="20.1463737432">
        <ele>1812.70</ele>
        <time>2019-07-11T14:30:49Z</time>
      </trkpt>
      <trkpt lat="42.7430765983" lon="20.1463462505">
        <ele>1813.18</ele>
        <time>2019-07-11T14:31:28Z</time>
      </trkpt>
      <trkpt lat="42.7430615947" lon="20.1463594940">
        <ele>1813.18</ele>
        <time>2019-07-11T14:32:02Z</time>
      </trkpt>
      <trkpt lat="42.7430547215" lon="20.1463594101">
        <ele>1813.18</ele>
        <time>2019-07-11T14:32:36Z</time>
      </trkpt>
      <trkpt lat="42.7430511173" lon="20.1463674568">
        <ele>1813.18</ele>
        <time>2019-07-11T14:33:12Z</time>
      </trkpt>
      <trkpt lat="42.7430502791" lon="20.1463682111">
        <ele>1813.66</ele>
        <time>2019-07-11T14:33:36Z</time>
      </trkpt>
      <trkpt lat="42.7430675458" lon="20.1463656966">
        <ele>1813.66</ele>
        <time>2019-07-11T14:34:01Z</time>
      </trkpt>
      <trkpt lat="42.7430795319" lon="20.1463852264">
        <ele>1813.66</ele>
        <time>2019-07-11T14:34:26Z</time>
      </trkpt>
      <trkpt lat="42.7430804539" lon="20.1463843882">
        <ele>1813.66</ele>
        <time>2019-07-11T14:35:02Z</time>
      </trkpt>
      <trkpt lat="42.7430747543" lon="20.1463672891">
        <ele>1814.15</ele>
        <time>2019-07-11T14:35:34Z</time>
      </trkpt>
      <trkpt lat="42.7430777717" lon="20.1463541295">
        <ele>1814.15</ele>
        <time>2019-07-11T14:36:00Z</time>
      </trkpt>
      <trkpt lat="42.7430688869" lon="20.1463781018">
        <ele>1815.59</ele>
        <time>2019-07-11T14:36:13Z</time>
      </trkpt>
      <trkpt lat="42.7430752572" lon="20.1463682950">
        <ele>1815.59</ele>
        <time>2019-07-11T14:36:42Z</time>
      </trkpt>
      <trkpt lat="42.7430770174" lon="20.1463651937">
        <ele>1815.59</ele>
        <time>2019-07-11T14:37:12Z</time>
      </trkpt>
      <trkpt lat="42.7430755924" lon="20.1463800296">
        <ele>1815.59</ele>
        <time>2019-07-11T14:37:46Z</time>
      </trkpt>
      <trkpt lat="42.7430797834" lon="20.1463885792">
        <ele>1815.59</ele>
        <time>2019-07-11T14:38:19Z</time>
      </trkpt>
      <trkpt lat="42.7430721559" lon="20.1463905908">
        <ele>1815.59</ele>
        <time>2019-07-11T14:38:55Z</time>
      </trkpt>
      <trkpt lat="42.7430741675" lon="20.1463801973">
        <ele>1816.07</ele>
        <time>2019-07-11T14:39:37Z</time>
      </trkpt>
      <trkpt lat="42.7430696413" lon="20.1463662833">
        <ele>1816.07</ele>
        <time>2019-07-11T14:40:14Z</time>
      </trkpt>
      <trkpt lat="42.7430864051" lon="20.1463824604">
        <ele>1816.07</ele>
        <time>2019-07-11T14:40:48Z</time>
      </trkpt>
      <trkpt lat="42.7430734970" lon="20.1463827118">
        <ele>1816.07</ele>
        <time>2019-07-11T14:41:23Z</time>
      </trkpt>
      <trkpt lat="42.7430687193" lon="20.1463703904">
        <ele>1816.55</ele>
        <time>2019-07-11T14:41:59Z</time>
      </trkpt>
      <trkpt lat="42.7430724911" lon="20.1463715639">
        <ele>1816.55</ele>
        <time>2019-07-11T14:42:33Z</time>
      </trkpt>
      <trkpt lat="42.7430817951" lon="20.1463699713">
        <ele>1816.55</ele>
        <time>2019-07-11T14:43:04Z</time>
      </trkpt>
      <trkpt lat="42.7430800349" lon="20.1463707257">
        <ele>1816.55</ele>
        <time>2019-07-11T14:43:35Z</time>
      </trkpt>
      <trkpt lat="42.7430698927" lon="20.1463563927">
        <ele>1817.03</ele>
        <time>2019-07-11T14:44:14Z</time>
      </trkpt>
      <trkpt lat="42.7430788614" lon="20.1463679597">
        <ele>1817.03</ele>
        <time>2019-07-11T14:44:41Z</time>
      </trkpt>
      <trkpt lat="42.7430812921" lon="20.1463754196">
        <ele>1817.03</ele>
        <time>2019-07-11T14:45:10Z</time>
      </trkpt>
      <trkpt lat="42.7430651989" lon="20.1463491004">
        <ele>1817.51</ele>
        <time>2019-07-11T14:45:44Z</time>
      </trkpt>
      <trkpt lat="42.7430794481" lon="20.1463631820">
        <ele>1817.51</ele>
        <time>2019-07-11T14:46:18Z</time>
      </trkpt>
      <trkpt lat="42.7430781070" lon="20.1463779341">
        <ele>1817.51</ele>
        <time>2019-07-11T14:47:02Z</time>
      </trkpt>
      <trkpt lat="42.7430838905" lon="20.1463730726">
        <ele>1817.51</ele>
        <time>2019-07-11T14:47:36Z</time>
      </trkpt>
      <trkpt lat="42.7430747543" lon="20.1463794429">
        <ele>1817.99</ele>
        <time>2019-07-11T14:48:18Z</time>
      </trkpt>
      <trkpt lat="42.7430554759" lon="20.1463454124">
        <ele>1817.99</ele>
        <time>2019-07-11T14:48:48Z</time>
      </trkpt>
      <trkpt lat="42.7430841420" lon="20.1463679597">
        <ele>1817.99</ele>
        <time>2019-07-11T14:49:22Z</time>
      </trkpt>
      <trkpt lat="42.7430864051" lon="20.1463654451">
        <ele>1817.99</ele>
        <time>2019-07-11T14:49:57Z</time>
      </trkpt>
      <trkpt lat="42.7430740837" lon="20.1463698875">
        <ele>1818.47</ele>
        <time>2019-07-11T14:50:38Z</time>
      </trkpt>
      <trkpt lat="42.7430737484" lon="20.1463680435">
        <ele>1818.47</ele>
        <time>2019-07-11T14:51:15Z</time>
      </trkpt>
      <trkpt lat="42.7430797834" lon="20.1463775150">
        <ele>1818.47</ele>
        <time>2019-07-11T14:51:56Z</time>
      </trkpt>
      <trkpt lat="42.7430704795" lon="20.1463792752">
        <ele>1818.47</ele>
        <time>2019-07-11T14:52:31Z</time>
      </trkpt>
      <trkpt lat="42.7430747543" lon="20.1463753358">
        <ele>1818.95</ele>
        <time>2019-07-11T14:53:09Z</time>
      </trkpt>
      <trkpt lat="42.7430848964" lon="20.1463755034">
        <ele>1818.95</ele>
        <time>2019-07-11T14:53:45Z</time>
      </trkpt>
      <trkpt lat="42.7430793643" lon="20.1463679597">
        <ele>1818.95</ele>
        <time>2019-07-11T14:54:24Z</time>
      </trkpt>
      <trkpt lat="42.7430833038" lon="20.1463774312">
        <ele>1819.43</ele>
        <time>2019-07-11T14:55:07Z</time>
      </trkpt>
      <trkpt lat="42.7430918533" lon="20.1463770960">
        <ele>1819.43</ele>
        <time>2019-07-11T14:55:42Z</time>
      </trkpt>
      <trkpt lat="42.7430707309" lon="20.1463739946">
        <ele>1817.99</ele>
        <time>2019-07-11T14:56:18Z</time>
      </trkpt>
      <trkpt lat="42.7430749219" lon="20.1463722344">
        <ele>1817.99</ele>
        <time>2019-07-11T14:56:57Z</time>
      </trkpt>
      <trkpt lat="42.7430779394" lon="20.1463721506">
        <ele>1818.47</ele>
        <time>2019-07-11T14:57:42Z</time>
      </trkpt>
      <trkpt lat="42.7430734970" lon="20.1463802811">
        <ele>1818.47</ele>
        <time>2019-07-11T14:58:30Z</time>
      </trkpt>
      <trkpt lat="42.7430786937" lon="20.1463838853">
        <ele>1818.47</ele>
        <time>2019-07-11T14:59:14Z</time>
      </trkpt>
      <trkpt lat="42.7430762630" lon="20.1463599969">
        <ele>1818.47</ele>
        <time>2019-07-11T14:59:46Z</time>
      </trkpt>
      <trkpt lat="42.7430665400" lon="20.1463634335">
        <ele>1818.95</ele>
        <time>2019-07-11T15:00:20Z</time>
      </trkpt>
      <trkpt lat="42.7430690546" lon="20.1463672053">
        <ele>1818.95</ele>
        <time>2019-07-11T15:00:50Z</time>
      </trkpt>
      <trkpt lat="42.7430756763" lon="20.1463706419">
        <ele>1818.95</ele>
        <time>2019-07-11T15:01:17Z</time>
      </trkpt>
      <trkpt lat="42.7430761792" lon="20.1463772636">
        <ele>1818.95</ele>
        <time>2019-07-11T15:01:46Z</time>
      </trkpt>
      <trkpt lat="42.7430869080" lon="20.1463775989">
        <ele>1818.95</ele>
        <time>2019-07-11T15:02:15Z</time>
      </trkpt>
      <trkpt lat="42.7430624329" lon="20.1463548001">
        <ele>1818.95</ele>
        <time>2019-07-11T15:02:39Z</time>
      </trkpt>
      <trkpt lat="42.7430776879" lon="20.1463680435">
        <ele>1818.95</ele>
        <time>2019-07-11T15:03:11Z</time>
      </trkpt>
      <trkpt lat="42.7430711500" lon="20.1463786885">
        <ele>1818.95</ele>
        <time>2019-07-11T15:03:45Z</time>
      </trkpt>
      <trkpt lat="42.7430791128" lon="20.1463634335">
        <ele>1818.47</ele>
        <time>2019-07-11T15:04:17Z</time>
      </trkpt>
      <trkpt lat="42.7430596668" lon="20.1463678759">
        <ele>1818.47</ele>
        <time>2019-07-11T15:04:52Z</time>
      </trkpt>
      <trkpt lat="42.7430776041" lon="20.1463708095">
        <ele>1818.95</ele>
        <time>2019-07-11T15:05:25Z</time>
      </trkpt>
      <trkpt lat="42.7430827171" lon="20.1463776827">
        <ele>1818.95</ele>
        <time>2019-07-11T15:05:57Z</time>
      </trkpt>
      <trkpt lat="42.7430860698" lon="20.1463801973">
        <ele>1818.95</ele>
        <time>2019-07-11T15:06:32Z</time>
      </trkpt>
      <trkpt lat="42.7430849802" lon="20.1463822089">
        <ele>1818.95</ele>
        <time>2019-07-11T15:07:06Z</time>
      </trkpt>
      <trkpt lat="42.7430669591" lon="20.1463738270">
        <ele>1818.95</ele>
        <time>2019-07-11T15:07:33Z</time>
      </trkpt>
      <trkpt lat="42.7430784423" lon="20.1463840529">
        <ele>1818.95</ele>
        <time>2019-07-11T15:08:04Z</time>
      </trkpt>
      <trkpt lat="42.7430987265" lon="20.1463931892">
        <ele>1818.95</ele>
        <time>2019-07-11T15:08:41Z</time>
      </trkpt>
      <trkpt lat="42.7430928592" lon="20.1463806164">
        <ele>1818.95</ele>
        <time>2019-07-11T15:09:16Z</time>
      </trkpt>
      <trkpt lat="42.7430760954" lon="20.1463732403">
        <ele>1818.95</ele>
        <time>2019-07-11T15:09:53Z</time>
      </trkpt>
      <trkpt lat="42.7430633549" lon="20.1463650260">
        <ele>1818.95</ele>
        <time>2019-07-11T15:10:21Z</time>
      </trkpt>
      <trkpt lat="42.7430708986" lon="20.1463598292">
        <ele>1818.95</ele>
        <time>2019-07-11T15:10:43Z</time>
      </trkpt>
      <trkpt lat="42.7430644445" lon="20.1463626791">
        <ele>1818.95</ele>
        <time>2019-07-11T15:11:13Z</time>
      </trkpt>
      <trkpt lat="42.7430715691" lon="20.1463674568">
        <ele>1818.95</ele>
        <time>2019-07-11T15:11:41Z</time>
      </trkpt>
      <trkpt lat="42.7430660371" lon="20.1463814545">
        <ele>1818.95</ele>
        <time>2019-07-11T15:12:10Z</time>
      </trkpt>
      <trkpt lat="42.7430617623" lon="20.1463734917">
        <ele>1817.99</ele>
        <time>2019-07-11T15:12:35Z</time>
      </trkpt>
      <trkpt lat="42.7430649474" lon="20.1463802811">
        <ele>1819.91</ele>
        <time>2019-07-11T15:12:38Z</time>
      </trkpt>
      <trkpt lat="42.7430703118" lon="20.1463780180">
        <ele>1819.91</ele>
        <time>2019-07-11T15:13:03Z</time>
      </trkpt>
      <trkpt lat="42.7430602536" lon="20.1463609189">
        <ele>1819.91</ele>
        <time>2019-07-11T15:13:39Z</time>
      </trkpt>
      <trkpt lat="42.7430493571" lon="20.1463865675">
        <ele>1819.91</ele>
        <time>2019-07-11T15:14:06Z</time>
      </trkpt>
      <trkpt lat="42.7430459205" lon="20.1463774312">
        <ele>1820.39</ele>
        <time>2019-07-11T15:14:21Z</time>
      </trkpt>
      <trkpt lat="42.7430586610" lon="20.1463718992">
        <ele>1820.39</ele>
        <time>2019-07-11T15:14:54Z</time>
      </trkpt>
      <trkpt lat="42.7430632710" lon="20.1463636849">
        <ele>1820.39</ele>
        <time>2019-07-11T15:15:20Z</time>
      </trkpt>
      <trkpt lat="42.7430597506" lon="20.1463662833">
        <ele>1820.39</ele>
        <time>2019-07-11T15:15:39Z</time>
      </trkpt>
      <trkpt lat="42.7430532966" lon="20.1463542134">
        <ele>1820.87</ele>
        <time>2019-07-11T15:16:01Z</time>
      </trkpt>
      <trkpt lat="42.7428584173" lon="20.1465429738">
        <ele>1797.80</ele>
        <time>2019-07-11T15:16:52Z</time>
      </trkpt>
      <trkpt lat="42.7428587526" lon="20.1465432253">
        <ele>1797.80</ele>
        <time>2019-07-11T15:16:53Z</time>
      </trkpt>
      <trkpt lat="42.7430672105" lon="20.1463741623">
        <ele>1801.17</ele>
        <time>2019-07-11T15:17:07Z</time>
      </trkpt>
      <trkpt lat="42.7430703957" lon="20.1463729888">
        <ele>1804.53</ele>
        <time>2019-07-11T15:17:11Z</time>
      </trkpt>
      <trkpt lat="42.7430673782" lon="20.1463724021">
        <ele>1808.86</ele>
        <time>2019-07-11T15:17:16Z</time>
      </trkpt>
      <trkpt lat="42.7430683840" lon="20.1463738270">
        <ele>1808.86</ele>
        <time>2019-07-11T15:17:17Z</time>
      </trkpt>
      <trkpt lat="42.7430699766" lon="20.1463756710">
        <ele>1812.22</ele>
        <time>2019-07-11T15:17:23Z</time>
      </trkpt>
      <trkpt lat="42.7430598345" lon="20.1463807840">
        <ele>1815.59</ele>
        <time>2019-07-11T15:17:30Z</time>
      </trkpt>
      <trkpt lat="42.7430553082" lon="20.1463791076">
        <ele>1818.95</ele>
        <time>2019-07-11T15:17:40Z</time>
      </trkpt>
      <trkpt lat="42.7430516202" lon="20.1463621762">
        <ele>1821.84</ele>
        <time>2019-07-11T15:18:07Z</time>
      </trkpt>
      <trkpt lat="42.7430567332" lon="20.1463506930">
        <ele>1822.32</ele>
        <time>2019-07-11T15:18:37Z</time>
      </trkpt>
      <trkpt lat="42.7429626044" lon="20.1462966297">
        <ele>1791.55</ele>
        <time>2019-07-12T05:28:12Z</time>
      </trkpt>
      <trkpt lat="42.7430388797" lon="20.1463789400">
        <ele>1795.40</ele>
        <time>2019-07-12T05:28:36Z</time>
      </trkpt>
      <trkpt lat="42.7430413105" lon="20.1463773474">
        <ele>1795.40</ele>
        <time>2019-07-12T05:28:37Z</time>
      </trkpt>
      <trkpt lat="42.7430462558" lon="20.1463877410">
        <ele>1797.32</ele>
        <time>2019-07-12T05:28:39Z</time>
      </trkpt>
      <trkpt lat="42.7430427354" lon="20.1463830471">
        <ele>1800.69</ele>
        <time>2019-07-12T05:28:43Z</time>
      </trkpt>
      <trkpt lat="42.7430434059" lon="20.1463816222">
        <ele>1800.69</ele>
        <time>2019-07-12T05:28:44Z</time>
      </trkpt>
      <trkpt lat="42.7430709824" lon="20.1463807840">
        <ele>1805.01</ele>
        <time>2019-07-12T05:28:49Z</time>
      </trkpt>
      <trkpt lat="42.7430934459" lon="20.1463817060">
        <ele>1807.90</ele>
        <time>2019-07-12T05:28:55Z</time>
      </trkpt>
      <trkpt lat="42.7430944517" lon="20.1463839691">
        <ele>1808.86</ele>
        <time>2019-07-12T05:28:57Z</time>
      </trkpt>
      <trkpt lat="42.7430980559" lon="20.1463889983">
        <ele>1812.22</ele>
        <time>2019-07-12T05:29:04Z</time>
      </trkpt>
      <trkpt lat="42.7431075275" lon="20.1463816222">
        <ele>1815.11</ele>
        <time>2019-07-12T05:29:14Z</time>
      </trkpt>
      <trkpt lat="42.7431292366" lon="20.1463850588">
        <ele>1818.47</ele>
        <time>2019-07-12T05:29:29Z</time>
      </trkpt>
      <trkpt lat="42.7431257162" lon="20.1463745814">
        <ele>1819.43</ele>
        <time>2019-07-12T05:29:39Z</time>
      </trkpt>
      <trkpt lat="42.7432175819" lon="20.1464667823">
        <ele>1821.35</ele>
        <time>2019-07-12T05:29:54Z</time>
      </trkpt>
      <trkpt lat="42.7433578949" lon="20.1465698797">
        <ele>1823.76</ele>
        <time>2019-07-12T05:30:06Z</time>
      </trkpt>
      <trkpt lat="42.7433891594" lon="20.1465914212">
        <ele>1823.76</ele>
        <time>2019-07-12T05:30:09Z</time>
      </trkpt>
      <trkpt lat="42.7434112038" lon="20.1466374379">
        <ele>1824.24</ele>
        <time>2019-07-12T05:30:13Z</time>
      </trkpt>
      <trkpt lat="42.7434743196" lon="20.1467122883">
        <ele>1825.20</ele>
        <time>2019-07-12T05:30:21Z</time>
      </trkpt>
      <trkpt lat="42.7436360903" lon="20.1468215883">
        <ele>1827.12</ele>
        <time>2019-07-12T05:30:36Z</time>
      </trkpt>
      <trkpt lat="42.7437453903" lon="20.1469197404">
        <ele>1828.56</ele>
        <time>2019-07-12T05:30:50Z</time>
      </trkpt>
      <trkpt lat="42.7437770739" lon="20.1469473168">
        <ele>1829.05</ele>
        <time>2019-07-12T05:30:53Z</time>
      </trkpt>
      <trkpt lat="42.7438559476" lon="20.1469976082">
        <ele>1829.53</ele>
        <time>2019-07-12T05:30:59Z</time>
      </trkpt>
      <trkpt lat="42.7440325543" lon="20.1471793279">
        <ele>1830.97</ele>
        <time>2019-07-12T05:31:14Z</time>
      </trkpt>
      <trkpt lat="42.7441504877" lon="20.1473530009">
        <ele>1831.93</ele>
        <time>2019-07-12T05:31:28Z</time>
      </trkpt>
      <trkpt lat="42.7442069817" lon="20.1474378258">
        <ele>1832.41</ele>
        <time>2019-07-12T05:31:35Z</time>
      </trkpt>
      <trkpt lat="42.7442350611" lon="20.1474503987">
        <ele>1833.37</ele>
        <time>2019-07-12T05:31:38Z</time>
      </trkpt>
      <trkpt lat="42.7443532459" lon="20.1475986745">
        <ele>1834.81</ele>
        <time>2019-07-12T05:31:52Z</time>
      </trkpt>
      <trkpt lat="42.7445366420" lon="20.1477863453">
        <ele>1835.77</ele>
        <time>2019-07-12T05:32:09Z</time>
      </trkpt>
      <trkpt lat="42.7446642984" lon="20.1479643770">
        <ele>1837.22</ele>
        <time>2019-07-12T05:32:23Z</time>
      </trkpt>
      <trkpt lat="42.7446745243" lon="20.1479844935">
        <ele>1837.70</ele>
        <time>2019-07-12T05:32:25Z</time>
      </trkpt>
      <trkpt lat="42.7447633725" lon="20.1481471024">
        <ele>1839.14</ele>
        <time>2019-07-12T05:32:38Z</time>
      </trkpt>
      <trkpt lat="42.7447841596" lon="20.1481622737">
        <ele>1839.14</ele>
        <time>2019-07-12T05:32:40Z</time>
      </trkpt>
      <trkpt lat="42.7448663022" lon="20.1482760999">
        <ele>1841.54</ele>
        <time>2019-07-12T05:32:54Z</time>
      </trkpt>
      <trkpt lat="42.7449550666" lon="20.1483901776">
        <ele>1843.47</ele>
        <time>2019-07-12T05:33:06Z</time>
      </trkpt>
      <trkpt lat="42.7449993230" lon="20.1485465840">
        <ele>1844.43</ele>
        <time>2019-07-12T05:33:18Z</time>
      </trkpt>
      <trkpt lat="42.7450610138" lon="20.1486677025">
        <ele>1846.35</ele>
        <time>2019-07-12T05:33:31Z</time>
      </trkpt>
      <trkpt lat="42.7452056017" lon="20.1488469914">
        <ele>1848.75</ele>
        <time>2019-07-12T05:33:48Z</time>
      </trkpt>
      <trkpt lat="42.7453215234" lon="20.1490238495">
        <ele>1850.68</ele>
        <time>2019-07-12T05:34:02Z</time>
      </trkpt>
      <trkpt lat="42.7453949489" lon="20.1491671801">
        <ele>1851.64</ele>
        <time>2019-07-12T05:34:15Z</time>
      </trkpt>
      <trkpt lat="42.7454563044" lon="20.1493192278">
        <ele>1851.64</ele>
        <time>2019-07-12T05:34:26Z</time>
      </trkpt>
      <trkpt lat="42.7455540374" lon="20.1495099999">
        <ele>1853.08</ele>
        <time>2019-07-12T05:34:41Z</time>
      </trkpt>
      <trkpt lat="42.7455954440" lon="20.1495632250">
        <ele>1854.04</ele>
        <time>2019-07-12T05:34:47Z</time>
      </trkpt>
      <trkpt lat="42.7456947695" lon="20.1497166138">
        <ele>1855.00</ele>
        <time>2019-07-12T05:34:56Z</time>
      </trkpt>
      <trkpt lat="42.7457391936" lon="20.1497731917">
        <ele>1855.48</ele>
        <time>2019-07-12T05:35:01Z</time>
      </trkpt>
      <trkpt lat="42.7457552031" lon="20.1497974992">
        <ele>1855.96</ele>
        <time>2019-07-12T05:35:03Z</time>
      </trkpt>
      <trkpt lat="42.7458579652" lon="20.1500099804">
        <ele>1857.40</ele>
        <time>2019-07-12T05:35:16Z</time>
      </trkpt>
      <trkpt lat="42.7460197359" lon="20.1501577534">
        <ele>1859.33</ele>
        <time>2019-07-12T05:35:28Z</time>
      </trkpt>
      <trkpt lat="42.7461355738" lon="20.1502674725">
        <ele>1861.73</ele>
        <time>2019-07-12T05:35:40Z</time>
      </trkpt>
      <trkpt lat="42.7462299541" lon="20.1504691411">
        <ele>1864.61</ele>
        <time>2019-07-12T05:35:55Z</time>
      </trkpt>
      <trkpt lat="42.7462675888" lon="20.1505822130">
        <ele>1865.58</ele>
        <time>2019-07-12T05:36:04Z</time>
      </trkpt>
      <trkpt lat="42.7463271841" lon="20.1507654414">
        <ele>1867.98</ele>
        <time>2019-07-12T05:36:19Z</time>
      </trkpt>
      <trkpt lat="42.7463469654" lon="20.1508703828">
        <ele>1868.94</ele>
        <time>2019-07-12T05:36:29Z</time>
      </trkpt>
      <trkpt lat="42.7464589477" lon="20.1510925870">
        <ele>1871.82</ele>
        <time>2019-07-12T05:36:45Z</time>
      </trkpt>
      <trkpt lat="42.7464801539" lon="20.1511464827">
        <ele>1872.30</ele>
        <time>2019-07-12T05:36:48Z</time>
      </trkpt>
      <trkpt lat="42.7465357259" lon="20.1512495801">
        <ele>1872.79</ele>
        <time>2019-07-12T05:36:54Z</time>
      </trkpt>
      <trkpt lat="42.7466171980" lon="20.1514748018">
        <ele>1875.19</ele>
        <time>2019-07-12T05:37:10Z</time>
      </trkpt>
      <trkpt lat="42.7467186190" lon="20.1516962517">
        <ele>1876.15</ele>
        <time>2019-07-12T05:37:24Z</time>
      </trkpt>
      <trkpt lat="42.7468482871" lon="20.1519819908">
        <ele>1877.59</ele>
        <time>2019-07-12T05:37:41Z</time>
      </trkpt>
      <trkpt lat="42.7469837386" lon="20.1522574201">
        <ele>1878.55</ele>
        <time>2019-07-12T05:37:58Z</time>
      </trkpt>
      <trkpt lat="42.7470988221" lon="20.1525398903">
        <ele>1880.48</ele>
        <time>2019-07-12T05:38:16Z</time>
      </trkpt>
      <trkpt lat="42.7472097985" lon="20.1528102905">
        <ele>1881.92</ele>
        <time>2019-07-12T05:38:34Z</time>
      </trkpt>
      <trkpt lat="42.7473132312" lon="20.1530234423">
        <ele>1883.36</ele>
        <time>2019-07-12T05:38:50Z</time>
      </trkpt>
      <trkpt lat="42.7474337630" lon="20.1532410365">
        <ele>1886.24</ele>
        <time>2019-07-12T05:39:06Z</time>
      </trkpt>
      <trkpt lat="42.7475536242" lon="20.1534380112">
        <ele>1888.65</ele>
        <time>2019-07-12T05:39:22Z</time>
      </trkpt>
      <trkpt lat="42.7476149797" lon="20.1535722055">
        <ele>1890.09</ele>
        <time>2019-07-12T05:39:33Z</time>
      </trkpt>
      <trkpt lat="42.7476765867" lon="20.1537743770">
        <ele>1892.97</ele>
        <time>2019-07-12T05:39:48Z</time>
      </trkpt>
      <trkpt lat="42.7477642614" lon="20.1540029515">
        <ele>1895.38</ele>
        <time>2019-07-12T05:40:04Z</time>
      </trkpt>
      <trkpt lat="42.7477884851" lon="20.1540674921">
        <ele>1895.38</ele>
        <time>2019-07-12T05:40:08Z</time>
      </trkpt>
      <trkpt lat="42.7478585579" lon="20.1542127505">
        <ele>1896.34</ele>
        <time>2019-07-12T05:40:19Z</time>
      </trkpt>
      <trkpt lat="42.7479009703" lon="20.1544301771">
        <ele>1899.22</ele>
        <time>2019-07-12T05:40:34Z</time>
      </trkpt>
      <trkpt lat="42.7479821909" lon="20.1546202786">
        <ele>1902.59</ele>
        <time>2019-07-12T05:40:50Z</time>
      </trkpt>
      <trkpt lat="42.7479899023" lon="20.1546410657">
        <ele>1902.59</ele>
        <time>2019-07-12T05:40:52Z</time>
      </trkpt>
      <trkpt lat="42.7480751462" lon="20.1548465900">
        <ele>1906.43</ele>
        <time>2019-07-12T05:41:09Z</time>
      </trkpt>
      <trkpt lat="42.7481023874" lon="20.1548860688">
        <ele>1906.43</ele>
        <time>2019-07-12T05:41:13Z</time>
      </trkpt>
      <trkpt lat="42.7481173072" lon="20.1549097896">
        <ele>1906.43</ele>
        <time>2019-07-12T05:41:15Z</time>
      </trkpt>
      <trkpt lat="42.7481635753" lon="20.1550283097">
        <ele>1908.83</ele>
        <time>2019-07-12T05:41:27Z</time>
      </trkpt>
      <trkpt lat="42.7482345700" lon="20.1552283857">
        <ele>1911.72</ele>
        <time>2019-07-12T05:41:42Z</time>
      </trkpt>
      <trkpt lat="42.7482535969" lon="20.1553639211">
        <ele>1914.12</ele>
        <time>2019-07-12T05:41:52Z</time>
      </trkpt>
      <trkpt lat="42.7482864540" lon="20.1555665117">
        <ele>1916.53</ele>
        <time>2019-07-12T05:42:06Z</time>
      </trkpt>
      <trkpt lat="42.7483421098" lon="20.1557171345">
        <ele>1918.45</ele>
        <time>2019-07-12T05:42:19Z</time>
      </trkpt>
      <trkpt lat="42.7483864501" lon="20.1556689385">
        <ele>1919.41</ele>
        <time>2019-07-12T05:42:31Z</time>
      </trkpt>
      <trkpt lat="42.7484442014" lon="20.1557194814">
        <ele>1922.77</ele>
        <time>2019-07-12T05:42:42Z</time>
      </trkpt>
      <trkpt lat="42.7484766394" lon="20.1558124367">
        <ele>1925.18</ele>
        <time>2019-07-12T05:42:56Z</time>
      </trkpt>
      <trkpt lat="42.7484892961" lon="20.1558433659">
        <ele>1925.66</ele>
        <time>2019-07-12T05:43:00Z</time>
      </trkpt>
      <trkpt lat="42.7485853527" lon="20.1558257639">
        <ele>1928.06</ele>
        <time>2019-07-12T05:43:13Z</time>
      </trkpt>
      <trkpt lat="42.7487026155" lon="20.1557305455">
        <ele>1930.95</ele>
        <time>2019-07-12T05:43:28Z</time>
      </trkpt>
      <trkpt lat="42.7487473749" lon="20.1557022147">
        <ele>1933.83</ele>
        <time>2019-07-12T05:43:41Z</time>
      </trkpt>
      <trkpt lat="42.7488041203" lon="20.1557742152">
        <ele>1936.23</ele>
        <time>2019-07-12T05:43:55Z</time>
      </trkpt>
      <trkpt lat="42.7488885261" lon="20.1557950024">
        <ele>1938.64</ele>
        <time>2019-07-12T05:44:10Z</time>
      </trkpt>
      <trkpt lat="42.7489891089" lon="20.1558090001">
        <ele>1942.00</ele>
        <time>2019-07-12T05:44:25Z</time>
      </trkpt>
      <trkpt lat="42.7490767837" lon="20.1558001991">
        <ele>1944.40</ele>
        <time>2019-07-12T05:44:40Z</time>
      </trkpt>
      <trkpt lat="42.7491762768" lon="20.1558156218">
        <ele>1947.29</ele>
        <time>2019-07-12T05:44:55Z</time>
      </trkpt>
      <trkpt lat="42.7492943779" lon="20.1558271889">
        <ele>1949.69</ele>
        <time>2019-07-12T05:45:10Z</time>
      </trkpt>
      <trkpt lat="42.7494348586" lon="20.1558186393">
        <ele>1952.57</ele>
        <time>2019-07-12T05:45:27Z</time>
      </trkpt>
      <trkpt lat="42.7495521214" lon="20.1558214054">
        <ele>1954.98</ele>
        <time>2019-07-12T05:45:42Z</time>
      </trkpt>
      <trkpt lat="42.7496856451" lon="20.1558535919">
        <ele>1956.90</ele>
        <time>2019-07-12T05:46:00Z</time>
      </trkpt>
      <trkpt lat="42.7498010639" lon="20.1558540948">
        <ele>1958.82</ele>
        <time>2019-07-12T05:46:14Z</time>
      </trkpt>
      <trkpt lat="42.7498973720" lon="20.1558669191">
        <ele>1960.27</ele>
        <time>2019-07-12T05:46:26Z</time>
      </trkpt>
      <trkpt lat="42.7500261180" lon="20.1558560226">
        <ele>1962.67</ele>
        <time>2019-07-12T05:46:42Z</time>
      </trkpt>
      <trkpt lat="42.7501381841" lon="20.1558237523">
        <ele>1965.07</ele>
        <time>2019-07-12T05:46:55Z</time>
      </trkpt>
      <trkpt lat="42.7501559537" lon="20.1558203157">
        <ele>1965.07</ele>
        <time>2019-07-12T05:46:57Z</time>
      </trkpt>
      <trkpt lat="42.7502802573" lon="20.1557155419">
        <ele>1966.51</ele>
        <time>2019-07-12T05:47:12Z</time>
      </trkpt>
      <trkpt lat="42.7503368352" lon="20.1557177212">
        <ele>1967.96</ele>
        <time>2019-07-12T05:47:19Z</time>
      </trkpt>
      <trkpt lat="42.7504840214" lon="20.1557095908">
        <ele>1969.40</ele>
        <time>2019-07-12T05:47:34Z</time>
      </trkpt>
      <trkpt lat="42.7506102528" lon="20.1557753887">
        <ele>1970.84</ele>
        <time>2019-07-12T05:47:49Z</time>
      </trkpt>
      <trkpt lat="42.7507705986" lon="20.1557412744">
        <ele>1973.24</ele>
        <time>2019-07-12T05:48:06Z</time>
      </trkpt>
      <trkpt lat="42.7509024460" lon="20.1557846088">
        <ele>1975.65</ele>
        <time>2019-07-12T05:48:21Z</time>
      </trkpt>
      <trkpt lat="42.7510029450" lon="20.1558229979">
        <ele>1978.05</ele>
        <time>2019-07-12T05:48:35Z</time>
      </trkpt>
      <trkpt lat="42.7510975767" lon="20.1558146998">
        <ele>1979.49</ele>
        <time>2019-07-12T05:48:46Z</time>
      </trkpt>
      <trkpt lat="42.7512122411" lon="20.1557970978">
        <ele>1982.86</ele>
        <time>2019-07-12T05:49:01Z</time>
      </trkpt>
      <trkpt lat="42.7513212059" lon="20.1557465550">
        <ele>1985.26</ele>
        <time>2019-07-12T05:49:16Z</time>
      </trkpt>
      <trkpt lat="42.7514455095" lon="20.1557530090">
        <ele>1987.66</ele>
        <time>2019-07-12T05:49:30Z</time>
      </trkpt>
      <trkpt lat="42.7515738364" lon="20.1557003707">
        <ele>1990.55</ele>
        <time>2019-07-12T05:49:45Z</time>
      </trkpt>
      <trkpt lat="42.7516760956" lon="20.1556681003">
        <ele>1992.95</ele>
        <time>2019-07-12T05:49:59Z</time>
      </trkpt>
      <trkpt lat="42.7518066857" lon="20.1556271128">
        <ele>1995.83</ele>
        <time>2019-07-12T05:50:16Z</time>
      </trkpt>
      <trkpt lat="42.7518506069" lon="20.1556131151">
        <ele>1996.32</ele>
        <time>2019-07-12T05:50:21Z</time>
      </trkpt>
      <trkpt lat="42.7519643493" lon="20.1555577945">
        <ele>1999.68</ele>
        <time>2019-07-12T05:50:36Z</time>
      </trkpt>
      <trkpt lat="42.7520767506" lon="20.1555167232">
        <ele>2001.60</ele>
        <time>2019-07-12T05:50:50Z</time>
      </trkpt>
      <trkpt lat="42.7521947678" lon="20.1554694492">
        <ele>2003.04</ele>
        <time>2019-07-12T05:51:05Z</time>
      </trkpt>
      <trkpt lat="42.7522484120" lon="20.1553808525">
        <ele>2005.45</ele>
        <time>2019-07-12T05:51:17Z</time>
      </trkpt>
      <trkpt lat="42.7523214184" lon="20.1553141326">
        <ele>2008.33</ele>
        <time>2019-07-12T05:51:30Z</time>
      </trkpt>
      <trkpt lat="42.7523216698" lon="20.1552378573">
        <ele>2010.73</ele>
        <time>2019-07-12T05:51:44Z</time>
      </trkpt>
      <trkpt lat="42.7523248550" lon="20.1551477518">
        <ele>2014.10</ele>
        <time>2019-07-12T05:51:59Z</time>
      </trkpt>
      <trkpt lat="42.7523696143" lon="20.1550537068">
        <ele>2016.50</ele>
        <time>2019-07-12T05:52:12Z</time>
      </trkpt>
      <trkpt lat="42.7524193190" lon="20.1549664512">
        <ele>2019.39</ele>
        <time>2019-07-12T05:52:26Z</time>
      </trkpt>
      <trkpt lat="42.7524451353" lon="20.1548724901">
        <ele>2021.79</ele>
        <time>2019-07-12T05:52:39Z</time>
      </trkpt>
      <trkpt lat="42.7524634916" lon="20.1547647826">
        <ele>2025.15</ele>
        <time>2019-07-12T05:52:55Z</time>
      </trkpt>
      <trkpt lat="42.7525162138" lon="20.1546385512">
        <ele>2027.56</ele>
        <time>2019-07-12T05:53:12Z</time>
      </trkpt>
      <trkpt lat="42.7525320556" lon="20.1545315143">
        <ele>2030.92</ele>
        <time>2019-07-12T05:53:25Z</time>
      </trkpt>
      <trkpt lat="42.7525324747" lon="20.1544603519">
        <ele>2033.81</ele>
        <time>2019-07-12T05:53:38Z</time>
      </trkpt>
      <trkpt lat="42.7525437064" lon="20.1543782931">
        <ele>2037.17</ele>
        <time>2019-07-12T05:53:51Z</time>
      </trkpt>
      <trkpt lat="42.7525721211" lon="20.1543004252">
        <ele>2040.05</ele>
        <time>2019-07-12T05:54:05Z</time>
      </trkpt>
      <trkpt lat="42.7525877953" lon="20.1542214677">
        <ele>2042.94</ele>
        <time>2019-07-12T05:54:18Z</time>
      </trkpt>
      <trkpt lat="42.7525804192" lon="20.1541586034">
        <ele>2044.86</ele>
        <time>2019-07-12T05:54:27Z</time>
      </trkpt>
      <trkpt lat="42.7525821794" lon="20.1540854294">
        <ele>2048.23</ele>
        <time>2019-07-12T05:54:41Z</time>
      </trkpt>
      <trkpt lat="42.7525963448" lon="20.1540270913">
        <ele>2050.15</ele>
        <time>2019-07-12T05:54:52Z</time>
      </trkpt>
      <trkpt lat="42.7526361588" lon="20.1539674960">
        <ele>2053.51</ele>
        <time>2019-07-12T05:55:06Z</time>
      </trkpt>
      <trkpt lat="42.7526635677" lon="20.1538851019">
        <ele>2056.88</ele>
        <time>2019-07-12T05:55:20Z</time>
      </trkpt>
      <trkpt lat="42.7526891325" lon="20.1538066473">
        <ele>2060.24</ele>
        <time>2019-07-12T05:55:33Z</time>
      </trkpt>
      <trkpt lat="42.7526992746" lon="20.1537914760">
        <ele>2060.24</ele>
        <time>2019-07-12T05:55:36Z</time>
      </trkpt>
      <trkpt lat="42.7527365740" lon="20.1537030470">
        <ele>2064.09</ele>
        <time>2019-07-12T05:55:51Z</time>
      </trkpt>
      <trkpt lat="42.7527566068" lon="20.1536418591">
        <ele>2067.45</ele>
        <time>2019-07-12T05:56:06Z</time>
      </trkpt>
      <trkpt lat="42.7527212352" lon="20.1535764802">
        <ele>2069.86</ele>
        <time>2019-07-12T05:56:17Z</time>
      </trkpt>
      <trkpt lat="42.7526558563" lon="20.1535506640">
        <ele>2072.26</ele>
        <time>2019-07-12T05:56:33Z</time>
      </trkpt>
      <trkpt lat="42.7526554372" lon="20.1534980256">
        <ele>2074.66</ele>
        <time>2019-07-12T05:56:44Z</time>
      </trkpt>
      <trkpt lat="42.7526438702" lon="20.1534387656">
        <ele>2077.55</ele>
        <time>2019-07-12T05:56:56Z</time>
      </trkpt>
      <trkpt lat="42.7526481450" lon="20.1533847023">
        <ele>2079.95</ele>
        <time>2019-07-12T05:57:08Z</time>
      </trkpt>
      <trkpt lat="42.7526780684" lon="20.1533215027">
        <ele>2082.83</ele>
        <time>2019-07-12T05:57:22Z</time>
      </trkpt>
      <trkpt lat="42.7526843548" lon="20.1532456465">
        <ele>2086.20</ele>
        <time>2019-07-12T05:57:35Z</time>
      </trkpt>
      <trkpt lat="42.7526858635" lon="20.1531830337">
        <ele>2088.60</ele>
        <time>2019-07-12T05:57:51Z</time>
      </trkpt>
      <trkpt lat="42.7526967600" lon="20.1531195827">
        <ele>2091.49</ele>
        <time>2019-07-12T05:58:04Z</time>
      </trkpt>
      <trkpt lat="42.7526870370" lon="20.1530625857">
        <ele>2093.89</ele>
        <time>2019-07-12T05:58:19Z</time>
      </trkpt>
      <trkpt lat="42.7526928205" lon="20.1530050021">
        <ele>2097.25</ele>
        <time>2019-07-12T05:58:32Z</time>
      </trkpt>
      <trkpt lat="42.7527281921" lon="20.1529457420">
        <ele>2099.18</ele>
        <time>2019-07-12T05:58:45Z</time>
      </trkpt>
      <trkpt lat="42.7527244203" lon="20.1528868172">
        <ele>2101.58</ele>
        <time>2019-07-12T05:58:59Z</time>
      </trkpt>
      <trkpt lat="42.7527281921" lon="20.1528389566">
        <ele>2104.46</ele>
        <time>2019-07-12T05:59:12Z</time>
      </trkpt>
      <trkpt lat="42.7527119312" lon="20.1527945325">
        <ele>2107.83</ele>
        <time>2019-07-12T05:59:26Z</time>
      </trkpt>
      <trkpt lat="42.7526882943" lon="20.1527154073">
        <ele>2111.19</ele>
        <time>2019-07-12T05:59:41Z</time>
      </trkpt>
      <trkpt lat="42.7526823431" lon="20.1527000684">
        <ele>2112.15</ele>
        <time>2019-07-12T05:59:52Z</time>
      </trkpt>
      <trkpt lat="42.7526874561" lon="20.1526563987">
        <ele>2113.60</ele>
        <time>2019-07-12T06:00:05Z</time>
      </trkpt>
      <trkpt lat="42.7527086623" lon="20.1525869966">
        <ele>2116.48</ele>
        <time>2019-07-12T06:00:20Z</time>
      </trkpt>
      <trkpt lat="42.7527333889" lon="20.1525398903">
        <ele>2118.88</ele>
        <time>2019-07-12T06:00:34Z</time>
      </trkpt>
      <trkpt lat="42.7527638990" lon="20.1524511259">
        <ele>2121.77</ele>
        <time>2019-07-12T06:00:47Z</time>
      </trkpt>
      <trkpt lat="42.7527869493" lon="20.1523872558">
        <ele>2123.69</ele>
        <time>2019-07-12T06:00:59Z</time>
      </trkpt>
      <trkpt lat="42.7527446207" lon="20.1523027662">
        <ele>2127.05</ele>
        <time>2019-07-12T06:01:13Z</time>
      </trkpt>
      <trkpt lat="42.7527523320" lon="20.1522678137">
        <ele>2129.94</ele>
        <time>2019-07-12T06:01:27Z</time>
      </trkpt>
      <trkpt lat="42.7527836803" lon="20.1522053685">
        <ele>2132.34</ele>
        <time>2019-07-12T06:01:39Z</time>
      </trkpt>
      <trkpt lat="42.7527975105" lon="20.1521577593">
        <ele>2136.19</ele>
        <time>2019-07-12T06:01:53Z</time>
      </trkpt>
      <trkpt lat="42.7528182976" lon="20.1520916261">
        <ele>2139.07</ele>
        <time>2019-07-12T06:02:07Z</time>
      </trkpt>
      <trkpt lat="42.7528361510" lon="20.1520055439">
        <ele>2141.47</ele>
        <time>2019-07-12T06:02:19Z</time>
      </trkpt>
      <trkpt lat="42.7528146096" lon="20.1519350521">
        <ele>2144.84</ele>
        <time>2019-07-12T06:02:34Z</time>
      </trkpt>
      <trkpt lat="42.7528228238" lon="20.1518892869">
        <ele>2147.72</ele>
        <time>2019-07-12T06:02:47Z</time>
      </trkpt>
      <trkpt lat="42.7528374083" lon="20.1518365648">
        <ele>2150.61</ele>
        <time>2019-07-12T06:02:59Z</time>
      </trkpt>
      <trkpt lat="42.7528887056" lon="20.1517673302">
        <ele>2153.49</ele>
        <time>2019-07-12T06:03:13Z</time>
      </trkpt>
      <trkpt lat="42.7529085707" lon="20.1516980957">
        <ele>2156.86</ele>
        <time>2019-07-12T06:03:27Z</time>
      </trkpt>
      <trkpt lat="42.7528789826" lon="20.1516166236">
        <ele>2159.26</ele>
        <time>2019-07-12T06:03:41Z</time>
      </trkpt>
      <trkpt lat="42.7528527472" lon="20.1515657455">
        <ele>2161.66</ele>
        <time>2019-07-12T06:03:54Z</time>
      </trkpt>
      <trkpt lat="42.7528860234" lon="20.1515229139">
        <ele>2165.03</ele>
        <time>2019-07-12T06:04:07Z</time>
      </trkpt>
      <trkpt lat="42.7529158629" lon="20.1514287014">
        <ele>2166.95</ele>
        <time>2019-07-12T06:04:21Z</time>
      </trkpt>
      <trkpt lat="42.7529507317" lon="20.1513814274">
        <ele>2169.83</ele>
        <time>2019-07-12T06:04:32Z</time>
      </trkpt>
      <trkpt lat="42.7529997658" lon="20.1513010450">
        <ele>2172.24</ele>
        <time>2019-07-12T06:04:46Z</time>
      </trkpt>
      <trkpt lat="42.7530664019" lon="20.1512339059">
        <ele>2174.16</ele>
        <time>2019-07-12T06:04:58Z</time>
      </trkpt>
      <trkpt lat="42.7531093173" lon="20.1511342451">
        <ele>2177.52</ele>
        <time>2019-07-12T06:05:13Z</time>
      </trkpt>
      <trkpt lat="42.7531290147" lon="20.1510506775">
        <ele>2179.93</ele>
        <time>2019-07-12T06:05:27Z</time>
      </trkpt>
      <trkpt lat="42.7531189565" lon="20.1509935968">
        <ele>2181.85</ele>
        <time>2019-07-12T06:05:40Z</time>
      </trkpt>
      <trkpt lat="42.7531244885" lon="20.1509542018">
        <ele>2185.21</ele>
        <time>2019-07-12T06:05:51Z</time>
      </trkpt>
      <trkpt lat="42.7531581838" lon="20.1508853026">
        <ele>2187.14</ele>
        <time>2019-07-12T06:06:03Z</time>
      </trkpt>
      <trkpt lat="42.7531963214" lon="20.1508088596">
        <ele>2189.54</ele>
        <time>2019-07-12T06:06:16Z</time>
      </trkpt>
      <trkpt lat="42.7531716786" lon="20.1507334225">
        <ele>2192.90</ele>
        <time>2019-07-12T06:06:30Z</time>
      </trkpt>
      <trkpt lat="42.7532212157" lon="20.1506700553">
        <ele>2195.31</ele>
        <time>2019-07-12T06:06:44Z</time>
      </trkpt>
      <trkpt lat="42.7532473672" lon="20.1506071910">
        <ele>2198.67</ele>
        <time>2019-07-12T06:06:59Z</time>
      </trkpt>
      <trkpt lat="42.7532907017" lon="20.1504959632">
        <ele>2200.59</ele>
        <time>2019-07-12T06:07:12Z</time>
      </trkpt>
      <trkpt lat="42.7533161826" lon="20.1504037622">
        <ele>2203.48</ele>
        <time>2019-07-12T06:07:27Z</time>
      </trkpt>
      <trkpt lat="42.7533388138" lon="20.1503295824">
        <ele>2206.84</ele>
        <time>2019-07-12T06:07:40Z</time>
      </trkpt>
      <trkpt lat="42.7533564158" lon="20.1502739266">
        <ele>2209.73</ele>
        <time>2019-07-12T06:07:54Z</time>
      </trkpt>
      <trkpt lat="42.7533727605" lon="20.1501962263">
        <ele>2212.61</ele>
        <time>2019-07-12T06:08:05Z</time>
      </trkpt>
      <trkpt lat="42.7533729281" lon="20.1501279138">
        <ele>2215.50</ele>
        <time>2019-07-12T06:08:20Z</time>
      </trkpt>
      <trkpt lat="42.7533841599" lon="20.1500741858">
        <ele>2218.38</ele>
        <time>2019-07-12T06:08:31Z</time>
      </trkpt>
      <trkpt lat="42.7533764485" lon="20.1500109024">
        <ele>2221.74</ele>
        <time>2019-07-12T06:08:44Z</time>
      </trkpt>
      <trkpt lat="42.7533760294" lon="20.1499515586">
        <ele>2224.63</ele>
        <time>2019-07-12T06:08:58Z</time>
      </trkpt>
      <trkpt lat="42.7533916198" lon="20.1498876046">
        <ele>2227.51</ele>
        <time>2019-07-12T06:09:11Z</time>
      </trkpt>
      <trkpt lat="42.7533972356" lon="20.1498719305">
        <ele>2227.51</ele>
        <time>2019-07-12T06:09:13Z</time>
      </trkpt>
      <trkpt lat="42.7534104791" lon="20.1497998461">
        <ele>2230.88</ele>
        <time>2019-07-12T06:09:25Z</time>
      </trkpt>
      <trkpt lat="42.7534259018" lon="20.1497395802">
        <ele>2234.24</ele>
        <time>2019-07-12T06:09:39Z</time>
      </trkpt>
      <trkpt lat="42.7534132451" lon="20.1496952400">
        <ele>2236.64</ele>
        <time>2019-07-12T06:09:53Z</time>
      </trkpt>
      <trkpt lat="42.7533950564" lon="20.1496671606">
        <ele>2239.53</ele>
        <time>2019-07-12T06:10:08Z</time>
      </trkpt>
      <trkpt lat="42.7534177713" lon="20.1495926455">
        <ele>2242.89</ele>
        <time>2019-07-12T06:10:22Z</time>
      </trkpt>
      <trkpt lat="42.7534329426" lon="20.1495304517">
        <ele>2245.30</ele>
        <time>2019-07-12T06:10:36Z</time>
      </trkpt>
      <trkpt lat="42.7534533944" lon="20.1494980976">
        <ele>2248.66</ele>
        <time>2019-07-12T06:10:49Z</time>
      </trkpt>
      <trkpt lat="42.7534511313" lon="20.1494457945">
        <ele>2252.03</ele>
        <time>2019-07-12T06:11:02Z</time>
      </trkpt>
      <trkpt lat="42.7534906100" lon="20.1493857801">
        <ele>2254.91</ele>
        <time>2019-07-12T06:11:16Z</time>
      </trkpt>
      <trkpt lat="42.7535119001" lon="20.1493004523">
        <ele>2257.79</ele>
        <time>2019-07-12T06:11:31Z</time>
      </trkpt>
      <trkpt lat="42.7535301726" lon="20.1491820160">
        <ele>2261.16</ele>
        <time>2019-07-12T06:11:47Z</time>
      </trkpt>
      <trkpt lat="42.7535052784" lon="20.1491560321">
        <ele>2261.64</ele>
        <time>2019-07-12T06:12:03Z</time>
      </trkpt>
      <trkpt lat="42.7535006683" lon="20.1491349097">
        <ele>2262.60</ele>
        <time>2019-07-12T06:12:22Z</time>
      </trkpt>
      <trkpt lat="42.7534673084" lon="20.1491380949">
        <ele>2262.60</ele>
        <time>2019-07-12T06:12:45Z</time>
      </trkpt>
      <trkpt lat="42.7533989958" lon="20.1491269469">
        <ele>2265.96</ele>
        <time>2019-07-12T06:12:56Z</time>
      </trkpt>
      <trkpt lat="42.7533025201" lon="20.1491200738">
        <ele>2268.85</ele>
        <time>2019-07-12T06:13:11Z</time>
      </trkpt>
      <trkpt lat="42.7532803081" lon="20.1491201576">
        <ele>2269.33</ele>
        <time>2019-07-12T06:13:14Z</time>
      </trkpt>
      <trkpt lat="42.7531975787" lon="20.1491185650">
        <ele>2272.69</ele>
        <time>2019-07-12T06:13:28Z</time>
      </trkpt>
      <trkpt lat="42.7532032784" lon="20.1490301359">
        <ele>2275.58</ele>
        <time>2019-07-12T06:13:41Z</time>
      </trkpt>
      <trkpt lat="42.7531967405" lon="20.1489303913">
        <ele>2277.02</ele>
        <time>2019-07-12T06:13:50Z</time>
      </trkpt>
      <trkpt lat="42.7531834971" lon="20.1487864740">
        <ele>2280.38</ele>
        <time>2019-07-12T06:14:05Z</time>
      </trkpt>
      <trkpt lat="42.7532301843" lon="20.1486835442">
        <ele>2281.35</ele>
        <time>2019-07-12T06:14:19Z</time>
      </trkpt>
      <trkpt lat="42.7532914560" lon="20.1485872362">
        <ele>2283.75</ele>
        <time>2019-07-12T06:14:31Z</time>
      </trkpt>
      <trkpt lat="42.7533326112" lon="20.1484836359">
        <ele>2286.63</ele>
        <time>2019-07-12T06:14:43Z</time>
      </trkpt>
      <trkpt lat="42.7534026839" lon="20.1483726595">
        <ele>2289.04</ele>
        <time>2019-07-12T06:14:56Z</time>
      </trkpt>
      <trkpt lat="42.7534709126" lon="20.1482978929">
        <ele>2292.40</ele>
        <time>2019-07-12T06:15:10Z</time>
      </trkpt>
      <trkpt lat="42.7535223775" lon="20.1482896786">
        <ele>2296.25</ele>
        <time>2019-07-12T06:15:22Z</time>
      </trkpt>
      <trkpt lat="42.7535578329" lon="20.1482372079">
        <ele>2296.73</ele>
        <time>2019-07-12T06:15:29Z</time>
      </trkpt>
      <trkpt lat="42.7535975631" lon="20.1481331885">
        <ele>2296.73</ele>
        <time>2019-07-12T06:15:36Z</time>
      </trkpt>
      <trkpt lat="42.7537211962" lon="20.1480467711">
        <ele>2299.13</ele>
        <time>2019-07-12T06:15:51Z</time>
      </trkpt>
      <trkpt lat="42.7537828870" lon="20.1480486151">
        <ele>2301.53</ele>
        <time>2019-07-12T06:16:04Z</time>
      </trkpt>
      <trkpt lat="42.7538737468" lon="20.1479997486">
        <ele>2304.42</ele>
        <time>2019-07-12T06:16:18Z</time>
      </trkpt>
      <trkpt lat="42.7538791951" lon="20.1479904447">
        <ele>2304.42</ele>
        <time>2019-07-12T06:16:19Z</time>
      </trkpt>
      <trkpt lat="42.7539296541" lon="20.1478867605">
        <ele>2304.90</ele>
        <time>2019-07-12T06:16:29Z</time>
      </trkpt>
      <trkpt lat="42.7540032472" lon="20.1478033606">
        <ele>2306.82</ele>
        <time>2019-07-12T06:16:40Z</time>
      </trkpt>
      <trkpt lat="42.7540464979" lon="20.1477456931">
        <ele>2307.30</ele>
        <time>2019-07-12T06:16:46Z</time>
      </trkpt>
      <trkpt lat="42.7540552150" lon="20.1477195416">
        <ele>2307.78</ele>
        <time>2019-07-12T06:16:48Z</time>
      </trkpt>
      <trkpt lat="42.7541452367" lon="20.1476114988">
        <ele>2310.19</ele>
        <time>2019-07-12T06:17:01Z</time>
      </trkpt>
      <trkpt lat="42.7541972883" lon="20.1474988461">
        <ele>2312.11</ele>
        <time>2019-07-12T06:17:14Z</time>
      </trkpt>
      <trkpt lat="42.7542704623" lon="20.1474095788">
        <ele>2314.99</ele>
        <time>2019-07-12T06:17:29Z</time>
      </trkpt>
      <trkpt lat="42.7543391101" lon="20.1473245025">
        <ele>2318.36</ele>
        <time>2019-07-12T06:17:42Z</time>
      </trkpt>
      <trkpt lat="42.7543736435" lon="20.1471976005">
        <ele>2321.24</ele>
        <time>2019-07-12T06:17:55Z</time>
      </trkpt>
      <trkpt lat="42.7543706261" lon="20.1470462233">
        <ele>2323.16</ele>
        <time>2019-07-12T06:18:11Z</time>
      </trkpt>
      <trkpt lat="42.7544090990" lon="20.1469480712">
        <ele>2325.57</ele>
        <time>2019-07-12T06:18:25Z</time>
      </trkpt>
      <trkpt lat="42.7544639166" lon="20.1468009688">
        <ele>2327.49</ele>
        <time>2019-07-12T06:18:41Z</time>
      </trkpt>
      <trkpt lat="42.7545130346" lon="20.1467270404">
        <ele>2330.37</ele>
        <time>2019-07-12T06:18:51Z</time>
      </trkpt>
      <trkpt lat="42.7545461431" lon="20.1465993840">
        <ele>2333.26</ele>
        <time>2019-07-12T06:19:04Z</time>
      </trkpt>
      <trkpt lat="42.7545749769" lon="20.1465108711">
        <ele>2334.22</ele>
        <time>2019-07-12T06:19:17Z</time>
      </trkpt>
      <trkpt lat="42.7545915730" lon="20.1464625075">
        <ele>2335.18</ele>
        <time>2019-07-12T06:19:26Z</time>
      </trkpt>
      <trkpt lat="42.7546376735" lon="20.1463880762">
        <ele>2338.54</ele>
        <time>2019-07-12T06:19:38Z</time>
      </trkpt>
      <trkpt lat="42.7547201514" lon="20.1463122200">
        <ele>2341.43</ele>
        <time>2019-07-12T06:19:51Z</time>
      </trkpt>
      <trkpt lat="42.7547255158" lon="20.1462868229">
        <ele>2341.91</ele>
        <time>2019-07-12T06:19:53Z</time>
      </trkpt>
      <trkpt lat="42.7547409385" lon="20.1462393813">
        <ele>2342.39</ele>
        <time>2019-07-12T06:19:57Z</time>
      </trkpt>
      <trkpt lat="42.7547463868" lon="20.1461673807">
        <ele>2343.83</ele>
        <time>2019-07-12T06:20:04Z</time>
      </trkpt>
      <trkpt lat="42.7547630668" lon="20.1460532192">
        <ele>2345.75</ele>
        <time>2019-07-12T06:20:15Z</time>
      </trkpt>
      <trkpt lat="42.7547662519" lon="20.1459291670">
        <ele>2346.72</ele>
        <time>2019-07-12T06:20:24Z</time>
      </trkpt>
      <trkpt lat="42.7547747176" lon="20.1458849944">
        <ele>2346.72</ele>
        <time>2019-07-12T06:20:27Z</time>
      </trkpt>
      <trkpt lat="42.7547623124" lon="20.1457809750">
        <ele>2348.16</ele>
        <time>2019-07-12T06:20:35Z</time>
      </trkpt>
      <trkpt lat="42.7547825128" lon="20.1456137560">
        <ele>2346.72</ele>
        <time>2019-07-12T06:20:46Z</time>
      </trkpt>
      <trkpt lat="42.7547549363" lon="20.1455680747">
        <ele>2345.27</ele>
        <time>2019-07-12T06:20:51Z</time>
      </trkpt>
      <trkpt lat="42.7547381725" lon="20.1454842556">
        <ele>2341.91</ele>
        <time>2019-07-12T06:21:02Z</time>
      </trkpt>
      <trkpt lat="42.7547419444" lon="20.1454648096">
        <ele>2341.91</ele>
        <time>2019-07-12T06:21:04Z</time>
      </trkpt>
      <trkpt lat="42.7547966782" lon="20.1453785598">
        <ele>2340.47</ele>
        <time>2019-07-12T06:21:11Z</time>
      </trkpt>
      <trkpt lat="42.7548629791" lon="20.1452255901">
        <ele>2340.47</ele>
        <time>2019-07-12T06:21:23Z</time>
      </trkpt>
      <trkpt lat="42.7548996918" lon="20.1450732909">
        <ele>2339.02</ele>
        <time>2019-07-12T06:21:36Z</time>
      </trkpt>
      <trkpt lat="42.7549261786" lon="20.1450240891">
        <ele>2338.54</ele>
        <time>2019-07-12T06:21:40Z</time>
      </trkpt>
      <trkpt lat="42.7549385838" lon="20.1448235940">
        <ele>2338.54</ele>
        <time>2019-07-12T06:21:52Z</time>
      </trkpt>
      <trkpt lat="42.7549478039" lon="20.1447481569">
        <ele>2339.99</ele>
        <time>2019-07-12T06:21:58Z</time>
      </trkpt>
      <trkpt lat="42.7549834270" lon="20.1446262840">
        <ele>2341.91</ele>
        <time>2019-07-12T06:22:11Z</time>
      </trkpt>
      <trkpt lat="42.7549896296" lon="20.1445562113">
        <ele>2343.35</ele>
        <time>2019-07-12T06:22:18Z</time>
      </trkpt>
      <trkpt lat="42.7549573593" lon="20.1443627570">
        <ele>2343.83</ele>
        <time>2019-07-12T06:22:33Z</time>
      </trkpt>
      <trkpt lat="42.7549673337" lon="20.1443462446">
        <ele>2343.83</ele>
        <time>2019-07-12T06:22:35Z</time>
      </trkpt>
      <trkpt lat="42.7550119255" lon="20.1441973820">
        <ele>2344.31</ele>
        <time>2019-07-12T06:22:48Z</time>
      </trkpt>
      <trkpt lat="42.7550587803" lon="20.1440785266">
        <ele>2345.27</ele>
        <time>2019-07-12T06:22:58Z</time>
      </trkpt>
      <trkpt lat="42.7551222313" lon="20.1438631956">
        <ele>2345.75</ele>
        <time>2019-07-12T06:23:12Z</time>
      </trkpt>
      <trkpt lat="42.7551706787" lon="20.1436827332">
        <ele>2347.68</ele>
        <time>2019-07-12T06:23:26Z</time>
      </trkpt>
      <trkpt lat="42.7551855147" lon="20.1436266582">
        <ele>2348.64</ele>
        <time>2019-07-12T06:23:31Z</time>
      </trkpt>
      <trkpt lat="42.7551855147" lon="20.1434749458">
        <ele>2348.16</ele>
        <time>2019-07-12T06:23:42Z</time>
      </trkpt>
      <trkpt lat="42.7551800665" lon="20.1434005983">
        <ele>2348.16</ele>
        <time>2019-07-12T06:23:47Z</time>
      </trkpt>
      <trkpt lat="42.7552313637" lon="20.1433230657">
        <ele>2348.16</ele>
        <time>2019-07-12T06:24:01Z</time>
      </trkpt>
      <trkpt lat="42.7552347165" lon="20.1433051284">
        <ele>2348.16</ele>
        <time>2019-07-12T06:24:15Z</time>
      </trkpt>
      <trkpt lat="42.7552456129" lon="20.1432583574">
        <ele>2349.12</ele>
        <time>2019-07-12T06:24:35Z</time>
      </trkpt>
      <trkpt lat="42.7552889474" lon="20.1431628037">
        <ele>2351.04</ele>
        <time>2019-07-12T06:24:48Z</time>
      </trkpt>
      <trkpt lat="42.7553233132" lon="20.1430806611">
        <ele>2354.41</ele>
        <time>2019-07-12T06:25:00Z</time>
      </trkpt>
      <trkpt lat="42.7553356346" lon="20.1430580299">
        <ele>2354.89</ele>
        <time>2019-07-12T06:25:03Z</time>
      </trkpt>
      <trkpt lat="42.7553456929" lon="20.1430328842">
        <ele>2355.37</ele>
        <time>2019-07-12T06:25:05Z</time>
      </trkpt>
      <trkpt lat="42.7553729340" lon="20.1429655775">
        <ele>2356.81</ele>
        <time>2019-07-12T06:25:10Z</time>
      </trkpt>
      <trkpt lat="42.7553766221" lon="20.1429410186">
        <ele>2357.77</ele>
        <time>2019-07-12T06:25:12Z</time>
      </trkpt>
      <trkpt lat="42.7553936373" lon="20.1427467261">
        <ele>2358.25</ele>
        <time>2019-07-12T06:25:26Z</time>
      </trkpt>
      <trkpt lat="42.7554123290" lon="20.1426710375">
        <ele>2361.14</ele>
        <time>2019-07-12T06:25:39Z</time>
      </trkpt>
      <trkpt lat="42.7554530650" lon="20.1426666789">
        <ele>2364.02</ele>
        <time>2019-07-12T06:25:51Z</time>
      </trkpt>
      <trkpt lat="42.7555140853" lon="20.1425666828">
        <ele>2366.90</ele>
        <time>2019-07-12T06:26:04Z</time>
      </trkpt>
      <trkpt lat="42.7555707470" lon="20.1424962748">
        <ele>2369.31</ele>
        <time>2019-07-12T06:26:17Z</time>
      </trkpt>
      <trkpt lat="42.7556131594" lon="20.1423961110">
        <ele>2372.19</ele>
        <time>2019-07-12T06:26:31Z</time>
      </trkpt>
      <trkpt lat="42.7556468546" lon="20.1422899961">
        <ele>2374.11</ele>
        <time>2019-07-12T06:26:44Z</time>
      </trkpt>
      <trkpt lat="42.7556665521" lon="20.1422495954">
        <ele>2374.59</ele>
        <time>2019-07-12T06:26:48Z</time>
      </trkpt>
      <trkpt lat="42.7557145804" lon="20.1420946140">
        <ele>2376.04</ele>
        <time>2019-07-12T06:27:02Z</time>
      </trkpt>
      <trkpt lat="42.7557310928" lon="20.1419437397">
        <ele>2378.44</ele>
        <time>2019-07-12T06:27:16Z</time>
      </trkpt>
      <trkpt lat="42.7557644527" lon="20.1418521255">
        <ele>2381.32</ele>
        <time>2019-07-12T06:27:30Z</time>
      </trkpt>
      <trkpt lat="42.7557787858" lon="20.1418363675">
        <ele>2381.80</ele>
        <time>2019-07-12T06:27:33Z</time>
      </trkpt>
      <trkpt lat="42.7558085416" lon="20.1417985652">
        <ele>2382.28</ele>
        <time>2019-07-12T06:27:40Z</time>
      </trkpt>
      <trkpt lat="42.7558647003" lon="20.1417239662">
        <ele>2382.76</ele>
        <time>2019-07-12T06:27:54Z</time>
      </trkpt>
      <trkpt lat="42.7559185121" lon="20.1415512990">
        <ele>2381.80</ele>
        <time>2019-07-12T06:28:08Z</time>
      </trkpt>
      <trkpt lat="42.7559268940" lon="20.1415437553">
        <ele>2381.80</ele>
        <time>2019-07-12T06:28:09Z</time>
      </trkpt>
      <trkpt lat="42.7560131438" lon="20.1415120717">
        <ele>2381.80</ele>
        <time>2019-07-12T06:28:18Z</time>
      </trkpt>
      <trkpt lat="42.7560934424" lon="20.1413813140">
        <ele>2383.73</ele>
        <time>2019-07-12T06:28:33Z</time>
      </trkpt>
      <trkpt lat="42.7561448235" lon="20.1412563398">
        <ele>2384.21</ele>
        <time>2019-07-12T06:28:45Z</time>
      </trkpt>
      <trkpt lat="42.7561783511" lon="20.1411627978">
        <ele>2384.21</ele>
        <time>2019-07-12T06:28:57Z</time>
      </trkpt>
      <trkpt lat="42.7562117949" lon="20.1410852652">
        <ele>2384.21</ele>
        <time>2019-07-12T06:29:04Z</time>
      </trkpt>
      <trkpt lat="42.7562195901" lon="20.1410587784">
        <ele>2384.21</ele>
        <time>2019-07-12T06:29:06Z</time>
      </trkpt>
      <trkpt lat="42.7562399581" lon="20.1409415156">
        <ele>2384.69</ele>
        <time>2019-07-12T06:29:16Z</time>
      </trkpt>
      <trkpt lat="42.7562651876" lon="20.1408339757">
        <ele>2384.69</ele>
        <time>2019-07-12T06:29:29Z</time>
      </trkpt>
      <trkpt lat="42.7562708035" lon="20.1408281084">
        <ele>2383.25</ele>
        <time>2019-07-12T06:29:31Z</time>
      </trkpt>
      <trkpt lat="42.7563027386" lon="20.1407554373">
        <ele>2383.73</ele>
        <time>2019-07-12T06:29:43Z</time>
      </trkpt>
      <trkpt lat="42.7563039120" lon="20.1407428645">
        <ele>2384.69</ele>
        <time>2019-07-12T06:29:46Z</time>
      </trkpt>
      <trkpt lat="42.7563256212" lon="20.1406153757">
        <ele>2385.65</ele>
        <time>2019-07-12T06:29:56Z</time>
      </trkpt>
      <trkpt lat="42.7563357633" lon="20.1405727956">
        <ele>2385.65</ele>
        <time>2019-07-12T06:29:59Z</time>
      </trkpt>
      <trkpt lat="42.7563475817" lon="20.1404249389">
        <ele>2386.61</ele>
        <time>2019-07-12T06:30:12Z</time>
      </trkpt>
      <trkpt lat="42.7563245315" lon="20.1402850449">
        <ele>2388.05</ele>
        <time>2019-07-12T06:30:26Z</time>
      </trkpt>
      <trkpt lat="42.7563475817" lon="20.1401802711">
        <ele>2389.97</ele>
        <time>2019-07-12T06:30:39Z</time>
      </trkpt>
      <trkpt lat="42.7563552931" lon="20.1401241962">
        <ele>2389.97</ele>
        <time>2019-07-12T06:30:45Z</time>
      </trkpt>
      <trkpt lat="42.7563664410" lon="20.1400920097">
        <ele>2389.01</ele>
        <time>2019-07-12T06:30:48Z</time>
      </trkpt>
      <trkpt lat="42.7564507630" lon="20.1399949472">
        <ele>2390.94</ele>
        <time>2019-07-12T06:31:04Z</time>
      </trkpt>
      <trkpt lat="42.7564947680" lon="20.1399109606">
        <ele>2393.34</ele>
        <time>2019-07-12T06:31:17Z</time>
      </trkpt>
      <trkpt lat="42.7565423772" lon="20.1398570649">
        <ele>2395.74</ele>
        <time>2019-07-12T06:31:32Z</time>
      </trkpt>
      <trkpt lat="42.7565706242" lon="20.1398935262">
        <ele>2399.11</ele>
        <time>2019-07-12T06:31:45Z</time>
      </trkpt>
      <trkpt lat="42.7566457260" lon="20.1398048457">
        <ele>2399.59</ele>
        <time>2019-07-12T06:31:58Z</time>
      </trkpt>
      <trkpt lat="42.7566910721" lon="20.1397957932">
        <ele>2401.51</ele>
        <time>2019-07-12T06:32:10Z</time>
      </trkpt>
      <trkpt lat="42.7567551099" lon="20.1397354435">
        <ele>2401.51</ele>
        <time>2019-07-12T06:32:24Z</time>
      </trkpt>
      <trkpt lat="42.7568253502" lon="20.1396808773">
        <ele>2403.43</ele>
        <time>2019-07-12T06:32:39Z</time>
      </trkpt>
      <trkpt lat="42.7568435390" lon="20.1396693941">
        <ele>2403.43</ele>
        <time>2019-07-12T06:32:41Z</time>
      </trkpt>
      <trkpt lat="42.7568618953" lon="20.1396346092">
        <ele>2403.43</ele>
        <time>2019-07-12T06:32:44Z</time>
      </trkpt>
      <trkpt lat="42.7569097560" lon="20.1395527180">
        <ele>2403.91</ele>
        <time>2019-07-12T06:32:53Z</time>
      </trkpt>
      <trkpt lat="42.7569495700" lon="20.1395027619">
        <ele>2403.91</ele>
        <time>2019-07-12T06:33:03Z</time>
      </trkpt>
      <trkpt lat="42.7570225764" lon="20.1394210383">
        <ele>2404.39</ele>
        <time>2019-07-12T06:33:14Z</time>
      </trkpt>
      <trkpt lat="42.7571203094" lon="20.1392645482">
        <ele>2404.39</ele>
        <time>2019-07-12T06:33:29Z</time>
      </trkpt>
      <trkpt lat="42.7571501490" lon="20.1392139215">
        <ele>2404.88</ele>
        <time>2019-07-12T06:33:33Z</time>
      </trkpt>
      <trkpt lat="42.7572374884" lon="20.1390937250">
        <ele>2405.36</ele>
        <time>2019-07-12T06:33:47Z</time>
      </trkpt>
      <trkpt lat="42.7573260851" lon="20.1389731094">
        <ele>2404.88</ele>
        <time>2019-07-12T06:34:00Z</time>
      </trkpt>
      <trkpt lat="42.7573541645" lon="20.1389198843">
        <ele>2404.88</ele>
        <time>2019-07-12T06:34:05Z</time>
      </trkpt>
      <trkpt lat="42.7574340440" lon="20.1387457084">
        <ele>2404.88</ele>
        <time>2019-07-12T06:34:20Z</time>
      </trkpt>
      <trkpt lat="42.7574538253" lon="20.1386840176">
        <ele>2404.88</ele>
        <time>2019-07-12T06:34:31Z</time>
      </trkpt>
      <trkpt lat="42.7574734390" lon="20.1386894658">
        <ele>2404.88</ele>
        <time>2019-07-12T06:34:45Z</time>
      </trkpt>
      <trkpt lat="42.7574777976" lon="20.1386701874">
        <ele>2403.91</ele>
        <time>2019-07-12T06:34:57Z</time>
      </trkpt>
      <trkpt lat="42.7574856766" lon="20.1386730373">
        <ele>2403.43</ele>
        <time>2019-07-12T06:35:10Z</time>
      </trkpt>
      <trkpt lat="42.7574786358" lon="20.1386750489">
        <ele>2403.43</ele>
        <time>2019-07-12T06:35:29Z</time>
      </trkpt>
      <trkpt lat="42.7574991714" lon="20.1386610512">
        <ele>2403.43</ele>
        <time>2019-07-12T06:36:14Z</time>
      </trkpt>
      <trkpt lat="42.7574941423" lon="20.1386592910">
        <ele>2403.43</ele>
        <time>2019-07-12T06:36:50Z</time>
      </trkpt>
      <trkpt lat="42.7574809827" lon="20.1386685111">
        <ele>2402.95</ele>
        <time>2019-07-12T06:37:29Z</time>
      </trkpt>
      <trkpt lat="42.7574800607" lon="20.1386692654">
        <ele>2403.43</ele>
        <time>2019-07-12T06:38:00Z</time>
      </trkpt>
      <trkpt lat="42.7574840002" lon="20.1386670861">
        <ele>2403.43</ele>
        <time>2019-07-12T06:38:43Z</time>
      </trkpt>
      <trkpt lat="42.7574901190" lon="20.1386771444">
        <ele>2403.43</ele>
        <time>2019-07-12T06:39:04Z</time>
      </trkpt>
      <trkpt lat="42.7574937232" lon="20.1386720315">
        <ele>2403.43</ele>
        <time>2019-07-12T06:39:38Z</time>
      </trkpt>
      <trkpt lat="42.7574851736" lon="20.1386675052">
        <ele>2403.43</ele>
        <time>2019-07-12T06:40:10Z</time>
      </trkpt>
      <trkpt lat="42.7574788034" lon="20.1386654936">
        <ele>2403.43</ele>
        <time>2019-07-12T06:40:45Z</time>
      </trkpt>
      <trkpt lat="42.7574859280" lon="20.1386540104">
        <ele>2403.43</ele>
        <time>2019-07-12T06:41:21Z</time>
      </trkpt>
      <trkpt lat="42.7574995905" lon="20.1386433654">
        <ele>2403.43</ele>
        <time>2019-07-12T06:41:52Z</time>
      </trkpt>
      <trkpt lat="42.7574969921" lon="20.1386511605">
        <ele>2403.91</ele>
        <time>2019-07-12T06:42:27Z</time>
      </trkpt>
      <trkpt lat="42.7574943099" lon="20.1386623085">
        <ele>2403.91</ele>
        <time>2019-07-12T06:43:09Z</time>
      </trkpt>
      <trkpt lat="42.7574933879" lon="20.1386602130">
        <ele>2403.91</ele>
        <time>2019-07-12T06:43:40Z</time>
      </trkpt>
      <trkpt lat="42.7574924659" lon="20.1386592072">
        <ele>2403.91</ele>
        <time>2019-07-12T06:44:25Z</time>
      </trkpt>
      <trkpt lat="42.7574926335" lon="20.1386553515">
        <ele>2403.91</ele>
        <time>2019-07-12T06:45:15Z</time>
      </trkpt>
      <trkpt lat="42.7574943099" lon="20.1386577822">
        <ele>2403.91</ele>
        <time>2019-07-12T06:45:49Z</time>
      </trkpt>
      <trkpt lat="42.7574925497" lon="20.1386560220">
        <ele>2403.43</ele>
        <time>2019-07-12T06:46:21Z</time>
      </trkpt>
      <trkpt lat="42.7574918792" lon="20.1386559382">
        <ele>2403.91</ele>
        <time>2019-07-12T06:47:04Z</time>
      </trkpt>
      <trkpt lat="42.7574951481" lon="20.1386584528">
        <ele>2403.43</ele>
        <time>2019-07-12T06:47:42Z</time>
      </trkpt>
      <trkpt lat="42.7574952319" lon="20.1386593748">
        <ele>2403.43</ele>
        <time>2019-07-12T06:48:26Z</time>
      </trkpt>
      <trkpt lat="42.7574967407" lon="20.1386587881">
        <ele>2403.43</ele>
        <time>2019-07-12T06:49:06Z</time>
      </trkpt>
      <trkpt lat="42.7574943937" lon="20.1386576984">
        <ele>2403.91</ele>
        <time>2019-07-12T06:49:51Z</time>
      </trkpt>
      <trkpt lat="42.7574969921" lon="20.1386604644">
        <ele>2403.91</ele>
        <time>2019-07-12T06:50:35Z</time>
      </trkpt>
      <trkpt lat="42.7574955672" lon="20.1386577822">
        <ele>2403.91</ele>
        <time>2019-07-12T06:51:12Z</time>
      </trkpt>
      <trkpt lat="42.7574979980" lon="20.1386548486">
        <ele>2403.91</ele>
        <time>2019-07-12T06:51:35Z</time>
      </trkpt>
      <trkpt lat="42.7574990038" lon="20.1386560220">
        <ele>2404.39</ele>
        <time>2019-07-12T06:51:56Z</time>
      </trkpt>
      <trkpt lat="42.7575010993" lon="20.1386519987">
        <ele>2404.39</ele>
        <time>2019-07-12T06:52:12Z</time>
      </trkpt>
      <trkpt lat="42.7574947290" lon="20.1386588719">
        <ele>2405.36</ele>
        <time>2019-07-12T06:52:34Z</time>
      </trkpt>
      <trkpt lat="42.7574872691" lon="20.1386588719">
        <ele>2405.36</ele>
        <time>2019-07-12T06:53:06Z</time>
      </trkpt>
      <trkpt lat="42.7574948128" lon="20.1386527531">
        <ele>2405.36</ele>
        <time>2019-07-12T06:53:23Z</time>
      </trkpt>
      <trkpt lat="42.7575087268" lon="20.1386464667">
        <ele>2405.84</ele>
        <time>2019-07-12T06:53:44Z</time>
      </trkpt>
      <trkpt lat="42.7575065475" lon="20.1386426110">
        <ele>2405.84</ele>
        <time>2019-07-12T06:54:03Z</time>
      </trkpt>
      <trkpt lat="42.7574961539" lon="20.1386384200">
        <ele>2405.84</ele>
        <time>2019-07-12T06:54:31Z</time>
      </trkpt>
      <trkpt lat="42.7574584354" lon="20.1386784855">
        <ele>2405.84</ele>
        <time>2019-07-12T06:54:44Z</time>
      </trkpt>
      <trkpt lat="42.7574306075" lon="20.1387336385">
        <ele>2405.84</ele>
        <time>2019-07-12T06:54:54Z</time>
      </trkpt>
      <trkpt lat="42.7573663183" lon="20.1388807409">
        <ele>2406.32</ele>
        <time>2019-07-12T06:55:08Z</time>
      </trkpt>
      <trkpt lat="42.7573438548" lon="20.1389259193">
        <ele>2406.32</ele>
        <time>2019-07-12T06:55:13Z</time>
      </trkpt>
      <trkpt lat="42.7572602872" lon="20.1390517317">
        <ele>2406.32</ele>
        <time>2019-07-12T06:55:26Z</time>
      </trkpt>
      <trkpt lat="42.7572161984" lon="20.1390835829">
        <ele>2406.80</ele>
        <time>2019-07-12T06:55:32Z</time>
      </trkpt>
      <trkpt lat="42.7571863588" lon="20.1391643006">
        <ele>2406.80</ele>
        <time>2019-07-12T06:55:38Z</time>
      </trkpt>
      <trkpt lat="42.7571370732" lon="20.1392376423">
        <ele>2405.36</ele>
        <time>2019-07-12T06:55:44Z</time>
      </trkpt>
      <trkpt lat="42.7570628095" lon="20.1393663045">
        <ele>2404.88</ele>
        <time>2019-07-12T06:55:58Z</time>
      </trkpt>
      <trkpt lat="42.7570379153" lon="20.1393934619">
        <ele>2404.88</ele>
        <time>2019-07-12T06:56:01Z</time>
      </trkpt>
      <trkpt lat="42.7569417749" lon="20.1394922845">
        <ele>2404.88</ele>
        <time>2019-07-12T06:56:13Z</time>
      </trkpt>
      <trkpt lat="42.7569246758" lon="20.1395143289">
        <ele>2404.88</ele>
        <time>2019-07-12T06:56:16Z</time>
      </trkpt>
      <trkpt lat="42.7568460535" lon="20.1396422368">
        <ele>2404.88</ele>
        <time>2019-07-12T06:56:28Z</time>
      </trkpt>
      <trkpt lat="42.7567732986" lon="20.1397074480">
        <ele>2402.95</ele>
        <time>2019-07-12T06:56:39Z</time>
      </trkpt>
      <trkpt lat="42.7567570377" lon="20.1397188473">
        <ele>2402.47</ele>
        <time>2019-07-12T06:56:41Z</time>
      </trkpt>
      <trkpt lat="42.7566584665" lon="20.1398095395">
        <ele>2401.51</ele>
        <time>2019-07-12T06:56:56Z</time>
      </trkpt>
      <trkpt lat="42.7565726358" lon="20.1398610882">
        <ele>2399.59</ele>
        <time>2019-07-12T06:57:07Z</time>
      </trkpt>
      <trkpt lat="42.7565183211" lon="20.1399502717">
        <ele>2398.15</ele>
        <time>2019-07-12T06:57:17Z</time>
      </trkpt>
      <trkpt lat="42.7564504277" lon="20.1400724798">
        <ele>2395.74</ele>
        <time>2019-07-12T06:57:30Z</time>
      </trkpt>
      <trkpt lat="42.7563796006" lon="20.1401742361">
        <ele>2395.74</ele>
        <time>2019-07-12T06:57:43Z</time>
      </trkpt>
      <trkpt lat="42.7563458215" lon="20.1402482484">
        <ele>2391.90</ele>
        <time>2019-07-12T06:57:53Z</time>
      </trkpt>
      <trkpt lat="42.7563276328" lon="20.1403051615">
        <ele>2389.49</ele>
        <time>2019-07-12T06:58:06Z</time>
      </trkpt>
      <trkpt lat="42.7563298121" lon="20.1404053252">
        <ele>2387.09</ele>
        <time>2019-07-12T06:58:15Z</time>
      </trkpt>
      <trkpt lat="42.7563338354" lon="20.1404261123">
        <ele>2387.57</ele>
        <time>2019-07-12T06:58:17Z</time>
      </trkpt>
      <trkpt lat="42.7563120425" lon="20.1404950954">
        <ele>2386.61</ele>
        <time>2019-07-12T06:58:24Z</time>
      </trkpt>
      <trkpt lat="42.7562880702" lon="20.1406475622">
        <ele>2385.17</ele>
        <time>2019-07-12T06:58:38Z</time>
      </trkpt>
      <trkpt lat="42.7562719770" lon="20.1407343987">
        <ele>2383.25</ele>
        <time>2019-07-12T06:58:50Z</time>
      </trkpt>
      <trkpt lat="42.7562545426" lon="20.1407671720">
        <ele>2384.69</ele>
        <time>2019-07-12T06:58:59Z</time>
      </trkpt>
      <trkpt lat="42.7562469989" lon="20.1407866180">
        <ele>2386.13</ele>
        <time>2019-07-12T06:59:02Z</time>
      </trkpt>
      <trkpt lat="42.7562449034" lon="20.1408012863">
        <ele>2386.13</ele>
        <time>2019-07-12T06:59:03Z</time>
      </trkpt>
      <trkpt lat="42.7562253736" lon="20.1409489755">
        <ele>2386.13</ele>
        <time>2019-07-12T06:59:15Z</time>
      </trkpt>
      <trkpt lat="42.7562118787" lon="20.1410251670">
        <ele>2384.69</ele>
        <time>2019-07-12T06:59:21Z</time>
      </trkpt>
      <trkpt lat="42.7562042512" lon="20.1410591975">
        <ele>2384.69</ele>
        <time>2019-07-12T06:59:38Z</time>
      </trkpt>
      <trkpt lat="42.7562205121" lon="20.1409778930">
        <ele>2385.17</ele>
        <time>2019-07-12T06:59:54Z</time>
      </trkpt>
      <trkpt lat="42.7562351804" lon="20.1409578603">
        <ele>2386.13</ele>
        <time>2019-07-12T07:00:09Z</time>
      </trkpt>
      <trkpt lat="42.7562301513" lon="20.1409562677">
        <ele>2386.13</ele>
        <time>2019-07-12T07:00:24Z</time>
      </trkpt>
      <trkpt lat="42.7562247869" lon="20.1409475505">
        <ele>2386.13</ele>
        <time>2019-07-12T07:00:44Z</time>
      </trkpt>
      <trkpt lat="42.7562233619" lon="20.1409742888">
        <ele>2386.13</ele>
        <time>2019-07-12T07:01:10Z</time>
      </trkpt>
      <trkpt lat="42.7561853081" lon="20.1410835050">
        <ele>2384.21</ele>
        <time>2019-07-12T07:01:22Z</time>
      </trkpt>
      <trkpt lat="42.7561715618" lon="20.1410936471">
        <ele>2384.21</ele>
        <time>2019-07-12T07:01:24Z</time>
      </trkpt>
      <trkpt lat="42.7561380342" lon="20.1411888655">
        <ele>2383.73</ele>
        <time>2019-07-12T07:01:37Z</time>
      </trkpt>
      <trkpt lat="42.7560964599" lon="20.1413121633">
        <ele>2383.73</ele>
        <time>2019-07-12T07:01:49Z</time>
      </trkpt>
      <trkpt lat="42.7560883295" lon="20.1413408294">
        <ele>2382.76</ele>
        <time>2019-07-12T07:01:53Z</time>
      </trkpt>
      <trkpt lat="42.7560573164" lon="20.1413840801">
        <ele>2382.28</ele>
        <time>2019-07-12T07:01:57Z</time>
      </trkpt>
      <trkpt lat="42.7559429035" lon="20.1415413246">
        <ele>2385.17</ele>
        <time>2019-07-12T07:02:12Z</time>
      </trkpt>
      <trkpt lat="42.7559289895" lon="20.1416016743">
        <ele>2385.17</ele>
        <time>2019-07-12T07:02:28Z</time>
      </trkpt>
      <trkpt lat="42.7558698971" lon="20.1416688971">
        <ele>2382.76</ele>
        <time>2019-07-12T07:02:46Z</time>
      </trkpt>
      <trkpt lat="42.7558323462" lon="20.1417433284">
        <ele>2382.28</ele>
        <time>2019-07-12T07:02:54Z</time>
      </trkpt>
      <trkpt lat="42.7557452582" lon="20.1418322604">
        <ele>2381.32</ele>
        <time>2019-07-12T07:03:08Z</time>
      </trkpt>
      <trkpt lat="42.7557300031" lon="20.1419375371">
        <ele>2380.36</ele>
        <time>2019-07-12T07:03:20Z</time>
      </trkpt>
      <trkpt lat="42.7556847408" lon="20.1420294866">
        <ele>2377.00</ele>
        <time>2019-07-12T07:03:30Z</time>
      </trkpt>
      <trkpt lat="42.7556561586" lon="20.1421556342">
        <ele>2376.04</ele>
        <time>2019-07-12T07:03:38Z</time>
      </trkpt>
      <trkpt lat="42.7556112316" lon="20.1423290558">
        <ele>2373.63</ele>
        <time>2019-07-12T07:03:52Z</time>
      </trkpt>
      <trkpt lat="42.7555692382" lon="20.1424419601">
        <ele>2370.27</ele>
        <time>2019-07-12T07:04:03Z</time>
      </trkpt>
      <trkpt lat="42.7555178571" lon="20.1425018907">
        <ele>2367.38</ele>
        <time>2019-07-12T07:04:12Z</time>
      </trkpt>
      <trkpt lat="42.7554570884" lon="20.1426148787">
        <ele>2364.50</ele>
        <time>2019-07-12T07:04:25Z</time>
      </trkpt>
      <trkpt lat="42.7554012649" lon="20.1426555309">
        <ele>2360.65</ele>
        <time>2019-07-12T07:04:37Z</time>
      </trkpt>
      <trkpt lat="42.7553757839" lon="20.1426619850">
        <ele>2359.69</ele>
        <time>2019-07-12T07:04:41Z</time>
      </trkpt>
      <trkpt lat="42.7553703357" lon="20.1427499950">
        <ele>2358.25</ele>
        <time>2019-07-12T07:04:48Z</time>
      </trkpt>
      <trkpt lat="42.7553625405" lon="20.1427728776">
        <ele>2358.25</ele>
        <time>2019-07-12T07:04:50Z</time>
      </trkpt>
      <trkpt lat="42.7553552482" lon="20.1427962631">
        <ele>2358.25</ele>
        <time>2019-07-12T07:04:52Z</time>
      </trkpt>
      <trkpt lat="42.7553332876" lon="20.1429525856">
        <ele>2356.81</ele>
        <time>2019-07-12T07:05:03Z</time>
      </trkpt>
      <trkpt lat="42.7552892826" lon="20.1430706028">
        <ele>2352.96</ele>
        <time>2019-07-12T07:05:15Z</time>
      </trkpt>
      <trkpt lat="42.7552528214" lon="20.1431893744">
        <ele>2350.56</ele>
        <time>2019-07-12T07:05:27Z</time>
      </trkpt>
      <trkpt lat="42.7551912144" lon="20.1432907116">
        <ele>2348.16</ele>
        <time>2019-07-12T07:05:39Z</time>
      </trkpt>
      <trkpt lat="42.7551835030" lon="20.1432977524">
        <ele>2347.68</ele>
        <time>2019-07-12T07:05:40Z</time>
      </trkpt>
      <trkpt lat="42.7551640570" lon="20.1434602775">
        <ele>2349.12</ele>
        <time>2019-07-12T07:05:50Z</time>
      </trkpt>
      <trkpt lat="42.7551622968" lon="20.1435176935">
        <ele>2349.12</ele>
        <time>2019-07-12T07:05:53Z</time>
      </trkpt>
      <trkpt lat="42.7551515680" lon="20.1436688192">
        <ele>2349.12</ele>
        <time>2019-07-12T07:06:04Z</time>
      </trkpt>
      <trkpt lat="42.7551152743" lon="20.1438210346">
        <ele>2347.20</ele>
        <time>2019-07-12T07:06:14Z</time>
      </trkpt>
      <trkpt lat="42.7550457045" lon="20.1440536324">
        <ele>2345.27</ele>
        <time>2019-07-12T07:06:29Z</time>
      </trkpt>
      <trkpt lat="42.7550410945" lon="20.1440689713">
        <ele>2345.27</ele>
        <time>2019-07-12T07:06:30Z</time>
      </trkpt>
      <trkpt lat="42.7550369874" lon="20.1440952066">
        <ele>2345.27</ele>
        <time>2019-07-12T07:06:32Z</time>
      </trkpt>
      <trkpt lat="42.7549442835" lon="20.1443076879">
        <ele>2344.79</ele>
        <time>2019-07-12T07:06:48Z</time>
      </trkpt>
      <trkpt lat="42.7549291123" lon="20.1443458255">
        <ele>2344.79</ele>
        <time>2019-07-12T07:06:51Z</time>
      </trkpt>
      <trkpt lat="42.7549027093" lon="20.1443999726">
        <ele>2344.31</ele>
        <time>2019-07-12T07:06:57Z</time>
      </trkpt>
      <trkpt lat="42.7549065650" lon="20.1444511861">
        <ele>2343.83</ele>
        <time>2019-07-12T07:07:01Z</time>
      </trkpt>
      <trkpt lat="42.7549423557" lon="20.1445346698">
        <ele>2343.83</ele>
        <time>2019-07-12T07:07:07Z</time>
      </trkpt>
      <trkpt lat="42.7549193893" lon="20.1446888968">
        <ele>2341.43</ele>
        <time>2019-07-12T07:07:21Z</time>
      </trkpt>
      <trkpt lat="42.7549126837" lon="20.1448605582">
        <ele>2339.51</ele>
        <time>2019-07-12T07:07:37Z</time>
      </trkpt>
      <trkpt lat="42.7548753843" lon="20.1448839437">
        <ele>2337.58</ele>
        <time>2019-07-12T07:07:45Z</time>
      </trkpt>
      <trkpt lat="42.7548447065" lon="20.1449316368">
        <ele>2337.10</ele>
        <time>2019-07-12T07:07:49Z</time>
      </trkpt>
      <trkpt lat="42.7548154537" lon="20.1449688524">
        <ele>2336.62</ele>
        <time>2019-07-12T07:07:53Z</time>
      </trkpt>
      <trkpt lat="42.7547806688" lon="20.1450162102">
        <ele>2335.66</ele>
        <time>2019-07-12T07:08:05Z</time>
      </trkpt>
      <trkpt lat="42.7547109313" lon="20.1451028790">
        <ele>2334.22</ele>
        <time>2019-07-12T07:08:17Z</time>
      </trkpt>
      <trkpt lat="42.7546654176" lon="20.1451539248">
        <ele>2333.26</ele>
        <time>2019-07-12T07:08:24Z</time>
      </trkpt>
      <trkpt lat="42.7546458039" lon="20.1451734547">
        <ele>2333.26</ele>
        <time>2019-07-12T07:08:27Z</time>
      </trkpt>
      <trkpt lat="42.7545733843" lon="20.1452207286">
        <ele>2330.85</ele>
        <time>2019-07-12T07:08:42Z</time>
      </trkpt>
      <trkpt lat="42.7545357496" lon="20.1452138554">
        <ele>2329.89</ele>
        <time>2019-07-12T07:08:49Z</time>
      </trkpt>
      <trkpt lat="42.7545028925" lon="20.1452482212">
        <ele>2329.41</ele>
        <time>2019-07-12T07:08:59Z</time>
      </trkpt>
      <trkpt lat="42.7544501703" lon="20.1452853531">
        <ele>2327.01</ele>
        <time>2019-07-12T07:09:10Z</time>
      </trkpt>
      <trkpt lat="42.7543809358" lon="20.1453396678">
        <ele>2324.12</ele>
        <time>2019-07-12T07:09:21Z</time>
      </trkpt>
      <trkpt lat="42.7543769125" lon="20.1453527436">
        <ele>2324.12</ele>
        <time>2019-07-12T07:09:22Z</time>
      </trkpt>
      <trkpt lat="42.7543227654" lon="20.1454820763">
        <ele>2323.16</ele>
        <time>2019-07-12T07:09:37Z</time>
      </trkpt>
      <trkpt lat="42.7542918362" lon="20.1455208845">
        <ele>2321.72</ele>
        <time>2019-07-12T07:09:46Z</time>
      </trkpt>
      <trkpt lat="42.7542416286" lon="20.1454885304">
        <ele>2318.36</ele>
        <time>2019-07-12T07:09:57Z</time>
      </trkpt>
      <trkpt lat="42.7542337496" lon="20.1454779692">
        <ele>2317.88</ele>
        <time>2019-07-12T07:09:59Z</time>
      </trkpt>
      <trkpt lat="42.7542031556" lon="20.1455106586">
        <ele>2315.47</ele>
        <time>2019-07-12T07:10:09Z</time>
      </trkpt>
      <trkpt lat="42.7541500982" lon="20.1456064638">
        <ele>2311.15</ele>
        <time>2019-07-12T07:10:21Z</time>
      </trkpt>
      <trkpt lat="42.7541278861" lon="20.1456611976">
        <ele>2308.74</ele>
        <time>2019-07-12T07:10:30Z</time>
      </trkpt>
      <trkpt lat="42.7540432289" lon="20.1457475312">
        <ele>2304.90</ele>
        <time>2019-07-12T07:10:41Z</time>
      </trkpt>
      <trkpt lat="42.7540279739" lon="20.1457606070">
        <ele>2304.42</ele>
        <time>2019-07-12T07:10:43Z</time>
      </trkpt>
      <trkpt lat="42.7540211845" lon="20.1457702462">
        <ele>2303.94</ele>
        <time>2019-07-12T07:10:44Z</time>
      </trkpt>
      <trkpt lat="42.7539646905" lon="20.1458214596">
        <ele>2301.53</ele>
        <time>2019-07-12T07:10:52Z</time>
      </trkpt>
      <trkpt lat="42.7539233677" lon="20.1458430011">
        <ele>2300.09</ele>
        <time>2019-07-12T07:10:57Z</time>
      </trkpt>
      <trkpt lat="42.7538543008" lon="20.1459159236">
        <ele>2297.21</ele>
        <time>2019-07-12T07:11:09Z</time>
      </trkpt>
      <trkpt lat="42.7537892573" lon="20.1459485292">
        <ele>2294.32</ele>
        <time>2019-07-12T07:11:18Z</time>
      </trkpt>
      <trkpt lat="42.7537045162" lon="20.1460114773">
        <ele>2291.44</ele>
        <time>2019-07-12T07:11:30Z</time>
      </trkpt>
      <trkpt lat="42.7536852378" lon="20.1460241340">
        <ele>2290.96</ele>
        <time>2019-07-12T07:11:33Z</time>
      </trkpt>
      <trkpt lat="42.7536437474" lon="20.1461150777">
        <ele>2290.00</ele>
        <time>2019-07-12T07:11:40Z</time>
      </trkpt>
      <trkpt lat="42.7536020894" lon="20.1461822167">
        <ele>2289.52</ele>
        <time>2019-07-12T07:11:45Z</time>
      </trkpt>
      <trkpt lat="42.7535711601" lon="20.1462330949">
        <ele>2289.04</ele>
        <time>2019-07-12T07:11:50Z</time>
      </trkpt>
      <trkpt lat="42.7534988243" lon="20.1463470049">
        <ele>2286.63</ele>
        <time>2019-07-12T07:12:00Z</time>
      </trkpt>
      <trkpt lat="42.7534611896" lon="20.1464662794">
        <ele>2285.19</ele>
        <time>2019-07-12T07:12:08Z</time>
      </trkpt>
      <trkpt lat="42.7533741016" lon="20.1465664431">
        <ele>2282.31</ele>
        <time>2019-07-12T07:12:19Z</time>
      </trkpt>
      <trkpt lat="42.7533124946" lon="20.1466053352">
        <ele>2279.90</ele>
        <time>2019-07-12T07:12:27Z</time>
      </trkpt>
      <trkpt lat="42.7532587666" lon="20.1466104481">
        <ele>2277.50</ele>
        <time>2019-07-12T07:12:33Z</time>
      </trkpt>
      <trkpt lat="42.7532055415" lon="20.1465465780">
        <ele>2274.62</ele>
        <time>2019-07-12T07:12:41Z</time>
      </trkpt>
      <trkpt lat="42.7531637158" lon="20.1465596538">
        <ele>2273.66</ele>
        <time>2019-07-12T07:12:45Z</time>
      </trkpt>
      <trkpt lat="42.7530892845" lon="20.1465942711">
        <ele>2271.25</ele>
        <time>2019-07-12T07:12:53Z</time>
      </trkpt>
      <trkpt lat="42.7530631330" lon="20.1465744898">
        <ele>2270.29</ele>
        <time>2019-07-12T07:12:56Z</time>
      </trkpt>
      <trkpt lat="42.7529584430" lon="20.1465420518">
        <ele>2266.93</ele>
        <time>2019-07-12T07:13:06Z</time>
      </trkpt>
      <trkpt lat="42.7529454511" lon="20.1465433091">
        <ele>2266.93</ele>
        <time>2019-07-12T07:13:07Z</time>
      </trkpt>
      <trkpt lat="42.7528794855" lon="20.1465951093">
        <ele>2265.00</ele>
        <time>2019-07-12T07:13:14Z</time>
      </trkpt>
      <trkpt lat="42.7528546751" lon="20.1466165669">
        <ele>2264.52</ele>
        <time>2019-07-12T07:13:17Z</time>
      </trkpt>
      <trkpt lat="42.7528091613" lon="20.1466476638">
        <ele>2262.60</ele>
        <time>2019-07-12T07:13:22Z</time>
      </trkpt>
      <trkpt lat="42.7527716104" lon="20.1467080973">
        <ele>2260.68</ele>
        <time>2019-07-12T07:13:29Z</time>
      </trkpt>
      <trkpt lat="42.7527365740" lon="20.1467195805">
        <ele>2258.75</ele>
        <time>2019-07-12T07:13:33Z</time>
      </trkpt>
      <trkpt lat="42.7527159546" lon="20.1468253601">
        <ele>2258.27</ele>
        <time>2019-07-12T07:13:40Z</time>
      </trkpt>
      <trkpt lat="42.7526588738" lon="20.1469720434">
        <ele>2255.39</ele>
        <time>2019-07-12T07:13:53Z</time>
      </trkpt>
      <trkpt lat="42.7525882982" lon="20.1471016277">
        <ele>2252.51</ele>
        <time>2019-07-12T07:14:04Z</time>
      </trkpt>
      <trkpt lat="42.7525065746" lon="20.1472295355">
        <ele>2249.14</ele>
        <time>2019-07-12T07:14:14Z</time>
      </trkpt>
      <trkpt lat="42.7524744719" lon="20.1472956687">
        <ele>2248.66</ele>
        <time>2019-07-12T07:14:18Z</time>
      </trkpt>
      <trkpt lat="42.7523685247" lon="20.1473404281">
        <ele>2245.30</ele>
        <time>2019-07-12T07:14:28Z</time>
      </trkpt>
      <trkpt lat="42.7523581311" lon="20.1473427750">
        <ele>2245.30</ele>
        <time>2019-07-12T07:14:29Z</time>
      </trkpt>
      <trkpt lat="42.7522791736" lon="20.1473660767">
        <ele>2242.41</ele>
        <time>2019-07-12T07:14:36Z</time>
      </trkpt>
      <trkpt lat="42.7521853801" lon="20.1473487262">
        <ele>2238.57</ele>
        <time>2019-07-12T07:14:48Z</time>
      </trkpt>
      <trkpt lat="42.7521764114" lon="20.1473477203">
        <ele>2238.57</ele>
        <time>2019-07-12T07:14:49Z</time>
      </trkpt>
      <trkpt lat="42.7520677820" lon="20.1473151986">
        <ele>2234.72</ele>
        <time>2019-07-12T07:14:59Z</time>
      </trkpt>
      <trkpt lat="42.7520442288" lon="20.1473198924">
        <ele>2234.24</ele>
        <time>2019-07-12T07:15:01Z</time>
      </trkpt>
      <trkpt lat="42.7519356832" lon="20.1472901367">
        <ele>2230.88</ele>
        <time>2019-07-12T07:15:12Z</time>
      </trkpt>
      <trkpt lat="42.7518610843" lon="20.1472695172">
        <ele>2227.51</ele>
        <time>2019-07-12T07:15:20Z</time>
      </trkpt>
      <trkpt lat="42.7517915983" lon="20.1472344808">
        <ele>2224.63</ele>
        <time>2019-07-12T07:15:29Z</time>
      </trkpt>
      <trkpt lat="42.7517832164" lon="20.1472304575">
        <ele>2224.15</ele>
        <time>2019-07-12T07:15:30Z</time>
      </trkpt>
      <trkpt lat="42.7517448273" lon="20.1472421084">
        <ele>2222.71</ele>
        <time>2019-07-12T07:15:34Z</time>
      </trkpt>
      <trkpt lat="42.7516691387" lon="20.1472958364">
        <ele>2218.86</ele>
        <time>2019-07-12T07:15:45Z</time>
      </trkpt>
      <trkpt lat="42.7516418975" lon="20.1472854428">
        <ele>2218.38</ele>
        <time>2019-07-12T07:15:48Z</time>
      </trkpt>
      <trkpt lat="42.7515750937" lon="20.1472185552">
        <ele>2214.05</ele>
        <time>2019-07-12T07:15:58Z</time>
      </trkpt>
      <trkpt lat="42.7515614312" lon="20.1471617259">
        <ele>2212.61</ele>
        <time>2019-07-12T07:16:04Z</time>
      </trkpt>
      <trkpt lat="42.7515113913" lon="20.1470856182">
        <ele>2209.73</ele>
        <time>2019-07-12T07:16:18Z</time>
      </trkpt>
      <trkpt lat="42.7514660452" lon="20.1470084209">
        <ele>2207.81</ele>
        <time>2019-07-12T07:16:28Z</time>
      </trkpt>
      <trkpt lat="42.7514423244" lon="20.1469563693">
        <ele>2204.92</ele>
        <time>2019-07-12T07:16:34Z</time>
      </trkpt>
      <trkpt lat="42.7514096349" lon="20.1468178164">
        <ele>2201.08</ele>
        <time>2019-07-12T07:16:48Z</time>
      </trkpt>
      <trkpt lat="42.7513823099" lon="20.1467744820">
        <ele>2199.63</ele>
        <time>2019-07-12T07:17:00Z</time>
      </trkpt>
      <trkpt lat="42.7513649594" lon="20.1467684470">
        <ele>2198.67</ele>
        <time>2019-07-12T07:17:03Z</time>
      </trkpt>
      <trkpt lat="42.7513285819" lon="20.1467453130">
        <ele>2195.79</ele>
        <time>2019-07-12T07:17:11Z</time>
      </trkpt>
      <trkpt lat="42.7513096388" lon="20.1467560418">
        <ele>2194.83</ele>
        <time>2019-07-12T07:17:13Z</time>
      </trkpt>
      <trkpt lat="42.7512738481" lon="20.1467821095">
        <ele>2193.87</ele>
        <time>2019-07-12T07:17:17Z</time>
      </trkpt>
      <trkpt lat="42.7512220480" lon="20.1467552036">
        <ele>2190.50</ele>
        <time>2019-07-12T07:17:24Z</time>
      </trkpt>
      <trkpt lat="42.7511435095" lon="20.1467385236">
        <ele>2187.14</ele>
        <time>2019-07-12T07:17:32Z</time>
      </trkpt>
      <trkpt lat="42.7511326969" lon="20.1467433013">
        <ele>2187.14</ele>
        <time>2019-07-12T07:17:33Z</time>
      </trkpt>
      <trkpt lat="42.7510728501" lon="20.1467235200">
        <ele>2183.77</ele>
        <time>2019-07-12T07:17:40Z</time>
      </trkpt>
      <trkpt lat="42.7510591038" lon="20.1467201672">
        <ele>2183.29</ele>
        <time>2019-07-12T07:17:42Z</time>
      </trkpt>
      <trkpt lat="42.7510545775" lon="20.1467186585">
        <ele>2183.29</ele>
        <time>2019-07-12T07:17:43Z</time>
      </trkpt>
      <trkpt lat="42.7509861812" lon="20.1467030682">
        <ele>2179.93</ele>
        <time>2019-07-12T07:17:49Z</time>
      </trkpt>
      <trkpt lat="42.7509485465" lon="20.1466997154">
        <ele>2178.00</ele>
        <time>2019-07-12T07:17:53Z</time>
      </trkpt>
      <trkpt lat="42.7508780546" lon="20.1466522738">
        <ele>2174.64</ele>
        <time>2019-07-12T07:18:01Z</time>
      </trkpt>
      <trkpt lat="42.7507977560" lon="20.1466650981">
        <ele>2171.27</ele>
        <time>2019-07-12T07:18:12Z</time>
      </trkpt>
      <trkpt lat="42.7507114224" lon="20.1466438081">
        <ele>2167.91</ele>
        <time>2019-07-12T07:18:24Z</time>
      </trkpt>
      <trkpt lat="42.7506996039" lon="20.1466341689">
        <ele>2167.43</ele>
        <time>2019-07-12T07:18:27Z</time>
      </trkpt>
      <trkpt lat="42.7506478876" lon="20.1466132142">
        <ele>2165.99</ele>
        <time>2019-07-12T07:18:32Z</time>
      </trkpt>
      <trkpt lat="42.7505311277" lon="20.1465892419">
        <ele>2162.62</ele>
        <time>2019-07-12T07:18:42Z</time>
      </trkpt>
      <trkpt lat="42.7504468057" lon="20.1466024015">
        <ele>2161.18</ele>
        <time>2019-07-12T07:18:51Z</time>
      </trkpt>
      <trkpt lat="42.7503758948" lon="20.1465912536">
        <ele>2158.30</ele>
        <time>2019-07-12T07:19:00Z</time>
      </trkpt>
      <trkpt lat="42.7502637450" lon="20.1465749927">
        <ele>2154.93</ele>
        <time>2019-07-12T07:19:11Z</time>
      </trkpt>
      <trkpt lat="42.7502018865" lon="20.1465715561">
        <ele>2151.57</ele>
        <time>2019-07-12T07:19:23Z</time>
      </trkpt>
      <trkpt lat="42.7501977794" lon="20.1465681195">
        <ele>2151.57</ele>
        <time>2019-07-12T07:19:24Z</time>
      </trkpt>
      <trkpt lat="42.7500828635" lon="20.1466221828">
        <ele>2149.16</ele>
        <time>2019-07-12T07:19:35Z</time>
      </trkpt>
      <trkpt lat="42.7500366792" lon="20.1466280501">
        <ele>2147.72</ele>
        <time>2019-07-12T07:19:47Z</time>
      </trkpt>
      <trkpt lat="42.7499705460" lon="20.1466494240">
        <ele>2145.80</ele>
        <time>2019-07-12T07:19:58Z</time>
      </trkpt>
      <trkpt lat="42.7498610783" lon="20.1465945225">
        <ele>2141.95</ele>
        <time>2019-07-12T07:20:08Z</time>
      </trkpt>
      <trkpt lat="42.7497569751" lon="20.1465909183">
        <ele>2139.07</ele>
        <time>2019-07-12T07:20:19Z</time>
      </trkpt>
      <trkpt lat="42.7497169096" lon="20.1465644315">
        <ele>2137.15</ele>
        <time>2019-07-12T07:20:25Z</time>
      </trkpt>
      <trkpt lat="42.7496932726" lon="20.1465003937">
        <ele>2134.74</ele>
        <time>2019-07-12T07:20:38Z</time>
      </trkpt>
      <trkpt lat="42.7497092821" lon="20.1464244537">
        <ele>2133.30</ele>
        <time>2019-07-12T07:20:57Z</time>
      </trkpt>
      <trkpt lat="42.7497310750" lon="20.1463817060">
        <ele>2132.82</ele>
        <time>2019-07-12T07:21:02Z</time>
      </trkpt>
      <trkpt lat="42.7497981302" lon="20.1462577377">
        <ele>2130.42</ele>
        <time>2019-07-12T07:21:14Z</time>
      </trkpt>
      <trkpt lat="42.7498209290" lon="20.1461464260">
        <ele>2127.53</ele>
        <time>2019-07-12T07:21:23Z</time>
      </trkpt>
      <trkpt lat="42.7498599049" lon="20.1460524648">
        <ele>2125.61</ele>
        <time>2019-07-12T07:21:31Z</time>
      </trkpt>
      <trkpt lat="42.7498906665" lon="20.1459649578">
        <ele>2123.69</ele>
        <time>2019-07-12T07:21:40Z</time>
      </trkpt>
      <trkpt lat="42.7499283012" lon="20.1458587591">
        <ele>2120.81</ele>
        <time>2019-07-12T07:21:56Z</time>
      </trkpt>
      <trkpt lat="42.7499448974" lon="20.1457207929">
        <ele>2117.44</ele>
        <time>2019-07-12T07:22:08Z</time>
      </trkpt>
      <trkpt lat="42.7499472443" lon="20.1457007602">
        <ele>2116.96</ele>
        <time>2019-07-12T07:22:09Z</time>
      </trkpt>
      <trkpt lat="42.7499246970" lon="20.1455975790">
        <ele>2113.12</ele>
        <time>2019-07-12T07:22:19Z</time>
      </trkpt>
      <trkpt lat="42.7499106154" lon="20.1455555856">
        <ele>2110.23</ele>
        <time>2019-07-12T07:22:27Z</time>
      </trkpt>
      <trkpt lat="42.7499103639" lon="20.1455219742">
        <ele>2108.31</ele>
        <time>2019-07-12T07:22:31Z</time>
      </trkpt>
      <trkpt lat="42.7499044966" lon="20.1454379875">
        <ele>2106.87</ele>
        <time>2019-07-12T07:22:35Z</time>
      </trkpt>
      <trkpt lat="42.7498921752" lon="20.1454032864">
        <ele>2105.91</ele>
        <time>2019-07-12T07:22:37Z</time>
      </trkpt>
      <trkpt lat="42.7499116212" lon="20.1452782284">
        <ele>2102.54</ele>
        <time>2019-07-12T07:22:46Z</time>
      </trkpt>
      <trkpt lat="42.7498973720" lon="20.1452165376">
        <ele>2100.14</ele>
        <time>2019-07-12T07:22:53Z</time>
      </trkpt>
      <trkpt lat="42.7498910017" lon="20.1451964211">
        <ele>2099.18</ele>
        <time>2019-07-12T07:22:58Z</time>
      </trkpt>
      <trkpt lat="42.7498644311" lon="20.1450913958">
        <ele>2095.81</ele>
        <time>2019-07-12T07:23:07Z</time>
      </trkpt>
      <trkpt lat="42.7498584799" lon="20.1450489834">
        <ele>2094.37</ele>
        <time>2019-07-12T07:23:12Z</time>
      </trkpt>
      <trkpt lat="42.7498073503" lon="20.1449919865">
        <ele>2091.00</ele>
        <time>2019-07-12T07:23:25Z</time>
      </trkpt>
      <trkpt lat="42.7497904189" lon="20.1449234225">
        <ele>2088.12</ele>
        <time>2019-07-12T07:23:39Z</time>
      </trkpt>
      <trkpt lat="42.7497518621" lon="20.1448523439">
        <ele>2084.76</ele>
        <time>2019-07-12T07:23:49Z</time>
      </trkpt>
      <trkpt lat="42.7497359365" lon="20.1447966043">
        <ele>2082.83</ele>
        <time>2019-07-12T07:23:55Z</time>
      </trkpt>
      <trkpt lat="42.7497041691" lon="20.1447299682">
        <ele>2079.95</ele>
        <time>2019-07-12T07:24:02Z</time>
      </trkpt>
      <trkpt lat="42.7497052588" lon="20.1447018888">
        <ele>2078.99</ele>
        <time>2019-07-12T07:24:04Z</time>
      </trkpt>
      <trkpt lat="42.7496678755" lon="20.1446116157">
        <ele>2075.62</ele>
        <time>2019-07-12T07:24:15Z</time>
      </trkpt>
      <trkpt lat="42.7496815380" lon="20.1444936823">
        <ele>2071.78</ele>
        <time>2019-07-12T07:24:28Z</time>
      </trkpt>
      <trkpt lat="42.7496954519" lon="20.1443866454">
        <ele>2068.41</ele>
        <time>2019-07-12T07:24:37Z</time>
      </trkpt>
      <trkpt lat="42.7496901713" lon="20.1443454064">
        <ele>2067.93</ele>
        <time>2019-07-12T07:24:40Z</time>
      </trkpt>
      <trkpt lat="42.7496547159" lon="20.1442482602">
        <ele>2063.61</ele>
        <time>2019-07-12T07:24:50Z</time>
      </trkpt>
      <trkpt lat="42.7496462502" lon="20.1442463323">
        <ele>2063.61</ele>
        <time>2019-07-12T07:24:51Z</time>
      </trkpt>
      <trkpt lat="42.7495361120" lon="20.1442398783">
        <ele>2059.76</ele>
        <time>2019-07-12T07:25:04Z</time>
      </trkpt>
      <trkpt lat="42.7494127303" lon="20.1442499366">
        <ele>2056.88</ele>
        <time>2019-07-12T07:25:17Z</time>
      </trkpt>
      <trkpt lat="42.7493952122" lon="20.1442435663">
        <ele>2056.40</ele>
        <time>2019-07-12T07:25:33Z</time>
      </trkpt>
      <trkpt lat="42.7493206970" lon="20.1442040876">
        <ele>2052.55</ele>
        <time>2019-07-12T07:25:43Z</time>
      </trkpt>
      <trkpt lat="42.7492818050" lon="20.1442088652">
        <ele>2051.59</ele>
        <time>2019-07-12T07:25:55Z</time>
      </trkpt>
      <trkpt lat="42.7492232993" lon="20.1442199294">
        <ele>2049.19</ele>
        <time>2019-07-12T07:26:03Z</time>
      </trkpt>
      <trkpt lat="42.7491861675" lon="20.1442045067">
        <ele>2048.23</ele>
        <time>2019-07-12T07:26:06Z</time>
      </trkpt>
      <trkpt lat="42.7491836529" lon="20.1442140620">
        <ele>2046.78</ele>
        <time>2019-07-12T07:26:12Z</time>
      </trkpt>
      <trkpt lat="42.7491449285" lon="20.1441589929">
        <ele>2044.86</ele>
        <time>2019-07-12T07:26:18Z</time>
      </trkpt>
      <trkpt lat="42.7491219621" lon="20.1441372838">
        <ele>2043.90</ele>
        <time>2019-07-12T07:26:21Z</time>
      </trkpt>
      <trkpt lat="42.7490383945" lon="20.1440881658">
        <ele>2040.54</ele>
        <time>2019-07-12T07:26:29Z</time>
      </trkpt>
      <trkpt lat="42.7490283363" lon="20.1440122258">
        <ele>2038.13</ele>
        <time>2019-07-12T07:26:34Z</time>
      </trkpt>
      <trkpt lat="42.7490371373" lon="20.1439120620">
        <ele>2034.29</ele>
        <time>2019-07-12T07:26:41Z</time>
      </trkpt>
      <trkpt lat="42.7490382269" lon="20.1438763551">
        <ele>2033.33</ele>
        <time>2019-07-12T07:26:43Z</time>
      </trkpt>
      <trkpt lat="42.7490197029" lon="20.1438019238">
        <ele>2030.44</ele>
        <time>2019-07-12T07:26:49Z</time>
      </trkpt>
      <trkpt lat="42.7490144223" lon="20.1437782869">
        <ele>2029.00</ele>
        <time>2019-07-12T07:26:51Z</time>
      </trkpt>
      <trkpt lat="42.7490474470" lon="20.1436696574">
        <ele>2025.64</ele>
        <time>2019-07-12T07:26:59Z</time>
      </trkpt>
      <trkpt lat="42.7490497101" lon="20.1436362136">
        <ele>2024.67</ele>
        <time>2019-07-12T07:27:02Z</time>
      </trkpt>
      <trkpt lat="42.7490471955" lon="20.1435651351">
        <ele>2021.79</ele>
        <time>2019-07-12T07:27:07Z</time>
      </trkpt>
      <trkpt lat="42.7489592694" lon="20.1435285900">
        <ele>2017.94</ele>
        <time>2019-07-12T07:27:17Z</time>
      </trkpt>
      <trkpt lat="42.7488733549" lon="20.1435054559">
        <ele>2014.10</ele>
        <time>2019-07-12T07:27:26Z</time>
      </trkpt>
      <trkpt lat="42.7487826627" lon="20.1434888598">
        <ele>2011.22</ele>
        <time>2019-07-12T07:27:40Z</time>
      </trkpt>
      <trkpt lat="42.7487599477" lon="20.1434283424">
        <ele>2008.81</ele>
        <time>2019-07-12T07:27:57Z</time>
      </trkpt>
      <trkpt lat="42.7487601154" lon="20.1434176974">
        <ele>2008.33</ele>
        <time>2019-07-12T07:27:58Z</time>
      </trkpt>
      <trkpt lat="42.7487543318" lon="20.1432935614">
        <ele>2004.49</ele>
        <time>2019-07-12T07:28:05Z</time>
      </trkpt>
      <trkpt lat="42.7487426810" lon="20.1432318706">
        <ele>2003.04</ele>
        <time>2019-07-12T07:28:09Z</time>
      </trkpt>
      <trkpt lat="42.7487094887" lon="20.1431903802">
        <ele>2000.64</ele>
        <time>2019-07-12T07:28:13Z</time>
      </trkpt>
      <trkpt lat="42.7486947365" lon="20.1431215648">
        <ele>1998.72</ele>
        <time>2019-07-12T07:28:17Z</time>
      </trkpt>
      <trkpt lat="42.7486950718" lon="20.1431066450">
        <ele>1998.24</ele>
        <time>2019-07-12T07:28:18Z</time>
      </trkpt>
      <trkpt lat="42.7486649808" lon="20.1430118456">
        <ele>1995.35</ele>
        <time>2019-07-12T07:28:25Z</time>
      </trkpt>
      <trkpt lat="42.7486630529" lon="20.1429995243">
        <ele>1995.35</ele>
        <time>2019-07-12T07:28:26Z</time>
      </trkpt>
      <trkpt lat="42.7485640626" lon="20.1429487299">
        <ele>1991.51</ele>
        <time>2019-07-12T07:28:35Z</time>
      </trkpt>
      <trkpt lat="42.7484461293" lon="20.1428887993">
        <ele>1988.14</ele>
        <time>2019-07-12T07:28:44Z</time>
      </trkpt>
      <trkpt lat="42.7483864501" lon="20.1428603847">
        <ele>1986.22</ele>
        <time>2019-07-12T07:28:49Z</time>
      </trkpt>
      <trkpt lat="42.7483285312" lon="20.1428081654">
        <ele>1982.86</ele>
        <time>2019-07-12T07:28:57Z</time>
      </trkpt>
      <trkpt lat="42.7483188920" lon="20.1427975204">
        <ele>1982.86</ele>
        <time>2019-07-12T07:28:58Z</time>
      </trkpt>
      <trkpt lat="42.7482678462" lon="20.1427372545">
        <ele>1980.93</ele>
        <time>2019-07-12T07:29:09Z</time>
      </trkpt>
      <trkpt lat="42.7482492384" lon="20.1427264418">
        <ele>1980.45</ele>
        <time>2019-07-12T07:29:11Z</time>
      </trkpt>
      <trkpt lat="42.7481741365" lon="20.1426701993">
        <ele>1977.57</ele>
        <time>2019-07-12T07:29:27Z</time>
      </trkpt>
      <trkpt lat="42.7481427882" lon="20.1426312234">
        <ele>1975.65</ele>
        <time>2019-07-12T07:29:40Z</time>
      </trkpt>
      <trkpt lat="42.7481154632" lon="20.1426125318">
        <ele>1974.69</ele>
        <time>2019-07-12T07:29:42Z</time>
      </trkpt>
      <trkpt lat="42.7481013816" lon="20.1424726378">
        <ele>1971.32</ele>
        <time>2019-07-12T07:29:51Z</time>
      </trkpt>
      <trkpt lat="42.7480873838" lon="20.1424329076">
        <ele>1970.84</ele>
        <time>2019-07-12T07:29:57Z</time>
      </trkpt>
      <trkpt lat="42.7479983680" lon="20.1423621643">
        <ele>1967.96</ele>
        <time>2019-07-12T07:30:06Z</time>
      </trkpt>
      <trkpt lat="42.7479153872" lon="20.1422948577">
        <ele>1964.59</ele>
        <time>2019-07-12T07:30:14Z</time>
      </trkpt>
      <trkpt lat="42.7479105256" lon="20.1422836259">
        <ele>1963.63</ele>
        <time>2019-07-12T07:30:15Z</time>
      </trkpt>
      <trkpt lat="42.7478885651" lon="20.1422492601">
        <ele>1962.67</ele>
        <time>2019-07-12T07:30:18Z</time>
      </trkpt>
      <trkpt lat="42.7478495892" lon="20.1421138924">
        <ele>1958.82</ele>
        <time>2019-07-12T07:30:25Z</time>
      </trkpt>
      <trkpt lat="42.7478237730" lon="20.1420628466">
        <ele>1957.38</ele>
        <time>2019-07-12T07:30:30Z</time>
      </trkpt>
      <trkpt lat="42.7477746550" lon="20.1420200150">
        <ele>1955.46</ele>
        <time>2019-07-12T07:30:36Z</time>
      </trkpt>
      <trkpt lat="42.7477525268" lon="20.1419992279">
        <ele>1954.02</ele>
        <time>2019-07-12T07:30:41Z</time>
      </trkpt>
      <trkpt lat="42.7476963680" lon="20.1420187578">
        <ele>1953.06</ele>
        <time>2019-07-12T07:30:46Z</time>
      </trkpt>
      <trkpt lat="42.7476195060" lon="20.1420400478">
        <ele>1951.61</ele>
        <time>2019-07-12T07:30:52Z</time>
      </trkpt>
      <trkpt lat="42.7475631796" lon="20.1420325041">
        <ele>1950.17</ele>
        <time>2019-07-12T07:30:56Z</time>
      </trkpt>
      <trkpt lat="42.7474058513" lon="20.1420409698">
        <ele>1945.85</ele>
        <time>2019-07-12T07:31:08Z</time>
      </trkpt>
      <trkpt lat="42.7473586611" lon="20.1420726534">
        <ele>1945.85</ele>
        <time>2019-07-12T07:31:13Z</time>
      </trkpt>
      <trkpt lat="42.7473466750" lon="20.1421018224">
        <ele>1947.29</ele>
        <time>2019-07-12T07:31:16Z</time>
      </trkpt>
      <trkpt lat="42.7473409753" lon="20.1421076898">
        <ele>1947.77</ele>
        <time>2019-07-12T07:31:17Z</time>
      </trkpt>
      <trkpt lat="42.7472814638" lon="20.1421286445">
        <ele>1948.25</ele>
        <time>2019-07-12T07:31:23Z</time>
      </trkpt>
      <trkpt lat="42.7471445035" lon="20.1421665307">
        <ele>1948.25</ele>
        <time>2019-07-12T07:31:37Z</time>
      </trkpt>
      <trkpt lat="42.7470393945" lon="20.1422236953">
        <ele>1950.17</ele>
        <time>2019-07-12T07:31:49Z</time>
      </trkpt>
      <trkpt lat="42.7470181882" lon="20.1422435604">
        <ele>1950.17</ele>
        <time>2019-07-12T07:31:51Z</time>
      </trkpt>
      <trkpt lat="42.7468777075" lon="20.1422915887">
        <ele>1950.65</ele>
        <time>2019-07-12T07:32:04Z</time>
      </trkpt>
      <trkpt lat="42.7466954011" lon="20.1423339173">
        <ele>1951.13</ele>
        <time>2019-07-12T07:32:18Z</time>
      </trkpt>
      <trkpt lat="42.7466473728" lon="20.1423588954">
        <ele>1951.13</ele>
        <time>2019-07-12T07:32:24Z</time>
      </trkpt>
      <trkpt lat="42.7465965785" lon="20.1423944347">
        <ele>1951.61</ele>
        <time>2019-07-12T07:32:29Z</time>
      </trkpt>
      <trkpt lat="42.7464902122" lon="20.1423842087">
        <ele>1950.65</ele>
        <time>2019-07-12T07:32:42Z</time>
      </trkpt>
      <trkpt lat="42.7464779746" lon="20.1424029842">
        <ele>1950.65</ele>
        <time>2019-07-12T07:32:45Z</time>
      </trkpt>
      <trkpt lat="42.7464237437" lon="20.1424157247">
        <ele>1950.65</ele>
        <time>2019-07-12T07:32:50Z</time>
      </trkpt>
      <trkpt lat="42.7463976759" lon="20.1424176525">
        <ele>1950.65</ele>
        <time>2019-07-12T07:32:52Z</time>
      </trkpt>
      <trkpt lat="42.7463260107" lon="20.1424658485">
        <ele>1950.65</ele>
        <time>2019-07-12T07:33:01Z</time>
      </trkpt>
      <trkpt lat="42.7463027928" lon="20.1424746495">
        <ele>1950.17</ele>
        <time>2019-07-12T07:33:03Z</time>
      </trkpt>
      <trkpt lat="42.7461949177" lon="20.1424914133">
        <ele>1949.69</ele>
        <time>2019-07-12T07:33:11Z</time>
      </trkpt>
      <trkpt lat="42.7460675966" lon="20.1425243542">
        <ele>1948.73</ele>
        <time>2019-07-12T07:33:21Z</time>
      </trkpt>
      <trkpt lat="42.7460344881" lon="20.1425137930">
        <ele>1948.25</ele>
        <time>2019-07-12T07:33:23Z</time>
      </trkpt>
      <trkpt lat="42.7458509244" lon="20.1425476559">
        <ele>1945.85</ele>
        <time>2019-07-12T07:33:38Z</time>
      </trkpt>
      <trkpt lat="42.7458435483" lon="20.1425449736">
        <ele>1945.85</ele>
        <time>2019-07-12T07:33:39Z</time>
      </trkpt>
      <trkpt lat="42.7457827795" lon="20.1425500028">
        <ele>1944.40</ele>
        <time>2019-07-12T07:33:44Z</time>
      </trkpt>
      <trkpt lat="42.7457475755" lon="20.1425987855">
        <ele>1944.40</ele>
        <time>2019-07-12T07:33:49Z</time>
      </trkpt>
      <trkpt lat="42.7457289677" lon="20.1427268609">
        <ele>1945.36</ele>
        <time>2019-07-12T07:33:59Z</time>
      </trkpt>
      <trkpt lat="42.7457091026" lon="20.1428576186">
        <ele>1942.96</ele>
        <time>2019-07-12T07:34:11Z</time>
      </trkpt>
      <trkpt lat="42.7456514351" lon="20.1428717840">
        <ele>1939.60</ele>
        <time>2019-07-12T07:34:20Z</time>
      </trkpt>
      <trkpt lat="42.7456109505" lon="20.1428358257">
        <ele>1936.71</ele>
        <time>2019-07-12T07:34:30Z</time>
      </trkpt>
      <trkpt lat="42.7455707174" lon="20.1428409386">
        <ele>1935.27</ele>
        <time>2019-07-12T07:34:34Z</time>
      </trkpt>
      <trkpt lat="42.7454947773" lon="20.1429154538">
        <ele>1930.95</ele>
        <time>2019-07-12T07:34:45Z</time>
      </trkpt>
      <trkpt lat="42.7453773469" lon="20.1430450380">
        <ele>1928.06</ele>
        <time>2019-07-12T07:34:57Z</time>
      </trkpt>
      <trkpt lat="42.7453459986" lon="20.1430604607">
        <ele>1927.10</ele>
        <time>2019-07-12T07:35:01Z</time>
      </trkpt>
      <trkpt lat="42.7452610061" lon="20.1431063097">
        <ele>1924.22</ele>
        <time>2019-07-12T07:35:08Z</time>
      </trkpt>
      <trkpt lat="42.7451937832" lon="20.1431359816">
        <ele>1921.81</ele>
        <time>2019-07-12T07:35:15Z</time>
      </trkpt>
      <trkpt lat="42.7451144904" lon="20.1431917213">
        <ele>1919.41</ele>
        <time>2019-07-12T07:35:22Z</time>
      </trkpt>
      <trkpt lat="42.7450992353" lon="20.1432064734">
        <ele>1918.93</ele>
        <time>2019-07-12T07:35:24Z</time>
      </trkpt>
      <trkpt lat="42.7450856566" lon="20.1432465389">
        <ele>1917.97</ele>
        <time>2019-07-12T07:35:27Z</time>
      </trkpt>
      <trkpt lat="42.7450670488" lon="20.1433027815">
        <ele>1917.01</ele>
        <time>2019-07-12T07:35:31Z</time>
      </trkpt>
      <trkpt lat="42.7450062800" lon="20.1433661487">
        <ele>1915.08</ele>
        <time>2019-07-12T07:35:38Z</time>
      </trkpt>
      <trkpt lat="42.7448936272" lon="20.1434388198">
        <ele>1911.72</ele>
        <time>2019-07-12T07:35:47Z</time>
      </trkpt>
      <trkpt lat="42.7447918709" lon="20.1436018478">
        <ele>1908.35</ele>
        <time>2019-07-12T07:36:00Z</time>
      </trkpt>
      <trkpt lat="42.7447849140" lon="20.1436271612">
        <ele>1907.87</ele>
        <time>2019-07-12T07:36:02Z</time>
      </trkpt>
      <trkpt lat="42.7446819004" lon="20.1437772810">
        <ele>1904.03</ele>
        <time>2019-07-12T07:36:14Z</time>
      </trkpt>
      <trkpt lat="42.7446383145" lon="20.1438512933">
        <ele>1902.59</ele>
        <time>2019-07-12T07:36:20Z</time>
      </trkpt>
      <trkpt lat="42.7445663977" lon="20.1439346094">
        <ele>1899.22</ele>
        <time>2019-07-12T07:36:30Z</time>
      </trkpt>
      <trkpt lat="42.7445615362" lon="20.1439494453">
        <ele>1898.26</ele>
        <time>2019-07-12T07:36:32Z</time>
      </trkpt>
      <trkpt lat="42.7445477899" lon="20.1439577434">
        <ele>1897.30</ele>
        <time>2019-07-12T07:36:34Z</time>
      </trkpt>
      <trkpt lat="42.7445303556" lon="20.1439766027">
        <ele>1896.82</ele>
        <time>2019-07-12T07:36:36Z</time>
      </trkpt>
      <trkpt lat="42.7444516495" lon="20.1440424006">
        <ele>1892.97</ele>
        <time>2019-07-12T07:36:44Z</time>
      </trkpt>
      <trkpt lat="42.7444018610" lon="20.1440823823">
        <ele>1890.09</ele>
        <time>2019-07-12T07:36:56Z</time>
      </trkpt>
      <trkpt lat="42.7443292737" lon="20.1441921853">
        <ele>1886.72</ele>
        <time>2019-07-12T07:37:08Z</time>
      </trkpt>
      <trkpt lat="42.7442696784" lon="20.1442306582">
        <ele>1883.84</ele>
        <time>2019-07-12T07:37:17Z</time>
      </trkpt>
      <trkpt lat="42.7442051377" lon="20.1442772616">
        <ele>1880.00</ele>
        <time>2019-07-12T07:37:26Z</time>
      </trkpt>
      <trkpt lat="42.7441832609" lon="20.1443134714">
        <ele>1879.03</ele>
        <time>2019-07-12T07:37:30Z</time>
      </trkpt>
      <trkpt lat="42.7441571932" lon="20.1443258766">
        <ele>1877.59</ele>
        <time>2019-07-12T07:37:33Z</time>
      </trkpt>
      <trkpt lat="42.7441287786" lon="20.1443281397">
        <ele>1876.63</ele>
        <time>2019-07-12T07:37:36Z</time>
      </trkpt>
      <trkpt lat="42.7440958377" lon="20.1443530340">
        <ele>1875.19</ele>
        <time>2019-07-12T07:37:39Z</time>
      </trkpt>
      <trkpt lat="42.7440544311" lon="20.1444076840">
        <ele>1873.75</ele>
        <time>2019-07-12T07:37:44Z</time>
      </trkpt>
      <trkpt lat="42.7440322191" lon="20.1444158982">
        <ele>1872.79</ele>
        <time>2019-07-12T07:37:46Z</time>
      </trkpt>
      <trkpt lat="42.7440229990" lon="20.1444138028">
        <ele>1872.30</ele>
        <time>2019-07-12T07:37:47Z</time>
      </trkpt>
      <trkpt lat="42.7439924888" lon="20.1444542035">
        <ele>1871.34</ele>
        <time>2019-07-12T07:37:51Z</time>
      </trkpt>
      <trkpt lat="42.7439589612" lon="20.1445510145">
        <ele>1869.90</ele>
        <time>2019-07-12T07:37:58Z</time>
      </trkpt>
      <trkpt lat="42.7439038921" lon="20.1447479054">
        <ele>1867.98</ele>
        <time>2019-07-12T07:38:11Z</time>
      </trkpt>
      <trkpt lat="42.7439007070" lon="20.1447971910">
        <ele>1867.98</ele>
        <time>2019-07-12T07:38:16Z</time>
      </trkpt>
      <trkpt lat="42.7438774053" lon="20.1448209118">
        <ele>1866.54</ele>
        <time>2019-07-12T07:38:19Z</time>
      </trkpt>
      <trkpt lat="42.7438447997" lon="20.1449101791">
        <ele>1864.61</ele>
        <time>2019-07-12T07:38:26Z</time>
      </trkpt>
      <trkpt lat="42.7438271139" lon="20.1450208202">
        <ele>1863.17</ele>
        <time>2019-07-12T07:38:33Z</time>
      </trkpt>
      <trkpt lat="42.7437732182" lon="20.1452033781">
        <ele>1858.85</ele>
        <time>2019-07-12T07:38:44Z</time>
      </trkpt>
      <trkpt lat="42.7437365893" lon="20.1454205532">
        <ele>1856.92</ele>
        <time>2019-07-12T07:38:57Z</time>
      </trkpt>
      <trkpt lat="42.7437287942" lon="20.1454634685">
        <ele>1856.44</ele>
        <time>2019-07-12T07:38:59Z</time>
      </trkpt>
      <trkpt lat="42.7437307220" lon="20.1455677394">
        <ele>1855.48</ele>
        <time>2019-07-12T07:39:05Z</time>
      </trkpt>
      <trkpt lat="42.7437445521" lon="20.1457036100">
        <ele>1854.04</ele>
        <time>2019-07-12T07:39:13Z</time>
      </trkpt>
      <trkpt lat="42.7437233459" lon="20.1457499620">
        <ele>1852.60</ele>
        <time>2019-07-12T07:39:17Z</time>
      </trkpt>
      <trkpt lat="42.7437223401" lon="20.1458331104">
        <ele>1852.12</ele>
        <time>2019-07-12T07:39:22Z</time>
      </trkpt>
      <trkpt lat="42.7436745632" lon="20.1458799653">
        <ele>1850.19</ele>
        <time>2019-07-12T07:39:28Z</time>
      </trkpt>
      <trkpt lat="42.7436230145" lon="20.1458891854">
        <ele>1848.75</ele>
        <time>2019-07-12T07:39:33Z</time>
      </trkpt>
      <trkpt lat="42.7435597312" lon="20.1459264848">
        <ele>1845.87</ele>
        <time>2019-07-12T07:39:39Z</time>
      </trkpt>
      <trkpt lat="42.7434655186" lon="20.1459932886">
        <ele>1842.02</ele>
        <time>2019-07-12T07:39:48Z</time>
      </trkpt>
      <trkpt lat="42.7433672827" lon="20.1460315939">
        <ele>1839.14</ele>
        <time>2019-07-12T07:39:56Z</time>
      </trkpt>
      <trkpt lat="42.7432739083" lon="20.1461361162">
        <ele>1835.77</ele>
        <time>2019-07-12T07:40:06Z</time>
      </trkpt>
      <trkpt lat="42.7431992255" lon="20.1461695600">
        <ele>1833.37</ele>
        <time>2019-07-12T07:40:12Z</time>
      </trkpt>
      <trkpt lat="42.7430781908" lon="20.1461915206">
        <ele>1830.01</ele>
        <time>2019-07-12T07:40:21Z</time>
      </trkpt>
      <trkpt lat="42.7429564856" lon="20.1462417282">
        <ele>1826.64</ele>
        <time>2019-07-12T07:40:28Z</time>
      </trkpt>
      <trkpt lat="42.7428380493" lon="20.1463077776">
        <ele>1823.76</ele>
        <time>2019-07-12T07:40:38Z</time>
      </trkpt>
      <trkpt lat="42.7427467704" lon="20.1463765092">
        <ele>1819.91</ele>
        <time>2019-07-12T07:40:46Z</time>
      </trkpt>
      <trkpt lat="42.7426419128" lon="20.1464856416">
        <ele>1816.55</ele>
        <time>2019-07-12T07:40:56Z</time>
      </trkpt>
      <trkpt lat="42.7425043657" lon="20.1466559619">
        <ele>1812.70</ele>
        <time>2019-07-12T07:41:08Z</time>
      </trkpt>
      <trkpt lat="42.7423830796" lon="20.1467736438">
        <ele>1810.78</ele>
        <time>2019-07-12T07:41:20Z</time>
      </trkpt>
      <trkpt lat="42.7423977479" lon="20.1468116138">
        <ele>1809.82</ele>
        <time>2019-07-12T07:41:34Z</time>
      </trkpt>
      <trkpt lat="42.7423655614" lon="20.1468119491">
        <ele>1809.34</ele>
        <time>2019-07-12T07:42:15Z</time>
      </trkpt>
      <trkpt lat="42.7423588559" lon="20.1467989571">
        <ele>1809.34</ele>
        <time>2019-07-12T07:42:54Z</time>
      </trkpt>
      <trkpt lat="42.7423660643" lon="20.1467992924">
        <ele>1808.86</ele>
        <time>2019-07-12T07:43:35Z</time>
      </trkpt>
      <trkpt lat="42.7423779666" lon="20.1468028128">
        <ele>1808.86</ele>
        <time>2019-07-12T07:44:17Z</time>
      </trkpt>
      <trkpt lat="42.7423793077" lon="20.1467925031">
        <ele>1808.38</ele>
        <time>2019-07-12T07:44:59Z</time>
      </trkpt>
      <trkpt lat="42.7423686627" lon="20.1467802655">
        <ele>1808.38</ele>
        <time>2019-07-12T07:45:42Z</time>
      </trkpt>
      <trkpt lat="42.7423689980" lon="20.1467862166">
        <ele>1808.38</ele>
        <time>2019-07-12T07:46:23Z</time>
      </trkpt>
      <trkpt lat="42.7423818223" lon="20.1467931736">
        <ele>1809.34</ele>
        <time>2019-07-12T07:46:56Z</time>
      </trkpt>
      <trkpt lat="42.7423699200" lon="20.1467891503">
        <ele>1809.34</ele>
        <time>2019-07-12T07:47:29Z</time>
      </trkpt>
      <trkpt lat="42.7423772123" lon="20.1468204986">
        <ele>1809.34</ele>
        <time>2019-07-12T07:48:08Z</time>
      </trkpt>
      <trkpt lat="42.7423790563" lon="20.1468137931">
        <ele>1809.82</ele>
        <time>2019-07-12T07:48:55Z</time>
      </trkpt>
      <trkpt lat="42.7423761226" lon="20.1468127873">
        <ele>1809.82</ele>
        <time>2019-07-12T07:49:42Z</time>
      </trkpt>
      <trkpt lat="42.7423765417" lon="20.1468181517">
        <ele>1809.34</ele>
        <time>2019-07-12T07:50:24Z</time>
      </trkpt>
      <trkpt lat="42.7423599456" lon="20.1468244381">
        <ele>1810.78</ele>
        <time>2019-07-12T07:50:40Z</time>
      </trkpt>
      <trkpt lat="42.7423596941" lon="20.1468396932">
        <ele>1809.34</ele>
        <time>2019-07-12T07:51:09Z</time>
      </trkpt>
      <trkpt lat="42.7423638850" lon="20.1468391903">
        <ele>1809.34</ele>
        <time>2019-07-12T07:51:55Z</time>
      </trkpt>
      <trkpt lat="42.7423606999" lon="20.1468386035">
        <ele>1809.34</ele>
        <time>2019-07-12T07:52:33Z</time>
      </trkpt>
      <trkpt lat="42.7423623763" lon="20.1468420401">
        <ele>1808.86</ele>
        <time>2019-07-12T07:53:18Z</time>
      </trkpt>
      <trkpt lat="42.7423648071" lon="20.1468276232">
        <ele>1808.86</ele>
        <time>2019-07-12T07:54:00Z</time>
      </trkpt>
      <trkpt lat="42.7423676569" lon="20.1468292996">
        <ele>1808.86</ele>
        <time>2019-07-12T07:54:13Z</time>
      </trkpt>
      <trkpt lat="42.7423657291" lon="20.1468288805">
        <ele>1810.78</ele>
        <time>2019-07-12T07:54:28Z</time>
      </trkpt>
      <trkpt lat="42.7423658967" lon="20.1468169782">
        <ele>1809.34</ele>
        <time>2019-07-12T07:54:40Z</time>
      </trkpt>
      <trkpt lat="42.7423440199" lon="20.1468211692">
        <ele>1809.34</ele>
        <time>2019-07-12T07:54:52Z</time>
      </trkpt>
      <trkpt lat="42.7423513960" lon="20.1468123682">
        <ele>1808.86</ele>
        <time>2019-07-12T07:55:12Z</time>
      </trkpt>
      <trkpt lat="42.7423671540" lon="20.1468016393">
        <ele>1808.38</ele>
        <time>2019-07-12T07:55:48Z</time>
      </trkpt>
      <trkpt lat="42.7423609514" lon="20.1467980351">
        <ele>1808.38</ele>
        <time>2019-07-12T07:56:02Z</time>
      </trkpt>
      <trkpt lat="42.7423404995" lon="20.1467966940">
        <ele>1807.90</ele>
        <time>2019-07-12T07:56:44Z</time>
      </trkpt>
      <trkpt lat="42.7423481271" lon="20.1467878092">
        <ele>1807.90</ele>
        <time>2019-07-12T07:57:28Z</time>
      </trkpt>
      <trkpt lat="42.7423513960" lon="20.1467853785">
        <ele>1807.90</ele>
        <time>2019-07-12T07:58:12Z</time>
      </trkpt>
      <trkpt lat="42.7423555031" lon="20.1467872225">
        <ele>1807.90</ele>
        <time>2019-07-12T07:58:43Z</time>
      </trkpt>
      <trkpt lat="42.7423562575" lon="20.1467669383">
        <ele>1807.42</ele>
        <time>2019-07-12T07:59:27Z</time>
      </trkpt>
      <trkpt lat="42.7423446905" lon="20.1467905752">
        <ele>1806.94</ele>
        <time>2019-07-12T08:00:11Z</time>
      </trkpt>
      <trkpt lat="42.7423457801" lon="20.1467948500">
        <ele>1806.94</ele>
        <time>2019-07-12T08:00:48Z</time>
      </trkpt>
      <trkpt lat="42.7423565928" lon="20.1467782538">
        <ele>1806.94</ele>
        <time>2019-07-12T08:01:31Z</time>
      </trkpt>
      <trkpt lat="42.7423515636" lon="20.1467837021">
        <ele>1806.94</ele>
        <time>2019-07-12T08:02:13Z</time>
      </trkpt>
      <trkpt lat="42.7423470374" lon="20.1467890665">
        <ele>1806.94</ele>
        <time>2019-07-12T08:02:50Z</time>
      </trkpt>
      <trkpt lat="42.7423369791" lon="20.1468260307">
        <ele>1806.45</ele>
        <time>2019-07-12T08:03:30Z</time>
      </trkpt>
      <trkpt lat="42.7423467860" lon="20.1467734762">
        <ele>1806.45</ele>
        <time>2019-07-12T08:04:09Z</time>
      </trkpt>
      <trkpt lat="42.7423394099" lon="20.1468132064">
        <ele>1805.97</ele>
        <time>2019-07-12T08:04:37Z</time>
      </trkpt>
      <trkpt lat="42.7423310280" lon="20.1468273718">
        <ele>1805.97</ele>
        <time>2019-07-12T08:05:02Z</time>
      </trkpt>
      <trkpt lat="42.7423518989" lon="20.1468338259">
        <ele>1807.90</ele>
        <time>2019-07-12T08:05:21Z</time>
      </trkpt>
      <trkpt lat="42.7423529048" lon="20.1468266174">
        <ele>1807.42</ele>
        <time>2019-07-12T08:05:41Z</time>
      </trkpt>
      <trkpt lat="42.7423868515" lon="20.1467795111">
        <ele>1807.42</ele>
        <time>2019-07-12T08:05:50Z</time>
      </trkpt>
      <trkpt lat="42.7424673177" lon="20.1467163954">
        <ele>1808.38</ele>
        <time>2019-07-12T08:05:59Z</time>
      </trkpt>
      <trkpt lat="42.7424850874" lon="20.1467019785">
        <ele>1809.34</ele>
        <time>2019-07-12T08:06:01Z</time>
      </trkpt>
      <trkpt lat="42.7425002586" lon="20.1466916688">
        <ele>1809.34</ele>
        <time>2019-07-12T08:06:03Z</time>
      </trkpt>
      <trkpt lat="42.7425761148" lon="20.1466080174">
        <ele>1810.78</ele>
        <time>2019-07-12T08:06:15Z</time>
      </trkpt>
      <trkpt lat="42.7426006738" lon="20.1465822011">
        <ele>1811.74</ele>
        <time>2019-07-12T08:06:29Z</time>
      </trkpt>
      <trkpt lat="42.7426206227" lon="20.1465659402">
        <ele>1811.74</ele>
        <time>2019-07-12T08:06:32Z</time>
      </trkpt>
      <trkpt lat="42.7427102253" lon="20.1464887429">
        <ele>1814.15</ele>
        <time>2019-07-12T08:06:44Z</time>
      </trkpt>
      <trkpt lat="42.7427546494" lon="20.1464386191">
        <ele>1815.59</ele>
        <time>2019-07-12T08:06:53Z</time>
      </trkpt>
      <trkpt lat="42.7428383846" lon="20.1463815384">
        <ele>1817.99</ele>
        <time>2019-07-12T08:07:05Z</time>
      </trkpt>
      <trkpt lat="42.7428411506" lon="20.1463774312">
        <ele>1818.47</ele>
        <time>2019-07-12T08:07:06Z</time>
      </trkpt>
      <trkpt lat="42.7429175936" lon="20.1463304926">
        <ele>1821.35</ele>
        <time>2019-07-12T08:07:19Z</time>
      </trkpt>
      <trkpt lat="42.7430001553" lon="20.1463413890">
        <ele>1823.28</ele>
        <time>2019-07-12T08:07:33Z</time>
      </trkpt>
      <trkpt lat="42.7430203557" lon="20.1463674568">
        <ele>1824.24</ele>
        <time>2019-07-12T08:07:48Z</time>
      </trkpt>
      <trkpt lat="42.7430136502" lon="20.1463658642">
        <ele>1824.24</ele>
        <time>2019-07-12T08:07:58Z</time>
      </trkpt>
      <trkpt lat="42.7430225350" lon="20.1463537943">
        <ele>1824.24</ele>
        <time>2019-07-12T08:08:24Z</time>
      </trkpt>
      <trkpt lat="42.7430299949" lon="20.1463615056">
        <ele>1824.24</ele>
        <time>2019-07-12T08:08:49Z</time>
      </trkpt>
      <trkpt lat="42.7430408075" lon="20.1463566441">
        <ele>1824.24</ele>
        <time>2019-07-12T08:09:10Z</time>
      </trkpt>
      <trkpt lat="42.7430567332" lon="20.1463411376">
        <ele>1824.24</ele>
        <time>2019-07-12T08:09:37Z</time>
      </trkpt>
      <trkpt lat="42.7430734970" lon="20.1463359408">
        <ele>1824.24</ele>
        <time>2019-07-12T08:10:02Z</time>
      </trkpt>
      <trkpt lat="42.7430413105" lon="20.1463274751">
        <ele>1824.24</ele>
        <time>2019-07-12T08:10:32Z</time>
      </trkpt>
      <trkpt lat="42.7430234570" lon="20.1463218592">
        <ele>1824.24</ele>
        <time>2019-07-12T08:10:59Z</time>
      </trkpt>
      <trkpt lat="42.7430216968" lon="20.1463109627">
        <ele>1824.24</ele>
        <time>2019-07-12T08:11:18Z</time>
      </trkpt>
      <trkpt lat="42.7430192661" lon="20.1462905109">
        <ele>1824.24</ele>
        <time>2019-07-12T08:11:44Z</time>
      </trkpt>
      <trkpt lat="42.7430117223" lon="20.1462999824">
        <ele>1824.24</ele>
        <time>2019-07-12T08:12:04Z</time>
      </trkpt>
      <trkpt lat="42.7430187631" lon="20.1462638564">
        <ele>1824.24</ele>
        <time>2019-07-12T08:12:18Z</time>
      </trkpt>
      <trkpt lat="42.7429847326" lon="20.1462242100">
        <ele>1824.24</ele>
        <time>2019-07-12T08:12:24Z</time>
      </trkpt>
      <trkpt lat="42.7429494448" lon="20.1461772714">
        <ele>1824.24</ele>
        <time>2019-07-12T08:12:28Z</time>
      </trkpt>
      <trkpt lat="42.7428605128" lon="20.1460548118">
        <ele>1822.80</ele>
        <time>2019-07-12T08:12:38Z</time>
      </trkpt>
      <trkpt lat="42.7427440882" lon="20.1458272431">
        <ele>1820.39</ele>
        <time>2019-07-12T08:12:54Z</time>
      </trkpt>
      <trkpt lat="42.7426618617" lon="20.1455436833">
        <ele>1818.95</ele>
        <time>2019-07-12T08:13:11Z</time>
      </trkpt>
      <trkpt lat="42.7425637096" lon="20.1452637278">
        <ele>1817.03</ele>
        <time>2019-07-12T08:13:28Z</time>
      </trkpt>
      <trkpt lat="42.7425189503" lon="20.1450986043">
        <ele>1816.55</ele>
        <time>2019-07-12T08:13:38Z</time>
      </trkpt>
      <trkpt lat="42.7422504779" lon="20.1445075963">
        <ele>1808.86</ele>
        <time>2019-07-12T08:14:14Z</time>
      </trkpt>
      <trkpt lat="42.7421778068" lon="20.1442770101">
        <ele>1805.97</ele>
        <time>2019-07-12T08:14:27Z</time>
      </trkpt>
      <trkpt lat="42.7421597857" lon="20.1440325938">
        <ele>1803.09</ele>
        <time>2019-07-12T08:14:40Z</time>
      </trkpt>
      <trkpt lat="42.7421577740" lon="20.1439763512">
        <ele>1803.09</ele>
        <time>2019-07-12T08:14:43Z</time>
      </trkpt>
      <trkpt lat="42.7421438601" lon="20.1438792050">
        <ele>1801.17</ele>
        <time>2019-07-12T08:14:48Z</time>
      </trkpt>
      <trkpt lat="42.7421436086" lon="20.1437807176">
        <ele>1800.69</ele>
        <time>2019-07-12T08:14:52Z</time>
      </trkpt>
      <trkpt lat="42.7421655692" lon="20.1434663124">
        <ele>1797.32</ele>
        <time>2019-07-12T08:15:07Z</time>
      </trkpt>
      <trkpt lat="42.7421970014" lon="20.1431359816">
        <ele>1795.88</ele>
        <time>2019-07-12T08:15:23Z</time>
      </trkpt>
      <trkpt lat="42.7422643080" lon="20.1428878773">
        <ele>1793.96</ele>
        <time>2019-07-12T08:15:37Z</time>
      </trkpt>
      <trkpt lat="42.7423383202" lon="20.1425812673">
        <ele>1791.55</ele>
        <time>2019-07-12T08:15:54Z</time>
      </trkpt>
      <trkpt lat="42.7424172778" lon="20.1423117891">
        <ele>1789.63</ele>
        <time>2019-07-12T08:16:09Z</time>
      </trkpt>
      <trkpt lat="42.7424776275" lon="20.1419869903">
        <ele>1787.23</ele>
        <time>2019-07-12T08:16:25Z</time>
      </trkpt>
      <trkpt lat="42.7425388992" lon="20.1417317614">
        <ele>1785.79</ele>
        <time>2019-07-12T08:16:39Z</time>
      </trkpt>
      <trkpt lat="42.7426366322" lon="20.1414804719">
        <ele>1783.38</ele>
        <time>2019-07-12T08:16:53Z</time>
      </trkpt>
      <trkpt lat="42.7427357063" lon="20.1411788911">
        <ele>1782.42</ele>
        <time>2019-07-12T08:17:09Z</time>
      </trkpt>
      <trkpt lat="42.7428309247" lon="20.1408898830">
        <ele>1779.54</ele>
        <time>2019-07-12T08:17:25Z</time>
      </trkpt>
      <trkpt lat="42.7428310923" lon="20.1408736221">
        <ele>1779.54</ele>
        <time>2019-07-12T08:17:26Z</time>
      </trkpt>
      <trkpt lat="42.7429113910" lon="20.1405753940">
        <ele>1777.13</ele>
        <time>2019-07-12T08:17:43Z</time>
      </trkpt>
      <trkpt lat="42.7429198567" lon="20.1405060757">
        <ele>1777.13</ele>
        <time>2019-07-12T08:17:58Z</time>
      </trkpt>
      <trkpt lat="42.7429100499" lon="20.1404635794">
        <ele>1776.65</ele>
        <time>2019-07-12T08:18:12Z</time>
      </trkpt>
      <trkpt lat="42.7428575791" lon="20.1403236017">
        <ele>1776.65</ele>
        <time>2019-07-12T08:18:20Z</time>
      </trkpt>
      <trkpt lat="42.7427483629" lon="20.1401583944">
        <ele>1776.17</ele>
        <time>2019-07-12T08:18:31Z</time>
      </trkpt>
      <trkpt lat="42.7426740993" lon="20.1401185803">
        <ele>1775.69</ele>
        <time>2019-07-12T08:18:37Z</time>
      </trkpt>
      <trkpt lat="42.7426481154" lon="20.1401096955">
        <ele>1775.69</ele>
        <time>2019-07-12T08:18:39Z</time>
      </trkpt>
      <trkpt lat="42.7424777113" lon="20.1399809495">
        <ele>1775.69</ele>
        <time>2019-07-12T08:18:53Z</time>
      </trkpt>
      <trkpt lat="42.7424402442" lon="20.1399390399">
        <ele>1775.69</ele>
        <time>2019-07-12T08:18:57Z</time>
      </trkpt>
      <trkpt lat="42.7422804851" lon="20.1397712342">
        <ele>1777.13</ele>
        <time>2019-07-12T08:19:12Z</time>
      </trkpt>
      <trkpt lat="42.7421790641" lon="20.1396687236">
        <ele>1777.13</ele>
        <time>2019-07-12T08:19:22Z</time>
      </trkpt>
      <trkpt lat="42.7421178762" lon="20.1396201085">
        <ele>1777.13</ele>
        <time>2019-07-12T08:19:27Z</time>
      </trkpt>
      <trkpt lat="42.7419783175" lon="20.1395039354">
        <ele>1777.13</ele>
        <time>2019-07-12T08:19:38Z</time>
      </trkpt>
      <trkpt lat="42.7418189775" lon="20.1393862534">
        <ele>1777.13</ele>
        <time>2019-07-12T08:19:52Z</time>
      </trkpt>
      <trkpt lat="42.7416468970" lon="20.1392408274">
        <ele>1777.13</ele>
        <time>2019-07-12T08:20:07Z</time>
      </trkpt>
      <trkpt lat="42.7415273711" lon="20.1391623728">
        <ele>1777.13</ele>
        <time>2019-07-12T08:20:17Z</time>
      </trkpt>
      <trkpt lat="42.7414158918" lon="20.1391108241">
        <ele>1776.65</ele>
        <time>2019-07-12T08:20:26Z</time>
      </trkpt>
      <trkpt lat="42.7413319051" lon="20.1390244067">
        <ele>1776.65</ele>
        <time>2019-07-12T08:20:33Z</time>
      </trkpt>
      <trkpt lat="42.7412475832" lon="20.1389591116">
        <ele>1776.65</ele>
        <time>2019-07-12T08:20:40Z</time>
      </trkpt>
      <trkpt lat="42.7411501855" lon="20.1388640609">
        <ele>1775.21</ele>
        <time>2019-07-12T08:20:48Z</time>
      </trkpt>
      <trkpt lat="42.7411103714" lon="20.1388245821">
        <ele>1775.21</ele>
        <time>2019-07-12T08:20:51Z</time>
      </trkpt>
      <trkpt lat="42.7409493551" lon="20.1386917289">
        <ele>1775.21</ele>
        <time>2019-07-12T08:21:05Z</time>
      </trkpt>
      <trkpt lat="42.7409053501" lon="20.1386321336">
        <ele>1775.21</ele>
        <time>2019-07-12T08:21:09Z</time>
      </trkpt>
      <trkpt lat="42.7408869937" lon="20.1386110950">
        <ele>1775.21</ele>
        <time>2019-07-12T08:21:11Z</time>
      </trkpt>
      <trkpt lat="42.7407152485" lon="20.1384392660">
        <ele>1774.73</ele>
        <time>2019-07-12T08:21:26Z</time>
      </trkpt>
      <trkpt lat="42.7405335288" lon="20.1382941753">
        <ele>1773.77</ele>
        <time>2019-07-12T08:21:41Z</time>
      </trkpt>
      <trkpt lat="42.7403576765" lon="20.1381427981">
        <ele>1772.81</ele>
        <time>2019-07-12T08:21:56Z</time>
      </trkpt>
      <trkpt lat="42.7401656471" lon="20.1380380243">
        <ele>1772.33</ele>
        <time>2019-07-12T08:22:12Z</time>
      </trkpt>
      <trkpt lat="42.7401568461" lon="20.1380362641">
        <ele>1772.33</ele>
        <time>2019-07-12T08:22:13Z</time>
      </trkpt>
      <trkpt lat="42.7400360629" lon="20.1379448175">
        <ele>1773.77</ele>
        <time>2019-07-12T08:22:23Z</time>
      </trkpt>
      <trkpt lat="42.7398925647" lon="20.1378066000">
        <ele>1773.77</ele>
        <time>2019-07-12T08:22:38Z</time>
      </trkpt>
      <trkpt lat="42.7398425248" lon="20.1377577335">
        <ele>1773.29</ele>
        <time>2019-07-12T08:22:44Z</time>
      </trkpt>
      <trkpt lat="42.7398172114" lon="20.1377487648">
        <ele>1773.29</ele>
        <time>2019-07-12T08:22:46Z</time>
      </trkpt>
      <trkpt lat="42.7397176344" lon="20.1376537140">
        <ele>1773.77</ele>
        <time>2019-07-12T08:23:01Z</time>
      </trkpt>
      <trkpt lat="42.7396935783" lon="20.1376509480">
        <ele>1773.77</ele>
        <time>2019-07-12T08:23:03Z</time>
      </trkpt>
      <trkpt lat="42.7396224998" lon="20.1376875769">
        <ele>1773.77</ele>
        <time>2019-07-12T08:23:16Z</time>
      </trkpt>
      <trkpt lat="42.7395911515" lon="20.1377249602">
        <ele>1773.77</ele>
        <time>2019-07-12T08:23:38Z</time>
      </trkpt>
      <trkpt lat="42.7396346536" lon="20.1377042569">
        <ele>1773.29</ele>
        <time>2019-07-12T08:24:06Z</time>
      </trkpt>
      <trkpt lat="42.7396642417" lon="20.1376873255">
        <ele>1773.29</ele>
        <time>2019-07-12T08:24:25Z</time>
      </trkpt>
      <trkpt lat="42.7396425325" lon="20.1376621798">
        <ele>1773.29</ele>
        <time>2019-07-12T08:24:43Z</time>
      </trkpt>
      <trkpt lat="42.7396477293" lon="20.1376717351">
        <ele>1773.29</ele>
        <time>2019-07-12T08:24:54Z</time>
      </trkpt>
      <trkpt lat="42.7394710388" lon="20.1375657041">
        <ele>1773.29</ele>
        <time>2019-07-12T08:25:09Z</time>
      </trkpt>
      <trkpt lat="42.7392564621" lon="20.1375375409">
        <ele>1771.37</ele>
        <time>2019-07-12T08:25:24Z</time>
      </trkpt>
      <trkpt lat="42.7390580624" lon="20.1374287438">
        <ele>1769.44</ele>
        <time>2019-07-12T08:25:40Z</time>
      </trkpt>
      <trkpt lat="42.7389445715" lon="20.1373596769">
        <ele>1768.96</ele>
        <time>2019-07-12T08:25:49Z</time>
      </trkpt>
      <trkpt lat="42.7388417255" lon="20.1373082120">
        <ele>1768.00</ele>
        <time>2019-07-12T08:25:58Z</time>
      </trkpt>
      <trkpt lat="42.7386481036" lon="20.1371892728">
        <ele>1767.04</ele>
        <time>2019-07-12T08:26:12Z</time>
      </trkpt>
      <trkpt lat="42.7385272365" lon="20.1370371412">
        <ele>1767.04</ele>
        <time>2019-07-12T08:26:26Z</time>
      </trkpt>
      <trkpt lat="42.7384329401" lon="20.1369357202">
        <ele>1766.56</ele>
        <time>2019-07-12T08:26:34Z</time>
      </trkpt>
      <trkpt lat="42.7384097222" lon="20.1369115803">
        <ele>1766.08</ele>
        <time>2019-07-12T08:26:36Z</time>
      </trkpt>
      <trkpt lat="42.7382057905" lon="20.1367956586">
        <ele>1765.60</ele>
        <time>2019-07-12T08:26:52Z</time>
      </trkpt>
      <trkpt lat="42.7379833348" lon="20.1367161982">
        <ele>1765.60</ele>
        <time>2019-07-12T08:27:08Z</time>
      </trkpt>
      <trkpt lat="42.7377658244" lon="20.1366576925">
        <ele>1764.64</ele>
        <time>2019-07-12T08:27:24Z</time>
      </trkpt>
      <trkpt lat="42.7375426143" lon="20.1366308704">
        <ele>1764.64</ele>
        <time>2019-07-12T08:27:39Z</time>
      </trkpt>
      <trkpt lat="42.7375096735" lon="20.1366096642">
        <ele>1764.64</ele>
        <time>2019-07-12T08:27:42Z</time>
      </trkpt>
      <trkpt lat="42.7373353299" lon="20.1365175471">
        <ele>1766.08</ele>
        <time>2019-07-12T08:27:56Z</time>
      </trkpt>
      <trkpt lat="42.7372112777" lon="20.1364981849">
        <ele>1766.56</ele>
        <time>2019-07-12T08:28:06Z</time>
      </trkpt>
      <trkpt lat="42.7370194998" lon="20.1364043076">
        <ele>1767.52</ele>
        <time>2019-07-12T08:28:22Z</time>
      </trkpt>
      <trkpt lat="42.7368470840" lon="20.1363521721">
        <ele>1767.52</ele>
        <time>2019-07-12T08:28:36Z</time>
      </trkpt>
      <trkpt lat="42.7366814576" lon="20.1362593006">
        <ele>1768.00</ele>
        <time>2019-07-12T08:28:49Z</time>
      </trkpt>
      <trkpt lat="42.7366330102" lon="20.1362213306">
        <ele>1767.04</ele>
        <time>2019-07-12T08:28:53Z</time>
      </trkpt>
      <trkpt lat="42.7364448365" lon="20.1361401938">
        <ele>1764.64</ele>
        <time>2019-07-12T08:29:08Z</time>
      </trkpt>
      <trkpt lat="42.7363507077" lon="20.1361033134">
        <ele>1763.68</ele>
        <time>2019-07-12T08:29:15Z</time>
      </trkpt>
      <trkpt lat="42.7361405734" lon="20.1360247750">
        <ele>1760.79</ele>
        <time>2019-07-12T08:29:30Z</time>
      </trkpt>
      <trkpt lat="42.7360964008" lon="20.1359897386">
        <ele>1760.31</ele>
        <time>2019-07-12T08:29:34Z</time>
      </trkpt>
      <trkpt lat="42.7360348776" lon="20.1359393634">
        <ele>1758.87</ele>
        <time>2019-07-12T08:29:39Z</time>
      </trkpt>
      <trkpt lat="42.7359829098" lon="20.1358744036">
        <ele>1757.91</ele>
        <time>2019-07-12T08:29:46Z</time>
      </trkpt>
      <trkpt lat="42.7358312812" lon="20.1357342582">
        <ele>1755.50</ele>
        <time>2019-07-12T08:30:00Z</time>
      </trkpt>
      <trkpt lat="42.7356667444" lon="20.1355276443">
        <ele>1753.58</ele>
        <time>2019-07-12T08:30:13Z</time>
      </trkpt>
      <trkpt lat="42.7355755493" lon="20.1354086213">
        <ele>1752.14</ele>
        <time>2019-07-12T08:30:21Z</time>
      </trkpt>
      <trkpt lat="42.7354357392" lon="20.1351253130">
        <ele>1749.26</ele>
        <time>2019-07-12T08:30:38Z</time>
      </trkpt>
      <trkpt lat="42.7353423648" lon="20.1349800546">
        <ele>1747.33</ele>
        <time>2019-07-12T08:30:47Z</time>
      </trkpt>
      <trkpt lat="42.7352815121" lon="20.1349042822">
        <ele>1746.85</ele>
        <time>2019-07-12T08:30:52Z</time>
      </trkpt>
      <trkpt lat="42.7352013811" lon="20.1346947346">
        <ele>1744.45</ele>
        <time>2019-07-12T08:31:07Z</time>
      </trkpt>
      <trkpt lat="42.7351769898" lon="20.1346576028">
        <ele>1743.97</ele>
        <time>2019-07-12T08:31:10Z</time>
      </trkpt>
      <trkpt lat="42.7351121139" lon="20.1345989294">
        <ele>1743.49</ele>
        <time>2019-07-12T08:31:14Z</time>
      </trkpt>
      <trkpt lat="42.7350212540" lon="20.1344354823">
        <ele>1741.57</ele>
        <time>2019-07-12T08:31:24Z</time>
      </trkpt>
      <trkpt lat="42.7349640895" lon="20.1343651582">
        <ele>1740.60</ele>
        <time>2019-07-12T08:31:30Z</time>
      </trkpt>
      <trkpt lat="42.7348234411" lon="20.1342076622">
        <ele>1738.68</ele>
        <time>2019-07-12T08:31:42Z</time>
      </trkpt>
      <trkpt lat="42.7347706351" lon="20.1341594663">
        <ele>1738.68</ele>
        <time>2019-07-12T08:31:47Z</time>
      </trkpt>
      <trkpt lat="42.7347252052" lon="20.1340853702">
        <ele>1738.20</ele>
        <time>2019-07-12T08:31:52Z</time>
      </trkpt>
      <trkpt lat="42.7346853912" lon="20.1339971088">
        <ele>1737.72</ele>
        <time>2019-07-12T08:31:57Z</time>
      </trkpt>
      <trkpt lat="42.7345930226" lon="20.1338209212">
        <ele>1736.76</ele>
        <time>2019-07-12T08:32:09Z</time>
      </trkpt>
      <trkpt lat="42.7344992291" lon="20.1336613297">
        <ele>1736.28</ele>
        <time>2019-07-12T08:32:20Z</time>
      </trkpt>
      <trkpt lat="42.7344936971" lon="20.1336572226">
        <ele>1736.28</ele>
        <time>2019-07-12T08:32:21Z</time>
      </trkpt>
      <trkpt lat="42.7343721595" lon="20.1334458310">
        <ele>1736.28</ele>
        <time>2019-07-12T08:32:34Z</time>
      </trkpt>
      <trkpt lat="42.7342747618" lon="20.1333125588">
        <ele>1736.28</ele>
        <time>2019-07-12T08:32:44Z</time>
      </trkpt>
      <trkpt lat="42.7342342772" lon="20.1332704816">
        <ele>1735.80</ele>
        <time>2019-07-12T08:32:48Z</time>
      </trkpt>
      <trkpt lat="42.7341542300" lon="20.1331899315">
        <ele>1734.36</ele>
        <time>2019-07-12T08:32:56Z</time>
      </trkpt>
      <trkpt lat="42.7339895256" lon="20.1330285799">
        <ele>1731.47</ele>
        <time>2019-07-12T08:33:10Z</time>
      </trkpt>
      <trkpt lat="42.7338504698" lon="20.1328632887">
        <ele>1729.55</ele>
        <time>2019-07-12T08:33:23Z</time>
      </trkpt>
      <trkpt lat="42.7337580174" lon="20.1327879354">
        <ele>1728.59</ele>
        <time>2019-07-12T08:33:30Z</time>
      </trkpt>
      <trkpt lat="42.7336158603" lon="20.1326106582">
        <ele>1725.22</ele>
        <time>2019-07-12T08:33:45Z</time>
      </trkpt>
      <trkpt lat="42.7335055545" lon="20.1324815769">
        <ele>1725.22</ele>
        <time>2019-07-12T08:33:55Z</time>
      </trkpt>
      <trkpt lat="42.7333850227" lon="20.1323577762">
        <ele>1722.82</ele>
        <time>2019-07-12T08:34:06Z</time>
      </trkpt>
      <trkpt lat="42.7333259303" lon="20.1323089935">
        <ele>1721.38</ele>
        <time>2019-07-12T08:34:11Z</time>
      </trkpt>
      <trkpt lat="42.7333098371" lon="20.1322708558">
        <ele>1720.90</ele>
        <time>2019-07-12T08:34:13Z</time>
      </trkpt>
      <trkpt lat="42.7332638204" lon="20.1322246715">
        <ele>1720.42</ele>
        <time>2019-07-12T08:34:17Z</time>
      </trkpt>
      <trkpt lat="42.7331988607" lon="20.1321780682">
        <ele>1719.46</ele>
        <time>2019-07-12T08:34:22Z</time>
      </trkpt>
      <trkpt lat="42.7331159636" lon="20.1320898067">
        <ele>1718.01</ele>
        <time>2019-07-12T08:34:29Z</time>
      </trkpt>
      <trkpt lat="42.7331046481" lon="20.1320805866">
        <ele>1717.53</ele>
        <time>2019-07-12T08:34:30Z</time>
      </trkpt>
      <trkpt lat="42.7330114413" lon="20.1319508348">
        <ele>1716.09</ele>
        <time>2019-07-12T08:34:38Z</time>
      </trkpt>
      <trkpt lat="42.7328857128" lon="20.1317758206">
        <ele>1712.73</ele>
        <time>2019-07-12T08:34:52Z</time>
      </trkpt>
      <trkpt lat="42.7327785082" lon="20.1315946877">
        <ele>1709.36</ele>
        <time>2019-07-12T08:35:05Z</time>
      </trkpt>
      <trkpt lat="42.7327636722" lon="20.1315713860">
        <ele>1708.88</ele>
        <time>2019-07-12T08:35:07Z</time>
      </trkpt>
      <trkpt lat="42.7327231877" lon="20.1315445639">
        <ele>1708.40</ele>
        <time>2019-07-12T08:35:10Z</time>
      </trkpt>
      <trkpt lat="42.7325476706" lon="20.1314225234">
        <ele>1706.00</ele>
        <time>2019-07-12T08:35:22Z</time>
      </trkpt>
      <trkpt lat="42.7324092854" lon="20.1313107926">
        <ele>1703.59</ele>
        <time>2019-07-12T08:35:34Z</time>
      </trkpt>
      <trkpt lat="42.7322538849" lon="20.1311650313">
        <ele>1700.23</ele>
        <time>2019-07-12T08:35:47Z</time>
      </trkpt>
      <trkpt lat="42.7321870811" lon="20.1310066134">
        <ele>1697.34</ele>
        <time>2019-07-12T08:35:59Z</time>
      </trkpt>
      <trkpt lat="42.7321474347" lon="20.1309386361">
        <ele>1695.42</ele>
        <time>2019-07-12T08:36:05Z</time>
      </trkpt>
      <trkpt lat="42.7320123184" lon="20.1308735088">
        <ele>1693.02</ele>
        <time>2019-07-12T08:36:17Z</time>
      </trkpt>
      <trkpt lat="42.7318737656" lon="20.1308445912">
        <ele>1689.65</ele>
        <time>2019-07-12T08:36:28Z</time>
      </trkpt>
      <trkpt lat="42.7318012621" lon="20.1308258157">
        <ele>1688.21</ele>
        <time>2019-07-12T08:36:34Z</time>
      </trkpt>
      <trkpt lat="42.7316847537" lon="20.1307505462">
        <ele>1685.33</ele>
        <time>2019-07-12T08:36:46Z</time>
      </trkpt>
      <trkpt lat="42.7316644695" lon="20.1307521388">
        <ele>1683.89</ele>
        <time>2019-07-12T08:36:48Z</time>
      </trkpt>
      <trkpt lat="42.7316135913" lon="20.1307647955">
        <ele>1682.93</ele>
        <time>2019-07-12T08:36:53Z</time>
      </trkpt>
      <trkpt lat="42.7314644773" lon="20.1307367999">
        <ele>1679.56</ele>
        <time>2019-07-12T08:37:07Z</time>
      </trkpt>
      <trkpt lat="42.7314471267" lon="20.1307411585">
        <ele>1679.56</ele>
        <time>2019-07-12T08:37:09Z</time>
      </trkpt>
      <trkpt lat="42.7313728631" lon="20.1307502110">
        <ele>1676.68</ele>
        <time>2019-07-12T08:37:17Z</time>
      </trkpt>
      <trkpt lat="42.7312656585" lon="20.1307500433">
        <ele>1674.75</ele>
        <time>2019-07-12T08:37:26Z</time>
      </trkpt>
      <trkpt lat="42.7312372439" lon="20.1307595987">
        <ele>1673.79</ele>
        <time>2019-07-12T08:37:28Z</time>
      </trkpt>
      <trkpt lat="42.7311589569" lon="20.1307896059">
        <ele>1672.35</ele>
        <time>2019-07-12T08:37:34Z</time>
      </trkpt>
      <trkpt lat="42.7310519200" lon="20.1307637896">
        <ele>1670.43</ele>
        <time>2019-07-12T08:37:43Z</time>
      </trkpt>
      <trkpt lat="42.7310293727" lon="20.1307627838">
        <ele>1669.95</ele>
        <time>2019-07-12T08:37:45Z</time>
      </trkpt>
      <trkpt lat="42.7309092600" lon="20.1307171024">
        <ele>1668.02</ele>
        <time>2019-07-12T08:37:54Z</time>
      </trkpt>
      <trkpt lat="42.7307755686" lon="20.1306987461">
        <ele>1666.10</ele>
        <time>2019-07-12T08:38:05Z</time>
      </trkpt>
      <trkpt lat="42.7307381853" lon="20.1306896098">
        <ele>1665.14</ele>
        <time>2019-07-12T08:38:08Z</time>
      </trkpt>
      <trkpt lat="42.7306925878" lon="20.1306878496">
        <ele>1664.66</ele>
        <time>2019-07-12T08:38:12Z</time>
      </trkpt>
      <trkpt lat="42.7305050008" lon="20.1306819823">
        <ele>1661.30</ele>
        <time>2019-07-12T08:38:26Z</time>
      </trkpt>
      <trkpt lat="42.7303073555" lon="20.1307341177">
        <ele>1659.37</ele>
        <time>2019-07-12T08:38:41Z</time>
      </trkpt>
      <trkpt lat="42.7300907671" lon="20.1307027694">
        <ele>1656.01</ele>
        <time>2019-07-12T08:38:57Z</time>
      </trkpt>
      <trkpt lat="42.7298849076" lon="20.1306466945">
        <ele>1655.05</ele>
        <time>2019-07-12T08:39:13Z</time>
      </trkpt>
      <trkpt lat="42.7296992484" lon="20.1304814033">
        <ele>1653.60</ele>
        <time>2019-07-12T08:39:31Z</time>
      </trkpt>
      <trkpt lat="42.7296588477" lon="20.1304179523">
        <ele>1653.60</ele>
        <time>2019-07-12T08:39:36Z</time>
      </trkpt>
      <trkpt lat="42.7295725979" lon="20.1303347200">
        <ele>1653.12</ele>
        <time>2019-07-12T08:39:44Z</time>
      </trkpt>
      <trkpt lat="42.7295166906" lon="20.1300561894">
        <ele>1653.12</ele>
        <time>2019-07-12T08:40:00Z</time>
      </trkpt>
      <trkpt lat="42.7295394056" lon="20.1298007928">
        <ele>1653.12</ele>
        <time>2019-07-12T08:40:15Z</time>
      </trkpt>
      <trkpt lat="42.7296067961" lon="20.1295432169">
        <ele>1653.12</ele>
        <time>2019-07-12T08:40:31Z</time>
      </trkpt>
      <trkpt lat="42.7296690736" lon="20.1293810271">
        <ele>1652.64</ele>
        <time>2019-07-12T08:40:42Z</time>
      </trkpt>
      <trkpt lat="42.7296958957" lon="20.1292977110">
        <ele>1652.16</ele>
        <time>2019-07-12T08:40:55Z</time>
      </trkpt>
      <trkpt lat="42.7296968177" lon="20.1292891614">
        <ele>1652.16</ele>
        <time>2019-07-12T08:41:09Z</time>
      </trkpt>
      <trkpt lat="42.7297158446" lon="20.1292284764">
        <ele>1651.68</ele>
        <time>2019-07-12T08:41:25Z</time>
      </trkpt>
      <trkpt lat="42.7298274916" lon="20.1289962139">
        <ele>1650.24</ele>
        <time>2019-07-12T08:41:41Z</time>
      </trkpt>
      <trkpt lat="42.7299036831" lon="20.1287781168">
        <ele>1647.84</ele>
        <time>2019-07-12T08:41:53Z</time>
      </trkpt>
      <trkpt lat="42.7299374621" lon="20.1286923699">
        <ele>1647.36</ele>
        <time>2019-07-12T08:41:58Z</time>
      </trkpt>
      <trkpt lat="42.7300748415" lon="20.1285121590">
        <ele>1645.91</ele>
        <time>2019-07-12T08:42:12Z</time>
      </trkpt>
      <trkpt lat="42.7301027533" lon="20.1284755301">
        <ele>1644.95</ele>
        <time>2019-07-12T08:42:15Z</time>
      </trkpt>
      <trkpt lat="42.7302504424" lon="20.1282607857">
        <ele>1642.55</ele>
        <time>2019-07-12T08:42:30Z</time>
      </trkpt>
      <trkpt lat="42.7302605007" lon="20.1282446086">
        <ele>1642.55</ele>
        <time>2019-07-12T08:42:31Z</time>
      </trkpt>
      <trkpt lat="42.7303071041" lon="20.1280647330">
        <ele>1639.67</ele>
        <time>2019-07-12T08:42:42Z</time>
      </trkpt>
      <trkpt lat="42.7302450780" lon="20.1279236656">
        <ele>1636.30</ele>
        <time>2019-07-12T08:42:50Z</time>
      </trkpt>
      <trkpt lat="42.7302119695" lon="20.1278404333">
        <ele>1634.38</ele>
        <time>2019-07-12T08:42:55Z</time>
      </trkpt>
      <trkpt lat="42.7301591635" lon="20.1277216617">
        <ele>1631.49</ele>
        <time>2019-07-12T08:43:04Z</time>
      </trkpt>
      <trkpt lat="42.7301548049" lon="20.1277079154">
        <ele>1630.53</ele>
        <time>2019-07-12T08:43:05Z</time>
      </trkpt>
      <trkpt lat="42.7300888393" lon="20.1275551971">
        <ele>1627.65</ele>
        <time>2019-07-12T08:43:15Z</time>
      </trkpt>
      <trkpt lat="42.7300671302" lon="20.1275251061">
        <ele>1626.21</ele>
        <time>2019-07-12T08:43:18Z</time>
      </trkpt>
      <trkpt lat="42.7300232090" lon="20.1273908280">
        <ele>1624.77</ele>
        <time>2019-07-12T08:43:24Z</time>
      </trkpt>
      <trkpt lat="42.7299044374" lon="20.1271492615">
        <ele>1621.88</ele>
        <time>2019-07-12T08:43:40Z</time>
      </trkpt>
      <trkpt lat="42.7298101410" lon="20.1269933581">
        <ele>1619.48</ele>
        <time>2019-07-12T08:43:53Z</time>
      </trkpt>
      <trkpt lat="42.7297606878" lon="20.1268503629">
        <ele>1617.07</ele>
        <time>2019-07-12T08:44:05Z</time>
      </trkpt>
      <trkpt lat="42.7296943869" lon="20.1267367043">
        <ele>1613.71</ele>
        <time>2019-07-12T08:44:14Z</time>
      </trkpt>
      <trkpt lat="42.7296945546" lon="20.1267273165">
        <ele>1613.71</ele>
        <time>2019-07-12T08:44:15Z</time>
      </trkpt>
      <trkpt lat="42.7297023498" lon="20.1266357023">
        <ele>1611.31</ele>
        <time>2019-07-12T08:44:21Z</time>
      </trkpt>
      <trkpt lat="42.7296414971" lon="20.1264917012">
        <ele>1607.94</ele>
        <time>2019-07-12T08:44:32Z</time>
      </trkpt>
      <trkpt lat="42.7296075504" lon="20.1264234725">
        <ele>1606.50</ele>
        <time>2019-07-12T08:44:37Z</time>
      </trkpt>
      <trkpt lat="42.7295352984" lon="20.1262505539">
        <ele>1602.66</ele>
        <time>2019-07-12T08:44:49Z</time>
      </trkpt>
      <trkpt lat="42.7294671535" lon="20.1261212211">
        <ele>1599.29</ele>
        <time>2019-07-12T08:45:00Z</time>
      </trkpt>
      <trkpt lat="42.7293912135" lon="20.1260012761">
        <ele>1595.93</ele>
        <time>2019-07-12T08:45:11Z</time>
      </trkpt>
      <trkpt lat="42.7293627989" lon="20.1259677485">
        <ele>1595.45</ele>
        <time>2019-07-12T08:45:14Z</time>
      </trkpt>
      <trkpt lat="42.7293046284" lon="20.1259057224">
        <ele>1593.52</ele>
        <time>2019-07-12T08:45:20Z</time>
      </trkpt>
      <trkpt lat="42.7292676643" lon="20.1257944107">
        <ele>1591.12</ele>
        <time>2019-07-12T08:45:28Z</time>
      </trkpt>
      <trkpt lat="42.7293041255" lon="20.1256560255">
        <ele>1589.20</ele>
        <time>2019-07-12T08:45:36Z</time>
      </trkpt>
      <trkpt lat="42.7292714361" lon="20.1255782414">
        <ele>1587.27</ele>
        <time>2019-07-12T08:45:52Z</time>
      </trkpt>
      <trkpt lat="42.7292646468" lon="20.1255834382">
        <ele>1587.75</ele>
        <time>2019-07-12T08:46:12Z</time>
      </trkpt>
      <trkpt lat="42.7292718552" lon="20.1255754754">
        <ele>1587.75</ele>
        <time>2019-07-12T08:46:28Z</time>
      </trkpt>
      <trkpt lat="42.7292799018" lon="20.1255847793">
        <ele>1587.27</ele>
        <time>2019-07-12T08:46:46Z</time>
      </trkpt>
      <trkpt lat="42.7292608749" lon="20.1255843602">
        <ele>1588.72</ele>
        <time>2019-07-12T08:47:03Z</time>
      </trkpt>
      <trkpt lat="42.7292893734" lon="20.1255515032">
        <ele>1588.72</ele>
        <time>2019-07-12T08:47:29Z</time>
      </trkpt>
      <trkpt lat="42.7292741183" lon="20.1255552750">
        <ele>1588.72</ele>
        <time>2019-07-12T08:47:55Z</time>
      </trkpt>
      <trkpt lat="42.7292685863" lon="20.1255562808">
        <ele>1588.72</ele>
        <time>2019-07-12T08:48:19Z</time>
      </trkpt>
      <trkpt lat="42.7292619646" lon="20.1255473122">
        <ele>1588.72</ele>
        <time>2019-07-12T08:48:52Z</time>
      </trkpt>
      <trkpt lat="42.7292795666" lon="20.1255580410">
        <ele>1588.72</ele>
        <time>2019-07-12T08:49:23Z</time>
      </trkpt>
      <trkpt lat="42.7292636409" lon="20.1255500782">
        <ele>1588.72</ele>
        <time>2019-07-12T08:49:46Z</time>
      </trkpt>
      <trkpt lat="42.7292704303" lon="20.1255375054">
        <ele>1588.72</ele>
        <time>2019-07-12T08:50:23Z</time>
      </trkpt>
      <trkpt lat="42.7292680833" lon="20.1255624834">
        <ele>1588.72</ele>
        <time>2019-07-12T08:50:36Z</time>
      </trkpt>
      <trkpt lat="42.7292685024" lon="20.1255364157">
        <ele>1588.72</ele>
        <time>2019-07-12T08:51:05Z</time>
      </trkpt>
      <trkpt lat="42.7292765491" lon="20.1255339850">
        <ele>1588.24</ele>
        <time>2019-07-12T08:51:34Z</time>
      </trkpt>
      <trkpt lat="42.7292244975" lon="20.1254813466">
        <ele>1586.79</ele>
        <time>2019-07-12T08:51:50Z</time>
      </trkpt>
      <trkpt lat="42.7291886229" lon="20.1253267005">
        <ele>1585.35</ele>
        <time>2019-07-12T08:52:02Z</time>
      </trkpt>
      <trkpt lat="42.7291266806" lon="20.1250795182">
        <ele>1583.91</ele>
        <time>2019-07-12T08:52:18Z</time>
      </trkpt>
      <trkpt lat="42.7291316260" lon="20.1248651929">
        <ele>1581.51</ele>
        <time>2019-07-12T08:52:33Z</time>
      </trkpt>
      <trkpt lat="42.7291453723" lon="20.1248236187">
        <ele>1580.54</ele>
        <time>2019-07-12T08:52:36Z</time>
      </trkpt>
      <trkpt lat="42.7291438635" lon="20.1247392967">
        <ele>1580.06</ele>
        <time>2019-07-12T08:52:41Z</time>
      </trkpt>
      <trkpt lat="42.7290815022" lon="20.1245303359">
        <ele>1575.74</ele>
        <time>2019-07-12T08:52:54Z</time>
      </trkpt>
      <trkpt lat="42.7289247606" lon="20.1242818125">
        <ele>1573.33</ele>
        <time>2019-07-12T08:53:12Z</time>
      </trkpt>
      <trkpt lat="42.7288455516" lon="20.1240544952">
        <ele>1572.85</ele>
        <time>2019-07-12T08:53:26Z</time>
      </trkpt>
      <trkpt lat="42.7287802566" lon="20.1238475461">
        <ele>1572.85</ele>
        <time>2019-07-12T08:53:39Z</time>
      </trkpt>
      <trkpt lat="42.7287700307" lon="20.1236436144">
        <ele>1573.82</ele>
        <time>2019-07-12T08:53:52Z</time>
      </trkpt>
      <trkpt lat="42.7287997864" lon="20.1234423649">
        <ele>1575.26</ele>
        <time>2019-07-12T08:54:05Z</time>
      </trkpt>
      <trkpt lat="42.7288011275" lon="20.1234276965">
        <ele>1575.26</ele>
        <time>2019-07-12T08:54:06Z</time>
      </trkpt>
      <trkpt lat="42.7288013790" lon="20.1232608128">
        <ele>1577.18</ele>
        <time>2019-07-12T08:54:19Z</time>
      </trkpt>
      <trkpt lat="42.7287690248" lon="20.1231322344">
        <ele>1577.66</ele>
        <time>2019-07-12T08:54:34Z</time>
      </trkpt>
      <trkpt lat="42.7287505846" lon="20.1231147163">
        <ele>1577.18</ele>
        <time>2019-07-12T08:54:50Z</time>
      </trkpt>
      <trkpt lat="42.7286512591" lon="20.1229542866">
        <ele>1576.70</ele>
        <time>2019-07-12T08:55:06Z</time>
      </trkpt>
      <trkpt lat="42.7285594773" lon="20.1227518637">
        <ele>1578.14</ele>
        <time>2019-07-12T08:55:20Z</time>
      </trkpt>
      <trkpt lat="42.7285048272" lon="20.1225833874">
        <ele>1576.70</ele>
        <time>2019-07-12T08:55:31Z</time>
      </trkpt>
      <trkpt lat="42.7284169849" lon="20.1223665476">
        <ele>1576.22</ele>
        <time>2019-07-12T08:55:45Z</time>
      </trkpt>
      <trkpt lat="42.7283390332" lon="20.1220991649">
        <ele>1574.30</ele>
        <time>2019-07-12T08:56:01Z</time>
      </trkpt>
      <trkpt lat="42.7282518614" lon="20.1218133420">
        <ele>1572.37</ele>
        <time>2019-07-12T08:56:18Z</time>
      </trkpt>
      <trkpt lat="42.7281644382" lon="20.1215361524">
        <ele>1570.45</ele>
        <time>2019-07-12T08:56:34Z</time>
      </trkpt>
      <trkpt lat="42.7280470077" lon="20.1212862879">
        <ele>1569.97</ele>
        <time>2019-07-12T08:56:51Z</time>
      </trkpt>
      <trkpt lat="42.7280331776" lon="20.1212571189">
        <ele>1569.97</ele>
        <time>2019-07-12T08:56:53Z</time>
      </trkpt>
      <trkpt lat="42.7279563993" lon="20.1210787520">
        <ele>1569.97</ele>
        <time>2019-07-12T08:57:09Z</time>
      </trkpt>
      <trkpt lat="42.7279442456" lon="20.1210050751">
        <ele>1571.89</ele>
        <time>2019-07-12T08:57:16Z</time>
      </trkpt>
      <trkpt lat="42.7279410604" lon="20.1208819449">
        <ele>1573.33</ele>
        <time>2019-07-12T08:57:25Z</time>
      </trkpt>
      <trkpt lat="42.7279596683" lon="20.1206570584">
        <ele>1573.82</ele>
        <time>2019-07-12T08:57:39Z</time>
      </trkpt>
      <trkpt lat="42.7279677149" lon="20.1205273066">
        <ele>1573.82</ele>
        <time>2019-07-12T08:57:47Z</time>
      </trkpt>
      <trkpt lat="42.7279911842" lon="20.1202702336">
        <ele>1572.37</ele>
        <time>2019-07-12T08:58:03Z</time>
      </trkpt>
      <trkpt lat="42.7279985603" lon="20.1200540643">
        <ele>1570.93</ele>
        <time>2019-07-12T08:58:16Z</time>
      </trkpt>
      <trkpt lat="42.7279946208" lon="20.1199149247">
        <ele>1569.97</ele>
        <time>2019-07-12T08:58:28Z</time>
      </trkpt>
      <trkpt lat="42.7279773541" lon="20.1197118312">
        <ele>1569.49</ele>
        <time>2019-07-12T08:58:40Z</time>
      </trkpt>
      <trkpt lat="42.7279434074" lon="20.1194997691">
        <ele>1569.01</ele>
        <time>2019-07-12T08:58:52Z</time>
      </trkpt>
      <trkpt lat="42.7279473469" lon="20.1194676664">
        <ele>1569.01</ele>
        <time>2019-07-12T08:58:54Z</time>
      </trkpt>
      <trkpt lat="42.7279303316" lon="20.1193599589">
        <ele>1569.01</ele>
        <time>2019-07-12T08:59:00Z</time>
      </trkpt>
      <trkpt lat="42.7278921939" lon="20.1191569492">
        <ele>1569.01</ele>
        <time>2019-07-12T08:59:12Z</time>
      </trkpt>
      <trkpt lat="42.7278576605" lon="20.1189623214">
        <ele>1568.53</ele>
        <time>2019-07-12T08:59:24Z</time>
      </trkpt>
      <trkpt lat="42.7278619353" lon="20.1188049931">
        <ele>1568.05</ele>
        <time>2019-07-12T08:59:36Z</time>
      </trkpt>
      <trkpt lat="42.7278724127" lon="20.1186318230">
        <ele>1567.57</ele>
        <time>2019-07-12T08:59:47Z</time>
      </trkpt>
      <trkpt lat="42.7278618515" lon="20.1184600778">
        <ele>1567.57</ele>
        <time>2019-07-12T08:59:59Z</time>
      </trkpt>
      <trkpt lat="42.7278200258" lon="20.1182551403">
        <ele>1567.09</ele>
        <time>2019-07-12T09:00:12Z</time>
      </trkpt>
      <trkpt lat="42.7278154995" lon="20.1182299107">
        <ele>1567.09</ele>
        <time>2019-07-12T09:00:14Z</time>
      </trkpt>
      <trkpt lat="42.7277946286" lon="20.1181016676">
        <ele>1567.09</ele>
        <time>2019-07-12T09:00:23Z</time>
      </trkpt>
      <trkpt lat="42.7278054412" lon="20.1180070359">
        <ele>1568.05</ele>
        <time>2019-07-12T09:00:31Z</time>
      </trkpt>
      <trkpt lat="42.7277963050" lon="20.1178518031">
        <ele>1569.97</ele>
        <time>2019-07-12T09:00:44Z</time>
      </trkpt>
      <trkpt lat="42.7277937904" lon="20.1177518908">
        <ele>1569.97</ele>
        <time>2019-07-12T09:00:56Z</time>
      </trkpt>
      <trkpt lat="42.7277681418" lon="20.1175651420">
        <ele>1569.97</ele>
        <time>2019-07-12T09:01:09Z</time>
      </trkpt>
      <trkpt lat="42.7277312614" lon="20.1174022816">
        <ele>1570.45</ele>
        <time>2019-07-12T09:01:21Z</time>
      </trkpt>
      <trkpt lat="42.7276680619" lon="20.1171877887">
        <ele>1570.93</ele>
        <time>2019-07-12T09:01:37Z</time>
      </trkpt>
      <trkpt lat="42.7276601829" lon="20.1170685142">
        <ele>1571.41</ele>
        <time>2019-07-12T09:01:48Z</time>
      </trkpt>
      <trkpt lat="42.7276111487" lon="20.1168447174">
        <ele>1571.41</ele>
        <time>2019-07-12T09:02:02Z</time>
      </trkpt>
      <trkpt lat="42.7275961451" lon="20.1167908218">
        <ele>1571.41</ele>
        <time>2019-07-12T09:02:06Z</time>
      </trkpt>
      <trkpt lat="42.7275895234" lon="20.1167437155">
        <ele>1569.97</ele>
        <time>2019-07-12T09:02:09Z</time>
      </trkpt>
      <trkpt lat="42.7275269944" lon="20.1165323239">
        <ele>1568.53</ele>
        <time>2019-07-12T09:02:23Z</time>
      </trkpt>
      <trkpt lat="42.7274911199" lon="20.1164239459">
        <ele>1566.61</ele>
        <time>2019-07-12T09:02:32Z</time>
      </trkpt>
      <trkpt lat="42.7274514735" lon="20.1162777655">
        <ele>1564.20</ele>
        <time>2019-07-12T09:02:42Z</time>
      </trkpt>
      <trkpt lat="42.7273327857" lon="20.1161082834">
        <ele>1562.76</ele>
        <time>2019-07-12T09:02:58Z</time>
      </trkpt>
      <trkpt lat="42.7273047902" lon="20.1160653681">
        <ele>1562.28</ele>
        <time>2019-07-12T09:03:12Z</time>
      </trkpt>
      <trkpt lat="42.7273208834" lon="20.1160332654">
        <ele>1561.80</ele>
        <time>2019-07-12T09:03:38Z</time>
      </trkpt>
      <trkpt lat="42.7273408324" lon="20.1161516178">
        <ele>1561.80</ele>
        <time>2019-07-12T09:03:58Z</time>
      </trkpt>
      <trkpt lat="42.7274074685" lon="20.1162433997">
        <ele>1563.24</ele>
        <time>2019-07-12T09:04:12Z</time>
      </trkpt>
      <trkpt lat="42.7274342068" lon="20.1161927730">
        <ele>1561.80</ele>
        <time>2019-07-12T09:04:26Z</time>
      </trkpt>
      <trkpt lat="42.7274460252" lon="20.1161185931">
        <ele>1559.88</ele>
        <time>2019-07-12T09:04:37Z</time>
      </trkpt>
      <trkpt lat="42.7274498809" lon="20.1161138155">
        <ele>1558.92</ele>
        <time>2019-07-12T09:04:38Z</time>
      </trkpt>
      <trkpt lat="42.7274745237" lon="20.1160693076">
        <ele>1557.47</ele>
        <time>2019-07-12T09:04:42Z</time>
      </trkpt>
      <trkpt lat="42.7274914552" lon="20.1160196867">
        <ele>1556.51</ele>
        <time>2019-07-12T09:04:45Z</time>
      </trkpt>
      <trkpt lat="42.7275040280" lon="20.1158678904">
        <ele>1552.67</ele>
        <time>2019-07-12T09:04:55Z</time>
      </trkpt>
      <trkpt lat="42.7275311016" lon="20.1157459337">
        <ele>1549.30</ele>
        <time>2019-07-12T09:05:05Z</time>
      </trkpt>
      <trkpt lat="42.7275450155" lon="20.1155850012">
        <ele>1547.38</ele>
        <time>2019-07-12T09:05:15Z</time>
      </trkpt>
      <trkpt lat="42.7275419142" lon="20.1154912915">
        <ele>1544.98</ele>
        <time>2019-07-12T09:05:22Z</time>
      </trkpt>
      <trkpt lat="42.7275780402" lon="20.1154104900">
        <ele>1543.53</ele>
        <time>2019-07-12T09:05:28Z</time>
      </trkpt>
      <trkpt lat="42.7276196145" lon="20.1153707597">
        <ele>1541.61</ele>
        <time>2019-07-12T09:05:33Z</time>
      </trkpt>
      <trkpt lat="42.7276670560" lon="20.1153197140">
        <ele>1539.69</ele>
        <time>2019-07-12T09:05:38Z</time>
      </trkpt>
      <trkpt lat="42.7277263161" lon="20.1151661575">
        <ele>1535.84</ele>
        <time>2019-07-12T09:05:48Z</time>
      </trkpt>
      <trkpt lat="42.7277318481" lon="20.1149981841">
        <ele>1532.48</ele>
        <time>2019-07-12T09:05:58Z</time>
      </trkpt>
      <trkpt lat="42.7277193591" lon="20.1148020476">
        <ele>1529.59</ele>
        <time>2019-07-12T09:06:10Z</time>
      </trkpt>
      <trkpt lat="42.7277162578" lon="20.1147720404">
        <ele>1528.63</ele>
        <time>2019-07-12T09:06:12Z</time>
      </trkpt>
      <trkpt lat="42.7277226280" lon="20.1147428714">
        <ele>1528.15</ele>
        <time>2019-07-12T09:06:14Z</time>
      </trkpt>
      <trkpt lat="42.7276907768" lon="20.1145645883">
        <ele>1525.27</ele>
        <time>2019-07-12T09:06:25Z</time>
      </trkpt>
      <trkpt lat="42.7276774496" lon="20.1143878978">
        <ele>1521.90</ele>
        <time>2019-07-12T09:06:36Z</time>
      </trkpt>
      <trkpt lat="42.7276887652" lon="20.1143345051">
        <ele>1520.94</ele>
        <time>2019-07-12T09:06:39Z</time>
      </trkpt>
      <trkpt lat="42.7276989911" lon="20.1142995525">
        <ele>1520.46</ele>
        <time>2019-07-12T09:06:41Z</time>
      </trkpt>
      <trkpt lat="42.7277360391" lon="20.1141669508">
        <ele>1518.54</ele>
        <time>2019-07-12T09:06:51Z</time>
      </trkpt>
      <trkpt lat="42.7277349494" lon="20.1141303219">
        <ele>1517.10</ele>
        <time>2019-07-12T09:06:54Z</time>
      </trkpt>
      <trkpt lat="42.7277340274" lon="20.1140679605">
        <ele>1516.14</ele>
        <time>2019-07-12T09:06:58Z</time>
      </trkpt>
      <trkpt lat="42.7277417388" lon="20.1139709819">
        <ele>1515.18</ele>
        <time>2019-07-12T09:07:03Z</time>
      </trkpt>
      <trkpt lat="42.7277521323" lon="20.1139305811">
        <ele>1514.21</ele>
        <time>2019-07-12T09:07:06Z</time>
      </trkpt>
      <trkpt lat="42.7277641185" lon="20.1138276514">
        <ele>1512.29</ele>
        <time>2019-07-12T09:07:12Z</time>
      </trkpt>
      <trkpt lat="42.7277906053" lon="20.1136573311">
        <ele>1510.37</ele>
        <time>2019-07-12T09:07:28Z</time>
      </trkpt>
      <trkpt lat="42.7277489472" lon="20.1135200355">
        <ele>1507.97</ele>
        <time>2019-07-12T09:07:42Z</time>
      </trkpt>
      <trkpt lat="42.7277377155" lon="20.1133958995">
        <ele>1505.56</ele>
        <time>2019-07-12T09:07:52Z</time>
      </trkpt>
      <trkpt lat="42.7276559081" lon="20.1132968254">
        <ele>1503.16</ele>
        <time>2019-07-12T09:08:06Z</time>
      </trkpt>
      <trkpt lat="42.7275994141" lon="20.1132213883">
        <ele>1501.24</ele>
        <time>2019-07-12T09:08:19Z</time>
      </trkpt>
      <trkpt lat="42.7275414951" lon="20.1131406706">
        <ele>1499.31</ele>
        <time>2019-07-12T09:08:33Z</time>
      </trkpt>
      <trkpt lat="42.7274901140" lon="20.1130629703">
        <ele>1496.91</ele>
        <time>2019-07-12T09:08:39Z</time>
      </trkpt>
      <trkpt lat="42.7274688240" lon="20.1129643153">
        <ele>1494.99</ele>
        <time>2019-07-12T09:08:46Z</time>
      </trkpt>
      <trkpt lat="42.7274509706" lon="20.1129447855">
        <ele>1494.03</ele>
        <time>2019-07-12T09:08:48Z</time>
      </trkpt>
      <trkpt lat="42.7274560835" lon="20.1129369903">
        <ele>1494.51</ele>
        <time>2019-07-12T09:08:49Z</time>
      </trkpt>
      <trkpt lat="42.7274666447" lon="20.1128436159">
        <ele>1493.55</ele>
        <time>2019-07-12T09:08:56Z</time>
      </trkpt>
      <trkpt lat="42.7275477815" lon="20.1126452163">
        <ele>1492.10</ele>
        <time>2019-07-12T09:09:09Z</time>
      </trkpt>
      <trkpt lat="42.7276687324" lon="20.1125102676">
        <ele>1490.66</ele>
        <time>2019-07-12T09:09:23Z</time>
      </trkpt>
      <trkpt lat="42.7276976500" lon="20.1125010476">
        <ele>1489.70</ele>
        <time>2019-07-12T09:09:27Z</time>
      </trkpt>
      <trkpt lat="42.7277858276" lon="20.1125140395">
        <ele>1488.26</ele>
        <time>2019-07-12T09:09:34Z</time>
      </trkpt>
      <trkpt lat="42.7278119791" lon="20.1125316415">
        <ele>1488.26</ele>
        <time>2019-07-12T09:09:36Z</time>
      </trkpt>
      <trkpt lat="42.7279376239" lon="20.1126366667">
        <ele>1486.82</ele>
        <time>2019-07-12T09:09:45Z</time>
      </trkpt>
      <trkpt lat="42.7279972192" lon="20.1127170492">
        <ele>1486.34</ele>
        <time>2019-07-12T09:09:52Z</time>
      </trkpt>
      <trkpt lat="42.7280911803" lon="20.1127090026">
        <ele>1484.89</ele>
        <time>2019-07-12T09:09:59Z</time>
      </trkpt>
      <trkpt lat="42.7280858159" lon="20.1125496626">
        <ele>1482.49</ele>
        <time>2019-07-12T09:10:09Z</time>
      </trkpt>
      <trkpt lat="42.7280482650" lon="20.1124575455">
        <ele>1480.57</ele>
        <time>2019-07-12T09:10:16Z</time>
      </trkpt>
      <trkpt lat="42.7280325908" lon="20.1124259457">
        <ele>1480.09</ele>
        <time>2019-07-12T09:10:18Z</time>
      </trkpt>
      <trkpt lat="42.7279476821" lon="20.1122095250">
        <ele>1477.68</ele>
        <time>2019-07-12T09:10:31Z</time>
      </trkpt>
      <trkpt lat="42.7278870810" lon="20.1121155638">
        <ele>1476.72</ele>
        <time>2019-07-12T09:10:38Z</time>
      </trkpt>
      <trkpt lat="42.7278639469" lon="20.1120669488">
        <ele>1476.24</ele>
        <time>2019-07-12T09:10:41Z</time>
      </trkpt>
      <trkpt lat="42.7277201973" lon="20.1118687168">
        <ele>1474.32</ele>
        <time>2019-07-12T09:10:55Z</time>
      </trkpt>
      <trkpt lat="42.7275108173" lon="20.1117184293">
        <ele>1471.44</ele>
        <time>2019-07-12T09:11:10Z</time>
      </trkpt>
      <trkpt lat="42.7274923772" lon="20.1117026713">
        <ele>1470.95</ele>
        <time>2019-07-12T09:11:12Z</time>
      </trkpt>
      <trkpt lat="42.7274787147" lon="20.1116733346">
        <ele>1470.47</ele>
        <time>2019-07-12T09:11:14Z</time>
      </trkpt>
      <trkpt lat="42.7274881024" lon="20.1116072014">
        <ele>1469.51</ele>
        <time>2019-07-12T09:11:18Z</time>
      </trkpt>
      <trkpt lat="42.7275140863" lon="20.1115601789">
        <ele>1469.03</ele>
        <time>2019-07-12T09:11:21Z</time>
      </trkpt>
      <trkpt lat="42.7275332808" lon="20.1115196943">
        <ele>1468.07</ele>
        <time>2019-07-12T09:11:24Z</time>
      </trkpt>
      <trkpt lat="42.7275506314" lon="20.1115079597">
        <ele>1467.59</ele>
        <time>2019-07-12T09:11:25Z</time>
      </trkpt>
      <trkpt lat="42.7276035212" lon="20.1114165131">
        <ele>1466.15</ele>
        <time>2019-07-12T09:11:40Z</time>
      </trkpt>
      <trkpt lat="42.7276420780" lon="20.1114596799">
        <ele>1465.67</ele>
        <time>2019-07-12T09:12:06Z</time>
      </trkpt>
      <trkpt lat="42.7277580835" lon="20.1113861706">
        <ele>1462.78</ele>
        <time>2019-07-12T09:12:18Z</time>
      </trkpt>
      <trkpt lat="42.7278517094" lon="20.1112649683">
        <ele>1459.42</ele>
        <time>2019-07-12T09:12:30Z</time>
      </trkpt>
      <trkpt lat="42.7280068584" lon="20.1111399941">
        <ele>1456.53</ele>
        <time>2019-07-12T09:12:42Z</time>
      </trkpt>
      <trkpt lat="42.7282385342" lon="20.1112062111">
        <ele>1454.61</ele>
        <time>2019-07-12T09:12:55Z</time>
      </trkpt>
      <trkpt lat="42.7282692119" lon="20.1112296805">
        <ele>1454.13</ele>
        <time>2019-07-12T09:12:57Z</time>
      </trkpt>
      <trkpt lat="42.7283060085" lon="20.1112621184">
        <ele>1453.17</ele>
        <time>2019-07-12T09:13:00Z</time>
      </trkpt>
      <trkpt lat="42.7283621673" lon="20.1113376394">
        <ele>1452.21</ele>
        <time>2019-07-12T09:13:05Z</time>
      </trkpt>
      <trkpt lat="42.7284269594" lon="20.1114496216">
        <ele>1451.73</ele>
        <time>2019-07-12T09:13:12Z</time>
      </trkpt>
      <trkpt lat="42.7284391131" lon="20.1114922017">
        <ele>1451.73</ele>
        <time>2019-07-12T09:13:14Z</time>
      </trkpt>
      <trkpt lat="42.7285368461" lon="20.1116792858">
        <ele>1449.32</ele>
        <time>2019-07-12T09:13:28Z</time>
      </trkpt>
      <trkpt lat="42.7286273707" lon="20.1118071098">
        <ele>1447.88</ele>
        <time>2019-07-12T09:13:37Z</time>
      </trkpt>
      <trkpt lat="42.7287083399" lon="20.1119850576">
        <ele>1445.96</ele>
        <time>2019-07-12T09:13:46Z</time>
      </trkpt>
      <trkpt lat="42.7287888899" lon="20.1121528633">
        <ele>1443.08</ele>
        <time>2019-07-12T09:13:58Z</time>
      </trkpt>
      <trkpt lat="42.7288158797" lon="20.1122044958">
        <ele>1442.60</ele>
        <time>2019-07-12T09:14:03Z</time>
      </trkpt>
      <trkpt lat="42.7288376726" lon="20.1122653484">
        <ele>1442.11</ele>
        <time>2019-07-12T09:14:07Z</time>
      </trkpt>
      <trkpt lat="42.7288780734" lon="20.1123898197">
        <ele>1441.15</ele>
        <time>2019-07-12T09:14:15Z</time>
      </trkpt>
      <trkpt lat="42.7289861161" lon="20.1125868782">
        <ele>1439.23</ele>
        <time>2019-07-12T09:14:27Z</time>
      </trkpt>
      <trkpt lat="42.7290114295" lon="20.1126148738">
        <ele>1438.75</ele>
        <time>2019-07-12T09:14:29Z</time>
      </trkpt>
      <trkpt lat="42.7290423587" lon="20.1126407739">
        <ele>1438.27</ele>
        <time>2019-07-12T09:14:32Z</time>
      </trkpt>
      <trkpt lat="42.7290667500" lon="20.1127019618">
        <ele>1437.79</ele>
        <time>2019-07-12T09:14:35Z</time>
      </trkpt>
      <trkpt lat="42.7291147783" lon="20.1127885468">
        <ele>1436.83</ele>
        <time>2019-07-12T09:14:40Z</time>
      </trkpt>
      <trkpt lat="42.7292155288" lon="20.1130799018">
        <ele>1433.94</ele>
        <time>2019-07-12T09:14:54Z</time>
      </trkpt>
      <trkpt lat="42.7292622160" lon="20.1131581888">
        <ele>1432.02</ele>
        <time>2019-07-12T09:14:59Z</time>
      </trkpt>
      <trkpt lat="42.7292733639" lon="20.1131749526">
        <ele>1432.02</ele>
        <time>2019-07-12T09:15:00Z</time>
      </trkpt>
      <trkpt lat="42.7293275949" lon="20.1133424230">
        <ele>1429.14</ele>
        <time>2019-07-12T09:15:09Z</time>
      </trkpt>
      <trkpt lat="42.7293726057" lon="20.1134844124">
        <ele>1425.77</ele>
        <time>2019-07-12T09:15:18Z</time>
      </trkpt>
      <trkpt lat="42.7293981705" lon="20.1136581693">
        <ele>1423.37</ele>
        <time>2019-07-12T09:15:26Z</time>
      </trkpt>
      <trkpt lat="42.7294390742" lon="20.1139201876">
        <ele>1420.49</ele>
        <time>2019-07-12T09:15:39Z</time>
      </trkpt>
      <trkpt lat="42.7295188699" lon="20.1140521187">
        <ele>1417.12</ele>
        <time>2019-07-12T09:15:50Z</time>
      </trkpt>
      <trkpt lat="42.7296862565" lon="20.1142504346">
        <ele>1414.72</ele>
        <time>2019-07-12T09:16:03Z</time>
      </trkpt>
      <trkpt lat="42.7297493722" lon="20.1144313999">
        <ele>1412.79</ele>
        <time>2019-07-12T09:16:12Z</time>
      </trkpt>
      <trkpt lat="42.7298157569" lon="20.1143630035">
        <ele>1410.87</ele>
        <time>2019-07-12T09:16:17Z</time>
      </trkpt>
      <trkpt lat="42.7297985740" lon="20.1142594870">
        <ele>1409.43</ele>
        <time>2019-07-12T09:16:22Z</time>
      </trkpt>
      <trkpt lat="42.7297610231" lon="20.1141341776">
        <ele>1407.51</ele>
        <time>2019-07-12T09:16:29Z</time>
      </trkpt>
      <trkpt lat="42.7298167627" lon="20.1139923558">
        <ele>1405.10</ele>
        <time>2019-07-12T09:16:39Z</time>
      </trkpt>
      <trkpt lat="42.7299151663" lon="20.1140612550">
        <ele>1401.74</ele>
        <time>2019-07-12T09:16:49Z</time>
      </trkpt>
      <trkpt lat="42.7299690619" lon="20.1141467504">
        <ele>1400.78</ele>
        <time>2019-07-12T09:16:55Z</time>
      </trkpt>
      <trkpt lat="42.7299920283" lon="20.1141724829">
        <ele>1400.30</ele>
        <time>2019-07-12T09:16:57Z</time>
      </trkpt>
      <trkpt lat="42.7301277313" lon="20.1143197529">
        <ele>1396.93</ele>
        <time>2019-07-12T09:17:08Z</time>
      </trkpt>
      <trkpt lat="42.7302469220" lon="20.1144930907">
        <ele>1393.57</ele>
        <time>2019-07-12T09:17:20Z</time>
      </trkpt>
      <trkpt lat="42.7303392906" lon="20.1146410313">
        <ele>1390.68</ele>
        <time>2019-07-12T09:17:30Z</time>
      </trkpt>
      <trkpt lat="42.7305159811" lon="20.1147451345">
        <ele>1387.32</ele>
        <time>2019-07-12T09:17:43Z</time>
      </trkpt>
      <trkpt lat="42.7306608204" lon="20.1147675980">
        <ele>1385.88</ele>
        <time>2019-07-12T09:17:53Z</time>
      </trkpt>
      <trkpt lat="42.7307025623" lon="20.1147837751">
        <ele>1385.40</ele>
        <time>2019-07-12T09:17:55Z</time>
      </trkpt>
      <trkpt lat="42.7309831046" lon="20.1147398539">
        <ele>1382.99</ele>
        <time>2019-07-12T09:18:13Z</time>
      </trkpt>
      <trkpt lat="42.7310688514" lon="20.1147578750">
        <ele>1382.51</ele>
        <time>2019-07-12T09:18:18Z</time>
      </trkpt>
      <trkpt lat="42.7312519122" lon="20.1148011256">
        <ele>1380.59</ele>
        <time>2019-07-12T09:18:32Z</time>
      </trkpt>
      <trkpt lat="42.7313633915" lon="20.1148269419">
        <ele>1379.15</ele>
        <time>2019-07-12T09:18:40Z</time>
      </trkpt>
      <trkpt lat="42.7315079793" lon="20.1148067415">
        <ele>1378.19</ele>
        <time>2019-07-12T09:18:49Z</time>
      </trkpt>
      <trkpt lat="42.7315504756" lon="20.1148060709">
        <ele>1378.19</ele>
        <time>2019-07-12T09:18:52Z</time>
      </trkpt>
      <trkpt lat="42.7316580992" lon="20.1148581225">
        <ele>1376.26</ele>
        <time>2019-07-12T09:19:01Z</time>
      </trkpt>
      <trkpt lat="42.7317199577" lon="20.1149716135">
        <ele>1374.82</ele>
        <time>2019-07-12T09:19:08Z</time>
      </trkpt>
      <trkpt lat="42.7317725960" lon="20.1149855275">
        <ele>1373.86</ele>
        <time>2019-07-12T09:19:13Z</time>
      </trkpt>
      <trkpt lat="42.7318514697" lon="20.1148563623">
        <ele>1371.46</ele>
        <time>2019-07-12T09:19:23Z</time>
      </trkpt>
      <trkpt lat="42.7318694070" lon="20.1147707831">
        <ele>1370.50</ele>
        <time>2019-07-12T09:19:28Z</time>
      </trkpt>
      <trkpt lat="42.7318492066" lon="20.1144756563">
        <ele>1368.57</ele>
        <time>2019-07-12T09:19:40Z</time>
      </trkpt>
      <trkpt lat="42.7318437584" lon="20.1144211739">
        <ele>1368.09</ele>
        <time>2019-07-12T09:19:43Z</time>
      </trkpt>
      <trkpt lat="42.7318314370" lon="20.1143673621">
        <ele>1367.13</ele>
        <time>2019-07-12T09:19:46Z</time>
      </trkpt>
      <trkpt lat="42.7318165172" lon="20.1143258717">
        <ele>1367.13</ele>
        <time>2019-07-12T09:19:49Z</time>
      </trkpt>
      <trkpt lat="42.7317703329" lon="20.1142637618">
        <ele>1365.21</ele>
        <time>2019-07-12T09:19:54Z</time>
      </trkpt>
      <trkpt lat="42.7317221370" lon="20.1142412145">
        <ele>1364.25</ele>
        <time>2019-07-12T09:19:58Z</time>
      </trkpt>
      <trkpt lat="42.7316533215" lon="20.1142527815">
        <ele>1362.33</ele>
        <time>2019-07-12T09:20:04Z</time>
      </trkpt>
      <trkpt lat="42.7316311933" lon="20.1142449025">
        <ele>1362.33</ele>
        <time>2019-07-12T09:20:06Z</time>
      </trkpt>
      <trkpt lat="42.7315492183" lon="20.1142473333">
        <ele>1361.36</ele>
        <time>2019-07-12T09:20:12Z</time>
      </trkpt>
      <trkpt lat="42.7314457018" lon="20.1141966227">
        <ele>1359.92</ele>
        <time>2019-07-12T09:20:18Z</time>
      </trkpt>
      <trkpt lat="42.7313988470" lon="20.1141347643">
        <ele>1359.44</ele>
        <time>2019-07-12T09:20:21Z</time>
      </trkpt>
      <trkpt lat="42.7313434426" lon="20.1138919406">
        <ele>1357.04</ele>
        <time>2019-07-12T09:20:36Z</time>
      </trkpt>
      <trkpt lat="42.7313652355" lon="20.1138611790">
        <ele>1356.08</ele>
        <time>2019-07-12T09:20:39Z</time>
      </trkpt>
      <trkpt lat="42.7314288542" lon="20.1138336025">
        <ele>1354.63</ele>
        <time>2019-07-12T09:20:45Z</time>
      </trkpt>
      <trkpt lat="42.7315673232" lon="20.1138812117">
        <ele>1351.27</ele>
        <time>2019-07-12T09:20:59Z</time>
      </trkpt>
      <trkpt lat="42.7316472027" lon="20.1138178445">
        <ele>1349.83</ele>
        <time>2019-07-12T09:21:04Z</time>
      </trkpt>
      <trkpt lat="42.7317190357" lon="20.1137423236">
        <ele>1348.39</ele>
        <time>2019-07-12T09:21:12Z</time>
      </trkpt>
      <trkpt lat="42.7317468636" lon="20.1137321815">
        <ele>1347.91</ele>
        <time>2019-07-12T09:21:13Z</time>
      </trkpt>
      <trkpt lat="42.7319295891" lon="20.1136454288">
        <ele>1345.98</ele>
        <time>2019-07-12T09:21:27Z</time>
      </trkpt>
      <trkpt lat="42.7319932915" lon="20.1136622764">
        <ele>1345.98</ele>
        <time>2019-07-12T09:21:52Z</time>
      </trkpt>
      <trkpt lat="42.7320026793" lon="20.1136667188">
        <ele>1346.46</ele>
        <time>2019-07-12T09:22:23Z</time>
      </trkpt>
      <trkpt lat="42.7320048586" lon="20.1136315148">
        <ele>1346.94</ele>
        <time>2019-07-12T09:22:51Z</time>
      </trkpt>
      <trkpt lat="42.7320144977" lon="20.1136010047">
        <ele>1346.94</ele>
        <time>2019-07-12T09:23:14Z</time>
      </trkpt>
      <trkpt lat="42.7320083790" lon="20.1135805529">
        <ele>1347.43</ele>
        <time>2019-07-12T09:23:45Z</time>
      </trkpt>
      <trkpt lat="42.7320623584" lon="20.1135406550">
        <ele>1347.91</ele>
        <time>2019-07-12T09:24:14Z</time>
      </trkpt>
      <trkpt lat="42.7320367936" lon="20.1136093028">
        <ele>1348.39</ele>
        <time>2019-07-12T09:24:38Z</time>
      </trkpt>
      <trkpt lat="42.7320146654" lon="20.1136973966">
        <ele>1348.39</ele>
        <time>2019-07-12T09:25:01Z</time>
      </trkpt>
      <trkpt lat="42.7320619393" lon="20.1135998312">
        <ele>1348.87</ele>
        <time>2019-07-12T09:25:34Z</time>
      </trkpt>
      <trkpt lat="42.7320142463" lon="20.1135713328">
        <ele>1349.35</ele>
        <time>2019-07-12T09:25:56Z</time>
      </trkpt>
      <trkpt lat="42.7320022602" lon="20.1135159284">
        <ele>1348.87</ele>
        <time>2019-07-12T09:25:59Z</time>
      </trkpt>
      <trkpt lat="42.7319506276" lon="20.1132871863">
        <ele>1345.98</ele>
        <time>2019-07-12T09:26:12Z</time>
      </trkpt>
      <trkpt lat="42.7319474425" lon="20.1132695843">
        <ele>1345.50</ele>
        <time>2019-07-12T09:26:13Z</time>
      </trkpt>
      <trkpt lat="42.7319413237" lon="20.1132555865">
        <ele>1345.50</ele>
        <time>2019-07-12T09:26:14Z</time>
      </trkpt>
      <trkpt lat="42.7319307625" lon="20.1131649781">
        <ele>1344.06</ele>
        <time>2019-07-12T09:26:19Z</time>
      </trkpt>
      <trkpt lat="42.7319221292" lon="20.1131415088">
        <ele>1344.06</ele>
        <time>2019-07-12T09:26:21Z</time>
      </trkpt>
      <trkpt lat="42.7319048624" lon="20.1130969170">
        <ele>1343.58</ele>
        <time>2019-07-12T09:26:24Z</time>
      </trkpt>
      <trkpt lat="42.7318850812" lon="20.1130398363">
        <ele>1342.62</ele>
        <time>2019-07-12T09:26:28Z</time>
      </trkpt>
      <trkpt lat="42.7318326943" lon="20.1129486412">
        <ele>1342.62</ele>
        <time>2019-07-12T09:26:40Z</time>
      </trkpt>
      <trkpt lat="42.7317849174" lon="20.1129256748">
        <ele>1342.62</ele>
        <time>2019-07-12T09:26:52Z</time>
      </trkpt>
      <trkpt lat="42.7317140903" lon="20.1128582843">
        <ele>1342.62</ele>
        <time>2019-07-12T09:27:00Z</time>
      </trkpt>
      <trkpt lat="42.7316740248" lon="20.1128338091">
        <ele>1342.14</ele>
        <time>2019-07-12T09:27:03Z</time>
      </trkpt>
      <trkpt lat="42.7315778006" lon="20.1127288677">
        <ele>1342.14</ele>
        <time>2019-07-12T09:27:13Z</time>
      </trkpt>
      <trkpt lat="42.7315434348" lon="20.1126695238">
        <ele>1342.14</ele>
        <time>2019-07-12T09:27:17Z</time>
      </trkpt>
      <trkpt lat="42.7315163612" lon="20.1126047317">
        <ele>1342.62</ele>
        <time>2019-07-12T09:27:21Z</time>
      </trkpt>
      <trkpt lat="42.7314671595" lon="20.1123741455">
        <ele>1342.14</ele>
        <time>2019-07-12T09:27:34Z</time>
      </trkpt>
      <trkpt lat="42.7314710990" lon="20.1122609898">
        <ele>1339.73</ele>
        <time>2019-07-12T09:27:45Z</time>
      </trkpt>
      <trkpt lat="42.7314565144" lon="20.1121276338">
        <ele>1338.77</ele>
        <time>2019-07-12T09:27:52Z</time>
      </trkpt>
      <trkpt lat="42.7314497251" lon="20.1121107861">
        <ele>1338.77</ele>
        <time>2019-07-12T09:27:53Z</time>
      </trkpt>
      <trkpt lat="42.7314503118" lon="20.1119034179">
        <ele>1336.37</ele>
        <time>2019-07-12T09:28:02Z</time>
      </trkpt>
      <trkpt lat="42.7314439416" lon="20.1118010748">
        <ele>1336.85</ele>
        <time>2019-07-12T09:28:06Z</time>
      </trkpt>
      <trkpt lat="42.7314307820" lon="20.1115694828">
        <ele>1334.45</ele>
        <time>2019-07-12T09:28:16Z</time>
      </trkpt>
      <trkpt lat="42.7314189635" lon="20.1112961490">
        <ele>1333.49</ele>
        <time>2019-07-12T09:28:30Z</time>
      </trkpt>
      <trkpt lat="42.7314261720" lon="20.1111523155">
        <ele>1333.49</ele>
        <time>2019-07-12T09:28:36Z</time>
      </trkpt>
      <trkpt lat="42.7314229868" lon="20.1109703444">
        <ele>1333.01</ele>
        <time>2019-07-12T09:28:44Z</time>
      </trkpt>
      <trkpt lat="42.7314496413" lon="20.1108646486">
        <ele>1332.04</ele>
        <time>2019-07-12T09:28:50Z</time>
      </trkpt>
      <trkpt lat="42.7314763796" lon="20.1108052209">
        <ele>1331.56</ele>
        <time>2019-07-12T09:28:54Z</time>
      </trkpt>
      <trkpt lat="42.7315689996" lon="20.1106442045">
        <ele>1328.68</ele>
        <time>2019-07-12T09:29:05Z</time>
      </trkpt>
      <trkpt lat="42.7315780520" lon="20.1106268540">
        <ele>1328.68</ele>
        <time>2019-07-12T09:29:06Z</time>
      </trkpt>
      <trkpt lat="42.7316462807" lon="20.1103871316">
        <ele>1326.28</ele>
        <time>2019-07-12T09:29:18Z</time>
      </trkpt>
      <trkpt lat="42.7316909563" lon="20.1101974491">
        <ele>1325.31</ele>
        <time>2019-07-12T09:29:27Z</time>
      </trkpt>
      <trkpt lat="42.7316938899" lon="20.1100894064">
        <ele>1325.31</ele>
        <time>2019-07-12T09:29:32Z</time>
      </trkpt>
      <trkpt lat="42.7316740248" lon="20.1098420564">
        <ele>1325.31</ele>
        <time>2019-07-12T09:29:47Z</time>
      </trkpt>
      <trkpt lat="42.7315341309" lon="20.1096763462">
        <ele>1325.31</ele>
        <time>2019-07-12T09:29:58Z</time>
      </trkpt>
      <trkpt lat="42.7314986754" lon="20.1096237916">
        <ele>1324.83</ele>
        <time>2019-07-12T09:30:01Z</time>
      </trkpt>
      <trkpt lat="42.7314541675" lon="20.1094861608">
        <ele>1323.87</ele>
        <time>2019-07-12T09:30:10Z</time>
      </trkpt>
      <trkpt lat="42.7314374875" lon="20.1093252283">
        <ele>1322.43</ele>
        <time>2019-07-12T09:30:20Z</time>
      </trkpt>
      <trkpt lat="42.7313169558" lon="20.1092075463">
        <ele>1322.43</ele>
        <time>2019-07-12T09:30:33Z</time>
      </trkpt>
      <trkpt lat="42.7312386688" lon="20.1092077140">
        <ele>1320.99</ele>
        <time>2019-07-12T09:30:39Z</time>
      </trkpt>
      <trkpt lat="42.7312001958" lon="20.1092466060">
        <ele>1320.51</ele>
        <time>2019-07-12T09:30:42Z</time>
      </trkpt>
      <trkpt lat="42.7312533371" lon="20.1095806248">
        <ele>1318.10</ele>
        <time>2019-07-12T09:31:00Z</time>
      </trkpt>
      <trkpt lat="42.7312499844" lon="20.1096292399">
        <ele>1318.10</ele>
        <time>2019-07-12T09:31:03Z</time>
      </trkpt>
      <trkpt lat="42.7311639860" lon="20.1096625999">
        <ele>1316.18</ele>
        <time>2019-07-12T09:31:13Z</time>
      </trkpt>
      <trkpt lat="42.7310515009" lon="20.1094393060">
        <ele>1313.78</ele>
        <time>2019-07-12T09:31:28Z</time>
      </trkpt>
      <trkpt lat="42.7310442924" lon="20.1094275713">
        <ele>1313.78</ele>
        <time>2019-07-12T09:31:29Z</time>
      </trkpt>
      <trkpt lat="42.7309386805" lon="20.1092233881">
        <ele>1313.78</ele>
        <time>2019-07-12T09:31:43Z</time>
      </trkpt>
      <trkpt lat="42.7309103496" lon="20.1091831550">
        <ele>1313.30</ele>
        <time>2019-07-12T09:31:46Z</time>
      </trkpt>
      <trkpt lat="42.7308554482" lon="20.1090189535">
        <ele>1312.82</ele>
        <time>2019-07-12T09:31:57Z</time>
      </trkpt>
      <trkpt lat="42.7307821065" lon="20.1088651456">
        <ele>1311.86</ele>
        <time>2019-07-12T09:32:06Z</time>
      </trkpt>
      <trkpt lat="42.7307649236" lon="20.1088040415">
        <ele>1311.38</ele>
        <time>2019-07-12T09:32:10Z</time>
      </trkpt>
      <trkpt lat="42.7306918334" lon="20.1086986810">
        <ele>1309.93</ele>
        <time>2019-07-12T09:32:17Z</time>
      </trkpt>
      <trkpt lat="42.7306602336" lon="20.1086513232">
        <ele>1309.45</ele>
        <time>2019-07-12T09:32:20Z</time>
      </trkpt>
      <trkpt lat="42.7306104451" lon="20.1085371617">
        <ele>1308.97</ele>
        <time>2019-07-12T09:32:27Z</time>
      </trkpt>
      <trkpt lat="42.7305020671" lon="20.1084226649">
        <ele>1308.01</ele>
        <time>2019-07-12T09:32:35Z</time>
      </trkpt>
      <trkpt lat="42.7304462437" lon="20.1083011273">
        <ele>1307.05</ele>
        <time>2019-07-12T09:32:41Z</time>
      </trkpt>
      <trkpt lat="42.7304132190" lon="20.1082206611">
        <ele>1307.05</ele>
        <time>2019-07-12T09:32:45Z</time>
      </trkpt>
      <trkpt lat="42.7303687949" lon="20.1081137080">
        <ele>1305.13</ele>
        <time>2019-07-12T09:32:51Z</time>
      </trkpt>
      <trkpt lat="42.7303610835" lon="20.1080738101">
        <ele>1304.65</ele>
        <time>2019-07-12T09:32:53Z</time>
      </trkpt>
      <trkpt lat="42.7303596586" lon="20.1079236902">
        <ele>1303.20</ele>
        <time>2019-07-12T09:33:00Z</time>
      </trkpt>
      <trkpt lat="42.7303547971" lon="20.1078748237">
        <ele>1302.72</ele>
        <time>2019-07-12T09:33:03Z</time>
      </trkpt>
      <trkpt lat="42.7303417213" lon="20.1078258734">
        <ele>1302.24</ele>
        <time>2019-07-12T09:33:05Z</time>
      </trkpt>
      <trkpt lat="42.7303309925" lon="20.1078034099">
        <ele>1301.76</ele>
        <time>2019-07-12T09:33:06Z</time>
      </trkpt>
      <trkpt lat="42.7303268015" lon="20.1077566389">
        <ele>1301.28</ele>
        <time>2019-07-12T09:33:08Z</time>
      </trkpt>
      <trkpt lat="42.7303210180" lon="20.1077397913">
        <ele>1301.28</ele>
        <time>2019-07-12T09:33:09Z</time>
      </trkpt>
      <trkpt lat="42.7303226106" lon="20.1077002287">
        <ele>1301.28</ele>
        <time>2019-07-12T09:33:11Z</time>
      </trkpt>
      <trkpt lat="42.7303003147" lon="20.1075445767">
        <ele>1299.36</ele>
        <time>2019-07-12T09:33:19Z</time>
      </trkpt>
      <trkpt lat="42.7302444912" lon="20.1074320078">
        <ele>1297.92</ele>
        <time>2019-07-12T09:33:27Z</time>
      </trkpt>
      <trkpt lat="42.7302013244" lon="20.1072745118">
        <ele>1297.44</ele>
        <time>2019-07-12T09:33:35Z</time>
      </trkpt>
      <trkpt lat="42.7300823852" lon="20.1071097236">
        <ele>1295.51</ele>
        <time>2019-07-12T09:33:47Z</time>
      </trkpt>
      <trkpt lat="42.7299617697" lon="20.1069603581">
        <ele>1293.11</ele>
        <time>2019-07-12T09:33:58Z</time>
      </trkpt>
      <trkpt lat="42.7299321815" lon="20.1068653911">
        <ele>1292.63</ele>
        <time>2019-07-12T09:34:02Z</time>
      </trkpt>
      <trkpt lat="42.7298087161" lon="20.1065999363">
        <ele>1289.75</ele>
        <time>2019-07-12T09:34:17Z</time>
      </trkpt>
      <trkpt lat="42.7297981549" lon="20.1065822504">
        <ele>1289.27</ele>
        <time>2019-07-12T09:34:18Z</time>
      </trkpt>
      <trkpt lat="42.7296514716" lon="20.1063936576">
        <ele>1287.34</ele>
        <time>2019-07-12T09:34:32Z</time>
      </trkpt>
      <trkpt lat="42.7295652218" lon="20.1062308811">
        <ele>1286.38</ele>
        <time>2019-07-12T09:34:42Z</time>
      </trkpt>
      <trkpt lat="42.7294793073" lon="20.1060535200">
        <ele>1283.50</ele>
        <time>2019-07-12T09:34:55Z</time>
      </trkpt>
      <trkpt lat="42.7294073068" lon="20.1059795916">
        <ele>1282.06</ele>
        <time>2019-07-12T09:35:01Z</time>
      </trkpt>
      <trkpt lat="42.7293063048" lon="20.1059060823">
        <ele>1281.57</ele>
        <time>2019-07-12T09:35:09Z</time>
      </trkpt>
      <trkpt lat="42.7292656526" lon="20.1058664359">
        <ele>1281.09</ele>
        <time>2019-07-12T09:35:13Z</time>
      </trkpt>
      <trkpt lat="42.7292207256" lon="20.1058081817">
        <ele>1280.61</ele>
        <time>2019-07-12T09:35:17Z</time>
      </trkpt>
      <trkpt lat="42.7290762216" lon="20.1057046652">
        <ele>1278.21</ele>
        <time>2019-07-12T09:35:29Z</time>
      </trkpt>
      <trkpt lat="42.7290340606" lon="20.1056038309">
        <ele>1275.81</ele>
        <time>2019-07-12T09:35:39Z</time>
      </trkpt>
      <trkpt lat="42.7288657520" lon="20.1054206863">
        <ele>1272.92</ele>
        <time>2019-07-12T09:35:50Z</time>
      </trkpt>
      <trkpt lat="42.7287955955" lon="20.1053533796">
        <ele>1271.48</ele>
        <time>2019-07-12T09:35:55Z</time>
      </trkpt>
      <trkpt lat="42.7287701983" lon="20.1052986458">
        <ele>1271.00</ele>
        <time>2019-07-12T09:35:58Z</time>
      </trkpt>
      <trkpt lat="42.7287526801" lon="20.1052789483">
        <ele>1270.52</ele>
        <time>2019-07-12T09:36:00Z</time>
      </trkpt>
      <trkpt lat="42.7287300490" lon="20.1052160840">
        <ele>1270.52</ele>
        <time>2019-07-12T09:36:03Z</time>
      </trkpt>
      <trkpt lat="42.7287002094" lon="20.1049777027">
        <ele>1268.60</ele>
        <time>2019-07-12T09:36:16Z</time>
      </trkpt>
      <trkpt lat="42.7286662627" lon="20.1049660519">
        <ele>1268.60</ele>
        <time>2019-07-12T09:36:30Z</time>
      </trkpt>
      <trkpt lat="42.7287017182" lon="20.1049699076">
        <ele>1268.60</ele>
        <time>2019-07-12T09:36:54Z</time>
      </trkpt>
      <trkpt lat="42.7286816016" lon="20.1049143355">
        <ele>1268.12</ele>
        <time>2019-07-12T09:37:10Z</time>
      </trkpt>
      <trkpt lat="42.7284795977" lon="20.1047894452">
        <ele>1267.16</ele>
        <time>2019-07-12T09:37:26Z</time>
      </trkpt>
      <trkpt lat="42.7284671087" lon="20.1047876012">
        <ele>1267.16</ele>
        <time>2019-07-12T09:37:27Z</time>
      </trkpt>
      <trkpt lat="42.7282862272" lon="20.1047223061">
        <ele>1266.19</ele>
        <time>2019-07-12T09:37:40Z</time>
      </trkpt>
      <trkpt lat="42.7281559724" lon="20.1046924666">
        <ele>1264.75</ele>
        <time>2019-07-12T09:37:50Z</time>
      </trkpt>
      <trkpt lat="42.7281361073" lon="20.1046930533">
        <ele>1264.75</ele>
        <time>2019-07-12T09:37:51Z</time>
      </trkpt>
      <trkpt lat="42.7279541362" lon="20.1046760380">
        <ele>1264.27</ele>
        <time>2019-07-12T09:38:05Z</time>
      </trkpt>
      <trkpt lat="42.7277568262" lon="20.1047689095">
        <ele>1263.79</ele>
        <time>2019-07-12T09:38:22Z</time>
      </trkpt>
      <trkpt lat="42.7275306825" lon="20.1049388945">
        <ele>1262.35</ele>
        <time>2019-07-12T09:38:39Z</time>
      </trkpt>
      <trkpt lat="42.7273047063" lon="20.1050340291">
        <ele>1261.39</ele>
        <time>2019-07-12T09:38:55Z</time>
      </trkpt>
      <trkpt lat="42.7272550017" lon="20.1050676405">
        <ele>1260.91</ele>
        <time>2019-07-12T09:39:08Z</time>
      </trkpt>
      <trkpt lat="42.7271119226" lon="20.1051134896">
        <ele>1260.91</ele>
        <time>2019-07-12T09:39:21Z</time>
      </trkpt>
      <trkpt lat="42.7268452942" lon="20.1052486058">
        <ele>1258.98</ele>
        <time>2019-07-12T09:39:41Z</time>
      </trkpt>
      <trkpt lat="42.7266194858" lon="20.1053676289">
        <ele>1258.02</ele>
        <time>2019-07-12T09:39:58Z</time>
      </trkpt>
      <trkpt lat="42.7265921608" lon="20.1053763460">
        <ele>1258.02</ele>
        <time>2019-07-12T09:40:00Z</time>
      </trkpt>
      <trkpt lat="42.7264526021" lon="20.1054134779">
        <ele>1257.54</ele>
        <time>2019-07-12T09:40:11Z</time>
      </trkpt>
      <trkpt lat="42.7261957806" lon="20.1054599974">
        <ele>1257.06</ele>
        <time>2019-07-12T09:40:28Z</time>
      </trkpt>
      <trkpt lat="42.7260037512" lon="20.1054909267">
        <ele>1256.10</ele>
        <time>2019-07-12T09:40:42Z</time>
      </trkpt>
      <trkpt lat="42.7257859055" lon="20.1055547968">
        <ele>1255.62</ele>
        <time>2019-07-12T09:40:57Z</time>
      </trkpt>
      <trkpt lat="42.7255947143" lon="20.1056761667">
        <ele>1255.14</ele>
        <time>2019-07-12T09:41:12Z</time>
      </trkpt>
      <trkpt lat="42.7254222147" lon="20.1057639252">
        <ele>1255.14</ele>
        <time>2019-07-12T09:41:26Z</time>
      </trkpt>
      <trkpt lat="42.7252259105" lon="20.1058073435">
        <ele>1256.10</ele>
        <time>2019-07-12T09:41:41Z</time>
      </trkpt>
      <trkpt lat="42.7250133455" lon="20.1058304776">
        <ele>1255.62</ele>
        <time>2019-07-12T09:41:56Z</time>
      </trkpt>
      <trkpt lat="42.7248089109" lon="20.1058650948">
        <ele>1252.74</ele>
        <time>2019-07-12T09:42:11Z</time>
      </trkpt>
      <trkpt lat="42.7245358285" lon="20.1059083454">
        <ele>1250.81</ele>
        <time>2019-07-12T09:42:28Z</time>
      </trkpt>
      <trkpt lat="42.7243240178" lon="20.1059230138">
        <ele>1248.89</ele>
        <time>2019-07-12T09:42:42Z</time>
      </trkpt>
      <trkpt lat="42.7241469920" lon="20.1058655139">
        <ele>1248.89</ele>
        <time>2019-07-12T09:42:54Z</time>
      </trkpt>
      <trkpt lat="42.7240370214" lon="20.1058050804">
        <ele>1248.41</ele>
        <time>2019-07-12T09:43:02Z</time>
      </trkpt>
      <trkpt lat="42.7238739096" lon="20.1056883205">
        <ele>1247.45</ele>
        <time>2019-07-12T09:43:15Z</time>
      </trkpt>
      <trkpt lat="42.7238511108" lon="20.1056770887">
        <ele>1246.97</ele>
        <time>2019-07-12T09:43:17Z</time>
      </trkpt>
      <trkpt lat="42.7236182615" lon="20.1055268850">
        <ele>1246.01</ele>
        <time>2019-07-12T09:43:35Z</time>
      </trkpt>
      <trkpt lat="42.7235681377" lon="20.1054957043">
        <ele>1246.01</ele>
        <time>2019-07-12T09:43:39Z</time>
      </trkpt>
      <trkpt lat="42.7235310897" lon="20.1054761745">
        <ele>1246.01</ele>
        <time>2019-07-12T09:43:42Z</time>
      </trkpt>
      <trkpt lat="42.7234871686" lon="20.1054729056">
        <ele>1245.53</ele>
        <time>2019-07-12T09:43:45Z</time>
      </trkpt>
      <trkpt lat="42.7232858352" lon="20.1054289006">
        <ele>1245.04</ele>
        <time>2019-07-12T09:44:00Z</time>
      </trkpt>
      <trkpt lat="42.7232656348" lon="20.1054282300">
        <ele>1245.04</ele>
        <time>2019-07-12T09:44:01Z</time>
      </trkpt>
      <trkpt lat="42.7231851686" lon="20.1054241229">
        <ele>1244.08</ele>
        <time>2019-07-12T09:44:06Z</time>
      </trkpt>
      <trkpt lat="42.7231199574" lon="20.1054037549">
        <ele>1244.08</ele>
        <time>2019-07-12T09:44:10Z</time>
      </trkpt>
      <trkpt lat="42.7228618786" lon="20.1054573152">
        <ele>1243.60</ele>
        <time>2019-07-12T09:44:26Z</time>
      </trkpt>
      <trkpt lat="42.7226299513" lon="20.1055722311">
        <ele>1242.64</ele>
        <time>2019-07-12T09:44:42Z</time>
      </trkpt>
      <trkpt lat="42.7223897260" lon="20.1056539547">
        <ele>1241.68</ele>
        <time>2019-07-12T09:44:59Z</time>
      </trkpt>
      <trkpt lat="42.7221465670" lon="20.1057549566">
        <ele>1240.72</ele>
        <time>2019-07-12T09:45:17Z</time>
      </trkpt>
      <trkpt lat="42.7220122050" lon="20.1058434695">
        <ele>1240.24</ele>
        <time>2019-07-12T09:45:28Z</time>
      </trkpt>
      <trkpt lat="42.7220005542" lon="20.1058492530">
        <ele>1240.24</ele>
        <time>2019-07-12T09:45:29Z</time>
      </trkpt>
      <trkpt lat="42.7219909988" lon="20.1058594789">
        <ele>1240.24</ele>
        <time>2019-07-12T09:45:30Z</time>
      </trkpt>
      <trkpt lat="42.7218873147" lon="20.1059117820">
        <ele>1239.76</ele>
        <time>2019-07-12T09:45:40Z</time>
      </trkpt>
      <trkpt lat="42.7218548767" lon="20.1059163082">
        <ele>1239.76</ele>
        <time>2019-07-12T09:45:43Z</time>
      </trkpt>
      <trkpt lat="42.7216309961" lon="20.1060413662">
        <ele>1238.32</ele>
        <time>2019-07-12T09:45:59Z</time>
      </trkpt>
      <trkpt lat="42.7216216922" lon="20.1060547773">
        <ele>1238.32</ele>
        <time>2019-07-12T09:46:00Z</time>
      </trkpt>
      <trkpt lat="42.7215852309" lon="20.1061059907">
        <ele>1237.83</ele>
        <time>2019-07-12T09:46:04Z</time>
      </trkpt>
      <trkpt lat="42.7215439919" lon="20.1061090082">
        <ele>1237.83</ele>
        <time>2019-07-12T09:46:16Z</time>
      </trkpt>
      <trkpt lat="42.7215462551" lon="20.1061249338">
        <ele>1237.83</ele>
        <time>2019-07-12T09:46:20Z</time>
      </trkpt>
      <trkpt lat="42.7215337660" lon="20.1061483193">
        <ele>1237.83</ele>
        <time>2019-07-12T09:46:22Z</time>
      </trkpt>
      <trkpt lat="42.7215267252" lon="20.1061629876">
        <ele>1237.83</ele>
        <time>2019-07-12T09:46:23Z</time>
      </trkpt>
      <trkpt lat="42.7215192653" lon="20.1061779074">
        <ele>1237.83</ele>
        <time>2019-07-12T09:46:24Z</time>
      </trkpt>
      <trkpt lat="42.7214124799" lon="20.1063467190">
        <ele>1236.87</ele>
        <time>2019-07-12T09:46:37Z</time>
      </trkpt>
      <trkpt lat="42.7211679798" lon="20.1065103337">
        <ele>1235.91</ele>
        <time>2019-07-12T09:46:55Z</time>
      </trkpt>
      <trkpt lat="42.7209519781" lon="20.1066887844">
        <ele>1234.47</ele>
        <time>2019-07-12T09:47:11Z</time>
      </trkpt>
      <trkpt lat="42.7208236512" lon="20.1069048699">
        <ele>1232.55</ele>
        <time>2019-07-12T09:47:26Z</time>
      </trkpt>
      <trkpt lat="42.7207380719" lon="20.1071233023">
        <ele>1229.66</ele>
        <time>2019-07-12T09:47:39Z</time>
      </trkpt>
      <trkpt lat="42.7206897922" lon="20.1072064508">
        <ele>1228.70</ele>
        <time>2019-07-12T09:47:44Z</time>
      </trkpt>
      <trkpt lat="42.7204653248" lon="20.1072189398">
        <ele>1225.82</ele>
        <time>2019-07-12T09:47:59Z</time>
      </trkpt>
      <trkpt lat="42.7202746365" lon="20.1070594322">
        <ele>1224.38</ele>
        <time>2019-07-12T09:48:15Z</time>
      </trkpt>
      <trkpt lat="42.7201008797" lon="20.1068201289">
        <ele>1221.97</ele>
        <time>2019-07-12T09:48:32Z</time>
      </trkpt>
      <trkpt lat="42.7199685294" lon="20.1065770537">
        <ele>1220.53</ele>
        <time>2019-07-12T09:48:48Z</time>
      </trkpt>
      <trkpt lat="42.7198443096" lon="20.1063518319">
        <ele>1219.09</ele>
        <time>2019-07-12T09:49:03Z</time>
      </trkpt>
      <trkpt lat="42.7197153121" lon="20.1061660051">
        <ele>1218.13</ele>
        <time>2019-07-12T09:49:15Z</time>
      </trkpt>
      <trkpt lat="42.7196835447" lon="20.1061213296">
        <ele>1217.65</ele>
        <time>2019-07-12T09:49:18Z</time>
      </trkpt>
      <trkpt lat="42.7196350973" lon="20.1060787495">
        <ele>1216.69</ele>
        <time>2019-07-12T09:49:22Z</time>
      </trkpt>
      <trkpt lat="42.7195209358" lon="20.1059602294">
        <ele>1216.21</ele>
        <time>2019-07-12T09:49:31Z</time>
      </trkpt>
      <trkpt lat="42.7194600832" lon="20.1059195772">
        <ele>1215.72</ele>
        <time>2019-07-12T09:49:36Z</time>
      </trkpt>
      <trkpt lat="42.7192983963" lon="20.1057738159">
        <ele>1213.32</ele>
        <time>2019-07-12T09:49:49Z</time>
      </trkpt>
      <trkpt lat="42.7192269824" lon="20.1057065930">
        <ele>1212.84</ele>
        <time>2019-07-12T09:49:55Z</time>
      </trkpt>
      <trkpt lat="42.7191964723" lon="20.1056654379">
        <ele>1211.88</ele>
        <time>2019-07-12T09:49:58Z</time>
      </trkpt>
      <trkpt lat="42.7190150041" lon="20.1054232847">
        <ele>1209.48</ele>
        <time>2019-07-12T09:50:16Z</time>
      </trkpt>
      <trkpt lat="42.7189074643" lon="20.1053300779">
        <ele>1209.00</ele>
        <time>2019-07-12T09:50:25Z</time>
      </trkpt>
      <trkpt lat="42.7187016048" lon="20.1053750049">
        <ele>1207.55</ele>
        <time>2019-07-12T09:50:40Z</time>
      </trkpt>
      <trkpt lat="42.7186099906" lon="20.1054133102">
        <ele>1206.59</ele>
        <time>2019-07-12T09:50:45Z</time>
      </trkpt>
      <trkpt lat="42.7183971740" lon="20.1055397931">
        <ele>1204.67</ele>
        <time>2019-07-12T09:50:58Z</time>
      </trkpt>
      <trkpt lat="42.7181402687" lon="20.1056288090">
        <ele>1203.23</ele>
        <time>2019-07-12T09:51:16Z</time>
      </trkpt>
      <trkpt lat="42.7180380095" lon="20.1056552120">
        <ele>1202.27</ele>
        <time>2019-07-12T09:51:24Z</time>
      </trkpt>
      <trkpt lat="42.7179126162" lon="20.1055948623">
        <ele>1200.82</ele>
        <time>2019-07-12T09:51:33Z</time>
      </trkpt>
      <trkpt lat="42.7176947705" lon="20.1056220196">
        <ele>1198.42</ele>
        <time>2019-07-12T09:51:47Z</time>
      </trkpt>
      <trkpt lat="42.7174929343" lon="20.1057380252">
        <ele>1197.46</ele>
        <time>2019-07-12T09:52:01Z</time>
      </trkpt>
      <trkpt lat="42.7173791081" lon="20.1060031448">
        <ele>1195.54</ele>
        <time>2019-07-12T09:52:16Z</time>
      </trkpt>
      <trkpt lat="42.7172698919" lon="20.1062825136">
        <ele>1194.09</ele>
        <time>2019-07-12T09:52:34Z</time>
      </trkpt>
      <trkpt lat="42.7172268927" lon="20.1063085813">
        <ele>1193.61</ele>
        <time>2019-07-12T09:52:39Z</time>
      </trkpt>
      <trkpt lat="42.7172053512" lon="20.1062919013">
        <ele>1193.61</ele>
        <time>2019-07-12T09:52:42Z</time>
      </trkpt>
      <trkpt lat="42.7171291597" lon="20.1061598025">
        <ele>1193.13</ele>
        <time>2019-07-12T09:52:55Z</time>
      </trkpt>
      <trkpt lat="42.7171144076" lon="20.1061247662">
        <ele>1194.58</ele>
        <time>2019-07-12T09:52:59Z</time>
      </trkpt>
      <trkpt lat="42.7170779463" lon="20.1060653385">
        <ele>1195.06</ele>
        <time>2019-07-12T09:53:12Z</time>
      </trkpt>
      <trkpt lat="42.7170740068" lon="20.1060639136">
        <ele>1193.61</ele>
        <time>2019-07-12T09:53:17Z</time>
      </trkpt>
      <trkpt lat="42.7170228772" lon="20.1061019674">
        <ele>1193.13</ele>
        <time>2019-07-12T09:53:48Z</time>
      </trkpt>
      <trkpt lat="42.7170515433" lon="20.1060872152">
        <ele>1193.13</ele>
        <time>2019-07-12T09:54:13Z</time>
      </trkpt>
      <trkpt lat="42.7170984820" lon="20.1060849521">
        <ele>1194.09</ele>
        <time>2019-07-12T09:54:41Z</time>
      </trkpt>
      <trkpt lat="42.7171117254" lon="20.1061091758">
        <ele>1194.09</ele>
        <time>2019-07-12T09:55:18Z</time>
      </trkpt>
      <trkpt lat="42.7170918602" lon="20.1061233412">
        <ele>1194.09</ele>
        <time>2019-07-12T09:56:03Z</time>
      </trkpt>
      <trkpt lat="42.7170911059" lon="20.1061099302">
        <ele>1194.58</ele>
        <time>2019-07-12T09:56:44Z</time>
      </trkpt>
      <trkpt lat="42.7170978952" lon="20.1061681844">
        <ele>1194.58</ele>
        <time>2019-07-12T09:57:16Z</time>
      </trkpt>
      <trkpt lat="42.7170898486" lon="20.1061141212">
        <ele>1194.58</ele>
        <time>2019-07-12T09:57:58Z</time>
      </trkpt>
      <trkpt lat="42.7170867473" lon="20.1061567012">
        <ele>1194.58</ele>
        <time>2019-07-12T09:58:35Z</time>
      </trkpt>
      <trkpt lat="42.7170909382" lon="20.1061208267">
        <ele>1194.58</ele>
        <time>2019-07-12T09:59:05Z</time>
      </trkpt>
      <trkpt lat="42.7169445064" lon="20.1061679330">
        <ele>1194.58</ele>
        <time>2019-07-12T09:59:46Z</time>
      </trkpt>
      <trkpt lat="42.7170243859" lon="20.1061201561">
        <ele>1195.06</ele>
        <time>2019-07-12T10:00:22Z</time>
      </trkpt>
      <trkpt lat="42.7170567401" lon="20.1061204914">
        <ele>1195.06</ele>
        <time>2019-07-12T10:00:56Z</time>
      </trkpt>
      <trkpt lat="42.7170352824" lon="20.1061540190">
        <ele>1195.06</ele>
        <time>2019-07-12T10:01:18Z</time>
      </trkpt>
      <trkpt lat="42.7170253079" lon="20.1061255205">
        <ele>1193.61</ele>
        <time>2019-07-12T10:01:50Z</time>
      </trkpt>
      <trkpt lat="42.7170206979" lon="20.1061120257">
        <ele>1193.61</ele>
        <time>2019-07-12T10:02:29Z</time>
      </trkpt>
      <trkpt lat="42.7169683110" lon="20.1062312163">
        <ele>1193.61</ele>
        <time>2019-07-12T10:03:04Z</time>
      </trkpt>
      <trkpt lat="42.7170257270" lon="20.1061443798">
        <ele>1193.61</ele>
        <time>2019-07-12T10:03:34Z</time>
      </trkpt>
      <trkpt lat="42.7170341089" lon="20.1061109360">
        <ele>1195.06</ele>
        <time>2019-07-12T10:04:09Z</time>
      </trkpt>
      <trkpt lat="42.7170241345" lon="20.1060601417">
        <ele>1195.06</ele>
        <time>2019-07-12T10:04:24Z</time>
      </trkpt>
      <trkpt lat="42.7170517948" lon="20.1060762350">
        <ele>1195.54</ele>
        <time>2019-07-12T10:04:43Z</time>
      </trkpt>
      <trkpt lat="42.7169918641" lon="20.1060146280">
        <ele>1196.50</ele>
        <time>2019-07-12T10:04:56Z</time>
      </trkpt>
      <trkpt lat="42.7169093024" lon="20.1059101056">
        <ele>1198.42</ele>
        <time>2019-07-12T10:05:10Z</time>
      </trkpt>
      <trkpt lat="42.7168524731" lon="20.1057669427">
        <ele>1199.86</ele>
        <time>2019-07-12T10:05:25Z</time>
      </trkpt>
      <trkpt lat="42.7168321051" lon="20.1056333352">
        <ele>1201.79</ele>
        <time>2019-07-12T10:05:39Z</time>
      </trkpt>
      <trkpt lat="42.7168288361" lon="20.1056253724">
        <ele>1201.79</ele>
        <time>2019-07-12T10:05:40Z</time>
      </trkpt>
      <trkpt lat="42.7167882677" lon="20.1054659486">
        <ele>1203.71</ele>
        <time>2019-07-12T10:05:56Z</time>
      </trkpt>
      <trkpt lat="42.7167666424" lon="20.1054014917">
        <ele>1204.19</ele>
        <time>2019-07-12T10:06:02Z</time>
      </trkpt>
      <trkpt lat="42.7167618647" lon="20.1053881645">
        <ele>1204.19</ele>
        <time>2019-07-12T10:06:03Z</time>
      </trkpt>
      <trkpt lat="42.7166860085" lon="20.1052696444">
        <ele>1205.63</ele>
        <time>2019-07-12T10:06:16Z</time>
      </trkpt>
      <trkpt lat="42.7166261617" lon="20.1051635295">
        <ele>1207.07</ele>
        <time>2019-07-12T10:06:26Z</time>
      </trkpt>
      <trkpt lat="42.7165873535" lon="20.1050804649">
        <ele>1208.03</ele>
        <time>2019-07-12T10:06:36Z</time>
      </trkpt>
      <trkpt lat="42.7164964937" lon="20.1050170977">
        <ele>1208.51</ele>
        <time>2019-07-12T10:06:53Z</time>
      </trkpt>
      <trkpt lat="42.7164720185" lon="20.1048466098">
        <ele>1209.00</ele>
        <time>2019-07-12T10:07:07Z</time>
      </trkpt>
      <trkpt lat="42.7164026164" lon="20.1046876051">
        <ele>1209.96</ele>
        <time>2019-07-12T10:07:19Z</time>
      </trkpt>
      <trkpt lat="42.7163896244" lon="20.1045019459">
        <ele>1210.44</ele>
        <time>2019-07-12T10:07:32Z</time>
      </trkpt>
      <trkpt lat="42.7163781412" lon="20.1044020336">
        <ele>1210.44</ele>
        <time>2019-07-12T10:07:37Z</time>
      </trkpt>
      <trkpt lat="42.7163590305" lon="20.1041477267">
        <ele>1210.92</ele>
        <time>2019-07-12T10:07:52Z</time>
      </trkpt>
      <trkpt lat="42.7163569350" lon="20.1041381713">
        <ele>1210.92</ele>
        <time>2019-07-12T10:07:53Z</time>
      </trkpt>
      <trkpt lat="42.7163193002" lon="20.1038859598">
        <ele>1211.40</ele>
        <time>2019-07-12T10:08:06Z</time>
      </trkpt>
      <trkpt lat="42.7162584476" lon="20.1035743207">
        <ele>1211.40</ele>
        <time>2019-07-12T10:08:20Z</time>
      </trkpt>
      <trkpt lat="42.7162552625" lon="20.1034915913">
        <ele>1211.40</ele>
        <time>2019-07-12T10:08:26Z</time>
      </trkpt>
      <trkpt lat="42.7162746247" lon="20.1033952832">
        <ele>1211.40</ele>
        <time>2019-07-12T10:08:33Z</time>
      </trkpt>
      <trkpt lat="42.7162762173" lon="20.1033497695">
        <ele>1211.40</ele>
        <time>2019-07-12T10:08:37Z</time>
      </trkpt>
      <trkpt lat="42.7163281851" lon="20.1031451672">
        <ele>1211.40</ele>
        <time>2019-07-12T10:08:50Z</time>
      </trkpt>
      <trkpt lat="42.7163674962" lon="20.1030655392">
        <ele>1211.40</ele>
        <time>2019-07-12T10:08:57Z</time>
      </trkpt>
      <trkpt lat="42.7164876089" lon="20.1028660499">
        <ele>1212.36</ele>
        <time>2019-07-12T10:09:11Z</time>
      </trkpt>
      <trkpt lat="42.7166281734" lon="20.1027047820">
        <ele>1212.84</ele>
        <time>2019-07-12T10:09:24Z</time>
      </trkpt>
      <trkpt lat="42.7166363876" lon="20.1024518162">
        <ele>1214.28</ele>
        <time>2019-07-12T10:09:40Z</time>
      </trkpt>
      <trkpt lat="42.7167932130" lon="20.1023073960">
        <ele>1214.76</ele>
        <time>2019-07-12T10:09:56Z</time>
      </trkpt>
      <trkpt lat="42.7168512996" lon="20.1022536680">
        <ele>1215.24</ele>
        <time>2019-07-12T10:10:02Z</time>
      </trkpt>
      <trkpt lat="42.7169392258" lon="20.1021095831">
        <ele>1215.72</ele>
        <time>2019-07-12T10:10:15Z</time>
      </trkpt>
      <trkpt lat="42.7170565724" lon="20.1020510774">
        <ele>1217.17</ele>
        <time>2019-07-12T10:10:27Z</time>
      </trkpt>
      <trkpt lat="42.7171382960" lon="20.1019732095">
        <ele>1218.61</ele>
        <time>2019-07-12T10:10:41Z</time>
      </trkpt>
      <trkpt lat="42.7172721550" lon="20.1018288732">
        <ele>1221.01</ele>
        <time>2019-07-12T10:10:55Z</time>
      </trkpt>
      <trkpt lat="42.7172775194" lon="20.1018159650">
        <ele>1221.01</ele>
        <time>2019-07-12T10:10:56Z</time>
      </trkpt>
      <trkpt lat="42.7173191775" lon="20.1017158013">
        <ele>1221.01</ele>
        <time>2019-07-12T10:11:03Z</time>
      </trkpt>
      <trkpt lat="42.7173298225" lon="20.1016707905">
        <ele>1221.49</ele>
        <time>2019-07-12T10:11:06Z</time>
      </trkpt>
      <trkpt lat="42.7173612546" lon="20.1015028171">
        <ele>1222.93</ele>
        <time>2019-07-12T10:11:18Z</time>
      </trkpt>
      <trkpt lat="42.7173691336" lon="20.1013993006">
        <ele>1223.42</ele>
        <time>2019-07-12T10:11:26Z</time>
      </trkpt>
      <trkpt lat="42.7173513640" lon="20.1011997275">
        <ele>1224.86</ele>
        <time>2019-07-12T10:11:40Z</time>
      </trkpt>
      <trkpt lat="42.7173475083" lon="20.1011734083">
        <ele>1224.86</ele>
        <time>2019-07-12T10:11:42Z</time>
      </trkpt>
      <trkpt lat="42.7173153218" lon="20.1010313351">
        <ele>1226.30</ele>
        <time>2019-07-12T10:11:53Z</time>
      </trkpt>
      <trkpt lat="42.7172867395" lon="20.1008998230">
        <ele>1229.18</ele>
        <time>2019-07-12T10:12:05Z</time>
      </trkpt>
      <trkpt lat="42.7172820456" lon="20.1008253917">
        <ele>1229.66</ele>
        <time>2019-07-12T10:12:09Z</time>
      </trkpt>
      <trkpt lat="42.7172935288" lon="20.1006707456">
        <ele>1231.11</ele>
        <time>2019-07-12T10:12:21Z</time>
      </trkpt>
      <trkpt lat="42.7173667029" lon="20.1005658880">
        <ele>1232.55</ele>
        <time>2019-07-12T10:12:33Z</time>
      </trkpt>
      <trkpt lat="42.7173932735" lon="20.1005413290">
        <ele>1232.55</ele>
        <time>2019-07-12T10:12:36Z</time>
      </trkpt>
      <trkpt lat="42.7174177486" lon="20.1005449332">
        <ele>1232.55</ele>
        <time>2019-07-12T10:12:38Z</time>
      </trkpt>
      <trkpt lat="42.7175636776" lon="20.1005332824">
        <ele>1233.51</ele>
        <time>2019-07-12T10:12:48Z</time>
      </trkpt>
      <trkpt lat="42.7175688744" lon="20.1002808195">
        <ele>1234.47</ele>
        <time>2019-07-12T10:13:00Z</time>
      </trkpt>
      <trkpt lat="42.7175449859" lon="20.1001614612">
        <ele>1235.43</ele>
        <time>2019-07-12T10:13:04Z</time>
      </trkpt>
      <trkpt lat="42.7175786812" lon="20.1000026241">
        <ele>1236.39</ele>
        <time>2019-07-12T10:13:14Z</time>
      </trkpt>
      <trkpt lat="42.7175902482" lon="20.0999546796">
        <ele>1236.87</ele>
        <time>2019-07-12T10:13:17Z</time>
      </trkpt>
      <trkpt lat="42.7176274639" lon="20.0998642389">
        <ele>1236.87</ele>
        <time>2019-07-12T10:13:24Z</time>
      </trkpt>
      <trkpt lat="42.7176861372" lon="20.0998100080">
        <ele>1236.87</ele>
        <time>2019-07-12T10:13:29Z</time>
      </trkpt>
      <trkpt lat="42.7178100217" lon="20.0997665059">
        <ele>1237.35</ele>
        <time>2019-07-12T10:13:39Z</time>
      </trkpt>
      <trkpt lat="42.7179153822" lon="20.0996676832">
        <ele>1236.87</ele>
        <time>2019-07-12T10:13:51Z</time>
      </trkpt>
      <trkpt lat="42.7179680206" lon="20.0996171404">
        <ele>1237.35</ele>
        <time>2019-07-12T10:13:58Z</time>
      </trkpt>
      <trkpt lat="42.7181133628" lon="20.0995421223">
        <ele>1237.83</ele>
        <time>2019-07-12T10:14:10Z</time>
      </trkpt>
      <trkpt lat="42.7181820944" lon="20.0994745642">
        <ele>1238.80</ele>
        <time>2019-07-12T10:14:20Z</time>
      </trkpt>
      <trkpt lat="42.7183672506" lon="20.0993802678">
        <ele>1239.28</ele>
        <time>2019-07-12T10:14:33Z</time>
      </trkpt>
      <trkpt lat="42.7184602898" lon="20.0993474107">
        <ele>1240.24</ele>
        <time>2019-07-12T10:14:40Z</time>
      </trkpt>
      <trkpt lat="42.7185595315" lon="20.0992299803">
        <ele>1241.20</ele>
        <time>2019-07-12T10:14:51Z</time>
      </trkpt>
      <trkpt lat="42.7185750380" lon="20.0992052536">
        <ele>1241.68</ele>
        <time>2019-07-12T10:14:53Z</time>
      </trkpt>
      <trkpt lat="42.7186073922" lon="20.0991272181">
        <ele>1242.16</ele>
        <time>2019-07-12T10:14:59Z</time>
      </trkpt>
      <trkpt lat="42.7186477091" lon="20.0990624260">
        <ele>1242.64</ele>
        <time>2019-07-12T10:15:04Z</time>
      </trkpt>
      <trkpt lat="42.7186648082" lon="20.0990201812">
        <ele>1242.64</ele>
        <time>2019-07-12T10:15:07Z</time>
      </trkpt>
      <trkpt lat="42.7186693344" lon="20.0989092048">
        <ele>1243.12</ele>
        <time>2019-07-12T10:15:13Z</time>
      </trkpt>
      <trkpt lat="42.7186736092" lon="20.0988754258">
        <ele>1243.60</ele>
        <time>2019-07-12T10:15:15Z</time>
      </trkpt>
      <trkpt lat="42.7186814882" lon="20.0988292415">
        <ele>1243.60</ele>
        <time>2019-07-12T10:15:18Z</time>
      </trkpt>
      <trkpt lat="42.7186627965" lon="20.0987191033">
        <ele>1245.04</ele>
        <time>2019-07-12T10:15:25Z</time>
      </trkpt>
      <trkpt lat="42.7186860144" lon="20.0986485276">
        <ele>1245.04</ele>
        <time>2019-07-12T10:15:30Z</time>
      </trkpt>
      <trkpt lat="42.7187016048" lon="20.0985183567">
        <ele>1245.04</ele>
        <time>2019-07-12T10:15:38Z</time>
      </trkpt>
      <trkpt lat="42.7187098190" lon="20.0984624494">
        <ele>1245.04</ele>
        <time>2019-07-12T10:15:41Z</time>
      </trkpt>
      <trkpt lat="42.7188095637" lon="20.0983525626">
        <ele>1246.01</ele>
        <time>2019-07-12T10:15:48Z</time>
      </trkpt>
      <trkpt lat="42.7188161016" lon="20.0982852560">
        <ele>1246.01</ele>
        <time>2019-07-12T10:15:52Z</time>
      </trkpt>
      <trkpt lat="42.7188079711" lon="20.0982558355">
        <ele>1246.01</ele>
        <time>2019-07-12T10:15:54Z</time>
      </trkpt>
      <trkpt lat="42.7187875193" lon="20.0981239881">
        <ele>1247.93</ele>
        <time>2019-07-12T10:16:04Z</time>
      </trkpt>
      <trkpt lat="42.7187746949" lon="20.0979893748">
        <ele>1248.41</ele>
        <time>2019-07-12T10:16:14Z</time>
      </trkpt>
      <trkpt lat="42.7187237330" lon="20.0977557711">
        <ele>1249.37</ele>
        <time>2019-07-12T10:16:27Z</time>
      </trkpt>
      <trkpt lat="42.7187029459" lon="20.0976887997">
        <ele>1249.37</ele>
        <time>2019-07-12T10:16:31Z</time>
      </trkpt>
      <trkpt lat="42.7186596952" lon="20.0975370035">
        <ele>1249.85</ele>
        <time>2019-07-12T10:16:39Z</time>
      </trkpt>
      <trkpt lat="42.7186110802" lon="20.0973340776">
        <ele>1251.29</ele>
        <time>2019-07-12T10:16:53Z</time>
      </trkpt>
      <trkpt lat="42.7186066378" lon="20.0972749852">
        <ele>1251.29</ele>
        <time>2019-07-12T10:16:57Z</time>
      </trkpt>
      <trkpt lat="42.7185885329" lon="20.0971493404">
        <ele>1251.29</ele>
        <time>2019-07-12T10:17:03Z</time>
      </trkpt>
      <trkpt lat="42.7185251657" lon="20.0969558023">
        <ele>1252.25</ele>
        <time>2019-07-12T10:17:16Z</time>
      </trkpt>
      <trkpt lat="42.7185083181" lon="20.0969408825">
        <ele>1252.25</ele>
        <time>2019-07-12T10:17:17Z</time>
      </trkpt>
      <trkpt lat="42.7184973378" lon="20.0968930218">
        <ele>1252.25</ele>
        <time>2019-07-12T10:17:20Z</time>
      </trkpt>
      <trkpt lat="42.7185093239" lon="20.0967509486">
        <ele>1253.22</ele>
        <time>2019-07-12T10:17:28Z</time>
      </trkpt>
      <trkpt lat="42.7185042948" lon="20.0966208614">
        <ele>1253.70</ele>
        <time>2019-07-12T10:17:36Z</time>
      </trkpt>
      <trkpt lat="42.7184780594" lon="20.0964479428">
        <ele>1254.18</ele>
        <time>2019-07-12T10:17:46Z</time>
      </trkpt>
      <trkpt lat="42.7185171191" lon="20.0963323563">
        <ele>1254.66</ele>
        <time>2019-07-12T10:17:54Z</time>
      </trkpt>
      <trkpt lat="42.7185940649" lon="20.0962368865">
        <ele>1255.14</ele>
        <time>2019-07-12T10:18:03Z</time>
      </trkpt>
      <trkpt lat="42.7186503913" lon="20.0960212201">
        <ele>1256.58</ele>
        <time>2019-07-12T10:18:16Z</time>
      </trkpt>
      <trkpt lat="42.7186773811" lon="20.0959651452">
        <ele>1257.06</ele>
        <time>2019-07-12T10:18:20Z</time>
      </trkpt>
      <trkpt lat="42.7186922170" lon="20.0959355570">
        <ele>1257.06</ele>
        <time>2019-07-12T10:18:22Z</time>
      </trkpt>
      <trkpt lat="42.7187662292" lon="20.0957464613">
        <ele>1258.02</ele>
        <time>2019-07-12T10:18:35Z</time>
      </trkpt>
      <trkpt lat="42.7188326977" lon="20.0955488160">
        <ele>1258.50</ele>
        <time>2019-07-12T10:18:46Z</time>
      </trkpt>
      <trkpt lat="42.7188728470" lon="20.0953856204">
        <ele>1258.98</ele>
        <time>2019-07-12T10:18:54Z</time>
      </trkpt>
      <trkpt lat="42.7188869286" lon="20.0952967722">
        <ele>1259.46</ele>
        <time>2019-07-12T10:18:59Z</time>
      </trkpt>
      <trkpt lat="42.7189285867" lon="20.0950324070">
        <ele>1260.43</ele>
        <time>2019-07-12T10:19:14Z</time>
      </trkpt>
      <trkpt lat="42.7189303469" lon="20.0949955266">
        <ele>1260.43</ele>
        <time>2019-07-12T10:19:17Z</time>
      </trkpt>
      <trkpt lat="42.7189130802" lon="20.0949486718">
        <ele>1260.43</ele>
        <time>2019-07-12T10:19:21Z</time>
      </trkpt>
      <trkpt lat="42.7188527305" lon="20.0948735699">
        <ele>1260.91</ele>
        <time>2019-07-12T10:19:27Z</time>
      </trkpt>
      <trkpt lat="42.7188300993" lon="20.0948392879">
        <ele>1260.91</ele>
        <time>2019-07-12T10:19:29Z</time>
      </trkpt>
      <trkpt lat="42.7187446039" lon="20.0946452469">
        <ele>1261.87</ele>
        <time>2019-07-12T10:19:39Z</time>
      </trkpt>
      <trkpt lat="42.7187359706" lon="20.0945745036">
        <ele>1262.35</ele>
        <time>2019-07-12T10:19:43Z</time>
      </trkpt>
      <trkpt lat="42.7186955698" lon="20.0944546424">
        <ele>1262.83</ele>
        <time>2019-07-12T10:19:49Z</time>
      </trkpt>
      <trkpt lat="42.7186775487" lon="20.0943232980">
        <ele>1263.31</ele>
        <time>2019-07-12T10:19:55Z</time>
      </trkpt>
      <trkpt lat="42.7186684962" lon="20.0942768622">
        <ele>1263.31</ele>
        <time>2019-07-12T10:19:58Z</time>
      </trkpt>
      <trkpt lat="42.7186788060" lon="20.0942228828">
        <ele>1263.79</ele>
        <time>2019-07-12T10:20:01Z</time>
      </trkpt>
      <trkpt lat="42.7186978329" lon="20.0941388123">
        <ele>1264.27</ele>
        <time>2019-07-12T10:20:09Z</time>
      </trkpt>
      <trkpt lat="42.7186804824" lon="20.0940342061">
        <ele>1264.75</ele>
        <time>2019-07-12T10:20:14Z</time>
      </trkpt>
      <trkpt lat="42.7186817396" lon="20.0940138381">
        <ele>1264.75</ele>
        <time>2019-07-12T10:20:15Z</time>
      </trkpt>
      <trkpt lat="42.7186596952" lon="20.0938798953">
        <ele>1265.23</ele>
        <time>2019-07-12T10:20:21Z</time>
      </trkpt>
      <trkpt lat="42.7186365612" lon="20.0937595312">
        <ele>1266.19</ele>
        <time>2019-07-12T10:20:28Z</time>
      </trkpt>
      <trkpt lat="42.7186456975" lon="20.0936978403">
        <ele>1266.67</ele>
        <time>2019-07-12T10:20:32Z</time>
      </trkpt>
      <trkpt lat="42.7186170314" lon="20.0934619736">
        <ele>1267.64</ele>
        <time>2019-07-12T10:20:45Z</time>
      </trkpt>
      <trkpt lat="42.7186222281" lon="20.0933176372">
        <ele>1268.12</ele>
        <time>2019-07-12T10:20:54Z</time>
      </trkpt>
      <trkpt lat="42.7185981721" lon="20.0930410344">
        <ele>1270.04</ele>
        <time>2019-07-12T10:21:09Z</time>
      </trkpt>
      <trkpt lat="42.7185990103" lon="20.0929443073">
        <ele>1270.04</ele>
        <time>2019-07-12T10:21:15Z</time>
      </trkpt>
      <trkpt lat="42.7185868565" lon="20.0927453209">
        <ele>1271.48</ele>
        <time>2019-07-12T10:21:27Z</time>
      </trkpt>
      <trkpt lat="42.7185906284" lon="20.0926631782">
        <ele>1271.96</ele>
        <time>2019-07-12T10:21:32Z</time>
      </trkpt>
      <trkpt lat="42.7186118346" lon="20.0924621802">
        <ele>1272.44</ele>
        <time>2019-07-12T10:21:44Z</time>
      </trkpt>
      <trkpt lat="42.7186506428" lon="20.0922518782">
        <ele>1273.88</ele>
        <time>2019-07-12T10:21:57Z</time>
      </trkpt>
      <trkpt lat="42.7186538279" lon="20.0922351144">
        <ele>1273.88</ele>
        <time>2019-07-12T10:21:58Z</time>
      </trkpt>
      <trkpt lat="42.7186726034" lon="20.0921681430">
        <ele>1274.36</ele>
        <time>2019-07-12T10:22:02Z</time>
      </trkpt>
      <trkpt lat="42.7187100705" lon="20.0921206176">
        <ele>1274.36</ele>
        <time>2019-07-12T10:22:06Z</time>
      </trkpt>
      <trkpt lat="42.7187376469" lon="20.0920303445">
        <ele>1274.85</ele>
        <time>2019-07-12T10:22:11Z</time>
      </trkpt>
      <trkpt lat="42.7188301831" lon="20.0919052865">
        <ele>1274.85</ele>
        <time>2019-07-12T10:22:22Z</time>
      </trkpt>
      <trkpt lat="42.7188679855" lon="20.0918161031">
        <ele>1275.33</ele>
        <time>2019-07-12T10:22:28Z</time>
      </trkpt>
      <trkpt lat="42.7188754454" lon="20.0917579327">
        <ele>1275.33</ele>
        <time>2019-07-12T10:22:31Z</time>
      </trkpt>
      <trkpt lat="42.7188779600" lon="20.0917149335">
        <ele>1275.81</ele>
        <time>2019-07-12T10:22:33Z</time>
      </trkpt>
      <trkpt lat="42.7189316880" lon="20.0915638078">
        <ele>1277.25</ele>
        <time>2019-07-12T10:22:43Z</time>
      </trkpt>
      <trkpt lat="42.7189506311" lon="20.0914668292">
        <ele>1277.25</ele>
        <time>2019-07-12T10:22:48Z</time>
      </trkpt>
      <trkpt lat="42.7189725917" lon="20.0914001931">
        <ele>1277.73</ele>
        <time>2019-07-12T10:22:52Z</time>
      </trkpt>
      <trkpt lat="42.7190037724" lon="20.0913399272">
        <ele>1277.73</ele>
        <time>2019-07-12T10:22:56Z</time>
      </trkpt>
      <trkpt lat="42.7190377191" lon="20.0912642386">
        <ele>1278.21</ele>
        <time>2019-07-12T10:23:01Z</time>
      </trkpt>
      <trkpt lat="42.7190563269" lon="20.0912188087">
        <ele>1278.21</ele>
        <time>2019-07-12T10:23:04Z</time>
      </trkpt>
      <trkpt lat="42.7190946322" lon="20.0911827665">
        <ele>1278.69</ele>
        <time>2019-07-12T10:23:09Z</time>
      </trkpt>
      <trkpt lat="42.7191070374" lon="20.0911525078">
        <ele>1278.69</ele>
        <time>2019-07-12T10:23:11Z</time>
      </trkpt>
      <trkpt lat="42.7191552334" lon="20.0911113527">
        <ele>1279.17</ele>
        <time>2019-07-12T10:23:15Z</time>
      </trkpt>
      <trkpt lat="42.7192926127" lon="20.0909241010">
        <ele>1279.65</ele>
        <time>2019-07-12T10:23:29Z</time>
      </trkpt>
      <trkpt lat="42.7193182614" lon="20.0908705406">
        <ele>1280.13</ele>
        <time>2019-07-12T10:23:32Z</time>
      </trkpt>
      <trkpt lat="42.7193581592" lon="20.0908369292">
        <ele>1280.61</ele>
        <time>2019-07-12T10:23:36Z</time>
      </trkpt>
      <trkpt lat="42.7195080277" lon="20.0907892361">
        <ele>1281.57</ele>
        <time>2019-07-12T10:23:50Z</time>
      </trkpt>
      <trkpt lat="42.7196482569" lon="20.0907339994">
        <ele>1282.54</ele>
        <time>2019-07-12T10:24:02Z</time>
      </trkpt>
      <trkpt lat="42.7196598239" lon="20.0907249469">
        <ele>1282.54</ele>
        <time>2019-07-12T10:24:03Z</time>
      </trkpt>
      <trkpt lat="42.7198060043" lon="20.0906392839">
        <ele>1283.02</ele>
        <time>2019-07-12T10:24:15Z</time>
      </trkpt>
      <trkpt lat="42.7198116202" lon="20.0906229392">
        <ele>1283.02</ele>
        <time>2019-07-12T10:24:16Z</time>
      </trkpt>
      <trkpt lat="42.7198277973" lon="20.0906067621">
        <ele>1283.50</ele>
        <time>2019-07-12T10:24:18Z</time>
      </trkpt>
      <trkpt lat="42.7200204134" lon="20.0905071013">
        <ele>1283.98</ele>
        <time>2019-07-12T10:24:33Z</time>
      </trkpt>
      <trkpt lat="42.7201269474" lon="20.0904305745">
        <ele>1284.94</ele>
        <time>2019-07-12T10:24:43Z</time>
      </trkpt>
      <trkpt lat="42.7201407775" lon="20.0904009026">
        <ele>1284.94</ele>
        <time>2019-07-12T10:24:45Z</time>
      </trkpt>
      <trkpt lat="42.7202199865" lon="20.0902512018">
        <ele>1285.42</ele>
        <time>2019-07-12T10:24:54Z</time>
      </trkpt>
      <trkpt lat="42.7202402707" lon="20.0902248826">
        <ele>1285.42</ele>
        <time>2019-07-12T10:24:56Z</time>
      </trkpt>
      <trkpt lat="42.7202903107" lon="20.0901222881">
        <ele>1285.90</ele>
        <time>2019-07-12T10:25:03Z</time>
      </trkpt>
      <trkpt lat="42.7203329746" lon="20.0900289137">
        <ele>1286.38</ele>
        <time>2019-07-12T10:25:09Z</time>
      </trkpt>
      <trkpt lat="42.7203694358" lon="20.0898590125">
        <ele>1287.34</ele>
        <time>2019-07-12T10:25:19Z</time>
      </trkpt>
      <trkpt lat="42.7203754708" lon="20.0897818990">
        <ele>1287.82</ele>
        <time>2019-07-12T10:25:24Z</time>
      </trkpt>
      <trkpt lat="42.7203756385" lon="20.0897426717">
        <ele>1287.82</ele>
        <time>2019-07-12T10:25:26Z</time>
      </trkpt>
      <trkpt lat="42.7203861997" lon="20.0895504747">
        <ele>1288.30</ele>
        <time>2019-07-12T10:25:37Z</time>
      </trkpt>
      <trkpt lat="42.7203996107" lon="20.0893341377">
        <ele>1288.30</ele>
        <time>2019-07-12T10:25:50Z</time>
      </trkpt>
      <trkpt lat="42.7203939110" lon="20.0892837625">
        <ele>1288.78</ele>
        <time>2019-07-12T10:25:53Z</time>
      </trkpt>
      <trkpt lat="42.7203852776" lon="20.0891529210">
        <ele>1289.27</ele>
        <time>2019-07-12T10:26:01Z</time>
      </trkpt>
      <trkpt lat="42.7203761414" lon="20.0891245063">
        <ele>1289.27</ele>
        <time>2019-07-12T10:26:03Z</time>
      </trkpt>
      <trkpt lat="42.7203622274" lon="20.0890526734">
        <ele>1289.75</ele>
        <time>2019-07-12T10:26:08Z</time>
      </trkpt>
      <trkpt lat="42.7203224972" lon="20.0888406113">
        <ele>1290.71</ele>
        <time>2019-07-12T10:26:20Z</time>
      </trkpt>
      <trkpt lat="42.7203181386" lon="20.0888307206">
        <ele>1291.19</ele>
        <time>2019-07-12T10:26:21Z</time>
      </trkpt>
      <trkpt lat="42.7203195635" lon="20.0887853745">
        <ele>1291.19</ele>
        <time>2019-07-12T10:26:24Z</time>
      </trkpt>
      <trkpt lat="42.7203063201" lon="20.0887479074">
        <ele>1291.19</ele>
        <time>2019-07-12T10:26:26Z</time>
      </trkpt>
      <trkpt lat="42.7203339804" lon="20.0885184109">
        <ele>1292.15</ele>
        <time>2019-07-12T10:26:41Z</time>
      </trkpt>
      <trkpt lat="42.7203723695" lon="20.0883517787">
        <ele>1292.63</ele>
        <time>2019-07-12T10:26:52Z</time>
      </trkpt>
      <trkpt lat="42.7204049751" lon="20.0883188378">
        <ele>1292.63</ele>
        <time>2019-07-12T10:26:55Z</time>
      </trkpt>
      <trkpt lat="42.7204462141" lon="20.0882537942">
        <ele>1293.59</ele>
        <time>2019-07-12T10:26:59Z</time>
      </trkpt>
      <trkpt lat="42.7204635646" lon="20.0882271398">
        <ele>1293.11</ele>
        <time>2019-07-12T10:27:01Z</time>
      </trkpt>
      <trkpt lat="42.7205049712" lon="20.0881716516">
        <ele>1294.07</ele>
        <time>2019-07-12T10:27:05Z</time>
      </trkpt>
      <trkpt lat="42.7205320448" lon="20.0881361961">
        <ele>1294.07</ele>
        <time>2019-07-12T10:27:08Z</time>
      </trkpt>
      <trkpt lat="42.7205986809" lon="20.0880170055">
        <ele>1294.55</ele>
        <time>2019-07-12T10:27:19Z</time>
      </trkpt>
      <trkpt lat="42.7206158638" lon="20.0879328512">
        <ele>1295.03</ele>
        <time>2019-07-12T10:27:24Z</time>
      </trkpt>
      <trkpt lat="42.7206797339" lon="20.0877729245">
        <ele>1296.48</ele>
        <time>2019-07-12T10:27:36Z</time>
      </trkpt>
      <trkpt lat="42.7207107469" lon="20.0877250638">
        <ele>1296.48</ele>
        <time>2019-07-12T10:27:40Z</time>
      </trkpt>
      <trkpt lat="42.7207202185" lon="20.0876788795">
        <ele>1296.48</ele>
        <time>2019-07-12T10:27:42Z</time>
      </trkpt>
      <trkpt lat="42.7207576856" lon="20.0876227207">
        <ele>1296.96</ele>
        <time>2019-07-12T10:27:45Z</time>
      </trkpt>
      <trkpt lat="42.7208374813" lon="20.0875609461">
        <ele>1297.44</ele>
        <time>2019-07-12T10:27:52Z</time>
      </trkpt>
      <trkpt lat="42.7208539937" lon="20.0875087269">
        <ele>1297.92</ele>
        <time>2019-07-12T10:27:55Z</time>
      </trkpt>
      <trkpt lat="42.7209488768" lon="20.0871987641">
        <ele>1298.88</ele>
        <time>2019-07-12T10:28:12Z</time>
      </trkpt>
      <trkpt lat="42.7209990844" lon="20.0870770589">
        <ele>1299.84</ele>
        <time>2019-07-12T10:28:22Z</time>
      </trkpt>
      <trkpt lat="42.7210498787" lon="20.0869400147">
        <ele>1299.84</ele>
        <time>2019-07-12T10:28:30Z</time>
      </trkpt>
      <trkpt lat="42.7211225498" lon="20.0867992826">
        <ele>1301.28</ele>
        <time>2019-07-12T10:28:41Z</time>
      </trkpt>
      <trkpt lat="42.7212074585" lon="20.0866509229">
        <ele>1302.72</ele>
        <time>2019-07-12T10:28:54Z</time>
      </trkpt>
      <trkpt lat="42.7212863322" lon="20.0865728874">
        <ele>1303.69</ele>
        <time>2019-07-12T10:29:05Z</time>
      </trkpt>
      <trkpt lat="42.7213685587" lon="20.0864790101">
        <ele>1304.65</ele>
        <time>2019-07-12T10:29:17Z</time>
      </trkpt>
      <trkpt lat="42.7214589156" lon="20.0864712149">
        <ele>1305.13</ele>
        <time>2019-07-12T10:29:26Z</time>
      </trkpt>
      <trkpt lat="42.7216502745" lon="20.0864100270">
        <ele>1307.53</ele>
        <time>2019-07-12T10:29:40Z</time>
      </trkpt>
      <trkpt lat="42.7216574829" lon="20.0863957778">
        <ele>1307.53</ele>
        <time>2019-07-12T10:29:41Z</time>
      </trkpt>
      <trkpt lat="42.7216826286" lon="20.0863699615">
        <ele>1308.01</ele>
        <time>2019-07-12T10:29:44Z</time>
      </trkpt>
      <trkpt lat="42.7217387874" lon="20.0862237811">
        <ele>1308.97</ele>
        <time>2019-07-12T10:29:54Z</time>
      </trkpt>
      <trkpt lat="42.7217453253" lon="20.0861744117">
        <ele>1309.45</ele>
        <time>2019-07-12T10:29:58Z</time>
      </trkpt>
      <trkpt lat="42.7217511926" lon="20.0861372799">
        <ele>1309.93</ele>
        <time>2019-07-12T10:30:01Z</time>
      </trkpt>
      <trkpt lat="42.7217532042" lon="20.0860972144">
        <ele>1309.93</ele>
        <time>2019-07-12T10:30:04Z</time>
      </trkpt>
      <trkpt lat="42.7217493486" lon="20.0860382896">
        <ele>1310.41</ele>
        <time>2019-07-12T10:30:08Z</time>
      </trkpt>
      <trkpt lat="42.7217490133" lon="20.0859289058">
        <ele>1311.86</ele>
        <time>2019-07-12T10:30:17Z</time>
      </trkpt>
      <trkpt lat="42.7217552997" lon="20.0859018322">
        <ele>1312.34</ele>
        <time>2019-07-12T10:30:19Z</time>
      </trkpt>
      <trkpt lat="42.7217445709" lon="20.0857866649">
        <ele>1313.78</ele>
        <time>2019-07-12T10:30:28Z</time>
      </trkpt>
      <trkpt lat="42.7217077743" lon="20.0856150873">
        <ele>1315.22</ele>
        <time>2019-07-12T10:30:39Z</time>
      </trkpt>
      <trkpt lat="42.7217079420" lon="20.0855876785">
        <ele>1315.22</ele>
        <time>2019-07-12T10:30:41Z</time>
      </trkpt>
      <trkpt lat="42.7216935251" lon="20.0854135025">
        <ele>1317.62</ele>
        <time>2019-07-12T10:30:55Z</time>
      </trkpt>
      <trkpt lat="42.7216938604" lon="20.0853861775">
        <ele>1318.10</ele>
        <time>2019-07-12T10:30:57Z</time>
      </trkpt>
      <trkpt lat="42.7216773480" lon="20.0852379855">
        <ele>1320.03</ele>
        <time>2019-07-12T10:31:08Z</time>
      </trkpt>
      <trkpt lat="42.7216923516" lon="20.0851227343">
        <ele>1321.95</ele>
        <time>2019-07-12T10:31:17Z</time>
      </trkpt>
      <trkpt lat="42.7217588201" lon="20.0849864446">
        <ele>1323.87</ele>
        <time>2019-07-12T10:31:30Z</time>
      </trkpt>
      <trkpt lat="42.7217734046" lon="20.0849597901">
        <ele>1323.87</ele>
        <time>2019-07-12T10:31:32Z</time>
      </trkpt>
      <trkpt lat="42.7218420524" lon="20.0848156214">
        <ele>1325.31</ele>
        <time>2019-07-12T10:31:43Z</time>
      </trkpt>
      <trkpt lat="42.7218523622" lon="20.0847758073">
        <ele>1325.80</ele>
        <time>2019-07-12T10:31:46Z</time>
      </trkpt>
      <trkpt lat="42.7219293080" lon="20.0846336503">
        <ele>1327.72</ele>
        <time>2019-07-12T10:31:58Z</time>
      </trkpt>
      <trkpt lat="42.7219506819" lon="20.0845499989">
        <ele>1328.68</ele>
        <time>2019-07-12T10:32:05Z</time>
      </trkpt>
      <trkpt lat="42.7219457366" lon="20.0844901521">
        <ele>1329.16</ele>
        <time>2019-07-12T10:32:08Z</time>
      </trkpt>
      <trkpt lat="42.7219220158" lon="20.0843094382">
        <ele>1331.08</ele>
        <time>2019-07-12T10:32:22Z</time>
      </trkpt>
      <trkpt lat="42.7219171543" lon="20.0842281338">
        <ele>1332.04</ele>
        <time>2019-07-12T10:32:28Z</time>
      </trkpt>
      <trkpt lat="42.7219060063" lon="20.0841762498">
        <ele>1332.52</ele>
        <time>2019-07-12T10:32:31Z</time>
      </trkpt>
      <trkpt lat="42.7218540385" lon="20.0839941949">
        <ele>1334.45</ele>
        <time>2019-07-12T10:32:44Z</time>
      </trkpt>
      <trkpt lat="42.7218098659" lon="20.0838180911">
        <ele>1336.37</ele>
        <time>2019-07-12T10:32:58Z</time>
      </trkpt>
      <trkpt lat="42.7217720635" lon="20.0836615171">
        <ele>1338.29</ele>
        <time>2019-07-12T10:33:10Z</time>
      </trkpt>
      <trkpt lat="42.7217715606" lon="20.0835180189">
        <ele>1340.22</ele>
        <time>2019-07-12T10:33:20Z</time>
      </trkpt>
      <trkpt lat="42.7217616700" lon="20.0834720023">
        <ele>1340.22</ele>
        <time>2019-07-12T10:33:23Z</time>
      </trkpt>
      <trkpt lat="42.7217464149" lon="20.0832755305">
        <ele>1342.14</ele>
        <time>2019-07-12T10:33:36Z</time>
      </trkpt>
      <trkpt lat="42.7217396256" lon="20.0830886979">
        <ele>1343.10</ele>
        <time>2019-07-12T10:33:48Z</time>
      </trkpt>
      <trkpt lat="42.7217334229" lon="20.0830641389">
        <ele>1343.58</ele>
        <time>2019-07-12T10:33:49Z</time>
      </trkpt>
      <trkpt lat="42.7217373624" lon="20.0828658231">
        <ele>1345.98</ele>
        <time>2019-07-12T10:34:04Z</time>
      </trkpt>
      <trkpt lat="42.7217706386" lon="20.0827954989">
        <ele>1346.94</ele>
        <time>2019-07-12T10:34:10Z</time>
      </trkpt>
      <trkpt lat="42.7217491809" lon="20.0826177187">
        <ele>1348.87</ele>
        <time>2019-07-12T10:34:23Z</time>
      </trkpt>
      <trkpt lat="42.7216339298" lon="20.0824274495">
        <ele>1350.79</ele>
        <time>2019-07-12T10:34:36Z</time>
      </trkpt>
      <trkpt lat="42.7215687186" lon="20.0823044032">
        <ele>1351.75</ele>
        <time>2019-07-12T10:34:45Z</time>
      </trkpt>
      <trkpt lat="42.7215048485" lon="20.0820620824">
        <ele>1353.67</ele>
        <time>2019-07-12T10:35:00Z</time>
      </trkpt>
      <trkpt lat="42.7214299981" lon="20.0818395428">
        <ele>1356.08</ele>
        <time>2019-07-12T10:35:15Z</time>
      </trkpt>
      <trkpt lat="42.7214042656" lon="20.0817919336">
        <ele>1357.04</ele>
        <time>2019-07-12T10:35:19Z</time>
      </trkpt>
      <trkpt lat="42.7213808801" lon="20.0817651954">
        <ele>1357.04</ele>
        <time>2019-07-12T10:35:22Z</time>
      </trkpt>
      <trkpt lat="42.7213403117" lon="20.0817714818">
        <ele>1358.48</ele>
        <time>2019-07-12T10:35:27Z</time>
      </trkpt>
      <trkpt lat="42.7212826442" lon="20.0818446558">
        <ele>1359.44</ele>
        <time>2019-07-12T10:35:34Z</time>
      </trkpt>
      <trkpt lat="42.7212257311" lon="20.0820132159">
        <ele>1361.36</ele>
        <time>2019-07-12T10:35:47Z</time>
      </trkpt>
      <trkpt lat="42.7212124038" lon="20.0821237732">
        <ele>1362.81</ele>
        <time>2019-07-12T10:35:56Z</time>
      </trkpt>
      <trkpt lat="42.7211998310" lon="20.0821788423">
        <ele>1363.29</ele>
        <time>2019-07-12T10:36:00Z</time>
      </trkpt>
      <trkpt lat="42.7211714163" lon="20.0823955145">
        <ele>1365.21</ele>
        <time>2019-07-12T10:36:14Z</time>
      </trkpt>
      <trkpt lat="42.7210965659" lon="20.0825882982">
        <ele>1367.13</ele>
        <time>2019-07-12T10:36:27Z</time>
      </trkpt>
      <trkpt lat="42.7210473642" lon="20.0827251747">
        <ele>1368.57</ele>
        <time>2019-07-12T10:36:39Z</time>
      </trkpt>
      <trkpt lat="42.7209807280" lon="20.0829026196">
        <ele>1370.98</ele>
        <time>2019-07-12T10:36:52Z</time>
      </trkpt>
      <trkpt lat="42.7209104877" lon="20.0829657353">
        <ele>1371.94</ele>
        <time>2019-07-12T10:37:01Z</time>
      </trkpt>
      <trkpt lat="42.7208375651" lon="20.0829509832">
        <ele>1372.42</ele>
        <time>2019-07-12T10:37:09Z</time>
      </trkpt>
      <trkpt lat="42.7207820769" lon="20.0829148572">
        <ele>1373.86</ele>
        <time>2019-07-12T10:37:15Z</time>
      </trkpt>
      <trkpt lat="42.7206098288" lon="20.0828017853">
        <ele>1374.34</ele>
        <time>2019-07-12T10:37:29Z</time>
      </trkpt>
      <trkpt lat="42.7204841841" lon="20.0827260129">
        <ele>1374.82</ele>
        <time>2019-07-12T10:37:39Z</time>
      </trkpt>
      <trkpt lat="42.7202836890" lon="20.0825979374">
        <ele>1374.82</ele>
        <time>2019-07-12T10:37:56Z</time>
      </trkpt>
      <trkpt lat="42.7200831100" lon="20.0826113485">
        <ele>1374.82</ele>
        <time>2019-07-12T10:38:11Z</time>
      </trkpt>
      <trkpt lat="42.7200206649" lon="20.0826312136">
        <ele>1374.82</ele>
        <time>2019-07-12T10:38:16Z</time>
      </trkpt>
      <trkpt lat="42.7198559605" lon="20.0826932397">
        <ele>1374.82</ele>
        <time>2019-07-12T10:38:28Z</time>
      </trkpt>
      <trkpt lat="42.7196668647" lon="20.0828017015">
        <ele>1374.82</ele>
        <time>2019-07-12T10:38:44Z</time>
      </trkpt>
      <trkpt lat="42.7194664534" lon="20.0828792341">
        <ele>1374.82</ele>
        <time>2019-07-12T10:39:00Z</time>
      </trkpt>
      <trkpt lat="42.7192534693" lon="20.0829367340">
        <ele>1374.82</ele>
        <time>2019-07-12T10:39:16Z</time>
      </trkpt>
      <trkpt lat="42.7191466000" lon="20.0829990115">
        <ele>1374.34</ele>
        <time>2019-07-12T10:39:25Z</time>
      </trkpt>
      <trkpt lat="42.7189253177" lon="20.0831312779">
        <ele>1375.30</ele>
        <time>2019-07-12T10:39:43Z</time>
      </trkpt>
      <trkpt lat="42.7188032772" lon="20.0831912085">
        <ele>1375.30</ele>
        <time>2019-07-12T10:39:52Z</time>
      </trkpt>
      <trkpt lat="42.7187504712" lon="20.0832135044">
        <ele>1375.30</ele>
        <time>2019-07-12T10:39:56Z</time>
      </trkpt>
      <trkpt lat="42.7186166123" lon="20.0832832418">
        <ele>1376.26</ele>
        <time>2019-07-12T10:40:07Z</time>
      </trkpt>
      <trkpt lat="42.7184314560" lon="20.0833677314">
        <ele>1376.75</ele>
        <time>2019-07-12T10:40:21Z</time>
      </trkpt>
      <trkpt lat="42.7182316314" lon="20.0834476948">
        <ele>1377.71</ele>
        <time>2019-07-12T10:40:36Z</time>
      </trkpt>
      <trkpt lat="42.7180304658" lon="20.0835410692">
        <ele>1378.67</ele>
        <time>2019-07-12T10:40:52Z</time>
      </trkpt>
      <trkpt lat="42.7178638335" lon="20.0836705696">
        <ele>1379.15</ele>
        <time>2019-07-12T10:41:07Z</time>
      </trkpt>
      <trkpt lat="42.7176894899" lon="20.0837676320">
        <ele>1380.59</ele>
        <time>2019-07-12T10:41:24Z</time>
      </trkpt>
      <trkpt lat="42.7175401244" lon="20.0838176720">
        <ele>1382.99</ele>
        <time>2019-07-12T10:41:39Z</time>
      </trkpt>
      <trkpt lat="42.7173987217" lon="20.0838455837">
        <ele>1384.92</ele>
        <time>2019-07-12T10:41:53Z</time>
      </trkpt>
      <trkpt lat="42.7172600850" lon="20.0838921871">
        <ele>1387.32</ele>
        <time>2019-07-12T10:42:07Z</time>
      </trkpt>
      <trkpt lat="42.7171200234" lon="20.0839499384">
        <ele>1388.28</ele>
        <time>2019-07-12T10:42:21Z</time>
      </trkpt>
      <trkpt lat="42.7169833984" lon="20.0839720666">
        <ele>1390.20</ele>
        <time>2019-07-12T10:42:34Z</time>
      </trkpt>
      <trkpt lat="42.7168429177" lon="20.0840107910">
        <ele>1392.13</ele>
        <time>2019-07-12T10:42:49Z</time>
      </trkpt>
      <trkpt lat="42.7166931331" lon="20.0840281416">
        <ele>1394.05</ele>
        <time>2019-07-12T10:43:04Z</time>
      </trkpt>
      <trkpt lat="42.7164805681" lon="20.0839560572">
        <ele>1395.97</ele>
        <time>2019-07-12T10:43:22Z</time>
      </trkpt>
      <trkpt lat="42.7164058853" lon="20.0838050991">
        <ele>1396.45</ele>
        <time>2019-07-12T10:43:38Z</time>
      </trkpt>
      <trkpt lat="42.7164101601" lon="20.0837948732">
        <ele>1396.45</ele>
        <time>2019-07-12T10:43:39Z</time>
      </trkpt>
      <trkpt lat="42.7163993474" lon="20.0835721660">
        <ele>1396.93</ele>
        <time>2019-07-12T10:43:54Z</time>
      </trkpt>
      <trkpt lat="42.7163912170" lon="20.0835969765">
        <ele>1396.93</ele>
        <time>2019-07-12T10:43:59Z</time>
      </trkpt>
      <trkpt lat="42.7164052986" lon="20.0837459229">
        <ele>1395.97</ele>
        <time>2019-07-12T10:44:09Z</time>
      </trkpt>
      <trkpt lat="42.7163936477" lon="20.0837631058">
        <ele>1395.49</ele>
        <time>2019-07-12T10:44:10Z</time>
      </trkpt>
      <trkpt lat="42.7161846031" lon="20.0836753473">
        <ele>1395.97</ele>
        <time>2019-07-12T10:44:27Z</time>
      </trkpt>
      <trkpt lat="42.7159726247" lon="20.0837180950">
        <ele>1392.61</ele>
        <time>2019-07-12T10:44:41Z</time>
      </trkpt>
      <trkpt lat="42.7157713752" lon="20.0838622637">
        <ele>1389.72</ele>
        <time>2019-07-12T10:44:57Z</time>
      </trkpt>
      <trkpt lat="42.7155885659" lon="20.0839612540">
        <ele>1388.28</ele>
        <time>2019-07-12T10:45:12Z</time>
      </trkpt>
      <trkpt lat="42.7153838798" lon="20.0840321649">
        <ele>1386.36</ele>
        <time>2019-07-12T10:45:28Z</time>
      </trkpt>
      <trkpt lat="42.7151646931" lon="20.0841417164">
        <ele>1384.44</ele>
        <time>2019-07-12T10:45:45Z</time>
      </trkpt>
      <trkpt lat="42.7149947081" lon="20.0840473361">
        <ele>1383.47</ele>
        <time>2019-07-12T10:45:58Z</time>
      </trkpt>
      <trkpt lat="42.7148585021" lon="20.0837849826">
        <ele>1382.99</ele>
        <time>2019-07-12T10:46:15Z</time>
      </trkpt>
      <trkpt lat="42.7147886809" lon="20.0834999979">
        <ele>1381.55</ele>
        <time>2019-07-12T10:46:31Z</time>
      </trkpt>
      <trkpt lat="42.7147279121" lon="20.0831911247">
        <ele>1380.59</ele>
        <time>2019-07-12T10:46:48Z</time>
      </trkpt>
      <trkpt lat="42.7146768663" lon="20.0828965008">
        <ele>1380.59</ele>
        <time>2019-07-12T10:47:04Z</time>
      </trkpt>
      <trkpt lat="42.7146353759" lon="20.0825747196">
        <ele>1380.11</ele>
        <time>2019-07-12T10:47:22Z</time>
      </trkpt>
      <trkpt lat="42.7146086376" lon="20.0822120346">
        <ele>1379.63</ele>
        <time>2019-07-12T10:47:41Z</time>
      </trkpt>
      <trkpt lat="42.7145566698" lon="20.0818830449">
        <ele>1378.67</ele>
        <time>2019-07-12T10:47:59Z</time>
      </trkpt>
      <trkpt lat="42.7145308536" lon="20.0816481002">
        <ele>1378.67</ele>
        <time>2019-07-12T10:48:14Z</time>
      </trkpt>
      <trkpt lat="42.7145297639" lon="20.0816143211">
        <ele>1380.11</ele>
        <time>2019-07-12T10:48:16Z</time>
      </trkpt>
      <trkpt lat="42.7145249862" lon="20.0814779475">
        <ele>1381.07</ele>
        <time>2019-07-12T10:48:25Z</time>
      </trkpt>
      <trkpt lat="42.7145658899" lon="20.0812963955">
        <ele>1382.51</ele>
        <time>2019-07-12T10:48:38Z</time>
      </trkpt>
      <trkpt lat="42.7146273293" lon="20.0811323617">
        <ele>1384.92</ele>
        <time>2019-07-12T10:48:51Z</time>
      </trkpt>
      <trkpt lat="42.7146925405" lon="20.0809332915">
        <ele>1387.80</ele>
        <time>2019-07-12T10:49:07Z</time>
      </trkpt>
      <trkpt lat="42.7146704961" lon="20.0808495563">
        <ele>1388.28</ele>
        <time>2019-07-12T10:49:21Z</time>
      </trkpt>
      <trkpt lat="42.7146802191" lon="20.0808348041">
        <ele>1388.28</ele>
        <time>2019-07-12T10:49:26Z</time>
      </trkpt>
      <trkpt lat="42.7146727592" lon="20.0807966664">
        <ele>1388.28</ele>
        <time>2019-07-12T10:49:44Z</time>
      </trkpt>
      <trkpt lat="42.7145794686" lon="20.0806679204">
        <ele>1388.28</ele>
        <time>2019-07-12T10:49:58Z</time>
      </trkpt>
      <trkpt lat="42.7144148480" lon="20.0805469695">
        <ele>1387.32</ele>
        <time>2019-07-12T10:50:13Z</time>
      </trkpt>
      <trkpt lat="42.7142519876" lon="20.0803839415">
        <ele>1387.32</ele>
        <time>2019-07-12T10:50:29Z</time>
      </trkpt>
      <trkpt lat="42.7140820865" lon="20.0802400243">
        <ele>1387.32</ele>
        <time>2019-07-12T10:50:44Z</time>
      </trkpt>
      <trkpt lat="42.7140623890" lon="20.0802252721">
        <ele>1387.32</ele>
        <time>2019-07-12T10:50:46Z</time>
      </trkpt>
      <trkpt lat="42.7140079066" lon="20.0801496673">
        <ele>1387.32</ele>
        <time>2019-07-12T10:50:52Z</time>
      </trkpt>
      <trkpt lat="42.7138684317" lon="20.0799567997">
        <ele>1387.32</ele>
        <time>2019-07-12T10:51:07Z</time>
      </trkpt>
      <trkpt lat="42.7137307171" lon="20.0797338411">
        <ele>1388.28</ele>
        <time>2019-07-12T10:51:24Z</time>
      </trkpt>
      <trkpt lat="42.7136251051" lon="20.0794493593">
        <ele>1388.28</ele>
        <time>2019-07-12T10:51:42Z</time>
      </trkpt>
      <trkpt lat="42.7135386877" lon="20.0791667216">
        <ele>1389.24</ele>
        <time>2019-07-12T10:51:59Z</time>
      </trkpt>
      <trkpt lat="42.7135157213" lon="20.0790834054">
        <ele>1389.72</ele>
        <time>2019-07-12T10:52:04Z</time>
      </trkpt>
      <trkpt lat="42.7134166472" lon="20.0788068026">
        <ele>1390.20</ele>
        <time>2019-07-12T10:52:21Z</time>
      </trkpt>
      <trkpt lat="42.7132907510" lon="20.0785553455">
        <ele>1390.20</ele>
        <time>2019-07-12T10:52:38Z</time>
      </trkpt>
      <trkpt lat="42.7131585684" lon="20.0783532578">
        <ele>1390.68</ele>
        <time>2019-07-12T10:52:54Z</time>
      </trkpt>
      <trkpt lat="42.7131399605" lon="20.0780774932">
        <ele>1391.65</ele>
        <time>2019-07-12T10:53:10Z</time>
      </trkpt>
      <trkpt lat="42.7131211013" lon="20.0778701250">
        <ele>1392.61</ele>
        <time>2019-07-12T10:53:24Z</time>
      </trkpt>
      <trkpt lat="42.7130940277" lon="20.0776697136">
        <ele>1393.57</ele>
        <time>2019-07-12T10:53:38Z</time>
      </trkpt>
      <trkpt lat="42.7130582370" lon="20.0775471702">
        <ele>1395.49</ele>
        <time>2019-07-12T10:53:50Z</time>
      </trkpt>
      <trkpt lat="42.7129563130" lon="20.0774365291">
        <ele>1396.45</ele>
        <time>2019-07-12T10:54:02Z</time>
      </trkpt>
      <trkpt lat="42.7128050197" lon="20.0774536282">
        <ele>1397.41</ele>
        <time>2019-07-12T10:54:15Z</time>
      </trkpt>
      <trkpt lat="42.7127389703" lon="20.0775621738">
        <ele>1397.41</ele>
        <time>2019-07-12T10:54:23Z</time>
      </trkpt>
      <trkpt lat="42.7126206178" lon="20.0776433945">
        <ele>1397.41</ele>
        <time>2019-07-12T10:54:34Z</time>
      </trkpt>
      <trkpt lat="42.7124687377" lon="20.0775080267">
        <ele>1397.41</ele>
        <time>2019-07-12T10:54:49Z</time>
      </trkpt>
      <trkpt lat="42.7123257425" lon="20.0774035044">
        <ele>1399.82</ele>
        <time>2019-07-12T10:55:03Z</time>
      </trkpt>
      <trkpt lat="42.7122039534" lon="20.0773451664">
        <ele>1400.78</ele>
        <time>2019-07-12T10:55:15Z</time>
      </trkpt>
      <trkpt lat="42.7120732795" lon="20.0773970503">
        <ele>1402.70</ele>
        <time>2019-07-12T10:55:29Z</time>
      </trkpt>
      <trkpt lat="42.7119944897" lon="20.0774453301">
        <ele>1403.66</ele>
        <time>2019-07-12T10:55:40Z</time>
      </trkpt>
      <trkpt lat="42.7118458785" lon="20.0774016604">
        <ele>1406.07</ele>
        <time>2019-07-12T10:55:56Z</time>
      </trkpt>
      <trkpt lat="42.7117468044" lon="20.0773759279">
        <ele>1408.95</ele>
        <time>2019-07-12T10:56:09Z</time>
      </trkpt>
      <trkpt lat="42.7116521727" lon="20.0773470104">
        <ele>1411.83</ele>
        <time>2019-07-12T10:56:22Z</time>
      </trkpt>
      <trkpt lat="42.7115791664" lon="20.0773378741">
        <ele>1412.79</ele>
        <time>2019-07-12T10:56:29Z</time>
      </trkpt>
      <trkpt lat="42.7114562877" lon="20.0772801228">
        <ele>1415.68</ele>
        <time>2019-07-12T10:56:42Z</time>
      </trkpt>
      <trkpt lat="42.7113177348" lon="20.0772483554">
        <ele>1418.08</ele>
        <time>2019-07-12T10:56:56Z</time>
      </trkpt>
      <trkpt lat="42.7113039885" lon="20.0772502832">
        <ele>1418.08</ele>
        <time>2019-07-12T10:56:58Z</time>
      </trkpt>
      <trkpt lat="42.7112859674" lon="20.0772486068">
        <ele>1418.56</ele>
        <time>2019-07-12T10:57:00Z</time>
      </trkpt>
      <trkpt lat="42.7112064231" lon="20.0772377104">
        <ele>1420.49</ele>
        <time>2019-07-12T10:57:11Z</time>
      </trkpt>
      <trkpt lat="42.7111133002" lon="20.0772296637">
        <ele>1422.89</ele>
        <time>2019-07-12T10:57:22Z</time>
      </trkpt>
      <trkpt lat="42.7110261284" lon="20.0772367883">
        <ele>1424.81</ele>
        <time>2019-07-12T10:57:34Z</time>
      </trkpt>
      <trkpt lat="42.7109972946" lon="20.0772524625">
        <ele>1425.77</ele>
        <time>2019-07-12T10:57:39Z</time>
      </trkpt>
      <trkpt lat="42.7108535450" lon="20.0772077031">
        <ele>1427.70</ele>
        <time>2019-07-12T10:57:52Z</time>
      </trkpt>
      <trkpt lat="42.7107880823" lon="20.0772012491">
        <ele>1429.14</ele>
        <time>2019-07-12T10:57:59Z</time>
      </trkpt>
      <trkpt lat="42.7106707357" lon="20.0771844853">
        <ele>1432.02</ele>
        <time>2019-07-12T10:58:12Z</time>
      </trkpt>
      <trkpt lat="42.7106404770" lon="20.0771869160">
        <ele>1432.50</ele>
        <time>2019-07-12T10:58:17Z</time>
      </trkpt>
      <trkpt lat="42.7105352841" lon="20.0771844853">
        <ele>1435.39</ele>
        <time>2019-07-12T10:58:30Z</time>
      </trkpt>
      <trkpt lat="42.7103968151" lon="20.0771963876">
        <ele>1437.79</ele>
        <time>2019-07-12T10:58:44Z</time>
      </trkpt>
      <trkpt lat="42.7103445958" lon="20.0771776959">
        <ele>1439.71</ele>
        <time>2019-07-12T10:58:51Z</time>
      </trkpt>
      <trkpt lat="42.7102167718" lon="20.0771153346">
        <ele>1442.11</ele>
        <time>2019-07-12T10:59:05Z</time>
      </trkpt>
      <trkpt lat="42.7101876028" lon="20.0771114789">
        <ele>1442.60</ele>
        <time>2019-07-12T10:59:08Z</time>
      </trkpt>
      <trkpt lat="42.7100556716" lon="20.0770492014">
        <ele>1445.00</ele>
        <time>2019-07-12T10:59:21Z</time>
      </trkpt>
      <trkpt lat="42.7100472897" lon="20.0770477764">
        <ele>1445.00</ele>
        <time>2019-07-12T10:59:22Z</time>
      </trkpt>
      <trkpt lat="42.7099695895" lon="20.0770057831">
        <ele>1446.44</ele>
        <time>2019-07-12T10:59:31Z</time>
      </trkpt>
      <trkpt lat="42.7099187952" lon="20.0769904442">
        <ele>1447.40</ele>
        <time>2019-07-12T10:59:36Z</time>
      </trkpt>
      <trkpt lat="42.7098115906" lon="20.0769095588">
        <ele>1448.84</ele>
        <time>2019-07-12T10:59:49Z</time>
      </trkpt>
      <trkpt lat="42.7097147796" lon="20.0769287534">
        <ele>1452.21</ele>
        <time>2019-07-12T11:00:01Z</time>
      </trkpt>
      <trkpt lat="42.7096016239" lon="20.0769817270">
        <ele>1454.61</ele>
        <time>2019-07-12T11:00:15Z</time>
      </trkpt>
      <trkpt lat="42.7095159609" lon="20.0770676415">
        <ele>1457.02</ele>
        <time>2019-07-12T11:00:29Z</time>
      </trkpt>
      <trkpt lat="42.7094898093" lon="20.0771193579">
        <ele>1457.50</ele>
        <time>2019-07-12T11:00:33Z</time>
      </trkpt>
      <trkpt lat="42.7093486581" lon="20.0771822222">
        <ele>1460.38</ele>
        <time>2019-07-12T11:00:48Z</time>
      </trkpt>
      <trkpt lat="42.7093394380" lon="20.0771850720">
        <ele>1460.38</ele>
        <time>2019-07-12T11:00:49Z</time>
      </trkpt>
      <trkpt lat="42.7092324011" lon="20.0772123132">
        <ele>1462.78</ele>
        <time>2019-07-12T11:01:01Z</time>
      </trkpt>
      <trkpt lat="42.7091113664" lon="20.0772584975">
        <ele>1464.71</ele>
        <time>2019-07-12T11:01:14Z</time>
      </trkpt>
      <trkpt lat="42.7090773359" lon="20.0772692263">
        <ele>1465.19</ele>
        <time>2019-07-12T11:01:17Z</time>
      </trkpt>
      <trkpt lat="42.7089080215" lon="20.0772118103">
        <ele>1466.63</ele>
        <time>2019-07-12T11:01:32Z</time>
      </trkpt>
      <trkpt lat="42.7088393737" lon="20.0771399774">
        <ele>1467.11</ele>
        <time>2019-07-12T11:01:40Z</time>
      </trkpt>
      <trkpt lat="42.7087454125" lon="20.0771028455">
        <ele>1468.07</ele>
        <time>2019-07-12T11:01:49Z</time>
      </trkpt>
      <trkpt lat="42.7087145671" lon="20.0771006662">
        <ele>1468.55</ele>
        <time>2019-07-12T11:01:51Z</time>
      </trkpt>
      <trkpt lat="42.7085592505" lon="20.0770244747">
        <ele>1470.47</ele>
        <time>2019-07-12T11:02:05Z</time>
      </trkpt>
      <trkpt lat="42.7084350307" lon="20.0768852513">
        <ele>1471.92</ele>
        <time>2019-07-12T11:02:19Z</time>
      </trkpt>
      <trkpt lat="42.7084041014" lon="20.0768116582">
        <ele>1472.88</ele>
        <time>2019-07-12T11:02:32Z</time>
      </trkpt>
      <trkpt lat="42.7084124833" lon="20.0767914578">
        <ele>1472.88</ele>
        <time>2019-07-12T11:02:34Z</time>
      </trkpt>
      <trkpt lat="42.7084538061" lon="20.0767417531">
        <ele>1473.36</ele>
        <time>2019-07-12T11:02:46Z</time>
      </trkpt>
      <trkpt lat="42.7084630262" lon="20.0767318625">
        <ele>1473.84</ele>
        <time>2019-07-12T11:03:01Z</time>
      </trkpt>
      <trkpt lat="42.7084458433" lon="20.0767235644">
        <ele>1472.88</ele>
        <time>2019-07-12T11:03:25Z</time>
      </trkpt>
      <trkpt lat="42.7084458433" lon="20.0767207146">
        <ele>1472.88</ele>
        <time>2019-07-12T11:03:26Z</time>
      </trkpt>
      <trkpt lat="42.7084544767" lon="20.0767579302">
        <ele>1472.88</ele>
        <time>2019-07-12T11:04:06Z</time>
      </trkpt>
      <trkpt lat="42.7084405627" lon="20.0767232291">
        <ele>1472.88</ele>
        <time>2019-07-12T11:04:34Z</time>
      </trkpt>
      <trkpt lat="42.7084799577" lon="20.0767490454">
        <ele>1472.88</ele>
        <time>2019-07-12T11:04:56Z</time>
      </trkpt>
      <trkpt lat="42.7084730845" lon="20.0766974967">
        <ele>1472.88</ele>
        <time>2019-07-12T11:05:33Z</time>
      </trkpt>
      <trkpt lat="42.7084371261" lon="20.0767000113">
        <ele>1473.36</ele>
        <time>2019-07-12T11:06:04Z</time>
      </trkpt>
      <trkpt lat="42.7084017545" lon="20.0767088123">
        <ele>1473.36</ele>
        <time>2019-07-12T11:06:38Z</time>
      </trkpt>
      <trkpt lat="42.7084433287" lon="20.0767609477">
        <ele>1473.36</ele>
        <time>2019-07-12T11:07:09Z</time>
      </trkpt>
      <trkpt lat="42.7084447537" lon="20.0767228939">
        <ele>1473.36</ele>
        <time>2019-07-12T11:07:40Z</time>
      </trkpt>
      <trkpt lat="42.7084444184" lon="20.0767281745">
        <ele>1473.36</ele>
        <time>2019-07-12T11:08:03Z</time>
      </trkpt>
      <trkpt lat="42.7084724978" lon="20.0767357182">
        <ele>1473.84</ele>
        <time>2019-07-12T11:08:39Z</time>
      </trkpt>
      <trkpt lat="42.7084447537" lon="20.0767307729">
        <ele>1473.84</ele>
        <time>2019-07-12T11:09:20Z</time>
      </trkpt>
      <trkpt lat="42.7084619366" lon="20.0767392386">
        <ele>1473.84</ele>
        <time>2019-07-12T11:09:55Z</time>
      </trkpt>
      <trkpt lat="42.7084461786" lon="20.0767349638">
        <ele>1474.32</ele>
        <time>2019-07-12T11:10:26Z</time>
      </trkpt>
      <trkpt lat="42.7084620204" lon="20.0767057948">
        <ele>1474.32</ele>
        <time>2019-07-12T11:10:50Z</time>
      </trkpt>
      <trkpt lat="42.7084497828" lon="20.0767221395">
        <ele>1474.32</ele>
        <time>2019-07-12T11:11:16Z</time>
      </trkpt>
      <trkpt lat="42.7084502857" lon="20.0767593551">
        <ele>1474.32</ele>
        <time>2019-07-12T11:12:00Z</time>
      </trkpt>
      <trkpt lat="42.7084829751" lon="20.0767756160">
        <ele>1474.32</ele>
        <time>2019-07-12T11:12:40Z</time>
      </trkpt>
      <trkpt lat="42.7084785327" lon="20.0767513085">
        <ele>1474.32</ele>
        <time>2019-07-12T11:13:23Z</time>
      </trkpt>
      <trkpt lat="42.7084526327" lon="20.0767497998">
        <ele>1474.80</ele>
        <time>2019-07-12T11:13:57Z</time>
      </trkpt>
      <trkpt lat="42.7084541414" lon="20.0767567568">
        <ele>1474.80</ele>
        <time>2019-07-12T11:14:25Z</time>
      </trkpt>
      <trkpt lat="42.7084410656" lon="20.0767378975">
        <ele>1474.80</ele>
        <time>2019-07-12T11:14:52Z</time>
      </trkpt>
      <trkpt lat="42.7084735874" lon="20.0767294317">
        <ele>1474.80</ele>
        <time>2019-07-12T11:15:28Z</time>
      </trkpt>
      <trkpt lat="42.7084508725" lon="20.0767275039">
        <ele>1474.80</ele>
        <time>2019-07-12T11:16:01Z</time>
      </trkpt>
      <trkpt lat="42.7084659599" lon="20.0767572597">
        <ele>1474.80</ele>
        <time>2019-07-12T11:16:32Z</time>
      </trkpt>
      <trkpt lat="42.7084576618" lon="20.0767696649">
        <ele>1474.80</ele>
        <time>2019-07-12T11:17:13Z</time>
      </trkpt>
      <trkpt lat="42.7084359527" lon="20.0767312758">
        <ele>1476.24</ele>
        <time>2019-07-12T11:17:46Z</time>
      </trkpt>
      <trkpt lat="42.7084592544" lon="20.0767329521">
        <ele>1476.24</ele>
        <time>2019-07-12T11:18:22Z</time>
      </trkpt>
      <trkpt lat="42.7084667981" lon="20.0767364725">
        <ele>1476.24</ele>
        <time>2019-07-12T11:18:59Z</time>
      </trkpt>
      <trkpt lat="42.7084301692" lon="20.0767195411">
        <ele>1476.24</ele>
        <time>2019-07-12T11:19:31Z</time>
      </trkpt>
      <trkpt lat="42.7084399760" lon="20.0767167751">
        <ele>1476.24</ele>
        <time>2019-07-12T11:20:02Z</time>
      </trkpt>
      <trkpt lat="42.7084525488" lon="20.0767287612">
        <ele>1476.24</ele>
        <time>2019-07-12T11:20:39Z</time>
      </trkpt>
      <trkpt lat="42.7084362879" lon="20.0767065492">
        <ele>1476.24</ele>
        <time>2019-07-12T11:21:13Z</time>
      </trkpt>
      <trkpt lat="42.7084443346" lon="20.0767046213">
        <ele>1476.24</ele>
        <time>2019-07-12T11:21:34Z</time>
      </trkpt>
      <trkpt lat="42.7084329352" lon="20.0767017715">
        <ele>1476.24</ele>
        <time>2019-07-12T11:22:10Z</time>
      </trkpt>
      <trkpt lat="42.7084485255" lon="20.0767127518">
        <ele>1476.72</ele>
        <time>2019-07-12T11:22:49Z</time>
      </trkpt>
      <trkpt lat="42.7084662113" lon="20.0767353829">
        <ele>1476.72</ele>
        <time>2019-07-12T11:23:23Z</time>
      </trkpt>
      <trkpt lat="42.7084782813" lon="20.0767767895">
        <ele>1476.72</ele>
        <time>2019-07-12T11:24:07Z</time>
      </trkpt>
      <trkpt lat="42.7084693126" lon="20.0767404959">
        <ele>1477.20</ele>
        <time>2019-07-12T11:24:59Z</time>
      </trkpt>
      <trkpt lat="42.7084711567" lon="20.0767086446">
        <ele>1477.20</ele>
        <time>2019-07-12T11:25:44Z</time>
      </trkpt>
      <trkpt lat="42.7084506210" lon="20.0767339580">
        <ele>1477.20</ele>
        <time>2019-07-12T11:26:26Z</time>
      </trkpt>
      <trkpt lat="42.7084549796" lon="20.0767441001">
        <ele>1477.20</ele>
        <time>2019-07-12T11:27:20Z</time>
      </trkpt>
      <trkpt lat="42.7084532194" lon="20.0767426752">
        <ele>1477.20</ele>
        <time>2019-07-12T11:27:52Z</time>
      </trkpt>
      <trkpt lat="42.7084483579" lon="20.0767495483">
        <ele>1477.20</ele>
        <time>2019-07-12T11:28:43Z</time>
      </trkpt>
      <trkpt lat="42.7084585000" lon="20.0767655578">
        <ele>1477.20</ele>
        <time>2019-07-12T11:29:16Z</time>
      </trkpt>
      <trkpt lat="42.7084284928" lon="20.0767392386">
        <ele>1477.20</ele>
        <time>2019-07-12T11:29:54Z</time>
      </trkpt>
      <trkpt lat="42.7084382158" lon="20.0767854229">
        <ele>1477.68</ele>
        <time>2019-07-12T11:30:48Z</time>
      </trkpt>
      <trkpt lat="42.7084496990" lon="20.0767655578">
        <ele>1477.68</ele>
        <time>2019-07-12T11:31:17Z</time>
      </trkpt>
      <trkpt lat="42.7084527165" lon="20.0767451059">
        <ele>1477.68</ele>
        <time>2019-07-12T11:31:55Z</time>
      </trkpt>
      <trkpt lat="42.7084636129" lon="20.0767352991">
        <ele>1477.68</ele>
        <time>2019-07-12T11:32:29Z</time>
      </trkpt>
      <trkpt lat="42.7084454242" lon="20.0767101534">
        <ele>1477.68</ele>
        <time>2019-07-12T11:32:53Z</time>
      </trkpt>
      <trkpt lat="42.7084329352" lon="20.0767296832">
        <ele>1477.68</ele>
        <time>2019-07-12T11:33:15Z</time>
      </trkpt>
      <trkpt lat="42.7083954681" lon="20.0766891148">
        <ele>1477.68</ele>
        <time>2019-07-12T11:33:40Z</time>
      </trkpt>
      <trkpt lat="42.7083858289" lon="20.0766438525">
        <ele>1477.68</ele>
        <time>2019-07-12T11:34:22Z</time>
      </trkpt>
      <trkpt lat="42.7084196080" lon="20.0767555833">
        <ele>1478.16</ele>
        <time>2019-07-12T11:34:54Z</time>
      </trkpt>
      <trkpt lat="42.7084651217" lon="20.0767963193">
        <ele>1478.16</ele>
        <time>2019-07-12T11:35:14Z</time>
      </trkpt>
      <trkpt lat="42.7083953004" lon="20.0767331198">
        <ele>1478.16</ele>
        <time>2019-07-12T11:35:23Z</time>
      </trkpt>
      <trkpt lat="42.7082716674" lon="20.0767606124">
        <ele>1478.16</ele>
        <time>2019-07-12T11:35:37Z</time>
      </trkpt>
      <trkpt lat="42.7081347071" lon="20.0767398253">
        <ele>1477.20</ele>
        <time>2019-07-12T11:35:50Z</time>
      </trkpt>
      <trkpt lat="42.7079875208" lon="20.0766679924">
        <ele>1477.20</ele>
        <time>2019-07-12T11:36:04Z</time>
      </trkpt>
      <trkpt lat="42.7078627143" lon="20.0766078942">
        <ele>1477.20</ele>
        <time>2019-07-12T11:36:16Z</time>
      </trkpt>
      <trkpt lat="42.7078531589" lon="20.0766054634">
        <ele>1477.20</ele>
        <time>2019-07-12T11:36:17Z</time>
      </trkpt>
      <trkpt lat="42.7077090740" lon="20.0765523221">
        <ele>1477.20</ele>
        <time>2019-07-12T11:36:31Z</time>
      </trkpt>
      <trkpt lat="42.7075773105" lon="20.0765207224">
        <ele>1477.20</ele>
        <time>2019-07-12T11:36:44Z</time>
      </trkpt>
      <trkpt lat="42.7074215747" lon="20.0764339697">
        <ele>1477.20</ele>
        <time>2019-07-12T11:36:58Z</time>
      </trkpt>
      <trkpt lat="42.7073856164" lon="20.0766754523">
        <ele>1477.20</ele>
        <time>2019-07-12T11:37:12Z</time>
      </trkpt>
      <trkpt lat="42.7072157990" lon="20.0767426752">
        <ele>1477.20</ele>
        <time>2019-07-12T11:37:27Z</time>
      </trkpt>
      <trkpt lat="42.7070730552" lon="20.0767068844">
        <ele>1477.20</ele>
        <time>2019-07-12T11:37:40Z</time>
      </trkpt>
      <trkpt lat="42.7069769986" lon="20.0766296871">
        <ele>1477.20</ele>
        <time>2019-07-12T11:37:52Z</time>
      </trkpt>
      <trkpt lat="42.7069407050" lon="20.0764736999">
        <ele>1478.65</ele>
        <time>2019-07-12T11:38:04Z</time>
      </trkpt>
      <trkpt lat="42.7069458179" lon="20.0764392503">
        <ele>1478.65</ele>
        <time>2019-07-12T11:38:07Z</time>
      </trkpt>
      <trkpt lat="42.7069593128" lon="20.0762193929">
        <ele>1478.65</ele>
        <time>2019-07-12T11:38:21Z</time>
      </trkpt>
      <trkpt lat="42.7069485001" lon="20.0761957560">
        <ele>1477.20</ele>
        <time>2019-07-12T11:38:23Z</time>
      </trkpt>
      <trkpt lat="42.7068702132" lon="20.0760867912">
        <ele>1475.28</ele>
        <time>2019-07-12T11:38:33Z</time>
      </trkpt>
      <trkpt lat="42.7068229392" lon="20.0759846997">
        <ele>1473.84</ele>
        <time>2019-07-12T11:38:39Z</time>
      </trkpt>
      <trkpt lat="42.7067089453" lon="20.0759533513">
        <ele>1471.92</ele>
        <time>2019-07-12T11:38:48Z</time>
      </trkpt>
      <trkpt lat="42.7066580672" lon="20.0759525970">
        <ele>1470.47</ele>
        <time>2019-07-12T11:38:52Z</time>
      </trkpt>
      <trkpt lat="42.7066174988" lon="20.0759460591">
        <ele>1469.99</ele>
        <time>2019-07-12T11:38:55Z</time>
      </trkpt>
      <trkpt lat="42.7065588254" lon="20.0759582967">
        <ele>1469.03</ele>
        <time>2019-07-12T11:39:00Z</time>
      </trkpt>
      <trkpt lat="42.7065283153" lon="20.0759004615">
        <ele>1467.11</ele>
        <time>2019-07-12T11:39:08Z</time>
      </trkpt>
      <trkpt lat="42.7065957896" lon="20.0757741462">
        <ele>1463.74</ele>
        <time>2019-07-12T11:39:19Z</time>
      </trkpt>
      <trkpt lat="42.7065600827" lon="20.0757432170">
        <ele>1461.82</ele>
        <time>2019-07-12T11:39:24Z</time>
      </trkpt>
      <trkpt lat="42.7064880822" lon="20.0757106952">
        <ele>1458.46</ele>
        <time>2019-07-12T11:39:35Z</time>
      </trkpt>
      <trkpt lat="42.7065324225" lon="20.0756248645">
        <ele>1456.53</ele>
        <time>2019-07-12T11:39:45Z</time>
      </trkpt>
      <trkpt lat="42.7065254655" lon="20.0755853858">
        <ele>1455.09</ele>
        <time>2019-07-12T11:39:49Z</time>
      </trkpt>
      <trkpt lat="42.7064894233" lon="20.0756007247">
        <ele>1453.65</ele>
        <time>2019-07-12T11:39:52Z</time>
      </trkpt>
      <trkpt lat="42.7064250503" lon="20.0756139681">
        <ele>1452.21</ele>
        <time>2019-07-12T11:39:57Z</time>
      </trkpt>
      <trkpt lat="42.7063804585" lon="20.0755763333">
        <ele>1448.84</ele>
        <time>2019-07-12T11:40:08Z</time>
      </trkpt>
      <trkpt lat="42.7063905168" lon="20.0755430572">
        <ele>1447.40</ele>
        <time>2019-07-12T11:40:11Z</time>
      </trkpt>
      <trkpt lat="42.7063654549" lon="20.0755127985">
        <ele>1446.44</ele>
        <time>2019-07-12T11:40:15Z</time>
      </trkpt>
      <trkpt lat="42.7062386367" lon="20.0755339209">
        <ele>1443.08</ele>
        <time>2019-07-12T11:40:26Z</time>
      </trkpt>
      <trkpt lat="42.7061440051" lon="20.0755174085">
        <ele>1440.19</ele>
        <time>2019-07-12T11:40:38Z</time>
      </trkpt>
      <trkpt lat="42.7060601860" lon="20.0755019020">
        <ele>1437.31</ele>
        <time>2019-07-12T11:40:51Z</time>
      </trkpt>
      <trkpt lat="42.7059850004" lon="20.0755238626">
        <ele>1435.39</ele>
        <time>2019-07-12T11:41:03Z</time>
      </trkpt>
      <trkpt lat="42.7059538197" lon="20.0754991360">
        <ele>1435.39</ele>
        <time>2019-07-12T11:41:08Z</time>
      </trkpt>
      <trkpt lat="42.7059169393" lon="20.0755003933">
        <ele>1434.42</ele>
        <time>2019-07-12T11:41:12Z</time>
      </trkpt>
      <trkpt lat="42.7057897858" lon="20.0755581446">
        <ele>1431.54</ele>
        <time>2019-07-12T11:41:22Z</time>
      </trkpt>
      <trkpt lat="42.7057405002" lon="20.0755982939">
        <ele>1430.58</ele>
        <time>2019-07-12T11:41:27Z</time>
      </trkpt>
      <trkpt lat="42.7056196332" lon="20.0755987968">
        <ele>1427.70</ele>
        <time>2019-07-12T11:41:36Z</time>
      </trkpt>
      <trkpt lat="42.7056333795" lon="20.0755746569">
        <ele>1425.77</ele>
        <time>2019-07-12T11:41:42Z</time>
      </trkpt>
      <trkpt lat="42.7056784742" lon="20.0755337533">
        <ele>1423.85</ele>
        <time>2019-07-12T11:41:46Z</time>
      </trkpt>
      <trkpt lat="42.7056949865" lon="20.0754991360">
        <ele>1423.37</ele>
        <time>2019-07-12T11:41:49Z</time>
      </trkpt>
      <trkpt lat="42.7057782188" lon="20.0753852259">
        <ele>1420.49</ele>
        <time>2019-07-12T11:41:57Z</time>
      </trkpt>
      <trkpt lat="42.7058299351" lon="20.0752531271">
        <ele>1416.64</ele>
        <time>2019-07-12T11:42:09Z</time>
      </trkpt>
      <trkpt lat="42.7057379857" lon="20.0752724893">
        <ele>1413.28</ele>
        <time>2019-07-12T11:42:17Z</time>
      </trkpt>
      <trkpt lat="42.7056986745" lon="20.0752828829">
        <ele>1411.83</ele>
        <time>2019-07-12T11:42:21Z</time>
      </trkpt>
      <trkpt lat="42.7055955771" lon="20.0753461663">
        <ele>1410.39</ele>
        <time>2019-07-12T11:42:33Z</time>
      </trkpt>
      <trkpt lat="42.7055436932" lon="20.0753410533">
        <ele>1408.47</ele>
        <time>2019-07-12T11:42:41Z</time>
      </trkpt>
      <trkpt lat="42.7054899652" lon="20.0753563922">
        <ele>1407.03</ele>
        <time>2019-07-12T11:42:45Z</time>
      </trkpt>
      <trkpt lat="42.7054680884" lon="20.0753479265">
        <ele>1405.10</ele>
        <time>2019-07-12T11:42:52Z</time>
      </trkpt>
      <trkpt lat="42.7054910548" lon="20.0753254630">
        <ele>1404.14</ele>
        <time>2019-07-12T11:42:55Z</time>
      </trkpt>
      <trkpt lat="42.7055220678" lon="20.0752817933">
        <ele>1402.70</ele>
        <time>2019-07-12T11:43:00Z</time>
      </trkpt>
      <trkpt lat="42.7055363171" lon="20.0752444100">
        <ele>1401.74</ele>
        <time>2019-07-12T11:43:03Z</time>
      </trkpt>
      <trkpt lat="42.7055844292" lon="20.0751363672">
        <ele>1398.37</ele>
        <time>2019-07-12T11:43:14Z</time>
      </trkpt>
      <trkpt lat="42.7056337986" lon="20.0749890972">
        <ele>1395.01</ele>
        <time>2019-07-12T11:43:26Z</time>
      </trkpt>
      <trkpt lat="42.7056585252" lon="20.0749277417">
        <ele>1393.09</ele>
        <time>2019-07-12T11:43:32Z</time>
      </trkpt>
      <trkpt lat="42.7056924719" lon="20.0748159271">
        <ele>1389.24</ele>
        <time>2019-07-12T11:43:43Z</time>
      </trkpt>
      <trkpt lat="42.7056308649" lon="20.0748060364">
        <ele>1387.32</ele>
        <time>2019-07-12T11:43:51Z</time>
      </trkpt>
      <trkpt lat="42.7055985108" lon="20.0748247281">
        <ele>1386.36</ele>
        <time>2019-07-12T11:43:55Z</time>
      </trkpt>
      <trkpt lat="42.7055055555" lon="20.0748865027">
        <ele>1382.51</ele>
        <time>2019-07-12T11:44:05Z</time>
      </trkpt>
      <trkpt lat="42.7054928988" lon="20.0748848263">
        <ele>1382.51</ele>
        <time>2019-07-12T11:44:06Z</time>
      </trkpt>
      <trkpt lat="42.7053628955" lon="20.0749234669">
        <ele>1379.15</ele>
        <time>2019-07-12T11:44:16Z</time>
      </trkpt>
      <trkpt lat="42.7052877098" lon="20.0749469362">
        <ele>1378.67</ele>
        <time>2019-07-12T11:44:21Z</time>
      </trkpt>
      <trkpt lat="42.7051305491" lon="20.0749640353">
        <ele>1375.30</ele>
        <time>2019-07-12T11:44:33Z</time>
      </trkpt>
      <trkpt lat="42.7050939202" lon="20.0749662146">
        <ele>1373.86</ele>
        <time>2019-07-12T11:44:36Z</time>
      </trkpt>
      <trkpt lat="42.7050387673" lon="20.0749573298">
        <ele>1372.42</ele>
        <time>2019-07-12T11:44:40Z</time>
      </trkpt>
      <trkpt lat="42.7049189061" lon="20.0749779493">
        <ele>1369.05</ele>
        <time>2019-07-12T11:44:52Z</time>
      </trkpt>
      <trkpt lat="42.7049043216" lon="20.0749832299">
        <ele>1368.57</ele>
        <time>2019-07-12T11:44:54Z</time>
      </trkpt>
      <trkpt lat="42.7048512641" lon="20.0750025921">
        <ele>1366.65</ele>
        <time>2019-07-12T11:45:00Z</time>
      </trkpt>
      <trkpt lat="42.7047060896" lon="20.0750191044">
        <ele>1364.25</ele>
        <time>2019-07-12T11:45:12Z</time>
      </trkpt>
      <trkpt lat="42.7046169061" lon="20.0750605948">
        <ele>1361.36</ele>
        <time>2019-07-12T11:45:21Z</time>
      </trkpt>
      <trkpt lat="42.7045484260" lon="20.0750470161">
        <ele>1359.44</ele>
        <time>2019-07-12T11:45:27Z</time>
      </trkpt>
      <trkpt lat="42.7044755034" lon="20.0750337727">
        <ele>1356.08</ele>
        <time>2019-07-12T11:45:39Z</time>
      </trkpt>
      <trkpt lat="42.7044577338" lon="20.0750380475">
        <ele>1354.63</ele>
        <time>2019-07-12T11:45:42Z</time>
      </trkpt>
      <trkpt lat="42.7043556422" lon="20.0750520453">
        <ele>1350.31</ele>
        <time>2019-07-12T11:45:51Z</time>
      </trkpt>
      <trkpt lat="42.7042815462" lon="20.0750677194">
        <ele>1348.39</ele>
        <time>2019-07-12T11:45:56Z</time>
      </trkpt>
      <trkpt lat="42.7041904349" lon="20.0750681385">
        <ele>1345.98</ele>
        <time>2019-07-12T11:46:03Z</time>
      </trkpt>
      <trkpt lat="42.7041154169" lon="20.0750895962">
        <ele>1344.06</ele>
        <time>2019-07-12T11:46:09Z</time>
      </trkpt>
      <trkpt lat="42.7040804643" lon="20.0751044322">
        <ele>1343.58</ele>
        <time>2019-07-12T11:46:12Z</time>
      </trkpt>
      <trkpt lat="42.7039302606" lon="20.0751581602">
        <ele>1340.22</ele>
        <time>2019-07-12T11:46:23Z</time>
      </trkpt>
      <trkpt lat="42.7038047835" lon="20.0751821324">
        <ele>1336.85</ele>
        <time>2019-07-12T11:46:32Z</time>
      </trkpt>
      <trkpt lat="42.7037932165" lon="20.0751802884">
        <ele>1336.85</ele>
        <time>2019-07-12T11:46:33Z</time>
      </trkpt>
      <trkpt lat="42.7037554979" lon="20.0751729123">
        <ele>1334.93</ele>
        <time>2019-07-12T11:46:37Z</time>
      </trkpt>
      <trkpt lat="42.7037253231" lon="20.0751641952">
        <ele>1333.97</ele>
        <time>2019-07-12T11:46:41Z</time>
      </trkpt>
      <trkpt lat="42.7036620397" lon="20.0751535501">
        <ele>1332.52</ele>
        <time>2019-07-12T11:46:46Z</time>
      </trkpt>
      <trkpt lat="42.7035495546" lon="20.0752136484">
        <ele>1329.16</ele>
        <time>2019-07-12T11:46:56Z</time>
      </trkpt>
      <trkpt lat="42.7034675796" lon="20.0751855690">
        <ele>1326.76</ele>
        <time>2019-07-12T11:47:03Z</time>
      </trkpt>
      <trkpt lat="42.7034053020" lon="20.0751065277">
        <ele>1323.39</ele>
        <time>2019-07-12T11:47:11Z</time>
      </trkpt>
      <trkpt lat="42.7033213992" lon="20.0749685615">
        <ele>1319.55</ele>
        <time>2019-07-12T11:47:21Z</time>
      </trkpt>
      <trkpt lat="42.7032852732" lon="20.0748502929">
        <ele>1318.10</ele>
        <time>2019-07-12T11:47:28Z</time>
      </trkpt>
      <trkpt lat="42.7032942418" lon="20.0747027714">
        <ele>1315.70</ele>
        <time>2019-07-12T11:47:39Z</time>
      </trkpt>
      <trkpt lat="42.7033056412" lon="20.0746184494">
        <ele>1314.74</ele>
        <time>2019-07-12T11:47:43Z</time>
      </trkpt>
      <trkpt lat="42.7033994347" lon="20.0744463690">
        <ele>1313.30</ele>
        <time>2019-07-12T11:47:56Z</time>
      </trkpt>
      <trkpt lat="42.7034490556" lon="20.0742693432">
        <ele>1311.86</ele>
        <time>2019-07-12T11:48:08Z</time>
      </trkpt>
      <trkpt lat="42.7035163622" lon="20.0740885455">
        <ele>1310.41</ele>
        <time>2019-07-12T11:48:21Z</time>
      </trkpt>
      <trkpt lat="42.7035054658" lon="20.0740615558">
        <ele>1309.45</ele>
        <time>2019-07-12T11:48:41Z</time>
      </trkpt>
      <trkpt lat="42.7034918871" lon="20.0741483923">
        <ele>1310.90</ele>
        <time>2019-07-12T11:48:58Z</time>
      </trkpt>
      <trkpt lat="42.7034517378" lon="20.0742387492">
        <ele>1311.38</ele>
        <time>2019-07-12T11:49:07Z</time>
      </trkpt>
      <trkpt lat="42.7034490556" lon="20.0742669962">
        <ele>1311.38</ele>
        <time>2019-07-12T11:49:09Z</time>
      </trkpt>
      <trkpt lat="42.7033885382" lon="20.0744218938">
        <ele>1312.82</ele>
        <time>2019-07-12T11:49:21Z</time>
      </trkpt>
      <trkpt lat="42.7033354808" lon="20.0745010190">
        <ele>1313.30</ele>
        <time>2019-07-12T11:49:28Z</time>
      </trkpt>
      <trkpt lat="42.7032335568" lon="20.0745774619">
        <ele>1314.74</ele>
        <time>2019-07-12T11:49:41Z</time>
      </trkpt>
      <trkpt lat="42.7031380031" lon="20.0746081397">
        <ele>1315.22</ele>
        <time>2019-07-12T11:49:51Z</time>
      </trkpt>
      <trkpt lat="42.7031188086" lon="20.0746134203">
        <ele>1315.22</ele>
        <time>2019-07-12T11:49:53Z</time>
      </trkpt>
      <trkpt lat="42.7030624822" lon="20.0746689923">
        <ele>1315.22</ele>
        <time>2019-07-12T11:50:01Z</time>
      </trkpt>
      <trkpt lat="42.7030145377" lon="20.0747568347">
        <ele>1313.78</ele>
        <time>2019-07-12T11:50:07Z</time>
      </trkpt>
      <trkpt lat="42.7029243484" lon="20.0749104749">
        <ele>1312.34</ele>
        <time>2019-07-12T11:50:20Z</time>
      </trkpt>
      <trkpt lat="42.7028832771" lon="20.0749398116">
        <ele>1311.86</ele>
        <time>2019-07-12T11:50:24Z</time>
      </trkpt>
      <trkpt lat="42.7027491666" lon="20.0748854969">
        <ele>1308.49</ele>
        <time>2019-07-12T11:50:36Z</time>
      </trkpt>
      <trkpt lat="42.7027401980" lon="20.0748853292">
        <ele>1308.01</ele>
        <time>2019-07-12T11:50:37Z</time>
      </trkpt>
      <trkpt lat="42.7026735619" lon="20.0749077927">
        <ele>1307.05</ele>
        <time>2019-07-12T11:50:42Z</time>
      </trkpt>
      <trkpt lat="42.7026508469" lon="20.0749304239">
        <ele>1306.57</ele>
        <time>2019-07-12T11:50:44Z</time>
      </trkpt>
      <trkpt lat="42.7025835402" lon="20.0749542285">
        <ele>1304.65</ele>
        <time>2019-07-12T11:50:49Z</time>
      </trkpt>
      <trkpt lat="42.7024704684" lon="20.0750443339">
        <ele>1302.24</ele>
        <time>2019-07-12T11:50:58Z</time>
      </trkpt>
      <trkpt lat="42.7024179138" lon="20.0751053542">
        <ele>1301.76</ele>
        <time>2019-07-12T11:51:02Z</time>
      </trkpt>
      <trkpt lat="42.7023863979" lon="20.0751409773">
        <ele>1301.28</ele>
        <time>2019-07-12T11:51:05Z</time>
      </trkpt>
      <trkpt lat="42.7023241203" lon="20.0751857366">
        <ele>1300.32</ele>
        <time>2019-07-12T11:51:10Z</time>
      </trkpt>
      <trkpt lat="42.7023056801" lon="20.0752088707">
        <ele>1299.84</ele>
        <time>2019-07-12T11:51:12Z</time>
      </trkpt>
      <trkpt lat="42.7022439893" lon="20.0752574019">
        <ele>1297.92</ele>
        <time>2019-07-12T11:51:18Z</time>
      </trkpt>
      <trkpt lat="42.7022134792" lon="20.0753042568">
        <ele>1296.48</ele>
        <time>2019-07-12T11:51:22Z</time>
      </trkpt>
      <trkpt lat="42.7021121420" lon="20.0754685421">
        <ele>1294.07</ele>
        <time>2019-07-12T11:51:32Z</time>
      </trkpt>
      <trkpt lat="42.7021040954" lon="20.0754936878">
        <ele>1294.07</ele>
        <time>2019-07-12T11:51:33Z</time>
      </trkpt>
      <trkpt lat="42.7020305861" lon="20.0755936839">
        <ele>1291.19</ele>
        <time>2019-07-12T11:51:40Z</time>
      </trkpt>
      <trkpt lat="42.7019510418" lon="20.0756964460">
        <ele>1287.82</ele>
        <time>2019-07-12T11:51:48Z</time>
      </trkpt>
      <trkpt lat="42.7019284107" lon="20.0757258665">
        <ele>1287.34</ele>
        <time>2019-07-12T11:51:50Z</time>
      </trkpt>
      <trkpt lat="42.7018803824" lon="20.0757621601">
        <ele>1286.38</ele>
        <time>2019-07-12T11:51:54Z</time>
      </trkpt>
      <trkpt lat="42.7018039394" lon="20.0758298859">
        <ele>1284.46</ele>
        <time>2019-07-12T11:52:00Z</time>
      </trkpt>
      <trkpt lat="42.7017567493" lon="20.0758741423">
        <ele>1283.50</ele>
        <time>2019-07-12T11:52:04Z</time>
      </trkpt>
      <trkpt lat="42.7016069647" lon="20.0759503338">
        <ele>1280.61</ele>
        <time>2019-07-12T11:52:15Z</time>
      </trkpt>
      <trkpt lat="42.7014427632" lon="20.0760390982">
        <ele>1276.77</ele>
        <time>2019-07-12T11:52:27Z</time>
      </trkpt>
      <trkpt lat="42.7013830002" lon="20.0760593824">
        <ele>1275.33</ele>
        <time>2019-07-12T11:52:32Z</time>
      </trkpt>
      <trkpt lat="42.7013471257" lon="20.0760791637">
        <ele>1274.36</ele>
        <time>2019-07-12T11:52:35Z</time>
      </trkpt>
      <trkpt lat="42.7012095787" lon="20.0761826802">
        <ele>1271.00</ele>
        <time>2019-07-12T11:52:47Z</time>
      </trkpt>
      <trkpt lat="42.7011567727" lon="20.0761611387">
        <ele>1269.08</ele>
        <time>2019-07-12T11:52:52Z</time>
      </trkpt>
      <trkpt lat="42.7010712773" lon="20.0760996994">
        <ele>1265.71</ele>
        <time>2019-07-12T11:52:59Z</time>
      </trkpt>
      <trkpt lat="42.7009820100" lon="20.0760089234">
        <ele>1261.87</ele>
        <time>2019-07-12T11:53:07Z</time>
      </trkpt>
      <trkpt lat="42.7009561099" lon="20.0759814307">
        <ele>1260.43</ele>
        <time>2019-07-12T11:53:10Z</time>
      </trkpt>
      <trkpt lat="42.7008911502" lon="20.0759294629">
        <ele>1258.50</ele>
        <time>2019-07-12T11:53:16Z</time>
      </trkpt>
      <trkpt lat="42.7008925751" lon="20.0758252759">
        <ele>1254.66</ele>
        <time>2019-07-12T11:53:23Z</time>
      </trkpt>
      <trkpt lat="42.7008963469" lon="20.0757951010">
        <ele>1252.74</ele>
        <time>2019-07-12T11:53:25Z</time>
      </trkpt>
      <trkpt lat="42.7009029686" lon="20.0757551193">
        <ele>1251.77</ele>
        <time>2019-07-12T11:53:28Z</time>
      </trkpt>
      <trkpt lat="42.7009220794" lon="20.0756930932">
        <ele>1250.81</ele>
        <time>2019-07-12T11:53:31Z</time>
      </trkpt>
      <trkpt lat="42.7009313833" lon="20.0756408740">
        <ele>1249.85</ele>
        <time>2019-07-12T11:53:34Z</time>
      </trkpt>
      <trkpt lat="42.7009580377" lon="20.0755528640">
        <ele>1247.45</ele>
        <time>2019-07-12T11:53:40Z</time>
      </trkpt>
      <trkpt lat="42.7009550203" lon="20.0755266286">
        <ele>1247.45</ele>
        <time>2019-07-12T11:53:42Z</time>
      </trkpt>
      <trkpt lat="42.7009512484" lon="20.0753906742">
        <ele>1243.60</ele>
        <time>2019-07-12T11:53:50Z</time>
      </trkpt>
      <trkpt lat="42.7009485662" lon="20.0752992276">
        <ele>1241.68</ele>
        <time>2019-07-12T11:53:55Z</time>
      </trkpt>
      <trkpt lat="42.7009394299" lon="20.0751981419">
        <ele>1238.80</ele>
        <time>2019-07-12T11:54:02Z</time>
      </trkpt>
      <trkpt lat="42.7008908149" lon="20.0751066115">
        <ele>1234.95</ele>
        <time>2019-07-12T11:54:10Z</time>
      </trkpt>
      <trkpt lat="42.7008540183" lon="20.0750179309">
        <ele>1232.07</ele>
        <time>2019-07-12T11:54:17Z</time>
      </trkpt>
      <trkpt lat="42.7008299623" lon="20.0749403983">
        <ele>1228.70</ele>
        <time>2019-07-12T11:54:24Z</time>
      </trkpt>
      <trkpt lat="42.7007948421" lon="20.0748815574">
        <ele>1225.82</ele>
        <time>2019-07-12T11:54:32Z</time>
      </trkpt>
      <trkpt lat="42.7007552795" lon="20.0748188607">
        <ele>1222.93</ele>
        <time>2019-07-12T11:54:38Z</time>
      </trkpt>
      <trkpt lat="42.7007387672" lon="20.0747285038">
        <ele>1221.97</ele>
        <time>2019-07-12T11:54:43Z</time>
      </trkpt>
      <trkpt lat="42.7007452212" lon="20.0745905377">
        <ele>1218.61</ele>
        <time>2019-07-12T11:54:51Z</time>
      </trkpt>
      <trkpt lat="42.7007425390" lon="20.0745662302">
        <ele>1217.17</ele>
        <time>2019-07-12T11:54:53Z</time>
      </trkpt>
      <trkpt lat="42.7007377613" lon="20.0745257456">
        <ele>1216.69</ele>
        <time>2019-07-12T11:54:55Z</time>
      </trkpt>
      <trkpt lat="42.7006961033" lon="20.0743858516">
        <ele>1213.32</ele>
        <time>2019-07-12T11:55:02Z</time>
      </trkpt>
      <trkpt lat="42.7005841210" lon="20.0742027909">
        <ele>1210.92</ele>
        <time>2019-07-12T11:55:15Z</time>
      </trkpt>
      <trkpt lat="42.7005791757" lon="20.0741854403">
        <ele>1210.44</ele>
        <time>2019-07-12T11:55:16Z</time>
      </trkpt>
      <trkpt lat="42.7005203348" lon="20.0739432871">
        <ele>1207.07</ele>
        <time>2019-07-12T11:55:28Z</time>
      </trkpt>
      <trkpt lat="42.7004985418" lon="20.0738770701">
        <ele>1206.11</ele>
        <time>2019-07-12T11:55:33Z</time>
      </trkpt>
      <trkpt lat="42.7004157286" lon="20.0738302153">
        <ele>1205.15</ele>
        <time>2019-07-12T11:55:47Z</time>
      </trkpt>
      <trkpt lat="42.7003262937" lon="20.0739352405">
        <ele>1204.67</ele>
        <time>2019-07-12T11:56:00Z</time>
      </trkpt>
      <trkpt lat="42.7003015671" lon="20.0739548542">
        <ele>1204.67</ele>
        <time>2019-07-12T11:56:03Z</time>
      </trkpt>
      <trkpt lat="42.7002417203" lon="20.0739902258">
        <ele>1204.67</ele>
        <time>2019-07-12T11:56:09Z</time>
      </trkpt>
      <trkpt lat="42.7002207655" lon="20.0740119349">
        <ele>1204.67</ele>
        <time>2019-07-12T11:56:11Z</time>
      </trkpt>
      <trkpt lat="42.7001812030" lon="20.0740390923">
        <ele>1204.67</ele>
        <time>2019-07-12T11:56:15Z</time>
      </trkpt>
      <trkpt lat="42.7000152413" lon="20.0740937423">
        <ele>1204.67</ele>
        <time>2019-07-12T11:56:30Z</time>
      </trkpt>
      <trkpt lat="42.6999307517" lon="20.0740056485">
        <ele>1204.19</ele>
        <time>2019-07-12T11:56:45Z</time>
      </trkpt>
      <trkpt lat="42.6998666301" lon="20.0739166327">
        <ele>1201.79</ele>
        <time>2019-07-12T11:57:00Z</time>
      </trkpt>
      <trkpt lat="42.6997748483" lon="20.0737584662">
        <ele>1198.42</ele>
        <time>2019-07-12T11:57:11Z</time>
      </trkpt>
      <trkpt lat="42.6996449288" lon="20.0737047382">
        <ele>1195.06</ele>
        <time>2019-07-12T11:57:21Z</time>
      </trkpt>
      <trkpt lat="42.6994640473" lon="20.0736351684">
        <ele>1192.65</ele>
        <time>2019-07-12T11:57:34Z</time>
      </trkpt>
      <trkpt lat="42.6992959902" lon="20.0735465717">
        <ele>1189.29</ele>
        <time>2019-07-12T11:57:47Z</time>
      </trkpt>
      <trkpt lat="42.6992555894" lon="20.0735395309">
        <ele>1188.81</ele>
        <time>2019-07-12T11:57:50Z</time>
      </trkpt>
      <trkpt lat="42.6990876999" lon="20.0735681131">
        <ele>1185.44</ele>
        <time>2019-07-12T11:58:01Z</time>
      </trkpt>
      <trkpt lat="42.6990431082" lon="20.0735763274">
        <ele>1184.96</ele>
        <time>2019-07-12T11:58:04Z</time>
      </trkpt>
      <trkpt lat="42.6988812536" lon="20.0735320710">
        <ele>1183.52</ele>
        <time>2019-07-12T11:58:15Z</time>
      </trkpt>
      <trkpt lat="42.6986947563" lon="20.0735567976">
        <ele>1183.04</ele>
        <time>2019-07-12T11:58:29Z</time>
      </trkpt>
      <trkpt lat="42.6986737177" lon="20.0735634193">
        <ele>1183.04</ele>
        <time>2019-07-12T11:58:31Z</time>
      </trkpt>
      <trkpt lat="42.6985605620" lon="20.0735580549">
        <ele>1183.04</ele>
        <time>2019-07-12T11:58:39Z</time>
      </trkpt>
      <trkpt lat="42.6984463166" lon="20.0735803507">
        <ele>1182.08</ele>
        <time>2019-07-12T11:58:48Z</time>
      </trkpt>
      <trkpt lat="42.6982559636" lon="20.0734982919">
        <ele>1180.16</ele>
        <time>2019-07-12T11:59:02Z</time>
      </trkpt>
      <trkpt lat="42.6980948634" lon="20.0734096114">
        <ele>1179.19</ele>
        <time>2019-07-12T11:59:13Z</time>
      </trkpt>
      <trkpt lat="42.6980401296" lon="20.0734290574">
        <ele>1178.23</ele>
        <time>2019-07-12T11:59:17Z</time>
      </trkpt>
      <trkpt lat="42.6979232021" lon="20.0736075919">
        <ele>1174.87</ele>
        <time>2019-07-12T11:59:31Z</time>
      </trkpt>
      <trkpt lat="42.6978667919" lon="20.0737506710">
        <ele>1172.95</ele>
        <time>2019-07-12T11:59:39Z</time>
      </trkpt>
      <trkpt lat="42.6978000719" lon="20.0739136990">
        <ele>1169.10</ele>
        <time>2019-07-12T11:59:49Z</time>
      </trkpt>
      <trkpt lat="42.6977021713" lon="20.0741073210">
        <ele>1166.22</ele>
        <time>2019-07-12T12:00:01Z</time>
      </trkpt>
      <trkpt lat="42.6975867525" lon="20.0742566865">
        <ele>1162.85</ele>
        <time>2019-07-12T12:00:12Z</time>
      </trkpt>
      <trkpt lat="42.6974938810" lon="20.0743291900">
        <ele>1160.93</ele>
        <time>2019-07-12T12:00:19Z</time>
      </trkpt>
      <trkpt lat="42.6974303462" lon="20.0743808225">
        <ele>1159.97</ele>
        <time>2019-07-12T12:00:24Z</time>
      </trkpt>
      <trkpt lat="42.6973854192" lon="20.0744719338">
        <ele>1158.05</ele>
        <time>2019-07-12T12:00:29Z</time>
      </trkpt>
      <trkpt lat="42.6973401569" lon="20.0746219698">
        <ele>1156.12</ele>
        <time>2019-07-12T12:00:37Z</time>
      </trkpt>
      <trkpt lat="42.6972870994" lon="20.0748161785">
        <ele>1152.76</ele>
        <time>2019-07-12T12:00:48Z</time>
      </trkpt>
      <trkpt lat="42.6972373948" lon="20.0749139953">
        <ele>1151.32</ele>
        <time>2019-07-12T12:00:54Z</time>
      </trkpt>
      <trkpt lat="42.6972127520" lon="20.0749595929">
        <ele>1150.84</ele>
        <time>2019-07-12T12:00:57Z</time>
      </trkpt>
      <trkpt lat="42.6970893703" lon="20.0751178432">
        <ele>1147.47</ele>
        <time>2019-07-12T12:01:10Z</time>
      </trkpt>
      <trkpt lat="42.6970028691" lon="20.0752320886">
        <ele>1146.99</ele>
        <time>2019-07-12T12:01:17Z</time>
      </trkpt>
      <trkpt lat="42.6969284378" lon="20.0753647741">
        <ele>1145.55</ele>
        <time>2019-07-12T12:01:25Z</time>
      </trkpt>
      <trkpt lat="42.6967959199" lon="20.0756028201">
        <ele>1143.14</ele>
        <time>2019-07-12T12:01:40Z</time>
      </trkpt>
      <trkpt lat="42.6966924872" lon="20.0757915806">
        <ele>1141.70</ele>
        <time>2019-07-12T12:01:53Z</time>
      </trkpt>
      <trkpt lat="42.6966366637" lon="20.0758444704">
        <ele>1140.74</ele>
        <time>2019-07-12T12:01:58Z</time>
      </trkpt>
      <trkpt lat="42.6965714525" lon="20.0758780818">
        <ele>1139.78</ele>
        <time>2019-07-12T12:02:03Z</time>
      </trkpt>
      <trkpt lat="42.6965155452" lon="20.0759085082">
        <ele>1139.30</ele>
        <time>2019-07-12T12:02:07Z</time>
      </trkpt>
      <trkpt lat="42.6964624040" lon="20.0759551954">
        <ele>1137.86</ele>
        <time>2019-07-12T12:02:11Z</time>
      </trkpt>
      <trkpt lat="42.6964263618" lon="20.0759821851">
        <ele>1137.86</ele>
        <time>2019-07-12T12:02:13Z</time>
      </trkpt>
      <trkpt lat="42.6962965261" lon="20.0761371665">
        <ele>1136.42</ele>
        <time>2019-07-12T12:02:25Z</time>
      </trkpt>
      <trkpt lat="42.6962269563" lon="20.0761751365">
        <ele>1135.94</ele>
        <time>2019-07-12T12:02:30Z</time>
      </trkpt>
      <trkpt lat="42.6960792672" lon="20.0762758031">
        <ele>1134.01</ele>
        <time>2019-07-12T12:02:41Z</time>
      </trkpt>
      <trkpt lat="42.6960228570" lon="20.0763128512">
        <ele>1132.09</ele>
        <time>2019-07-12T12:02:45Z</time>
      </trkpt>
      <trkpt lat="42.6959771756" lon="20.0763379131">
        <ele>1131.61</ele>
        <time>2019-07-12T12:02:49Z</time>
      </trkpt>
      <trkpt lat="42.6958021615" lon="20.0762387551">
        <ele>1128.24</ele>
        <time>2019-07-12T12:03:03Z</time>
      </trkpt>
      <trkpt lat="42.6957147382" lon="20.0761925709">
        <ele>1126.80</ele>
        <time>2019-07-12T12:03:09Z</time>
      </trkpt>
      <trkpt lat="42.6956754271" lon="20.0761552714">
        <ele>1124.88</ele>
        <time>2019-07-12T12:03:13Z</time>
      </trkpt>
      <trkpt lat="42.6956325117" lon="20.0761359092">
        <ele>1124.40</ele>
        <time>2019-07-12T12:03:16Z</time>
      </trkpt>
      <trkpt lat="42.6956024207" lon="20.0761285331">
        <ele>1122.96</ele>
        <time>2019-07-12T12:03:18Z</time>
      </trkpt>
      <trkpt lat="42.6955424063" lon="20.0761051476">
        <ele>1122.48</ele>
        <time>2019-07-12T12:03:22Z</time>
      </trkpt>
      <trkpt lat="42.6953414083" lon="20.0761166308">
        <ele>1119.11</ele>
        <time>2019-07-12T12:03:35Z</time>
      </trkpt>
      <trkpt lat="42.6953140832" lon="20.0761206541">
        <ele>1118.63</ele>
        <time>2019-07-12T12:03:37Z</time>
      </trkpt>
      <trkpt lat="42.6951967366" lon="20.0761672575">
        <ele>1116.71</ele>
        <time>2019-07-12T12:03:46Z</time>
      </trkpt>
      <trkpt lat="42.6950487122" lon="20.0762000307">
        <ele>1115.75</ele>
        <time>2019-07-12T12:03:57Z</time>
      </trkpt>
      <trkpt lat="42.6949679106" lon="20.0762160402">
        <ele>1115.27</ele>
        <time>2019-07-12T12:04:02Z</time>
      </trkpt>
      <trkpt lat="42.6948041283" lon="20.0764191337">
        <ele>1113.82</ele>
        <time>2019-07-12T12:04:18Z</time>
      </trkpt>
      <trkpt lat="42.6947913039" lon="20.0764301978">
        <ele>1113.34</ele>
        <time>2019-07-12T12:04:19Z</time>
      </trkpt>
      <trkpt lat="42.6946914755" lon="20.0765726902">
        <ele>1110.94</ele>
        <time>2019-07-12T12:04:31Z</time>
      </trkpt>
      <trkpt lat="42.6945800800" lon="20.0766777992">
        <ele>1110.94</ele>
        <time>2019-07-12T12:04:41Z</time>
      </trkpt>
      <trkpt lat="42.6944889687" lon="20.0766876061">
        <ele>1110.94</ele>
        <time>2019-07-12T12:04:51Z</time>
      </trkpt>
      <trkpt lat="42.6943697780" lon="20.0765538309">
        <ele>1110.94</ele>
        <time>2019-07-12T12:05:06Z</time>
      </trkpt>
      <trkpt lat="42.6943675149" lon="20.0765423477">
        <ele>1110.94</ele>
        <time>2019-07-12T12:05:20Z</time>
      </trkpt>
      <trkpt lat="42.6943578757" lon="20.0765556749">
        <ele>1110.94</ele>
        <time>2019-07-12T12:05:38Z</time>
      </trkpt>
      <trkpt lat="42.6943747234" lon="20.0766001828">
        <ele>1110.94</ele>
        <time>2019-07-12T12:05:51Z</time>
      </trkpt>
      <trkpt lat="42.6944128610" lon="20.0766014401">
        <ele>1110.46</ele>
        <time>2019-07-12T12:06:05Z</time>
      </trkpt>
      <trkpt lat="42.6944420300" lon="20.0768135861">
        <ele>1110.46</ele>
        <time>2019-07-12T12:06:32Z</time>
      </trkpt>
      <trkpt lat="42.6944353245" lon="20.0767884403">
        <ele>1109.98</ele>
        <time>2019-07-12T12:06:53Z</time>
      </trkpt>
      <trkpt lat="42.6944455504" lon="20.0769640412">
        <ele>1109.98</ele>
        <time>2019-07-12T12:07:19Z</time>
      </trkpt>
      <trkpt lat="42.6945612207" lon="20.0770262349">
        <ele>1109.98</ele>
        <time>2019-07-12T12:07:38Z</time>
      </trkpt>
      <trkpt lat="42.6943660900" lon="20.0766799785">
        <ele>1109.98</ele>
        <time>2019-07-12T12:07:56Z</time>
      </trkpt>
      <trkpt lat="42.6942932513" lon="20.0766028650">
        <ele>1111.42</ele>
        <time>2019-07-12T12:08:06Z</time>
      </trkpt>
      <trkpt lat="42.6942073368" lon="20.0766309444">
        <ele>1112.86</ele>
        <time>2019-07-12T12:08:16Z</time>
      </trkpt>
      <trkpt lat="42.6941852923" lon="20.0766268373">
        <ele>1112.86</ele>
        <time>2019-07-12T12:08:18Z</time>
      </trkpt>
      <trkpt lat="42.6941683609" lon="20.0766322017">
        <ele>1113.34</ele>
        <time>2019-07-12T12:08:20Z</time>
      </trkpt>
      <trkpt lat="42.6940524392" lon="20.0766436849">
        <ele>1115.27</ele>
        <time>2019-07-12T12:08:33Z</time>
      </trkpt>
      <trkpt lat="42.6940267067" lon="20.0766543299">
        <ele>1116.23</ele>
        <time>2019-07-12T12:08:36Z</time>
      </trkpt>
      <trkpt lat="42.6940080989" lon="20.0766496360">
        <ele>1116.23</ele>
        <time>2019-07-12T12:08:38Z</time>
      </trkpt>
      <trkpt lat="42.6939644292" lon="20.0766444393">
        <ele>1116.71</ele>
        <time>2019-07-12T12:08:43Z</time>
      </trkpt>
      <trkpt lat="42.6938921772" lon="20.0766390748">
        <ele>1118.15</ele>
        <time>2019-07-12T12:08:52Z</time>
      </trkpt>
      <trkpt lat="42.6938180812" lon="20.0766117498">
        <ele>1119.11</ele>
        <time>2019-07-12T12:09:00Z</time>
      </trkpt>
      <trkpt lat="42.6937517803" lon="20.0766092353">
        <ele>1120.55</ele>
        <time>2019-07-12T12:09:13Z</time>
      </trkpt>
      <trkpt lat="42.6937854756" lon="20.0766734406">
        <ele>1120.55</ele>
        <time>2019-07-12T12:09:27Z</time>
      </trkpt>
      <trkpt lat="42.6937855594" lon="20.0766967423">
        <ele>1118.63</ele>
        <time>2019-07-12T12:09:30Z</time>
      </trkpt>
      <trkpt lat="42.6936382055" lon="20.0767220557">
        <ele>1116.71</ele>
        <time>2019-07-12T12:09:46Z</time>
      </trkpt>
      <trkpt lat="42.6935259718" lon="20.0767798908">
        <ele>1113.82</ele>
        <time>2019-07-12T12:09:56Z</time>
      </trkpt>
      <trkpt lat="42.6934203599" lon="20.0767719280">
        <ele>1110.94</ele>
        <time>2019-07-12T12:10:04Z</time>
      </trkpt>
      <trkpt lat="42.6932833996" lon="20.0767801423">
        <ele>1109.50</ele>
        <time>2019-07-12T12:10:14Z</time>
      </trkpt>
      <trkpt lat="42.6931157615" lon="20.0768554956">
        <ele>1109.02</ele>
        <time>2019-07-12T12:10:29Z</time>
      </trkpt>
      <trkpt lat="42.6929580979" lon="20.0769888517">
        <ele>1109.02</ele>
        <time>2019-07-12T12:10:44Z</time>
      </trkpt>
      <trkpt lat="42.6928658970" lon="20.0770799629">
        <ele>1109.02</ele>
        <time>2019-07-12T12:10:52Z</time>
      </trkpt>
      <trkpt lat="42.6927105803" lon="20.0772168394">
        <ele>1109.02</ele>
        <time>2019-07-12T12:11:06Z</time>
      </trkpt>
      <trkpt lat="42.6925405115" lon="20.0773954578">
        <ele>1108.54</ele>
        <time>2019-07-12T12:11:22Z</time>
      </trkpt>
      <trkpt lat="42.6923870388" lon="20.0775610842">
        <ele>1108.54</ele>
        <time>2019-07-12T12:11:36Z</time>
      </trkpt>
      <trkpt lat="42.6922567841" lon="20.0777297281">
        <ele>1108.54</ele>
        <time>2019-07-12T12:11:50Z</time>
      </trkpt>
      <trkpt lat="42.6921527646" lon="20.0778619945">
        <ele>1107.58</ele>
        <time>2019-07-12T12:12:01Z</time>
      </trkpt>
      <trkpt lat="42.6920426264" lon="20.0779707078">
        <ele>1107.58</ele>
        <time>2019-07-12T12:12:11Z</time>
      </trkpt>
      <trkpt lat="42.6918450650" lon="20.0781259406">
        <ele>1107.10</ele>
        <time>2019-07-12T12:12:29Z</time>
      </trkpt>
      <trkpt lat="42.6916877367" lon="20.0780406967">
        <ele>1107.10</ele>
        <time>2019-07-12T12:12:43Z</time>
      </trkpt>
      <trkpt lat="42.6916070189" lon="20.0778071769">
        <ele>1107.10</ele>
        <time>2019-07-12T12:12:58Z</time>
      </trkpt>
      <trkpt lat="42.6915262174" lon="20.0775636826">
        <ele>1107.10</ele>
        <time>2019-07-12T12:13:13Z</time>
      </trkpt>
      <trkpt lat="42.6913898438" lon="20.0773097109">
        <ele>1106.61</ele>
        <time>2019-07-12T12:13:29Z</time>
      </trkpt>
      <trkpt lat="42.6912131533" lon="20.0771690626">
        <ele>1106.61</ele>
        <time>2019-07-12T12:13:45Z</time>
      </trkpt>
      <trkpt lat="42.6910589263" lon="20.0770958047">
        <ele>1106.61</ele>
        <time>2019-07-12T12:13:57Z</time>
      </trkpt>
      <trkpt lat="42.6909496263" lon="20.0770706590">
        <ele>1106.61</ele>
        <time>2019-07-12T12:14:05Z</time>
      </trkpt>
      <trkpt lat="42.6907976624" lon="20.0770691503">
        <ele>1106.61</ele>
        <time>2019-07-12T12:14:16Z</time>
      </trkpt>
      <trkpt lat="42.6905847620" lon="20.0771576632">
        <ele>1106.61</ele>
        <time>2019-07-12T12:14:32Z</time>
      </trkpt>
      <trkpt lat="42.6904912200" lon="20.0771890953">
        <ele>1108.06</ele>
        <time>2019-07-12T12:14:39Z</time>
      </trkpt>
      <trkpt lat="42.6904534176" lon="20.0772042666">
        <ele>1108.06</ele>
        <time>2019-07-12T12:14:42Z</time>
      </trkpt>
      <trkpt lat="42.6903984323" lon="20.0771922804">
        <ele>1108.06</ele>
        <time>2019-07-12T12:14:47Z</time>
      </trkpt>
      <trkpt lat="42.6903307904" lon="20.0771377981">
        <ele>1107.58</ele>
        <time>2019-07-12T12:14:54Z</time>
      </trkpt>
      <trkpt lat="42.6902207360" lon="20.0770394783">
        <ele>1108.06</ele>
        <time>2019-07-12T12:15:04Z</time>
      </trkpt>
      <trkpt lat="42.6901743002" lon="20.0769438408">
        <ele>1108.54</ele>
        <time>2019-07-12T12:15:10Z</time>
      </trkpt>
      <trkpt lat="42.6900650002" lon="20.0767076388">
        <ele>1108.54</ele>
        <time>2019-07-12T12:15:25Z</time>
      </trkpt>
      <trkpt lat="42.6899821032" lon="20.0765249133">
        <ele>1108.54</ele>
        <time>2019-07-12T12:15:37Z</time>
      </trkpt>
      <trkpt lat="42.6898932550" lon="20.0763101690">
        <ele>1109.50</ele>
        <time>2019-07-12T12:15:51Z</time>
      </trkpt>
      <trkpt lat="42.6898121182" lon="20.0760329794">
        <ele>1109.50</ele>
        <time>2019-07-12T12:16:07Z</time>
      </trkpt>
      <trkpt lat="42.6897505950" lon="20.0758090988">
        <ele>1110.46</ele>
        <time>2019-07-12T12:16:19Z</time>
      </trkpt>
      <trkpt lat="42.6896942686" lon="20.0755801890">
        <ele>1111.42</ele>
        <time>2019-07-12T12:16:33Z</time>
      </trkpt>
      <trkpt lat="42.6896294765" lon="20.0753558893">
        <ele>1111.90</ele>
        <time>2019-07-12T12:16:46Z</time>
      </trkpt>
      <trkpt lat="42.6895436458" lon="20.0751013309">
        <ele>1112.38</ele>
        <time>2019-07-12T12:17:02Z</time>
      </trkpt>
      <trkpt lat="42.6894434821" lon="20.0749104749">
        <ele>1113.34</ele>
        <time>2019-07-12T12:17:15Z</time>
      </trkpt>
      <trkpt lat="42.6893155742" lon="20.0747116562">
        <ele>1113.82</ele>
        <time>2019-07-12T12:17:29Z</time>
      </trkpt>
      <trkpt lat="42.6892306656" lon="20.0745755341">
        <ele>1114.31</ele>
        <time>2019-07-12T12:17:40Z</time>
      </trkpt>
      <trkpt lat="42.6891195215" lon="20.0743689202">
        <ele>1115.27</ele>
        <time>2019-07-12T12:17:54Z</time>
      </trkpt>
      <trkpt lat="42.6890340261" lon="20.0741364900">
        <ele>1116.23</ele>
        <time>2019-07-12T12:18:09Z</time>
      </trkpt>
      <trkpt lat="42.6890111435" lon="20.0740255974">
        <ele>1116.71</ele>
        <time>2019-07-12T12:18:16Z</time>
      </trkpt>
      <trkpt lat="42.6889900211" lon="20.0737775769">
        <ele>1117.19</ele>
        <time>2019-07-12T12:18:31Z</time>
      </trkpt>
      <trkpt lat="42.6889550686" lon="20.0735166483">
        <ele>1118.15</ele>
        <time>2019-07-12T12:18:46Z</time>
      </trkpt>
      <trkpt lat="42.6888846606" lon="20.0732997246">
        <ele>1118.63</ele>
        <time>2019-07-12T12:19:00Z</time>
      </trkpt>
      <trkpt lat="42.6888782065" lon="20.0732886605">
        <ele>1118.63</ele>
        <time>2019-07-12T12:19:01Z</time>
      </trkpt>
      <trkpt lat="42.6887317747" lon="20.0729952101">
        <ele>1119.59</ele>
        <time>2019-07-12T12:19:20Z</time>
      </trkpt>
      <trkpt lat="42.6886351313" lon="20.0727599300">
        <ele>1121.03</ele>
        <time>2019-07-12T12:19:36Z</time>
      </trkpt>
      <trkpt lat="42.6885872707" lon="20.0726575032">
        <ele>1121.52</ele>
        <time>2019-07-12T12:19:44Z</time>
      </trkpt>
      <trkpt lat="42.6885185391" lon="20.0724321138">
        <ele>1122.00</ele>
        <time>2019-07-12T12:20:00Z</time>
      </trkpt>
      <trkpt lat="42.6884611230" lon="20.0722156093">
        <ele>1123.44</ele>
        <time>2019-07-12T12:20:14Z</time>
      </trkpt>
      <trkpt lat="42.6884175371" lon="20.0720938202">
        <ele>1123.92</ele>
        <time>2019-07-12T12:20:22Z</time>
      </trkpt>
      <trkpt lat="42.6883705147" lon="20.0720715243">
        <ele>1124.40</ele>
        <time>2019-07-12T12:20:26Z</time>
      </trkpt>
      <trkpt lat="42.6882783975" lon="20.0721366517">
        <ele>1125.36</ele>
        <time>2019-07-12T12:20:35Z</time>
      </trkpt>
      <trkpt lat="42.6882146113" lon="20.0723055471">
        <ele>1126.80</ele>
        <time>2019-07-12T12:20:47Z</time>
      </trkpt>
      <trkpt lat="42.6882056426" lon="20.0723184552">
        <ele>1126.80</ele>
        <time>2019-07-12T12:20:48Z</time>
      </trkpt>
      <trkpt lat="42.6881589554" lon="20.0724194571">
        <ele>1127.76</ele>
        <time>2019-07-12T12:20:56Z</time>
      </trkpt>
      <trkpt lat="42.6881424431" lon="20.0724579301">
        <ele>1128.73</ele>
        <time>2019-07-12T12:20:59Z</time>
      </trkpt>
      <trkpt lat="42.6881300379" lon="20.0725010131">
        <ele>1128.73</ele>
        <time>2019-07-12T12:21:02Z</time>
      </trkpt>
      <trkpt lat="42.6880653296" lon="20.0726953056">
        <ele>1131.13</ele>
        <time>2019-07-12T12:21:17Z</time>
      </trkpt>
      <trkpt lat="42.6880582049" lon="20.0727782864">
        <ele>1132.09</ele>
        <time>2019-07-12T12:21:22Z</time>
      </trkpt>
      <trkpt lat="42.6880644076" lon="20.0729693100">
        <ele>1134.01</ele>
        <time>2019-07-12T12:21:35Z</time>
      </trkpt>
      <trkpt lat="42.6881015394" lon="20.0731768459">
        <ele>1135.94</ele>
        <time>2019-07-12T12:21:48Z</time>
      </trkpt>
      <trkpt lat="42.6881475560" lon="20.0733782630">
        <ele>1136.90</ele>
        <time>2019-07-12T12:22:02Z</time>
      </trkpt>
      <trkpt lat="42.6881504059" lon="20.0733948592">
        <ele>1137.38</ele>
        <time>2019-07-12T12:22:03Z</time>
      </trkpt>
      <trkpt lat="42.6882053912" lon="20.0735862181">
        <ele>1138.82</ele>
        <time>2019-07-12T12:22:16Z</time>
      </trkpt>
      <trkpt lat="42.6882329676" lon="20.0737612322">
        <ele>1139.78</ele>
        <time>2019-07-12T12:22:28Z</time>
      </trkpt>
      <trkpt lat="42.6882367395" lon="20.0737709552">
        <ele>1140.26</ele>
        <time>2019-07-12T12:22:29Z</time>
      </trkpt>
      <trkpt lat="42.6882811636" lon="20.0738287065">
        <ele>1140.74</ele>
        <time>2019-07-12T12:22:34Z</time>
      </trkpt>
      <trkpt lat="42.6883348916" lon="20.0739102624">
        <ele>1141.70</ele>
        <time>2019-07-12T12:22:41Z</time>
      </trkpt>
      <trkpt lat="42.6883504819" lon="20.0739685167">
        <ele>1142.18</ele>
        <time>2019-07-12T12:22:45Z</time>
      </trkpt>
      <trkpt lat="42.6883801538" lon="20.0741419382">
        <ele>1143.63</ele>
        <time>2019-07-12T12:22:57Z</time>
      </trkpt>
      <trkpt lat="42.6883262582" lon="20.0744044594">
        <ele>1145.55</ele>
        <time>2019-07-12T12:23:14Z</time>
      </trkpt>
      <trkpt lat="42.6883028727" lon="20.0744944811">
        <ele>1146.03</ele>
        <time>2019-07-12T12:23:20Z</time>
      </trkpt>
      <trkpt lat="42.6882906351" lon="20.0745234825">
        <ele>1146.03</ele>
        <time>2019-07-12T12:23:22Z</time>
      </trkpt>
      <trkpt lat="42.6882473845" lon="20.0746870972">
        <ele>1147.95</ele>
        <time>2019-07-12T12:23:34Z</time>
      </trkpt>
      <trkpt lat="42.6882115100" lon="20.0748611055">
        <ele>1149.39</ele>
        <time>2019-07-12T12:23:46Z</time>
      </trkpt>
      <trkpt lat="42.6882187184" lon="20.0749715790">
        <ele>1150.35</ele>
        <time>2019-07-12T12:23:53Z</time>
      </trkpt>
      <trkpt lat="42.6882981788" lon="20.0751823001">
        <ele>1151.80</ele>
        <time>2019-07-12T12:24:07Z</time>
      </trkpt>
      <trkpt lat="42.6883149426" lon="20.0754126348">
        <ele>1153.24</ele>
        <time>2019-07-12T12:24:20Z</time>
      </trkpt>
      <trkpt lat="42.6883394178" lon="20.0755576417">
        <ele>1154.20</ele>
        <time>2019-07-12T12:24:30Z</time>
      </trkpt>
      <trkpt lat="42.6883333828" lon="20.0756391976">
        <ele>1154.68</ele>
        <time>2019-07-12T12:24:34Z</time>
      </trkpt>
      <trkpt lat="42.6883258391" lon="20.0758391898">
        <ele>1156.60</ele>
        <time>2019-07-12T12:24:47Z</time>
      </trkpt>
      <trkpt lat="42.6883111708" lon="20.0759519264">
        <ele>1157.08</ele>
        <time>2019-07-12T12:24:58Z</time>
      </trkpt>
      <trkpt lat="42.6882658247" lon="20.0761700235">
        <ele>1158.53</ele>
        <time>2019-07-12T12:25:12Z</time>
      </trkpt>
      <trkpt lat="42.6881946623" lon="20.0763581973">
        <ele>1160.93</ele>
        <time>2019-07-12T12:25:27Z</time>
      </trkpt>
      <trkpt lat="42.6881805807" lon="20.0763768051">
        <ele>1160.93</ele>
        <time>2019-07-12T12:25:29Z</time>
      </trkpt>
      <trkpt lat="42.6880879607" lon="20.0765491370">
        <ele>1161.41</ele>
        <time>2019-07-12T12:25:43Z</time>
      </trkpt>
      <trkpt lat="42.6880900562" lon="20.0765659846">
        <ele>1161.41</ele>
        <time>2019-07-12T12:25:44Z</time>
      </trkpt>
      <trkpt lat="42.6880997792" lon="20.0766222272">
        <ele>1161.41</ele>
        <time>2019-07-12T12:25:47Z</time>
      </trkpt>
      <trkpt lat="42.6881618891" lon="20.0766771287">
        <ele>1161.41</ele>
        <time>2019-07-12T12:25:53Z</time>
      </trkpt>
      <trkpt lat="42.6882048883" lon="20.0766990893">
        <ele>1161.41</ele>
        <time>2019-07-12T12:25:57Z</time>
      </trkpt>
      <trkpt lat="42.6883292757" lon="20.0767253246">
        <ele>1160.45</ele>
        <time>2019-07-12T12:26:07Z</time>
      </trkpt>
      <trkpt lat="42.6885462832" lon="20.0768758636">
        <ele>1159.49</ele>
        <time>2019-07-12T12:26:25Z</time>
      </trkpt>
      <trkpt lat="42.6885627117" lon="20.0771041028">
        <ele>1158.53</ele>
        <time>2019-07-12T12:26:38Z</time>
      </trkpt>
      <trkpt lat="42.6885719318" lon="20.0771616027">
        <ele>1158.05</ele>
        <time>2019-07-12T12:26:41Z</time>
      </trkpt>
      <trkpt lat="42.6885834150" lon="20.0771969743">
        <ele>1157.56</ele>
        <time>2019-07-12T12:26:43Z</time>
      </trkpt>
      <trkpt lat="42.6886688266" lon="20.0772997364">
        <ele>1157.08</ele>
        <time>2019-07-12T12:26:52Z</time>
      </trkpt>
      <trkpt lat="42.6887715887" lon="20.0773944519">
        <ele>1157.08</ele>
        <time>2019-07-12T12:27:01Z</time>
      </trkpt>
      <trkpt lat="42.6888316032" lon="20.0774337631">
        <ele>1157.08</ele>
        <time>2019-07-12T12:27:06Z</time>
      </trkpt>
      <trkpt lat="42.6889439207" lon="20.0775185041">
        <ele>1157.08</ele>
        <time>2019-07-12T12:27:16Z</time>
      </trkpt>
      <trkpt lat="42.6890099701" lon="20.0775867328">
        <ele>1157.08</ele>
        <time>2019-07-12T12:27:22Z</time>
      </trkpt>
      <trkpt lat="42.6890414022" lon="20.0776376948">
        <ele>1157.08</ele>
        <time>2019-07-12T12:27:26Z</time>
      </trkpt>
      <trkpt lat="42.6891083736" lon="20.0777894910">
        <ele>1156.60</ele>
        <time>2019-07-12T12:27:36Z</time>
      </trkpt>
      <trkpt lat="42.6891681366" lon="20.0778780878">
        <ele>1156.60</ele>
        <time>2019-07-12T12:27:43Z</time>
      </trkpt>
      <trkpt lat="42.6892157458" lon="20.0779369287">
        <ele>1156.12</ele>
        <time>2019-07-12T12:27:48Z</time>
      </trkpt>
      <trkpt lat="42.6892731618" lon="20.0779834483">
        <ele>1156.12</ele>
        <time>2019-07-12T12:27:54Z</time>
      </trkpt>
      <trkpt lat="42.6892981399" lon="20.0779971946">
        <ele>1156.12</ele>
        <time>2019-07-12T12:27:56Z</time>
      </trkpt>
      <trkpt lat="42.6894656103" lon="20.0781436265">
        <ele>1156.12</ele>
        <time>2019-07-12T12:28:11Z</time>
      </trkpt>
      <trkpt lat="42.6895825379" lon="20.0782086700">
        <ele>1156.12</ele>
        <time>2019-07-12T12:28:20Z</time>
      </trkpt>
      <trkpt lat="42.6897331607" lon="20.0783863664">
        <ele>1156.12</ele>
        <time>2019-07-12T12:28:35Z</time>
      </trkpt>
      <trkpt lat="42.6899260283" lon="20.0785506517">
        <ele>1157.08</ele>
        <time>2019-07-12T12:28:52Z</time>
      </trkpt>
      <trkpt lat="42.6900449675" lon="20.0787279289">
        <ele>1158.05</ele>
        <time>2019-07-12T12:29:06Z</time>
      </trkpt>
      <trkpt lat="42.6900784951" lon="20.0789212156">
        <ele>1159.49</ele>
        <time>2019-07-12T12:29:19Z</time>
      </trkpt>
      <trkpt lat="42.6900898945" lon="20.0790065434">
        <ele>1160.45</ele>
        <time>2019-07-12T12:29:25Z</time>
      </trkpt>
      <trkpt lat="42.6900864579" lon="20.0790227205">
        <ele>1160.45</ele>
        <time>2019-07-12T12:29:26Z</time>
      </trkpt>
      <trkpt lat="42.6900934149" lon="20.0790366344">
        <ele>1160.45</ele>
        <time>2019-07-12T12:29:27Z</time>
      </trkpt>
      <trkpt lat="42.6900933310" lon="20.0792295020">
        <ele>1161.89</ele>
        <time>2019-07-12T12:29:39Z</time>
      </trkpt>
      <trkpt lat="42.6900950912" lon="20.0793765206">
        <ele>1162.37</ele>
        <time>2019-07-12T12:29:48Z</time>
      </trkpt>
      <trkpt lat="42.6901091728" lon="20.0794521254">
        <ele>1162.85</ele>
        <time>2019-07-12T12:29:53Z</time>
      </trkpt>
      <trkpt lat="42.6901227515" lon="20.0794906821">
        <ele>1163.33</ele>
        <time>2019-07-12T12:29:55Z</time>
      </trkpt>
      <trkpt lat="42.6901346538" lon="20.0795085356">
        <ele>1163.33</ele>
        <time>2019-07-12T12:29:57Z</time>
      </trkpt>
      <trkpt lat="42.6901476458" lon="20.0795768481">
        <ele>1163.33</ele>
        <time>2019-07-12T12:30:01Z</time>
      </trkpt>
      <trkpt lat="42.6901767310" lon="20.0797189213">
        <ele>1163.81</ele>
        <time>2019-07-12T12:30:10Z</time>
      </trkpt>
      <trkpt lat="42.6902020443" lon="20.0798613299">
        <ele>1165.26</ele>
        <time>2019-07-12T12:30:19Z</time>
      </trkpt>
      <trkpt lat="42.6901981048" lon="20.0801172294">
        <ele>1165.74</ele>
        <time>2019-07-12T12:30:36Z</time>
      </trkpt>
      <trkpt lat="42.6901887171" lon="20.0801629946">
        <ele>1166.22</ele>
        <time>2019-07-12T12:30:39Z</time>
      </trkpt>
      <trkpt lat="42.6901390962" lon="20.0803678483">
        <ele>1167.18</ele>
        <time>2019-07-12T12:30:52Z</time>
      </trkpt>
      <trkpt lat="42.6900309697" lon="20.0805448741">
        <ele>1168.14</ele>
        <time>2019-07-12T12:31:05Z</time>
      </trkpt>
      <trkpt lat="42.6898855437" lon="20.0806977600">
        <ele>1170.54</ele>
        <time>2019-07-12T12:31:21Z</time>
      </trkpt>
      <trkpt lat="42.6898350846" lon="20.0807422679">
        <ele>1171.02</ele>
        <time>2019-07-12T12:31:27Z</time>
      </trkpt>
      <trkpt lat="42.6897718851" lon="20.0808069762">
        <ele>1171.98</ele>
        <time>2019-07-12T12:31:35Z</time>
      </trkpt>
      <trkpt lat="42.6896460727" lon="20.0809599459">
        <ele>1173.43</ele>
        <time>2019-07-12T12:31:50Z</time>
      </trkpt>
      <trkpt lat="42.6895437296" lon="20.0810790528">
        <ele>1174.39</ele>
        <time>2019-07-12T12:32:02Z</time>
      </trkpt>
      <trkpt lat="42.6894713938" lon="20.0812248141">
        <ele>1176.31</ele>
        <time>2019-07-12T12:32:15Z</time>
      </trkpt>
      <trkpt lat="42.6893997286" lon="20.0814201962">
        <ele>1178.71</ele>
        <time>2019-07-12T12:32:30Z</time>
      </trkpt>
      <trkpt lat="42.6893496048" lon="20.0815327652">
        <ele>1180.16</ele>
        <time>2019-07-12T12:32:40Z</time>
      </trkpt>
      <trkpt lat="42.6893223636" lon="20.0815629400">
        <ele>1180.64</ele>
        <time>2019-07-12T12:32:42Z</time>
      </trkpt>
      <trkpt lat="42.6891943719" lon="20.0817704760">
        <ele>1182.56</ele>
        <time>2019-07-12T12:32:58Z</time>
      </trkpt>
      <trkpt lat="42.6890794560" lon="20.0819398742">
        <ele>1184.96</ele>
        <time>2019-07-12T12:33:13Z</time>
      </trkpt>
      <trkpt lat="42.6890336070" lon="20.0819601584">
        <ele>1185.44</ele>
        <time>2019-07-12T12:33:17Z</time>
      </trkpt>
      <trkpt lat="42.6889794599" lon="20.0819298159">
        <ele>1185.92</ele>
        <time>2019-07-12T12:33:23Z</time>
      </trkpt>
      <trkpt lat="42.6889922004" lon="20.0817414746">
        <ele>1186.88</ele>
        <time>2019-07-12T12:33:37Z</time>
      </trkpt>
      <trkpt lat="42.6890217047" lon="20.0816896744">
        <ele>1187.37</ele>
        <time>2019-07-12T12:33:42Z</time>
      </trkpt>
      <trkpt lat="42.6890423242" lon="20.0816465076">
        <ele>1188.33</ele>
        <time>2019-07-12T12:33:46Z</time>
      </trkpt>
      <trkpt lat="42.6891389675" lon="20.0814535562">
        <ele>1190.25</ele>
        <time>2019-07-12T12:34:02Z</time>
      </trkpt>
      <trkpt lat="42.6891738363" lon="20.0813490339">
        <ele>1191.21</ele>
        <time>2019-07-12T12:34:10Z</time>
      </trkpt>
      <trkpt lat="42.6891748421" lon="20.0813007541">
        <ele>1191.69</ele>
        <time>2019-07-12T12:34:13Z</time>
      </trkpt>
      <trkpt lat="42.6891887560" lon="20.0812606886">
        <ele>1192.17</ele>
        <time>2019-07-12T12:34:16Z</time>
      </trkpt>
      <trkpt lat="42.6891955454" lon="20.0812259037">
        <ele>1192.65</ele>
        <time>2019-07-12T12:34:19Z</time>
      </trkpt>
      <trkpt lat="42.6892351918" lon="20.0811044499">
        <ele>1193.61</ele>
        <time>2019-07-12T12:34:28Z</time>
      </trkpt>
      <trkpt lat="42.6892552245" lon="20.0809763744">
        <ele>1195.06</ele>
        <time>2019-07-12T12:34:38Z</time>
      </trkpt>
      <trkpt lat="42.6892630197" lon="20.0809134264">
        <ele>1195.54</ele>
        <time>2019-07-12T12:34:42Z</time>
      </trkpt>
      <trkpt lat="42.6892573200" lon="20.0808792282">
        <ele>1196.50</ele>
        <time>2019-07-12T12:34:44Z</time>
      </trkpt>
      <trkpt lat="42.6892879978" lon="20.0806835108">
        <ele>1198.42</ele>
        <time>2019-07-12T12:34:57Z</time>
      </trkpt>
      <trkpt lat="42.6892807893" lon="20.0805413537">
        <ele>1200.34</ele>
        <time>2019-07-12T12:35:07Z</time>
      </trkpt>
      <trkpt lat="42.6892242953" lon="20.0803440437">
        <ele>1202.75</ele>
        <time>2019-07-12T12:35:21Z</time>
      </trkpt>
      <trkpt lat="42.6892194338" lon="20.0803326443">
        <ele>1202.75</ele>
        <time>2019-07-12T12:35:22Z</time>
      </trkpt>
      <trkpt lat="42.6891242992" lon="20.0801662635">
        <ele>1204.67</ele>
        <time>2019-07-12T12:35:37Z</time>
      </trkpt>
      <trkpt lat="42.6890564896" lon="20.0800769962">
        <ele>1206.11</ele>
        <time>2019-07-12T12:35:47Z</time>
      </trkpt>
      <trkpt lat="42.6889590919" lon="20.0799933448">
        <ele>1208.51</ele>
        <time>2019-07-12T12:36:00Z</time>
      </trkpt>
      <trkpt lat="42.6888933778" lon="20.0798928458">
        <ele>1209.96</ele>
        <time>2019-07-12T12:36:09Z</time>
      </trkpt>
      <trkpt lat="42.6888473611" lon="20.0798062608">
        <ele>1210.92</ele>
        <time>2019-07-12T12:36:16Z</time>
      </trkpt>
      <trkpt lat="42.6888361294" lon="20.0797867309">
        <ele>1211.40</ele>
        <time>2019-07-12T12:36:18Z</time>
      </trkpt>
      <trkpt lat="42.6887531485" lon="20.0796619244">
        <ele>1212.84</ele>
        <time>2019-07-12T12:36:30Z</time>
      </trkpt>
      <trkpt lat="42.6886952296" lon="20.0796464179">
        <ele>1214.28</ele>
        <time>2019-07-12T12:36:37Z</time>
      </trkpt>
      <trkpt lat="42.6886632107" lon="20.0796910096">
        <ele>1214.76</ele>
        <time>2019-07-12T12:36:42Z</time>
      </trkpt>
      <trkpt lat="42.6886471175" lon="20.0797831267">
        <ele>1216.21</ele>
        <time>2019-07-12T12:36:49Z</time>
      </trkpt>
      <trkpt lat="42.6886839140" lon="20.0799259543">
        <ele>1217.17</ele>
        <time>2019-07-12T12:37:00Z</time>
      </trkpt>
      <trkpt lat="42.6887012646" lon="20.0800928380">
        <ele>1219.09</ele>
        <time>2019-07-12T12:37:13Z</time>
      </trkpt>
      <trkpt lat="42.6887257397" lon="20.0802344922">
        <ele>1220.53</ele>
        <time>2019-07-12T12:37:24Z</time>
      </trkpt>
      <trkpt lat="42.6887411624" lon="20.0804207381">
        <ele>1222.45</ele>
        <time>2019-07-12T12:37:37Z</time>
      </trkpt>
      <trkpt lat="42.6887209620" lon="20.0805762224">
        <ele>1223.90</ele>
        <time>2019-07-12T12:37:48Z</time>
      </trkpt>
      <trkpt lat="42.6886690781" lon="20.0807592832">
        <ele>1225.34</ele>
        <time>2019-07-12T12:38:01Z</time>
      </trkpt>
      <trkpt lat="42.6886171941" lon="20.0809145998">
        <ele>1226.30</ele>
        <time>2019-07-12T12:38:12Z</time>
      </trkpt>
      <trkpt lat="42.6885461994" lon="20.0810491294">
        <ele>1228.22</ele>
        <time>2019-07-12T12:38:24Z</time>
      </trkpt>
      <trkpt lat="42.6885392424" lon="20.0810564216">
        <ele>1228.22</ele>
        <time>2019-07-12T12:38:25Z</time>
      </trkpt>
      <trkpt lat="42.6884560939" lon="20.0811038632">
        <ele>1229.18</ele>
        <time>2019-07-12T12:38:33Z</time>
      </trkpt>
      <trkpt lat="42.6883823331" lon="20.0810131710">
        <ele>1229.66</ele>
        <time>2019-07-12T12:38:46Z</time>
      </trkpt>
      <trkpt lat="42.6883751247" lon="20.0807919726">
        <ele>1232.07</ele>
        <time>2019-07-12T12:39:00Z</time>
      </trkpt>
      <trkpt lat="42.6883601211" lon="20.0806367397">
        <ele>1234.47</ele>
        <time>2019-07-12T12:39:14Z</time>
      </trkpt>
      <trkpt lat="42.6883338019" lon="20.0805442035">
        <ele>1235.43</ele>
        <time>2019-07-12T12:39:22Z</time>
      </trkpt>
      <trkpt lat="42.6883265935" lon="20.0805210695">
        <ele>1235.91</ele>
        <time>2019-07-12T12:39:24Z</time>
      </trkpt>
      <trkpt lat="42.6882887073" lon="20.0804717839">
        <ele>1236.87</ele>
        <time>2019-07-12T12:39:28Z</time>
      </trkpt>
      <trkpt lat="42.6881817542" lon="20.0803342368">
        <ele>1237.83</ele>
        <time>2019-07-12T12:39:42Z</time>
      </trkpt>
      <trkpt lat="42.6880820934" lon="20.0802689418">
        <ele>1239.76</ele>
        <time>2019-07-12T12:39:54Z</time>
      </trkpt>
      <trkpt lat="42.6879755594" lon="20.0802137051">
        <ele>1241.20</ele>
        <time>2019-07-12T12:40:05Z</time>
      </trkpt>
      <trkpt lat="42.6878989488" lon="20.0801906548">
        <ele>1243.12</ele>
        <time>2019-07-12T12:40:14Z</time>
      </trkpt>
      <trkpt lat="42.6877883077" lon="20.0800229330">
        <ele>1244.56</ele>
        <time>2019-07-12T12:40:28Z</time>
      </trkpt>
      <trkpt lat="42.6877500024" lon="20.0798815303">
        <ele>1246.01</ele>
        <time>2019-07-12T12:40:37Z</time>
      </trkpt>
      <trkpt lat="42.6876433846" lon="20.0797433965">
        <ele>1247.45</ele>
        <time>2019-07-12T12:40:50Z</time>
      </trkpt>
      <trkpt lat="42.6875536144" lon="20.0796869863">
        <ele>1248.41</ele>
        <time>2019-07-12T12:40:59Z</time>
      </trkpt>
      <trkpt lat="42.6874190010" lon="20.0796599127">
        <ele>1250.33</ele>
        <time>2019-07-12T12:41:12Z</time>
      </trkpt>
      <trkpt lat="42.6872947812" lon="20.0796300732">
        <ele>1251.77</ele>
        <time>2019-07-12T12:41:23Z</time>
      </trkpt>
      <trkpt lat="42.6871935278" lon="20.0795843918">
        <ele>1253.22</ele>
        <time>2019-07-12T12:41:34Z</time>
      </trkpt>
      <trkpt lat="42.6871150732" lon="20.0795429014">
        <ele>1253.70</ele>
        <time>2019-07-12T12:41:42Z</time>
      </trkpt>
      <trkpt lat="42.6870942023" lon="20.0795284007">
        <ele>1254.18</ele>
        <time>2019-07-12T12:41:44Z</time>
      </trkpt>
      <trkpt lat="42.6870409772" lon="20.0794929452">
        <ele>1255.14</ele>
        <time>2019-07-12T12:41:50Z</time>
      </trkpt>
      <trkpt lat="42.6870185137" lon="20.0794666260">
        <ele>1255.62</ele>
        <time>2019-07-12T12:41:53Z</time>
      </trkpt>
      <trkpt lat="42.6869107224" lon="20.0792951323">
        <ele>1256.58</ele>
        <time>2019-07-12T12:42:06Z</time>
      </trkpt>
      <trkpt lat="42.6868880074" lon="20.0792648736">
        <ele>1257.54</ele>
        <time>2019-07-12T12:42:09Z</time>
      </trkpt>
      <trkpt lat="42.6867771987" lon="20.0791321881">
        <ele>1259.94</ele>
        <time>2019-07-12T12:42:23Z</time>
      </trkpt>
      <trkpt lat="42.6866665576" lon="20.0790294260">
        <ele>1261.39</ele>
        <time>2019-07-12T12:42:34Z</time>
      </trkpt>
      <trkpt lat="42.6865481213" lon="20.0789378118">
        <ele>1262.83</ele>
        <time>2019-07-12T12:42:45Z</time>
      </trkpt>
      <trkpt lat="42.6864647213" lon="20.0788930524">
        <ele>1264.27</ele>
        <time>2019-07-12T12:42:53Z</time>
      </trkpt>
      <trkpt lat="42.6864127535" lon="20.0789461099">
        <ele>1265.23</ele>
        <time>2019-07-12T12:43:00Z</time>
      </trkpt>
      <trkpt lat="42.6864135079" lon="20.0789814815">
        <ele>1265.23</ele>
        <time>2019-07-12T12:43:02Z</time>
      </trkpt>
      <trkpt lat="42.6864380669" lon="20.0790799689">
        <ele>1266.19</ele>
        <time>2019-07-12T12:43:08Z</time>
      </trkpt>
      <trkpt lat="42.6864603627" lon="20.0791566633">
        <ele>1267.16</ele>
        <time>2019-07-12T12:43:13Z</time>
      </trkpt>
      <trkpt lat="42.6864949800" lon="20.0792189408">
        <ele>1267.16</ele>
        <time>2019-07-12T12:43:18Z</time>
      </trkpt>
      <trkpt lat="42.6865640469" lon="20.0794315897">
        <ele>1270.04</ele>
        <time>2019-07-12T12:43:33Z</time>
      </trkpt>
      <trkpt lat="42.6865666453" lon="20.0795614254">
        <ele>1270.52</ele>
        <time>2019-07-12T12:43:40Z</time>
      </trkpt>
      <trkpt lat="42.6865834091" lon="20.0796132255">
        <ele>1271.00</ele>
        <time>2019-07-12T12:43:44Z</time>
      </trkpt>
      <trkpt lat="42.6866311859" lon="20.0797566399">
        <ele>1272.44</ele>
        <time>2019-07-12T12:43:54Z</time>
      </trkpt>
      <trkpt lat="42.6866610255" lon="20.0798069313">
        <ele>1273.40</ele>
        <time>2019-07-12T12:43:59Z</time>
      </trkpt>
      <trkpt lat="42.6866733469" lon="20.0798891578">
        <ele>1274.36</ele>
        <time>2019-07-12T12:44:06Z</time>
      </trkpt>
      <trkpt lat="42.6866561640" lon="20.0799209252">
        <ele>1274.85</ele>
        <time>2019-07-12T12:44:09Z</time>
      </trkpt>
      <trkpt lat="42.6866370533" lon="20.0799394492">
        <ele>1274.85</ele>
        <time>2019-07-12T12:44:11Z</time>
      </trkpt>
      <trkpt lat="42.6865576766" lon="20.0798822846">
        <ele>1276.29</ele>
        <time>2019-07-12T12:44:20Z</time>
      </trkpt>
      <trkpt lat="42.6865249034" lon="20.0798428059">
        <ele>1276.77</ele>
        <time>2019-07-12T12:44:24Z</time>
      </trkpt>
      <trkpt lat="42.6865085587" lon="20.0798280537">
        <ele>1277.25</ele>
        <time>2019-07-12T12:44:26Z</time>
      </trkpt>
      <trkpt lat="42.6864007674" lon="20.0797005650">
        <ele>1279.65</ele>
        <time>2019-07-12T12:44:41Z</time>
      </trkpt>
      <trkpt lat="42.6863175351" lon="20.0796181709">
        <ele>1281.09</ele>
        <time>2019-07-12T12:44:50Z</time>
      </trkpt>
      <trkpt lat="42.6861829218" lon="20.0794771872">
        <ele>1283.02</ele>
        <time>2019-07-12T12:45:03Z</time>
      </trkpt>
      <trkpt lat="42.6860869490" lon="20.0794044323">
        <ele>1284.46</ele>
        <time>2019-07-12T12:45:13Z</time>
      </trkpt>
      <trkpt lat="42.6860573608" lon="20.0793912727">
        <ele>1284.94</ele>
        <time>2019-07-12T12:45:16Z</time>
      </trkpt>
      <trkpt lat="42.6860208157" lon="20.0793942902">
        <ele>1285.42</ele>
        <time>2019-07-12T12:45:19Z</time>
      </trkpt>
      <trkpt lat="42.6859908924" lon="20.0794748403">
        <ele>1286.86</ele>
        <time>2019-07-12T12:45:26Z</time>
      </trkpt>
      <trkpt lat="42.6860161219" lon="20.0795870740">
        <ele>1287.82</ele>
        <time>2019-07-12T12:45:33Z</time>
      </trkpt>
      <trkpt lat="42.6860765554" lon="20.0797783490">
        <ele>1289.75</ele>
        <time>2019-07-12T12:45:47Z</time>
      </trkpt>
      <trkpt lat="42.6861048862" lon="20.0798491761">
        <ele>1291.19</ele>
        <time>2019-07-12T12:45:53Z</time>
      </trkpt>
      <trkpt lat="42.6861410961" lon="20.0800622441">
        <ele>1292.63</ele>
        <time>2019-07-12T12:46:06Z</time>
      </trkpt>
      <trkpt lat="42.6861624699" lon="20.0801176485">
        <ele>1293.59</ele>
        <time>2019-07-12T12:46:10Z</time>
      </trkpt>
      <trkpt lat="42.6861953270" lon="20.0801976956">
        <ele>1295.03</ele>
        <time>2019-07-12T12:46:17Z</time>
      </trkpt>
      <trkpt lat="42.6862065587" lon="20.0802251045">
        <ele>1295.51</ele>
        <time>2019-07-12T12:46:19Z</time>
      </trkpt>
      <trkpt lat="42.6862680819" lon="20.0804173853">
        <ele>1297.44</ele>
        <time>2019-07-12T12:46:33Z</time>
      </trkpt>
      <trkpt lat="42.6863250788" lon="20.0805899687">
        <ele>1299.36</ele>
        <time>2019-07-12T12:46:46Z</time>
      </trkpt>
      <trkpt lat="42.6863503922" lon="20.0806484744">
        <ele>1300.32</ele>
        <time>2019-07-12T12:46:51Z</time>
      </trkpt>
      <trkpt lat="42.6864296850" lon="20.0808491372">
        <ele>1302.72</ele>
        <time>2019-07-12T12:47:07Z</time>
      </trkpt>
      <trkpt lat="42.6864636317" lon="20.0809213892">
        <ele>1304.17</ele>
        <time>2019-07-12T12:47:13Z</time>
      </trkpt>
      <trkpt lat="42.6864818204" lon="20.0809367280">
        <ele>1304.17</ele>
        <time>2019-07-12T12:47:15Z</time>
      </trkpt>
      <trkpt lat="42.6865061279" lon="20.0809823256">
        <ele>1304.65</ele>
        <time>2019-07-12T12:47:19Z</time>
      </trkpt>
      <trkpt lat="42.6866067946" lon="20.0811413303">
        <ele>1306.57</ele>
        <time>2019-07-12T12:47:33Z</time>
      </trkpt>
      <trkpt lat="42.6866738498" lon="20.0812879298">
        <ele>1308.49</ele>
        <time>2019-07-12T12:47:44Z</time>
      </trkpt>
      <trkpt lat="42.6867184415" lon="20.0813802984">
        <ele>1308.97</ele>
        <time>2019-07-12T12:47:50Z</time>
      </trkpt>
      <trkpt lat="42.6867491193" lon="20.0814601779">
        <ele>1309.93</ele>
        <time>2019-07-12T12:47:56Z</time>
      </trkpt>
      <trkpt lat="42.6867661346" lon="20.0814823061">
        <ele>1310.41</ele>
        <time>2019-07-12T12:47:58Z</time>
      </trkpt>
      <trkpt lat="42.6868404821" lon="20.0816781074">
        <ele>1312.82</ele>
        <time>2019-07-12T12:48:13Z</time>
      </trkpt>
      <trkpt lat="42.6868442539" lon="20.0816930272">
        <ele>1312.82</ele>
        <time>2019-07-12T12:48:14Z</time>
      </trkpt>
      <trkpt lat="42.6869106386" lon="20.0818197615">
        <ele>1314.26</ele>
        <time>2019-07-12T12:48:26Z</time>
      </trkpt>
      <trkpt lat="42.6869276538" lon="20.0818782672">
        <ele>1315.70</ele>
        <time>2019-07-12T12:48:31Z</time>
      </trkpt>
      <trkpt lat="42.6869424898" lon="20.0819666125">
        <ele>1316.66</ele>
        <time>2019-07-12T12:48:38Z</time>
      </trkpt>
      <trkpt lat="42.6869538892" lon="20.0819863938">
        <ele>1316.66</ele>
        <time>2019-07-12T12:48:40Z</time>
      </trkpt>
      <trkpt lat="42.6869563200" lon="20.0820107851">
        <ele>1317.14</ele>
        <time>2019-07-12T12:48:42Z</time>
      </trkpt>
      <trkpt lat="42.6869223733" lon="20.0822018925">
        <ele>1320.03</ele>
        <time>2019-07-12T12:48:56Z</time>
      </trkpt>
      <trkpt lat="42.6869057771" lon="20.0822816882">
        <ele>1320.99</ele>
        <time>2019-07-12T12:49:02Z</time>
      </trkpt>
      <trkpt lat="42.6868759375" lon="20.0823876355">
        <ele>1321.95</ele>
        <time>2019-07-12T12:49:08Z</time>
      </trkpt>
      <trkpt lat="42.6868618559" lon="20.0824367534">
        <ele>1322.43</ele>
        <time>2019-07-12T12:49:11Z</time>
      </trkpt>
      <trkpt lat="42.6868126541" lon="20.0825275294">
        <ele>1323.87</ele>
        <time>2019-07-12T12:49:20Z</time>
      </trkpt>
      <trkpt lat="42.6866949722" lon="20.0826789904">
        <ele>1325.80</ele>
        <time>2019-07-12T12:49:35Z</time>
      </trkpt>
      <trkpt lat="42.6865867618" lon="20.0828037132">
        <ele>1328.20</ele>
        <time>2019-07-12T12:49:48Z</time>
      </trkpt>
      <trkpt lat="42.6865458582" lon="20.0828490593">
        <ele>1329.16</ele>
        <time>2019-07-12T12:49:53Z</time>
      </trkpt>
      <trkpt lat="42.6865253225" lon="20.0828705169">
        <ele>1329.16</ele>
        <time>2019-07-12T12:49:55Z</time>
      </trkpt>
      <trkpt lat="42.6864706725" lon="20.0829257537">
        <ele>1330.12</ele>
        <time>2019-07-12T12:50:01Z</time>
      </trkpt>
      <trkpt lat="42.6864025276" lon="20.0830008555">
        <ele>1331.56</ele>
        <time>2019-07-12T12:50:09Z</time>
      </trkpt>
      <trkpt lat="42.6863514818" lon="20.0830466207">
        <ele>1332.52</ele>
        <time>2019-07-12T12:50:14Z</time>
      </trkpt>
      <trkpt lat="42.6863120031" lon="20.0830749515">
        <ele>1333.01</ele>
        <time>2019-07-12T12:50:18Z</time>
      </trkpt>
      <trkpt lat="42.6862916350" lon="20.0830979180">
        <ele>1333.97</ele>
        <time>2019-07-12T12:50:21Z</time>
      </trkpt>
      <trkpt lat="42.6862721052" lon="20.0831140112">
        <ele>1333.97</ele>
        <time>2019-07-12T12:50:23Z</time>
      </trkpt>
      <trkpt lat="42.6862340514" lon="20.0831431802">
        <ele>1333.97</ele>
        <time>2019-07-12T12:50:27Z</time>
      </trkpt>
      <trkpt lat="42.6861077361" lon="20.0832521450">
        <ele>1336.37</ele>
        <time>2019-07-12T12:50:41Z</time>
      </trkpt>
      <trkpt lat="42.6859792415" lon="20.0833838247">
        <ele>1338.77</ele>
        <time>2019-07-12T12:50:55Z</time>
      </trkpt>
      <trkpt lat="42.6858695224" lon="20.0835072901">
        <ele>1340.70</ele>
        <time>2019-07-12T12:51:07Z</time>
      </trkpt>
      <trkpt lat="42.6858502440" lon="20.0835222099">
        <ele>1341.18</ele>
        <time>2019-07-12T12:51:09Z</time>
      </trkpt>
      <trkpt lat="42.6858322229" lon="20.0835295022">
        <ele>1341.18</ele>
        <time>2019-07-12T12:51:11Z</time>
      </trkpt>
      <trkpt lat="42.6857795846" lon="20.0834517181">
        <ele>1342.62</ele>
        <time>2019-07-12T12:51:20Z</time>
      </trkpt>
      <trkpt lat="42.6857923251" lon="20.0833834056">
        <ele>1343.10</ele>
        <time>2019-07-12T12:51:24Z</time>
      </trkpt>
      <trkpt lat="42.6858288702" lon="20.0833097287">
        <ele>1343.58</ele>
        <time>2019-07-12T12:51:29Z</time>
      </trkpt>
      <trkpt lat="42.6858606376" lon="20.0832405780">
        <ele>1344.54</ele>
        <time>2019-07-12T12:51:35Z</time>
      </trkpt>
      <trkpt lat="42.6859173831" lon="20.0831560045">
        <ele>1345.50</ele>
        <time>2019-07-12T12:51:42Z</time>
      </trkpt>
      <trkpt lat="42.6860215701" lon="20.0829902943">
        <ele>1347.43</ele>
        <time>2019-07-12T12:51:57Z</time>
      </trkpt>
      <trkpt lat="42.6861037128" lon="20.0828659069">
        <ele>1349.35</ele>
        <time>2019-07-12T12:52:09Z</time>
      </trkpt>
      <trkpt lat="42.6862132642" lon="20.0827186368">
        <ele>1351.75</ele>
        <time>2019-07-12T12:52:22Z</time>
      </trkpt>
      <trkpt lat="42.6862434391" lon="20.0826500729">
        <ele>1352.23</ele>
        <time>2019-07-12T12:52:27Z</time>
      </trkpt>
      <trkpt lat="42.6861993503" lon="20.0823715422">
        <ele>1354.63</ele>
        <time>2019-07-12T12:52:43Z</time>
      </trkpt>
      <trkpt lat="42.6860987674" lon="20.0821455661">
        <ele>1356.56</ele>
        <time>2019-07-12T12:52:59Z</time>
      </trkpt>
      <trkpt lat="42.6859947480" lon="20.0819347613">
        <ele>1358.96</ele>
        <time>2019-07-12T12:53:14Z</time>
      </trkpt>
      <trkpt lat="42.6858773176" lon="20.0817924365">
        <ele>1361.84</ele>
        <time>2019-07-12T12:53:29Z</time>
      </trkpt>
      <trkpt lat="42.6857439615" lon="20.0816862378">
        <ele>1364.25</ele>
        <time>2019-07-12T12:53:43Z</time>
      </trkpt>
      <trkpt lat="42.6856566221" lon="20.0816206075">
        <ele>1367.13</ele>
        <time>2019-07-12T12:53:55Z</time>
      </trkpt>
      <trkpt lat="42.6856363378" lon="20.0816012453">
        <ele>1367.61</ele>
        <time>2019-07-12T12:53:58Z</time>
      </trkpt>
      <trkpt lat="42.6856191549" lon="20.0815916061">
        <ele>1368.09</ele>
        <time>2019-07-12T12:54:00Z</time>
      </trkpt>
      <trkpt lat="42.6855060831" lon="20.0814724155">
        <ele>1370.98</ele>
        <time>2019-07-12T12:54:13Z</time>
      </trkpt>
      <trkpt lat="42.6853896584" lon="20.0813844893">
        <ele>1373.86</ele>
        <time>2019-07-12T12:54:26Z</time>
      </trkpt>
      <trkpt lat="42.6853316557" lon="20.0813275762">
        <ele>1374.34</ele>
        <time>2019-07-12T12:54:34Z</time>
      </trkpt>
      <trkpt lat="42.6852563862" lon="20.0813136622">
        <ele>1375.78</ele>
        <time>2019-07-12T12:54:41Z</time>
      </trkpt>
      <trkpt lat="42.6851435658" lon="20.0812049489">
        <ele>1378.67</ele>
        <time>2019-07-12T12:54:53Z</time>
      </trkpt>
      <trkpt lat="42.6850614231" lon="20.0811223872">
        <ele>1379.63</ele>
        <time>2019-07-12T12:55:02Z</time>
      </trkpt>
      <trkpt lat="42.6849368680" lon="20.0810095668">
        <ele>1381.55</ele>
        <time>2019-07-12T12:55:15Z</time>
      </trkpt>
      <trkpt lat="42.6849255525" lon="20.0809997600">
        <ele>1382.51</ele>
        <time>2019-07-12T12:55:16Z</time>
      </trkpt>
      <trkpt lat="42.6847659610" lon="20.0809773803">
        <ele>1383.96</ele>
        <time>2019-07-12T12:55:30Z</time>
      </trkpt>
      <trkpt lat="42.6846803818" lon="20.0810127519">
        <ele>1385.88</ele>
        <time>2019-07-12T12:55:39Z</time>
      </trkpt>
      <trkpt lat="42.6845264900" lon="20.0810504705">
        <ele>1388.28</ele>
        <time>2019-07-12T12:55:53Z</time>
      </trkpt>
      <trkpt lat="42.6844627038" lon="20.0810394902">
        <ele>1389.72</ele>
        <time>2019-07-12T12:55:59Z</time>
      </trkpt>
      <trkpt lat="42.6844295952" lon="20.0810451061">
        <ele>1390.68</ele>
        <time>2019-07-12T12:56:02Z</time>
      </trkpt>
      <trkpt lat="42.6843085606" lon="20.0810405798">
        <ele>1392.13</ele>
        <time>2019-07-12T12:56:12Z</time>
      </trkpt>
      <trkpt lat="42.6841418445" lon="20.0810700841">
        <ele>1395.01</ele>
        <time>2019-07-12T12:56:27Z</time>
      </trkpt>
      <trkpt lat="42.6841083169" lon="20.0810802262">
        <ele>1395.49</ele>
        <time>2019-07-12T12:56:30Z</time>
      </trkpt>
      <trkpt lat="42.6840466261" lon="20.0811036117">
        <ele>1396.45</ele>
        <time>2019-07-12T12:56:35Z</time>
      </trkpt>
      <trkpt lat="42.6838901360" lon="20.0811430067">
        <ele>1397.89</ele>
        <time>2019-07-12T12:56:49Z</time>
      </trkpt>
      <trkpt lat="42.6837924030" lon="20.0811388157">
        <ele>1399.34</ele>
        <time>2019-07-12T12:56:58Z</time>
      </trkpt>
      <trkpt lat="42.6837359089" lon="20.0811627042">
        <ele>1400.30</ele>
        <time>2019-07-12T12:57:03Z</time>
      </trkpt>
      <trkpt lat="42.6837279461" lon="20.0811921246">
        <ele>1400.78</ele>
        <time>2019-07-12T12:57:05Z</time>
      </trkpt>
      <trkpt lat="42.6837289520" lon="20.0812265743">
        <ele>1401.26</ele>
        <time>2019-07-12T12:57:07Z</time>
      </trkpt>
      <trkpt lat="42.6837529242" lon="20.0812522229">
        <ele>1401.26</ele>
        <time>2019-07-12T12:57:10Z</time>
      </trkpt>
      <trkpt lat="42.6839167904" lon="20.0813032687">
        <ele>1402.70</ele>
        <time>2019-07-12T12:57:24Z</time>
      </trkpt>
      <trkpt lat="42.6839824207" lon="20.0813737605">
        <ele>1402.70</ele>
        <time>2019-07-12T12:57:30Z</time>
      </trkpt>
      <trkpt lat="42.6840506494" lon="20.0814735889">
        <ele>1404.14</ele>
        <time>2019-07-12T12:57:39Z</time>
      </trkpt>
      <trkpt lat="42.6840550080" lon="20.0815362856">
        <ele>1405.10</ele>
        <time>2019-07-12T12:57:44Z</time>
      </trkpt>
      <trkpt lat="42.6840675808" lon="20.0817116350">
        <ele>1407.03</ele>
        <time>2019-07-12T12:57:57Z</time>
      </trkpt>
      <trkpt lat="42.6840699278" lon="20.0819158182">
        <ele>1408.47</ele>
        <time>2019-07-12T12:58:11Z</time>
      </trkpt>
      <trkpt lat="42.6841312833" lon="20.0821223482">
        <ele>1409.91</ele>
        <time>2019-07-12T12:58:26Z</time>
      </trkpt>
      <trkpt lat="42.6841974165" lon="20.0821666885">
        <ele>1410.39</ele>
        <time>2019-07-12T12:58:39Z</time>
      </trkpt>
      <trkpt lat="42.6842216402" lon="20.0821402017">
        <ele>1410.39</ele>
        <time>2019-07-12T12:58:53Z</time>
      </trkpt>
      <trkpt lat="42.6842310280" lon="20.0821446441">
        <ele>1410.39</ele>
        <time>2019-07-12T12:59:06Z</time>
      </trkpt>
      <trkpt lat="42.6840917207" lon="20.0817397982">
        <ele>1395.97</ele>
        <time>2019-07-13T06:16:52Z</time>
      </trkpt>
      <trkpt lat="42.6840923075" lon="20.0817385409">
        <ele>1395.97</ele>
        <time>2019-07-13T06:16:53Z</time>
      </trkpt>
      <trkpt lat="42.6841373183" lon="20.0817004871">
        <ele>1399.34</ele>
        <time>2019-07-13T06:17:11Z</time>
      </trkpt>
      <trkpt lat="42.6841319539" lon="20.0816993136">
        <ele>1402.70</ele>
        <time>2019-07-13T06:17:18Z</time>
      </trkpt>
      <trkpt lat="42.6841401681" lon="20.0817210227">
        <ele>1405.58</ele>
        <time>2019-07-13T06:17:26Z</time>
      </trkpt>
      <trkpt lat="42.6841478795" lon="20.0817211065">
        <ele>1408.47</ele>
        <time>2019-07-13T06:17:35Z</time>
      </trkpt>
      <trkpt lat="42.6841524057" lon="20.0817065220">
        <ele>1411.83</ele>
        <time>2019-07-13T06:17:48Z</time>
      </trkpt>
      <trkpt lat="42.6841641404" lon="20.0817048457">
        <ele>1414.72</ele>
        <time>2019-07-13T06:18:02Z</time>
      </trkpt>
      <trkpt lat="42.6841496397" lon="20.0817127246">
        <ele>1418.08</ele>
        <time>2019-07-13T06:18:20Z</time>
      </trkpt>
      <trkpt lat="42.6841401681" lon="20.0817152392">
        <ele>1420.97</ele>
        <time>2019-07-13T06:18:38Z</time>
      </trkpt>
      <trkpt lat="42.6841389108" lon="20.0817159936">
        <ele>1420.97</ele>
        <time>2019-07-13T06:18:39Z</time>
      </trkpt>
      <trkpt lat="42.6841119211" lon="20.0817067735">
        <ele>1420.97</ele>
        <time>2019-07-13T06:18:58Z</time>
      </trkpt>
      <trkpt lat="42.6840540022" lon="20.0818578154">
        <ele>1421.93</ele>
        <time>2019-07-13T06:19:51Z</time>
      </trkpt>
      <trkpt lat="42.6839509886" lon="20.0818185881">
        <ele>1423.85</ele>
        <time>2019-07-13T06:20:08Z</time>
      </trkpt>
      <trkpt lat="42.6839068159" lon="20.0818259642">
        <ele>1425.77</ele>
        <time>2019-07-13T06:20:16Z</time>
      </trkpt>
      <trkpt lat="42.6838772278" lon="20.0818291493">
        <ele>1425.77</ele>
        <time>2019-07-13T06:20:29Z</time>
      </trkpt>
      <trkpt lat="42.6837712806" lon="20.0818391237">
        <ele>1427.70</ele>
        <time>2019-07-13T06:20:43Z</time>
      </trkpt>
      <trkpt lat="42.6837511640" lon="20.0818388723">
        <ele>1428.18</ele>
        <time>2019-07-13T06:20:46Z</time>
      </trkpt>
      <trkpt lat="42.6837234199" lon="20.0818774290">
        <ele>1428.18</ele>
        <time>2019-07-13T06:20:58Z</time>
      </trkpt>
      <trkpt lat="42.6836473122" lon="20.0818802789">
        <ele>1430.58</ele>
        <time>2019-07-13T06:21:11Z</time>
      </trkpt>
      <trkpt lat="42.6835874654" lon="20.0818998925">
        <ele>1432.50</ele>
        <time>2019-07-13T06:21:22Z</time>
      </trkpt>
      <trkpt lat="42.6835360005" lon="20.0819050893">
        <ele>1432.98</ele>
        <time>2019-07-13T06:21:28Z</time>
      </trkpt>
      <trkpt lat="42.6834158041" lon="20.0819304027">
        <ele>1435.39</ele>
        <time>2019-07-13T06:21:42Z</time>
      </trkpt>
      <trkpt lat="42.6833968610" lon="20.0819248706">
        <ele>1436.83</ele>
        <time>2019-07-13T06:21:45Z</time>
      </trkpt>
      <trkpt lat="42.6832727250" lon="20.0819192547">
        <ele>1437.31</ele>
        <time>2019-07-13T06:22:00Z</time>
      </trkpt>
      <trkpt lat="42.6831504330" lon="20.0819227751">
        <ele>1439.23</ele>
        <time>2019-07-13T06:22:13Z</time>
      </trkpt>
      <trkpt lat="42.6830465812" lon="20.0819242001">
        <ele>1440.19</ele>
        <time>2019-07-13T06:22:26Z</time>
      </trkpt>
      <trkpt lat="42.6830175798" lon="20.0818988029">
        <ele>1440.19</ele>
        <time>2019-07-13T06:22:38Z</time>
      </trkpt>
      <trkpt lat="42.6829993911" lon="20.0818903372">
        <ele>1440.19</ele>
        <time>2019-07-13T06:22:40Z</time>
      </trkpt>
      <trkpt lat="42.6828795299" lon="20.0818961207">
        <ele>1442.11</ele>
        <time>2019-07-13T06:22:54Z</time>
      </trkpt>
      <trkpt lat="42.6827869099" lon="20.0818765908">
        <ele>1443.56</ele>
        <time>2019-07-13T06:23:06Z</time>
      </trkpt>
      <trkpt lat="42.6826823875" lon="20.0818765070">
        <ele>1446.44</ele>
        <time>2019-07-13T06:23:21Z</time>
      </trkpt>
      <trkpt lat="42.6826840639" lon="20.0819938537">
        <ele>1448.36</ele>
        <time>2019-07-13T06:23:33Z</time>
      </trkpt>
      <trkpt lat="42.6826264802" lon="20.0820289738">
        <ele>1449.81</ele>
        <time>2019-07-13T06:23:45Z</time>
      </trkpt>
      <trkpt lat="42.6825840678" lon="20.0820272975">
        <ele>1450.29</ele>
        <time>2019-07-13T06:23:50Z</time>
      </trkpt>
      <trkpt lat="42.6824776176" lon="20.0820073485">
        <ele>1453.17</ele>
        <time>2019-07-13T06:24:05Z</time>
      </trkpt>
      <trkpt lat="42.6823895238" lon="20.0819893274">
        <ele>1455.57</ele>
        <time>2019-07-13T06:24:18Z</time>
      </trkpt>
      <trkpt lat="42.6822871808" lon="20.0820212625">
        <ele>1457.02</ele>
        <time>2019-07-13T06:24:31Z</time>
      </trkpt>
      <trkpt lat="42.6821658108" lon="20.0820924249">
        <ele>1458.94</ele>
        <time>2019-07-13T06:24:46Z</time>
      </trkpt>
      <trkpt lat="42.6821504720" lon="20.0820997171">
        <ele>1458.94</ele>
        <time>2019-07-13T06:24:48Z</time>
      </trkpt>
      <trkpt lat="42.6821358036" lon="20.0821161456">
        <ele>1458.94</ele>
        <time>2019-07-13T06:24:50Z</time>
      </trkpt>
      <trkpt lat="42.6820954867" lon="20.0821604021">
        <ele>1459.90</ele>
        <time>2019-07-13T06:24:56Z</time>
      </trkpt>
      <trkpt lat="42.6820270065" lon="20.0822652597">
        <ele>1462.30</ele>
        <time>2019-07-13T06:25:10Z</time>
      </trkpt>
      <trkpt lat="42.6819690038" lon="20.0823494140">
        <ele>1464.23</ele>
        <time>2019-07-13T06:25:22Z</time>
      </trkpt>
      <trkpt lat="42.6819107495" lon="20.0824373402">
        <ele>1465.67</ele>
        <time>2019-07-13T06:25:32Z</time>
      </trkpt>
      <trkpt lat="42.6818307023" lon="20.0825267751">
        <ele>1467.59</ele>
        <time>2019-07-13T06:25:45Z</time>
      </trkpt>
      <trkpt lat="42.6818112563" lon="20.0825392641">
        <ele>1468.07</ele>
        <time>2019-07-13T06:25:50Z</time>
      </trkpt>
      <trkpt lat="42.6818021201" lon="20.0825096760">
        <ele>1468.07</ele>
        <time>2019-07-13T06:25:53Z</time>
      </trkpt>
      <trkpt lat="42.6818163693" lon="20.0823129527">
        <ele>1469.99</ele>
        <time>2019-07-13T06:26:06Z</time>
      </trkpt>
      <trkpt lat="42.6818032097" lon="20.0821686164">
        <ele>1469.99</ele>
        <time>2019-07-13T06:26:15Z</time>
      </trkpt>
      <trkpt lat="42.6817379147" lon="20.0819883216">
        <ele>1470.95</ele>
        <time>2019-07-13T06:26:29Z</time>
      </trkpt>
      <trkpt lat="42.6816043071" lon="20.0818698853">
        <ele>1473.36</ele>
        <time>2019-07-13T06:26:44Z</time>
      </trkpt>
      <trkpt lat="42.6815267745" lon="20.0819318276">
        <ele>1475.76</ele>
        <time>2019-07-13T06:26:57Z</time>
      </trkpt>
      <trkpt lat="42.6815171354" lon="20.0820469111">
        <ele>1476.72</ele>
        <time>2019-07-13T06:27:09Z</time>
      </trkpt>
      <trkpt lat="42.6815022994" lon="20.0822139625">
        <ele>1478.16</ele>
        <time>2019-07-13T06:27:22Z</time>
      </trkpt>
      <trkpt lat="42.6814613119" lon="20.0822864659">
        <ele>1479.13</ele>
        <time>2019-07-13T06:27:34Z</time>
      </trkpt>
      <trkpt lat="42.6813980285" lon="20.0822334085">
        <ele>1481.05</ele>
        <time>2019-07-13T06:27:47Z</time>
      </trkpt>
      <trkpt lat="42.6813339908" lon="20.0822640862">
        <ele>1483.93</ele>
        <time>2019-07-13T06:28:00Z</time>
      </trkpt>
      <trkpt lat="42.6812778320" lon="20.0822987873">
        <ele>1485.85</ele>
        <time>2019-07-13T06:28:13Z</time>
      </trkpt>
      <trkpt lat="42.6812102739" lon="20.0823539402">
        <ele>1489.22</ele>
        <time>2019-07-13T06:28:28Z</time>
      </trkpt>
      <trkpt lat="42.6811433025" lon="20.0824091770">
        <ele>1490.66</ele>
        <time>2019-07-13T06:28:41Z</time>
      </trkpt>
      <trkpt lat="42.6811092719" lon="20.0824644137">
        <ele>1493.06</ele>
        <time>2019-07-13T06:28:52Z</time>
      </trkpt>
      <trkpt lat="42.6810748223" lon="20.0825238414">
        <ele>1494.51</ele>
        <time>2019-07-13T06:29:03Z</time>
      </trkpt>
      <trkpt lat="42.6810230222" lon="20.0826152042">
        <ele>1496.91</ele>
        <time>2019-07-13T06:29:16Z</time>
      </trkpt>
      <trkpt lat="42.6809605770" lon="20.0826839358">
        <ele>1499.31</ele>
        <time>2019-07-13T06:29:29Z</time>
      </trkpt>
      <trkpt lat="42.6809107885" lon="20.0827150326">
        <ele>1501.24</ele>
        <time>2019-07-13T06:29:40Z</time>
      </trkpt>
      <trkpt lat="42.6807931904" lon="20.0827130210">
        <ele>1503.64</ele>
        <time>2019-07-13T06:29:54Z</time>
      </trkpt>
      <trkpt lat="42.6807076111" lon="20.0827592891">
        <ele>1505.08</ele>
        <time>2019-07-13T06:30:08Z</time>
      </trkpt>
      <trkpt lat="42.6806325093" lon="20.0827897154">
        <ele>1507.48</ele>
        <time>2019-07-13T06:30:22Z</time>
      </trkpt>
      <trkpt lat="42.6805796195" lon="20.0828494783">
        <ele>1509.41</ele>
        <time>2019-07-13T06:30:34Z</time>
      </trkpt>
      <trkpt lat="42.6805488579" lon="20.0829130970">
        <ele>1511.33</ele>
        <time>2019-07-13T06:30:46Z</time>
      </trkpt>
      <trkpt lat="42.6805054396" lon="20.0829840079">
        <ele>1514.21</ele>
        <time>2019-07-13T06:30:58Z</time>
      </trkpt>
      <trkpt lat="42.6804380491" lon="20.0830792263">
        <ele>1515.66</ele>
        <time>2019-07-13T06:31:11Z</time>
      </trkpt>
      <trkpt lat="42.6803623606" lon="20.0831057131">
        <ele>1518.06</ele>
        <time>2019-07-13T06:31:25Z</time>
      </trkpt>
      <trkpt lat="42.6802875940" lon="20.0831167772">
        <ele>1519.98</ele>
        <time>2019-07-13T06:31:39Z</time>
      </trkpt>
      <trkpt lat="42.6802208740" lon="20.0831633806">
        <ele>1521.42</ele>
        <time>2019-07-13T06:31:50Z</time>
      </trkpt>
      <trkpt lat="42.6801922079" lon="20.0831437670">
        <ele>1522.87</ele>
        <time>2019-07-13T06:32:02Z</time>
      </trkpt>
      <trkpt lat="42.6801328640" lon="20.0830802321">
        <ele>1525.75</ele>
        <time>2019-07-13T06:32:15Z</time>
      </trkpt>
      <trkpt lat="42.6800720114" lon="20.0830320362">
        <ele>1527.67</ele>
        <time>2019-07-13T06:32:28Z</time>
      </trkpt>
      <trkpt lat="42.6800147630" lon="20.0830373168">
        <ele>1529.59</ele>
        <time>2019-07-13T06:32:41Z</time>
      </trkpt>
      <trkpt lat="42.6799511444" lon="20.0830617920">
        <ele>1531.04</ele>
        <time>2019-07-13T06:32:52Z</time>
      </trkpt>
      <trkpt lat="42.6798560936" lon="20.0831175316">
        <ele>1532.96</ele>
        <time>2019-07-13T06:33:05Z</time>
      </trkpt>
      <trkpt lat="42.6798113342" lon="20.0832289271">
        <ele>1535.84</ele>
        <time>2019-07-13T06:33:20Z</time>
      </trkpt>
      <trkpt lat="42.6797402557" lon="20.0833245646">
        <ele>1537.29</ele>
        <time>2019-07-13T06:33:34Z</time>
      </trkpt>
      <trkpt lat="42.6796672493" lon="20.0833677314">
        <ele>1539.21</ele>
        <time>2019-07-13T06:33:47Z</time>
      </trkpt>
      <trkpt lat="42.6795978472" lon="20.0833651330">
        <ele>1541.61</ele>
        <time>2019-07-13T06:34:01Z</time>
      </trkpt>
      <trkpt lat="42.6795246731" lon="20.0833310187">
        <ele>1543.53</ele>
        <time>2019-07-13T06:34:14Z</time>
      </trkpt>
      <trkpt lat="42.6794541813" lon="20.0833333656">
        <ele>1546.42</ele>
        <time>2019-07-13T06:34:27Z</time>
      </trkpt>
      <trkpt lat="42.6793896407" lon="20.0833248999">
        <ele>1547.86</ele>
        <time>2019-07-13T06:34:41Z</time>
      </trkpt>
      <trkpt lat="42.6793125272" lon="20.0833207089">
        <ele>1550.26</ele>
        <time>2019-07-13T06:34:55Z</time>
      </trkpt>
      <trkpt lat="42.6792228408" lon="20.0833455194">
        <ele>1552.19</ele>
        <time>2019-07-13T06:35:08Z</time>
      </trkpt>
      <trkpt lat="42.6791587193" lon="20.0833864231">
        <ele>1554.11</ele>
        <time>2019-07-13T06:35:20Z</time>
      </trkpt>
      <trkpt lat="42.6791211683" lon="20.0834341161">
        <ele>1556.03</ele>
        <time>2019-07-13T06:35:31Z</time>
      </trkpt>
      <trkpt lat="42.6790618245" lon="20.0834441744">
        <ele>1557.47</ele>
        <time>2019-07-13T06:35:42Z</time>
      </trkpt>
      <trkpt lat="42.6789835375" lon="20.0834202021">
        <ele>1559.88</ele>
        <time>2019-07-13T06:35:54Z</time>
      </trkpt>
      <trkpt lat="42.6789170690" lon="20.0833972357">
        <ele>1561.80</ele>
        <time>2019-07-13T06:36:05Z</time>
      </trkpt>
      <trkpt lat="42.6788396202" lon="20.0834400672">
        <ele>1563.24</ele>
        <time>2019-07-13T06:36:17Z</time>
      </trkpt>
      <trkpt lat="42.6787676197" lon="20.0835031830">
        <ele>1565.16</ele>
        <time>2019-07-13T06:36:31Z</time>
      </trkpt>
      <trkpt lat="42.6786989719" lon="20.0835337769">
        <ele>1567.57</ele>
        <time>2019-07-13T06:36:44Z</time>
      </trkpt>
      <trkpt lat="42.6786251273" lon="20.0835569110">
        <ele>1569.01</ele>
        <time>2019-07-13T06:36:57Z</time>
      </trkpt>
      <trkpt lat="42.6785439067" lon="20.0835564081">
        <ele>1571.41</ele>
        <time>2019-07-13T06:37:09Z</time>
      </trkpt>
      <trkpt lat="42.6784398872" lon="20.0836010836">
        <ele>1572.85</ele>
        <time>2019-07-13T06:37:23Z</time>
      </trkpt>
      <trkpt lat="42.6783813816" lon="20.0836252235">
        <ele>1574.78</ele>
        <time>2019-07-13T06:37:35Z</time>
      </trkpt>
      <trkpt lat="42.6783289947" lon="20.0836650375">
        <ele>1576.70</ele>
        <time>2019-07-13T06:37:45Z</time>
      </trkpt>
      <trkpt lat="42.6782476064" lon="20.0836888421">
        <ele>1579.10</ele>
        <time>2019-07-13T06:37:57Z</time>
      </trkpt>
      <trkpt lat="42.6781932078" lon="20.0837281533">
        <ele>1581.03</ele>
        <time>2019-07-13T06:38:08Z</time>
      </trkpt>
      <trkpt lat="42.6781146694" lon="20.0837696437">
        <ele>1583.43</ele>
        <time>2019-07-13T06:38:22Z</time>
      </trkpt>
      <trkpt lat="42.6780526433" lon="20.0838061888">
        <ele>1584.87</ele>
        <time>2019-07-13T06:38:33Z</time>
      </trkpt>
      <trkpt lat="42.6779974066" lon="20.0838475116">
        <ele>1586.79</ele>
        <time>2019-07-13T06:38:44Z</time>
      </trkpt>
      <trkpt lat="42.6779554971" lon="20.0839330070">
        <ele>1589.20</ele>
        <time>2019-07-13T06:38:59Z</time>
      </trkpt>
      <trkpt lat="42.6778840832" lon="20.0839611702">
        <ele>1590.64</ele>
        <time>2019-07-13T06:39:11Z</time>
      </trkpt>
      <trkpt lat="42.6778331213" lon="20.0839019939">
        <ele>1592.56</ele>
        <time>2019-07-13T06:39:22Z</time>
      </trkpt>
      <trkpt lat="42.6777385734" lon="20.0839393772">
        <ele>1594.48</ele>
        <time>2019-07-13T06:39:36Z</time>
      </trkpt>
      <trkpt lat="42.6776735298" lon="20.0839397125">
        <ele>1596.41</ele>
        <time>2019-07-13T06:39:49Z</time>
      </trkpt>
      <trkpt lat="42.6776334643" lon="20.0839657802">
        <ele>1598.81</ele>
        <time>2019-07-13T06:40:01Z</time>
      </trkpt>
      <trkpt lat="42.6775705162" lon="20.0840420555">
        <ele>1600.73</ele>
        <time>2019-07-13T06:40:17Z</time>
      </trkpt>
      <trkpt lat="42.6775227394" lon="20.0841143075">
        <ele>1602.17</ele>
        <time>2019-07-13T06:40:26Z</time>
      </trkpt>
      <trkpt lat="42.6774884574" lon="20.0841884036">
        <ele>1603.62</ele>
        <time>2019-07-13T06:40:38Z</time>
      </trkpt>
      <trkpt lat="42.6774435304" lon="20.0842642598">
        <ele>1605.54</ele>
        <time>2019-07-13T06:40:51Z</time>
      </trkpt>
      <trkpt lat="42.6773682609" lon="20.0843441393">
        <ele>1606.50</ele>
        <time>2019-07-13T06:41:04Z</time>
      </trkpt>
      <trkpt lat="42.6773032174" lon="20.0844505895">
        <ele>1606.50</ele>
        <time>2019-07-13T06:41:16Z</time>
      </trkpt>
      <trkpt lat="42.6772224158" lon="20.0845516752">
        <ele>1608.90</ele>
        <time>2019-07-13T06:41:29Z</time>
      </trkpt>
      <trkpt lat="42.6772178058" lon="20.0845738035">
        <ele>1608.90</ele>
        <time>2019-07-13T06:41:31Z</time>
      </trkpt>
      <trkpt lat="42.6771553606" lon="20.0846789125">
        <ele>1609.38</ele>
        <time>2019-07-13T06:41:42Z</time>
      </trkpt>
      <trkpt lat="42.6770988666" lon="20.0847834349">
        <ele>1611.31</ele>
        <time>2019-07-13T06:41:56Z</time>
      </trkpt>
      <trkpt lat="42.6770571247" lon="20.0848878734">
        <ele>1614.19</ele>
        <time>2019-07-13T06:42:09Z</time>
      </trkpt>
      <trkpt lat="42.6769968588" lon="20.0849910546">
        <ele>1615.15</ele>
        <time>2019-07-13T06:42:20Z</time>
      </trkpt>
      <trkpt lat="42.6769165602" lon="20.0850389991">
        <ele>1617.56</ele>
        <time>2019-07-13T06:42:32Z</time>
      </trkpt>
      <trkpt lat="42.6768968627" lon="20.0850571040">
        <ele>1618.04</ele>
        <time>2019-07-13T06:42:35Z</time>
      </trkpt>
      <trkpt lat="42.6767544542" lon="20.0851127598">
        <ele>1619.00</ele>
        <time>2019-07-13T06:42:50Z</time>
      </trkpt>
      <trkpt lat="42.6767483354" lon="20.0851119217">
        <ele>1619.00</ele>
        <time>2019-07-13T06:42:51Z</time>
      </trkpt>
      <trkpt lat="42.6766391192" lon="20.0851511490">
        <ele>1620.44</ele>
        <time>2019-07-13T06:43:04Z</time>
      </trkpt>
      <trkpt lat="42.6765258797" lon="20.0851180404">
        <ele>1622.36</ele>
        <time>2019-07-13T06:43:17Z</time>
      </trkpt>
      <trkpt lat="42.6764180884" lon="20.0850861054">
        <ele>1624.28</ele>
        <time>2019-07-13T06:43:32Z</time>
      </trkpt>
      <trkpt lat="42.6763479318" lon="20.0851526577">
        <ele>1627.17</ele>
        <time>2019-07-13T06:43:45Z</time>
      </trkpt>
      <trkpt lat="42.6762492768" lon="20.0852207188">
        <ele>1630.05</ele>
        <time>2019-07-13T06:43:59Z</time>
      </trkpt>
      <trkpt lat="42.6762428228" lon="20.0852384884">
        <ele>1630.05</ele>
        <time>2019-07-13T06:44:01Z</time>
      </trkpt>
      <trkpt lat="42.6761935372" lon="20.0852583535">
        <ele>1630.53</ele>
        <time>2019-07-13T06:44:05Z</time>
      </trkpt>
      <trkpt lat="42.6760525536" lon="20.0852744468">
        <ele>1630.53</ele>
        <time>2019-07-13T06:44:20Z</time>
      </trkpt>
      <trkpt lat="42.6760311797" lon="20.0852772966">
        <ele>1630.53</ele>
        <time>2019-07-13T06:44:23Z</time>
      </trkpt>
      <trkpt lat="42.6759604365" lon="20.0853509735">
        <ele>1632.46</ele>
        <time>2019-07-13T06:44:37Z</time>
      </trkpt>
      <trkpt lat="42.6758877654" lon="20.0854357146">
        <ele>1634.86</ele>
        <time>2019-07-13T06:44:49Z</time>
      </trkpt>
      <trkpt lat="42.6758698281" lon="20.0854654703">
        <ele>1634.86</ele>
        <time>2019-07-13T06:44:53Z</time>
      </trkpt>
      <trkpt lat="42.6758186147" lon="20.0855769496">
        <ele>1636.30</ele>
        <time>2019-07-13T06:45:06Z</time>
      </trkpt>
      <trkpt lat="42.6757593546" lon="20.0856737606">
        <ele>1638.22</ele>
        <time>2019-07-13T06:45:18Z</time>
      </trkpt>
      <trkpt lat="42.6756638009" lon="20.0857449230">
        <ele>1639.67</ele>
        <time>2019-07-13T06:45:31Z</time>
      </trkpt>
      <trkpt lat="42.6755659003" lon="20.0857908558">
        <ele>1641.11</ele>
        <time>2019-07-13T06:45:44Z</time>
      </trkpt>
      <trkpt lat="42.6754747890" lon="20.0857869163">
        <ele>1642.07</ele>
        <time>2019-07-13T06:45:56Z</time>
      </trkpt>
      <trkpt lat="42.6754064765" lon="20.0857740920">
        <ele>1642.07</ele>
        <time>2019-07-13T06:46:01Z</time>
      </trkpt>
      <trkpt lat="42.6752980985" lon="20.0857901014">
        <ele>1643.03</ele>
        <time>2019-07-13T06:46:15Z</time>
      </trkpt>
      <trkpt lat="42.6752377488" lon="20.0858403090">
        <ele>1644.95</ele>
        <time>2019-07-13T06:46:27Z</time>
      </trkpt>
      <trkpt lat="42.6751442906" lon="20.0859047659">
        <ele>1647.84</ele>
        <time>2019-07-13T06:46:42Z</time>
      </trkpt>
      <trkpt lat="42.6750618964" lon="20.0859460048">
        <ele>1648.80</ele>
        <time>2019-07-13T06:46:53Z</time>
      </trkpt>
      <trkpt lat="42.6749528479" lon="20.0860305782">
        <ele>1650.72</ele>
        <time>2019-07-13T06:47:08Z</time>
      </trkpt>
      <trkpt lat="42.6748659275" lon="20.0861344300">
        <ele>1652.64</ele>
        <time>2019-07-13T06:47:22Z</time>
      </trkpt>
      <trkpt lat="42.6747940108" lon="20.0862012338">
        <ele>1654.09</ele>
        <time>2019-07-13T06:47:33Z</time>
      </trkpt>
      <trkpt lat="42.6747854613" lon="20.0861951150">
        <ele>1654.09</ele>
        <time>2019-07-13T06:47:34Z</time>
      </trkpt>
      <trkpt lat="42.6747400314" lon="20.0861900020">
        <ele>1654.09</ele>
        <time>2019-07-13T06:47:38Z</time>
      </trkpt>
      <trkpt lat="42.6746833697" lon="20.0862440653">
        <ele>1654.09</ele>
        <time>2019-07-13T06:47:45Z</time>
      </trkpt>
      <trkpt lat="42.6746422146" lon="20.0862749107">
        <ele>1652.64</ele>
        <time>2019-07-13T06:47:49Z</time>
      </trkpt>
      <trkpt lat="42.6745810267" lon="20.0864049140">
        <ele>1652.64</ele>
        <time>2019-07-13T06:48:02Z</time>
      </trkpt>
      <trkpt lat="42.6745552942" lon="20.0865008030">
        <ele>1654.09</ele>
        <time>2019-07-13T06:48:09Z</time>
      </trkpt>
      <trkpt lat="42.6744709723" lon="20.0866581313">
        <ele>1656.01</ele>
        <time>2019-07-13T06:48:25Z</time>
      </trkpt>
      <trkpt lat="42.6743873209" lon="20.0866943412">
        <ele>1658.41</ele>
        <time>2019-07-13T06:48:40Z</time>
      </trkpt>
      <trkpt lat="42.6743247081" lon="20.0866811816">
        <ele>1660.33</ele>
        <time>2019-07-13T06:48:52Z</time>
      </trkpt>
      <trkpt lat="42.6742693875" lon="20.0866682734">
        <ele>1662.26</ele>
        <time>2019-07-13T06:49:04Z</time>
      </trkpt>
      <trkpt lat="42.6742134802" lon="20.0867211632">
        <ele>1664.18</ele>
        <time>2019-07-13T06:49:17Z</time>
      </trkpt>
      <trkpt lat="42.6741962135" lon="20.0867832731">
        <ele>1667.06</ele>
        <time>2019-07-13T06:49:30Z</time>
      </trkpt>
      <trkpt lat="42.6741324272" lon="20.0868173875">
        <ele>1669.47</ele>
        <time>2019-07-13T06:49:44Z</time>
      </trkpt>
      <trkpt lat="42.6740632765" lon="20.0868675113">
        <ele>1672.35</ele>
        <time>2019-07-13T06:49:58Z</time>
      </trkpt>
      <trkpt lat="42.6740038488" lon="20.0868767314">
        <ele>1674.27</ele>
        <time>2019-07-13T06:50:10Z</time>
      </trkpt>
      <trkpt lat="42.6739636995" lon="20.0869090017">
        <ele>1677.16</ele>
        <time>2019-07-13T06:50:24Z</time>
      </trkpt>
      <trkpt lat="42.6739098877" lon="20.0869271066">
        <ele>1679.56</ele>
        <time>2019-07-13T06:50:37Z</time>
      </trkpt>
      <trkpt lat="42.6738606859" lon="20.0869034696">
        <ele>1681.96</ele>
        <time>2019-07-13T06:50:49Z</time>
      </trkpt>
      <trkpt lat="42.6737876795" lon="20.0869784877">
        <ele>1683.89</ele>
        <time>2019-07-13T06:51:03Z</time>
      </trkpt>
      <trkpt lat="42.6737345383" lon="20.0869722012">
        <ele>1686.77</ele>
        <time>2019-07-13T06:51:16Z</time>
      </trkpt>
      <trkpt lat="42.6736715902" lon="20.0869996939">
        <ele>1688.21</ele>
        <time>2019-07-13T06:51:29Z</time>
      </trkpt>
      <trkpt lat="42.6735901181" lon="20.0870159548">
        <ele>1691.10</ele>
        <time>2019-07-13T06:51:43Z</time>
      </trkpt>
      <trkpt lat="42.6735203806" lon="20.0870266836">
        <ele>1693.50</ele>
        <time>2019-07-13T06:51:58Z</time>
      </trkpt>
      <trkpt lat="42.6734730229" lon="20.0870326348">
        <ele>1696.38</ele>
        <time>2019-07-13T06:52:11Z</time>
      </trkpt>
      <trkpt lat="42.6734311972" lon="20.0869412720">
        <ele>1698.31</ele>
        <time>2019-07-13T06:52:24Z</time>
      </trkpt>
      <trkpt lat="42.6733727753" lon="20.0869170483">
        <ele>1701.19</ele>
        <time>2019-07-13T06:52:38Z</time>
      </trkpt>
      <trkpt lat="42.6733316202" lon="20.0869520847">
        <ele>1703.59</ele>
        <time>2019-07-13T06:52:52Z</time>
      </trkpt>
      <trkpt lat="42.6732890401" lon="20.0870054774">
        <ele>1706.48</ele>
        <time>2019-07-13T06:53:05Z</time>
      </trkpt>
      <trkpt lat="42.6732382458" lon="20.0869568624">
        <ele>1708.88</ele>
        <time>2019-07-13T06:53:19Z</time>
      </trkpt>
      <trkpt lat="42.6731908880" lon="20.0869320519">
        <ele>1710.80</ele>
        <time>2019-07-13T06:53:31Z</time>
      </trkpt>
      <trkpt lat="42.6731426083" lon="20.0869143661">
        <ele>1714.17</ele>
        <time>2019-07-13T06:53:45Z</time>
      </trkpt>
      <trkpt lat="42.6730906405" lon="20.0868450478">
        <ele>1716.57</ele>
        <time>2019-07-13T06:53:58Z</time>
      </trkpt>
      <trkpt lat="42.6730241720" lon="20.0868061557">
        <ele>1718.97</ele>
        <time>2019-07-13T06:54:12Z</time>
      </trkpt>
      <trkpt lat="42.6729774009" lon="20.0868109334">
        <ele>1721.86</ele>
        <time>2019-07-13T06:54:26Z</time>
      </trkpt>
      <trkpt lat="42.6729494054" lon="20.0867211632">
        <ele>1723.78</ele>
        <time>2019-07-13T06:54:40Z</time>
      </trkpt>
      <trkpt lat="42.6729028020" lon="20.0866494980">
        <ele>1725.22</ele>
        <time>2019-07-13T06:54:52Z</time>
      </trkpt>
      <trkpt lat="42.6728468947" lon="20.0865785871">
        <ele>1727.15</ele>
        <time>2019-07-13T06:55:05Z</time>
      </trkpt>
      <trkpt lat="42.6727830246" lon="20.0865585543">
        <ele>1729.55</ele>
        <time>2019-07-13T06:55:19Z</time>
      </trkpt>
      <trkpt lat="42.6727394387" lon="20.0865103584">
        <ele>1730.99</ele>
        <time>2019-07-13T06:55:30Z</time>
      </trkpt>
      <trkpt lat="42.6726709586" lon="20.0864840392">
        <ele>1733.39</ele>
        <time>2019-07-13T06:55:44Z</time>
      </trkpt>
      <trkpt lat="42.6726312283" lon="20.0864609890">
        <ele>1735.32</ele>
        <time>2019-07-13T06:55:54Z</time>
      </trkpt>
      <trkpt lat="42.6725598983" lon="20.0864362624">
        <ele>1737.24</ele>
        <time>2019-07-13T06:56:07Z</time>
      </trkpt>
      <trkpt lat="42.6725065056" lon="20.0863974541">
        <ele>1739.64</ele>
        <time>2019-07-13T06:56:21Z</time>
      </trkpt>
      <trkpt lat="42.6724762470" lon="20.0863301475">
        <ele>1742.53</ele>
        <time>2019-07-13T06:56:34Z</time>
      </trkpt>
      <trkpt lat="42.6724257041" lon="20.0863052532">
        <ele>1743.97</ele>
        <time>2019-07-13T06:56:45Z</time>
      </trkpt>
      <trkpt lat="42.6723544579" lon="20.0863274653">
        <ele>1746.85</ele>
        <time>2019-07-13T06:57:00Z</time>
      </trkpt>
      <trkpt lat="42.6722920965" lon="20.0864049979">
        <ele>1749.26</ele>
        <time>2019-07-13T06:57:15Z</time>
      </trkpt>
      <trkpt lat="42.6722355187" lon="20.0864460692">
        <ele>1751.18</ele>
        <time>2019-07-13T06:57:28Z</time>
      </trkpt>
      <trkpt lat="42.6721775159" lon="20.0864254497">
        <ele>1753.10</ele>
        <time>2019-07-13T06:57:41Z</time>
      </trkpt>
      <trkpt lat="42.6721696369" lon="20.0864133798">
        <ele>1754.06</ele>
        <time>2019-07-13T06:57:43Z</time>
      </trkpt>
      <trkpt lat="42.6721068565" lon="20.0863612443">
        <ele>1755.99</ele>
        <time>2019-07-13T06:57:56Z</time>
      </trkpt>
      <trkpt lat="42.6720830519" lon="20.0863053370">
        <ele>1757.91</ele>
        <time>2019-07-13T06:58:06Z</time>
      </trkpt>
      <trkpt lat="42.6720189303" lon="20.0863263756">
        <ele>1759.83</ele>
        <time>2019-07-13T06:58:16Z</time>
      </trkpt>
      <trkpt lat="42.6719260588" lon="20.0863401219">
        <ele>1762.71</ele>
        <time>2019-07-13T06:58:31Z</time>
      </trkpt>
      <trkpt lat="42.6718531363" lon="20.0863751583">
        <ele>1764.64</ele>
        <time>2019-07-13T06:58:46Z</time>
      </trkpt>
      <trkpt lat="42.6717758551" lon="20.0863790978">
        <ele>1768.00</ele>
        <time>2019-07-13T06:59:02Z</time>
      </trkpt>
      <trkpt lat="42.6717150863" lon="20.0863993820">
        <ele>1769.92</ele>
        <time>2019-07-13T06:59:14Z</time>
      </trkpt>
      <trkpt lat="42.6716744341" lon="20.0863235258">
        <ele>1771.37</ele>
        <time>2019-07-13T06:59:25Z</time>
      </trkpt>
      <trkpt lat="42.6716083009" lon="20.0863120425">
        <ele>1774.73</ele>
        <time>2019-07-13T06:59:38Z</time>
      </trkpt>
      <trkpt lat="42.6715415809" lon="20.0862943567">
        <ele>1777.13</ele>
        <time>2019-07-13T06:59:53Z</time>
      </trkpt>
      <trkpt lat="42.6714638807" lon="20.0863363501">
        <ele>1779.54</ele>
        <time>2019-07-13T07:00:06Z</time>
      </trkpt>
      <trkpt lat="42.6713916287" lon="20.0864180736">
        <ele>1780.50</ele>
        <time>2019-07-13T07:00:17Z</time>
      </trkpt>
      <trkpt lat="42.6713446062" lon="20.0864432193">
        <ele>1781.46</ele>
        <time>2019-07-13T07:00:25Z</time>
      </trkpt>
      <trkpt lat="42.6712792274" lon="20.0865335763">
        <ele>1782.90</ele>
        <time>2019-07-13T07:00:38Z</time>
      </trkpt>
      <trkpt lat="42.6712361444" lon="20.0866235979">
        <ele>1783.86</ele>
        <time>2019-07-13T07:00:47Z</time>
      </trkpt>
      <trkpt lat="42.6711577736" lon="20.0867523439">
        <ele>1784.82</ele>
        <time>2019-07-13T07:01:01Z</time>
      </trkpt>
      <trkpt lat="42.6710953284" lon="20.0868706964">
        <ele>1786.27</ele>
        <time>2019-07-13T07:01:15Z</time>
      </trkpt>
      <trkpt lat="42.6710669138" lon="20.0868829340">
        <ele>1784.82</ele>
        <time>2019-07-13T07:01:21Z</time>
      </trkpt>
      <trkpt lat="42.6709872857" lon="20.0869434513">
        <ele>1786.27</ele>
        <time>2019-07-13T07:01:34Z</time>
      </trkpt>
      <trkpt lat="42.6709894650" lon="20.0870325509">
        <ele>1787.71</ele>
        <time>2019-07-13T07:01:45Z</time>
      </trkpt>
      <trkpt lat="42.6709509082" lon="20.0871644821">
        <ele>1787.71</ele>
        <time>2019-07-13T07:01:57Z</time>
      </trkpt>
      <trkpt lat="42.6708962582" lon="20.0872547552">
        <ele>1790.11</ele>
        <time>2019-07-13T07:02:11Z</time>
      </trkpt>
      <trkpt lat="42.6708271075" lon="20.0873603672">
        <ele>1792.03</ele>
        <time>2019-07-13T07:02:27Z</time>
      </trkpt>
      <trkpt lat="42.6707651652" lon="20.0873835012">
        <ele>1794.44</ele>
        <time>2019-07-13T07:02:41Z</time>
      </trkpt>
      <trkpt lat="42.6706981100" lon="20.0873945653">
        <ele>1796.36</ele>
        <time>2019-07-13T07:02:54Z</time>
      </trkpt>
      <trkpt lat="42.6706274506" lon="20.0874173641">
        <ele>1798.76</ele>
        <time>2019-07-13T07:03:05Z</time>
      </trkpt>
      <trkpt lat="42.6706093457" lon="20.0874256622">
        <ele>1798.76</ele>
        <time>2019-07-13T07:03:08Z</time>
      </trkpt>
      <trkpt lat="42.6705302205" lon="20.0874723494">
        <ele>1800.21</ele>
        <time>2019-07-13T07:03:21Z</time>
      </trkpt>
      <trkpt lat="42.6704804320" lon="20.0875433441">
        <ele>1802.61</ele>
        <time>2019-07-13T07:03:34Z</time>
      </trkpt>
      <trkpt lat="42.6704043243" lon="20.0875695795">
        <ele>1804.05</ele>
        <time>2019-07-13T07:03:46Z</time>
      </trkpt>
      <trkpt lat="42.6703397837" lon="20.0876119081">
        <ele>1806.94</ele>
        <time>2019-07-13T07:03:58Z</time>
      </trkpt>
      <trkpt lat="42.6702673640" lon="20.0876404066">
        <ele>1809.34</ele>
        <time>2019-07-13T07:04:13Z</time>
      </trkpt>
      <trkpt lat="42.6702599041" lon="20.0876430888">
        <ele>1809.34</ele>
        <time>2019-07-13T07:04:14Z</time>
      </trkpt>
      <trkpt lat="42.6701693796" lon="20.0876848307">
        <ele>1810.30</ele>
        <time>2019-07-13T07:04:26Z</time>
      </trkpt>
      <trkpt lat="42.6701506879" lon="20.0877011754">
        <ele>1810.78</ele>
        <time>2019-07-13T07:04:30Z</time>
      </trkpt>
      <trkpt lat="42.6701045875" lon="20.0877274945">
        <ele>1810.30</ele>
        <time>2019-07-13T07:04:35Z</time>
      </trkpt>
      <trkpt lat="42.6700971276" lon="20.0877333619">
        <ele>1810.30</ele>
        <time>2019-07-13T07:04:36Z</time>
      </trkpt>
      <trkpt lat="42.6700369455" lon="20.0877858326">
        <ele>1812.22</ele>
        <time>2019-07-13T07:04:47Z</time>
      </trkpt>
      <trkpt lat="42.6699289028" lon="20.0877853297">
        <ele>1814.15</ele>
        <time>2019-07-13T07:05:01Z</time>
      </trkpt>
      <trkpt lat="42.6697627734" lon="20.0878597610">
        <ele>1816.07</ele>
        <time>2019-07-13T07:05:14Z</time>
      </trkpt>
      <trkpt lat="42.6697029267" lon="20.0879063644">
        <ele>1818.47</ele>
        <time>2019-07-13T07:05:26Z</time>
      </trkpt>
      <trkpt lat="42.6696362067" lon="20.0879125670">
        <ele>1819.91</ele>
        <time>2019-07-13T07:05:36Z</time>
      </trkpt>
      <trkpt lat="42.6695740130" lon="20.0878684781">
        <ele>1821.84</ele>
        <time>2019-07-13T07:05:46Z</time>
      </trkpt>
      <trkpt lat="42.6694832370" lon="20.0878870022">
        <ele>1823.28</ele>
        <time>2019-07-13T07:05:58Z</time>
      </trkpt>
      <trkpt lat="42.6694507152" lon="20.0879396405">
        <ele>1825.68</ele>
        <time>2019-07-13T07:06:09Z</time>
      </trkpt>
      <trkpt lat="42.6693630405" lon="20.0879584160">
        <ele>1827.60</ele>
        <time>2019-07-13T07:06:22Z</time>
      </trkpt>
      <trkpt lat="42.6692380663" lon="20.0880713202">
        <ele>1829.53</ele>
        <time>2019-07-13T07:06:34Z</time>
      </trkpt>
      <trkpt lat="42.6691874396" lon="20.0880922750">
        <ele>1831.93</ele>
        <time>2019-07-13T07:06:46Z</time>
      </trkpt>
      <trkpt lat="42.6691281796" lon="20.0881307479">
        <ele>1833.85</ele>
        <time>2019-07-13T07:06:57Z</time>
      </trkpt>
      <trkpt lat="42.6691138465" lon="20.0881793629">
        <ele>1836.74</ele>
        <time>2019-07-13T07:07:08Z</time>
      </trkpt>
      <trkpt lat="42.6690990105" lon="20.0882838853">
        <ele>1839.14</ele>
        <time>2019-07-13T07:07:18Z</time>
      </trkpt>
      <trkpt lat="42.6690674108" lon="20.0883490965">
        <ele>1841.54</ele>
        <time>2019-07-13T07:07:30Z</time>
      </trkpt>
      <trkpt lat="42.6690548379" lon="20.0884058420">
        <ele>1843.47</ele>
        <time>2019-07-13T07:07:40Z</time>
      </trkpt>
      <trkpt lat="42.6690060552" lon="20.0884863921">
        <ele>1845.87</ele>
        <time>2019-07-13T07:07:50Z</time>
      </trkpt>
      <trkpt lat="42.6688958332" lon="20.0885821134">
        <ele>1848.27</ele>
        <time>2019-07-13T07:08:02Z</time>
      </trkpt>
      <trkpt lat="42.6688063983" lon="20.0886671059">
        <ele>1850.68</ele>
        <time>2019-07-13T07:08:14Z</time>
      </trkpt>
      <trkpt lat="42.6687415224" lon="20.0887558702">
        <ele>1853.56</ele>
        <time>2019-07-13T07:08:28Z</time>
      </trkpt>
      <trkpt lat="42.6687083300" lon="20.0888506696">
        <ele>1855.00</ele>
        <time>2019-07-13T07:08:37Z</time>
      </trkpt>
      <trkpt lat="42.6686550211" lon="20.0889662560">
        <ele>1856.44</ele>
        <time>2019-07-13T07:08:49Z</time>
      </trkpt>
      <trkpt lat="42.6686420292" lon="20.0889834389">
        <ele>1856.44</ele>
        <time>2019-07-13T07:08:51Z</time>
      </trkpt>
      <trkpt lat="42.6685969345" lon="20.0891448744">
        <ele>1856.92</ele>
        <time>2019-07-13T07:09:04Z</time>
      </trkpt>
      <trkpt lat="42.6685928274" lon="20.0892409310">
        <ele>1855.48</ele>
        <time>2019-07-13T07:09:11Z</time>
      </trkpt>
      <trkpt lat="42.6685884688" lon="20.0892960001">
        <ele>1855.00</ele>
        <time>2019-07-13T07:09:14Z</time>
      </trkpt>
      <trkpt lat="42.6685586292" lon="20.0893876981">
        <ele>1853.56</ele>
        <time>2019-07-13T07:09:22Z</time>
      </trkpt>
      <trkpt lat="42.6685032248" lon="20.0894819945">
        <ele>1851.64</ele>
        <time>2019-07-13T07:09:32Z</time>
      </trkpt>
      <trkpt lat="42.6684501674" lon="20.0895787217">
        <ele>1849.71</ele>
        <time>2019-07-13T07:09:42Z</time>
      </trkpt>
      <trkpt lat="42.6683568768" lon="20.0896508060">
        <ele>1847.79</ele>
        <time>2019-07-13T07:09:53Z</time>
      </trkpt>
      <trkpt lat="42.6683217566" lon="20.0896824896">
        <ele>1846.83</ele>
        <time>2019-07-13T07:09:56Z</time>
      </trkpt>
      <trkpt lat="42.6682171505" lon="20.0898158457">
        <ele>1844.91</ele>
        <time>2019-07-13T07:10:10Z</time>
      </trkpt>
      <trkpt lat="42.6681581419" lon="20.0898440089">
        <ele>1844.43</ele>
        <time>2019-07-13T07:10:23Z</time>
      </trkpt>
      <trkpt lat="42.6680954453" lon="20.0898158457">
        <ele>1845.87</ele>
        <time>2019-07-13T07:10:34Z</time>
      </trkpt>
      <trkpt lat="42.6680843811" lon="20.0898312684">
        <ele>1846.35</ele>
        <time>2019-07-13T07:10:47Z</time>
      </trkpt>
      <trkpt lat="42.6680885721" lon="20.0898035243">
        <ele>1846.35</ele>
        <time>2019-07-13T07:11:07Z</time>
      </trkpt>
      <trkpt lat="42.6680850517" lon="20.0898001716">
        <ele>1846.35</ele>
        <time>2019-07-13T07:11:28Z</time>
      </trkpt>
      <trkpt lat="42.6680231094" lon="20.0898351241">
        <ele>1846.83</ele>
        <time>2019-07-13T07:12:03Z</time>
      </trkpt>
      <trkpt lat="42.6680279709" lon="20.0898487028">
        <ele>1846.83</ele>
        <time>2019-07-13T07:12:37Z</time>
      </trkpt>
      <trkpt lat="42.6680604927" lon="20.0898103137">
        <ele>1847.31</ele>
        <time>2019-07-13T07:13:06Z</time>
      </trkpt>
      <trkpt lat="42.6680429745" lon="20.0898246467">
        <ele>1847.31</ele>
        <time>2019-07-13T07:13:43Z</time>
      </trkpt>
      <trkpt lat="42.6680303179" lon="20.0898186117">
        <ele>1847.79</ele>
        <time>2019-07-13T07:14:18Z</time>
      </trkpt>
      <trkpt lat="42.6680366881" lon="20.0898288377">
        <ele>1847.79</ele>
        <time>2019-07-13T07:14:54Z</time>
      </trkpt>
      <trkpt lat="42.6680788491" lon="20.0898109004">
        <ele>1847.79</ele>
        <time>2019-07-13T07:15:38Z</time>
      </trkpt>
      <trkpt lat="42.6680826209" lon="20.0897872634">
        <ele>1848.27</ele>
        <time>2019-07-13T07:16:07Z</time>
      </trkpt>
      <trkpt lat="42.6681164838" lon="20.0897773728">
        <ele>1848.27</ele>
        <time>2019-07-13T07:16:41Z</time>
      </trkpt>
      <trkpt lat="42.6681405399" lon="20.0897890236">
        <ele>1848.75</ele>
        <time>2019-07-13T07:17:19Z</time>
      </trkpt>
      <trkpt lat="42.6680480875" lon="20.0898298435">
        <ele>1849.23</ele>
        <time>2019-07-13T07:17:51Z</time>
      </trkpt>
      <trkpt lat="42.6680456568" lon="20.0898393150">
        <ele>1849.23</ele>
        <time>2019-07-13T07:18:22Z</time>
      </trkpt>
      <trkpt lat="42.6680117100" lon="20.0898771174">
        <ele>1849.71</ele>
        <time>2019-07-13T07:18:59Z</time>
      </trkpt>
      <trkpt lat="42.6680345088" lon="20.0898479484">
        <ele>1850.19</ele>
        <time>2019-07-13T07:19:38Z</time>
      </trkpt>
      <trkpt lat="42.6680091955" lon="20.0898468588">
        <ele>1851.16</ele>
        <time>2019-07-13T07:20:04Z</time>
      </trkpt>
      <trkpt lat="42.6680246182" lon="20.0898796320">
        <ele>1851.16</ele>
        <time>2019-07-13T07:20:20Z</time>
      </trkpt>
      <trkpt lat="42.6680434775" lon="20.0899218768">
        <ele>1850.19</ele>
        <time>2019-07-13T07:20:31Z</time>
      </trkpt>
      <trkpt lat="42.6679894142" lon="20.0899898540">
        <ele>1847.79</ele>
        <time>2019-07-13T07:20:43Z</time>
      </trkpt>
      <trkpt lat="42.6679452416" lon="20.0900516286">
        <ele>1846.83</ele>
        <time>2019-07-13T07:20:54Z</time>
      </trkpt>
      <trkpt lat="42.6678876579" lon="20.0901069492">
        <ele>1848.27</ele>
        <time>2019-07-13T07:21:03Z</time>
      </trkpt>
      <trkpt lat="42.6678118855" lon="20.0901921932">
        <ele>1849.71</ele>
        <time>2019-07-13T07:21:17Z</time>
      </trkpt>
      <trkpt lat="42.6677351911" lon="20.0903068576">
        <ele>1849.71</ele>
        <time>2019-07-13T07:21:28Z</time>
      </trkpt>
      <trkpt lat="42.6677050162" lon="20.0903772656">
        <ele>1850.19</ele>
        <time>2019-07-13T07:21:34Z</time>
      </trkpt>
      <trkpt lat="42.6676992327" lon="20.0904724840">
        <ele>1850.19</ele>
        <time>2019-07-13T07:21:41Z</time>
      </trkpt>
      <trkpt lat="42.6676956285" lon="20.0905672833">
        <ele>1848.27</ele>
        <time>2019-07-13T07:21:47Z</time>
      </trkpt>
      <trkpt lat="42.6676689740" lon="20.0906973705">
        <ele>1848.27</ele>
        <time>2019-07-13T07:21:57Z</time>
      </trkpt>
      <trkpt lat="42.6676353626" lon="20.0908277929">
        <ele>1849.23</ele>
        <time>2019-07-13T07:22:10Z</time>
      </trkpt>
      <trkpt lat="42.6676438283" lon="20.0908291340">
        <ele>1849.23</ele>
        <time>2019-07-13T07:22:33Z</time>
      </trkpt>
      <trkpt lat="42.6676305849" lon="20.0908162259">
        <ele>1849.23</ele>
        <time>2019-07-13T07:22:50Z</time>
      </trkpt>
      <trkpt lat="42.6676090434" lon="20.0908417907">
        <ele>1850.19</ele>
        <time>2019-07-13T07:23:06Z</time>
      </trkpt>
      <trkpt lat="42.6675890945" lon="20.0908453111">
        <ele>1850.19</ele>
        <time>2019-07-13T07:23:12Z</time>
      </trkpt>
      <trkpt lat="42.6676125638" lon="20.0908013061">
        <ele>1850.19</ele>
        <time>2019-07-13T07:23:26Z</time>
      </trkpt>
      <trkpt lat="42.6676069479" lon="20.0908111129">
        <ele>1850.19</ele>
        <time>2019-07-13T07:23:36Z</time>
      </trkpt>
      <trkpt lat="42.6676489413" lon="20.0906298123">
        <ele>1850.19</ele>
        <time>2019-07-13T07:23:49Z</time>
      </trkpt>
      <trkpt lat="42.6676532999" lon="20.0905803591">
        <ele>1850.19</ele>
        <time>2019-07-13T07:23:52Z</time>
      </trkpt>
      <trkpt lat="42.6676904317" lon="20.0903969631">
        <ele>1851.64</ele>
        <time>2019-07-13T07:24:05Z</time>
      </trkpt>
      <trkpt lat="42.6677211095" lon="20.0903443247">
        <ele>1851.64</ele>
        <time>2019-07-13T07:24:11Z</time>
      </trkpt>
      <trkpt lat="42.6677568164" lon="20.0902881660">
        <ele>1852.12</ele>
        <time>2019-07-13T07:24:16Z</time>
      </trkpt>
      <trkpt lat="42.6678376179" lon="20.0901647005">
        <ele>1851.64</ele>
        <time>2019-07-13T07:24:29Z</time>
      </trkpt>
      <trkpt lat="42.6678642724" lon="20.0901538040">
        <ele>1851.64</ele>
        <time>2019-07-13T07:24:32Z</time>
      </trkpt>
      <trkpt lat="42.6679170784" lon="20.0900938734">
        <ele>1850.19</ele>
        <time>2019-07-13T07:24:38Z</time>
      </trkpt>
      <trkpt lat="42.6680073515" lon="20.0900522154">
        <ele>1847.31</ele>
        <time>2019-07-13T07:24:51Z</time>
      </trkpt>
      <trkpt lat="42.6680702157" lon="20.0900199451">
        <ele>1846.83</ele>
        <time>2019-07-13T07:25:01Z</time>
      </trkpt>
      <trkpt lat="42.6680792682" lon="20.0900206156">
        <ele>1846.83</ele>
        <time>2019-07-13T07:25:02Z</time>
      </trkpt>
      <trkpt lat="42.6681779232" lon="20.0900317635">
        <ele>1846.35</ele>
        <time>2019-07-13T07:25:12Z</time>
      </trkpt>
      <trkpt lat="42.6682504267" lon="20.0900979806">
        <ele>1846.35</ele>
        <time>2019-07-13T07:25:22Z</time>
      </trkpt>
      <trkpt lat="42.6683325693" lon="20.0901510380">
        <ele>1846.35</ele>
        <time>2019-07-13T07:25:28Z</time>
      </trkpt>
      <trkpt lat="42.6683950145" lon="20.0901869126">
        <ele>1846.35</ele>
        <time>2019-07-13T07:25:33Z</time>
      </trkpt>
      <trkpt lat="42.6685241796" lon="20.0902240444">
        <ele>1846.35</ele>
        <time>2019-07-13T07:25:44Z</time>
      </trkpt>
      <trkpt lat="42.6685401890" lon="20.0902237929">
        <ele>1846.35</ele>
        <time>2019-07-13T07:25:45Z</time>
      </trkpt>
      <trkpt lat="42.6686300430" lon="20.0902145728">
        <ele>1846.35</ele>
        <time>2019-07-13T07:25:51Z</time>
      </trkpt>
      <trkpt lat="42.6686760597" lon="20.0902434904">
        <ele>1846.35</ele>
        <time>2019-07-13T07:25:57Z</time>
      </trkpt>
      <trkpt lat="42.6687767264" lon="20.0903314166">
        <ele>1846.35</ele>
        <time>2019-07-13T07:26:09Z</time>
      </trkpt>
      <trkpt lat="42.6687778998" lon="20.0903436542">
        <ele>1846.35</ele>
        <time>2019-07-13T07:26:11Z</time>
      </trkpt>
      <trkpt lat="42.6688871160" lon="20.0904521160">
        <ele>1847.31</ele>
        <time>2019-07-13T07:26:24Z</time>
      </trkpt>
      <trkpt lat="42.6690124255" lon="20.0906173233">
        <ele>1847.31</ele>
        <time>2019-07-13T07:26:39Z</time>
      </trkpt>
      <trkpt lat="42.6690197177" lon="20.0906456541">
        <ele>1847.31</ele>
        <time>2019-07-13T07:26:41Z</time>
      </trkpt>
      <trkpt lat="42.6690920535" lon="20.0908225123">
        <ele>1847.31</ele>
        <time>2019-07-13T07:26:52Z</time>
      </trkpt>
      <trkpt lat="42.6691420097" lon="20.0909847021">
        <ele>1847.31</ele>
        <time>2019-07-13T07:27:02Z</time>
      </trkpt>
      <trkpt lat="42.6691554207" lon="20.0910317246">
        <ele>1847.31</ele>
        <time>2019-07-13T07:27:05Z</time>
      </trkpt>
      <trkpt lat="42.6691720169" lon="20.0911232550">
        <ele>1847.31</ele>
        <time>2019-07-13T07:27:11Z</time>
      </trkpt>
      <trkpt lat="42.6692173630" lon="20.0912883785">
        <ele>1847.31</ele>
        <time>2019-07-13T07:27:24Z</time>
      </trkpt>
      <trkpt lat="42.6692357194" lon="20.0913644023">
        <ele>1847.31</ele>
        <time>2019-07-13T07:27:29Z</time>
      </trkpt>
      <trkpt lat="42.6692797244" lon="20.0915670767">
        <ele>1846.35</ele>
        <time>2019-07-13T07:27:42Z</time>
      </trkpt>
      <trkpt lat="42.6692904532" lon="20.0916565955">
        <ele>1846.35</ele>
        <time>2019-07-13T07:27:47Z</time>
      </trkpt>
      <trkpt lat="42.6693012659" lon="20.0916820765">
        <ele>1846.35</ele>
        <time>2019-07-13T07:27:49Z</time>
      </trkpt>
      <trkpt lat="42.6693237294" lon="20.0917441864">
        <ele>1846.35</ele>
        <time>2019-07-13T07:27:54Z</time>
      </trkpt>
      <trkpt lat="42.6694051176" lon="20.0918961503">
        <ele>1846.35</ele>
        <time>2019-07-13T07:28:06Z</time>
      </trkpt>
      <trkpt lat="42.6694865059" lon="20.0920360442">
        <ele>1846.35</ele>
        <time>2019-07-13T07:28:18Z</time>
      </trkpt>
      <trkpt lat="42.6695093885" lon="20.0920494553">
        <ele>1846.35</ele>
        <time>2019-07-13T07:28:20Z</time>
      </trkpt>
      <trkpt lat="42.6695867535" lon="20.0920766126">
        <ele>1846.35</ele>
        <time>2019-07-13T07:28:28Z</time>
      </trkpt>
      <trkpt lat="42.6696857437" lon="20.0921038538">
        <ele>1848.27</ele>
        <time>2019-07-13T07:28:39Z</time>
      </trkpt>
      <trkpt lat="42.6697777770" lon="20.0922187697">
        <ele>1848.27</ele>
        <time>2019-07-13T07:28:50Z</time>
      </trkpt>
      <trkpt lat="42.6698514540" lon="20.0923096295">
        <ele>1846.35</ele>
        <time>2019-07-13T07:29:02Z</time>
      </trkpt>
      <trkpt lat="42.6699256338" lon="20.0923734996">
        <ele>1846.35</ele>
        <time>2019-07-13T07:29:14Z</time>
      </trkpt>
      <trkpt lat="42.6700521167" lon="20.0924325921">
        <ele>1848.27</ele>
        <time>2019-07-13T07:29:26Z</time>
      </trkpt>
      <trkpt lat="42.6701357681" lon="20.0924698915">
        <ele>1850.68</ele>
        <time>2019-07-13T07:29:38Z</time>
      </trkpt>
      <trkpt lat="42.6702697109" lon="20.0925326720">
        <ele>1852.12</ele>
        <time>2019-07-13T07:29:50Z</time>
      </trkpt>
      <trkpt lat="42.6702971198" lon="20.0925550517">
        <ele>1852.60</ele>
        <time>2019-07-13T07:29:56Z</time>
      </trkpt>
      <trkpt lat="42.6703086030" lon="20.0926165748">
        <ele>1850.19</ele>
        <time>2019-07-13T07:30:02Z</time>
      </trkpt>
      <trkpt lat="42.6703637559" lon="20.0926795229">
        <ele>1847.79</ele>
        <time>2019-07-13T07:30:13Z</time>
      </trkpt>
      <trkpt lat="42.6704158075" lon="20.0927461591">
        <ele>1844.91</ele>
        <time>2019-07-13T07:30:22Z</time>
      </trkpt>
      <trkpt lat="42.6704233512" lon="20.0928213447">
        <ele>1842.98</ele>
        <time>2019-07-13T07:30:37Z</time>
      </trkpt>
      <trkpt lat="42.6704501733" lon="20.0928968657">
        <ele>1839.62</ele>
        <time>2019-07-13T07:30:46Z</time>
      </trkpt>
      <trkpt lat="42.6704564597" lon="20.0929034874">
        <ele>1839.14</ele>
        <time>2019-07-13T07:30:47Z</time>
      </trkpt>
      <trkpt lat="42.6704719663" lon="20.0929738954">
        <ele>1836.74</ele>
        <time>2019-07-13T07:30:55Z</time>
      </trkpt>
      <trkpt lat="42.6705434639" lon="20.0929918326">
        <ele>1833.85</ele>
        <time>2019-07-13T07:31:04Z</time>
      </trkpt>
      <trkpt lat="42.6705876365" lon="20.0929935090">
        <ele>1833.37</ele>
        <time>2019-07-13T07:31:11Z</time>
      </trkpt>
      <trkpt lat="42.6706294622" lon="20.0930220075">
        <ele>1832.41</ele>
        <time>2019-07-13T07:31:14Z</time>
      </trkpt>
      <trkpt lat="42.6706976071" lon="20.0930759870">
        <ele>1832.41</ele>
        <time>2019-07-13T07:31:23Z</time>
      </trkpt>
      <trkpt lat="42.6708101761" lon="20.0931330677">
        <ele>1831.45</ele>
        <time>2019-07-13T07:31:34Z</time>
      </trkpt>
      <trkpt lat="42.6709066518" lon="20.0931982789">
        <ele>1831.45</ele>
        <time>2019-07-13T07:31:46Z</time>
      </trkpt>
      <trkpt lat="42.6709518302" lon="20.0932398532">
        <ele>1832.89</ele>
        <time>2019-07-13T07:31:51Z</time>
      </trkpt>
      <trkpt lat="42.6710832585" lon="20.0932758953">
        <ele>1833.85</ele>
        <time>2019-07-13T07:32:03Z</time>
      </trkpt>
      <trkpt lat="42.6711892895" lon="20.0933118537">
        <ele>1836.26</ele>
        <time>2019-07-13T07:32:17Z</time>
      </trkpt>
      <trkpt lat="42.6712361444" lon="20.0933444593">
        <ele>1838.18</ele>
        <time>2019-07-13T07:32:28Z</time>
      </trkpt>
      <trkpt lat="42.6712954883" lon="20.0933950022">
        <ele>1839.62</ele>
        <time>2019-07-13T07:32:39Z</time>
      </trkpt>
      <trkpt lat="42.6713070553" lon="20.0934994407">
        <ele>1841.54</ele>
        <time>2019-07-13T07:32:50Z</time>
      </trkpt>
      <trkpt lat="42.6713094022" lon="20.0935905520">
        <ele>1842.02</ele>
        <time>2019-07-13T07:32:58Z</time>
      </trkpt>
      <trkpt lat="42.6713148504" lon="20.0936586969">
        <ele>1842.98</ele>
        <time>2019-07-13T07:33:03Z</time>
      </trkpt>
      <trkpt lat="42.6713347156" lon="20.0937282667">
        <ele>1843.47</ele>
        <time>2019-07-13T07:33:09Z</time>
      </trkpt>
      <trkpt lat="42.6713312790" lon="20.0938584376">
        <ele>1845.39</ele>
        <time>2019-07-13T07:33:20Z</time>
      </trkpt>
      <trkpt lat="42.6713606156" lon="20.0939191226">
        <ele>1845.87</ele>
        <time>2019-07-13T07:33:31Z</time>
      </trkpt>
      <trkpt lat="42.6713026129" lon="20.0940510537">
        <ele>1848.75</ele>
        <time>2019-07-13T07:33:44Z</time>
      </trkpt>
      <trkpt lat="42.6713380683" lon="20.0941245630">
        <ele>1848.75</ele>
        <time>2019-07-13T07:33:51Z</time>
      </trkpt>
      <trkpt lat="42.6713584363" lon="20.0942211226">
        <ele>1850.68</ele>
        <time>2019-07-13T07:34:01Z</time>
      </trkpt>
      <trkpt lat="42.6712948177" lon="20.0943621900">
        <ele>1851.16</ele>
        <time>2019-07-13T07:34:12Z</time>
      </trkpt>
      <trkpt lat="42.6712872740" lon="20.0943790376">
        <ele>1851.16</ele>
        <time>2019-07-13T07:34:13Z</time>
      </trkpt>
      <trkpt lat="42.6713191252" lon="20.0944450032">
        <ele>1851.16</ele>
        <time>2019-07-13T07:34:17Z</time>
      </trkpt>
      <trkpt lat="42.6713296026" lon="20.0945437420">
        <ele>1847.79</ele>
        <time>2019-07-13T07:34:28Z</time>
      </trkpt>
      <trkpt lat="42.6712958235" lon="20.0946319196">
        <ele>1845.39</ele>
        <time>2019-07-13T07:34:34Z</time>
      </trkpt>
      <trkpt lat="42.6711874455" lon="20.0948587339">
        <ele>1842.50</ele>
        <time>2019-07-13T07:34:47Z</time>
      </trkpt>
      <trkpt lat="42.6711806562" lon="20.0949197542">
        <ele>1840.58</ele>
        <time>2019-07-13T07:34:53Z</time>
      </trkpt>
      <trkpt lat="42.6712053828" lon="20.0949676149">
        <ele>1838.66</ele>
        <time>2019-07-13T07:35:00Z</time>
      </trkpt>
      <trkpt lat="42.6711783931" lon="20.0949989632">
        <ele>1835.29</ele>
        <time>2019-07-13T07:35:07Z</time>
      </trkpt>
      <trkpt lat="42.6711125951" lon="20.0950780883">
        <ele>1831.93</ele>
        <time>2019-07-13T07:35:17Z</time>
      </trkpt>
      <trkpt lat="42.6710660756" lon="20.0951144658">
        <ele>1830.49</ele>
        <time>2019-07-13T07:35:24Z</time>
      </trkpt>
      <trkpt lat="42.6709470525" lon="20.0951992068">
        <ele>1826.64</ele>
        <time>2019-07-13T07:35:34Z</time>
      </trkpt>
      <trkpt lat="42.6708750520" lon="20.0952062476">
        <ele>1823.76</ele>
        <time>2019-07-13T07:35:42Z</time>
      </trkpt>
      <trkpt lat="42.6707770675" lon="20.0952381827">
        <ele>1822.32</ele>
        <time>2019-07-13T07:35:48Z</time>
      </trkpt>
      <trkpt lat="42.6706533507" lon="20.0952566229">
        <ele>1819.43</ele>
        <time>2019-07-13T07:35:58Z</time>
      </trkpt>
      <trkpt lat="42.6706426218" lon="20.0952588860">
        <ele>1819.43</ele>
        <time>2019-07-13T07:36:00Z</time>
      </trkpt>
      <trkpt lat="42.6705485769" lon="20.0953401066">
        <ele>1816.07</ele>
        <time>2019-07-13T07:36:13Z</time>
      </trkpt>
      <trkpt lat="42.6706037298" lon="20.0954394322">
        <ele>1813.66</ele>
        <time>2019-07-13T07:36:21Z</time>
      </trkpt>
      <trkpt lat="42.6706167217" lon="20.0954748038">
        <ele>1812.22</ele>
        <time>2019-07-13T07:36:24Z</time>
      </trkpt>
      <trkpt lat="42.6706925780" lon="20.0955558568">
        <ele>1810.78</ele>
        <time>2019-07-13T07:36:34Z</time>
      </trkpt>
      <trkpt lat="42.6706546918" lon="20.0957195554">
        <ele>1807.42</ele>
        <time>2019-07-13T07:36:48Z</time>
      </trkpt>
      <trkpt lat="42.6705759019" lon="20.0959007721">
        <ele>1805.01</ele>
        <time>2019-07-13T07:37:02Z</time>
      </trkpt>
      <trkpt lat="42.6704540290" lon="20.0959425140">
        <ele>1802.61</ele>
        <time>2019-07-13T07:37:14Z</time>
      </trkpt>
      <trkpt lat="42.6703640912" lon="20.0959200505">
        <ele>1800.69</ele>
        <time>2019-07-13T07:37:24Z</time>
      </trkpt>
      <trkpt lat="42.6703251153" lon="20.0959688332">
        <ele>1797.80</ele>
        <time>2019-07-13T07:37:36Z</time>
      </trkpt>
      <trkpt lat="42.6703089382" lon="20.0959898718">
        <ele>1795.40</ele>
        <time>2019-07-13T07:37:45Z</time>
      </trkpt>
      <trkpt lat="42.6702500135" lon="20.0960156880">
        <ele>1793.48</ele>
        <time>2019-07-13T07:37:55Z</time>
      </trkpt>
      <trkpt lat="42.6701876521" lon="20.0960534066">
        <ele>1791.07</ele>
        <time>2019-07-13T07:38:04Z</time>
      </trkpt>
      <trkpt lat="42.6700803638" lon="20.0960791390">
        <ele>1790.11</ele>
        <time>2019-07-13T07:38:16Z</time>
      </trkpt>
      <trkpt lat="42.6700066868" lon="20.0960792229">
        <ele>1788.67</ele>
        <time>2019-07-13T07:38:24Z</time>
      </trkpt>
      <trkpt lat="42.6699286513" lon="20.0961293466">
        <ele>1786.75</ele>
        <time>2019-07-13T07:38:31Z</time>
      </trkpt>
      <trkpt lat="42.6697952952" lon="20.0962431729">
        <ele>1783.38</ele>
        <time>2019-07-13T07:38:43Z</time>
      </trkpt>
      <trkpt lat="42.6697616000" lon="20.0962783769">
        <ele>1781.46</ele>
        <time>2019-07-13T07:38:52Z</time>
      </trkpt>
      <trkpt lat="42.6696738414" lon="20.0963753555">
        <ele>1779.54</ele>
        <time>2019-07-13T07:39:06Z</time>
      </trkpt>
      <trkpt lat="42.6696660463" lon="20.0964394771">
        <ele>1776.65</ele>
        <time>2019-07-13T07:39:15Z</time>
      </trkpt>
      <trkpt lat="42.6696158387" lon="20.0965425745">
        <ele>1776.17</ele>
        <time>2019-07-13T07:39:25Z</time>
      </trkpt>
      <trkpt lat="42.6695649605" lon="20.0966854859">
        <ele>1774.73</ele>
        <time>2019-07-13T07:39:35Z</time>
      </trkpt>
      <trkpt lat="42.6695633680" lon="20.0967772678">
        <ele>1771.37</ele>
        <time>2019-07-13T07:39:44Z</time>
      </trkpt>
      <trkpt lat="42.6695371326" lon="20.0968771800">
        <ele>1768.48</ele>
        <time>2019-07-13T07:39:53Z</time>
      </trkpt>
      <trkpt lat="42.6695424132" lon="20.0969318300">
        <ele>1767.04</ele>
        <time>2019-07-13T07:39:57Z</time>
      </trkpt>
      <trkpt lat="42.6695305109" lon="20.0969831273">
        <ele>1766.08</ele>
        <time>2019-07-13T07:40:01Z</time>
      </trkpt>
      <trkpt lat="42.6695074607" lon="20.0970982946">
        <ele>1765.12</ele>
        <time>2019-07-13T07:40:12Z</time>
      </trkpt>
      <trkpt lat="42.6695057843" lon="20.0971078500">
        <ele>1764.64</ele>
        <time>2019-07-13T07:40:13Z</time>
      </trkpt>
      <trkpt lat="42.6694709156" lon="20.0972731411">
        <ele>1763.68</ele>
        <time>2019-07-13T07:40:26Z</time>
      </trkpt>
      <trkpt lat="42.6694662217" lon="20.0973189063">
        <ele>1762.71</ele>
        <time>2019-07-13T07:40:29Z</time>
      </trkpt>
      <trkpt lat="42.6694700774" lon="20.0973805971">
        <ele>1762.23</ele>
        <time>2019-07-13T07:40:33Z</time>
      </trkpt>
      <trkpt lat="42.6694127452" lon="20.0974724628">
        <ele>1763.20</ele>
        <time>2019-07-13T07:40:45Z</time>
      </trkpt>
      <trkpt lat="42.6693787985" lon="20.0974915735">
        <ele>1764.64</ele>
        <time>2019-07-13T07:40:49Z</time>
      </trkpt>
      <trkpt lat="42.6693221368" lon="20.0975354109">
        <ele>1765.60</ele>
        <time>2019-07-13T07:41:03Z</time>
      </trkpt>
      <trkpt lat="42.6692612004" lon="20.0976741314">
        <ele>1767.04</ele>
        <time>2019-07-13T07:41:15Z</time>
      </trkpt>
      <trkpt lat="42.6692527346" lon="20.0976860337">
        <ele>1767.04</ele>
        <time>2019-07-13T07:41:16Z</time>
      </trkpt>
      <trkpt lat="42.6691718493" lon="20.0978391711">
        <ele>1768.48</ele>
        <time>2019-07-13T07:41:29Z</time>
      </trkpt>
      <trkpt lat="42.6691656467" lon="20.0978643168">
        <ele>1768.48</ele>
        <time>2019-07-13T07:41:31Z</time>
      </trkpt>
      <trkpt lat="42.6691189595" lon="20.0979638100">
        <ele>1769.92</ele>
        <time>2019-07-13T07:41:40Z</time>
      </trkpt>
      <trkpt lat="42.6690480486" lon="20.0980936456">
        <ele>1770.41</ele>
        <time>2019-07-13T07:41:52Z</time>
      </trkpt>
      <trkpt lat="42.6689776406" lon="20.0981837511">
        <ele>1772.33</ele>
        <time>2019-07-13T07:42:04Z</time>
      </trkpt>
      <trkpt lat="42.6689361501" lon="20.0982529018">
        <ele>1773.77</ele>
        <time>2019-07-13T07:42:14Z</time>
      </trkpt>
      <trkpt lat="42.6689125970" lon="20.0982798915">
        <ele>1774.73</ele>
        <time>2019-07-13T07:42:19Z</time>
      </trkpt>
      <trkpt lat="42.6688592881" lon="20.0983670633">
        <ele>1776.17</ele>
        <time>2019-07-13T07:42:30Z</time>
      </trkpt>
      <trkpt lat="42.6688141096" lon="20.0984228030">
        <ele>1778.58</ele>
        <time>2019-07-13T07:42:40Z</time>
      </trkpt>
      <trkpt lat="42.6687881257" lon="20.0984632876">
        <ele>1780.02</ele>
        <time>2019-07-13T07:42:47Z</time>
      </trkpt>
      <trkpt lat="42.6687165443" lon="20.0985291693">
        <ele>1782.42</ele>
        <time>2019-07-13T07:42:59Z</time>
      </trkpt>
      <trkpt lat="42.6686919853" lon="20.0985383894">
        <ele>1782.90</ele>
        <time>2019-07-13T07:43:02Z</time>
      </trkpt>
      <trkpt lat="42.6686575357" lon="20.0985580869">
        <ele>1783.38</ele>
        <time>2019-07-13T07:43:06Z</time>
      </trkpt>
      <trkpt lat="42.6685730461" lon="20.0986064505">
        <ele>1785.31</ele>
        <time>2019-07-13T07:43:18Z</time>
      </trkpt>
      <trkpt lat="42.6684937533" lon="20.0986589212">
        <ele>1786.75</ele>
        <time>2019-07-13T07:43:29Z</time>
      </trkpt>
      <trkpt lat="42.6684554480" lon="20.0986718293">
        <ele>1788.19</ele>
        <time>2019-07-13T07:43:36Z</time>
      </trkpt>
      <trkpt lat="42.6683527697" lon="20.0986966398">
        <ele>1789.63</ele>
        <time>2019-07-13T07:43:47Z</time>
      </trkpt>
      <trkpt lat="42.6683065016" lon="20.0987247191">
        <ele>1789.63</ele>
        <time>2019-07-13T07:43:59Z</time>
      </trkpt>
      <trkpt lat="42.6682603173" lon="20.0987703167">
        <ele>1790.11</ele>
        <time>2019-07-13T07:44:10Z</time>
      </trkpt>
      <trkpt lat="42.6681927592" lon="20.0987933669">
        <ele>1788.67</ele>
        <time>2019-07-13T07:44:20Z</time>
      </trkpt>
      <trkpt lat="42.6681029890" lon="20.0988262240">
        <ele>1788.19</ele>
        <time>2019-07-13T07:44:30Z</time>
      </trkpt>
      <trkpt lat="42.6680563018" lon="20.0988477655">
        <ele>1787.71</ele>
        <time>2019-07-13T07:44:44Z</time>
      </trkpt>
      <trkpt lat="42.6679999754" lon="20.0988777727">
        <ele>1787.71</ele>
        <time>2019-07-13T07:44:56Z</time>
      </trkpt>
      <trkpt lat="42.6680181641" lon="20.0988746714">
        <ele>1787.23</ele>
        <time>2019-07-13T07:45:10Z</time>
      </trkpt>
      <trkpt lat="42.6680513564" lon="20.0988587458">
        <ele>1787.23</ele>
        <time>2019-07-13T07:45:16Z</time>
      </trkpt>
      <trkpt lat="42.6681253687" lon="20.0988503639">
        <ele>1787.71</ele>
        <time>2019-07-13T07:45:23Z</time>
      </trkpt>
      <trkpt lat="42.6681607403" lon="20.0988392998">
        <ele>1788.67</ele>
        <time>2019-07-13T07:45:27Z</time>
      </trkpt>
      <trkpt lat="42.6681605726" lon="20.0988821313">
        <ele>1789.15</ele>
        <time>2019-07-13T07:45:32Z</time>
      </trkpt>
      <trkpt lat="42.6681442279" lon="20.0989336800">
        <ele>1790.11</ele>
        <time>2019-07-13T07:45:37Z</time>
      </trkpt>
      <trkpt lat="42.6680647675" lon="20.0990211871">
        <ele>1791.55</ele>
        <time>2019-07-13T07:45:47Z</time>
      </trkpt>
      <trkpt lat="42.6680055913" lon="20.0991350971">
        <ele>1793.00</ele>
        <time>2019-07-13T07:45:56Z</time>
      </trkpt>
      <trkpt lat="42.6679563895" lon="20.0992374402">
        <ele>1794.44</ele>
        <time>2019-07-13T07:46:08Z</time>
      </trkpt>
      <trkpt lat="42.6679485105" lon="20.0992960297">
        <ele>1795.88</ele>
        <time>2019-07-13T07:46:15Z</time>
      </trkpt>
      <trkpt lat="42.6679276396" lon="20.0994186569">
        <ele>1797.80</ele>
        <time>2019-07-13T07:46:25Z</time>
      </trkpt>
      <trkpt lat="42.6678590756" lon="20.0995003805">
        <ele>1797.80</ele>
        <time>2019-07-13T07:46:35Z</time>
      </trkpt>
      <trkpt lat="42.6678454969" lon="20.0995642506">
        <ele>1797.80</ele>
        <time>2019-07-13T07:46:39Z</time>
      </trkpt>
      <trkpt lat="42.6678271405" lon="20.0996601395">
        <ele>1798.76</ele>
        <time>2019-07-13T07:46:47Z</time>
      </trkpt>
      <trkpt lat="42.6678034198" lon="20.0996820163">
        <ele>1798.76</ele>
        <time>2019-07-13T07:46:49Z</time>
      </trkpt>
      <trkpt lat="42.6677148230" lon="20.0997874606">
        <ele>1801.17</ele>
        <time>2019-07-13T07:47:01Z</time>
      </trkpt>
      <trkpt lat="42.6676600054" lon="20.0998400152">
        <ele>1802.13</ele>
        <time>2019-07-13T07:47:11Z</time>
      </trkpt>
      <trkpt lat="42.6676322613" lon="20.0999013707">
        <ele>1802.13</ele>
        <time>2019-07-13T07:47:19Z</time>
      </trkpt>
      <trkpt lat="42.6676211134" lon="20.0999146979">
        <ele>1802.13</ele>
        <time>2019-07-13T07:47:21Z</time>
      </trkpt>
      <trkpt lat="42.6675087959" lon="20.0999518298">
        <ele>1802.61</ele>
        <time>2019-07-13T07:47:30Z</time>
      </trkpt>
      <trkpt lat="42.6674036868" lon="20.1000167895">
        <ele>1803.57</ele>
        <time>2019-07-13T07:47:40Z</time>
      </trkpt>
      <trkpt lat="42.6672652178" lon="20.1000524126">
        <ele>1804.05</ele>
        <time>2019-07-13T07:47:51Z</time>
      </trkpt>
      <trkpt lat="42.6672005095" lon="20.1000801567">
        <ele>1804.05</ele>
        <time>2019-07-13T07:48:05Z</time>
      </trkpt>
      <trkpt lat="42.6671488769" lon="20.1001089904">
        <ele>1805.01</ele>
        <time>2019-07-13T07:48:18Z</time>
      </trkpt>
      <trkpt lat="42.6670401637" lon="20.1001352258">
        <ele>1805.97</ele>
        <time>2019-07-13T07:48:28Z</time>
      </trkpt>
      <trkpt lat="42.6669645589" lon="20.1001219824">
        <ele>1805.97</ele>
        <time>2019-07-13T07:48:38Z</time>
      </trkpt>
      <trkpt lat="42.6669461187" lon="20.1001282688">
        <ele>1806.45</ele>
        <time>2019-07-13T07:48:41Z</time>
      </trkpt>
      <trkpt lat="42.6668499783" lon="20.1001622155">
        <ele>1806.45</ele>
        <time>2019-07-13T07:48:53Z</time>
      </trkpt>
      <trkpt lat="42.6668058895" lon="20.1001830865">
        <ele>1806.45</ele>
        <time>2019-07-13T07:49:03Z</time>
      </trkpt>
      <trkpt lat="42.6667535864" lon="20.1002059691">
        <ele>1806.45</ele>
        <time>2019-07-13T07:49:16Z</time>
      </trkpt>
      <trkpt lat="42.6667083241" lon="20.1002453640">
        <ele>1806.45</ele>
        <time>2019-07-13T07:49:27Z</time>
      </trkpt>
      <trkpt lat="42.6666577812" lon="20.1002505608">
        <ele>1806.45</ele>
        <time>2019-07-13T07:49:37Z</time>
      </trkpt>
      <trkpt lat="42.6665710285" lon="20.1002828311">
        <ele>1807.42</ele>
        <time>2019-07-13T07:49:49Z</time>
      </trkpt>
      <trkpt lat="42.6665302087" lon="20.1003040373">
        <ele>1808.38</ele>
        <time>2019-07-13T07:49:54Z</time>
      </trkpt>
      <trkpt lat="42.6664769836" lon="20.1003177837">
        <ele>1809.82</ele>
        <time>2019-07-13T07:50:00Z</time>
      </trkpt>
      <trkpt lat="42.6664202381" lon="20.1003238186">
        <ele>1811.26</ele>
        <time>2019-07-13T07:50:09Z</time>
      </trkpt>
      <trkpt lat="42.6663589664" lon="20.1003113296">
        <ele>1813.18</ele>
        <time>2019-07-13T07:50:20Z</time>
      </trkpt>
      <trkpt lat="42.6662697829" lon="20.1003273390">
        <ele>1815.11</ele>
        <time>2019-07-13T07:50:32Z</time>
      </trkpt>
      <trkpt lat="42.6662515942" lon="20.1003611181">
        <ele>1816.55</ele>
        <time>2019-07-13T07:50:39Z</time>
      </trkpt>
      <trkpt lat="42.6661958545" lon="20.1003840845">
        <ele>1817.99</ele>
        <time>2019-07-13T07:50:47Z</time>
      </trkpt>
      <trkpt lat="42.6661798451" lon="20.1003943942">
        <ele>1818.47</ele>
        <time>2019-07-13T07:50:51Z</time>
      </trkpt>
      <trkpt lat="42.6661417913" lon="20.1004462782">
        <ele>1820.87</ele>
        <time>2019-07-13T07:51:03Z</time>
      </trkpt>
      <trkpt lat="42.6660821959" lon="20.1004710887">
        <ele>1822.80</ele>
        <time>2019-07-13T07:51:15Z</time>
      </trkpt>
      <trkpt lat="42.6660759933" lon="20.1004843321">
        <ele>1823.28</ele>
        <time>2019-07-13T07:51:19Z</time>
      </trkpt>
      <trkpt lat="42.6660589781" lon="20.1005487051">
        <ele>1825.20</ele>
        <time>2019-07-13T07:51:30Z</time>
      </trkpt>
      <trkpt lat="42.6660345029" lon="20.1005517226">
        <ele>1825.68</ele>
        <time>2019-07-13T07:51:34Z</time>
      </trkpt>
      <trkpt lat="42.6660013944" lon="20.1005593501">
        <ele>1826.64</ele>
        <time>2019-07-13T07:51:38Z</time>
      </trkpt>
      <trkpt lat="42.6660065074" lon="20.1006153412">
        <ele>1829.05</ele>
        <time>2019-07-13T07:51:50Z</time>
      </trkpt>
      <trkpt lat="42.6659720577" lon="20.1006577536">
        <ele>1830.97</ele>
        <time>2019-07-13T07:52:00Z</time>
      </trkpt>
      <trkpt lat="42.6659283042" lon="20.1007007528">
        <ele>1832.89</ele>
        <time>2019-07-13T07:52:11Z</time>
      </trkpt>
      <trkpt lat="42.6659102831" lon="20.1007344481">
        <ele>1834.81</ele>
        <time>2019-07-13T07:52:21Z</time>
      </trkpt>
      <trkpt lat="42.6658951119" lon="20.1007467695">
        <ele>1835.77</ele>
        <time>2019-07-13T07:52:26Z</time>
      </trkpt>
      <trkpt lat="42.6658854727" lon="20.1008011680">
        <ele>1837.70</ele>
        <time>2019-07-13T07:52:36Z</time>
      </trkpt>
      <trkpt lat="42.6658169087" lon="20.1008471847">
        <ele>1840.58</ele>
        <time>2019-07-13T07:52:48Z</time>
      </trkpt>
      <trkpt lat="42.6658051740" lon="20.1009166706">
        <ele>1842.50</ele>
        <time>2019-07-13T07:52:59Z</time>
      </trkpt>
      <trkpt lat="42.6657306589" lon="20.1009253040">
        <ele>1843.95</ele>
        <time>2019-07-13T07:53:10Z</time>
      </trkpt>
      <trkpt lat="42.6657317486" lon="20.1009253878">
        <ele>1844.43</ele>
        <time>2019-07-13T07:53:12Z</time>
      </trkpt>
      <trkpt lat="42.6656749193" lon="20.1009494439">
        <ele>1846.35</ele>
        <time>2019-07-13T07:53:24Z</time>
      </trkpt>
      <trkpt lat="42.6656947006" lon="20.1010492723">
        <ele>1848.27</ele>
        <time>2019-07-13T07:53:37Z</time>
      </trkpt>
      <trkpt lat="42.6656901743" lon="20.1011464186">
        <ele>1850.68</ele>
        <time>2019-07-13T07:53:48Z</time>
      </trkpt>
      <trkpt lat="42.6656711474" lon="20.1012426428">
        <ele>1852.60</ele>
        <time>2019-07-13T07:54:01Z</time>
      </trkpt>
      <trkpt lat="42.6656165812" lon="20.1013464946">
        <ele>1855.48</ele>
        <time>2019-07-13T07:54:15Z</time>
      </trkpt>
      <trkpt lat="42.6655569021" lon="20.1013713051">
        <ele>1857.40</ele>
        <time>2019-07-13T07:54:24Z</time>
      </trkpt>
      <trkpt lat="42.6655144896" lon="20.1013912540">
        <ele>1858.85</ele>
        <time>2019-07-13T07:54:33Z</time>
      </trkpt>
      <trkpt lat="42.6654849015" lon="20.1014526095">
        <ele>1860.77</ele>
        <time>2019-07-13T07:54:43Z</time>
      </trkpt>
      <trkpt lat="42.6654347777" lon="20.1014743187">
        <ele>1862.69</ele>
        <time>2019-07-13T07:54:52Z</time>
      </trkpt>
      <trkpt lat="42.6654135715" lon="20.1015484147">
        <ele>1864.13</ele>
        <time>2019-07-13T07:55:02Z</time>
      </trkpt>
      <trkpt lat="42.6654028427" lon="20.1015624963">
        <ele>1864.13</ele>
        <time>2019-07-13T07:55:04Z</time>
      </trkpt>
      <trkpt lat="42.6653555688" lon="20.1015848760">
        <ele>1866.54</ele>
        <time>2019-07-13T07:55:14Z</time>
      </trkpt>
      <trkpt lat="42.6653061993" lon="20.1015483309">
        <ele>1867.50</ele>
        <time>2019-07-13T07:55:25Z</time>
      </trkpt>
      <trkpt lat="42.6652566623" lon="20.1015901566">
        <ele>1868.94</ele>
        <time>2019-07-13T07:55:34Z</time>
      </trkpt>
      <trkpt lat="42.6652278285" lon="20.1016512606">
        <ele>1870.86</ele>
        <time>2019-07-13T07:55:45Z</time>
      </trkpt>
      <trkpt lat="42.6651539840" lon="20.1016660966">
        <ele>1872.30</ele>
        <time>2019-07-13T07:55:56Z</time>
      </trkpt>
      <trkpt lat="42.6651238929" lon="20.1016871352">
        <ele>1874.23</ele>
        <time>2019-07-13T07:56:04Z</time>
      </trkpt>
      <trkpt lat="42.6650705840" lon="20.1017071679">
        <ele>1876.15</ele>
        <time>2019-07-13T07:56:12Z</time>
      </trkpt>
      <trkpt lat="42.6650455222" lon="20.1016971096">
        <ele>1876.63</ele>
        <time>2019-07-13T07:56:15Z</time>
      </trkpt>
      <trkpt lat="42.6650101505" lon="20.1017510053">
        <ele>1877.11</ele>
        <time>2019-07-13T07:56:25Z</time>
      </trkpt>
      <trkpt lat="42.6650038641" lon="20.1017572917">
        <ele>1878.07</ele>
        <time>2019-07-13T07:56:28Z</time>
      </trkpt>
      <trkpt lat="42.6649665646" lon="20.1018017158">
        <ele>1880.00</ele>
        <time>2019-07-13T07:56:38Z</time>
      </trkpt>
      <trkpt lat="42.6648844220" lon="20.1018821821">
        <ele>1881.44</ele>
        <time>2019-07-13T07:56:47Z</time>
      </trkpt>
      <trkpt lat="42.6648375671" lon="20.1018883847">
        <ele>1881.92</ele>
        <time>2019-07-13T07:56:52Z</time>
      </trkpt>
      <trkpt lat="42.6647769660" lon="20.1019227505">
        <ele>1882.88</ele>
        <time>2019-07-13T07:57:02Z</time>
      </trkpt>
      <trkpt lat="42.6647397503" lon="20.1019761432">
        <ele>1883.84</ele>
        <time>2019-07-13T07:57:13Z</time>
      </trkpt>
      <trkpt lat="42.6647386607" lon="20.1020002831">
        <ele>1883.84</ele>
        <time>2019-07-13T07:57:17Z</time>
      </trkpt>
      <trkpt lat="42.6647314522" lon="20.1020095032">
        <ele>1883.84</ele>
        <time>2019-07-13T07:57:18Z</time>
      </trkpt>
      <trkpt lat="42.6646994334" lon="20.1020052284">
        <ele>1884.80</ele>
        <time>2019-07-13T07:57:20Z</time>
      </trkpt>
      <trkpt lat="42.6646268461" lon="20.1020886283">
        <ele>1886.24</ele>
        <time>2019-07-13T07:57:31Z</time>
      </trkpt>
      <trkpt lat="42.6645644847" lon="20.1021172106">
        <ele>1887.21</ele>
        <time>2019-07-13T07:57:38Z</time>
      </trkpt>
      <trkpt lat="42.6645405125" lon="20.1021724474">
        <ele>1888.65</ele>
        <time>2019-07-13T07:57:47Z</time>
      </trkpt>
      <trkpt lat="42.6644820068" lon="20.1022395026">
        <ele>1890.57</ele>
        <time>2019-07-13T07:57:59Z</time>
      </trkpt>
      <trkpt lat="42.6644772291" lon="20.1022423524">
        <ele>1891.05</ele>
        <time>2019-07-13T07:58:00Z</time>
      </trkpt>
      <trkpt lat="42.6644038036" lon="20.1023034565">
        <ele>1892.01</ele>
        <time>2019-07-13T07:58:07Z</time>
      </trkpt>
      <trkpt lat="42.6643441245" lon="20.1022924762">
        <ele>1893.45</ele>
        <time>2019-07-13T07:58:12Z</time>
      </trkpt>
      <trkpt lat="42.6643736288" lon="20.1023526583">
        <ele>1894.90</ele>
        <time>2019-07-13T07:58:20Z</time>
      </trkpt>
      <trkpt lat="42.6643682644" lon="20.1023862697">
        <ele>1896.34</ele>
        <time>2019-07-13T07:58:31Z</time>
      </trkpt>
      <trkpt lat="42.6644097548" lon="20.1024472900">
        <ele>1898.26</ele>
        <time>2019-07-13T07:58:42Z</time>
      </trkpt>
      <trkpt lat="42.6644100063" lon="20.1024754532">
        <ele>1899.70</ele>
        <time>2019-07-13T07:58:51Z</time>
      </trkpt>
      <trkpt lat="42.6644469704" lon="20.1025186200">
        <ele>1901.63</ele>
        <time>2019-07-13T07:59:02Z</time>
      </trkpt>
      <trkpt lat="42.6645215694" lon="20.1025094837">
        <ele>1902.59</ele>
        <time>2019-07-13T07:59:06Z</time>
      </trkpt>
      <trkpt lat="42.6648995932" lon="20.1024723519">
        <ele>1903.55</ele>
        <time>2019-07-13T07:59:16Z</time>
      </trkpt>
      <trkpt lat="42.6651754417" lon="20.1024669874">
        <ele>1904.99</ele>
        <time>2019-07-13T07:59:25Z</time>
      </trkpt>
      <trkpt lat="42.6652434189" lon="20.1024924684">
        <ele>1906.43</ele>
        <time>2019-07-13T07:59:29Z</time>
      </trkpt>
      <trkpt lat="42.6652818080" lon="20.1025353000">
        <ele>1906.91</ele>
        <time>2019-07-13T07:59:34Z</time>
      </trkpt>
      <trkpt lat="42.6652951352" lon="20.1025461126">
        <ele>1907.39</ele>
        <time>2019-07-13T07:59:36Z</time>
      </trkpt>
      <trkpt lat="42.6652332768" lon="20.1024949830">
        <ele>1908.35</ele>
        <time>2019-07-13T07:59:48Z</time>
      </trkpt>
      <trkpt lat="42.6652212907" lon="20.1024965756">
        <ele>1909.80</ele>
        <time>2019-07-13T07:59:52Z</time>
      </trkpt>
      <trkpt lat="42.6651992463" lon="20.1024584379">
        <ele>1911.72</ele>
        <time>2019-07-13T08:00:01Z</time>
      </trkpt>
      <trkpt lat="42.6651474461" lon="20.1024985034">
        <ele>1914.12</ele>
        <time>2019-07-13T08:00:11Z</time>
      </trkpt>
      <trkpt lat="42.6651286706" lon="20.1025642175">
        <ele>1917.01</ele>
        <time>2019-07-13T08:00:21Z</time>
      </trkpt>
      <trkpt lat="42.6651086379" lon="20.1026048698">
        <ele>1920.85</ele>
        <time>2019-07-13T08:00:33Z</time>
      </trkpt>
      <trkpt lat="42.6650103182" lon="20.1026166882">
        <ele>1922.29</ele>
        <time>2019-07-13T08:00:44Z</time>
      </trkpt>
      <trkpt lat="42.6651230548" lon="20.1026080549">
        <ele>1923.25</ele>
        <time>2019-07-13T08:00:51Z</time>
      </trkpt>
      <trkpt lat="42.6652018446" lon="20.1026234776">
        <ele>1925.66</ele>
        <time>2019-07-13T08:01:03Z</time>
      </trkpt>
      <trkpt lat="42.6651958935" lon="20.1026558317">
        <ele>1927.58</ele>
        <time>2019-07-13T08:01:09Z</time>
      </trkpt>
      <trkpt lat="42.6650939696" lon="20.1026686560">
        <ele>1929.98</ele>
        <time>2019-07-13T08:01:18Z</time>
      </trkpt>
      <trkpt lat="42.6650736015" lon="20.1026813127">
        <ele>1931.43</ele>
        <time>2019-07-13T08:01:22Z</time>
      </trkpt>
      <trkpt lat="42.6650376432" lon="20.1026818994">
        <ele>1933.35</ele>
        <time>2019-07-13T08:01:26Z</time>
      </trkpt>
      <trkpt lat="42.6650093962" lon="20.1026728470">
        <ele>1933.35</ele>
        <time>2019-07-13T08:01:28Z</time>
      </trkpt>
      <trkpt lat="42.6649644691" lon="20.1026699133">
        <ele>1934.31</ele>
        <time>2019-07-13T08:01:31Z</time>
      </trkpt>
      <trkpt lat="42.6648834161" lon="20.1026945561">
        <ele>1938.16</ele>
        <time>2019-07-13T08:01:43Z</time>
      </trkpt>
      <trkpt lat="42.6648891158" lon="20.1027179416">
        <ele>1940.56</ele>
        <time>2019-07-13T08:01:53Z</time>
      </trkpt>
      <trkpt lat="42.6649023592" lon="20.1027414110">
        <ele>1942.48</ele>
        <time>2019-07-13T08:01:57Z</time>
      </trkpt>
      <trkpt lat="42.6648757048" lon="20.1027462725">
        <ele>1943.44</ele>
        <time>2019-07-13T08:02:02Z</time>
      </trkpt>
      <trkpt lat="42.6646926440" lon="20.1028190274">
        <ele>1945.36</ele>
        <time>2019-07-13T08:02:09Z</time>
      </trkpt>
      <trkpt lat="42.6644718647" lon="20.1028766949">
        <ele>1946.81</ele>
        <time>2019-07-13T08:02:13Z</time>
      </trkpt>
      <trkpt lat="42.6640552003" lon="20.1029487792">
        <ele>1949.69</ele>
        <time>2019-07-13T08:02:25Z</time>
      </trkpt>
      <trkpt lat="42.6640221756" lon="20.1029620226">
        <ele>1950.17</ele>
        <time>2019-07-13T08:02:27Z</time>
      </trkpt>
      <trkpt lat="42.6637930144" lon="20.1030399743">
        <ele>1952.57</ele>
        <time>2019-07-13T08:02:39Z</time>
      </trkpt>
      <trkpt lat="42.6637392864" lon="20.1030325983">
        <ele>1953.06</ele>
        <time>2019-07-13T08:02:43Z</time>
      </trkpt>
      <trkpt lat="42.6634431537" lon="20.1031154115">
        <ele>1954.50</ele>
        <time>2019-07-13T08:02:51Z</time>
      </trkpt>
      <trkpt lat="42.6634033397" lon="20.1031325106">
        <ele>1955.46</ele>
        <time>2019-07-13T08:02:58Z</time>
      </trkpt>
      <trkpt lat="42.6633072831" lon="20.1031258050">
        <ele>1956.90</ele>
        <time>2019-07-13T08:03:10Z</time>
      </trkpt>
      <trkpt lat="42.6632716600" lon="20.1031361986">
        <ele>1958.34</ele>
        <time>2019-07-13T08:03:15Z</time>
      </trkpt>
      <trkpt lat="42.6632263977" lon="20.1031592488">
        <ele>1958.82</ele>
        <time>2019-07-13T08:03:20Z</time>
      </trkpt>
      <trkpt lat="42.6631326880" lon="20.1032065228">
        <ele>1960.75</ele>
        <time>2019-07-13T08:03:33Z</time>
      </trkpt>
      <trkpt lat="42.6631282456" lon="20.1032092050">
        <ele>1961.23</ele>
        <time>2019-07-13T08:03:34Z</time>
      </trkpt>
      <trkpt lat="42.6631144155" lon="20.1032079477">
        <ele>1961.23</ele>
        <time>2019-07-13T08:03:35Z</time>
      </trkpt>
      <trkpt lat="42.6630375534" lon="20.1032178383">
        <ele>1962.19</ele>
        <time>2019-07-13T08:03:42Z</time>
      </trkpt>
      <trkpt lat="42.6629808918" lon="20.1032280643">
        <ele>1964.11</ele>
        <time>2019-07-13T08:03:51Z</time>
      </trkpt>
      <trkpt lat="42.6629511360" lon="20.1032477617">
        <ele>1965.55</ele>
        <time>2019-07-13T08:03:57Z</time>
      </trkpt>
      <trkpt lat="42.6629135851" lon="20.1032507792">
        <ele>1965.55</ele>
        <time>2019-07-13T08:04:00Z</time>
      </trkpt>
      <trkpt lat="42.6628767047" lon="20.1033020765">
        <ele>1967.96</ele>
        <time>2019-07-13T08:04:10Z</time>
      </trkpt>
      <trkpt lat="42.6627432648" lon="20.1033085305">
        <ele>1970.36</ele>
        <time>2019-07-13T08:04:22Z</time>
      </trkpt>
      <trkpt lat="42.6627403311" lon="20.1033131406">
        <ele>1970.84</ele>
        <time>2019-07-13T08:04:23Z</time>
      </trkpt>
      <trkpt lat="42.6626834180" lon="20.1033075247">
        <ele>1971.80</ele>
        <time>2019-07-13T08:04:30Z</time>
      </trkpt>
      <trkpt lat="42.6626602001" lon="20.1033185050">
        <ele>1972.76</ele>
        <time>2019-07-13T08:04:35Z</time>
      </trkpt>
      <trkpt lat="42.6626311988" lon="20.1033584867">
        <ele>1974.20</ele>
        <time>2019-07-13T08:04:41Z</time>
      </trkpt>
      <trkpt lat="42.6625920553" lon="20.1033621747">
        <ele>1974.69</ele>
        <time>2019-07-13T08:04:44Z</time>
      </trkpt>
      <trkpt lat="42.6625863556" lon="20.1033832971">
        <ele>1974.69</ele>
        <time>2019-07-13T08:04:47Z</time>
      </trkpt>
      <trkpt lat="42.6625273470" lon="20.1033925172">
        <ele>1977.09</ele>
        <time>2019-07-13T08:04:55Z</time>
      </trkpt>
      <trkpt lat="42.6625575218" lon="20.1034270506">
        <ele>1978.05</ele>
        <time>2019-07-13T08:05:02Z</time>
      </trkpt>
      <trkpt lat="42.6616735663" lon="20.1030650362">
        <ele>1979.49</ele>
        <time>2019-07-13T08:05:12Z</time>
      </trkpt>
      <trkpt lat="42.6617864706" lon="20.1031784434">
        <ele>1980.45</ele>
        <time>2019-07-13T08:05:16Z</time>
      </trkpt>
      <trkpt lat="42.6618808508" lon="20.1032477617">
        <ele>1981.41</ele>
        <time>2019-07-13T08:05:21Z</time>
      </trkpt>
      <trkpt lat="42.6618868858" lon="20.1032520365">
        <ele>1982.38</ele>
        <time>2019-07-13T08:05:25Z</time>
      </trkpt>
      <trkpt lat="42.6619145460" lon="20.1032687165">
        <ele>1983.34</ele>
        <time>2019-07-13T08:05:29Z</time>
      </trkpt>
      <trkpt lat="42.6619334891" lon="20.1032977179">
        <ele>1983.34</ele>
        <time>2019-07-13T08:05:31Z</time>
      </trkpt>
      <trkpt lat="42.6619681064" lon="20.1033797767">
        <ele>1984.78</ele>
        <time>2019-07-13T08:05:40Z</time>
      </trkpt>
      <trkpt lat="42.6619568747" lon="20.1033802796">
        <ele>1985.26</ele>
        <time>2019-07-13T08:05:42Z</time>
      </trkpt>
      <trkpt lat="42.6619672682" lon="20.1033885777">
        <ele>1985.26</ele>
        <time>2019-07-13T08:05:43Z</time>
      </trkpt>
      <trkpt lat="42.6619919110" lon="20.1034238655">
        <ele>1986.70</ele>
        <time>2019-07-13T08:05:48Z</time>
      </trkpt>
      <trkpt lat="42.6620725449" lon="20.1034925971">
        <ele>1988.14</ele>
        <time>2019-07-13T08:05:55Z</time>
      </trkpt>
      <trkpt lat="42.6620636601" lon="20.1034795213">
        <ele>1989.10</ele>
        <time>2019-07-13T08:06:00Z</time>
      </trkpt>
      <trkpt lat="42.6620704494" lon="20.1034961175">
        <ele>1989.59</ele>
        <time>2019-07-13T08:06:03Z</time>
      </trkpt>
      <trkpt lat="42.6620653365" lon="20.1035150606">
        <ele>1990.07</ele>
        <time>2019-07-13T08:06:06Z</time>
      </trkpt>
      <trkpt lat="42.6620728802" lon="20.1035516057">
        <ele>1991.03</ele>
        <time>2019-07-13T08:06:10Z</time>
      </trkpt>
      <trkpt lat="42.6620212477" lon="20.1035630889">
        <ele>1991.99</ele>
        <time>2019-07-13T08:06:15Z</time>
      </trkpt>
      <trkpt lat="42.6620415319" lon="20.1035867259">
        <ele>1991.99</ele>
        <time>2019-07-13T08:06:16Z</time>
      </trkpt>
      <trkpt lat="42.6621195674" lon="20.1036873087">
        <ele>1993.43</ele>
        <time>2019-07-13T08:06:23Z</time>
      </trkpt>
      <trkpt lat="42.6621574536" lon="20.1037451439">
        <ele>1994.39</ele>
        <time>2019-07-13T08:06:29Z</time>
      </trkpt>
      <trkpt lat="42.6621817611" lon="20.1038383506">
        <ele>1996.32</ele>
        <time>2019-07-13T08:06:37Z</time>
      </trkpt>
      <trkpt lat="42.6621651649" lon="20.1038512588">
        <ele>1996.80</ele>
        <time>2019-07-13T08:06:39Z</time>
      </trkpt>
      <trkpt lat="42.6621592976" lon="20.1038508397">
        <ele>1996.80</ele>
        <time>2019-07-13T08:06:40Z</time>
      </trkpt>
      <trkpt lat="42.6622155402" lon="20.1039360836">
        <ele>1997.76</ele>
        <time>2019-07-13T08:06:47Z</time>
      </trkpt>
      <trkpt lat="42.6621858682" lon="20.1040416956">
        <ele>1999.68</ele>
        <time>2019-07-13T08:06:57Z</time>
      </trkpt>
      <trkpt lat="42.6621217467" lon="20.1040628180">
        <ele>2001.60</ele>
        <time>2019-07-13T08:07:08Z</time>
      </trkpt>
      <trkpt lat="42.6621134486" lon="20.1040655840">
        <ele>2002.08</ele>
        <time>2019-07-13T08:07:10Z</time>
      </trkpt>
      <trkpt lat="42.6620850340" lon="20.1040589623">
        <ele>2002.08</ele>
        <time>2019-07-13T08:07:11Z</time>
      </trkpt>
      <trkpt lat="42.6620753109" lon="20.1041156240">
        <ele>2004.01</ele>
        <time>2019-07-13T08:07:20Z</time>
      </trkpt>
      <trkpt lat="42.6620751433" lon="20.1042023767">
        <ele>2006.41</ele>
        <time>2019-07-13T08:07:33Z</time>
      </trkpt>
      <trkpt lat="42.6620487403" lon="20.1042436995">
        <ele>2007.85</ele>
        <time>2019-07-13T08:07:42Z</time>
      </trkpt>
      <trkpt lat="42.6620012987" lon="20.1042938232">
        <ele>2010.25</ele>
        <time>2019-07-13T08:07:52Z</time>
      </trkpt>
      <trkpt lat="42.6619864628" lon="20.1043136884">
        <ele>2010.25</ele>
        <time>2019-07-13T08:07:54Z</time>
      </trkpt>
      <trkpt lat="42.6619602274" lon="20.1043400913">
        <ele>2010.73</ele>
        <time>2019-07-13T08:07:57Z</time>
      </trkpt>
      <trkpt lat="42.6619448885" lon="20.1043611299">
        <ele>2011.22</ele>
        <time>2019-07-13T08:08:00Z</time>
      </trkpt>
      <trkpt lat="42.6619371772" lon="20.1043713558">
        <ele>2011.22</ele>
        <time>2019-07-13T08:08:01Z</time>
      </trkpt>
      <trkpt lat="42.6618023962" lon="20.1044616289">
        <ele>2012.66</ele>
        <time>2019-07-13T08:08:12Z</time>
      </trkpt>
      <trkpt lat="42.6617925055" lon="20.1044787280">
        <ele>2013.14</ele>
        <time>2019-07-13T08:08:14Z</time>
      </trkpt>
      <trkpt lat="42.6617850456" lon="20.1045223977">
        <ele>2014.58</ele>
        <time>2019-07-13T08:08:20Z</time>
      </trkpt>
      <trkpt lat="42.6617786754" lon="20.1045419276">
        <ele>2015.06</ele>
        <time>2019-07-13T08:08:24Z</time>
      </trkpt>
      <trkpt lat="42.6618005522" lon="20.1045825798">
        <ele>2015.54</ele>
        <time>2019-07-13T08:08:28Z</time>
      </trkpt>
      <trkpt lat="42.6617987081" lon="20.1046111621">
        <ele>2016.98</ele>
        <time>2019-07-13T08:08:34Z</time>
      </trkpt>
      <trkpt lat="42.6617824472" lon="20.1046054624">
        <ele>2017.94</ele>
        <time>2019-07-13T08:08:35Z</time>
      </trkpt>
      <trkpt lat="42.6617633365" lon="20.1045971643">
        <ele>2017.46</ele>
        <time>2019-07-13T08:08:37Z</time>
      </trkpt>
      <trkpt lat="42.6617412083" lon="20.1046316139">
        <ele>2019.39</ele>
        <time>2019-07-13T08:08:45Z</time>
      </trkpt>
      <trkpt lat="42.6617008913" lon="20.1046389062">
        <ele>2019.87</ele>
        <time>2019-07-13T08:08:52Z</time>
      </trkpt>
      <trkpt lat="42.6616551261" lon="20.1046689134">
        <ele>2022.27</ele>
        <time>2019-07-13T08:09:03Z</time>
      </trkpt>
      <trkpt lat="42.6616404578" lon="20.1046766248">
        <ele>2022.75</ele>
        <time>2019-07-13T08:09:05Z</time>
      </trkpt>
      <trkpt lat="42.6615654398" lon="20.1047537383">
        <ele>2024.19</ele>
        <time>2019-07-13T08:09:18Z</time>
      </trkpt>
      <trkpt lat="42.6615330018" lon="20.1048320252">
        <ele>2026.12</ele>
        <time>2019-07-13T08:09:29Z</time>
      </trkpt>
      <trkpt lat="42.6615288947" lon="20.1049114857">
        <ele>2029.00</ele>
        <time>2019-07-13T08:09:40Z</time>
      </trkpt>
      <trkpt lat="42.6614090335" lon="20.1049383078">
        <ele>2030.44</ele>
        <time>2019-07-13T08:09:53Z</time>
      </trkpt>
      <trkpt lat="42.6614063513" lon="20.1049797982">
        <ele>2032.36</ele>
        <time>2019-07-13T08:10:03Z</time>
      </trkpt>
      <trkpt lat="42.6613433193" lon="20.1049642917">
        <ele>2033.81</ele>
        <time>2019-07-13T08:10:08Z</time>
      </trkpt>
      <trkpt lat="42.6612156630" lon="20.1048981585">
        <ele>2035.25</ele>
        <time>2019-07-13T08:10:21Z</time>
      </trkpt>
      <trkpt lat="42.6611175109" lon="20.1048738509">
        <ele>2037.17</ele>
        <time>2019-07-13T08:10:31Z</time>
      </trkpt>
      <trkpt lat="42.6610207837" lon="20.1048353780">
        <ele>2039.09</ele>
        <time>2019-07-13T08:10:44Z</time>
      </trkpt>
      <trkpt lat="42.6609554049" lon="20.1048635412">
        <ele>2041.50</ele>
        <time>2019-07-13T08:10:56Z</time>
      </trkpt>
      <trkpt lat="42.6608964801" lon="20.1049060374">
        <ele>2041.98</ele>
        <time>2019-07-13T08:11:09Z</time>
      </trkpt>
      <trkpt lat="42.6608029380" lon="20.1049477793">
        <ele>2042.94</ele>
        <time>2019-07-13T08:11:23Z</time>
      </trkpt>
      <trkpt lat="42.6607963163" lon="20.1049587596">
        <ele>2042.94</ele>
        <time>2019-07-13T08:11:26Z</time>
      </trkpt>
      <trkpt lat="42.6607821509" lon="20.1050160080">
        <ele>2041.50</ele>
        <time>2019-07-13T08:11:32Z</time>
      </trkpt>
      <trkpt lat="42.6607683208" lon="20.1051129866">
        <ele>2041.50</ele>
        <time>2019-07-13T08:11:42Z</time>
      </trkpt>
      <trkpt lat="42.6606312767" lon="20.1051277388">
        <ele>2041.50</ele>
        <time>2019-07-13T08:11:49Z</time>
      </trkpt>
      <trkpt lat="42.6606125012" lon="20.1051360369">
        <ele>2041.50</ele>
        <time>2019-07-13T08:11:50Z</time>
      </trkpt>
      <trkpt lat="42.6603885368" lon="20.1051564887">
        <ele>2041.02</ele>
        <time>2019-07-13T08:12:00Z</time>
      </trkpt>
      <trkpt lat="42.6603832562" lon="20.1051799580">
        <ele>2041.02</ele>
        <time>2019-07-13T08:12:02Z</time>
      </trkpt>
      <trkpt lat="42.6603853516" lon="20.1052302495">
        <ele>2041.02</ele>
        <time>2019-07-13T08:12:05Z</time>
      </trkpt>
      <trkpt lat="42.6603691746" lon="20.1052698120">
        <ele>2042.46</ele>
        <time>2019-07-13T08:12:08Z</time>
      </trkpt>
      <trkpt lat="42.6604259200" lon="20.1053807046">
        <ele>2042.94</ele>
        <time>2019-07-13T08:12:15Z</time>
      </trkpt>
      <trkpt lat="42.6604288537" lon="20.1055319142">
        <ele>2042.46</ele>
        <time>2019-07-13T08:12:24Z</time>
      </trkpt>
      <trkpt lat="42.6603995170" lon="20.1056579780">
        <ele>2041.02</ele>
        <time>2019-07-13T08:12:33Z</time>
      </trkpt>
      <trkpt lat="42.6603878662" lon="20.1056994684">
        <ele>2041.02</ele>
        <time>2019-07-13T08:12:36Z</time>
      </trkpt>
      <trkpt lat="42.6603689231" lon="20.1057448983">
        <ele>2041.02</ele>
        <time>2019-07-13T08:12:38Z</time>
      </trkpt>
      <trkpt lat="42.6604112517" lon="20.1058728062">
        <ele>2041.02</ele>
        <time>2019-07-13T08:12:50Z</time>
      </trkpt>
      <trkpt lat="42.6602496486" lon="20.1058505103">
        <ele>2043.42</ele>
        <time>2019-07-13T08:13:02Z</time>
      </trkpt>
      <trkpt lat="42.6602218207" lon="20.1058506779">
        <ele>2043.42</ele>
        <time>2019-07-13T08:13:04Z</time>
      </trkpt>
      <trkpt lat="42.6599540189" lon="20.1058449782">
        <ele>2044.86</ele>
        <time>2019-07-13T08:13:17Z</time>
      </trkpt>
      <trkpt lat="42.6599324774" lon="20.1058917493">
        <ele>2045.82</ele>
        <time>2019-07-13T08:13:23Z</time>
      </trkpt>
      <trkpt lat="42.6599055715" lon="20.1059664320">
        <ele>2047.26</ele>
        <time>2019-07-13T08:13:31Z</time>
      </trkpt>
      <trkpt lat="42.6598220877" lon="20.1059873868">
        <ele>2048.23</ele>
        <time>2019-07-13T08:13:36Z</time>
      </trkpt>
      <trkpt lat="42.6595806051" lon="20.1060071681">
        <ele>2049.67</ele>
        <time>2019-07-13T08:13:48Z</time>
      </trkpt>
      <trkpt lat="42.6595422160" lon="20.1060144603">
        <ele>2050.15</ele>
        <time>2019-07-13T08:13:51Z</time>
      </trkpt>
      <trkpt lat="42.6595146395" lon="20.1060342416">
        <ele>2051.11</ele>
        <time>2019-07-13T08:13:55Z</time>
      </trkpt>
      <trkpt lat="42.6593023259" lon="20.1060474012">
        <ele>2053.03</ele>
        <time>2019-07-13T08:14:10Z</time>
      </trkpt>
      <trkpt lat="42.6593045890" lon="20.1060673501">
        <ele>2053.99</ele>
        <time>2019-07-13T08:14:13Z</time>
      </trkpt>
      <trkpt lat="42.6592867356" lon="20.1060841139">
        <ele>2054.47</ele>
        <time>2019-07-13T08:14:16Z</time>
      </trkpt>
      <trkpt lat="42.6593493484" lon="20.1062046457">
        <ele>2055.44</ele>
        <time>2019-07-13T08:14:23Z</time>
      </trkpt>
      <trkpt lat="42.6593568921" lon="20.1062366646">
        <ele>2055.44</ele>
        <time>2019-07-13T08:14:25Z</time>
      </trkpt>
      <trkpt lat="42.6593803614" lon="20.1062889677">
        <ele>2055.92</ele>
        <time>2019-07-13T08:14:29Z</time>
      </trkpt>
      <trkpt lat="42.6594436448" lon="20.1063887961">
        <ele>2057.36</ele>
        <time>2019-07-13T08:14:37Z</time>
      </trkpt>
      <trkpt lat="42.6594772562" lon="20.1064396743">
        <ele>2057.36</ele>
        <time>2019-07-13T08:14:41Z</time>
      </trkpt>
      <trkpt lat="42.6595019829" lon="20.1065088250">
        <ele>2057.36</ele>
        <time>2019-07-13T08:14:44Z</time>
      </trkpt>
      <trkpt lat="42.6595187467" lon="20.1065393351">
        <ele>2057.36</ele>
        <time>2019-07-13T08:14:46Z</time>
      </trkpt>
      <trkpt lat="42.6595557947" lon="20.1066959929">
        <ele>2057.84</ele>
        <time>2019-07-13T08:14:56Z</time>
      </trkpt>
      <trkpt lat="42.6595546212" lon="20.1067811530">
        <ele>2057.84</ele>
        <time>2019-07-13T08:15:01Z</time>
      </trkpt>
      <trkpt lat="42.6595441438" lon="20.1068185363">
        <ele>2058.32</ele>
        <time>2019-07-13T08:15:03Z</time>
      </trkpt>
      <trkpt lat="42.6595488377" lon="20.1068463642">
        <ele>2058.32</ele>
        <time>2019-07-13T08:15:05Z</time>
      </trkpt>
      <trkpt lat="42.6595495921" lon="20.1068664808">
        <ele>2058.32</ele>
        <time>2019-07-13T08:15:06Z</time>
      </trkpt>
      <trkpt lat="42.6596190780" lon="20.1070242282">
        <ele>2059.76</ele>
        <time>2019-07-13T08:15:14Z</time>
      </trkpt>
      <trkpt lat="42.6598023064" lon="20.1071696542">
        <ele>2062.65</ele>
        <time>2019-07-13T08:15:24Z</time>
      </trkpt>
      <trkpt lat="42.6598469820" lon="20.1071994100">
        <ele>2064.09</ele>
        <time>2019-07-13T08:15:30Z</time>
      </trkpt>
      <trkpt lat="42.6598598901" lon="20.1072112285">
        <ele>2064.09</ele>
        <time>2019-07-13T08:15:31Z</time>
      </trkpt>
      <trkpt lat="42.6599328965" lon="20.1073367056">
        <ele>2066.01</ele>
        <time>2019-07-13T08:15:41Z</time>
      </trkpt>
      <trkpt lat="42.6600165479" lon="20.1074385457">
        <ele>2066.97</ele>
        <time>2019-07-13T08:15:46Z</time>
      </trkpt>
      <trkpt lat="42.6600450464" lon="20.1075184252">
        <ele>2066.97</ele>
        <time>2019-07-13T08:15:51Z</time>
      </trkpt>
      <trkpt lat="42.6600281987" lon="20.1075315848">
        <ele>2067.93</ele>
        <time>2019-07-13T08:15:52Z</time>
      </trkpt>
      <trkpt lat="42.6600530930" lon="20.1075531263">
        <ele>2067.93</ele>
        <time>2019-07-13T08:15:53Z</time>
      </trkpt>
      <trkpt lat="42.6600528415" lon="20.1075741649">
        <ele>2067.93</ele>
        <time>2019-07-13T08:15:54Z</time>
      </trkpt>
      <trkpt lat="42.6601529215" lon="20.1077273022">
        <ele>2069.86</ele>
        <time>2019-07-13T08:16:04Z</time>
      </trkpt>
      <trkpt lat="42.6601462997" lon="20.1077345945">
        <ele>2070.34</ele>
        <time>2019-07-13T08:16:05Z</time>
      </trkpt>
      <trkpt lat="42.6601576153" lon="20.1077485923">
        <ele>2070.34</ele>
        <time>2019-07-13T08:16:06Z</time>
      </trkpt>
      <trkpt lat="42.6601514965" lon="20.1077640150">
        <ele>2070.82</ele>
        <time>2019-07-13T08:16:08Z</time>
      </trkpt>
      <trkpt lat="42.6601468027" lon="20.1077673677">
        <ele>2070.82</ele>
        <time>2019-07-13T08:16:09Z</time>
      </trkpt>
      <trkpt lat="42.6600167155" lon="20.1077571418">
        <ele>2072.26</ele>
        <time>2019-07-13T08:16:16Z</time>
      </trkpt>
      <trkpt lat="42.6600085013" lon="20.1077629253">
        <ele>2072.26</ele>
        <time>2019-07-13T08:16:17Z</time>
      </trkpt>
      <trkpt lat="42.6600555237" lon="20.1078318246">
        <ele>2072.26</ele>
        <time>2019-07-13T08:16:21Z</time>
      </trkpt>
      <trkpt lat="42.6600430347" lon="20.1078395359">
        <ele>2072.26</ele>
        <time>2019-07-13T08:16:22Z</time>
      </trkpt>
      <trkpt lat="42.6599894743" lon="20.1078522764">
        <ele>2073.70</ele>
        <time>2019-07-13T08:16:27Z</time>
      </trkpt>
      <trkpt lat="42.6598223392" lon="20.1078597363">
        <ele>2075.14</ele>
        <time>2019-07-13T08:16:37Z</time>
      </trkpt>
      <trkpt lat="42.6597581338" lon="20.1079317369">
        <ele>2076.59</ele>
        <time>2019-07-13T08:16:45Z</time>
      </trkpt>
      <trkpt lat="42.6597711258" lon="20.1079867221">
        <ele>2077.07</ele>
        <time>2019-07-13T08:16:49Z</time>
      </trkpt>
      <trkpt lat="42.6597628277" lon="20.1080056652">
        <ele>2077.55</ele>
        <time>2019-07-13T08:16:51Z</time>
      </trkpt>
      <trkpt lat="42.6597887278" lon="20.1080448087">
        <ele>2077.55</ele>
        <time>2019-07-13T08:16:53Z</time>
      </trkpt>
      <trkpt lat="42.6597996242" lon="20.1080605667">
        <ele>2078.03</ele>
        <time>2019-07-13T08:16:54Z</time>
      </trkpt>
      <trkpt lat="42.6598408632" lon="20.1081515942">
        <ele>2079.47</ele>
        <time>2019-07-13T08:17:00Z</time>
      </trkpt>
      <trkpt lat="42.6598744746" lon="20.1081896480">
        <ele>2079.47</ele>
        <time>2019-07-13T08:17:02Z</time>
      </trkpt>
      <trkpt lat="42.6598825213" lon="20.1082281210">
        <ele>2079.95</ele>
        <time>2019-07-13T08:17:05Z</time>
      </trkpt>
      <trkpt lat="42.6598745584" lon="20.1082979422">
        <ele>2081.39</ele>
        <time>2019-07-13T08:17:12Z</time>
      </trkpt>
      <trkpt lat="42.6598657575" lon="20.1083484851">
        <ele>2082.83</ele>
        <time>2019-07-13T08:17:18Z</time>
      </trkpt>
      <trkpt lat="42.6597424597" lon="20.1083523408">
        <ele>2084.76</ele>
        <time>2019-07-13T08:17:28Z</time>
      </trkpt>
      <trkpt lat="42.6596432179" lon="20.1083993632">
        <ele>2087.16</ele>
        <time>2019-07-13T08:17:39Z</time>
      </trkpt>
      <trkpt lat="42.6595327444" lon="20.1084197313">
        <ele>2089.56</ele>
        <time>2019-07-13T08:17:50Z</time>
      </trkpt>
      <trkpt lat="42.6595465746" lon="20.1085146144">
        <ele>2091.49</ele>
        <time>2019-07-13T08:18:02Z</time>
      </trkpt>
      <trkpt lat="42.6595845446" lon="20.1085715275">
        <ele>2092.45</ele>
        <time>2019-07-13T08:18:07Z</time>
      </trkpt>
      <trkpt lat="42.6596702076" lon="20.1086629741">
        <ele>2092.93</ele>
        <time>2019-07-13T08:18:13Z</time>
      </trkpt>
      <trkpt lat="42.6597141288" lon="20.1087597013">
        <ele>2094.85</ele>
        <time>2019-07-13T08:18:24Z</time>
      </trkpt>
      <trkpt lat="42.6597397774" lon="20.1088363118">
        <ele>2094.85</ele>
        <time>2019-07-13T08:18:31Z</time>
      </trkpt>
      <trkpt lat="42.6597229298" lon="20.1088961586">
        <ele>2096.77</ele>
        <time>2019-07-13T08:18:41Z</time>
      </trkpt>
      <trkpt lat="42.6597090159" lon="20.1089048758">
        <ele>2097.25</ele>
        <time>2019-07-13T08:18:42Z</time>
      </trkpt>
      <trkpt lat="42.6597016398" lon="20.1089128386">
        <ele>2097.25</ele>
        <time>2019-07-13T08:18:44Z</time>
      </trkpt>
      <trkpt lat="42.6597196609" lon="20.1090787165">
        <ele>2097.25</ele>
        <time>2019-07-13T08:18:54Z</time>
      </trkpt>
      <trkpt lat="42.6590628549" lon="20.1088849269">
        <ele>2096.77</ele>
        <time>2019-07-13T08:19:03Z</time>
      </trkpt>
      <trkpt lat="42.6590526290" lon="20.1088681631">
        <ele>2096.77</ele>
        <time>2019-07-13T08:19:12Z</time>
      </trkpt>
      <trkpt lat="42.6590224542" lon="20.1088659838">
        <ele>2096.77</ele>
        <time>2019-07-13T08:19:16Z</time>
      </trkpt>
      <trkpt lat="42.6590350270" lon="20.1088910457">
        <ele>2095.81</ele>
        <time>2019-07-13T08:19:19Z</time>
      </trkpt>
      <trkpt lat="42.6590666268" lon="20.1088906266">
        <ele>2095.81</ele>
        <time>2019-07-13T08:19:36Z</time>
      </trkpt>
      <trkpt lat="42.6590458397" lon="20.1088644750">
        <ele>2095.81</ele>
        <time>2019-07-13T08:19:50Z</time>
      </trkpt>
      <trkpt lat="42.6592403837" lon="20.1089113299">
        <ele>2095.81</ele>
        <time>2019-07-13T08:20:04Z</time>
      </trkpt>
      <trkpt lat="42.6592548005" lon="20.1089096535">
        <ele>2095.81</ele>
        <time>2019-07-13T08:20:27Z</time>
      </trkpt>
      <trkpt lat="42.6593529526" lon="20.1089997590">
        <ele>2096.29</ele>
        <time>2019-07-13T08:20:58Z</time>
      </trkpt>
      <trkpt lat="42.6594314910" lon="20.1090545766">
        <ele>2096.29</ele>
        <time>2019-07-13T08:21:24Z</time>
      </trkpt>
      <trkpt lat="42.6595135499" lon="20.1090792194">
        <ele>2096.29</ele>
        <time>2019-07-13T08:21:51Z</time>
      </trkpt>
      <trkpt lat="42.6595495082" lon="20.1090816502">
        <ele>2096.29</ele>
        <time>2019-07-13T08:22:10Z</time>
      </trkpt>
      <trkpt lat="42.6594801899" lon="20.1090762857">
        <ele>2096.29</ele>
        <time>2019-07-13T08:22:29Z</time>
      </trkpt>
      <trkpt lat="42.6595415454" lon="20.1091045327">
        <ele>2097.73</ele>
        <time>2019-07-13T08:22:51Z</time>
      </trkpt>
      <trkpt lat="42.6594684552" lon="20.1090876851">
        <ele>2097.73</ele>
        <time>2019-07-13T08:23:12Z</time>
      </trkpt>
      <trkpt lat="42.6594544575" lon="20.1090513915">
        <ele>2097.73</ele>
        <time>2019-07-13T08:23:39Z</time>
      </trkpt>
      <trkpt lat="42.6593835466" lon="20.1090027764">
        <ele>2097.73</ele>
        <time>2019-07-13T08:24:11Z</time>
      </trkpt>
      <trkpt lat="42.6593759190" lon="20.1090155169">
        <ele>2098.70</ele>
        <time>2019-07-13T08:24:29Z</time>
      </trkpt>
      <trkpt lat="42.6593736559" lon="20.1089995913">
        <ele>2098.70</ele>
        <time>2019-07-13T08:24:52Z</time>
      </trkpt>
      <trkpt lat="42.6593825407" lon="20.1090276707">
        <ele>2098.70</ele>
        <time>2019-07-13T08:25:28Z</time>
      </trkpt>
      <trkpt lat="42.6592858136" lon="20.1089561731">
        <ele>2098.70</ele>
        <time>2019-07-13T08:26:00Z</time>
      </trkpt>
      <trkpt lat="42.6593862288" lon="20.1090584323">
        <ele>2099.18</ele>
        <time>2019-07-13T08:26:30Z</time>
      </trkpt>
      <trkpt lat="42.6593988016" lon="20.1090599410">
        <ele>2099.18</ele>
        <time>2019-07-13T08:26:58Z</time>
      </trkpt>
      <trkpt lat="42.6593920123" lon="20.1090182830">
        <ele>2099.18</ele>
        <time>2019-07-13T08:27:25Z</time>
      </trkpt>
      <trkpt lat="42.6593760028" lon="20.1090192888">
        <ele>2099.18</ele>
        <time>2019-07-13T08:28:02Z</time>
      </trkpt>
      <trkpt lat="42.6593605801" lon="20.1090129185">
        <ele>2099.18</ele>
        <time>2019-07-13T08:28:37Z</time>
      </trkpt>
      <trkpt lat="42.6593345962" lon="20.1090206299">
        <ele>2098.21</ele>
        <time>2019-07-13T08:29:07Z</time>
      </trkpt>
      <trkpt lat="42.6593151502" lon="20.1090063807">
        <ele>2098.21</ele>
        <time>2019-07-13T08:29:33Z</time>
      </trkpt>
      <trkpt lat="42.6593222748" lon="20.1090027764">
        <ele>2097.73</ele>
        <time>2019-07-13T08:29:58Z</time>
      </trkpt>
      <trkpt lat="42.6592976321" lon="20.1089893654">
        <ele>2098.21</ele>
        <time>2019-07-13T08:30:25Z</time>
      </trkpt>
      <trkpt lat="42.6592842210" lon="20.1089710928">
        <ele>2098.21</ele>
        <time>2019-07-13T08:30:51Z</time>
      </trkpt>
      <trkpt lat="42.6593412179" lon="20.1089970767">
        <ele>2097.73</ele>
        <time>2019-07-13T08:31:27Z</time>
      </trkpt>
      <trkpt lat="42.6593381166" lon="20.1090126671">
        <ele>2097.73</ele>
        <time>2019-07-13T08:32:02Z</time>
      </trkpt>
      <trkpt lat="42.6593401283" lon="20.1090084761">
        <ele>2097.73</ele>
        <time>2019-07-13T08:32:03Z</time>
      </trkpt>
      <trkpt lat="42.6593102049" lon="20.1089579333">
        <ele>2097.73</ele>
        <time>2019-07-13T08:32:21Z</time>
      </trkpt>
      <trkpt lat="42.6593076903" lon="20.1089748647">
        <ele>2097.73</ele>
        <time>2019-07-13T08:32:46Z</time>
      </trkpt>
      <trkpt lat="42.6593407989" lon="20.1090148464">
        <ele>2097.73</ele>
        <time>2019-07-13T08:33:04Z</time>
      </trkpt>
      <trkpt lat="42.6593148988" lon="20.1089824084">
        <ele>2097.73</ele>
        <time>2019-07-13T08:33:19Z</time>
      </trkpt>
      <trkpt lat="42.6593041699" lon="20.1089673210">
        <ele>2098.70</ele>
        <time>2019-07-13T08:33:30Z</time>
      </trkpt>
      <trkpt lat="42.6593002304" lon="20.1089833304">
        <ele>2099.66</ele>
        <time>2019-07-13T08:33:46Z</time>
      </trkpt>
      <trkpt lat="42.6593076065" lon="20.1089848392">
        <ele>2099.66</ele>
        <time>2019-07-13T08:34:02Z</time>
      </trkpt>
      <trkpt lat="42.6592788566" lon="20.1090275031">
        <ele>2099.66</ele>
        <time>2019-07-13T08:34:09Z</time>
      </trkpt>
      <trkpt lat="42.6591843925" lon="20.1091999188">
        <ele>2097.25</ele>
        <time>2019-07-13T08:34:25Z</time>
      </trkpt>
      <trkpt lat="42.6591424830" lon="20.1092489529">
        <ele>2097.25</ele>
        <time>2019-07-13T08:34:31Z</time>
      </trkpt>
      <trkpt lat="42.6590012480" lon="20.1092513837">
        <ele>2096.77</ele>
        <time>2019-07-13T08:34:45Z</time>
      </trkpt>
      <trkpt lat="42.6589725818" lon="20.1092572510">
        <ele>2097.73</ele>
        <time>2019-07-13T08:34:49Z</time>
      </trkpt>
      <trkpt lat="42.6589460950" lon="20.1092579216">
        <ele>2098.70</ele>
        <time>2019-07-13T08:34:53Z</time>
      </trkpt>
      <trkpt lat="42.6589030959" lon="20.1092624478">
        <ele>2099.18</ele>
        <time>2019-07-13T08:35:02Z</time>
      </trkpt>
      <trkpt lat="42.6588819735" lon="20.1092601847">
        <ele>2099.18</ele>
        <time>2019-07-13T08:35:04Z</time>
      </trkpt>
      <trkpt lat="42.6588549837" lon="20.1092554908">
        <ele>2099.66</ele>
        <time>2019-07-13T08:35:06Z</time>
      </trkpt>
      <trkpt lat="42.6588202827" lon="20.1092402358">
        <ele>2100.14</ele>
        <time>2019-07-13T08:35:09Z</time>
      </trkpt>
      <trkpt lat="42.6587370504" lon="20.1092702430">
        <ele>2102.06</ele>
        <time>2019-07-13T08:35:20Z</time>
      </trkpt>
      <trkpt lat="42.6586660556" lon="20.1093585882">
        <ele>2104.46</ele>
        <time>2019-07-13T08:35:33Z</time>
      </trkpt>
      <trkpt lat="42.6586112380" lon="20.1093687303">
        <ele>2106.39</ele>
        <time>2019-07-13T08:35:42Z</time>
      </trkpt>
      <trkpt lat="42.6585383993" lon="20.1094175130">
        <ele>2108.79</ele>
        <time>2019-07-13T08:35:53Z</time>
      </trkpt>
      <trkpt lat="42.6584834140" lon="20.1094861608">
        <ele>2110.23</ele>
        <time>2019-07-13T08:36:05Z</time>
      </trkpt>
      <trkpt lat="42.6584408339" lon="20.1095235441">
        <ele>2112.15</ele>
        <time>2019-07-13T08:36:15Z</time>
      </trkpt>
      <trkpt lat="42.6584026124" lon="20.1094970573">
        <ele>2114.08</ele>
        <time>2019-07-13T08:36:27Z</time>
      </trkpt>
      <trkpt lat="42.6583683304" lon="20.1094496157">
        <ele>2116.48</ele>
        <time>2019-07-13T08:36:38Z</time>
      </trkpt>
      <trkpt lat="42.6583270915" lon="20.1094127353">
        <ele>2117.92</ele>
        <time>2019-07-13T08:36:50Z</time>
      </trkpt>
      <trkpt lat="42.6582852658" lon="20.1094197761">
        <ele>2120.81</ele>
        <time>2019-07-13T08:37:01Z</time>
      </trkpt>
      <trkpt lat="42.6582388300" lon="20.1094042696">
        <ele>2123.21</ele>
        <time>2019-07-13T08:37:16Z</time>
      </trkpt>
      <trkpt lat="42.6582300290" lon="20.1094002463">
        <ele>2123.69</ele>
        <time>2019-07-13T08:37:18Z</time>
      </trkpt>
      <trkpt lat="42.6581744570" lon="20.1093525533">
        <ele>2126.57</ele>
        <time>2019-07-13T08:37:32Z</time>
      </trkpt>
      <trkpt lat="42.6581220701" lon="20.1093712449">
        <ele>2129.46</ele>
        <time>2019-07-13T08:37:45Z</time>
      </trkpt>
      <trkpt lat="42.6580768079" lon="20.1093740948">
        <ele>2131.38</ele>
        <time>2019-07-13T08:37:56Z</time>
      </trkpt>
      <trkpt lat="42.6580554340" lon="20.1092876773">
        <ele>2132.82</ele>
        <time>2019-07-13T08:38:08Z</time>
      </trkpt>
      <trkpt lat="42.6580189727" lon="20.1092500426">
        <ele>2134.74</ele>
        <time>2019-07-13T08:38:19Z</time>
      </trkpt>
      <trkpt lat="42.6579525881" lon="20.1092557423">
        <ele>2137.15</ele>
        <time>2019-07-13T08:38:34Z</time>
      </trkpt>
      <trkpt lat="42.6579011232" lon="20.1092417445">
        <ele>2138.59</ele>
        <time>2019-07-13T08:38:45Z</time>
      </trkpt>
      <trkpt lat="42.6578473952" lon="20.1092296746">
        <ele>2140.51</ele>
        <time>2019-07-13T08:38:57Z</time>
      </trkpt>
      <trkpt lat="42.6577901468" lon="20.1092150901">
        <ele>2142.92</ele>
        <time>2019-07-13T08:39:10Z</time>
      </trkpt>
      <trkpt lat="42.6577370055" lon="20.1092595141">
        <ele>2143.88</ele>
        <time>2019-07-13T08:39:22Z</time>
      </trkpt>
      <trkpt lat="42.6576463971" lon="20.1092433371">
        <ele>2146.28</ele>
        <time>2019-07-13T08:39:34Z</time>
      </trkpt>
      <trkpt lat="42.6575813536" lon="20.1092375536">
        <ele>2148.68</ele>
        <time>2019-07-13T08:39:48Z</time>
      </trkpt>
      <trkpt lat="42.6574748196" lon="20.1092345361">
        <ele>2151.57</ele>
        <time>2019-07-13T08:40:02Z</time>
      </trkpt>
      <trkpt lat="42.6574330777" lon="20.1092010085">
        <ele>2153.97</ele>
        <time>2019-07-13T08:40:15Z</time>
      </trkpt>
      <trkpt lat="42.6573983766" lon="20.1091575064">
        <ele>2155.89</ele>
        <time>2019-07-13T08:40:29Z</time>
      </trkpt>
      <trkpt lat="42.6573502645" lon="20.1091238111">
        <ele>2157.82</ele>
        <time>2019-07-13T08:40:43Z</time>
      </trkpt>
      <trkpt lat="42.6573074330" lon="20.1091223862">
        <ele>2159.74</ele>
        <time>2019-07-13T08:40:55Z</time>
      </trkpt>
      <trkpt lat="42.6572730672" lon="20.1090804767">
        <ele>2162.62</ele>
        <time>2019-07-13T08:41:09Z</time>
      </trkpt>
      <trkpt lat="42.6572428923" lon="20.1090238150">
        <ele>2165.51</ele>
        <time>2019-07-13T08:41:23Z</time>
      </trkpt>
      <trkpt lat="42.6572133880" lon="20.1089834142">
        <ele>2167.91</ele>
        <time>2019-07-13T08:41:38Z</time>
      </trkpt>
      <trkpt lat="42.6572009828" lon="20.1089159399">
        <ele>2169.35</ele>
        <time>2019-07-13T08:41:50Z</time>
      </trkpt>
      <trkpt lat="42.6571819559" lon="20.1088715158">
        <ele>2171.76</ele>
        <time>2019-07-13T08:42:01Z</time>
      </trkpt>
      <trkpt lat="42.6571699698" lon="20.1088293549">
        <ele>2173.20</ele>
        <time>2019-07-13T08:42:12Z</time>
      </trkpt>
      <trkpt lat="42.6570946164" lon="20.1088544168">
        <ele>2175.12</ele>
        <time>2019-07-13T08:42:24Z</time>
      </trkpt>
      <trkpt lat="42.6571174990" lon="20.1087747049">
        <ele>2177.52</ele>
        <time>2019-07-13T08:42:35Z</time>
      </trkpt>
      <trkpt lat="42.6571827102" lon="20.1087177917">
        <ele>2179.45</ele>
        <time>2019-07-13T08:42:48Z</time>
      </trkpt>
      <trkpt lat="42.6572123822" lon="20.1086213998">
        <ele>2181.37</ele>
        <time>2019-07-13T08:43:00Z</time>
      </trkpt>
      <trkpt lat="42.6572268829" lon="20.1085261814">
        <ele>2182.33</ele>
        <time>2019-07-13T08:43:09Z</time>
      </trkpt>
      <trkpt lat="42.6572122145" lon="20.1083581243">
        <ele>2183.77</ele>
        <time>2019-07-13T08:43:23Z</time>
      </trkpt>
      <trkpt lat="42.6571226958" lon="20.1081976946">
        <ele>2185.69</ele>
        <time>2019-07-13T08:43:38Z</time>
      </trkpt>
      <trkpt lat="42.6570650283" lon="20.1080778334">
        <ele>2188.58</ele>
        <time>2019-07-13T08:43:52Z</time>
      </trkpt>
      <trkpt lat="42.6570369489" lon="20.1079312339">
        <ele>2188.58</ele>
        <time>2019-07-13T08:44:02Z</time>
      </trkpt>
      <trkpt lat="42.6570341829" lon="20.1078597363">
        <ele>2189.54</ele>
        <time>2019-07-13T08:44:08Z</time>
      </trkpt>
      <trkpt lat="42.6570318360" lon="20.1078267116">
        <ele>2190.02</ele>
        <time>2019-07-13T08:44:11Z</time>
      </trkpt>
      <trkpt lat="42.6569474302" lon="20.1077563874">
        <ele>2192.42</ele>
        <time>2019-07-13T08:44:24Z</time>
      </trkpt>
      <trkpt lat="42.6569057722" lon="20.1077413838">
        <ele>2193.39</ele>
        <time>2019-07-13T08:44:34Z</time>
      </trkpt>
      <trkpt lat="42.6567512937" lon="20.1076822076">
        <ele>2195.31</ele>
        <time>2019-07-13T08:44:49Z</time>
      </trkpt>
      <trkpt lat="42.6566331927" lon="20.1076599117">
        <ele>2196.75</ele>
        <time>2019-07-13T08:45:02Z</time>
      </trkpt>
      <trkpt lat="42.6565089729" lon="20.1076620072">
        <ele>2198.67</ele>
        <time>2019-07-13T08:45:17Z</time>
      </trkpt>
      <trkpt lat="42.6564821508" lon="20.1076403819">
        <ele>2199.63</ele>
        <time>2019-07-13T08:45:21Z</time>
      </trkpt>
      <trkpt lat="42.6564139221" lon="20.1076259650">
        <ele>2201.08</ele>
        <time>2019-07-13T08:45:28Z</time>
      </trkpt>
      <trkpt lat="42.6562994253" lon="20.1075863186">
        <ele>2203.00</ele>
        <time>2019-07-13T08:45:41Z</time>
      </trkpt>
      <trkpt lat="42.6562326215" lon="20.1075852290">
        <ele>2204.44</ele>
        <time>2019-07-13T08:45:48Z</time>
      </trkpt>
      <trkpt lat="42.6562142652" lon="20.1075783558">
        <ele>2204.44</ele>
        <time>2019-07-13T08:45:50Z</time>
      </trkpt>
      <trkpt lat="42.6560730301" lon="20.1075432356">
        <ele>2206.84</ele>
        <time>2019-07-13T08:46:05Z</time>
      </trkpt>
      <trkpt lat="42.6559523307" lon="20.1075105462">
        <ele>2209.73</ele>
        <time>2019-07-13T08:46:20Z</time>
      </trkpt>
      <trkpt lat="42.6558732055" lon="20.1074656192">
        <ele>2212.13</ele>
        <time>2019-07-13T08:46:33Z</time>
      </trkpt>
      <trkpt lat="42.6558035519" lon="20.1074260566">
        <ele>2215.50</ele>
        <time>2019-07-13T08:46:45Z</time>
      </trkpt>
      <trkpt lat="42.6557423640" lon="20.1073805429">
        <ele>2217.90</ele>
        <time>2019-07-13T08:46:57Z</time>
      </trkpt>
      <trkpt lat="42.6556849480" lon="20.1073045190">
        <ele>2220.78</ele>
        <time>2019-07-13T08:47:11Z</time>
      </trkpt>
      <trkpt lat="42.6556808408" lon="20.1072983164">
        <ele>2220.78</ele>
        <time>2019-07-13T08:47:12Z</time>
      </trkpt>
      <trkpt lat="42.6556099299" lon="20.1072655432">
        <ele>2223.67</ele>
        <time>2019-07-13T08:47:24Z</time>
      </trkpt>
      <trkpt lat="42.6555397734" lon="20.1072114799">
        <ele>2226.07</ele>
        <time>2019-07-13T08:47:40Z</time>
      </trkpt>
      <trkpt lat="42.6555067487" lon="20.1071110647">
        <ele>2228.95</ele>
        <time>2019-07-13T08:47:53Z</time>
      </trkpt>
      <trkpt lat="42.6554762386" lon="20.1070361305">
        <ele>2231.36</ele>
        <time>2019-07-13T08:48:05Z</time>
      </trkpt>
      <trkpt lat="42.6554328203" lon="20.1069896948">
        <ele>2233.76</ele>
        <time>2019-07-13T08:48:16Z</time>
      </trkpt>
      <trkpt lat="42.6554109436" lon="20.1069814805">
        <ele>2234.24</ele>
        <time>2019-07-13T08:48:19Z</time>
      </trkpt>
      <trkpt lat="42.6553443912" lon="20.1069934666">
        <ele>2236.16</ele>
        <time>2019-07-13T08:48:29Z</time>
      </trkpt>
      <trkpt lat="42.6552768331" lon="20.1070134155">
        <ele>2239.05</ele>
        <time>2019-07-13T08:48:42Z</time>
      </trkpt>
      <trkpt lat="42.6551889069" lon="20.1070305146">
        <ele>2242.41</ele>
        <time>2019-07-13T08:48:57Z</time>
      </trkpt>
      <trkpt lat="42.6551396213" lon="20.1070316881">
        <ele>2244.82</ele>
        <time>2019-07-13T08:49:09Z</time>
      </trkpt>
      <trkpt lat="42.6550962869" lon="20.1069789659">
        <ele>2247.70</ele>
        <time>2019-07-13T08:49:22Z</time>
      </trkpt>
      <trkpt lat="42.6550215203" lon="20.1069570892">
        <ele>2251.06</ele>
        <time>2019-07-13T08:49:37Z</time>
      </trkpt>
      <trkpt lat="42.6549395453" lon="20.1069194544">
        <ele>2253.47</ele>
        <time>2019-07-13T08:49:52Z</time>
      </trkpt>
      <trkpt lat="42.6548626833" lon="20.1068871003">
        <ele>2255.39</ele>
        <time>2019-07-13T08:50:04Z</time>
      </trkpt>
      <trkpt lat="42.6547530480" lon="20.1069106534">
        <ele>2257.31</ele>
        <time>2019-07-13T08:50:17Z</time>
      </trkpt>
      <trkpt lat="42.6546741743" lon="20.1069442648">
        <ele>2259.24</ele>
        <time>2019-07-13T08:50:29Z</time>
      </trkpt>
      <trkpt lat="42.6545901876" lon="20.1069830731">
        <ele>2262.12</ele>
        <time>2019-07-13T08:50:43Z</time>
      </trkpt>
      <trkpt lat="42.6545145828" lon="20.1070361305">
        <ele>2265.00</ele>
        <time>2019-07-13T08:50:56Z</time>
      </trkpt>
      <trkpt lat="42.6544493716" lon="20.1070454344">
        <ele>2266.93</ele>
        <time>2019-07-13T08:51:07Z</time>
      </trkpt>
      <trkpt lat="42.6544155926" lon="20.1070269104">
        <ele>2268.85</ele>
        <time>2019-07-13T08:51:19Z</time>
      </trkpt>
      <trkpt lat="42.6544190291" lon="20.1070315205">
        <ele>2268.85</ele>
        <time>2019-07-13T08:51:36Z</time>
      </trkpt>
      <trkpt lat="42.6544029359" lon="20.1070251502">
        <ele>2268.85</ele>
        <time>2019-07-13T08:52:02Z</time>
      </trkpt>
      <trkpt lat="42.6543979906" lon="20.1070212107">
        <ele>2267.41</ele>
        <time>2019-07-13T08:52:20Z</time>
      </trkpt>
      <trkpt lat="42.6544062048" lon="20.1070192829">
        <ele>2267.41</ele>
        <time>2019-07-13T08:52:39Z</time>
      </trkpt>
      <trkpt lat="42.6544186939" lon="20.1070414111">
        <ele>2267.89</ele>
        <time>2019-07-13T08:53:04Z</time>
      </trkpt>
      <trkpt lat="42.6544161793" lon="20.1070260722">
        <ele>2267.89</ele>
        <time>2019-07-13T08:53:28Z</time>
      </trkpt>
      <trkpt lat="42.6543992478" lon="20.1070239767">
        <ele>2267.89</ele>
        <time>2019-07-13T08:53:55Z</time>
      </trkpt>
      <trkpt lat="42.6543818973" lon="20.1070142537">
        <ele>2267.89</ele>
        <time>2019-07-13T08:54:10Z</time>
      </trkpt>
      <trkpt lat="42.6543371379" lon="20.1070070453">
        <ele>2267.41</ele>
        <time>2019-07-13T08:54:15Z</time>
      </trkpt>
      <trkpt lat="42.6543105673" lon="20.1068581827">
        <ele>2266.45</ele>
        <time>2019-07-13T08:54:29Z</time>
      </trkpt>
      <trkpt lat="42.6543048676" lon="20.1068450231">
        <ele>2265.96</ele>
        <time>2019-07-13T08:54:30Z</time>
      </trkpt>
      <trkpt lat="42.6542798057" lon="20.1067892835">
        <ele>2265.00</ele>
        <time>2019-07-13T08:54:35Z</time>
      </trkpt>
      <trkpt lat="42.6542409137" lon="20.1067504752">
        <ele>2262.60</ele>
        <time>2019-07-13T08:54:40Z</time>
      </trkpt>
      <trkpt lat="42.6541663986" lon="20.1066889521">
        <ele>2259.24</ele>
        <time>2019-07-13T08:54:49Z</time>
      </trkpt>
      <trkpt lat="42.6541185379" lon="20.1066539157">
        <ele>2256.83</ele>
        <time>2019-07-13T08:54:55Z</time>
      </trkpt>
      <trkpt lat="42.6541109942" lon="20.1066782232">
        <ele>2256.35</ele>
        <time>2019-07-13T08:55:07Z</time>
      </trkpt>
      <trkpt lat="42.6540397480" lon="20.1068213023">
        <ele>2253.95</ele>
        <time>2019-07-13T08:55:18Z</time>
      </trkpt>
      <trkpt lat="42.6539602876" lon="20.1068777964">
        <ele>2251.06</ele>
        <time>2019-07-13T08:55:25Z</time>
      </trkpt>
      <trkpt lat="42.6539514866" lon="20.1069035288">
        <ele>2251.06</ele>
        <time>2019-07-13T08:55:27Z</time>
      </trkpt>
      <trkpt lat="42.6539446972" lon="20.1069353800">
        <ele>2250.58</ele>
        <time>2019-07-13T08:55:29Z</time>
      </trkpt>
      <trkpt lat="42.6539219823" lon="20.1069725119">
        <ele>2249.14</ele>
        <time>2019-07-13T08:55:32Z</time>
      </trkpt>
      <trkpt lat="42.6539072301" lon="20.1069907006">
        <ele>2248.66</ele>
        <time>2019-07-13T08:55:34Z</time>
      </trkpt>
      <trkpt lat="42.6538886223" lon="20.1070009265">
        <ele>2247.70</ele>
        <time>2019-07-13T08:55:36Z</time>
      </trkpt>
      <trkpt lat="42.6538664941" lon="20.1070022676">
        <ele>2247.22</ele>
        <time>2019-07-13T08:55:38Z</time>
      </trkpt>
      <trkpt lat="42.6538551785" lon="20.1070259046">
        <ele>2246.26</ele>
        <time>2019-07-13T08:55:40Z</time>
      </trkpt>
      <trkpt lat="42.6538464613" lon="20.1070585102">
        <ele>2245.30</ele>
        <time>2019-07-13T08:55:42Z</time>
      </trkpt>
      <trkpt lat="42.6538091619" lon="20.1071453467">
        <ele>2242.89</ele>
        <time>2019-07-13T08:55:50Z</time>
      </trkpt>
      <trkpt lat="42.6537199784" lon="20.1071943808">
        <ele>2240.01</ele>
        <time>2019-07-13T08:56:00Z</time>
      </trkpt>
      <trkpt lat="42.6536876243" lon="20.1072045229">
        <ele>2239.05</ele>
        <time>2019-07-13T08:56:14Z</time>
      </trkpt>
      <trkpt lat="42.6536913961" lon="20.1072036847">
        <ele>2238.57</ele>
        <time>2019-07-13T08:56:29Z</time>
      </trkpt>
      <trkpt lat="42.6535883825" lon="20.1071635354">
        <ele>2235.68</ele>
        <time>2019-07-13T08:56:46Z</time>
      </trkpt>
      <trkpt lat="42.6535765640" lon="20.1071592607">
        <ele>2235.68</ele>
        <time>2019-07-13T08:56:47Z</time>
      </trkpt>
      <trkpt lat="42.6534827705" lon="20.1071035210">
        <ele>2232.32</ele>
        <time>2019-07-13T08:56:55Z</time>
      </trkpt>
      <trkpt lat="42.6533913240" lon="20.1070793811">
        <ele>2229.92</ele>
        <time>2019-07-13T08:57:03Z</time>
      </trkpt>
      <trkpt lat="42.6533369254" lon="20.1070653833">
        <ele>2227.99</ele>
        <time>2019-07-13T08:57:08Z</time>
      </trkpt>
      <trkpt lat="42.6531814411" lon="20.1070780400">
        <ele>2224.15</ele>
        <time>2019-07-13T08:57:22Z</time>
      </trkpt>
      <trkpt lat="42.6530823670" lon="20.1070530619">
        <ele>2221.74</ele>
        <time>2019-07-13T08:57:30Z</time>
      </trkpt>
      <trkpt lat="42.6529844664" lon="20.1070608571">
        <ele>2217.90</ele>
        <time>2019-07-13T08:57:39Z</time>
      </trkpt>
      <trkpt lat="42.6528706402" lon="20.1070501283">
        <ele>2214.53</ele>
        <time>2019-07-13T08:57:48Z</time>
      </trkpt>
      <trkpt lat="42.6527530421" lon="20.1070072129">
        <ele>2211.17</ele>
        <time>2019-07-13T08:57:57Z</time>
      </trkpt>
      <trkpt lat="42.6526378747" lon="20.1070034411">
        <ele>2207.81</ele>
        <time>2019-07-13T08:58:05Z</time>
      </trkpt>
      <trkpt lat="42.6525207795" lon="20.1069961488">
        <ele>2204.92</ele>
        <time>2019-07-13T08:58:13Z</time>
      </trkpt>
      <trkpt lat="42.6524820551" lon="20.1069973223">
        <ele>2204.44</ele>
        <time>2019-07-13T08:58:16Z</time>
      </trkpt>
      <trkpt lat="42.6523536444" lon="20.1069858391">
        <ele>2200.59</ele>
        <time>2019-07-13T08:58:25Z</time>
      </trkpt>
      <trkpt lat="42.6522157621" lon="20.1069908682">
        <ele>2196.27</ele>
        <time>2019-07-13T08:58:36Z</time>
      </trkpt>
      <trkpt lat="42.6522062067" lon="20.1069991663">
        <ele>2196.75</ele>
        <time>2019-07-13T08:58:38Z</time>
      </trkpt>
      <trkpt lat="42.6520337071" lon="20.1070389803">
        <ele>2192.90</ele>
        <time>2019-07-13T08:58:52Z</time>
      </trkpt>
      <trkpt lat="42.6519708429" lon="20.1070377231">
        <ele>2191.94</ele>
        <time>2019-07-13T08:58:56Z</time>
      </trkpt>
      <trkpt lat="42.6518661529" lon="20.1069974899">
        <ele>2189.06</ele>
        <time>2019-07-13T08:59:03Z</time>
      </trkpt>
      <trkpt lat="42.6517454535" lon="20.1069791336">
        <ele>2188.58</ele>
        <time>2019-07-13T08:59:13Z</time>
      </trkpt>
      <trkpt lat="42.6516032126" lon="20.1069307700">
        <ele>2185.21</ele>
        <time>2019-07-13T08:59:24Z</time>
      </trkpt>
      <trkpt lat="42.6515441202" lon="20.1069281716">
        <ele>2183.77</ele>
        <time>2019-07-13T08:59:28Z</time>
      </trkpt>
      <trkpt lat="42.6515280269" lon="20.1069267467">
        <ele>2183.29</ele>
        <time>2019-07-13T08:59:29Z</time>
      </trkpt>
      <trkpt lat="42.6513473131" lon="20.1069004275">
        <ele>2179.93</ele>
        <time>2019-07-13T08:59:42Z</time>
      </trkpt>
      <trkpt lat="42.6511942595" lon="20.1069341227">
        <ele>2178.97</ele>
        <time>2019-07-13T08:59:54Z</time>
      </trkpt>
      <trkpt lat="42.6510900725" lon="20.1069176104">
        <ele>2178.48</ele>
        <time>2019-07-13T09:00:02Z</time>
      </trkpt>
      <trkpt lat="42.6510572154" lon="20.1069301832">
        <ele>2178.48</ele>
        <time>2019-07-13T09:00:05Z</time>
      </trkpt>
      <trkpt lat="42.6508491766" lon="20.1069089770">
        <ele>2175.60</ele>
        <time>2019-07-13T09:00:19Z</time>
      </trkpt>
      <trkpt lat="42.6506975479" lon="20.1068613678">
        <ele>2171.76</ele>
        <time>2019-07-13T09:00:30Z</time>
      </trkpt>
      <trkpt lat="42.6505336817" lon="20.1068507228">
        <ele>2169.35</ele>
        <time>2019-07-13T09:00:41Z</time>
      </trkpt>
      <trkpt lat="42.6504615974" lon="20.1067572646">
        <ele>2168.39</ele>
        <time>2019-07-13T09:00:49Z</time>
      </trkpt>
      <trkpt lat="42.6502852421" lon="20.1067712624">
        <ele>2165.51</ele>
        <time>2019-07-13T09:01:02Z</time>
      </trkpt>
      <trkpt lat="42.6502041053" lon="20.1066840906">
        <ele>2163.58</ele>
        <time>2019-07-13T09:01:09Z</time>
      </trkpt>
      <trkpt lat="42.6500528958" lon="20.1065416820">
        <ele>2162.14</ele>
        <time>2019-07-13T09:01:22Z</time>
      </trkpt>
      <trkpt lat="42.6498834137" lon="20.1064969227">
        <ele>2162.62</ele>
        <time>2019-07-13T09:01:35Z</time>
      </trkpt>
      <trkpt lat="42.6497843396" lon="20.1064582821">
        <ele>2162.62</ele>
        <time>2019-07-13T09:01:44Z</time>
      </trkpt>
      <trkpt lat="42.6496449485" lon="20.1063034683">
        <ele>2158.78</ele>
        <time>2019-07-13T09:01:55Z</time>
      </trkpt>
      <trkpt lat="42.6494686771" lon="20.1061349083">
        <ele>2156.37</ele>
        <time>2019-07-13T09:02:09Z</time>
      </trkpt>
      <trkpt lat="42.6493098401" lon="20.1060039829">
        <ele>2153.97</ele>
        <time>2019-07-13T09:02:22Z</time>
      </trkpt>
      <trkpt lat="42.6492494065" lon="20.1059934217">
        <ele>2153.97</ele>
        <time>2019-07-13T09:02:27Z</time>
      </trkpt>
      <trkpt lat="42.6491478179" lon="20.1058966108">
        <ele>2151.57</ele>
        <time>2019-07-13T09:02:39Z</time>
      </trkpt>
      <trkpt lat="42.6490934193" lon="20.1058376022">
        <ele>2149.65</ele>
        <time>2019-07-13T09:02:44Z</time>
      </trkpt>
      <trkpt lat="42.6489512622" lon="20.1057268772">
        <ele>2148.20</ele>
        <time>2019-07-13T09:02:56Z</time>
      </trkpt>
      <trkpt lat="42.6487839594" lon="20.1056709699">
        <ele>2144.84</ele>
        <time>2019-07-13T09:03:08Z</time>
      </trkpt>
      <trkpt lat="42.6487437263" lon="20.1056298986">
        <ele>2143.88</ele>
        <time>2019-07-13T09:03:12Z</time>
      </trkpt>
      <trkpt lat="42.6485941932" lon="20.1054978836">
        <ele>2141.95</ele>
        <time>2019-07-13T09:03:24Z</time>
      </trkpt>
      <trkpt lat="42.6485481765" lon="20.1054594945">
        <ele>2140.99</ele>
        <time>2019-07-13T09:03:28Z</time>
      </trkpt>
      <trkpt lat="42.6484457497" lon="20.1053951215">
        <ele>2141.47</ele>
        <time>2019-07-13T09:03:37Z</time>
      </trkpt>
      <trkpt lat="42.6483307499" lon="20.1052806247">
        <ele>2140.51</ele>
        <time>2019-07-13T09:03:50Z</time>
      </trkpt>
      <trkpt lat="42.6482894272" lon="20.1052443311">
        <ele>2140.51</ele>
        <time>2019-07-13T09:03:53Z</time>
      </trkpt>
      <trkpt lat="42.6482030097" lon="20.1052266452">
        <ele>2140.03</ele>
        <time>2019-07-13T09:03:59Z</time>
      </trkpt>
      <trkpt lat="42.6481763553" lon="20.1052270643">
        <ele>2139.55</ele>
        <time>2019-07-13T09:04:01Z</time>
      </trkpt>
      <trkpt lat="42.6481205318" lon="20.1052378770">
        <ele>2138.59</ele>
        <time>2019-07-13T09:04:05Z</time>
      </trkpt>
      <trkpt lat="42.6479354594" lon="20.1049979869">
        <ele>2136.19</ele>
        <time>2019-07-13T09:04:21Z</time>
      </trkpt>
      <trkpt lat="42.6478028577" lon="20.1048278343">
        <ele>2135.71</ele>
        <time>2019-07-13T09:04:34Z</time>
      </trkpt>
      <trkpt lat="42.6476708427" lon="20.1045740303">
        <ele>2134.26</ele>
        <time>2019-07-13T09:04:49Z</time>
      </trkpt>
      <trkpt lat="42.6475274283" lon="20.1044439431">
        <ele>2132.34</ele>
        <time>2019-07-13T09:05:02Z</time>
      </trkpt>
      <trkpt lat="42.6473914739" lon="20.1042169612">
        <ele>2130.42</ele>
        <time>2019-07-13T09:05:18Z</time>
      </trkpt>
      <trkpt lat="42.6472581178" lon="20.1040726248">
        <ele>2128.50</ele>
        <time>2019-07-13T09:05:30Z</time>
      </trkpt>
      <trkpt lat="42.6472385880" lon="20.1040468924">
        <ele>2128.50</ele>
        <time>2019-07-13T09:05:32Z</time>
      </trkpt>
      <trkpt lat="42.6471433695" lon="20.1039792504">
        <ele>2128.50</ele>
        <time>2019-07-13T09:05:41Z</time>
      </trkpt>
      <trkpt lat="42.6470518392" lon="20.1038974430">
        <ele>2128.02</ele>
        <time>2019-07-13T09:05:49Z</time>
      </trkpt>
      <trkpt lat="42.6469102688" lon="20.1038380992">
        <ele>2126.09</ele>
        <time>2019-07-13T09:05:59Z</time>
      </trkpt>
      <trkpt lat="42.6468137931" lon="20.1038289629">
        <ele>2124.65</ele>
        <time>2019-07-13T09:06:06Z</time>
      </trkpt>
      <trkpt lat="42.6467845403" lon="20.1038230117">
        <ele>2124.17</ele>
        <time>2019-07-13T09:06:08Z</time>
      </trkpt>
      <trkpt lat="42.6467561256" lon="20.1038298849">
        <ele>2124.17</ele>
        <time>2019-07-13T09:06:10Z</time>
      </trkpt>
      <trkpt lat="42.6466706302" lon="20.1038111933">
        <ele>2122.73</ele>
        <time>2019-07-13T09:06:16Z</time>
      </trkpt>
      <trkpt lat="42.6464875694" lon="20.1037799288">
        <ele>2120.81</ele>
        <time>2019-07-13T09:06:29Z</time>
      </trkpt>
      <trkpt lat="42.6462435722" lon="20.1036187448">
        <ele>2117.92</ele>
        <time>2019-07-13T09:06:47Z</time>
      </trkpt>
      <trkpt lat="42.6460822206" lon="20.1034533698">
        <ele>2115.04</ele>
        <time>2019-07-13T09:07:00Z</time>
      </trkpt>
      <trkpt lat="42.6459791232" lon="20.1033176668">
        <ele>2113.12</ele>
        <time>2019-07-13T09:07:10Z</time>
      </trkpt>
      <trkpt lat="42.6459045243" lon="20.1031515375">
        <ele>2110.23</ele>
        <time>2019-07-13T09:07:22Z</time>
      </trkpt>
      <trkpt lat="42.6458344515" lon="20.1030855719">
        <ele>2108.79</ele>
        <time>2019-07-13T09:07:28Z</time>
      </trkpt>
      <trkpt lat="42.6456580963" lon="20.1029022597">
        <ele>2106.39</ele>
        <time>2019-07-13T09:07:43Z</time>
      </trkpt>
      <trkpt lat="42.6456057094" lon="20.1028570812">
        <ele>2105.91</ele>
        <time>2019-07-13T09:07:48Z</time>
      </trkpt>
      <trkpt lat="42.6455205493" lon="20.1026622858">
        <ele>2103.98</ele>
        <time>2019-07-13T09:08:01Z</time>
      </trkpt>
      <trkpt lat="42.6455134246" lon="20.1026492938">
        <ele>2103.50</ele>
        <time>2019-07-13T09:08:02Z</time>
      </trkpt>
      <trkpt lat="42.6453511510" lon="20.1024291851">
        <ele>2101.58</ele>
        <time>2019-07-13T09:08:18Z</time>
      </trkpt>
      <trkpt lat="42.6452086587" lon="20.1022239961">
        <ele>2100.62</ele>
        <time>2019-07-13T09:08:34Z</time>
      </trkpt>
      <trkpt lat="42.6451840997" lon="20.1021980960">
        <ele>2100.62</ele>
        <time>2019-07-13T09:08:37Z</time>
      </trkpt>
      <trkpt lat="42.6451567747" lon="20.1021412667">
        <ele>2100.62</ele>
        <time>2019-07-13T09:08:42Z</time>
      </trkpt>
      <trkpt lat="42.6451390889" lon="20.1021188032">
        <ele>2100.62</ele>
        <time>2019-07-13T09:08:44Z</time>
      </trkpt>
      <trkpt lat="42.6451245882" lon="20.1020923164">
        <ele>2102.06</ele>
        <time>2019-07-13T09:08:46Z</time>
      </trkpt>
      <trkpt lat="42.6450907253" lon="20.1020384207">
        <ele>2102.06</ele>
        <time>2019-07-13T09:08:50Z</time>
      </trkpt>
      <trkpt lat="42.6450346503" lon="20.1019539312">
        <ele>2102.06</ele>
        <time>2019-07-13T09:08:56Z</time>
      </trkpt>
      <trkpt lat="42.6449708641" lon="20.1018903963">
        <ele>2102.06</ele>
        <time>2019-07-13T09:09:02Z</time>
      </trkpt>
      <trkpt lat="42.6449476462" lon="20.1016795915">
        <ele>2098.70</ele>
        <time>2019-07-13T09:09:14Z</time>
      </trkpt>
      <trkpt lat="42.6449069101" lon="20.1016295515">
        <ele>2097.25</ele>
        <time>2019-07-13T09:09:19Z</time>
      </trkpt>
      <trkpt lat="42.6448969357" lon="20.1015929226">
        <ele>2096.29</ele>
        <time>2019-07-13T09:09:22Z</time>
      </trkpt>
      <trkpt lat="42.6448871288" lon="20.1015077624">
        <ele>2094.85</ele>
        <time>2019-07-13T09:09:27Z</time>
      </trkpt>
      <trkpt lat="42.6448815130" lon="20.1014628354">
        <ele>2093.41</ele>
        <time>2019-07-13T09:09:30Z</time>
      </trkpt>
      <trkpt lat="42.6448539365" lon="20.1013211813">
        <ele>2090.04</ele>
        <time>2019-07-13T09:09:38Z</time>
      </trkpt>
      <trkpt lat="42.6448454708" lon="20.1012877375">
        <ele>2089.56</ele>
        <time>2019-07-13T09:09:40Z</time>
      </trkpt>
      <trkpt lat="42.6448418666" lon="20.1012279745">
        <ele>2088.60</ele>
        <time>2019-07-13T09:09:43Z</time>
      </trkpt>
      <trkpt lat="42.6447947603" lon="20.1011368632">
        <ele>2086.68</ele>
        <time>2019-07-13T09:09:49Z</time>
      </trkpt>
      <trkpt lat="42.6447400264" lon="20.1010589954">
        <ele>2086.68</ele>
        <time>2019-07-13T09:09:56Z</time>
      </trkpt>
      <trkpt lat="42.6447056606" lon="20.1009077020">
        <ele>2086.20</ele>
        <time>2019-07-13T09:10:08Z</time>
      </trkpt>
      <trkpt lat="42.6447040681" lon="20.1008930337">
        <ele>2085.72</ele>
        <time>2019-07-13T09:10:09Z</time>
      </trkpt>
      <trkpt lat="42.6446795929" lon="20.1007937919">
        <ele>2084.76</ele>
        <time>2019-07-13T09:10:16Z</time>
      </trkpt>
      <trkpt lat="42.6446862146" lon="20.1007617731">
        <ele>2084.28</ele>
        <time>2019-07-13T09:10:18Z</time>
      </trkpt>
      <trkpt lat="42.6446790900" lon="20.1007093862">
        <ele>2083.31</ele>
        <time>2019-07-13T09:10:21Z</time>
      </trkpt>
      <trkpt lat="42.6446344983" lon="20.1005436759">
        <ele>2081.39</ele>
        <time>2019-07-13T09:10:31Z</time>
      </trkpt>
      <trkpt lat="42.6445944328" lon="20.1003667340">
        <ele>2078.99</ele>
        <time>2019-07-13T09:10:41Z</time>
      </trkpt>
      <trkpt lat="42.6445257850" lon="20.1002369821">
        <ele>2075.62</ele>
        <time>2019-07-13T09:10:53Z</time>
      </trkpt>
      <trkpt lat="42.6445084345" lon="20.1002108306">
        <ele>2075.14</ele>
        <time>2019-07-13T09:10:55Z</time>
      </trkpt>
      <trkpt lat="42.6444755774" lon="20.1000533346">
        <ele>2072.74</ele>
        <time>2019-07-13T09:11:05Z</time>
      </trkpt>
      <trkpt lat="42.6443521958" lon="20.0998118520">
        <ele>2068.89</ele>
        <time>2019-07-13T09:11:19Z</time>
      </trkpt>
      <trkpt lat="42.6442168280" lon="20.0995354168">
        <ele>2067.45</ele>
        <time>2019-07-13T09:11:35Z</time>
      </trkpt>
      <trkpt lat="42.6440926082" lon="20.0992988795">
        <ele>2066.49</ele>
        <time>2019-07-13T09:11:51Z</time>
      </trkpt>
      <trkpt lat="42.6440748386" lon="20.0992633402">
        <ele>2066.01</ele>
        <time>2019-07-13T09:11:53Z</time>
      </trkpt>
      <trkpt lat="42.6439655386" lon="20.0990603305">
        <ele>2064.57</ele>
        <time>2019-07-13T09:12:07Z</time>
      </trkpt>
      <trkpt lat="42.6439027581" lon="20.0989123061">
        <ele>2062.17</ele>
        <time>2019-07-13T09:12:15Z</time>
      </trkpt>
      <trkpt lat="42.6438403968" lon="20.0988326780">
        <ele>2061.20</ele>
        <time>2019-07-13T09:12:21Z</time>
      </trkpt>
      <trkpt lat="42.6438031811" lon="20.0987683889">
        <ele>2060.24</ele>
        <time>2019-07-13T09:12:25Z</time>
      </trkpt>
      <trkpt lat="42.6437828131" lon="20.0987189356">
        <ele>2059.76</ele>
        <time>2019-07-13T09:12:28Z</time>
      </trkpt>
      <trkpt lat="42.6436820626" lon="20.0984685682">
        <ele>2056.88</ele>
        <time>2019-07-13T09:12:43Z</time>
      </trkpt>
      <trkpt lat="42.6436186954" lon="20.0983604416">
        <ele>2054.96</ele>
        <time>2019-07-13T09:12:51Z</time>
      </trkpt>
      <trkpt lat="42.6434791368" lon="20.0980897900">
        <ele>2051.59</ele>
        <time>2019-07-13T09:13:08Z</time>
      </trkpt>
      <trkpt lat="42.6433546655" lon="20.0979073159">
        <ele>2050.15</ele>
        <time>2019-07-13T09:13:21Z</time>
      </trkpt>
      <trkpt lat="42.6432167832" lon="20.0976309646">
        <ele>2049.19</ele>
        <time>2019-07-13T09:13:38Z</time>
      </trkpt>
      <trkpt lat="42.6430956647" lon="20.0973915774">
        <ele>2049.19</ele>
        <time>2019-07-13T09:13:54Z</time>
      </trkpt>
      <trkpt lat="42.6430371590" lon="20.0972679444">
        <ele>2050.15</ele>
        <time>2019-07-13T09:14:03Z</time>
      </trkpt>
      <trkpt lat="42.6429921482" lon="20.0970587321">
        <ele>2052.55</ele>
        <time>2019-07-13T09:14:17Z</time>
      </trkpt>
      <trkpt lat="42.6428893860" lon="20.0968847238">
        <ele>2053.51</ele>
        <time>2019-07-13T09:14:31Z</time>
      </trkpt>
      <trkpt lat="42.6428665034" lon="20.0968467537">
        <ele>2053.51</ele>
        <time>2019-07-13T09:14:34Z</time>
      </trkpt>
      <trkpt lat="42.6428181399" lon="20.0967638567">
        <ele>2054.47</ele>
        <time>2019-07-13T09:14:42Z</time>
      </trkpt>
      <trkpt lat="42.6427138690" lon="20.0966377091">
        <ele>2055.44</ele>
        <time>2019-07-13T09:14:55Z</time>
      </trkpt>
      <trkpt lat="42.6425519306" lon="20.0965619367">
        <ele>2055.92</ele>
        <time>2019-07-13T09:15:09Z</time>
      </trkpt>
      <trkpt lat="42.6424047444" lon="20.0963860843">
        <ele>2056.88</ele>
        <time>2019-07-13T09:15:23Z</time>
      </trkpt>
      <trkpt lat="42.6423569676" lon="20.0963219628">
        <ele>2057.84</ele>
        <time>2019-07-13T09:15:28Z</time>
      </trkpt>
      <trkpt lat="42.6423382759" lon="20.0962738506">
        <ele>2057.84</ele>
        <time>2019-07-13T09:15:31Z</time>
      </trkpt>
      <trkpt lat="42.6423023175" lon="20.0960974954">
        <ele>2058.80</ele>
        <time>2019-07-13T09:15:43Z</time>
      </trkpt>
      <trkpt lat="42.6422739029" lon="20.0960550830">
        <ele>2057.36</ele>
        <time>2019-07-13T09:15:46Z</time>
      </trkpt>
      <trkpt lat="42.6422140561" lon="20.0958997663">
        <ele>2057.36</ele>
        <time>2019-07-13T09:15:57Z</time>
      </trkpt>
      <trkpt lat="42.6422125474" lon="20.0957384147">
        <ele>2058.32</ele>
        <time>2019-07-13T09:16:09Z</time>
      </trkpt>
      <trkpt lat="42.6422029082" lon="20.0957017858">
        <ele>2058.32</ele>
        <time>2019-07-13T09:16:12Z</time>
      </trkpt>
      <trkpt lat="42.6421977114" lon="20.0955222454">
        <ele>2058.80</ele>
        <time>2019-07-13T09:16:25Z</time>
      </trkpt>
      <trkpt lat="42.6421922632" lon="20.0955059845">
        <ele>2058.80</ele>
        <time>2019-07-13T09:16:26Z</time>
      </trkpt>
      <trkpt lat="42.6421643514" lon="20.0953515898">
        <ele>2057.84</ele>
        <time>2019-07-13T09:16:36Z</time>
      </trkpt>
      <trkpt lat="42.6421575621" lon="20.0953078363">
        <ele>2057.84</ele>
        <time>2019-07-13T09:16:39Z</time>
      </trkpt>
      <trkpt lat="42.6421353500" lon="20.0951210037">
        <ele>2057.84</ele>
        <time>2019-07-13T09:16:50Z</time>
      </trkpt>
      <trkpt lat="42.6421346795" lon="20.0950803515">
        <ele>2059.28</ele>
        <time>2019-07-13T09:16:52Z</time>
      </trkpt>
      <trkpt lat="42.6421470009" lon="20.0950158946">
        <ele>2059.76</ele>
        <time>2019-07-13T09:16:56Z</time>
      </trkpt>
      <trkpt lat="42.6420942787" lon="20.0949656032">
        <ele>2059.76</ele>
        <time>2019-07-13T09:17:03Z</time>
      </trkpt>
      <trkpt lat="42.6420713961" lon="20.0949379429">
        <ele>2060.72</ele>
        <time>2019-07-13T09:17:05Z</time>
      </trkpt>
      <trkpt lat="42.6420392096" lon="20.0948901661">
        <ele>2060.24</ele>
        <time>2019-07-13T09:17:09Z</time>
      </trkpt>
      <trkpt lat="42.6419972163" lon="20.0948423892">
        <ele>2060.24</ele>
        <time>2019-07-13T09:17:13Z</time>
      </trkpt>
      <trkpt lat="42.6418222860" lon="20.0947366096">
        <ele>2060.24</ele>
        <time>2019-07-13T09:17:25Z</time>
      </trkpt>
      <trkpt lat="42.6418093778" lon="20.0947181694">
        <ele>2060.24</ele>
        <time>2019-07-13T09:17:27Z</time>
      </trkpt>
      <trkpt lat="42.6416502893" lon="20.0945843942">
        <ele>2059.28</ele>
        <time>2019-07-13T09:17:41Z</time>
      </trkpt>
      <trkpt lat="42.6416061167" lon="20.0945601705">
        <ele>2059.28</ele>
        <time>2019-07-13T09:17:45Z</time>
      </trkpt>
      <trkpt lat="42.6415473595" lon="20.0943996571">
        <ele>2059.28</ele>
        <time>2019-07-13T09:17:56Z</time>
      </trkpt>
      <trkpt lat="42.6414036099" lon="20.0942132436">
        <ele>2058.32</ele>
        <time>2019-07-13T09:18:10Z</time>
      </trkpt>
      <trkpt lat="42.6412694156" lon="20.0941208750">
        <ele>2057.84</ele>
        <time>2019-07-13T09:18:24Z</time>
      </trkpt>
      <trkpt lat="42.6411995105" lon="20.0940834917">
        <ele>2057.84</ele>
        <time>2019-07-13T09:18:30Z</time>
      </trkpt>
      <trkpt lat="42.6410638914" lon="20.0940444320">
        <ele>2057.84</ele>
        <time>2019-07-13T09:18:42Z</time>
      </trkpt>
      <trkpt lat="42.6410130970" lon="20.0940373074">
        <ele>2057.84</ele>
        <time>2019-07-13T09:18:46Z</time>
      </trkpt>
      <trkpt lat="42.6409865264" lon="20.0940373074">
        <ele>2057.36</ele>
        <time>2019-07-13T09:18:48Z</time>
      </trkpt>
      <trkpt lat="42.6409444492" lon="20.0940188672">
        <ele>2057.36</ele>
        <time>2019-07-13T09:18:51Z</time>
      </trkpt>
      <trkpt lat="42.6408711914" lon="20.0939762034">
        <ele>2056.88</ele>
        <time>2019-07-13T09:18:57Z</time>
      </trkpt>
      <trkpt lat="42.6407100074" lon="20.0938793086">
        <ele>2055.92</ele>
        <time>2019-07-13T09:19:08Z</time>
      </trkpt>
      <trkpt lat="42.6405645814" lon="20.0938257482">
        <ele>2054.96</ele>
        <time>2019-07-13T09:19:19Z</time>
      </trkpt>
      <trkpt lat="42.6404289622" lon="20.0938445237">
        <ele>2053.99</ele>
        <time>2019-07-13T09:19:29Z</time>
      </trkpt>
      <trkpt lat="42.6403032336" lon="20.0937679969">
        <ele>2053.03</ele>
        <time>2019-07-13T09:19:37Z</time>
      </trkpt>
      <trkpt lat="42.6402300596" lon="20.0937306136">
        <ele>2051.59</ele>
        <time>2019-07-13T09:19:42Z</time>
      </trkpt>
      <trkpt lat="42.6401031576" lon="20.0937364809">
        <ele>2051.59</ele>
        <time>2019-07-13T09:19:54Z</time>
      </trkpt>
      <trkpt lat="42.6399399620" lon="20.0936480518">
        <ele>2050.63</ele>
        <time>2019-07-13T09:20:07Z</time>
      </trkpt>
      <trkpt lat="42.6397573203" lon="20.0936364010">
        <ele>2048.71</ele>
        <time>2019-07-13T09:20:21Z</time>
      </trkpt>
      <trkpt lat="42.6396537200" lon="20.0936502311">
        <ele>2048.23</ele>
        <time>2019-07-13T09:20:27Z</time>
      </trkpt>
      <trkpt lat="42.6395291649" lon="20.0936218165">
        <ele>2047.26</ele>
        <time>2019-07-13T09:20:35Z</time>
      </trkpt>
      <trkpt lat="42.6394546498" lon="20.0936726946">
        <ele>2047.26</ele>
        <time>2019-07-13T09:20:41Z</time>
      </trkpt>
      <trkpt lat="42.6393598504" lon="20.0936384127">
        <ele>2046.30</ele>
        <time>2019-07-13T09:20:48Z</time>
      </trkpt>
      <trkpt lat="42.6391334552" lon="20.0936029572">
        <ele>2046.30</ele>
        <time>2019-07-13T09:21:06Z</time>
      </trkpt>
      <trkpt lat="42.6390864328" lon="20.0935559347">
        <ele>2046.30</ele>
        <time>2019-07-13T09:21:14Z</time>
      </trkpt>
      <trkpt lat="42.6389757078" lon="20.0934935734">
        <ele>2046.30</ele>
        <time>2019-07-13T09:21:24Z</time>
      </trkpt>
      <trkpt lat="42.6389539987" lon="20.0934906397">
        <ele>2046.30</ele>
        <time>2019-07-13T09:21:26Z</time>
      </trkpt>
      <trkpt lat="42.6389236562" lon="20.0934692658">
        <ele>2046.30</ele>
        <time>2019-07-13T09:21:29Z</time>
      </trkpt>
      <trkpt lat="42.6387846004" lon="20.0933851115">
        <ele>2047.75</ele>
        <time>2019-07-13T09:21:42Z</time>
      </trkpt>
      <trkpt lat="42.6387379970" lon="20.0933639053">
        <ele>2047.75</ele>
        <time>2019-07-13T09:21:46Z</time>
      </trkpt>
      <trkpt lat="42.6386729535" lon="20.0933414418">
        <ele>2048.71</ele>
        <time>2019-07-13T09:21:52Z</time>
      </trkpt>
      <trkpt lat="42.6385255158" lon="20.0932565331">
        <ele>2050.63</ele>
        <time>2019-07-13T09:22:06Z</time>
      </trkpt>
      <trkpt lat="42.6385152899" lon="20.0932436250">
        <ele>2050.63</ele>
        <time>2019-07-13T09:22:07Z</time>
      </trkpt>
      <trkpt lat="42.6383983623" lon="20.0931682717">
        <ele>2051.59</ele>
        <time>2019-07-13T09:22:18Z</time>
      </trkpt>
      <trkpt lat="42.6382589713" lon="20.0930759870">
        <ele>2053.51</ele>
        <time>2019-07-13T09:22:32Z</time>
      </trkpt>
      <trkpt lat="42.6382173132" lon="20.0930467341">
        <ele>2053.51</ele>
        <time>2019-07-13T09:22:36Z</time>
      </trkpt>
      <trkpt lat="42.6380878966" lon="20.0929821096">
        <ele>2054.47</ele>
        <time>2019-07-13T09:22:49Z</time>
      </trkpt>
      <trkpt lat="42.6379370224" lon="20.0929064211">
        <ele>2055.92</ele>
        <time>2019-07-13T09:23:02Z</time>
      </trkpt>
      <trkpt lat="42.6378289796" lon="20.0928576384">
        <ele>2056.88</ele>
        <time>2019-07-13T09:23:13Z</time>
      </trkpt>
      <trkpt lat="42.6378143951" lon="20.0928500947">
        <ele>2056.88</ele>
        <time>2019-07-13T09:23:14Z</time>
      </trkpt>
      <trkpt lat="42.6377309114" lon="20.0928434730">
        <ele>2057.84</ele>
        <time>2019-07-13T09:23:21Z</time>
      </trkpt>
      <trkpt lat="42.6376077812" lon="20.0928163994">
        <ele>2058.80</ele>
        <time>2019-07-13T09:23:34Z</time>
      </trkpt>
      <trkpt lat="42.6374975592" lon="20.0927463267">
        <ele>2060.24</ele>
        <time>2019-07-13T09:23:45Z</time>
      </trkpt>
      <trkpt lat="42.6374028437" lon="20.0927174091">
        <ele>2061.20</ele>
        <time>2019-07-13T09:23:53Z</time>
      </trkpt>
      <trkpt lat="42.6373382192" lon="20.0926794391">
        <ele>2062.17</ele>
        <time>2019-07-13T09:24:00Z</time>
      </trkpt>
      <trkpt lat="42.6373255625" lon="20.0926367752">
        <ele>2062.65</ele>
        <time>2019-07-13T09:24:03Z</time>
      </trkpt>
      <trkpt lat="42.6372053660" lon="20.0924842246">
        <ele>2064.09</ele>
        <time>2019-07-13T09:24:18Z</time>
      </trkpt>
      <trkpt lat="42.6370773744" lon="20.0924093742">
        <ele>2064.57</ele>
        <time>2019-07-13T09:24:29Z</time>
      </trkpt>
      <trkpt lat="42.6369394083" lon="20.0923336856">
        <ele>2065.53</ele>
        <time>2019-07-13T09:24:41Z</time>
      </trkpt>
      <trkpt lat="42.6368788909" lon="20.0922939554">
        <ele>2066.01</ele>
        <time>2019-07-13T09:24:46Z</time>
      </trkpt>
      <trkpt lat="42.6368544158" lon="20.0922828913">
        <ele>2066.01</ele>
        <time>2019-07-13T09:24:48Z</time>
      </trkpt>
      <trkpt lat="42.6367953233" lon="20.0921981502">
        <ele>2066.01</ele>
        <time>2019-07-13T09:24:54Z</time>
      </trkpt>
      <trkpt lat="42.6367309503" lon="20.0920803845">
        <ele>2066.01</ele>
        <time>2019-07-13T09:25:02Z</time>
      </trkpt>
      <trkpt lat="42.6366515737" lon="20.0918387342">
        <ele>2066.97</ele>
        <time>2019-07-13T09:25:18Z</time>
      </trkpt>
      <trkpt lat="42.6365644019" lon="20.0916926377">
        <ele>2067.93</ele>
        <time>2019-07-13T09:25:30Z</time>
      </trkpt>
      <trkpt lat="42.6365249231" lon="20.0916260853">
        <ele>2068.41</ele>
        <time>2019-07-13T09:25:35Z</time>
      </trkpt>
      <trkpt lat="42.6364426129" lon="20.0915286038">
        <ele>2069.38</ele>
        <time>2019-07-13T09:25:45Z</time>
      </trkpt>
      <trkpt lat="42.6364018768" lon="20.0914561003">
        <ele>2069.38</ele>
        <time>2019-07-13T09:25:50Z</time>
      </trkpt>
      <trkpt lat="42.6362578757" lon="20.0914120954">
        <ele>2070.34</ele>
        <time>2019-07-13T09:26:03Z</time>
      </trkpt>
      <trkpt lat="42.6361748949" lon="20.0913758855">
        <ele>2070.34</ele>
        <time>2019-07-13T09:26:11Z</time>
      </trkpt>
      <trkpt lat="42.6361571252" lon="20.0913292821">
        <ele>2070.34</ele>
        <time>2019-07-13T09:26:13Z</time>
      </trkpt>
      <trkpt lat="42.6360989548" lon="20.0912696030">
        <ele>2068.89</ele>
        <time>2019-07-13T09:26:19Z</time>
      </trkpt>
      <trkpt lat="42.6360039040" lon="20.0912049785">
        <ele>2070.82</ele>
        <time>2019-07-13T09:26:29Z</time>
      </trkpt>
      <trkpt lat="42.6359775849" lon="20.0912009552">
        <ele>2070.82</ele>
        <time>2019-07-13T09:26:31Z</time>
      </trkpt>
      <trkpt lat="42.6358048338" lon="20.0911376718">
        <ele>2071.78</ele>
        <time>2019-07-13T09:26:47Z</time>
      </trkpt>
      <trkpt lat="42.6356940251" lon="20.0910388492">
        <ele>2073.22</ele>
        <time>2019-07-13T09:26:58Z</time>
      </trkpt>
      <trkpt lat="42.6355656143" lon="20.0909308903">
        <ele>2074.66</ele>
        <time>2019-07-13T09:27:10Z</time>
      </trkpt>
      <trkpt lat="42.6354662050" lon="20.0908631645">
        <ele>2075.62</ele>
        <time>2019-07-13T09:27:21Z</time>
      </trkpt>
      <trkpt lat="42.6353443321" lon="20.0907759927">
        <ele>2076.59</ele>
        <time>2019-07-13T09:27:33Z</time>
      </trkpt>
      <trkpt lat="42.6352715772" lon="20.0907474943">
        <ele>2077.07</ele>
        <time>2019-07-13T09:27:40Z</time>
      </trkpt>
      <trkpt lat="42.6352498680" lon="20.0907244440">
        <ele>2077.07</ele>
        <time>2019-07-13T09:27:42Z</time>
      </trkpt>
      <trkpt lat="42.6351468544" lon="20.0906554610">
        <ele>2078.03</ele>
        <time>2019-07-13T09:27:52Z</time>
      </trkpt>
      <trkpt lat="42.6350804698" lon="20.0905754976">
        <ele>2078.99</ele>
        <time>2019-07-13T09:27:58Z</time>
      </trkpt>
      <trkpt lat="42.6350355428" lon="20.0905366056">
        <ele>2079.47</ele>
        <time>2019-07-13T09:28:02Z</time>
      </trkpt>
      <trkpt lat="42.6349665597" lon="20.0904803630">
        <ele>2079.95</ele>
        <time>2019-07-13T09:28:08Z</time>
      </trkpt>
      <trkpt lat="42.6348284259" lon="20.0903384574">
        <ele>2081.39</ele>
        <time>2019-07-13T09:28:23Z</time>
      </trkpt>
      <trkpt lat="42.6346997637" lon="20.0902525429">
        <ele>2081.87</ele>
        <time>2019-07-13T09:28:35Z</time>
      </trkpt>
      <trkpt lat="42.6346342172" lon="20.0901650358">
        <ele>2082.35</ele>
        <time>2019-07-13T09:28:42Z</time>
      </trkpt>
      <trkpt lat="42.6345063094" lon="20.0900043547">
        <ele>2083.31</ele>
        <time>2019-07-13T09:28:55Z</time>
      </trkpt>
      <trkpt lat="42.6344297826" lon="20.0899643730">
        <ele>2083.31</ele>
        <time>2019-07-13T09:29:02Z</time>
      </trkpt>
      <trkpt lat="42.6342887152" lon="20.0898279157">
        <ele>2084.28</ele>
        <time>2019-07-13T09:29:16Z</time>
      </trkpt>
      <trkpt lat="42.6342194807" lon="20.0897357147">
        <ele>2084.76</ele>
        <time>2019-07-13T09:29:24Z</time>
      </trkpt>
      <trkpt lat="42.6341677643" lon="20.0896790531">
        <ele>2085.24</ele>
        <time>2019-07-13T09:29:29Z</time>
      </trkpt>
      <trkpt lat="42.6340882201" lon="20.0896523986">
        <ele>2086.20</ele>
        <time>2019-07-13T09:29:37Z</time>
      </trkpt>
      <trkpt lat="42.6340259425" lon="20.0896347966">
        <ele>2086.68</ele>
        <time>2019-07-13T09:29:42Z</time>
      </trkpt>
      <trkpt lat="42.6339545287" lon="20.0895970780">
        <ele>2086.68</ele>
        <time>2019-07-13T09:29:48Z</time>
      </trkpt>
      <trkpt lat="42.6338998787" lon="20.0895767100">
        <ele>2086.68</ele>
        <time>2019-07-13T09:29:52Z</time>
      </trkpt>
      <trkpt lat="42.6336901635" lon="20.0894907117">
        <ele>2087.16</ele>
        <time>2019-07-13T09:30:07Z</time>
      </trkpt>
      <trkpt lat="42.6335528679" lon="20.0894415099">
        <ele>2087.16</ele>
        <time>2019-07-13T09:30:18Z</time>
      </trkpt>
      <trkpt lat="42.6334689651" lon="20.0894434378">
        <ele>2088.60</ele>
        <time>2019-07-13T09:30:26Z</time>
      </trkpt>
      <trkpt lat="42.6333534624" lon="20.0894772168">
        <ele>2090.52</ele>
        <time>2019-07-13T09:30:38Z</time>
      </trkpt>
      <trkpt lat="42.6332761813" lon="20.0894945674">
        <ele>2091.00</ele>
        <time>2019-07-13T09:30:44Z</time>
      </trkpt>
      <trkpt lat="42.6331081241" lon="20.0894060545">
        <ele>2092.45</ele>
        <time>2019-07-13T09:30:59Z</time>
      </trkpt>
      <trkpt lat="42.6329516340" lon="20.0892735366">
        <ele>2092.93</ele>
        <time>2019-07-13T09:31:14Z</time>
      </trkpt>
      <trkpt lat="42.6328544039" lon="20.0892669987">
        <ele>2093.41</ele>
        <time>2019-07-13T09:31:22Z</time>
      </trkpt>
      <trkpt lat="42.6326867659" lon="20.0892616343">
        <ele>2094.37</ele>
        <time>2019-07-13T09:31:36Z</time>
      </trkpt>
      <trkpt lat="42.6326278411" lon="20.0892530847">
        <ele>2094.85</ele>
        <time>2019-07-13T09:31:41Z</time>
      </trkpt>
      <trkpt lat="42.6324841753" lon="20.0891634822">
        <ele>2096.29</ele>
        <time>2019-07-13T09:31:54Z</time>
      </trkpt>
      <trkpt lat="42.6324019488" lon="20.0891511608">
        <ele>2097.73</ele>
        <time>2019-07-13T09:32:04Z</time>
      </trkpt>
      <trkpt lat="42.6323770545" lon="20.0891318824">
        <ele>2098.21</ele>
        <time>2019-07-13T09:32:07Z</time>
      </trkpt>
      <trkpt lat="42.6322490629" lon="20.0890807528">
        <ele>2098.70</ele>
        <time>2019-07-13T09:32:19Z</time>
      </trkpt>
      <trkpt lat="42.6321095880" lon="20.0890266895">
        <ele>2101.10</ele>
        <time>2019-07-13T09:32:33Z</time>
      </trkpt>
      <trkpt lat="42.6319824345" lon="20.0889480673">
        <ele>2102.06</ele>
        <time>2019-07-13T09:32:46Z</time>
      </trkpt>
      <trkpt lat="42.6318764035" lon="20.0888815988">
        <ele>2102.54</ele>
        <time>2019-07-13T09:32:57Z</time>
      </trkpt>
      <trkpt lat="42.6317947637" lon="20.0888124481">
        <ele>2103.02</ele>
        <time>2019-07-13T09:33:07Z</time>
      </trkpt>
      <trkpt lat="42.6316889003" lon="20.0887324847">
        <ele>2103.50</ele>
        <time>2019-07-13T09:33:19Z</time>
      </trkpt>
      <trkpt lat="42.6316433866" lon="20.0886904076">
        <ele>2103.98</ele>
        <time>2019-07-13T09:33:23Z</time>
      </trkpt>
      <trkpt lat="42.6315363497" lon="20.0886174850">
        <ele>2104.94</ele>
        <time>2019-07-13T09:33:34Z</time>
      </trkpt>
      <trkpt lat="42.6314859744" lon="20.0885633379">
        <ele>2105.42</ele>
        <time>2019-07-13T09:33:39Z</time>
      </trkpt>
      <trkpt lat="42.6313926000" lon="20.0884863921">
        <ele>2105.91</ele>
        <time>2019-07-13T09:33:48Z</time>
      </trkpt>
      <trkpt lat="42.6312921010" lon="20.0883747451">
        <ele>2106.87</ele>
        <time>2019-07-13T09:33:59Z</time>
      </trkpt>
      <trkpt lat="42.6312454138" lon="20.0883386191">
        <ele>2106.87</ele>
        <time>2019-07-13T09:34:05Z</time>
      </trkpt>
      <trkpt lat="42.6311838068" lon="20.0882942788">
        <ele>2107.83</ele>
        <time>2019-07-13T09:34:11Z</time>
      </trkpt>
      <trkpt lat="42.6310842298" lon="20.0881603360">
        <ele>2109.27</ele>
        <time>2019-07-13T09:34:22Z</time>
      </trkpt>
      <trkpt lat="42.6310475171" lon="20.0880952086">
        <ele>2109.75</ele>
        <time>2019-07-13T09:34:27Z</time>
      </trkpt>
      <trkpt lat="42.6309198607" lon="20.0879609305">
        <ele>2112.15</ele>
        <time>2019-07-13T09:34:41Z</time>
      </trkpt>
      <trkpt lat="42.6309117302" lon="20.0879495312">
        <ele>2112.15</ele>
        <time>2019-07-13T09:34:42Z</time>
      </trkpt>
      <trkpt lat="42.6307775360" lon="20.0878222939">
        <ele>2113.12</ele>
        <time>2019-07-13T09:34:56Z</time>
      </trkpt>
      <trkpt lat="42.6306352112" lon="20.0877214596">
        <ele>2114.08</ele>
        <time>2019-07-13T09:35:10Z</time>
      </trkpt>
      <trkpt lat="42.6305612829" lon="20.0876915362">
        <ele>2115.04</ele>
        <time>2019-07-13T09:35:17Z</time>
      </trkpt>
      <trkpt lat="42.6304269210" lon="20.0875530671">
        <ele>2115.52</ele>
        <time>2019-07-13T09:35:31Z</time>
      </trkpt>
      <trkpt lat="42.6303138491" lon="20.0874560047">
        <ele>2117.44</ele>
        <time>2019-07-13T09:35:43Z</time>
      </trkpt>
      <trkpt lat="42.6301781461" lon="20.0873408373">
        <ele>2117.92</ele>
        <time>2019-07-13T09:35:55Z</time>
      </trkpt>
      <trkpt lat="42.6300361566" lon="20.0872138515">
        <ele>2119.84</ele>
        <time>2019-07-13T09:36:09Z</time>
      </trkpt>
      <trkpt lat="42.6298779063" lon="20.0870804116">
        <ele>2120.32</ele>
        <time>2019-07-13T09:36:24Z</time>
      </trkpt>
      <trkpt lat="42.6298585441" lon="20.0870595407">
        <ele>2120.32</ele>
        <time>2019-07-13T09:36:26Z</time>
      </trkpt>
      <trkpt lat="42.6297095977" lon="20.0869449601">
        <ele>2121.29</ele>
        <time>2019-07-13T09:36:40Z</time>
      </trkpt>
      <trkpt lat="42.6295419596" lon="20.0868066587">
        <ele>2122.25</ele>
        <time>2019-07-13T09:36:56Z</time>
      </trkpt>
      <trkpt lat="42.6294467412" lon="20.0866520964">
        <ele>2122.73</ele>
        <time>2019-07-13T09:37:08Z</time>
      </trkpt>
      <trkpt lat="42.6294106990" lon="20.0866013858">
        <ele>2121.29</ele>
        <time>2019-07-13T09:37:12Z</time>
      </trkpt>
      <trkpt lat="42.6293879841" lon="20.0865887292">
        <ele>2121.29</ele>
        <time>2019-07-13T09:37:14Z</time>
      </trkpt>
      <trkpt lat="42.6291937754" lon="20.0863759965">
        <ele>2120.81</ele>
        <time>2019-07-13T09:37:32Z</time>
      </trkpt>
      <trkpt lat="42.6290501934" lon="20.0862028264">
        <ele>2121.77</ele>
        <time>2019-07-13T09:37:47Z</time>
      </trkpt>
      <trkpt lat="42.6289141551" lon="20.0860250462">
        <ele>2122.73</ele>
        <time>2019-07-13T09:38:03Z</time>
      </trkpt>
      <trkpt lat="42.6288029272" lon="20.0858302508">
        <ele>2123.69</ele>
        <time>2019-07-13T09:38:17Z</time>
      </trkpt>
      <trkpt lat="42.6287635323" lon="20.0856238883">
        <ele>2126.09</ele>
        <time>2019-07-13T09:38:31Z</time>
      </trkpt>
      <trkpt lat="42.6287722494" lon="20.0855616946">
        <ele>2126.09</ele>
        <time>2019-07-13T09:38:35Z</time>
      </trkpt>
      <trkpt lat="42.6287468523" lon="20.0853959005">
        <ele>2126.57</ele>
        <time>2019-07-13T09:38:45Z</time>
      </trkpt>
      <trkpt lat="42.6287153363" lon="20.0851752050">
        <ele>2128.02</ele>
        <time>2019-07-13T09:38:59Z</time>
      </trkpt>
      <trkpt lat="42.6286977343" lon="20.0851059705">
        <ele>2128.50</ele>
        <time>2019-07-13T09:39:05Z</time>
      </trkpt>
      <trkpt lat="42.6286528911" lon="20.0848263502">
        <ele>2128.50</ele>
        <time>2019-07-13T09:39:21Z</time>
      </trkpt>
      <trkpt lat="42.6285425853" lon="20.0845622364">
        <ele>2128.98</ele>
        <time>2019-07-13T09:39:38Z</time>
      </trkpt>
      <trkpt lat="42.6284013502" lon="20.0844258629">
        <ele>2130.42</ele>
        <time>2019-07-13T09:39:53Z</time>
      </trkpt>
      <trkpt lat="42.6282709278" lon="20.0842249487">
        <ele>2130.90</ele>
        <time>2019-07-13T09:40:09Z</time>
      </trkpt>
      <trkpt lat="42.6282571815" lon="20.0841877330">
        <ele>2130.90</ele>
        <time>2019-07-13T09:40:12Z</time>
      </trkpt>
      <trkpt lat="42.6282387413" lon="20.0841168221">
        <ele>2130.90</ele>
        <time>2019-07-13T09:40:16Z</time>
      </trkpt>
      <trkpt lat="42.6282182895" lon="20.0840541255">
        <ele>2130.90</ele>
        <time>2019-07-13T09:40:20Z</time>
      </trkpt>
      <trkpt lat="42.6282105781" lon="20.0837433245">
        <ele>2130.90</ele>
        <time>2019-07-13T09:40:38Z</time>
      </trkpt>
      <trkpt lat="42.6282062195" lon="20.0834372174">
        <ele>2130.90</ele>
        <time>2019-07-13T09:40:54Z</time>
      </trkpt>
      <trkpt lat="42.6281916350" lon="20.0831917953">
        <ele>2130.90</ele>
        <time>2019-07-13T09:41:09Z</time>
      </trkpt>
      <trkpt lat="42.6281623822" lon="20.0828554295">
        <ele>2128.50</ele>
        <time>2019-07-13T09:41:26Z</time>
      </trkpt>
      <trkpt lat="42.6281450316" lon="20.0825732946">
        <ele>2128.50</ele>
        <time>2019-07-13T09:41:42Z</time>
      </trkpt>
      <trkpt lat="42.6281508990" lon="20.0823022239">
        <ele>2129.46</ele>
        <time>2019-07-13T09:41:58Z</time>
      </trkpt>
      <trkpt lat="42.6281338837" lon="20.0822593924">
        <ele>2129.94</ele>
        <time>2019-07-13T09:42:01Z</time>
      </trkpt>
      <trkpt lat="42.6281203050" lon="20.0821421295">
        <ele>2130.90</ele>
        <time>2019-07-13T09:42:08Z</time>
      </trkpt>
      <trkpt lat="42.6280659065" lon="20.0818864815">
        <ele>2129.46</ele>
        <time>2019-07-13T09:42:22Z</time>
      </trkpt>
      <trkpt lat="42.6279788185" lon="20.0816341024">
        <ele>2129.46</ele>
        <time>2019-07-13T09:42:37Z</time>
      </trkpt>
      <trkpt lat="42.6279485598" lon="20.0815235451">
        <ele>2130.90</ele>
        <time>2019-07-13T09:42:44Z</time>
      </trkpt>
      <trkpt lat="42.6279431954" lon="20.0813691504">
        <ele>2131.86</ele>
        <time>2019-07-13T09:42:58Z</time>
      </trkpt>
      <trkpt lat="42.6278902218" lon="20.0812269095">
        <ele>2131.86</ele>
        <time>2019-07-13T09:43:07Z</time>
      </trkpt>
      <trkpt lat="42.6278130244" lon="20.0810148474">
        <ele>2132.34</ele>
        <time>2019-07-13T09:43:21Z</time>
      </trkpt>
      <trkpt lat="42.6277054008" lon="20.0809293520">
        <ele>2132.34</ele>
        <time>2019-07-13T09:43:35Z</time>
      </trkpt>
      <trkpt lat="42.6275432948" lon="20.0808652304">
        <ele>2133.30</ele>
        <time>2019-07-13T09:43:50Z</time>
      </trkpt>
      <trkpt lat="42.6274669357" lon="20.0808218122">
        <ele>2133.30</ele>
        <time>2019-07-13T09:44:05Z</time>
      </trkpt>
      <trkpt lat="42.6274592243" lon="20.0808503944">
        <ele>2133.30</ele>
        <time>2019-07-13T09:44:17Z</time>
      </trkpt>
      <trkpt lat="42.6274614036" lon="20.0808511488">
        <ele>2133.30</ele>
        <time>2019-07-13T09:44:54Z</time>
      </trkpt>
      <trkpt lat="42.6274772454" lon="20.0808402523">
        <ele>2133.30</ele>
        <time>2019-07-13T09:45:25Z</time>
      </trkpt>
      <trkpt lat="42.6274670195" lon="20.0808395818">
        <ele>2133.78</ele>
        <time>2019-07-13T09:45:58Z</time>
      </trkpt>
      <trkpt lat="42.6274654269" lon="20.0808187108">
        <ele>2133.78</ele>
        <time>2019-07-13T09:46:44Z</time>
      </trkpt>
      <trkpt lat="42.6274508424" lon="20.0808282662">
        <ele>2133.78</ele>
        <time>2019-07-13T09:47:29Z</time>
      </trkpt>
      <trkpt lat="42.6274499204" lon="20.0808461197">
        <ele>2133.78</ele>
        <time>2019-07-13T09:48:07Z</time>
      </trkpt>
      <trkpt lat="42.6274571288" lon="20.0808581058">
        <ele>2133.78</ele>
        <time>2019-07-13T09:48:46Z</time>
      </trkpt>
      <trkpt lat="42.6274571288" lon="20.0808527414">
        <ele>2134.26</ele>
        <time>2019-07-13T09:49:22Z</time>
      </trkpt>
      <trkpt lat="42.6274602301" lon="20.0808542501">
        <ele>2134.26</ele>
        <time>2019-07-13T09:49:56Z</time>
      </trkpt>
      <trkpt lat="42.6274667680" lon="20.0808543339">
        <ele>2134.74</ele>
        <time>2019-07-13T09:50:29Z</time>
      </trkpt>
      <trkpt lat="42.6274477411" lon="20.0808784738">
        <ele>2135.23</ele>
        <time>2019-07-13T09:51:10Z</time>
      </trkpt>
      <trkpt lat="42.6274717133" lon="20.0808390789">
        <ele>2135.23</ele>
        <time>2019-07-13T09:51:54Z</time>
      </trkpt>
      <trkpt lat="42.6274680253" lon="20.0808514841">
        <ele>2136.19</ele>
        <time>2019-07-13T09:52:19Z</time>
      </trkpt>
      <trkpt lat="42.6274662651" lon="20.0808043778">
        <ele>2136.19</ele>
        <time>2019-07-13T09:52:40Z</time>
      </trkpt>
      <trkpt lat="42.6273357589" lon="20.0807409268">
        <ele>2136.67</ele>
        <time>2019-07-13T09:52:56Z</time>
      </trkpt>
      <trkpt lat="42.6272605732" lon="20.0806870311">
        <ele>2136.67</ele>
        <time>2019-07-13T09:53:04Z</time>
      </trkpt>
      <trkpt lat="42.6271061786" lon="20.0805217400">
        <ele>2138.59</ele>
        <time>2019-07-13T09:53:21Z</time>
      </trkpt>
      <trkpt lat="42.6269743312" lon="20.0804067403">
        <ele>2139.55</ele>
        <time>2019-07-13T09:53:36Z</time>
      </trkpt>
      <trkpt lat="42.6269467548" lon="20.0803828519">
        <ele>2139.55</ele>
        <time>2019-07-13T09:53:39Z</time>
      </trkpt>
      <trkpt lat="42.6267546415" lon="20.0803156290">
        <ele>2139.55</ele>
        <time>2019-07-13T09:53:56Z</time>
      </trkpt>
      <trkpt lat="42.6265706588" lon="20.0802849513">
        <ele>2139.55</ele>
        <time>2019-07-13T09:54:10Z</time>
      </trkpt>
      <trkpt lat="42.6263532322" lon="20.0802164711">
        <ele>2139.55</ele>
        <time>2019-07-13T09:54:27Z</time>
      </trkpt>
      <trkpt lat="42.6261215564" lon="20.0801360048">
        <ele>2140.99</ele>
        <time>2019-07-13T09:54:45Z</time>
      </trkpt>
      <trkpt lat="42.6261021104" lon="20.0801152177">
        <ele>2140.99</ele>
        <time>2019-07-13T09:54:47Z</time>
      </trkpt>
      <trkpt lat="42.6259737834" lon="20.0800023135">
        <ele>2141.47</ele>
        <time>2019-07-13T09:54:59Z</time>
      </trkpt>
      <trkpt lat="42.6257877890" lon="20.0799348392">
        <ele>2141.47</ele>
        <time>2019-07-13T09:55:14Z</time>
      </trkpt>
      <trkpt lat="42.6256045606" lon="20.0798644312">
        <ele>2142.92</ele>
        <time>2019-07-13T09:55:30Z</time>
      </trkpt>
      <trkpt lat="42.6254818495" lon="20.0798008125">
        <ele>2144.84</ele>
        <time>2019-07-13T09:55:42Z</time>
      </trkpt>
      <trkpt lat="42.6253092661" lon="20.0796941109">
        <ele>2145.80</ele>
        <time>2019-07-13T09:55:57Z</time>
      </trkpt>
      <trkpt lat="42.6252404507" lon="20.0796493515">
        <ele>2146.28</ele>
        <time>2019-07-13T09:56:03Z</time>
      </trkpt>
      <trkpt lat="42.6250614971" lon="20.0795577373">
        <ele>2148.20</ele>
        <time>2019-07-13T09:56:19Z</time>
      </trkpt>
      <trkpt lat="42.6249251235" lon="20.0795100443">
        <ele>2150.13</ele>
        <time>2019-07-13T09:56:32Z</time>
      </trkpt>
      <trkpt lat="42.6247684658" lon="20.0794558972">
        <ele>2151.09</ele>
        <time>2019-07-13T09:56:45Z</time>
      </trkpt>
      <trkpt lat="42.6245627739" lon="20.0793804601">
        <ele>2152.53</ele>
        <time>2019-07-13T09:57:02Z</time>
      </trkpt>
      <trkpt lat="42.6244092174" lon="20.0792854093">
        <ele>2153.97</ele>
        <time>2019-07-13T09:57:16Z</time>
      </trkpt>
      <trkpt lat="42.6242957264" lon="20.0792207010">
        <ele>2155.89</ele>
        <time>2019-07-13T09:57:27Z</time>
      </trkpt>
      <trkpt lat="42.6242091414" lon="20.0792568270">
        <ele>2155.89</ele>
        <time>2019-07-13T09:57:41Z</time>
      </trkpt>
      <trkpt lat="42.6242067106" lon="20.0792502891">
        <ele>2154.93</ele>
        <time>2019-07-13T09:57:59Z</time>
      </trkpt>
      <trkpt lat="42.6242135838" lon="20.0792594254">
        <ele>2154.45</ele>
        <time>2019-07-13T09:58:26Z</time>
      </trkpt>
      <trkpt lat="42.6241879351" lon="20.0792621076">
        <ele>2154.45</ele>
        <time>2019-07-13T09:58:42Z</time>
      </trkpt>
      <trkpt lat="42.6241921261" lon="20.0792802125">
        <ele>2154.45</ele>
        <time>2019-07-13T09:58:59Z</time>
      </trkpt>
      <trkpt lat="42.6241560001" lon="20.0792787038">
        <ele>2154.45</ele>
        <time>2019-07-13T09:59:10Z</time>
      </trkpt>
      <trkpt lat="42.6240636315" lon="20.0792477746">
        <ele>2153.01</ele>
        <time>2019-07-13T09:59:17Z</time>
      </trkpt>
      <trkpt lat="42.6238803193" lon="20.0790986605">
        <ele>2151.09</ele>
        <time>2019-07-13T09:59:32Z</time>
      </trkpt>
      <trkpt lat="42.6238569338" lon="20.0790784601">
        <ele>2151.09</ele>
        <time>2019-07-13T09:59:34Z</time>
      </trkpt>
      <trkpt lat="42.6236242522" lon="20.0789944734">
        <ele>2150.13</ele>
        <time>2019-07-13T09:59:51Z</time>
      </trkpt>
      <trkpt lat="42.6234496571" lon="20.0789068826">
        <ele>2149.65</ele>
        <time>2019-07-13T10:00:06Z</time>
      </trkpt>
      <trkpt lat="42.6232085098" lon="20.0787976664">
        <ele>2149.16</ele>
        <time>2019-07-13T10:00:25Z</time>
      </trkpt>
      <trkpt lat="42.6229711343" lon="20.0787317846">
        <ele>2149.16</ele>
        <time>2019-07-13T10:00:41Z</time>
      </trkpt>
      <trkpt lat="42.6229131315" lon="20.0787443575">
        <ele>2149.16</ele>
        <time>2019-07-13T10:00:46Z</time>
      </trkpt>
      <trkpt lat="42.6228018198" lon="20.0787020288">
        <ele>2148.20</ele>
        <time>2019-07-13T10:00:55Z</time>
      </trkpt>
      <trkpt lat="42.6226247940" lon="20.0785950758">
        <ele>2146.28</ele>
        <time>2019-07-13T10:01:09Z</time>
      </trkpt>
      <trkpt lat="42.6224113908" lon="20.0784937385">
        <ele>2145.80</ele>
        <time>2019-07-13T10:01:25Z</time>
      </trkpt>
      <trkpt lat="42.6222030167" lon="20.0783634838">
        <ele>2145.32</ele>
        <time>2019-07-13T10:01:42Z</time>
      </trkpt>
      <trkpt lat="42.6219887752" lon="20.0782447960">
        <ele>2144.84</ele>
        <time>2019-07-13T10:01:59Z</time>
      </trkpt>
      <trkpt lat="42.6217661519" lon="20.0781111047">
        <ele>2144.84</ele>
        <time>2019-07-13T10:02:17Z</time>
      </trkpt>
      <trkpt lat="42.6215386670" lon="20.0780278724">
        <ele>2145.80</ele>
        <time>2019-07-13T10:02:34Z</time>
      </trkpt>
      <trkpt lat="42.6213494875" lon="20.0779455621">
        <ele>2146.28</ele>
        <time>2019-07-13T10:02:49Z</time>
      </trkpt>
      <trkpt lat="42.6211602241" lon="20.0778435543">
        <ele>2147.72</ele>
        <time>2019-07-13T10:03:05Z</time>
      </trkpt>
      <trkpt lat="42.6209784206" lon="20.0777692907">
        <ele>2148.68</ele>
        <time>2019-07-13T10:03:21Z</time>
      </trkpt>
      <trkpt lat="42.6208412088" lon="20.0776447356">
        <ele>2149.65</ele>
        <time>2019-07-13T10:03:34Z</time>
      </trkpt>
      <trkpt lat="42.6207958627" lon="20.0776024908">
        <ele>2149.65</ele>
        <time>2019-07-13T10:03:38Z</time>
      </trkpt>
      <trkpt lat="42.6206997223" lon="20.0775138941">
        <ele>2148.68</ele>
        <time>2019-07-13T10:03:46Z</time>
      </trkpt>
      <trkpt lat="42.6205195114" lon="20.0773486868">
        <ele>2147.72</ele>
        <time>2019-07-13T10:04:02Z</time>
      </trkpt>
      <trkpt lat="42.6203675475" lon="20.0771567412">
        <ele>2146.76</ele>
        <time>2019-07-13T10:04:18Z</time>
      </trkpt>
      <trkpt lat="42.6202077884" lon="20.0769901089">
        <ele>2145.32</ele>
        <time>2019-07-13T10:04:33Z</time>
      </trkpt>
      <trkpt lat="42.6200180221" lon="20.0770181045">
        <ele>2145.32</ele>
        <time>2019-07-13T10:04:47Z</time>
      </trkpt>
      <trkpt lat="42.6200071257" lon="20.0770161767">
        <ele>2145.32</ele>
        <time>2019-07-13T10:04:48Z</time>
      </trkpt>
      <trkpt lat="42.6197762042" lon="20.0769702438">
        <ele>2145.32</ele>
        <time>2019-07-13T10:05:04Z</time>
      </trkpt>
      <trkpt lat="42.6197322831" lon="20.0769247301">
        <ele>2145.32</ele>
        <time>2019-07-13T10:05:08Z</time>
      </trkpt>
      <trkpt lat="42.6195000205" lon="20.0768543221">
        <ele>2147.24</ele>
        <time>2019-07-13T10:05:26Z</time>
      </trkpt>
      <trkpt lat="42.6192913111" lon="20.0768100657">
        <ele>2147.72</ele>
        <time>2019-07-13T10:05:41Z</time>
      </trkpt>
      <trkpt lat="42.6190995332" lon="20.0767189544">
        <ele>2149.16</ele>
        <time>2019-07-13T10:05:57Z</time>
      </trkpt>
      <trkpt lat="42.6189023070" lon="20.0766404159">
        <ele>2150.13</ele>
        <time>2019-07-13T10:06:12Z</time>
      </trkpt>
      <trkpt lat="42.6186811924" lon="20.0765694212">
        <ele>2150.13</ele>
        <time>2019-07-13T10:06:28Z</time>
      </trkpt>
      <trkpt lat="42.6185362693" lon="20.0764759630">
        <ele>2151.57</ele>
        <time>2019-07-13T10:06:41Z</time>
      </trkpt>
      <trkpt lat="42.6184135582" lon="20.0763623044">
        <ele>2153.01</ele>
        <time>2019-07-13T10:06:53Z</time>
      </trkpt>
      <trkpt lat="42.6183810364" lon="20.0763099175">
        <ele>2153.01</ele>
        <time>2019-07-13T10:06:57Z</time>
      </trkpt>
      <trkpt lat="42.6182465907" lon="20.0761504937">
        <ele>2153.97</ele>
        <time>2019-07-13T10:07:10Z</time>
      </trkpt>
      <trkpt lat="42.6180880889" lon="20.0760248490">
        <ele>2154.93</ele>
        <time>2019-07-13T10:07:24Z</time>
      </trkpt>
      <trkpt lat="42.6179702394" lon="20.0759321451">
        <ele>2155.89</ele>
        <time>2019-07-13T10:07:35Z</time>
      </trkpt>
      <trkpt lat="42.6179664675" lon="20.0759109389">
        <ele>2156.37</ele>
        <time>2019-07-13T10:07:37Z</time>
      </trkpt>
      <trkpt lat="42.6179136615" lon="20.0757628307">
        <ele>2158.78</ele>
        <time>2019-07-13T10:07:51Z</time>
      </trkpt>
      <trkpt lat="42.6178955566" lon="20.0757470727">
        <ele>2159.26</ele>
        <time>2019-07-13T10:08:03Z</time>
      </trkpt>
      <trkpt lat="42.6178931259" lon="20.0757459830">
        <ele>2160.22</ele>
        <time>2019-07-13T10:08:23Z</time>
      </trkpt>
      <trkpt lat="42.6178977359" lon="20.0757520180">
        <ele>2160.22</ele>
        <time>2019-07-13T10:08:37Z</time>
      </trkpt>
      <trkpt lat="42.6178992447" lon="20.0757386908">
        <ele>2160.22</ele>
        <time>2019-07-13T10:09:00Z</time>
      </trkpt>
      <trkpt lat="42.6179024298" lon="20.0757381879">
        <ele>2158.78</ele>
        <time>2019-07-13T10:09:25Z</time>
      </trkpt>
      <trkpt lat="42.6179090515" lon="20.0757495034">
        <ele>2158.78</ele>
        <time>2019-07-13T10:09:55Z</time>
      </trkpt>
      <trkpt lat="42.6179050282" lon="20.0757427979">
        <ele>2159.26</ele>
        <time>2019-07-13T10:10:21Z</time>
      </trkpt>
      <trkpt lat="42.6178850792" lon="20.0757659320">
        <ele>2160.70</ele>
        <time>2019-07-13T10:10:40Z</time>
      </trkpt>
      <trkpt lat="42.6178758591" lon="20.0757513475">
        <ele>2158.30</ele>
        <time>2019-07-13T10:10:53Z</time>
      </trkpt>
      <trkpt lat="42.6178600173" lon="20.0757366791">
        <ele>2157.34</ele>
        <time>2019-07-13T10:10:55Z</time>
      </trkpt>
      <trkpt lat="42.6177439280" lon="20.0756353419">
        <ele>2156.37</ele>
        <time>2019-07-13T10:11:09Z</time>
      </trkpt>
      <trkpt lat="42.6177266613" lon="20.0755705498">
        <ele>2156.37</ele>
        <time>2019-07-13T10:11:14Z</time>
      </trkpt>
      <trkpt lat="42.6176518109" lon="20.0753650256">
        <ele>2153.97</ele>
        <time>2019-07-13T10:11:28Z</time>
      </trkpt>
      <trkpt lat="42.6176040340" lon="20.0751655363">
        <ele>2152.53</ele>
        <time>2019-07-13T10:11:40Z</time>
      </trkpt>
      <trkpt lat="42.6175566763" lon="20.0750274025">
        <ele>2149.16</ele>
        <time>2019-07-13T10:11:49Z</time>
      </trkpt>
      <trkpt lat="42.6175176166" lon="20.0749081280">
        <ele>2147.72</ele>
        <time>2019-07-13T10:11:57Z</time>
      </trkpt>
      <trkpt lat="42.6174653973" lon="20.0746870134">
        <ele>2143.40</ele>
        <time>2019-07-13T10:12:12Z</time>
      </trkpt>
      <trkpt lat="42.6174000185" lon="20.0745192077">
        <ele>2139.55</ele>
        <time>2019-07-13T10:12:24Z</time>
      </trkpt>
      <trkpt lat="42.6173267607" lon="20.0743730273">
        <ele>2136.19</ele>
        <time>2019-07-13T10:12:36Z</time>
      </trkpt>
      <trkpt lat="42.6172797382" lon="20.0742247514">
        <ele>2134.26</ele>
        <time>2019-07-13T10:12:46Z</time>
      </trkpt>
      <trkpt lat="42.6172556821" lon="20.0741071533">
        <ele>2131.86</ele>
        <time>2019-07-13T10:12:53Z</time>
      </trkpt>
      <trkpt lat="42.6171896327" lon="20.0739270262">
        <ele>2128.50</ele>
        <time>2019-07-13T10:13:05Z</time>
      </trkpt>
      <trkpt lat="42.6171855256" lon="20.0738930795">
        <ele>2127.53</ele>
        <time>2019-07-13T10:13:07Z</time>
      </trkpt>
      <trkpt lat="42.6171923149" lon="20.0738234259">
        <ele>2126.09</ele>
        <time>2019-07-13T10:13:12Z</time>
      </trkpt>
      <trkpt lat="42.6171807479" lon="20.0737554487">
        <ele>2124.65</ele>
        <time>2019-07-13T10:13:17Z</time>
      </trkpt>
      <trkpt lat="42.6171540935" lon="20.0735666882">
        <ele>2120.81</ele>
        <time>2019-07-13T10:13:28Z</time>
      </trkpt>
      <trkpt lat="42.6171872858" lon="20.0734878145">
        <ele>2120.32</ele>
        <time>2019-07-13T10:13:34Z</time>
      </trkpt>
      <trkpt lat="42.6171903871" lon="20.0734086893">
        <ele>2119.36</ele>
        <time>2019-07-13T10:13:39Z</time>
      </trkpt>
      <trkpt lat="42.6171809994" lon="20.0731641054">
        <ele>2115.52</ele>
        <time>2019-07-13T10:13:54Z</time>
      </trkpt>
      <trkpt lat="42.6171473041" lon="20.0731158257">
        <ele>2115.52</ele>
        <time>2019-07-13T10:13:58Z</time>
      </trkpt>
      <trkpt lat="42.6171223260" lon="20.0730608404">
        <ele>2114.08</ele>
        <time>2019-07-13T10:14:02Z</time>
      </trkpt>
      <trkpt lat="42.6171047240" lon="20.0729672145">
        <ele>2112.15</ele>
        <time>2019-07-13T10:14:09Z</time>
      </trkpt>
      <trkpt lat="42.6170610543" lon="20.0729506183">
        <ele>2110.71</ele>
        <time>2019-07-13T10:14:13Z</time>
      </trkpt>
      <trkpt lat="42.6170494035" lon="20.0729512889">
        <ele>2110.71</ele>
        <time>2019-07-13T10:14:14Z</time>
      </trkpt>
      <trkpt lat="42.6170277782" lon="20.0729419850">
        <ele>2110.23</ele>
        <time>2019-07-13T10:14:16Z</time>
      </trkpt>
      <trkpt lat="42.6169373374" lon="20.0728588365">
        <ele>2107.83</ele>
        <time>2019-07-13T10:14:25Z</time>
      </trkpt>
      <trkpt lat="42.6168677676" lon="20.0728418212">
        <ele>2105.42</ele>
        <time>2019-07-13T10:14:31Z</time>
      </trkpt>
      <trkpt lat="42.6166864671" lon="20.0727609359">
        <ele>2103.98</ele>
        <time>2019-07-13T10:14:45Z</time>
      </trkpt>
      <trkpt lat="42.6165339164" lon="20.0726249814">
        <ele>2100.14</ele>
        <time>2019-07-13T10:14:59Z</time>
      </trkpt>
      <trkpt lat="42.6164999697" lon="20.0726041943">
        <ele>2099.66</ele>
        <time>2019-07-13T10:15:02Z</time>
      </trkpt>
      <trkpt lat="42.6164512709" lon="20.0726109836">
        <ele>2097.73</ele>
        <time>2019-07-13T10:15:06Z</time>
      </trkpt>
      <trkpt lat="42.6162431482" lon="20.0726308487">
        <ele>2094.37</ele>
        <time>2019-07-13T10:15:21Z</time>
      </trkpt>
      <trkpt lat="42.6161571499" lon="20.0725268293">
        <ele>2093.41</ele>
        <time>2019-07-13T10:15:34Z</time>
      </trkpt>
      <trkpt lat="42.6160667092" lon="20.0724171940">
        <ele>2090.04</ele>
        <time>2019-07-13T10:15:44Z</time>
      </trkpt>
      <trkpt lat="42.6160528790" lon="20.0724056270">
        <ele>2090.04</ele>
        <time>2019-07-13T10:15:45Z</time>
      </trkpt>
      <trkpt lat="42.6159637794" lon="20.0723309442">
        <ele>2088.60</ele>
        <time>2019-07-13T10:15:53Z</time>
      </trkpt>
      <trkpt lat="42.6158031821" lon="20.0722147711">
        <ele>2086.20</ele>
        <time>2019-07-13T10:16:07Z</time>
      </trkpt>
      <trkpt lat="42.6157131605" lon="20.0721427705">
        <ele>2084.28</ele>
        <time>2019-07-13T10:16:15Z</time>
      </trkpt>
      <trkpt lat="42.6156424172" lon="20.0720826723">
        <ele>2081.39</ele>
        <time>2019-07-13T10:16:22Z</time>
      </trkpt>
      <trkpt lat="42.6155528985" lon="20.0720456243">
        <ele>2080.43</ele>
        <time>2019-07-13T10:16:29Z</time>
      </trkpt>
      <trkpt lat="42.6153399143" lon="20.0719096698">
        <ele>2077.55</ele>
        <time>2019-07-13T10:16:46Z</time>
      </trkpt>
      <trkpt lat="42.6151556801" lon="20.0717994478">
        <ele>2074.66</ele>
        <time>2019-07-13T10:17:01Z</time>
      </trkpt>
      <trkpt lat="42.6149397623" lon="20.0717058219">
        <ele>2071.78</ele>
        <time>2019-07-13T10:17:17Z</time>
      </trkpt>
      <trkpt lat="42.6147730462" lon="20.0715970248">
        <ele>2069.38</ele>
        <time>2019-07-13T10:17:31Z</time>
      </trkpt>
      <trkpt lat="42.6145942602" lon="20.0714852940">
        <ele>2066.01</ele>
        <time>2019-07-13T10:17:45Z</time>
      </trkpt>
      <trkpt lat="42.6144928392" lon="20.0714171492">
        <ele>2064.09</ele>
        <time>2019-07-13T10:17:53Z</time>
      </trkpt>
      <trkpt lat="42.6143794321" lon="20.0713414606">
        <ele>2063.61</ele>
        <time>2019-07-13T10:18:02Z</time>
      </trkpt>
      <trkpt lat="42.6143470779" lon="20.0712320767">
        <ele>2060.72</ele>
        <time>2019-07-13T10:18:10Z</time>
      </trkpt>
      <trkpt lat="42.6143208425" lon="20.0711321644">
        <ele>2059.76</ele>
        <time>2019-07-13T10:18:17Z</time>
      </trkpt>
      <trkpt lat="42.6141925156" lon="20.0711148139">
        <ele>2059.28</ele>
        <time>2019-07-13T10:18:28Z</time>
      </trkpt>
      <trkpt lat="42.6140008215" lon="20.0709920190">
        <ele>2057.36</ele>
        <time>2019-07-13T10:18:43Z</time>
      </trkpt>
      <trkpt lat="42.6138558146" lon="20.0708060246">
        <ele>2055.44</ele>
        <time>2019-07-13T10:18:58Z</time>
      </trkpt>
      <trkpt lat="42.6137015875" lon="20.0706672203">
        <ele>2052.55</ele>
        <time>2019-07-13T10:19:11Z</time>
      </trkpt>
      <trkpt lat="42.6135885995" lon="20.0705343671">
        <ele>2050.63</ele>
        <time>2019-07-13T10:19:21Z</time>
      </trkpt>
      <trkpt lat="42.6134585124" lon="20.0703538209">
        <ele>2047.75</ele>
        <time>2019-07-13T10:19:35Z</time>
      </trkpt>
      <trkpt lat="42.6134419162" lon="20.0703202095">
        <ele>2047.26</ele>
        <time>2019-07-13T10:19:37Z</time>
      </trkpt>
      <trkpt lat="42.6133882720" lon="20.0702716783">
        <ele>2045.34</ele>
        <time>2019-07-13T10:19:41Z</time>
      </trkpt>
      <trkpt lat="42.6132738590" lon="20.0701208040">
        <ele>2042.46</ele>
        <time>2019-07-13T10:19:53Z</time>
      </trkpt>
      <trkpt lat="42.6132570952" lon="20.0701001845">
        <ele>2041.50</ele>
        <time>2019-07-13T10:19:55Z</time>
      </trkpt>
      <trkpt lat="42.6131732762" lon="20.0699456222">
        <ele>2038.61</ele>
        <time>2019-07-13T10:20:05Z</time>
      </trkpt>
      <trkpt lat="42.6130850986" lon="20.0698082428">
        <ele>2035.25</ele>
        <time>2019-07-13T10:20:15Z</time>
      </trkpt>
      <trkpt lat="42.6130591147" lon="20.0696622301">
        <ele>2033.33</ele>
        <time>2019-07-13T10:20:24Z</time>
      </trkpt>
      <trkpt lat="42.6129685063" lon="20.0695735496">
        <ele>2029.96</ele>
        <time>2019-07-13T10:20:32Z</time>
      </trkpt>
      <trkpt lat="42.6129048038" lon="20.0695437938">
        <ele>2029.00</ele>
        <time>2019-07-13T10:20:37Z</time>
      </trkpt>
      <trkpt lat="42.6128676720" lon="20.0695406087">
        <ele>2027.56</ele>
        <time>2019-07-13T10:20:40Z</time>
      </trkpt>
      <trkpt lat="42.6127378363" lon="20.0695133675">
        <ele>2023.71</ele>
        <time>2019-07-13T10:20:50Z</time>
      </trkpt>
      <trkpt lat="42.6126727089" lon="20.0695002917">
        <ele>2022.27</ele>
        <time>2019-07-13T10:20:55Z</time>
      </trkpt>
      <trkpt lat="42.6126475632" lon="20.0695045665">
        <ele>2021.79</ele>
        <time>2019-07-13T10:20:57Z</time>
      </trkpt>
      <trkpt lat="42.6125817653" lon="20.0694335718">
        <ele>2019.39</ele>
        <time>2019-07-13T10:21:04Z</time>
      </trkpt>
      <trkpt lat="42.6125543565" lon="20.0694312248">
        <ele>2018.91</ele>
        <time>2019-07-13T10:21:06Z</time>
      </trkpt>
      <trkpt lat="42.6124413684" lon="20.0693634152">
        <ele>2015.06</ele>
        <time>2019-07-13T10:21:15Z</time>
      </trkpt>
      <trkpt lat="42.6123457309" lon="20.0692399498">
        <ele>2012.18</ele>
        <time>2019-07-13T10:21:25Z</time>
      </trkpt>
      <trkpt lat="42.6122170687" lon="20.0691678654">
        <ele>2008.81</ele>
        <time>2019-07-13T10:21:36Z</time>
      </trkpt>
      <trkpt lat="42.6121262088" lon="20.0690936856">
        <ele>2005.93</ele>
        <time>2019-07-13T10:21:44Z</time>
      </trkpt>
      <trkpt lat="42.6121138874" lon="20.0690877344">
        <ele>2005.45</ele>
        <time>2019-07-13T10:21:45Z</time>
      </trkpt>
      <trkpt lat="42.6120683737" lon="20.0690429751">
        <ele>2004.01</ele>
        <time>2019-07-13T10:21:49Z</time>
      </trkpt>
      <trkpt lat="42.6119395439" lon="20.0689639337">
        <ele>2000.64</ele>
        <time>2019-07-13T10:21:59Z</time>
      </trkpt>
      <trkpt lat="42.6119299885" lon="20.0689516123">
        <ele>2000.64</ele>
        <time>2019-07-13T10:22:00Z</time>
      </trkpt>
      <trkpt lat="42.6118404698" lon="20.0688469224">
        <ele>1997.76</ele>
        <time>2019-07-13T10:22:09Z</time>
      </trkpt>
      <trkpt lat="42.6118061878" lon="20.0687834714">
        <ele>1996.32</ele>
        <time>2019-07-13T10:22:14Z</time>
      </trkpt>
      <trkpt lat="42.6117698103" lon="20.0686634425">
        <ele>1993.43</ele>
        <time>2019-07-13T10:22:23Z</time>
      </trkpt>
      <trkpt lat="42.6117684692" lon="20.0685605127">
        <ele>1991.99</ele>
        <time>2019-07-13T10:22:30Z</time>
      </trkpt>
      <trkpt lat="42.6117051858" lon="20.0685371272">
        <ele>1990.07</ele>
        <time>2019-07-13T10:22:36Z</time>
      </trkpt>
      <trkpt lat="42.6115618553" lon="20.0685078744">
        <ele>1986.22</ele>
        <time>2019-07-13T10:22:48Z</time>
      </trkpt>
      <trkpt lat="42.6115330216" lon="20.0685216207">
        <ele>1985.74</ele>
        <time>2019-07-13T10:22:51Z</time>
      </trkpt>
      <trkpt lat="42.6114215422" lon="20.0685090479">
        <ele>1983.34</ele>
        <time>2019-07-13T10:23:00Z</time>
      </trkpt>
      <trkpt lat="42.6113760285" lon="20.0684806332">
        <ele>1982.38</ele>
        <time>2019-07-13T10:23:04Z</time>
      </trkpt>
      <trkpt lat="42.6113366336" lon="20.0684741791">
        <ele>1981.90</ele>
        <time>2019-07-13T10:23:07Z</time>
      </trkpt>
      <trkpt lat="42.6112636272" lon="20.0684708264">
        <ele>1979.49</ele>
        <time>2019-07-13T10:23:14Z</time>
      </trkpt>
      <trkpt lat="42.6112463605" lon="20.0683479477">
        <ele>1977.09</ele>
        <time>2019-07-13T10:23:22Z</time>
      </trkpt>
      <trkpt lat="42.6112259924" lon="20.0683404878">
        <ele>1975.17</ele>
        <time>2019-07-13T10:23:27Z</time>
      </trkpt>
      <trkpt lat="42.6111582667" lon="20.0683127437">
        <ele>1971.80</ele>
        <time>2019-07-13T10:23:37Z</time>
      </trkpt>
      <trkpt lat="42.6111462805" lon="20.0683580898">
        <ele>1971.80</ele>
        <time>2019-07-13T10:23:42Z</time>
      </trkpt>
      <trkpt lat="42.6110834163" lon="20.0683843251">
        <ele>1969.88</ele>
        <time>2019-07-13T10:23:51Z</time>
      </trkpt>
      <trkpt lat="42.6110379864" lon="20.0683466904">
        <ele>1968.44</ele>
        <time>2019-07-13T10:23:58Z</time>
      </trkpt>
      <trkpt lat="42.6109366491" lon="20.0682176091">
        <ele>1967.96</ele>
        <time>2019-07-13T10:24:10Z</time>
      </trkpt>
      <trkpt lat="42.6109296083" lon="20.0681993365">
        <ele>1969.40</ele>
        <time>2019-07-13T10:24:11Z</time>
      </trkpt>
      <trkpt lat="42.6109092403" lon="20.0680632982">
        <ele>1969.88</ele>
        <time>2019-07-13T10:24:19Z</time>
      </trkpt>
      <trkpt lat="42.6108203921" lon="20.0678972527">
        <ele>1969.88</ele>
        <time>2019-07-13T10:24:31Z</time>
      </trkpt>
      <trkpt lat="42.6106489822" lon="20.0676886272">
        <ele>1967.96</ele>
        <time>2019-07-13T10:24:48Z</time>
      </trkpt>
      <trkpt lat="42.6105743833" lon="20.0675141998">
        <ele>1966.99</ele>
        <time>2019-07-13T10:25:01Z</time>
      </trkpt>
      <trkpt lat="42.6104879659" lon="20.0674333982">
        <ele>1966.99</ele>
        <time>2019-07-13T10:25:14Z</time>
      </trkpt>
      <trkpt lat="42.6104613952" lon="20.0674266089">
        <ele>1966.99</ele>
        <time>2019-07-13T10:25:17Z</time>
      </trkpt>
      <trkpt lat="42.6104199048" lon="20.0673614815">
        <ele>1966.99</ele>
        <time>2019-07-13T10:25:22Z</time>
      </trkpt>
      <trkpt lat="42.6103628241" lon="20.0672934204">
        <ele>1966.99</ele>
        <time>2019-07-13T10:25:28Z</time>
      </trkpt>
      <trkpt lat="42.6101862174" lon="20.0672039855">
        <ele>1966.51</ele>
        <time>2019-07-13T10:25:43Z</time>
      </trkpt>
      <trkpt lat="42.6100086048" lon="20.0671586394">
        <ele>1966.03</ele>
        <time>2019-07-13T10:25:57Z</time>
      </trkpt>
      <trkpt lat="42.6098465826" lon="20.0670863874">
        <ele>1964.59</ele>
        <time>2019-07-13T10:26:10Z</time>
      </trkpt>
      <trkpt lat="42.6097040903" lon="20.0670620799">
        <ele>1963.15</ele>
        <time>2019-07-13T10:26:26Z</time>
      </trkpt>
      <trkpt lat="42.6096882485" lon="20.0670427177">
        <ele>1963.15</ele>
        <time>2019-07-13T10:26:46Z</time>
      </trkpt>
      <trkpt lat="42.6097106282" lon="20.0670748204">
        <ele>1963.15</ele>
        <time>2019-07-13T10:27:13Z</time>
      </trkpt>
      <trkpt lat="42.6096873265" lon="20.0670772512">
        <ele>1963.15</ele>
        <time>2019-07-13T10:27:29Z</time>
      </trkpt>
      <trkpt lat="42.6095289085" lon="20.0670836214">
        <ele>1962.67</ele>
        <time>2019-07-13T10:27:43Z</time>
      </trkpt>
      <trkpt lat="42.6094740070" lon="20.0671032351">
        <ele>1962.67</ele>
        <time>2019-07-13T10:27:48Z</time>
      </trkpt>
      <trkpt lat="42.6093258150" lon="20.0671757385">
        <ele>1962.19</ele>
        <time>2019-07-13T10:28:04Z</time>
      </trkpt>
      <trkpt lat="42.6092490368" lon="20.0671702065">
        <ele>1961.71</ele>
        <time>2019-07-13T10:28:20Z</time>
      </trkpt>
      <trkpt lat="42.6092183590" lon="20.0671736430">
        <ele>1961.71</ele>
        <time>2019-07-13T10:28:25Z</time>
      </trkpt>
      <trkpt lat="42.6091108192" lon="20.0672244374">
        <ele>1961.23</ele>
        <time>2019-07-13T10:28:37Z</time>
      </trkpt>
      <trkpt lat="42.6090099011" lon="20.0672583841">
        <ele>1961.23</ele>
        <time>2019-07-13T10:28:47Z</time>
      </trkpt>
      <trkpt lat="42.6088481303" lon="20.0672236830">
        <ele>1960.75</ele>
        <time>2019-07-13T10:29:01Z</time>
      </trkpt>
      <trkpt lat="42.6088384073" lon="20.0672190730">
        <ele>1960.75</ele>
        <time>2019-07-13T10:29:02Z</time>
      </trkpt>
      <trkpt lat="42.6087823324" lon="20.0671914127">
        <ele>1960.75</ele>
        <time>2019-07-13T10:29:06Z</time>
      </trkpt>
      <trkpt lat="42.6086210646" lon="20.0671180710">
        <ele>1958.82</ele>
        <time>2019-07-13T10:29:18Z</time>
      </trkpt>
      <trkpt lat="42.6085990202" lon="20.0671228487">
        <ele>1958.82</ele>
        <time>2019-07-13T10:29:20Z</time>
      </trkpt>
      <trkpt lat="42.6084830146" lon="20.0671273749">
        <ele>1957.38</ele>
        <time>2019-07-13T10:29:29Z</time>
      </trkpt>
      <trkpt lat="42.6083230879" lon="20.0670628343">
        <ele>1954.02</ele>
        <time>2019-07-13T10:29:40Z</time>
      </trkpt>
      <trkpt lat="42.6082430407" lon="20.0670340843">
        <ele>1953.06</ele>
        <time>2019-07-13T10:29:48Z</time>
      </trkpt>
      <trkpt lat="42.6081994548" lon="20.0669998862">
        <ele>1951.61</ele>
        <time>2019-07-13T10:29:52Z</time>
      </trkpt>
      <trkpt lat="42.6081541087" lon="20.0669846311">
        <ele>1950.65</ele>
        <time>2019-07-13T10:29:58Z</time>
      </trkpt>
      <trkpt lat="42.6080814376" lon="20.0669920910">
        <ele>1949.69</ele>
        <time>2019-07-13T10:30:08Z</time>
      </trkpt>
      <trkpt lat="42.6080180705" lon="20.0669793505">
        <ele>1948.73</ele>
        <time>2019-07-13T10:30:13Z</time>
      </trkpt>
      <trkpt lat="42.6079790946" lon="20.0669711363">
        <ele>1948.73</ele>
        <time>2019-07-13T10:30:16Z</time>
      </trkpt>
      <trkpt lat="42.6078894921" lon="20.0668281410">
        <ele>1945.85</ele>
        <time>2019-07-13T10:30:26Z</time>
      </trkpt>
      <trkpt lat="42.6077547949" lon="20.0666924380">
        <ele>1944.40</ele>
        <time>2019-07-13T10:30:39Z</time>
      </trkpt>
      <trkpt lat="42.6076382026" lon="20.0665492751">
        <ele>1941.52</ele>
        <time>2019-07-13T10:30:52Z</time>
      </trkpt>
      <trkpt lat="42.6075910963" lon="20.0664543081">
        <ele>1939.12</ele>
        <time>2019-07-13T10:30:58Z</time>
      </trkpt>
      <trkpt lat="42.6074467599" lon="20.0662225485">
        <ele>1936.71</ele>
        <time>2019-07-13T10:31:14Z</time>
      </trkpt>
      <trkpt lat="42.6073351130" lon="20.0659979973">
        <ele>1935.75</ele>
        <time>2019-07-13T10:31:28Z</time>
      </trkpt>
      <trkpt lat="42.6072139945" lon="20.0658912957">
        <ele>1934.79</ele>
        <time>2019-07-13T10:31:39Z</time>
      </trkpt>
      <trkpt lat="42.6071956381" lon="20.0658855122">
        <ele>1934.31</ele>
        <time>2019-07-13T10:31:42Z</time>
      </trkpt>
      <trkpt lat="42.6072088815" lon="20.0656168722">
        <ele>1931.91</ele>
        <time>2019-07-13T10:31:57Z</time>
      </trkpt>
      <trkpt lat="42.6072380506" lon="20.0655563548">
        <ele>1930.46</ele>
        <time>2019-07-13T10:32:10Z</time>
      </trkpt>
      <trkpt lat="42.6072629448" lon="20.0655315444">
        <ele>1930.46</ele>
        <time>2019-07-13T10:32:28Z</time>
      </trkpt>
      <trkpt lat="42.6073361188" lon="20.0654196460">
        <ele>1928.06</ele>
        <time>2019-07-13T10:32:39Z</time>
      </trkpt>
      <trkpt lat="42.6073767710" lon="20.0653566979">
        <ele>1925.66</ele>
        <time>2019-07-13T10:32:46Z</time>
      </trkpt>
      <trkpt lat="42.6074185129" lon="20.0653582904">
        <ele>1924.22</ele>
        <time>2019-07-13T10:32:50Z</time>
      </trkpt>
      <trkpt lat="42.6074873284" lon="20.0653152075">
        <ele>1920.85</ele>
        <time>2019-07-13T10:32:56Z</time>
      </trkpt>
      <trkpt lat="42.6075728238" lon="20.0652328134">
        <ele>1917.49</ele>
        <time>2019-07-13T10:33:04Z</time>
      </trkpt>
      <trkpt lat="42.6076606661" lon="20.0650686957">
        <ele>1914.12</ele>
        <time>2019-07-13T10:33:14Z</time>
      </trkpt>
      <trkpt lat="42.6077257935" lon="20.0648744032">
        <ele>1910.76</ele>
        <time>2019-07-13T10:33:25Z</time>
      </trkpt>
      <trkpt lat="42.6078470796" lon="20.0647052564">
        <ele>1906.91</ele>
        <time>2019-07-13T10:33:40Z</time>
      </trkpt>
      <trkpt lat="42.6079367660" lon="20.0647194218">
        <ele>1904.03</ele>
        <time>2019-07-13T10:33:49Z</time>
      </trkpt>
      <trkpt lat="42.6080298889" lon="20.0647267979">
        <ele>1901.14</ele>
        <time>2019-07-13T10:33:57Z</time>
      </trkpt>
      <trkpt lat="42.6080832817" lon="20.0647088606">
        <ele>1898.74</ele>
        <time>2019-07-13T10:34:03Z</time>
      </trkpt>
      <trkpt lat="42.6081360038" lon="20.0647189189">
        <ele>1896.82</ele>
        <time>2019-07-13T10:34:08Z</time>
      </trkpt>
      <trkpt lat="42.6081975270" lon="20.0647294801">
        <ele>1893.93</ele>
        <time>2019-07-13T10:34:13Z</time>
      </trkpt>
      <trkpt lat="42.6082093455" lon="20.0647350121">
        <ele>1893.93</ele>
        <time>2019-07-13T10:34:14Z</time>
      </trkpt>
      <trkpt lat="42.6082973555" lon="20.0646657776">
        <ele>1891.05</ele>
        <time>2019-07-13T10:34:24Z</time>
      </trkpt>
      <trkpt lat="42.6083291229" lon="20.0646517798">
        <ele>1889.61</ele>
        <time>2019-07-13T10:34:27Z</time>
      </trkpt>
      <trkpt lat="42.6084441226" lon="20.0646121334">
        <ele>1885.76</ele>
        <time>2019-07-13T10:34:37Z</time>
      </trkpt>
      <trkpt lat="42.6084631495" lon="20.0645727385">
        <ele>1884.80</ele>
        <time>2019-07-13T10:34:40Z</time>
      </trkpt>
      <trkpt lat="42.6085127704" lon="20.0644828007">
        <ele>1881.92</ele>
        <time>2019-07-13T10:34:47Z</time>
      </trkpt>
      <trkpt lat="42.6085040532" lon="20.0644574873">
        <ele>1880.96</ele>
        <time>2019-07-13T10:34:49Z</time>
      </trkpt>
      <trkpt lat="42.6084830984" lon="20.0643282384">
        <ele>1878.07</ele>
        <time>2019-07-13T10:34:56Z</time>
      </trkpt>
      <trkpt lat="42.6084586233" lon="20.0642885081">
        <ele>1876.63</ele>
        <time>2019-07-13T10:35:00Z</time>
      </trkpt>
      <trkpt lat="42.6084197313" lon="20.0642209500">
        <ele>1873.75</ele>
        <time>2019-07-13T10:35:06Z</time>
      </trkpt>
      <trkpt lat="42.6083252672" lon="20.0640262384">
        <ele>1871.34</ele>
        <time>2019-07-13T10:35:19Z</time>
      </trkpt>
      <trkpt lat="42.6082030591" lon="20.0638619531">
        <ele>1869.42</ele>
        <time>2019-07-13T10:35:32Z</time>
      </trkpt>
      <trkpt lat="42.6081258617" lon="20.0637705904">
        <ele>1867.02</ele>
        <time>2019-07-13T10:35:42Z</time>
      </trkpt>
      <trkpt lat="42.6080961898" lon="20.0636785571">
        <ele>1864.61</ele>
        <time>2019-07-13T10:35:48Z</time>
      </trkpt>
      <trkpt lat="42.6079987083" lon="20.0635393336">
        <ele>1861.25</ele>
        <time>2019-07-13T10:36:00Z</time>
      </trkpt>
      <trkpt lat="42.6079189125" lon="20.0635338854">
        <ele>1858.37</ele>
        <time>2019-07-13T10:36:11Z</time>
      </trkpt>
      <trkpt lat="42.6078762487" lon="20.0635448657">
        <ele>1857.40</ele>
        <time>2019-07-13T10:36:15Z</time>
      </trkpt>
      <trkpt lat="42.6078196708" lon="20.0635247491">
        <ele>1854.52</ele>
        <time>2019-07-13T10:36:20Z</time>
      </trkpt>
      <trkpt lat="42.6077174116" lon="20.0634789001">
        <ele>1852.12</ele>
        <time>2019-07-13T10:36:32Z</time>
      </trkpt>
      <trkpt lat="42.6076731551" lon="20.0634862762">
        <ele>1849.71</ele>
        <time>2019-07-13T10:36:43Z</time>
      </trkpt>
      <trkpt lat="42.6076601632" lon="20.0634859409">
        <ele>1849.23</ele>
        <time>2019-07-13T10:36:45Z</time>
      </trkpt>
      <trkpt lat="42.6076447405" lon="20.0634794869">
        <ele>1848.27</ele>
        <time>2019-07-13T10:36:47Z</time>
      </trkpt>
      <trkpt lat="42.6076142304" lon="20.0634515751">
        <ele>1846.83</ele>
        <time>2019-07-13T10:36:52Z</time>
      </trkpt>
      <trkpt lat="42.6076408010" lon="20.0633647386">
        <ele>1844.43</ele>
        <time>2019-07-13T10:36:57Z</time>
      </trkpt>
      <trkpt lat="42.6075904258" lon="20.0633302052">
        <ele>1842.50</ele>
        <time>2019-07-13T10:37:03Z</time>
      </trkpt>
      <trkpt lat="42.6075232867" lon="20.0632986892">
        <ele>1841.06</ele>
        <time>2019-07-13T10:37:09Z</time>
      </trkpt>
      <trkpt lat="42.6075035054" lon="20.0632580370">
        <ele>1839.62</ele>
        <time>2019-07-13T10:37:12Z</time>
      </trkpt>
      <trkpt lat="42.6074913517" lon="20.0631155446">
        <ele>1835.77</ele>
        <time>2019-07-13T10:37:21Z</time>
      </trkpt>
      <trkpt lat="42.6074857358" lon="20.0630707014">
        <ele>1835.29</ele>
        <time>2019-07-13T10:37:23Z</time>
      </trkpt>
      <trkpt lat="42.6075510308" lon="20.0629755668">
        <ele>1831.93</ele>
        <time>2019-07-13T10:37:32Z</time>
      </trkpt>
      <trkpt lat="42.6076130569" lon="20.0628605671">
        <ele>1829.05</ele>
        <time>2019-07-13T10:37:41Z</time>
      </trkpt>
      <trkpt lat="42.6076794416" lon="20.0627521891">
        <ele>1825.20</ele>
        <time>2019-07-13T10:37:50Z</time>
      </trkpt>
      <trkpt lat="42.6077169087" lon="20.0627062563">
        <ele>1824.72</ele>
        <time>2019-07-13T10:37:55Z</time>
      </trkpt>
      <trkpt lat="42.6077376120" lon="20.0626132172">
        <ele>1822.32</ele>
        <time>2019-07-13T10:38:01Z</time>
      </trkpt>
      <trkpt lat="42.6077609137" lon="20.0625749957">
        <ele>1820.39</ele>
        <time>2019-07-13T10:38:04Z</time>
      </trkpt>
      <trkpt lat="42.6077525318" lon="20.0625230279">
        <ele>1818.47</ele>
        <time>2019-07-13T10:38:07Z</time>
      </trkpt>
      <trkpt lat="42.6077652723" lon="20.0624791905">
        <ele>1817.03</ele>
        <time>2019-07-13T10:38:10Z</time>
      </trkpt>
      <trkpt lat="42.6077956986" lon="20.0624537934">
        <ele>1816.55</ele>
        <time>2019-07-13T10:38:13Z</time>
      </trkpt>
      <trkpt lat="42.6078122109" lon="20.0624138117">
        <ele>1814.63</ele>
        <time>2019-07-13T10:38:16Z</time>
      </trkpt>
      <trkpt lat="42.6078497618" lon="20.0623126421">
        <ele>1811.26</ele>
        <time>2019-07-13T10:38:24Z</time>
      </trkpt>
      <trkpt lat="42.6078819484" lon="20.0622185133">
        <ele>1808.86</ele>
        <time>2019-07-13T10:38:30Z</time>
      </trkpt>
      <trkpt lat="42.6079483330" lon="20.0621284079">
        <ele>1806.45</ele>
        <time>2019-07-13T10:38:38Z</time>
      </trkpt>
      <trkpt lat="42.6079899073" lon="20.0620833971">
        <ele>1804.53</ele>
        <time>2019-07-13T10:38:43Z</time>
      </trkpt>
      <trkpt lat="42.6080399472" lon="20.0620486960">
        <ele>1802.13</ele>
        <time>2019-07-13T10:38:50Z</time>
      </trkpt>
      <trkpt lat="42.6080465689" lon="20.0620478578">
        <ele>1801.65</ele>
        <time>2019-07-13T10:38:56Z</time>
      </trkpt>
      <trkpt lat="42.6081046555" lon="20.0619165134">
        <ele>1797.32</ele>
        <time>2019-07-13T10:39:06Z</time>
      </trkpt>
      <trkpt lat="42.6081195753" lon="20.0619010907">
        <ele>1796.84</ele>
        <time>2019-07-13T10:39:08Z</time>
      </trkpt>
      <trkpt lat="42.6081692800" lon="20.0618818961">
        <ele>1794.92</ele>
        <time>2019-07-13T10:39:12Z</time>
      </trkpt>
      <trkpt lat="42.6082582958" lon="20.0617187005">
        <ele>1791.07</ele>
        <time>2019-07-13T10:39:25Z</time>
      </trkpt>
      <trkpt lat="42.6082675997" lon="20.0616916269">
        <ele>1790.59</ele>
        <time>2019-07-13T10:39:27Z</time>
      </trkpt>
      <trkpt lat="42.6082619838" lon="20.0616392400">
        <ele>1789.15</ele>
        <time>2019-07-13T10:39:31Z</time>
      </trkpt>
      <trkpt lat="42.6082904823" lon="20.0615980849">
        <ele>1788.67</ele>
        <time>2019-07-13T10:39:34Z</time>
      </trkpt>
      <trkpt lat="42.6082984451" lon="20.0615252461">
        <ele>1786.75</ele>
        <time>2019-07-13T10:39:39Z</time>
      </trkpt>
      <trkpt lat="42.6082793344" lon="20.0614996813">
        <ele>1786.27</ele>
        <time>2019-07-13T10:39:42Z</time>
      </trkpt>
      <trkpt lat="42.6082736347" lon="20.0614324585">
        <ele>1784.34</ele>
        <time>2019-07-13T10:39:49Z</time>
      </trkpt>
      <trkpt lat="42.6083071623" lon="20.0613612123">
        <ele>1782.42</ele>
        <time>2019-07-13T10:40:03Z</time>
      </trkpt>
      <trkpt lat="42.6083455514" lon="20.0612872001">
        <ele>1780.98</ele>
        <time>2019-07-13T10:40:17Z</time>
      </trkpt>
      <trkpt lat="42.6084164623" lon="20.0611860305">
        <ele>1777.61</ele>
        <time>2019-07-13T10:40:30Z</time>
      </trkpt>
      <trkpt lat="42.6084158756" lon="20.0611696858">
        <ele>1777.61</ele>
        <time>2019-07-13T10:40:31Z</time>
      </trkpt>
      <trkpt lat="42.6084246766" lon="20.0611085817">
        <ele>1775.69</ele>
        <time>2019-07-13T10:40:35Z</time>
      </trkpt>
      <trkpt lat="42.6083914004" lon="20.0610300433">
        <ele>1772.81</ele>
        <time>2019-07-13T10:40:51Z</time>
      </trkpt>
      <trkpt lat="42.6083995309" lon="20.0610136148">
        <ele>1772.81</ele>
        <time>2019-07-13T10:41:03Z</time>
      </trkpt>
      <trkpt lat="42.6084209885" lon="20.0609787460">
        <ele>1772.33</ele>
        <time>2019-07-13T10:41:06Z</time>
      </trkpt>
      <trkpt lat="42.6083949208" lon="20.0608754810">
        <ele>1769.44</ele>
        <time>2019-07-13T10:41:13Z</time>
      </trkpt>
      <trkpt lat="42.6083617285" lon="20.0607548654">
        <ele>1766.08</ele>
        <time>2019-07-13T10:41:22Z</time>
      </trkpt>
      <trkpt lat="42.6083596330" lon="20.0607392751">
        <ele>1766.08</ele>
        <time>2019-07-13T10:41:23Z</time>
      </trkpt>
      <trkpt lat="42.6083476469" lon="20.0606759079">
        <ele>1764.16</ele>
        <time>2019-07-13T10:41:27Z</time>
      </trkpt>
      <trkpt lat="42.6083135325" lon="20.0605305657">
        <ele>1762.23</ele>
        <time>2019-07-13T10:41:36Z</time>
      </trkpt>
      <trkpt lat="42.6082533505" lon="20.0605095271">
        <ele>1762.23</ele>
        <time>2019-07-13T10:41:42Z</time>
      </trkpt>
      <trkpt lat="42.6082311384" lon="20.0605494250">
        <ele>1761.75</ele>
        <time>2019-07-13T10:41:46Z</time>
      </trkpt>
      <trkpt lat="42.6081940066" lon="20.0605613273">
        <ele>1760.31</ele>
        <time>2019-07-13T10:41:50Z</time>
      </trkpt>
      <trkpt lat="42.6081526838" lon="20.0605680328">
        <ele>1759.83</ele>
        <time>2019-07-13T10:41:55Z</time>
      </trkpt>
      <trkpt lat="42.6080068387" lon="20.0606538635">
        <ele>1756.95</ele>
        <time>2019-07-13T10:42:10Z</time>
      </trkpt>
      <trkpt lat="42.6078603230" lon="20.0606990419">
        <ele>1754.54</ele>
        <time>2019-07-13T10:42:23Z</time>
      </trkpt>
      <trkpt lat="42.6077557169" lon="20.0607111957">
        <ele>1751.66</ele>
        <time>2019-07-13T10:42:34Z</time>
      </trkpt>
      <trkpt lat="42.6077156514" lon="20.0607040711">
        <ele>1750.22</ele>
        <time>2019-07-13T10:42:38Z</time>
      </trkpt>
      <trkpt lat="42.6077053417" lon="20.0607032329">
        <ele>1749.74</ele>
        <time>2019-07-13T10:42:39Z</time>
      </trkpt>
      <trkpt lat="42.6076518651" lon="20.0606395304">
        <ele>1746.37</ele>
        <time>2019-07-13T10:42:45Z</time>
      </trkpt>
      <trkpt lat="42.6076341793" lon="20.0606241915">
        <ele>1745.41</ele>
        <time>2019-07-13T10:42:47Z</time>
      </trkpt>
      <trkpt lat="42.6075819600" lon="20.0605378579">
        <ele>1744.93</ele>
        <time>2019-07-13T10:42:54Z</time>
      </trkpt>
      <trkpt lat="42.6075588260" lon="20.0605164841">
        <ele>1744.45</ele>
        <time>2019-07-13T10:43:12Z</time>
      </trkpt>
      <trkpt lat="42.6075250469" lon="20.0604879856">
        <ele>1744.45</ele>
        <time>2019-07-13T10:43:22Z</time>
      </trkpt>
      <trkpt lat="42.6075387932" lon="20.0604348443">
        <ele>1742.53</ele>
        <time>2019-07-13T10:43:28Z</time>
      </trkpt>
      <trkpt lat="42.6075441577" lon="20.0603791047">
        <ele>1741.08</ele>
        <time>2019-07-13T10:43:32Z</time>
      </trkpt>
      <trkpt lat="42.6075198501" lon="20.0602725707">
        <ele>1738.20</ele>
        <time>2019-07-13T10:43:42Z</time>
      </trkpt>
      <trkpt lat="42.6075324230" lon="20.0602287333">
        <ele>1736.76</ele>
        <time>2019-07-13T10:43:46Z</time>
      </trkpt>
      <trkpt lat="42.6075515337" lon="20.0601351075">
        <ele>1733.88</ele>
        <time>2019-07-13T10:43:52Z</time>
      </trkpt>
      <trkpt lat="42.6075681299" lon="20.0600788649">
        <ele>1731.95</ele>
        <time>2019-07-13T10:43:56Z</time>
      </trkpt>
      <trkpt lat="42.6075416431" lon="20.0600441638">
        <ele>1730.99</ele>
        <time>2019-07-13T10:43:59Z</time>
      </trkpt>
      <trkpt lat="42.6074806228" lon="20.0600827206">
        <ele>1730.03</ele>
        <time>2019-07-13T10:44:05Z</time>
      </trkpt>
      <trkpt lat="42.6074505318" lon="20.0600766856">
        <ele>1728.59</ele>
        <time>2019-07-13T10:44:08Z</time>
      </trkpt>
      <trkpt lat="42.6074211113" lon="20.0600369554">
        <ele>1727.63</ele>
        <time>2019-07-13T10:44:12Z</time>
      </trkpt>
      <trkpt lat="42.6073630247" lon="20.0600158330">
        <ele>1725.22</ele>
        <time>2019-07-13T10:44:21Z</time>
      </trkpt>
      <trkpt lat="42.6073316764" lon="20.0600315072">
        <ele>1721.86</ele>
        <time>2019-07-13T10:44:29Z</time>
      </trkpt>
      <trkpt lat="42.6073114760" lon="20.0599996559">
        <ele>1720.42</ele>
        <time>2019-07-13T10:44:32Z</time>
      </trkpt>
      <trkpt lat="42.6072993223" lon="20.0600191858">
        <ele>1719.46</ele>
        <time>2019-07-13T10:44:34Z</time>
      </trkpt>
      <trkpt lat="42.6072832290" lon="20.0600421522">
        <ele>1718.97</ele>
        <time>2019-07-13T10:44:36Z</time>
      </trkpt>
      <trkpt lat="42.6072233822" lon="20.0600180123">
        <ele>1718.49</ele>
        <time>2019-07-13T10:44:43Z</time>
      </trkpt>
      <trkpt lat="42.6072026789" lon="20.0599490292">
        <ele>1718.01</ele>
        <time>2019-07-13T10:44:47Z</time>
      </trkpt>
      <trkpt lat="42.6071657147" lon="20.0598050281">
        <ele>1714.65</ele>
        <time>2019-07-13T10:44:57Z</time>
      </trkpt>
      <trkpt lat="42.6071278285" lon="20.0597529765">
        <ele>1713.69</ele>
        <time>2019-07-13T10:45:02Z</time>
      </trkpt>
      <trkpt lat="42.6070558280" lon="20.0597394817">
        <ele>1711.28</ele>
        <time>2019-07-13T10:45:09Z</time>
      </trkpt>
      <trkpt lat="42.6070476975" lon="20.0596420001">
        <ele>1707.44</ele>
        <time>2019-07-13T10:45:19Z</time>
      </trkpt>
      <trkpt lat="42.6070536487" lon="20.0596341211">
        <ele>1706.96</ele>
        <time>2019-07-13T10:45:20Z</time>
      </trkpt>
      <trkpt lat="42.6070386451" lon="20.0595549960">
        <ele>1703.11</ele>
        <time>2019-07-13T10:45:29Z</time>
      </trkpt>
      <trkpt lat="42.6070388965" lon="20.0594886113">
        <ele>1699.75</ele>
        <time>2019-07-13T10:45:39Z</time>
      </trkpt>
      <trkpt lat="42.6070093922" lon="20.0593859330">
        <ele>1696.38</ele>
        <time>2019-07-13T10:45:50Z</time>
      </trkpt>
      <trkpt lat="42.6070109010" lon="20.0593721028">
        <ele>1695.90</ele>
        <time>2019-07-13T10:45:52Z</time>
      </trkpt>
      <trkpt lat="42.6069923770" lon="20.0593596138">
        <ele>1694.94</ele>
        <time>2019-07-13T10:45:55Z</time>
      </trkpt>
      <trkpt lat="42.6069273334" lon="20.0593329594">
        <ele>1692.06</ele>
        <time>2019-07-13T10:46:04Z</time>
      </trkpt>
      <trkpt lat="42.6068931352" lon="20.0592695083">
        <ele>1690.14</ele>
        <time>2019-07-13T10:46:09Z</time>
      </trkpt>
      <trkpt lat="42.6068415865" lon="20.0592578575">
        <ele>1688.69</ele>
        <time>2019-07-13T10:46:14Z</time>
      </trkpt>
      <trkpt lat="42.6068023592" lon="20.0591934845">
        <ele>1686.77</ele>
        <time>2019-07-13T10:46:20Z</time>
      </trkpt>
      <trkpt lat="42.6067986712" lon="20.0591556821">
        <ele>1685.33</ele>
        <time>2019-07-13T10:46:23Z</time>
      </trkpt>
      <trkpt lat="42.6068185363" lon="20.0591056421">
        <ele>1683.41</ele>
        <time>2019-07-13T10:46:28Z</time>
      </trkpt>
      <trkpt lat="42.6069152635" lon="20.0590203144">
        <ele>1680.52</ele>
        <time>2019-07-13T10:46:38Z</time>
      </trkpt>
      <trkpt lat="42.6069981605" lon="20.0589401834">
        <ele>1677.16</ele>
        <time>2019-07-13T10:46:49Z</time>
      </trkpt>
      <trkpt lat="42.6069834083" lon="20.0589197315">
        <ele>1676.68</ele>
        <time>2019-07-13T10:46:51Z</time>
      </trkpt>
      <trkpt lat="42.6068585180" lon="20.0588095095">
        <ele>1673.79</ele>
        <time>2019-07-13T10:47:03Z</time>
      </trkpt>
      <trkpt lat="42.6068088971" lon="20.0587453041">
        <ele>1671.39</ele>
        <time>2019-07-13T10:47:09Z</time>
      </trkpt>
      <trkpt lat="42.6068071369" lon="20.0587378442">
        <ele>1671.39</ele>
        <time>2019-07-13T10:47:10Z</time>
      </trkpt>
      <trkpt lat="42.6067993417" lon="20.0587076694">
        <ele>1669.95</ele>
        <time>2019-07-13T10:47:13Z</time>
      </trkpt>
      <trkpt lat="42.6067869365" lon="20.0586941745">
        <ele>1669.47</ele>
        <time>2019-07-13T10:47:15Z</time>
      </trkpt>
      <trkpt lat="42.6066793129" lon="20.0586390216">
        <ele>1666.58</ele>
        <time>2019-07-13T10:47:26Z</time>
      </trkpt>
      <trkpt lat="42.6066439413" lon="20.0586114451">
        <ele>1664.66</ele>
        <time>2019-07-13T10:47:32Z</time>
      </trkpt>
      <trkpt lat="42.6066483837" lon="20.0586040691">
        <ele>1664.66</ele>
        <time>2019-07-13T10:47:33Z</time>
      </trkpt>
      <trkpt lat="42.6067109127" lon="20.0585395284">
        <ele>1662.26</ele>
        <time>2019-07-13T10:47:40Z</time>
      </trkpt>
      <trkpt lat="42.6067058835" lon="20.0584618282">
        <ele>1661.30</ele>
        <time>2019-07-13T10:47:46Z</time>
      </trkpt>
      <trkpt lat="42.6066677459" lon="20.0584618282">
        <ele>1660.81</ele>
        <time>2019-07-13T10:47:50Z</time>
      </trkpt>
      <trkpt lat="42.6066280995" lon="20.0584209245">
        <ele>1658.41</ele>
        <time>2019-07-13T10:47:55Z</time>
      </trkpt>
      <trkpt lat="42.6066058036" lon="20.0583837926">
        <ele>1656.01</ele>
        <time>2019-07-13T10:48:01Z</time>
      </trkpt>
      <trkpt lat="42.6066231541" lon="20.0582760852">
        <ele>1653.12</ele>
        <time>2019-07-13T10:48:14Z</time>
      </trkpt>
      <trkpt lat="42.6066189632" lon="20.0582092814">
        <ele>1650.24</ele>
        <time>2019-07-13T10:48:21Z</time>
      </trkpt>
      <trkpt lat="42.6066444442" lon="20.0581871532">
        <ele>1649.28</ele>
        <time>2019-07-13T10:48:24Z</time>
      </trkpt>
      <trkpt lat="42.6066982560" lon="20.0581742451">
        <ele>1647.36</ele>
        <time>2019-07-13T10:48:32Z</time>
      </trkpt>
      <trkpt lat="42.6066848449" lon="20.0581124704">
        <ele>1645.91</ele>
        <time>2019-07-13T10:48:49Z</time>
      </trkpt>
      <trkpt lat="42.6066945679" lon="20.0580828823">
        <ele>1644.47</ele>
        <time>2019-07-13T10:48:58Z</time>
      </trkpt>
      <trkpt lat="42.6067213062" lon="20.0580736622">
        <ele>1643.99</ele>
        <time>2019-07-13T10:49:02Z</time>
      </trkpt>
      <trkpt lat="42.6068093162" lon="20.0579821318">
        <ele>1639.19</ele>
        <time>2019-07-13T10:49:10Z</time>
      </trkpt>
      <trkpt lat="42.6068477891" lon="20.0579422340">
        <ele>1638.22</ele>
        <time>2019-07-13T10:49:14Z</time>
      </trkpt>
      <trkpt lat="42.6068627089" lon="20.0579162501">
        <ele>1636.78</ele>
        <time>2019-07-13T10:49:16Z</time>
      </trkpt>
      <trkpt lat="42.6068895310" lon="20.0578850694">
        <ele>1635.82</ele>
        <time>2019-07-13T10:49:19Z</time>
      </trkpt>
      <trkpt lat="42.6069306862" lon="20.0578563195">
        <ele>1635.34</ele>
        <time>2019-07-13T10:49:24Z</time>
      </trkpt>
      <trkpt lat="42.6070383936" lon="20.0578448363">
        <ele>1632.94</ele>
        <time>2019-07-13T10:49:34Z</time>
      </trkpt>
      <trkpt lat="42.6070961449" lon="20.0577766076">
        <ele>1629.09</ele>
        <time>2019-07-13T10:49:47Z</time>
      </trkpt>
      <trkpt lat="42.6071424130" lon="20.0577227119">
        <ele>1625.25</ele>
        <time>2019-07-13T10:49:57Z</time>
      </trkpt>
      <trkpt lat="42.6071637869" lon="20.0577014219">
        <ele>1623.80</ele>
        <time>2019-07-13T10:50:03Z</time>
      </trkpt>
      <trkpt lat="42.6071560755" lon="20.0576812215">
        <ele>1622.84</ele>
        <time>2019-07-13T10:50:05Z</time>
      </trkpt>
      <trkpt lat="42.6071612723" lon="20.0575784594">
        <ele>1619.00</ele>
        <time>2019-07-13T10:50:15Z</time>
      </trkpt>
      <trkpt lat="42.6071583387" lon="20.0575612765">
        <ele>1619.00</ele>
        <time>2019-07-13T10:50:16Z</time>
      </trkpt>
      <trkpt lat="42.6071239728" lon="20.0574775413">
        <ele>1617.07</ele>
        <time>2019-07-13T10:50:21Z</time>
      </trkpt>
      <trkpt lat="42.6070324425" lon="20.0574001763">
        <ele>1615.15</ele>
        <time>2019-07-13T10:50:35Z</time>
      </trkpt>
      <trkpt lat="42.6070516370" lon="20.0573881902">
        <ele>1614.19</ele>
        <time>2019-07-13T10:50:49Z</time>
      </trkpt>
      <trkpt lat="42.6070582587" lon="20.0573831610">
        <ele>1614.19</ele>
        <time>2019-07-13T10:50:50Z</time>
      </trkpt>
      <trkpt lat="42.6070818957" lon="20.0573530700">
        <ele>1614.19</ele>
        <time>2019-07-13T10:50:53Z</time>
      </trkpt>
      <trkpt lat="42.6071973983" lon="20.0572585221">
        <ele>1611.31</ele>
        <time>2019-07-13T10:51:06Z</time>
      </trkpt>
      <trkpt lat="42.6072298363" lon="20.0571638905">
        <ele>1607.94</ele>
        <time>2019-07-13T10:51:15Z</time>
      </trkpt>
      <trkpt lat="42.6072418224" lon="20.0571148563">
        <ele>1607.46</ele>
        <time>2019-07-13T10:51:19Z</time>
      </trkpt>
      <trkpt lat="42.6072197780" lon="20.0569911394">
        <ele>1605.06</ele>
        <time>2019-07-13T10:51:27Z</time>
      </trkpt>
      <trkpt lat="42.6071945485" lon="20.0568889640">
        <ele>1602.17</ele>
        <time>2019-07-13T10:51:35Z</time>
      </trkpt>
      <trkpt lat="42.6071773656" lon="20.0568516646">
        <ele>1601.69</ele>
        <time>2019-07-13T10:51:39Z</time>
      </trkpt>
      <trkpt lat="42.6071606856" lon="20.0567699410">
        <ele>1601.21</ele>
        <time>2019-07-13T10:51:45Z</time>
      </trkpt>
      <trkpt lat="42.6071821433" lon="20.0566514209">
        <ele>1597.37</ele>
        <time>2019-07-13T10:51:54Z</time>
      </trkpt>
      <trkpt lat="42.6071958896" lon="20.0566239282">
        <ele>1596.89</ele>
        <time>2019-07-13T10:51:56Z</time>
      </trkpt>
      <trkpt lat="42.6071735099" lon="20.0564681925">
        <ele>1594.48</ele>
        <time>2019-07-13T10:52:08Z</time>
      </trkpt>
      <trkpt lat="42.6071576681" lon="20.0564187393">
        <ele>1593.52</ele>
        <time>2019-07-13T10:52:22Z</time>
      </trkpt>
      <trkpt lat="42.6071269065" lon="20.0563074276">
        <ele>1591.60</ele>
        <time>2019-07-13T10:52:31Z</time>
      </trkpt>
      <trkpt lat="42.6071072929" lon="20.0561501831">
        <ele>1588.24</ele>
        <time>2019-07-13T10:52:43Z</time>
      </trkpt>
      <trkpt lat="42.6070729271" lon="20.0559986383">
        <ele>1586.31</ele>
        <time>2019-07-13T10:52:54Z</time>
      </trkpt>
      <trkpt lat="42.6070556603" lon="20.0558594149">
        <ele>1582.95</ele>
        <time>2019-07-13T10:53:05Z</time>
      </trkpt>
      <trkpt lat="42.6070485357" lon="20.0558392983">
        <ele>1582.47</ele>
        <time>2019-07-13T10:53:07Z</time>
      </trkpt>
      <trkpt lat="42.6070057042" lon="20.0557672139">
        <ele>1579.58</ele>
        <time>2019-07-13T10:53:20Z</time>
      </trkpt>
      <trkpt lat="42.6070034411" lon="20.0557185989">
        <ele>1578.14</ele>
        <time>2019-07-13T10:53:31Z</time>
      </trkpt>
      <trkpt lat="42.6070088055" lon="20.0557111390">
        <ele>1577.66</ele>
        <time>2019-07-13T10:53:44Z</time>
      </trkpt>
      <trkpt lat="42.6070116553" lon="20.0557141565">
        <ele>1577.66</ele>
        <time>2019-07-13T10:53:49Z</time>
      </trkpt>
      <trkpt lat="42.6070359629" lon="20.0557024218">
        <ele>1577.66</ele>
        <time>2019-07-13T10:53:52Z</time>
      </trkpt>
      <trkpt lat="42.6070229709" lon="20.0556566566">
        <ele>1577.18</ele>
        <time>2019-07-13T10:53:56Z</time>
      </trkpt>
      <trkpt lat="42.6069865096" lon="20.0555138290">
        <ele>1575.26</ele>
        <time>2019-07-13T10:54:04Z</time>
      </trkpt>
      <trkpt lat="42.6069466956" lon="20.0552640483">
        <ele>1571.89</ele>
        <time>2019-07-13T10:54:19Z</time>
      </trkpt>
      <trkpt lat="42.6069346257" lon="20.0550895371">
        <ele>1569.49</ele>
        <time>2019-07-13T10:54:33Z</time>
      </trkpt>
      <trkpt lat="42.6069202088" lon="20.0549972523">
        <ele>1566.61</ele>
        <time>2019-07-13T10:54:41Z</time>
      </trkpt>
      <trkpt lat="42.6069405768" lon="20.0549488049">
        <ele>1565.16</ele>
        <time>2019-07-13T10:54:47Z</time>
      </trkpt>
      <trkpt lat="42.6069569215" lon="20.0548511557">
        <ele>1563.24</ele>
        <time>2019-07-13T10:54:53Z</time>
      </trkpt>
      <trkpt lat="42.6069690753" lon="20.0547966734">
        <ele>1562.76</ele>
        <time>2019-07-13T10:54:56Z</time>
      </trkpt>
      <trkpt lat="42.6069821510" lon="20.0547309592">
        <ele>1562.76</ele>
        <time>2019-07-13T10:55:00Z</time>
      </trkpt>
      <trkpt lat="42.6069857553" lon="20.0546509121">
        <ele>1562.76</ele>
        <time>2019-07-13T10:55:05Z</time>
      </trkpt>
      <trkpt lat="42.6069909520" lon="20.0545163825">
        <ele>1562.76</ele>
        <time>2019-07-13T10:55:13Z</time>
      </trkpt>
      <trkpt lat="42.6069994178" lon="20.0544353295">
        <ele>1562.76</ele>
        <time>2019-07-13T10:55:18Z</time>
      </trkpt>
      <trkpt lat="42.6070292573" lon="20.0543292984">
        <ele>1562.28</ele>
        <time>2019-07-13T10:55:26Z</time>
      </trkpt>
      <trkpt lat="42.6070525590" lon="20.0542559568">
        <ele>1562.28</ele>
        <time>2019-07-13T10:55:31Z</time>
      </trkpt>
      <trkpt lat="42.6071782876" lon="20.0540835410">
        <ele>1561.80</ele>
        <time>2019-07-13T10:55:47Z</time>
      </trkpt>
      <trkpt lat="42.6072328538" lon="20.0540497620">
        <ele>1561.32</ele>
        <time>2019-07-13T10:56:01Z</time>
      </trkpt>
      <trkpt lat="42.6072187722" lon="20.0540429726">
        <ele>1560.84</ele>
        <time>2019-07-13T10:56:22Z</time>
      </trkpt>
      <trkpt lat="42.6072130725" lon="20.0540640950">
        <ele>1560.84</ele>
        <time>2019-07-13T10:56:29Z</time>
      </trkpt>
      <trkpt lat="42.6071516331" lon="20.0540749915">
        <ele>1560.84</ele>
        <time>2019-07-13T10:56:35Z</time>
      </trkpt>
      <trkpt lat="42.6070476975" lon="20.0540643465">
        <ele>1560.84</ele>
        <time>2019-07-13T10:56:44Z</time>
      </trkpt>
      <trkpt lat="42.6070208754" lon="20.0540579762">
        <ele>1562.28</ele>
        <time>2019-07-13T10:56:46Z</time>
      </trkpt>
      <trkpt lat="42.6068838313" lon="20.0540539529">
        <ele>1561.80</ele>
        <time>2019-07-13T10:56:58Z</time>
      </trkpt>
      <trkpt lat="42.6068729348" lon="20.0539250392">
        <ele>1561.80</ele>
        <time>2019-07-13T10:57:12Z</time>
      </trkpt>
      <trkpt lat="42.6069023553" lon="20.0538488477">
        <ele>1561.80</ele>
        <time>2019-07-13T10:57:18Z</time>
      </trkpt>
      <trkpt lat="42.6069259923" lon="20.0536959618">
        <ele>1561.80</ele>
        <time>2019-07-13T10:57:30Z</time>
      </trkpt>
      <trkpt lat="42.6069340389" lon="20.0536473468">
        <ele>1561.80</ele>
        <time>2019-07-13T10:57:33Z</time>
      </trkpt>
      <trkpt lat="42.6069361344" lon="20.0535366219">
        <ele>1562.28</ele>
        <time>2019-07-13T10:57:41Z</time>
      </trkpt>
      <trkpt lat="42.6069005951" lon="20.0533881783">
        <ele>1563.24</ele>
        <time>2019-07-13T10:57:51Z</time>
      </trkpt>
      <trkpt lat="42.6068722643" lon="20.0533174351">
        <ele>1563.72</ele>
        <time>2019-07-13T10:57:55Z</time>
      </trkpt>
      <trkpt lat="42.6068136748" lon="20.0531416666">
        <ele>1564.68</ele>
        <time>2019-07-13T10:58:06Z</time>
      </trkpt>
      <trkpt lat="42.6068197098" lon="20.0530912075">
        <ele>1565.16</ele>
        <time>2019-07-13T10:58:10Z</time>
      </trkpt>
      <trkpt lat="42.6068374794" lon="20.0530340429">
        <ele>1566.12</ele>
        <time>2019-07-13T10:58:15Z</time>
      </trkpt>
      <trkpt lat="42.6068860106" lon="20.0530047063">
        <ele>1567.09</ele>
        <time>2019-07-13T10:58:21Z</time>
      </trkpt>
      <trkpt lat="42.6069919579" lon="20.0529094040">
        <ele>1569.01</ele>
        <time>2019-07-13T10:58:34Z</time>
      </trkpt>
      <trkpt lat="42.6070156787" lon="20.0528494734">
        <ele>1569.49</ele>
        <time>2019-07-13T10:58:40Z</time>
      </trkpt>
      <trkpt lat="42.6070436742" lon="20.0528058037">
        <ele>1569.97</ele>
        <time>2019-07-13T10:58:44Z</time>
      </trkpt>
      <trkpt lat="42.6071240567" lon="20.0526887923">
        <ele>1572.37</ele>
        <time>2019-07-13T10:58:56Z</time>
      </trkpt>
      <trkpt lat="42.6071681455" lon="20.0526379142">
        <ele>1572.85</ele>
        <time>2019-07-13T10:59:02Z</time>
      </trkpt>
      <trkpt lat="42.6072646212" lon="20.0524778198">
        <ele>1574.78</ele>
        <time>2019-07-13T10:59:16Z</time>
      </trkpt>
      <trkpt lat="42.6072896831" lon="20.0524253491">
        <ele>1576.22</ele>
        <time>2019-07-13T10:59:21Z</time>
      </trkpt>
      <trkpt lat="42.6073666289" lon="20.0523902290">
        <ele>1577.18</ele>
        <time>2019-07-13T10:59:35Z</time>
      </trkpt>
      <trkpt lat="42.6073914394" lon="20.0523664244">
        <ele>1576.70</ele>
        <time>2019-07-13T11:00:01Z</time>
      </trkpt>
      <trkpt lat="42.6074662060" lon="20.0522557832">
        <ele>1579.10</ele>
        <time>2019-07-13T11:00:12Z</time>
      </trkpt>
      <trkpt lat="42.6074891724" lon="20.0521615706">
        <ele>1580.06</ele>
        <time>2019-07-13T11:00:19Z</time>
      </trkpt>
      <trkpt lat="42.6074945368" lon="20.0521307252">
        <ele>1580.54</ele>
        <time>2019-07-13T11:00:21Z</time>
      </trkpt>
      <trkpt lat="42.6075211074" lon="20.0520799309">
        <ele>1581.03</ele>
        <time>2019-07-13T11:00:25Z</time>
      </trkpt>
      <trkpt lat="42.6075382065" lon="20.0519740675">
        <ele>1581.99</ele>
        <time>2019-07-13T11:00:32Z</time>
      </trkpt>
      <trkpt lat="42.6075962093" lon="20.0518468302">
        <ele>1582.95</ele>
        <time>2019-07-13T11:00:43Z</time>
      </trkpt>
      <trkpt lat="42.6076175831" lon="20.0517823733">
        <ele>1582.95</ele>
        <time>2019-07-13T11:00:47Z</time>
      </trkpt>
      <trkpt lat="42.6077050064" lon="20.0515967142">
        <ele>1581.51</ele>
        <time>2019-07-13T11:01:00Z</time>
      </trkpt>
      <trkpt lat="42.6077075209" lon="20.0515852310">
        <ele>1581.51</ele>
        <time>2019-07-13T11:01:01Z</time>
      </trkpt>
      <trkpt lat="42.6077288110" lon="20.0514987297">
        <ele>1581.03</ele>
        <time>2019-07-13T11:01:07Z</time>
      </trkpt>
      <trkpt lat="42.6078651845" lon="20.0514004100">
        <ele>1580.06</ele>
        <time>2019-07-13T11:01:19Z</time>
      </trkpt>
      <trkpt lat="42.6079935953" lon="20.0513716601">
        <ele>1579.58</ele>
        <time>2019-07-13T11:01:28Z</time>
      </trkpt>
      <trkpt lat="42.6081756502" lon="20.0513592549">
        <ele>1577.66</ele>
        <time>2019-07-13T11:01:43Z</time>
      </trkpt>
      <trkpt lat="42.6082653366" lon="20.0513035990">
        <ele>1577.18</ele>
        <time>2019-07-13T11:01:52Z</time>
      </trkpt>
      <trkpt lat="42.6082855370" lon="20.0512802135">
        <ele>1577.18</ele>
        <time>2019-07-13T11:01:54Z</time>
      </trkpt>
      <trkpt lat="42.6083376724" lon="20.0512336101">
        <ele>1576.70</ele>
        <time>2019-07-13T11:01:58Z</time>
      </trkpt>
      <trkpt lat="42.6085086633" lon="20.0511081330">
        <ele>1575.26</ele>
        <time>2019-07-13T11:02:11Z</time>
      </trkpt>
      <trkpt lat="42.6086766366" lon="20.0509602763">
        <ele>1574.78</ele>
        <time>2019-07-13T11:02:25Z</time>
      </trkpt>
      <trkpt lat="42.6088435203" lon="20.0507824961">
        <ele>1573.33</ele>
        <time>2019-07-13T11:02:40Z</time>
      </trkpt>
      <trkpt lat="42.6088988408" lon="20.0507227331">
        <ele>1572.85</ele>
        <time>2019-07-13T11:02:45Z</time>
      </trkpt>
      <trkpt lat="42.6089282613" lon="20.0506247487">
        <ele>1572.37</ele>
        <time>2019-07-13T11:02:51Z</time>
      </trkpt>
      <trkpt lat="42.6089895330" lon="20.0504413527">
        <ele>1570.93</ele>
        <time>2019-07-13T11:03:02Z</time>
      </trkpt>
      <trkpt lat="42.6089886110" lon="20.0503328070">
        <ele>1570.45</ele>
        <time>2019-07-13T11:03:07Z</time>
      </trkpt>
      <trkpt lat="42.6090505533" lon="20.0500871334">
        <ele>1569.01</ele>
        <time>2019-07-13T11:03:20Z</time>
      </trkpt>
      <trkpt lat="42.6090847515" lon="20.0500580482">
        <ele>1569.01</ele>
        <time>2019-07-13T11:03:23Z</time>
      </trkpt>
      <trkpt lat="42.6092157606" lon="20.0499446411">
        <ele>1567.57</ele>
        <time>2019-07-13T11:03:37Z</time>
      </trkpt>
      <trkpt lat="42.6092435885" lon="20.0499537773">
        <ele>1567.57</ele>
        <time>2019-07-13T11:03:39Z</time>
      </trkpt>
      <trkpt lat="42.6093617734" lon="20.0499826111">
        <ele>1567.09</ele>
        <time>2019-07-13T11:03:53Z</time>
      </trkpt>
      <trkpt lat="42.6095185149" lon="20.0499752350">
        <ele>1566.61</ele>
        <time>2019-07-13T11:04:00Z</time>
      </trkpt>
      <trkpt lat="42.6097077783" lon="20.0498337485">
        <ele>1566.12</ele>
        <time>2019-07-13T11:04:14Z</time>
      </trkpt>
      <trkpt lat="42.6097107120" lon="20.0498189125">
        <ele>1566.12</ele>
        <time>2019-07-13T11:04:15Z</time>
      </trkpt>
      <trkpt lat="42.6096565649" lon="20.0496883225">
        <ele>1564.68</ele>
        <time>2019-07-13T11:04:23Z</time>
      </trkpt>
      <trkpt lat="42.6096205227" lon="20.0496692955">
        <ele>1564.20</ele>
        <time>2019-07-13T11:04:28Z</time>
      </trkpt>
      <trkpt lat="42.6095449179" lon="20.0496579800">
        <ele>1563.72</ele>
        <time>2019-07-13T11:04:35Z</time>
      </trkpt>
      <trkpt lat="42.6094288286" lon="20.0495610852">
        <ele>1562.76</ele>
        <time>2019-07-13T11:04:43Z</time>
      </trkpt>
      <trkpt lat="42.6093592588" lon="20.0494509470">
        <ele>1562.76</ele>
        <time>2019-07-13T11:04:47Z</time>
      </trkpt>
      <trkpt lat="42.6093353704" lon="20.0492502004">
        <ele>1562.28</ele>
        <time>2019-07-13T11:04:58Z</time>
      </trkpt>
      <trkpt lat="42.6094630267" lon="20.0490989909">
        <ele>1561.80</ele>
        <time>2019-07-13T11:05:11Z</time>
      </trkpt>
      <trkpt lat="42.6095926110" lon="20.0489867572">
        <ele>1560.36</ele>
        <time>2019-07-13T11:05:23Z</time>
      </trkpt>
      <trkpt lat="42.6096299943" lon="20.0489590131">
        <ele>1559.88</ele>
        <time>2019-07-13T11:05:27Z</time>
      </trkpt>
      <trkpt lat="42.6096776035" lon="20.0489250664">
        <ele>1559.88</ele>
        <time>2019-07-13T11:05:31Z</time>
      </trkpt>
      <trkpt lat="42.6097671222" lon="20.0488067977">
        <ele>1558.92</ele>
        <time>2019-07-13T11:05:41Z</time>
      </trkpt>
      <trkpt lat="42.6097877417" lon="20.0487819035">
        <ele>1558.43</ele>
        <time>2019-07-13T11:05:43Z</time>
      </trkpt>
      <trkpt lat="42.6098521985" lon="20.0487297680">
        <ele>1558.43</ele>
        <time>2019-07-13T11:05:48Z</time>
      </trkpt>
      <trkpt lat="42.6099041663" lon="20.0486164447">
        <ele>1556.51</ele>
        <time>2019-07-13T11:05:56Z</time>
      </trkpt>
      <trkpt lat="42.6099210139" lon="20.0485560112">
        <ele>1556.99</ele>
        <time>2019-07-13T11:06:00Z</time>
      </trkpt>
      <trkpt lat="42.6099908352" lon="20.0484446157">
        <ele>1556.51</ele>
        <time>2019-07-13T11:06:10Z</time>
      </trkpt>
      <trkpt lat="42.6100494247" lon="20.0483794883">
        <ele>1556.51</ele>
        <time>2019-07-13T11:06:16Z</time>
      </trkpt>
      <trkpt lat="42.6101576351" lon="20.0482691824">
        <ele>1556.03</ele>
        <time>2019-07-13T11:06:25Z</time>
      </trkpt>
      <trkpt lat="42.6101836190" lon="20.0482196454">
        <ele>1556.03</ele>
        <time>2019-07-13T11:06:28Z</time>
      </trkpt>
      <trkpt lat="42.6101843733" lon="20.0481709465">
        <ele>1555.55</ele>
        <time>2019-07-13T11:06:31Z</time>
      </trkpt>
      <trkpt lat="42.6102187391" lon="20.0481142011">
        <ele>1555.55</ele>
        <time>2019-07-13T11:06:34Z</time>
      </trkpt>
      <trkpt lat="42.6103116944" lon="20.0479635783">
        <ele>1555.55</ele>
        <time>2019-07-13T11:06:46Z</time>
      </trkpt>
      <trkpt lat="42.6103586331" lon="20.0478430465">
        <ele>1555.07</ele>
        <time>2019-07-13T11:06:52Z</time>
      </trkpt>
      <trkpt lat="42.6104617305" lon="20.0477496721">
        <ele>1555.07</ele>
        <time>2019-07-13T11:06:59Z</time>
      </trkpt>
      <trkpt lat="42.6104887202" lon="20.0477101933">
        <ele>1555.07</ele>
        <time>2019-07-13T11:07:02Z</time>
      </trkpt>
      <trkpt lat="42.6106013730" lon="20.0476263743">
        <ele>1554.59</ele>
        <time>2019-07-13T11:07:10Z</time>
      </trkpt>
      <trkpt lat="42.6107069012" lon="20.0475265458">
        <ele>1554.59</ele>
        <time>2019-07-13T11:07:18Z</time>
      </trkpt>
      <trkpt lat="42.6107538398" lon="20.0474870671">
        <ele>1554.59</ele>
        <time>2019-07-13T11:07:22Z</time>
      </trkpt>
      <trkpt lat="42.6107680053" lon="20.0474485941">
        <ele>1554.59</ele>
        <time>2019-07-13T11:07:24Z</time>
      </trkpt>
      <trkpt lat="42.6108362339" lon="20.0473177526">
        <ele>1554.11</ele>
        <time>2019-07-13T11:07:33Z</time>
      </trkpt>
      <trkpt lat="42.6108449511" lon="20.0472930260">
        <ele>1554.11</ele>
        <time>2019-07-13T11:07:35Z</time>
      </trkpt>
      <trkpt lat="42.6108661573" lon="20.0472247135">
        <ele>1554.11</ele>
        <time>2019-07-13T11:07:39Z</time>
      </trkpt>
      <trkpt lat="42.6110273413" lon="20.0470320135">
        <ele>1553.15</ele>
        <time>2019-07-13T11:07:54Z</time>
      </trkpt>
      <trkpt lat="42.6111568417" lon="20.0468989089">
        <ele>1552.19</ele>
        <time>2019-07-13T11:08:08Z</time>
      </trkpt>
      <trkpt lat="42.6111809816" lon="20.0468728412">
        <ele>1552.19</ele>
        <time>2019-07-13T11:08:10Z</time>
      </trkpt>
      <trkpt lat="42.6112386491" lon="20.0468031038">
        <ele>1551.22</ele>
        <time>2019-07-13T11:08:15Z</time>
      </trkpt>
      <trkpt lat="42.6112884376" lon="20.0467251521">
        <ele>1551.22</ele>
        <time>2019-07-13T11:08:20Z</time>
      </trkpt>
      <trkpt lat="42.6113715023" lon="20.0466739386">
        <ele>1550.74</ele>
        <time>2019-07-13T11:08:26Z</time>
      </trkpt>
      <trkpt lat="42.6114712469" lon="20.0465687457">
        <ele>1549.30</ele>
        <time>2019-07-13T11:08:38Z</time>
      </trkpt>
      <trkpt lat="42.6115229633" lon="20.0464980025">
        <ele>1549.30</ele>
        <time>2019-07-13T11:08:43Z</time>
      </trkpt>
      <trkpt lat="42.6115599275" lon="20.0463518221">
        <ele>1547.38</ele>
        <time>2019-07-13T11:08:54Z</time>
      </trkpt>
      <trkpt lat="42.6115653757" lon="20.0463183783">
        <ele>1547.38</ele>
        <time>2019-07-13T11:08:56Z</time>
      </trkpt>
      <trkpt lat="42.6116689760" lon="20.0461109262">
        <ele>1545.94</ele>
        <time>2019-07-13T11:09:10Z</time>
      </trkpt>
      <trkpt lat="42.6116870809" lon="20.0460561924">
        <ele>1545.46</ele>
        <time>2019-07-13T11:09:14Z</time>
      </trkpt>
      <trkpt lat="42.6116217021" lon="20.0458007120">
        <ele>1544.01</ele>
        <time>2019-07-13T11:09:28Z</time>
      </trkpt>
      <trkpt lat="42.6116166729" lon="20.0457670167">
        <ele>1543.53</ele>
        <time>2019-07-13T11:09:30Z</time>
      </trkpt>
      <trkpt lat="42.6116095483" lon="20.0457246043">
        <ele>1543.53</ele>
        <time>2019-07-13T11:09:32Z</time>
      </trkpt>
      <trkpt lat="42.6115825586" lon="20.0455679465">
        <ele>1542.09</ele>
        <time>2019-07-13T11:09:39Z</time>
      </trkpt>
      <trkpt lat="42.6116513740" lon="20.0454022363">
        <ele>1541.61</ele>
        <time>2019-07-13T11:09:52Z</time>
      </trkpt>
      <trkpt lat="42.6117206924" lon="20.0453216862">
        <ele>1540.65</ele>
        <time>2019-07-13T11:09:59Z</time>
      </trkpt>
      <trkpt lat="42.6117367856" lon="20.0453164056">
        <ele>1541.13</ele>
        <time>2019-07-13T11:10:00Z</time>
      </trkpt>
      <trkpt lat="42.6117888372" lon="20.0452716462">
        <ele>1540.65</ele>
        <time>2019-07-13T11:10:04Z</time>
      </trkpt>
      <trkpt lat="42.6119404659" lon="20.0449889246">
        <ele>1540.17</ele>
        <time>2019-07-13T11:10:18Z</time>
      </trkpt>
      <trkpt lat="42.6120204292" lon="20.0447973143">
        <ele>1539.21</ele>
        <time>2019-07-13T11:10:30Z</time>
      </trkpt>
      <trkpt lat="42.6120411325" lon="20.0447127409">
        <ele>1539.21</ele>
        <time>2019-07-13T11:10:35Z</time>
      </trkpt>
      <trkpt lat="42.6120854728" lon="20.0444951467">
        <ele>1537.77</ele>
        <time>2019-07-13T11:10:47Z</time>
      </trkpt>
      <trkpt lat="42.6121278014" lon="20.0442528259">
        <ele>1536.80</ele>
        <time>2019-07-13T11:11:01Z</time>
      </trkpt>
      <trkpt lat="42.6121960301" lon="20.0441141892">
        <ele>1536.80</ele>
        <time>2019-07-13T11:11:10Z</time>
      </trkpt>
      <trkpt lat="42.6122073457" lon="20.0440174621">
        <ele>1536.32</ele>
        <time>2019-07-13T11:11:15Z</time>
      </trkpt>
      <trkpt lat="42.6122486684" lon="20.0438233372">
        <ele>1535.84</ele>
        <time>2019-07-13T11:11:27Z</time>
      </trkpt>
      <trkpt lat="42.6122850459" lon="20.0436073355">
        <ele>1534.88</ele>
        <time>2019-07-13T11:11:39Z</time>
      </trkpt>
      <trkpt lat="42.6123096049" lon="20.0435448065">
        <ele>1534.88</ele>
        <time>2019-07-13T11:11:43Z</time>
      </trkpt>
      <trkpt lat="42.6123244409" lon="20.0435034838">
        <ele>1534.88</ele>
        <time>2019-07-13T11:11:45Z</time>
      </trkpt>
      <trkpt lat="42.6123456471" lon="20.0433972012">
        <ele>1534.88</ele>
        <time>2019-07-13T11:11:50Z</time>
      </trkpt>
      <trkpt lat="42.6123502571" lon="20.0433604047">
        <ele>1534.88</ele>
        <time>2019-07-13T11:11:52Z</time>
      </trkpt>
      <trkpt lat="42.6123783365" lon="20.0432876498">
        <ele>1534.88</ele>
        <time>2019-07-13T11:11:56Z</time>
      </trkpt>
      <trkpt lat="42.6124328189" lon="20.0431467500">
        <ele>1534.88</ele>
        <time>2019-07-13T11:12:04Z</time>
      </trkpt>
      <trkpt lat="42.6124583837" lon="20.0430100411">
        <ele>1534.88</ele>
        <time>2019-07-13T11:12:12Z</time>
      </trkpt>
      <trkpt lat="42.6124850381" lon="20.0428975560">
        <ele>1534.40</ele>
        <time>2019-07-13T11:12:19Z</time>
      </trkpt>
      <trkpt lat="42.6125867944" lon="20.0427002460">
        <ele>1533.92</ele>
        <time>2019-07-13T11:12:33Z</time>
      </trkpt>
      <trkpt lat="42.6126185618" lon="20.0425975677">
        <ele>1533.44</ele>
        <time>2019-07-13T11:12:39Z</time>
      </trkpt>
      <trkpt lat="42.6126767322" lon="20.0424235594">
        <ele>1533.44</ele>
        <time>2019-07-13T11:12:48Z</time>
      </trkpt>
      <trkpt lat="42.6127463020" lon="20.0421649776">
        <ele>1532.96</ele>
        <time>2019-07-13T11:13:03Z</time>
      </trkpt>
      <trkpt lat="42.6128160395" lon="20.0420171209">
        <ele>1532.48</ele>
        <time>2019-07-13T11:13:12Z</time>
      </trkpt>
      <trkpt lat="42.6128817536" lon="20.0418296177">
        <ele>1531.52</ele>
        <time>2019-07-13T11:13:25Z</time>
      </trkpt>
      <trkpt lat="42.6128872018" lon="20.0417991076">
        <ele>1531.04</ele>
        <time>2019-07-13T11:13:27Z</time>
      </trkpt>
      <trkpt lat="42.6129030436" lon="20.0416922383">
        <ele>1530.56</ele>
        <time>2019-07-13T11:13:34Z</time>
      </trkpt>
      <trkpt lat="42.6128979307" lon="20.0415266119">
        <ele>1530.56</ele>
        <time>2019-07-13T11:13:42Z</time>
      </trkpt>
      <trkpt lat="42.6128915604" lon="20.0414492469">
        <ele>1530.08</ele>
        <time>2019-07-13T11:13:55Z</time>
      </trkpt>
      <trkpt lat="42.6128660794" lon="20.0413882267">
        <ele>1530.08</ele>
        <time>2019-07-13T11:14:11Z</time>
      </trkpt>
      <trkpt lat="42.6128745452" lon="20.0413469039">
        <ele>1529.59</ele>
        <time>2019-07-13T11:14:28Z</time>
      </trkpt>
      <trkpt lat="42.6128749643" lon="20.0412303116">
        <ele>1529.59</ele>
        <time>2019-07-13T11:14:36Z</time>
      </trkpt>
      <trkpt lat="42.6128590386" lon="20.0411982089">
        <ele>1529.59</ele>
        <time>2019-07-13T11:14:39Z</time>
      </trkpt>
      <trkpt lat="42.6128335577" lon="20.0410773419">
        <ele>1529.11</ele>
        <time>2019-07-13T11:14:47Z</time>
      </trkpt>
      <trkpt lat="42.6128411852" lon="20.0408371165">
        <ele>1528.63</ele>
        <time>2019-07-13T11:15:00Z</time>
      </trkpt>
      <trkpt lat="42.6128680073" lon="20.0407592487">
        <ele>1528.15</ele>
        <time>2019-07-13T11:15:04Z</time>
      </trkpt>
      <trkpt lat="42.6128785685" lon="20.0407183450">
        <ele>1527.67</ele>
        <time>2019-07-13T11:15:07Z</time>
      </trkpt>
      <trkpt lat="42.6128934883" lon="20.0406821351">
        <ele>1527.67</ele>
        <time>2019-07-13T11:15:09Z</time>
      </trkpt>
      <trkpt lat="42.6129224058" lon="20.0404486153">
        <ele>1526.71</ele>
        <time>2019-07-13T11:15:22Z</time>
      </trkpt>
      <trkpt lat="42.6129264291" lon="20.0404065382">
        <ele>1526.71</ele>
        <time>2019-07-13T11:15:24Z</time>
      </trkpt>
      <trkpt lat="42.6129708532" lon="20.0402334519">
        <ele>1524.31</ele>
        <time>2019-07-13T11:15:35Z</time>
      </trkpt>
      <trkpt lat="42.6129678357" lon="20.0401877705">
        <ele>1524.31</ele>
        <time>2019-07-13T11:15:38Z</time>
      </trkpt>
      <trkpt lat="42.6129809953" lon="20.0401002634">
        <ele>1523.83</ele>
        <time>2019-07-13T11:15:42Z</time>
      </trkpt>
      <trkpt lat="42.6129978430" lon="20.0399296917">
        <ele>1522.39</ele>
        <time>2019-07-13T11:15:52Z</time>
      </trkpt>
      <trkpt lat="42.6129861083" lon="20.0396156218">
        <ele>1520.94</ele>
        <time>2019-07-13T11:16:08Z</time>
      </trkpt>
      <trkpt lat="42.6129919756" lon="20.0395074952">
        <ele>1519.50</ele>
        <time>2019-07-13T11:16:14Z</time>
      </trkpt>
      <trkpt lat="42.6129935682" lon="20.0394313876">
        <ele>1519.02</ele>
        <time>2019-07-13T11:16:18Z</time>
      </trkpt>
      <trkpt lat="42.6129959151" lon="20.0393326487">
        <ele>1517.58</ele>
        <time>2019-07-13T11:16:23Z</time>
      </trkpt>
      <trkpt lat="42.6130035426" lon="20.0392596424">
        <ele>1517.58</ele>
        <time>2019-07-13T11:16:27Z</time>
      </trkpt>
      <trkpt lat="42.6130250003" lon="20.0389424711">
        <ele>1515.18</ele>
        <time>2019-07-13T11:16:43Z</time>
      </trkpt>
      <trkpt lat="42.6129940711" lon="20.0386708975">
        <ele>1514.21</ele>
        <time>2019-07-13T11:16:57Z</time>
      </trkpt>
      <trkpt lat="42.6129570231" lon="20.0384126510">
        <ele>1512.29</ele>
        <time>2019-07-13T11:17:11Z</time>
      </trkpt>
      <trkpt lat="42.6129521616" lon="20.0383987371">
        <ele>1512.29</ele>
        <time>2019-07-13T11:17:12Z</time>
      </trkpt>
      <trkpt lat="42.6129343919" lon="20.0382081326">
        <ele>1510.37</ele>
        <time>2019-07-13T11:17:23Z</time>
      </trkpt>
      <trkpt lat="42.6129270997" lon="20.0380539894">
        <ele>1509.41</ele>
        <time>2019-07-13T11:17:31Z</time>
      </trkpt>
      <trkpt lat="42.6129126828" lon="20.0379026961">
        <ele>1508.45</ele>
        <time>2019-07-13T11:17:38Z</time>
      </trkpt>
      <trkpt lat="42.6128737908" lon="20.0376922265">
        <ele>1507.00</ele>
        <time>2019-07-13T11:17:48Z</time>
      </trkpt>
      <trkpt lat="42.6128712762" lon="20.0374501571">
        <ele>1505.56</ele>
        <time>2019-07-13T11:18:00Z</time>
      </trkpt>
      <trkpt lat="42.6128609665" lon="20.0372736342">
        <ele>1504.12</ele>
        <time>2019-07-13T11:18:10Z</time>
      </trkpt>
      <trkpt lat="42.6128861960" lon="20.0370088499">
        <ele>1502.20</ele>
        <time>2019-07-13T11:18:22Z</time>
      </trkpt>
      <trkpt lat="42.6128801610" lon="20.0367441494">
        <ele>1500.76</ele>
        <time>2019-07-13T11:18:35Z</time>
      </trkpt>
      <trkpt lat="42.6128825080" lon="20.0367253739">
        <ele>1500.76</ele>
        <time>2019-07-13T11:18:36Z</time>
      </trkpt>
      <trkpt lat="42.6128577814" lon="20.0365028344">
        <ele>1499.31</ele>
        <time>2019-07-13T11:18:49Z</time>
      </trkpt>
      <trkpt lat="42.6128470525" lon="20.0362626929">
        <ele>1497.87</ele>
        <time>2019-07-13T11:19:02Z</time>
      </trkpt>
      <trkpt lat="42.6128343958" lon="20.0360382255">
        <ele>1496.91</ele>
        <time>2019-07-13T11:19:14Z</time>
      </trkpt>
      <trkpt lat="42.6128171291" lon="20.0359105691">
        <ele>1495.95</ele>
        <time>2019-07-13T11:19:30Z</time>
      </trkpt>
      <trkpt lat="42.6127793267" lon="20.0359067973">
        <ele>1497.39</ele>
        <time>2019-07-13T11:19:42Z</time>
      </trkpt>
      <trkpt lat="42.6127314661" lon="20.0358489621">
        <ele>1497.39</ele>
        <time>2019-07-13T11:19:56Z</time>
      </trkpt>
      <trkpt lat="42.6127074100" lon="20.0357553363">
        <ele>1497.39</ele>
        <time>2019-07-13T11:20:07Z</time>
      </trkpt>
      <trkpt lat="42.6126707811" lon="20.0356590282">
        <ele>1497.87</ele>
        <time>2019-07-13T11:20:19Z</time>
      </trkpt>
      <trkpt lat="42.6126628183" lon="20.0356150232">
        <ele>1497.87</ele>
        <time>2019-07-13T11:20:37Z</time>
      </trkpt>
      <trkpt lat="42.6126660872" lon="20.0355564337">
        <ele>1498.35</ele>
        <time>2019-07-13T11:20:52Z</time>
      </trkpt>
      <trkpt lat="42.6126628183" lon="20.0355512369">
        <ele>1498.35</ele>
        <time>2019-07-13T11:21:10Z</time>
      </trkpt>
      <trkpt lat="42.6126686018" lon="20.0356068928">
        <ele>1498.35</ele>
        <time>2019-07-13T11:21:31Z</time>
      </trkpt>
      <trkpt lat="42.6126610581" lon="20.0355956610">
        <ele>1498.35</ele>
        <time>2019-07-13T11:21:44Z</time>
      </trkpt>
      <trkpt lat="42.6126917358" lon="20.0356734451">
        <ele>1497.39</ele>
        <time>2019-07-13T11:22:03Z</time>
      </trkpt>
      <trkpt lat="42.6126929093" lon="20.0356892031">
        <ele>1498.83</ele>
        <time>2019-07-13T11:22:12Z</time>
      </trkpt>
      <trkpt lat="42.6126469765" lon="20.0356583577">
        <ele>1498.83</ele>
        <time>2019-07-13T11:22:37Z</time>
      </trkpt>
      <trkpt lat="42.6124836132" lon="20.0357618742">
        <ele>1489.70</ele>
        <time>2019-07-14T06:57:08Z</time>
      </trkpt>
      <trkpt lat="42.6124854572" lon="20.0357537437">
        <ele>1489.70</ele>
        <time>2019-07-14T06:57:09Z</time>
      </trkpt>
      <trkpt lat="42.6125024725" lon="20.0357309449">
        <ele>1489.70</ele>
        <time>2019-07-14T06:57:26Z</time>
      </trkpt>
      <trkpt lat="42.6126385108" lon="20.0357270055">
        <ele>1489.70</ele>
        <time>2019-07-14T06:57:50Z</time>
      </trkpt>
      <trkpt lat="42.6126080845" lon="20.0356968306">
        <ele>1487.30</ele>
        <time>2019-07-14T06:58:15Z</time>
      </trkpt>
      <trkpt lat="42.6125860400" lon="20.0357124209">
        <ele>1487.30</ele>
        <time>2019-07-14T06:58:44Z</time>
      </trkpt>
      <trkpt lat="42.6126202382" lon="20.0356177893">
        <ele>1487.30</ele>
        <time>2019-07-14T06:59:10Z</time>
      </trkpt>
      <trkpt lat="42.6126442105" lon="20.0355898775">
        <ele>1487.30</ele>
        <time>2019-07-14T06:59:22Z</time>
      </trkpt>
      <trkpt lat="42.6126736309" lon="20.0356099941">
        <ele>1487.30</ele>
        <time>2019-07-14T06:59:37Z</time>
      </trkpt>
      <trkpt lat="42.6126618963" lon="20.0355800707">
        <ele>1487.30</ele>
        <time>2019-07-14T06:59:51Z</time>
      </trkpt>
      <trkpt lat="42.6126494911" lon="20.0356297754">
        <ele>1487.30</ele>
        <time>2019-07-14T07:00:06Z</time>
      </trkpt>
      <trkpt lat="42.6126348227" lon="20.0356268417">
        <ele>1487.30</ele>
        <time>2019-07-14T07:00:28Z</time>
      </trkpt>
      <trkpt lat="42.6126850303" lon="20.0356530771">
        <ele>1487.30</ele>
        <time>2019-07-14T07:00:46Z</time>
      </trkpt>
      <trkpt lat="42.6126664225" lon="20.0356360618">
        <ele>1486.82</ele>
        <time>2019-07-14T07:01:04Z</time>
      </trkpt>
      <trkpt lat="42.6127043925" lon="20.0358311087">
        <ele>1487.30</ele>
        <time>2019-07-14T07:01:45Z</time>
      </trkpt>
      <trkpt lat="42.6128043048" lon="20.0359907001">
        <ele>1486.34</ele>
        <time>2019-07-14T07:02:00Z</time>
      </trkpt>
      <trkpt lat="42.6128653251" lon="20.0361027662">
        <ele>1485.85</ele>
        <time>2019-07-14T07:02:13Z</time>
      </trkpt>
      <trkpt lat="42.6128618885" lon="20.0362087972">
        <ele>1487.30</ele>
        <time>2019-07-14T07:02:27Z</time>
      </trkpt>
      <trkpt lat="42.6128569432" lon="20.0362145808">
        <ele>1487.30</ele>
        <time>2019-07-14T07:02:45Z</time>
      </trkpt>
      <trkpt lat="42.6128415205" lon="20.0361043587">
        <ele>1487.30</ele>
        <time>2019-07-14T07:02:57Z</time>
      </trkpt>
      <trkpt lat="42.6128209848" lon="20.0360466912">
        <ele>1486.34</ele>
        <time>2019-07-14T07:03:01Z</time>
      </trkpt>
      <trkpt lat="42.6127440389" lon="20.0359397382">
        <ele>1486.34</ele>
        <time>2019-07-14T07:03:15Z</time>
      </trkpt>
      <trkpt lat="42.6126843598" lon="20.0358469505">
        <ele>1487.78</ele>
        <time>2019-07-14T07:03:27Z</time>
      </trkpt>
      <trkpt lat="42.6126840245" lon="20.0358453579">
        <ele>1487.78</ele>
        <time>2019-07-14T07:03:28Z</time>
      </trkpt>
      <trkpt lat="42.6126535144" lon="20.0357781351">
        <ele>1486.82</ele>
        <time>2019-07-14T07:03:43Z</time>
      </trkpt>
      <trkpt lat="42.6126607228" lon="20.0357663166">
        <ele>1486.82</ele>
        <time>2019-07-14T07:03:44Z</time>
      </trkpt>
      <trkpt lat="42.6126504131" lon="20.0356589444">
        <ele>1486.82</ele>
        <time>2019-07-14T07:03:58Z</time>
      </trkpt>
      <trkpt lat="42.6126576215" lon="20.0356541667">
        <ele>1486.82</ele>
        <time>2019-07-14T07:04:03Z</time>
      </trkpt>
      <trkpt lat="42.6126627345" lon="20.0356172025">
        <ele>1486.82</ele>
        <time>2019-07-14T07:04:16Z</time>
      </trkpt>
      <trkpt lat="42.6127437036" lon="20.0356291048">
        <ele>1486.34</ele>
        <time>2019-07-14T07:04:39Z</time>
      </trkpt>
      <trkpt lat="42.6128159557" lon="20.0356443599">
        <ele>1486.82</ele>
        <time>2019-07-14T07:05:08Z</time>
      </trkpt>
      <trkpt lat="42.6128621399" lon="20.0356488023">
        <ele>1486.82</ele>
        <time>2019-07-14T07:05:36Z</time>
      </trkpt>
      <trkpt lat="42.6126493234" lon="20.0355617143">
        <ele>1487.30</ele>
        <time>2019-07-14T07:05:52Z</time>
      </trkpt>
      <trkpt lat="42.6125954278" lon="20.0355974212">
        <ele>1487.30</ele>
        <time>2019-07-14T07:06:05Z</time>
      </trkpt>
      <trkpt lat="42.6125852019" lon="20.0356275961">
        <ele>1486.82</ele>
        <time>2019-07-14T07:06:28Z</time>
      </trkpt>
      <trkpt lat="42.6125278696" lon="20.0356376544">
        <ele>1487.30</ele>
        <time>2019-07-14T07:07:00Z</time>
      </trkpt>
      <trkpt lat="42.6125085913" lon="20.0357074756">
        <ele>1487.30</ele>
        <time>2019-07-14T07:07:25Z</time>
      </trkpt>
      <trkpt lat="42.6125489082" lon="20.0357037038">
        <ele>1487.30</ele>
        <time>2019-07-14T07:07:44Z</time>
      </trkpt>
      <trkpt lat="42.6124837808" lon="20.0357089844">
        <ele>1487.30</ele>
        <time>2019-07-14T07:08:08Z</time>
      </trkpt>
      <trkpt lat="42.6124409493" lon="20.0357134268">
        <ele>1487.30</ele>
        <time>2019-07-14T07:08:32Z</time>
      </trkpt>
      <trkpt lat="42.6124663465" lon="20.0356824975">
        <ele>1487.30</ele>
        <time>2019-07-14T07:08:54Z</time>
      </trkpt>
      <trkpt lat="42.6124760695" lon="20.0356721878">
        <ele>1488.74</ele>
        <time>2019-07-14T07:09:05Z</time>
      </trkpt>
      <trkpt lat="42.6124737225" lon="20.0356004387">
        <ele>1488.74</ele>
        <time>2019-07-14T07:09:23Z</time>
      </trkpt>
      <trkpt lat="42.6125440467" lon="20.0355258398">
        <ele>1489.22</ele>
        <time>2019-07-14T07:09:47Z</time>
      </trkpt>
      <trkpt lat="42.6125837769" lon="20.0354577787">
        <ele>1488.74</ele>
        <time>2019-07-14T07:10:08Z</time>
      </trkpt>
      <trkpt lat="42.6125950925" lon="20.0354462955">
        <ele>1488.74</ele>
        <time>2019-07-14T07:10:09Z</time>
      </trkpt>
      <trkpt lat="42.6125950087" lon="20.0354227424">
        <ele>1488.74</ele>
        <time>2019-07-14T07:10:11Z</time>
      </trkpt>
      <trkpt lat="42.6126188133" lon="20.0353968423">
        <ele>1487.78</ele>
        <time>2019-07-14T07:10:13Z</time>
      </trkpt>
      <trkpt lat="42.6126401871" lon="20.0353507418">
        <ele>1487.30</ele>
        <time>2019-07-14T07:10:16Z</time>
      </trkpt>
      <trkpt lat="42.6126438752" lon="20.0352553558">
        <ele>1486.82</ele>
        <time>2019-07-14T07:10:23Z</time>
      </trkpt>
      <trkpt lat="42.6126406901" lon="20.0351901446">
        <ele>1486.82</ele>
        <time>2019-07-14T07:10:28Z</time>
      </trkpt>
      <trkpt lat="42.6125966012" lon="20.0350660924">
        <ele>1486.34</ele>
        <time>2019-07-14T07:10:41Z</time>
      </trkpt>
      <trkpt lat="42.6125871297" lon="20.0350469816">
        <ele>1487.78</ele>
        <time>2019-07-14T07:10:43Z</time>
      </trkpt>
      <trkpt lat="42.6125183981" lon="20.0349635817">
        <ele>1488.26</ele>
        <time>2019-07-14T07:10:54Z</time>
      </trkpt>
      <trkpt lat="42.6124643348" lon="20.0348538626">
        <ele>1489.70</ele>
        <time>2019-07-14T07:11:04Z</time>
      </trkpt>
      <trkpt lat="42.6124451403" lon="20.0348153897">
        <ele>1490.18</ele>
        <time>2019-07-14T07:11:09Z</time>
      </trkpt>
      <trkpt lat="42.6124119479" lon="20.0345902517">
        <ele>1490.18</ele>
        <time>2019-07-14T07:11:21Z</time>
      </trkpt>
      <trkpt lat="42.6124064997" lon="20.0345607474">
        <ele>1490.18</ele>
        <time>2019-07-14T07:11:23Z</time>
      </trkpt>
      <trkpt lat="42.6123401150" lon="20.0344479270">
        <ele>1492.10</ele>
        <time>2019-07-14T07:11:35Z</time>
      </trkpt>
      <trkpt lat="42.6122981217" lon="20.0344156567">
        <ele>1492.58</ele>
        <time>2019-07-14T07:11:41Z</time>
      </trkpt>
      <trkpt lat="42.6122319046" lon="20.0343919359">
        <ele>1494.51</ele>
        <time>2019-07-14T07:11:53Z</time>
      </trkpt>
      <trkpt lat="42.6121466607" lon="20.0342571549">
        <ele>1496.43</ele>
        <time>2019-07-14T07:12:07Z</time>
      </trkpt>
      <trkpt lat="42.6121359318" lon="20.0341181830">
        <ele>1497.39</ele>
        <time>2019-07-14T07:12:19Z</time>
      </trkpt>
      <trkpt lat="42.6121330820" lon="20.0340892654">
        <ele>1497.87</ele>
        <time>2019-07-14T07:12:21Z</time>
      </trkpt>
      <trkpt lat="42.6120588183" lon="20.0339731760">
        <ele>1500.27</ele>
        <time>2019-07-14T07:12:36Z</time>
      </trkpt>
      <trkpt lat="42.6120041683" lon="20.0338818133">
        <ele>1502.20</ele>
        <time>2019-07-14T07:12:47Z</time>
      </trkpt>
      <trkpt lat="42.6119454112" lon="20.0337453559">
        <ele>1504.12</ele>
        <time>2019-07-14T07:13:00Z</time>
      </trkpt>
      <trkpt lat="42.6118834689" lon="20.0336037856">
        <ele>1505.56</ele>
        <time>2019-07-14T07:13:13Z</time>
      </trkpt>
      <trkpt lat="42.6118768472" lon="20.0335829984">
        <ele>1505.56</ele>
        <time>2019-07-14T07:13:15Z</time>
      </trkpt>
      <trkpt lat="42.6118211914" lon="20.0334423501">
        <ele>1506.04</ele>
        <time>2019-07-14T07:13:26Z</time>
      </trkpt>
      <trkpt lat="42.6117051020" lon="20.0333265122">
        <ele>1507.00</ele>
        <time>2019-07-14T07:13:41Z</time>
      </trkpt>
      <trkpt lat="42.6116606779" lon="20.0332807470">
        <ele>1509.41</ele>
        <time>2019-07-14T07:13:52Z</time>
      </trkpt>
      <trkpt lat="42.6116397232" lon="20.0332632288">
        <ele>1509.41</ele>
        <time>2019-07-14T07:13:55Z</time>
      </trkpt>
      <trkpt lat="42.6116087101" lon="20.0332302041">
        <ele>1509.89</ele>
        <time>2019-07-14T07:13:58Z</time>
      </trkpt>
      <trkpt lat="42.6115016732" lon="20.0331802480">
        <ele>1511.81</ele>
        <time>2019-07-14T07:14:12Z</time>
      </trkpt>
      <trkpt lat="42.6114347856" lon="20.0330926571">
        <ele>1513.73</ele>
        <time>2019-07-14T07:14:24Z</time>
      </trkpt>
      <trkpt lat="42.6113934629" lon="20.0329860393">
        <ele>1515.66</ele>
        <time>2019-07-14T07:14:38Z</time>
      </trkpt>
      <trkpt lat="42.6113552414" lon="20.0329199061">
        <ele>1517.10</ele>
        <time>2019-07-14T07:14:46Z</time>
      </trkpt>
      <trkpt lat="42.6112891920" lon="20.0328527670">
        <ele>1518.06</ele>
        <time>2019-07-14T07:14:53Z</time>
      </trkpt>
      <trkpt lat="42.6112125814" lon="20.0327002164">
        <ele>1519.02</ele>
        <time>2019-07-14T07:15:06Z</time>
      </trkpt>
      <trkpt lat="42.6112078037" lon="20.0326903258">
        <ele>1519.02</ele>
        <time>2019-07-14T07:15:07Z</time>
      </trkpt>
      <trkpt lat="42.6111771259" lon="20.0326435547">
        <ele>1519.02</ele>
        <time>2019-07-14T07:15:12Z</time>
      </trkpt>
      <trkpt lat="42.6111378986" lon="20.0325050019">
        <ele>1520.94</ele>
        <time>2019-07-14T07:15:28Z</time>
      </trkpt>
      <trkpt lat="42.6110422611" lon="20.0323940255">
        <ele>1522.87</ele>
        <time>2019-07-14T07:15:41Z</time>
      </trkpt>
      <trkpt lat="42.6109994296" lon="20.0322750024">
        <ele>1524.79</ele>
        <time>2019-07-14T07:15:56Z</time>
      </trkpt>
      <trkpt lat="42.6109460369" lon="20.0321506988">
        <ele>1526.71</ele>
        <time>2019-07-14T07:16:08Z</time>
      </trkpt>
      <trkpt lat="42.6108379103" lon="20.0320502836">
        <ele>1528.63</ele>
        <time>2019-07-14T07:16:21Z</time>
      </trkpt>
      <trkpt lat="42.6108218171" lon="20.0319871679">
        <ele>1529.59</ele>
        <time>2019-07-14T07:16:28Z</time>
      </trkpt>
      <trkpt lat="42.6107430272" lon="20.0318367966">
        <ele>1532.00</ele>
        <time>2019-07-14T07:16:42Z</time>
      </trkpt>
      <trkpt lat="42.6107048057" lon="20.0317290053">
        <ele>1532.96</ele>
        <time>2019-07-14T07:16:52Z</time>
      </trkpt>
      <trkpt lat="42.6106435340" lon="20.0315644685">
        <ele>1534.40</ele>
        <time>2019-07-14T07:17:05Z</time>
      </trkpt>
      <trkpt lat="42.6105666719" lon="20.0314457808">
        <ele>1534.88</ele>
        <time>2019-07-14T07:17:18Z</time>
      </trkpt>
      <trkpt lat="42.6105156261" lon="20.0313893706">
        <ele>1535.84</ele>
        <time>2019-07-14T07:17:25Z</time>
      </trkpt>
      <trkpt lat="42.6104177255" lon="20.0312953256">
        <ele>1538.25</ele>
        <time>2019-07-14T07:17:39Z</time>
      </trkpt>
      <trkpt lat="42.6103505865" lon="20.0312444475">
        <ele>1540.65</ele>
        <time>2019-07-14T07:17:53Z</time>
      </trkpt>
      <trkpt lat="42.6102590561" lon="20.0312296953">
        <ele>1542.57</ele>
        <time>2019-07-14T07:18:05Z</time>
      </trkpt>
      <trkpt lat="42.6102147158" lon="20.0311947428">
        <ele>1544.01</ele>
        <time>2019-07-14T07:18:12Z</time>
      </trkpt>
      <trkpt lat="42.6101178210" lon="20.0311376620">
        <ele>1545.94</ele>
        <time>2019-07-14T07:18:25Z</time>
      </trkpt>
      <trkpt lat="42.6100119576" lon="20.0311121810">
        <ele>1547.86</ele>
        <time>2019-07-14T07:18:38Z</time>
      </trkpt>
      <trkpt lat="42.6098805293" lon="20.0310838502">
        <ele>1549.78</ele>
        <time>2019-07-14T07:18:54Z</time>
      </trkpt>
      <trkpt lat="42.6098509412" lon="20.0310563575">
        <ele>1551.22</ele>
        <time>2019-07-14T07:19:01Z</time>
      </trkpt>
      <trkpt lat="42.6097618416" lon="20.0309509970">
        <ele>1552.67</ele>
        <time>2019-07-14T07:19:14Z</time>
      </trkpt>
      <trkpt lat="42.6096590795" lon="20.0308086723">
        <ele>1553.63</ele>
        <time>2019-07-14T07:19:26Z</time>
      </trkpt>
      <trkpt lat="42.6095849834" lon="20.0307751447">
        <ele>1555.55</ele>
        <time>2019-07-14T07:19:37Z</time>
      </trkpt>
      <trkpt lat="42.6094842330" lon="20.0306977797">
        <ele>1557.47</ele>
        <time>2019-07-14T07:19:49Z</time>
      </trkpt>
      <trkpt lat="42.6094676368" lon="20.0306921639">
        <ele>1557.95</ele>
        <time>2019-07-14T07:19:51Z</time>
      </trkpt>
      <trkpt lat="42.6093892660" lon="20.0305831991">
        <ele>1560.36</ele>
        <time>2019-07-14T07:20:06Z</time>
      </trkpt>
      <trkpt lat="42.6093733404" lon="20.0305622444">
        <ele>1561.32</ele>
        <time>2019-07-14T07:20:10Z</time>
      </trkpt>
      <trkpt lat="42.6093252283" lon="20.0305682793">
        <ele>1562.76</ele>
        <time>2019-07-14T07:20:16Z</time>
      </trkpt>
      <trkpt lat="42.6092430856" lon="20.0305519346">
        <ele>1564.20</ele>
        <time>2019-07-14T07:20:27Z</time>
      </trkpt>
      <trkpt lat="42.6091393176" lon="20.0304915849">
        <ele>1566.12</ele>
        <time>2019-07-14T07:20:40Z</time>
      </trkpt>
      <trkpt lat="42.6090588514" lon="20.0303708017">
        <ele>1567.57</ele>
        <time>2019-07-14T07:20:54Z</time>
      </trkpt>
      <trkpt lat="42.6089764573" lon="20.0303067639">
        <ele>1569.49</ele>
        <time>2019-07-14T07:21:06Z</time>
      </trkpt>
      <trkpt lat="42.6088824123" lon="20.0302498508">
        <ele>1570.93</ele>
        <time>2019-07-14T07:21:19Z</time>
      </trkpt>
      <trkpt lat="42.6088661514" lon="20.0302371942">
        <ele>1571.41</ele>
        <time>2019-07-14T07:21:22Z</time>
      </trkpt>
      <trkpt lat="42.6087197196" lon="20.0301562250">
        <ele>1573.33</ele>
        <time>2019-07-14T07:21:36Z</time>
      </trkpt>
      <trkpt lat="42.6086936519" lon="20.0301291514">
        <ele>1573.33</ele>
        <time>2019-07-14T07:21:38Z</time>
      </trkpt>
      <trkpt lat="42.6086011995" lon="20.0300677959">
        <ele>1573.82</ele>
        <time>2019-07-14T07:21:44Z</time>
      </trkpt>
      <trkpt lat="42.6085416041" lon="20.0299799535">
        <ele>1574.30</ele>
        <time>2019-07-14T07:21:54Z</time>
      </trkpt>
      <trkpt lat="42.6084295381" lon="20.0299170054">
        <ele>1574.78</ele>
        <time>2019-07-14T07:22:08Z</time>
      </trkpt>
      <trkpt lat="42.6083478983" lon="20.0298675522">
        <ele>1577.18</ele>
        <time>2019-07-14T07:22:24Z</time>
      </trkpt>
      <trkpt lat="42.6082764007" lon="20.0298082922">
        <ele>1578.62</ele>
        <time>2019-07-14T07:22:35Z</time>
      </trkpt>
      <trkpt lat="42.6082007959" lon="20.0297481101">
        <ele>1579.58</ele>
        <time>2019-07-14T07:22:44Z</time>
      </trkpt>
      <trkpt lat="42.6081236824" lon="20.0296460185">
        <ele>1581.03</ele>
        <time>2019-07-14T07:22:57Z</time>
      </trkpt>
      <trkpt lat="42.6080506761" lon="20.0295689050">
        <ele>1582.95</ele>
        <time>2019-07-14T07:23:11Z</time>
      </trkpt>
      <trkpt lat="42.6079971995" lon="20.0295321923">
        <ele>1583.43</ele>
        <time>2019-07-14T07:23:18Z</time>
      </trkpt>
      <trkpt lat="42.6079273783" lon="20.0293971598">
        <ele>1584.39</ele>
        <time>2019-07-14T07:23:30Z</time>
      </trkpt>
      <trkpt lat="42.6078577247" lon="20.0293107424">
        <ele>1584.39</ele>
        <time>2019-07-14T07:23:42Z</time>
      </trkpt>
      <trkpt lat="42.6078179106" lon="20.0292960741">
        <ele>1585.35</ele>
        <time>2019-07-14T07:23:47Z</time>
      </trkpt>
      <trkpt lat="42.6077127177" lon="20.0292410050">
        <ele>1585.83</ele>
        <time>2019-07-14T07:24:02Z</time>
      </trkpt>
      <trkpt lat="42.6076782681" lon="20.0291907135">
        <ele>1585.83</ele>
        <time>2019-07-14T07:24:07Z</time>
      </trkpt>
      <trkpt lat="42.6076228637" lon="20.0290356483">
        <ele>1586.79</ele>
        <time>2019-07-14T07:24:20Z</time>
      </trkpt>
      <trkpt lat="42.6075916830" lon="20.0289482251">
        <ele>1587.75</ele>
        <time>2019-07-14T07:24:33Z</time>
      </trkpt>
      <trkpt lat="42.6075702254" lon="20.0288425293">
        <ele>1590.16</ele>
        <time>2019-07-14T07:24:46Z</time>
      </trkpt>
      <trkpt lat="42.6074895915" lon="20.0287351571">
        <ele>1591.60</ele>
        <time>2019-07-14T07:24:58Z</time>
      </trkpt>
      <trkpt lat="42.6074072812" lon="20.0286751427">
        <ele>1592.56</ele>
        <time>2019-07-14T07:25:08Z</time>
      </trkpt>
      <trkpt lat="42.6073656231" lon="20.0286210794">
        <ele>1593.04</ele>
        <time>2019-07-14T07:25:15Z</time>
      </trkpt>
      <trkpt lat="42.6072929520" lon="20.0285556167">
        <ele>1593.04</ele>
        <time>2019-07-14T07:25:26Z</time>
      </trkpt>
      <trkpt lat="42.6072263159" lon="20.0285108574">
        <ele>1594.48</ele>
        <time>2019-07-14T07:25:37Z</time>
      </trkpt>
      <trkpt lat="42.6071906090" lon="20.0284948479">
        <ele>1594.96</ele>
        <time>2019-07-14T07:25:42Z</time>
      </trkpt>
      <trkpt lat="42.6071956381" lon="20.0285299681">
        <ele>1594.96</ele>
        <time>2019-07-14T07:25:44Z</time>
      </trkpt>
      <trkpt lat="42.6072065346" lon="20.0286629889">
        <ele>1596.41</ele>
        <time>2019-07-14T07:25:53Z</time>
      </trkpt>
      <trkpt lat="42.6072173472" lon="20.0287032221">
        <ele>1597.37</ele>
        <time>2019-07-14T07:25:57Z</time>
      </trkpt>
      <trkpt lat="42.6072155032" lon="20.0287782401">
        <ele>1598.33</ele>
        <time>2019-07-14T07:26:04Z</time>
      </trkpt>
      <trkpt lat="42.6071203686" lon="20.0288174674">
        <ele>1599.77</ele>
        <time>2019-07-14T07:26:16Z</time>
      </trkpt>
      <trkpt lat="42.6070508827" lon="20.0287608057">
        <ele>1601.69</ele>
        <time>2019-07-14T07:26:27Z</time>
      </trkpt>
      <trkpt lat="42.6070158463" lon="20.0287349056">
        <ele>1601.21</ele>
        <time>2019-07-14T07:26:32Z</time>
      </trkpt>
      <trkpt lat="42.6069870964" lon="20.0287201535">
        <ele>1601.69</ele>
        <time>2019-07-14T07:26:35Z</time>
      </trkpt>
      <trkpt lat="42.6069710031" lon="20.0287038926">
        <ele>1602.17</ele>
        <time>2019-07-14T07:26:37Z</time>
      </trkpt>
      <trkpt lat="42.6069126651" lon="20.0286402740">
        <ele>1602.17</ele>
        <time>2019-07-14T07:26:44Z</time>
      </trkpt>
      <trkpt lat="42.6068830770" lon="20.0286043156">
        <ele>1602.66</ele>
        <time>2019-07-14T07:26:48Z</time>
      </trkpt>
      <trkpt lat="42.6068148483" lon="20.0285325665">
        <ele>1604.10</ele>
        <time>2019-07-14T07:26:58Z</time>
      </trkpt>
      <trkpt lat="42.6068062149" lon="20.0285272859">
        <ele>1604.10</ele>
        <time>2019-07-14T07:26:59Z</time>
      </trkpt>
      <trkpt lat="42.6067057997" lon="20.0284909923">
        <ele>1605.54</ele>
        <time>2019-07-14T07:27:10Z</time>
      </trkpt>
      <trkpt lat="42.6066753734" lon="20.0284945965">
        <ele>1606.02</ele>
        <time>2019-07-14T07:27:14Z</time>
      </trkpt>
      <trkpt lat="42.6065622177" lon="20.0284787547">
        <ele>1606.50</ele>
        <time>2019-07-14T07:27:25Z</time>
      </trkpt>
      <trkpt lat="42.6064096671" lon="20.0284503400">
        <ele>1608.90</ele>
        <time>2019-07-14T07:27:39Z</time>
      </trkpt>
      <trkpt lat="42.6063742954" lon="20.0284342468">
        <ele>1608.90</ele>
        <time>2019-07-14T07:27:43Z</time>
      </trkpt>
      <trkpt lat="42.6062766463" lon="20.0283842906">
        <ele>1610.35</ele>
        <time>2019-07-14T07:27:55Z</time>
      </trkpt>
      <trkpt lat="42.6062103454" lon="20.0283598155">
        <ele>1611.31</ele>
        <time>2019-07-14T07:28:02Z</time>
      </trkpt>
      <trkpt lat="42.6061717886" lon="20.0284628291">
        <ele>1611.79</ele>
        <time>2019-07-14T07:28:13Z</time>
      </trkpt>
      <trkpt lat="42.6062300429" lon="20.0285971072">
        <ele>1613.71</ele>
        <time>2019-07-14T07:28:26Z</time>
      </trkpt>
      <trkpt lat="42.6062836032" lon="20.0286825188">
        <ele>1614.67</ele>
        <time>2019-07-14T07:28:37Z</time>
      </trkpt>
      <trkpt lat="42.6063135266" lon="20.0286995340">
        <ele>1615.63</ele>
        <time>2019-07-14T07:28:49Z</time>
      </trkpt>
      <trkpt lat="42.6062551048" lon="20.0286998693">
        <ele>1616.11</ele>
        <time>2019-07-14T07:29:05Z</time>
      </trkpt>
      <trkpt lat="42.6062025502" lon="20.0286485720">
        <ele>1616.11</ele>
        <time>2019-07-14T07:29:18Z</time>
      </trkpt>
      <trkpt lat="42.6061609760" lon="20.0286986120">
        <ele>1616.59</ele>
        <time>2019-07-14T07:29:30Z</time>
      </trkpt>
      <trkpt lat="42.6061121933" lon="20.0287348218">
        <ele>1619.00</ele>
        <time>2019-07-14T07:29:43Z</time>
      </trkpt>
      <trkpt lat="42.6060753968" lon="20.0287621468">
        <ele>1621.40</ele>
        <time>2019-07-14T07:29:55Z</time>
      </trkpt>
      <trkpt lat="42.6060073357" lon="20.0287801679">
        <ele>1623.32</ele>
        <time>2019-07-14T07:30:07Z</time>
      </trkpt>
      <trkpt lat="42.6059802622" lon="20.0289369933">
        <ele>1625.25</ele>
        <time>2019-07-14T07:30:22Z</time>
      </trkpt>
      <trkpt lat="42.6059145480" lon="20.0289631449">
        <ele>1626.21</ele>
        <time>2019-07-14T07:30:32Z</time>
      </trkpt>
      <trkpt lat="42.6058821101" lon="20.0290089101">
        <ele>1628.13</ele>
        <time>2019-07-14T07:30:43Z</time>
      </trkpt>
      <trkpt lat="42.6058280468" lon="20.0290896278">
        <ele>1629.57</ele>
        <time>2019-07-14T07:30:56Z</time>
      </trkpt>
      <trkpt lat="42.6057754084" lon="20.0291783921">
        <ele>1631.98</ele>
        <time>2019-07-14T07:31:12Z</time>
      </trkpt>
      <trkpt lat="42.6057133824" lon="20.0292006042">
        <ele>1633.90</ele>
        <time>2019-07-14T07:31:27Z</time>
      </trkpt>
      <trkpt lat="42.6057135500" lon="20.0291687530">
        <ele>1634.38</ele>
        <time>2019-07-14T07:31:35Z</time>
      </trkpt>
      <trkpt lat="42.6057102811" lon="20.0292172842">
        <ele>1635.82</ele>
        <time>2019-07-14T07:31:47Z</time>
      </trkpt>
      <trkpt lat="42.6056556311" lon="20.0293134246">
        <ele>1638.22</ele>
        <time>2019-07-14T07:32:01Z</time>
      </trkpt>
      <trkpt lat="42.6056110393" lon="20.0293721817">
        <ele>1640.63</ele>
        <time>2019-07-14T07:32:13Z</time>
      </trkpt>
      <trkpt lat="42.6056157332" lon="20.0295482017">
        <ele>1643.51</ele>
        <time>2019-07-14T07:32:28Z</time>
      </trkpt>
      <trkpt lat="42.6055983827" lon="20.0295790471">
        <ele>1643.99</ele>
        <time>2019-07-14T07:32:32Z</time>
      </trkpt>
      <trkpt lat="42.6054954529" lon="20.0295890216">
        <ele>1645.91</ele>
        <time>2019-07-14T07:32:43Z</time>
      </trkpt>
      <trkpt lat="42.6054123882" lon="20.0296141673">
        <ele>1647.36</ele>
        <time>2019-07-14T07:32:54Z</time>
      </trkpt>
      <trkpt lat="42.6053529605" lon="20.0296757743">
        <ele>1649.76</ele>
        <time>2019-07-14T07:33:08Z</time>
      </trkpt>
      <trkpt lat="42.6052939519" lon="20.0297322683">
        <ele>1652.16</ele>
        <time>2019-07-14T07:33:22Z</time>
      </trkpt>
      <trkpt lat="42.6052495278" lon="20.0296746008">
        <ele>1655.05</ele>
        <time>2019-07-14T07:33:38Z</time>
      </trkpt>
      <trkpt lat="42.6051568240" lon="20.0296031032">
        <ele>1656.97</ele>
        <time>2019-07-14T07:33:52Z</time>
      </trkpt>
      <trkpt lat="42.6050683949" lon="20.0295992475">
        <ele>1658.41</ele>
        <time>2019-07-14T07:34:05Z</time>
      </trkpt>
      <trkpt lat="42.6049554907" lon="20.0295763649">
        <ele>1659.85</ele>
        <time>2019-07-14T07:34:20Z</time>
      </trkpt>
      <trkpt lat="42.6049168501" lon="20.0295857526">
        <ele>1659.85</ele>
        <time>2019-07-14T07:34:33Z</time>
      </trkpt>
      <trkpt lat="42.6049126592" lon="20.0296020135">
        <ele>1661.30</ele>
        <time>2019-07-14T07:34:46Z</time>
      </trkpt>
      <trkpt lat="42.6049275789" lon="20.0297069550">
        <ele>1662.74</ele>
        <time>2019-07-14T07:34:59Z</time>
      </trkpt>
      <trkpt lat="42.6049434207" lon="20.0298078731">
        <ele>1664.66</ele>
        <time>2019-07-14T07:35:13Z</time>
      </trkpt>
      <trkpt lat="42.6048816461" lon="20.0299178436">
        <ele>1668.02</ele>
        <time>2019-07-14T07:35:25Z</time>
      </trkpt>
      <trkpt lat="42.6048142556" lon="20.0299095456">
        <ele>1668.51</ele>
        <time>2019-07-14T07:35:41Z</time>
      </trkpt>
      <trkpt lat="42.6048025209" lon="20.0299145747">
        <ele>1668.51</ele>
        <time>2019-07-14T07:35:59Z</time>
      </trkpt>
      <trkpt lat="42.6047465298" lon="20.0298635289">
        <ele>1668.51</ele>
        <time>2019-07-14T07:36:26Z</time>
      </trkpt>
      <trkpt lat="42.6047648862" lon="20.0298720784">
        <ele>1667.06</ele>
        <time>2019-07-14T07:36:51Z</time>
      </trkpt>
      <trkpt lat="42.6047220547" lon="20.0298572425">
        <ele>1667.06</ele>
        <time>2019-07-14T07:37:19Z</time>
      </trkpt>
      <trkpt lat="42.6047761180" lon="20.0298409816">
        <ele>1667.54</ele>
        <time>2019-07-14T07:37:45Z</time>
      </trkpt>
      <trkpt lat="42.6047935523" lon="20.0298805442">
        <ele>1667.54</ele>
        <time>2019-07-14T07:38:27Z</time>
      </trkpt>
      <trkpt lat="42.6048099808" lon="20.0299589988">
        <ele>1667.54</ele>
        <time>2019-07-14T07:38:55Z</time>
      </trkpt>
      <trkpt lat="42.6048443466" lon="20.0299038459">
        <ele>1667.54</ele>
        <time>2019-07-14T07:39:25Z</time>
      </trkpt>
      <trkpt lat="42.6048409939" lon="20.0299075339">
        <ele>1668.99</ele>
        <time>2019-07-14T07:39:27Z</time>
      </trkpt>
      <trkpt lat="42.6048220508" lon="20.0299274828">
        <ele>1668.99</ele>
        <time>2019-07-14T07:39:46Z</time>
      </trkpt>
      <trkpt lat="42.6048745215" lon="20.0299212802">
        <ele>1668.99</ele>
        <time>2019-07-14T07:40:06Z</time>
      </trkpt>
      <trkpt lat="42.6048834063" lon="20.0299225375">
        <ele>1668.99</ele>
        <time>2019-07-14T07:40:17Z</time>
      </trkpt>
      <trkpt lat="42.6048498787" lon="20.0298829749">
        <ele>1668.99</ele>
        <time>2019-07-14T07:40:36Z</time>
      </trkpt>
      <trkpt lat="42.6046969928" lon="20.0298200268">
        <ele>1668.99</ele>
        <time>2019-07-14T07:40:51Z</time>
      </trkpt>
      <trkpt lat="42.6046661474" lon="20.0298111420">
        <ele>1668.99</ele>
        <time>2019-07-14T07:40:54Z</time>
      </trkpt>
      <trkpt lat="42.6046228968" lon="20.0297880080">
        <ele>1669.47</ele>
        <time>2019-07-14T07:40:58Z</time>
      </trkpt>
      <trkpt lat="42.6044659037" lon="20.0296811387">
        <ele>1669.47</ele>
        <time>2019-07-14T07:41:12Z</time>
      </trkpt>
      <trkpt lat="42.6042647380" lon="20.0295406580">
        <ele>1669.47</ele>
        <time>2019-07-14T07:41:31Z</time>
      </trkpt>
      <trkpt lat="42.6042146143" lon="20.0295153446">
        <ele>1669.47</ele>
        <time>2019-07-14T07:41:37Z</time>
      </trkpt>
      <trkpt lat="42.6041211560" lon="20.0294850860">
        <ele>1669.47</ele>
        <time>2019-07-14T07:41:46Z</time>
      </trkpt>
      <trkpt lat="42.6039200742" lon="20.0294585153">
        <ele>1670.43</ele>
        <time>2019-07-14T07:42:02Z</time>
      </trkpt>
      <trkpt lat="42.6038178150" lon="20.0294552464">
        <ele>1670.43</ele>
        <time>2019-07-14T07:42:11Z</time>
      </trkpt>
      <trkpt lat="42.6037000492" lon="20.0294573419">
        <ele>1671.39</ele>
        <time>2019-07-14T07:42:24Z</time>
      </trkpt>
      <trkpt lat="42.6036411244" lon="20.0294613652">
        <ele>1671.87</ele>
        <time>2019-07-14T07:42:30Z</time>
      </trkpt>
      <trkpt lat="42.6035858039" lon="20.0294572581">
        <ele>1671.87</ele>
        <time>2019-07-14T07:42:38Z</time>
      </trkpt>
      <trkpt lat="42.6034429763" lon="20.0294689089">
        <ele>1672.35</ele>
        <time>2019-07-14T07:42:48Z</time>
      </trkpt>
      <trkpt lat="42.6032737456" lon="20.0294457749">
        <ele>1672.83</ele>
        <time>2019-07-14T07:43:04Z</time>
      </trkpt>
      <trkpt lat="42.6031661220" lon="20.0294224732">
        <ele>1673.79</ele>
        <time>2019-07-14T07:43:16Z</time>
      </trkpt>
      <trkpt lat="42.6029796246" lon="20.0293788873">
        <ele>1675.23</ele>
        <time>2019-07-14T07:43:33Z</time>
      </trkpt>
      <trkpt lat="42.6027673110" lon="20.0293505564">
        <ele>1675.72</ele>
        <time>2019-07-14T07:43:49Z</time>
      </trkpt>
      <trkpt lat="42.6025391556" lon="20.0294813141">
        <ele>1678.12</ele>
        <time>2019-07-14T07:44:09Z</time>
      </trkpt>
      <trkpt lat="42.6024114154" lon="20.0295922905">
        <ele>1680.04</ele>
        <time>2019-07-14T07:44:23Z</time>
      </trkpt>
      <trkpt lat="42.6022097468" lon="20.0297112297">
        <ele>1681.48</ele>
        <time>2019-07-14T07:44:40Z</time>
      </trkpt>
      <trkpt lat="42.6020359062" lon="20.0298207812">
        <ele>1681.96</ele>
        <time>2019-07-14T07:44:56Z</time>
      </trkpt>
      <trkpt lat="42.6019749697" lon="20.0298661273">
        <ele>1681.96</ele>
        <time>2019-07-14T07:45:00Z</time>
      </trkpt>
      <trkpt lat="42.6017855387" lon="20.0300014950">
        <ele>1681.96</ele>
        <time>2019-07-14T07:45:15Z</time>
      </trkpt>
      <trkpt lat="42.6017339900" lon="20.0301077776">
        <ele>1681.96</ele>
        <time>2019-07-14T07:45:23Z</time>
      </trkpt>
      <trkpt lat="42.6017070841" lon="20.0301385392">
        <ele>1681.96</ele>
        <time>2019-07-14T07:45:25Z</time>
      </trkpt>
      <trkpt lat="42.6016645040" lon="20.0301848911">
        <ele>1681.96</ele>
        <time>2019-07-14T07:45:28Z</time>
      </trkpt>
      <trkpt lat="42.6015538629" lon="20.0303272158">
        <ele>1682.44</ele>
        <time>2019-07-14T07:45:42Z</time>
      </trkpt>
      <trkpt lat="42.6014728937" lon="20.0304045808">
        <ele>1682.44</ele>
        <time>2019-07-14T07:45:48Z</time>
      </trkpt>
      <trkpt lat="42.6012847200" lon="20.0306189060">
        <ele>1683.89</ele>
        <time>2019-07-14T07:46:04Z</time>
      </trkpt>
      <trkpt lat="42.6011768449" lon="20.0306807645">
        <ele>1685.33</ele>
        <time>2019-07-14T07:46:17Z</time>
      </trkpt>
      <trkpt lat="42.6009849831" lon="20.0307944231">
        <ele>1686.77</ele>
        <time>2019-07-14T07:46:33Z</time>
      </trkpt>
      <trkpt lat="42.6009715721" lon="20.0308038108">
        <ele>1686.77</ele>
        <time>2019-07-14T07:46:35Z</time>
      </trkpt>
      <trkpt lat="42.6007585879" lon="20.0308749732">
        <ele>1687.73</ele>
        <time>2019-07-14T07:46:49Z</time>
      </trkpt>
      <trkpt lat="42.6005753595" lon="20.0309280306">
        <ele>1688.69</ele>
        <time>2019-07-14T07:47:02Z</time>
      </trkpt>
      <trkpt lat="42.6003752835" lon="20.0309960078">
        <ele>1689.17</ele>
        <time>2019-07-14T07:47:17Z</time>
      </trkpt>
      <trkpt lat="42.6003620401" lon="20.0310023781">
        <ele>1689.17</ele>
        <time>2019-07-14T07:47:18Z</time>
      </trkpt>
      <trkpt lat="42.6001929771" lon="20.0310276076">
        <ele>1689.65</ele>
        <time>2019-07-14T07:47:30Z</time>
      </trkpt>
      <trkpt lat="42.6001440268" lon="20.0310412701">
        <ele>1689.65</ele>
        <time>2019-07-14T07:47:34Z</time>
      </trkpt>
      <trkpt lat="42.6000702661" lon="20.0311039668">
        <ele>1690.14</ele>
        <time>2019-07-14T07:47:40Z</time>
      </trkpt>
      <trkpt lat="42.5999705214" lon="20.0311816670">
        <ele>1691.10</ele>
        <time>2019-07-14T07:47:54Z</time>
      </trkpt>
      <trkpt lat="42.5999171287" lon="20.0312101655">
        <ele>1691.58</ele>
        <time>2019-07-14T07:48:00Z</time>
      </trkpt>
      <trkpt lat="42.5998218264" lon="20.0312435254">
        <ele>1692.06</ele>
        <time>2019-07-14T07:48:10Z</time>
      </trkpt>
      <trkpt lat="42.5995656755" lon="20.0313311163">
        <ele>1693.50</ele>
        <time>2019-07-14T07:48:23Z</time>
      </trkpt>
      <trkpt lat="42.5994629972" lon="20.0313270092">
        <ele>1693.98</ele>
        <time>2019-07-14T07:48:34Z</time>
      </trkpt>
      <trkpt lat="42.5993802678" lon="20.0312450342">
        <ele>1694.46</ele>
        <time>2019-07-14T07:48:42Z</time>
      </trkpt>
      <trkpt lat="42.5992686208" lon="20.0311578624">
        <ele>1695.90</ele>
        <time>2019-07-14T07:48:54Z</time>
      </trkpt>
      <trkpt lat="42.5991128851" lon="20.0311457925">
        <ele>1697.34</ele>
        <time>2019-07-14T07:49:08Z</time>
      </trkpt>
      <trkpt lat="42.5990161579" lon="20.0311313756">
        <ele>1698.31</ele>
        <time>2019-07-14T07:49:16Z</time>
      </trkpt>
      <trkpt lat="42.5987906009" lon="20.0310644042">
        <ele>1699.75</ele>
        <time>2019-07-14T07:49:33Z</time>
      </trkpt>
      <trkpt lat="42.5985438377" lon="20.0310674217">
        <ele>1700.71</ele>
        <time>2019-07-14T07:49:50Z</time>
      </trkpt>
      <trkpt lat="42.5983323622" lon="20.0311376620">
        <ele>1701.19</ele>
        <time>2019-07-14T07:50:06Z</time>
      </trkpt>
      <trkpt lat="42.5983115751" lon="20.0311518274">
        <ele>1701.19</ele>
        <time>2019-07-14T07:50:08Z</time>
      </trkpt>
      <trkpt lat="42.5981315318" lon="20.0313718524">
        <ele>1702.15</ele>
        <time>2019-07-14T07:50:29Z</time>
      </trkpt>
      <trkpt lat="42.5979493093" lon="20.0313355587">
        <ele>1702.15</ele>
        <time>2019-07-14T07:50:44Z</time>
      </trkpt>
      <trkpt lat="42.5977536757" lon="20.0312091596">
        <ele>1703.11</ele>
        <time>2019-07-14T07:51:01Z</time>
      </trkpt>
      <trkpt lat="42.5975667592" lon="20.0311300345">
        <ele>1704.07</ele>
        <time>2019-07-14T07:51:17Z</time>
      </trkpt>
      <trkpt lat="42.5973619055" lon="20.0310584530">
        <ele>1705.04</ele>
        <time>2019-07-14T07:51:34Z</time>
      </trkpt>
      <trkpt lat="42.5973512605" lon="20.0310584530">
        <ele>1705.04</ele>
        <time>2019-07-14T07:51:35Z</time>
      </trkpt>
      <trkpt lat="42.5973160565" lon="20.0310395099">
        <ele>1705.04</ele>
        <time>2019-07-14T07:51:38Z</time>
      </trkpt>
      <trkpt lat="42.5971244462" lon="20.0308892224">
        <ele>1705.52</ele>
        <time>2019-07-14T07:51:55Z</time>
      </trkpt>
      <trkpt lat="42.5970559660" lon="20.0308255199">
        <ele>1706.00</ele>
        <time>2019-07-14T07:52:02Z</time>
      </trkpt>
      <trkpt lat="42.5968626793" lon="20.0307257753">
        <ele>1706.00</ele>
        <time>2019-07-14T07:52:18Z</time>
      </trkpt>
      <trkpt lat="42.5966601726" lon="20.0307850353">
        <ele>1706.48</ele>
        <time>2019-07-14T07:52:34Z</time>
      </trkpt>
      <trkpt lat="42.5964567438" lon="20.0308772363">
        <ele>1706.96</ele>
        <time>2019-07-14T07:52:51Z</time>
      </trkpt>
      <trkpt lat="42.5962839089" lon="20.0309551042">
        <ele>1707.44</ele>
        <time>2019-07-14T07:53:05Z</time>
      </trkpt>
      <trkpt lat="42.5960490480" lon="20.0309661683">
        <ele>1708.40</ele>
        <time>2019-07-14T07:53:24Z</time>
      </trkpt>
      <trkpt lat="42.5958591141" lon="20.0309524219">
        <ele>1708.40</ele>
        <time>2019-07-14T07:53:40Z</time>
      </trkpt>
      <trkpt lat="42.5958497263" lon="20.0309565291">
        <ele>1708.40</ele>
        <time>2019-07-14T07:53:41Z</time>
      </trkpt>
      <trkpt lat="42.5957032945" lon="20.0310727023">
        <ele>1709.84</ele>
        <time>2019-07-14T07:53:57Z</time>
      </trkpt>
      <trkpt lat="42.5956255104" lon="20.0311925635">
        <ele>1710.32</ele>
        <time>2019-07-14T07:54:10Z</time>
      </trkpt>
      <trkpt lat="42.5955903064" lon="20.0312113389">
        <ele>1710.80</ele>
        <time>2019-07-14T07:54:14Z</time>
      </trkpt>
      <trkpt lat="42.5954876281" lon="20.0311887078">
        <ele>1712.25</ele>
        <time>2019-07-14T07:54:26Z</time>
      </trkpt>
      <trkpt lat="42.5953719579" lon="20.0311910547">
        <ele>1714.65</ele>
        <time>2019-07-14T07:54:39Z</time>
      </trkpt>
      <trkpt lat="42.5953647494" lon="20.0311899651">
        <ele>1714.65</ele>
        <time>2019-07-14T07:54:57Z</time>
      </trkpt>
      <trkpt lat="42.5953658391" lon="20.0311735366">
        <ele>1714.65</ele>
        <time>2019-07-14T07:55:01Z</time>
      </trkpt>
      <trkpt lat="42.5953470636" lon="20.0311606284">
        <ele>1714.65</ele>
        <time>2019-07-14T07:55:03Z</time>
      </trkpt>
      <trkpt lat="42.5953366701" lon="20.0311256759">
        <ele>1714.65</ele>
        <time>2019-07-14T07:55:06Z</time>
      </trkpt>
      <trkpt lat="42.5953388494" lon="20.0310930703">
        <ele>1714.65</ele>
        <time>2019-07-14T07:55:08Z</time>
      </trkpt>
      <trkpt lat="42.5953229237" lon="20.0309483148">
        <ele>1714.65</ele>
        <time>2019-07-14T07:55:19Z</time>
      </trkpt>
      <trkpt lat="42.5952842832" lon="20.0308785774">
        <ele>1714.65</ele>
        <time>2019-07-14T07:55:26Z</time>
      </trkpt>
      <trkpt lat="42.5951904058" lon="20.0308542699">
        <ele>1715.61</ele>
        <time>2019-07-14T07:55:40Z</time>
      </trkpt>
      <trkpt lat="42.5950778369" lon="20.0308851153">
        <ele>1716.09</ele>
        <time>2019-07-14T07:55:53Z</time>
      </trkpt>
      <trkpt lat="42.5950150564" lon="20.0308466423">
        <ele>1716.09</ele>
        <time>2019-07-14T07:56:01Z</time>
      </trkpt>
      <trkpt lat="42.5949232746" lon="20.0308649149">
        <ele>1717.05</ele>
        <time>2019-07-14T07:56:13Z</time>
      </trkpt>
      <trkpt lat="42.5948951114" lon="20.0308709498">
        <ele>1717.53</ele>
        <time>2019-07-14T07:56:27Z</time>
      </trkpt>
      <trkpt lat="42.5948588178" lon="20.0308603887">
        <ele>1717.53</ele>
        <time>2019-07-14T07:56:32Z</time>
      </trkpt>
      <trkpt lat="42.5948335882" lon="20.0308576226">
        <ele>1717.53</ele>
        <time>2019-07-14T07:56:35Z</time>
      </trkpt>
      <trkpt lat="42.5948066823" lon="20.0308486540">
        <ele>1717.53</ele>
        <time>2019-07-14T07:56:38Z</time>
      </trkpt>
      <trkpt lat="42.5947145652" lon="20.0308367517">
        <ele>1719.94</ele>
        <time>2019-07-14T07:56:50Z</time>
      </trkpt>
      <trkpt lat="42.5947039202" lon="20.0308294594">
        <ele>1719.94</ele>
        <time>2019-07-14T07:56:53Z</time>
      </trkpt>
      <trkpt lat="42.5946681295" lon="20.0307909865">
        <ele>1721.38</ele>
        <time>2019-07-14T07:57:03Z</time>
      </trkpt>
      <trkpt lat="42.5946695544" lon="20.0306921639">
        <ele>1722.34</ele>
        <time>2019-07-14T07:57:14Z</time>
      </trkpt>
      <trkpt lat="42.5946663693" lon="20.0306565408">
        <ele>1723.30</ele>
        <time>2019-07-14T07:57:24Z</time>
      </trkpt>
      <trkpt lat="42.5946755055" lon="20.0306662638">
        <ele>1723.78</ele>
        <time>2019-07-14T07:57:32Z</time>
      </trkpt>
      <trkpt lat="42.5946051814" lon="20.0306848716">
        <ele>1725.22</ele>
        <time>2019-07-14T07:57:42Z</time>
      </trkpt>
      <trkpt lat="42.5945083704" lon="20.0306119490">
        <ele>1725.70</ele>
        <time>2019-07-14T07:57:52Z</time>
      </trkpt>
      <trkpt lat="42.5944228750" lon="20.0305856299">
        <ele>1727.15</ele>
        <time>2019-07-14T07:58:01Z</time>
      </trkpt>
      <trkpt lat="42.5943320990" lon="20.0305257831">
        <ele>1729.55</ele>
        <time>2019-07-14T07:58:14Z</time>
      </trkpt>
      <trkpt lat="42.5942581706" lon="20.0305330753">
        <ele>1731.47</ele>
        <time>2019-07-14T07:58:24Z</time>
      </trkpt>
      <trkpt lat="42.5942717493" lon="20.0305379368">
        <ele>1731.95</ele>
        <time>2019-07-14T07:58:27Z</time>
      </trkpt>
      <trkpt lat="42.5941828173" lon="20.0305233523">
        <ele>1734.36</ele>
        <time>2019-07-14T07:58:40Z</time>
      </trkpt>
      <trkpt lat="42.5940696616" lon="20.0305438880">
        <ele>1736.28</ele>
        <time>2019-07-14T07:58:51Z</time>
      </trkpt>
      <trkpt lat="42.5940418337" lon="20.0305453129">
        <ele>1736.76</ele>
        <time>2019-07-14T07:58:54Z</time>
      </trkpt>
      <trkpt lat="42.5939843338" lon="20.0305590592">
        <ele>1737.72</ele>
        <time>2019-07-14T07:59:01Z</time>
      </trkpt>
      <trkpt lat="42.5939063821" lon="20.0306233484">
        <ele>1739.64</ele>
        <time>2019-07-14T07:59:11Z</time>
      </trkpt>
      <trkpt lat="42.5938467029" lon="20.0306572113">
        <ele>1741.57</ele>
        <time>2019-07-14T07:59:20Z</time>
      </trkpt>
      <trkpt lat="42.5937446952" lon="20.0306676049">
        <ele>1742.05</ele>
        <time>2019-07-14T07:59:27Z</time>
      </trkpt>
      <trkpt lat="42.5936854351" lon="20.0306672696">
        <ele>1744.45</ele>
        <time>2019-07-14T07:59:37Z</time>
      </trkpt>
      <trkpt lat="42.5936152786" lon="20.0307062455">
        <ele>1745.89</ele>
        <time>2019-07-14T07:59:45Z</time>
      </trkpt>
      <trkpt lat="42.5935649034" lon="20.0307462271">
        <ele>1746.37</ele>
        <time>2019-07-14T07:59:51Z</time>
      </trkpt>
      <trkpt lat="42.5935336389" lon="20.0307989493">
        <ele>1747.33</ele>
        <time>2019-07-14T07:59:55Z</time>
      </trkpt>
      <trkpt lat="42.5935041346" lon="20.0308593828">
        <ele>1747.81</ele>
        <time>2019-07-14T07:59:59Z</time>
      </trkpt>
      <trkpt lat="42.5934545975" lon="20.0308747217">
        <ele>1748.29</ele>
        <time>2019-07-14T08:00:03Z</time>
      </trkpt>
      <trkpt lat="42.5933966786" lon="20.0309230853">
        <ele>1749.26</ele>
        <time>2019-07-14T08:00:11Z</time>
      </trkpt>
      <trkpt lat="42.5933493208" lon="20.0309618935">
        <ele>1750.22</ele>
        <time>2019-07-14T08:00:17Z</time>
      </trkpt>
      <trkpt lat="42.5933592115" lon="20.0309880450">
        <ele>1750.70</ele>
        <time>2019-07-14T08:00:20Z</time>
      </trkpt>
      <trkpt lat="42.5933123566" lon="20.0310473051">
        <ele>1753.10</ele>
        <time>2019-07-14T08:00:31Z</time>
      </trkpt>
      <trkpt lat="42.5932862051" lon="20.0310796592">
        <ele>1754.06</ele>
        <time>2019-07-14T08:00:35Z</time>
      </trkpt>
      <trkpt lat="42.5932375900" lon="20.0311147794">
        <ele>1755.02</ele>
        <time>2019-07-14T08:00:40Z</time>
      </trkpt>
      <trkpt lat="42.5931515079" lon="20.0311728660">
        <ele>1755.99</ele>
        <time>2019-07-14T08:00:50Z</time>
      </trkpt>
      <trkpt lat="42.5930878893" lon="20.0312460400">
        <ele>1757.91</ele>
        <time>2019-07-14T08:00:59Z</time>
      </trkpt>
      <trkpt lat="42.5929920841" lon="20.0313191302">
        <ele>1759.35</ele>
        <time>2019-07-14T08:01:11Z</time>
      </trkpt>
      <trkpt lat="42.5929178204" lon="20.0313695893">
        <ele>1760.79</ele>
        <time>2019-07-14T08:01:22Z</time>
      </trkpt>
      <trkpt lat="42.5929129589" lon="20.0313840900">
        <ele>1761.27</ele>
        <time>2019-07-14T08:01:25Z</time>
      </trkpt>
      <trkpt lat="42.5927609112" lon="20.0313799828">
        <ele>1762.71</ele>
        <time>2019-07-14T08:01:37Z</time>
      </trkpt>
      <trkpt lat="42.5927367713" lon="20.0313836709">
        <ele>1762.71</ele>
        <time>2019-07-14T08:01:39Z</time>
      </trkpt>
      <trkpt lat="42.5927039981" lon="20.0314137619">
        <ele>1763.20</ele>
        <time>2019-07-14T08:01:43Z</time>
      </trkpt>
      <trkpt lat="42.5926820375" lon="20.0314488821">
        <ele>1764.64</ele>
        <time>2019-07-14T08:01:51Z</time>
      </trkpt>
      <trkpt lat="42.5925404672" lon="20.0315000117">
        <ele>1766.08</ele>
        <time>2019-07-14T08:02:04Z</time>
      </trkpt>
      <trkpt lat="42.5924101286" lon="20.0315673184">
        <ele>1768.48</ele>
        <time>2019-07-14T08:02:17Z</time>
      </trkpt>
      <trkpt lat="42.5923834741" lon="20.0315904524">
        <ele>1768.96</ele>
        <time>2019-07-14T08:02:20Z</time>
      </trkpt>
      <trkpt lat="42.5923194364" lon="20.0316241477">
        <ele>1769.44</ele>
        <time>2019-07-14T08:02:25Z</time>
      </trkpt>
      <trkpt lat="42.5923201069" lon="20.0316409953">
        <ele>1769.44</ele>
        <time>2019-07-14T08:02:26Z</time>
      </trkpt>
      <trkpt lat="42.5923009124" lon="20.0316544902">
        <ele>1770.41</ele>
        <time>2019-07-14T08:02:28Z</time>
      </trkpt>
      <trkpt lat="42.5922622718" lon="20.0316730142">
        <ele>1769.92</ele>
        <time>2019-07-14T08:02:30Z</time>
      </trkpt>
      <trkpt lat="42.5922116451" lon="20.0316945557">
        <ele>1770.41</ele>
        <time>2019-07-14T08:02:33Z</time>
      </trkpt>
      <trkpt lat="42.5921170134" lon="20.0318045262">
        <ele>1772.33</ele>
        <time>2019-07-14T08:02:45Z</time>
      </trkpt>
      <trkpt lat="42.5920367148" lon="20.0318481121">
        <ele>1773.29</ele>
        <time>2019-07-14T08:02:55Z</time>
      </trkpt>
      <trkpt lat="42.5920016784" lon="20.0318507105">
        <ele>1774.25</ele>
        <time>2019-07-14T08:02:59Z</time>
      </trkpt>
      <trkpt lat="42.5919514708" lon="20.0319346972">
        <ele>1776.65</ele>
        <time>2019-07-14T08:03:11Z</time>
      </trkpt>
      <trkpt lat="42.5918799732" lon="20.0319850724">
        <ele>1778.58</ele>
        <time>2019-07-14T08:03:21Z</time>
      </trkpt>
      <trkpt lat="42.5918073021" lon="20.0319881737">
        <ele>1780.02</ele>
        <time>2019-07-14T08:03:30Z</time>
      </trkpt>
      <trkpt lat="42.5917057134" lon="20.0320121460">
        <ele>1781.94</ele>
        <time>2019-07-14T08:03:41Z</time>
      </trkpt>
      <trkpt lat="42.5916871894" lon="20.0320434105">
        <ele>1783.38</ele>
        <time>2019-07-14T08:03:48Z</time>
      </trkpt>
      <trkpt lat="42.5916512311" lon="20.0320750941">
        <ele>1785.31</ele>
        <time>2019-07-14T08:03:57Z</time>
      </trkpt>
      <trkpt lat="42.5915418472" lon="20.0320489425">
        <ele>1786.75</ele>
        <time>2019-07-14T08:04:02Z</time>
      </trkpt>
      <trkpt lat="42.5915322080" lon="20.0320757646">
        <ele>1788.19</ele>
        <time>2019-07-14T08:04:12Z</time>
      </trkpt>
      <trkpt lat="42.5914460421" lon="20.0320711546">
        <ele>1790.11</ele>
        <time>2019-07-14T08:04:20Z</time>
      </trkpt>
      <trkpt lat="42.5913300365" lon="20.0320357829">
        <ele>1792.52</ele>
        <time>2019-07-14T08:04:31Z</time>
      </trkpt>
      <trkpt lat="42.5912987720" lon="20.0320749264">
        <ele>1794.44</ele>
        <time>2019-07-14T08:04:42Z</time>
      </trkpt>
      <trkpt lat="42.5912209880" lon="20.0321087055">
        <ele>1796.36</ele>
        <time>2019-07-14T08:04:56Z</time>
      </trkpt>
      <trkpt lat="42.5911294576" lon="20.0321795326">
        <ele>1798.28</ele>
        <time>2019-07-14T08:05:07Z</time>
      </trkpt>
      <trkpt lat="42.5909710396" lon="20.0322978850">
        <ele>1801.17</ele>
        <time>2019-07-14T08:05:21Z</time>
      </trkpt>
      <trkpt lat="42.5909248553" lon="20.0323166605">
        <ele>1802.61</ele>
        <time>2019-07-14T08:05:26Z</time>
      </trkpt>
      <trkpt lat="42.5908611529" lon="20.0323523674">
        <ele>1803.57</ele>
        <time>2019-07-14T08:05:32Z</time>
      </trkpt>
      <trkpt lat="42.5908077601" lon="20.0324008148">
        <ele>1804.53</ele>
        <time>2019-07-14T08:05:38Z</time>
      </trkpt>
      <trkpt lat="42.5907896552" lon="20.0323975459">
        <ele>1804.53</ele>
        <time>2019-07-14T08:05:42Z</time>
      </trkpt>
      <trkpt lat="42.5906847138" lon="20.0323370285">
        <ele>1806.45</ele>
        <time>2019-07-14T08:05:55Z</time>
      </trkpt>
      <trkpt lat="42.5906015653" lon="20.0323243719">
        <ele>1808.38</ele>
        <time>2019-07-14T08:06:05Z</time>
      </trkpt>
      <trkpt lat="42.5905374438" lon="20.0323724840">
        <ele>1809.82</ele>
        <time>2019-07-14T08:06:15Z</time>
      </trkpt>
      <trkpt lat="42.5903898384" lon="20.0324185845">
        <ele>1812.22</ele>
        <time>2019-07-14T08:06:27Z</time>
      </trkpt>
      <trkpt lat="42.5902905129" lon="20.0324336719">
        <ele>1813.66</ele>
        <time>2019-07-14T08:06:39Z</time>
      </trkpt>
      <trkpt lat="42.5902708154" lon="20.0325079355">
        <ele>1816.07</ele>
        <time>2019-07-14T08:06:49Z</time>
      </trkpt>
      <trkpt lat="42.5902342703" lon="20.0325491745">
        <ele>1817.03</ele>
        <time>2019-07-14T08:06:52Z</time>
      </trkpt>
      <trkpt lat="42.5902073644" lon="20.0325750746">
        <ele>1817.03</ele>
        <time>2019-07-14T08:06:55Z</time>
      </trkpt>
      <trkpt lat="42.5901228748" lon="20.0326308142">
        <ele>1818.95</ele>
        <time>2019-07-14T08:07:04Z</time>
      </trkpt>
      <trkpt lat="42.5899995770" lon="20.0326577201">
        <ele>1820.87</ele>
        <time>2019-07-14T08:07:15Z</time>
      </trkpt>
      <trkpt lat="42.5898603536" lon="20.0327388570">
        <ele>1822.80</ele>
        <time>2019-07-14T08:07:29Z</time>
      </trkpt>
      <trkpt lat="42.5897629559" lon="20.0327572972">
        <ele>1823.76</ele>
        <time>2019-07-14T08:07:39Z</time>
      </trkpt>
      <trkpt lat="42.5896456931" lon="20.0327753183">
        <ele>1826.16</ele>
        <time>2019-07-14T08:07:52Z</time>
      </trkpt>
      <trkpt lat="42.5895638019" lon="20.0328543596">
        <ele>1828.56</ele>
        <time>2019-07-14T08:08:04Z</time>
      </trkpt>
      <trkpt lat="42.5895590242" lon="20.0328639988">
        <ele>1828.56</ele>
        <time>2019-07-14T08:08:05Z</time>
      </trkpt>
      <trkpt lat="42.5894147716" lon="20.0329720415">
        <ele>1831.45</ele>
        <time>2019-07-14T08:08:20Z</time>
      </trkpt>
      <trkpt lat="42.5892717764" lon="20.0329945050">
        <ele>1833.85</ele>
        <time>2019-07-14T08:08:33Z</time>
      </trkpt>
      <trkpt lat="42.5891689304" lon="20.0330858678">
        <ele>1835.29</ele>
        <time>2019-07-14T08:08:46Z</time>
      </trkpt>
      <trkpt lat="42.5890112668" lon="20.0332343113">
        <ele>1836.74</ele>
        <time>2019-07-14T08:09:01Z</time>
      </trkpt>
      <trkpt lat="42.5889332313" lon="20.0333234947">
        <ele>1838.18</ele>
        <time>2019-07-14T08:09:12Z</time>
      </trkpt>
      <trkpt lat="42.5888790004" lon="20.0334153604">
        <ele>1839.14</ele>
        <time>2019-07-14T08:09:24Z</time>
      </trkpt>
      <trkpt lat="42.5888319779" lon="20.0334576052">
        <ele>1839.62</ele>
        <time>2019-07-14T08:09:37Z</time>
      </trkpt>
      <trkpt lat="42.5887050759" lon="20.0334564317">
        <ele>1840.10</ele>
        <time>2019-07-14T08:09:51Z</time>
      </trkpt>
      <trkpt lat="42.5886277948" lon="20.0334487204">
        <ele>1840.10</ele>
        <time>2019-07-14T08:09:56Z</time>
      </trkpt>
      <trkpt lat="42.5884951092" lon="20.0334663223">
        <ele>1840.10</ele>
        <time>2019-07-14T08:10:09Z</time>
      </trkpt>
      <trkpt lat="42.5882547162" lon="20.0334312860">
        <ele>1841.06</ele>
        <time>2019-07-14T08:10:21Z</time>
      </trkpt>
      <trkpt lat="42.5880626868" lon="20.0334060565">
        <ele>1842.98</ele>
        <time>2019-07-14T08:10:34Z</time>
      </trkpt>
      <trkpt lat="42.5880084559" lon="20.0333794020">
        <ele>1843.47</ele>
        <time>2019-07-14T08:10:39Z</time>
      </trkpt>
      <trkpt lat="42.5879640318" lon="20.0333208125">
        <ele>1844.91</ele>
        <time>2019-07-14T08:10:53Z</time>
      </trkpt>
      <trkpt lat="42.5878637005" lon="20.0332174636">
        <ele>1846.35</ele>
        <time>2019-07-14T08:11:05Z</time>
      </trkpt>
      <trkpt lat="42.5877125748" lon="20.0331411045">
        <ele>1848.75</ele>
        <time>2019-07-14T08:11:21Z</time>
      </trkpt>
      <trkpt lat="42.5876538176" lon="20.0331422780">
        <ele>1849.23</ele>
        <time>2019-07-14T08:11:26Z</time>
      </trkpt>
      <trkpt lat="42.5875154324" lon="20.0331231672">
        <ele>1850.19</ele>
        <time>2019-07-14T08:11:39Z</time>
      </trkpt>
      <trkpt lat="42.5874829944" lon="20.0331131928">
        <ele>1850.68</ele>
        <time>2019-07-14T08:11:43Z</time>
      </trkpt>
      <trkpt lat="42.5873482972" lon="20.0330905616">
        <ele>1852.12</ele>
        <time>2019-07-14T08:11:56Z</time>
      </trkpt>
      <trkpt lat="42.5872785598" lon="20.0330527592">
        <ele>1855.00</ele>
        <time>2019-07-14T08:12:10Z</time>
      </trkpt>
      <trkpt lat="42.5870895479" lon="20.0329735503">
        <ele>1856.44</ele>
        <time>2019-07-14T08:12:24Z</time>
      </trkpt>
      <trkpt lat="42.5869985204" lon="20.0329757296">
        <ele>1856.44</ele>
        <time>2019-07-14T08:12:32Z</time>
      </trkpt>
      <trkpt lat="42.5868411083" lon="20.0329522602">
        <ele>1856.44</ele>
        <time>2019-07-14T08:12:44Z</time>
      </trkpt>
      <trkpt lat="42.5866520125" lon="20.0329551939">
        <ele>1856.44</ele>
        <time>2019-07-14T08:13:00Z</time>
      </trkpt>
      <trkpt lat="42.5865315646" lon="20.0329507515">
        <ele>1856.44</ele>
        <time>2019-07-14T08:13:13Z</time>
      </trkpt>
      <trkpt lat="42.5864083506" lon="20.0330190640">
        <ele>1856.92</ele>
        <time>2019-07-14T08:13:25Z</time>
      </trkpt>
      <trkpt lat="42.5862714741" lon="20.0331006199">
        <ele>1858.37</ele>
        <time>2019-07-14T08:13:37Z</time>
      </trkpt>
      <trkpt lat="42.5862086937" lon="20.0331508275">
        <ele>1859.33</ele>
        <time>2019-07-14T08:13:48Z</time>
      </trkpt>
      <trkpt lat="42.5861343462" lon="20.0331513304">
        <ele>1859.33</ele>
        <time>2019-07-14T08:13:59Z</time>
      </trkpt>
      <trkpt lat="42.5860424805" lon="20.0331932399">
        <ele>1859.33</ele>
        <time>2019-07-14T08:14:09Z</time>
      </trkpt>
      <trkpt lat="42.5859672111" lon="20.0332288630">
        <ele>1860.77</ele>
        <time>2019-07-14T08:14:21Z</time>
      </trkpt>
      <trkpt lat="42.5859025028" lon="20.0332293659">
        <ele>1862.21</ele>
        <time>2019-07-14T08:14:27Z</time>
      </trkpt>
      <trkpt lat="42.5857545622" lon="20.0331934914">
        <ele>1863.65</ele>
        <time>2019-07-14T08:14:39Z</time>
      </trkpt>
      <trkpt lat="42.5857291650" lon="20.0332112610">
        <ele>1864.61</ele>
        <time>2019-07-14T08:14:44Z</time>
      </trkpt>
      <trkpt lat="42.5856390595" lon="20.0332264323">
        <ele>1866.54</ele>
        <time>2019-07-14T08:14:56Z</time>
      </trkpt>
      <trkpt lat="42.5855678972" lon="20.0332508236">
        <ele>1869.42</ele>
        <time>2019-07-14T08:15:08Z</time>
      </trkpt>
      <trkpt lat="42.5854232255" lon="20.0332840998">
        <ele>1870.86</ele>
        <time>2019-07-14T08:15:23Z</time>
      </trkpt>
      <trkpt lat="42.5854074676" lon="20.0332966726">
        <ele>1872.30</ele>
        <time>2019-07-14T08:15:30Z</time>
      </trkpt>
      <trkpt lat="42.5853318628" lon="20.0332903024">
        <ele>1873.75</ele>
        <time>2019-07-14T08:15:41Z</time>
      </trkpt>
      <trkpt lat="42.5852934737" lon="20.0332865305">
        <ele>1874.23</ele>
        <time>2019-07-14T08:15:44Z</time>
      </trkpt>
      <trkpt lat="42.5851786416" lon="20.0332936551">
        <ele>1875.19</ele>
        <time>2019-07-14T08:15:55Z</time>
      </trkpt>
      <trkpt lat="42.5851334631" lon="20.0333091617">
        <ele>1875.67</ele>
        <time>2019-07-14T08:15:58Z</time>
      </trkpt>
      <trkpt lat="42.5851189625" lon="20.0333231594">
        <ele>1876.15</ele>
        <time>2019-07-14T08:16:00Z</time>
      </trkpt>
      <trkpt lat="42.5849299505" lon="20.0333269313">
        <ele>1876.63</ele>
        <time>2019-07-14T08:16:11Z</time>
      </trkpt>
      <trkpt lat="42.5847437046" lon="20.0334376562">
        <ele>1879.51</ele>
        <time>2019-07-14T08:16:26Z</time>
      </trkpt>
      <trkpt lat="42.5846894737" lon="20.0335641392">
        <ele>1881.44</ele>
        <time>2019-07-14T08:16:36Z</time>
      </trkpt>
      <trkpt lat="42.5846447144" lon="20.0336103234">
        <ele>1882.40</ele>
        <time>2019-07-14T08:16:40Z</time>
      </trkpt>
      <trkpt lat="42.5845923275" lon="20.0337098166">
        <ele>1884.32</ele>
        <time>2019-07-14T08:16:49Z</time>
      </trkpt>
      <trkpt lat="42.5845328160" lon="20.0338622835">
        <ele>1886.24</ele>
        <time>2019-07-14T08:17:02Z</time>
      </trkpt>
      <trkpt lat="42.5845201593" lon="20.0339901913">
        <ele>1889.13</ele>
        <time>2019-07-14T08:17:13Z</time>
      </trkpt>
      <trkpt lat="42.5844513439" lon="20.0341737550">
        <ele>1889.61</ele>
        <time>2019-07-14T08:17:28Z</time>
      </trkpt>
      <trkpt lat="42.5844033994" lon="20.0342434086">
        <ele>1891.05</ele>
        <time>2019-07-14T08:17:43Z</time>
      </trkpt>
      <trkpt lat="42.5843500905" lon="20.0342482701">
        <ele>1891.53</ele>
        <time>2019-07-14T08:18:07Z</time>
      </trkpt>
      <trkpt lat="42.5843997952" lon="20.0342086237">
        <ele>1892.01</ele>
        <time>2019-07-14T08:18:39Z</time>
      </trkpt>
      <trkpt lat="42.5844911579" lon="20.0341551472">
        <ele>1891.05</ele>
        <time>2019-07-14T08:19:13Z</time>
      </trkpt>
      <trkpt lat="42.5843842048" lon="20.0341266487">
        <ele>1891.53</ele>
        <time>2019-07-14T08:19:39Z</time>
      </trkpt>
      <trkpt lat="42.5843557902" lon="20.0342046842">
        <ele>1892.97</ele>
        <time>2019-07-14T08:20:03Z</time>
      </trkpt>
      <trkpt lat="42.5843630824" lon="20.0341667142">
        <ele>1893.45</ele>
        <time>2019-07-14T08:20:22Z</time>
      </trkpt>
      <trkpt lat="42.5842720550" lon="20.0342057738">
        <ele>1893.45</ele>
        <time>2019-07-14T08:20:41Z</time>
      </trkpt>
      <trkpt lat="42.5842420477" lon="20.0342347752">
        <ele>1893.45</ele>
        <time>2019-07-14T08:20:45Z</time>
      </trkpt>
      <trkpt lat="42.5841784291" lon="20.0343133137">
        <ele>1894.42</ele>
        <time>2019-07-14T08:20:57Z</time>
      </trkpt>
      <trkpt lat="42.5841243658" lon="20.0343159121">
        <ele>1894.90</ele>
        <time>2019-07-14T08:21:02Z</time>
      </trkpt>
      <trkpt lat="42.5840959512" lon="20.0343226176">
        <ele>1895.38</ele>
        <time>2019-07-14T08:21:05Z</time>
      </trkpt>
      <trkpt lat="42.5839745812" lon="20.0343983900">
        <ele>1896.82</ele>
        <time>2019-07-14T08:21:19Z</time>
      </trkpt>
      <trkpt lat="42.5838569831" lon="20.0344024971">
        <ele>1897.30</ele>
        <time>2019-07-14T08:21:24Z</time>
      </trkpt>
      <trkpt lat="42.5836900994" lon="20.0344827119">
        <ele>1898.74</ele>
        <time>2019-07-14T08:21:38Z</time>
      </trkpt>
      <trkpt lat="42.5835944619" lon="20.0345672853">
        <ele>1899.70</ele>
        <time>2019-07-14T08:21:50Z</time>
      </trkpt>
      <trkpt lat="42.5834302604" lon="20.0347386952">
        <ele>1899.70</ele>
        <time>2019-07-14T08:22:03Z</time>
      </trkpt>
      <trkpt lat="42.5833072141" lon="20.0348297227">
        <ele>1900.18</ele>
        <time>2019-07-14T08:22:15Z</time>
      </trkpt>
      <trkpt lat="42.5832009315" lon="20.0348285493">
        <ele>1901.14</ele>
        <time>2019-07-14T08:22:29Z</time>
      </trkpt>
      <trkpt lat="42.5831600279" lon="20.0348194130">
        <ele>1902.11</ele>
        <time>2019-07-14T08:22:36Z</time>
      </trkpt>
      <trkpt lat="42.5830806512" lon="20.0348191615">
        <ele>1903.55</ele>
        <time>2019-07-14T08:22:45Z</time>
      </trkpt>
      <trkpt lat="42.5829971675" lon="20.0348066725">
        <ele>1904.51</ele>
        <time>2019-07-14T08:22:54Z</time>
      </trkpt>
      <trkpt lat="42.5828273501" lon="20.0347718876">
        <ele>1904.51</ele>
        <time>2019-07-14T08:23:06Z</time>
      </trkpt>
      <trkpt lat="42.5827504043" lon="20.0347599853">
        <ele>1902.59</ele>
        <time>2019-07-14T08:23:12Z</time>
      </trkpt>
      <trkpt lat="42.5826181378" lon="20.0347776711">
        <ele>1902.59</ele>
        <time>2019-07-14T08:23:21Z</time>
      </trkpt>
      <trkpt lat="42.5824493263" lon="20.0348212570">
        <ele>1901.14</ele>
        <time>2019-07-14T08:23:34Z</time>
      </trkpt>
      <trkpt lat="42.5822730549" lon="20.0349278748">
        <ele>1899.70</ele>
        <time>2019-07-14T08:23:48Z</time>
      </trkpt>
      <trkpt lat="42.5821318198" lon="20.0350727141">
        <ele>1898.74</ele>
        <time>2019-07-14T08:24:01Z</time>
      </trkpt>
      <trkpt lat="42.5820903294" lon="20.0350795034">
        <ele>1898.26</ele>
        <time>2019-07-14T08:24:05Z</time>
      </trkpt>
      <trkpt lat="42.5819547102" lon="20.0349616539">
        <ele>1897.30</ele>
        <time>2019-07-14T08:24:18Z</time>
      </trkpt>
      <trkpt lat="42.5819042511" lon="20.0349492487">
        <ele>1898.74</ele>
        <time>2019-07-14T08:24:25Z</time>
      </trkpt>
      <trkpt lat="42.5817561429" lon="20.0349291321">
        <ele>1898.74</ele>
        <time>2019-07-14T08:24:36Z</time>
      </trkpt>
      <trkpt lat="42.5817254651" lon="20.0349172298">
        <ele>1898.74</ele>
        <time>2019-07-14T08:24:38Z</time>
      </trkpt>
      <trkpt lat="42.5815839786" lon="20.0349615701">
        <ele>1898.74</ele>
        <time>2019-07-14T08:24:49Z</time>
      </trkpt>
      <trkpt lat="42.5815330166" lon="20.0349971931">
        <ele>1899.22</ele>
        <time>2019-07-14T08:24:55Z</time>
      </trkpt>
      <trkpt lat="42.5814211182" lon="20.0350541901">
        <ele>1899.22</ele>
        <time>2019-07-14T08:25:03Z</time>
      </trkpt>
      <trkpt lat="42.5812551565" lon="20.0351391826">
        <ele>1899.22</ele>
        <time>2019-07-14T08:25:14Z</time>
      </trkpt>
      <trkpt lat="42.5812128279" lon="20.0351856183">
        <ele>1899.22</ele>
        <time>2019-07-14T08:25:18Z</time>
      </trkpt>
      <trkpt lat="42.5811051205" lon="20.0353093352">
        <ele>1896.82</ele>
        <time>2019-07-14T08:25:30Z</time>
      </trkpt>
      <trkpt lat="42.5810855906" lon="20.0353223272">
        <ele>1896.34</ele>
        <time>2019-07-14T08:25:33Z</time>
      </trkpt>
      <trkpt lat="42.5810588524" lon="20.0353847723">
        <ele>1896.34</ele>
        <time>2019-07-14T08:25:36Z</time>
      </trkpt>
      <trkpt lat="42.5810270850" lon="20.0354358181">
        <ele>1895.86</ele>
        <time>2019-07-14T08:25:39Z</time>
      </trkpt>
      <trkpt lat="42.5809829123" lon="20.0354483072">
        <ele>1895.86</ele>
        <time>2019-07-14T08:25:42Z</time>
      </trkpt>
      <trkpt lat="42.5809112471" lon="20.0354465470">
        <ele>1895.86</ele>
        <time>2019-07-14T08:25:48Z</time>
      </trkpt>
      <trkpt lat="42.5808042940" lon="20.0355749577">
        <ele>1895.38</ele>
        <time>2019-07-14T08:26:01Z</time>
      </trkpt>
      <trkpt lat="42.5807858538" lon="20.0355902128">
        <ele>1894.90</ele>
        <time>2019-07-14T08:26:03Z</time>
      </trkpt>
      <trkpt lat="42.5807100814" lon="20.0356308650">
        <ele>1893.45</ele>
        <time>2019-07-14T08:26:13Z</time>
      </trkpt>
      <trkpt lat="42.5806052238" lon="20.0356389116">
        <ele>1891.53</ele>
        <time>2019-07-14T08:26:22Z</time>
      </trkpt>
      <trkpt lat="42.5805239193" lon="20.0356727745">
        <ele>1889.13</ele>
        <time>2019-07-14T08:26:33Z</time>
      </trkpt>
      <trkpt lat="42.5804960914" lon="20.0356967468">
        <ele>1887.21</ele>
        <time>2019-07-14T08:26:39Z</time>
      </trkpt>
      <trkpt lat="42.5804461353" lon="20.0356710143">
        <ele>1883.84</ele>
        <time>2019-07-14T08:26:51Z</time>
      </trkpt>
      <trkpt lat="42.5803720392" lon="20.0357562583">
        <ele>1882.88</ele>
        <time>2019-07-14T08:27:00Z</time>
      </trkpt>
      <trkpt lat="42.5803209096" lon="20.0358097348">
        <ele>1884.32</ele>
        <time>2019-07-14T08:27:07Z</time>
      </trkpt>
      <trkpt lat="42.5802625716" lon="20.0358757004">
        <ele>1885.28</ele>
        <time>2019-07-14T08:27:15Z</time>
      </trkpt>
      <trkpt lat="42.5801602285" lon="20.0359761156">
        <ele>1886.72</ele>
        <time>2019-07-14T08:27:26Z</time>
      </trkpt>
      <trkpt lat="42.5800507609" lon="20.0361103099">
        <ele>1887.21</ele>
        <time>2019-07-14T08:27:40Z</time>
      </trkpt>
      <trkpt lat="42.5799388625" lon="20.0362487789">
        <ele>1885.76</ele>
        <time>2019-07-14T08:27:52Z</time>
      </trkpt>
      <trkpt lat="42.5798262097" lon="20.0363007467">
        <ele>1886.24</ele>
        <time>2019-07-14T08:28:02Z</time>
      </trkpt>
      <trkpt lat="42.5797837134" lon="20.0363107212">
        <ele>1887.21</ele>
        <time>2019-07-14T08:28:06Z</time>
      </trkpt>
      <trkpt lat="42.5797589868" lon="20.0363187678">
        <ele>1887.69</ele>
        <time>2019-07-14T08:28:18Z</time>
      </trkpt>
      <trkpt lat="42.5796760898" lon="20.0363268983">
        <ele>1888.17</ele>
        <time>2019-07-14T08:28:26Z</time>
      </trkpt>
      <trkpt lat="42.5796158239" lon="20.0363101345">
        <ele>1888.17</ele>
        <time>2019-07-14T08:28:29Z</time>
      </trkpt>
      <trkpt lat="42.5794612616" lon="20.0363634434">
        <ele>1888.17</ele>
        <time>2019-07-14T08:28:41Z</time>
      </trkpt>
      <trkpt lat="42.5793499500" lon="20.0363931153">
        <ele>1888.17</ele>
        <time>2019-07-14T08:28:53Z</time>
      </trkpt>
      <trkpt lat="42.5792149175" lon="20.0364486873">
        <ele>1888.17</ele>
        <time>2019-07-14T08:29:04Z</time>
      </trkpt>
      <trkpt lat="42.5792008359" lon="20.0364539679">
        <ele>1888.17</ele>
        <time>2019-07-14T08:29:05Z</time>
      </trkpt>
      <trkpt lat="42.5790802203" lon="20.0363960490">
        <ele>1883.84</ele>
        <time>2019-07-14T08:29:19Z</time>
      </trkpt>
      <trkpt lat="42.5789303519" lon="20.0363582466">
        <ele>1884.32</ele>
        <time>2019-07-14T08:29:33Z</time>
      </trkpt>
      <trkpt lat="42.5788632967" lon="20.0364074484">
        <ele>1885.76</ele>
        <time>2019-07-14T08:29:41Z</time>
      </trkpt>
      <trkpt lat="42.5788081437" lon="20.0364550576">
        <ele>1887.21</ele>
        <time>2019-07-14T08:29:50Z</time>
      </trkpt>
      <trkpt lat="42.5787872728" lon="20.0364700612">
        <ele>1887.69</ele>
        <time>2019-07-14T08:29:52Z</time>
      </trkpt>
      <trkpt lat="42.5786845107" lon="20.0364908483">
        <ele>1888.17</ele>
        <time>2019-07-14T08:30:02Z</time>
      </trkpt>
      <trkpt lat="42.5786438584" lon="20.0364688877">
        <ele>1888.17</ele>
        <time>2019-07-14T08:30:05Z</time>
      </trkpt>
      <trkpt lat="42.5786156114" lon="20.0364304986">
        <ele>1886.24</ele>
        <time>2019-07-14T08:30:10Z</time>
      </trkpt>
      <trkpt lat="42.5785584468" lon="20.0363991503">
        <ele>1885.28</ele>
        <time>2019-07-14T08:30:18Z</time>
      </trkpt>
      <trkpt lat="42.5784742925" lon="20.0364023354">
        <ele>1885.76</ele>
        <time>2019-07-14T08:30:26Z</time>
      </trkpt>
      <trkpt lat="42.5783400983" lon="20.0363838114">
        <ele>1885.76</ele>
        <time>2019-07-14T08:30:39Z</time>
      </trkpt>
      <trkpt lat="42.5782406889" lon="20.0363823865">
        <ele>1885.76</ele>
        <time>2019-07-14T08:30:50Z</time>
      </trkpt>
      <trkpt lat="42.5781611446" lon="20.0363840628">
        <ele>1884.80</ele>
        <time>2019-07-14T08:31:01Z</time>
      </trkpt>
      <trkpt lat="42.5780831929" lon="20.0364078674">
        <ele>1887.69</ele>
        <time>2019-07-14T08:31:13Z</time>
      </trkpt>
      <trkpt lat="42.5780007988" lon="20.0364419818">
        <ele>1888.17</ele>
        <time>2019-07-14T08:31:23Z</time>
      </trkpt>
      <trkpt lat="42.5779890642" lon="20.0364625175">
        <ele>1888.17</ele>
        <time>2019-07-14T08:31:25Z</time>
      </trkpt>
      <trkpt lat="42.5779643375" lon="20.0364391319">
        <ele>1886.72</ele>
        <time>2019-07-14T08:31:28Z</time>
      </trkpt>
      <trkpt lat="42.5779029820" lon="20.0363711547">
        <ele>1883.84</ele>
        <time>2019-07-14T08:31:36Z</time>
      </trkpt>
      <trkpt lat="42.5777985435" lon="20.0363299996">
        <ele>1882.88</ele>
        <time>2019-07-14T08:31:48Z</time>
      </trkpt>
      <trkpt lat="42.5777141377" lon="20.0363859069">
        <ele>1882.88</ele>
        <time>2019-07-14T08:31:57Z</time>
      </trkpt>
      <trkpt lat="42.5776811969" lon="20.0364203565">
        <ele>1883.84</ele>
        <time>2019-07-14T08:32:03Z</time>
      </trkpt>
      <trkpt lat="42.5775523670" lon="20.0364544708">
        <ele>1884.32</ele>
        <time>2019-07-14T08:32:13Z</time>
      </trkpt>
      <trkpt lat="42.5774689671" lon="20.0365066901">
        <ele>1884.32</ele>
        <time>2019-07-14T08:32:26Z</time>
      </trkpt>
      <trkpt lat="42.5773960445" lon="20.0365291536">
        <ele>1883.36</ele>
        <time>2019-07-14T08:32:34Z</time>
      </trkpt>
      <trkpt lat="42.5773009099" lon="20.0366228633">
        <ele>1884.32</ele>
        <time>2019-07-14T08:32:45Z</time>
      </trkpt>
      <trkpt lat="42.5771098025" lon="20.0367304031">
        <ele>1885.76</ele>
        <time>2019-07-14T08:33:02Z</time>
      </trkpt>
      <trkpt lat="42.5770089682" lon="20.0368217658">
        <ele>1887.21</ele>
        <time>2019-07-14T08:33:14Z</time>
      </trkpt>
      <trkpt lat="42.5769424159" lon="20.0368744880">
        <ele>1887.69</ele>
        <time>2019-07-14T08:33:23Z</time>
      </trkpt>
      <trkpt lat="42.5768432580" lon="20.0369357597">
        <ele>1888.17</ele>
        <time>2019-07-14T08:33:33Z</time>
      </trkpt>
      <trkpt lat="42.5767527334" lon="20.0370190758">
        <ele>1888.17</ele>
        <time>2019-07-14T08:33:44Z</time>
      </trkpt>
      <trkpt lat="42.5767159369" lon="20.0370289665">
        <ele>1888.17</ele>
        <time>2019-07-14T08:33:48Z</time>
      </trkpt>
      <trkpt lat="42.5765555073" lon="20.0371332373">
        <ele>1887.21</ele>
        <time>2019-07-14T08:33:59Z</time>
      </trkpt>
      <trkpt lat="42.5764314551" lon="20.0371942576">
        <ele>1888.17</ele>
        <time>2019-07-14T08:34:12Z</time>
      </trkpt>
      <trkpt lat="42.5762710255" lon="20.0372907333">
        <ele>1888.65</ele>
        <time>2019-07-14T08:34:26Z</time>
      </trkpt>
      <trkpt lat="42.5761613064" lon="20.0373747200">
        <ele>1889.13</ele>
        <time>2019-07-14T08:34:38Z</time>
      </trkpt>
      <trkpt lat="42.5761297904" lon="20.0373851974">
        <ele>1889.61</ele>
        <time>2019-07-14T08:34:41Z</time>
      </trkpt>
      <trkpt lat="42.5760051515" lon="20.0374598801">
        <ele>1890.09</ele>
        <time>2019-07-14T08:34:54Z</time>
      </trkpt>
      <trkpt lat="42.5759029761" lon="20.0374838524">
        <ele>1890.57</ele>
        <time>2019-07-14T08:35:07Z</time>
      </trkpt>
      <trkpt lat="42.5758891460" lon="20.0374881271">
        <ele>1890.57</ele>
        <time>2019-07-14T08:35:09Z</time>
      </trkpt>
      <trkpt lat="42.5758406147" lon="20.0374898873">
        <ele>1891.53</ele>
        <time>2019-07-14T08:35:20Z</time>
      </trkpt>
      <trkpt lat="42.5758402795" lon="20.0374644063">
        <ele>1891.53</ele>
        <time>2019-07-14T08:35:22Z</time>
      </trkpt>
      <trkpt lat="42.5757956877" lon="20.0373711158">
        <ele>1893.45</ele>
        <time>2019-07-14T08:35:33Z</time>
      </trkpt>
      <trkpt lat="42.5757073425" lon="20.0373541843">
        <ele>1895.86</ele>
        <time>2019-07-14T08:35:45Z</time>
      </trkpt>
      <trkpt lat="42.5756050833" lon="20.0373480655">
        <ele>1897.30</ele>
        <time>2019-07-14T08:35:58Z</time>
      </trkpt>
      <trkpt lat="42.5754950289" lon="20.0373675115">
        <ele>1898.74</ele>
        <time>2019-07-14T08:36:11Z</time>
      </trkpt>
      <trkpt lat="42.5754209328" lon="20.0374063198">
        <ele>1900.18</ele>
        <time>2019-07-14T08:36:22Z</time>
      </trkpt>
      <trkpt lat="42.5754057616" lon="20.0374335609">
        <ele>1900.66</ele>
        <time>2019-07-14T08:36:26Z</time>
      </trkpt>
      <trkpt lat="42.5753665343" lon="20.0374516658">
        <ele>1900.66</ele>
        <time>2019-07-14T08:36:30Z</time>
      </trkpt>
      <trkpt lat="42.5753316656" lon="20.0374721177">
        <ele>1901.63</ele>
        <time>2019-07-14T08:36:33Z</time>
      </trkpt>
      <trkpt lat="42.5752510317" lon="20.0375298690">
        <ele>1903.07</ele>
        <time>2019-07-14T08:36:46Z</time>
      </trkpt>
      <trkpt lat="42.5751384627" lon="20.0375645701">
        <ele>1903.55</ele>
        <time>2019-07-14T08:36:58Z</time>
      </trkpt>
      <trkpt lat="42.5751063600" lon="20.0375418551">
        <ele>1903.55</ele>
        <time>2019-07-14T08:37:04Z</time>
      </trkpt>
      <trkpt lat="42.5750075374" lon="20.0374404341">
        <ele>1903.55</ele>
        <time>2019-07-14T08:37:17Z</time>
      </trkpt>
      <trkpt lat="42.5749740098" lon="20.0374083314">
        <ele>1903.55</ele>
        <time>2019-07-14T08:37:22Z</time>
      </trkpt>
      <trkpt lat="42.5748683140" lon="20.0373986922">
        <ele>1904.99</ele>
        <time>2019-07-14T08:37:34Z</time>
      </trkpt>
      <trkpt lat="42.5747533143" lon="20.0374244247">
        <ele>1906.43</ele>
        <time>2019-07-14T08:37:46Z</time>
      </trkpt>
      <trkpt lat="42.5746463612" lon="20.0373471435">
        <ele>1908.83</ele>
        <time>2019-07-14T08:38:00Z</time>
      </trkpt>
      <trkpt lat="42.5746038649" lon="20.0371697824">
        <ele>1910.76</ele>
        <time>2019-07-14T08:38:13Z</time>
      </trkpt>
      <trkpt lat="42.5745786354" lon="20.0371352490">
        <ele>1913.16</ele>
        <time>2019-07-14T08:38:26Z</time>
      </trkpt>
      <trkpt lat="42.5745015219" lon="20.0371012185">
        <ele>1916.53</ele>
        <time>2019-07-14T08:38:39Z</time>
      </trkpt>
      <trkpt lat="42.5744262524" lon="20.0370795093">
        <ele>1918.93</ele>
        <time>2019-07-14T08:38:52Z</time>
      </trkpt>
      <trkpt lat="42.5743467920" lon="20.0371084269">
        <ele>1921.81</ele>
        <time>2019-07-14T08:39:06Z</time>
      </trkpt>
      <trkpt lat="42.5742856041" lon="20.0370759889">
        <ele>1924.70</ele>
        <time>2019-07-14T08:39:20Z</time>
      </trkpt>
      <trkpt lat="42.5742374919" lon="20.0369861349">
        <ele>1926.62</ele>
        <time>2019-07-14T08:39:34Z</time>
      </trkpt>
      <trkpt lat="42.5741993543" lon="20.0368958618">
        <ele>1928.06</ele>
        <time>2019-07-14T08:39:47Z</time>
      </trkpt>
      <trkpt lat="42.5741436984" lon="20.0368668605">
        <ele>1930.46</ele>
        <time>2019-07-14T08:39:57Z</time>
      </trkpt>
      <trkpt lat="42.5740302075" lon="20.0368447322">
        <ele>1933.35</ele>
        <time>2019-07-14T08:40:09Z</time>
      </trkpt>
      <trkpt lat="42.5739470590" lon="20.0368613284">
        <ele>1935.27</ele>
        <time>2019-07-14T08:40:23Z</time>
      </trkpt>
      <trkpt lat="42.5738658383" lon="20.0369027350">
        <ele>1936.71</ele>
        <time>2019-07-14T08:40:34Z</time>
      </trkpt>
      <trkpt lat="42.5738038961" lon="20.0369178224">
        <ele>1939.12</ele>
        <time>2019-07-14T08:40:45Z</time>
      </trkpt>
      <trkpt lat="42.5737186521" lon="20.0369379390">
        <ele>1941.52</ele>
        <time>2019-07-14T08:40:58Z</time>
      </trkpt>
      <trkpt lat="42.5736821070" lon="20.0369066745">
        <ele>1943.44</ele>
        <time>2019-07-14T08:41:09Z</time>
      </trkpt>
      <trkpt lat="42.5735994615" lon="20.0368459895">
        <ele>1945.85</ele>
        <time>2019-07-14T08:41:21Z</time>
      </trkpt>
      <trkpt lat="42.5735939294" lon="20.0368302315">
        <ele>1948.73</ele>
        <time>2019-07-14T08:41:33Z</time>
      </trkpt>
      <trkpt lat="42.5735249463" lon="20.0367873162">
        <ele>1951.61</ele>
        <time>2019-07-14T08:41:45Z</time>
      </trkpt>
      <trkpt lat="42.5734724756" lon="20.0367350131">
        <ele>1954.02</ele>
        <time>2019-07-14T08:41:57Z</time>
      </trkpt>
      <trkpt lat="42.5734051690" lon="20.0367068499">
        <ele>1954.50</ele>
        <time>2019-07-14T08:42:08Z</time>
      </trkpt>
      <trkpt lat="42.5733630918" lon="20.0366619229">
        <ele>1956.90</ele>
        <time>2019-07-14T08:42:21Z</time>
      </trkpt>
      <trkpt lat="42.5733226072" lon="20.0365626812">
        <ele>1958.82</ele>
        <time>2019-07-14T08:42:33Z</time>
      </trkpt>
      <trkpt lat="42.5733176619" lon="20.0365388766">
        <ele>1959.78</ele>
        <time>2019-07-14T08:42:37Z</time>
      </trkpt>
      <trkpt lat="42.5732868165" lon="20.0364581589">
        <ele>1961.23</ele>
        <time>2019-07-14T08:42:49Z</time>
      </trkpt>
      <trkpt lat="42.5732509419" lon="20.0363429915">
        <ele>1963.63</ele>
        <time>2019-07-14T08:43:02Z</time>
      </trkpt>
      <trkpt lat="42.5732465833" lon="20.0362618547">
        <ele>1966.03</ele>
        <time>2019-07-14T08:43:15Z</time>
      </trkpt>
      <trkpt lat="42.5731853954" lon="20.0361828133">
        <ele>1966.99</ele>
        <time>2019-07-14T08:43:28Z</time>
      </trkpt>
      <trkpt lat="42.5731403008" lon="20.0361816399">
        <ele>1966.99</ele>
        <time>2019-07-14T08:43:38Z</time>
      </trkpt>
      <trkpt lat="42.5731198490" lon="20.0361907762">
        <ele>1966.99</ele>
        <time>2019-07-14T08:43:42Z</time>
      </trkpt>
      <trkpt lat="42.5730168354" lon="20.0361835677">
        <ele>1966.99</ele>
        <time>2019-07-14T08:43:54Z</time>
      </trkpt>
      <trkpt lat="42.5729469303" lon="20.0361192785">
        <ele>1965.07</ele>
        <time>2019-07-14T08:44:07Z</time>
      </trkpt>
      <trkpt lat="42.5728749298" lon="20.0361003354">
        <ele>1962.19</ele>
        <time>2019-07-14T08:44:19Z</time>
      </trkpt>
      <trkpt lat="42.5728393067" lon="20.0361055322">
        <ele>1962.67</ele>
        <time>2019-07-14T08:44:22Z</time>
      </trkpt>
      <trkpt lat="42.5728190225" lon="20.0361175183">
        <ele>1962.67</ele>
        <time>2019-07-14T08:44:35Z</time>
      </trkpt>
      <trkpt lat="42.5728266500" lon="20.0361108128">
        <ele>1962.19</ele>
        <time>2019-07-14T08:44:58Z</time>
      </trkpt>
      <trkpt lat="42.5727734249" lon="20.0361566618">
        <ele>1962.19</ele>
        <time>2019-07-14T08:45:12Z</time>
      </trkpt>
      <trkpt lat="42.5727309287" lon="20.0361448433">
        <ele>1962.67</ele>
        <time>2019-07-14T08:45:18Z</time>
      </trkpt>
      <trkpt lat="42.5726751890" lon="20.0361762755">
        <ele>1962.67</ele>
        <time>2019-07-14T08:45:25Z</time>
      </trkpt>
      <trkpt lat="42.5725656375" lon="20.0362698175">
        <ele>1962.67</ele>
        <time>2019-07-14T08:45:39Z</time>
      </trkpt>
      <trkpt lat="42.5725495443" lon="20.0362730864">
        <ele>1963.63</ele>
        <time>2019-07-14T08:45:42Z</time>
      </trkpt>
      <trkpt lat="42.5724696647" lon="20.0362795405">
        <ele>1965.55</ele>
        <time>2019-07-14T08:45:55Z</time>
      </trkpt>
      <trkpt lat="42.5724141765" lon="20.0362957176">
        <ele>1966.51</ele>
        <time>2019-07-14T08:46:06Z</time>
      </trkpt>
      <trkpt lat="42.5723616220" lon="20.0363403931">
        <ele>1966.99</ele>
        <time>2019-07-14T08:46:16Z</time>
      </trkpt>
      <trkpt lat="42.5722834188" lon="20.0363831408">
        <ele>1967.96</ele>
        <time>2019-07-14T08:46:28Z</time>
      </trkpt>
      <trkpt lat="42.5722500589" lon="20.0363941211">
        <ele>1968.44</ele>
        <time>2019-07-14T08:46:33Z</time>
      </trkpt>
      <trkpt lat="42.5721616298" lon="20.0365102943">
        <ele>1968.44</ele>
        <time>2019-07-14T08:46:46Z</time>
      </trkpt>
      <trkpt lat="42.5720565207" lon="20.0365896709">
        <ele>1968.92</ele>
        <time>2019-07-14T08:46:58Z</time>
      </trkpt>
      <trkpt lat="42.5720283575" lon="20.0366393756">
        <ele>1968.92</ele>
        <time>2019-07-14T08:47:10Z</time>
      </trkpt>
      <trkpt lat="42.5719944108" lon="20.0366480090">
        <ele>1968.92</ele>
        <time>2019-07-14T08:47:19Z</time>
      </trkpt>
      <trkpt lat="42.5719464663" lon="20.0366438180">
        <ele>1968.92</ele>
        <time>2019-07-14T08:47:33Z</time>
      </trkpt>
      <trkpt lat="42.5718768965" lon="20.0366357714">
        <ele>1968.92</ele>
        <time>2019-07-14T08:47:45Z</time>
      </trkpt>
      <trkpt lat="42.5718577858" lon="20.0365999807">
        <ele>1969.40</ele>
        <time>2019-07-14T08:47:57Z</time>
      </trkpt>
      <trkpt lat="42.5718163792" lon="20.0365108810">
        <ele>1969.40</ele>
        <time>2019-07-14T08:48:10Z</time>
      </trkpt>
      <trkpt lat="42.5717437081" lon="20.0365145691">
        <ele>1969.40</ele>
        <time>2019-07-14T08:48:22Z</time>
      </trkpt>
      <trkpt lat="42.5717422832" lon="20.0364516210">
        <ele>1969.88</ele>
        <time>2019-07-14T08:48:36Z</time>
      </trkpt>
      <trkpt lat="42.5717422832" lon="20.0364426523">
        <ele>1969.88</ele>
        <time>2019-07-14T08:48:37Z</time>
      </trkpt>
      <trkpt lat="42.5717251841" lon="20.0363835599">
        <ele>1969.88</ele>
        <time>2019-07-14T08:48:53Z</time>
      </trkpt>
      <trkpt lat="42.5717219152" lon="20.0362989865">
        <ele>1969.88</ele>
        <time>2019-07-14T08:49:05Z</time>
      </trkpt>
      <trkpt lat="42.5717062410" lon="20.0361756887">
        <ele>1970.36</ele>
        <time>2019-07-14T08:49:18Z</time>
      </trkpt>
      <trkpt lat="42.5716690253" lon="20.0360902771">
        <ele>1970.36</ele>
        <time>2019-07-14T08:49:30Z</time>
      </trkpt>
      <trkpt lat="42.5716135371" lon="20.0360232219">
        <ele>1970.36</ele>
        <time>2019-07-14T08:49:44Z</time>
      </trkpt>
      <trkpt lat="42.5715842005" lon="20.0359839946">
        <ele>1970.36</ele>
        <time>2019-07-14T08:50:06Z</time>
      </trkpt>
      <trkpt lat="42.5715694483" lon="20.0359513890">
        <ele>1970.36</ele>
        <time>2019-07-14T08:50:21Z</time>
      </trkpt>
      <trkpt lat="42.5715600606" lon="20.0359343737">
        <ele>1970.36</ele>
        <time>2019-07-14T08:50:43Z</time>
      </trkpt>
      <trkpt lat="42.5715520978" lon="20.0359704159">
        <ele>1970.36</ele>
        <time>2019-07-14T08:51:09Z</time>
      </trkpt>
      <trkpt lat="42.5715495832" lon="20.0360202882">
        <ele>1970.36</ele>
        <time>2019-07-14T08:51:20Z</time>
      </trkpt>
      <trkpt lat="42.5715367589" lon="20.0359969027">
        <ele>1970.36</ele>
        <time>2019-07-14T08:51:52Z</time>
      </trkpt>
      <trkpt lat="42.5715549476" lon="20.0359559152">
        <ele>1970.36</ele>
        <time>2019-07-14T08:52:08Z</time>
      </trkpt>
      <trkpt lat="42.5715528522" lon="20.0358873513">
        <ele>1969.40</ele>
        <time>2019-07-14T08:52:23Z</time>
      </trkpt>
      <trkpt lat="42.5715821888" lon="20.0358977448">
        <ele>1968.92</ele>
        <time>2019-07-14T08:52:34Z</time>
      </trkpt>
      <trkpt lat="42.5716528483" lon="20.0358791370">
        <ele>1968.92</ele>
        <time>2019-07-14T08:52:46Z</time>
      </trkpt>
      <trkpt lat="42.5716474000" lon="20.0358669832">
        <ele>1968.92</ele>
        <time>2019-07-14T08:53:04Z</time>
      </trkpt>
      <trkpt lat="42.5716421194" lon="20.0359051209">
        <ele>1968.92</ele>
        <time>2019-07-14T08:53:22Z</time>
      </trkpt>
      <trkpt lat="42.5716353301" lon="20.0358851720">
        <ele>1968.92</ele>
        <time>2019-07-14T08:53:48Z</time>
      </trkpt>
      <trkpt lat="42.5716411136" lon="20.0359010138">
        <ele>1968.92</ele>
        <time>2019-07-14T08:54:08Z</time>
      </trkpt>
      <trkpt lat="42.5716107711" lon="20.0359112397">
        <ele>1968.92</ele>
        <time>2019-07-14T08:54:27Z</time>
      </trkpt>
      <trkpt lat="42.5715672690" lon="20.0359185319">
        <ele>1969.40</ele>
        <time>2019-07-14T08:54:38Z</time>
      </trkpt>
      <trkpt lat="42.5715424586" lon="20.0359601900">
        <ele>1969.40</ele>
        <time>2019-07-14T08:54:50Z</time>
      </trkpt>
      <trkpt lat="42.5715371780" lon="20.0359394029">
        <ele>1969.40</ele>
        <time>2019-07-14T08:55:04Z</time>
      </trkpt>
      <trkpt lat="42.5715216715" lon="20.0359199569">
        <ele>1969.40</ele>
        <time>2019-07-14T08:55:25Z</time>
      </trkpt>
      <trkpt lat="42.5715450570" lon="20.0359088089">
        <ele>1969.40</ele>
        <time>2019-07-14T08:55:44Z</time>
      </trkpt>
      <trkpt lat="42.5715294667" lon="20.0358747784">
        <ele>1969.40</ele>
        <time>2019-07-14T08:56:02Z</time>
      </trkpt>
      <trkpt lat="42.5715335738" lon="20.0359076355">
        <ele>1969.40</ele>
        <time>2019-07-14T08:56:26Z</time>
      </trkpt>
      <trkpt lat="42.5715272874" lon="20.0358881056">
        <ele>1969.88</ele>
        <time>2019-07-14T08:56:46Z</time>
      </trkpt>
      <trkpt lat="42.5715297181" lon="20.0358927995">
        <ele>1969.88</ele>
        <time>2019-07-14T08:57:04Z</time>
      </trkpt>
      <trkpt lat="42.5714309793" lon="20.0358976610">
        <ele>1969.88</ele>
        <time>2019-07-14T08:57:16Z</time>
      </trkpt>
      <trkpt lat="42.5713485852" lon="20.0358523987">
        <ele>1969.88</ele>
        <time>2019-07-14T08:57:28Z</time>
      </trkpt>
      <trkpt lat="42.5713283010" lon="20.0358347967">
        <ele>1969.88</ele>
        <time>2019-07-14T08:57:32Z</time>
      </trkpt>
      <trkpt lat="42.5712566357" lon="20.0358161889">
        <ele>1971.80</ele>
        <time>2019-07-14T08:57:44Z</time>
      </trkpt>
      <trkpt lat="42.5711832941" lon="20.0356895383">
        <ele>1970.84</ele>
        <time>2019-07-14T08:57:58Z</time>
      </trkpt>
      <trkpt lat="42.5711493474" lon="20.0356619619">
        <ele>1970.84</ele>
        <time>2019-07-14T08:58:04Z</time>
      </trkpt>
      <trkpt lat="42.5710931886" lon="20.0356198847">
        <ele>1971.80</ele>
        <time>2019-07-14T08:58:12Z</time>
      </trkpt>
      <trkpt lat="42.5710417237" lon="20.0355510693">
        <ele>1971.80</ele>
        <time>2019-07-14T08:58:26Z</time>
      </trkpt>
      <trkpt lat="42.5709864032" lon="20.0354447030">
        <ele>1970.84</ele>
        <time>2019-07-14T08:58:38Z</time>
      </trkpt>
      <trkpt lat="42.5709206890" lon="20.0353582017">
        <ele>1970.84</ele>
        <time>2019-07-14T08:58:49Z</time>
      </trkpt>
      <trkpt lat="42.5708927773" lon="20.0353449583">
        <ele>1972.28</ele>
        <time>2019-07-14T08:58:54Z</time>
      </trkpt>
      <trkpt lat="42.5708175916" lon="20.0353094190">
        <ele>1973.24</ele>
        <time>2019-07-14T08:59:06Z</time>
      </trkpt>
      <trkpt lat="42.5707810465" lon="20.0351624843">
        <ele>1974.20</ele>
        <time>2019-07-14T08:59:21Z</time>
      </trkpt>
      <trkpt lat="42.5708034262" lon="20.0351391826">
        <ele>1972.76</ele>
        <time>2019-07-14T08:59:25Z</time>
      </trkpt>
      <trkpt lat="42.5708216149" lon="20.0351095106">
        <ele>1971.80</ele>
        <time>2019-07-14T08:59:29Z</time>
      </trkpt>
      <trkpt lat="42.5708418153" lon="20.0350220036">
        <ele>1971.32</ele>
        <time>2019-07-14T08:59:41Z</time>
      </trkpt>
      <trkpt lat="42.5708362833" lon="20.0349609833">
        <ele>1970.84</ele>
        <time>2019-07-14T08:59:45Z</time>
      </trkpt>
      <trkpt lat="42.5708206929" lon="20.0348905753">
        <ele>1970.84</ele>
        <time>2019-07-14T08:59:50Z</time>
      </trkpt>
      <trkpt lat="42.5707688928" lon="20.0348204188">
        <ele>1970.84</ele>
        <time>2019-07-14T08:59:57Z</time>
      </trkpt>
      <trkpt lat="42.5707525481" lon="20.0346879009">
        <ele>1970.36</ele>
        <time>2019-07-14T09:00:11Z</time>
      </trkpt>
      <trkpt lat="42.5707289111" lon="20.0346529484">
        <ele>1971.80</ele>
        <time>2019-07-14T09:00:20Z</time>
      </trkpt>
      <trkpt lat="42.5706609339" lon="20.0346322451">
        <ele>1972.28</ele>
        <time>2019-07-14T09:00:32Z</time>
      </trkpt>
      <trkpt lat="42.5706509594" lon="20.0346127152">
        <ele>1972.28</ele>
        <time>2019-07-14T09:00:46Z</time>
      </trkpt>
      <trkpt lat="42.5706190243" lon="20.0345880724">
        <ele>1972.28</ele>
        <time>2019-07-14T09:00:58Z</time>
      </trkpt>
      <trkpt lat="42.5706003327" lon="20.0345282257">
        <ele>1973.24</ele>
        <time>2019-07-14T09:01:11Z</time>
      </trkpt>
      <trkpt lat="42.5705644581" lon="20.0344548840">
        <ele>1975.17</ele>
        <time>2019-07-14T09:01:25Z</time>
      </trkpt>
      <trkpt lat="42.5705310982" lon="20.0344024971">
        <ele>1973.72</ele>
        <time>2019-07-14T09:01:40Z</time>
      </trkpt>
      <trkpt lat="42.5705052819" lon="20.0343242101">
        <ele>1975.17</ele>
        <time>2019-07-14T09:01:52Z</time>
      </trkpt>
      <trkpt lat="42.5704979058" lon="20.0342744216">
        <ele>1976.61</ele>
        <time>2019-07-14T09:02:05Z</time>
      </trkpt>
      <trkpt lat="42.5704823155" lon="20.0342724938">
        <ele>1976.61</ele>
        <time>2019-07-14T09:02:25Z</time>
      </trkpt>
      <trkpt lat="42.5704511348" lon="20.0342784449">
        <ele>1977.57</ele>
        <time>2019-07-14T09:02:38Z</time>
      </trkpt>
      <trkpt lat="42.5704318564" lon="20.0342091266">
        <ele>1978.53</ele>
        <time>2019-07-14T09:02:49Z</time>
      </trkpt>
      <trkpt lat="42.5703989156" lon="20.0341240503">
        <ele>1979.49</ele>
        <time>2019-07-14T09:03:03Z</time>
      </trkpt>
      <trkpt lat="42.5703466963" lon="20.0340780336">
        <ele>1980.45</ele>
        <time>2019-07-14T09:03:15Z</time>
      </trkpt>
      <trkpt lat="42.5702887774" lon="20.0340973120">
        <ele>1982.86</ele>
        <time>2019-07-14T09:03:26Z</time>
      </trkpt>
      <trkpt lat="42.5702672359" lon="20.0339977350">
        <ele>1985.26</ele>
        <time>2019-07-14T09:03:39Z</time>
      </trkpt>
      <trkpt lat="42.5702503044" lon="20.0338749401">
        <ele>1986.70</ele>
        <time>2019-07-14T09:03:51Z</time>
      </trkpt>
      <trkpt lat="42.5702671520" lon="20.0338207092">
        <ele>1986.70</ele>
        <time>2019-07-14T09:04:08Z</time>
      </trkpt>
      <trkpt lat="42.5702384859" lon="20.0337408297">
        <ele>1983.82</ele>
        <time>2019-07-14T09:04:19Z</time>
      </trkpt>
      <trkpt lat="42.5702368096" lon="20.0336337090">
        <ele>1980.45</ele>
        <time>2019-07-14T09:04:30Z</time>
      </trkpt>
      <trkpt lat="42.5702307746" lon="20.0335555896">
        <ele>1979.01</ele>
        <time>2019-07-14T09:04:36Z</time>
      </trkpt>
      <trkpt lat="42.5701947324" lon="20.0334503129">
        <ele>1978.53</ele>
        <time>2019-07-14T09:04:46Z</time>
      </trkpt>
      <trkpt lat="42.5701660663" lon="20.0332401786">
        <ele>1979.49</ele>
        <time>2019-07-14T09:05:02Z</time>
      </trkpt>
      <trkpt lat="42.5701443572" lon="20.0331074931">
        <ele>1981.41</ele>
        <time>2019-07-14T09:05:16Z</time>
      </trkpt>
      <trkpt lat="42.5700955745" lon="20.0329100993">
        <ele>1981.90</ele>
        <time>2019-07-14T09:05:28Z</time>
      </trkpt>
      <trkpt lat="42.5700683333" lon="20.0327187404">
        <ele>1983.82</ele>
        <time>2019-07-14T09:05:41Z</time>
      </trkpt>
      <trkpt lat="42.5700710155" lon="20.0326964445">
        <ele>1983.82</ele>
        <time>2019-07-14T09:05:42Z</time>
      </trkpt>
      <trkpt lat="42.5700835045" lon="20.0326449797">
        <ele>1983.82</ele>
        <time>2019-07-14T09:05:46Z</time>
      </trkpt>
      <trkpt lat="42.5700814091" lon="20.0326152239">
        <ele>1982.38</ele>
        <time>2019-07-14T09:05:48Z</time>
      </trkpt>
      <trkpt lat="42.5700677466" lon="20.0325886533">
        <ele>1982.38</ele>
        <time>2019-07-14T09:05:50Z</time>
      </trkpt>
      <trkpt lat="42.5700612925" lon="20.0325518567">
        <ele>1982.38</ele>
        <time>2019-07-14T09:05:54Z</time>
      </trkpt>
      <trkpt lat="42.5700530782" lon="20.0324017368">
        <ele>1981.90</ele>
        <time>2019-07-14T09:06:08Z</time>
      </trkpt>
      <trkpt lat="42.5699842628" lon="20.0323253777">
        <ele>1983.34</ele>
        <time>2019-07-14T09:06:19Z</time>
      </trkpt>
      <trkpt lat="42.5699706003" lon="20.0323123857">
        <ele>1983.82</ele>
        <time>2019-07-14T09:06:21Z</time>
      </trkpt>
      <trkpt lat="42.5698633958" lon="20.0321990624">
        <ele>1985.26</ele>
        <time>2019-07-14T09:06:35Z</time>
      </trkpt>
      <trkpt lat="42.5698107574" lon="20.0320828892">
        <ele>1987.18</ele>
        <time>2019-07-14T09:06:48Z</time>
      </trkpt>
      <trkpt lat="42.5697444566" lon="20.0320364535">
        <ele>1989.59</ele>
        <time>2019-07-14T09:06:59Z</time>
      </trkpt>
      <trkpt lat="42.5696731266" lon="20.0320027582">
        <ele>1991.51</ele>
        <time>2019-07-14T09:07:10Z</time>
      </trkpt>
      <trkpt lat="42.5696111005" lon="20.0319607649">
        <ele>1993.43</ele>
        <time>2019-07-14T09:07:22Z</time>
      </trkpt>
      <trkpt lat="42.5695193186" lon="20.0318937935">
        <ele>1996.32</ele>
        <time>2019-07-14T09:07:36Z</time>
      </trkpt>
      <trkpt lat="42.5694745593" lon="20.0318681449">
        <ele>1997.28</ele>
        <time>2019-07-14T09:07:42Z</time>
      </trkpt>
      <trkpt lat="42.5693822745" lon="20.0318409875">
        <ele>1998.72</ele>
        <time>2019-07-14T09:07:55Z</time>
      </trkpt>
      <trkpt lat="42.5693335757" lon="20.0318176858">
        <ele>1999.20</ele>
        <time>2019-07-14T09:08:02Z</time>
      </trkpt>
      <trkpt lat="42.5693116151" lon="20.0317982398">
        <ele>1999.68</ele>
        <time>2019-07-14T09:08:05Z</time>
      </trkpt>
      <trkpt lat="42.5692150556" lon="20.0317813084">
        <ele>2002.08</ele>
        <time>2019-07-14T09:08:18Z</time>
      </trkpt>
      <trkpt lat="42.5691012293" lon="20.0317119062">
        <ele>2004.01</ele>
        <time>2019-07-14T09:08:32Z</time>
      </trkpt>
      <trkpt lat="42.5690760836" lon="20.0316804741">
        <ele>2004.97</ele>
        <time>2019-07-14T09:08:41Z</time>
      </trkpt>
      <trkpt lat="42.5690124650" lon="20.0316249020">
        <ele>2007.85</ele>
        <time>2019-07-14T09:08:53Z</time>
      </trkpt>
      <trkpt lat="42.5689610001" lon="20.0315590203">
        <ele>2009.77</ele>
        <time>2019-07-14T09:09:06Z</time>
      </trkpt>
      <trkpt lat="42.5688996445" lon="20.0315032806">
        <ele>2012.18</ele>
        <time>2019-07-14T09:09:20Z</time>
      </trkpt>
      <trkpt lat="42.5688461680" lon="20.0314098224">
        <ele>2014.58</ele>
        <time>2019-07-14T09:09:34Z</time>
      </trkpt>
      <trkpt lat="42.5688397978" lon="20.0314070564">
        <ele>2014.58</ele>
        <time>2019-07-14T09:09:35Z</time>
      </trkpt>
      <trkpt lat="42.5688171666" lon="20.0313978363">
        <ele>2015.06</ele>
        <time>2019-07-14T09:09:38Z</time>
      </trkpt>
      <trkpt lat="42.5687526260" lon="20.0313576031">
        <ele>2017.46</ele>
        <time>2019-07-14T09:09:50Z</time>
      </trkpt>
      <trkpt lat="42.5686746743" lon="20.0313514005">
        <ele>2019.39</ele>
        <time>2019-07-14T09:10:06Z</time>
      </trkpt>
      <trkpt lat="42.5686373748" lon="20.0313229859">
        <ele>2020.35</ele>
        <time>2019-07-14T09:10:11Z</time>
      </trkpt>
      <trkpt lat="42.5685525499" lon="20.0312654022">
        <ele>2023.23</ele>
        <time>2019-07-14T09:10:24Z</time>
      </trkpt>
      <trkpt lat="42.5684923679" lon="20.0312783942">
        <ele>2024.67</ele>
        <time>2019-07-14T09:10:39Z</time>
      </trkpt>
      <trkpt lat="42.5684808847" lon="20.0312394183">
        <ele>2025.15</ele>
        <time>2019-07-14T09:10:50Z</time>
      </trkpt>
      <trkpt lat="42.5684452616" lon="20.0311861932">
        <ele>2027.08</ele>
        <time>2019-07-14T09:11:00Z</time>
      </trkpt>
      <trkpt lat="42.5683787093" lon="20.0311509054">
        <ele>2029.48</ele>
        <time>2019-07-14T09:11:13Z</time>
      </trkpt>
      <trkpt lat="42.5683307648" lon="20.0310680922">
        <ele>2031.88</ele>
        <time>2019-07-14T09:11:25Z</time>
      </trkpt>
      <trkpt lat="42.5683365483" lon="20.0309765618">
        <ele>2033.33</ele>
        <time>2019-07-14T09:11:38Z</time>
      </trkpt>
      <trkpt lat="42.5683623645" lon="20.0308633223">
        <ele>2036.21</ele>
        <time>2019-07-14T09:11:51Z</time>
      </trkpt>
      <trkpt lat="42.5683640409" lon="20.0307805929">
        <ele>2038.61</ele>
        <time>2019-07-14T09:12:03Z</time>
      </trkpt>
      <trkpt lat="42.5683501270" lon="20.0307366718">
        <ele>2040.05</ele>
        <time>2019-07-14T09:12:09Z</time>
      </trkpt>
      <trkpt lat="42.5683702435" lon="20.0306422077">
        <ele>2042.46</ele>
        <time>2019-07-14T09:12:21Z</time>
      </trkpt>
      <trkpt lat="42.5683974847" lon="20.0305535272">
        <ele>2046.30</ele>
        <time>2019-07-14T09:12:35Z</time>
      </trkpt>
      <trkpt lat="42.5684242230" lon="20.0304236915">
        <ele>2048.71</ele>
        <time>2019-07-14T09:12:49Z</time>
      </trkpt>
      <trkpt lat="42.5684665516" lon="20.0303200912">
        <ele>2050.63</ele>
        <time>2019-07-14T09:13:03Z</time>
      </trkpt>
      <trkpt lat="42.5685045216" lon="20.0303141400">
        <ele>2051.59</ele>
        <time>2019-07-14T09:13:17Z</time>
      </trkpt>
      <trkpt lat="42.5685212854" lon="20.0303137209">
        <ele>2051.59</ele>
        <time>2019-07-14T09:13:45Z</time>
      </trkpt>
      <trkpt lat="42.5685410667" lon="20.0303023215">
        <ele>2051.59</ele>
        <time>2019-07-14T09:14:14Z</time>
      </trkpt>
      <trkpt lat="42.5685432460" lon="20.0303143077">
        <ele>2051.59</ele>
        <time>2019-07-14T09:14:33Z</time>
      </trkpt>
      <trkpt lat="42.5685517117" lon="20.0303257070">
        <ele>2052.07</ele>
        <time>2019-07-14T09:15:00Z</time>
      </trkpt>
      <trkpt lat="42.5685538072" lon="20.0303228572">
        <ele>2052.07</ele>
        <time>2019-07-14T09:15:19Z</time>
      </trkpt>
      <trkpt lat="42.5685268175" lon="20.0303007290">
        <ele>2052.07</ele>
        <time>2019-07-14T09:15:35Z</time>
      </trkpt>
      <trkpt lat="42.5685175136" lon="20.0303053390">
        <ele>2052.07</ele>
        <time>2019-07-14T09:15:56Z</time>
      </trkpt>
      <trkpt lat="42.5685128197" lon="20.0303200074">
        <ele>2052.07</ele>
        <time>2019-07-14T09:16:24Z</time>
      </trkpt>
      <trkpt lat="42.5685376301" lon="20.0303168222">
        <ele>2052.07</ele>
        <time>2019-07-14T09:16:48Z</time>
      </trkpt>
      <trkpt lat="42.5685691461" lon="20.0303168222">
        <ele>2052.07</ele>
        <time>2019-07-14T09:17:07Z</time>
      </trkpt>
      <trkpt lat="42.5685859937" lon="20.0303073507">
        <ele>2052.07</ele>
        <time>2019-07-14T09:17:09Z</time>
      </trkpt>
      <trkpt lat="42.5686764345" lon="20.0302458275">
        <ele>2051.11</ele>
        <time>2019-07-14T09:17:18Z</time>
      </trkpt>
      <trkpt lat="42.5688593276" lon="20.0301503576">
        <ele>2050.63</ele>
        <time>2019-07-14T09:17:36Z</time>
      </trkpt>
      <trkpt lat="42.5688736606" lon="20.0301467534">
        <ele>2050.63</ele>
        <time>2019-07-14T09:17:37Z</time>
      </trkpt>
      <trkpt lat="42.5690512732" lon="20.0299882516">
        <ele>2049.67</ele>
        <time>2019-07-14T09:17:54Z</time>
      </trkpt>
      <trkpt lat="42.5691989623" lon="20.0299399719">
        <ele>2049.67</ele>
        <time>2019-07-14T09:18:07Z</time>
      </trkpt>
      <trkpt lat="42.5692728907" lon="20.0299014151">
        <ele>2049.67</ele>
        <time>2019-07-14T09:18:14Z</time>
      </trkpt>
      <trkpt lat="42.5694268662" lon="20.0296652969">
        <ele>2048.71</ele>
        <time>2019-07-14T09:18:32Z</time>
      </trkpt>
      <trkpt lat="42.5695687719" lon="20.0295314379">
        <ele>2046.30</ele>
        <time>2019-07-14T09:18:47Z</time>
      </trkpt>
      <trkpt lat="42.5696047302" lon="20.0295101479">
        <ele>2046.30</ele>
        <time>2019-07-14T09:18:58Z</time>
      </trkpt>
      <trkpt lat="42.5695968512" lon="20.0294896960">
        <ele>2046.30</ele>
        <time>2019-07-14T09:19:15Z</time>
      </trkpt>
      <trkpt lat="42.5695944205" lon="20.0294947252">
        <ele>2046.30</ele>
        <time>2019-07-14T09:19:35Z</time>
      </trkpt>
      <trkpt lat="42.5696642417" lon="20.0294527318">
        <ele>2046.30</ele>
        <time>2019-07-14T09:19:48Z</time>
      </trkpt>
      <trkpt lat="42.5697967596" lon="20.0292855129">
        <ele>2044.38</ele>
        <time>2019-07-14T09:20:03Z</time>
      </trkpt>
      <trkpt lat="42.5698995218" lon="20.0290617160">
        <ele>2043.90</ele>
        <time>2019-07-14T09:20:17Z</time>
      </trkpt>
      <trkpt lat="42.5700875279" lon="20.0289502367">
        <ele>2041.98</ele>
        <time>2019-07-14T09:20:33Z</time>
      </trkpt>
      <trkpt lat="42.5702519808" lon="20.0288950000">
        <ele>2040.54</ele>
        <time>2019-07-14T09:20:47Z</time>
      </trkpt>
      <trkpt lat="42.5704247318" lon="20.0288260169">
        <ele>2038.13</ele>
        <time>2019-07-14T09:21:01Z</time>
      </trkpt>
      <trkpt lat="42.5704962295" lon="20.0288024638">
        <ele>2037.17</ele>
        <time>2019-07-14T09:21:07Z</time>
      </trkpt>
      <trkpt lat="42.5706885941" lon="20.0286858715">
        <ele>2035.73</ele>
        <time>2019-07-14T09:21:23Z</time>
      </trkpt>
      <trkpt lat="42.5708521251" lon="20.0285147969">
        <ele>2033.33</ele>
        <time>2019-07-14T09:21:38Z</time>
      </trkpt>
      <trkpt lat="42.5709849782" lon="20.0283797644">
        <ele>2031.40</ele>
        <time>2019-07-14T09:21:51Z</time>
      </trkpt>
      <trkpt lat="42.5711485930" lon="20.0282164011">
        <ele>2029.96</ele>
        <time>2019-07-14T09:22:06Z</time>
      </trkpt>
      <trkpt lat="42.5711575616" lon="20.0282053370">
        <ele>2029.48</ele>
        <time>2019-07-14T09:22:07Z</time>
      </trkpt>
      <trkpt lat="42.5712242816" lon="20.0281122979">
        <ele>2029.48</ele>
        <time>2019-07-14T09:22:14Z</time>
      </trkpt>
      <trkpt lat="42.5712678675" lon="20.0280805305">
        <ele>2029.00</ele>
        <time>2019-07-14T09:22:17Z</time>
      </trkpt>
      <trkpt lat="42.5713377725" lon="20.0279838871">
        <ele>2029.00</ele>
        <time>2019-07-14T09:22:24Z</time>
      </trkpt>
      <trkpt lat="42.5713850465" lon="20.0278814603">
        <ele>2029.00</ele>
        <time>2019-07-14T09:22:30Z</time>
      </trkpt>
      <trkpt lat="42.5714788400" lon="20.0276887603">
        <ele>2029.00</ele>
        <time>2019-07-14T09:22:44Z</time>
      </trkpt>
      <trkpt lat="42.5715789199" lon="20.0275549013">
        <ele>2029.00</ele>
        <time>2019-07-14T09:22:56Z</time>
      </trkpt>
      <trkpt lat="42.5716800895" lon="20.0274399854">
        <ele>2029.00</ele>
        <time>2019-07-14T09:23:06Z</time>
      </trkpt>
      <trkpt lat="42.5717924908" lon="20.0272973254">
        <ele>2029.00</ele>
        <time>2019-07-14T09:23:18Z</time>
      </trkpt>
      <trkpt lat="42.5718424469" lon="20.0271791406">
        <ele>2029.96</ele>
        <time>2019-07-14T09:23:26Z</time>
      </trkpt>
      <trkpt lat="42.5719687622" lon="20.0269799866">
        <ele>2029.96</ele>
        <time>2019-07-14T09:23:41Z</time>
      </trkpt>
      <trkpt lat="42.5720022898" lon="20.0269691739">
        <ele>2029.96</ele>
        <time>2019-07-14T09:23:44Z</time>
      </trkpt>
      <trkpt lat="42.5721082371" lon="20.0269501470">
        <ele>2028.52</ele>
        <time>2019-07-14T09:23:52Z</time>
      </trkpt>
      <trkpt lat="42.5723060500" lon="20.0268854387">
        <ele>2027.08</ele>
        <time>2019-07-14T09:24:07Z</time>
      </trkpt>
      <trkpt lat="42.5724174455" lon="20.0267705228">
        <ele>2025.64</ele>
        <time>2019-07-14T09:24:17Z</time>
      </trkpt>
      <trkpt lat="42.5725966506" lon="20.0265227538">
        <ele>2023.23</ele>
        <time>2019-07-14T09:24:35Z</time>
      </trkpt>
      <trkpt lat="42.5726307649" lon="20.0264887232">
        <ele>2023.23</ele>
        <time>2019-07-14T09:24:39Z</time>
      </trkpt>
      <trkpt lat="42.5727040228" lon="20.0264150463">
        <ele>2023.23</ele>
        <time>2019-07-14T09:24:46Z</time>
      </trkpt>
      <trkpt lat="42.5728001632" lon="20.0262949336">
        <ele>2022.75</ele>
        <time>2019-07-14T09:24:57Z</time>
      </trkpt>
      <trkpt lat="42.5728460122" lon="20.0262625795">
        <ele>2022.75</ele>
        <time>2019-07-14T09:25:00Z</time>
      </trkpt>
      <trkpt lat="42.5729946233" lon="20.0260297302">
        <ele>2022.75</ele>
        <time>2019-07-14T09:25:18Z</time>
      </trkpt>
      <trkpt lat="42.5731132273" lon="20.0258370303">
        <ele>2021.31</ele>
        <time>2019-07-14T09:25:31Z</time>
      </trkpt>
      <trkpt lat="42.5731495209" lon="20.0257921871">
        <ele>2021.31</ele>
        <time>2019-07-14T09:25:35Z</time>
      </trkpt>
      <trkpt lat="42.5732643530" lon="20.0256756786">
        <ele>2019.39</ele>
        <time>2019-07-14T09:25:45Z</time>
      </trkpt>
      <trkpt lat="42.5733085256" lon="20.0256327633">
        <ele>2018.91</ele>
        <time>2019-07-14T09:25:49Z</time>
      </trkpt>
      <trkpt lat="42.5734987948" lon="20.0254430808">
        <ele>2017.46</ele>
        <time>2019-07-14T09:26:06Z</time>
      </trkpt>
      <trkpt lat="42.5736140460" lon="20.0252307672">
        <ele>2015.54</ele>
        <time>2019-07-14T09:26:19Z</time>
      </trkpt>
      <trkpt lat="42.5736477412" lon="20.0251606107">
        <ele>2015.06</ele>
        <time>2019-07-14T09:26:23Z</time>
      </trkpt>
      <trkpt lat="42.5737150479" lon="20.0248951558">
        <ele>2014.10</ele>
        <time>2019-07-14T09:26:38Z</time>
      </trkpt>
      <trkpt lat="42.5736724678" lon="20.0246161222">
        <ele>2013.62</ele>
        <time>2019-07-14T09:26:53Z</time>
      </trkpt>
      <trkpt lat="42.5736817718" lon="20.0244944170">
        <ele>2013.62</ele>
        <time>2019-07-14T09:27:00Z</time>
      </trkpt>
      <trkpt lat="42.5737422053" lon="20.0241922494">
        <ele>2013.62</ele>
        <time>2019-07-14T09:27:18Z</time>
      </trkpt>
      <trkpt lat="42.5737868808" lon="20.0239309855">
        <ele>2013.62</ele>
        <time>2019-07-14T09:27:34Z</time>
      </trkpt>
      <trkpt lat="42.5738230906" lon="20.0238901656">
        <ele>2013.62</ele>
        <time>2019-07-14T09:27:38Z</time>
      </trkpt>
      <trkpt lat="42.5739701092" lon="20.0237442367">
        <ele>2013.62</ele>
        <time>2019-07-14T09:27:51Z</time>
      </trkpt>
      <trkpt lat="42.5740052294" lon="20.0236641057">
        <ele>2013.62</ele>
        <time>2019-07-14T09:27:56Z</time>
      </trkpt>
      <trkpt lat="42.5740229152" lon="20.0235809572">
        <ele>2013.62</ele>
        <time>2019-07-14T09:28:01Z</time>
      </trkpt>
      <trkpt lat="42.5740258489" lon="20.0235107169">
        <ele>2013.14</ele>
        <time>2019-07-14T09:28:05Z</time>
      </trkpt>
      <trkpt lat="42.5740732905" lon="20.0232414901">
        <ele>2011.70</ele>
        <time>2019-07-14T09:28:20Z</time>
      </trkpt>
      <trkpt lat="42.5742542557" lon="20.0231140014">
        <ele>2011.22</ele>
        <time>2019-07-14T09:28:35Z</time>
      </trkpt>
      <trkpt lat="42.5744223967" lon="20.0230072159">
        <ele>2011.22</ele>
        <time>2019-07-14T09:28:49Z</time>
      </trkpt>
      <trkpt lat="42.5744935591" lon="20.0229342096">
        <ele>2011.22</ele>
        <time>2019-07-14T09:28:56Z</time>
      </trkpt>
      <trkpt lat="42.5745311938" lon="20.0228771288">
        <ele>2011.22</ele>
        <time>2019-07-14T09:29:00Z</time>
      </trkpt>
      <trkpt lat="42.5746205449" lon="20.0227508135">
        <ele>2011.22</ele>
        <time>2019-07-14T09:29:09Z</time>
      </trkpt>
      <trkpt lat="42.5747683179" lon="20.0225539226">
        <ele>2010.25</ele>
        <time>2019-07-14T09:29:24Z</time>
      </trkpt>
      <trkpt lat="42.5748295058" lon="20.0225087442">
        <ele>2009.77</ele>
        <time>2019-07-14T09:29:29Z</time>
      </trkpt>
      <trkpt lat="42.5749997422" lon="20.0224273559">
        <ele>2007.85</ele>
        <time>2019-07-14T09:29:42Z</time>
      </trkpt>
      <trkpt lat="42.5752102118" lon="20.0224131066">
        <ele>2005.45</ele>
        <time>2019-07-14T09:29:57Z</time>
      </trkpt>
      <trkpt lat="42.5752909295" lon="20.0224141963">
        <ele>2004.97</ele>
        <time>2019-07-14T09:30:04Z</time>
      </trkpt>
      <trkpt lat="42.5754179992" lon="20.0224243384">
        <ele>2003.04</ele>
        <time>2019-07-14T09:30:15Z</time>
      </trkpt>
      <trkpt lat="42.5756635051" lon="20.0223498233">
        <ele>2000.64</ele>
        <time>2019-07-14T09:30:29Z</time>
      </trkpt>
      <trkpt lat="42.5758727174" lon="20.0222898927">
        <ele>1998.24</ele>
        <time>2019-07-14T09:30:43Z</time>
      </trkpt>
      <trkpt lat="42.5760683510" lon="20.0222686864">
        <ele>1994.87</ele>
        <time>2019-07-14T09:30:57Z</time>
      </trkpt>
      <trkpt lat="42.5762817543" lon="20.0222458877">
        <ele>1991.99</ele>
        <time>2019-07-14T09:31:11Z</time>
      </trkpt>
      <trkpt lat="42.5764873624" lon="20.0222768169">
        <ele>1990.55</ele>
        <time>2019-07-14T09:31:26Z</time>
      </trkpt>
      <trkpt lat="42.5766865164" lon="20.0222930778">
        <ele>1988.14</ele>
        <time>2019-07-14T09:31:40Z</time>
      </trkpt>
      <trkpt lat="42.5768925436" lon="20.0221457239">
        <ele>1985.26</ele>
        <time>2019-07-14T09:31:55Z</time>
      </trkpt>
      <trkpt lat="42.5770119857" lon="20.0219269563">
        <ele>1982.86</ele>
        <time>2019-07-14T09:32:09Z</time>
      </trkpt>
      <trkpt lat="42.5771838147" lon="20.0217424706">
        <ele>1980.93</ele>
        <time>2019-07-14T09:32:24Z</time>
      </trkpt>
      <trkpt lat="42.5773758441" lon="20.0217824522">
        <ele>1978.53</ele>
        <time>2019-07-14T09:32:38Z</time>
      </trkpt>
      <trkpt lat="42.5775959529" lon="20.0218227692">
        <ele>1976.13</ele>
        <time>2019-07-14T09:32:53Z</time>
      </trkpt>
      <trkpt lat="42.5777885690" lon="20.0217679515">
        <ele>1974.20</ele>
        <time>2019-07-14T09:33:06Z</time>
      </trkpt>
      <trkpt lat="42.5778631680" lon="20.0217144750">
        <ele>1973.24</ele>
        <time>2019-07-14T09:33:12Z</time>
      </trkpt>
      <trkpt lat="42.5779200811" lon="20.0216685422">
        <ele>1972.28</ele>
        <time>2019-07-14T09:33:17Z</time>
      </trkpt>
      <trkpt lat="42.5781727117" lon="20.0215233676">
        <ele>1969.40</ele>
        <time>2019-07-14T09:33:35Z</time>
      </trkpt>
      <trkpt lat="42.5784115959" lon="20.0214252155">
        <ele>1966.99</ele>
        <time>2019-07-14T09:33:52Z</time>
      </trkpt>
      <trkpt lat="42.5784689281" lon="20.0214059372">
        <ele>1966.51</ele>
        <time>2019-07-14T09:33:57Z</time>
      </trkpt>
      <trkpt lat="42.5785225723" lon="20.0213759299">
        <ele>1966.03</ele>
        <time>2019-07-14T09:34:01Z</time>
      </trkpt>
      <trkpt lat="42.5787213910" lon="20.0212860759">
        <ele>1965.55</ele>
        <time>2019-07-14T09:34:17Z</time>
      </trkpt>
      <trkpt lat="42.5789230596" lon="20.0211614370">
        <ele>1964.11</ele>
        <time>2019-07-14T09:34:33Z</time>
      </trkpt>
      <trkpt lat="42.5790912006" lon="20.0210601836">
        <ele>1963.15</ele>
        <time>2019-07-14T09:34:46Z</time>
      </trkpt>
      <trkpt lat="42.5792419910" lon="20.0210109819">
        <ele>1962.67</ele>
        <time>2019-07-14T09:34:59Z</time>
      </trkpt>
      <trkpt lat="42.5794426538" lon="20.0208766200">
        <ele>1961.23</ele>
        <time>2019-07-14T09:35:15Z</time>
      </trkpt>
      <trkpt lat="42.5796222780" lon="20.0207560044">
        <ele>1960.27</ele>
        <time>2019-07-14T09:35:29Z</time>
      </trkpt>
      <trkpt lat="42.5798026565" lon="20.0207659788">
        <ele>1958.34</ele>
        <time>2019-07-14T09:35:42Z</time>
      </trkpt>
      <trkpt lat="42.5799785927" lon="20.0207210518">
        <ele>1956.42</ele>
        <time>2019-07-14T09:35:55Z</time>
      </trkpt>
      <trkpt lat="42.5802325644" lon="20.0206784718">
        <ele>1953.06</ele>
        <time>2019-07-14T09:36:11Z</time>
      </trkpt>
      <trkpt lat="42.5803965144" lon="20.0205941498">
        <ele>1950.65</ele>
        <time>2019-07-14T09:36:24Z</time>
      </trkpt>
      <trkpt lat="42.5803224184" lon="20.0206483807">
        <ele>1950.65</ele>
        <time>2019-07-14T09:36:39Z</time>
      </trkpt>
      <trkpt lat="42.5803014636" lon="20.0206582714">
        <ele>1950.65</ele>
        <time>2019-07-14T09:36:41Z</time>
      </trkpt>
      <trkpt lat="42.5802741386" lon="20.0206679106">
        <ele>1952.09</ele>
        <time>2019-07-14T09:36:44Z</time>
      </trkpt>
      <trkpt lat="42.5801607314" lon="20.0207037013">
        <ele>1954.02</ele>
        <time>2019-07-14T09:36:55Z</time>
      </trkpt>
      <trkpt lat="42.5800376851" lon="20.0207130052">
        <ele>1955.46</ele>
        <time>2019-07-14T09:37:07Z</time>
      </trkpt>
      <trkpt lat="42.5799284689" lon="20.0207218900">
        <ele>1956.90</ele>
        <time>2019-07-14T09:37:17Z</time>
      </trkpt>
      <trkpt lat="42.5799060054" lon="20.0207194593">
        <ele>1957.38</ele>
        <time>2019-07-14T09:37:19Z</time>
      </trkpt>
      <trkpt lat="42.5798856374" lon="20.0207286794">
        <ele>1957.38</ele>
        <time>2019-07-14T09:37:21Z</time>
      </trkpt>
      <trkpt lat="42.5798143912" lon="20.0207361393">
        <ele>1957.86</ele>
        <time>2019-07-14T09:37:28Z</time>
      </trkpt>
      <trkpt lat="42.5797040015" lon="20.0207218900">
        <ele>1958.82</ele>
        <time>2019-07-14T09:37:39Z</time>
      </trkpt>
      <trkpt lat="42.5796139799" lon="20.0207394082">
        <ele>1959.78</ele>
        <time>2019-07-14T09:37:47Z</time>
      </trkpt>
      <trkpt lat="42.5795687176" lon="20.0207700022">
        <ele>1960.27</ele>
        <time>2019-07-14T09:37:51Z</time>
      </trkpt>
      <trkpt lat="42.5795464218" lon="20.0207855925">
        <ele>1960.27</ele>
        <time>2019-07-14T09:37:53Z</time>
      </trkpt>
      <trkpt lat="42.5794017501" lon="20.0209100638">
        <ele>1961.23</ele>
        <time>2019-07-14T09:38:08Z</time>
      </trkpt>
      <trkpt lat="42.5792547315" lon="20.0209943019">
        <ele>1962.19</ele>
        <time>2019-07-14T09:38:21Z</time>
      </trkpt>
      <trkpt lat="42.5791479461" lon="20.0210430007">
        <ele>1962.67</ele>
        <time>2019-07-14T09:38:31Z</time>
      </trkpt>
      <trkpt lat="42.5790415797" lon="20.0210720859">
        <ele>1962.67</ele>
        <time>2019-07-14T09:38:43Z</time>
      </trkpt>
      <trkpt lat="42.5788822398" lon="20.0211664662">
        <ele>1963.63</ele>
        <time>2019-07-14T09:38:56Z</time>
      </trkpt>
      <trkpt lat="42.5787394121" lon="20.0212465972">
        <ele>1964.59</ele>
        <time>2019-07-14T09:39:10Z</time>
      </trkpt>
      <trkpt lat="42.5786514860" lon="20.0212826394">
        <ele>1965.07</ele>
        <time>2019-07-14T09:39:22Z</time>
      </trkpt>
      <trkpt lat="42.5786420144" lon="20.0211540610">
        <ele>1967.48</ele>
        <time>2019-07-14T09:39:36Z</time>
      </trkpt>
      <trkpt lat="42.5786703452" lon="20.0211030990">
        <ele>1968.44</ele>
        <time>2019-07-14T09:39:42Z</time>
      </trkpt>
      <trkpt lat="42.5787370652" lon="20.0210064556">
        <ele>1968.92</ele>
        <time>2019-07-14T09:39:51Z</time>
      </trkpt>
      <trkpt lat="42.5788653083" lon="20.0208598562">
        <ele>1970.84</ele>
        <time>2019-07-14T09:40:08Z</time>
      </trkpt>
      <trkpt lat="42.5789485406" lon="20.0207434315">
        <ele>1971.80</ele>
        <time>2019-07-14T09:40:21Z</time>
      </trkpt>
      <trkpt lat="42.5790848304" lon="20.0206042081">
        <ele>1973.24</ele>
        <time>2019-07-14T09:40:34Z</time>
      </trkpt>
      <trkpt lat="42.5791155081" lon="20.0205649808">
        <ele>1973.72</ele>
        <time>2019-07-14T09:40:38Z</time>
      </trkpt>
      <trkpt lat="42.5792080443" lon="20.0203916430">
        <ele>1975.17</ele>
        <time>2019-07-14T09:40:53Z</time>
      </trkpt>
      <trkpt lat="42.5792232994" lon="20.0203694310">
        <ele>1975.17</ele>
        <time>2019-07-14T09:40:55Z</time>
      </trkpt>
      <trkpt lat="42.5792958029" lon="20.0202821754">
        <ele>1976.13</ele>
        <time>2019-07-14T09:41:03Z</time>
      </trkpt>
      <trkpt lat="42.5793225411" lon="20.0202094205">
        <ele>1976.61</ele>
        <time>2019-07-14T09:41:08Z</time>
      </trkpt>
      <trkpt lat="42.5794296619" lon="20.0200500805">
        <ele>1978.53</ele>
        <time>2019-07-14T09:41:23Z</time>
      </trkpt>
      <trkpt lat="42.5794379599" lon="20.0200431235">
        <ele>1978.53</ele>
        <time>2019-07-14T09:41:24Z</time>
      </trkpt>
      <trkpt lat="42.5795220304" lon="20.0199623220">
        <ele>1979.49</ele>
        <time>2019-07-14T09:41:33Z</time>
      </trkpt>
      <trkpt lat="42.5795636885" lon="20.0198843703">
        <ele>1979.97</ele>
        <time>2019-07-14T09:41:39Z</time>
      </trkpt>
      <trkpt lat="42.5796192605" lon="20.0197869726">
        <ele>1980.45</ele>
        <time>2019-07-14T09:41:47Z</time>
      </trkpt>
      <trkpt lat="42.5797190890" lon="20.0196533650">
        <ele>1981.90</ele>
        <time>2019-07-14T09:42:01Z</time>
      </trkpt>
      <trkpt lat="42.5797811989" lon="20.0195621699">
        <ele>1984.30</ele>
        <time>2019-07-14T09:42:12Z</time>
      </trkpt>
      <trkpt lat="42.5798666943" lon="20.0194554683">
        <ele>1985.74</ele>
        <time>2019-07-14T09:42:24Z</time>
      </trkpt>
      <trkpt lat="42.5799148064" lon="20.0193357747">
        <ele>1987.18</ele>
        <time>2019-07-14T09:42:37Z</time>
      </trkpt>
      <trkpt lat="42.5799705461" lon="20.0192390475">
        <ele>1989.10</ele>
        <time>2019-07-14T09:42:47Z</time>
      </trkpt>
      <trkpt lat="42.5799799338" lon="20.0192129798">
        <ele>1989.10</ele>
        <time>2019-07-14T09:42:49Z</time>
      </trkpt>
      <trkpt lat="42.5800417922" lon="20.0191035960">
        <ele>1990.55</ele>
        <time>2019-07-14T09:42:59Z</time>
      </trkpt>
      <trkpt lat="42.5801003817" lon="20.0190490298">
        <ele>1991.03</ele>
        <time>2019-07-14T09:43:07Z</time>
      </trkpt>
      <trkpt lat="42.5801070873" lon="20.0190216210">
        <ele>1990.55</ele>
        <time>2019-07-14T09:43:09Z</time>
      </trkpt>
      <trkpt lat="42.5801098533" lon="20.0189317670">
        <ele>1990.55</ele>
        <time>2019-07-14T09:43:14Z</time>
      </trkpt>
      <trkpt lat="42.5801979471" lon="20.0187237281">
        <ele>1991.51</ele>
        <time>2019-07-14T09:43:28Z</time>
      </trkpt>
      <trkpt lat="42.5803136174" lon="20.0185693335">
        <ele>1992.47</ele>
        <time>2019-07-14T09:43:42Z</time>
      </trkpt>
      <trkpt lat="42.5804349035" lon="20.0184446946">
        <ele>1993.91</ele>
        <time>2019-07-14T09:43:56Z</time>
      </trkpt>
      <trkpt lat="42.5805460475" lon="20.0182854384">
        <ele>1995.35</ele>
        <time>2019-07-14T09:44:10Z</time>
      </trkpt>
      <trkpt lat="42.5806784816" lon="20.0180649105">
        <ele>1996.80</ele>
        <time>2019-07-14T09:44:27Z</time>
      </trkpt>
      <trkpt lat="42.5808082335" lon="20.0178851187">
        <ele>1998.24</ele>
        <time>2019-07-14T09:44:43Z</time>
      </trkpt>
      <trkpt lat="42.5808933936" lon="20.0177274551">
        <ele>1999.20</ele>
        <time>2019-07-14T09:44:57Z</time>
      </trkpt>
      <trkpt lat="42.5809680764" lon="20.0175371021">
        <ele>1999.68</ele>
        <time>2019-07-14T09:45:10Z</time>
      </trkpt>
      <trkpt lat="42.5809965748" lon="20.0173593219">
        <ele>2001.12</ele>
        <time>2019-07-14T09:45:25Z</time>
      </trkpt>
      <trkpt lat="42.5809841696" lon="20.0173408817">
        <ele>2000.64</ele>
        <time>2019-07-14T09:45:39Z</time>
      </trkpt>
      <trkpt lat="42.5809935573" lon="20.0173174124">
        <ele>2001.12</ele>
        <time>2019-07-14T09:45:58Z</time>
      </trkpt>
      <trkpt lat="42.5810141768" lon="20.0173422229">
        <ele>2001.12</ele>
        <time>2019-07-14T09:46:21Z</time>
      </trkpt>
      <trkpt lat="42.5810032804" lon="20.0173503533">
        <ele>2001.12</ele>
        <time>2019-07-14T09:46:36Z</time>
      </trkpt>
      <trkpt lat="42.5809978321" lon="20.0173420552">
        <ele>2001.12</ele>
        <time>2019-07-14T09:46:57Z</time>
      </trkpt>
      <trkpt lat="42.5810336228" lon="20.0173195079">
        <ele>2001.12</ele>
        <time>2019-07-14T09:47:21Z</time>
      </trkpt>
      <trkpt lat="42.5810488779" lon="20.0173196755">
        <ele>2001.12</ele>
        <time>2019-07-14T09:47:54Z</time>
      </trkpt>
      <trkpt lat="42.5810670666" lon="20.0172976311">
        <ele>2001.12</ele>
        <time>2019-07-14T09:48:17Z</time>
      </trkpt>
      <trkpt lat="42.5810919609" lon="20.0172869861">
        <ele>2001.12</ele>
        <time>2019-07-14T09:48:20Z</time>
      </trkpt>
      <trkpt lat="42.5811862573" lon="20.0172367785">
        <ele>2001.12</ele>
        <time>2019-07-14T09:48:29Z</time>
      </trkpt>
      <trkpt lat="42.5812204555" lon="20.0171918515">
        <ele>1999.68</ele>
        <time>2019-07-14T09:48:33Z</time>
      </trkpt>
      <trkpt lat="42.5813600980" lon="20.0170030072">
        <ele>1999.68</ele>
        <time>2019-07-14T09:48:49Z</time>
      </trkpt>
      <trkpt lat="42.5814239681" lon="20.0169488601">
        <ele>1999.68</ele>
        <time>2019-07-14T09:48:55Z</time>
      </trkpt>
      <trkpt lat="42.5816140696" lon="20.0168488640">
        <ele>1999.20</ele>
        <time>2019-07-14T09:49:10Z</time>
      </trkpt>
      <trkpt lat="42.5817907602" lon="20.0167595968">
        <ele>1999.20</ele>
        <time>2019-07-14T09:49:25Z</time>
      </trkpt>
      <trkpt lat="42.5818987191" lon="20.0167008396">
        <ele>1998.72</ele>
        <time>2019-07-14T09:49:35Z</time>
      </trkpt>
      <trkpt lat="42.5821165647" lon="20.0165851694">
        <ele>1998.24</ele>
        <time>2019-07-14T09:49:53Z</time>
      </trkpt>
      <trkpt lat="42.5821986236" lon="20.0165076368">
        <ele>1997.76</ele>
        <time>2019-07-14T09:50:02Z</time>
      </trkpt>
      <trkpt lat="42.5822709594" lon="20.0164890289">
        <ele>1997.76</ele>
        <time>2019-07-14T09:50:08Z</time>
      </trkpt>
      <trkpt lat="42.5824623182" lon="20.0162418466">
        <ele>1996.80</ele>
        <time>2019-07-14T09:50:26Z</time>
      </trkpt>
      <trkpt lat="42.5825097598" lon="20.0161749590">
        <ele>1996.80</ele>
        <time>2019-07-14T09:50:31Z</time>
      </trkpt>
      <trkpt lat="42.5825525913" lon="20.0160849374">
        <ele>1996.32</ele>
        <time>2019-07-14T09:50:38Z</time>
      </trkpt>
      <trkpt lat="42.5825794134" lon="20.0160639826">
        <ele>1995.83</ele>
        <time>2019-07-14T09:50:40Z</time>
      </trkpt>
      <trkpt lat="42.5826615561" lon="20.0159506593">
        <ele>1996.32</ele>
        <time>2019-07-14T09:50:49Z</time>
      </trkpt>
      <trkpt lat="42.5827399269" lon="20.0158816762">
        <ele>1996.32</ele>
        <time>2019-07-14T09:50:56Z</time>
      </trkpt>
      <trkpt lat="42.5828633923" lon="20.0157747231">
        <ele>1996.32</ele>
        <time>2019-07-14T09:51:10Z</time>
      </trkpt>
      <trkpt lat="42.5829170365" lon="20.0157349929">
        <ele>1995.83</ele>
        <time>2019-07-14T09:51:15Z</time>
      </trkpt>
      <trkpt lat="42.5829867739" lon="20.0156767387">
        <ele>1997.28</ele>
        <time>2019-07-14T09:51:21Z</time>
      </trkpt>
      <trkpt lat="42.5831020251" lon="20.0155599788">
        <ele>1996.32</ele>
        <time>2019-07-14T09:51:33Z</time>
      </trkpt>
      <trkpt lat="42.5831415877" lon="20.0155344140">
        <ele>1996.32</ele>
        <time>2019-07-14T09:51:37Z</time>
      </trkpt>
      <trkpt lat="42.5832953118" lon="20.0153273810">
        <ele>1995.83</ele>
        <time>2019-07-14T09:51:54Z</time>
      </trkpt>
      <trkpt lat="42.5833907817" lon="20.0152167398">
        <ele>1994.87</ele>
        <time>2019-07-14T09:52:05Z</time>
      </trkpt>
      <trkpt lat="42.5835400634" lon="20.0150057673">
        <ele>1992.95</ele>
        <time>2019-07-14T09:52:20Z</time>
      </trkpt>
      <trkpt lat="42.5835915282" lon="20.0149693899">
        <ele>1992.47</ele>
        <time>2019-07-14T09:52:24Z</time>
      </trkpt>
      <trkpt lat="42.5837993994" lon="20.0147901848">
        <ele>1990.55</ele>
        <time>2019-07-14T09:52:43Z</time>
      </trkpt>
      <trkpt lat="42.5838902593" lon="20.0146965589">
        <ele>1990.07</ele>
        <time>2019-07-14T09:52:53Z</time>
      </trkpt>
      <trkpt lat="42.5840850547" lon="20.0145102292">
        <ele>1988.62</ele>
        <time>2019-07-14T09:53:09Z</time>
      </trkpt>
      <trkpt lat="42.5842413772" lon="20.0143843330">
        <ele>1988.14</ele>
        <time>2019-07-14T09:53:22Z</time>
      </trkpt>
      <trkpt lat="42.5843493361" lon="20.0141867716">
        <ele>1986.22</ele>
        <time>2019-07-14T09:53:36Z</time>
      </trkpt>
      <trkpt lat="42.5843128748" lon="20.0139017031">
        <ele>1983.82</ele>
        <time>2019-07-14T09:53:51Z</time>
      </trkpt>
      <trkpt lat="42.5842742343" lon="20.0137627311">
        <ele>1983.34</ele>
        <time>2019-07-14T09:53:59Z</time>
      </trkpt>
      <trkpt lat="42.5843780022" lon="20.0135443825">
        <ele>1981.41</ele>
        <time>2019-07-14T09:54:15Z</time>
      </trkpt>
      <trkpt lat="42.5844433811" lon="20.0135021377">
        <ele>1979.49</ele>
        <time>2019-07-14T09:54:25Z</time>
      </trkpt>
      <trkpt lat="42.5845457241" lon="20.0134584680">
        <ele>1976.61</ele>
        <time>2019-07-14T09:54:37Z</time>
      </trkpt>
      <trkpt lat="42.5846318901" lon="20.0134577136">
        <ele>1973.72</ele>
        <time>2019-07-14T09:54:46Z</time>
      </trkpt>
      <trkpt lat="42.5846885517" lon="20.0134686939">
        <ele>1972.28</ele>
        <time>2019-07-14T09:54:49Z</time>
      </trkpt>
      <trkpt lat="42.5848571118" lon="20.0134526007">
        <ele>1969.88</ele>
        <time>2019-07-14T09:55:00Z</time>
      </trkpt>
      <trkpt lat="42.5849224068" lon="20.0134735554">
        <ele>1968.44</ele>
        <time>2019-07-14T09:55:04Z</time>
      </trkpt>
      <trkpt lat="42.5850137696" lon="20.0134937558">
        <ele>1965.07</ele>
        <time>2019-07-14T09:55:12Z</time>
      </trkpt>
      <trkpt lat="42.5850892905" lon="20.0134544447">
        <ele>1962.67</ele>
        <time>2019-07-14T09:55:18Z</time>
      </trkpt>
      <trkpt lat="42.5852166116" lon="20.0134196598">
        <ele>1959.30</ele>
        <time>2019-07-14T09:55:26Z</time>
      </trkpt>
      <trkpt lat="42.5852425955" lon="20.0134274550">
        <ele>1958.34</ele>
        <time>2019-07-14T09:55:28Z</time>
      </trkpt>
      <trkpt lat="42.5853190385" lon="20.0133422110">
        <ele>1954.50</ele>
        <time>2019-07-14T09:55:42Z</time>
      </trkpt>
      <trkpt lat="42.5853713416" lon="20.0133047439">
        <ele>1952.09</ele>
        <time>2019-07-14T09:55:46Z</time>
      </trkpt>
      <trkpt lat="42.5854746066" lon="20.0132656004">
        <ele>1949.21</ele>
        <time>2019-07-14T09:56:00Z</time>
      </trkpt>
      <trkpt lat="42.5855197851" lon="20.0132980384">
        <ele>1949.21</ele>
        <time>2019-07-14T09:56:12Z</time>
      </trkpt>
      <trkpt lat="42.5855704118" lon="20.0133163109">
        <ele>1945.85</ele>
        <time>2019-07-14T09:56:21Z</time>
      </trkpt>
      <trkpt lat="42.5856444240" lon="20.0132826157">
        <ele>1942.48</ele>
        <time>2019-07-14T09:56:27Z</time>
      </trkpt>
      <trkpt lat="42.5856873393" lon="20.0132691208">
        <ele>1940.08</ele>
        <time>2019-07-14T09:56:33Z</time>
      </trkpt>
      <trkpt lat="42.5858127326" lon="20.0133205019">
        <ele>1936.23</ele>
        <time>2019-07-14T09:56:46Z</time>
      </trkpt>
      <trkpt lat="42.5859170035" lon="20.0133619923">
        <ele>1932.87</ele>
        <time>2019-07-14T09:56:57Z</time>
      </trkpt>
      <trkpt lat="42.5859345216" lon="20.0133681949">
        <ele>1932.39</ele>
        <time>2019-07-14T09:56:59Z</time>
      </trkpt>
      <trkpt lat="42.5860030856" lon="20.0133483298">
        <ele>1929.02</ele>
        <time>2019-07-14T09:57:09Z</time>
      </trkpt>
      <trkpt lat="42.5860200170" lon="20.0133472402">
        <ele>1928.54</ele>
        <time>2019-07-14T09:57:11Z</time>
      </trkpt>
      <trkpt lat="42.5861140620" lon="20.0133616570">
        <ele>1925.66</ele>
        <time>2019-07-14T09:57:25Z</time>
      </trkpt>
      <trkpt lat="42.5861643534" lon="20.0133857969">
        <ele>1924.70</ele>
        <time>2019-07-14T09:57:36Z</time>
      </trkpt>
      <trkpt lat="42.5861428119" lon="20.0133334938">
        <ele>1925.18</ele>
        <time>2019-07-14T09:57:51Z</time>
      </trkpt>
      <trkpt lat="42.5861413870" lon="20.0133220106">
        <ele>1925.18</ele>
        <time>2019-07-14T09:58:13Z</time>
      </trkpt>
      <trkpt lat="42.5862474181" lon="20.0133558735">
        <ele>1922.77</ele>
        <time>2019-07-14T09:58:32Z</time>
      </trkpt>
      <trkpt lat="42.5862593204" lon="20.0133692846">
        <ele>1922.29</ele>
        <time>2019-07-14T09:58:33Z</time>
      </trkpt>
      <trkpt lat="42.5863342546" lon="20.0133754034">
        <ele>1918.93</ele>
        <time>2019-07-14T09:58:43Z</time>
      </trkpt>
      <trkpt lat="42.5863679498" lon="20.0133842044">
        <ele>1917.49</ele>
        <time>2019-07-14T09:58:47Z</time>
      </trkpt>
      <trkpt lat="42.5864948519" lon="20.0132867228">
        <ele>1914.12</ele>
        <time>2019-07-14T09:59:00Z</time>
      </trkpt>
      <trkpt lat="42.5865443051" lon="20.0131073501">
        <ele>1911.24</ele>
        <time>2019-07-14T09:59:13Z</time>
      </trkpt>
      <trkpt lat="42.5865989551" lon="20.0129208528">
        <ele>1907.39</ele>
        <time>2019-07-14T09:59:26Z</time>
      </trkpt>
      <trkpt lat="42.5866073370" lon="20.0129044242">
        <ele>1907.39</ele>
        <time>2019-07-14T09:59:27Z</time>
      </trkpt>
      <trkpt lat="42.5866116118" lon="20.0127614290">
        <ele>1904.03</ele>
        <time>2019-07-14T09:59:39Z</time>
      </trkpt>
      <trkpt lat="42.5866665132" lon="20.0125525519">
        <ele>1901.63</ele>
        <time>2019-07-14T09:59:53Z</time>
      </trkpt>
      <trkpt lat="42.5867189001" lon="20.0123728439">
        <ele>1899.22</ele>
        <time>2019-07-14T10:00:02Z</time>
      </trkpt>
      <trkpt lat="42.5867369212" lon="20.0123314373">
        <ele>1898.74</ele>
        <time>2019-07-14T10:00:06Z</time>
      </trkpt>
      <trkpt lat="42.5867700297" lon="20.0122114085">
        <ele>1897.30</ele>
        <time>2019-07-14T10:00:13Z</time>
      </trkpt>
      <trkpt lat="42.5867973547" lon="20.0121540762">
        <ele>1896.82</ele>
        <time>2019-07-14T10:00:17Z</time>
      </trkpt>
      <trkpt lat="42.5868141185" lon="20.0121291820">
        <ele>1896.34</ele>
        <time>2019-07-14T10:00:20Z</time>
      </trkpt>
      <trkpt lat="42.5868744683" lon="20.0121635478">
        <ele>1894.90</ele>
        <time>2019-07-14T10:00:26Z</time>
      </trkpt>
      <trkpt lat="42.5869537611" lon="20.0120810699">
        <ele>1892.97</ele>
        <time>2019-07-14T10:00:34Z</time>
      </trkpt>
      <trkpt lat="42.5869995262" lon="20.0120719336">
        <ele>1891.53</ele>
        <time>2019-07-14T10:00:37Z</time>
      </trkpt>
      <trkpt lat="42.5870960858" lon="20.0119043794">
        <ele>1888.65</ele>
        <time>2019-07-14T10:00:51Z</time>
      </trkpt>
      <trkpt lat="42.5871119276" lon="20.0118628889">
        <ele>1887.69</ele>
        <time>2019-07-14T10:00:54Z</time>
      </trkpt>
      <trkpt lat="42.5872525759" lon="20.0117111765">
        <ele>1884.32</ele>
        <time>2019-07-14T10:01:06Z</time>
      </trkpt>
      <trkpt lat="42.5872936472" lon="20.0116789062">
        <ele>1883.36</ele>
        <time>2019-07-14T10:01:10Z</time>
      </trkpt>
      <trkpt lat="42.5873459503" lon="20.0115590449">
        <ele>1880.00</ele>
        <time>2019-07-14T10:01:20Z</time>
      </trkpt>
      <trkpt lat="42.5873463694" lon="20.0113355834">
        <ele>1876.15</ele>
        <time>2019-07-14T10:01:30Z</time>
      </trkpt>
      <trkpt lat="42.5872900430" lon="20.0112540275">
        <ele>1875.67</ele>
        <time>2019-07-14T10:01:36Z</time>
      </trkpt>
      <trkpt lat="42.5872890372" lon="20.0112020597">
        <ele>1875.19</ele>
        <time>2019-07-14T10:01:40Z</time>
      </trkpt>
      <trkpt lat="42.5873082317" lon="20.0110854674">
        <ele>1874.71</ele>
        <time>2019-07-14T10:01:47Z</time>
      </trkpt>
      <trkpt lat="42.5873171166" lon="20.0108130556">
        <ele>1874.71</ele>
        <time>2019-07-14T10:02:04Z</time>
      </trkpt>
      <trkpt lat="42.5874279253" lon="20.0105654541">
        <ele>1873.27</ele>
        <time>2019-07-14T10:02:21Z</time>
      </trkpt>
      <trkpt lat="42.5875539891" lon="20.0104024261">
        <ele>1870.86</ele>
        <time>2019-07-14T10:02:34Z</time>
      </trkpt>
      <trkpt lat="42.5876492076" lon="20.0102554914">
        <ele>1868.46</ele>
        <time>2019-07-14T10:02:46Z</time>
      </trkpt>
      <trkpt lat="42.5876764487" lon="20.0101234764">
        <ele>1866.06</ele>
        <time>2019-07-14T10:02:54Z</time>
      </trkpt>
      <trkpt lat="42.5878003333" lon="20.0099931378">
        <ele>1863.17</ele>
        <time>2019-07-14T10:03:07Z</time>
      </trkpt>
      <trkpt lat="42.5878196955" lon="20.0099617057">
        <ele>1862.69</ele>
        <time>2019-07-14T10:03:09Z</time>
      </trkpt>
      <trkpt lat="42.5879150815" lon="20.0099364761">
        <ele>1860.29</ele>
        <time>2019-07-14T10:03:16Z</time>
      </trkpt>
      <trkpt lat="42.5879645348" lon="20.0099309441">
        <ele>1859.81</ele>
        <time>2019-07-14T10:03:20Z</time>
      </trkpt>
      <trkpt lat="42.5881371181" lon="20.0098425150">
        <ele>1856.92</ele>
        <time>2019-07-14T10:03:33Z</time>
      </trkpt>
      <trkpt lat="42.5883316621" lon="20.0098289363">
        <ele>1853.08</ele>
        <time>2019-07-14T10:03:46Z</time>
      </trkpt>
      <trkpt lat="42.5884913374" lon="20.0097321253">
        <ele>1851.16</ele>
        <time>2019-07-14T10:03:59Z</time>
      </trkpt>
      <trkpt lat="42.5885918364" lon="20.0097472128">
        <ele>1850.19</ele>
        <time>2019-07-14T10:04:05Z</time>
      </trkpt>
      <trkpt lat="42.5886984542" lon="20.0098381564">
        <ele>1847.79</ele>
        <time>2019-07-14T10:04:14Z</time>
      </trkpt>
      <trkpt lat="42.5887330715" lon="20.0098210573">
        <ele>1846.35</ele>
        <time>2019-07-14T10:04:18Z</time>
      </trkpt>
      <trkpt lat="42.5888551958" lon="20.0098029524">
        <ele>1842.98</ele>
        <time>2019-07-14T10:04:28Z</time>
      </trkpt>
      <trkpt lat="42.5889453851" lon="20.0098011922">
        <ele>1839.62</ele>
        <time>2019-07-14T10:04:37Z</time>
      </trkpt>
      <trkpt lat="42.5890086684" lon="20.0097982585">
        <ele>1838.18</ele>
        <time>2019-07-14T10:04:44Z</time>
      </trkpt>
      <trkpt lat="42.5891091675" lon="20.0097029563">
        <ele>1834.33</ele>
        <time>2019-07-14T10:04:53Z</time>
      </trkpt>
      <trkpt lat="42.5891294517" lon="20.0096774753">
        <ele>1833.37</ele>
        <time>2019-07-14T10:04:55Z</time>
      </trkpt>
      <trkpt lat="42.5891404320" lon="20.0096540898">
        <ele>1833.37</ele>
        <time>2019-07-14T10:04:57Z</time>
      </trkpt>
      <trkpt lat="42.5892307051" lon="20.0096259266">
        <ele>1829.53</ele>
        <time>2019-07-14T10:05:08Z</time>
      </trkpt>
      <trkpt lat="42.5892887078" lon="20.0095608830">
        <ele>1826.64</ele>
        <time>2019-07-14T10:05:20Z</time>
      </trkpt>
      <trkpt lat="42.5893102493" lon="20.0095265172">
        <ele>1825.20</ele>
        <time>2019-07-14T10:05:23Z</time>
      </trkpt>
      <trkpt lat="42.5893891230" lon="20.0094270241">
        <ele>1821.35</ele>
        <time>2019-07-14T10:05:33Z</time>
      </trkpt>
      <trkpt lat="42.5894967467" lon="20.0093348231">
        <ele>1817.99</ele>
        <time>2019-07-14T10:05:45Z</time>
      </trkpt>
      <trkpt lat="42.5895171985" lon="20.0092894770">
        <ele>1816.55</ele>
        <time>2019-07-14T10:05:50Z</time>
      </trkpt>
      <trkpt lat="42.5895440206" lon="20.0092034787">
        <ele>1814.63</ele>
        <time>2019-07-14T10:05:56Z</time>
      </trkpt>
      <trkpt lat="42.5896057114" lon="20.0091769919">
        <ele>1813.18</ele>
        <time>2019-07-14T10:06:03Z</time>
      </trkpt>
      <trkpt lat="42.5896223914" lon="20.0090305600">
        <ele>1812.22</ele>
        <time>2019-07-14T10:06:17Z</time>
      </trkpt>
      <trkpt lat="42.5896473695" lon="20.0090218429">
        <ele>1811.74</ele>
        <time>2019-07-14T10:06:20Z</time>
      </trkpt>
      <trkpt lat="42.5896713417" lon="20.0089035742">
        <ele>1810.78</ele>
        <time>2019-07-14T10:06:31Z</time>
      </trkpt>
      <trkpt lat="42.5897492096" lon="20.0088655204">
        <ele>1811.26</ele>
        <time>2019-07-14T10:06:46Z</time>
      </trkpt>
      <trkpt lat="42.5897993334" lon="20.0087807793">
        <ele>1810.78</ele>
        <time>2019-07-14T10:07:01Z</time>
      </trkpt>
      <trkpt lat="42.5899190269" lon="20.0087112933">
        <ele>1810.78</ele>
        <time>2019-07-14T10:07:15Z</time>
      </trkpt>
      <trkpt lat="42.5899315160" lon="20.0086906739">
        <ele>1810.78</ele>
        <time>2019-07-14T10:07:18Z</time>
      </trkpt>
      <trkpt lat="42.5899445079" lon="20.0086233672">
        <ele>1810.78</ele>
        <time>2019-07-14T10:07:23Z</time>
      </trkpt>
      <trkpt lat="42.5899123214" lon="20.0084923580">
        <ele>1809.34</ele>
        <time>2019-07-14T10:07:35Z</time>
      </trkpt>
      <trkpt lat="42.5899515487" lon="20.0084450003">
        <ele>1808.86</ele>
        <time>2019-07-14T10:07:43Z</time>
      </trkpt>
      <trkpt lat="42.5899682287" lon="20.0084230397">
        <ele>1808.38</ele>
        <time>2019-07-14T10:07:45Z</time>
      </trkpt>
      <trkpt lat="42.5899944641" lon="20.0083878357">
        <ele>1808.38</ele>
        <time>2019-07-14T10:07:48Z</time>
      </trkpt>
      <trkpt lat="42.5901289098" lon="20.0082706567">
        <ele>1807.42</ele>
        <time>2019-07-14T10:08:03Z</time>
      </trkpt>
      <trkpt lat="42.5902047660" lon="20.0081668887">
        <ele>1805.97</ele>
        <time>2019-07-14T10:08:14Z</time>
      </trkpt>
      <trkpt lat="42.5902279001" lon="20.0081103947">
        <ele>1805.01</ele>
        <time>2019-07-14T10:08:17Z</time>
      </trkpt>
      <trkpt lat="42.5903664529" lon="20.0079137553">
        <ele>1803.57</ele>
        <time>2019-07-14T10:08:31Z</time>
      </trkpt>
      <trkpt lat="42.5904586539" lon="20.0077831652">
        <ele>1802.13</ele>
        <time>2019-07-14T10:08:42Z</time>
      </trkpt>
      <trkpt lat="42.5904957019" lon="20.0076099951">
        <ele>1799.73</ele>
        <time>2019-07-14T10:08:55Z</time>
      </trkpt>
      <trkpt lat="42.5905026589" lon="20.0075219013">
        <ele>1799.24</ele>
        <time>2019-07-14T10:09:00Z</time>
      </trkpt>
      <trkpt lat="42.5905030780" lon="20.0074863620">
        <ele>1799.24</ele>
        <time>2019-07-14T10:09:02Z</time>
      </trkpt>
      <trkpt lat="42.5905204285" lon="20.0073655788">
        <ele>1798.28</ele>
        <time>2019-07-14T10:09:10Z</time>
      </trkpt>
      <trkpt lat="42.5905803591" lon="20.0071815960">
        <ele>1794.92</ele>
        <time>2019-07-14T10:09:24Z</time>
      </trkpt>
      <trkpt lat="42.5905864779" lon="20.0071684364">
        <ele>1794.92</ele>
        <time>2019-07-14T10:09:25Z</time>
      </trkpt>
      <trkpt lat="42.5906379428" lon="20.0070823543">
        <ele>1791.55</ele>
        <time>2019-07-14T10:09:36Z</time>
      </trkpt>
      <trkpt lat="42.5906875636" lon="20.0070135389">
        <ele>1790.11</ele>
        <time>2019-07-14T10:09:42Z</time>
      </trkpt>
      <trkpt lat="42.5907857157" lon="20.0068930071">
        <ele>1786.27</ele>
        <time>2019-07-14T10:09:53Z</time>
      </trkpt>
      <trkpt lat="42.5908424612" lon="20.0068461522">
        <ele>1783.86</ele>
        <time>2019-07-14T10:10:01Z</time>
      </trkpt>
      <trkpt lat="42.5909509230" lon="20.0068940967">
        <ele>1780.98</ele>
        <time>2019-07-14T10:10:13Z</time>
      </trkpt>
      <trkpt lat="42.5910308026" lon="20.0067902450">
        <ele>1778.58</ele>
        <time>2019-07-14T10:10:25Z</time>
      </trkpt>
      <trkpt lat="42.5910696108" lon="20.0067692064">
        <ele>1778.10</ele>
        <time>2019-07-14T10:10:28Z</time>
      </trkpt>
      <trkpt lat="42.5912442897" lon="20.0066504348">
        <ele>1777.13</ele>
        <time>2019-07-14T10:10:44Z</time>
      </trkpt>
      <trkpt lat="42.5912701059" lon="20.0066288933">
        <ele>1777.13</ele>
        <time>2019-07-14T10:11:01Z</time>
      </trkpt>
      <trkpt lat="42.5912959222" lon="20.0066254567">
        <ele>1777.61</ele>
        <time>2019-07-14T10:11:39Z</time>
      </trkpt>
      <trkpt lat="42.5912954193" lon="20.0065957848">
        <ele>1777.13</ele>
        <time>2019-07-14T10:11:54Z</time>
      </trkpt>
      <trkpt lat="42.5913763884" lon="20.0065782666">
        <ele>1777.13</ele>
        <time>2019-07-14T10:12:10Z</time>
      </trkpt>
      <trkpt lat="42.5914773904" lon="20.0065390393">
        <ele>1775.69</ele>
        <time>2019-07-14T10:12:21Z</time>
      </trkpt>
      <trkpt lat="42.5914844312" lon="20.0064863171">
        <ele>1774.73</ele>
        <time>2019-07-14T10:12:28Z</time>
      </trkpt>
      <trkpt lat="42.5914955791" lon="20.0064537115">
        <ele>1774.73</ele>
        <time>2019-07-14T10:12:32Z</time>
      </trkpt>
      <trkpt lat="42.5915907137" lon="20.0063051004">
        <ele>1770.89</ele>
        <time>2019-07-14T10:12:46Z</time>
      </trkpt>
      <trkpt lat="42.5917166099" lon="20.0062186830">
        <ele>1768.00</ele>
        <time>2019-07-14T10:12:59Z</time>
      </trkpt>
      <trkpt lat="42.5918300170" lon="20.0061344448">
        <ele>1765.60</ele>
        <time>2019-07-14T10:13:11Z</time>
      </trkpt>
      <trkpt lat="42.5918610301" lon="20.0061033480">
        <ele>1764.64</ele>
        <time>2019-07-14T10:13:14Z</time>
      </trkpt>
      <trkpt lat="42.5919910334" lon="20.0059921201">
        <ele>1761.27</ele>
        <time>2019-07-14T10:13:25Z</time>
      </trkpt>
      <trkpt lat="42.5920160115" lon="20.0059728418">
        <ele>1760.31</ele>
        <time>2019-07-14T10:13:28Z</time>
      </trkpt>
      <trkpt lat="42.5921586715" lon="20.0058701634">
        <ele>1757.43</ele>
        <time>2019-07-14T10:13:37Z</time>
      </trkpt>
      <trkpt lat="42.5921932049" lon="20.0058641285">
        <ele>1756.47</ele>
        <time>2019-07-14T10:13:40Z</time>
      </trkpt>
      <trkpt lat="42.5922238827" lon="20.0057767890">
        <ele>1755.02</ele>
        <time>2019-07-14T10:13:46Z</time>
      </trkpt>
      <trkpt lat="42.5921980664" lon="20.0055289362">
        <ele>1751.66</ele>
        <time>2019-07-14T10:14:01Z</time>
      </trkpt>
      <trkpt lat="42.5921938755" lon="20.0053517427">
        <ele>1748.29</ele>
        <time>2019-07-14T10:14:13Z</time>
      </trkpt>
      <trkpt lat="42.5921891816" lon="20.0052450411">
        <ele>1744.93</ele>
        <time>2019-07-14T10:14:25Z</time>
      </trkpt>
      <trkpt lat="42.5921911094" lon="20.0052292831">
        <ele>1744.93</ele>
        <time>2019-07-14T10:14:26Z</time>
      </trkpt>
      <trkpt lat="42.5921169296" lon="20.0048958510">
        <ele>1743.97</ele>
        <time>2019-07-14T10:14:36Z</time>
      </trkpt>
      <trkpt lat="42.5921171810" lon="20.0048810150">
        <ele>1743.49</ele>
        <time>2019-07-14T10:14:37Z</time>
      </trkpt>
      <trkpt lat="42.5921574980" lon="20.0047430489">
        <ele>1740.60</ele>
        <time>2019-07-14T10:14:50Z</time>
      </trkpt>
      <trkpt lat="42.5921749324" lon="20.0045645144">
        <ele>1737.24</ele>
        <time>2019-07-14T10:15:01Z</time>
      </trkpt>
      <trkpt lat="42.5921832304" lon="20.0043203495">
        <ele>1734.84</ele>
        <time>2019-07-14T10:15:17Z</time>
      </trkpt>
      <trkpt lat="42.5921634492" lon="20.0042335130">
        <ele>1733.88</ele>
        <time>2019-07-14T10:15:22Z</time>
      </trkpt>
      <trkpt lat="42.5921238028" lon="20.0039263163">
        <ele>1730.51</ele>
        <time>2019-07-14T10:15:37Z</time>
      </trkpt>
      <trkpt lat="42.5921530556" lon="20.0037367176">
        <ele>1727.15</ele>
        <time>2019-07-14T10:15:47Z</time>
      </trkpt>
      <trkpt lat="42.5921515469" lon="20.0037246477">
        <ele>1727.15</ele>
        <time>2019-07-14T10:15:48Z</time>
      </trkpt>
      <trkpt lat="42.5921371300" lon="20.0036782119">
        <ele>1726.18</ele>
        <time>2019-07-14T10:15:50Z</time>
      </trkpt>
      <trkpt lat="42.5921653770" lon="20.0034921337">
        <ele>1722.82</ele>
        <time>2019-07-14T10:16:02Z</time>
      </trkpt>
      <trkpt lat="42.5921639521" lon="20.0033154432">
        <ele>1719.46</ele>
        <time>2019-07-14T10:16:11Z</time>
      </trkpt>
      <trkpt lat="42.5920834020" lon="20.0031198934">
        <ele>1717.05</ele>
        <time>2019-07-14T10:16:25Z</time>
      </trkpt>
      <trkpt lat="42.5920692366" lon="20.0028634071">
        <ele>1714.17</ele>
        <time>2019-07-14T10:16:37Z</time>
      </trkpt>
      <trkpt lat="42.5920018461" lon="20.0026679412">
        <ele>1710.80</ele>
        <time>2019-07-14T10:16:48Z</time>
      </trkpt>
      <trkpt lat="42.5919726770" lon="20.0024386961">
        <ele>1706.96</ele>
        <time>2019-07-14T10:17:01Z</time>
      </trkpt>
      <trkpt lat="42.5919589307" lon="20.0022343453">
        <ele>1703.59</ele>
        <time>2019-07-14T10:17:14Z</time>
      </trkpt>
      <trkpt lat="42.5919483695" lon="20.0022115465">
        <ele>1703.11</ele>
        <time>2019-07-14T10:17:16Z</time>
      </trkpt>
      <trkpt lat="42.5918247364" lon="20.0019476842">
        <ele>1700.71</ele>
        <time>2019-07-14T10:17:25Z</time>
      </trkpt>
      <trkpt lat="42.5917409174" lon="20.0018683914">
        <ele>1699.75</ele>
        <time>2019-07-14T10:17:31Z</time>
      </trkpt>
      <trkpt lat="42.5917089824" lon="20.0018165074">
        <ele>1698.79</ele>
        <time>2019-07-14T10:17:34Z</time>
      </trkpt>
      <trkpt lat="42.5916828308" lon="20.0016848277">
        <ele>1696.86</ele>
        <time>2019-07-14T10:17:41Z</time>
      </trkpt>
      <trkpt lat="42.5916334614" lon="20.0015403237">
        <ele>1695.42</ele>
        <time>2019-07-14T10:17:48Z</time>
      </trkpt>
      <trkpt lat="42.5916016940" lon="20.0014529005">
        <ele>1694.46</ele>
        <time>2019-07-14T10:17:52Z</time>
      </trkpt>
      <trkpt lat="42.5916015264" lon="20.0014053751">
        <ele>1693.02</ele>
        <time>2019-07-14T10:17:55Z</time>
      </trkpt>
      <trkpt lat="42.5916166976" lon="20.0012747850">
        <ele>1689.17</ele>
        <time>2019-07-14T10:18:05Z</time>
      </trkpt>
      <trkpt lat="42.5916210562" lon="20.0011817459">
        <ele>1687.25</ele>
        <time>2019-07-14T10:18:11Z</time>
      </trkpt>
      <trkpt lat="42.5916028675" lon="20.0010809954">
        <ele>1685.81</ele>
        <time>2019-07-14T10:18:17Z</time>
      </trkpt>
      <trkpt lat="42.5916172843" lon="20.0009039696">
        <ele>1682.44</ele>
        <time>2019-07-14T10:18:26Z</time>
      </trkpt>
      <trkpt lat="42.5916307792" lon="20.0007264409">
        <ele>1679.56</ele>
        <time>2019-07-14T10:18:34Z</time>
      </trkpt>
      <trkpt lat="42.5916776340" lon="20.0006220024">
        <ele>1678.12</ele>
        <time>2019-07-14T10:18:40Z</time>
      </trkpt>
      <trkpt lat="42.5917658117" lon="20.0005630776">
        <ele>1674.75</ele>
        <time>2019-07-14T10:18:52Z</time>
      </trkpt>
      <trkpt lat="42.5917790551" lon="20.0005619880">
        <ele>1674.75</ele>
        <time>2019-07-14T10:18:53Z</time>
      </trkpt>
      <trkpt lat="42.5918850861" lon="20.0005348306">
        <ele>1672.35</ele>
        <time>2019-07-14T10:19:00Z</time>
      </trkpt>
      <trkpt lat="42.5919194520" lon="20.0005105231">
        <ele>1670.91</ele>
        <time>2019-07-14T10:19:03Z</time>
      </trkpt>
      <trkpt lat="42.5919417478" lon="20.0004945137">
        <ele>1669.95</ele>
        <time>2019-07-14T10:19:05Z</time>
      </trkpt>
      <trkpt lat="42.5920242257" lon="20.0004401151">
        <ele>1667.54</ele>
        <time>2019-07-14T10:19:11Z</time>
      </trkpt>
      <trkpt lat="42.5921586715" lon="20.0004420429">
        <ele>1663.70</ele>
        <time>2019-07-14T10:19:20Z</time>
      </trkpt>
      <trkpt lat="42.5921906903" lon="20.0004286319">
        <ele>1662.74</ele>
        <time>2019-07-14T10:19:23Z</time>
      </trkpt>
      <trkpt lat="42.5922615174" lon="20.0004294701">
        <ele>1661.30</ele>
        <time>2019-07-14T10:19:27Z</time>
      </trkpt>
      <trkpt lat="42.5924483500" lon="20.0005158037">
        <ele>1656.97</ele>
        <time>2019-07-14T10:19:38Z</time>
      </trkpt>
      <trkpt lat="42.5925096218" lon="20.0005577132">
        <ele>1655.05</ele>
        <time>2019-07-14T10:19:43Z</time>
      </trkpt>
      <trkpt lat="42.5927554630" lon="20.0005008001">
        <ele>1651.68</ele>
        <time>2019-07-14T10:19:54Z</time>
      </trkpt>
      <trkpt lat="42.5928195007" lon="20.0004795939">
        <ele>1651.20</ele>
        <time>2019-07-14T10:19:57Z</time>
      </trkpt>
      <trkpt lat="42.5928831194" lon="20.0004161429">
        <ele>1649.76</ele>
        <time>2019-07-14T10:20:01Z</time>
      </trkpt>
      <trkpt lat="42.5929012243" lon="20.0001946930">
        <ele>1647.36</ele>
        <time>2019-07-14T10:20:16Z</time>
      </trkpt>
      <trkpt lat="42.5929221790" lon="20.0000871532">
        <ele>1645.91</ele>
        <time>2019-07-14T10:20:23Z</time>
      </trkpt>
      <trkpt lat="42.5929603167" lon="19.9999170005">
        <ele>1642.07</ele>
        <time>2019-07-14T10:20:34Z</time>
      </trkpt>
      <trkpt lat="42.5929336622" lon="19.9997742567">
        <ele>1638.70</ele>
        <time>2019-07-14T10:20:45Z</time>
      </trkpt>
      <trkpt lat="42.5929013919" lon="19.9996863306">
        <ele>1637.74</ele>
        <time>2019-07-14T10:20:50Z</time>
      </trkpt>
      <trkpt lat="42.5928715523" lon="19.9996332731">
        <ele>1637.26</ele>
        <time>2019-07-14T10:20:52Z</time>
      </trkpt>
      <trkpt lat="42.5928189978" lon="19.9993642140">
        <ele>1633.90</ele>
        <time>2019-07-14T10:21:04Z</time>
      </trkpt>
      <trkpt lat="42.5928332470" lon="19.9992384017">
        <ele>1630.53</ele>
        <time>2019-07-14T10:21:14Z</time>
      </trkpt>
      <trkpt lat="42.5928427186" lon="19.9990235735">
        <ele>1627.17</ele>
        <time>2019-07-14T10:21:26Z</time>
      </trkpt>
      <trkpt lat="42.5928461552" lon="19.9990125932">
        <ele>1626.69</ele>
        <time>2019-07-14T10:21:27Z</time>
      </trkpt>
      <trkpt lat="42.5928512681" lon="19.9988996051">
        <ele>1624.77</ele>
        <time>2019-07-14T10:21:33Z</time>
      </trkpt>
      <trkpt lat="42.5928291399" lon="19.9987971783">
        <ele>1622.84</ele>
        <time>2019-07-14T10:21:39Z</time>
      </trkpt>
      <trkpt lat="42.5928284694" lon="19.9987311289">
        <ele>1621.40</ele>
        <time>2019-07-14T10:21:42Z</time>
      </trkpt>
      <trkpt lat="42.5927629229" lon="19.9984431267">
        <ele>1618.04</ele>
        <time>2019-07-14T10:21:54Z</time>
      </trkpt>
      <trkpt lat="42.5926837139" lon="19.9982462358">
        <ele>1614.67</ele>
        <time>2019-07-14T10:22:04Z</time>
      </trkpt>
      <trkpt lat="42.5926734880" lon="19.9981992133">
        <ele>1613.71</ele>
        <time>2019-07-14T10:22:07Z</time>
      </trkpt>
      <trkpt lat="42.5926653575" lon="19.9981179927">
        <ele>1611.79</ele>
        <time>2019-07-14T10:22:12Z</time>
      </trkpt>
      <trkpt lat="42.5926332548" lon="19.9979892466">
        <ele>1608.42</ele>
        <time>2019-07-14T10:22:23Z</time>
      </trkpt>
      <trkpt lat="42.5926334225" lon="19.9979268853">
        <ele>1607.46</ele>
        <time>2019-07-14T10:22:27Z</time>
      </trkpt>
      <trkpt lat="42.5926461630" lon="19.9977926910">
        <ele>1605.06</ele>
        <time>2019-07-14T10:22:34Z</time>
      </trkpt>
      <trkpt lat="42.5926807802" lon="19.9977117218">
        <ele>1603.62</ele>
        <time>2019-07-14T10:22:38Z</time>
      </trkpt>
      <trkpt lat="42.5927645154" lon="19.9974862486">
        <ele>1600.73</ele>
        <time>2019-07-14T10:22:49Z</time>
      </trkpt>
      <trkpt lat="42.5929070916" lon="19.9974706583">
        <ele>1596.89</ele>
        <time>2019-07-14T10:23:01Z</time>
      </trkpt>
      <trkpt lat="42.5930273719" lon="19.9975178484">
        <ele>1594.00</ele>
        <time>2019-07-14T10:23:12Z</time>
      </trkpt>
      <trkpt lat="42.5931195728" lon="19.9974742625">
        <ele>1591.60</ele>
        <time>2019-07-14T10:23:20Z</time>
      </trkpt>
      <trkpt lat="42.5931695290" lon="19.9974533077">
        <ele>1590.16</ele>
        <time>2019-07-14T10:23:23Z</time>
      </trkpt>
      <trkpt lat="42.5933338981" lon="19.9974108953">
        <ele>1586.79</ele>
        <time>2019-07-14T10:23:32Z</time>
      </trkpt>
      <trkpt lat="42.5934518315" lon="19.9972760305">
        <ele>1583.43</ele>
        <time>2019-07-14T10:23:43Z</time>
      </trkpt>
      <trkpt lat="42.5934832636" lon="19.9971535709">
        <ele>1580.06</ele>
        <time>2019-07-14T10:23:53Z</time>
      </trkpt>
      <trkpt lat="42.5934910588" lon="19.9969670735">
        <ele>1577.66</ele>
        <time>2019-07-14T10:24:02Z</time>
      </trkpt>
      <trkpt lat="42.5934608001" lon="19.9967478868">
        <ele>1573.33</ele>
        <time>2019-07-14T10:24:13Z</time>
      </trkpt>
      <trkpt lat="42.5934555195" lon="19.9967113417">
        <ele>1572.85</ele>
        <time>2019-07-14T10:24:15Z</time>
      </trkpt>
      <trkpt lat="42.5934398454" lon="19.9966493994">
        <ele>1571.41</ele>
        <time>2019-07-14T10:24:18Z</time>
      </trkpt>
      <trkpt lat="42.5934307091" lon="19.9966043048">
        <ele>1570.45</ele>
        <time>2019-07-14T10:24:20Z</time>
      </trkpt>
      <trkpt lat="42.5933077466" lon="19.9964121077">
        <ele>1566.61</ele>
        <time>2019-07-14T10:24:30Z</time>
      </trkpt>
      <trkpt lat="42.5932649150" lon="19.9962582998">
        <ele>1564.68</ele>
        <time>2019-07-14T10:24:44Z</time>
      </trkpt>
      <trkpt lat="42.5933069922" lon="19.9962161388">
        <ele>1564.20</ele>
        <time>2019-07-14T10:24:54Z</time>
      </trkpt>
      <trkpt lat="42.5933846086" lon="19.9962145463">
        <ele>1562.76</ele>
        <time>2019-07-14T10:25:01Z</time>
      </trkpt>
      <trkpt lat="42.5934737921" lon="19.9961886462">
        <ele>1561.32</ele>
        <time>2019-07-14T10:25:08Z</time>
      </trkpt>
      <trkpt lat="42.5935255084" lon="19.9961396959">
        <ele>1558.92</ele>
        <time>2019-07-14T10:25:15Z</time>
      </trkpt>
      <trkpt lat="42.5935530011" lon="19.9961098563">
        <ele>1558.43</ele>
        <time>2019-07-14T10:25:18Z</time>
      </trkpt>
      <trkpt lat="42.5935865287" lon="19.9960244447">
        <ele>1556.99</ele>
        <time>2019-07-14T10:25:22Z</time>
      </trkpt>
      <trkpt lat="42.5936941523" lon="19.9961355887">
        <ele>1555.55</ele>
        <time>2019-07-14T10:25:30Z</time>
      </trkpt>
      <trkpt lat="42.5939175300" lon="19.9961741455">
        <ele>1553.15</ele>
        <time>2019-07-14T10:25:41Z</time>
      </trkpt>
      <trkpt lat="42.5940328650" lon="19.9961167295">
        <ele>1549.78</ele>
        <time>2019-07-14T10:25:51Z</time>
      </trkpt>
      <trkpt lat="42.5940900296" lon="19.9961298052">
        <ele>1548.34</ele>
        <time>2019-07-14T10:25:56Z</time>
      </trkpt>
      <trkpt lat="42.5941236410" lon="19.9961306434">
        <ele>1547.38</ele>
        <time>2019-07-14T10:25:59Z</time>
      </trkpt>
      <trkpt lat="42.5941682328" lon="19.9960507639">
        <ele>1544.01</ele>
        <time>2019-07-14T10:26:06Z</time>
      </trkpt>
      <trkpt lat="42.5941961445" lon="19.9960687011">
        <ele>1542.57</ele>
        <time>2019-07-14T10:26:10Z</time>
      </trkpt>
      <trkpt lat="42.5942567457" lon="19.9961154722">
        <ele>1541.61</ele>
        <time>2019-07-14T10:26:15Z</time>
      </trkpt>
      <trkpt lat="42.5944279879" lon="19.9962533545">
        <ele>1538.25</ele>
        <time>2019-07-14T10:26:27Z</time>
      </trkpt>
      <trkpt lat="42.5945153274" lon="19.9963680189">
        <ele>1536.80</ele>
        <time>2019-07-14T10:26:37Z</time>
      </trkpt>
      <trkpt lat="42.5947407167" lon="19.9965220783">
        <ele>1534.40</ele>
        <time>2019-07-14T10:26:53Z</time>
      </trkpt>
      <trkpt lat="42.5947790220" lon="19.9964993633">
        <ele>1533.44</ele>
        <time>2019-07-14T10:26:56Z</time>
      </trkpt>
      <trkpt lat="42.5947869010" lon="19.9964823481">
        <ele>1532.96</ele>
        <time>2019-07-14T10:26:57Z</time>
      </trkpt>
      <trkpt lat="42.5947847217" lon="19.9964048993">
        <ele>1532.48</ele>
        <time>2019-07-14T10:27:01Z</time>
      </trkpt>
      <trkpt lat="42.5946786907" lon="19.9962211680">
        <ele>1528.63</ele>
        <time>2019-07-14T10:27:13Z</time>
      </trkpt>
      <trkpt lat="42.5945389643" lon="19.9961600639">
        <ele>1527.67</ele>
        <time>2019-07-14T10:27:25Z</time>
      </trkpt>
      <trkpt lat="42.5945195183" lon="19.9961716309">
        <ele>1528.15</ele>
        <time>2019-07-14T10:27:39Z</time>
      </trkpt>
      <trkpt lat="42.5945113041" lon="19.9961509276">
        <ele>1527.19</ele>
        <time>2019-07-14T10:27:56Z</time>
      </trkpt>
      <trkpt lat="42.5944887567" lon="19.9961381871">
        <ele>1527.19</ele>
        <time>2019-07-14T10:28:11Z</time>
      </trkpt>
      <trkpt lat="42.5944854040" lon="19.9961515982">
        <ele>1525.75</ele>
        <time>2019-07-14T10:28:26Z</time>
      </trkpt>
      <trkpt lat="42.5944882538" lon="19.9961510114">
        <ele>1530.56</ele>
        <time>2019-07-14T10:28:27Z</time>
      </trkpt>
      <trkpt lat="42.5944909360" lon="19.9961495027">
        <ele>1526.71</ele>
        <time>2019-07-14T10:28:28Z</time>
      </trkpt>
      <trkpt lat="42.5945168361" lon="19.9960782565">
        <ele>1526.71</ele>
        <time>2019-07-14T10:28:59Z</time>
      </trkpt>
      <trkpt lat="42.5945301633" lon="19.9960685335">
        <ele>1526.71</ele>
        <time>2019-07-14T10:29:35Z</time>
      </trkpt>
      <trkpt lat="42.5945226196" lon="19.9960127100">
        <ele>1526.71</ele>
        <time>2019-07-14T10:30:03Z</time>
      </trkpt>
      <trkpt lat="42.5945264753" lon="19.9960770831">
        <ele>1526.23</ele>
        <time>2019-07-14T10:30:32Z</time>
      </trkpt>
      <trkpt lat="42.5945049338" lon="19.9960548710">
        <ele>1526.23</ele>
        <time>2019-07-14T10:30:59Z</time>
      </trkpt>
      <trkpt lat="42.5945680495" lon="19.9961213395">
        <ele>1526.23</ele>
        <time>2019-07-14T10:31:34Z</time>
      </trkpt>
      <trkpt lat="42.5945654511" lon="19.9961090181">
        <ele>1525.75</ele>
        <time>2019-07-14T10:32:06Z</time>
      </trkpt>
      <trkpt lat="42.5944881700" lon="19.9960674439">
        <ele>1525.75</ele>
        <time>2019-07-14T10:32:39Z</time>
      </trkpt>
      <trkpt lat="42.5944669638" lon="19.9960308149">
        <ele>1525.27</ele>
        <time>2019-07-14T10:33:19Z</time>
      </trkpt>
      <trkpt lat="42.5944698136" lon="19.9960572179">
        <ele>1525.27</ele>
        <time>2019-07-14T10:33:57Z</time>
      </trkpt>
      <trkpt lat="42.5944932830" lon="19.9960220139">
        <ele>1524.79</ele>
        <time>2019-07-14T10:34:37Z</time>
      </trkpt>
      <trkpt lat="42.5944912713" lon="19.9960545357">
        <ele>1524.79</ele>
        <time>2019-07-14T10:35:09Z</time>
      </trkpt>
      <trkpt lat="42.5944928639" lon="19.9960531108">
        <ele>1524.79</ele>
        <time>2019-07-14T10:35:44Z</time>
      </trkpt>
      <trkpt lat="42.5944962166" lon="19.9960225169">
        <ele>1524.79</ele>
        <time>2019-07-14T10:36:15Z</time>
      </trkpt>
      <trkpt lat="42.5944906846" lon="19.9959077686">
        <ele>1524.79</ele>
        <time>2019-07-14T10:36:50Z</time>
      </trkpt>
      <trkpt lat="42.5945075322" lon="19.9959894083">
        <ele>1524.79</ele>
        <time>2019-07-14T10:37:27Z</time>
      </trkpt>
      <trkpt lat="42.5944866613" lon="19.9961067550">
        <ele>1524.79</ele>
        <time>2019-07-14T10:37:58Z</time>
      </trkpt>
      <trkpt lat="42.5944708195" lon="19.9960026518">
        <ele>1524.79</ele>
        <time>2019-07-14T10:38:30Z</time>
      </trkpt>
      <trkpt lat="42.5944582466" lon="19.9960156437">
        <ele>1524.79</ele>
        <time>2019-07-14T10:38:57Z</time>
      </trkpt>
      <trkpt lat="42.5944689754" lon="19.9960553739">
        <ele>1524.79</ele>
        <time>2019-07-14T10:39:30Z</time>
      </trkpt>
      <trkpt lat="42.5945019163" lon="19.9960717186">
        <ele>1524.79</ele>
        <time>2019-07-14T10:40:00Z</time>
      </trkpt>
      <trkpt lat="42.5945075322" lon="19.9960576370">
        <ele>1524.79</ele>
        <time>2019-07-14T10:40:28Z</time>
      </trkpt>
      <trkpt lat="42.5944714900" lon="19.9959946051">
        <ele>1524.79</ele>
        <time>2019-07-14T10:41:08Z</time>
      </trkpt>
      <trkpt lat="42.5944676343" lon="19.9959373567">
        <ele>1524.79</ele>
        <time>2019-07-14T10:41:51Z</time>
      </trkpt>
      <trkpt lat="42.5944594201" lon="19.9960081838">
        <ele>1525.27</ele>
        <time>2019-07-14T10:42:25Z</time>
      </trkpt>
      <trkpt lat="42.5944525469" lon="19.9959666934">
        <ele>1524.79</ele>
        <time>2019-07-14T10:42:56Z</time>
      </trkpt>
      <trkpt lat="42.5944813807" lon="19.9960172363">
        <ele>1524.79</ele>
        <time>2019-07-14T10:43:33Z</time>
      </trkpt>
      <trkpt lat="42.5944718253" lon="19.9960146379">
        <ele>1524.79</ele>
        <time>2019-07-14T10:44:08Z</time>
      </trkpt>
      <trkpt lat="42.5945021678" lon="19.9960579723">
        <ele>1524.79</ele>
        <time>2019-07-14T10:44:46Z</time>
      </trkpt>
      <trkpt lat="42.5945091248" lon="19.9960643426">
        <ele>1524.31</ele>
        <time>2019-07-14T10:45:31Z</time>
      </trkpt>
      <trkpt lat="42.5945151597" lon="19.9960586429">
        <ele>1524.31</ele>
        <time>2019-07-14T10:46:09Z</time>
      </trkpt>
      <trkpt lat="42.5945144054" lon="19.9960645940">
        <ele>1524.31</ele>
        <time>2019-07-14T10:46:45Z</time>
      </trkpt>
      <trkpt lat="42.5944999885" lon="19.9960381072">
        <ele>1523.83</ele>
        <time>2019-07-14T10:47:17Z</time>
      </trkpt>
      <trkpt lat="42.5945170876" lon="19.9960139673">
        <ele>1523.83</ele>
        <time>2019-07-14T10:47:56Z</time>
      </trkpt>
      <trkpt lat="42.5945148245" lon="19.9960504286">
        <ele>1523.83</ele>
        <time>2019-07-14T10:48:25Z</time>
      </trkpt>
      <trkpt lat="42.5945020840" lon="19.9960914999">
        <ele>1523.83</ele>
        <time>2019-07-14T10:48:55Z</time>
      </trkpt>
      <trkpt lat="42.5945625175" lon="19.9960373528">
        <ele>1523.83</ele>
        <time>2019-07-14T10:49:26Z</time>
      </trkpt>
      <trkpt lat="42.5945321750" lon="19.9960016459">
        <ele>1523.83</ele>
        <time>2019-07-14T10:50:00Z</time>
      </trkpt>
      <trkpt lat="42.5944998208" lon="19.9959960300">
        <ele>1523.83</ele>
        <time>2019-07-14T10:50:26Z</time>
      </trkpt>
      <trkpt lat="42.5944882538" lon="19.9960430525">
        <ele>1523.83</ele>
        <time>2019-07-14T10:50:54Z</time>
      </trkpt>
      <trkpt lat="42.5944709033" lon="19.9960383587">
        <ele>1523.83</ele>
        <time>2019-07-14T10:51:29Z</time>
      </trkpt>
      <trkpt lat="42.5944950432" lon="19.9960756581">
        <ele>1523.83</ele>
        <time>2019-07-14T10:52:12Z</time>
      </trkpt>
      <trkpt lat="42.5944988150" lon="19.9960456509">
        <ele>1523.35</ele>
        <time>2019-07-14T10:52:40Z</time>
      </trkpt>
      <trkpt lat="42.5945043471" lon="19.9961158074">
        <ele>1524.79</ele>
        <time>2019-07-14T10:53:11Z</time>
      </trkpt>
      <trkpt lat="42.5945394672" lon="19.9961580522">
        <ele>1524.31</ele>
        <time>2019-07-14T10:53:37Z</time>
      </trkpt>
      <trkpt lat="42.5945873279" lon="19.9961644225">
        <ele>1524.31</ele>
        <time>2019-07-14T10:54:05Z</time>
      </trkpt>
      <trkpt lat="42.5946123898" lon="19.9961541127">
        <ele>1524.31</ele>
        <time>2019-07-14T10:54:32Z</time>
      </trkpt>
      <trkpt lat="42.5945707317" lon="19.9961272068">
        <ele>1523.83</ele>
        <time>2019-07-14T10:54:57Z</time>
      </trkpt>
      <trkpt lat="42.5944522955" lon="19.9960883986">
        <ele>1523.83</ele>
        <time>2019-07-14T10:55:27Z</time>
      </trkpt>
      <trkpt lat="42.5944736693" lon="19.9960677791">
        <ele>1523.83</ele>
        <time>2019-07-14T10:55:57Z</time>
      </trkpt>
      <trkpt lat="42.5944843143" lon="19.9961602315">
        <ele>1523.83</ele>
        <time>2019-07-14T10:56:25Z</time>
      </trkpt>
      <trkpt lat="42.5945429876" lon="19.9961530231">
        <ele>1523.83</ele>
        <time>2019-07-14T10:56:48Z</time>
      </trkpt>
      <trkpt lat="42.5945228711" lon="19.9961661827">
        <ele>1523.83</ele>
        <time>2019-07-14T10:57:13Z</time>
      </trkpt>
      <trkpt lat="42.5945439935" lon="19.9961230159">
        <ele>1523.83</ele>
        <time>2019-07-14T10:57:35Z</time>
      </trkpt>
      <trkpt lat="42.5944861583" lon="19.9960619118">
        <ele>1523.83</ele>
        <time>2019-07-14T10:58:14Z</time>
      </trkpt>
      <trkpt lat="42.5944922771" lon="19.9960572179">
        <ele>1523.83</ele>
        <time>2019-07-14T10:58:47Z</time>
      </trkpt>
      <trkpt lat="42.5945104659" lon="19.9960108660">
        <ele>1523.83</ele>
        <time>2019-07-14T10:59:15Z</time>
      </trkpt>
      <trkpt lat="42.5945092086" lon="19.9961188249">
        <ele>1523.83</ele>
        <time>2019-07-14T10:59:40Z</time>
      </trkpt>
      <trkpt lat="42.5945196021" lon="19.9961483292">
        <ele>1523.83</ele>
        <time>2019-07-14T10:59:58Z</time>
      </trkpt>
      <trkpt lat="42.5945267268" lon="19.9961212557">
        <ele>1524.31</ele>
        <time>2019-07-14T11:00:20Z</time>
      </trkpt>
      <trkpt lat="42.5944885053" lon="19.9961312301">
        <ele>1524.31</ele>
        <time>2019-07-14T11:00:40Z</time>
      </trkpt>
      <trkpt lat="42.5945384614" lon="19.9961228482">
        <ele>1524.31</ele>
        <time>2019-07-14T11:00:53Z</time>
      </trkpt>
      <trkpt lat="42.5945246313" lon="19.9960671924">
        <ele>1522.39</ele>
        <time>2019-07-14T11:00:59Z</time>
      </trkpt>
      <trkpt lat="42.5945003238" lon="19.9960119557">
        <ele>1521.42</ele>
        <time>2019-07-14T11:01:03Z</time>
      </trkpt>
      <trkpt lat="42.5945260562" lon="19.9959822837">
        <ele>1520.46</ele>
        <time>2019-07-14T11:01:15Z</time>
      </trkpt>
      <trkpt lat="42.5945529621" lon="19.9960034899">
        <ele>1520.46</ele>
        <time>2019-07-14T11:01:28Z</time>
      </trkpt>
      <trkpt lat="42.5945431553" lon="19.9958591536">
        <ele>1519.02</ele>
        <time>2019-07-14T11:01:35Z</time>
      </trkpt>
      <trkpt lat="42.5945369527" lon="19.9957418907">
        <ele>1518.06</ele>
        <time>2019-07-14T11:01:41Z</time>
      </trkpt>
      <trkpt lat="42.5945363659" lon="19.9956246279">
        <ele>1516.62</ele>
        <time>2019-07-14T11:01:47Z</time>
      </trkpt>
      <trkpt lat="42.5945506152" lon="19.9953986518">
        <ele>1514.21</ele>
        <time>2019-07-14T11:02:01Z</time>
      </trkpt>
      <trkpt lat="42.5946263038" lon="19.9952141661">
        <ele>1510.37</ele>
        <time>2019-07-14T11:02:14Z</time>
      </trkpt>
      <trkpt lat="42.5947266351" lon="19.9951311015">
        <ele>1507.48</ele>
        <time>2019-07-14T11:02:25Z</time>
      </trkpt>
      <trkpt lat="42.5947755016" lon="19.9950902816">
        <ele>1506.52</ele>
        <time>2019-07-14T11:02:33Z</time>
      </trkpt>
      <trkpt lat="42.5949065108" lon="19.9949669000">
        <ele>1502.68</ele>
        <time>2019-07-14T11:02:44Z</time>
      </trkpt>
      <trkpt lat="42.5950390287" lon="19.9948487990">
        <ele>1499.31</ele>
        <time>2019-07-14T11:02:56Z</time>
      </trkpt>
      <trkpt lat="42.5951101910" lon="19.9948333763">
        <ele>1497.39</ele>
        <time>2019-07-14T11:03:03Z</time>
      </trkpt>
      <trkpt lat="42.5952394400" lon="19.9948653951">
        <ele>1494.51</ele>
        <time>2019-07-14T11:03:14Z</time>
      </trkpt>
      <trkpt lat="42.5953826029" lon="19.9948420096">
        <ele>1492.10</ele>
        <time>2019-07-14T11:03:24Z</time>
      </trkpt>
      <trkpt lat="42.5953968521" lon="19.9948099907">
        <ele>1491.62</ele>
        <time>2019-07-14T11:03:26Z</time>
      </trkpt>
      <trkpt lat="42.5953913201" lon="19.9947026186">
        <ele>1489.22</ele>
        <time>2019-07-14T11:03:33Z</time>
      </trkpt>
      <trkpt lat="42.5953842793" lon="19.9946732819">
        <ele>1490.66</ele>
        <time>2019-07-14T11:03:35Z</time>
      </trkpt>
      <trkpt lat="42.5953420345" lon="19.9945482239">
        <ele>1486.82</ele>
        <time>2019-07-14T11:03:43Z</time>
      </trkpt>
      <trkpt lat="42.5953415316" lon="19.9945378304">
        <ele>1486.82</ele>
        <time>2019-07-14T11:03:44Z</time>
      </trkpt>
      <trkpt lat="42.5953330658" lon="19.9944946636">
        <ele>1486.82</ele>
        <time>2019-07-14T11:03:49Z</time>
      </trkpt>
      <trkpt lat="42.5953041483" lon="19.9944425281">
        <ele>1485.85</ele>
        <time>2019-07-14T11:04:00Z</time>
      </trkpt>
      <trkpt lat="42.5952630769" lon="19.9943359103">
        <ele>1484.41</ele>
        <time>2019-07-14T11:04:07Z</time>
      </trkpt>
      <trkpt lat="42.5951381028" lon="19.9941539392">
        <ele>1481.05</ele>
        <time>2019-07-14T11:04:21Z</time>
      </trkpt>
      <trkpt lat="42.5951095205" lon="19.9941123649">
        <ele>1480.09</ele>
        <time>2019-07-14T11:04:24Z</time>
      </trkpt>
      <trkpt lat="42.5951199979" lon="19.9940531887">
        <ele>1479.13</ele>
        <time>2019-07-14T11:04:28Z</time>
      </trkpt>
      <trkpt lat="42.5951924175" lon="19.9940324854">
        <ele>1477.68</ele>
        <time>2019-07-14T11:04:40Z</time>
      </trkpt>
      <trkpt lat="42.5953136198" lon="19.9939846247">
        <ele>1475.76</ele>
        <time>2019-07-14T11:04:51Z</time>
      </trkpt>
      <trkpt lat="42.5954944175" lon="19.9939407874">
        <ele>1473.36</ele>
        <time>2019-07-14T11:05:05Z</time>
      </trkpt>
      <trkpt lat="42.5956455432" lon="19.9938946869">
        <ele>1469.99</ele>
        <time>2019-07-14T11:05:17Z</time>
      </trkpt>
      <trkpt lat="42.5958787277" lon="19.9939118698">
        <ele>1467.59</ele>
        <time>2019-07-14T11:05:33Z</time>
      </trkpt>
      <trkpt lat="42.5960817374" lon="19.9940087646">
        <ele>1464.71</ele>
        <time>2019-07-14T11:05:48Z</time>
      </trkpt>
      <trkpt lat="42.5961694121" lon="19.9940422922">
        <ele>1462.78</ele>
        <time>2019-07-14T11:05:54Z</time>
      </trkpt>
      <trkpt lat="42.5962037779" lon="19.9938459881">
        <ele>1459.42</ele>
        <time>2019-07-14T11:06:06Z</time>
      </trkpt>
      <trkpt lat="42.5962021854" lon="19.9938089401">
        <ele>1458.94</ele>
        <time>2019-07-14T11:06:08Z</time>
      </trkpt>
      <trkpt lat="42.5961654726" lon="19.9935766775">
        <ele>1455.09</ele>
        <time>2019-07-14T11:06:22Z</time>
      </trkpt>
      <trkpt lat="42.5960951485" lon="19.9934030045">
        <ele>1451.73</ele>
        <time>2019-07-14T11:06:32Z</time>
      </trkpt>
      <trkpt lat="42.5959962420" lon="19.9932538066">
        <ele>1448.36</ele>
        <time>2019-07-14T11:06:42Z</time>
      </trkpt>
      <trkpt lat="42.5959603675" lon="19.9932204466">
        <ele>1447.40</ele>
        <time>2019-07-14T11:06:45Z</time>
      </trkpt>
      <trkpt lat="42.5959581044" lon="19.9931339454">
        <ele>1445.48</ele>
        <time>2019-07-14T11:06:50Z</time>
      </trkpt>
      <trkpt lat="42.5960045401" lon="19.9931139965">
        <ele>1445.00</ele>
        <time>2019-07-14T11:06:54Z</time>
      </trkpt>
      <trkpt lat="42.5962160155" lon="19.9930556584">
        <ele>1442.11</ele>
        <time>2019-07-14T11:07:09Z</time>
      </trkpt>
      <trkpt lat="42.5962559134" lon="19.9930447619">
        <ele>1441.15</ele>
        <time>2019-07-14T11:07:12Z</time>
      </trkpt>
      <trkpt lat="42.5963081326" lon="19.9930398166">
        <ele>1440.19</ele>
        <time>2019-07-14T11:07:25Z</time>
      </trkpt>
      <trkpt lat="42.5964272395" lon="19.9930534791">
        <ele>1438.27</ele>
        <time>2019-07-14T11:07:36Z</time>
      </trkpt>
      <trkpt lat="42.5965872500" lon="19.9931032676">
        <ele>1434.42</ele>
        <time>2019-07-14T11:07:45Z</time>
      </trkpt>
      <trkpt lat="42.5966510363" lon="19.9931771960">
        <ele>1432.98</ele>
        <time>2019-07-14T11:07:50Z</time>
      </trkpt>
      <trkpt lat="42.5967733283" lon="19.9933382124">
        <ele>1430.58</ele>
        <time>2019-07-14T11:08:02Z</time>
      </trkpt>
      <trkpt lat="42.5967993122" lon="19.9933330994">
        <ele>1430.10</ele>
        <time>2019-07-14T11:08:04Z</time>
      </trkpt>
      <trkpt lat="42.5968401320" lon="19.9932722468">
        <ele>1428.66</ele>
        <time>2019-07-14T11:08:09Z</time>
      </trkpt>
      <trkpt lat="42.5968577340" lon="19.9931427464">
        <ele>1427.21</ele>
        <time>2019-07-14T11:08:16Z</time>
      </trkpt>
      <trkpt lat="42.5968406349" lon="19.9931067880">
        <ele>1425.77</ele>
        <time>2019-07-14T11:08:18Z</time>
      </trkpt>
      <trkpt lat="42.5968327560" lon="19.9930155091">
        <ele>1424.33</ele>
        <time>2019-07-14T11:08:22Z</time>
      </trkpt>
      <trkpt lat="42.5968043413" lon="19.9929269962">
        <ele>1423.37</ele>
        <time>2019-07-14T11:08:27Z</time>
      </trkpt>
      <trkpt lat="42.5967847276" lon="19.9927983340">
        <ele>1422.41</ele>
        <time>2019-07-14T11:08:34Z</time>
      </trkpt>
      <trkpt lat="42.5967684668" lon="19.9926817417">
        <ele>1420.49</ele>
        <time>2019-07-14T11:08:40Z</time>
      </trkpt>
      <trkpt lat="42.5967470929" lon="19.9925992638">
        <ele>1419.04</ele>
        <time>2019-07-14T11:08:44Z</time>
      </trkpt>
      <trkpt lat="42.5967451651" lon="19.9925291911">
        <ele>1418.56</ele>
        <time>2019-07-14T11:08:48Z</time>
      </trkpt>
      <trkpt lat="42.5968957879" lon="19.9925195519">
        <ele>1415.68</ele>
        <time>2019-07-14T11:09:00Z</time>
      </trkpt>
      <trkpt lat="42.5969646871" lon="19.9925302807">
        <ele>1414.72</ele>
        <time>2019-07-14T11:09:05Z</time>
      </trkpt>
      <trkpt lat="42.5971072633" lon="19.9925492238">
        <ele>1411.83</ele>
        <time>2019-07-14T11:09:16Z</time>
      </trkpt>
      <trkpt lat="42.5971666910" lon="19.9923332222">
        <ele>1408.47</ele>
        <time>2019-07-14T11:09:27Z</time>
      </trkpt>
      <trkpt lat="42.5972009730" lon="19.9921832699">
        <ele>1406.07</ele>
        <time>2019-07-14T11:09:35Z</time>
      </trkpt>
      <trkpt lat="42.5972823612" lon="19.9921712838">
        <ele>1405.10</ele>
        <time>2019-07-14T11:09:39Z</time>
      </trkpt>
      <trkpt lat="42.5973283779" lon="19.9921723735">
        <ele>1403.66</ele>
        <time>2019-07-14T11:09:43Z</time>
      </trkpt>
      <trkpt lat="42.5973521825" lon="19.9921507481">
        <ele>1402.70</ele>
        <time>2019-07-14T11:09:45Z</time>
      </trkpt>
      <trkpt lat="42.5973637495" lon="19.9921176396">
        <ele>1402.22</ele>
        <time>2019-07-14T11:09:47Z</time>
      </trkpt>
      <trkpt lat="42.5973459799" lon="19.9920416996">
        <ele>1400.78</ele>
        <time>2019-07-14T11:09:52Z</time>
      </trkpt>
      <trkpt lat="42.5971691217" lon="19.9918697029">
        <ele>1398.37</ele>
        <time>2019-07-14T11:10:06Z</time>
      </trkpt>
      <trkpt lat="42.5970231090" lon="19.9917966966">
        <ele>1396.93</ele>
        <time>2019-07-14T11:10:16Z</time>
      </trkpt>
      <trkpt lat="42.5968783535" lon="19.9917258695">
        <ele>1395.01</ele>
        <time>2019-07-14T11:10:26Z</time>
      </trkpt>
      <trkpt lat="42.5966942869" lon="19.9916681182">
        <ele>1392.61</ele>
        <time>2019-07-14T11:10:37Z</time>
      </trkpt>
      <trkpt lat="42.5965201948" lon="19.9916368537">
        <ele>1391.17</ele>
        <time>2019-07-14T11:10:48Z</time>
      </trkpt>
      <trkpt lat="42.5963574182" lon="19.9916246999">
        <ele>1390.20</ele>
        <time>2019-07-14T11:10:59Z</time>
      </trkpt>
      <trkpt lat="42.5962309353" lon="19.9915770069">
        <ele>1388.76</ele>
        <time>2019-07-14T11:11:11Z</time>
      </trkpt>
      <trkpt lat="42.5962256547" lon="19.9915351812">
        <ele>1387.80</ele>
        <time>2019-07-14T11:11:14Z</time>
      </trkpt>
      <trkpt lat="42.5962917041" lon="19.9914317485">
        <ele>1386.36</ele>
        <time>2019-07-14T11:11:21Z</time>
      </trkpt>
      <trkpt lat="42.5964377169" lon="19.9913427327">
        <ele>1383.96</ele>
        <time>2019-07-14T11:11:35Z</time>
      </trkpt>
      <trkpt lat="42.5965777785" lon="19.9913019128">
        <ele>1381.55</ele>
        <time>2019-07-14T11:11:47Z</time>
      </trkpt>
      <trkpt lat="42.5967517029" lon="19.9912524596">
        <ele>1379.15</ele>
        <time>2019-07-14T11:12:01Z</time>
      </trkpt>
      <trkpt lat="42.5968313310" lon="19.9912135676">
        <ele>1377.71</ele>
        <time>2019-07-14T11:12:08Z</time>
      </trkpt>
      <trkpt lat="42.5969125517" lon="19.9911899306">
        <ele>1376.75</ele>
        <time>2019-07-14T11:12:14Z</time>
      </trkpt>
      <trkpt lat="42.5971569680" lon="19.9910906050">
        <ele>1373.86</ele>
        <time>2019-07-14T11:12:29Z</time>
      </trkpt>
      <trkpt lat="42.5972305611" lon="19.9910832290">
        <ele>1373.38</ele>
        <time>2019-07-14T11:12:34Z</time>
      </trkpt>
      <trkpt lat="42.5972586405" lon="19.9910794571">
        <ele>1372.90</ele>
        <time>2019-07-14T11:12:36Z</time>
      </trkpt>
      <trkpt lat="42.5974271167" lon="19.9910308421">
        <ele>1371.46</ele>
        <time>2019-07-14T11:12:49Z</time>
      </trkpt>
      <trkpt lat="42.5974438805" lon="19.9910136592">
        <ele>1370.98</ele>
        <time>2019-07-14T11:12:51Z</time>
      </trkpt>
      <trkpt lat="42.5976139493" lon="19.9909159262">
        <ele>1367.61</ele>
        <time>2019-07-14T11:13:04Z</time>
      </trkpt>
      <trkpt lat="42.5977836829" lon="19.9908138346">
        <ele>1365.21</ele>
        <time>2019-07-14T11:13:16Z</time>
      </trkpt>
      <trkpt lat="42.5977975968" lon="19.9908076320">
        <ele>1364.73</ele>
        <time>2019-07-14T11:13:17Z</time>
      </trkpt>
      <trkpt lat="42.5978710223" lon="19.9907648005">
        <ele>1363.77</ele>
        <time>2019-07-14T11:13:22Z</time>
      </trkpt>
      <trkpt lat="42.5978844333" lon="19.9907575920">
        <ele>1363.29</ele>
        <time>2019-07-14T11:13:23Z</time>
      </trkpt>
      <trkpt lat="42.5979443640" lon="19.9906788860">
        <ele>1361.84</ele>
        <time>2019-07-14T11:13:29Z</time>
      </trkpt>
      <trkpt lat="42.5979792327" lon="19.9906603619">
        <ele>1360.40</ele>
        <time>2019-07-14T11:13:32Z</time>
      </trkpt>
      <trkpt lat="42.5980002712" lon="19.9905510619">
        <ele>1358.48</ele>
        <time>2019-07-14T11:13:44Z</time>
      </trkpt>
      <trkpt lat="42.5978841819" lon="19.9904719368">
        <ele>1355.60</ele>
        <time>2019-07-14T11:13:53Z</time>
      </trkpt>
      <trkpt lat="42.5977825932" lon="19.9904267583">
        <ele>1352.71</ele>
        <time>2019-07-14T11:14:01Z</time>
      </trkpt>
      <trkpt lat="42.5976810884" lon="19.9904218968">
        <ele>1351.27</ele>
        <time>2019-07-14T11:14:07Z</time>
      </trkpt>
      <trkpt lat="42.5974502508" lon="19.9904068932">
        <ele>1348.39</ele>
        <time>2019-07-14T11:14:21Z</time>
      </trkpt>
      <trkpt lat="42.5973423757" lon="19.9903776404">
        <ele>1345.98</ele>
        <time>2019-07-14T11:14:31Z</time>
      </trkpt>
      <trkpt lat="42.5971747376" lon="19.9903105013">
        <ele>1343.58</ele>
        <time>2019-07-14T11:14:42Z</time>
      </trkpt>
      <trkpt lat="42.5970656052" lon="19.9903003592">
        <ele>1341.66</ele>
        <time>2019-07-14T11:14:49Z</time>
      </trkpt>
      <trkpt lat="42.5969290640" lon="19.9902405962">
        <ele>1337.81</ele>
        <time>2019-07-14T11:15:00Z</time>
      </trkpt>
      <trkpt lat="42.5968096219" lon="19.9901123531">
        <ele>1334.45</ele>
        <time>2019-07-14T11:15:12Z</time>
      </trkpt>
      <trkpt lat="42.5966542214" lon="19.9899929948">
        <ele>1331.08</ele>
        <time>2019-07-14T11:15:25Z</time>
      </trkpt>
      <trkpt lat="42.5966420677" lon="19.9899896421">
        <ele>1330.60</ele>
        <time>2019-07-14T11:15:26Z</time>
      </trkpt>
      <trkpt lat="42.5965670496" lon="19.9899672624">
        <ele>1329.16</ele>
        <time>2019-07-14T11:15:31Z</time>
      </trkpt>
      <trkpt lat="42.5964886788" lon="19.9899170548">
        <ele>1328.20</ele>
        <time>2019-07-14T11:15:36Z</time>
      </trkpt>
      <trkpt lat="42.5963282492" lon="19.9898024742">
        <ele>1325.31</ele>
        <time>2019-07-14T11:15:48Z</time>
      </trkpt>
      <trkpt lat="42.5961401593" lon="19.9898037314">
        <ele>1322.91</ele>
        <time>2019-07-14T11:16:00Z</time>
      </trkpt>
      <trkpt lat="42.5960228965" lon="19.9897771608">
        <ele>1320.99</ele>
        <time>2019-07-14T11:16:07Z</time>
      </trkpt>
      <trkpt lat="42.5958674122" lon="19.9896608200">
        <ele>1318.59</ele>
        <time>2019-07-14T11:16:17Z</time>
      </trkpt>
      <trkpt lat="42.5958244968" lon="19.9896443915">
        <ele>1318.10</ele>
        <time>2019-07-14T11:16:20Z</time>
      </trkpt>
      <trkpt lat="42.5956155360" lon="19.9894648511">
        <ele>1314.74</ele>
        <time>2019-07-14T11:16:34Z</time>
      </trkpt>
      <trkpt lat="42.5955735426" lon="19.9893459957">
        <ele>1313.78</ele>
        <time>2019-07-14T11:16:40Z</time>
      </trkpt>
      <trkpt lat="42.5956310425" lon="19.9892287329">
        <ele>1311.86</ele>
        <time>2019-07-14T11:16:47Z</time>
      </trkpt>
      <trkpt lat="42.5957630575" lon="19.9890906829">
        <ele>1308.49</ele>
        <time>2019-07-14T11:17:00Z</time>
      </trkpt>
      <trkpt lat="42.5955753867" lon="19.9890063610">
        <ele>1305.13</ele>
        <time>2019-07-14T11:17:13Z</time>
      </trkpt>
      <trkpt lat="42.5955359917" lon="19.9890205264">
        <ele>1304.17</ele>
        <time>2019-07-14T11:17:17Z</time>
      </trkpt>
      <trkpt lat="42.5953743886" lon="19.9889952969">
        <ele>1302.24</ele>
        <time>2019-07-14T11:17:29Z</time>
      </trkpt>
      <trkpt lat="42.5952781644" lon="19.9890368711">
        <ele>1301.28</ele>
        <time>2019-07-14T11:17:35Z</time>
      </trkpt>
      <trkpt lat="42.5951893162" lon="19.9890889227">
        <ele>1300.80</ele>
        <time>2019-07-14T11:17:41Z</time>
      </trkpt>
      <trkpt lat="42.5949442293" lon="19.9891070276">
        <ele>1297.44</ele>
        <time>2019-07-14T11:17:55Z</time>
      </trkpt>
      <trkpt lat="42.5949160662" lon="19.9891112186">
        <ele>1297.44</ele>
        <time>2019-07-14T11:17:56Z</time>
      </trkpt>
      <trkpt lat="42.5948545430" lon="19.9891206063">
        <ele>1296.96</ele>
        <time>2019-07-14T11:17:59Z</time>
      </trkpt>
      <trkpt lat="42.5946487673" lon="19.9891492724">
        <ele>1295.03</ele>
        <time>2019-07-14T11:18:14Z</time>
      </trkpt>
      <trkpt lat="42.5945050176" lon="19.9891234562">
        <ele>1293.59</ele>
        <time>2019-07-14T11:18:27Z</time>
      </trkpt>
      <trkpt lat="42.5944424048" lon="19.9890891742">
        <ele>1292.63</ele>
        <time>2019-07-14T11:18:31Z</time>
      </trkpt>
      <trkpt lat="42.5942279957" lon="19.9889957998">
        <ele>1290.71</ele>
        <time>2019-07-14T11:18:47Z</time>
      </trkpt>
      <trkpt lat="42.5941289216" lon="19.9889397249">
        <ele>1289.75</ele>
        <time>2019-07-14T11:18:55Z</time>
      </trkpt>
      <trkpt lat="42.5940544065" lon="19.9888668861">
        <ele>1289.27</ele>
        <time>2019-07-14T11:19:01Z</time>
      </trkpt>
      <trkpt lat="42.5939545780" lon="19.9886618648">
        <ele>1288.30</ele>
        <time>2019-07-14T11:19:14Z</time>
      </trkpt>
      <trkpt lat="42.5939416699" lon="19.9886197038">
        <ele>1288.30</ele>
        <time>2019-07-14T11:19:17Z</time>
      </trkpt>
      <trkpt lat="42.5939327013" lon="19.9885501340">
        <ele>1287.82</ele>
        <time>2019-07-14T11:19:21Z</time>
      </trkpt>
      <trkpt lat="42.5937190466" lon="19.9883455317">
        <ele>1285.42</ele>
        <time>2019-07-14T11:19:39Z</time>
      </trkpt>
      <trkpt lat="42.5935202278" lon="19.9882831704">
        <ele>1283.02</ele>
        <time>2019-07-14T11:19:52Z</time>
      </trkpt>
      <trkpt lat="42.5934306253" lon="19.9882348906">
        <ele>1281.57</ele>
        <time>2019-07-14T11:19:59Z</time>
      </trkpt>
      <trkpt lat="42.5934248418" lon="19.9881707691">
        <ele>1280.13</ele>
        <time>2019-07-14T11:20:04Z</time>
      </trkpt>
      <trkpt lat="42.5934417732" lon="19.9881632254">
        <ele>1279.17</ele>
        <time>2019-07-14T11:20:06Z</time>
      </trkpt>
      <trkpt lat="42.5935903843" lon="19.9881759658">
        <ele>1277.73</ele>
        <time>2019-07-14T11:20:16Z</time>
      </trkpt>
      <trkpt lat="42.5937134307" lon="19.9881286081">
        <ele>1275.81</ele>
        <time>2019-07-14T11:20:25Z</time>
      </trkpt>
      <trkpt lat="42.5937835034" lon="19.9881030433">
        <ele>1274.85</ele>
        <time>2019-07-14T11:20:30Z</time>
      </trkpt>
      <trkpt lat="42.5939909555" lon="19.9881457910">
        <ele>1271.00</ele>
        <time>2019-07-14T11:20:44Z</time>
      </trkpt>
      <trkpt lat="42.5941177737" lon="19.9882047158">
        <ele>1269.08</ele>
        <time>2019-07-14T11:20:53Z</time>
      </trkpt>
      <trkpt lat="42.5941600185" lon="19.9882366508">
        <ele>1268.60</ele>
        <time>2019-07-14T11:20:56Z</time>
      </trkpt>
      <trkpt lat="42.5942726713" lon="19.9882612098">
        <ele>1266.67</ele>
        <time>2019-07-14T11:21:04Z</time>
      </trkpt>
      <trkpt lat="42.5943416543" lon="19.9882693402">
        <ele>1264.75</ele>
        <time>2019-07-14T11:21:09Z</time>
      </trkpt>
      <trkpt lat="42.5944041833" lon="19.9882537499">
        <ele>1264.27</ele>
        <time>2019-07-14T11:21:13Z</time>
      </trkpt>
      <trkpt lat="42.5944625214" lon="19.9882083200">
        <ele>1261.87</ele>
        <time>2019-07-14T11:21:18Z</time>
      </trkpt>
      <trkpt lat="42.5944670476" lon="19.9881827552">
        <ele>1261.39</ele>
        <time>2019-07-14T11:21:20Z</time>
      </trkpt>
      <trkpt lat="42.5945325941" lon="19.9881322123">
        <ele>1260.43</ele>
        <time>2019-07-14T11:21:24Z</time>
      </trkpt>
      <trkpt lat="42.5947055127" lon="19.9880145304">
        <ele>1257.54</ele>
        <time>2019-07-14T11:21:37Z</time>
      </trkpt>
      <trkpt lat="42.5947937742" lon="19.9879732076">
        <ele>1256.58</ele>
        <time>2019-07-14T11:21:44Z</time>
      </trkpt>
      <trkpt lat="42.5949452352" lon="19.9878675118">
        <ele>1255.14</ele>
        <time>2019-07-14T11:21:56Z</time>
      </trkpt>
      <trkpt lat="42.5949655194" lon="19.9878424499">
        <ele>1254.66</ele>
        <time>2019-07-14T11:21:58Z</time>
      </trkpt>
      <trkpt lat="42.5951540284" lon="19.9877267797">
        <ele>1250.81</ele>
        <time>2019-07-14T11:22:12Z</time>
      </trkpt>
      <trkpt lat="42.5953065790" lon="19.9876352493">
        <ele>1247.93</ele>
        <time>2019-07-14T11:22:24Z</time>
      </trkpt>
      <trkpt lat="42.5953432918" lon="19.9876211677">
        <ele>1246.97</ele>
        <time>2019-07-14T11:22:27Z</time>
      </trkpt>
      <trkpt lat="42.5953770708" lon="19.9875830300">
        <ele>1246.01</ele>
        <time>2019-07-14T11:22:30Z</time>
      </trkpt>
      <trkpt lat="42.5952653401" lon="19.9874946848">
        <ele>1242.64</ele>
        <time>2019-07-14T11:22:41Z</time>
      </trkpt>
      <trkpt lat="42.5952021405" lon="19.9874407053">
        <ele>1241.20</ele>
        <time>2019-07-14T11:22:46Z</time>
      </trkpt>
      <trkpt lat="42.5951555371" lon="19.9874205049">
        <ele>1240.24</ele>
        <time>2019-07-14T11:22:50Z</time>
      </trkpt>
      <trkpt lat="42.5950547867" lon="19.9873971194">
        <ele>1238.32</ele>
        <time>2019-07-14T11:22:57Z</time>
      </trkpt>
      <trkpt lat="42.5950099435" lon="19.9873904977">
        <ele>1237.35</ele>
        <time>2019-07-14T11:23:00Z</time>
      </trkpt>
      <trkpt lat="42.5949642621" lon="19.9873801880">
        <ele>1236.87</ele>
        <time>2019-07-14T11:23:03Z</time>
      </trkpt>
      <trkpt lat="42.5948944408" lon="19.9873642623">
        <ele>1235.91</ele>
        <time>2019-07-14T11:23:08Z</time>
      </trkpt>
      <trkpt lat="42.5946881622" lon="19.9872520287">
        <ele>1233.51</ele>
        <time>2019-07-14T11:23:22Z</time>
      </trkpt>
      <trkpt lat="42.5945035927" lon="19.9871998094">
        <ele>1230.62</ele>
        <time>2019-07-14T11:23:35Z</time>
      </trkpt>
      <trkpt lat="42.5944896787" lon="19.9871916790">
        <ele>1230.62</ele>
        <time>2019-07-14T11:23:36Z</time>
      </trkpt>
      <trkpt lat="42.5944435783" lon="19.9871592410">
        <ele>1229.66</ele>
        <time>2019-07-14T11:23:41Z</time>
      </trkpt>
      <trkpt lat="42.5943104737" lon="19.9870932754">
        <ele>1227.74</ele>
        <time>2019-07-14T11:23:50Z</time>
      </trkpt>
      <trkpt lat="42.5942729227" lon="19.9870560598">
        <ele>1227.26</ele>
        <time>2019-07-14T11:24:03Z</time>
      </trkpt>
      <trkpt lat="42.5942923687" lon="19.9870540481">
        <ele>1227.26</ele>
        <time>2019-07-14T11:24:20Z</time>
      </trkpt>
      <trkpt lat="42.5942953024" lon="19.9871071056">
        <ele>1226.78</ele>
        <time>2019-07-14T11:24:48Z</time>
      </trkpt>
      <trkpt lat="42.5943158381" lon="19.9870968796">
        <ele>1226.78</ele>
        <time>2019-07-14T11:25:10Z</time>
      </trkpt>
      <trkpt lat="42.5944436621" lon="19.9870549701">
        <ele>1224.86</ele>
        <time>2019-07-14T11:25:21Z</time>
      </trkpt>
      <trkpt lat="42.5946484320" lon="19.9870585743">
        <ele>1222.93</ele>
        <time>2019-07-14T11:25:36Z</time>
      </trkpt>
      <trkpt lat="42.5948282238" lon="19.9870473426">
        <ele>1221.97</ele>
        <time>2019-07-14T11:25:49Z</time>
      </trkpt>
      <trkpt lat="42.5949932635" lon="19.9870420620">
        <ele>1221.49</ele>
        <time>2019-07-14T11:26:02Z</time>
      </trkpt>
      <trkpt lat="42.5952052418" lon="19.9870264716">
        <ele>1221.01</ele>
        <time>2019-07-14T11:26:17Z</time>
      </trkpt>
      <trkpt lat="42.5953658391" lon="19.9869890045">
        <ele>1221.01</ele>
        <time>2019-07-14T11:26:29Z</time>
      </trkpt>
      <trkpt lat="42.5954795815" lon="19.9869772699">
        <ele>1220.53</ele>
        <time>2019-07-14T11:26:38Z</time>
      </trkpt>
      <trkpt lat="42.5955311302" lon="19.9869764317">
        <ele>1220.53</ele>
        <time>2019-07-14T11:26:42Z</time>
      </trkpt>
      <trkpt lat="42.5955723692" lon="19.9869604222">
        <ele>1220.53</ele>
        <time>2019-07-14T11:26:45Z</time>
      </trkpt>
      <trkpt lat="42.5956601277" lon="19.9869683851">
        <ele>1220.05</ele>
        <time>2019-07-14T11:26:51Z</time>
      </trkpt>
      <trkpt lat="42.5956872851" lon="19.9869750906">
        <ele>1220.05</ele>
        <time>2019-07-14T11:26:53Z</time>
      </trkpt>
      <trkpt lat="42.5957593694" lon="19.9869708158">
        <ele>1220.05</ele>
        <time>2019-07-14T11:26:58Z</time>
      </trkpt>
      <trkpt lat="42.5957950763" lon="19.9869490229">
        <ele>1220.05</ele>
        <time>2019-07-14T11:27:01Z</time>
      </trkpt>
      <trkpt lat="42.5959740300" lon="19.9869357795">
        <ele>1219.57</ele>
        <time>2019-07-14T11:27:15Z</time>
      </trkpt>
      <trkpt lat="42.5961684063" lon="19.9869038444">
        <ele>1218.61</ele>
        <time>2019-07-14T11:27:29Z</time>
      </trkpt>
      <trkpt lat="42.5963682309" lon="19.9868854880">
        <ele>1217.65</ele>
        <time>2019-07-14T11:27:43Z</time>
      </trkpt>
      <trkpt lat="42.5963834021" lon="19.9868750107">
        <ele>1217.65</ele>
        <time>2019-07-14T11:27:44Z</time>
      </trkpt>
      <trkpt lat="42.5964651257" lon="19.9867585022">
        <ele>1216.21</ele>
        <time>2019-07-14T11:27:53Z</time>
      </trkpt>
      <trkpt lat="42.5965491123" lon="19.9866978172">
        <ele>1214.76</ele>
        <time>2019-07-14T11:27:59Z</time>
      </trkpt>
      <trkpt lat="42.5967802852" lon="19.9866279121">
        <ele>1211.88</ele>
        <time>2019-07-14T11:28:15Z</time>
      </trkpt>
      <trkpt lat="42.5968468376" lon="19.9866259005">
        <ele>1210.92</ele>
        <time>2019-07-14T11:28:19Z</time>
      </trkpt>
      <trkpt lat="42.5969659444" lon="19.9865704123">
        <ele>1208.51</ele>
        <time>2019-07-14T11:28:27Z</time>
      </trkpt>
      <trkpt lat="42.5971098617" lon="19.9864755291">
        <ele>1206.11</ele>
        <time>2019-07-14T11:28:38Z</time>
      </trkpt>
      <trkpt lat="42.5972548686" lon="19.9863255769">
        <ele>1202.27</ele>
        <time>2019-07-14T11:28:50Z</time>
      </trkpt>
      <trkpt lat="42.5973311439" lon="19.9862600304">
        <ele>1200.82</ele>
        <time>2019-07-14T11:28:55Z</time>
      </trkpt>
      <trkpt lat="42.5975002907" lon="19.9861876946">
        <ele>1196.98</ele>
        <time>2019-07-14T11:29:06Z</time>
      </trkpt>
      <trkpt lat="42.5976134464" lon="19.9861565977">
        <ele>1194.09</ele>
        <time>2019-07-14T11:29:19Z</time>
      </trkpt>
      <trkpt lat="42.5976349879" lon="19.9861587770">
        <ele>1193.61</ele>
        <time>2019-07-14T11:29:37Z</time>
      </trkpt>
      <trkpt lat="42.5976741314" lon="19.9861318711">
        <ele>1193.13</ele>
        <time>2019-07-14T11:29:40Z</time>
      </trkpt>
      <trkpt lat="42.5977587886" lon="19.9861047976">
        <ele>1191.21</ele>
        <time>2019-07-14T11:29:46Z</time>
      </trkpt>
      <trkpt lat="42.5979537517" lon="19.9860719405">
        <ele>1187.37</ele>
        <time>2019-07-14T11:30:01Z</time>
      </trkpt>
      <trkpt lat="42.5981745310" lon="19.9860156141">
        <ele>1184.48</ele>
        <time>2019-07-14T11:30:16Z</time>
      </trkpt>
      <trkpt lat="42.5983663928" lon="19.9859834276">
        <ele>1182.56</ele>
        <time>2019-07-14T11:30:30Z</time>
      </trkpt>
      <trkpt lat="42.5983554963" lon="19.9859604612">
        <ele>1182.08</ele>
        <time>2019-07-14T11:30:45Z</time>
      </trkpt>
      <trkpt lat="42.5983642973" lon="19.9859732017">
        <ele>1182.08</ele>
        <time>2019-07-14T11:31:07Z</time>
      </trkpt>
      <trkpt lat="42.5983298477" lon="19.9859671667">
        <ele>1182.08</ele>
        <time>2019-07-14T11:31:19Z</time>
      </trkpt>
      <trkpt lat="42.5983243994" lon="19.9859607127">
        <ele>1181.12</ele>
        <time>2019-07-14T11:31:37Z</time>
      </trkpt>
      <trkpt lat="42.5983080547" lon="19.9859736208">
        <ele>1181.12</ele>
        <time>2019-07-14T11:31:56Z</time>
      </trkpt>
      <trkpt lat="42.5983169395" lon="19.9859516602">
        <ele>1180.64</ele>
        <time>2019-07-14T11:32:16Z</time>
      </trkpt>
      <trkpt lat="42.5983136706" lon="19.9859521631">
        <ele>1182.56</ele>
        <time>2019-07-14T11:32:21Z</time>
      </trkpt>
      <trkpt lat="42.5983166043" lon="19.9859399255">
        <ele>1182.56</ele>
        <time>2019-07-14T11:32:36Z</time>
      </trkpt>
      <trkpt lat="42.5982989185" lon="19.9859421887">
        <ele>1182.56</ele>
        <time>2019-07-14T11:32:49Z</time>
      </trkpt>
      <trkpt lat="42.5982480403" lon="19.9859449547">
        <ele>1182.56</ele>
        <time>2019-07-14T11:32:54Z</time>
      </trkpt>
      <trkpt lat="42.5981107447" lon="19.9859662447">
        <ele>1184.00</ele>
        <time>2019-07-14T11:33:07Z</time>
      </trkpt>
      <trkpt lat="42.5980787259" lon="19.9859815836">
        <ele>1184.00</ele>
        <time>2019-07-14T11:33:11Z</time>
      </trkpt>
      <trkpt lat="42.5980174541" lon="19.9860057235">
        <ele>1185.44</ele>
        <time>2019-07-14T11:33:17Z</time>
      </trkpt>
      <trkpt lat="42.5979785621" lon="19.9860183802">
        <ele>1185.92</ele>
        <time>2019-07-14T11:33:21Z</time>
      </trkpt>
      <trkpt lat="42.5978525821" lon="19.9860505667">
        <ele>1187.37</ele>
        <time>2019-07-14T11:33:34Z</time>
      </trkpt>
      <trkpt lat="42.5978317950" lon="19.9860499799">
        <ele>1187.85</ele>
        <time>2019-07-14T11:33:36Z</time>
      </trkpt>
      <trkpt lat="42.5977815874" lon="19.9860358145">
        <ele>1188.33</ele>
        <time>2019-07-14T11:33:41Z</time>
      </trkpt>
      <trkpt lat="42.5977437850" lon="19.9860172905">
        <ele>1189.77</ele>
        <time>2019-07-14T11:33:45Z</time>
      </trkpt>
      <trkpt lat="42.5977029651" lon="19.9860296119">
        <ele>1189.77</ele>
        <time>2019-07-14T11:33:48Z</time>
      </trkpt>
      <trkpt lat="42.5976052321" lon="19.9860736169">
        <ele>1191.69</ele>
        <time>2019-07-14T11:33:57Z</time>
      </trkpt>
      <trkpt lat="42.5975051522" lon="19.9861293565">
        <ele>1193.61</ele>
        <time>2019-07-14T11:34:09Z</time>
      </trkpt>
      <trkpt lat="42.5974002108" lon="19.9861817434">
        <ele>1195.54</ele>
        <time>2019-07-14T11:34:20Z</time>
      </trkpt>
      <trkpt lat="42.5973269530" lon="19.9862381537">
        <ele>1197.46</ele>
        <time>2019-07-14T11:34:30Z</time>
      </trkpt>
      <trkpt lat="42.5972484984" lon="19.9863040354">
        <ele>1199.38</ele>
        <time>2019-07-14T11:34:41Z</time>
      </trkpt>
      <trkpt lat="42.5971965306" lon="19.9863890279">
        <ele>1201.30</ele>
        <time>2019-07-14T11:34:52Z</time>
      </trkpt>
      <trkpt lat="42.5971881486" lon="19.9863902014">
        <ele>1201.79</ele>
        <time>2019-07-14T11:34:53Z</time>
      </trkpt>
      <trkpt lat="42.5970912538" lon="19.9864566699">
        <ele>1203.23</ele>
        <time>2019-07-14T11:35:03Z</time>
      </trkpt>
      <trkpt lat="42.5969808642" lon="19.9864898622">
        <ele>1205.15</ele>
        <time>2019-07-14T11:35:15Z</time>
      </trkpt>
      <trkpt lat="42.5968579855" lon="19.9865298439">
        <ele>1207.55</ele>
        <time>2019-07-14T11:35:26Z</time>
      </trkpt>
      <trkpt lat="42.5968190935" lon="19.9865466077">
        <ele>1208.03</ele>
        <time>2019-07-14T11:35:30Z</time>
      </trkpt>
      <trkpt lat="42.5966888387" lon="19.9865798838">
        <ele>1209.48</ele>
        <time>2019-07-14T11:35:43Z</time>
      </trkpt>
      <trkpt lat="42.5966783613" lon="19.9865863379">
        <ele>1209.96</ele>
        <time>2019-07-14T11:35:44Z</time>
      </trkpt>
      <trkpt lat="42.5966248009" lon="19.9865974020">
        <ele>1210.44</ele>
        <time>2019-07-14T11:35:50Z</time>
      </trkpt>
      <trkpt lat="42.5965175126" lon="19.9867072888">
        <ele>1212.36</ele>
        <time>2019-07-14T11:36:02Z</time>
      </trkpt>
      <trkpt lat="42.5964170974" lon="19.9868111406">
        <ele>1213.80</ele>
        <time>2019-07-14T11:36:14Z</time>
      </trkpt>
      <trkpt lat="42.5964084640" lon="19.9868164212">
        <ele>1214.28</ele>
        <time>2019-07-14T11:36:15Z</time>
      </trkpt>
      <trkpt lat="42.5962681510" lon="19.9868574087">
        <ele>1214.76</ele>
        <time>2019-07-14T11:36:26Z</time>
      </trkpt>
      <trkpt lat="42.5962178595" lon="19.9868193548">
        <ele>1214.76</ele>
        <time>2019-07-14T11:36:39Z</time>
      </trkpt>
      <trkpt lat="42.5961161032" lon="19.9868614320">
        <ele>1214.76</ele>
        <time>2019-07-14T11:36:55Z</time>
      </trkpt>
      <trkpt lat="42.5960839167" lon="19.9868833926">
        <ele>1214.76</ele>
        <time>2019-07-14T11:36:58Z</time>
      </trkpt>
      <trkpt lat="42.5959503930" lon="19.9868755136">
        <ele>1215.24</ele>
        <time>2019-07-14T11:37:10Z</time>
      </trkpt>
      <trkpt lat="42.5959379878" lon="19.9868769385">
        <ele>1215.24</ele>
        <time>2019-07-14T11:37:11Z</time>
      </trkpt>
      <trkpt lat="42.5958025362" lon="19.9869029224">
        <ele>1215.72</ele>
        <time>2019-07-14T11:37:25Z</time>
      </trkpt>
      <trkpt lat="42.5957432762" lon="19.9868846498">
        <ele>1215.72</ele>
        <time>2019-07-14T11:37:36Z</time>
      </trkpt>
      <trkpt lat="42.5957290269" lon="19.9868360348">
        <ele>1213.80</ele>
        <time>2019-07-14T11:37:47Z</time>
      </trkpt>
      <trkpt lat="42.5956946611" lon="19.9867581669">
        <ele>1210.92</ele>
        <time>2019-07-14T11:37:58Z</time>
      </trkpt>
      <trkpt lat="42.5956069026" lon="19.9866875075">
        <ele>1209.48</ele>
        <time>2019-07-14T11:38:10Z</time>
      </trkpt>
      <trkpt lat="42.5956243370" lon="19.9866005871">
        <ele>1207.55</ele>
        <time>2019-07-14T11:38:24Z</time>
      </trkpt>
      <trkpt lat="42.5955934078" lon="19.9864939693">
        <ele>1204.67</ele>
        <time>2019-07-14T11:38:36Z</time>
      </trkpt>
      <trkpt lat="42.5955582876" lon="19.9863906205">
        <ele>1204.19</ele>
        <time>2019-07-14T11:38:48Z</time>
      </trkpt>
      <trkpt lat="42.5955482293" lon="19.9863368087">
        <ele>1204.19</ele>
        <time>2019-07-14T11:39:06Z</time>
      </trkpt>
      <trkpt lat="42.5955768116" lon="19.9863394070">
        <ele>1203.71</ele>
        <time>2019-07-14T11:39:19Z</time>
      </trkpt>
      <trkpt lat="42.5956242532" lon="19.9862331245">
        <ele>1203.23</ele>
        <time>2019-07-14T11:39:31Z</time>
      </trkpt>
      <trkpt lat="42.5956353173" lon="19.9862311967">
        <ele>1203.23</ele>
        <time>2019-07-14T11:39:33Z</time>
      </trkpt>
      <trkpt lat="42.5957162865" lon="19.9861727748">
        <ele>1202.27</ele>
        <time>2019-07-14T11:39:43Z</time>
      </trkpt>
      <trkpt lat="42.5957564358" lon="19.9861772172">
        <ele>1201.30</ele>
        <time>2019-07-14T11:39:47Z</time>
      </trkpt>
      <trkpt lat="42.5959239900" lon="19.9861690030">
        <ele>1200.82</ele>
        <time>2019-07-14T11:40:00Z</time>
      </trkpt>
      <trkpt lat="42.5960658956" lon="19.9860514048">
        <ele>1202.27</ele>
        <time>2019-07-14T11:40:14Z</time>
      </trkpt>
      <trkpt lat="42.5960760377" lon="19.9860443641">
        <ele>1202.27</ele>
        <time>2019-07-14T11:40:15Z</time>
      </trkpt>
      <trkpt lat="42.5961052906" lon="19.9859004468">
        <ele>1204.19</ele>
        <time>2019-07-14T11:40:29Z</time>
      </trkpt>
      <trkpt lat="42.5961113255" lon="19.9857749697">
        <ele>1205.15</ele>
        <time>2019-07-14T11:40:43Z</time>
      </trkpt>
      <trkpt lat="42.5961546600" lon="19.9857405201">
        <ele>1205.15</ele>
        <time>2019-07-14T11:40:54Z</time>
      </trkpt>
      <trkpt lat="42.5962033588" lon="19.9857424479">
        <ele>1205.15</ele>
        <time>2019-07-14T11:41:00Z</time>
      </trkpt>
      <trkpt lat="42.5963265728" lon="19.9857735448">
        <ele>1205.63</ele>
        <time>2019-07-14T11:41:11Z</time>
      </trkpt>
      <trkpt lat="42.5964737590" lon="19.9856815953">
        <ele>1206.59</ele>
        <time>2019-07-14T11:41:21Z</time>
      </trkpt>
      <trkpt lat="42.5965532195" lon="19.9856367521">
        <ele>1206.59</ele>
        <time>2019-07-14T11:41:27Z</time>
      </trkpt>
      <trkpt lat="42.5966529641" lon="19.9856102653">
        <ele>1207.07</ele>
        <time>2019-07-14T11:41:35Z</time>
      </trkpt>
      <trkpt lat="42.5968025811" lon="19.9855182320">
        <ele>1208.03</ele>
        <time>2019-07-14T11:41:49Z</time>
      </trkpt>
      <trkpt lat="42.5969090313" lon="19.9853958562">
        <ele>1209.96</ele>
        <time>2019-07-14T11:42:02Z</time>
      </trkpt>
      <trkpt lat="42.5970535353" lon="19.9852143042">
        <ele>1212.36</ele>
        <time>2019-07-14T11:42:17Z</time>
      </trkpt>
      <trkpt lat="42.5971504301" lon="19.9851105362">
        <ele>1214.28</ele>
        <time>2019-07-14T11:42:30Z</time>
      </trkpt>
      <trkpt lat="42.5972728897" lon="19.9850549642">
        <ele>1215.72</ele>
        <time>2019-07-14T11:42:43Z</time>
      </trkpt>
      <trkpt lat="42.5973803457" lon="19.9850188382">
        <ele>1216.69</ele>
        <time>2019-07-14T11:42:56Z</time>
      </trkpt>
      <trkpt lat="42.5974313915" lon="19.9850107078">
        <ele>1217.17</ele>
        <time>2019-07-14T11:43:00Z</time>
      </trkpt>
      <trkpt lat="42.5975370873" lon="19.9849791918">
        <ele>1217.17</ele>
        <time>2019-07-14T11:43:09Z</time>
      </trkpt>
      <trkpt lat="42.5976984389" lon="19.9847829714">
        <ele>1217.17</ele>
        <time>2019-07-14T11:43:24Z</time>
      </trkpt>
      <trkpt lat="42.5977013726" lon="19.9847719911">
        <ele>1217.17</ele>
        <time>2019-07-14T11:43:25Z</time>
      </trkpt>
      <trkpt lat="42.5977459643" lon="19.9847222026">
        <ele>1217.17</ele>
        <time>2019-07-14T11:43:30Z</time>
      </trkpt>
      <trkpt lat="42.5978449546" lon="19.9846599251">
        <ele>1216.69</ele>
        <time>2019-07-14T11:43:39Z</time>
      </trkpt>
      <trkpt lat="42.5979358982" lon="19.9846161716">
        <ele>1217.65</ele>
        <time>2019-07-14T11:43:47Z</time>
      </trkpt>
      <trkpt lat="42.5979448669" lon="19.9846009165">
        <ele>1217.65</ele>
        <time>2019-07-14T11:43:48Z</time>
      </trkpt>
      <trkpt lat="42.5980178732" lon="19.9845935404">
        <ele>1217.17</ele>
        <time>2019-07-14T11:43:53Z</time>
      </trkpt>
      <trkpt lat="42.5980759598" lon="19.9845742621">
        <ele>1216.21</ele>
        <time>2019-07-14T11:43:56Z</time>
      </trkpt>
      <trkpt lat="42.5981277600" lon="19.9845598452">
        <ele>1215.72</ele>
        <time>2019-07-14T11:43:59Z</time>
      </trkpt>
      <trkpt lat="42.5982185360" lon="19.9843891896">
        <ele>1215.72</ele>
        <time>2019-07-14T11:44:11Z</time>
      </trkpt>
      <trkpt lat="42.5983119942" lon="19.9842523970">
        <ele>1215.24</ele>
        <time>2019-07-14T11:44:25Z</time>
      </trkpt>
      <trkpt lat="42.5984771177" lon="19.9842099845">
        <ele>1215.24</ele>
        <time>2019-07-14T11:44:39Z</time>
      </trkpt>
      <trkpt lat="42.5986170117" lon="19.9842367228">
        <ele>1216.21</ele>
        <time>2019-07-14T11:44:51Z</time>
      </trkpt>
      <trkpt lat="42.5986534730" lon="19.9842664786">
        <ele>1216.21</ele>
        <time>2019-07-14T11:44:55Z</time>
      </trkpt>
      <trkpt lat="42.5988125615" lon="19.9841909576">
        <ele>1216.21</ele>
        <time>2019-07-14T11:45:09Z</time>
      </trkpt>
      <trkpt lat="42.5988312531" lon="19.9841726013">
        <ele>1214.76</ele>
        <time>2019-07-14T11:45:11Z</time>
      </trkpt>
      <trkpt lat="42.5989604183" lon="19.9840973318">
        <ele>1214.76</ele>
        <time>2019-07-14T11:45:23Z</time>
      </trkpt>
      <trkpt lat="42.5989963766" lon="19.9840652291">
        <ele>1216.21</ele>
        <time>2019-07-14T11:45:27Z</time>
      </trkpt>
      <trkpt lat="42.5990394596" lon="19.9840154406">
        <ele>1216.69</ele>
        <time>2019-07-14T11:45:32Z</time>
      </trkpt>
      <trkpt lat="42.5990668684" lon="19.9839913845">
        <ele>1217.17</ele>
        <time>2019-07-14T11:45:34Z</time>
      </trkpt>
      <trkpt lat="42.5992158148" lon="19.9839338847">
        <ele>1219.09</ele>
        <time>2019-07-14T11:45:45Z</time>
      </trkpt>
      <trkpt lat="42.5993319880" lon="19.9838193040">
        <ele>1219.09</ele>
        <time>2019-07-14T11:45:56Z</time>
      </trkpt>
      <trkpt lat="42.5993980374" lon="19.9837866984">
        <ele>1219.57</ele>
        <time>2019-07-14T11:46:01Z</time>
      </trkpt>
      <trkpt lat="42.5994769949" lon="19.9837664142">
        <ele>1220.05</ele>
        <time>2019-07-14T11:46:08Z</time>
      </trkpt>
      <trkpt lat="42.5996808428" lon="19.9836193956">
        <ele>1220.53</ele>
        <time>2019-07-14T11:46:24Z</time>
      </trkpt>
      <trkpt lat="42.5997758098" lon="19.9835124426">
        <ele>1220.53</ele>
        <time>2019-07-14T11:46:34Z</time>
      </trkpt>
      <trkpt lat="42.5998235028" lon="19.9834686052">
        <ele>1220.53</ele>
        <time>2019-07-14T11:46:39Z</time>
      </trkpt>
      <trkpt lat="42.6000064798" lon="19.9834338203">
        <ele>1220.53</ele>
        <time>2019-07-14T11:46:52Z</time>
      </trkpt>
      <trkpt lat="42.6000704337" lon="19.9834059924">
        <ele>1220.53</ele>
        <time>2019-07-14T11:46:59Z</time>
      </trkpt>
      <trkpt lat="42.6001276821" lon="19.9833767395">
        <ele>1221.01</ele>
        <time>2019-07-14T11:47:04Z</time>
      </trkpt>
      <trkpt lat="42.6001630537" lon="19.9833595566">
        <ele>1221.49</ele>
        <time>2019-07-14T11:47:07Z</time>
      </trkpt>
      <trkpt lat="42.6003104914" lon="19.9833546113">
        <ele>1223.42</ele>
        <time>2019-07-14T11:47:20Z</time>
      </trkpt>
      <trkpt lat="42.6004469488" lon="19.9833435472">
        <ele>1224.38</ele>
        <time>2019-07-14T11:47:32Z</time>
      </trkpt>
      <trkpt lat="42.6005513035" lon="19.9832775816">
        <ele>1225.82</ele>
        <time>2019-07-14T11:47:45Z</time>
      </trkpt>
      <trkpt lat="42.6006733440" lon="19.9831221811">
        <ele>1226.78</ele>
        <time>2019-07-14T11:47:59Z</time>
      </trkpt>
      <trkpt lat="42.6007501222" lon="19.9830468278">
        <ele>1227.74</ele>
        <time>2019-07-14T11:48:08Z</time>
      </trkpt>
      <trkpt lat="42.6008539740" lon="19.9829939380">
        <ele>1228.22</ele>
        <time>2019-07-14T11:48:17Z</time>
      </trkpt>
      <trkpt lat="42.6009143237" lon="19.9829616677">
        <ele>1229.18</ele>
        <time>2019-07-14T11:48:23Z</time>
      </trkpt>
      <trkpt lat="42.6009366196" lon="19.9829502683">
        <ele>1229.18</ele>
        <time>2019-07-14T11:48:25Z</time>
      </trkpt>
      <trkpt lat="42.6010641083" lon="19.9829017371">
        <ele>1230.62</ele>
        <time>2019-07-14T11:48:36Z</time>
      </trkpt>
      <trkpt lat="42.6011230331" lon="19.9828963727">
        <ele>1231.11</ele>
        <time>2019-07-14T11:48:40Z</time>
      </trkpt>
      <trkpt lat="42.6012813672" lon="19.9828593247">
        <ele>1231.11</ele>
        <time>2019-07-14T11:48:54Z</time>
      </trkpt>
      <trkpt lat="42.6013350952" lon="19.9828260485">
        <ele>1231.59</ele>
        <time>2019-07-14T11:48:59Z</time>
      </trkpt>
      <trkpt lat="42.6015002187" lon="19.9827608373">
        <ele>1232.55</ele>
        <time>2019-07-14T11:49:14Z</time>
      </trkpt>
      <trkpt lat="42.6016345806" lon="19.9826882500">
        <ele>1233.99</ele>
        <time>2019-07-14T11:49:24Z</time>
      </trkpt>
      <trkpt lat="42.6017535198" lon="19.9826596677">
        <ele>1234.47</ele>
        <time>2019-07-14T11:49:33Z</time>
      </trkpt>
      <trkpt lat="42.6018636581" lon="19.9827053491">
        <ele>1237.35</ele>
        <time>2019-07-14T11:49:46Z</time>
      </trkpt>
      <trkpt lat="42.6019301265" lon="19.9827161618">
        <ele>1238.80</ele>
        <time>2019-07-14T11:49:54Z</time>
      </trkpt>
      <trkpt lat="42.6020462159" lon="19.9826591648">
        <ele>1241.20</ele>
        <time>2019-07-14T11:50:07Z</time>
      </trkpt>
      <trkpt lat="42.6020631474" lon="19.9826346897">
        <ele>1241.20</ele>
        <time>2019-07-14T11:50:09Z</time>
      </trkpt>
      <trkpt lat="42.6020714454" lon="19.9825817998">
        <ele>1241.68</ele>
        <time>2019-07-14T11:50:13Z</time>
      </trkpt>
      <trkpt lat="42.6020975132" lon="19.9824064504">
        <ele>1242.16</ele>
        <time>2019-07-14T11:50:23Z</time>
      </trkpt>
      <trkpt lat="42.6021356508" lon="19.9821969867">
        <ele>1240.24</ele>
        <time>2019-07-14T11:50:37Z</time>
      </trkpt>
      <trkpt lat="42.6021523308" lon="19.9820936378">
        <ele>1240.24</ele>
        <time>2019-07-14T11:50:49Z</time>
      </trkpt>
      <trkpt lat="42.6021606289" lon="19.9819271732">
        <ele>1240.24</ele>
        <time>2019-07-14T11:50:59Z</time>
      </trkpt>
      <trkpt lat="42.6021481398" lon="19.9817658216">
        <ele>1240.24</ele>
        <time>2019-07-14T11:51:07Z</time>
      </trkpt>
      <trkpt lat="42.6021287777" lon="19.9816956650">
        <ele>1240.24</ele>
        <time>2019-07-14T11:51:11Z</time>
      </trkpt>
      <trkpt lat="42.6021187194" lon="19.9816293642">
        <ele>1240.24</ele>
        <time>2019-07-14T11:51:14Z</time>
      </trkpt>
      <trkpt lat="42.6021117624" lon="19.9816028774">
        <ele>1239.76</ele>
        <time>2019-07-14T11:51:16Z</time>
      </trkpt>
      <trkpt lat="42.6020753011" lon="19.9813050684">
        <ele>1236.87</ele>
        <time>2019-07-14T11:51:31Z</time>
      </trkpt>
      <trkpt lat="42.6020999439" lon="19.9811463151">
        <ele>1234.47</ele>
        <time>2019-07-14T11:51:41Z</time>
      </trkpt>
      <trkpt lat="42.6020974293" lon="19.9810506776">
        <ele>1233.03</ele>
        <time>2019-07-14T11:51:47Z</time>
      </trkpt>
      <trkpt lat="42.6021951623" lon="19.9806581531">
        <ele>1232.07</ele>
        <time>2019-07-14T11:52:03Z</time>
      </trkpt>
      <trkpt lat="42.6022124290" lon="19.9805994797">
        <ele>1232.07</ele>
        <time>2019-07-14T11:52:12Z</time>
      </trkpt>
      <trkpt lat="42.6023162808" lon="19.9804934487">
        <ele>1231.59</ele>
        <time>2019-07-14T11:52:21Z</time>
      </trkpt>
      <trkpt lat="42.6023555920" lon="19.9804342724">
        <ele>1231.11</ele>
        <time>2019-07-14T11:52:35Z</time>
      </trkpt>
      <trkpt lat="42.6023852639" lon="19.9803788681">
        <ele>1230.62</ele>
        <time>2019-07-14T11:52:48Z</time>
      </trkpt>
      <trkpt lat="42.6023887843" lon="19.9803679716">
        <ele>1230.62</ele>
        <time>2019-07-14T11:52:49Z</time>
      </trkpt>
      <trkpt lat="42.6024135109" lon="19.9801962264">
        <ele>1229.66</ele>
        <time>2019-07-14T11:52:59Z</time>
      </trkpt>
      <trkpt lat="42.6024346333" lon="19.9800206255">
        <ele>1228.70</ele>
        <time>2019-07-14T11:53:13Z</time>
      </trkpt>
      <trkpt lat="42.6024280116" lon="19.9798718467">
        <ele>1228.22</ele>
        <time>2019-07-14T11:53:20Z</time>
      </trkpt>
      <trkpt lat="42.6024253294" lon="19.9798566755">
        <ele>1228.22</ele>
        <time>2019-07-14T11:53:21Z</time>
      </trkpt>
      <trkpt lat="42.6024781354" lon="19.9797084834">
        <ele>1224.86</ele>
        <time>2019-07-14T11:53:32Z</time>
      </trkpt>
      <trkpt lat="42.6025109924" lon="19.9796188809">
        <ele>1223.42</ele>
        <time>2019-07-14T11:53:38Z</time>
      </trkpt>
      <trkpt lat="42.6026471984" lon="19.9794100039">
        <ele>1222.45</ele>
        <time>2019-07-14T11:53:51Z</time>
      </trkpt>
      <trkpt lat="42.6026543230" lon="19.9794014543">
        <ele>1221.97</ele>
        <time>2019-07-14T11:53:52Z</time>
      </trkpt>
      <trkpt lat="42.6029077917" lon="19.9792297091">
        <ele>1220.53</ele>
        <time>2019-07-14T11:54:11Z</time>
      </trkpt>
      <trkpt lat="42.6031065267" lon="19.9790807627">
        <ele>1220.05</ele>
        <time>2019-07-14T11:54:28Z</time>
      </trkpt>
      <trkpt lat="42.6032745838" lon="19.9789511785">
        <ele>1219.09</ele>
        <time>2019-07-14T11:54:43Z</time>
      </trkpt>
      <trkpt lat="42.6034685411" lon="19.9788455665">
        <ele>1218.61</ele>
        <time>2019-07-14T11:54:57Z</time>
      </trkpt>
      <trkpt lat="42.6036378555" lon="19.9787653517">
        <ele>1218.61</ele>
        <time>2019-07-14T11:55:10Z</time>
      </trkpt>
      <trkpt lat="42.6037514303" lon="19.9787207600">
        <ele>1218.13</ele>
        <time>2019-07-14T11:55:22Z</time>
      </trkpt>
      <trkpt lat="42.6038267836" lon="19.9787227716">
        <ele>1218.13</ele>
        <time>2019-07-14T11:55:35Z</time>
      </trkpt>
      <trkpt lat="42.6039846987" lon="19.9786901660">
        <ele>1218.13</ele>
        <time>2019-07-14T11:55:50Z</time>
      </trkpt>
      <trkpt lat="42.6040369179" lon="19.9786650203">
        <ele>1218.13</ele>
        <time>2019-07-14T11:55:55Z</time>
      </trkpt>
      <trkpt lat="42.6041069906" lon="19.9786539562">
        <ele>1218.13</ele>
        <time>2019-07-14T11:56:00Z</time>
      </trkpt>
      <trkpt lat="42.6043102518" lon="19.9785563070">
        <ele>1216.69</ele>
        <time>2019-07-14T11:56:15Z</time>
      </trkpt>
      <trkpt lat="42.6044964138" lon="19.9785104580">
        <ele>1214.28</ele>
        <time>2019-07-14T11:56:29Z</time>
      </trkpt>
      <trkpt lat="42.6046778820" lon="19.9784294888">
        <ele>1211.88</ele>
        <time>2019-07-14T11:56:43Z</time>
      </trkpt>
      <trkpt lat="42.6047850028" lon="19.9783756770">
        <ele>1210.44</ele>
        <time>2019-07-14T11:56:52Z</time>
      </trkpt>
      <trkpt lat="42.6048054546" lon="19.9783608411">
        <ele>1209.96</ele>
        <time>2019-07-14T11:56:54Z</time>
      </trkpt>
      <trkpt lat="42.6050125714" lon="19.9781981483">
        <ele>1207.07</ele>
        <time>2019-07-14T11:57:10Z</time>
      </trkpt>
      <trkpt lat="42.6051070355" lon="19.9780010059">
        <ele>1204.67</ele>
        <time>2019-07-14T11:57:22Z</time>
      </trkpt>
      <trkpt lat="42.6051678881" lon="19.9778432585">
        <ele>1201.79</ele>
        <time>2019-07-14T11:57:32Z</time>
      </trkpt>
      <trkpt lat="42.6052828878" lon="19.9776378181">
        <ele>1199.38</ele>
        <time>2019-07-14T11:57:46Z</time>
      </trkpt>
      <trkpt lat="42.6053776871" lon="19.9775358103">
        <ele>1198.42</ele>
        <time>2019-07-14T11:57:57Z</time>
      </trkpt>
      <trkpt lat="42.6055491809" lon="19.9773979280">
        <ele>1197.94</ele>
        <time>2019-07-14T11:58:11Z</time>
      </trkpt>
      <trkpt lat="42.6056998037" lon="19.9773086607">
        <ele>1197.94</ele>
        <time>2019-07-14T11:58:25Z</time>
      </trkpt>
      <trkpt lat="42.6059176493" lon="19.9772246741">
        <ele>1196.98</ele>
        <time>2019-07-14T11:58:42Z</time>
      </trkpt>
      <trkpt lat="42.6060991175" lon="19.9771539308">
        <ele>1196.02</ele>
        <time>2019-07-14T11:58:56Z</time>
      </trkpt>
      <trkpt lat="42.6062514167" lon="19.9770169705">
        <ele>1196.02</ele>
        <time>2019-07-14T11:59:09Z</time>
      </trkpt>
      <trkpt lat="42.6063415222" lon="19.9769034795">
        <ele>1196.02</ele>
        <time>2019-07-14T11:59:18Z</time>
      </trkpt>
      <trkpt lat="42.6064358186" lon="19.9767749850">
        <ele>1196.02</ele>
        <time>2019-07-14T11:59:28Z</time>
      </trkpt>
      <trkpt lat="42.6065249182" lon="19.9766990449">
        <ele>1195.54</ele>
        <time>2019-07-14T11:59:37Z</time>
      </trkpt>
      <trkpt lat="42.6067022793" lon="19.9765964504">
        <ele>1195.54</ele>
        <time>2019-07-14T11:59:51Z</time>
      </trkpt>
      <trkpt lat="42.6067539118" lon="19.9765901640">
        <ele>1195.54</ele>
        <time>2019-07-14T11:59:55Z</time>
      </trkpt>
      <trkpt lat="42.6068452746" lon="19.9765402079">
        <ele>1195.54</ele>
        <time>2019-07-14T12:00:02Z</time>
      </trkpt>
      <trkpt lat="42.6070672274" lon="19.9765443988">
        <ele>1195.06</ele>
        <time>2019-07-14T12:00:18Z</time>
      </trkpt>
      <trkpt lat="42.6072485279" lon="19.9765783455">
        <ele>1195.06</ele>
        <time>2019-07-14T12:00:32Z</time>
      </trkpt>
      <trkpt lat="42.6074362826" lon="19.9765065126">
        <ele>1194.58</ele>
        <time>2019-07-14T12:00:45Z</time>
      </trkpt>
      <trkpt lat="42.6076137275" lon="19.9763580691">
        <ele>1194.58</ele>
        <time>2019-07-14T12:01:00Z</time>
      </trkpt>
      <trkpt lat="42.6077349298" lon="19.9761701468">
        <ele>1194.09</ele>
        <time>2019-07-14T12:01:14Z</time>
      </trkpt>
      <trkpt lat="42.6078245323" lon="19.9759581685">
        <ele>1193.61</ele>
        <time>2019-07-14T12:01:27Z</time>
      </trkpt>
      <trkpt lat="42.6079298928" lon="19.9757189490">
        <ele>1192.65</ele>
        <time>2019-07-14T12:01:42Z</time>
      </trkpt>
      <trkpt lat="42.6079458185" lon="19.9756819010">
        <ele>1192.65</ele>
        <time>2019-07-14T12:01:44Z</time>
      </trkpt>
      <trkpt lat="42.6080111135" lon="19.9754229002">
        <ele>1192.17</ele>
        <time>2019-07-14T12:01:58Z</time>
      </trkpt>
      <trkpt lat="42.6080149692" lon="19.9753815774">
        <ele>1192.17</ele>
        <time>2019-07-14T12:02:00Z</time>
      </trkpt>
      <trkpt lat="42.6080370974" lon="19.9752122629">
        <ele>1192.17</ele>
        <time>2019-07-14T12:02:08Z</time>
      </trkpt>
      <trkpt lat="42.6080329064" lon="19.9751508236">
        <ele>1192.17</ele>
        <time>2019-07-14T12:02:11Z</time>
      </trkpt>
      <trkpt lat="42.6080367621" lon="19.9750678428">
        <ele>1191.69</ele>
        <time>2019-07-14T12:02:15Z</time>
      </trkpt>
      <trkpt lat="42.6080365945" lon="19.9750219937">
        <ele>1191.69</ele>
        <time>2019-07-14T12:02:18Z</time>
      </trkpt>
      <trkpt lat="42.6080847904" lon="19.9749034736">
        <ele>1191.69</ele>
        <time>2019-07-14T12:02:25Z</time>
      </trkpt>
      <trkpt lat="42.6081305556" lon="19.9748603068">
        <ele>1191.21</ele>
        <time>2019-07-14T12:02:32Z</time>
      </trkpt>
      <trkpt lat="42.6082012150" lon="19.9748509191">
        <ele>1191.21</ele>
        <time>2019-07-14T12:02:37Z</time>
      </trkpt>
      <trkpt lat="42.6084147859" lon="19.9748187326">
        <ele>1190.73</ele>
        <time>2019-07-14T12:02:51Z</time>
      </trkpt>
      <trkpt lat="42.6085382514" lon="19.9747692794">
        <ele>1190.25</ele>
        <time>2019-07-14T12:03:00Z</time>
      </trkpt>
      <trkpt lat="42.6086395048" lon="19.9747002963">
        <ele>1190.25</ele>
        <time>2019-07-14T12:03:09Z</time>
      </trkpt>
      <trkpt lat="42.6087281853" lon="19.9746344984">
        <ele>1189.77</ele>
        <time>2019-07-14T12:03:17Z</time>
      </trkpt>
      <trkpt lat="42.6087457873" lon="19.9746061675">
        <ele>1189.77</ele>
        <time>2019-07-14T12:03:19Z</time>
      </trkpt>
      <trkpt lat="42.6088660676" lon="19.9744416308">
        <ele>1189.29</ele>
        <time>2019-07-14T12:03:31Z</time>
      </trkpt>
      <trkpt lat="42.6089323685" lon="19.9744035769">
        <ele>1189.29</ele>
        <time>2019-07-14T12:03:36Z</time>
      </trkpt>
      <trkpt lat="42.6091451012" lon="19.9743691273">
        <ele>1189.29</ele>
        <time>2019-07-14T12:03:51Z</time>
      </trkpt>
      <trkpt lat="42.6092715003" lon="19.9743249547">
        <ele>1188.81</ele>
        <time>2019-07-14T12:04:00Z</time>
      </trkpt>
      <trkpt lat="42.6094206981" lon="19.9741600826">
        <ele>1188.33</ele>
        <time>2019-07-14T12:04:14Z</time>
      </trkpt>
      <trkpt lat="42.6094459277" lon="19.9741041753">
        <ele>1188.33</ele>
        <time>2019-07-14T12:04:17Z</time>
      </trkpt>
      <trkpt lat="42.6095040143" lon="19.9739531334">
        <ele>1187.37</ele>
        <time>2019-07-14T12:04:26Z</time>
      </trkpt>
      <trkpt lat="42.6095252205" lon="19.9738573283">
        <ele>1187.37</ele>
        <time>2019-07-14T12:04:31Z</time>
      </trkpt>
      <trkpt lat="42.6096966304" lon="19.9737709109">
        <ele>1186.40</ele>
        <time>2019-07-14T12:04:46Z</time>
      </trkpt>
      <trkpt lat="42.6098832116" lon="19.9737273250">
        <ele>1184.96</ele>
        <time>2019-07-14T12:05:00Z</time>
      </trkpt>
      <trkpt lat="42.6100520231" lon="19.9736217130">
        <ele>1184.96</ele>
        <time>2019-07-14T12:05:13Z</time>
      </trkpt>
      <trkpt lat="42.6101234369" lon="19.9735212140">
        <ele>1184.96</ele>
        <time>2019-07-14T12:05:20Z</time>
      </trkpt>
      <trkpt lat="42.6101925876" lon="19.9734518118">
        <ele>1184.48</ele>
        <time>2019-07-14T12:05:26Z</time>
      </trkpt>
      <trkpt lat="42.6102208346" lon="19.9733767100">
        <ele>1184.48</ele>
        <time>2019-07-14T12:05:30Z</time>
      </trkpt>
      <trkpt lat="42.6102374308" lon="19.9733011052">
        <ele>1184.48</ele>
        <time>2019-07-14T12:05:34Z</time>
      </trkpt>
      <trkpt lat="42.6102676056" lon="19.9730429426">
        <ele>1183.04</ele>
        <time>2019-07-14T12:05:47Z</time>
      </trkpt>
      <trkpt lat="42.6104484871" lon="19.9729412701">
        <ele>1182.56</ele>
        <time>2019-07-14T12:06:01Z</time>
      </trkpt>
      <trkpt lat="42.6106498204" lon="19.9728002865">
        <ele>1182.56</ele>
        <time>2019-07-14T12:06:17Z</time>
      </trkpt>
      <trkpt lat="42.6106744632" lon="19.9727336504">
        <ele>1182.56</ele>
        <time>2019-07-14T12:06:21Z</time>
      </trkpt>
      <trkpt lat="42.6107190549" lon="19.9725479912">
        <ele>1182.08</ele>
        <time>2019-07-14T12:06:31Z</time>
      </trkpt>
      <trkpt lat="42.6108567696" lon="19.9724059179">
        <ele>1181.60</ele>
        <time>2019-07-14T12:06:44Z</time>
      </trkpt>
      <trkpt lat="42.6110474579" lon="19.9723634217">
        <ele>1180.64</ele>
        <time>2019-07-14T12:06:57Z</time>
      </trkpt>
      <trkpt lat="42.6112144254" lon="19.9722861405">
        <ele>1180.16</ele>
        <time>2019-07-14T12:07:10Z</time>
      </trkpt>
      <trkpt lat="42.6113312691" lon="19.9721186701">
        <ele>1179.19</ele>
        <time>2019-07-14T12:07:23Z</time>
      </trkpt>
      <trkpt lat="42.6114340313" lon="19.9719582405">
        <ele>1179.19</ele>
        <time>2019-07-14T12:07:35Z</time>
      </trkpt>
      <trkpt lat="42.6115377992" lon="19.9718382955">
        <ele>1179.19</ele>
        <time>2019-07-14T12:07:45Z</time>
      </trkpt>
      <trkpt lat="42.6116625220" lon="19.9716121517">
        <ele>1177.75</ele>
        <time>2019-07-14T12:07:59Z</time>
      </trkpt>
      <trkpt lat="42.6117126457" lon="19.9713999219">
        <ele>1177.27</ele>
        <time>2019-07-14T12:08:12Z</time>
      </trkpt>
      <trkpt lat="42.6117214467" lon="19.9713862594">
        <ele>1177.27</ele>
        <time>2019-07-14T12:08:13Z</time>
      </trkpt>
      <trkpt lat="42.6117249671" lon="19.9712824915">
        <ele>1176.31</ele>
        <time>2019-07-14T12:08:18Z</time>
      </trkpt>
      <trkpt lat="42.6117683854" lon="19.9711978342">
        <ele>1175.35</ele>
        <time>2019-07-14T12:08:23Z</time>
      </trkpt>
      <trkpt lat="42.6118303277" lon="19.9710621312">
        <ele>1173.91</ele>
        <time>2019-07-14T12:08:30Z</time>
      </trkpt>
      <trkpt lat="42.6118602511" lon="19.9707370810">
        <ele>1172.47</ele>
        <time>2019-07-14T12:08:46Z</time>
      </trkpt>
      <trkpt lat="42.6118974667" lon="19.9704567902">
        <ele>1170.54</ele>
        <time>2019-07-14T12:08:59Z</time>
      </trkpt>
      <trkpt lat="42.6119288150" lon="19.9702307303">
        <ele>1169.10</ele>
        <time>2019-07-14T12:09:11Z</time>
      </trkpt>
      <trkpt lat="42.6119808666" lon="19.9699087813">
        <ele>1167.66</ele>
        <time>2019-07-14T12:09:27Z</time>
      </trkpt>
      <trkpt lat="42.6120144781" lon="19.9696673825">
        <ele>1165.74</ele>
        <time>2019-07-14T12:09:39Z</time>
      </trkpt>
      <trkpt lat="42.6120259613" lon="19.9695652910">
        <ele>1164.29</ele>
        <time>2019-07-14T12:09:44Z</time>
      </trkpt>
      <trkpt lat="42.6120734867" lon="19.9693305138">
        <ele>1162.85</ele>
        <time>2019-07-14T12:09:57Z</time>
      </trkpt>
      <trkpt lat="42.6120884065" lon="19.9690169469">
        <ele>1159.49</ele>
        <time>2019-07-14T12:10:12Z</time>
      </trkpt>
      <trkpt lat="42.6120963693" lon="19.9689760432">
        <ele>1159.01</ele>
        <time>2019-07-14T12:10:14Z</time>
      </trkpt>
      <trkpt lat="42.6121103670" lon="19.9686975963">
        <ele>1157.56</ele>
        <time>2019-07-14T12:10:29Z</time>
      </trkpt>
      <trkpt lat="42.6121298969" lon="19.9685744662">
        <ele>1157.08</ele>
        <time>2019-07-14T12:10:36Z</time>
      </trkpt>
      <trkpt lat="42.6121807750" lon="19.9685082491">
        <ele>1157.08</ele>
        <time>2019-07-14T12:10:41Z</time>
      </trkpt>
      <trkpt lat="42.6122473273" lon="19.9682320654">
        <ele>1158.05</ele>
        <time>2019-07-14T12:10:56Z</time>
      </trkpt>
      <trkpt lat="42.6122253668" lon="19.9681210890">
        <ele>1157.08</ele>
        <time>2019-07-14T12:11:02Z</time>
      </trkpt>
      <trkpt lat="42.6121448167" lon="19.9678347632">
        <ele>1155.64</ele>
        <time>2019-07-14T12:11:17Z</time>
      </trkpt>
      <trkpt lat="42.6121130493" lon="19.9675817136">
        <ele>1153.72</ele>
        <time>2019-07-14T12:11:31Z</time>
      </trkpt>
      <trkpt lat="42.6121215150" lon="19.9675032590">
        <ele>1153.72</ele>
        <time>2019-07-14T12:11:36Z</time>
      </trkpt>
      <trkpt lat="42.6121519413" lon="19.9672679789">
        <ele>1152.76</ele>
        <time>2019-07-14T12:11:48Z</time>
      </trkpt>
      <trkpt lat="42.6121177431" lon="19.9669658113">
        <ele>1152.28</ele>
        <time>2019-07-14T12:12:02Z</time>
      </trkpt>
      <trkpt lat="42.6121093612" lon="19.9668715149">
        <ele>1152.28</ele>
        <time>2019-07-14T12:12:08Z</time>
      </trkpt>
      <trkpt lat="42.6121025719" lon="19.9666237459">
        <ele>1151.80</ele>
        <time>2019-07-14T12:12:20Z</time>
      </trkpt>
      <trkpt lat="42.6121111214" lon="19.9665675033">
        <ele>1151.80</ele>
        <time>2019-07-14T12:12:23Z</time>
      </trkpt>
      <trkpt lat="42.6120941062" lon="19.9665086623">
        <ele>1151.32</ele>
        <time>2019-07-14T12:12:27Z</time>
      </trkpt>
      <trkpt lat="42.6120718941" lon="19.9663960934">
        <ele>1151.32</ele>
        <time>2019-07-14T12:12:33Z</time>
      </trkpt>
      <trkpt lat="42.6120100357" lon="19.9660717975">
        <ele>1149.87</ele>
        <time>2019-07-14T12:12:49Z</time>
      </trkpt>
      <trkpt lat="42.6119412202" lon="19.9657938536">
        <ele>1148.91</ele>
        <time>2019-07-14T12:13:05Z</time>
      </trkpt>
      <trkpt lat="42.6118470076" lon="19.9655567296">
        <ele>1148.91</ele>
        <time>2019-07-14T12:13:19Z</time>
      </trkpt>
      <trkpt lat="42.6117107179" lon="19.9653671309">
        <ele>1148.91</ele>
        <time>2019-07-14T12:13:32Z</time>
      </trkpt>
      <trkpt lat="42.6116023399" lon="19.9651901890">
        <ele>1148.91</ele>
        <time>2019-07-14T12:13:45Z</time>
      </trkpt>
      <trkpt lat="42.6115382183" lon="19.9650257360">
        <ele>1148.91</ele>
        <time>2019-07-14T12:13:56Z</time>
      </trkpt>
      <trkpt lat="42.6115054451" lon="19.9649236444">
        <ele>1150.35</ele>
        <time>2019-07-14T12:14:02Z</time>
      </trkpt>
      <trkpt lat="42.6114507113" lon="19.9647062179">
        <ele>1150.84</ele>
        <time>2019-07-14T12:14:15Z</time>
      </trkpt>
      <trkpt lat="42.6114341989" lon="19.9645332154">
        <ele>1150.84</ele>
        <time>2019-07-14T12:14:24Z</time>
      </trkpt>
      <trkpt lat="42.6114181057" lon="19.9644436967">
        <ele>1150.84</ele>
        <time>2019-07-14T12:14:29Z</time>
      </trkpt>
      <trkpt lat="42.6114133280" lon="19.9644098338">
        <ele>1149.39</ele>
        <time>2019-07-14T12:14:31Z</time>
      </trkpt>
      <trkpt lat="42.6114129927" lon="19.9641390983">
        <ele>1148.43</ele>
        <time>2019-07-14T12:14:45Z</time>
      </trkpt>
      <trkpt lat="42.6114339475" lon="19.9638322368">
        <ele>1147.47</ele>
        <time>2019-07-14T12:15:00Z</time>
      </trkpt>
      <trkpt lat="42.6114977337" lon="19.9635637645">
        <ele>1146.99</ele>
        <time>2019-07-14T12:15:15Z</time>
      </trkpt>
      <trkpt lat="42.6115377992" lon="19.9633420631">
        <ele>1146.99</ele>
        <time>2019-07-14T12:15:28Z</time>
      </trkpt>
      <trkpt lat="42.6115676388" lon="19.9632315058">
        <ele>1146.99</ele>
        <time>2019-07-14T12:15:35Z</time>
      </trkpt>
      <trkpt lat="42.6115612686" lon="19.9631562363">
        <ele>1146.99</ele>
        <time>2019-07-14T12:15:39Z</time>
      </trkpt>
      <trkpt lat="42.6115617715" lon="19.9630757701">
        <ele>1148.43</ele>
        <time>2019-07-14T12:15:43Z</time>
      </trkpt>
      <trkpt lat="42.6115491148" lon="19.9628048670">
        <ele>1148.43</ele>
        <time>2019-07-14T12:15:57Z</time>
      </trkpt>
      <trkpt lat="42.6115331892" lon="19.9625397474">
        <ele>1148.43</ele>
        <time>2019-07-14T12:16:10Z</time>
      </trkpt>
      <trkpt lat="42.6115642022" lon="19.9624386616">
        <ele>1148.43</ele>
        <time>2019-07-14T12:16:16Z</time>
      </trkpt>
      <trkpt lat="42.6116177626" lon="19.9623499811">
        <ele>1148.91</ele>
        <time>2019-07-14T12:16:22Z</time>
      </trkpt>
      <trkpt lat="42.6116325147" lon="19.9621882942">
        <ele>1149.39</ele>
        <time>2019-07-14T12:16:31Z</time>
      </trkpt>
      <trkpt lat="42.6116437465" lon="19.9621095043">
        <ele>1149.39</ele>
        <time>2019-07-14T12:16:36Z</time>
      </trkpt>
      <trkpt lat="42.6115760207" lon="19.9619166367">
        <ele>1149.39</ele>
        <time>2019-07-14T12:16:49Z</time>
      </trkpt>
      <trkpt lat="42.6115602627" lon="19.9618096836">
        <ele>1149.39</ele>
        <time>2019-07-14T12:16:55Z</time>
      </trkpt>
      <trkpt lat="42.6115088817" lon="19.9616645928">
        <ele>1149.39</ele>
        <time>2019-07-14T12:17:03Z</time>
      </trkpt>
      <trkpt lat="42.6115132403" lon="19.9615992140">
        <ele>1149.39</ele>
        <time>2019-07-14T12:17:06Z</time>
      </trkpt>
      <trkpt lat="42.6114711631" lon="19.9614370242">
        <ele>1149.39</ele>
        <time>2019-07-14T12:17:15Z</time>
      </trkpt>
      <trkpt lat="42.6114409883" lon="19.9613521993">
        <ele>1149.39</ele>
        <time>2019-07-14T12:17:20Z</time>
      </trkpt>
      <trkpt lat="42.6113548223" lon="19.9610775243">
        <ele>1149.39</ele>
        <time>2019-07-14T12:17:35Z</time>
      </trkpt>
      <trkpt lat="42.6112446841" lon="19.9607994966">
        <ele>1147.47</ele>
        <time>2019-07-14T12:17:50Z</time>
      </trkpt>
      <trkpt lat="42.6111286785" lon="19.9605601933">
        <ele>1146.03</ele>
        <time>2019-07-14T12:18:05Z</time>
      </trkpt>
      <trkpt lat="42.6110946480" lon="19.9605084769">
        <ele>1146.03</ele>
        <time>2019-07-14T12:18:09Z</time>
      </trkpt>
      <trkpt lat="42.6109975018" lon="19.9603753723">
        <ele>1145.07</ele>
        <time>2019-07-14T12:18:19Z</time>
      </trkpt>
      <trkpt lat="42.6108669117" lon="19.9601001944">
        <ele>1143.63</ele>
        <time>2019-07-14T12:18:34Z</time>
      </trkpt>
      <trkpt lat="42.6107509062" lon="19.9598786607">
        <ele>1143.63</ele>
        <time>2019-07-14T12:18:48Z</time>
      </trkpt>
      <trkpt lat="42.6106753014" lon="19.9596482422">
        <ele>1145.07</ele>
        <time>2019-07-14T12:19:00Z</time>
      </trkpt>
      <trkpt lat="42.6106041390" lon="19.9593940191">
        <ele>1145.55</ele>
        <time>2019-07-14T12:19:14Z</time>
      </trkpt>
      <trkpt lat="42.6105565298" lon="19.9592823721">
        <ele>1144.11</ele>
        <time>2019-07-14T12:19:20Z</time>
      </trkpt>
      <trkpt lat="42.6104609761" lon="19.9590378720">
        <ele>1144.11</ele>
        <time>2019-07-14T12:19:34Z</time>
      </trkpt>
      <trkpt lat="42.6104355790" lon="19.9589169212">
        <ele>1143.14</ele>
        <time>2019-07-14T12:19:40Z</time>
      </trkpt>
      <trkpt lat="42.6104181446" lon="19.9588473514">
        <ele>1143.14</ele>
        <time>2019-07-14T12:19:44Z</time>
      </trkpt>
      <trkpt lat="42.6103558671" lon="19.9585552420">
        <ele>1141.70</ele>
        <time>2019-07-14T12:19:59Z</time>
      </trkpt>
      <trkpt lat="42.6102886442" lon="19.9583034497">
        <ele>1141.22</ele>
        <time>2019-07-14T12:20:13Z</time>
      </trkpt>
      <trkpt lat="42.6102577150" lon="19.9580667447">
        <ele>1140.74</ele>
        <time>2019-07-14T12:20:25Z</time>
      </trkpt>
      <trkpt lat="42.6103018876" lon="19.9579090811">
        <ele>1140.26</ele>
        <time>2019-07-14T12:20:34Z</time>
      </trkpt>
      <trkpt lat="42.6104480680" lon="19.9577388447">
        <ele>1139.78</ele>
        <time>2019-07-14T12:20:48Z</time>
      </trkpt>
      <trkpt lat="42.6106023788" lon="19.9575874675">
        <ele>1137.38</ele>
        <time>2019-07-14T12:21:01Z</time>
      </trkpt>
      <trkpt lat="42.6107794885" lon="19.9574083462">
        <ele>1134.97</ele>
        <time>2019-07-14T12:21:15Z</time>
      </trkpt>
      <trkpt lat="42.6109358110" lon="19.9572563823">
        <ele>1133.05</ele>
        <time>2019-07-14T12:21:27Z</time>
      </trkpt>
      <trkpt lat="42.6111202966" lon="19.9571005628">
        <ele>1131.13</ele>
        <time>2019-07-14T12:21:42Z</time>
      </trkpt>
      <trkpt lat="42.6112139225" lon="19.9569257163">
        <ele>1128.24</ele>
        <time>2019-07-14T12:21:55Z</time>
      </trkpt>
      <trkpt lat="42.6112349611" lon="19.9569230340">
        <ele>1127.76</ele>
        <time>2019-07-14T12:22:12Z</time>
      </trkpt>
      <trkpt lat="42.6112523116" lon="19.9568987265">
        <ele>1127.76</ele>
        <time>2019-07-14T12:22:20Z</time>
      </trkpt>
      <trkpt lat="42.6112584304" lon="19.9568474293">
        <ele>1126.32</ele>
        <time>2019-07-14T12:22:24Z</time>
      </trkpt>
      <trkpt lat="42.6112654712" lon="19.9567202758">
        <ele>1124.88</ele>
        <time>2019-07-14T12:22:30Z</time>
      </trkpt>
      <trkpt lat="42.6112778764" lon="19.9566652067">
        <ele>1124.40</ele>
        <time>2019-07-14T12:22:33Z</time>
      </trkpt>
      <trkpt lat="42.6113140862" lon="19.9564400688">
        <ele>1120.55</ele>
        <time>2019-07-14T12:22:45Z</time>
      </trkpt>
      <trkpt lat="42.6112901140" lon="19.9562938884">
        <ele>1119.11</ele>
        <time>2019-07-14T12:23:01Z</time>
      </trkpt>
      <trkpt lat="42.6112850849" lon="19.9562961515">
        <ele>1119.59</ele>
        <time>2019-07-14T12:23:18Z</time>
      </trkpt>
      <trkpt lat="42.6112730987" lon="19.9562727660">
        <ele>1118.15</ele>
        <time>2019-07-14T12:23:34Z</time>
      </trkpt>
      <trkpt lat="42.6112622861" lon="19.9562207982">
        <ele>1117.67</ele>
        <time>2019-07-14T12:23:38Z</time>
      </trkpt>
      <trkpt lat="42.6112017687" lon="19.9560425989">
        <ele>1114.31</ele>
        <time>2019-07-14T12:23:48Z</time>
      </trkpt>
      <trkpt lat="42.6110982522" lon="19.9559161998">
        <ele>1111.90</ele>
        <time>2019-07-14T12:23:57Z</time>
      </trkpt>
      <trkpt lat="42.6110658143" lon="19.9558880366">
        <ele>1111.42</ele>
        <time>2019-07-14T12:24:00Z</time>
      </trkpt>
      <trkpt lat="42.6109725237" lon="19.9558004458">
        <ele>1110.46</ele>
        <time>2019-07-14T12:24:11Z</time>
      </trkpt>
      <trkpt lat="42.6109708473" lon="19.9557773955">
        <ele>1110.46</ele>
        <time>2019-07-14T12:24:14Z</time>
      </trkpt>
      <trkpt lat="42.6109184604" lon="19.9557297025">
        <ele>1109.98</ele>
        <time>2019-07-14T12:24:19Z</time>
      </trkpt>
      <trkpt lat="42.6108818315" lon="19.9557054788">
        <ele>1109.50</ele>
        <time>2019-07-14T12:24:22Z</time>
      </trkpt>
      <trkpt lat="42.6107572764" lon="19.9556365795">
        <ele>1107.58</ele>
        <time>2019-07-14T12:24:32Z</time>
      </trkpt>
      <trkpt lat="42.6105664205" lon="19.9555865396">
        <ele>1103.73</ele>
        <time>2019-07-14T12:24:45Z</time>
      </trkpt>
      <trkpt lat="42.6104072481" lon="19.9555044807">
        <ele>1101.33</ele>
        <time>2019-07-14T12:24:56Z</time>
      </trkpt>
      <trkpt lat="42.6102110278" lon="19.9554002099">
        <ele>1099.40</ele>
        <time>2019-07-14T12:25:11Z</time>
      </trkpt>
      <trkpt lat="42.6100313198" lon="19.9552773312">
        <ele>1097.96</ele>
        <time>2019-07-14T12:25:25Z</time>
      </trkpt>
      <trkpt lat="42.6098727342" lon="19.9551693723">
        <ele>1096.04</ele>
        <time>2019-07-14T12:25:37Z</time>
      </trkpt>
      <trkpt lat="42.6096558943" lon="19.9549967889">
        <ele>1093.16</ele>
        <time>2019-07-14T12:25:54Z</time>
      </trkpt>
      <trkpt lat="42.6094501186" lon="19.9548563920">
        <ele>1091.23</ele>
        <time>2019-07-14T12:26:09Z</time>
      </trkpt>
      <trkpt lat="42.6093769446" lon="19.9548278097">
        <ele>1090.75</ele>
        <time>2019-07-14T12:26:14Z</time>
      </trkpt>
      <trkpt lat="42.6092530601" lon="19.9548207689">
        <ele>1088.35</ele>
        <time>2019-07-14T12:26:22Z</time>
      </trkpt>
      <trkpt lat="42.6090365555" lon="19.9548486806">
        <ele>1086.43</ele>
        <time>2019-07-14T12:26:37Z</time>
      </trkpt>
      <trkpt lat="42.6089905389" lon="19.9547983892">
        <ele>1084.99</ele>
        <time>2019-07-14T12:26:41Z</time>
      </trkpt>
      <trkpt lat="42.6089330390" lon="19.9546579923">
        <ele>1084.99</ele>
        <time>2019-07-14T12:26:51Z</time>
      </trkpt>
      <trkpt lat="42.6088754553" lon="19.9545550626">
        <ele>1084.50</ele>
        <time>2019-07-14T12:26:59Z</time>
      </trkpt>
      <trkpt lat="42.6088563446" lon="19.9544796254">
        <ele>1084.50</ele>
        <time>2019-07-14T12:27:03Z</time>
      </trkpt>
      <trkpt lat="42.6087378245" lon="19.9542734306">
        <ele>1085.95</ele>
        <time>2019-07-14T12:27:17Z</time>
      </trkpt>
      <trkpt lat="42.6086334698" lon="19.9541461933">
        <ele>1084.99</ele>
        <time>2019-07-14T12:27:27Z</time>
      </trkpt>
      <trkpt lat="42.6084923185" lon="19.9540139269">
        <ele>1083.54</ele>
        <time>2019-07-14T12:27:39Z</time>
      </trkpt>
      <trkpt lat="42.6084816735" lon="19.9540118314">
        <ele>1083.54</ele>
        <time>2019-07-14T12:27:40Z</time>
      </trkpt>
      <trkpt lat="42.6082846150" lon="19.9538560957">
        <ele>1081.62</ele>
        <time>2019-07-14T12:27:55Z</time>
      </trkpt>
      <trkpt lat="42.6081764046" lon="19.9538468756">
        <ele>1079.70</ele>
        <time>2019-07-14T12:28:02Z</time>
      </trkpt>
      <trkpt lat="42.6080679428" lon="19.9538386613">
        <ele>1078.26</ele>
        <time>2019-07-14T12:28:09Z</time>
      </trkpt>
      <trkpt lat="42.6079341676" lon="19.9538095761">
        <ele>1075.37</ele>
        <time>2019-07-14T12:28:19Z</time>
      </trkpt>
      <trkpt lat="42.6078062598" lon="19.9537887052">
        <ele>1072.01</ele>
        <time>2019-07-14T12:28:29Z</time>
      </trkpt>
      <trkpt lat="42.6076263841" lon="19.9537338875">
        <ele>1069.60</ele>
        <time>2019-07-14T12:28:40Z</time>
      </trkpt>
      <trkpt lat="42.6075255498" lon="19.9536607973">
        <ele>1068.16</ele>
        <time>2019-07-14T12:28:46Z</time>
      </trkpt>
      <trkpt lat="42.6073000766" lon="19.9535625614">
        <ele>1066.24</ele>
        <time>2019-07-14T12:29:01Z</time>
      </trkpt>
      <trkpt lat="42.6072002482" lon="19.9534130283">
        <ele>1065.28</ele>
        <time>2019-07-14T12:29:12Z</time>
      </trkpt>
      <trkpt lat="42.6071964763" lon="19.9533992819">
        <ele>1065.28</ele>
        <time>2019-07-14T12:29:13Z</time>
      </trkpt>
      <trkpt lat="42.6071865857" lon="19.9532397743">
        <ele>1064.32</ele>
        <time>2019-07-14T12:29:21Z</time>
      </trkpt>
      <trkpt lat="42.6071788743" lon="19.9531142972">
        <ele>1062.87</ele>
        <time>2019-07-14T12:29:27Z</time>
      </trkpt>
      <trkpt lat="42.6070586778" lon="19.9529074319">
        <ele>1059.99</ele>
        <time>2019-07-14T12:29:40Z</time>
      </trkpt>
      <trkpt lat="42.6069126651" lon="19.9528237805">
        <ele>1057.11</ele>
        <time>2019-07-14T12:29:51Z</time>
      </trkpt>
      <trkpt lat="42.6068912912" lon="19.9528185837">
        <ele>1056.63</ele>
        <time>2019-07-14T12:29:53Z</time>
      </trkpt>
      <trkpt lat="42.6067150198" lon="19.9527984671">
        <ele>1053.74</ele>
        <time>2019-07-14T12:30:04Z</time>
      </trkpt>
      <trkpt lat="42.6064752135" lon="19.9527644366">
        <ele>1051.34</ele>
        <time>2019-07-14T12:30:18Z</time>
      </trkpt>
      <trkpt lat="42.6062676776" lon="19.9527739082">
        <ele>1048.45</ele>
        <time>2019-07-14T12:30:33Z</time>
      </trkpt>
      <trkpt lat="42.6061853673" lon="19.9527828768">
        <ele>1047.49</ele>
        <time>2019-07-14T12:30:38Z</time>
      </trkpt>
      <trkpt lat="42.6059920806" lon="19.9528201763">
        <ele>1043.65</ele>
        <time>2019-07-14T12:30:50Z</time>
      </trkpt>
      <trkpt lat="42.6058866363" lon="19.9528401252">
        <ele>1042.21</ele>
        <time>2019-07-14T12:30:56Z</time>
      </trkpt>
      <trkpt lat="42.6058581378" lon="19.9528307375">
        <ele>1041.73</ele>
        <time>2019-07-14T12:30:58Z</time>
      </trkpt>
      <trkpt lat="42.6057655178" lon="19.9527433142">
        <ele>1039.80</ele>
        <time>2019-07-14T12:31:06Z</time>
      </trkpt>
      <trkpt lat="42.6057085209" lon="19.9527167436">
        <ele>1038.84</ele>
        <time>2019-07-14T12:31:10Z</time>
      </trkpt>
      <trkpt lat="42.6056407113" lon="19.9527041707">
        <ele>1038.36</ele>
        <time>2019-07-14T12:31:15Z</time>
      </trkpt>
      <trkpt lat="42.6055283938" lon="19.9526747502">
        <ele>1037.40</ele>
        <time>2019-07-14T12:31:30Z</time>
      </trkpt>
      <trkpt lat="42.6055407152" lon="19.9526572321">
        <ele>1037.40</ele>
        <time>2019-07-14T12:31:50Z</time>
      </trkpt>
      <trkpt lat="42.6054328401" lon="19.9526327569">
        <ele>1036.44</ele>
        <time>2019-07-14T12:32:03Z</time>
      </trkpt>
      <trkpt lat="42.6053164992" lon="19.9526127242">
        <ele>1035.48</ele>
        <time>2019-07-14T12:32:12Z</time>
      </trkpt>
      <trkpt lat="42.6051271521" lon="19.9525708146">
        <ele>1033.55</ele>
        <time>2019-07-14T12:32:26Z</time>
      </trkpt>
      <trkpt lat="42.6050108951" lon="19.9525587447">
        <ele>1032.11</ele>
        <time>2019-07-14T12:32:35Z</time>
      </trkpt>
      <trkpt lat="42.6048279181" lon="19.9524832238">
        <ele>1030.19</ele>
        <time>2019-07-14T12:32:49Z</time>
      </trkpt>
      <trkpt lat="42.6046933047" lon="19.9524655379">
        <ele>1029.23</ele>
        <time>2019-07-14T12:33:00Z</time>
      </trkpt>
      <trkpt lat="42.6046509761" lon="19.9524427392">
        <ele>1028.75</ele>
        <time>2019-07-14T12:33:13Z</time>
      </trkpt>
      <trkpt lat="42.6046606153" lon="19.9524234608">
        <ele>1028.27</ele>
        <time>2019-07-14T12:33:36Z</time>
      </trkpt>
      <trkpt lat="42.6046624593" lon="19.9524337705">
        <ele>1028.27</ele>
        <time>2019-07-14T12:34:01Z</time>
      </trkpt>
      <trkpt lat="42.6046640519" lon="19.9524154142">
        <ele>1028.27</ele>
        <time>2019-07-14T12:34:30Z</time>
      </trkpt>
      <trkpt lat="42.6046647225" lon="19.9524204433">
        <ele>1028.27</ele>
        <time>2019-07-14T12:34:53Z</time>
      </trkpt>
      <trkpt lat="42.6046687458" lon="19.9524300825">
        <ele>1028.27</ele>
        <time>2019-07-14T12:35:18Z</time>
      </trkpt>
      <trkpt lat="42.6046627108" lon="19.9524118099">
        <ele>1028.27</ele>
        <time>2019-07-14T12:35:48Z</time>
      </trkpt>
      <trkpt lat="42.6046985015" lon="19.9524293281">
        <ele>1028.27</ele>
        <time>2019-07-14T12:36:13Z</time>
      </trkpt>
      <trkpt lat="42.6046137605" lon="19.9524297472">
        <ele>1028.75</ele>
        <time>2019-07-14T12:36:28Z</time>
      </trkpt>
      <trkpt lat="42.6044466253" lon="19.9524525460">
        <ele>1026.83</ele>
        <time>2019-07-14T12:36:43Z</time>
      </trkpt>
      <trkpt lat="42.6042631455" lon="19.9524201080">
        <ele>1023.94</ele>
        <time>2019-07-14T12:36:56Z</time>
      </trkpt>
      <trkpt lat="42.6042281929" lon="19.9524100497">
        <ele>1023.46</ele>
        <time>2019-07-14T12:36:59Z</time>
      </trkpt>
      <trkpt lat="42.6041907258" lon="19.9523940403">
        <ele>1023.46</ele>
        <time>2019-07-14T12:37:02Z</time>
      </trkpt>
      <trkpt lat="42.6041158754" lon="19.9523328524">
        <ele>1022.50</ele>
        <time>2019-07-14T12:37:08Z</time>
      </trkpt>
      <trkpt lat="42.6040774863" lon="19.9523149990">
        <ele>1022.02</ele>
        <time>2019-07-14T12:37:11Z</time>
      </trkpt>
      <trkpt lat="42.6039438788" lon="19.9522898532">
        <ele>1021.06</ele>
        <time>2019-07-14T12:37:21Z</time>
      </trkpt>
      <trkpt lat="42.6038083434" lon="19.9522838183">
        <ele>1019.13</ele>
        <time>2019-07-14T12:37:31Z</time>
      </trkpt>
      <trkpt lat="42.6035840437" lon="19.9522274919">
        <ele>1016.25</ele>
        <time>2019-07-14T12:37:47Z</time>
      </trkpt>
      <trkpt lat="42.6035586465" lon="19.9522215407">
        <ele>1015.29</ele>
        <time>2019-07-14T12:37:49Z</time>
      </trkpt>
      <trkpt lat="42.6034081914" lon="19.9521396495">
        <ele>1013.37</ele>
        <time>2019-07-14T12:38:00Z</time>
      </trkpt>
      <trkpt lat="42.6032892521" lon="19.9520647991">
        <ele>1010.00</ele>
        <time>2019-07-14T12:38:11Z</time>
      </trkpt>
      <trkpt lat="42.6031495258" lon="19.9519774597">
        <ele>1006.16</ele>
        <time>2019-07-14T12:38:22Z</time>
      </trkpt>
      <trkpt lat="42.6030253060" lon="19.9518451095">
        <ele>1003.27</ele>
        <time>2019-07-14T12:38:33Z</time>
      </trkpt>
      <trkpt lat="42.6029904373" lon="19.9517886993">
        <ele>1002.31</ele>
        <time>2019-07-14T12:38:37Z</time>
      </trkpt>
      <trkpt lat="42.6029370446" lon="19.9517550040">
        <ele>1000.87</ele>
        <time>2019-07-14T12:38:41Z</time>
      </trkpt>
      <trkpt lat="42.6028137468" lon="19.9516212288">
        <ele>997.51</ele>
        <time>2019-07-14T12:38:51Z</time>
      </trkpt>
      <trkpt lat="42.6026578434" lon="19.9515399244">
        <ele>995.10</ele>
        <time>2019-07-14T12:39:03Z</time>
      </trkpt>
      <trkpt lat="42.6026444323" lon="19.9515366554">
        <ele>994.62</ele>
        <time>2019-07-14T12:39:04Z</time>
      </trkpt>
      <trkpt lat="42.6024968270" lon="19.9515125155">
        <ele>991.74</ele>
        <time>2019-07-14T12:39:15Z</time>
      </trkpt>
      <trkpt lat="42.6025053766" lon="19.9513239227">
        <ele>988.85</ele>
        <time>2019-07-14T12:39:26Z</time>
      </trkpt>
      <trkpt lat="42.6025226433" lon="19.9512905627">
        <ele>987.89</ele>
        <time>2019-07-14T12:39:38Z</time>
      </trkpt>
      <trkpt lat="42.6025203802" lon="19.9512826838">
        <ele>987.89</ele>
        <time>2019-07-14T12:39:56Z</time>
      </trkpt>
      <trkpt lat="42.6025267504" lon="19.9512722064">
        <ele>987.89</ele>
        <time>2019-07-14T12:39:57Z</time>
      </trkpt>
      <trkpt lat="42.6025243197" lon="19.9512018822">
        <ele>987.89</ele>
        <time>2019-07-14T12:40:01Z</time>
      </trkpt>
      <trkpt lat="42.6025035325" lon="19.9511425383">
        <ele>986.93</ele>
        <time>2019-07-14T12:40:05Z</time>
      </trkpt>
      <trkpt lat="42.6023643930" lon="19.9509578012">
        <ele>984.05</ele>
        <time>2019-07-14T12:40:19Z</time>
      </trkpt>
      <trkpt lat="42.6022572722" lon="19.9507318251">
        <ele>981.64</ele>
        <time>2019-07-14T12:40:34Z</time>
      </trkpt>
      <trkpt lat="42.6021534204" lon="19.9504760094">
        <ele>979.72</ele>
        <time>2019-07-14T12:40:50Z</time>
      </trkpt>
      <trkpt lat="42.6020586211" lon="19.9501785357">
        <ele>976.84</ele>
        <time>2019-07-14T12:41:08Z</time>
      </trkpt>
      <trkpt lat="42.6019804180" lon="19.9499066267">
        <ele>975.39</ele>
        <time>2019-07-14T12:41:24Z</time>
      </trkpt>
      <trkpt lat="42.6018942520" lon="19.9496368971">
        <ele>973.47</ele>
        <time>2019-07-14T12:41:40Z</time>
      </trkpt>
      <trkpt lat="42.6017965190" lon="19.9493033811">
        <ele>971.55</ele>
        <time>2019-07-14T12:41:59Z</time>
      </trkpt>
      <trkpt lat="42.6017440483" lon="19.9490137026">
        <ele>969.63</ele>
        <time>2019-07-14T12:42:15Z</time>
      </trkpt>
      <trkpt lat="42.6016953494" lon="19.9487184081">
        <ele>968.18</ele>
        <time>2019-07-14T12:42:32Z</time>
      </trkpt>
      <trkpt lat="42.6016472373" lon="19.9484002311">
        <ele>967.22</ele>
        <time>2019-07-14T12:42:50Z</time>
      </trkpt>
      <trkpt lat="42.6015962753" lon="19.9480932020">
        <ele>966.26</ele>
        <time>2019-07-14T12:43:07Z</time>
      </trkpt>
      <trkpt lat="42.6015544496" lon="19.9478090554">
        <ele>965.30</ele>
        <time>2019-07-14T12:43:23Z</time>
      </trkpt>
      <trkpt lat="42.6015084330" lon="19.9475533236">
        <ele>964.82</ele>
        <time>2019-07-14T12:43:37Z</time>
      </trkpt>
      <trkpt lat="42.6014104486" lon="19.9473277666">
        <ele>963.38</ele>
        <time>2019-07-14T12:43:51Z</time>
      </trkpt>
      <trkpt lat="42.6012744103" lon="19.9472603761">
        <ele>962.42</ele>
        <time>2019-07-14T12:44:03Z</time>
      </trkpt>
      <trkpt lat="42.6012264658" lon="19.9472369906">
        <ele>961.94</ele>
        <time>2019-07-14T12:44:07Z</time>
      </trkpt>
      <trkpt lat="42.6011044253" lon="19.9472060613">
        <ele>961.46</ele>
        <time>2019-07-14T12:44:17Z</time>
      </trkpt>
      <trkpt lat="42.6008326840" lon="19.9471850228">
        <ele>960.01</ele>
        <time>2019-07-14T12:44:38Z</time>
      </trkpt>
      <trkpt lat="42.6006217115" lon="19.9471700191">
        <ele>958.57</ele>
        <time>2019-07-14T12:44:54Z</time>
      </trkpt>
      <trkpt lat="42.6004021894" lon="19.9471273553">
        <ele>957.13</ele>
        <time>2019-07-14T12:45:11Z</time>
      </trkpt>
      <trkpt lat="42.6003289316" lon="19.9471254274">
        <ele>957.13</ele>
        <time>2019-07-14T12:45:16Z</time>
      </trkpt>
      <trkpt lat="42.6001018658" lon="19.9470735434">
        <ele>955.69</ele>
        <time>2019-07-14T12:45:33Z</time>
      </trkpt>
      <trkpt lat="42.5999094173" lon="19.9471084122">
        <ele>954.73</ele>
        <time>2019-07-14T12:45:47Z</time>
      </trkpt>
      <trkpt lat="42.5997491553" lon="19.9471742101">
        <ele>953.77</ele>
        <time>2019-07-14T12:46:00Z</time>
      </trkpt>
      <trkpt lat="42.5995893124" lon="19.9472643156">
        <ele>952.80</ele>
        <time>2019-07-14T12:46:13Z</time>
      </trkpt>
      <trkpt lat="42.5995490793" lon="19.9472746253">
        <ele>952.80</ele>
        <time>2019-07-14T12:46:17Z</time>
      </trkpt>
      <trkpt lat="42.5993974507" lon="19.9473067280">
        <ele>951.84</ele>
        <time>2019-07-14T12:46:28Z</time>
      </trkpt>
      <trkpt lat="42.5992962811" lon="19.9473311193">
        <ele>950.88</ele>
        <time>2019-07-14T12:46:36Z</time>
      </trkpt>
      <trkpt lat="42.5992559642" lon="19.9473447818">
        <ele>950.88</ele>
        <time>2019-07-14T12:46:39Z</time>
      </trkpt>
      <trkpt lat="42.5991640985" lon="19.9473646469">
        <ele>950.88</ele>
        <time>2019-07-14T12:46:46Z</time>
      </trkpt>
      <trkpt lat="42.5991039164" lon="19.9473695923">
        <ele>950.40</ele>
        <time>2019-07-14T12:46:50Z</time>
      </trkpt>
      <trkpt lat="42.5990397949" lon="19.9473799858">
        <ele>950.40</ele>
        <time>2019-07-14T12:46:55Z</time>
      </trkpt>
      <trkpt lat="42.5989806186" lon="19.9474013597">
        <ele>949.92</ele>
        <time>2019-07-14T12:47:00Z</time>
      </trkpt>
      <trkpt lat="42.5988373719" lon="19.9474370666">
        <ele>949.44</ele>
        <time>2019-07-14T12:47:10Z</time>
      </trkpt>
      <trkpt lat="42.5986393914" lon="19.9474414252">
        <ele>948.48</ele>
        <time>2019-07-14T12:47:24Z</time>
      </trkpt>
      <trkpt lat="42.5984454341" lon="19.9474663194">
        <ele>948.00</ele>
        <time>2019-07-14T12:47:38Z</time>
      </trkpt>
      <trkpt lat="42.5982327852" lon="19.9474715162">
        <ele>947.52</ele>
        <time>2019-07-14T12:47:55Z</time>
      </trkpt>
      <trkpt lat="42.5981760398" lon="19.9474302772">
        <ele>947.52</ele>
        <time>2019-07-14T12:48:00Z</time>
      </trkpt>
      <trkpt lat="42.5980410073" lon="19.9474035390">
        <ele>947.52</ele>
        <time>2019-07-14T12:48:10Z</time>
      </trkpt>
      <trkpt lat="42.5978450384" lon="19.9473670777">
        <ele>947.04</ele>
        <time>2019-07-14T12:48:25Z</time>
      </trkpt>
      <trkpt lat="42.5976726227" lon="19.9473157804">
        <ele>947.04</ele>
        <time>2019-07-14T12:48:39Z</time>
      </trkpt>
      <trkpt lat="42.5975814275" lon="19.9472976755">
        <ele>947.04</ele>
        <time>2019-07-14T12:48:46Z</time>
      </trkpt>
      <trkpt lat="42.5974040665" lon="19.9472885393">
        <ele>947.04</ele>
        <time>2019-07-14T12:49:02Z</time>
      </trkpt>
      <trkpt lat="42.5973563734" lon="19.9472937360">
        <ele>947.04</ele>
        <time>2019-07-14T12:49:06Z</time>
      </trkpt>
      <trkpt lat="42.5972173177" lon="19.9473025370">
        <ele>947.04</ele>
        <time>2019-07-14T12:49:19Z</time>
      </trkpt>
      <trkpt lat="42.5970761664" lon="19.9472874496">
        <ele>947.04</ele>
        <time>2019-07-14T12:49:30Z</time>
      </trkpt>
      <trkpt lat="42.5970101170" lon="19.9472463783">
        <ele>947.04</ele>
        <time>2019-07-14T12:49:37Z</time>
      </trkpt>
      <trkpt lat="42.5969542097" lon="19.9471341446">
        <ele>948.00</ele>
        <time>2019-07-14T12:49:53Z</time>
      </trkpt>
      <trkpt lat="42.5969333388" lon="19.9471078254">
        <ele>948.00</ele>
        <time>2019-07-14T12:49:56Z</time>
      </trkpt>
      <trkpt lat="42.5967646111" lon="19.9469518382">
        <ele>948.00</ele>
        <time>2019-07-14T12:50:13Z</time>
      </trkpt>
      <trkpt lat="42.5967423152" lon="19.9469307158">
        <ele>948.00</ele>
        <time>2019-07-14T12:50:15Z</time>
      </trkpt>
      <trkpt lat="42.5965855736" lon="19.9468126986">
        <ele>948.48</ele>
        <time>2019-07-14T12:50:31Z</time>
      </trkpt>
      <trkpt lat="42.5965484418" lon="19.9467854574">
        <ele>948.48</ele>
        <time>2019-07-14T12:50:34Z</time>
      </trkpt>
      <trkpt lat="42.5964285806" lon="19.9466359243">
        <ele>948.96</ele>
        <time>2019-07-14T12:50:48Z</time>
      </trkpt>
      <trkpt lat="42.5963844918" lon="19.9465841241">
        <ele>948.96</ele>
        <time>2019-07-14T12:51:02Z</time>
      </trkpt>
      <trkpt lat="42.5963887665" lon="19.9465735629">
        <ele>948.96</ele>
        <time>2019-07-14T12:51:03Z</time>
      </trkpt>
      <trkpt lat="42.5964406505" lon="19.9464527797">
        <ele>948.96</ele>
        <time>2019-07-14T12:51:16Z</time>
      </trkpt>
      <trkpt lat="42.5964605995" lon="19.9464563839">
        <ele>948.96</ele>
        <time>2019-07-14T12:51:30Z</time>
      </trkpt>
      <trkpt lat="42.5964527205" lon="19.9463845510">
        <ele>948.96</ele>
        <time>2019-07-14T12:51:45Z</time>
      </trkpt>
      <trkpt lat="42.5964524690" lon="19.9462522846">
        <ele>948.96</ele>
        <time>2019-07-14T12:51:56Z</time>
      </trkpt>
      <trkpt lat="42.5964569952" lon="19.9462039210">
        <ele>948.96</ele>
        <time>2019-07-14T12:52:00Z</time>
      </trkpt>
      <trkpt lat="42.5964968093" lon="19.9459279887">
        <ele>948.96</ele>
        <time>2019-07-14T12:52:17Z</time>
      </trkpt>
      <trkpt lat="42.5965465978" lon="19.9457250629">
        <ele>948.96</ele>
        <time>2019-07-14T12:52:31Z</time>
      </trkpt>
      <trkpt lat="42.5966031756" lon="19.9454735219">
        <ele>949.92</ele>
        <time>2019-07-14T12:52:47Z</time>
      </trkpt>
      <trkpt lat="42.5966666266" lon="19.9451951589">
        <ele>951.36</ele>
        <time>2019-07-14T12:53:02Z</time>
      </trkpt>
      <trkpt lat="42.5966812111" lon="19.9451123457">
        <ele>951.84</ele>
        <time>2019-07-14T12:53:08Z</time>
      </trkpt>
      <trkpt lat="42.5967424829" lon="19.9449511617">
        <ele>952.80</ele>
        <time>2019-07-14T12:53:21Z</time>
      </trkpt>
      <trkpt lat="42.5967855658" lon="19.9448480643">
        <ele>953.77</ele>
        <time>2019-07-14T12:53:29Z</time>
      </trkpt>
      <trkpt lat="42.5968199316" lon="19.9447246827">
        <ele>955.21</ele>
        <time>2019-07-14T12:53:41Z</time>
      </trkpt>
      <trkpt lat="42.5968227815" lon="19.9447168875">
        <ele>955.21</ele>
        <time>2019-07-14T12:53:42Z</time>
      </trkpt>
      <trkpt lat="42.5968646072" lon="19.9445325695">
        <ele>956.17</ele>
        <time>2019-07-14T12:53:55Z</time>
      </trkpt>
      <trkpt lat="42.5968728215" lon="19.9445223436">
        <ele>956.17</ele>
        <time>2019-07-14T12:53:56Z</time>
      </trkpt>
      <trkpt lat="42.5969179999" lon="19.9443711340">
        <ele>957.61</ele>
        <time>2019-07-14T12:54:10Z</time>
      </trkpt>
      <trkpt lat="42.5969351828" lon="19.9443383608">
        <ele>958.57</ele>
        <time>2019-07-14T12:54:14Z</time>
      </trkpt>
      <trkpt lat="42.5969467498" lon="19.9443265423">
        <ele>958.57</ele>
        <time>2019-07-14T12:54:16Z</time>
      </trkpt>
      <trkpt lat="42.5969752483" lon="19.9441622570">
        <ele>958.57</ele>
        <time>2019-07-14T12:54:27Z</time>
      </trkpt>
      <trkpt lat="42.5969578139" lon="19.9440420605">
        <ele>958.57</ele>
        <time>2019-07-14T12:54:36Z</time>
      </trkpt>
      <trkpt lat="42.5969642680" lon="19.9437963031">
        <ele>958.57</ele>
        <time>2019-07-14T12:54:52Z</time>
      </trkpt>
      <trkpt lat="42.5969676208" lon="19.9437686428">
        <ele>957.61</ele>
        <time>2019-07-14T12:54:54Z</time>
      </trkpt>
      <trkpt lat="42.5970190857" lon="19.9435807206">
        <ele>955.69</ele>
        <time>2019-07-14T12:55:08Z</time>
      </trkpt>
      <trkpt lat="42.5970877334" lon="19.9433137570">
        <ele>954.25</ele>
        <time>2019-07-14T12:55:26Z</time>
      </trkpt>
      <trkpt lat="42.5971365999" lon="19.9430751242">
        <ele>953.28</ele>
        <time>2019-07-14T12:55:42Z</time>
      </trkpt>
      <trkpt lat="42.5971502624" lon="19.9429854378">
        <ele>953.28</ele>
        <time>2019-07-14T12:55:48Z</time>
      </trkpt>
      <trkpt lat="42.5972017273" lon="19.9427676760">
        <ele>952.32</ele>
        <time>2019-07-14T12:56:03Z</time>
      </trkpt>
      <trkpt lat="42.5972681120" lon="19.9424529355">
        <ele>951.84</ele>
        <time>2019-07-14T12:56:21Z</time>
      </trkpt>
      <trkpt lat="42.5972945150" lon="19.9422679469">
        <ele>951.84</ele>
        <time>2019-07-14T12:56:34Z</time>
      </trkpt>
      <trkpt lat="42.5973609835" lon="19.9420247879">
        <ele>951.36</ele>
        <time>2019-07-14T12:56:50Z</time>
      </trkpt>
      <trkpt lat="42.5974231772" lon="19.9417074490">
        <ele>951.36</ele>
        <time>2019-07-14T12:57:07Z</time>
      </trkpt>
      <trkpt lat="42.5974887237" lon="19.9414196145">
        <ele>950.88</ele>
        <time>2019-07-14T12:57:25Z</time>
      </trkpt>
      <trkpt lat="42.5975252688" lon="19.9411876872">
        <ele>950.40</ele>
        <time>2019-07-14T12:57:39Z</time>
      </trkpt>
      <trkpt lat="42.5975469779" lon="19.9410998449">
        <ele>949.92</ele>
        <time>2019-07-14T12:57:45Z</time>
      </trkpt>
      <trkpt lat="42.5975660048" lon="19.9410391599">
        <ele>949.92</ele>
        <time>2019-07-14T12:57:49Z</time>
      </trkpt>
      <trkpt lat="42.5976445433" lon="19.9407325499">
        <ele>949.44</ele>
        <time>2019-07-14T12:58:07Z</time>
      </trkpt>
      <trkpt lat="42.5977683440" lon="19.9404991977">
        <ele>949.44</ele>
        <time>2019-07-14T12:58:24Z</time>
      </trkpt>
      <trkpt lat="42.5977853592" lon="19.9404633231">
        <ele>949.44</ele>
        <time>2019-07-14T12:58:27Z</time>
      </trkpt>
      <trkpt lat="42.5978172105" lon="19.9403914902">
        <ele>948.96</ele>
        <time>2019-07-14T12:58:32Z</time>
      </trkpt>
      <trkpt lat="42.5978378300" lon="19.9403323978">
        <ele>948.48</ele>
        <time>2019-07-14T12:58:36Z</time>
      </trkpt>
      <trkpt lat="42.5979048014" lon="19.9402271211">
        <ele>948.48</ele>
        <time>2019-07-14T12:58:45Z</time>
      </trkpt>
      <trkpt lat="42.5979452021" lon="19.9401401170">
        <ele>948.48</ele>
        <time>2019-07-14T12:58:51Z</time>
      </trkpt>
      <trkpt lat="42.5980391633" lon="19.9399106205">
        <ele>948.48</ele>
        <time>2019-07-14T12:59:07Z</time>
      </trkpt>
      <trkpt lat="42.5980652310" lon="19.9398501031">
        <ele>948.48</ele>
        <time>2019-07-14T12:59:11Z</time>
      </trkpt>
      <trkpt lat="42.5981793925" lon="19.9396063574">
        <ele>948.00</ele>
        <time>2019-07-14T12:59:29Z</time>
      </trkpt>
      <trkpt lat="42.5982924644" lon="19.9394231290">
        <ele>948.00</ele>
        <time>2019-07-14T12:59:46Z</time>
      </trkpt>
      <trkpt lat="42.5983819831" lon="19.9392362963">
        <ele>948.00</ele>
        <time>2019-07-14T12:59:59Z</time>
      </trkpt>
      <trkpt lat="42.5984153431" lon="19.9392149225">
        <ele>948.00</ele>
        <time>2019-07-14T13:00:02Z</time>
      </trkpt>
      <trkpt lat="42.5985717494" lon="19.9391520582">
        <ele>948.96</ele>
        <time>2019-07-14T13:00:20Z</time>
      </trkpt>
      <trkpt lat="42.5986482762" lon="19.9391227216">
        <ele>948.96</ele>
        <time>2019-07-14T13:00:32Z</time>
      </trkpt>
      <trkpt lat="42.5986683089" lon="19.9391182791">
        <ele>948.96</ele>
        <time>2019-07-14T13:00:53Z</time>
      </trkpt>
      <trkpt lat="42.5986655429" lon="19.9391428381">
        <ele>948.96</ele>
        <time>2019-07-14T13:01:09Z</time>
      </trkpt>
      <trkpt lat="42.5986733381" lon="19.9391331989">
        <ele>948.00</ele>
        <time>2019-07-14T13:01:31Z</time>
      </trkpt>
      <trkpt lat="42.5986621901" lon="19.9391529802">
        <ele>948.00</ele>
        <time>2019-07-14T13:01:56Z</time>
      </trkpt>
      <trkpt lat="42.5986450911" lon="19.9391438439">
        <ele>948.00</ele>
        <time>2019-07-14T13:02:28Z</time>
      </trkpt>
      <trkpt lat="42.5986525510" lon="19.9391415808">
        <ele>948.00</ele>
        <time>2019-07-14T13:02:54Z</time>
      </trkpt>
      <trkpt lat="42.5986712426" lon="19.9391010962">
        <ele>948.00</ele>
        <time>2019-07-14T13:03:23Z</time>
      </trkpt>
      <trkpt lat="42.5986875873" lon="19.9390866794">
        <ele>948.00</ele>
        <time>2019-07-14T13:03:59Z</time>
      </trkpt>
      <trkpt lat="42.6076167449" lon="19.9302407540">
        <ele>928.29</ele>
        <time>2019-07-14T15:01:34Z</time>
      </trkpt>
      <trkpt lat="42.6070937980" lon="19.9301546719">
        <ele>928.29</ele>
        <time>2019-07-14T15:01:54Z</time>
      </trkpt>
      <trkpt lat="42.6067827456" lon="19.9301647302">
        <ele>928.29</ele>
        <time>2019-07-14T15:02:22Z</time>
      </trkpt>
      <trkpt lat="42.6063734572" lon="19.9300558493">
        <ele>928.29</ele>
        <time>2019-07-14T15:02:54Z</time>
      </trkpt>
      <trkpt lat="42.6096625160" lon="19.9280285183">
        <ele>928.77</ele>
        <time>2019-07-14T15:05:27Z</time>
      </trkpt>
      <trkpt lat="42.6096428186" lon="19.9280118383">
        <ele>928.77</ele>
        <time>2019-07-14T15:05:28Z</time>
      </trkpt>
      <trkpt lat="42.6085209846" lon="19.9280078989">
        <ele>928.77</ele>
        <time>2019-07-14T15:05:49Z</time>
      </trkpt>
      <trkpt lat="42.6079868898" lon="19.9280049652">
        <ele>928.77</ele>
        <time>2019-07-14T15:06:20Z</time>
      </trkpt>
      <trkpt lat="42.6056961995" lon="19.9302526563">
        <ele>928.77</ele>
        <time>2019-07-14T15:06:52Z</time>
      </trkpt>
      <trkpt lat="42.6057578903" lon="19.9303322844">
        <ele>928.77</ele>
        <time>2019-07-14T15:07:19Z</time>
      </trkpt>
      <trkpt lat="42.6059225108" lon="19.9304872658">
        <ele>928.77</ele>
        <time>2019-07-14T15:07:53Z</time>
      </trkpt>
      <trkpt lat="42.6059577987" lon="19.9305508845">
        <ele>932.62</ele>
        <time>2019-07-14T15:08:16Z</time>
      </trkpt>
      <trkpt lat="42.6059603970" lon="19.9305328634">
        <ele>936.46</ele>
        <time>2019-07-14T15:08:18Z</time>
      </trkpt>
      <trkpt lat="42.6059583854" lon="19.9305158481">
        <ele>941.75</ele>
        <time>2019-07-14T15:08:20Z</time>
      </trkpt>
      <trkpt lat="42.6059548650" lon="19.9305030238">
        <ele>944.63</ele>
        <time>2019-07-14T15:08:23Z</time>
      </trkpt>
      <trkpt lat="42.6059495844" lon="19.9305024371">
        <ele>948.48</ele>
        <time>2019-07-14T15:08:26Z</time>
      </trkpt>
      <trkpt lat="42.6059485786" lon="19.9305019341">
        <ele>951.84</ele>
        <time>2019-07-14T15:08:29Z</time>
      </trkpt>
      <trkpt lat="42.6059514284" lon="19.9305355456">
        <ele>955.21</ele>
        <time>2019-07-14T15:08:33Z</time>
      </trkpt>
      <trkpt lat="42.6059565414" lon="19.9305558298">
        <ele>958.09</ele>
        <time>2019-07-14T15:08:41Z</time>
      </trkpt>
      <trkpt lat="42.6059950143" lon="19.9306165148">
        <ele>960.01</ele>
        <time>2019-07-14T15:09:05Z</time>
      </trkpt>
      <trkpt lat="42.6060073357" lon="19.9306665547">
        <ele>960.01</ele>
        <time>2019-07-14T15:09:28Z</time>
      </trkpt>
      <trkpt lat="42.6060758159" lon="19.9307248928">
        <ele>960.01</ele>
        <time>2019-07-14T15:09:56Z</time>
      </trkpt>
      <trkpt lat="42.6060795039" lon="19.9307492841">
        <ele>960.01</ele>
        <time>2019-07-14T15:10:18Z</time>
      </trkpt>
      <trkpt lat="42.6060764026" lon="19.9306484498">
        <ele>959.53</ele>
        <time>2019-07-14T15:10:43Z</time>
      </trkpt>
      <trkpt lat="42.6059099380" lon="19.9306953046">
        <ele>959.05</ele>
        <time>2019-07-14T15:11:12Z</time>
      </trkpt>
      <trkpt lat="42.6058334112" lon="19.9306383077">
        <ele>958.57</ele>
        <time>2019-07-14T15:11:49Z</time>
      </trkpt>
      <trkpt lat="42.6058884803" lon="19.9306906946">
        <ele>958.09</ele>
        <time>2019-07-14T15:12:29Z</time>
      </trkpt>
      <trkpt lat="42.6058910787" lon="19.9307320174">
        <ele>957.61</ele>
        <time>2019-07-14T15:12:58Z</time>
      </trkpt>
      <trkpt lat="42.6059153024" lon="19.9307131581">
        <ele>956.65</ele>
        <time>2019-07-14T15:13:39Z</time>
      </trkpt>
      <trkpt lat="42.6059171464" lon="19.9306738470">
        <ele>956.17</ele>
        <time>2019-07-14T15:14:19Z</time>
      </trkpt>
      <trkpt lat="42.6059180684" lon="19.9306599330">
        <ele>955.69</ele>
        <time>2019-07-14T15:14:49Z</time>
      </trkpt>
      <trkpt lat="42.6059468184" lon="19.9306983221">
        <ele>954.73</ele>
        <time>2019-07-14T15:15:24Z</time>
      </trkpt>
      <trkpt lat="42.6059761550" lon="19.9306734279">
        <ele>954.73</ele>
        <time>2019-07-14T15:15:51Z</time>
      </trkpt>
      <trkpt lat="42.6059364248" lon="19.9306562450">
        <ele>954.25</ele>
        <time>2019-07-14T15:16:26Z</time>
      </trkpt>
      <trkpt lat="42.6059401967" lon="19.9306937959">
        <ele>953.28</ele>
        <time>2019-07-14T15:17:09Z</time>
      </trkpt>
      <trkpt lat="42.6059513446" lon="19.9307252280">
        <ele>952.32</ele>
        <time>2019-07-14T15:17:45Z</time>
      </trkpt>
      <trkpt lat="42.6059291326" lon="19.9306931254">
        <ele>951.36</ele>
        <time>2019-07-14T15:18:25Z</time>
      </trkpt>
      <trkpt lat="42.6059821062" lon="19.9306919519">
        <ele>950.88</ele>
        <time>2019-07-14T15:18:50Z</time>
      </trkpt>
      <trkpt lat="42.6059156377" lon="19.9307110626">
        <ele>950.88</ele>
        <time>2019-07-14T15:19:22Z</time>
      </trkpt>
      <trkpt lat="42.6059088483" lon="19.9306806363">
        <ele>950.88</ele>
        <time>2019-07-14T15:19:48Z</time>
      </trkpt>
      <trkpt lat="42.6059694495" lon="19.9307062849">
        <ele>950.88</ele>
        <time>2019-07-14T15:19:59Z</time>
      </trkpt>
    </trkseg>
  </trk>
</gpx>
